<?xml version='1.0' encoding='UTF-8'?><gpx version="1.1" creator="JPX - https://github.com/jenetics/jpx" xmlns="http://www.topografix.com/GPX/1/1"><trk><trkseg><trkpt lat="42.523215" lon="14.15307"><ele>1.0</ele><time>2026-05-02T07:13:51.097Z</time></trkpt><trkpt lat="42.5231333" lon="14.153145"><ele>1.0</ele><time>2026-05-02T07:13:54.096Z</time></trkpt><trkpt lat="42.52304" lon="14.1532283"><ele>1.0</ele><time>2026-05-02T07:13:56.097Z</time></trkpt><trkpt lat="42.5229617" lon="14.1532867"><ele>1.0</ele><time>2026-05-02T07:13:58.096Z</time></trkpt><trkpt lat="42.5228983" lon="14.153215"><ele>1.0</ele><time>2026-05-02T07:14:03.096Z</time></trkpt><trkpt lat="42.522845" lon="14.1531033"><ele>1.1666666666666665</ele><time>2026-05-02T07:14:06.096Z</time></trkpt><trkpt lat="42.5228067" lon="14.1530333"><ele>1.3333333333333333</ele><time>2026-05-02T07:14:11.097Z</time></trkpt><trkpt lat="42.5227617" lon="14.1529667"><ele>1.5</ele><time>2026-05-02T07:14:14.097Z</time></trkpt><trkpt lat="42.5227083" lon="14.1528933"><ele>1.6666666666666665</ele><time>2026-05-02T07:14:16.096Z</time></trkpt><trkpt lat="42.5226" lon="14.15289"><ele>1.8333333333333333</ele><time>2026-05-02T07:14:19.096Z</time></trkpt><trkpt lat="42.522505" lon="14.1529583"><ele>2.0</ele><time>2026-05-02T07:14:21.097Z</time></trkpt><trkpt lat="42.5224283" lon="14.1530083"><ele>1.9999999999999998</ele><time>2026-05-02T07:14:23.097Z</time></trkpt><trkpt lat="42.522365" lon="14.1529833"><ele>2.0</ele><time>2026-05-02T07:14:25.096Z</time></trkpt><trkpt lat="42.5223083" lon="14.1528733"><ele>2.0</ele><time>2026-05-02T07:14:27.097Z</time></trkpt><trkpt lat="42.5222633" lon="14.1527483"><ele>2.0</ele><time>2026-05-02T07:14:29.097Z</time></trkpt><trkpt lat="42.5222283" lon="14.1526417"><ele>1.9999999999999998</ele><time>2026-05-02T07:14:40.097Z</time></trkpt><trkpt lat="42.52228" lon="14.1525583"><ele>2.0</ele><time>2026-05-02T07:14:44.096Z</time></trkpt><trkpt lat="42.5223483" lon="14.1525133"><ele>2.0</ele><time>2026-05-02T07:14:47.096Z</time></trkpt><trkpt lat="42.5224017" lon="14.152465"><ele>1.9999999999999998</ele><time>2026-05-02T07:14:49.097Z</time></trkpt><trkpt lat="42.5224117" lon="14.1523767"><ele>2.0</ele><time>2026-05-02T07:14:52.097Z</time></trkpt><trkpt lat="42.5223417" lon="14.1523717"><ele>2.0</ele><time>2026-05-02T07:15:31.095Z</time></trkpt><trkpt lat="42.5222633" lon="14.15242"><ele>1.9999999999999998</ele><time>2026-05-02T07:15:35.095Z</time></trkpt><trkpt lat="42.5222083" lon="14.152475"><ele>2.0</ele><time>2026-05-02T07:15:38.095Z</time></trkpt><trkpt lat="42.5221317" lon="14.1524267"><ele>2.0</ele><time>2026-05-02T07:16:13.096Z</time></trkpt><trkpt lat="42.52209" lon="14.1523367"><ele>1.6666666666666665</ele><time>2026-05-02T07:16:15.096Z</time></trkpt><trkpt lat="42.5220467" lon="14.152235"><ele>1.3333333333333333</ele><time>2026-05-02T07:16:17.095Z</time></trkpt><trkpt lat="42.522" lon="14.1521767"><ele>1.0</ele><time>2026-05-02T07:16:20.095Z</time></trkpt><trkpt lat="42.521945" lon="14.1520567"><ele>0.6666666666666666</ele><time>2026-05-02T07:16:24.095Z</time></trkpt><trkpt lat="42.52188" lon="14.1520133"><ele>0.3333333333333333</ele><time>2026-05-02T07:16:31.095Z</time></trkpt><trkpt lat="42.5218067" lon="14.1520533"><ele>0.0</ele><time>2026-05-02T07:16:33.095Z</time></trkpt><trkpt lat="42.5217583" lon="14.1521133"><ele>0.0</ele><time>2026-05-02T07:16:37.096Z</time></trkpt><trkpt lat="42.52181" lon="14.1522133"><ele>0.0</ele><time>2026-05-02T07:16:39.095Z</time></trkpt><trkpt lat="42.5218783" lon="14.1523383"><ele>0.0</ele><time>2026-05-02T07:16:41.096Z</time></trkpt><trkpt lat="42.5219183" lon="14.152415"><ele>0.0</ele><time>2026-05-02T07:16:43.096Z</time></trkpt><trkpt lat="42.5219767" lon="14.1525117"><ele>0.0</ele><time>2026-05-02T07:16:46.095Z</time></trkpt><trkpt lat="42.52202" lon="14.1526083"><ele>0.0</ele><time>2026-05-02T07:16:50.095Z</time></trkpt><trkpt lat="42.5220517" lon="14.1526867"><ele>0.3333333333333333</ele><time>2026-05-02T07:16:52.096Z</time></trkpt><trkpt lat="42.522115" lon="14.1528367"><ele>0.6666666666666666</ele><time>2026-05-02T07:16:54.096Z</time></trkpt><trkpt lat="42.5221567" lon="14.1529233"><ele>1.0</ele><time>2026-05-02T07:16:55.096Z</time></trkpt><trkpt lat="42.5221967" lon="14.1530117"><ele>1.3333333333333333</ele><time>2026-05-02T07:16:56.096Z</time></trkpt><trkpt lat="42.5222383" lon="14.15309"><ele>1.6666666666666665</ele><time>2026-05-02T07:16:57.095Z</time></trkpt><trkpt lat="42.52229" lon="14.1531917"><ele>2.0</ele><time>2026-05-02T07:16:59.095Z</time></trkpt><trkpt lat="42.522315" lon="14.1533"><ele>1.9999999999999998</ele><time>2026-05-02T07:17:10.095Z</time></trkpt><trkpt lat="42.52228" lon="14.1534"><ele>2.0</ele><time>2026-05-02T07:17:12.095Z</time></trkpt><trkpt lat="42.5221767" lon="14.1534967"><ele>2.0</ele><time>2026-05-02T07:17:14.095Z</time></trkpt><trkpt lat="42.5221117" lon="14.1535433"><ele>2.0</ele><time>2026-05-02T07:17:15.096Z</time></trkpt><trkpt lat="42.5220583" lon="14.15359"><ele>1.9999999999999998</ele><time>2026-05-02T07:17:16.096Z</time></trkpt><trkpt lat="42.52199" lon="14.1536483"><ele>2.0</ele><time>2026-05-02T07:17:18.095Z</time></trkpt><trkpt lat="42.5219117" lon="14.1536933"><ele>1.6</ele><time>2026-05-02T07:17:31.096Z</time></trkpt><trkpt lat="42.5218617" lon="14.15361"><ele>1.2000000000000002</ele><time>2026-05-02T07:17:33.095Z</time></trkpt><trkpt lat="42.5218117" lon="14.1534333"><ele>0.8</ele><time>2026-05-02T07:17:35.095Z</time></trkpt><trkpt lat="42.52178" lon="14.1533333"><ele>0.4</ele><time>2026-05-02T07:17:36.096Z</time></trkpt><trkpt lat="42.521745" lon="14.1532267"><ele>0.0</ele><time>2026-05-02T07:17:37.096Z</time></trkpt><trkpt lat="42.52171" lon="14.1531183"><ele>-0.2</ele><time>2026-05-02T07:17:38.095Z</time></trkpt><trkpt lat="42.5216767" lon="14.1530083"><ele>-0.4</ele><time>2026-05-02T07:17:39.095Z</time></trkpt><trkpt lat="42.521635" lon="14.15289"><ele>-0.6000000000000001</ele><time>2026-05-02T07:17:40.096Z</time></trkpt><trkpt lat="42.5215983" lon="14.1527667"><ele>-0.8</ele><time>2026-05-02T07:17:41.096Z</time></trkpt><trkpt lat="42.5215583" lon="14.1526517"><ele>-1.0</ele><time>2026-05-02T07:17:42.096Z</time></trkpt><trkpt lat="42.5215167" lon="14.15252"><ele>-1.0</ele><time>2026-05-02T07:17:43.095Z</time></trkpt><trkpt lat="42.52147" lon="14.1523817"><ele>-1.0</ele><time>2026-05-02T07:17:44.096Z</time></trkpt><trkpt lat="42.521425" lon="14.152255"><ele>-1.0</ele><time>2026-05-02T07:17:45.096Z</time></trkpt><trkpt lat="42.52138" lon="14.1521333"><ele>-1.0</ele><time>2026-05-02T07:17:46.095Z</time></trkpt><trkpt lat="42.52134" lon="14.1520167"><ele>-1.0</ele><time>2026-05-02T07:17:47.095Z</time></trkpt><trkpt lat="42.5212917" lon="14.1518917"><ele>-0.75</ele><time>2026-05-02T07:17:48.095Z</time></trkpt><trkpt lat="42.5212433" lon="14.151755"><ele>-0.5</ele><time>2026-05-02T07:17:49.096Z</time></trkpt><trkpt lat="42.5211967" lon="14.1515983"><ele>-0.25</ele><time>2026-05-02T07:17:50.096Z</time></trkpt><trkpt lat="42.5211433" lon="14.1514483"><ele>0.0</ele><time>2026-05-02T07:17:51.096Z</time></trkpt><trkpt lat="42.52109" lon="14.1513133"><ele>0.3333333333333333</ele><time>2026-05-02T07:17:52.095Z</time></trkpt><trkpt lat="42.5210417" lon="14.1512"><ele>0.6666666666666666</ele><time>2026-05-02T07:17:53.096Z</time></trkpt><trkpt lat="42.5210017" lon="14.151095"><ele>1.0</ele><time>2026-05-02T07:17:54.095Z</time></trkpt><trkpt lat="42.5209717" lon="14.151"><ele>1.3333333333333333</ele><time>2026-05-02T07:17:55.095Z</time></trkpt><trkpt lat="42.5209417" lon="14.150915"><ele>1.6666666666666665</ele><time>2026-05-02T07:17:56.096Z</time></trkpt><trkpt lat="42.5208917" lon="14.1507683"><ele>2.0</ele><time>2026-05-02T07:17:58.096Z</time></trkpt><trkpt lat="42.5208667" lon="14.15066"><ele>2.1666666666666665</ele><time>2026-05-02T07:18:00.095Z</time></trkpt><trkpt lat="42.5208467" lon="14.1505667"><ele>2.333333333333333</ele><time>2026-05-02T07:18:02.096Z</time></trkpt><trkpt lat="42.520825" lon="14.1504833"><ele>2.5</ele><time>2026-05-02T07:18:04.095Z</time></trkpt><trkpt lat="42.5207783" lon="14.1503683"><ele>2.6666666666666665</ele><time>2026-05-02T07:18:06.095Z</time></trkpt><trkpt lat="42.52074" lon="14.150265"><ele>2.8333333333333335</ele><time>2026-05-02T07:18:07.095Z</time></trkpt><trkpt lat="42.520695" lon="14.15013"><ele>3.0</ele><time>2026-05-02T07:18:08.096Z</time></trkpt><trkpt lat="42.520645" lon="14.1499833"><ele>2.75</ele><time>2026-05-02T07:18:09.096Z</time></trkpt><trkpt lat="42.5205917" lon="14.1498333"><ele>2.5</ele><time>2026-05-02T07:18:10.095Z</time></trkpt><trkpt lat="42.5205317" lon="14.1496717"><ele>2.25</ele><time>2026-05-02T07:18:11.095Z</time></trkpt><trkpt lat="42.520475" lon="14.1494983"><ele>2.0</ele><time>2026-05-02T07:18:12.096Z</time></trkpt><trkpt lat="42.5204083" lon="14.1493133"><ele>2.0</ele><time>2026-05-02T07:18:13.095Z</time></trkpt><trkpt lat="42.5203467" lon="14.1491267"><ele>2.0</ele><time>2026-05-02T07:18:14.096Z</time></trkpt><trkpt lat="42.5202817" lon="14.148945"><ele>2.0</ele><time>2026-05-02T07:18:15.095Z</time></trkpt><trkpt lat="42.5202183" lon="14.1487683"><ele>2.0</ele><time>2026-05-02T07:18:16.096Z</time></trkpt><trkpt lat="42.5201517" lon="14.1485883"><ele>2.0</ele><time>2026-05-02T07:18:17.096Z</time></trkpt><trkpt lat="42.52008" lon="14.1484167"><ele>2.0</ele><time>2026-05-02T07:18:18.095Z</time></trkpt><trkpt lat="42.52001" lon="14.1482467"><ele>2.0</ele><time>2026-05-02T07:18:19.095Z</time></trkpt><trkpt lat="42.519935" lon="14.1480917"><ele>2.0</ele><time>2026-05-02T07:18:20.095Z</time></trkpt><trkpt lat="42.5198433" lon="14.1479333"><ele>2.25</ele><time>2026-05-02T07:18:21.096Z</time></trkpt><trkpt lat="42.5197583" lon="14.1477917"><ele>2.5</ele><time>2026-05-02T07:18:22.096Z</time></trkpt><trkpt lat="42.51968" lon="14.1476633"><ele>2.75</ele><time>2026-05-02T07:18:23.095Z</time></trkpt><trkpt lat="42.5196167" lon="14.14755"><ele>3.0</ele><time>2026-05-02T07:18:24.095Z</time></trkpt><trkpt lat="42.5195633" lon="14.1474483"><ele>3.0</ele><time>2026-05-02T07:18:25.095Z</time></trkpt><trkpt lat="42.5195217" lon="14.1473567"><ele>3.0</ele><time>2026-05-02T07:18:26.095Z</time></trkpt><trkpt lat="42.5194933" lon="14.1472567"><ele>3.0</ele><time>2026-05-02T07:18:27.096Z</time></trkpt><trkpt lat="42.5194717" lon="14.14715"><ele>3.0</ele><time>2026-05-02T07:18:28.096Z</time></trkpt><trkpt lat="42.519455" lon="14.1470433"><ele>3.0</ele><time>2026-05-02T07:18:29.096Z</time></trkpt><trkpt lat="42.5194617" lon="14.1469167"><ele>3.0</ele><time>2026-05-02T07:18:30.096Z</time></trkpt><trkpt lat="42.519475" lon="14.146775"><ele>3.0</ele><time>2026-05-02T07:18:31.096Z</time></trkpt><trkpt lat="42.5194783" lon="14.14664"><ele>3.0</ele><time>2026-05-02T07:18:32.096Z</time></trkpt><trkpt lat="42.5194817" lon="14.14652"><ele>3.0</ele><time>2026-05-02T07:18:33.096Z</time></trkpt><trkpt lat="42.5195067" lon="14.1464283"><ele>3.0</ele><time>2026-05-02T07:18:34.096Z</time></trkpt><trkpt lat="42.5195567" lon="14.1462967"><ele>3.0</ele><time>2026-05-02T07:18:36.096Z</time></trkpt><trkpt lat="42.51963" lon="14.14617"><ele>3.0</ele><time>2026-05-02T07:18:38.095Z</time></trkpt><trkpt lat="42.5196783" lon="14.14603"><ele>3.0</ele><time>2026-05-02T07:18:40.096Z</time></trkpt><trkpt lat="42.5196567" lon="14.1459117"><ele>3.0</ele><time>2026-05-02T07:18:42.095Z</time></trkpt><trkpt lat="42.5196" lon="14.1458617"><ele>3.0</ele><time>2026-05-02T07:18:43.096Z</time></trkpt><trkpt lat="42.5195267" lon="14.1458117"><ele>3.0</ele><time>2026-05-02T07:18:44.095Z</time></trkpt><trkpt lat="42.5194417" lon="14.1457483"><ele>3.0</ele><time>2026-05-02T07:18:45.096Z</time></trkpt><trkpt lat="42.5193233" lon="14.145685"><ele>3.0</ele><time>2026-05-02T07:18:46.096Z</time></trkpt><trkpt lat="42.5191967" lon="14.1456217"><ele>3.0</ele><time>2026-05-02T07:18:47.095Z</time></trkpt><trkpt lat="42.519075" lon="14.1455467"><ele>3.0</ele><time>2026-05-02T07:18:48.095Z</time></trkpt><trkpt lat="42.5189517" lon="14.1454767"><ele>3.0</ele><time>2026-05-02T07:18:49.096Z</time></trkpt><trkpt lat="42.51883" lon="14.145395"><ele>3.0</ele><time>2026-05-02T07:18:50.096Z</time></trkpt><trkpt lat="42.5187033" lon="14.1453067"><ele>3.0</ele><time>2026-05-02T07:18:51.096Z</time></trkpt><trkpt lat="42.5185867" lon="14.1452067"><ele>3.0</ele><time>2026-05-02T07:18:52.096Z</time></trkpt><trkpt lat="42.5184583" lon="14.1451067"><ele>3.0</ele><time>2026-05-02T07:18:53.095Z</time></trkpt><trkpt lat="42.518325" lon="14.14501"><ele>3.0</ele><time>2026-05-02T07:18:54.096Z</time></trkpt><trkpt lat="42.51819" lon="14.1449067"><ele>3.0</ele><time>2026-05-02T07:18:55.096Z</time></trkpt><trkpt lat="42.5180517" lon="14.1448117"><ele>3.0</ele><time>2026-05-02T07:18:56.095Z</time></trkpt><trkpt lat="42.5179133" lon="14.1447167"><ele>3.0</ele><time>2026-05-02T07:18:57.096Z</time></trkpt><trkpt lat="42.5177817" lon="14.1446217"><ele>3.0</ele><time>2026-05-02T07:18:58.095Z</time></trkpt><trkpt lat="42.5176483" lon="14.1445283"><ele>3.0</ele><time>2026-05-02T07:18:59.095Z</time></trkpt><trkpt lat="42.517515" lon="14.1444333"><ele>3.0</ele><time>2026-05-02T07:19:00.096Z</time></trkpt><trkpt lat="42.5173867" lon="14.1443417"><ele>3.0</ele><time>2026-05-02T07:19:01.096Z</time></trkpt><trkpt lat="42.5172633" lon="14.1442433"><ele>3.0</ele><time>2026-05-02T07:19:02.095Z</time></trkpt><trkpt lat="42.517135" lon="14.144155"><ele>3.25</ele><time>2026-05-02T07:19:03.095Z</time></trkpt><trkpt lat="42.5170033" lon="14.1440633"><ele>3.5</ele><time>2026-05-02T07:19:04.096Z</time></trkpt><trkpt lat="42.51687" lon="14.1439683"><ele>3.75</ele><time>2026-05-02T07:19:05.095Z</time></trkpt><trkpt lat="42.51674" lon="14.1438767"><ele>4.0</ele><time>2026-05-02T07:19:06.095Z</time></trkpt><trkpt lat="42.516625" lon="14.1437867"><ele>4.0</ele><time>2026-05-02T07:19:07.096Z</time></trkpt><trkpt lat="42.516515" lon="14.143705"><ele>4.0</ele><time>2026-05-02T07:19:08.095Z</time></trkpt><trkpt lat="42.5164067" lon="14.1436267"><ele>4.0</ele><time>2026-05-02T07:19:09.096Z</time></trkpt><trkpt lat="42.5163017" lon="14.1435467"><ele>4.0</ele><time>2026-05-02T07:19:10.095Z</time></trkpt><trkpt lat="42.5161867" lon="14.1434667"><ele>4.0</ele><time>2026-05-02T07:19:11.095Z</time></trkpt><trkpt lat="42.516065" lon="14.1433917"><ele>4.0</ele><time>2026-05-02T07:19:12.096Z</time></trkpt><trkpt lat="42.5159517" lon="14.1433083"><ele>4.0</ele><time>2026-05-02T07:19:13.096Z</time></trkpt><trkpt lat="42.5158483" lon="14.1432317"><ele>4.0</ele><time>2026-05-02T07:19:14.095Z</time></trkpt><trkpt lat="42.51574" lon="14.1431733"><ele>3.8000000000000003</ele><time>2026-05-02T07:19:15.096Z</time></trkpt><trkpt lat="42.5156317" lon="14.1431"><ele>3.6000000000000005</ele><time>2026-05-02T07:19:16.095Z</time></trkpt><trkpt lat="42.5155417" lon="14.1430317"><ele>3.4</ele><time>2026-05-02T07:19:17.096Z</time></trkpt><trkpt lat="42.5154583" lon="14.1429617"><ele>3.2</ele><time>2026-05-02T07:19:18.095Z</time></trkpt><trkpt lat="42.5153733" lon="14.1429067"><ele>3.0</ele><time>2026-05-02T07:19:19.095Z</time></trkpt><trkpt lat="42.5152933" lon="14.1428533"><ele>2.8</ele><time>2026-05-02T07:19:20.095Z</time></trkpt><trkpt lat="42.5152167" lon="14.1427983"><ele>2.5999999999999996</ele><time>2026-05-02T07:19:21.096Z</time></trkpt><trkpt lat="42.51515" lon="14.1427433"><ele>2.4000000000000004</ele><time>2026-05-02T07:19:22.096Z</time></trkpt><trkpt lat="42.51504" lon="14.1426567"><ele>2.2</ele><time>2026-05-02T07:19:24.095Z</time></trkpt><trkpt lat="42.514985" lon="14.1425983"><ele>2.0</ele><time>2026-05-02T07:19:25.095Z</time></trkpt><trkpt lat="42.5148583" lon="14.14252"><ele>2.0</ele><time>2026-05-02T07:19:27.095Z</time></trkpt><trkpt lat="42.51477" lon="14.1424533"><ele>2.0</ele><time>2026-05-02T07:19:28.096Z</time></trkpt><trkpt lat="42.514675" lon="14.1423833"><ele>2.0</ele><time>2026-05-02T07:19:29.096Z</time></trkpt><trkpt lat="42.514585" lon="14.1423117"><ele>2.0</ele><time>2026-05-02T07:19:30.096Z</time></trkpt><trkpt lat="42.5144967" lon="14.142255"><ele>2.0</ele><time>2026-05-02T07:19:31.095Z</time></trkpt><trkpt lat="42.51441" lon="14.142195"><ele>2.2</ele><time>2026-05-02T07:19:32.095Z</time></trkpt><trkpt lat="42.5143233" lon="14.14212"><ele>2.4000000000000004</ele><time>2026-05-02T07:19:33.096Z</time></trkpt><trkpt lat="42.5142217" lon="14.1420467"><ele>2.5999999999999996</ele><time>2026-05-02T07:19:34.096Z</time></trkpt><trkpt lat="42.51413" lon="14.1419833"><ele>2.8</ele><time>2026-05-02T07:19:35.096Z</time></trkpt><trkpt lat="42.5140417" lon="14.1419233"><ele>3.0</ele><time>2026-05-02T07:19:36.096Z</time></trkpt><trkpt lat="42.51395" lon="14.14185"><ele>3.0</ele><time>2026-05-02T07:19:37.096Z</time></trkpt><trkpt lat="42.5138567" lon="14.1417783"><ele>3.0</ele><time>2026-05-02T07:19:38.096Z</time></trkpt><trkpt lat="42.513765" lon="14.141705"><ele>3.0</ele><time>2026-05-02T07:19:39.095Z</time></trkpt><trkpt lat="42.5136867" lon="14.1416567"><ele>3.0</ele><time>2026-05-02T07:19:40.095Z</time></trkpt><trkpt lat="42.513615" lon="14.141615"><ele>3.0</ele><time>2026-05-02T07:19:41.096Z</time></trkpt><trkpt lat="42.5135517" lon="14.1415717"><ele>3.0</ele><time>2026-05-02T07:19:42.096Z</time></trkpt><trkpt lat="42.5134933" lon="14.1415333"><ele>3.5</ele><time>2026-05-02T07:19:43.095Z</time></trkpt><trkpt lat="42.513385" lon="14.14145"><ele>4.0</ele><time>2026-05-02T07:19:45.096Z</time></trkpt><trkpt lat="42.5133133" lon="14.1414"><ele>4.5</ele><time>2026-05-02T07:19:46.096Z</time></trkpt><trkpt lat="42.513235" lon="14.1413433"><ele>5.0</ele><time>2026-05-02T07:19:47.096Z</time></trkpt><trkpt lat="42.513165" lon="14.1412867"><ele>5.5</ele><time>2026-05-02T07:19:48.096Z</time></trkpt><trkpt lat="42.5131067" lon="14.1412267"><ele>6.0</ele><time>2026-05-02T07:19:49.096Z</time></trkpt><trkpt lat="42.5130433" lon="14.1411483"><ele>6.0</ele><time>2026-05-02T07:19:50.096Z</time></trkpt><trkpt lat="42.5129817" lon="14.1410617"><ele>6.0</ele><time>2026-05-02T07:19:51.095Z</time></trkpt><trkpt lat="42.5129267" lon="14.140955"><ele>6.0</ele><time>2026-05-02T07:19:52.094Z</time></trkpt><trkpt lat="42.5128783" lon="14.1408267"><ele>6.0</ele><time>2026-05-02T07:19:53.095Z</time></trkpt><trkpt lat="42.51284" lon="14.1407"><ele>6.0</ele><time>2026-05-02T07:19:54.095Z</time></trkpt><trkpt lat="42.5128183" lon="14.1405767"><ele>6.0</ele><time>2026-05-02T07:19:55.094Z</time></trkpt><trkpt lat="42.5128183" lon="14.140445"><ele>6.0</ele><time>2026-05-02T07:19:56.095Z</time></trkpt><trkpt lat="42.5128267" lon="14.1403233"><ele>6.0</ele><time>2026-05-02T07:19:57.094Z</time></trkpt><trkpt lat="42.51285" lon="14.1402017"><ele>6.0</ele><time>2026-05-02T07:19:58.095Z</time></trkpt><trkpt lat="42.5128833" lon="14.1400867"><ele>6.0</ele><time>2026-05-02T07:19:59.095Z</time></trkpt><trkpt lat="42.5129233" lon="14.1399617"><ele>6.25</ele><time>2026-05-02T07:20:00.094Z</time></trkpt><trkpt lat="42.51297" lon="14.139815"><ele>6.5</ele><time>2026-05-02T07:20:01.094Z</time></trkpt><trkpt lat="42.5130267" lon="14.13965"><ele>6.75</ele><time>2026-05-02T07:20:02.094Z</time></trkpt><trkpt lat="42.5130917" lon="14.1394733"><ele>7.0</ele><time>2026-05-02T07:20:03.094Z</time></trkpt><trkpt lat="42.513175" lon="14.1392867"><ele>7.0</ele><time>2026-05-02T07:20:04.094Z</time></trkpt><trkpt lat="42.5132633" lon="14.1390883"><ele>7.0</ele><time>2026-05-02T07:20:05.094Z</time></trkpt><trkpt lat="42.51334" lon="14.1389117"><ele>7.0</ele><time>2026-05-02T07:20:06.094Z</time></trkpt><trkpt lat="42.5133983" lon="14.1387483"><ele>6.75</ele><time>2026-05-02T07:20:07.094Z</time></trkpt><trkpt lat="42.5134567" lon="14.138595"><ele>6.5</ele><time>2026-05-02T07:20:08.094Z</time></trkpt><trkpt lat="42.5135117" lon="14.1384417"><ele>6.25</ele><time>2026-05-02T07:20:09.094Z</time></trkpt><trkpt lat="42.5135683" lon="14.1382883"><ele>6.0</ele><time>2026-05-02T07:20:10.095Z</time></trkpt><trkpt lat="42.5136183" lon="14.1381567"><ele>6.0</ele><time>2026-05-02T07:20:11.094Z</time></trkpt><trkpt lat="42.51366" lon="14.13805"><ele>6.0</ele><time>2026-05-02T07:20:12.095Z</time></trkpt><trkpt lat="42.5136983" lon="14.1379417"><ele>6.0</ele><time>2026-05-02T07:20:13.095Z</time></trkpt><trkpt lat="42.5137383" lon="14.137845"><ele>6.0</ele><time>2026-05-02T07:20:14.095Z</time></trkpt><trkpt lat="42.5137767" lon="14.1377717"><ele>6.0</ele><time>2026-05-02T07:20:15.094Z</time></trkpt><trkpt lat="42.5138283" lon="14.1376783"><ele>6.0</ele><time>2026-05-02T07:20:17.095Z</time></trkpt><trkpt lat="42.5138833" lon="14.1375617"><ele>6.0</ele><time>2026-05-02T07:20:19.094Z</time></trkpt><trkpt lat="42.5138717" lon="14.13745"><ele>6.0</ele><time>2026-05-02T07:20:21.095Z</time></trkpt><trkpt lat="42.5137717" lon="14.1373367"><ele>6.0</ele><time>2026-05-02T07:20:23.094Z</time></trkpt><trkpt lat="42.5137067" lon="14.13726"><ele>6.0</ele><time>2026-05-02T07:20:24.095Z</time></trkpt><trkpt lat="42.51364" lon="14.13715"><ele>6.0</ele><time>2026-05-02T07:20:25.094Z</time></trkpt><trkpt lat="42.51358" lon="14.13698"><ele>5.333333333333333</ele><time>2026-05-02T07:20:26.094Z</time></trkpt><trkpt lat="42.513515" lon="14.1367683"><ele>4.666666666666666</ele><time>2026-05-02T07:20:27.095Z</time></trkpt><trkpt lat="42.513455" lon="14.136535"><ele>4.0</ele><time>2026-05-02T07:20:28.094Z</time></trkpt><trkpt lat="42.5133983" lon="14.1362883"><ele>3.6666666666666665</ele><time>2026-05-02T07:20:29.094Z</time></trkpt><trkpt lat="42.51334" lon="14.1360567"><ele>3.333333333333333</ele><time>2026-05-02T07:20:30.094Z</time></trkpt><trkpt lat="42.5132667" lon="14.1358567"><ele>3.0</ele><time>2026-05-02T07:20:31.094Z</time></trkpt><trkpt lat="42.5131783" lon="14.13567"><ele>3.0</ele><time>2026-05-02T07:20:32.095Z</time></trkpt><trkpt lat="42.5130733" lon="14.13549"><ele>3.0</ele><time>2026-05-02T07:20:33.094Z</time></trkpt><trkpt lat="42.5129617" lon="14.1353317"><ele>3.0</ele><time>2026-05-02T07:20:34.095Z</time></trkpt><trkpt lat="42.5128383" lon="14.13519"><ele>3.0</ele><time>2026-05-02T07:20:35.095Z</time></trkpt><trkpt lat="42.512705" lon="14.135075"><ele>3.0</ele><time>2026-05-02T07:20:36.095Z</time></trkpt><trkpt lat="42.5125683" lon="14.1349767"><ele>3.0</ele><time>2026-05-02T07:20:37.094Z</time></trkpt><trkpt lat="42.5124367" lon="14.134895"><ele>2.5</ele><time>2026-05-02T07:20:38.094Z</time></trkpt><trkpt lat="42.5123233" lon="14.13482"><ele>2.0</ele><time>2026-05-02T07:20:39.094Z</time></trkpt><trkpt lat="42.5122183" lon="14.1347517"><ele>1.5</ele><time>2026-05-02T07:20:40.095Z</time></trkpt><trkpt lat="42.51212" lon="14.13468"><ele>1.0</ele><time>2026-05-02T07:20:41.094Z</time></trkpt><trkpt lat="42.5120267" lon="14.134605"><ele>1.8</ele><time>2026-05-02T07:20:42.095Z</time></trkpt><trkpt lat="42.511935" lon="14.134535"><ele>2.6</ele><time>2026-05-02T07:20:43.095Z</time></trkpt><trkpt lat="42.51185" lon="14.1344483"><ele>3.4</ele><time>2026-05-02T07:20:44.094Z</time></trkpt><trkpt lat="42.5117667" lon="14.13435"><ele>4.2</ele><time>2026-05-02T07:20:45.094Z</time></trkpt><trkpt lat="42.511685" lon="14.1342417"><ele>5.0</ele><time>2026-05-02T07:20:46.094Z</time></trkpt><trkpt lat="42.5116117" lon="14.13413"><ele>5.0</ele><time>2026-05-02T07:20:47.095Z</time></trkpt><trkpt lat="42.5115533" lon="14.1340033"><ele>5.0</ele><time>2026-05-02T07:20:48.094Z</time></trkpt><trkpt lat="42.5114883" lon="14.13387"><ele>5.0</ele><time>2026-05-02T07:20:49.095Z</time></trkpt><trkpt lat="42.511415" lon="14.1337283"><ele>5.0</ele><time>2026-05-02T07:20:50.094Z</time></trkpt><trkpt lat="42.5113467" lon="14.1335933"><ele>5.0</ele><time>2026-05-02T07:20:51.095Z</time></trkpt><trkpt lat="42.511275" lon="14.1334583"><ele>5.0</ele><time>2026-05-02T07:20:52.095Z</time></trkpt><trkpt lat="42.5111983" lon="14.13332"><ele>5.0</ele><time>2026-05-02T07:20:53.095Z</time></trkpt><trkpt lat="42.5111067" lon="14.1331867"><ele>5.0</ele><time>2026-05-02T07:20:54.094Z</time></trkpt><trkpt lat="42.511015" lon="14.1330433"><ele>5.333333333333334</ele><time>2026-05-02T07:20:55.094Z</time></trkpt><trkpt lat="42.51093" lon="14.132885"><ele>5.666666666666667</ele><time>2026-05-02T07:20:56.095Z</time></trkpt><trkpt lat="42.5108367" lon="14.1327283"><ele>6.0</ele><time>2026-05-02T07:20:57.094Z</time></trkpt><trkpt lat="42.5107367" lon="14.132555"><ele>5.333333333333333</ele><time>2026-05-02T07:20:58.095Z</time></trkpt><trkpt lat="42.51064" lon="14.132365"><ele>4.666666666666666</ele><time>2026-05-02T07:20:59.094Z</time></trkpt><trkpt lat="42.5105333" lon="14.132165"><ele>4.0</ele><time>2026-05-02T07:21:00.095Z</time></trkpt><trkpt lat="42.510415" lon="14.1319517"><ele>4.333333333333333</ele><time>2026-05-02T07:21:01.095Z</time></trkpt><trkpt lat="42.5102933" lon="14.1317233"><ele>4.666666666666667</ele><time>2026-05-02T07:21:02.094Z</time></trkpt><trkpt lat="42.5101667" lon="14.131495"><ele>5.0</ele><time>2026-05-02T07:21:03.095Z</time></trkpt><trkpt lat="42.5100317" lon="14.1312683"><ele>5.0</ele><time>2026-05-02T07:21:04.095Z</time></trkpt><trkpt lat="42.5099117" lon="14.1310717"><ele>5.0</ele><time>2026-05-02T07:21:05.095Z</time></trkpt><trkpt lat="42.509795" lon="14.13089"><ele>5.0</ele><time>2026-05-02T07:21:06.094Z</time></trkpt><trkpt lat="42.5096867" lon="14.130725"><ele>5.5</ele><time>2026-05-02T07:21:07.095Z</time></trkpt><trkpt lat="42.5095917" lon="14.1305783"><ele>6.0</ele><time>2026-05-02T07:21:08.094Z</time></trkpt><trkpt lat="42.5095083" lon="14.1304483"><ele>6.5</ele><time>2026-05-02T07:21:09.094Z</time></trkpt><trkpt lat="42.5094317" lon="14.1303333"><ele>7.0</ele><time>2026-05-02T07:21:10.094Z</time></trkpt><trkpt lat="42.50936" lon="14.13023"><ele>7.000000000000001</ele><time>2026-05-02T07:21:11.095Z</time></trkpt><trkpt lat="42.5092967" lon="14.1301483"><ele>7.0</ele><time>2026-05-02T07:21:12.094Z</time></trkpt><trkpt lat="42.509245" lon="14.1300717"><ele>7.0</ele><time>2026-05-02T07:21:13.095Z</time></trkpt><trkpt lat="42.5091917" lon="14.130005"><ele>7.0</ele><time>2026-05-02T07:21:14.095Z</time></trkpt><trkpt lat="42.5091367" lon="14.1299267"><ele>7.000000000000001</ele><time>2026-05-02T07:21:15.094Z</time></trkpt><trkpt lat="42.5090883" lon="14.1298533"><ele>7.0</ele><time>2026-05-02T07:21:16.094Z</time></trkpt><trkpt lat="42.509045" lon="14.1297183"><ele>6.833333333333334</ele><time>2026-05-02T07:21:18.095Z</time></trkpt><trkpt lat="42.5090267" lon="14.1295783"><ele>6.666666666666667</ele><time>2026-05-02T07:21:20.094Z</time></trkpt><trkpt lat="42.509" lon="14.1294817"><ele>6.5</ele><time>2026-05-02T07:21:22.094Z</time></trkpt><trkpt lat="42.508925" lon="14.1293783"><ele>6.333333333333334</ele><time>2026-05-02T07:21:24.094Z</time></trkpt><trkpt lat="42.5088567" lon="14.1293283"><ele>6.166666666666667</ele><time>2026-05-02T07:21:25.095Z</time></trkpt><trkpt lat="42.50879" lon="14.1292717"><ele>6.0</ele><time>2026-05-02T07:21:26.094Z</time></trkpt><trkpt lat="42.508715" lon="14.129195"><ele>6.0</ele><time>2026-05-02T07:21:27.094Z</time></trkpt><trkpt lat="42.508625" lon="14.12908"><ele>6.0</ele><time>2026-05-02T07:21:28.095Z</time></trkpt><trkpt lat="42.5085283" lon="14.1289267"><ele>6.0</ele><time>2026-05-02T07:21:29.095Z</time></trkpt><trkpt lat="42.50843" lon="14.1287467"><ele>6.0</ele><time>2026-05-02T07:21:30.094Z</time></trkpt><trkpt lat="42.5083267" lon="14.1285583"><ele>6.0</ele><time>2026-05-02T07:21:31.095Z</time></trkpt><trkpt lat="42.5082167" lon="14.1283567"><ele>6.0</ele><time>2026-05-02T07:21:32.094Z</time></trkpt><trkpt lat="42.508105" lon="14.12815"><ele>6.0</ele><time>2026-05-02T07:21:33.094Z</time></trkpt><trkpt lat="42.5079933" lon="14.127945"><ele>6.333333333333334</ele><time>2026-05-02T07:21:34.094Z</time></trkpt><trkpt lat="42.50788" lon="14.1277383"><ele>6.666666666666667</ele><time>2026-05-02T07:21:35.094Z</time></trkpt><trkpt lat="42.5077617" lon="14.12752"><ele>7.0</ele><time>2026-05-02T07:21:36.094Z</time></trkpt><trkpt lat="42.50764" lon="14.1272983"><ele>7.333333333333334</ele><time>2026-05-02T07:21:37.095Z</time></trkpt><trkpt lat="42.50752" lon="14.1270667"><ele>7.666666666666666</ele><time>2026-05-02T07:21:38.094Z</time></trkpt><trkpt lat="42.5073867" lon="14.1268417"><ele>8.0</ele><time>2026-05-02T07:21:39.095Z</time></trkpt><trkpt lat="42.5072533" lon="14.1266067"><ele>7.666666666666666</ele><time>2026-05-02T07:21:40.094Z</time></trkpt><trkpt lat="42.5071133" lon="14.1263783"><ele>7.333333333333334</ele><time>2026-05-02T07:21:41.094Z</time></trkpt><trkpt lat="42.50698" lon="14.12615"><ele>7.0</ele><time>2026-05-02T07:21:42.094Z</time></trkpt><trkpt lat="42.5068433" lon="14.1259267"><ele>7.333333333333334</ele><time>2026-05-02T07:21:43.094Z</time></trkpt><trkpt lat="42.5067" lon="14.12571"><ele>7.666666666666666</ele><time>2026-05-02T07:21:44.094Z</time></trkpt><trkpt lat="42.506555" lon="14.1254967"><ele>8.0</ele><time>2026-05-02T07:21:45.094Z</time></trkpt><trkpt lat="42.5064083" lon="14.12528"><ele>8.0</ele><time>2026-05-02T07:21:46.095Z</time></trkpt><trkpt lat="42.5062567" lon="14.1250733"><ele>8.0</ele><time>2026-05-02T07:21:47.094Z</time></trkpt><trkpt lat="42.5060983" lon="14.1248667"><ele>8.0</ele><time>2026-05-02T07:21:48.095Z</time></trkpt><trkpt lat="42.5059317" lon="14.12467"><ele>8.333333333333332</ele><time>2026-05-02T07:21:49.095Z</time></trkpt><trkpt lat="42.5057617" lon="14.1244733"><ele>8.666666666666666</ele><time>2026-05-02T07:21:50.094Z</time></trkpt><trkpt lat="42.5055967" lon="14.12428"><ele>9.0</ele><time>2026-05-02T07:21:51.094Z</time></trkpt><trkpt lat="42.5054167" lon="14.1241033"><ele>8.0</ele><time>2026-05-02T07:21:52.095Z</time></trkpt><trkpt lat="42.5052383" lon="14.1239217"><ele>7.0</ele><time>2026-05-02T07:21:53.094Z</time></trkpt><trkpt lat="42.5050467" lon="14.1237367"><ele>7.0</ele><time>2026-05-02T07:21:54.095Z</time></trkpt><trkpt lat="42.5048517" lon="14.12355"><ele>7.0</ele><time>2026-05-02T07:21:55.095Z</time></trkpt><trkpt lat="42.5046567" lon="14.1233633"><ele>8.5</ele><time>2026-05-02T07:21:56.095Z</time></trkpt><trkpt lat="42.5044533" lon="14.1231817"><ele>10.0</ele><time>2026-05-02T07:21:57.094Z</time></trkpt><trkpt lat="42.5042367" lon="14.1230017"><ele>10.0</ele><time>2026-05-02T07:21:58.095Z</time></trkpt><trkpt lat="42.50404" lon="14.122825"><ele>10.0</ele><time>2026-05-02T07:21:59.094Z</time></trkpt><trkpt lat="42.5038517" lon="14.1226417"><ele>10.0</ele><time>2026-05-02T07:22:00.094Z</time></trkpt><trkpt lat="42.5036833" lon="14.1224817"><ele>10.0</ele><time>2026-05-02T07:22:01.095Z</time></trkpt><trkpt lat="42.5035267" lon="14.122335"><ele>10.0</ele><time>2026-05-02T07:22:02.094Z</time></trkpt><trkpt lat="42.5033767" lon="14.1222083"><ele>9.75</ele><time>2026-05-02T07:22:03.094Z</time></trkpt><trkpt lat="42.5032433" lon="14.12209"><ele>9.5</ele><time>2026-05-02T07:22:04.095Z</time></trkpt><trkpt lat="42.5031283" lon="14.1219767"><ele>9.25</ele><time>2026-05-02T07:22:05.095Z</time></trkpt><trkpt lat="42.5030267" lon="14.1218733"><ele>9.0</ele><time>2026-05-02T07:22:06.095Z</time></trkpt><trkpt lat="42.5029467" lon="14.1217817"><ele>8.833333333333334</ele><time>2026-05-02T07:22:07.095Z</time></trkpt><trkpt lat="42.502885" lon="14.1216967"><ele>8.666666666666666</ele><time>2026-05-02T07:22:08.094Z</time></trkpt><trkpt lat="42.50284" lon="14.121595"><ele>8.5</ele><time>2026-05-02T07:22:09.094Z</time></trkpt><trkpt lat="42.5027967" lon="14.121485"><ele>8.333333333333332</ele><time>2026-05-02T07:22:10.095Z</time></trkpt><trkpt lat="42.50275" lon="14.1213967"><ele>8.166666666666666</ele><time>2026-05-02T07:22:11.094Z</time></trkpt><trkpt lat="42.5027017" lon="14.1213367"><ele>8.0</ele><time>2026-05-02T07:22:12.095Z</time></trkpt><trkpt lat="42.5026367" lon="14.1213"><ele>8.0</ele><time>2026-05-02T07:22:13.095Z</time></trkpt><trkpt lat="42.5025533" lon="14.121285"><ele>8.0</ele><time>2026-05-02T07:22:14.095Z</time></trkpt><trkpt lat="42.5024433" lon="14.1212883"><ele>8.0</ele><time>2026-05-02T07:22:15.094Z</time></trkpt><trkpt lat="42.5023317" lon="14.1212633"><ele>8.0</ele><time>2026-05-02T07:22:16.094Z</time></trkpt><trkpt lat="42.502205" lon="14.1212033"><ele>8.0</ele><time>2026-05-02T07:22:17.095Z</time></trkpt><trkpt lat="42.5020617" lon="14.12112"><ele>8.666666666666666</ele><time>2026-05-02T07:22:18.095Z</time></trkpt><trkpt lat="42.5019017" lon="14.1210367"><ele>9.333333333333334</ele><time>2026-05-02T07:22:19.094Z</time></trkpt><trkpt lat="42.501735" lon="14.1209483"><ele>10.0</ele><time>2026-05-02T07:22:20.095Z</time></trkpt><trkpt lat="42.5015533" lon="14.1208733"><ele>10.0</ele><time>2026-05-02T07:22:21.094Z</time></trkpt><trkpt lat="42.50138" lon="14.120815"><ele>10.0</ele><time>2026-05-02T07:22:22.095Z</time></trkpt><trkpt lat="42.501215" lon="14.120765"><ele>10.0</ele><time>2026-05-02T07:22:23.095Z</time></trkpt><trkpt lat="42.50107" lon="14.12072"><ele>10.333333333333334</ele><time>2026-05-02T07:22:24.095Z</time></trkpt><trkpt lat="42.5009217" lon="14.1206517"><ele>10.666666666666666</ele><time>2026-05-02T07:22:25.095Z</time></trkpt><trkpt lat="42.5007817" lon="14.120565"><ele>11.0</ele><time>2026-05-02T07:22:26.094Z</time></trkpt><trkpt lat="42.50065" lon="14.1204733"><ele>11.0</ele><time>2026-05-02T07:22:27.094Z</time></trkpt><trkpt lat="42.5005167" lon="14.1203867"><ele>11.0</ele><time>2026-05-02T07:22:28.095Z</time></trkpt><trkpt lat="42.50038" lon="14.1203017"><ele>11.0</ele><time>2026-05-02T07:22:29.095Z</time></trkpt><trkpt lat="42.50025" lon="14.12021"><ele>11.0</ele><time>2026-05-02T07:22:30.094Z</time></trkpt><trkpt lat="42.5001333" lon="14.1201217"><ele>10.8</ele><time>2026-05-02T07:22:31.094Z</time></trkpt><trkpt lat="42.5000333" lon="14.120045"><ele>10.600000000000001</ele><time>2026-05-02T07:22:32.095Z</time></trkpt><trkpt lat="42.4999433" lon="14.1199767"><ele>10.4</ele><time>2026-05-02T07:22:33.094Z</time></trkpt><trkpt lat="42.49986" lon="14.1199167"><ele>10.2</ele><time>2026-05-02T07:22:34.094Z</time></trkpt><trkpt lat="42.4997817" lon="14.1198767"><ele>10.0</ele><time>2026-05-02T07:22:35.095Z</time></trkpt><trkpt lat="42.4997117" lon="14.1198617"><ele>10.0</ele><time>2026-05-02T07:22:36.094Z</time></trkpt><trkpt lat="42.499645" lon="14.119885"><ele>10.0</ele><time>2026-05-02T07:22:37.095Z</time></trkpt><trkpt lat="42.4995883" lon="14.1199317"><ele>10.0</ele><time>2026-05-02T07:22:38.095Z</time></trkpt><trkpt lat="42.4995283" lon="14.12002"><ele>10.0</ele><time>2026-05-02T07:22:39.094Z</time></trkpt><trkpt lat="42.499445" lon="14.1201483"><ele>10.0</ele><time>2026-05-02T07:22:40.095Z</time></trkpt><trkpt lat="42.4993433" lon="14.1202967"><ele>11.25</ele><time>2026-05-02T07:22:41.094Z</time></trkpt><trkpt lat="42.49924" lon="14.12044"><ele>12.5</ele><time>2026-05-02T07:22:42.095Z</time></trkpt><trkpt lat="42.499145" lon="14.1205683"><ele>13.75</ele><time>2026-05-02T07:22:43.095Z</time></trkpt><trkpt lat="42.4990333" lon="14.1207"><ele>15.0</ele><time>2026-05-02T07:22:44.094Z</time></trkpt><trkpt lat="42.4989217" lon="14.12083"><ele>15.0</ele><time>2026-05-02T07:22:45.094Z</time></trkpt><trkpt lat="42.49881" lon="14.120965"><ele>15.0</ele><time>2026-05-02T07:22:46.095Z</time></trkpt><trkpt lat="42.4987067" lon="14.1211"><ele>15.0</ele><time>2026-05-02T07:22:47.095Z</time></trkpt><trkpt lat="42.4986133" lon="14.1212167"><ele>15.0</ele><time>2026-05-02T07:22:48.095Z</time></trkpt><trkpt lat="42.4985217" lon="14.12133"><ele>15.0</ele><time>2026-05-02T07:22:49.095Z</time></trkpt><trkpt lat="42.498435" lon="14.1214233"><ele>15.0</ele><time>2026-05-02T07:22:50.095Z</time></trkpt><trkpt lat="42.4983483" lon="14.1215017"><ele>15.0</ele><time>2026-05-02T07:22:51.095Z</time></trkpt><trkpt lat="42.49826" lon="14.1215767"><ele>15.0</ele><time>2026-05-02T07:22:52.094Z</time></trkpt><trkpt lat="42.49816" lon="14.1216567"><ele>15.0</ele><time>2026-05-02T07:22:53.094Z</time></trkpt><trkpt lat="42.498065" lon="14.1217517"><ele>15.0</ele><time>2026-05-02T07:22:54.095Z</time></trkpt><trkpt lat="42.4979717" lon="14.121875"><ele>15.0</ele><time>2026-05-02T07:22:55.094Z</time></trkpt><trkpt lat="42.49788" lon="14.1220117"><ele>15.0</ele><time>2026-05-02T07:22:56.094Z</time></trkpt><trkpt lat="42.4977883" lon="14.1221617"><ele>15.0</ele><time>2026-05-02T07:22:57.094Z</time></trkpt><trkpt lat="42.497695" lon="14.1223117"><ele>14.666666666666668</ele><time>2026-05-02T07:22:58.094Z</time></trkpt><trkpt lat="42.497595" lon="14.122465"><ele>14.333333333333334</ele><time>2026-05-02T07:22:59.095Z</time></trkpt><trkpt lat="42.4974983" lon="14.1226233"><ele>14.0</ele><time>2026-05-02T07:23:00.094Z</time></trkpt><trkpt lat="42.4974017" lon="14.1227783"><ele>14.0</ele><time>2026-05-02T07:23:01.095Z</time></trkpt><trkpt lat="42.4973033" lon="14.1229283"><ele>14.0</ele><time>2026-05-02T07:23:02.095Z</time></trkpt><trkpt lat="42.497215" lon="14.1230667"><ele>14.0</ele><time>2026-05-02T07:23:03.094Z</time></trkpt><trkpt lat="42.4971317" lon="14.1231917"><ele>14.0</ele><time>2026-05-02T07:23:04.095Z</time></trkpt><trkpt lat="42.49705" lon="14.1233133"><ele>14.399999999999999</ele><time>2026-05-02T07:23:05.094Z</time></trkpt><trkpt lat="42.4969617" lon="14.1234367"><ele>14.799999999999999</ele><time>2026-05-02T07:23:06.094Z</time></trkpt><trkpt lat="42.4968767" lon="14.1235583"><ele>15.200000000000001</ele><time>2026-05-02T07:23:07.094Z</time></trkpt><trkpt lat="42.4968" lon="14.1236467"><ele>15.600000000000001</ele><time>2026-05-02T07:23:08.095Z</time></trkpt><trkpt lat="42.4967267" lon="14.1237267"><ele>16.0</ele><time>2026-05-02T07:23:09.095Z</time></trkpt><trkpt lat="42.4966467" lon="14.1237967"><ele>16.0</ele><time>2026-05-02T07:23:10.095Z</time></trkpt><trkpt lat="42.4965567" lon="14.1238767"><ele>16.0</ele><time>2026-05-02T07:23:11.095Z</time></trkpt><trkpt lat="42.4964633" lon="14.1239533"><ele>16.0</ele><time>2026-05-02T07:23:12.094Z</time></trkpt><trkpt lat="42.4963767" lon="14.1240233"><ele>16.0</ele><time>2026-05-02T07:23:13.095Z</time></trkpt><trkpt lat="42.496305" lon="14.124095"><ele>16.0</ele><time>2026-05-02T07:23:14.095Z</time></trkpt><trkpt lat="42.4962417" lon="14.12417"><ele>15.833333333333332</ele><time>2026-05-02T07:23:15.095Z</time></trkpt><trkpt lat="42.4961867" lon="14.1242333"><ele>15.666666666666666</ele><time>2026-05-02T07:23:16.094Z</time></trkpt><trkpt lat="42.4961367" lon="14.12429"><ele>15.5</ele><time>2026-05-02T07:23:17.095Z</time></trkpt><trkpt lat="42.49605" lon="14.1243833"><ele>15.333333333333332</ele><time>2026-05-02T07:23:19.094Z</time></trkpt><trkpt lat="42.4959467" lon="14.1244367"><ele>15.166666666666666</ele><time>2026-05-02T07:23:21.094Z</time></trkpt><trkpt lat="42.4958783" lon="14.1244733"><ele>15.0</ele><time>2026-05-02T07:23:22.094Z</time></trkpt><trkpt lat="42.4958067" lon="14.124525"><ele>15.0</ele><time>2026-05-02T07:23:23.095Z</time></trkpt><trkpt lat="42.4957333" lon="14.1245483"><ele>15.0</ele><time>2026-05-02T07:23:24.094Z</time></trkpt><trkpt lat="42.4956383" lon="14.1245517"><ele>15.0</ele><time>2026-05-02T07:23:25.094Z</time></trkpt><trkpt lat="42.4955317" lon="14.1245367"><ele>15.0</ele><time>2026-05-02T07:23:26.094Z</time></trkpt><trkpt lat="42.4954117" lon="14.124535"><ele>15.0</ele><time>2026-05-02T07:23:27.095Z</time></trkpt><trkpt lat="42.49529" lon="14.12454"><ele>15.5</ele><time>2026-05-02T07:23:28.095Z</time></trkpt><trkpt lat="42.4951733" lon="14.124545"><ele>16.0</ele><time>2026-05-02T07:23:29.094Z</time></trkpt><trkpt lat="42.4950583" lon="14.1245517"><ele>16.5</ele><time>2026-05-02T07:23:30.095Z</time></trkpt><trkpt lat="42.4949417" lon="14.12456"><ele>17.0</ele><time>2026-05-02T07:23:31.094Z</time></trkpt><trkpt lat="42.4948367" lon="14.124565"><ele>17.0</ele><time>2026-05-02T07:23:32.094Z</time></trkpt><trkpt lat="42.4947517" lon="14.124565"><ele>17.0</ele><time>2026-05-02T07:23:33.094Z</time></trkpt><trkpt lat="42.4946717" lon="14.1245617"><ele>17.0</ele><time>2026-05-02T07:23:34.095Z</time></trkpt><trkpt lat="42.4945933" lon="14.1245467"><ele>17.0</ele><time>2026-05-02T07:23:35.095Z</time></trkpt><trkpt lat="42.49451" lon="14.1245383"><ele>17.0</ele><time>2026-05-02T07:23:36.094Z</time></trkpt><trkpt lat="42.4944217" lon="14.12456"><ele>17.0</ele><time>2026-05-02T07:23:37.095Z</time></trkpt><trkpt lat="42.4943367" lon="14.1246267"><ele>17.166666666666668</ele><time>2026-05-02T07:23:38.095Z</time></trkpt><trkpt lat="42.494275" lon="14.124715"><ele>17.333333333333336</ele><time>2026-05-02T07:23:39.095Z</time></trkpt><trkpt lat="42.4942183" lon="14.1248067"><ele>17.5</ele><time>2026-05-02T07:23:40.094Z</time></trkpt><trkpt lat="42.4941617" lon="14.1248917"><ele>17.666666666666668</ele><time>2026-05-02T07:23:41.095Z</time></trkpt><trkpt lat="42.4941117" lon="14.1249617"><ele>17.833333333333332</ele><time>2026-05-02T07:23:42.095Z</time></trkpt><trkpt lat="42.494045" lon="14.1250583"><ele>18.0</ele><time>2026-05-02T07:23:44.095Z</time></trkpt><trkpt lat="42.49399" lon="14.1251267"><ele>18.0</ele><time>2026-05-02T07:23:46.095Z</time></trkpt><trkpt lat="42.493965" lon="14.1252067"><ele>18.0</ele><time>2026-05-02T07:23:50.095Z</time></trkpt><trkpt lat="42.493945" lon="14.12532"><ele>18.0</ele><time>2026-05-02T07:23:59.094Z</time></trkpt><trkpt lat="42.4938533" lon="14.125325"><ele>18.0</ele><time>2026-05-02T07:24:01.095Z</time></trkpt><trkpt lat="42.493785" lon="14.1252867"><ele>18.0</ele><time>2026-05-02T07:24:02.095Z</time></trkpt><trkpt lat="42.493715" lon="14.12523"><ele>18.0</ele><time>2026-05-02T07:24:03.094Z</time></trkpt><trkpt lat="42.49363" lon="14.1251567"><ele>18.2</ele><time>2026-05-02T07:24:04.094Z</time></trkpt><trkpt lat="42.4935417" lon="14.12508"><ele>18.4</ele><time>2026-05-02T07:24:05.095Z</time></trkpt><trkpt lat="42.49345" lon="14.1250017"><ele>18.599999999999998</ele><time>2026-05-02T07:24:06.095Z</time></trkpt><trkpt lat="42.4933717" lon="14.12494"><ele>18.8</ele><time>2026-05-02T07:24:07.094Z</time></trkpt><trkpt lat="42.493295" lon="14.124885"><ele>19.0</ele><time>2026-05-02T07:24:08.095Z</time></trkpt><trkpt lat="42.4932233" lon="14.1248283"><ele>19.0</ele><time>2026-05-02T07:24:09.095Z</time></trkpt><trkpt lat="42.4931483" lon="14.124775"><ele>19.0</ele><time>2026-05-02T07:24:10.095Z</time></trkpt><trkpt lat="42.49308" lon="14.1247083"><ele>19.0</ele><time>2026-05-02T07:24:11.094Z</time></trkpt><trkpt lat="42.493005" lon="14.1246483"><ele>19.0</ele><time>2026-05-02T07:24:12.094Z</time></trkpt><trkpt lat="42.492935" lon="14.1245867"><ele>19.0</ele><time>2026-05-02T07:24:13.095Z</time></trkpt><trkpt lat="42.4928717" lon="14.1245383"><ele>19.0</ele><time>2026-05-02T07:24:14.094Z</time></trkpt><trkpt lat="42.4928133" lon="14.1244967"><ele>19.5</ele><time>2026-05-02T07:24:15.095Z</time></trkpt><trkpt lat="42.492755" lon="14.12445"><ele>20.0</ele><time>2026-05-02T07:24:16.095Z</time></trkpt><trkpt lat="42.492695" lon="14.124395"><ele>20.5</ele><time>2026-05-02T07:24:17.095Z</time></trkpt><trkpt lat="42.49263" lon="14.12434"><ele>21.0</ele><time>2026-05-02T07:24:18.095Z</time></trkpt><trkpt lat="42.4925667" lon="14.1242867"><ele>21.5</ele><time>2026-05-02T07:24:19.094Z</time></trkpt><trkpt lat="42.4925017" lon="14.1242233"><ele>22.0</ele><time>2026-05-02T07:24:20.094Z</time></trkpt><trkpt lat="42.4924217" lon="14.1241583"><ele>22.0</ele><time>2026-05-02T07:24:21.094Z</time></trkpt><trkpt lat="42.492335" lon="14.124095"><ele>22.0</ele><time>2026-05-02T07:24:22.095Z</time></trkpt><trkpt lat="42.4922483" lon="14.124025"><ele>22.0</ele><time>2026-05-02T07:24:23.094Z</time></trkpt><trkpt lat="42.4921583" lon="14.1239517"><ele>22.0</ele><time>2026-05-02T07:24:24.094Z</time></trkpt><trkpt lat="42.49207" lon="14.1238717"><ele>22.0</ele><time>2026-05-02T07:24:25.094Z</time></trkpt><trkpt lat="42.491975" lon="14.123795"><ele>21.8</ele><time>2026-05-02T07:24:26.095Z</time></trkpt><trkpt lat="42.49188" lon="14.1237217"><ele>21.6</ele><time>2026-05-02T07:24:27.095Z</time></trkpt><trkpt lat="42.4917917" lon="14.123645"><ele>21.400000000000002</ele><time>2026-05-02T07:24:28.095Z</time></trkpt><trkpt lat="42.4917033" lon="14.12358"><ele>21.200000000000003</ele><time>2026-05-02T07:24:29.094Z</time></trkpt><trkpt lat="42.4916167" lon="14.1235067"><ele>21.0</ele><time>2026-05-02T07:24:30.094Z</time></trkpt><trkpt lat="42.4915333" lon="14.1234383"><ele>21.0</ele><time>2026-05-02T07:24:31.094Z</time></trkpt><trkpt lat="42.4914533" lon="14.123375"><ele>21.0</ele><time>2026-05-02T07:24:32.095Z</time></trkpt><trkpt lat="42.4913767" lon="14.1233117"><ele>21.0</ele><time>2026-05-02T07:24:33.095Z</time></trkpt><trkpt lat="42.49129" lon="14.1232483"><ele>21.0</ele><time>2026-05-02T07:24:34.095Z</time></trkpt><trkpt lat="42.4912033" lon="14.1231783"><ele>21.0</ele><time>2026-05-02T07:24:35.094Z</time></trkpt><trkpt lat="42.49112" lon="14.123105"><ele>21.4</ele><time>2026-05-02T07:24:36.095Z</time></trkpt><trkpt lat="42.4910267" lon="14.1230333"><ele>21.8</ele><time>2026-05-02T07:24:37.094Z</time></trkpt><trkpt lat="42.4909383" lon="14.1229517"><ele>22.2</ele><time>2026-05-02T07:24:38.095Z</time></trkpt><trkpt lat="42.4908417" lon="14.122875"><ele>22.599999999999998</ele><time>2026-05-02T07:24:39.094Z</time></trkpt><trkpt lat="42.490745" lon="14.1228"><ele>23.0</ele><time>2026-05-02T07:24:40.095Z</time></trkpt><trkpt lat="42.4906567" lon="14.1227233"><ele>23.0</ele><time>2026-05-02T07:24:41.094Z</time></trkpt><trkpt lat="42.490575" lon="14.1226517"><ele>23.0</ele><time>2026-05-02T07:24:42.094Z</time></trkpt><trkpt lat="42.4904983" lon="14.1226"><ele>23.0</ele><time>2026-05-02T07:24:43.095Z</time></trkpt><trkpt lat="42.4904317" lon="14.1225483"><ele>23.0</ele><time>2026-05-02T07:24:44.095Z</time></trkpt><trkpt lat="42.4903333" lon="14.12246"><ele>23.0</ele><time>2026-05-02T07:24:46.095Z</time></trkpt><trkpt lat="42.490315" lon="14.1223533"><ele>22.799999999999997</ele><time>2026-05-02T07:24:48.095Z</time></trkpt><trkpt lat="42.4903683" lon="14.1221867"><ele>22.6</ele><time>2026-05-02T07:24:50.095Z</time></trkpt><trkpt lat="42.490405" lon="14.122065"><ele>22.4</ele><time>2026-05-02T07:24:51.094Z</time></trkpt><trkpt lat="42.4904283" lon="14.121935"><ele>22.200000000000003</ele><time>2026-05-02T07:24:52.095Z</time></trkpt><trkpt lat="42.4904533" lon="14.1218217"><ele>22.0</ele><time>2026-05-02T07:24:53.094Z</time></trkpt><trkpt lat="42.4904917" lon="14.12171"><ele>21.75</ele><time>2026-05-02T07:24:54.094Z</time></trkpt><trkpt lat="42.4905433" lon="14.1215767"><ele>21.5</ele><time>2026-05-02T07:24:55.094Z</time></trkpt><trkpt lat="42.4906083" lon="14.1214267"><ele>21.25</ele><time>2026-05-02T07:24:56.095Z</time></trkpt><trkpt lat="42.4906817" lon="14.1212617"><ele>21.0</ele><time>2026-05-02T07:24:57.094Z</time></trkpt><trkpt lat="42.4907667" lon="14.1210767"><ele>21.0</ele><time>2026-05-02T07:24:58.095Z</time></trkpt><trkpt lat="42.490855" lon="14.1208983"><ele>21.0</ele><time>2026-05-02T07:24:59.094Z</time></trkpt><trkpt lat="42.4909417" lon="14.1207183"><ele>21.0</ele><time>2026-05-02T07:25:00.094Z</time></trkpt><trkpt lat="42.49102" lon="14.1205433"><ele>21.0</ele><time>2026-05-02T07:25:01.093Z</time></trkpt><trkpt lat="42.4910883" lon="14.120375"><ele>21.0</ele><time>2026-05-02T07:25:02.094Z</time></trkpt><trkpt lat="42.4911533" lon="14.120225"><ele>21.0</ele><time>2026-05-02T07:25:03.094Z</time></trkpt><trkpt lat="42.49122" lon="14.1200683"><ele>21.0</ele><time>2026-05-02T07:25:04.094Z</time></trkpt><trkpt lat="42.4912867" lon="14.1199017"><ele>20.75</ele><time>2026-05-02T07:25:05.093Z</time></trkpt><trkpt lat="42.491365" lon="14.1197267"><ele>20.5</ele><time>2026-05-02T07:25:06.094Z</time></trkpt><trkpt lat="42.491435" lon="14.1195633"><ele>20.25</ele><time>2026-05-02T07:25:07.093Z</time></trkpt><trkpt lat="42.4915017" lon="14.119425"><ele>20.0</ele><time>2026-05-02T07:25:08.094Z</time></trkpt><trkpt lat="42.4915533" lon="14.1193"><ele>20.0</ele><time>2026-05-02T07:25:09.094Z</time></trkpt><trkpt lat="42.4916033" lon="14.1191867"><ele>20.0</ele><time>2026-05-02T07:25:10.094Z</time></trkpt><trkpt lat="42.4916567" lon="14.119075"><ele>20.0</ele><time>2026-05-02T07:25:11.094Z</time></trkpt><trkpt lat="42.4917117" lon="14.1189683"><ele>20.0</ele><time>2026-05-02T07:25:12.093Z</time></trkpt><trkpt lat="42.49176" lon="14.1188683"><ele>20.0</ele><time>2026-05-02T07:25:13.093Z</time></trkpt><trkpt lat="42.491815" lon="14.1187667"><ele>19.75</ele><time>2026-05-02T07:25:14.093Z</time></trkpt><trkpt lat="42.491875" lon="14.1186383"><ele>19.5</ele><time>2026-05-02T07:25:15.093Z</time></trkpt><trkpt lat="42.4919317" lon="14.1184867"><ele>19.25</ele><time>2026-05-02T07:25:16.093Z</time></trkpt><trkpt lat="42.491995" lon="14.1183233"><ele>19.0</ele><time>2026-05-02T07:25:17.093Z</time></trkpt><trkpt lat="42.492065" lon="14.118155"><ele>18.25</ele><time>2026-05-02T07:25:18.093Z</time></trkpt><trkpt lat="42.4921383" lon="14.1179883"><ele>17.5</ele><time>2026-05-02T07:25:19.094Z</time></trkpt><trkpt lat="42.492205" lon="14.1178383"><ele>16.75</ele><time>2026-05-02T07:25:20.093Z</time></trkpt><trkpt lat="42.4922633" lon="14.1177033"><ele>16.0</ele><time>2026-05-02T07:25:21.094Z</time></trkpt><trkpt lat="42.4923167" lon="14.1175933"><ele>15.999999999999998</ele><time>2026-05-02T07:25:22.094Z</time></trkpt><trkpt lat="42.4923683" lon="14.1174883"><ele>16.0</ele><time>2026-05-02T07:25:23.094Z</time></trkpt><trkpt lat="42.4924117" lon="14.1173917"><ele>16.0</ele><time>2026-05-02T07:25:24.093Z</time></trkpt><trkpt lat="42.492445" lon="14.1173083"><ele>16.0</ele><time>2026-05-02T07:25:25.093Z</time></trkpt><trkpt lat="42.4924917" lon="14.1171783"><ele>15.999999999999998</ele><time>2026-05-02T07:25:27.093Z</time></trkpt><trkpt lat="42.49253" lon="14.1170917"><ele>16.0</ele><time>2026-05-02T07:25:29.094Z</time></trkpt><trkpt lat="42.4925633" lon="14.117015"><ele>16.400000000000002</ele><time>2026-05-02T07:25:31.094Z</time></trkpt><trkpt lat="42.4926417" lon="14.1168583"><ele>16.8</ele><time>2026-05-02T07:25:33.094Z</time></trkpt><trkpt lat="42.492695" lon="14.1167567"><ele>17.200000000000003</ele><time>2026-05-02T07:25:34.093Z</time></trkpt><trkpt lat="42.49275" lon="14.11665"><ele>17.6</ele><time>2026-05-02T07:25:35.094Z</time></trkpt><trkpt lat="42.4927933" lon="14.1165333"><ele>18.0</ele><time>2026-05-02T07:25:36.094Z</time></trkpt><trkpt lat="42.4928483" lon="14.1164067"><ele>18.25</ele><time>2026-05-02T07:25:37.093Z</time></trkpt><trkpt lat="42.492915" lon="14.116265"><ele>18.5</ele><time>2026-05-02T07:25:38.094Z</time></trkpt><trkpt lat="42.4929917" lon="14.1160933"><ele>18.75</ele><time>2026-05-02T07:25:39.093Z</time></trkpt><trkpt lat="42.493075" lon="14.1159017"><ele>19.0</ele><time>2026-05-02T07:25:40.093Z</time></trkpt><trkpt lat="42.4931617" lon="14.1157117"><ele>19.0</ele><time>2026-05-02T07:25:41.093Z</time></trkpt><trkpt lat="42.4932367" lon="14.1155333"><ele>19.0</ele><time>2026-05-02T07:25:42.093Z</time></trkpt><trkpt lat="42.4933083" lon="14.11537"><ele>19.0</ele><time>2026-05-02T07:25:43.094Z</time></trkpt><trkpt lat="42.4933733" lon="14.11522"><ele>19.0</ele><time>2026-05-02T07:25:44.093Z</time></trkpt><trkpt lat="42.49344" lon="14.11507"><ele>19.0</ele><time>2026-05-02T07:25:45.094Z</time></trkpt><trkpt lat="42.4935117" lon="14.11491"><ele>19.0</ele><time>2026-05-02T07:25:46.093Z</time></trkpt><trkpt lat="42.4935767" lon="14.1147683"><ele>19.0</ele><time>2026-05-02T07:25:47.093Z</time></trkpt><trkpt lat="42.4936367" lon="14.1146367"><ele>19.0</ele><time>2026-05-02T07:25:48.093Z</time></trkpt><trkpt lat="42.49368" lon="14.11453"><ele>19.0</ele><time>2026-05-02T07:25:49.094Z</time></trkpt><trkpt lat="42.4937233" lon="14.1144233"><ele>19.0</ele><time>2026-05-02T07:25:50.094Z</time></trkpt><trkpt lat="42.4937617" lon="14.1143317"><ele>19.0</ele><time>2026-05-02T07:25:51.094Z</time></trkpt><trkpt lat="42.4937917" lon="14.1142517"><ele>19.0</ele><time>2026-05-02T07:25:52.093Z</time></trkpt><trkpt lat="42.4938667" lon="14.1141733"><ele>19.0</ele><time>2026-05-02T07:25:54.093Z</time></trkpt><trkpt lat="42.493965" lon="14.11419"><ele>19.0</ele><time>2026-05-02T07:25:56.094Z</time></trkpt><trkpt lat="42.4940283" lon="14.11422"><ele>19.0</ele><time>2026-05-02T07:25:57.094Z</time></trkpt><trkpt lat="42.494105" lon="14.1142517"><ele>19.0</ele><time>2026-05-02T07:25:58.093Z</time></trkpt><trkpt lat="42.4941867" lon="14.1142917"><ele>19.0</ele><time>2026-05-02T07:25:59.094Z</time></trkpt><trkpt lat="42.494285" lon="14.1143317"><ele>19.0</ele><time>2026-05-02T07:26:00.094Z</time></trkpt><trkpt lat="42.4943783" lon="14.1143733"><ele>19.0</ele><time>2026-05-02T07:26:01.093Z</time></trkpt><trkpt lat="42.4944633" lon="14.1144033"><ele>19.0</ele><time>2026-05-02T07:26:02.093Z</time></trkpt><trkpt lat="42.4945367" lon="14.1144183"><ele>19.0</ele><time>2026-05-02T07:26:03.093Z</time></trkpt><trkpt lat="42.4946233" lon="14.1144033"><ele>19.0</ele><time>2026-05-02T07:26:05.093Z</time></trkpt><trkpt lat="42.4946817" lon="14.1143033"><ele>19.0</ele><time>2026-05-02T07:26:07.094Z</time></trkpt><trkpt lat="42.4947283" lon="14.1141417"><ele>19.0</ele><time>2026-05-02T07:26:09.094Z</time></trkpt><trkpt lat="42.49475" lon="14.1140067"><ele>18.833333333333332</ele><time>2026-05-02T07:26:10.093Z</time></trkpt><trkpt lat="42.4947533" lon="14.1138983"><ele>18.666666666666664</ele><time>2026-05-02T07:26:11.093Z</time></trkpt><trkpt lat="42.4947083" lon="14.1138033"><ele>18.5</ele><time>2026-05-02T07:26:13.093Z</time></trkpt><trkpt lat="42.4946483" lon="14.1137667"><ele>18.333333333333332</ele><time>2026-05-02T07:26:14.094Z</time></trkpt><trkpt lat="42.4945583" lon="14.11373"><ele>18.166666666666668</ele><time>2026-05-02T07:26:15.094Z</time></trkpt><trkpt lat="42.4944517" lon="14.1137033"><ele>18.0</ele><time>2026-05-02T07:26:16.094Z</time></trkpt><trkpt lat="42.4943417" lon="14.1136767"><ele>18.5</ele><time>2026-05-02T07:26:17.093Z</time></trkpt><trkpt lat="42.4942183" lon="14.113645"><ele>19.0</ele><time>2026-05-02T07:26:18.094Z</time></trkpt><trkpt lat="42.4940883" lon="14.1135983"><ele>19.5</ele><time>2026-05-02T07:26:19.093Z</time></trkpt><trkpt lat="42.493955" lon="14.1135533"><ele>20.0</ele><time>2026-05-02T07:26:20.094Z</time></trkpt><trkpt lat="42.4938167" lon="14.1134967"><ele>19.25</ele><time>2026-05-02T07:26:21.094Z</time></trkpt><trkpt lat="42.4936783" lon="14.1134433"><ele>18.5</ele><time>2026-05-02T07:26:22.094Z</time></trkpt><trkpt lat="42.49354" lon="14.1133917"><ele>17.75</ele><time>2026-05-02T07:26:23.094Z</time></trkpt><trkpt lat="42.4934083" lon="14.1133333"><ele>17.0</ele><time>2026-05-02T07:26:24.093Z</time></trkpt><trkpt lat="42.4932667" lon="14.113275"><ele>16.666666666666668</ele><time>2026-05-02T07:26:25.093Z</time></trkpt><trkpt lat="42.4931133" lon="14.113215"><ele>16.333333333333332</ele><time>2026-05-02T07:26:26.093Z</time></trkpt><trkpt lat="42.4929733" lon="14.113155"><ele>16.0</ele><time>2026-05-02T07:26:27.093Z</time></trkpt><trkpt lat="42.492835" lon="14.11309"><ele>16.0</ele><time>2026-05-02T07:26:28.093Z</time></trkpt><trkpt lat="42.4926967" lon="14.1130233"><ele>16.0</ele><time>2026-05-02T07:26:29.094Z</time></trkpt><trkpt lat="42.4925517" lon="14.11296"><ele>16.0</ele><time>2026-05-02T07:26:30.094Z</time></trkpt><trkpt lat="42.4924017" lon="14.1128917"><ele>16.0</ele><time>2026-05-02T07:26:31.093Z</time></trkpt><trkpt lat="42.4922533" lon="14.1128283"><ele>16.0</ele><time>2026-05-02T07:26:32.094Z</time></trkpt><trkpt lat="42.4920983" lon="14.112765"><ele>16.0</ele><time>2026-05-02T07:26:33.094Z</time></trkpt><trkpt lat="42.4919317" lon="14.1126933"><ele>15.666666666666666</ele><time>2026-05-02T07:26:34.093Z</time></trkpt><trkpt lat="42.4917683" lon="14.112625"><ele>15.333333333333332</ele><time>2026-05-02T07:26:35.093Z</time></trkpt><trkpt lat="42.4916067" lon="14.1125517"><ele>15.0</ele><time>2026-05-02T07:26:36.094Z</time></trkpt><trkpt lat="42.4914417" lon="14.1124833"><ele>15.0</ele><time>2026-05-02T07:26:37.094Z</time></trkpt><trkpt lat="42.4912817" lon="14.1124217"><ele>15.0</ele><time>2026-05-02T07:26:38.094Z</time></trkpt><trkpt lat="42.4911167" lon="14.112345"><ele>15.0</ele><time>2026-05-02T07:26:39.094Z</time></trkpt><trkpt lat="42.4909517" lon="14.1122833"><ele>15.25</ele><time>2026-05-02T07:26:40.094Z</time></trkpt><trkpt lat="42.4908017" lon="14.1122233"><ele>15.5</ele><time>2026-05-02T07:26:41.093Z</time></trkpt><trkpt lat="42.4906683" lon="14.1121733"><ele>15.75</ele><time>2026-05-02T07:26:42.094Z</time></trkpt><trkpt lat="42.4905383" lon="14.1121233"><ele>16.0</ele><time>2026-05-02T07:26:43.094Z</time></trkpt><trkpt lat="42.4904117" lon="14.1120667"><ele>16.0</ele><time>2026-05-02T07:26:44.094Z</time></trkpt><trkpt lat="42.49028" lon="14.1120133"><ele>16.0</ele><time>2026-05-02T07:26:45.093Z</time></trkpt><trkpt lat="42.4901383" lon="14.111955"><ele>16.0</ele><time>2026-05-02T07:26:46.094Z</time></trkpt><trkpt lat="42.4900017" lon="14.1119017"><ele>16.0</ele><time>2026-05-02T07:26:47.093Z</time></trkpt><trkpt lat="42.4898733" lon="14.1118483"><ele>16.0</ele><time>2026-05-02T07:26:48.094Z</time></trkpt><trkpt lat="42.489745" lon="14.1117983"><ele>16.0</ele><time>2026-05-02T07:26:49.094Z</time></trkpt><trkpt lat="42.489625" lon="14.11174"><ele>16.0</ele><time>2026-05-02T07:26:50.093Z</time></trkpt><trkpt lat="42.4894967" lon="14.11169"><ele>16.0</ele><time>2026-05-02T07:26:51.094Z</time></trkpt><trkpt lat="42.4893583" lon="14.11165"><ele>15.75</ele><time>2026-05-02T07:26:52.093Z</time></trkpt><trkpt lat="42.48923" lon="14.11161"><ele>15.5</ele><time>2026-05-02T07:26:53.094Z</time></trkpt><trkpt lat="42.4891183" lon="14.1115767"><ele>15.25</ele><time>2026-05-02T07:26:54.094Z</time></trkpt><trkpt lat="42.48902" lon="14.1115383"><ele>15.0</ele><time>2026-05-02T07:26:55.093Z</time></trkpt><trkpt lat="42.4889167" lon="14.1114933"><ele>15.0</ele><time>2026-05-02T07:26:56.094Z</time></trkpt><trkpt lat="42.4888117" lon="14.1114567"><ele>15.0</ele><time>2026-05-02T07:26:57.093Z</time></trkpt><trkpt lat="42.488725" lon="14.1114333"><ele>15.0</ele><time>2026-05-02T07:26:58.094Z</time></trkpt><trkpt lat="42.4886617" lon="14.1114217"><ele>15.0</ele><time>2026-05-02T07:26:59.093Z</time></trkpt><trkpt lat="42.48857" lon="14.11144"><ele>15.0</ele><time>2026-05-02T07:27:01.093Z</time></trkpt><trkpt lat="42.4884933" lon="14.11152"><ele>16.0</ele><time>2026-05-02T07:27:03.094Z</time></trkpt><trkpt lat="42.4884117" lon="14.11161"><ele>17.0</ele><time>2026-05-02T07:27:05.093Z</time></trkpt><trkpt lat="42.4884167" lon="14.1117033"><ele>18.0</ele><time>2026-05-02T07:27:06.093Z</time></trkpt><trkpt lat="42.4884283" lon="14.111815"><ele>19.0</ele><time>2026-05-02T07:27:07.093Z</time></trkpt><trkpt lat="42.4884017" lon="14.1118967"><ele>20.0</ele><time>2026-05-02T07:27:08.094Z</time></trkpt><trkpt lat="42.488335" lon="14.1119433"><ele>21.0</ele><time>2026-05-02T07:27:10.094Z</time></trkpt><trkpt lat="42.4882617" lon="14.1119333"><ele>21.0</ele><time>2026-05-02T07:27:11.093Z</time></trkpt><trkpt lat="42.4881633" lon="14.111905"><ele>21.0</ele><time>2026-05-02T07:27:12.093Z</time></trkpt><trkpt lat="42.48805" lon="14.1118667"><ele>21.0</ele><time>2026-05-02T07:27:13.093Z</time></trkpt><trkpt lat="42.4879217" lon="14.1118267"><ele>21.0</ele><time>2026-05-02T07:27:14.093Z</time></trkpt><trkpt lat="42.4877833" lon="14.11177"><ele>21.666666666666668</ele><time>2026-05-02T07:27:15.093Z</time></trkpt><trkpt lat="42.48764" lon="14.1116967"><ele>22.333333333333336</ele><time>2026-05-02T07:27:16.094Z</time></trkpt><trkpt lat="42.4874917" lon="14.1116083"><ele>23.0</ele><time>2026-05-02T07:27:17.094Z</time></trkpt><trkpt lat="42.4873367" lon="14.1115267"><ele>23.0</ele><time>2026-05-02T07:27:18.094Z</time></trkpt><trkpt lat="42.4871767" lon="14.1114533"><ele>23.0</ele><time>2026-05-02T07:27:19.094Z</time></trkpt><trkpt lat="42.4870233" lon="14.1113933"><ele>23.0</ele><time>2026-05-02T07:27:20.094Z</time></trkpt><trkpt lat="42.4868867" lon="14.11134"><ele>22.799999999999997</ele><time>2026-05-02T07:27:21.094Z</time></trkpt><trkpt lat="42.4867767" lon="14.1112933"><ele>22.6</ele><time>2026-05-02T07:27:22.094Z</time></trkpt><trkpt lat="42.48669" lon="14.1112533"><ele>22.4</ele><time>2026-05-02T07:27:23.094Z</time></trkpt><trkpt lat="42.4866233" lon="14.1112283"><ele>22.200000000000003</ele><time>2026-05-02T07:27:24.094Z</time></trkpt><trkpt lat="42.4865283" lon="14.1112217"><ele>22.0</ele><time>2026-05-02T07:27:26.094Z</time></trkpt><trkpt lat="42.486445" lon="14.11132"><ele>22.0</ele><time>2026-05-02T07:27:28.094Z</time></trkpt><trkpt lat="42.4863883" lon="14.1114117"><ele>22.0</ele><time>2026-05-02T07:27:29.093Z</time></trkpt><trkpt lat="42.4863183" lon="14.1115417"><ele>22.0</ele><time>2026-05-02T07:27:30.093Z</time></trkpt><trkpt lat="42.4862317" lon="14.1116917"><ele>22.0</ele><time>2026-05-02T07:27:31.093Z</time></trkpt><trkpt lat="42.4861417" lon="14.11185"><ele>22.0</ele><time>2026-05-02T07:27:32.093Z</time></trkpt><trkpt lat="42.4860517" lon="14.1120183"><ele>22.0</ele><time>2026-05-02T07:27:33.093Z</time></trkpt><trkpt lat="42.485955" lon="14.1122067"><ele>22.0</ele><time>2026-05-02T07:27:34.093Z</time></trkpt><trkpt lat="42.4858533" lon="14.1124033"><ele>22.666666666666664</ele><time>2026-05-02T07:27:35.094Z</time></trkpt><trkpt lat="42.4857483" lon="14.1126017"><ele>23.333333333333332</ele><time>2026-05-02T07:27:36.094Z</time></trkpt><trkpt lat="42.4856333" lon="14.1128067"><ele>24.0</ele><time>2026-05-02T07:27:37.093Z</time></trkpt><trkpt lat="42.48552" lon="14.1130117"><ele>24.0</ele><time>2026-05-02T07:27:38.094Z</time></trkpt><trkpt lat="42.4853983" lon="14.11321"><ele>24.0</ele><time>2026-05-02T07:27:39.093Z</time></trkpt><trkpt lat="42.4852683" lon="14.1134167"><ele>24.0</ele><time>2026-05-02T07:27:40.094Z</time></trkpt><trkpt lat="42.48513" lon="14.1136367"><ele>24.0</ele><time>2026-05-02T07:27:41.093Z</time></trkpt><trkpt lat="42.4849867" lon="14.1138517"><ele>24.0</ele><time>2026-05-02T07:27:42.093Z</time></trkpt><trkpt lat="42.484835" lon="14.1140667"><ele>24.0</ele><time>2026-05-02T07:27:43.093Z</time></trkpt><trkpt lat="42.48469" lon="14.1142883"><ele>24.5</ele><time>2026-05-02T07:27:44.093Z</time></trkpt><trkpt lat="42.48453" lon="14.1145233"><ele>25.0</ele><time>2026-05-02T07:27:45.093Z</time></trkpt><trkpt lat="42.48437" lon="14.11475"><ele>25.5</ele><time>2026-05-02T07:27:46.094Z</time></trkpt><trkpt lat="42.48421" lon="14.1149767"><ele>26.0</ele><time>2026-05-02T07:27:47.093Z</time></trkpt><trkpt lat="42.4840583" lon="14.1151983"><ele>26.0</ele><time>2026-05-02T07:27:48.094Z</time></trkpt><trkpt lat="42.4839067" lon="14.1154167"><ele>26.0</ele><time>2026-05-02T07:27:49.094Z</time></trkpt><trkpt lat="42.4837667" lon="14.1156117"><ele>26.0</ele><time>2026-05-02T07:27:50.094Z</time></trkpt><trkpt lat="42.48364" lon="14.11579"><ele>26.5</ele><time>2026-05-02T07:27:51.094Z</time></trkpt><trkpt lat="42.48353" lon="14.11595"><ele>27.0</ele><time>2026-05-02T07:27:52.093Z</time></trkpt><trkpt lat="42.483435" lon="14.1160933"><ele>27.5</ele><time>2026-05-02T07:27:53.093Z</time></trkpt><trkpt lat="42.4833483" lon="14.11623"><ele>28.0</ele><time>2026-05-02T07:27:54.094Z</time></trkpt><trkpt lat="42.48327" lon="14.116335"><ele>28.000000000000004</ele><time>2026-05-02T07:27:55.093Z</time></trkpt><trkpt lat="42.4831967" lon="14.11641"><ele>28.0</ele><time>2026-05-02T07:27:56.094Z</time></trkpt><trkpt lat="42.483135" lon="14.1164583"><ele>28.0</ele><time>2026-05-02T07:27:57.094Z</time></trkpt><trkpt lat="42.483055" lon="14.116495"><ele>28.0</ele><time>2026-05-02T07:27:59.094Z</time></trkpt><trkpt lat="42.4829583" lon="14.1164567"><ele>28.000000000000004</ele><time>2026-05-02T07:28:06.093Z</time></trkpt><trkpt lat="42.4828917" lon="14.1164117"><ele>28.0</ele><time>2026-05-02T07:28:07.093Z</time></trkpt><trkpt lat="42.4828083" lon="14.11635"><ele>28.25</ele><time>2026-05-02T07:28:08.093Z</time></trkpt><trkpt lat="42.482715" lon="14.1162783"><ele>28.5</ele><time>2026-05-02T07:28:09.094Z</time></trkpt><trkpt lat="42.4826133" lon="14.1162017"><ele>28.75</ele><time>2026-05-02T07:28:10.094Z</time></trkpt><trkpt lat="42.4825117" lon="14.116125"><ele>29.0</ele><time>2026-05-02T07:28:11.094Z</time></trkpt><trkpt lat="42.482405" lon="14.1160467"><ele>29.0</ele><time>2026-05-02T07:28:12.093Z</time></trkpt><trkpt lat="42.4823133" lon="14.1159683"><ele>29.0</ele><time>2026-05-02T07:28:13.093Z</time></trkpt><trkpt lat="42.4822283" lon="14.1159"><ele>29.0</ele><time>2026-05-02T07:28:14.093Z</time></trkpt><trkpt lat="42.48215" lon="14.1158317"><ele>29.0</ele><time>2026-05-02T07:28:15.093Z</time></trkpt><trkpt lat="42.48208" lon="14.1157733"><ele>29.0</ele><time>2026-05-02T07:28:16.094Z</time></trkpt><trkpt lat="42.4820083" lon="14.1157233"><ele>29.799999999999997</ele><time>2026-05-02T07:28:17.093Z</time></trkpt><trkpt lat="42.4819317" lon="14.1156683"><ele>30.599999999999998</ele><time>2026-05-02T07:28:18.093Z</time></trkpt><trkpt lat="42.4818517" lon="14.1156117"><ele>31.4</ele><time>2026-05-02T07:28:19.093Z</time></trkpt><trkpt lat="42.4817883" lon="14.1155583"><ele>32.199999999999996</ele><time>2026-05-02T07:28:20.094Z</time></trkpt><trkpt lat="42.481685" lon="14.115495"><ele>33.0</ele><time>2026-05-02T07:28:22.094Z</time></trkpt><trkpt lat="42.48158" lon="14.1153883"><ele>33.0</ele><time>2026-05-02T07:28:24.093Z</time></trkpt><trkpt lat="42.4814917" lon="14.1153117"><ele>33.0</ele><time>2026-05-02T07:28:25.094Z</time></trkpt><trkpt lat="42.4813933" lon="14.115225"><ele>33.0</ele><time>2026-05-02T07:28:26.093Z</time></trkpt><trkpt lat="42.4812817" lon="14.1151333"><ele>33.0</ele><time>2026-05-02T07:28:27.093Z</time></trkpt><trkpt lat="42.4811667" lon="14.1150417"><ele>33.0</ele><time>2026-05-02T07:28:28.094Z</time></trkpt><trkpt lat="42.4810683" lon="14.1149617"><ele>33.0</ele><time>2026-05-02T07:28:29.094Z</time></trkpt><trkpt lat="42.480975" lon="14.1148867"><ele>33.0</ele><time>2026-05-02T07:28:30.093Z</time></trkpt><trkpt lat="42.4808733" lon="14.1148083"><ele>33.0</ele><time>2026-05-02T07:28:31.093Z</time></trkpt><trkpt lat="42.4807717" lon="14.114725"><ele>32.4</ele><time>2026-05-02T07:28:32.093Z</time></trkpt><trkpt lat="42.4806817" lon="14.1146533"><ele>31.799999999999997</ele><time>2026-05-02T07:28:33.094Z</time></trkpt><trkpt lat="42.4805983" lon="14.1145883"><ele>31.2</ele><time>2026-05-02T07:28:34.093Z</time></trkpt><trkpt lat="42.4805317" lon="14.1145383"><ele>30.6</ele><time>2026-05-02T07:28:35.094Z</time></trkpt><trkpt lat="42.4804083" lon="14.1144467"><ele>30.0</ele><time>2026-05-02T07:28:37.093Z</time></trkpt><trkpt lat="42.480325" lon="14.1143817"><ele>30.0</ele><time>2026-05-02T07:28:38.093Z</time></trkpt><trkpt lat="42.4802267" lon="14.114295"><ele>30.0</ele><time>2026-05-02T07:28:39.094Z</time></trkpt><trkpt lat="42.480115" lon="14.1141983"><ele>30.0</ele><time>2026-05-02T07:28:40.093Z</time></trkpt><trkpt lat="42.4800067" lon="14.1141083"><ele>30.0</ele><time>2026-05-02T07:28:41.093Z</time></trkpt><trkpt lat="42.4799133" lon="14.1140183"><ele>29.8</ele><time>2026-05-02T07:28:42.093Z</time></trkpt><trkpt lat="42.479815" lon="14.1139383"><ele>29.6</ele><time>2026-05-02T07:28:43.094Z</time></trkpt><trkpt lat="42.4797183" lon="14.1138667"><ele>29.4</ele><time>2026-05-02T07:28:44.093Z</time></trkpt><trkpt lat="42.4796433" lon="14.1137933"><ele>29.2</ele><time>2026-05-02T07:28:45.094Z</time></trkpt><trkpt lat="42.4795667" lon="14.11373"><ele>29.0</ele><time>2026-05-02T07:28:46.094Z</time></trkpt><trkpt lat="42.4794983" lon="14.1136733"><ele>29.499999999999996</ele><time>2026-05-02T07:28:47.093Z</time></trkpt><trkpt lat="42.47943" lon="14.113615"><ele>30.0</ele><time>2026-05-02T07:28:48.094Z</time></trkpt><trkpt lat="42.479365" lon="14.1135617"><ele>30.5</ele><time>2026-05-02T07:28:49.093Z</time></trkpt><trkpt lat="42.479295" lon="14.1135067"><ele>31.0</ele><time>2026-05-02T07:28:50.094Z</time></trkpt><trkpt lat="42.4792283" lon="14.1134483"><ele>31.499999999999996</ele><time>2026-05-02T07:28:51.094Z</time></trkpt><trkpt lat="42.4791633" lon="14.1133883"><ele>32.0</ele><time>2026-05-02T07:28:52.093Z</time></trkpt><trkpt lat="42.47909" lon="14.113335"><ele>31.999999999999996</ele><time>2026-05-02T07:28:53.093Z</time></trkpt><trkpt lat="42.4790267" lon="14.1132817"><ele>32.0</ele><time>2026-05-02T07:28:54.093Z</time></trkpt><trkpt lat="42.4789533" lon="14.1132267"><ele>32.0</ele><time>2026-05-02T07:28:55.093Z</time></trkpt><trkpt lat="42.4788683" lon="14.1131617"><ele>32.0</ele><time>2026-05-02T07:28:56.093Z</time></trkpt><trkpt lat="42.4787883" lon="14.1130967"><ele>31.999999999999996</ele><time>2026-05-02T07:28:57.093Z</time></trkpt><trkpt lat="42.478715" lon="14.1130383"><ele>32.0</ele><time>2026-05-02T07:28:58.094Z</time></trkpt><trkpt lat="42.4786433" lon="14.1129783"><ele>32.166666666666664</ele><time>2026-05-02T07:28:59.094Z</time></trkpt><trkpt lat="42.478575" lon="14.1129167"><ele>32.33333333333333</ele><time>2026-05-02T07:29:00.094Z</time></trkpt><trkpt lat="42.478505" lon="14.112855"><ele>32.5</ele><time>2026-05-02T07:29:01.094Z</time></trkpt><trkpt lat="42.4784267" lon="14.1127967"><ele>32.666666666666664</ele><time>2026-05-02T07:29:02.094Z</time></trkpt><trkpt lat="42.4783617" lon="14.1127367"><ele>32.833333333333336</ele><time>2026-05-02T07:29:03.094Z</time></trkpt><trkpt lat="42.4782917" lon="14.11267"><ele>33.0</ele><time>2026-05-02T07:29:04.093Z</time></trkpt><trkpt lat="42.478215" lon="14.112615"><ele>33.0</ele><time>2026-05-02T07:29:05.093Z</time></trkpt><trkpt lat="42.4781317" lon="14.1125567"><ele>33.0</ele><time>2026-05-02T07:29:06.093Z</time></trkpt><trkpt lat="42.4780467" lon="14.1125017"><ele>33.0</ele><time>2026-05-02T07:29:07.093Z</time></trkpt><trkpt lat="42.4779483" lon="14.1124333"><ele>33.0</ele><time>2026-05-02T07:29:08.094Z</time></trkpt><trkpt lat="42.4778483" lon="14.1123583"><ele>33.0</ele><time>2026-05-02T07:29:09.094Z</time></trkpt><trkpt lat="42.4777333" lon="14.1122917"><ele>33.666666666666664</ele><time>2026-05-02T07:29:10.094Z</time></trkpt><trkpt lat="42.47757" lon="14.1121833"><ele>34.33333333333333</ele><time>2026-05-02T07:29:11.093Z</time></trkpt><trkpt lat="42.4774283" lon="14.112055"><ele>35.0</ele><time>2026-05-02T07:29:12.094Z</time></trkpt><trkpt lat="42.477285" lon="14.111915"><ele>35.0</ele><time>2026-05-02T07:29:13.093Z</time></trkpt><trkpt lat="42.4771333" lon="14.1117767"><ele>35.0</ele><time>2026-05-02T07:29:14.094Z</time></trkpt><trkpt lat="42.4769817" lon="14.1116383"><ele>35.0</ele><time>2026-05-02T07:29:15.093Z</time></trkpt><trkpt lat="42.476835" lon="14.11151"><ele>35.0</ele><time>2026-05-02T07:29:16.093Z</time></trkpt><trkpt lat="42.476705" lon="14.1113983"><ele>35.0</ele><time>2026-05-02T07:29:17.094Z</time></trkpt><trkpt lat="42.4765883" lon="14.1112967"><ele>35.0</ele><time>2026-05-02T07:29:18.094Z</time></trkpt><trkpt lat="42.47649" lon="14.1112033"><ele>35.0</ele><time>2026-05-02T07:29:19.094Z</time></trkpt><trkpt lat="42.4764117" lon="14.1111217"><ele>35.0</ele><time>2026-05-02T07:29:20.094Z</time></trkpt><trkpt lat="42.4763533" lon="14.1110483"><ele>35.0</ele><time>2026-05-02T07:29:21.093Z</time></trkpt><trkpt lat="42.4763133" lon="14.1109767"><ele>35.0</ele><time>2026-05-02T07:29:22.094Z</time></trkpt><trkpt lat="42.4762933" lon="14.110895"><ele>35.0</ele><time>2026-05-02T07:29:23.094Z</time></trkpt><trkpt lat="42.4762817" lon="14.1108017"><ele>35.0</ele><time>2026-05-02T07:29:24.093Z</time></trkpt><trkpt lat="42.476235" lon="14.1106567"><ele>35.0</ele><time>2026-05-02T07:29:26.093Z</time></trkpt><trkpt lat="42.4761233" lon="14.11062"><ele>35.4</ele><time>2026-05-02T07:29:28.093Z</time></trkpt><trkpt lat="42.4760433" lon="14.110645"><ele>35.8</ele><time>2026-05-02T07:29:29.093Z</time></trkpt><trkpt lat="42.4759467" lon="14.1106733"><ele>36.2</ele><time>2026-05-02T07:29:30.094Z</time></trkpt><trkpt lat="42.4758333" lon="14.1106817"><ele>36.6</ele><time>2026-05-02T07:29:31.093Z</time></trkpt><trkpt lat="42.4757167" lon="14.11064"><ele>37.0</ele><time>2026-05-02T07:29:32.093Z</time></trkpt><trkpt lat="42.4756" lon="14.1105667"><ele>37.0</ele><time>2026-05-02T07:29:33.093Z</time></trkpt><trkpt lat="42.4754917" lon="14.1105067"><ele>37.0</ele><time>2026-05-02T07:29:34.093Z</time></trkpt><trkpt lat="42.4753717" lon="14.1104817"><ele>37.0</ele><time>2026-05-02T07:29:35.094Z</time></trkpt><trkpt lat="42.475245" lon="14.1104833"><ele>37.0</ele><time>2026-05-02T07:29:36.093Z</time></trkpt><trkpt lat="42.4751233" lon="14.1105033"><ele>38.75</ele><time>2026-05-02T07:29:37.094Z</time></trkpt><trkpt lat="42.4750067" lon="14.110525"><ele>40.5</ele><time>2026-05-02T07:29:38.094Z</time></trkpt><trkpt lat="42.4748867" lon="14.1105367"><ele>42.25</ele><time>2026-05-02T07:29:39.093Z</time></trkpt><trkpt lat="42.4747617" lon="14.11053"><ele>44.0</ele><time>2026-05-02T07:29:40.093Z</time></trkpt><trkpt lat="42.4746283" lon="14.110505"><ele>46.0</ele><time>2026-05-02T07:29:41.093Z</time></trkpt><trkpt lat="42.474485" lon="14.110465"><ele>48.0</ele><time>2026-05-02T07:29:42.094Z</time></trkpt><trkpt lat="42.4743367" lon="14.1104133"><ele>50.0</ele><time>2026-05-02T07:29:43.094Z</time></trkpt><trkpt lat="42.4742" lon="14.1103533"><ele>52.0</ele><time>2026-05-02T07:29:44.094Z</time></trkpt><trkpt lat="42.4740683" lon="14.11029"><ele>52.0</ele><time>2026-05-02T07:29:45.093Z</time></trkpt><trkpt lat="42.473945" lon="14.1102283"><ele>52.0</ele><time>2026-05-02T07:29:46.094Z</time></trkpt><trkpt lat="42.4738217" lon="14.1101617"><ele>52.0</ele><time>2026-05-02T07:29:47.094Z</time></trkpt><trkpt lat="42.4737017" lon="14.1100983"><ele>52.0</ele><time>2026-05-02T07:29:48.093Z</time></trkpt><trkpt lat="42.4735683" lon="14.1100383"><ele>53.0</ele><time>2026-05-02T07:29:49.093Z</time></trkpt><trkpt lat="42.47343" lon="14.10998"><ele>54.0</ele><time>2026-05-02T07:29:50.093Z</time></trkpt><trkpt lat="42.4732917" lon="14.10992"><ele>55.0</ele><time>2026-05-02T07:29:51.093Z</time></trkpt><trkpt lat="42.47315" lon="14.1098583"><ele>56.0</ele><time>2026-05-02T07:29:52.093Z</time></trkpt><trkpt lat="42.47302" lon="14.10979"><ele>58.75</ele><time>2026-05-02T07:29:53.094Z</time></trkpt><trkpt lat="42.4728917" lon="14.1097133"><ele>61.5</ele><time>2026-05-02T07:29:54.094Z</time></trkpt><trkpt lat="42.4727583" lon="14.109645"><ele>64.25</ele><time>2026-05-02T07:29:55.094Z</time></trkpt><trkpt lat="42.4726183" lon="14.1095717"><ele>67.0</ele><time>2026-05-02T07:29:56.093Z</time></trkpt><trkpt lat="42.472475" lon="14.1095217"><ele>67.0</ele><time>2026-05-02T07:29:57.093Z</time></trkpt><trkpt lat="42.4723383" lon="14.1094783"><ele>67.0</ele><time>2026-05-02T07:29:58.093Z</time></trkpt><trkpt lat="42.4722167" lon="14.1094467"><ele>67.0</ele><time>2026-05-02T07:29:59.093Z</time></trkpt><trkpt lat="42.4721017" lon="14.109415"><ele>67.0</ele><time>2026-05-02T07:30:00.093Z</time></trkpt><trkpt lat="42.4719817" lon="14.1093683"><ele>66.0</ele><time>2026-05-02T07:30:01.094Z</time></trkpt><trkpt lat="42.4718683" lon="14.1093033"><ele>65.0</ele><time>2026-05-02T07:30:02.094Z</time></trkpt><trkpt lat="42.4717483" lon="14.1092183"><ele>64.0</ele><time>2026-05-02T07:30:03.093Z</time></trkpt><trkpt lat="42.4716317" lon="14.1091167"><ele>63.0</ele><time>2026-05-02T07:30:04.094Z</time></trkpt><trkpt lat="42.471515" lon="14.109"><ele>63.75</ele><time>2026-05-02T07:30:05.094Z</time></trkpt><trkpt lat="42.4714033" lon="14.1088717"><ele>64.5</ele><time>2026-05-02T07:30:06.094Z</time></trkpt><trkpt lat="42.4713" lon="14.10873"><ele>65.25</ele><time>2026-05-02T07:30:07.093Z</time></trkpt><trkpt lat="42.471195" lon="14.1085883"><ele>66.0</ele><time>2026-05-02T07:30:08.094Z</time></trkpt><trkpt lat="42.4710917" lon="14.1084533"><ele>66.0</ele><time>2026-05-02T07:30:09.094Z</time></trkpt><trkpt lat="42.4709883" lon="14.108315"><ele>66.0</ele><time>2026-05-02T07:30:10.093Z</time></trkpt><trkpt lat="42.470895" lon="14.1081683"><ele>66.0</ele><time>2026-05-02T07:30:11.094Z</time></trkpt><trkpt lat="42.4708067" lon="14.1080067"><ele>66.0</ele><time>2026-05-02T07:30:12.093Z</time></trkpt><trkpt lat="42.4707267" lon="14.1078333"><ele>70.0</ele><time>2026-05-02T07:30:13.093Z</time></trkpt><trkpt lat="42.47065" lon="14.1076483"><ele>74.0</ele><time>2026-05-02T07:30:14.094Z</time></trkpt><trkpt lat="42.4705733" lon="14.1074583"><ele>78.0</ele><time>2026-05-02T07:30:15.094Z</time></trkpt><trkpt lat="42.47052" lon="14.107265"><ele>76.5</ele><time>2026-05-02T07:30:16.094Z</time></trkpt><trkpt lat="42.4704617" lon="14.1070833"><ele>75.0</ele><time>2026-05-02T07:30:17.093Z</time></trkpt><trkpt lat="42.4704133" lon="14.1069"><ele>73.5</ele><time>2026-05-02T07:30:18.093Z</time></trkpt><trkpt lat="42.4703533" lon="14.1067233"><ele>72.0</ele><time>2026-05-02T07:30:19.093Z</time></trkpt><trkpt lat="42.4702783" lon="14.106565"><ele>74.4</ele><time>2026-05-02T07:30:20.094Z</time></trkpt><trkpt lat="42.4702083" lon="14.1064417"><ele>76.80000000000001</ele><time>2026-05-02T07:30:21.093Z</time></trkpt><trkpt lat="42.4701417" lon="14.106335"><ele>79.2</ele><time>2026-05-02T07:30:22.093Z</time></trkpt><trkpt lat="42.4700733" lon="14.1062483"><ele>81.60000000000001</ele><time>2026-05-02T07:30:23.093Z</time></trkpt><trkpt lat="42.4700133" lon="14.1061917"><ele>84.0</ele><time>2026-05-02T07:30:24.092Z</time></trkpt><trkpt lat="42.46996" lon="14.10614"><ele>84.0</ele><time>2026-05-02T07:30:26.092Z</time></trkpt><trkpt lat="42.4698867" lon="14.106085"><ele>84.0</ele><time>2026-05-02T07:30:28.093Z</time></trkpt><trkpt lat="42.4698317" lon="14.1060417"><ele>84.0</ele><time>2026-05-02T07:30:29.092Z</time></trkpt><trkpt lat="42.46976" lon="14.1059933"><ele>84.0</ele><time>2026-05-02T07:30:30.093Z</time></trkpt><trkpt lat="42.4696733" lon="14.1059317"><ele>84.0</ele><time>2026-05-02T07:30:31.092Z</time></trkpt><trkpt lat="42.4695783" lon="14.105865"><ele>84.0</ele><time>2026-05-02T07:30:32.092Z</time></trkpt><trkpt lat="42.4694867" lon="14.1057967"><ele>86.5</ele><time>2026-05-02T07:30:33.093Z</time></trkpt><trkpt lat="42.4693917" lon="14.105725"><ele>89.0</ele><time>2026-05-02T07:30:34.093Z</time></trkpt><trkpt lat="42.46929" lon="14.10566"><ele>91.5</ele><time>2026-05-02T07:30:35.092Z</time></trkpt><trkpt lat="42.4691817" lon="14.1055817"><ele>94.0</ele><time>2026-05-02T07:30:36.092Z</time></trkpt><trkpt lat="42.4690583" lon="14.105495"><ele>94.0</ele><time>2026-05-02T07:30:37.093Z</time></trkpt><trkpt lat="42.468925" lon="14.105405"><ele>94.0</ele><time>2026-05-02T07:30:38.092Z</time></trkpt><trkpt lat="42.468785" lon="14.1053233"><ele>94.0</ele><time>2026-05-02T07:30:39.093Z</time></trkpt><trkpt lat="42.4686483" lon="14.1052483"><ele>94.0</ele><time>2026-05-02T07:30:40.093Z</time></trkpt><trkpt lat="42.468505" lon="14.105185"><ele>94.5</ele><time>2026-05-02T07:30:41.093Z</time></trkpt><trkpt lat="42.4683617" lon="14.10515"><ele>95.0</ele><time>2026-05-02T07:30:42.092Z</time></trkpt><trkpt lat="42.4682167" lon="14.1051217"><ele>95.5</ele><time>2026-05-02T07:30:43.093Z</time></trkpt><trkpt lat="42.46808" lon="14.1050933"><ele>96.0</ele><time>2026-05-02T07:30:44.093Z</time></trkpt><trkpt lat="42.4679517" lon="14.105055"><ele>94.5</ele><time>2026-05-02T07:30:45.092Z</time></trkpt><trkpt lat="42.4678367" lon="14.1050167"><ele>93.0</ele><time>2026-05-02T07:30:46.093Z</time></trkpt><trkpt lat="42.4677267" lon="14.1049433"><ele>91.5</ele><time>2026-05-02T07:30:47.093Z</time></trkpt><trkpt lat="42.4676283" lon="14.1048717"><ele>90.0</ele><time>2026-05-02T07:30:48.093Z</time></trkpt><trkpt lat="42.467525" lon="14.10478"><ele>92.5</ele><time>2026-05-02T07:30:49.092Z</time></trkpt><trkpt lat="42.4674167" lon="14.104665"><ele>95.0</ele><time>2026-05-02T07:30:50.093Z</time></trkpt><trkpt lat="42.4673083" lon="14.10455"><ele>97.5</ele><time>2026-05-02T07:30:51.092Z</time></trkpt><trkpt lat="42.4671983" lon="14.10444"><ele>100.0</ele><time>2026-05-02T07:30:52.093Z</time></trkpt><trkpt lat="42.467075" lon="14.1043383"><ele>100.0</ele><time>2026-05-02T07:30:53.093Z</time></trkpt><trkpt lat="42.466955" lon="14.1042433"><ele>100.0</ele><time>2026-05-02T07:30:54.093Z</time></trkpt><trkpt lat="42.4668417" lon="14.1041533"><ele>100.0</ele><time>2026-05-02T07:30:55.092Z</time></trkpt><trkpt lat="42.4667267" lon="14.1040683"><ele>100.0</ele><time>2026-05-02T07:30:56.092Z</time></trkpt><trkpt lat="42.4666183" lon="14.1039817"><ele>99.75</ele><time>2026-05-02T07:30:57.093Z</time></trkpt><trkpt lat="42.4665117" lon="14.1039033"><ele>99.5</ele><time>2026-05-02T07:30:58.092Z</time></trkpt><trkpt lat="42.4663917" lon="14.10385"><ele>99.25</ele><time>2026-05-02T07:30:59.092Z</time></trkpt><trkpt lat="42.4662667" lon="14.1038117"><ele>99.0</ele><time>2026-05-02T07:31:00.093Z</time></trkpt><trkpt lat="42.4661367" lon="14.1038017"><ele>102.5</ele><time>2026-05-02T07:31:01.092Z</time></trkpt><trkpt lat="42.4660133" lon="14.103805"><ele>106.0</ele><time>2026-05-02T07:31:02.092Z</time></trkpt><trkpt lat="42.46589" lon="14.103815"><ele>109.5</ele><time>2026-05-02T07:31:03.092Z</time></trkpt><trkpt lat="42.4657733" lon="14.1038267"><ele>113.0</ele><time>2026-05-02T07:31:04.093Z</time></trkpt><trkpt lat="42.4656583" lon="14.1038433"><ele>113.0</ele><time>2026-05-02T07:31:05.093Z</time></trkpt><trkpt lat="42.4655483" lon="14.10384"><ele>113.00000000000001</ele><time>2026-05-02T07:31:06.093Z</time></trkpt><trkpt lat="42.4654417" lon="14.1038033"><ele>113.00000000000001</ele><time>2026-05-02T07:31:07.092Z</time></trkpt><trkpt lat="42.465335" lon="14.1037633"><ele>113.0</ele><time>2026-05-02T07:31:08.092Z</time></trkpt><trkpt lat="42.46524" lon="14.1037233"><ele>113.0</ele><time>2026-05-02T07:31:09.093Z</time></trkpt><trkpt lat="42.46515" lon="14.1036783"><ele>113.83333333333333</ele><time>2026-05-02T07:31:10.093Z</time></trkpt><trkpt lat="42.4650633" lon="14.103625"><ele>114.66666666666666</ele><time>2026-05-02T07:31:11.093Z</time></trkpt><trkpt lat="42.46498" lon="14.1035783"><ele>115.5</ele><time>2026-05-02T07:31:12.093Z</time></trkpt><trkpt lat="42.4648967" lon="14.1035333"><ele>116.33333333333334</ele><time>2026-05-02T07:31:13.092Z</time></trkpt><trkpt lat="42.4648283" lon="14.1034917"><ele>117.16666666666667</ele><time>2026-05-02T07:31:14.092Z</time></trkpt><trkpt lat="42.4647883" lon="14.1034067"><ele>118.0</ele><time>2026-05-02T07:31:15.092Z</time></trkpt><trkpt lat="42.4647483" lon="14.1033233"><ele>117.4</ele><time>2026-05-02T07:31:16.092Z</time></trkpt><trkpt lat="42.464695" lon="14.1032217"><ele>116.80000000000001</ele><time>2026-05-02T07:31:17.092Z</time></trkpt><trkpt lat="42.4646183" lon="14.103135"><ele>116.2</ele><time>2026-05-02T07:31:18.093Z</time></trkpt><trkpt lat="42.4645383" lon="14.1030733"><ele>115.6</ele><time>2026-05-02T07:31:19.093Z</time></trkpt><trkpt lat="42.4644567" lon="14.103045"><ele>115.0</ele><time>2026-05-02T07:31:20.092Z</time></trkpt><trkpt lat="42.464355" lon="14.1030817"><ele>115.50000000000001</ele><time>2026-05-02T07:31:22.093Z</time></trkpt><trkpt lat="42.4643383" lon="14.1032233"><ele>116.0</ele><time>2026-05-02T07:31:24.092Z</time></trkpt><trkpt lat="42.4643683" lon="14.103305"><ele>116.5</ele><time>2026-05-02T07:31:25.093Z</time></trkpt><trkpt lat="42.4644333" lon="14.1033733"><ele>117.0</ele><time>2026-05-02T07:31:26.093Z</time></trkpt><trkpt lat="42.46452" lon="14.1034283"><ele>117.50000000000001</ele><time>2026-05-02T07:31:27.093Z</time></trkpt><trkpt lat="42.46461" lon="14.103465"><ele>118.0</ele><time>2026-05-02T07:31:28.092Z</time></trkpt><trkpt lat="42.4646717" lon="14.103505"><ele>118.00000000000001</ele><time>2026-05-02T07:31:29.093Z</time></trkpt><trkpt lat="42.4647417" lon="14.1035933"><ele>118.0</ele><time>2026-05-02T07:31:31.092Z</time></trkpt><trkpt lat="42.46474" lon="14.1037017"><ele>118.0</ele><time>2026-05-02T07:31:33.093Z</time></trkpt><trkpt lat="42.4646667" lon="14.1037917"><ele>118.0</ele><time>2026-05-02T07:31:35.092Z</time></trkpt><trkpt lat="42.4646067" lon="14.1038333"><ele>118.00000000000001</ele><time>2026-05-02T07:31:36.092Z</time></trkpt><trkpt lat="42.46452" lon="14.1038867"><ele>118.0</ele><time>2026-05-02T07:31:37.093Z</time></trkpt><trkpt lat="42.4644183" lon="14.10393"><ele>118.5</ele><time>2026-05-02T07:31:38.092Z</time></trkpt><trkpt lat="42.46431" lon="14.1039583"><ele>119.0</ele><time>2026-05-02T07:31:39.092Z</time></trkpt><trkpt lat="42.4641967" lon="14.1039983"><ele>119.5</ele><time>2026-05-02T07:31:40.093Z</time></trkpt><trkpt lat="42.4640833" lon="14.104015"><ele>120.0</ele><time>2026-05-02T07:31:41.092Z</time></trkpt><trkpt lat="42.4639717" lon="14.1040183"><ele>120.0</ele><time>2026-05-02T07:31:42.092Z</time></trkpt><trkpt lat="42.4638667" lon="14.10403"><ele>120.0</ele><time>2026-05-02T07:31:43.092Z</time></trkpt><trkpt lat="42.4637467" lon="14.1040567"><ele>120.0</ele><time>2026-05-02T07:31:44.092Z</time></trkpt><trkpt lat="42.4636283" lon="14.1040817"><ele>120.0</ele><time>2026-05-02T07:31:45.092Z</time></trkpt><trkpt lat="42.46352" lon="14.1041117"><ele>121.8</ele><time>2026-05-02T07:31:46.093Z</time></trkpt><trkpt lat="42.4634217" lon="14.1041483"><ele>123.6</ele><time>2026-05-02T07:31:47.093Z</time></trkpt><trkpt lat="42.4633367" lon="14.104185"><ele>125.4</ele><time>2026-05-02T07:31:48.093Z</time></trkpt><trkpt lat="42.4632583" lon="14.10425"><ele>127.2</ele><time>2026-05-02T07:31:49.092Z</time></trkpt><trkpt lat="42.4631867" lon="14.1043267"><ele>129.0</ele><time>2026-05-02T07:31:50.092Z</time></trkpt><trkpt lat="42.46311" lon="14.1044117"><ele>129.0</ele><time>2026-05-02T07:31:51.093Z</time></trkpt><trkpt lat="42.4630333" lon="14.1044833"><ele>129.0</ele><time>2026-05-02T07:31:52.092Z</time></trkpt><trkpt lat="42.4629667" lon="14.1045517"><ele>129.0</ele><time>2026-05-02T07:31:53.093Z</time></trkpt><trkpt lat="42.46291" lon="14.1046083"><ele>129.0</ele><time>2026-05-02T07:31:54.092Z</time></trkpt><trkpt lat="42.462855" lon="14.104665"><ele>129.0</ele><time>2026-05-02T07:31:55.093Z</time></trkpt><trkpt lat="42.462795" lon="14.1047183"><ele>129.0</ele><time>2026-05-02T07:31:56.093Z</time></trkpt><trkpt lat="42.4626883" lon="14.1047667"><ele>129.4</ele><time>2026-05-02T07:31:58.093Z</time></trkpt><trkpt lat="42.4625717" lon="14.10471"><ele>129.8</ele><time>2026-05-02T07:32:00.093Z</time></trkpt><trkpt lat="42.4624883" lon="14.1046933"><ele>130.2</ele><time>2026-05-02T07:32:02.092Z</time></trkpt><trkpt lat="42.4624467" lon="14.1048167"><ele>130.6</ele><time>2026-05-02T07:32:04.093Z</time></trkpt><trkpt lat="42.46245" lon="14.104925"><ele>131.0</ele><time>2026-05-02T07:32:05.092Z</time></trkpt><trkpt lat="42.4624333" lon="14.10503"><ele>131.4</ele><time>2026-05-02T07:32:06.092Z</time></trkpt><trkpt lat="42.4623883" lon="14.1051267"><ele>131.8</ele><time>2026-05-02T07:32:07.093Z</time></trkpt><trkpt lat="42.4623217" lon="14.1052183"><ele>132.20000000000002</ele><time>2026-05-02T07:32:08.092Z</time></trkpt><trkpt lat="42.4622283" lon="14.1053317"><ele>132.6</ele><time>2026-05-02T07:32:09.092Z</time></trkpt><trkpt lat="42.4621167" lon="14.105455"><ele>133.0</ele><time>2026-05-02T07:32:10.093Z</time></trkpt><trkpt lat="42.4619733" lon="14.1055783"><ele>135.0</ele><time>2026-05-02T07:32:11.093Z</time></trkpt><trkpt lat="42.4618183" lon="14.1057083"><ele>137.0</ele><time>2026-05-02T07:32:12.093Z</time></trkpt><trkpt lat="42.4616583" lon="14.1058583"><ele>139.0</ele><time>2026-05-02T07:32:13.093Z</time></trkpt><trkpt lat="42.4615017" lon="14.1060167"><ele>139.0</ele><time>2026-05-02T07:32:14.092Z</time></trkpt><trkpt lat="42.4613483" lon="14.1061683"><ele>139.0</ele><time>2026-05-02T07:32:15.092Z</time></trkpt><trkpt lat="42.4612183" lon="14.106285"><ele>139.0</ele><time>2026-05-02T07:32:16.093Z</time></trkpt><trkpt lat="42.4610867" lon="14.10638"><ele>140.25</ele><time>2026-05-02T07:32:17.092Z</time></trkpt><trkpt lat="42.4609433" lon="14.1064517"><ele>141.5</ele><time>2026-05-02T07:32:18.093Z</time></trkpt><trkpt lat="42.4608" lon="14.10653"><ele>142.75</ele><time>2026-05-02T07:32:19.092Z</time></trkpt><trkpt lat="42.4606867" lon="14.1066333"><ele>144.0</ele><time>2026-05-02T07:32:20.093Z</time></trkpt><trkpt lat="42.46059" lon="14.106765"><ele>144.0</ele><time>2026-05-02T07:32:21.093Z</time></trkpt><trkpt lat="42.4605017" lon="14.1069333"><ele>144.0</ele><time>2026-05-02T07:32:22.093Z</time></trkpt><trkpt lat="42.46042" lon="14.107135"><ele>144.0</ele><time>2026-05-02T07:32:23.092Z</time></trkpt><trkpt lat="42.4603617" lon="14.1073467"><ele>149.33333333333334</ele><time>2026-05-02T07:32:24.092Z</time></trkpt><trkpt lat="42.4603167" lon="14.1075667"><ele>154.66666666666669</ele><time>2026-05-02T07:32:25.093Z</time></trkpt><trkpt lat="42.4602817" lon="14.107785"><ele>160.0</ele><time>2026-05-02T07:32:26.092Z</time></trkpt><trkpt lat="42.460235" lon="14.1079917"><ele>160.0</ele><time>2026-05-02T07:32:27.093Z</time></trkpt><trkpt lat="42.460175" lon="14.1081833"><ele>160.0</ele><time>2026-05-02T07:32:28.092Z</time></trkpt><trkpt lat="42.4601" lon="14.10838"><ele>160.0</ele><time>2026-05-02T07:32:29.092Z</time></trkpt><trkpt lat="42.4600367" lon="14.1085617"><ele>159.25</ele><time>2026-05-02T07:32:30.093Z</time></trkpt><trkpt lat="42.4599733" lon="14.1087283"><ele>158.5</ele><time>2026-05-02T07:32:31.093Z</time></trkpt><trkpt lat="42.45991" lon="14.1088717"><ele>157.75</ele><time>2026-05-02T07:32:32.092Z</time></trkpt><trkpt lat="42.459845" lon="14.1090183"><ele>157.0</ele><time>2026-05-02T07:32:33.092Z</time></trkpt><trkpt lat="42.4597667" lon="14.1091533"><ele>155.75</ele><time>2026-05-02T07:32:34.093Z</time></trkpt><trkpt lat="42.4596667" lon="14.1092867"><ele>154.5</ele><time>2026-05-02T07:32:35.092Z</time></trkpt><trkpt lat="42.45956" lon="14.1093983"><ele>153.25</ele><time>2026-05-02T07:32:36.093Z</time></trkpt><trkpt lat="42.45945" lon="14.109505"><ele>152.0</ele><time>2026-05-02T07:32:37.093Z</time></trkpt><trkpt lat="42.4593417" lon="14.10961"><ele>153.25</ele><time>2026-05-02T07:32:38.092Z</time></trkpt><trkpt lat="42.4592433" lon="14.1097233"><ele>154.5</ele><time>2026-05-02T07:32:39.092Z</time></trkpt><trkpt lat="42.459155" lon="14.10983"><ele>155.75</ele><time>2026-05-02T07:32:40.092Z</time></trkpt><trkpt lat="42.459075" lon="14.109935"><ele>157.0</ele><time>2026-05-02T07:32:41.093Z</time></trkpt><trkpt lat="42.459005" lon="14.11004"><ele>157.0</ele><time>2026-05-02T07:32:42.093Z</time></trkpt><trkpt lat="42.4589433" lon="14.1101417"><ele>157.0</ele><time>2026-05-02T07:32:43.093Z</time></trkpt><trkpt lat="42.45888" lon="14.1102433"><ele>157.0</ele><time>2026-05-02T07:32:44.092Z</time></trkpt><trkpt lat="42.4588133" lon="14.11034"><ele>157.0</ele><time>2026-05-02T07:32:45.092Z</time></trkpt><trkpt lat="42.45875" lon="14.1104417"><ele>157.0</ele><time>2026-05-02T07:32:46.092Z</time></trkpt><trkpt lat="42.45868" lon="14.110545"><ele>157.25</ele><time>2026-05-02T07:32:47.093Z</time></trkpt><trkpt lat="42.4586067" lon="14.11066"><ele>157.5</ele><time>2026-05-02T07:32:48.093Z</time></trkpt><trkpt lat="42.4585317" lon="14.1107933"><ele>157.75</ele><time>2026-05-02T07:32:49.093Z</time></trkpt><trkpt lat="42.458455" lon="14.1109217"><ele>158.0</ele><time>2026-05-02T07:32:50.093Z</time></trkpt><trkpt lat="42.4583783" lon="14.111055"><ele>158.66666666666666</ele><time>2026-05-02T07:32:51.092Z</time></trkpt><trkpt lat="42.4583017" lon="14.1111567"><ele>159.33333333333331</ele><time>2026-05-02T07:32:52.092Z</time></trkpt><trkpt lat="42.458225" lon="14.11124"><ele>160.0</ele><time>2026-05-02T07:32:53.093Z</time></trkpt><trkpt lat="42.45814" lon="14.1112767"><ele>160.66666666666666</ele><time>2026-05-02T07:32:54.093Z</time></trkpt><trkpt lat="42.4580633" lon="14.1112633"><ele>161.33333333333334</ele><time>2026-05-02T07:32:55.092Z</time></trkpt><trkpt lat="42.4579983" lon="14.1112083"><ele>162.0</ele><time>2026-05-02T07:32:56.093Z</time></trkpt><trkpt lat="42.45795" lon="14.1111217"><ele>164.6</ele><time>2026-05-02T07:32:57.092Z</time></trkpt><trkpt lat="42.4579167" lon="14.1110117"><ele>167.2</ele><time>2026-05-02T07:32:58.092Z</time></trkpt><trkpt lat="42.457895" lon="14.1109033"><ele>169.8</ele><time>2026-05-02T07:32:59.093Z</time></trkpt><trkpt lat="42.4578683" lon="14.1108183"><ele>172.4</ele><time>2026-05-02T07:33:00.093Z</time></trkpt><trkpt lat="42.4577717" lon="14.1107533"><ele>175.0</ele><time>2026-05-02T07:33:02.093Z</time></trkpt><trkpt lat="42.4576917" lon="14.11085"><ele>175.0</ele><time>2026-05-02T07:33:04.092Z</time></trkpt><trkpt lat="42.45768" lon="14.1109467"><ele>175.0</ele><time>2026-05-02T07:33:05.092Z</time></trkpt><trkpt lat="42.4577033" lon="14.1110633"><ele>175.0</ele><time>2026-05-02T07:33:06.093Z</time></trkpt><trkpt lat="42.4577383" lon="14.111195"><ele>175.0</ele><time>2026-05-02T07:33:07.093Z</time></trkpt><trkpt lat="42.4577767" lon="14.1113267"><ele>175.0</ele><time>2026-05-02T07:33:08.092Z</time></trkpt><trkpt lat="42.4578167" lon="14.1114617"><ele>175.5</ele><time>2026-05-02T07:33:09.093Z</time></trkpt><trkpt lat="42.4578633" lon="14.1116"><ele>176.0</ele><time>2026-05-02T07:33:10.092Z</time></trkpt><trkpt lat="42.4579017" lon="14.1117467"><ele>176.5</ele><time>2026-05-02T07:33:11.092Z</time></trkpt><trkpt lat="42.4579417" lon="14.1118867"><ele>177.0</ele><time>2026-05-02T07:33:12.093Z</time></trkpt><trkpt lat="42.4579783" lon="14.11203"><ele>176.6</ele><time>2026-05-02T07:33:13.092Z</time></trkpt><trkpt lat="42.4580117" lon="14.1121717"><ele>176.2</ele><time>2026-05-02T07:33:14.092Z</time></trkpt><trkpt lat="42.4580367" lon="14.112305"><ele>175.8</ele><time>2026-05-02T07:33:15.092Z</time></trkpt><trkpt lat="42.45806" lon="14.1124267"><ele>175.4</ele><time>2026-05-02T07:33:16.093Z</time></trkpt><trkpt lat="42.4580783" lon="14.1125483"><ele>175.0</ele><time>2026-05-02T07:33:17.093Z</time></trkpt><trkpt lat="42.4580983" lon="14.1126633"><ele>175.0</ele><time>2026-05-02T07:33:18.092Z</time></trkpt><trkpt lat="42.4581117" lon="14.1127917"><ele>175.0</ele><time>2026-05-02T07:33:19.092Z</time></trkpt><trkpt lat="42.4581133" lon="14.1129317"><ele>175.0</ele><time>2026-05-02T07:33:20.093Z</time></trkpt><trkpt lat="42.4580917" lon="14.11308"><ele>175.0</ele><time>2026-05-02T07:33:21.092Z</time></trkpt><trkpt lat="42.4580617" lon="14.1132133"><ele>175.0</ele><time>2026-05-02T07:33:22.092Z</time></trkpt><trkpt lat="42.45802" lon="14.11333"><ele>175.6</ele><time>2026-05-02T07:33:23.093Z</time></trkpt><trkpt lat="42.457975" lon="14.1134417"><ele>176.2</ele><time>2026-05-02T07:33:24.092Z</time></trkpt><trkpt lat="42.457945" lon="14.113565"><ele>176.8</ele><time>2026-05-02T07:33:25.093Z</time></trkpt><trkpt lat="42.4579233" lon="14.1136983"><ele>177.4</ele><time>2026-05-02T07:33:26.093Z</time></trkpt><trkpt lat="42.4579183" lon="14.1138367"><ele>178.0</ele><time>2026-05-02T07:33:27.093Z</time></trkpt><trkpt lat="42.4579183" lon="14.1139833"><ele>176.0</ele><time>2026-05-02T07:33:28.093Z</time></trkpt><trkpt lat="42.4579183" lon="14.114135"><ele>174.0</ele><time>2026-05-02T07:33:29.093Z</time></trkpt><trkpt lat="42.4579183" lon="14.114285"><ele>172.0</ele><time>2026-05-02T07:33:30.093Z</time></trkpt><trkpt lat="42.4579233" lon="14.1144267"><ele>170.0</ele><time>2026-05-02T07:33:31.093Z</time></trkpt><trkpt lat="42.4579117" lon="14.1145717"><ele>168.0</ele><time>2026-05-02T07:33:32.092Z</time></trkpt><trkpt lat="42.45789" lon="14.1147017"><ele>168.0</ele><time>2026-05-02T07:33:33.093Z</time></trkpt><trkpt lat="42.4578583" lon="14.1148283"><ele>168.0</ele><time>2026-05-02T07:33:34.092Z</time></trkpt><trkpt lat="42.4578283" lon="14.1149533"><ele>168.0</ele><time>2026-05-02T07:33:35.093Z</time></trkpt><trkpt lat="42.4578083" lon="14.115085"><ele>168.0</ele><time>2026-05-02T07:33:36.092Z</time></trkpt><trkpt lat="42.4578133" lon="14.1152117"><ele>168.0</ele><time>2026-05-02T07:33:37.092Z</time></trkpt><trkpt lat="42.4578333" lon="14.1153433"><ele>167.75</ele><time>2026-05-02T07:33:38.092Z</time></trkpt><trkpt lat="42.4578717" lon="14.115475"><ele>167.5</ele><time>2026-05-02T07:33:39.092Z</time></trkpt><trkpt lat="42.457945" lon="14.1155833"><ele>167.25</ele><time>2026-05-02T07:33:40.093Z</time></trkpt><trkpt lat="42.458045" lon="14.1157033"><ele>167.0</ele><time>2026-05-02T07:33:41.092Z</time></trkpt><trkpt lat="42.4581833" lon="14.11584"><ele>167.0</ele><time>2026-05-02T07:33:42.093Z</time></trkpt><trkpt lat="42.4583333" lon="14.1160067"><ele>167.0</ele><time>2026-05-02T07:33:43.092Z</time></trkpt><trkpt lat="42.4584733" lon="14.1161733"><ele>167.0</ele><time>2026-05-02T07:33:44.092Z</time></trkpt><trkpt lat="42.4585933" lon="14.1163283"><ele>167.0</ele><time>2026-05-02T07:33:45.093Z</time></trkpt><trkpt lat="42.458725" lon="14.1164683"><ele>167.0</ele><time>2026-05-02T07:33:46.093Z</time></trkpt><trkpt lat="42.458865" lon="14.1166033"><ele>167.0</ele><time>2026-05-02T07:33:47.092Z</time></trkpt><trkpt lat="42.4590117" lon="14.116735"><ele>165.66666666666666</ele><time>2026-05-02T07:33:48.093Z</time></trkpt><trkpt lat="42.459175" lon="14.11686"><ele>164.33333333333334</ele><time>2026-05-02T07:33:49.093Z</time></trkpt><trkpt lat="42.4593383" lon="14.1169967"><ele>163.0</ele><time>2026-05-02T07:33:50.093Z</time></trkpt><trkpt lat="42.4595067" lon="14.1171367"><ele>162.33333333333334</ele><time>2026-05-02T07:33:51.092Z</time></trkpt><trkpt lat="42.4596717" lon="14.1172717"><ele>161.66666666666666</ele><time>2026-05-02T07:33:52.092Z</time></trkpt><trkpt lat="42.459825" lon="14.117405"><ele>161.0</ele><time>2026-05-02T07:33:53.092Z</time></trkpt><trkpt lat="42.45996" lon="14.117525"><ele>160.75</ele><time>2026-05-02T07:33:54.093Z</time></trkpt><trkpt lat="42.4600733" lon="14.1176267"><ele>160.5</ele><time>2026-05-02T07:33:55.092Z</time></trkpt><trkpt lat="42.4601767" lon="14.1177217"><ele>160.25</ele><time>2026-05-02T07:33:56.092Z</time></trkpt><trkpt lat="42.4602717" lon="14.1178017"><ele>160.0</ele><time>2026-05-02T07:33:57.092Z</time></trkpt><trkpt lat="42.4603583" lon="14.117885"><ele>160.0</ele><time>2026-05-02T07:33:58.092Z</time></trkpt><trkpt lat="42.4604183" lon="14.117985"><ele>160.0</ele><time>2026-05-02T07:33:59.093Z</time></trkpt><trkpt lat="42.4604633" lon="14.1180917"><ele>160.0</ele><time>2026-05-02T07:34:00.093Z</time></trkpt><trkpt lat="42.4604967" lon="14.118225"><ele>160.0</ele><time>2026-05-02T07:34:01.093Z</time></trkpt><trkpt lat="42.4605133" lon="14.11838"><ele>160.0</ele><time>2026-05-02T07:34:02.092Z</time></trkpt><trkpt lat="42.4605" lon="14.1185333"><ele>160.0</ele><time>2026-05-02T07:34:03.092Z</time></trkpt><trkpt lat="42.4604717" lon="14.11869"><ele>160.0</ele><time>2026-05-02T07:34:04.093Z</time></trkpt><trkpt lat="42.4604367" lon="14.1188267"><ele>160.0</ele><time>2026-05-02T07:34:05.092Z</time></trkpt><trkpt lat="42.4603967" lon="14.11895"><ele>160.0</ele><time>2026-05-02T07:34:06.092Z</time></trkpt><trkpt lat="42.4603533" lon="14.1190683"><ele>160.0</ele><time>2026-05-02T07:34:07.093Z</time></trkpt><trkpt lat="42.46031" lon="14.1191767"><ele>160.0</ele><time>2026-05-02T07:34:08.092Z</time></trkpt><trkpt lat="42.46027" lon="14.11928"><ele>160.0</ele><time>2026-05-02T07:34:09.092Z</time></trkpt><trkpt lat="42.4602317" lon="14.119365"><ele>160.0</ele><time>2026-05-02T07:34:10.092Z</time></trkpt><trkpt lat="42.4601917" lon="14.119445"><ele>160.0</ele><time>2026-05-02T07:34:11.092Z</time></trkpt><trkpt lat="42.4601467" lon="14.119525"><ele>160.0</ele><time>2026-05-02T07:34:12.092Z</time></trkpt><trkpt lat="42.4601" lon="14.1195983"><ele>160.0</ele><time>2026-05-02T07:34:13.093Z</time></trkpt><trkpt lat="42.460045" lon="14.1196517"><ele>160.0</ele><time>2026-05-02T07:34:14.092Z</time></trkpt><trkpt lat="42.45999" lon="14.1196967"><ele>160.0</ele><time>2026-05-02T07:34:15.093Z</time></trkpt><trkpt lat="42.4599367" lon="14.1197467"><ele>160.0</ele><time>2026-05-02T07:34:16.093Z</time></trkpt><trkpt lat="42.4598967" lon="14.1198167"><ele>160.0</ele><time>2026-05-02T07:34:17.093Z</time></trkpt><trkpt lat="42.4598633" lon="14.1199017"><ele>160.0</ele><time>2026-05-02T07:34:18.092Z</time></trkpt><trkpt lat="42.4598317" lon="14.12001"><ele>160.0</ele><time>2026-05-02T07:34:19.092Z</time></trkpt><trkpt lat="42.45976" lon="14.1201283"><ele>160.0</ele><time>2026-05-02T07:34:20.093Z</time></trkpt><trkpt lat="42.4596583" lon="14.120255"><ele>160.0</ele><time>2026-05-02T07:34:21.092Z</time></trkpt><trkpt lat="42.45954" lon="14.12037"><ele>160.0</ele><time>2026-05-02T07:34:22.092Z</time></trkpt><trkpt lat="42.4594267" lon="14.120485"><ele>160.0</ele><time>2026-05-02T07:34:23.092Z</time></trkpt><trkpt lat="42.4593" lon="14.1206217"><ele>160.0</ele><time>2026-05-02T07:34:24.092Z</time></trkpt><trkpt lat="42.4591683" lon="14.12075"><ele>160.0</ele><time>2026-05-02T07:34:25.092Z</time></trkpt><trkpt lat="42.45905" lon="14.1208767"><ele>160.0</ele><time>2026-05-02T07:34:26.093Z</time></trkpt><trkpt lat="42.4589617" lon="14.120975"><ele>160.0</ele><time>2026-05-02T07:34:27.093Z</time></trkpt><trkpt lat="42.4588983" lon="14.1210267"><ele>160.0</ele><time>2026-05-02T07:34:28.092Z</time></trkpt><trkpt lat="42.458815" lon="14.1209983"><ele>160.0</ele><time>2026-05-02T07:34:30.093Z</time></trkpt><trkpt lat="42.458735" lon="14.120885"><ele>160.2</ele><time>2026-05-02T07:34:32.092Z</time></trkpt><trkpt lat="42.4586617" lon="14.1208067"><ele>160.4</ele><time>2026-05-02T07:34:34.092Z</time></trkpt><trkpt lat="42.45859" lon="14.12075"><ele>160.60000000000002</ele><time>2026-05-02T07:34:37.092Z</time></trkpt><trkpt lat="42.4585067" lon="14.1206583"><ele>160.8</ele><time>2026-05-02T07:34:45.093Z</time></trkpt><trkpt lat="42.4584533" lon="14.1205867"><ele>161.0</ele><time>2026-05-02T07:34:46.092Z</time></trkpt><trkpt lat="42.45838" lon="14.1204967"><ele>159.20000000000002</ele><time>2026-05-02T07:34:47.092Z</time></trkpt><trkpt lat="42.458295" lon="14.120405"><ele>157.4</ele><time>2026-05-02T07:34:48.093Z</time></trkpt><trkpt lat="42.4582083" lon="14.1203183"><ele>155.6</ele><time>2026-05-02T07:34:49.093Z</time></trkpt><trkpt lat="42.45813" lon="14.1202333"><ele>153.8</ele><time>2026-05-02T07:34:50.092Z</time></trkpt><trkpt lat="42.458065" lon="14.12016"><ele>152.0</ele><time>2026-05-02T07:34:51.093Z</time></trkpt><trkpt lat="42.4579983" lon="14.1200767"><ele>150.0</ele><time>2026-05-02T07:34:52.093Z</time></trkpt><trkpt lat="42.457925" lon="14.1199767"><ele>148.0</ele><time>2026-05-02T07:34:53.092Z</time></trkpt><trkpt lat="42.4578517" lon="14.1198717"><ele>146.0</ele><time>2026-05-02T07:34:54.093Z</time></trkpt><trkpt lat="42.457795" lon="14.119785"><ele>144.0</ele><time>2026-05-02T07:34:55.092Z</time></trkpt><trkpt lat="42.4577433" lon="14.1197017"><ele>142.0</ele><time>2026-05-02T07:34:56.092Z</time></trkpt><trkpt lat="42.4576617" lon="14.11958"><ele>140.33333333333334</ele><time>2026-05-02T07:34:58.092Z</time></trkpt><trkpt lat="42.457615" lon="14.1195117"><ele>138.66666666666669</ele><time>2026-05-02T07:34:59.092Z</time></trkpt><trkpt lat="42.45756" lon="14.119435"><ele>137.0</ele><time>2026-05-02T07:35:00.092Z</time></trkpt><trkpt lat="42.457495" lon="14.1193583"><ele>135.33333333333334</ele><time>2026-05-02T07:35:01.093Z</time></trkpt><trkpt lat="42.4574317" lon="14.1193117"><ele>133.66666666666666</ele><time>2026-05-02T07:35:02.093Z</time></trkpt><trkpt lat="42.4573233" lon="14.1192567"><ele>132.0</ele><time>2026-05-02T07:35:04.092Z</time></trkpt><trkpt lat="42.4572367" lon="14.11925"><ele>132.0</ele><time>2026-05-02T07:35:05.092Z</time></trkpt><trkpt lat="42.4571283" lon="14.1192483"><ele>132.0</ele><time>2026-05-02T07:35:06.093Z</time></trkpt><trkpt lat="42.457025" lon="14.119255"><ele>132.0</ele><time>2026-05-02T07:35:07.092Z</time></trkpt><trkpt lat="42.456925" lon="14.1192617"><ele>132.0</ele><time>2026-05-02T07:35:08.093Z</time></trkpt><trkpt lat="42.4568433" lon="14.1192717"><ele>132.0</ele><time>2026-05-02T07:35:09.093Z</time></trkpt><trkpt lat="42.4567583" lon="14.1192883"><ele>130.66666666666666</ele><time>2026-05-02T07:35:10.092Z</time></trkpt><trkpt lat="42.4566733" lon="14.119315"><ele>129.33333333333334</ele><time>2026-05-02T07:35:11.093Z</time></trkpt><trkpt lat="42.4565967" lon="14.1193367"><ele>128.0</ele><time>2026-05-02T07:35:12.092Z</time></trkpt><trkpt lat="42.456525" lon="14.1193417"><ele>126.66666666666667</ele><time>2026-05-02T07:35:13.093Z</time></trkpt><trkpt lat="42.4564617" lon="14.1193267"><ele>125.33333333333334</ele><time>2026-05-02T07:35:14.093Z</time></trkpt><trkpt lat="42.456325" lon="14.11932"><ele>124.0</ele><time>2026-05-02T07:35:16.093Z</time></trkpt><trkpt lat="42.4562383" lon="14.1193267"><ele>123.16666666666667</ele><time>2026-05-02T07:35:17.092Z</time></trkpt><trkpt lat="42.4561567" lon="14.11933"><ele>122.33333333333334</ele><time>2026-05-02T07:35:18.092Z</time></trkpt><trkpt lat="42.45609" lon="14.1193317"><ele>121.5</ele><time>2026-05-02T07:35:19.093Z</time></trkpt><trkpt lat="42.4560083" lon="14.119315"><ele>120.66666666666666</ele><time>2026-05-02T07:35:21.093Z</time></trkpt><trkpt lat="42.4559233" lon="14.1192917"><ele>119.83333333333333</ele><time>2026-05-02T07:35:23.092Z</time></trkpt><trkpt lat="42.455845" lon="14.1192467"><ele>119.0</ele><time>2026-05-02T07:35:25.093Z</time></trkpt><trkpt lat="42.4557383" lon="14.1192083"><ele>119.0</ele><time>2026-05-02T07:35:27.092Z</time></trkpt><trkpt lat="42.4556183" lon="14.1191983"><ele>119.0</ele><time>2026-05-02T07:35:29.092Z</time></trkpt><trkpt lat="42.455525" lon="14.1192083"><ele>119.0</ele><time>2026-05-02T07:35:31.092Z</time></trkpt><trkpt lat="42.4554467" lon="14.1192117"><ele>119.0</ele><time>2026-05-02T07:35:33.092Z</time></trkpt><trkpt lat="42.45537" lon="14.1192067"><ele>119.0</ele><time>2026-05-02T07:35:35.093Z</time></trkpt><trkpt lat="42.4552817" lon="14.1192217"><ele>118.16666666666666</ele><time>2026-05-02T07:35:37.092Z</time></trkpt><trkpt lat="42.4552167" lon="14.1192283"><ele>117.33333333333333</ele><time>2026-05-02T07:35:39.092Z</time></trkpt><trkpt lat="42.455135" lon="14.11921"><ele>116.5</ele><time>2026-05-02T07:35:41.092Z</time></trkpt><trkpt lat="42.4550383" lon="14.1192033"><ele>115.66666666666666</ele><time>2026-05-02T07:35:43.092Z</time></trkpt><trkpt lat="42.454965" lon="14.1191917"><ele>114.83333333333333</ele><time>2026-05-02T07:35:45.092Z</time></trkpt><trkpt lat="42.4548867" lon="14.1191633"><ele>114.0</ele><time>2026-05-02T07:35:47.093Z</time></trkpt><trkpt lat="42.4548233" lon="14.119115"><ele>113.4</ele><time>2026-05-02T07:35:49.092Z</time></trkpt><trkpt lat="42.4547983" lon="14.1190067"><ele>112.80000000000001</ele><time>2026-05-02T07:35:52.093Z</time></trkpt><trkpt lat="42.4548133" lon="14.1189067"><ele>112.19999999999999</ele><time>2026-05-02T07:35:54.092Z</time></trkpt><trkpt lat="42.4548267" lon="14.1188133"><ele>111.6</ele><time>2026-05-02T07:35:56.093Z</time></trkpt><trkpt lat="42.4549267" lon="14.1186283"><ele>111.0</ele><time>2026-05-02T07:35:57.092Z</time></trkpt><trkpt lat="42.4549267" lon="14.1185183"><ele>111.0</ele><time>2026-05-02T07:35:58.092Z</time></trkpt><trkpt lat="42.454915" lon="14.1184333"><ele>111.0</ele><time>2026-05-02T07:35:59.093Z</time></trkpt><trkpt lat="42.4548933" lon="14.1182983"><ele>111.0</ele><time>2026-05-02T07:36:01.093Z</time></trkpt><trkpt lat="42.4549033" lon="14.1181583"><ele>111.0</ele><time>2026-05-02T07:36:03.093Z</time></trkpt><trkpt lat="42.4549167" lon="14.1180583"><ele>111.0</ele><time>2026-05-02T07:36:05.092Z</time></trkpt><trkpt lat="42.45495" lon="14.1179517"><ele>111.0</ele><time>2026-05-02T07:36:07.093Z</time></trkpt><trkpt lat="42.454955" lon="14.1178633"><ele>111.83333333333333</ele><time>2026-05-02T07:37:16.091Z</time></trkpt><trkpt lat="42.454975" lon="14.117705"><ele>112.66666666666666</ele><time>2026-05-02T07:37:18.092Z</time></trkpt><trkpt lat="42.4549883" lon="14.1176133"><ele>113.5</ele><time>2026-05-02T07:37:19.092Z</time></trkpt><trkpt lat="42.4549967" lon="14.1175083"><ele>114.33333333333333</ele><time>2026-05-02T07:37:20.091Z</time></trkpt><trkpt lat="42.4550033" lon="14.1174"><ele>115.16666666666666</ele><time>2026-05-02T07:37:21.091Z</time></trkpt><trkpt lat="42.455" lon="14.117305"><ele>116.0</ele><time>2026-05-02T07:37:22.092Z</time></trkpt><trkpt lat="42.4549733" lon="14.1171983"><ele>117.75</ele><time>2026-05-02T07:37:24.091Z</time></trkpt><trkpt lat="42.4549033" lon="14.11717"><ele>119.5</ele><time>2026-05-02T07:37:26.092Z</time></trkpt><trkpt lat="42.4547683" lon="14.1171533"><ele>121.25</ele><time>2026-05-02T07:37:28.092Z</time></trkpt><trkpt lat="42.454665" lon="14.1171283"><ele>123.0</ele><time>2026-05-02T07:37:29.091Z</time></trkpt><trkpt lat="42.4545283" lon="14.11709"><ele>123.5</ele><time>2026-05-02T07:37:30.091Z</time></trkpt><trkpt lat="42.454385" lon="14.11705"><ele>124.0</ele><time>2026-05-02T07:37:31.091Z</time></trkpt><trkpt lat="42.4542383" lon="14.1170167"><ele>124.5</ele><time>2026-05-02T07:37:32.091Z</time></trkpt><trkpt lat="42.454085" lon="14.1169983"><ele>125.0</ele><time>2026-05-02T07:37:33.091Z</time></trkpt><trkpt lat="42.4539383" lon="14.116975"><ele>125.0</ele><time>2026-05-02T07:37:34.091Z</time></trkpt><trkpt lat="42.4538317" lon="14.1169583"><ele>125.0</ele><time>2026-05-02T07:37:35.092Z</time></trkpt><trkpt lat="42.45373" lon="14.1169583"><ele>125.0</ele><time>2026-05-02T07:37:36.091Z</time></trkpt><trkpt lat="42.4536483" lon="14.1169733"><ele>125.0</ele><time>2026-05-02T07:37:37.091Z</time></trkpt><trkpt lat="42.4535767" lon="14.1170067"><ele>125.0</ele><time>2026-05-02T07:37:38.092Z</time></trkpt><trkpt lat="42.4534933" lon="14.11706"><ele>125.4</ele><time>2026-05-02T07:37:39.091Z</time></trkpt><trkpt lat="42.4534117" lon="14.1171533"><ele>125.8</ele><time>2026-05-02T07:37:40.091Z</time></trkpt><trkpt lat="42.4533183" lon="14.1172333"><ele>126.19999999999999</ele><time>2026-05-02T07:37:41.092Z</time></trkpt><trkpt lat="42.45323" lon="14.1173067"><ele>126.6</ele><time>2026-05-02T07:37:42.091Z</time></trkpt><trkpt lat="42.4531417" lon="14.11736"><ele>127.0</ele><time>2026-05-02T07:37:43.092Z</time></trkpt><trkpt lat="42.45304" lon="14.1173833"><ele>127.6</ele><time>2026-05-02T07:37:44.092Z</time></trkpt><trkpt lat="42.45293" lon="14.1174"><ele>128.2</ele><time>2026-05-02T07:37:45.091Z</time></trkpt><trkpt lat="42.4528233" lon="14.1174083"><ele>128.8</ele><time>2026-05-02T07:37:46.091Z</time></trkpt><trkpt lat="42.4527267" lon="14.11741"><ele>129.4</ele><time>2026-05-02T07:37:47.091Z</time></trkpt><trkpt lat="42.4526517" lon="14.1173933"><ele>130.0</ele><time>2026-05-02T07:37:48.092Z</time></trkpt><trkpt lat="42.4525833" lon="14.117355"><ele>130.0</ele><time>2026-05-02T07:37:49.091Z</time></trkpt><trkpt lat="42.4525233" lon="14.1172067"><ele>130.0</ele><time>2026-05-02T07:37:51.091Z</time></trkpt><trkpt lat="42.4525" lon="14.1171017"><ele>130.0</ele><time>2026-05-02T07:37:52.091Z</time></trkpt><trkpt lat="42.4524583" lon="14.1169733"><ele>130.0</ele><time>2026-05-02T07:37:53.091Z</time></trkpt><trkpt lat="42.4524033" lon="14.116835"><ele>130.0</ele><time>2026-05-02T07:37:54.092Z</time></trkpt><trkpt lat="42.4523283" lon="14.1166817"><ele>131.75</ele><time>2026-05-02T07:37:55.092Z</time></trkpt><trkpt lat="42.4522333" lon="14.11655"><ele>133.5</ele><time>2026-05-02T07:37:56.092Z</time></trkpt><trkpt lat="42.4521417" lon="14.11645"><ele>135.25</ele><time>2026-05-02T07:37:57.091Z</time></trkpt><trkpt lat="42.4520483" lon="14.1163833"><ele>137.0</ele><time>2026-05-02T07:37:58.092Z</time></trkpt><trkpt lat="42.4519417" lon="14.1163583"><ele>137.0</ele><time>2026-05-02T07:37:59.091Z</time></trkpt><trkpt lat="42.4518283" lon="14.1163433"><ele>137.0</ele><time>2026-05-02T07:38:00.092Z</time></trkpt><trkpt lat="42.4517267" lon="14.1163383"><ele>137.0</ele><time>2026-05-02T07:38:01.091Z</time></trkpt><trkpt lat="42.4516367" lon="14.1163467"><ele>137.0</ele><time>2026-05-02T07:38:02.092Z</time></trkpt><trkpt lat="42.45155" lon="14.1163467"><ele>137.0</ele><time>2026-05-02T07:38:03.091Z</time></trkpt><trkpt lat="42.4514567" lon="14.116355"><ele>137.0</ele><time>2026-05-02T07:38:04.091Z</time></trkpt><trkpt lat="42.4513717" lon="14.116345"><ele>137.0</ele><time>2026-05-02T07:38:05.092Z</time></trkpt><trkpt lat="42.4512983" lon="14.1163117"><ele>137.0</ele><time>2026-05-02T07:38:06.091Z</time></trkpt><trkpt lat="42.4512317" lon="14.116265"><ele>137.0</ele><time>2026-05-02T07:38:07.092Z</time></trkpt><trkpt lat="42.451135" lon="14.116195"><ele>137.0</ele><time>2026-05-02T07:38:09.092Z</time></trkpt><trkpt lat="42.4510567" lon="14.1161667"><ele>137.0</ele><time>2026-05-02T07:38:11.092Z</time></trkpt><trkpt lat="42.4509783" lon="14.1161867"><ele>133.2</ele><time>2026-05-02T07:38:13.091Z</time></trkpt><trkpt lat="42.450895" lon="14.1162317"><ele>129.39999999999998</ele><time>2026-05-02T07:38:15.091Z</time></trkpt><trkpt lat="42.4507917" lon="14.11629"><ele>125.60000000000001</ele><time>2026-05-02T07:38:17.092Z</time></trkpt><trkpt lat="42.450685" lon="14.1163583"><ele>121.80000000000001</ele><time>2026-05-02T07:38:19.091Z</time></trkpt><trkpt lat="42.4506267" lon="14.1163933"><ele>118.0</ele><time>2026-05-02T07:38:20.091Z</time></trkpt><trkpt lat="42.4505267" lon="14.11648"><ele>115.80000000000001</ele><time>2026-05-02T07:38:22.092Z</time></trkpt><trkpt lat="42.4504283" lon="14.116575"><ele>113.60000000000001</ele><time>2026-05-02T07:38:24.091Z</time></trkpt><trkpt lat="42.4503633" lon="14.1166483"><ele>111.39999999999999</ele><time>2026-05-02T07:38:25.091Z</time></trkpt><trkpt lat="42.45029" lon="14.1167267"><ele>109.19999999999999</ele><time>2026-05-02T07:38:26.091Z</time></trkpt><trkpt lat="42.4502133" lon="14.1168067"><ele>107.0</ele><time>2026-05-02T07:38:27.092Z</time></trkpt><trkpt lat="42.450135" lon="14.1168817"><ele>106.99999999999999</ele><time>2026-05-02T07:38:28.091Z</time></trkpt><trkpt lat="42.45006" lon="14.1169417"><ele>107.0</ele><time>2026-05-02T07:38:29.091Z</time></trkpt><trkpt lat="42.4499883" lon="14.1170017"><ele>107.0</ele><time>2026-05-02T07:38:30.091Z</time></trkpt><trkpt lat="42.4499183" lon="14.11705"><ele>107.0</ele><time>2026-05-02T07:38:31.091Z</time></trkpt><trkpt lat="42.44985" lon="14.1170983"><ele>106.99999999999999</ele><time>2026-05-02T07:38:32.091Z</time></trkpt><trkpt lat="42.449765" lon="14.117145"><ele>107.0</ele><time>2026-05-02T07:38:33.091Z</time></trkpt><trkpt lat="42.4496717" lon="14.1171883"><ele>105.0</ele><time>2026-05-02T07:38:34.092Z</time></trkpt><trkpt lat="42.44957" lon="14.1172217"><ele>102.99999999999999</ele><time>2026-05-02T07:38:35.091Z</time></trkpt><trkpt lat="42.449465" lon="14.11724"><ele>101.0</ele><time>2026-05-02T07:38:36.091Z</time></trkpt><trkpt lat="42.4493717" lon="14.1172317"><ele>99.0</ele><time>2026-05-02T07:38:37.092Z</time></trkpt><trkpt lat="42.4492917" lon="14.117205"><ele>97.0</ele><time>2026-05-02T07:38:38.091Z</time></trkpt><trkpt lat="42.449215" lon="14.1171817"><ele>97.00000000000001</ele><time>2026-05-02T07:38:39.092Z</time></trkpt><trkpt lat="42.44913" lon="14.1171533"><ele>97.0</ele><time>2026-05-02T07:38:40.092Z</time></trkpt><trkpt lat="42.4490533" lon="14.1171367"><ele>97.0</ele><time>2026-05-02T07:38:41.092Z</time></trkpt><trkpt lat="42.4489867" lon="14.11712"><ele>97.0</ele><time>2026-05-02T07:38:42.091Z</time></trkpt><trkpt lat="42.4488767" lon="14.117095"><ele>97.00000000000001</ele><time>2026-05-02T07:38:44.091Z</time></trkpt><trkpt lat="42.4488167" lon="14.117065"><ele>97.0</ele><time>2026-05-02T07:38:46.092Z</time></trkpt><trkpt lat="42.4487267" lon="14.1170583"><ele>96.66666666666667</ele><time>2026-05-02T07:38:50.091Z</time></trkpt><trkpt lat="42.4486283" lon="14.11708"><ele>96.33333333333334</ele><time>2026-05-02T07:38:52.092Z</time></trkpt><trkpt lat="42.448565" lon="14.1171283"><ele>96.0</ele><time>2026-05-02T07:38:54.092Z</time></trkpt><trkpt lat="42.4485333" lon="14.1172067"><ele>95.66666666666667</ele><time>2026-05-02T07:38:58.092Z</time></trkpt><trkpt lat="42.4485217" lon="14.1173467"><ele>95.33333333333334</ele><time>2026-05-02T07:39:03.092Z</time></trkpt><trkpt lat="42.448525" lon="14.117475"><ele>95.0</ele><time>2026-05-02T07:39:04.091Z</time></trkpt><trkpt lat="42.4484933" lon="14.11762"><ele>94.0</ele><time>2026-05-02T07:39:06.091Z</time></trkpt><trkpt lat="42.448505" lon="14.117765"><ele>93.0</ele><time>2026-05-02T07:39:08.091Z</time></trkpt><trkpt lat="42.4485283" lon="14.117845"><ele>92.0</ele><time>2026-05-02T07:39:09.091Z</time></trkpt><trkpt lat="42.4485533" lon="14.1179283"><ele>91.0</ele><time>2026-05-02T07:39:10.092Z</time></trkpt><trkpt lat="42.4485567" lon="14.1180367"><ele>90.0</ele><time>2026-05-02T07:39:12.091Z</time></trkpt><trkpt lat="42.44854" lon="14.1181267"><ele>89.0</ele><time>2026-05-02T07:39:15.091Z</time></trkpt><trkpt lat="42.4485367" lon="14.11825"><ele>89.0</ele><time>2026-05-02T07:39:17.091Z</time></trkpt><trkpt lat="42.4485517" lon="14.1184217"><ele>89.0</ele><time>2026-05-02T07:39:19.092Z</time></trkpt><trkpt lat="42.4485667" lon="14.1185383"><ele>89.0</ele><time>2026-05-02T07:39:20.092Z</time></trkpt><trkpt lat="42.4485833" lon="14.1186667"><ele>89.0</ele><time>2026-05-02T07:39:21.091Z</time></trkpt><trkpt lat="42.4485983" lon="14.1188"><ele>89.0</ele><time>2026-05-02T07:39:22.092Z</time></trkpt><trkpt lat="42.4486117" lon="14.1189233"><ele>88.99999999999999</ele><time>2026-05-02T07:39:23.092Z</time></trkpt><trkpt lat="42.4486217" lon="14.11903"><ele>89.0</ele><time>2026-05-02T07:39:24.091Z</time></trkpt><trkpt lat="42.44863" lon="14.119125"><ele>89.0</ele><time>2026-05-02T07:39:25.092Z</time></trkpt><trkpt lat="42.4486367" lon="14.1192167"><ele>89.0</ele><time>2026-05-02T07:39:26.092Z</time></trkpt><trkpt lat="42.4486367" lon="14.119305"><ele>89.0</ele><time>2026-05-02T07:39:27.091Z</time></trkpt><trkpt lat="42.4486367" lon="14.1193933"><ele>88.99999999999999</ele><time>2026-05-02T07:39:28.092Z</time></trkpt><trkpt lat="42.4486417" lon="14.1194833"><ele>89.0</ele><time>2026-05-02T07:39:29.091Z</time></trkpt><trkpt lat="42.448645" lon="14.119575"><ele>90.16666666666667</ele><time>2026-05-02T07:39:30.092Z</time></trkpt><trkpt lat="42.4486467" lon="14.119665"><ele>91.33333333333334</ele><time>2026-05-02T07:39:31.091Z</time></trkpt><trkpt lat="42.4486517" lon="14.11981"><ele>92.5</ele><time>2026-05-02T07:39:33.091Z</time></trkpt><trkpt lat="42.448655" lon="14.1199167"><ele>93.66666666666667</ele><time>2026-05-02T07:39:35.091Z</time></trkpt><trkpt lat="42.4486433" lon="14.1200283"><ele>94.83333333333333</ele><time>2026-05-02T07:39:37.091Z</time></trkpt><trkpt lat="42.44865" lon="14.1201433"><ele>96.0</ele><time>2026-05-02T07:39:39.091Z</time></trkpt><trkpt lat="42.4486617" lon="14.12029"><ele>98.5</ele><time>2026-05-02T07:39:41.091Z</time></trkpt><trkpt lat="42.4486667" lon="14.1204433"><ele>101.0</ele><time>2026-05-02T07:39:43.091Z</time></trkpt><trkpt lat="42.4486733" lon="14.1205933"><ele>103.5</ele><time>2026-05-02T07:39:45.092Z</time></trkpt><trkpt lat="42.4486617" lon="14.1207483"><ele>106.0</ele><time>2026-05-02T07:39:47.092Z</time></trkpt><trkpt lat="42.4486617" lon="14.120915"><ele>108.00000000000001</ele><time>2026-05-02T07:39:49.092Z</time></trkpt><trkpt lat="42.4486667" lon="14.1210217"><ele>110.0</ele><time>2026-05-02T07:39:50.092Z</time></trkpt><trkpt lat="42.4486717" lon="14.12112"><ele>112.0</ele><time>2026-05-02T07:39:51.091Z</time></trkpt><trkpt lat="42.4486733" lon="14.1212067"><ele>114.0</ele><time>2026-05-02T07:39:52.092Z</time></trkpt><trkpt lat="42.44868" lon="14.1213533"><ele>116.00000000000001</ele><time>2026-05-02T07:39:54.092Z</time></trkpt><trkpt lat="42.4486767" lon="14.1215017"><ele>118.0</ele><time>2026-05-02T07:39:56.092Z</time></trkpt><trkpt lat="42.448685" lon="14.121675"><ele>119.80000000000001</ele><time>2026-05-02T07:39:58.091Z</time></trkpt><trkpt lat="42.4486917" lon="14.1217783"><ele>121.60000000000001</ele><time>2026-05-02T07:39:59.091Z</time></trkpt><trkpt lat="42.44871" lon="14.1218767"><ele>123.39999999999999</ele><time>2026-05-02T07:40:00.091Z</time></trkpt><trkpt lat="42.448725" lon="14.1220017"><ele>125.19999999999999</ele><time>2026-05-02T07:40:01.092Z</time></trkpt><trkpt lat="42.4487433" lon="14.1221317"><ele>127.0</ele><time>2026-05-02T07:40:02.091Z</time></trkpt><trkpt lat="42.44879" lon="14.1223183"><ele>127.50000000000001</ele><time>2026-05-02T07:40:03.092Z</time></trkpt><trkpt lat="42.4488367" lon="14.1224433"><ele>128.0</ele><time>2026-05-02T07:40:04.092Z</time></trkpt><trkpt lat="42.4488767" lon="14.1225267"><ele>128.5</ele><time>2026-05-02T07:40:05.092Z</time></trkpt><trkpt lat="42.4489083" lon="14.1226133"><ele>129.0</ele><time>2026-05-02T07:40:07.092Z</time></trkpt><trkpt lat="42.4488383" lon="14.1226183"><ele>129.5</ele><time>2026-05-02T07:40:11.091Z</time></trkpt><trkpt lat="42.44875" lon="14.12257"><ele>130.0</ele><time>2026-05-02T07:41:07.092Z</time></trkpt><trkpt lat="42.44862" lon="14.1225167"><ele>130.0</ele><time>2026-05-02T07:41:09.092Z</time></trkpt><trkpt lat="42.4485317" lon="14.1224683"><ele>130.0</ele><time>2026-05-02T07:41:10.092Z</time></trkpt><trkpt lat="42.44843" lon="14.1224183"><ele>130.0</ele><time>2026-05-02T07:41:11.091Z</time></trkpt><trkpt lat="42.4483117" lon="14.1223617"><ele>130.0</ele><time>2026-05-02T07:41:12.092Z</time></trkpt><trkpt lat="42.4481867" lon="14.1222983"><ele>129.25</ele><time>2026-05-02T07:41:13.092Z</time></trkpt><trkpt lat="42.4480733" lon="14.122225"><ele>128.5</ele><time>2026-05-02T07:41:14.091Z</time></trkpt><trkpt lat="42.44796" lon="14.1221383"><ele>127.75</ele><time>2026-05-02T07:41:15.092Z</time></trkpt><trkpt lat="42.4478567" lon="14.1220567"><ele>127.0</ele><time>2026-05-02T07:41:16.091Z</time></trkpt><trkpt lat="42.4477517" lon="14.1219783"><ele>129.0</ele><time>2026-05-02T07:41:17.091Z</time></trkpt><trkpt lat="42.4476467" lon="14.1218983"><ele>131.0</ele><time>2026-05-02T07:41:18.091Z</time></trkpt><trkpt lat="42.4475483" lon="14.1218333"><ele>133.0</ele><time>2026-05-02T07:41:19.092Z</time></trkpt><trkpt lat="42.4474417" lon="14.1217833"><ele>135.0</ele><time>2026-05-02T07:41:20.092Z</time></trkpt><trkpt lat="42.4473183" lon="14.1217517"><ele>135.0</ele><time>2026-05-02T07:41:21.092Z</time></trkpt><trkpt lat="42.4471717" lon="14.12174"><ele>135.0</ele><time>2026-05-02T07:41:22.092Z</time></trkpt><trkpt lat="42.447015" lon="14.1217267"><ele>135.0</ele><time>2026-05-02T07:41:23.091Z</time></trkpt><trkpt lat="42.4468567" lon="14.12171"><ele>134.0</ele><time>2026-05-02T07:41:24.092Z</time></trkpt><trkpt lat="42.4467" lon="14.1217083"><ele>133.0</ele><time>2026-05-02T07:41:25.091Z</time></trkpt><trkpt lat="42.44654" lon="14.1217317"><ele>132.0</ele><time>2026-05-02T07:41:26.091Z</time></trkpt><trkpt lat="42.4463833" lon="14.1217683"><ele>130.66666666666666</ele><time>2026-05-02T07:41:27.092Z</time></trkpt><trkpt lat="42.44622" lon="14.121815"><ele>129.33333333333331</ele><time>2026-05-02T07:41:28.091Z</time></trkpt><trkpt lat="42.4460617" lon="14.1218467"><ele>128.0</ele><time>2026-05-02T07:41:29.092Z</time></trkpt><trkpt lat="42.4459317" lon="14.1218867"><ele>128.0</ele><time>2026-05-02T07:41:30.092Z</time></trkpt><trkpt lat="42.4458167" lon="14.1219267"><ele>128.0</ele><time>2026-05-02T07:41:31.091Z</time></trkpt><trkpt lat="42.4457033" lon="14.121995"><ele>128.0</ele><time>2026-05-02T07:41:32.092Z</time></trkpt><trkpt lat="42.445595" lon="14.1221133"><ele>128.0</ele><time>2026-05-02T07:41:33.092Z</time></trkpt><trkpt lat="42.445485" lon="14.12225"><ele>127.5</ele><time>2026-05-02T07:41:34.091Z</time></trkpt><trkpt lat="42.4453783" lon="14.12239"><ele>127.0</ele><time>2026-05-02T07:41:35.092Z</time></trkpt><trkpt lat="42.4452633" lon="14.1225133"><ele>126.5</ele><time>2026-05-02T07:41:36.091Z</time></trkpt><trkpt lat="42.44513" lon="14.1226167"><ele>126.0</ele><time>2026-05-02T07:41:37.091Z</time></trkpt><trkpt lat="42.4449833" lon="14.1226967"><ele>126.0</ele><time>2026-05-02T07:41:38.092Z</time></trkpt><trkpt lat="42.4448517" lon="14.1227717"><ele>126.0</ele><time>2026-05-02T07:41:39.092Z</time></trkpt><trkpt lat="42.4447233" lon="14.1228767"><ele>126.0</ele><time>2026-05-02T07:41:40.091Z</time></trkpt><trkpt lat="42.444605" lon="14.1230133"><ele>126.0</ele><time>2026-05-02T07:41:41.092Z</time></trkpt><trkpt lat="42.4444983" lon="14.1231517"><ele>124.25</ele><time>2026-05-02T07:41:42.091Z</time></trkpt><trkpt lat="42.4443967" lon="14.1232817"><ele>122.5</ele><time>2026-05-02T07:41:43.092Z</time></trkpt><trkpt lat="42.444295" lon="14.1233867"><ele>120.75</ele><time>2026-05-02T07:41:44.092Z</time></trkpt><trkpt lat="42.444185" lon="14.1234517"><ele>119.0</ele><time>2026-05-02T07:41:45.092Z</time></trkpt><trkpt lat="42.44407" lon="14.12346"><ele>119.0</ele><time>2026-05-02T07:41:46.091Z</time></trkpt><trkpt lat="42.4439433" lon="14.1234483"><ele>119.0</ele><time>2026-05-02T07:41:47.091Z</time></trkpt><trkpt lat="42.443795" lon="14.123455"><ele>119.0</ele><time>2026-05-02T07:41:48.092Z</time></trkpt><trkpt lat="42.44364" lon="14.1234883"><ele>119.0</ele><time>2026-05-02T07:41:49.092Z</time></trkpt><trkpt lat="42.44348" lon="14.1235383"><ele>116.33333333333333</ele><time>2026-05-02T07:41:50.092Z</time></trkpt><trkpt lat="42.4433017" lon="14.1235983"><ele>113.66666666666666</ele><time>2026-05-02T07:41:51.092Z</time></trkpt><trkpt lat="42.44311" lon="14.12366"><ele>111.0</ele><time>2026-05-02T07:41:52.092Z</time></trkpt><trkpt lat="42.44292" lon="14.1237183"><ele>109.0</ele><time>2026-05-02T07:41:53.091Z</time></trkpt><trkpt lat="42.4427133" lon="14.1237817"><ele>107.0</ele><time>2026-05-02T07:41:54.092Z</time></trkpt><trkpt lat="42.44252" lon="14.1238383"><ele>105.0</ele><time>2026-05-02T07:41:55.091Z</time></trkpt><trkpt lat="42.442345" lon="14.123885"><ele>105.0</ele><time>2026-05-02T07:41:56.09Z</time></trkpt><trkpt lat="42.442165" lon="14.12391"><ele>105.0</ele><time>2026-05-02T07:41:57.091Z</time></trkpt><trkpt lat="42.4419983" lon="14.1239183"><ele>105.0</ele><time>2026-05-02T07:41:58.091Z</time></trkpt><trkpt lat="42.441835" lon="14.1239117"><ele>107.66666666666666</ele><time>2026-05-02T07:41:59.091Z</time></trkpt><trkpt lat="42.44167" lon="14.12389"><ele>110.33333333333333</ele><time>2026-05-02T07:42:00.09Z</time></trkpt><trkpt lat="42.4415117" lon="14.1238633"><ele>113.0</ele><time>2026-05-02T07:42:01.091Z</time></trkpt><trkpt lat="42.4413767" lon="14.123815"><ele>110.66666666666666</ele><time>2026-05-02T07:42:02.09Z</time></trkpt><trkpt lat="42.4412433" lon="14.12375"><ele>108.33333333333334</ele><time>2026-05-02T07:42:03.09Z</time></trkpt><trkpt lat="42.4411017" lon="14.1236783"><ele>106.0</ele><time>2026-05-02T07:42:04.09Z</time></trkpt><trkpt lat="42.44096" lon="14.1235783"><ele>106.0</ele><time>2026-05-02T07:42:05.09Z</time></trkpt><trkpt lat="42.4408067" lon="14.12348"><ele>106.0</ele><time>2026-05-02T07:42:06.091Z</time></trkpt><trkpt lat="42.4406533" lon="14.123395"><ele>106.0</ele><time>2026-05-02T07:42:07.09Z</time></trkpt><trkpt lat="42.4404917" lon="14.1233283"><ele>106.33333333333334</ele><time>2026-05-02T07:42:08.09Z</time></trkpt><trkpt lat="42.4403283" lon="14.123275"><ele>106.66666666666666</ele><time>2026-05-02T07:42:09.09Z</time></trkpt><trkpt lat="42.4401583" lon="14.1232417"><ele>107.0</ele><time>2026-05-02T07:42:10.09Z</time></trkpt><trkpt lat="42.4399967" lon="14.1232233"><ele>107.0</ele><time>2026-05-02T07:42:11.09Z</time></trkpt><trkpt lat="42.4398433" lon="14.123215"><ele>107.0</ele><time>2026-05-02T07:42:12.09Z</time></trkpt><trkpt lat="42.4396883" lon="14.1232267"><ele>107.0</ele><time>2026-05-02T07:42:13.091Z</time></trkpt><trkpt lat="42.4395467" lon="14.123265"><ele>98.0</ele><time>2026-05-02T07:42:14.091Z</time></trkpt><trkpt lat="42.43939" lon="14.1233283"><ele>89.0</ele><time>2026-05-02T07:42:15.09Z</time></trkpt><trkpt lat="42.4392267" lon="14.1233983"><ele>80.0</ele><time>2026-05-02T07:42:16.091Z</time></trkpt><trkpt lat="42.439055" lon="14.1234567"><ele>80.0</ele><time>2026-05-02T07:42:17.09Z</time></trkpt><trkpt lat="42.4388933" lon="14.1234783"><ele>80.0</ele><time>2026-05-02T07:42:18.091Z</time></trkpt><trkpt lat="42.4387033" lon="14.1235083"><ele>80.0</ele><time>2026-05-02T07:42:19.091Z</time></trkpt><trkpt lat="42.43851" lon="14.12355"><ele>76.33333333333334</ele><time>2026-05-02T07:42:20.09Z</time></trkpt><trkpt lat="42.4383233" lon="14.123605"><ele>72.66666666666667</ele><time>2026-05-02T07:42:21.09Z</time></trkpt><trkpt lat="42.43815" lon="14.1236617"><ele>69.0</ele><time>2026-05-02T07:42:22.091Z</time></trkpt><trkpt lat="42.43799" lon="14.1237083"><ele>68.75</ele><time>2026-05-02T07:42:23.091Z</time></trkpt><trkpt lat="42.437845" lon="14.1237483"><ele>68.5</ele><time>2026-05-02T07:42:24.091Z</time></trkpt><trkpt lat="42.4377283" lon="14.1237717"><ele>68.25</ele><time>2026-05-02T07:42:25.09Z</time></trkpt><trkpt lat="42.4376233" lon="14.1237517"><ele>68.0</ele><time>2026-05-02T07:42:26.091Z</time></trkpt><trkpt lat="42.43752" lon="14.1237133"><ele>68.0</ele><time>2026-05-02T07:42:27.091Z</time></trkpt><trkpt lat="42.4374117" lon="14.1236783"><ele>68.0</ele><time>2026-05-02T07:42:28.09Z</time></trkpt><trkpt lat="42.43732" lon="14.1236467"><ele>68.0</ele><time>2026-05-02T07:42:29.091Z</time></trkpt><trkpt lat="42.43723" lon="14.12361"><ele>68.0</ele><time>2026-05-02T07:42:30.091Z</time></trkpt><trkpt lat="42.4371383" lon="14.1235533"><ele>68.0</ele><time>2026-05-02T07:42:31.09Z</time></trkpt><trkpt lat="42.4370333" lon="14.12348"><ele>66.0</ele><time>2026-05-02T07:42:32.09Z</time></trkpt><trkpt lat="42.4369017" lon="14.1234083"><ele>64.0</ele><time>2026-05-02T07:42:33.09Z</time></trkpt><trkpt lat="42.43676" lon="14.1233417"><ele>62.0</ele><time>2026-05-02T07:42:34.09Z</time></trkpt><trkpt lat="42.4366133" lon="14.1232867"><ele>60.0</ele><time>2026-05-02T07:42:35.091Z</time></trkpt><trkpt lat="42.4364633" lon="14.1232283"><ele>61.33333333333333</ele><time>2026-05-02T07:42:36.091Z</time></trkpt><trkpt lat="42.4362917" lon="14.1231883"><ele>62.666666666666664</ele><time>2026-05-02T07:42:37.09Z</time></trkpt><trkpt lat="42.4361267" lon="14.1231483"><ele>64.0</ele><time>2026-05-02T07:42:38.09Z</time></trkpt><trkpt lat="42.4359767" lon="14.123105"><ele>64.0</ele><time>2026-05-02T07:42:39.09Z</time></trkpt><trkpt lat="42.4358433" lon="14.12308"><ele>64.0</ele><time>2026-05-02T07:42:40.09Z</time></trkpt><trkpt lat="42.4357183" lon="14.123075"><ele>64.0</ele><time>2026-05-02T07:42:41.091Z</time></trkpt><trkpt lat="42.4355983" lon="14.12309"><ele>64.0</ele><time>2026-05-02T07:42:42.09Z</time></trkpt><trkpt lat="42.4354917" lon="14.1231433"><ele>64.5</ele><time>2026-05-02T07:42:43.09Z</time></trkpt><trkpt lat="42.4353917" lon="14.123245"><ele>65.0</ele><time>2026-05-02T07:42:44.091Z</time></trkpt><trkpt lat="42.4352833" lon="14.1233717"><ele>65.5</ele><time>2026-05-02T07:42:45.091Z</time></trkpt><trkpt lat="42.4351667" lon="14.12353"><ele>66.0</ele><time>2026-05-02T07:42:46.09Z</time></trkpt><trkpt lat="42.4350217" lon="14.1237083"><ele>66.0</ele><time>2026-05-02T07:42:47.09Z</time></trkpt><trkpt lat="42.4348833" lon="14.123895"><ele>66.0</ele><time>2026-05-02T07:42:48.09Z</time></trkpt><trkpt lat="42.4347233" lon="14.1240933"><ele>66.0</ele><time>2026-05-02T07:42:49.091Z</time></trkpt><trkpt lat="42.4345567" lon="14.1243167"><ele>65.33333333333333</ele><time>2026-05-02T07:42:50.091Z</time></trkpt><trkpt lat="42.4343967" lon="14.1245283"><ele>64.66666666666666</ele><time>2026-05-02T07:42:51.09Z</time></trkpt><trkpt lat="42.434245" lon="14.124735"><ele>64.0</ele><time>2026-05-02T07:42:52.091Z</time></trkpt><trkpt lat="42.4341117" lon="14.1249217"><ele>63.25</ele><time>2026-05-02T07:42:53.09Z</time></trkpt><trkpt lat="42.4339983" lon="14.1250733"><ele>62.5</ele><time>2026-05-02T07:42:54.09Z</time></trkpt><trkpt lat="42.43391" lon="14.1251967"><ele>61.75</ele><time>2026-05-02T07:42:55.09Z</time></trkpt><trkpt lat="42.4338367" lon="14.1252983"><ele>61.0</ele><time>2026-05-02T07:42:56.09Z</time></trkpt><trkpt lat="42.433775" lon="14.1253783"><ele>60.99999999999999</ele><time>2026-05-02T07:42:57.09Z</time></trkpt><trkpt lat="42.4337183" lon="14.1254283"><ele>61.0</ele><time>2026-05-02T07:42:58.09Z</time></trkpt><trkpt lat="42.4336067" lon="14.1254133"><ele>61.0</ele><time>2026-05-02T07:43:00.09Z</time></trkpt><trkpt lat="42.4335467" lon="14.1253817"><ele>61.0</ele><time>2026-05-02T07:43:01.091Z</time></trkpt><trkpt lat="42.4334833" lon="14.1253583"><ele>60.99999999999999</ele><time>2026-05-02T07:43:02.091Z</time></trkpt><trkpt lat="42.4334033" lon="14.1253083"><ele>61.0</ele><time>2026-05-02T07:43:03.091Z</time></trkpt><trkpt lat="42.433365" lon="14.125195"><ele>61.0</ele><time>2026-05-02T07:43:04.091Z</time></trkpt><trkpt lat="42.43331" lon="14.1251217"><ele>60.99999999999999</ele><time>2026-05-02T07:43:06.09Z</time></trkpt><trkpt lat="42.4332283" lon="14.1252033"><ele>60.99999999999999</ele><time>2026-05-02T07:43:08.09Z</time></trkpt><trkpt lat="42.43316" lon="14.1252867"><ele>61.0</ele><time>2026-05-02T07:43:09.091Z</time></trkpt><trkpt lat="42.433055" lon="14.1253933"><ele>61.0</ele><time>2026-05-02T07:43:10.091Z</time></trkpt><trkpt lat="42.4329317" lon="14.1255067"><ele>61.5</ele><time>2026-05-02T07:43:11.091Z</time></trkpt><trkpt lat="42.432815" lon="14.1256067"><ele>62.0</ele><time>2026-05-02T07:43:12.091Z</time></trkpt><trkpt lat="42.4327033" lon="14.12569"><ele>62.5</ele><time>2026-05-02T07:43:13.091Z</time></trkpt><trkpt lat="42.4326117" lon="14.1257883"><ele>63.0</ele><time>2026-05-02T07:43:14.091Z</time></trkpt><trkpt lat="42.43253" lon="14.1258783"><ele>63.0</ele><time>2026-05-02T07:43:15.09Z</time></trkpt><trkpt lat="42.4324567" lon="14.1259417"><ele>63.0</ele><time>2026-05-02T07:43:16.091Z</time></trkpt><trkpt lat="42.4323483" lon="14.126005"><ele>63.0</ele><time>2026-05-02T07:43:17.091Z</time></trkpt><trkpt lat="42.4322383" lon="14.12606"><ele>63.0</ele><time>2026-05-02T07:43:18.09Z</time></trkpt><trkpt lat="42.43211" lon="14.1261433"><ele>65.25</ele><time>2026-05-02T07:43:19.091Z</time></trkpt><trkpt lat="42.431985" lon="14.1262217"><ele>67.5</ele><time>2026-05-02T07:43:20.091Z</time></trkpt><trkpt lat="42.4318817" lon="14.12628"><ele>69.75</ele><time>2026-05-02T07:43:21.09Z</time></trkpt><trkpt lat="42.43177" lon="14.1263267"><ele>72.0</ele><time>2026-05-02T07:43:22.091Z</time></trkpt><trkpt lat="42.4316567" lon="14.1263417"><ele>72.0</ele><time>2026-05-02T07:43:23.091Z</time></trkpt><trkpt lat="42.4315317" lon="14.1263467"><ele>72.0</ele><time>2026-05-02T07:43:24.09Z</time></trkpt><trkpt lat="42.431405" lon="14.1263633"><ele>72.0</ele><time>2026-05-02T07:43:25.09Z</time></trkpt><trkpt lat="42.431275" lon="14.126385"><ele>72.0</ele><time>2026-05-02T07:43:26.091Z</time></trkpt><trkpt lat="42.43114" lon="14.12643"><ele>73.0</ele><time>2026-05-02T07:43:27.09Z</time></trkpt><trkpt lat="42.4310083" lon="14.1264833"><ele>74.0</ele><time>2026-05-02T07:43:28.091Z</time></trkpt><trkpt lat="42.4308883" lon="14.1265583"><ele>75.0</ele><time>2026-05-02T07:43:29.09Z</time></trkpt><trkpt lat="42.4307883" lon="14.1266483"><ele>76.0</ele><time>2026-05-02T07:43:30.091Z</time></trkpt><trkpt lat="42.4306917" lon="14.1267433"><ele>76.0</ele><time>2026-05-02T07:43:31.09Z</time></trkpt><trkpt lat="42.430595" lon="14.126835"><ele>76.0</ele><time>2026-05-02T07:43:32.09Z</time></trkpt><trkpt lat="42.43052" lon="14.1268933"><ele>76.0</ele><time>2026-05-02T07:43:33.09Z</time></trkpt><trkpt lat="42.4304517" lon="14.1269317"><ele>76.0</ele><time>2026-05-02T07:43:34.091Z</time></trkpt><trkpt lat="42.4303833" lon="14.1269433"><ele>76.0</ele><time>2026-05-02T07:43:35.09Z</time></trkpt><trkpt lat="42.430295" lon="14.1268917"><ele>76.0</ele><time>2026-05-02T07:43:37.09Z</time></trkpt><trkpt lat="42.43023" lon="14.12678"><ele>77.0</ele><time>2026-05-02T07:43:42.09Z</time></trkpt><trkpt lat="42.4301583" lon="14.126745"><ele>78.0</ele><time>2026-05-02T07:43:44.091Z</time></trkpt><trkpt lat="42.4300317" lon="14.1267683"><ele>79.0</ele><time>2026-05-02T07:43:46.09Z</time></trkpt><trkpt lat="42.42995" lon="14.1267983"><ele>80.0</ele><time>2026-05-02T07:43:47.09Z</time></trkpt><trkpt lat="42.4298433" lon="14.12684"><ele>81.0</ele><time>2026-05-02T07:43:48.091Z</time></trkpt><trkpt lat="42.4297183" lon="14.1268767"><ele>77.5</ele><time>2026-05-02T07:43:49.091Z</time></trkpt><trkpt lat="42.4295917" lon="14.126905"><ele>74.0</ele><time>2026-05-02T07:43:50.09Z</time></trkpt><trkpt lat="42.4294667" lon="14.1269183"><ele>70.5</ele><time>2026-05-02T07:43:51.091Z</time></trkpt><trkpt lat="42.4293467" lon="14.12692"><ele>67.0</ele><time>2026-05-02T07:43:52.09Z</time></trkpt><trkpt lat="42.4292267" lon="14.12691"><ele>67.0</ele><time>2026-05-02T07:43:53.091Z</time></trkpt><trkpt lat="42.4291117" lon="14.12689"><ele>67.0</ele><time>2026-05-02T07:43:54.09Z</time></trkpt><trkpt lat="42.428995" lon="14.12686"><ele>67.0</ele><time>2026-05-02T07:43:55.09Z</time></trkpt><trkpt lat="42.4289117" lon="14.1268217"><ele>67.0</ele><time>2026-05-02T07:43:56.09Z</time></trkpt><trkpt lat="42.4288233" lon="14.1267617"><ele>67.0</ele><time>2026-05-02T07:43:57.091Z</time></trkpt><trkpt lat="42.42875" lon="14.1266783"><ele>65.66666666666666</ele><time>2026-05-02T07:43:58.09Z</time></trkpt><trkpt lat="42.4286883" lon="14.1265683"><ele>64.33333333333333</ele><time>2026-05-02T07:43:59.091Z</time></trkpt><trkpt lat="42.4286433" lon="14.1264617"><ele>63.0</ele><time>2026-05-02T07:44:00.091Z</time></trkpt><trkpt lat="42.4285967" lon="14.12636"><ele>61.66666666666667</ele><time>2026-05-02T07:44:01.091Z</time></trkpt><trkpt lat="42.4285517" lon="14.1262633"><ele>60.333333333333336</ele><time>2026-05-02T07:44:02.091Z</time></trkpt><trkpt lat="42.4284983" lon="14.126185"><ele>59.0</ele><time>2026-05-02T07:44:03.09Z</time></trkpt><trkpt lat="42.4284367" lon="14.1261167"><ele>57.833333333333336</ele><time>2026-05-02T07:44:04.09Z</time></trkpt><trkpt lat="42.4283767" lon="14.1260667"><ele>56.66666666666667</ele><time>2026-05-02T07:44:05.091Z</time></trkpt><trkpt lat="42.4283133" lon="14.1260333"><ele>55.5</ele><time>2026-05-02T07:44:06.09Z</time></trkpt><trkpt lat="42.4282367" lon="14.12602"><ele>54.33333333333333</ele><time>2026-05-02T07:44:07.091Z</time></trkpt><trkpt lat="42.4281533" lon="14.1260133"><ele>53.166666666666664</ele><time>2026-05-02T07:44:08.091Z</time></trkpt><trkpt lat="42.4280517" lon="14.12602"><ele>52.0</ele><time>2026-05-02T07:44:09.091Z</time></trkpt><trkpt lat="42.427955" lon="14.1260317"><ele>50.25</ele><time>2026-05-02T07:44:10.091Z</time></trkpt><trkpt lat="42.4278517" lon="14.1260367"><ele>48.5</ele><time>2026-05-02T07:44:11.091Z</time></trkpt><trkpt lat="42.427725" lon="14.1260033"><ele>46.75</ele><time>2026-05-02T07:44:12.09Z</time></trkpt><trkpt lat="42.4275917" lon="14.1259517"><ele>45.0</ele><time>2026-05-02T07:44:13.091Z</time></trkpt><trkpt lat="42.4274767" lon="14.1258733"><ele>45.0</ele><time>2026-05-02T07:44:14.091Z</time></trkpt><trkpt lat="42.4273617" lon="14.1258033"><ele>45.0</ele><time>2026-05-02T07:44:15.091Z</time></trkpt><trkpt lat="42.4272467" lon="14.125755"><ele>45.0</ele><time>2026-05-02T07:44:16.09Z</time></trkpt><trkpt lat="42.4271467" lon="14.12573"><ele>45.0</ele><time>2026-05-02T07:44:17.091Z</time></trkpt><trkpt lat="42.4270467" lon="14.1257267"><ele>45.0</ele><time>2026-05-02T07:44:18.091Z</time></trkpt><trkpt lat="42.4269633" lon="14.1257183"><ele>43.5</ele><time>2026-05-02T07:44:19.09Z</time></trkpt><trkpt lat="42.4268883" lon="14.1256867"><ele>42.0</ele><time>2026-05-02T07:44:20.09Z</time></trkpt><trkpt lat="42.426825" lon="14.1256567"><ele>40.5</ele><time>2026-05-02T07:44:21.091Z</time></trkpt><trkpt lat="42.4267633" lon="14.1256033"><ele>39.0</ele><time>2026-05-02T07:44:23.091Z</time></trkpt><trkpt lat="42.426755" lon="14.12546"><ele>37.5</ele><time>2026-05-02T07:44:36.091Z</time></trkpt><trkpt lat="42.4267783" lon="14.12533"><ele>36.0</ele><time>2026-05-02T07:44:37.09Z</time></trkpt><trkpt lat="42.4268083" lon="14.1251783"><ele>36.0</ele><time>2026-05-02T07:44:38.09Z</time></trkpt><trkpt lat="42.4268417" lon="14.12501"><ele>36.0</ele><time>2026-05-02T07:44:39.09Z</time></trkpt><trkpt lat="42.4268717" lon="14.124855"><ele>36.0</ele><time>2026-05-02T07:44:40.091Z</time></trkpt><trkpt lat="42.4268933" lon="14.124735"><ele>36.0</ele><time>2026-05-02T07:44:41.091Z</time></trkpt><trkpt lat="42.4269083" lon="14.1246417"><ele>36.0</ele><time>2026-05-02T07:44:42.09Z</time></trkpt><trkpt lat="42.4268967" lon="14.1244883"><ele>36.6</ele><time>2026-05-02T07:44:44.091Z</time></trkpt><trkpt lat="42.4268483" lon="14.1243883"><ele>37.2</ele><time>2026-05-02T07:44:46.091Z</time></trkpt><trkpt lat="42.42674" lon="14.1242817"><ele>37.8</ele><time>2026-05-02T07:44:48.091Z</time></trkpt><trkpt lat="42.4266583" lon="14.1242233"><ele>38.4</ele><time>2026-05-02T07:44:49.091Z</time></trkpt><trkpt lat="42.426575" lon="14.1241517"><ele>39.0</ele><time>2026-05-02T07:44:50.091Z</time></trkpt><trkpt lat="42.4264983" lon="14.1240617"><ele>38.75</ele><time>2026-05-02T07:44:51.09Z</time></trkpt><trkpt lat="42.426425" lon="14.1239367"><ele>38.5</ele><time>2026-05-02T07:44:52.091Z</time></trkpt><trkpt lat="42.4263733" lon="14.123775"><ele>38.25</ele><time>2026-05-02T07:44:53.091Z</time></trkpt><trkpt lat="42.426335" lon="14.1235783"><ele>38.0</ele><time>2026-05-02T07:44:54.091Z</time></trkpt><trkpt lat="42.4262933" lon="14.1233367"><ele>38.0</ele><time>2026-05-02T07:44:55.09Z</time></trkpt><trkpt lat="42.4262517" lon="14.123075"><ele>38.0</ele><time>2026-05-02T07:44:56.09Z</time></trkpt><trkpt lat="42.4262117" lon="14.122795"><ele>38.0</ele><time>2026-05-02T07:44:57.091Z</time></trkpt><trkpt lat="42.4261667" lon="14.1224933"><ele>38.33333333333333</ele><time>2026-05-02T07:44:58.09Z</time></trkpt><trkpt lat="42.4261317" lon="14.122185"><ele>38.666666666666664</ele><time>2026-05-02T07:44:59.091Z</time></trkpt><trkpt lat="42.4261" lon="14.1218967"><ele>39.0</ele><time>2026-05-02T07:45:00.091Z</time></trkpt><trkpt lat="42.42606" lon="14.1216417"><ele>39.5</ele><time>2026-05-02T07:45:01.09Z</time></trkpt><trkpt lat="42.4260333" lon="14.1214083"><ele>40.0</ele><time>2026-05-02T07:45:02.091Z</time></trkpt><trkpt lat="42.42601" lon="14.1212083"><ele>40.5</ele><time>2026-05-02T07:45:03.09Z</time></trkpt><trkpt lat="42.4259767" lon="14.1210567"><ele>41.0</ele><time>2026-05-02T07:45:04.091Z</time></trkpt><trkpt lat="42.4259483" lon="14.1209533"><ele>41.0</ele><time>2026-05-02T07:45:05.091Z</time></trkpt><trkpt lat="42.4259017" lon="14.1208133"><ele>41.0</ele><time>2026-05-02T07:45:07.09Z</time></trkpt><trkpt lat="42.4258633" lon="14.12069"><ele>41.0</ele><time>2026-05-02T07:45:09.091Z</time></trkpt><trkpt lat="42.4257983" lon="14.1205133"><ele>41.0</ele><time>2026-05-02T07:45:11.091Z</time></trkpt><trkpt lat="42.42574" lon="14.1203817"><ele>41.8</ele><time>2026-05-02T07:45:12.091Z</time></trkpt><trkpt lat="42.4256883" lon="14.1202533"><ele>42.599999999999994</ele><time>2026-05-02T07:45:13.09Z</time></trkpt><trkpt lat="42.4256433" lon="14.1201533"><ele>43.4</ele><time>2026-05-02T07:45:14.091Z</time></trkpt><trkpt lat="42.4256117" lon="14.1200467"><ele>44.2</ele><time>2026-05-02T07:45:15.09Z</time></trkpt><trkpt lat="42.4255783" lon="14.1199333"><ele>45.0</ele><time>2026-05-02T07:45:16.09Z</time></trkpt><trkpt lat="42.4255533" lon="14.1198233"><ele>46.5</ele><time>2026-05-02T07:45:17.09Z</time></trkpt><trkpt lat="42.42553" lon="14.1197067"><ele>48.0</ele><time>2026-05-02T07:45:18.09Z</time></trkpt><trkpt lat="42.4255017" lon="14.1195683"><ele>49.5</ele><time>2026-05-02T07:45:19.09Z</time></trkpt><trkpt lat="42.4254767" lon="14.1194"><ele>51.0</ele><time>2026-05-02T07:45:20.091Z</time></trkpt><trkpt lat="42.4254467" lon="14.1192183"><ele>48.0</ele><time>2026-05-02T07:45:21.09Z</time></trkpt><trkpt lat="42.425415" lon="14.11903"><ele>45.0</ele><time>2026-05-02T07:45:22.09Z</time></trkpt><trkpt lat="42.4253817" lon="14.1188467"><ele>42.0</ele><time>2026-05-02T07:45:23.091Z</time></trkpt><trkpt lat="42.425345" lon="14.11865"><ele>39.0</ele><time>2026-05-02T07:45:24.09Z</time></trkpt><trkpt lat="42.42531" lon="14.1184383"><ele>39.333333333333336</ele><time>2026-05-02T07:45:25.09Z</time></trkpt><trkpt lat="42.425265" lon="14.1182017"><ele>39.66666666666667</ele><time>2026-05-02T07:45:26.091Z</time></trkpt><trkpt lat="42.4252217" lon="14.11794"><ele>40.0</ele><time>2026-05-02T07:45:27.091Z</time></trkpt><trkpt lat="42.4251817" lon="14.1176633"><ele>41.333333333333336</ele><time>2026-05-02T07:45:28.09Z</time></trkpt><trkpt lat="42.4251533" lon="14.11737"><ele>42.666666666666664</ele><time>2026-05-02T07:45:29.091Z</time></trkpt><trkpt lat="42.4251233" lon="14.1170683"><ele>44.0</ele><time>2026-05-02T07:45:30.09Z</time></trkpt><trkpt lat="42.4250983" lon="14.11676"><ele>44.0</ele><time>2026-05-02T07:45:31.09Z</time></trkpt><trkpt lat="42.42508" lon="14.1164367"><ele>44.0</ele><time>2026-05-02T07:45:32.09Z</time></trkpt><trkpt lat="42.42505" lon="14.116125"><ele>44.0</ele><time>2026-05-02T07:45:33.091Z</time></trkpt><trkpt lat="42.4250233" lon="14.1157967"><ele>44.0</ele><time>2026-05-02T07:45:34.09Z</time></trkpt><trkpt lat="42.4250017" lon="14.1154683"><ele>44.5</ele><time>2026-05-02T07:45:35.091Z</time></trkpt><trkpt lat="42.4249733" lon="14.1151333"><ele>45.0</ele><time>2026-05-02T07:45:36.091Z</time></trkpt><trkpt lat="42.42495" lon="14.1147933"><ele>46.5</ele><time>2026-05-02T07:45:37.091Z</time></trkpt><trkpt lat="42.4249333" lon="14.1144533"><ele>48.0</ele><time>2026-05-02T07:45:38.09Z</time></trkpt><trkpt lat="42.4249133" lon="14.1141433"><ele>49.0</ele><time>2026-05-02T07:45:39.091Z</time></trkpt><trkpt lat="42.4248867" lon="14.1138367"><ele>50.0</ele><time>2026-05-02T07:45:40.091Z</time></trkpt><trkpt lat="42.4248683" lon="14.1135367"><ele>50.0</ele><time>2026-05-02T07:45:41.09Z</time></trkpt><trkpt lat="42.4248483" lon="14.1132583"><ele>50.0</ele><time>2026-05-02T07:45:42.09Z</time></trkpt><trkpt lat="42.4248383" lon="14.1130133"><ele>50.0</ele><time>2026-05-02T07:45:43.09Z</time></trkpt><trkpt lat="42.4248567" lon="14.112795"><ele>50.66666666666667</ele><time>2026-05-02T07:45:44.091Z</time></trkpt><trkpt lat="42.4249033" lon="14.1125683"><ele>51.33333333333333</ele><time>2026-05-02T07:45:45.09Z</time></trkpt><trkpt lat="42.42495" lon="14.1123433"><ele>52.0</ele><time>2026-05-02T07:45:46.09Z</time></trkpt><trkpt lat="42.4249917" lon="14.1121433"><ele>51.0</ele><time>2026-05-02T07:45:47.09Z</time></trkpt><trkpt lat="42.4250317" lon="14.1119633"><ele>50.0</ele><time>2026-05-02T07:45:48.09Z</time></trkpt><trkpt lat="42.4250667" lon="14.1118033"><ele>49.0</ele><time>2026-05-02T07:45:49.091Z</time></trkpt><trkpt lat="42.4251067" lon="14.1116733"><ele>48.0</ele><time>2026-05-02T07:45:50.091Z</time></trkpt><trkpt lat="42.4251383" lon="14.1115567"><ele>48.0</ele><time>2026-05-02T07:45:51.091Z</time></trkpt><trkpt lat="42.4251583" lon="14.1114183"><ele>48.0</ele><time>2026-05-02T07:45:53.091Z</time></trkpt><trkpt lat="42.4250317" lon="14.1114633"><ele>48.0</ele><time>2026-05-02T07:45:57.09Z</time></trkpt><trkpt lat="42.4249417" lon="14.1115433"><ele>48.0</ele><time>2026-05-02T07:45:58.09Z</time></trkpt><trkpt lat="42.424825" lon="14.1116367"><ele>48.0</ele><time>2026-05-02T07:45:59.09Z</time></trkpt><trkpt lat="42.4246833" lon="14.11173"><ele>48.0</ele><time>2026-05-02T07:46:00.09Z</time></trkpt><trkpt lat="42.4245417" lon="14.1117967"><ele>48.0</ele><time>2026-05-02T07:46:01.09Z</time></trkpt><trkpt lat="42.42439" lon="14.1118433"><ele>46.5</ele><time>2026-05-02T07:46:02.091Z</time></trkpt><trkpt lat="42.424235" lon="14.1118833"><ele>45.0</ele><time>2026-05-02T07:46:03.09Z</time></trkpt><trkpt lat="42.4240983" lon="14.111925"><ele>43.5</ele><time>2026-05-02T07:46:04.09Z</time></trkpt><trkpt lat="42.423965" lon="14.11197"><ele>42.0</ele><time>2026-05-02T07:46:05.09Z</time></trkpt><trkpt lat="42.423835" lon="14.1120067"><ele>41.0</ele><time>2026-05-02T07:46:06.09Z</time></trkpt><trkpt lat="42.4237167" lon="14.1120317"><ele>40.0</ele><time>2026-05-02T07:46:07.091Z</time></trkpt><trkpt lat="42.4236067" lon="14.11203"><ele>39.0</ele><time>2026-05-02T07:46:08.091Z</time></trkpt><trkpt lat="42.4235083" lon="14.11201"><ele>38.0</ele><time>2026-05-02T07:46:09.09Z</time></trkpt><trkpt lat="42.4234133" lon="14.11201"><ele>37.0</ele><time>2026-05-02T07:46:10.09Z</time></trkpt><trkpt lat="42.4233167" lon="14.1120333"><ele>37.0</ele><time>2026-05-02T07:46:11.09Z</time></trkpt><trkpt lat="42.42322" lon="14.1120917"><ele>37.0</ele><time>2026-05-02T07:46:12.09Z</time></trkpt><trkpt lat="42.4231133" lon="14.1121983"><ele>37.0</ele><time>2026-05-02T07:46:13.09Z</time></trkpt><trkpt lat="42.423" lon="14.11233"><ele>37.0</ele><time>2026-05-02T07:46:14.09Z</time></trkpt><trkpt lat="42.4228917" lon="14.1124717"><ele>39.333333333333336</ele><time>2026-05-02T07:46:15.091Z</time></trkpt><trkpt lat="42.422775" lon="14.1126083"><ele>41.666666666666664</ele><time>2026-05-02T07:46:16.091Z</time></trkpt><trkpt lat="42.4226617" lon="14.112745"><ele>44.0</ele><time>2026-05-02T07:46:17.091Z</time></trkpt><trkpt lat="42.422535" lon="14.1128667"><ele>44.0</ele><time>2026-05-02T07:46:18.091Z</time></trkpt><trkpt lat="42.4224183" lon="14.1129733"><ele>44.0</ele><time>2026-05-02T07:46:19.09Z</time></trkpt><trkpt lat="42.4222967" lon="14.1130767"><ele>44.0</ele><time>2026-05-02T07:46:20.091Z</time></trkpt><trkpt lat="42.422175" lon="14.11319"><ele>44.0</ele><time>2026-05-02T07:46:21.091Z</time></trkpt><trkpt lat="42.422065" lon="14.1133017"><ele>45.25</ele><time>2026-05-02T07:46:22.091Z</time></trkpt><trkpt lat="42.42196" lon="14.1133933"><ele>46.5</ele><time>2026-05-02T07:46:23.09Z</time></trkpt><trkpt lat="42.4218433" lon="14.11347"><ele>47.75</ele><time>2026-05-02T07:46:24.09Z</time></trkpt><trkpt lat="42.4217233" lon="14.1135317"><ele>49.0</ele><time>2026-05-02T07:46:25.09Z</time></trkpt><trkpt lat="42.42158" lon="14.1135833"><ele>49.0</ele><time>2026-05-02T07:46:26.091Z</time></trkpt><trkpt lat="42.42143" lon="14.113635"><ele>49.0</ele><time>2026-05-02T07:46:27.091Z</time></trkpt><trkpt lat="42.42127" lon="14.1137117"><ele>49.0</ele><time>2026-05-02T07:46:28.09Z</time></trkpt><trkpt lat="42.4211233" lon="14.113805"><ele>50.0</ele><time>2026-05-02T07:46:29.091Z</time></trkpt><trkpt lat="42.4209783" lon="14.1139117"><ele>51.0</ele><time>2026-05-02T07:46:30.09Z</time></trkpt><trkpt lat="42.4208533" lon="14.1140133"><ele>52.0</ele><time>2026-05-02T07:46:31.09Z</time></trkpt><trkpt lat="42.420745" lon="14.11409"><ele>53.0</ele><time>2026-05-02T07:46:32.091Z</time></trkpt><trkpt lat="42.420645" lon="14.1141833"><ele>55.5</ele><time>2026-05-02T07:46:33.091Z</time></trkpt><trkpt lat="42.4205433" lon="14.1143"><ele>58.0</ele><time>2026-05-02T07:46:34.091Z</time></trkpt><trkpt lat="42.42045" lon="14.1144267"><ele>60.5</ele><time>2026-05-02T07:46:35.09Z</time></trkpt><trkpt lat="42.4203533" lon="14.1145667"><ele>63.0</ele><time>2026-05-02T07:46:36.091Z</time></trkpt><trkpt lat="42.4202567" lon="14.1146967"><ele>63.0</ele><time>2026-05-02T07:46:37.09Z</time></trkpt><trkpt lat="42.420135" lon="14.1147967"><ele>63.0</ele><time>2026-05-02T07:46:38.091Z</time></trkpt><trkpt lat="42.4199733" lon="14.1148783"><ele>63.0</ele><time>2026-05-02T07:46:39.09Z</time></trkpt><trkpt lat="42.4198217" lon="14.1149617"><ele>64.5</ele><time>2026-05-02T07:46:40.09Z</time></trkpt><trkpt lat="42.4197017" lon="14.115055"><ele>66.0</ele><time>2026-05-02T07:46:41.091Z</time></trkpt><trkpt lat="42.4195817" lon="14.1151767"><ele>67.5</ele><time>2026-05-02T07:46:42.091Z</time></trkpt><trkpt lat="42.4194667" lon="14.1153083"><ele>69.0</ele><time>2026-05-02T07:46:43.09Z</time></trkpt><trkpt lat="42.41934" lon="14.11544"><ele>71.75</ele><time>2026-05-02T07:46:44.09Z</time></trkpt><trkpt lat="42.4192033" lon="14.1155633"><ele>74.5</ele><time>2026-05-02T07:46:45.091Z</time></trkpt><trkpt lat="42.41909" lon="14.11568"><ele>77.25</ele><time>2026-05-02T07:46:46.091Z</time></trkpt><trkpt lat="42.4189967" lon="14.1157767"><ele>80.0</ele><time>2026-05-02T07:46:47.09Z</time></trkpt><trkpt lat="42.4189317" lon="14.115865"><ele>81.0</ele><time>2026-05-02T07:46:48.091Z</time></trkpt><trkpt lat="42.4188767" lon="14.115925"><ele>82.0</ele><time>2026-05-02T07:46:49.091Z</time></trkpt><trkpt lat="42.4188067" lon="14.11593"><ele>83.0</ele><time>2026-05-02T07:46:51.091Z</time></trkpt><trkpt lat="42.41875" lon="14.1158867"><ele>84.0</ele><time>2026-05-02T07:46:52.09Z</time></trkpt><trkpt lat="42.418675" lon="14.115815"><ele>85.0</ele><time>2026-05-02T07:46:53.09Z</time></trkpt><trkpt lat="42.4185817" lon="14.1157217"><ele>86.0</ele><time>2026-05-02T07:46:54.091Z</time></trkpt><trkpt lat="42.418465" lon="14.1156317"><ele>90.0</ele><time>2026-05-02T07:46:55.091Z</time></trkpt><trkpt lat="42.418335" lon="14.1155383"><ele>94.0</ele><time>2026-05-02T07:46:56.09Z</time></trkpt><trkpt lat="42.4181967" lon="14.1154567"><ele>98.0</ele><time>2026-05-02T07:46:57.09Z</time></trkpt><trkpt lat="42.4180517" lon="14.1153867"><ele>100.0</ele><time>2026-05-02T07:46:58.09Z</time></trkpt><trkpt lat="42.4179017" lon="14.1153167"><ele>102.0</ele><time>2026-05-02T07:46:59.091Z</time></trkpt><trkpt lat="42.4177667" lon="14.1152533"><ele>104.0</ele><time>2026-05-02T07:47:00.09Z</time></trkpt><trkpt lat="42.4176267" lon="14.1152083"><ele>106.0</ele><time>2026-05-02T07:47:01.09Z</time></trkpt><trkpt lat="42.4174833" lon="14.11518"><ele>106.0</ele><time>2026-05-02T07:47:02.09Z</time></trkpt><trkpt lat="42.417335" lon="14.115155"><ele>106.0</ele><time>2026-05-02T07:47:03.091Z</time></trkpt><trkpt lat="42.41719" lon="14.1151367"><ele>106.0</ele><time>2026-05-02T07:47:04.09Z</time></trkpt><trkpt lat="42.4170333" lon="14.1151333"><ele>107.66666666666667</ele><time>2026-05-02T07:47:05.09Z</time></trkpt><trkpt lat="42.4168917" lon="14.11513"><ele>109.33333333333334</ele><time>2026-05-02T07:47:06.09Z</time></trkpt><trkpt lat="42.4167317" lon="14.1151433"><ele>111.0</ele><time>2026-05-02T07:47:07.09Z</time></trkpt><trkpt lat="42.4165633" lon="14.1151767"><ele>111.0</ele><time>2026-05-02T07:47:08.091Z</time></trkpt><trkpt lat="42.4163917" lon="14.115205"><ele>111.0</ele><time>2026-05-02T07:47:09.09Z</time></trkpt><trkpt lat="42.41621" lon="14.1152267"><ele>111.0</ele><time>2026-05-02T07:47:10.091Z</time></trkpt><trkpt lat="42.4160317" lon="14.1152367"><ele>112.66666666666666</ele><time>2026-05-02T07:47:11.09Z</time></trkpt><trkpt lat="42.4158567" lon="14.1152533"><ele>114.33333333333333</ele><time>2026-05-02T07:47:12.09Z</time></trkpt><trkpt lat="42.415695" lon="14.1152817"><ele>116.0</ele><time>2026-05-02T07:47:13.091Z</time></trkpt><trkpt lat="42.41555" lon="14.115325"><ele>116.19999999999999</ele><time>2026-05-02T07:47:14.091Z</time></trkpt><trkpt lat="42.41544" lon="14.1153667"><ele>116.39999999999999</ele><time>2026-05-02T07:47:15.091Z</time></trkpt><trkpt lat="42.4153683" lon="14.1153967"><ele>116.6</ele><time>2026-05-02T07:47:16.091Z</time></trkpt><trkpt lat="42.4152867" lon="14.115465"><ele>116.8</ele><time>2026-05-02T07:47:22.09Z</time></trkpt><trkpt lat="42.4151967" lon="14.1155733"><ele>117.0</ele><time>2026-05-02T07:47:24.09Z</time></trkpt><trkpt lat="42.41513" lon="14.1156517"><ele>116.8</ele><time>2026-05-02T07:47:25.091Z</time></trkpt><trkpt lat="42.4150567" lon="14.1157383"><ele>116.6</ele><time>2026-05-02T07:47:26.09Z</time></trkpt><trkpt lat="42.4149817" lon="14.11584"><ele>116.39999999999999</ele><time>2026-05-02T07:47:27.09Z</time></trkpt><trkpt lat="42.4149" lon="14.11594"><ele>116.19999999999999</ele><time>2026-05-02T07:47:28.091Z</time></trkpt><trkpt lat="42.4148067" lon="14.1160433"><ele>116.0</ele><time>2026-05-02T07:47:29.09Z</time></trkpt><trkpt lat="42.414695" lon="14.116145"><ele>114.33333333333333</ele><time>2026-05-02T07:47:30.091Z</time></trkpt><trkpt lat="42.414575" lon="14.1162517"><ele>112.66666666666666</ele><time>2026-05-02T07:47:31.091Z</time></trkpt><trkpt lat="42.41444" lon="14.1163567"><ele>111.0</ele><time>2026-05-02T07:47:32.091Z</time></trkpt><trkpt lat="42.4143" lon="14.1164667"><ele>111.0</ele><time>2026-05-02T07:47:33.09Z</time></trkpt><trkpt lat="42.4141683" lon="14.11656"><ele>111.0</ele><time>2026-05-02T07:47:34.091Z</time></trkpt><trkpt lat="42.4140367" lon="14.1166417"><ele>111.0</ele><time>2026-05-02T07:47:35.091Z</time></trkpt><trkpt lat="42.413915" lon="14.116715"><ele>111.0</ele><time>2026-05-02T07:47:36.091Z</time></trkpt><trkpt lat="42.4138083" lon="14.1167867"><ele>110.0</ele><time>2026-05-02T07:47:37.091Z</time></trkpt><trkpt lat="42.413705" lon="14.1168817"><ele>109.0</ele><time>2026-05-02T07:47:38.09Z</time></trkpt><trkpt lat="42.41361" lon="14.1170183"><ele>108.0</ele><time>2026-05-02T07:47:39.09Z</time></trkpt><trkpt lat="42.4135067" lon="14.1171867"><ele>107.0</ele><time>2026-05-02T07:47:40.09Z</time></trkpt><trkpt lat="42.4133983" lon="14.1173683"><ele>107.66666666666666</ele><time>2026-05-02T07:47:41.091Z</time></trkpt><trkpt lat="42.4132833" lon="14.1175633"><ele>108.33333333333334</ele><time>2026-05-02T07:47:42.091Z</time></trkpt><trkpt lat="42.4131733" lon="14.1177517"><ele>109.0</ele><time>2026-05-02T07:47:43.091Z</time></trkpt><trkpt lat="42.4130833" lon="14.11792"><ele>109.0</ele><time>2026-05-02T07:47:44.091Z</time></trkpt><trkpt lat="42.4129933" lon="14.11808"><ele>109.0</ele><time>2026-05-02T07:47:45.089Z</time></trkpt><trkpt lat="42.41289" lon="14.1182433"><ele>109.0</ele><time>2026-05-02T07:47:46.089Z</time></trkpt><trkpt lat="42.41278" lon="14.1184017"><ele>108.33333333333334</ele><time>2026-05-02T07:47:47.09Z</time></trkpt><trkpt lat="42.41265" lon="14.1185367"><ele>107.66666666666666</ele><time>2026-05-02T07:47:48.09Z</time></trkpt><trkpt lat="42.4125033" lon="14.1186617"><ele>107.0</ele><time>2026-05-02T07:47:49.089Z</time></trkpt><trkpt lat="42.4123483" lon="14.1187783"><ele>107.0</ele><time>2026-05-02T07:47:50.09Z</time></trkpt><trkpt lat="42.4121883" lon="14.11889"><ele>107.0</ele><time>2026-05-02T07:47:51.089Z</time></trkpt><trkpt lat="42.4120367" lon="14.1189917"><ele>107.0</ele><time>2026-05-02T07:47:52.089Z</time></trkpt><trkpt lat="42.4118833" lon="14.1190933"><ele>105.33333333333333</ele><time>2026-05-02T07:47:53.089Z</time></trkpt><trkpt lat="42.4117267" lon="14.119195"><ele>103.66666666666666</ele><time>2026-05-02T07:47:54.09Z</time></trkpt><trkpt lat="42.41158" lon="14.1192867"><ele>102.0</ele><time>2026-05-02T07:47:55.089Z</time></trkpt><trkpt lat="42.41144" lon="14.11937"><ele>102.25</ele><time>2026-05-02T07:47:56.089Z</time></trkpt><trkpt lat="42.4113083" lon="14.1194567"><ele>102.5</ele><time>2026-05-02T07:47:57.089Z</time></trkpt><trkpt lat="42.4111833" lon="14.1195533"><ele>102.75</ele><time>2026-05-02T07:47:58.089Z</time></trkpt><trkpt lat="42.4110667" lon="14.1196533"><ele>103.0</ele><time>2026-05-02T07:47:59.089Z</time></trkpt><trkpt lat="42.410965" lon="14.119745"><ele>103.00000000000001</ele><time>2026-05-02T07:48:00.09Z</time></trkpt><trkpt lat="42.41088" lon="14.1198333"><ele>103.0</ele><time>2026-05-02T07:48:01.09Z</time></trkpt><trkpt lat="42.4108083" lon="14.1199"><ele>103.0</ele><time>2026-05-02T07:48:02.089Z</time></trkpt><trkpt lat="42.410745" lon="14.1199417"><ele>103.0</ele><time>2026-05-02T07:48:03.089Z</time></trkpt><trkpt lat="42.4106533" lon="14.1199833"><ele>103.00000000000001</ele><time>2026-05-02T07:48:05.09Z</time></trkpt><trkpt lat="42.4105867" lon="14.1200133"><ele>103.0</ele><time>2026-05-02T07:48:07.089Z</time></trkpt><trkpt lat="42.410525" lon="14.1199833"><ele>101.4</ele><time>2026-05-02T07:48:09.089Z</time></trkpt><trkpt lat="42.4104667" lon="14.1199233"><ele>99.80000000000001</ele><time>2026-05-02T07:48:11.09Z</time></trkpt><trkpt lat="42.4103733" lon="14.1198333"><ele>98.2</ele><time>2026-05-02T07:48:13.09Z</time></trkpt><trkpt lat="42.4102983" lon="14.119745"><ele>96.6</ele><time>2026-05-02T07:48:15.09Z</time></trkpt><trkpt lat="42.4102467" lon="14.1196417"><ele>95.0</ele><time>2026-05-02T07:48:17.089Z</time></trkpt><trkpt lat="42.4101767" lon="14.1194833"><ele>94.8</ele><time>2026-05-02T07:48:19.09Z</time></trkpt><trkpt lat="42.4101217" lon="14.1193767"><ele>94.6</ele><time>2026-05-02T07:48:20.09Z</time></trkpt><trkpt lat="42.4100617" lon="14.11928"><ele>94.4</ele><time>2026-05-02T07:48:21.089Z</time></trkpt><trkpt lat="42.4099967" lon="14.1191817"><ele>94.2</ele><time>2026-05-02T07:48:22.089Z</time></trkpt><trkpt lat="42.4099067" lon="14.11909"><ele>94.0</ele><time>2026-05-02T07:48:23.09Z</time></trkpt><trkpt lat="42.4098133" lon="14.119015"><ele>94.4</ele><time>2026-05-02T07:48:24.09Z</time></trkpt><trkpt lat="42.4097317" lon="14.1189483"><ele>94.80000000000001</ele><time>2026-05-02T07:48:25.09Z</time></trkpt><trkpt lat="42.409645" lon="14.118875"><ele>95.19999999999999</ele><time>2026-05-02T07:48:26.089Z</time></trkpt><trkpt lat="42.40955" lon="14.1188067"><ele>95.6</ele><time>2026-05-02T07:48:27.09Z</time></trkpt><trkpt lat="42.4094617" lon="14.1187417"><ele>96.0</ele><time>2026-05-02T07:48:28.089Z</time></trkpt><trkpt lat="42.40938" lon="14.1186767"><ele>94.0</ele><time>2026-05-02T07:48:29.089Z</time></trkpt><trkpt lat="42.4092917" lon="14.1186217"><ele>92.0</ele><time>2026-05-02T07:48:30.089Z</time></trkpt><trkpt lat="42.40922" lon="14.11857"><ele>90.0</ele><time>2026-05-02T07:48:31.09Z</time></trkpt><trkpt lat="42.40915" lon="14.11851"><ele>88.0</ele><time>2026-05-02T07:48:32.089Z</time></trkpt><trkpt lat="42.4090783" lon="14.118435"><ele>86.0</ele><time>2026-05-02T07:48:33.09Z</time></trkpt><trkpt lat="42.4090233" lon="14.1183583"><ele>84.0</ele><time>2026-05-02T07:48:34.09Z</time></trkpt><trkpt lat="42.408975" lon="14.1182783"><ele>82.60000000000001</ele><time>2026-05-02T07:48:35.089Z</time></trkpt><trkpt lat="42.408935" lon="14.1181867"><ele>81.2</ele><time>2026-05-02T07:48:36.089Z</time></trkpt><trkpt lat="42.4088917" lon="14.1180733"><ele>79.80000000000001</ele><time>2026-05-02T07:48:37.09Z</time></trkpt><trkpt lat="42.4088333" lon="14.11792"><ele>78.4</ele><time>2026-05-02T07:48:38.09Z</time></trkpt><trkpt lat="42.40878" lon="14.11777"><ele>77.0</ele><time>2026-05-02T07:48:39.089Z</time></trkpt><trkpt lat="42.408745" lon="14.117645"><ele>76.8</ele><time>2026-05-02T07:48:40.089Z</time></trkpt><trkpt lat="42.4087067" lon="14.1175417"><ele>76.6</ele><time>2026-05-02T07:48:41.09Z</time></trkpt><trkpt lat="42.40867" lon="14.1174483"><ele>76.39999999999999</ele><time>2026-05-02T07:48:42.09Z</time></trkpt><trkpt lat="42.4085983" lon="14.1173183"><ele>76.2</ele><time>2026-05-02T07:48:44.09Z</time></trkpt><trkpt lat="42.4085" lon="14.11721"><ele>76.0</ele><time>2026-05-02T07:48:46.09Z</time></trkpt><trkpt lat="42.40842" lon="14.11713"><ele>77.25</ele><time>2026-05-02T07:48:47.09Z</time></trkpt><trkpt lat="42.4083233" lon="14.117025"><ele>78.5</ele><time>2026-05-02T07:48:48.09Z</time></trkpt><trkpt lat="42.40822" lon="14.1169117"><ele>79.75</ele><time>2026-05-02T07:48:49.09Z</time></trkpt><trkpt lat="42.4081317" lon="14.1168117"><ele>81.0</ele><time>2026-05-02T07:48:50.09Z</time></trkpt><trkpt lat="42.4080317" lon="14.11673"><ele>83.75</ele><time>2026-05-02T07:48:51.089Z</time></trkpt><trkpt lat="42.4079233" lon="14.1166683"><ele>86.5</ele><time>2026-05-02T07:48:52.089Z</time></trkpt><trkpt lat="42.407825" lon="14.1166183"><ele>89.25</ele><time>2026-05-02T07:48:53.089Z</time></trkpt><trkpt lat="42.4077083" lon="14.1165483"><ele>92.0</ele><time>2026-05-02T07:48:54.089Z</time></trkpt><trkpt lat="42.4075817" lon="14.1164917"><ele>92.75</ele><time>2026-05-02T07:48:55.09Z</time></trkpt><trkpt lat="42.4074533" lon="14.116435"><ele>93.5</ele><time>2026-05-02T07:48:56.09Z</time></trkpt><trkpt lat="42.4073267" lon="14.1163933"><ele>94.25</ele><time>2026-05-02T07:48:57.09Z</time></trkpt><trkpt lat="42.4072017" lon="14.1163467"><ele>95.0</ele><time>2026-05-02T07:48:58.09Z</time></trkpt><trkpt lat="42.4070933" lon="14.1163183"><ele>96.6</ele><time>2026-05-02T07:48:59.09Z</time></trkpt><trkpt lat="42.4070183" lon="14.1163067"><ele>98.2</ele><time>2026-05-02T07:49:00.089Z</time></trkpt><trkpt lat="42.4069467" lon="14.1162733"><ele>99.80000000000001</ele><time>2026-05-02T07:49:01.09Z</time></trkpt><trkpt lat="42.4068617" lon="14.1162183"><ele>101.4</ele><time>2026-05-02T07:49:02.09Z</time></trkpt><trkpt lat="42.4067533" lon="14.1161317"><ele>103.0</ele><time>2026-05-02T07:49:03.09Z</time></trkpt><trkpt lat="42.4066217" lon="14.11602"><ele>103.0</ele><time>2026-05-02T07:49:04.09Z</time></trkpt><trkpt lat="42.4064767" lon="14.1159133"><ele>103.0</ele><time>2026-05-02T07:49:05.089Z</time></trkpt><trkpt lat="42.4063417" lon="14.1158183"><ele>103.0</ele><time>2026-05-02T07:49:06.09Z</time></trkpt><trkpt lat="42.40621" lon="14.11573"><ele>104.2</ele><time>2026-05-02T07:49:07.09Z</time></trkpt><trkpt lat="42.40609" lon="14.1156367"><ele>105.4</ele><time>2026-05-02T07:49:08.089Z</time></trkpt><trkpt lat="42.4059867" lon="14.11555"><ele>106.60000000000001</ele><time>2026-05-02T07:49:09.089Z</time></trkpt><trkpt lat="42.4059033" lon="14.1155033"><ele>107.80000000000001</ele><time>2026-05-02T07:49:10.089Z</time></trkpt><trkpt lat="42.40584" lon="14.115465"><ele>109.0</ele><time>2026-05-02T07:49:11.089Z</time></trkpt><trkpt lat="42.405725" lon="14.11545"><ele>109.00000000000001</ele><time>2026-05-02T07:49:13.089Z</time></trkpt><trkpt lat="42.4056483" lon="14.1154583"><ele>109.0</ele><time>2026-05-02T07:49:14.089Z</time></trkpt><trkpt lat="42.40557" lon="14.1154883"><ele>109.0</ele><time>2026-05-02T07:49:15.09Z</time></trkpt><trkpt lat="42.4055117" lon="14.115535"><ele>109.0</ele><time>2026-05-02T07:49:16.089Z</time></trkpt><trkpt lat="42.405465" lon="14.1156033"><ele>109.00000000000001</ele><time>2026-05-02T07:49:17.089Z</time></trkpt><trkpt lat="42.4054267" lon="14.1156933"><ele>109.0</ele><time>2026-05-02T07:49:18.09Z</time></trkpt><trkpt lat="42.4053817" lon="14.115805"><ele>107.25</ele><time>2026-05-02T07:49:19.089Z</time></trkpt><trkpt lat="42.4053217" lon="14.1159317"><ele>105.5</ele><time>2026-05-02T07:49:20.09Z</time></trkpt><trkpt lat="42.405235" lon="14.1160683"><ele>103.75</ele><time>2026-05-02T07:49:21.089Z</time></trkpt><trkpt lat="42.4051333" lon="14.1162133"><ele>102.0</ele><time>2026-05-02T07:49:22.09Z</time></trkpt><trkpt lat="42.4050067" lon="14.116385"><ele>99.33333333333333</ele><time>2026-05-02T07:49:23.089Z</time></trkpt><trkpt lat="42.4048617" lon="14.1165817"><ele>96.66666666666666</ele><time>2026-05-02T07:49:24.089Z</time></trkpt><trkpt lat="42.4046933" lon="14.1167767"><ele>94.0</ele><time>2026-05-02T07:49:25.089Z</time></trkpt><trkpt lat="42.4045133" lon="14.1169783"><ele>92.0</ele><time>2026-05-02T07:49:26.09Z</time></trkpt><trkpt lat="42.4043283" lon="14.117195"><ele>90.0</ele><time>2026-05-02T07:49:27.09Z</time></trkpt><trkpt lat="42.404155" lon="14.1174133"><ele>88.33333333333333</ele><time>2026-05-02T07:49:28.09Z</time></trkpt><trkpt lat="42.403995" lon="14.117595"><ele>86.66666666666666</ele><time>2026-05-02T07:49:29.09Z</time></trkpt><trkpt lat="42.4038483" lon="14.11777"><ele>85.0</ele><time>2026-05-02T07:49:30.089Z</time></trkpt><trkpt lat="42.40371" lon="14.1179333"><ele>84.0</ele><time>2026-05-02T07:49:31.089Z</time></trkpt><trkpt lat="42.40359" lon="14.11809"><ele>83.0</ele><time>2026-05-02T07:49:32.089Z</time></trkpt><trkpt lat="42.4034567" lon="14.1182567"><ele>82.0</ele><time>2026-05-02T07:49:33.089Z</time></trkpt><trkpt lat="42.4033133" lon="14.1184233"><ele>81.33333333333333</ele><time>2026-05-02T07:49:34.09Z</time></trkpt><trkpt lat="42.4031833" lon="14.11858"><ele>80.66666666666667</ele><time>2026-05-02T07:49:35.09Z</time></trkpt><trkpt lat="42.403065" lon="14.118735"><ele>80.0</ele><time>2026-05-02T07:49:36.089Z</time></trkpt><trkpt lat="42.4029467" lon="14.1188867"><ele>79.75</ele><time>2026-05-02T07:49:37.089Z</time></trkpt><trkpt lat="42.40283" lon="14.1190383"><ele>79.5</ele><time>2026-05-02T07:49:38.09Z</time></trkpt><trkpt lat="42.40272" lon="14.119175"><ele>79.25</ele><time>2026-05-02T07:49:39.09Z</time></trkpt><trkpt lat="42.40262" lon="14.11929"><ele>79.0</ele><time>2026-05-02T07:49:40.089Z</time></trkpt><trkpt lat="42.4025283" lon="14.119395"><ele>78.2</ele><time>2026-05-02T07:49:41.089Z</time></trkpt><trkpt lat="42.4024417" lon="14.1194883"><ele>77.4</ele><time>2026-05-02T07:49:42.09Z</time></trkpt><trkpt lat="42.40236" lon="14.11956"><ele>76.6</ele><time>2026-05-02T07:49:43.089Z</time></trkpt><trkpt lat="42.4022933" lon="14.1196167"><ele>75.8</ele><time>2026-05-02T07:49:44.09Z</time></trkpt><trkpt lat="42.40222" lon="14.1196817"><ele>75.0</ele><time>2026-05-02T07:49:46.089Z</time></trkpt><trkpt lat="42.402155" lon="14.119745"><ele>74.6</ele><time>2026-05-02T07:49:48.089Z</time></trkpt><trkpt lat="42.4020767" lon="14.1198"><ele>74.2</ele><time>2026-05-02T07:49:51.09Z</time></trkpt><trkpt lat="42.4020083" lon="14.1198917"><ele>73.8</ele><time>2026-05-02T07:49:53.09Z</time></trkpt><trkpt lat="42.40194" lon="14.119955"><ele>73.4</ele><time>2026-05-02T07:49:54.09Z</time></trkpt><trkpt lat="42.4018417" lon="14.1200483"><ele>73.0</ele><time>2026-05-02T07:49:55.089Z</time></trkpt><trkpt lat="42.40172" lon="14.120165"><ele>71.5</ele><time>2026-05-02T07:49:56.09Z</time></trkpt><trkpt lat="42.4016033" lon="14.1202617"><ele>70.0</ele><time>2026-05-02T07:49:57.09Z</time></trkpt><trkpt lat="42.40148" lon="14.1203633"><ele>68.5</ele><time>2026-05-02T07:49:58.09Z</time></trkpt><trkpt lat="42.40137" lon="14.1204583"><ele>67.0</ele><time>2026-05-02T07:49:59.09Z</time></trkpt><trkpt lat="42.401275" lon="14.1205383"><ele>66.66666666666666</ele><time>2026-05-02T07:50:00.09Z</time></trkpt><trkpt lat="42.4012" lon="14.120605"><ele>66.33333333333333</ele><time>2026-05-02T07:50:01.09Z</time></trkpt><trkpt lat="42.40113" lon="14.1206683"><ele>66.0</ele><time>2026-05-02T07:50:02.089Z</time></trkpt><trkpt lat="42.401055" lon="14.120735"><ele>65.66666666666667</ele><time>2026-05-02T07:50:03.09Z</time></trkpt><trkpt lat="42.40098" lon="14.1208033"><ele>65.33333333333334</ele><time>2026-05-02T07:50:04.09Z</time></trkpt><trkpt lat="42.4009083" lon="14.120875"><ele>65.0</ele><time>2026-05-02T07:50:05.09Z</time></trkpt><trkpt lat="42.4008317" lon="14.12095"><ele>64.75</ele><time>2026-05-02T07:50:06.089Z</time></trkpt><trkpt lat="42.4007417" lon="14.1210417"><ele>64.5</ele><time>2026-05-02T07:50:07.089Z</time></trkpt><trkpt lat="42.40064" lon="14.12115"><ele>64.25</ele><time>2026-05-02T07:50:08.089Z</time></trkpt><trkpt lat="42.40052" lon="14.1212717"><ele>64.0</ele><time>2026-05-02T07:50:09.089Z</time></trkpt><trkpt lat="42.4003883" lon="14.1213767"><ele>63.25</ele><time>2026-05-02T07:50:10.09Z</time></trkpt><trkpt lat="42.4002633" lon="14.1214817"><ele>62.5</ele><time>2026-05-02T07:50:11.09Z</time></trkpt><trkpt lat="42.4001483" lon="14.1215933"><ele>61.75</ele><time>2026-05-02T07:50:12.09Z</time></trkpt><trkpt lat="42.4000617" lon="14.12172"><ele>61.0</ele><time>2026-05-02T07:50:13.089Z</time></trkpt><trkpt lat="42.399995" lon="14.12188"><ele>61.0</ele><time>2026-05-02T07:50:14.089Z</time></trkpt><trkpt lat="42.3999267" lon="14.1220733"><ele>61.0</ele><time>2026-05-02T07:50:15.09Z</time></trkpt><trkpt lat="42.3998483" lon="14.122275"><ele>61.0</ele><time>2026-05-02T07:50:16.089Z</time></trkpt><trkpt lat="42.399785" lon="14.1224467"><ele>61.0</ele><time>2026-05-02T07:50:17.09Z</time></trkpt><trkpt lat="42.3997283" lon="14.1225967"><ele>60.99999999999999</ele><time>2026-05-02T07:50:18.09Z</time></trkpt><trkpt lat="42.3997" lon="14.1227267"><ele>60.99999999999999</ele><time>2026-05-02T07:50:19.089Z</time></trkpt><trkpt lat="42.3997017" lon="14.122875"><ele>61.0</ele><time>2026-05-02T07:50:20.089Z</time></trkpt><trkpt lat="42.3997183" lon="14.123025"><ele>61.0</ele><time>2026-05-02T07:50:21.09Z</time></trkpt><trkpt lat="42.3997367" lon="14.1231683"><ele>61.0</ele><time>2026-05-02T07:50:22.089Z</time></trkpt><trkpt lat="42.399745" lon="14.123295"><ele>61.0</ele><time>2026-05-02T07:50:23.089Z</time></trkpt><trkpt lat="42.3997217" lon="14.1234267"><ele>61.0</ele><time>2026-05-02T07:50:24.089Z</time></trkpt><trkpt lat="42.399675" lon="14.123595"><ele>61.0</ele><time>2026-05-02T07:50:25.09Z</time></trkpt><trkpt lat="42.39961" lon="14.12379"><ele>58.666666666666664</ele><time>2026-05-02T07:50:26.089Z</time></trkpt><trkpt lat="42.3995217" lon="14.1240033"><ele>56.33333333333333</ele><time>2026-05-02T07:50:27.09Z</time></trkpt><trkpt lat="42.3994183" lon="14.1242383"><ele>54.0</ele><time>2026-05-02T07:50:28.089Z</time></trkpt><trkpt lat="42.39931" lon="14.124475"><ele>53.33333333333333</ele><time>2026-05-02T07:50:29.09Z</time></trkpt><trkpt lat="42.3992083" lon="14.12468"><ele>52.666666666666664</ele><time>2026-05-02T07:50:30.09Z</time></trkpt><trkpt lat="42.3991" lon="14.1248633"><ele>52.0</ele><time>2026-05-02T07:50:31.089Z</time></trkpt><trkpt lat="42.399005" lon="14.12502"><ele>51.75</ele><time>2026-05-02T07:50:32.09Z</time></trkpt><trkpt lat="42.3989117" lon="14.1251617"><ele>51.5</ele><time>2026-05-02T07:50:33.09Z</time></trkpt><trkpt lat="42.3988167" lon="14.1252667"><ele>51.25</ele><time>2026-05-02T07:50:34.089Z</time></trkpt><trkpt lat="42.39871" lon="14.125335"><ele>51.0</ele><time>2026-05-02T07:50:35.089Z</time></trkpt><trkpt lat="42.398595" lon="14.125365"><ele>49.5</ele><time>2026-05-02T07:50:36.089Z</time></trkpt><trkpt lat="42.3984567" lon="14.1253717"><ele>48.0</ele><time>2026-05-02T07:50:37.09Z</time></trkpt><trkpt lat="42.3983167" lon="14.1253567"><ele>46.5</ele><time>2026-05-02T07:50:38.09Z</time></trkpt><trkpt lat="42.3981933" lon="14.1253217"><ele>45.0</ele><time>2026-05-02T07:50:39.09Z</time></trkpt><trkpt lat="42.398085" lon="14.1252917"><ele>45.25</ele><time>2026-05-02T07:50:40.09Z</time></trkpt><trkpt lat="42.3979733" lon="14.125295"><ele>45.5</ele><time>2026-05-02T07:50:41.09Z</time></trkpt><trkpt lat="42.3978617" lon="14.1253367"><ele>45.75</ele><time>2026-05-02T07:50:42.09Z</time></trkpt><trkpt lat="42.3977717" lon="14.1254267"><ele>46.0</ele><time>2026-05-02T07:50:43.09Z</time></trkpt><trkpt lat="42.3976983" lon="14.1255633"><ele>46.0</ele><time>2026-05-02T07:50:44.089Z</time></trkpt><trkpt lat="42.3976333" lon="14.1257233"><ele>46.0</ele><time>2026-05-02T07:50:45.089Z</time></trkpt><trkpt lat="42.3975617" lon="14.12587"><ele>46.0</ele><time>2026-05-02T07:50:46.089Z</time></trkpt><trkpt lat="42.3974767" lon="14.1259783"><ele>46.0</ele><time>2026-05-02T07:50:47.09Z</time></trkpt><trkpt lat="42.3973867" lon="14.126055"><ele>46.8</ele><time>2026-05-02T07:50:48.089Z</time></trkpt><trkpt lat="42.3973" lon="14.1261"><ele>47.599999999999994</ele><time>2026-05-02T07:50:49.09Z</time></trkpt><trkpt lat="42.3972133" lon="14.1261367"><ele>48.4</ele><time>2026-05-02T07:50:50.089Z</time></trkpt><trkpt lat="42.3971117" lon="14.1261817"><ele>49.2</ele><time>2026-05-02T07:50:51.089Z</time></trkpt><trkpt lat="42.3969983" lon="14.1262317"><ele>50.0</ele><time>2026-05-02T07:50:52.09Z</time></trkpt><trkpt lat="42.39688" lon="14.12628"><ele>51.0</ele><time>2026-05-02T07:50:53.09Z</time></trkpt><trkpt lat="42.3967533" lon="14.1263367"><ele>52.0</ele><time>2026-05-02T07:50:54.089Z</time></trkpt><trkpt lat="42.39662" lon="14.1264033"><ele>53.0</ele><time>2026-05-02T07:50:55.089Z</time></trkpt><trkpt lat="42.3964933" lon="14.1264583"><ele>54.0</ele><time>2026-05-02T07:50:56.09Z</time></trkpt><trkpt lat="42.3963733" lon="14.1265033"><ele>54.0</ele><time>2026-05-02T07:50:57.089Z</time></trkpt><trkpt lat="42.3962367" lon="14.1265417"><ele>54.0</ele><time>2026-05-02T07:50:58.089Z</time></trkpt><trkpt lat="42.39608" lon="14.126575"><ele>54.0</ele><time>2026-05-02T07:50:59.089Z</time></trkpt><trkpt lat="42.3959083" lon="14.1266117"><ele>54.0</ele><time>2026-05-02T07:51:00.09Z</time></trkpt><trkpt lat="42.3957217" lon="14.1266533"><ele>54.0</ele><time>2026-05-02T07:51:01.09Z</time></trkpt><trkpt lat="42.3955233" lon="14.1267067"><ele>54.0</ele><time>2026-05-02T07:51:02.089Z</time></trkpt><trkpt lat="42.3953233" lon="14.12675"><ele>54.0</ele><time>2026-05-02T07:51:03.09Z</time></trkpt><trkpt lat="42.39511" lon="14.126785"><ele>54.0</ele><time>2026-05-02T07:51:04.09Z</time></trkpt><trkpt lat="42.39488" lon="14.1268233"><ele>54.0</ele><time>2026-05-02T07:51:05.09Z</time></trkpt><trkpt lat="42.39464" lon="14.1268717"><ele>55.0</ele><time>2026-05-02T07:51:06.09Z</time></trkpt><trkpt lat="42.3944083" lon="14.1269233"><ele>56.0</ele><time>2026-05-02T07:51:07.09Z</time></trkpt><trkpt lat="42.3942" lon="14.126965"><ele>57.0</ele><time>2026-05-02T07:51:08.089Z</time></trkpt><trkpt lat="42.3940133" lon="14.1270033"><ele>57.0</ele><time>2026-05-02T07:51:09.09Z</time></trkpt><trkpt lat="42.393855" lon="14.1270533"><ele>57.0</ele><time>2026-05-02T07:51:10.089Z</time></trkpt><trkpt lat="42.393695" lon="14.1271283"><ele>57.0</ele><time>2026-05-02T07:51:11.09Z</time></trkpt><trkpt lat="42.393535" lon="14.1272417"><ele>56.33333333333333</ele><time>2026-05-02T07:51:12.089Z</time></trkpt><trkpt lat="42.39338" lon="14.1273883"><ele>55.666666666666664</ele><time>2026-05-02T07:51:13.089Z</time></trkpt><trkpt lat="42.3932133" lon="14.127565"><ele>55.0</ele><time>2026-05-02T07:51:14.09Z</time></trkpt><trkpt lat="42.3930367" lon="14.127765"><ele>54.5</ele><time>2026-05-02T07:51:15.089Z</time></trkpt><trkpt lat="42.3928617" lon="14.1279717"><ele>54.0</ele><time>2026-05-02T07:51:16.09Z</time></trkpt><trkpt lat="42.3926883" lon="14.1282"><ele>54.0</ele><time>2026-05-02T07:51:17.089Z</time></trkpt><trkpt lat="42.3925217" lon="14.128425"><ele>54.0</ele><time>2026-05-02T07:51:18.089Z</time></trkpt><trkpt lat="42.3923733" lon="14.128635"><ele>54.0</ele><time>2026-05-02T07:51:19.089Z</time></trkpt><trkpt lat="42.392235" lon="14.1288367"><ele>54.0</ele><time>2026-05-02T07:51:20.089Z</time></trkpt><trkpt lat="42.3921133" lon="14.1290083"><ele>54.0</ele><time>2026-05-02T07:51:21.09Z</time></trkpt><trkpt lat="42.3920067" lon="14.1291567"><ele>54.2</ele><time>2026-05-02T07:51:22.09Z</time></trkpt><trkpt lat="42.3919067" lon="14.1292933"><ele>54.400000000000006</ele><time>2026-05-02T07:51:23.089Z</time></trkpt><trkpt lat="42.39182" lon="14.1294017"><ele>54.6</ele><time>2026-05-02T07:51:24.09Z</time></trkpt><trkpt lat="42.3917383" lon="14.12948"><ele>54.8</ele><time>2026-05-02T07:51:25.089Z</time></trkpt><trkpt lat="42.3916583" lon="14.1295333"><ele>55.0</ele><time>2026-05-02T07:51:26.09Z</time></trkpt><trkpt lat="42.391565" lon="14.1295533"><ele>55.0</ele><time>2026-05-02T07:51:27.09Z</time></trkpt><trkpt lat="42.3914667" lon="14.129535"><ele>55.0</ele><time>2026-05-02T07:51:28.089Z</time></trkpt><trkpt lat="42.3913733" lon="14.1294933"><ele>55.0</ele><time>2026-05-02T07:51:29.089Z</time></trkpt><trkpt lat="42.3912617" lon="14.129455"><ele>55.0</ele><time>2026-05-02T07:51:30.09Z</time></trkpt><trkpt lat="42.3911517" lon="14.1294233"><ele>55.0</ele><time>2026-05-02T07:51:31.089Z</time></trkpt><trkpt lat="42.3910267" lon="14.1294117"><ele>50.666666666666664</ele><time>2026-05-02T07:51:32.09Z</time></trkpt><trkpt lat="42.390885" lon="14.12942"><ele>46.33333333333333</ele><time>2026-05-02T07:51:33.09Z</time></trkpt><trkpt lat="42.3907033" lon="14.129485"><ele>42.0</ele><time>2026-05-02T07:51:34.089Z</time></trkpt><trkpt lat="42.3905117" lon="14.1295567"><ele>38.0</ele><time>2026-05-02T07:51:35.089Z</time></trkpt><trkpt lat="42.39032" lon="14.1296367"><ele>34.0</ele><time>2026-05-02T07:51:36.09Z</time></trkpt><trkpt lat="42.3901433" lon="14.129705"><ele>30.0</ele><time>2026-05-02T07:51:37.09Z</time></trkpt><trkpt lat="42.38999" lon="14.1297667"><ele>30.0</ele><time>2026-05-02T07:51:38.09Z</time></trkpt><trkpt lat="42.38986" lon="14.1298167"><ele>30.0</ele><time>2026-05-02T07:51:39.089Z</time></trkpt><trkpt lat="42.3897467" lon="14.1298617"><ele>30.0</ele><time>2026-05-02T07:51:40.09Z</time></trkpt><trkpt lat="42.38966" lon="14.12989"><ele>30.0</ele><time>2026-05-02T07:51:41.09Z</time></trkpt><trkpt lat="42.389595" lon="14.129905"><ele>30.0</ele><time>2026-05-02T07:51:42.089Z</time></trkpt><trkpt lat="42.3895233" lon="14.12991"><ele>30.0</ele><time>2026-05-02T07:51:44.089Z</time></trkpt><trkpt lat="42.3894483" lon="14.12994"><ele>30.0</ele><time>2026-05-02T07:51:46.089Z</time></trkpt><trkpt lat="42.389395" lon="14.1299967"><ele>30.0</ele><time>2026-05-02T07:51:47.089Z</time></trkpt><trkpt lat="42.3893283" lon="14.13008"><ele>30.0</ele><time>2026-05-02T07:51:48.09Z</time></trkpt><trkpt lat="42.38925" lon="14.130165"><ele>30.0</ele><time>2026-05-02T07:51:49.09Z</time></trkpt><trkpt lat="42.3891633" lon="14.1302483"><ele>30.0</ele><time>2026-05-02T07:51:50.089Z</time></trkpt><trkpt lat="42.3890617" lon="14.130335"><ele>30.0</ele><time>2026-05-02T07:51:51.089Z</time></trkpt><trkpt lat="42.3889467" lon="14.1304267"><ele>30.0</ele><time>2026-05-02T07:51:52.09Z</time></trkpt><trkpt lat="42.3888467" lon="14.1305033"><ele>30.0</ele><time>2026-05-02T07:51:53.089Z</time></trkpt><trkpt lat="42.3887533" lon="14.13057"><ele>30.0</ele><time>2026-05-02T07:51:54.089Z</time></trkpt><trkpt lat="42.38868" lon="14.1306217"><ele>30.0</ele><time>2026-05-02T07:51:55.089Z</time></trkpt><trkpt lat="42.3885933" lon="14.1306917"><ele>30.0</ele><time>2026-05-02T07:51:57.09Z</time></trkpt><trkpt lat="42.38849" lon="14.1307"><ele>30.0</ele><time>2026-05-02T07:52:00.09Z</time></trkpt><trkpt lat="42.3883733" lon="14.13064"><ele>30.0</ele><time>2026-05-02T07:52:02.089Z</time></trkpt><trkpt lat="42.3883167" lon="14.1306"><ele>30.0</ele><time>2026-05-02T07:52:03.089Z</time></trkpt><trkpt lat="42.3882583" lon="14.1305517"><ele>30.0</ele><time>2026-05-02T07:52:04.089Z</time></trkpt><trkpt lat="42.3881983" lon="14.1305033"><ele>30.0</ele><time>2026-05-02T07:52:05.089Z</time></trkpt><trkpt lat="42.388105" lon="14.1304217"><ele>30.0</ele><time>2026-05-02T07:52:07.089Z</time></trkpt><trkpt lat="42.388015" lon="14.13038"><ele>30.0</ele><time>2026-05-02T07:52:09.089Z</time></trkpt><trkpt lat="42.38788" lon="14.1303467"><ele>30.0</ele><time>2026-05-02T07:52:11.09Z</time></trkpt><trkpt lat="42.3877983" lon="14.1303017"><ele>30.0</ele><time>2026-05-02T07:52:12.089Z</time></trkpt><trkpt lat="42.387705" lon="14.1302367"><ele>30.0</ele><time>2026-05-02T07:52:13.089Z</time></trkpt><trkpt lat="42.387625" lon="14.1301433"><ele>30.4</ele><time>2026-05-02T07:52:14.09Z</time></trkpt><trkpt lat="42.38754" lon="14.130055"><ele>30.8</ele><time>2026-05-02T07:52:15.09Z</time></trkpt><trkpt lat="42.3874583" lon="14.1299917"><ele>31.200000000000003</ele><time>2026-05-02T07:52:16.09Z</time></trkpt><trkpt lat="42.3873817" lon="14.1299267"><ele>31.6</ele><time>2026-05-02T07:52:17.089Z</time></trkpt><trkpt lat="42.3873017" lon="14.1298417"><ele>32.0</ele><time>2026-05-02T07:52:18.09Z</time></trkpt><trkpt lat="42.3872317" lon="14.12977"><ele>32.166666666666664</ele><time>2026-05-02T07:52:19.09Z</time></trkpt><trkpt lat="42.3871667" lon="14.1297"><ele>32.33333333333333</ele><time>2026-05-02T07:52:20.089Z</time></trkpt><trkpt lat="42.3870933" lon="14.1296267"><ele>32.5</ele><time>2026-05-02T07:52:21.089Z</time></trkpt><trkpt lat="42.3870183" lon="14.12957"><ele>32.666666666666664</ele><time>2026-05-02T07:52:22.09Z</time></trkpt><trkpt lat="42.38696" lon="14.12953"><ele>32.833333333333336</ele><time>2026-05-02T07:52:23.09Z</time></trkpt><trkpt lat="42.3868783" lon="14.1295433"><ele>33.0</ele><time>2026-05-02T07:52:25.089Z</time></trkpt><trkpt lat="42.3868083" lon="14.1296833"><ele>33.0</ele><time>2026-05-02T07:52:27.09Z</time></trkpt><trkpt lat="42.386765" lon="14.129785"><ele>33.0</ele><time>2026-05-02T07:52:28.09Z</time></trkpt><trkpt lat="42.3867267" lon="14.12987"><ele>33.0</ele><time>2026-05-02T07:52:29.089Z</time></trkpt><trkpt lat="42.38669" lon="14.1300117"><ele>33.0</ele><time>2026-05-02T07:52:31.09Z</time></trkpt><trkpt lat="42.3867333" lon="14.130155"><ele>33.0</ele><time>2026-05-02T07:52:33.09Z</time></trkpt><trkpt lat="42.3867583" lon="14.1302367"><ele>32.8</ele><time>2026-05-02T07:52:34.089Z</time></trkpt><trkpt lat="42.3867617" lon="14.13038"><ele>32.599999999999994</ele><time>2026-05-02T07:52:36.09Z</time></trkpt><trkpt lat="42.3866967" lon="14.1305233"><ele>32.400000000000006</ele><time>2026-05-02T07:52:38.089Z</time></trkpt><trkpt lat="42.38666" lon="14.1305933"><ele>32.2</ele><time>2026-05-02T07:52:39.09Z</time></trkpt><trkpt lat="42.3866067" lon="14.13067"><ele>32.0</ele><time>2026-05-02T07:52:41.089Z</time></trkpt><trkpt lat="42.3865217" lon="14.1307033"><ele>32.0</ele><time>2026-05-02T07:52:43.09Z</time></trkpt><trkpt lat="42.386395" lon="14.130685"><ele>32.0</ele><time>2026-05-02T07:52:45.089Z</time></trkpt><trkpt lat="42.3862817" lon="14.1307017"><ele>32.0</ele><time>2026-05-02T07:52:47.089Z</time></trkpt><trkpt lat="42.3861933" lon="14.1307633"><ele>32.0</ele><time>2026-05-02T07:52:49.09Z</time></trkpt><trkpt lat="42.3861033" lon="14.1308233"><ele>32.0</ele><time>2026-05-02T07:52:51.09Z</time></trkpt><trkpt lat="42.3860367" lon="14.1308783"><ele>31.999999999999996</ele><time>2026-05-02T07:52:53.089Z</time></trkpt><trkpt lat="42.3859967" lon="14.13099"><ele>32.0</ele><time>2026-05-02T07:52:54.089Z</time></trkpt><trkpt lat="42.3859467" lon="14.1311167"><ele>32.0</ele><time>2026-05-02T07:52:55.09Z</time></trkpt><trkpt lat="42.385905" lon="14.1312083"><ele>32.0</ele><time>2026-05-02T07:52:56.089Z</time></trkpt><trkpt lat="42.3858233" lon="14.1311967"><ele>31.999999999999996</ele><time>2026-05-02T07:52:58.089Z</time></trkpt><trkpt lat="42.3857733" lon="14.1311267"><ele>32.0</ele><time>2026-05-02T07:52:59.089Z</time></trkpt><trkpt lat="42.3857033" lon="14.1310233"><ele>32.0</ele><time>2026-05-02T07:53:00.09Z</time></trkpt><trkpt lat="42.3856233" lon="14.130915"><ele>32.0</ele><time>2026-05-02T07:53:01.089Z</time></trkpt><trkpt lat="42.385525" lon="14.130805"><ele>32.0</ele><time>2026-05-02T07:53:02.09Z</time></trkpt><trkpt lat="42.3854183" lon="14.130705"><ele>32.0</ele><time>2026-05-02T07:53:03.089Z</time></trkpt><trkpt lat="42.385315" lon="14.1306133"><ele>31.75</ele><time>2026-05-02T07:53:04.09Z</time></trkpt><trkpt lat="42.3852033" lon="14.13052"><ele>31.5</ele><time>2026-05-02T07:53:05.089Z</time></trkpt><trkpt lat="42.3850933" lon="14.1304283"><ele>31.25</ele><time>2026-05-02T07:53:06.089Z</time></trkpt><trkpt lat="42.384995" lon="14.1303533"><ele>31.0</ele><time>2026-05-02T07:53:07.09Z</time></trkpt><trkpt lat="42.3849017" lon="14.1302583"><ele>31.0</ele><time>2026-05-02T07:53:08.089Z</time></trkpt><trkpt lat="42.3847933" lon="14.1301533"><ele>31.0</ele><time>2026-05-02T07:53:09.09Z</time></trkpt><trkpt lat="42.3846667" lon="14.13003"><ele>31.0</ele><time>2026-05-02T07:53:10.09Z</time></trkpt><trkpt lat="42.384535" lon="14.129905"><ele>30.75</ele><time>2026-05-02T07:53:11.09Z</time></trkpt><trkpt lat="42.3844017" lon="14.1297867"><ele>30.5</ele><time>2026-05-02T07:53:12.09Z</time></trkpt><trkpt lat="42.38428" lon="14.1296683"><ele>30.25</ele><time>2026-05-02T07:53:13.089Z</time></trkpt><trkpt lat="42.384175" lon="14.12957"><ele>30.0</ele><time>2026-05-02T07:53:14.089Z</time></trkpt><trkpt lat="42.384085" lon="14.12948"><ele>30.0</ele><time>2026-05-02T07:53:15.089Z</time></trkpt><trkpt lat="42.3840033" lon="14.129395"><ele>30.0</ele><time>2026-05-02T07:53:16.09Z</time></trkpt><trkpt lat="42.383915" lon="14.12932"><ele>30.0</ele><time>2026-05-02T07:53:17.09Z</time></trkpt><trkpt lat="42.3838483" lon="14.1292667"><ele>30.0</ele><time>2026-05-02T07:53:18.089Z</time></trkpt><trkpt lat="42.383785" lon="14.1292267"><ele>30.0</ele><time>2026-05-02T07:53:19.089Z</time></trkpt><trkpt lat="42.383705" lon="14.12917"><ele>30.0</ele><time>2026-05-02T07:53:20.089Z</time></trkpt><trkpt lat="42.3836117" lon="14.12909"><ele>30.0</ele><time>2026-05-02T07:53:21.09Z</time></trkpt><trkpt lat="42.3835267" lon="14.1290083"><ele>30.0</ele><time>2026-05-02T07:53:22.089Z</time></trkpt><trkpt lat="42.383445" lon="14.128935"><ele>30.0</ele><time>2026-05-02T07:53:23.089Z</time></trkpt><trkpt lat="42.38337" lon="14.1288717"><ele>30.0</ele><time>2026-05-02T07:53:24.09Z</time></trkpt><trkpt lat="42.3832817" lon="14.1288283"><ele>30.0</ele><time>2026-05-02T07:53:26.089Z</time></trkpt><trkpt lat="42.3832317" lon="14.1289567"><ele>30.0</ele><time>2026-05-02T07:53:29.09Z</time></trkpt><trkpt lat="42.3832133" lon="14.1290567"><ele>30.0</ele><time>2026-05-02T07:53:30.09Z</time></trkpt><trkpt lat="42.3831883" lon="14.129175"><ele>30.0</ele><time>2026-05-02T07:53:31.09Z</time></trkpt><trkpt lat="42.38316" lon="14.1293117"><ele>30.0</ele><time>2026-05-02T07:53:32.089Z</time></trkpt><trkpt lat="42.3831367" lon="14.1294283"><ele>30.0</ele><time>2026-05-02T07:53:33.089Z</time></trkpt><trkpt lat="42.38311" lon="14.12953"><ele>30.0</ele><time>2026-05-02T07:53:34.089Z</time></trkpt><trkpt lat="42.3830883" lon="14.129635"><ele>30.166666666666668</ele><time>2026-05-02T07:53:35.089Z</time></trkpt><trkpt lat="42.3830667" lon="14.1297367"><ele>30.333333333333336</ele><time>2026-05-02T07:53:36.09Z</time></trkpt><trkpt lat="42.3830367" lon="14.129855"><ele>30.5</ele><time>2026-05-02T07:53:38.09Z</time></trkpt><trkpt lat="42.38307" lon="14.1297817"><ele>30.666666666666668</ele><time>2026-05-02T07:54:04.089Z</time></trkpt><trkpt lat="42.3831117" lon="14.1296233"><ele>30.833333333333336</ele><time>2026-05-02T07:54:06.089Z</time></trkpt><trkpt lat="42.3831317" lon="14.1295283"><ele>31.0</ele><time>2026-05-02T07:54:07.089Z</time></trkpt><trkpt lat="42.3831533" lon="14.1294267"><ele>31.000000000000004</ele><time>2026-05-02T07:54:08.09Z</time></trkpt><trkpt lat="42.3831783" lon="14.1293067"><ele>31.0</ele><time>2026-05-02T07:54:09.089Z</time></trkpt><trkpt lat="42.383205" lon="14.1291817"><ele>31.0</ele><time>2026-05-02T07:54:10.09Z</time></trkpt><trkpt lat="42.3832317" lon="14.129045"><ele>31.0</ele><time>2026-05-02T07:54:11.089Z</time></trkpt><trkpt lat="42.3832633" lon="14.1289383"><ele>31.000000000000004</ele><time>2026-05-02T07:54:12.09Z</time></trkpt><trkpt lat="42.3832833" lon="14.12885"><ele>31.0</ele><time>2026-05-02T07:54:13.09Z</time></trkpt><trkpt lat="42.3833017" lon="14.128765"><ele>31.000000000000004</ele><time>2026-05-02T07:54:15.089Z</time></trkpt><trkpt lat="42.3832217" lon="14.1287167"><ele>31.0</ele><time>2026-05-02T07:54:18.09Z</time></trkpt><trkpt lat="42.383145" lon="14.12871"><ele>31.0</ele><time>2026-05-02T07:54:20.09Z</time></trkpt><trkpt lat="42.3830667" lon="14.1287817"><ele>31.0</ele><time>2026-05-02T07:54:22.09Z</time></trkpt><trkpt lat="42.3830117" lon="14.12883"><ele>31.000000000000004</ele><time>2026-05-02T07:54:23.09Z</time></trkpt><trkpt lat="42.3829083" lon="14.1288667"><ele>31.0</ele><time>2026-05-02T07:54:25.09Z</time></trkpt><trkpt lat="42.3828" lon="14.1288467"><ele>31.0</ele><time>2026-05-02T07:54:27.09Z</time></trkpt><trkpt lat="42.3826883" lon="14.1287933"><ele>31.0</ele><time>2026-05-02T07:54:29.09Z</time></trkpt><trkpt lat="42.382625" lon="14.1287733"><ele>31.0</ele><time>2026-05-02T07:54:30.089Z</time></trkpt><trkpt lat="42.3825283" lon="14.1288033"><ele>31.0</ele><time>2026-05-02T07:54:32.089Z</time></trkpt><trkpt lat="42.3824817" lon="14.1288917"><ele>31.0</ele><time>2026-05-02T07:54:34.09Z</time></trkpt><trkpt lat="42.3824733" lon="14.12903"><ele>30.8</ele><time>2026-05-02T07:54:36.09Z</time></trkpt><trkpt lat="42.3824767" lon="14.12912"><ele>30.6</ele><time>2026-05-02T07:54:37.089Z</time></trkpt><trkpt lat="42.3824783" lon="14.1292083"><ele>30.4</ele><time>2026-05-02T07:54:38.09Z</time></trkpt><trkpt lat="42.38248" lon="14.1293517"><ele>30.2</ele><time>2026-05-02T07:54:40.09Z</time></trkpt><trkpt lat="42.3824433" lon="14.12951"><ele>30.0</ele><time>2026-05-02T07:54:42.089Z</time></trkpt><trkpt lat="42.3824233" lon="14.12963"><ele>30.0</ele><time>2026-05-02T07:54:44.089Z</time></trkpt><trkpt lat="42.3823733" lon="14.12969"><ele>30.0</ele><time>2026-05-02T07:54:46.09Z</time></trkpt><trkpt lat="42.38225" lon="14.1297333"><ele>30.0</ele><time>2026-05-02T07:54:48.09Z</time></trkpt><trkpt lat="42.38217" lon="14.1297483"><ele>30.0</ele><time>2026-05-02T07:54:49.09Z</time></trkpt><trkpt lat="42.3820933" lon="14.1297733"><ele>30.0</ele><time>2026-05-02T07:54:50.09Z</time></trkpt><trkpt lat="42.3820267" lon="14.1297883"><ele>30.0</ele><time>2026-05-02T07:54:51.09Z</time></trkpt><trkpt lat="42.3819567" lon="14.1297967"><ele>28.833333333333332</ele><time>2026-05-02T07:54:52.09Z</time></trkpt><trkpt lat="42.3818633" lon="14.12981"><ele>27.666666666666668</ele><time>2026-05-02T07:54:54.09Z</time></trkpt><trkpt lat="42.3819167" lon="14.1299133"><ele>26.5</ele><time>2026-05-02T07:54:58.09Z</time></trkpt><trkpt lat="42.3819417" lon="14.13003"><ele>25.333333333333336</ele><time>2026-05-02T07:55:00.088Z</time></trkpt><trkpt lat="42.3819467" lon="14.1301267"><ele>24.166666666666668</ele><time>2026-05-02T07:55:02.089Z</time></trkpt><trkpt lat="42.381855" lon="14.130165"><ele>23.0</ele><time>2026-05-02T07:55:05.088Z</time></trkpt><trkpt lat="42.38176" lon="14.1301833"><ele>23.0</ele><time>2026-05-02T07:55:07.088Z</time></trkpt><trkpt lat="42.38166" lon="14.1301417"><ele>23.0</ele><time>2026-05-02T07:55:14.088Z</time></trkpt><trkpt lat="42.3815617" lon="14.130095"><ele>23.0</ele><time>2026-05-02T07:55:16.088Z</time></trkpt><trkpt lat="42.381475" lon="14.13003"><ele>23.0</ele><time>2026-05-02T07:55:18.089Z</time></trkpt><trkpt lat="42.38142" lon="14.12998"><ele>23.0</ele><time>2026-05-02T07:55:19.089Z</time></trkpt><trkpt lat="42.3813533" lon="14.1299183"><ele>22.666666666666668</ele><time>2026-05-02T07:55:20.088Z</time></trkpt><trkpt lat="42.3812867" lon="14.1298617"><ele>22.333333333333336</ele><time>2026-05-02T07:55:21.088Z</time></trkpt><trkpt lat="42.3812167" lon="14.1298133"><ele>22.0</ele><time>2026-05-02T07:55:22.089Z</time></trkpt><trkpt lat="42.381145" lon="14.1297483"><ele>21.666666666666668</ele><time>2026-05-02T07:55:23.088Z</time></trkpt><trkpt lat="42.3810817" lon="14.12968"><ele>21.333333333333332</ele><time>2026-05-02T07:55:24.088Z</time></trkpt><trkpt lat="42.3810133" lon="14.129625"><ele>21.0</ele><time>2026-05-02T07:55:25.089Z</time></trkpt><trkpt lat="42.3809517" lon="14.1295583"><ele>21.0</ele><time>2026-05-02T07:55:26.089Z</time></trkpt><trkpt lat="42.38088" lon="14.129485"><ele>21.0</ele><time>2026-05-02T07:55:27.089Z</time></trkpt><trkpt lat="42.3807983" lon="14.1294233"><ele>21.0</ele><time>2026-05-02T07:55:28.089Z</time></trkpt><trkpt lat="42.380725" lon="14.1293717"><ele>21.0</ele><time>2026-05-02T07:55:29.088Z</time></trkpt><trkpt lat="42.3806483" lon="14.1293133"><ele>21.0</ele><time>2026-05-02T07:55:30.088Z</time></trkpt><trkpt lat="42.3805833" lon="14.1292583"><ele>21.0</ele><time>2026-05-02T07:55:31.088Z</time></trkpt><trkpt lat="42.3805217" lon="14.1292117"><ele>20.833333333333332</ele><time>2026-05-02T07:55:32.089Z</time></trkpt><trkpt lat="42.3804617" lon="14.12916"><ele>20.666666666666668</ele><time>2026-05-02T07:55:33.088Z</time></trkpt><trkpt lat="42.3803983" lon="14.1291067"><ele>20.5</ele><time>2026-05-02T07:55:34.088Z</time></trkpt><trkpt lat="42.3803283" lon="14.1290533"><ele>20.333333333333336</ele><time>2026-05-02T07:55:35.088Z</time></trkpt><trkpt lat="42.380245" lon="14.1290017"><ele>20.166666666666668</ele><time>2026-05-02T07:55:36.088Z</time></trkpt><trkpt lat="42.380175" lon="14.1289483"><ele>20.0</ele><time>2026-05-02T07:55:37.089Z</time></trkpt><trkpt lat="42.3801083" lon="14.1288933"><ele>20.0</ele><time>2026-05-02T07:55:38.088Z</time></trkpt><trkpt lat="42.380035" lon="14.1288533"><ele>20.0</ele><time>2026-05-02T07:55:39.088Z</time></trkpt><trkpt lat="42.3799667" lon="14.1288317"><ele>20.0</ele><time>2026-05-02T07:55:40.088Z</time></trkpt><trkpt lat="42.3798883" lon="14.1288017"><ele>20.0</ele><time>2026-05-02T07:55:41.089Z</time></trkpt><trkpt lat="42.3798167" lon="14.1287767"><ele>20.0</ele><time>2026-05-02T07:55:42.089Z</time></trkpt><trkpt lat="42.3797333" lon="14.12876"><ele>20.0</ele><time>2026-05-02T07:55:43.089Z</time></trkpt><trkpt lat="42.3796417" lon="14.1287417"><ele>20.6</ele><time>2026-05-02T07:55:44.088Z</time></trkpt><trkpt lat="42.3795367" lon="14.1287183"><ele>21.2</ele><time>2026-05-02T07:55:45.088Z</time></trkpt><trkpt lat="42.3794367" lon="14.1286917"><ele>21.799999999999997</ele><time>2026-05-02T07:55:46.089Z</time></trkpt><trkpt lat="42.37936" lon="14.12867"><ele>22.4</ele><time>2026-05-02T07:55:47.088Z</time></trkpt><trkpt lat="42.3792883" lon="14.1286517"><ele>23.0</ele><time>2026-05-02T07:55:48.089Z</time></trkpt><trkpt lat="42.3791867" lon="14.1286317"><ele>23.0</ele><time>2026-05-02T07:55:50.089Z</time></trkpt><trkpt lat="42.379115" lon="14.12866"><ele>23.0</ele><time>2026-05-02T07:55:52.088Z</time></trkpt><trkpt lat="42.37901" lon="14.12864"><ele>23.0</ele><time>2026-05-02T07:55:54.089Z</time></trkpt><trkpt lat="42.3789217" lon="14.1286183"><ele>23.0</ele><time>2026-05-02T07:55:55.089Z</time></trkpt><trkpt lat="42.3788167" lon="14.1286017"><ele>23.0</ele><time>2026-05-02T07:55:56.089Z</time></trkpt><trkpt lat="42.3787017" lon="14.1285867"><ele>23.25</ele><time>2026-05-02T07:55:57.089Z</time></trkpt><trkpt lat="42.378585" lon="14.128565"><ele>23.5</ele><time>2026-05-02T07:55:58.088Z</time></trkpt><trkpt lat="42.3784717" lon="14.128525"><ele>23.75</ele><time>2026-05-02T07:55:59.089Z</time></trkpt><trkpt lat="42.3783517" lon="14.1285017"><ele>24.0</ele><time>2026-05-02T07:56:00.089Z</time></trkpt><trkpt lat="42.3782483" lon="14.1284917"><ele>24.0</ele><time>2026-05-02T07:56:01.088Z</time></trkpt><trkpt lat="42.3781583" lon="14.1284933"><ele>24.0</ele><time>2026-05-02T07:56:02.088Z</time></trkpt><trkpt lat="42.3780583" lon="14.128495"><ele>24.0</ele><time>2026-05-02T07:56:03.089Z</time></trkpt><trkpt lat="42.3779633" lon="14.1284883"><ele>24.0</ele><time>2026-05-02T07:56:04.088Z</time></trkpt><trkpt lat="42.3778817" lon="14.128485"><ele>24.0</ele><time>2026-05-02T07:56:05.088Z</time></trkpt><trkpt lat="42.3778033" lon="14.1284967"><ele>24.0</ele><time>2026-05-02T07:56:06.088Z</time></trkpt><trkpt lat="42.3777283" lon="14.1285133"><ele>24.6</ele><time>2026-05-02T07:56:07.089Z</time></trkpt><trkpt lat="42.3776283" lon="14.1285317"><ele>25.2</ele><time>2026-05-02T07:56:08.088Z</time></trkpt><trkpt lat="42.3775283" lon="14.1285483"><ele>25.800000000000004</ele><time>2026-05-02T07:56:09.088Z</time></trkpt><trkpt lat="42.3774483" lon="14.128555"><ele>26.400000000000002</ele><time>2026-05-02T07:56:10.089Z</time></trkpt><trkpt lat="42.3773683" lon="14.12856"><ele>27.0</ele><time>2026-05-02T07:56:11.088Z</time></trkpt><trkpt lat="42.37728" lon="14.1285633"><ele>26.400000000000002</ele><time>2026-05-02T07:56:12.088Z</time></trkpt><trkpt lat="42.377175" lon="14.1285717"><ele>25.800000000000004</ele><time>2026-05-02T07:56:13.089Z</time></trkpt><trkpt lat="42.3770667" lon="14.1285767"><ele>25.2</ele><time>2026-05-02T07:56:14.089Z</time></trkpt><trkpt lat="42.37696" lon="14.12859"><ele>24.6</ele><time>2026-05-02T07:56:15.089Z</time></trkpt><trkpt lat="42.3768617" lon="14.1286"><ele>24.0</ele><time>2026-05-02T07:56:16.088Z</time></trkpt><trkpt lat="42.3767667" lon="14.1286"><ele>24.0</ele><time>2026-05-02T07:56:17.088Z</time></trkpt><trkpt lat="42.3766817" lon="14.1286"><ele>24.0</ele><time>2026-05-02T07:56:18.088Z</time></trkpt><trkpt lat="42.3766033" lon="14.1285917"><ele>24.0</ele><time>2026-05-02T07:56:19.088Z</time></trkpt><trkpt lat="42.3765367" lon="14.1286033"><ele>24.0</ele><time>2026-05-02T07:56:20.089Z</time></trkpt><trkpt lat="42.3764717" lon="14.128615"><ele>24.0</ele><time>2026-05-02T07:56:21.088Z</time></trkpt><trkpt lat="42.3763783" lon="14.1286317"><ele>24.0</ele><time>2026-05-02T07:56:23.089Z</time></trkpt><trkpt lat="42.3762767" lon="14.1286433"><ele>24.5</ele><time>2026-05-02T07:56:30.088Z</time></trkpt><trkpt lat="42.3762033" lon="14.128625"><ele>25.0</ele><time>2026-05-02T07:56:32.088Z</time></trkpt><trkpt lat="42.3761383" lon="14.1285717"><ele>25.5</ele><time>2026-05-02T07:56:34.088Z</time></trkpt><trkpt lat="42.3760717" lon="14.128515"><ele>26.0</ele><time>2026-05-02T07:56:36.089Z</time></trkpt><trkpt lat="42.3760217" lon="14.128425"><ele>26.5</ele><time>2026-05-02T07:56:38.089Z</time></trkpt><trkpt lat="42.37597" lon="14.1283483"><ele>27.0</ele><time>2026-05-02T07:56:40.089Z</time></trkpt><trkpt lat="42.3759167" lon="14.1282783"><ele>27.5</ele><time>2026-05-02T07:56:42.089Z</time></trkpt><trkpt lat="42.37587" lon="14.128195"><ele>28.0</ele><time>2026-05-02T07:56:44.088Z</time></trkpt><trkpt lat="42.375845" lon="14.1280983"><ele>28.5</ele><time>2026-05-02T07:56:53.088Z</time></trkpt><trkpt lat="42.3758983" lon="14.128025"><ele>29.0</ele><time>2026-05-02T07:56:57.088Z</time></trkpt><trkpt lat="42.3759183" lon="14.1279383"><ele>29.5</ele><time>2026-05-02T07:56:59.089Z</time></trkpt><trkpt lat="42.3759317" lon="14.1278367"><ele>30.0</ele><time>2026-05-02T07:57:01.089Z</time></trkpt><trkpt lat="42.3759633" lon="14.127715"><ele>30.0</ele><time>2026-05-02T07:57:03.089Z</time></trkpt><trkpt lat="42.3759867" lon="14.1276217"><ele>30.0</ele><time>2026-05-02T07:57:04.089Z</time></trkpt><trkpt lat="42.3760167" lon="14.1275133"><ele>30.0</ele><time>2026-05-02T07:57:05.088Z</time></trkpt><trkpt lat="42.376045" lon="14.1273917"><ele>30.0</ele><time>2026-05-02T07:57:06.088Z</time></trkpt><trkpt lat="42.376065" lon="14.1272767"><ele>30.0</ele><time>2026-05-02T07:57:07.089Z</time></trkpt><trkpt lat="42.37609" lon="14.127145"><ele>30.0</ele><time>2026-05-02T07:57:08.089Z</time></trkpt><trkpt lat="42.376115" lon="14.1270367"><ele>29.714285714285715</ele><time>2026-05-02T07:57:09.088Z</time></trkpt><trkpt lat="42.3761417" lon="14.126935"><ele>29.428571428571427</ele><time>2026-05-02T07:57:10.088Z</time></trkpt><trkpt lat="42.3761617" lon="14.12684"><ele>29.142857142857142</ele><time>2026-05-02T07:57:11.089Z</time></trkpt><trkpt lat="42.376175" lon="14.1267483"><ele>28.857142857142858</ele><time>2026-05-02T07:57:12.089Z</time></trkpt><trkpt lat="42.3761917" lon="14.1266633"><ele>28.57142857142857</ele><time>2026-05-02T07:57:13.088Z</time></trkpt><trkpt lat="42.3762033" lon="14.1265683"><ele>28.285714285714285</ele><time>2026-05-02T07:57:14.089Z</time></trkpt><trkpt lat="42.3762167" lon="14.1264733"><ele>28.0</ele><time>2026-05-02T07:57:15.089Z</time></trkpt><trkpt lat="42.3762383" lon="14.1263417"><ele>27.799999999999997</ele><time>2026-05-02T07:57:17.088Z</time></trkpt><trkpt lat="42.3761833" lon="14.1262867"><ele>27.599999999999998</ele><time>2026-05-02T07:57:21.089Z</time></trkpt><trkpt lat="42.3761017" lon="14.12621"><ele>27.400000000000002</ele><time>2026-05-02T07:57:23.088Z</time></trkpt><trkpt lat="42.37598" lon="14.126125"><ele>27.200000000000003</ele><time>2026-05-02T07:57:25.089Z</time></trkpt><trkpt lat="42.3758983" lon="14.126075"><ele>27.0</ele><time>2026-05-02T07:57:26.089Z</time></trkpt><trkpt lat="42.3758133" lon="14.1260333"><ele>27.0</ele><time>2026-05-02T07:57:27.089Z</time></trkpt><trkpt lat="42.37573" lon="14.125995"><ele>27.0</ele><time>2026-05-02T07:57:28.088Z</time></trkpt><trkpt lat="42.3756533" lon="14.1259667"><ele>27.0</ele><time>2026-05-02T07:57:29.088Z</time></trkpt><trkpt lat="42.3755733" lon="14.1259317"><ele>27.0</ele><time>2026-05-02T07:57:30.088Z</time></trkpt><trkpt lat="42.3754967" lon="14.1258933"><ele>27.0</ele><time>2026-05-02T07:57:31.089Z</time></trkpt><trkpt lat="42.37541" lon="14.1258333"><ele>27.0</ele><time>2026-05-02T07:57:33.088Z</time></trkpt><trkpt lat="42.375405" lon="14.125725"><ele>27.0</ele><time>2026-05-02T07:57:37.088Z</time></trkpt><trkpt lat="42.3754483" lon="14.125615"><ele>27.000000000000004</ele><time>2026-05-02T07:57:39.089Z</time></trkpt><trkpt lat="42.3754767" lon="14.1254667"><ele>27.000000000000004</ele><time>2026-05-02T07:57:41.088Z</time></trkpt><trkpt lat="42.37548" lon="14.1253533"><ele>27.0</ele><time>2026-05-02T07:57:42.088Z</time></trkpt><trkpt lat="42.3754767" lon="14.1252133"><ele>27.0</ele><time>2026-05-02T07:57:43.088Z</time></trkpt><trkpt lat="42.3754583" lon="14.125045"><ele>27.8</ele><time>2026-05-02T07:57:44.089Z</time></trkpt><trkpt lat="42.3754267" lon="14.12487"><ele>28.6</ele><time>2026-05-02T07:57:45.088Z</time></trkpt><trkpt lat="42.3754117" lon="14.1247033"><ele>29.400000000000002</ele><time>2026-05-02T07:57:46.089Z</time></trkpt><trkpt lat="42.375405" lon="14.12457"><ele>30.200000000000003</ele><time>2026-05-02T07:57:47.089Z</time></trkpt><trkpt lat="42.3754" lon="14.1244633"><ele>31.0</ele><time>2026-05-02T07:57:48.088Z</time></trkpt><trkpt lat="42.3754633" lon="14.1243417"><ele>32.4</ele><time>2026-05-02T07:57:50.089Z</time></trkpt><trkpt lat="42.3755467" lon="14.1243267"><ele>33.8</ele><time>2026-05-02T07:57:51.088Z</time></trkpt><trkpt lat="42.3756267" lon="14.1243367"><ele>35.199999999999996</ele><time>2026-05-02T07:57:52.089Z</time></trkpt><trkpt lat="42.3757183" lon="14.1243683"><ele>36.6</ele><time>2026-05-02T07:57:53.088Z</time></trkpt><trkpt lat="42.375825" lon="14.1243967"><ele>38.0</ele><time>2026-05-02T07:57:54.089Z</time></trkpt><trkpt lat="42.3759167" lon="14.1244117"><ele>38.0</ele><time>2026-05-02T07:57:55.088Z</time></trkpt><trkpt lat="42.376" lon="14.1244217"><ele>38.0</ele><time>2026-05-02T07:57:56.089Z</time></trkpt><trkpt lat="42.3760817" lon="14.1244367"><ele>38.0</ele><time>2026-05-02T07:57:57.089Z</time></trkpt><trkpt lat="42.3761767" lon="14.1244567"><ele>38.0</ele><time>2026-05-02T07:57:58.088Z</time></trkpt><trkpt lat="42.376275" lon="14.1244783"><ele>38.0</ele><time>2026-05-02T07:57:59.088Z</time></trkpt><trkpt lat="42.3763683" lon="14.1244933"><ele>37.8</ele><time>2026-05-02T07:58:00.089Z</time></trkpt><trkpt lat="42.3764567" lon="14.1245083"><ele>37.599999999999994</ele><time>2026-05-02T07:58:01.088Z</time></trkpt><trkpt lat="42.376535" lon="14.1245083"><ele>37.400000000000006</ele><time>2026-05-02T07:58:02.088Z</time></trkpt><trkpt lat="42.3766233" lon="14.12445"><ele>37.2</ele><time>2026-05-02T07:58:04.089Z</time></trkpt><trkpt lat="42.376645" lon="14.1242917"><ele>37.0</ele><time>2026-05-02T07:58:06.088Z</time></trkpt><trkpt lat="42.3765483" lon="14.1241867"><ele>37.0</ele><time>2026-05-02T07:58:08.089Z</time></trkpt><trkpt lat="42.3764433" lon="14.1241633"><ele>37.0</ele><time>2026-05-02T07:58:09.088Z</time></trkpt><trkpt lat="42.3763217" lon="14.1241333"><ele>37.0</ele><time>2026-05-02T07:58:10.089Z</time></trkpt><trkpt lat="42.3761867" lon="14.1240767"><ele>37.0</ele><time>2026-05-02T07:58:11.089Z</time></trkpt><trkpt lat="42.3760367" lon="14.1240217"><ele>39.0</ele><time>2026-05-02T07:58:12.088Z</time></trkpt><trkpt lat="42.37587" lon="14.1239633"><ele>41.0</ele><time>2026-05-02T07:58:13.089Z</time></trkpt><trkpt lat="42.3757033" lon="14.1238883"><ele>43.0</ele><time>2026-05-02T07:58:14.088Z</time></trkpt><trkpt lat="42.3755283" lon="14.1237817"><ele>41.66666666666667</ele><time>2026-05-02T07:58:15.089Z</time></trkpt><trkpt lat="42.375365" lon="14.123655"><ele>40.333333333333336</ele><time>2026-05-02T07:58:16.088Z</time></trkpt><trkpt lat="42.375195" lon="14.1235233"><ele>39.0</ele><time>2026-05-02T07:58:17.089Z</time></trkpt><trkpt lat="42.37504" lon="14.1234"><ele>39.0</ele><time>2026-05-02T07:58:18.089Z</time></trkpt><trkpt lat="42.3748883" lon="14.12328"><ele>39.0</ele><time>2026-05-02T07:58:19.089Z</time></trkpt><trkpt lat="42.3747683" lon="14.12316"><ele>39.0</ele><time>2026-05-02T07:58:20.089Z</time></trkpt><trkpt lat="42.37464" lon="14.1230683"><ele>39.5</ele><time>2026-05-02T07:58:21.088Z</time></trkpt><trkpt lat="42.3745267" lon="14.1229767"><ele>40.0</ele><time>2026-05-02T07:58:22.089Z</time></trkpt><trkpt lat="42.3744283" lon="14.1229017"><ele>40.5</ele><time>2026-05-02T07:58:23.088Z</time></trkpt><trkpt lat="42.3743417" lon="14.1228283"><ele>41.0</ele><time>2026-05-02T07:58:24.088Z</time></trkpt><trkpt lat="42.3742533" lon="14.122735"><ele>41.0</ele><time>2026-05-02T07:58:25.088Z</time></trkpt><trkpt lat="42.3741667" lon="14.1226433"><ele>41.0</ele><time>2026-05-02T07:58:26.088Z</time></trkpt><trkpt lat="42.3740633" lon="14.122575"><ele>41.0</ele><time>2026-05-02T07:58:27.088Z</time></trkpt><trkpt lat="42.37394" lon="14.1225033"><ele>41.0</ele><time>2026-05-02T07:58:28.089Z</time></trkpt><trkpt lat="42.3737967" lon="14.1224133"><ele>41.0</ele><time>2026-05-02T07:58:29.088Z</time></trkpt><trkpt lat="42.3736433" lon="14.1223"><ele>41.0</ele><time>2026-05-02T07:58:30.089Z</time></trkpt><trkpt lat="42.373475" lon="14.1221683"><ele>41.0</ele><time>2026-05-02T07:58:31.088Z</time></trkpt><trkpt lat="42.37329" lon="14.1220217"><ele>41.0</ele><time>2026-05-02T07:58:32.089Z</time></trkpt><trkpt lat="42.37309" lon="14.121865"><ele>41.0</ele><time>2026-05-02T07:58:33.088Z</time></trkpt><trkpt lat="42.3728883" lon="14.1216917"><ele>41.666666666666664</ele><time>2026-05-02T07:58:34.089Z</time></trkpt><trkpt lat="42.3726967" lon="14.1215533"><ele>42.333333333333336</ele><time>2026-05-02T07:58:35.089Z</time></trkpt><trkpt lat="42.3725217" lon="14.121415"><ele>43.0</ele><time>2026-05-02T07:58:36.088Z</time></trkpt><trkpt lat="42.3723583" lon="14.1212883"><ele>43.0</ele><time>2026-05-02T07:58:37.089Z</time></trkpt><trkpt lat="42.3721917" lon="14.1211717"><ele>43.0</ele><time>2026-05-02T07:58:38.089Z</time></trkpt><trkpt lat="42.3720167" lon="14.1210567"><ele>43.0</ele><time>2026-05-02T07:58:39.088Z</time></trkpt><trkpt lat="42.3718283" lon="14.1209567"><ele>41.333333333333336</ele><time>2026-05-02T07:58:40.089Z</time></trkpt><trkpt lat="42.3716333" lon="14.1208567"><ele>39.666666666666664</ele><time>2026-05-02T07:58:41.089Z</time></trkpt><trkpt lat="42.37142" lon="14.1207667"><ele>38.0</ele><time>2026-05-02T07:58:42.088Z</time></trkpt><trkpt lat="42.3711983" lon="14.1206767"><ele>38.0</ele><time>2026-05-02T07:58:43.089Z</time></trkpt><trkpt lat="42.3709783" lon="14.1205917"><ele>38.0</ele><time>2026-05-02T07:58:44.088Z</time></trkpt><trkpt lat="42.3707383" lon="14.1205233"><ele>37.5</ele><time>2026-05-02T07:58:45.088Z</time></trkpt><trkpt lat="42.370495" lon="14.120475"><ele>37.0</ele><time>2026-05-02T07:58:46.089Z</time></trkpt><trkpt lat="42.3702533" lon="14.1204383"><ele>37.0</ele><time>2026-05-02T07:58:47.089Z</time></trkpt><trkpt lat="42.3700367" lon="14.12041"><ele>37.0</ele><time>2026-05-02T07:58:48.089Z</time></trkpt><trkpt lat="42.36984" lon="14.1203883"><ele>37.0</ele><time>2026-05-02T07:58:49.088Z</time></trkpt><trkpt lat="42.36966" lon="14.1203667"><ele>37.0</ele><time>2026-05-02T07:58:50.089Z</time></trkpt><trkpt lat="42.3694817" lon="14.1203467"><ele>37.0</ele><time>2026-05-02T07:58:51.089Z</time></trkpt><trkpt lat="42.369295" lon="14.120335"><ele>37.0</ele><time>2026-05-02T07:58:52.088Z</time></trkpt><trkpt lat="42.3690933" lon="14.1203233"><ele>37.0</ele><time>2026-05-02T07:58:53.088Z</time></trkpt><trkpt lat="42.36889" lon="14.1202967"><ele>37.0</ele><time>2026-05-02T07:58:54.088Z</time></trkpt><trkpt lat="42.3687" lon="14.1202583"><ele>37.0</ele><time>2026-05-02T07:58:55.088Z</time></trkpt><trkpt lat="42.368515" lon="14.120205"><ele>34.333333333333336</ele><time>2026-05-02T07:58:56.088Z</time></trkpt><trkpt lat="42.36834" lon="14.12013"><ele>31.666666666666664</ele><time>2026-05-02T07:58:57.089Z</time></trkpt><trkpt lat="42.3681583" lon="14.1200333"><ele>29.0</ele><time>2026-05-02T07:58:58.088Z</time></trkpt><trkpt lat="42.3679733" lon="14.11992"><ele>28.666666666666664</ele><time>2026-05-02T07:58:59.089Z</time></trkpt><trkpt lat="42.3677767" lon="14.119795"><ele>28.333333333333336</ele><time>2026-05-02T07:59:00.088Z</time></trkpt><trkpt lat="42.367575" lon="14.1196567"><ele>28.0</ele><time>2026-05-02T07:59:01.088Z</time></trkpt><trkpt lat="42.36737" lon="14.1195167"><ele>27.5</ele><time>2026-05-02T07:59:02.089Z</time></trkpt><trkpt lat="42.3671667" lon="14.11938"><ele>27.0</ele><time>2026-05-02T07:59:03.088Z</time></trkpt><trkpt lat="42.3669567" lon="14.11924"><ele>27.0</ele><time>2026-05-02T07:59:04.089Z</time></trkpt><trkpt lat="42.3667467" lon="14.1190917"><ele>27.0</ele><time>2026-05-02T07:59:05.089Z</time></trkpt><trkpt lat="42.3665417" lon="14.1189467"><ele>27.5</ele><time>2026-05-02T07:59:06.088Z</time></trkpt><trkpt lat="42.3663333" lon="14.1188083"><ele>28.0</ele><time>2026-05-02T07:59:07.088Z</time></trkpt><trkpt lat="42.3661267" lon="14.11866"><ele>28.0</ele><time>2026-05-02T07:59:08.089Z</time></trkpt><trkpt lat="42.3659233" lon="14.1185133"><ele>28.0</ele><time>2026-05-02T07:59:09.088Z</time></trkpt><trkpt lat="42.3657183" lon="14.1183733"><ele>30.0</ele><time>2026-05-02T07:59:10.088Z</time></trkpt><trkpt lat="42.36551" lon="14.1182317"><ele>32.0</ele><time>2026-05-02T07:59:11.088Z</time></trkpt><trkpt lat="42.3653133" lon="14.1180933"><ele>32.0</ele><time>2026-05-02T07:59:12.088Z</time></trkpt><trkpt lat="42.3651267" lon="14.1179533"><ele>32.0</ele><time>2026-05-02T07:59:13.088Z</time></trkpt><trkpt lat="42.3649417" lon="14.1178267"><ele>32.0</ele><time>2026-05-02T07:59:14.088Z</time></trkpt><trkpt lat="42.3647733" lon="14.1177167"><ele>32.33333333333333</ele><time>2026-05-02T07:59:15.089Z</time></trkpt><trkpt lat="42.3646067" lon="14.1176217"><ele>32.666666666666664</ele><time>2026-05-02T07:59:16.089Z</time></trkpt><trkpt lat="42.3644417" lon="14.11754"><ele>33.0</ele><time>2026-05-02T07:59:17.089Z</time></trkpt><trkpt lat="42.3642583" lon="14.1174767"><ele>33.0</ele><time>2026-05-02T07:59:18.088Z</time></trkpt><trkpt lat="42.3640717" lon="14.1174367"><ele>33.0</ele><time>2026-05-02T07:59:19.089Z</time></trkpt><trkpt lat="42.36386" lon="14.1174283"><ele>33.0</ele><time>2026-05-02T07:59:20.089Z</time></trkpt><trkpt lat="42.3636383" lon="14.1174317"><ele>32.333333333333336</ele><time>2026-05-02T07:59:21.088Z</time></trkpt><trkpt lat="42.3634167" lon="14.11743"><ele>31.666666666666668</ele><time>2026-05-02T07:59:22.088Z</time></trkpt><trkpt lat="42.3631967" lon="14.1174233"><ele>31.0</ele><time>2026-05-02T07:59:23.089Z</time></trkpt><trkpt lat="42.362995" lon="14.1174083"><ele>35.66666666666667</ele><time>2026-05-02T07:59:24.088Z</time></trkpt><trkpt lat="42.3628083" lon="14.11738"><ele>40.333333333333336</ele><time>2026-05-02T07:59:25.088Z</time></trkpt><trkpt lat="42.36262" lon="14.1173317"><ele>45.0</ele><time>2026-05-02T07:59:26.089Z</time></trkpt><trkpt lat="42.3624233" lon="14.1172583"><ele>45.0</ele><time>2026-05-02T07:59:27.088Z</time></trkpt><trkpt lat="42.3622183" lon="14.1171683"><ele>45.0</ele><time>2026-05-02T07:59:28.089Z</time></trkpt><trkpt lat="42.3619983" lon="14.117065"><ele>45.0</ele><time>2026-05-02T07:59:29.089Z</time></trkpt><trkpt lat="42.3617717" lon="14.1169617"><ele>40.5</ele><time>2026-05-02T07:59:30.089Z</time></trkpt><trkpt lat="42.3615367" lon="14.1168517"><ele>36.0</ele><time>2026-05-02T07:59:31.088Z</time></trkpt><trkpt lat="42.3612867" lon="14.1167433"><ele>33.0</ele><time>2026-05-02T07:59:32.088Z</time></trkpt><trkpt lat="42.3610433" lon="14.1166317"><ele>30.0</ele><time>2026-05-02T07:59:33.088Z</time></trkpt><trkpt lat="42.3607983" lon="14.116525"><ele>33.5</ele><time>2026-05-02T07:59:34.089Z</time></trkpt><trkpt lat="42.3605567" lon="14.1164183"><ele>37.0</ele><time>2026-05-02T07:59:35.088Z</time></trkpt><trkpt lat="42.3603167" lon="14.1163167"><ele>37.0</ele><time>2026-05-02T07:59:36.088Z</time></trkpt><trkpt lat="42.3600883" lon="14.11621"><ele>37.0</ele><time>2026-05-02T07:59:37.088Z</time></trkpt><trkpt lat="42.3598617" lon="14.1161083"><ele>36.5</ele><time>2026-05-02T07:59:38.088Z</time></trkpt><trkpt lat="42.3596333" lon="14.1160167"><ele>36.0</ele><time>2026-05-02T07:59:39.088Z</time></trkpt><trkpt lat="42.3594083" lon="14.11593"><ele>36.0</ele><time>2026-05-02T07:59:40.089Z</time></trkpt><trkpt lat="42.3591933" lon="14.1158367"><ele>36.0</ele><time>2026-05-02T07:59:41.088Z</time></trkpt><trkpt lat="42.3589633" lon="14.1157467"><ele>38.5</ele><time>2026-05-02T07:59:42.088Z</time></trkpt><trkpt lat="42.35874" lon="14.1156517"><ele>41.0</ele><time>2026-05-02T07:59:43.089Z</time></trkpt><trkpt lat="42.3585117" lon="14.1155567"><ele>41.0</ele><time>2026-05-02T07:59:44.089Z</time></trkpt><trkpt lat="42.358275" lon="14.115455"><ele>41.0</ele><time>2026-05-02T07:59:45.088Z</time></trkpt><trkpt lat="42.3580417" lon="14.11536"><ele>41.0</ele><time>2026-05-02T07:59:46.089Z</time></trkpt><trkpt lat="42.357805" lon="14.11527"><ele>41.0</ele><time>2026-05-02T07:59:47.088Z</time></trkpt><trkpt lat="42.3575733" lon="14.115175"><ele>41.0</ele><time>2026-05-02T07:59:48.089Z</time></trkpt><trkpt lat="42.3573383" lon="14.1150767"><ele>41.0</ele><time>2026-05-02T07:59:49.089Z</time></trkpt><trkpt lat="42.3571" lon="14.1149833"><ele>45.0</ele><time>2026-05-02T07:59:50.089Z</time></trkpt><trkpt lat="42.356855" lon="14.1148867"><ele>49.0</ele><time>2026-05-02T07:59:51.089Z</time></trkpt><trkpt lat="42.3566133" lon="14.114785"><ele>49.0</ele><time>2026-05-02T07:59:52.088Z</time></trkpt><trkpt lat="42.3563717" lon="14.114685"><ele>49.0</ele><time>2026-05-02T07:59:53.088Z</time></trkpt><trkpt lat="42.35613" lon="14.114585"><ele>48.0</ele><time>2026-05-02T07:59:54.089Z</time></trkpt><trkpt lat="42.35589" lon="14.1144883"><ele>47.0</ele><time>2026-05-02T07:59:55.088Z</time></trkpt><trkpt lat="42.3556467" lon="14.11439"><ele>42.0</ele><time>2026-05-02T07:59:56.089Z</time></trkpt><trkpt lat="42.355405" lon="14.1142883"><ele>37.0</ele><time>2026-05-02T07:59:57.088Z</time></trkpt><trkpt lat="42.3551717" lon="14.1141983"><ele>37.0</ele><time>2026-05-02T07:59:58.089Z</time></trkpt><trkpt lat="42.35496" lon="14.1141067"><ele>37.0</ele><time>2026-05-02T07:59:59.088Z</time></trkpt><trkpt lat="42.354755" lon="14.1140167"><ele>37.0</ele><time>2026-05-02T08:00:00.089Z</time></trkpt><trkpt lat="42.3545467" lon="14.1139317"><ele>36.66666666666667</ele><time>2026-05-02T08:00:01.089Z</time></trkpt><trkpt lat="42.354335" lon="14.11385"><ele>36.333333333333336</ele><time>2026-05-02T08:00:02.089Z</time></trkpt><trkpt lat="42.3541167" lon="14.1137717"><ele>36.0</ele><time>2026-05-02T08:00:03.089Z</time></trkpt><trkpt lat="42.3538983" lon="14.1136917"><ele>35.5</ele><time>2026-05-02T08:00:04.088Z</time></trkpt><trkpt lat="42.353675" lon="14.11361"><ele>35.0</ele><time>2026-05-02T08:00:05.088Z</time></trkpt><trkpt lat="42.3534533" lon="14.11352"><ele>35.0</ele><time>2026-05-02T08:00:06.088Z</time></trkpt><trkpt lat="42.353225" lon="14.1134283"><ele>35.0</ele><time>2026-05-02T08:00:07.089Z</time></trkpt><trkpt lat="42.3529933" lon="14.1133383"><ele>35.0</ele><time>2026-05-02T08:00:08.088Z</time></trkpt><trkpt lat="42.35278" lon="14.113265"><ele>35.0</ele><time>2026-05-02T08:00:09.088Z</time></trkpt><trkpt lat="42.3525733" lon="14.1131933"><ele>35.0</ele><time>2026-05-02T08:00:10.089Z</time></trkpt><trkpt lat="42.352375" lon="14.11311"><ele>36.666666666666664</ele><time>2026-05-02T08:00:11.088Z</time></trkpt><trkpt lat="42.3521683" lon="14.1130167"><ele>38.333333333333336</ele><time>2026-05-02T08:00:12.088Z</time></trkpt><trkpt lat="42.35196" lon="14.112915"><ele>40.0</ele><time>2026-05-02T08:00:13.088Z</time></trkpt><trkpt lat="42.3517583" lon="14.112825"><ele>40.0</ele><time>2026-05-02T08:00:14.089Z</time></trkpt><trkpt lat="42.3515617" lon="14.1127467"><ele>40.0</ele><time>2026-05-02T08:00:15.089Z</time></trkpt><trkpt lat="42.35136" lon="14.1126767"><ele>40.0</ele><time>2026-05-02T08:00:16.089Z</time></trkpt><trkpt lat="42.3511617" lon="14.1126"><ele>41.333333333333336</ele><time>2026-05-02T08:00:17.088Z</time></trkpt><trkpt lat="42.350975" lon="14.112535"><ele>42.666666666666664</ele><time>2026-05-02T08:00:18.089Z</time></trkpt><trkpt lat="42.3508083" lon="14.112485"><ele>44.0</ele><time>2026-05-02T08:00:19.088Z</time></trkpt><trkpt lat="42.3506517" lon="14.1124533"><ele>44.0</ele><time>2026-05-02T08:00:20.088Z</time></trkpt><trkpt lat="42.3505183" lon="14.1124267"><ele>44.0</ele><time>2026-05-02T08:00:21.088Z</time></trkpt><trkpt lat="42.3503967" lon="14.112405"><ele>44.0</ele><time>2026-05-02T08:00:22.088Z</time></trkpt><trkpt lat="42.3502867" lon="14.112385"><ele>44.0</ele><time>2026-05-02T08:00:23.089Z</time></trkpt><trkpt lat="42.3501867" lon="14.112365"><ele>44.0</ele><time>2026-05-02T08:00:24.088Z</time></trkpt><trkpt lat="42.3500983" lon="14.11235"><ele>44.0</ele><time>2026-05-02T08:00:25.088Z</time></trkpt><trkpt lat="42.35002" lon="14.1123467"><ele>44.0</ele><time>2026-05-02T08:00:26.088Z</time></trkpt><trkpt lat="42.3499467" lon="14.1123733"><ele>44.0</ele><time>2026-05-02T08:00:27.088Z</time></trkpt><trkpt lat="42.3498867" lon="14.1124317"><ele>44.0</ele><time>2026-05-02T08:00:28.089Z</time></trkpt><trkpt lat="42.349815" lon="14.112545"><ele>44.0</ele><time>2026-05-02T08:00:29.089Z</time></trkpt><trkpt lat="42.3497417" lon="14.112675"><ele>43.0</ele><time>2026-05-02T08:00:30.089Z</time></trkpt><trkpt lat="42.3496383" lon="14.112805"><ele>42.0</ele><time>2026-05-02T08:00:31.088Z</time></trkpt><trkpt lat="42.3495117" lon="14.1129283"><ele>41.0</ele><time>2026-05-02T08:00:32.089Z</time></trkpt><trkpt lat="42.34935" lon="14.1130517"><ele>41.0</ele><time>2026-05-02T08:00:33.089Z</time></trkpt><trkpt lat="42.3491633" lon="14.1131733"><ele>41.0</ele><time>2026-05-02T08:00:34.089Z</time></trkpt><trkpt lat="42.3489633" lon="14.11331"><ele>41.0</ele><time>2026-05-02T08:00:35.088Z</time></trkpt><trkpt lat="42.3487867" lon="14.113425"><ele>42.0</ele><time>2026-05-02T08:00:36.089Z</time></trkpt><trkpt lat="42.348635" lon="14.11351"><ele>43.0</ele><time>2026-05-02T08:00:37.089Z</time></trkpt><trkpt lat="42.3484933" lon="14.1135733"><ele>44.0</ele><time>2026-05-02T08:00:38.089Z</time></trkpt><trkpt lat="42.34836" lon="14.1136083"><ele>45.0</ele><time>2026-05-02T08:00:39.088Z</time></trkpt><trkpt lat="42.3482317" lon="14.1136033"><ele>45.0</ele><time>2026-05-02T08:00:40.089Z</time></trkpt><trkpt lat="42.3480867" lon="14.113565"><ele>45.0</ele><time>2026-05-02T08:00:41.088Z</time></trkpt><trkpt lat="42.34795" lon="14.1134917"><ele>45.0</ele><time>2026-05-02T08:00:42.089Z</time></trkpt><trkpt lat="42.3478167" lon="14.113425"><ele>45.0</ele><time>2026-05-02T08:00:43.089Z</time></trkpt><trkpt lat="42.3476783" lon="14.1133533"><ele>45.0</ele><time>2026-05-02T08:00:44.089Z</time></trkpt><trkpt lat="42.34753" lon="14.1132833"><ele>45.0</ele><time>2026-05-02T08:00:45.089Z</time></trkpt><trkpt lat="42.3473767" lon="14.1132133"><ele>45.0</ele><time>2026-05-02T08:00:46.088Z</time></trkpt><trkpt lat="42.3472183" lon="14.1131367"><ele>44.666666666666664</ele><time>2026-05-02T08:00:47.088Z</time></trkpt><trkpt lat="42.347055" lon="14.113055"><ele>44.33333333333333</ele><time>2026-05-02T08:00:48.089Z</time></trkpt><trkpt lat="42.3468833" lon="14.1129717"><ele>44.0</ele><time>2026-05-02T08:00:49.088Z</time></trkpt><trkpt lat="42.3467083" lon="14.112885"><ele>44.0</ele><time>2026-05-02T08:00:50.089Z</time></trkpt><trkpt lat="42.3465233" lon="14.1127933"><ele>44.0</ele><time>2026-05-02T08:00:51.088Z</time></trkpt><trkpt lat="42.3463417" lon="14.1127083"><ele>44.0</ele><time>2026-05-02T08:00:52.089Z</time></trkpt><trkpt lat="42.34616" lon="14.112635"><ele>44.666666666666664</ele><time>2026-05-02T08:00:53.089Z</time></trkpt><trkpt lat="42.345985" lon="14.1125733"><ele>45.333333333333336</ele><time>2026-05-02T08:00:54.088Z</time></trkpt><trkpt lat="42.34581" lon="14.112525"><ele>46.0</ele><time>2026-05-02T08:00:55.088Z</time></trkpt><trkpt lat="42.3456367" lon="14.1124783"><ele>46.0</ele><time>2026-05-02T08:00:56.088Z</time></trkpt><trkpt lat="42.3454633" lon="14.1124367"><ele>46.0</ele><time>2026-05-02T08:00:57.089Z</time></trkpt><trkpt lat="42.3453117" lon="14.11239"><ele>46.0</ele><time>2026-05-02T08:00:58.088Z</time></trkpt><trkpt lat="42.3451833" lon="14.1123367"><ele>45.75</ele><time>2026-05-02T08:00:59.088Z</time></trkpt><trkpt lat="42.345065" lon="14.1122867"><ele>45.5</ele><time>2026-05-02T08:01:00.089Z</time></trkpt><trkpt lat="42.3449467" lon="14.1122183"><ele>45.25</ele><time>2026-05-02T08:01:01.089Z</time></trkpt><trkpt lat="42.34482" lon="14.112135"><ele>45.0</ele><time>2026-05-02T08:01:02.089Z</time></trkpt><trkpt lat="42.3446967" lon="14.11204"><ele>45.75</ele><time>2026-05-02T08:01:03.088Z</time></trkpt><trkpt lat="42.3445633" lon="14.11195"><ele>46.5</ele><time>2026-05-02T08:01:04.088Z</time></trkpt><trkpt lat="42.34443" lon="14.1118733"><ele>47.25</ele><time>2026-05-02T08:01:05.089Z</time></trkpt><trkpt lat="42.3443217" lon="14.1118017"><ele>48.0</ele><time>2026-05-02T08:01:06.088Z</time></trkpt><trkpt lat="42.3442317" lon="14.1117417"><ele>48.0</ele><time>2026-05-02T08:01:07.089Z</time></trkpt><trkpt lat="42.34416" lon="14.1116933"><ele>48.0</ele><time>2026-05-02T08:01:08.089Z</time></trkpt><trkpt lat="42.3441033" lon="14.1116433"><ele>48.0</ele><time>2026-05-02T08:01:09.089Z</time></trkpt><trkpt lat="42.344025" lon="14.11161"><ele>48.0</ele><time>2026-05-02T08:01:11.089Z</time></trkpt><trkpt lat="42.343965" lon="14.1115717"><ele>48.0</ele><time>2026-05-02T08:01:13.089Z</time></trkpt><trkpt lat="42.3438667" lon="14.111495"><ele>48.0</ele><time>2026-05-02T08:01:15.088Z</time></trkpt><trkpt lat="42.343805" lon="14.1113967"><ele>48.166666666666664</ele><time>2026-05-02T08:01:17.089Z</time></trkpt><trkpt lat="42.34378" lon="14.11129"><ele>48.33333333333333</ele><time>2026-05-02T08:01:19.088Z</time></trkpt><trkpt lat="42.3437483" lon="14.1111517"><ele>48.5</ele><time>2026-05-02T08:01:21.088Z</time></trkpt><trkpt lat="42.343715" lon="14.11106"><ele>48.666666666666664</ele><time>2026-05-02T08:01:22.088Z</time></trkpt><trkpt lat="42.3436883" lon="14.1109533"><ele>48.83333333333333</ele><time>2026-05-02T08:01:23.089Z</time></trkpt><trkpt lat="42.3436767" lon="14.11083"><ele>49.0</ele><time>2026-05-02T08:01:24.088Z</time></trkpt><trkpt lat="42.34368" lon="14.1106917"><ele>49.0</ele><time>2026-05-02T08:01:25.088Z</time></trkpt><trkpt lat="42.3436967" lon="14.1105367"><ele>49.0</ele><time>2026-05-02T08:01:26.087Z</time></trkpt><trkpt lat="42.34372" lon="14.1103667"><ele>49.0</ele><time>2026-05-02T08:01:27.088Z</time></trkpt><trkpt lat="42.3437417" lon="14.1101867"><ele>49.0</ele><time>2026-05-02T08:01:28.087Z</time></trkpt><trkpt lat="42.3437667" lon="14.1099917"><ele>49.0</ele><time>2026-05-02T08:01:29.088Z</time></trkpt><trkpt lat="42.34379" lon="14.10978"><ele>49.0</ele><time>2026-05-02T08:01:30.088Z</time></trkpt><trkpt lat="42.34382" lon="14.1095567"><ele>49.0</ele><time>2026-05-02T08:01:31.087Z</time></trkpt><trkpt lat="42.3438433" lon="14.1093333"><ele>49.0</ele><time>2026-05-02T08:01:32.088Z</time></trkpt><trkpt lat="42.3438783" lon="14.1091117"><ele>49.0</ele><time>2026-05-02T08:01:33.088Z</time></trkpt><trkpt lat="42.3439167" lon="14.108885"><ele>49.0</ele><time>2026-05-02T08:01:34.088Z</time></trkpt><trkpt lat="42.3439467" lon="14.10865"><ele>48.666666666666664</ele><time>2026-05-02T08:01:35.088Z</time></trkpt><trkpt lat="42.343975" lon="14.108405"><ele>48.33333333333333</ele><time>2026-05-02T08:01:36.087Z</time></trkpt><trkpt lat="42.3440067" lon="14.10816"><ele>48.0</ele><time>2026-05-02T08:01:37.088Z</time></trkpt><trkpt lat="42.34403" lon="14.1079233"><ele>48.0</ele><time>2026-05-02T08:01:38.088Z</time></trkpt><trkpt lat="42.34406" lon="14.107685"><ele>48.0</ele><time>2026-05-02T08:01:39.087Z</time></trkpt><trkpt lat="42.34409" lon="14.1074567"><ele>48.0</ele><time>2026-05-02T08:01:40.087Z</time></trkpt><trkpt lat="42.34412" lon="14.1072133"><ele>48.0</ele><time>2026-05-02T08:01:41.088Z</time></trkpt><trkpt lat="42.3441517" lon="14.106975"><ele>48.0</ele><time>2026-05-02T08:01:42.088Z</time></trkpt><trkpt lat="42.3441833" lon="14.1067367"><ele>48.0</ele><time>2026-05-02T08:01:43.087Z</time></trkpt><trkpt lat="42.3442067" lon="14.106495"><ele>47.666666666666664</ele><time>2026-05-02T08:01:44.087Z</time></trkpt><trkpt lat="42.344235" lon="14.1062567"><ele>47.33333333333333</ele><time>2026-05-02T08:01:45.088Z</time></trkpt><trkpt lat="42.3442533" lon="14.1060283"><ele>47.0</ele><time>2026-05-02T08:01:46.087Z</time></trkpt><trkpt lat="42.3442817" lon="14.1058033"><ele>47.0</ele><time>2026-05-02T08:01:47.087Z</time></trkpt><trkpt lat="42.3443117" lon="14.10558"><ele>47.0</ele><time>2026-05-02T08:01:48.088Z</time></trkpt><trkpt lat="42.3443367" lon="14.1053667"><ele>47.0</ele><time>2026-05-02T08:01:49.087Z</time></trkpt><trkpt lat="42.34436" lon="14.1051533"><ele>47.0</ele><time>2026-05-02T08:01:50.087Z</time></trkpt><trkpt lat="42.3443833" lon="14.1049433"><ele>47.0</ele><time>2026-05-02T08:01:51.087Z</time></trkpt><trkpt lat="42.3444167" lon="14.10474"><ele>47.0</ele><time>2026-05-02T08:01:52.088Z</time></trkpt><trkpt lat="42.3444467" lon="14.104525"><ele>48.33333333333333</ele><time>2026-05-02T08:01:53.088Z</time></trkpt><trkpt lat="42.3444717" lon="14.1043167"><ele>49.666666666666664</ele><time>2026-05-02T08:01:54.088Z</time></trkpt><trkpt lat="42.3445033" lon="14.1040933"><ele>51.0</ele><time>2026-05-02T08:01:55.087Z</time></trkpt><trkpt lat="42.344525" lon="14.10389"><ele>51.33333333333333</ele><time>2026-05-02T08:01:56.088Z</time></trkpt><trkpt lat="42.34455" lon="14.1036683"><ele>51.666666666666664</ele><time>2026-05-02T08:01:57.087Z</time></trkpt><trkpt lat="42.34458" lon="14.1034317"><ele>52.0</ele><time>2026-05-02T08:01:58.087Z</time></trkpt><trkpt lat="42.3446083" lon="14.1031817"><ele>52.33333333333333</ele><time>2026-05-02T08:01:59.088Z</time></trkpt><trkpt lat="42.3446417" lon="14.10291"><ele>52.66666666666667</ele><time>2026-05-02T08:02:00.087Z</time></trkpt><trkpt lat="42.344675" lon="14.1026233"><ele>53.0</ele><time>2026-05-02T08:02:01.087Z</time></trkpt><trkpt lat="42.3447083" lon="14.1023283"><ele>53.0</ele><time>2026-05-02T08:02:02.088Z</time></trkpt><trkpt lat="42.34474" lon="14.102025"><ele>53.0</ele><time>2026-05-02T08:02:03.088Z</time></trkpt><trkpt lat="42.34478" lon="14.1017267"><ele>53.333333333333336</ele><time>2026-05-02T08:02:04.087Z</time></trkpt><trkpt lat="42.3448183" lon="14.1014283"><ele>53.66666666666667</ele><time>2026-05-02T08:02:05.088Z</time></trkpt><trkpt lat="42.3448533" lon="14.10113"><ele>54.0</ele><time>2026-05-02T08:02:06.087Z</time></trkpt><trkpt lat="42.3448867" lon="14.1008383"><ele>53.66666666666667</ele><time>2026-05-02T08:02:07.087Z</time></trkpt><trkpt lat="42.34492" lon="14.100555"><ele>53.333333333333336</ele><time>2026-05-02T08:02:08.088Z</time></trkpt><trkpt lat="42.344945" lon="14.1002733"><ele>53.0</ele><time>2026-05-02T08:02:09.088Z</time></trkpt><trkpt lat="42.344955" lon="14.10001"><ele>53.66666666666667</ele><time>2026-05-02T08:02:10.088Z</time></trkpt><trkpt lat="42.344955" lon="14.09976"><ele>54.33333333333333</ele><time>2026-05-02T08:02:11.088Z</time></trkpt><trkpt lat="42.3449467" lon="14.099525"><ele>55.0</ele><time>2026-05-02T08:02:12.087Z</time></trkpt><trkpt lat="42.3449367" lon="14.09932"><ele>55.0</ele><time>2026-05-02T08:02:13.087Z</time></trkpt><trkpt lat="42.3449267" lon="14.0991317"><ele>55.0</ele><time>2026-05-02T08:02:14.088Z</time></trkpt><trkpt lat="42.344915" lon="14.0989533"><ele>55.0</ele><time>2026-05-02T08:02:15.087Z</time></trkpt><trkpt lat="42.3449217" lon="14.0988083"><ele>55.0</ele><time>2026-05-02T08:02:16.088Z</time></trkpt><trkpt lat="42.3449367" lon="14.0987017"><ele>55.4</ele><time>2026-05-02T08:02:17.087Z</time></trkpt><trkpt lat="42.3449767" lon="14.098615"><ele>55.8</ele><time>2026-05-02T08:02:18.088Z</time></trkpt><trkpt lat="42.3450383" lon="14.0985367"><ele>56.2</ele><time>2026-05-02T08:02:19.088Z</time></trkpt><trkpt lat="42.3451133" lon="14.098455"><ele>56.6</ele><time>2026-05-02T08:02:20.088Z</time></trkpt><trkpt lat="42.3451883" lon="14.0983433"><ele>57.0</ele><time>2026-05-02T08:02:21.088Z</time></trkpt><trkpt lat="42.3452517" lon="14.098255"><ele>57.166666666666664</ele><time>2026-05-02T08:02:22.088Z</time></trkpt><trkpt lat="42.3453033" lon="14.0981833"><ele>57.33333333333333</ele><time>2026-05-02T08:02:23.087Z</time></trkpt><trkpt lat="42.34536" lon="14.0981317"><ele>57.5</ele><time>2026-05-02T08:02:24.087Z</time></trkpt><trkpt lat="42.3454283" lon="14.0981167"><ele>57.666666666666664</ele><time>2026-05-02T08:02:25.087Z</time></trkpt><trkpt lat="42.3455" lon="14.0981217"><ele>57.83333333333333</ele><time>2026-05-02T08:02:26.087Z</time></trkpt><trkpt lat="42.3455733" lon="14.0981717"><ele>58.0</ele><time>2026-05-02T08:02:27.087Z</time></trkpt><trkpt lat="42.3456517" lon="14.09826"><ele>57.0</ele><time>2026-05-02T08:02:28.087Z</time></trkpt><trkpt lat="42.3457533" lon="14.0983733"><ele>56.0</ele><time>2026-05-02T08:02:29.087Z</time></trkpt><trkpt lat="42.3458683" lon="14.0984883"><ele>55.0</ele><time>2026-05-02T08:02:30.087Z</time></trkpt><trkpt lat="42.3459883" lon="14.0985967"><ele>54.0</ele><time>2026-05-02T08:02:31.088Z</time></trkpt><trkpt lat="42.3460933" lon="14.0986833"><ele>54.0</ele><time>2026-05-02T08:02:32.088Z</time></trkpt><trkpt lat="42.346185" lon="14.0987467"><ele>54.00000000000001</ele><time>2026-05-02T08:02:33.087Z</time></trkpt><trkpt lat="42.34628" lon="14.098795"><ele>54.00000000000001</ele><time>2026-05-02T08:02:34.088Z</time></trkpt><trkpt lat="42.3463917" lon="14.0988367"><ele>54.0</ele><time>2026-05-02T08:02:35.088Z</time></trkpt><trkpt lat="42.346505" lon="14.09886"><ele>54.0</ele><time>2026-05-02T08:02:36.087Z</time></trkpt><trkpt lat="42.3466183" lon="14.0988783"><ele>54.0</ele><time>2026-05-02T08:02:37.087Z</time></trkpt><trkpt lat="42.34672" lon="14.0989033"><ele>54.00000000000001</ele><time>2026-05-02T08:02:38.088Z</time></trkpt><trkpt lat="42.3468117" lon="14.0989433"><ele>54.00000000000001</ele><time>2026-05-02T08:02:39.087Z</time></trkpt><trkpt lat="42.3469" lon="14.0990167"><ele>54.0</ele><time>2026-05-02T08:02:40.088Z</time></trkpt><trkpt lat="42.3469767" lon="14.099095"><ele>54.0</ele><time>2026-05-02T08:02:41.088Z</time></trkpt><trkpt lat="42.34704" lon="14.0991467"><ele>54.0</ele><time>2026-05-02T08:02:42.087Z</time></trkpt><trkpt lat="42.3471167" lon="14.0992267"><ele>54.0</ele><time>2026-05-02T08:02:44.088Z</time></trkpt><trkpt lat="42.34717" lon="14.0992867"><ele>54.0</ele><time>2026-05-02T08:02:45.087Z</time></trkpt><trkpt lat="42.347235" lon="14.0993633"><ele>54.0</ele><time>2026-05-02T08:02:46.087Z</time></trkpt><trkpt lat="42.3473033" lon="14.0994433"><ele>54.0</ele><time>2026-05-02T08:02:47.088Z</time></trkpt><trkpt lat="42.34737" lon="14.0995033"><ele>54.0</ele><time>2026-05-02T08:02:48.087Z</time></trkpt><trkpt lat="42.3474317" lon="14.09954"><ele>53.25</ele><time>2026-05-02T08:02:49.087Z</time></trkpt><trkpt lat="42.347555" lon="14.09949"><ele>52.5</ele><time>2026-05-02T08:02:51.087Z</time></trkpt><trkpt lat="42.347635" lon="14.0994167"><ele>51.75</ele><time>2026-05-02T08:02:52.088Z</time></trkpt><trkpt lat="42.3477283" lon="14.0993483"><ele>51.0</ele><time>2026-05-02T08:02:53.088Z</time></trkpt><trkpt lat="42.3478483" lon="14.0993017"><ele>51.0</ele><time>2026-05-02T08:02:54.087Z</time></trkpt><trkpt lat="42.3479883" lon="14.0992883"><ele>51.0</ele><time>2026-05-02T08:02:55.087Z</time></trkpt><trkpt lat="42.3481467" lon="14.0992767"><ele>51.0</ele><time>2026-05-02T08:02:56.088Z</time></trkpt><trkpt lat="42.3482933" lon="14.099255"><ele>51.0</ele><time>2026-05-02T08:02:57.087Z</time></trkpt><trkpt lat="42.348415" lon="14.099235"><ele>51.199999999999996</ele><time>2026-05-02T08:02:58.087Z</time></trkpt><trkpt lat="42.3485067" lon="14.0992183"><ele>51.4</ele><time>2026-05-02T08:02:59.087Z</time></trkpt><trkpt lat="42.3485833" lon="14.0991883"><ele>51.6</ele><time>2026-05-02T08:03:00.088Z</time></trkpt><trkpt lat="42.348665" lon="14.0991467"><ele>51.8</ele><time>2026-05-02T08:03:02.087Z</time></trkpt><trkpt lat="42.3487133" lon="14.0989967"><ele>52.0</ele><time>2026-05-02T08:03:11.088Z</time></trkpt><trkpt lat="42.3487633" lon="14.0988817"><ele>52.0</ele><time>2026-05-02T08:03:12.088Z</time></trkpt><trkpt lat="42.3488183" lon="14.0987483"><ele>52.0</ele><time>2026-05-02T08:03:13.087Z</time></trkpt><trkpt lat="42.3488717" lon="14.0986283"><ele>52.0</ele><time>2026-05-02T08:03:14.087Z</time></trkpt><trkpt lat="42.3489183" lon="14.0985067"><ele>52.0</ele><time>2026-05-02T08:03:15.088Z</time></trkpt><trkpt lat="42.3489533" lon="14.0983833"><ele>52.0</ele><time>2026-05-02T08:03:16.087Z</time></trkpt><trkpt lat="42.34899" lon="14.0982467"><ele>52.0</ele><time>2026-05-02T08:03:17.087Z</time></trkpt><trkpt lat="42.349025" lon="14.0981"><ele>52.0</ele><time>2026-05-02T08:03:18.087Z</time></trkpt><trkpt lat="42.3490617" lon="14.0979433"><ele>52.0</ele><time>2026-05-02T08:03:19.087Z</time></trkpt><trkpt lat="42.3490917" lon="14.097785"><ele>52.0</ele><time>2026-05-02T08:03:20.088Z</time></trkpt><trkpt lat="42.3491167" lon="14.0976383"><ele>52.0</ele><time>2026-05-02T08:03:21.087Z</time></trkpt><trkpt lat="42.3491283" lon="14.0975067"><ele>52.0</ele><time>2026-05-02T08:03:22.088Z</time></trkpt><trkpt lat="42.349135" lon="14.097365"><ele>52.0</ele><time>2026-05-02T08:03:23.087Z</time></trkpt><trkpt lat="42.3491283" lon="14.0972467"><ele>52.0</ele><time>2026-05-02T08:03:24.088Z</time></trkpt><trkpt lat="42.3491217" lon="14.097125"><ele>52.0</ele><time>2026-05-02T08:03:25.087Z</time></trkpt><trkpt lat="42.349105" lon="14.0969933"><ele>52.2</ele><time>2026-05-02T08:03:26.088Z</time></trkpt><trkpt lat="42.3490767" lon="14.096865"><ele>52.400000000000006</ele><time>2026-05-02T08:03:27.088Z</time></trkpt><trkpt lat="42.3490467" lon="14.0967283"><ele>52.599999999999994</ele><time>2026-05-02T08:03:28.088Z</time></trkpt><trkpt lat="42.3490033" lon="14.0965933"><ele>52.8</ele><time>2026-05-02T08:03:29.088Z</time></trkpt><trkpt lat="42.34894" lon="14.0964633"><ele>53.0</ele><time>2026-05-02T08:03:30.087Z</time></trkpt><trkpt lat="42.34888" lon="14.096325"><ele>53.25</ele><time>2026-05-02T08:03:31.087Z</time></trkpt><trkpt lat="42.34883" lon="14.0961867"><ele>53.5</ele><time>2026-05-02T08:03:32.087Z</time></trkpt><trkpt lat="42.348785" lon="14.096035"><ele>53.75</ele><time>2026-05-02T08:03:33.087Z</time></trkpt><trkpt lat="42.348755" lon="14.095875"><ele>54.0</ele><time>2026-05-02T08:03:34.088Z</time></trkpt><trkpt lat="42.34873" lon="14.0957283"><ele>54.166666666666664</ele><time>2026-05-02T08:03:35.088Z</time></trkpt><trkpt lat="42.3487133" lon="14.095625"><ele>54.33333333333333</ele><time>2026-05-02T08:03:36.088Z</time></trkpt><trkpt lat="42.3486867" lon="14.0954833"><ele>54.5</ele><time>2026-05-02T08:03:38.088Z</time></trkpt><trkpt lat="42.3486683" lon="14.0953567"><ele>54.666666666666664</ele><time>2026-05-02T08:03:40.087Z</time></trkpt><trkpt lat="42.3486583" lon="14.0952717"><ele>54.83333333333333</ele><time>2026-05-02T08:03:41.087Z</time></trkpt><trkpt lat="42.3486567" lon="14.0951617"><ele>55.0</ele><time>2026-05-02T08:03:42.088Z</time></trkpt><trkpt lat="42.3486533" lon="14.0950317"><ele>55.25</ele><time>2026-05-02T08:03:43.087Z</time></trkpt><trkpt lat="42.34865" lon="14.0948767"><ele>55.5</ele><time>2026-05-02T08:03:44.088Z</time></trkpt><trkpt lat="42.3486483" lon="14.0947217"><ele>55.75</ele><time>2026-05-02T08:03:45.087Z</time></trkpt><trkpt lat="42.3486517" lon="14.0945633"><ele>56.0</ele><time>2026-05-02T08:03:46.088Z</time></trkpt><trkpt lat="42.3486383" lon="14.0943917"><ele>56.0</ele><time>2026-05-02T08:03:47.087Z</time></trkpt><trkpt lat="42.34863" lon="14.094225"><ele>55.99999999999999</ele><time>2026-05-02T08:03:48.088Z</time></trkpt><trkpt lat="42.348635" lon="14.09409"><ele>55.99999999999999</ele><time>2026-05-02T08:03:49.087Z</time></trkpt><trkpt lat="42.348645" lon="14.093965"><ele>56.0</ele><time>2026-05-02T08:03:50.087Z</time></trkpt><trkpt lat="42.3486683" lon="14.093825"><ele>56.0</ele><time>2026-05-02T08:03:51.087Z</time></trkpt><trkpt lat="42.3487083" lon="14.093685"><ele>56.199999999999996</ele><time>2026-05-02T08:03:52.087Z</time></trkpt><trkpt lat="42.34873" lon="14.0935433"><ele>56.39999999999999</ele><time>2026-05-02T08:03:53.087Z</time></trkpt><trkpt lat="42.3487467" lon="14.0934183"><ele>56.6</ele><time>2026-05-02T08:03:54.087Z</time></trkpt><trkpt lat="42.3487683" lon="14.0933183"><ele>56.8</ele><time>2026-05-02T08:03:55.088Z</time></trkpt><trkpt lat="42.3487767" lon="14.09318"><ele>57.0</ele><time>2026-05-02T08:03:57.088Z</time></trkpt><trkpt lat="42.3487667" lon="14.0930767"><ele>57.666666666666664</ele><time>2026-05-02T08:03:59.088Z</time></trkpt><trkpt lat="42.3487167" lon="14.0930167"><ele>58.33333333333333</ele><time>2026-05-02T08:04:01.087Z</time></trkpt><trkpt lat="42.3485983" lon="14.092975"><ele>59.0</ele><time>2026-05-02T08:04:03.088Z</time></trkpt><trkpt lat="42.3485217" lon="14.0929483"><ele>59.666666666666664</ele><time>2026-05-02T08:04:04.087Z</time></trkpt><trkpt lat="42.3484433" lon="14.0929133"><ele>60.33333333333333</ele><time>2026-05-02T08:04:05.088Z</time></trkpt><trkpt lat="42.3483567" lon="14.0928767"><ele>61.0</ele><time>2026-05-02T08:04:06.088Z</time></trkpt><trkpt lat="42.3482817" lon="14.092835"><ele>61.0</ele><time>2026-05-02T08:04:07.088Z</time></trkpt><trkpt lat="42.3482167" lon="14.0927917"><ele>60.99999999999999</ele><time>2026-05-02T08:04:08.088Z</time></trkpt><trkpt lat="42.3481417" lon="14.0927017"><ele>60.99999999999999</ele><time>2026-05-02T08:04:10.087Z</time></trkpt><trkpt lat="42.348095" lon="14.0925683"><ele>61.0</ele><time>2026-05-02T08:04:12.088Z</time></trkpt><trkpt lat="42.3480533" lon="14.0924067"><ele>61.0</ele><time>2026-05-02T08:04:14.088Z</time></trkpt><trkpt lat="42.3480317" lon="14.09232"><ele>61.99999999999999</ele><time>2026-05-02T08:04:15.087Z</time></trkpt><trkpt lat="42.3479983" lon="14.092215"><ele>63.0</ele><time>2026-05-02T08:04:16.087Z</time></trkpt><trkpt lat="42.3479717" lon="14.0921083"><ele>64.0</ele><time>2026-05-02T08:04:17.088Z</time></trkpt><trkpt lat="42.347945" lon="14.0920133"><ele>65.0</ele><time>2026-05-02T08:04:18.087Z</time></trkpt><trkpt lat="42.3479117" lon="14.0918983"><ele>66.0</ele><time>2026-05-02T08:04:20.087Z</time></trkpt><trkpt lat="42.34788" lon="14.0917967"><ele>67.0</ele><time>2026-05-02T08:04:24.087Z</time></trkpt><trkpt lat="42.3478633" lon="14.0917133"><ele>67.0</ele><time>2026-05-02T08:04:27.088Z</time></trkpt><trkpt lat="42.3478567" lon="14.091615"><ele>67.0</ele><time>2026-05-02T08:04:29.087Z</time></trkpt><trkpt lat="42.3478367" lon="14.0914467"><ele>67.0</ele><time>2026-05-02T08:04:31.087Z</time></trkpt><trkpt lat="42.3478083" lon="14.0913333"><ele>67.0</ele><time>2026-05-02T08:04:33.088Z</time></trkpt><trkpt lat="42.3478083" lon="14.0912117"><ele>67.0</ele><time>2026-05-02T08:04:40.087Z</time></trkpt><trkpt lat="42.347815" lon="14.0913017"><ele>67.0</ele><time>2026-05-02T08:04:49.088Z</time></trkpt><trkpt lat="42.3478483" lon="14.0914617"><ele>67.0</ele><time>2026-05-02T08:04:51.087Z</time></trkpt><trkpt lat="42.3478617" lon="14.091565"><ele>67.0</ele><time>2026-05-02T08:04:52.087Z</time></trkpt><trkpt lat="42.3478733" lon="14.0916583"><ele>67.0</ele><time>2026-05-02T08:04:53.088Z</time></trkpt><trkpt lat="42.3478833" lon="14.091745"><ele>67.0</ele><time>2026-05-02T08:04:54.088Z</time></trkpt><trkpt lat="42.347915" lon="14.0919167"><ele>67.0</ele><time>2026-05-02T08:04:56.087Z</time></trkpt><trkpt lat="42.3479417" lon="14.092015"><ele>67.0</ele><time>2026-05-02T08:04:57.088Z</time></trkpt><trkpt lat="42.3479733" lon="14.09213"><ele>67.0</ele><time>2026-05-02T08:04:58.087Z</time></trkpt><trkpt lat="42.348005" lon="14.0922583"><ele>67.0</ele><time>2026-05-02T08:04:59.088Z</time></trkpt><trkpt lat="42.348035" lon="14.0923683"><ele>67.0</ele><time>2026-05-02T08:05:00.087Z</time></trkpt><trkpt lat="42.348065" lon="14.09246"><ele>67.0</ele><time>2026-05-02T08:05:01.087Z</time></trkpt><trkpt lat="42.3480933" lon="14.09254"><ele>67.0</ele><time>2026-05-02T08:05:02.087Z</time></trkpt><trkpt lat="42.34816" lon="14.0926783"><ele>67.0</ele><time>2026-05-02T08:05:04.088Z</time></trkpt><trkpt lat="42.3482267" lon="14.09279"><ele>65.8</ele><time>2026-05-02T08:05:06.088Z</time></trkpt><trkpt lat="42.3483467" lon="14.0928833"><ele>64.6</ele><time>2026-05-02T08:05:08.088Z</time></trkpt><trkpt lat="42.348435" lon="14.09293"><ele>63.39999999999999</ele><time>2026-05-02T08:05:09.087Z</time></trkpt><trkpt lat="42.348535" lon="14.09296"><ele>62.199999999999996</ele><time>2026-05-02T08:05:10.087Z</time></trkpt><trkpt lat="42.348625" lon="14.092985"><ele>61.0</ele><time>2026-05-02T08:05:11.088Z</time></trkpt><trkpt lat="42.3486983" lon="14.0930067"><ele>60.99999999999999</ele><time>2026-05-02T08:05:12.087Z</time></trkpt><trkpt lat="42.3487533" lon="14.0930483"><ele>61.0</ele><time>2026-05-02T08:05:13.087Z</time></trkpt><trkpt lat="42.3487983" lon="14.0931567"><ele>61.0</ele><time>2026-05-02T08:05:15.087Z</time></trkpt><trkpt lat="42.3487833" lon="14.093245"><ele>61.0</ele><time>2026-05-02T08:05:16.087Z</time></trkpt><trkpt lat="42.348765" lon="14.0933533"><ele>60.99999999999999</ele><time>2026-05-02T08:05:17.088Z</time></trkpt><trkpt lat="42.348735" lon="14.0934917"><ele>61.0</ele><time>2026-05-02T08:05:18.087Z</time></trkpt><trkpt lat="42.3486967" lon="14.0936417"><ele>60.199999999999996</ele><time>2026-05-02T08:05:19.088Z</time></trkpt><trkpt lat="42.3486633" lon="14.0938083"><ele>59.39999999999999</ele><time>2026-05-02T08:05:20.088Z</time></trkpt><trkpt lat="42.34864" lon="14.0939517"><ele>58.6</ele><time>2026-05-02T08:05:21.087Z</time></trkpt><trkpt lat="42.348625" lon="14.09408"><ele>57.8</ele><time>2026-05-02T08:05:22.087Z</time></trkpt><trkpt lat="42.3486233" lon="14.09423"><ele>57.0</ele><time>2026-05-02T08:05:23.088Z</time></trkpt><trkpt lat="42.3486233" lon="14.0944"><ele>56.75</ele><time>2026-05-02T08:05:24.088Z</time></trkpt><trkpt lat="42.34864" lon="14.0945983"><ele>56.5</ele><time>2026-05-02T08:05:25.088Z</time></trkpt><trkpt lat="42.3486483" lon="14.094785"><ele>56.25</ele><time>2026-05-02T08:05:26.088Z</time></trkpt><trkpt lat="42.348645" lon="14.09494"><ele>56.0</ele><time>2026-05-02T08:05:27.087Z</time></trkpt><trkpt lat="42.3486483" lon="14.0950933"><ele>55.8</ele><time>2026-05-02T08:05:28.087Z</time></trkpt><trkpt lat="42.348655" lon="14.0952333"><ele>55.599999999999994</ele><time>2026-05-02T08:05:29.088Z</time></trkpt><trkpt lat="42.348665" lon="14.0953583"><ele>55.4</ele><time>2026-05-02T08:05:30.087Z</time></trkpt><trkpt lat="42.34868" lon="14.095475"><ele>55.2</ele><time>2026-05-02T08:05:31.088Z</time></trkpt><trkpt lat="42.3486933" lon="14.0955967"><ele>55.0</ele><time>2026-05-02T08:05:32.087Z</time></trkpt><trkpt lat="42.348725" lon="14.095745"><ele>54.75</ele><time>2026-05-02T08:05:33.087Z</time></trkpt><trkpt lat="42.3487467" lon="14.095905"><ele>54.5</ele><time>2026-05-02T08:05:34.088Z</time></trkpt><trkpt lat="42.34878" lon="14.0960483"><ele>54.25</ele><time>2026-05-02T08:05:35.088Z</time></trkpt><trkpt lat="42.34882" lon="14.09619"><ele>54.0</ele><time>2026-05-02T08:05:36.087Z</time></trkpt><trkpt lat="42.3488767" lon="14.0963367"><ele>54.0</ele><time>2026-05-02T08:05:37.087Z</time></trkpt><trkpt lat="42.3489433" lon="14.0964967"><ele>54.0</ele><time>2026-05-02T08:05:38.087Z</time></trkpt><trkpt lat="42.3490117" lon="14.0966417"><ele>54.0</ele><time>2026-05-02T08:05:39.088Z</time></trkpt><trkpt lat="42.3490633" lon="14.09678"><ele>54.0</ele><time>2026-05-02T08:05:40.088Z</time></trkpt><trkpt lat="42.3491" lon="14.0969267"><ele>53.75</ele><time>2026-05-02T08:05:41.087Z</time></trkpt><trkpt lat="42.34912" lon="14.0971067"><ele>53.5</ele><time>2026-05-02T08:05:42.087Z</time></trkpt><trkpt lat="42.349125" lon="14.0972883"><ele>53.25</ele><time>2026-05-02T08:05:43.088Z</time></trkpt><trkpt lat="42.34913" lon="14.0974517"><ele>53.0</ele><time>2026-05-02T08:05:44.088Z</time></trkpt><trkpt lat="42.3491283" lon="14.097595"><ele>52.75</ele><time>2026-05-02T08:05:45.087Z</time></trkpt><trkpt lat="42.3491133" lon="14.0977217"><ele>52.5</ele><time>2026-05-02T08:05:46.088Z</time></trkpt><trkpt lat="42.3490867" lon="14.0978583"><ele>52.25</ele><time>2026-05-02T08:05:47.087Z</time></trkpt><trkpt lat="42.34905" lon="14.0980183"><ele>52.0</ele><time>2026-05-02T08:05:48.087Z</time></trkpt><trkpt lat="42.34901" lon="14.0981967"><ele>52.0</ele><time>2026-05-02T08:05:49.088Z</time></trkpt><trkpt lat="42.34896" lon="14.0983783"><ele>52.0</ele><time>2026-05-02T08:05:50.087Z</time></trkpt><trkpt lat="42.3489133" lon="14.0985333"><ele>52.0</ele><time>2026-05-02T08:05:51.087Z</time></trkpt><trkpt lat="42.3488617" lon="14.09866"><ele>52.0</ele><time>2026-05-02T08:05:52.088Z</time></trkpt><trkpt lat="42.3488167" lon="14.0987633"><ele>51.99999999999999</ele><time>2026-05-02T08:05:53.088Z</time></trkpt><trkpt lat="42.34877" lon="14.098845"><ele>52.0</ele><time>2026-05-02T08:05:54.088Z</time></trkpt><trkpt lat="42.3487317" lon="14.09892"><ele>52.0</ele><time>2026-05-02T08:05:55.088Z</time></trkpt><trkpt lat="42.3487" lon="14.098995"><ele>52.0</ele><time>2026-05-02T08:05:56.088Z</time></trkpt><trkpt lat="42.3486567" lon="14.0990983"><ele>51.99999999999999</ele><time>2026-05-02T08:05:58.087Z</time></trkpt><trkpt lat="42.3485867" lon="14.0991867"><ele>52.0</ele><time>2026-05-02T08:06:18.087Z</time></trkpt><trkpt lat="42.3485133" lon="14.0992283"><ele>51.8</ele><time>2026-05-02T08:06:20.087Z</time></trkpt><trkpt lat="42.34842" lon="14.0992417"><ele>51.6</ele><time>2026-05-02T08:06:41.088Z</time></trkpt><trkpt lat="42.3483033" lon="14.0992533"><ele>51.4</ele><time>2026-05-02T08:06:42.088Z</time></trkpt><trkpt lat="42.3481933" lon="14.09926"><ele>51.199999999999996</ele><time>2026-05-02T08:06:43.088Z</time></trkpt><trkpt lat="42.3481033" lon="14.0992733"><ele>51.0</ele><time>2026-05-02T08:06:44.087Z</time></trkpt><trkpt lat="42.3480033" lon="14.0992817"><ele>51.0</ele><time>2026-05-02T08:06:46.088Z</time></trkpt><trkpt lat="42.3479017" lon="14.0992983"><ele>51.0</ele><time>2026-05-02T08:06:48.087Z</time></trkpt><trkpt lat="42.3478217" lon="14.0993133"><ele>51.0</ele><time>2026-05-02T08:06:49.087Z</time></trkpt><trkpt lat="42.3477333" lon="14.0993383"><ele>51.0</ele><time>2026-05-02T08:06:50.087Z</time></trkpt><trkpt lat="42.3476483" lon="14.09939"><ele>51.0</ele><time>2026-05-02T08:06:51.088Z</time></trkpt><trkpt lat="42.3475783" lon="14.0994567"><ele>51.0</ele><time>2026-05-02T08:06:52.087Z</time></trkpt><trkpt lat="42.3475167" lon="14.0995167"><ele>51.0</ele><time>2026-05-02T08:06:53.087Z</time></trkpt><trkpt lat="42.3474167" lon="14.0995367"><ele>51.0</ele><time>2026-05-02T08:06:55.088Z</time></trkpt><trkpt lat="42.3473" lon="14.0994467"><ele>51.0</ele><time>2026-05-02T08:06:57.087Z</time></trkpt><trkpt lat="42.3472283" lon="14.099355"><ele>51.0</ele><time>2026-05-02T08:06:58.088Z</time></trkpt><trkpt lat="42.3471433" lon="14.09925"><ele>51.75</ele><time>2026-05-02T08:06:59.087Z</time></trkpt><trkpt lat="42.347045" lon="14.0991433"><ele>52.5</ele><time>2026-05-02T08:07:00.087Z</time></trkpt><trkpt lat="42.346935" lon="14.09904"><ele>53.25</ele><time>2026-05-02T08:07:01.088Z</time></trkpt><trkpt lat="42.34683" lon="14.0989533"><ele>54.0</ele><time>2026-05-02T08:07:02.088Z</time></trkpt><trkpt lat="42.346715" lon="14.0988983"><ele>54.0</ele><time>2026-05-02T08:07:03.087Z</time></trkpt><trkpt lat="42.3465867" lon="14.098855"><ele>54.0</ele><time>2026-05-02T08:07:04.087Z</time></trkpt><trkpt lat="42.3464533" lon="14.0988283"><ele>54.0</ele><time>2026-05-02T08:07:05.088Z</time></trkpt><trkpt lat="42.34634" lon="14.0988017"><ele>54.0</ele><time>2026-05-02T08:07:06.087Z</time></trkpt><trkpt lat="42.3462367" lon="14.09877"><ele>54.0</ele><time>2026-05-02T08:07:07.088Z</time></trkpt><trkpt lat="42.3461367" lon="14.09871"><ele>54.0</ele><time>2026-05-02T08:07:08.088Z</time></trkpt><trkpt lat="42.3460317" lon="14.0986317"><ele>54.0</ele><time>2026-05-02T08:07:09.088Z</time></trkpt><trkpt lat="42.3459167" lon="14.098525"><ele>54.0</ele><time>2026-05-02T08:07:10.087Z</time></trkpt><trkpt lat="42.34579" lon="14.0983983"><ele>54.0</ele><time>2026-05-02T08:07:11.087Z</time></trkpt><trkpt lat="42.345665" lon="14.098285"><ele>54.0</ele><time>2026-05-02T08:07:12.088Z</time></trkpt><trkpt lat="42.3455533" lon="14.0981967"><ele>54.0</ele><time>2026-05-02T08:07:13.088Z</time></trkpt><trkpt lat="42.345455" lon="14.0981383"><ele>54.0</ele><time>2026-05-02T08:07:14.088Z</time></trkpt><trkpt lat="42.3453683" lon="14.09814"><ele>54.6</ele><time>2026-05-02T08:07:15.087Z</time></trkpt><trkpt lat="42.3452933" lon="14.0981783"><ele>55.2</ele><time>2026-05-02T08:07:16.087Z</time></trkpt><trkpt lat="42.3452267" lon="14.0982617"><ele>55.800000000000004</ele><time>2026-05-02T08:07:17.087Z</time></trkpt><trkpt lat="42.3451717" lon="14.0983733"><ele>56.400000000000006</ele><time>2026-05-02T08:07:18.087Z</time></trkpt><trkpt lat="42.3451083" lon="14.0984867"><ele>57.0</ele><time>2026-05-02T08:07:19.087Z</time></trkpt><trkpt lat="42.3450217" lon="14.0985567"><ele>57.0</ele><time>2026-05-02T08:07:20.087Z</time></trkpt><trkpt lat="42.3449633" lon="14.0985983"><ele>57.0</ele><time>2026-05-02T08:07:21.087Z</time></trkpt><trkpt lat="42.3448983" lon="14.0987217"><ele>57.0</ele><time>2026-05-02T08:07:27.087Z</time></trkpt><trkpt lat="42.3448883" lon="14.0988167"><ele>57.0</ele><time>2026-05-02T08:07:28.088Z</time></trkpt><trkpt lat="42.34489" lon="14.0989467"><ele>57.0</ele><time>2026-05-02T08:07:29.087Z</time></trkpt><trkpt lat="42.3449" lon="14.0991233"><ele>56.33333333333333</ele><time>2026-05-02T08:07:30.088Z</time></trkpt><trkpt lat="42.3449083" lon="14.099325"><ele>55.666666666666664</ele><time>2026-05-02T08:07:31.087Z</time></trkpt><trkpt lat="42.344915" lon="14.0995467"><ele>55.0</ele><time>2026-05-02T08:07:32.087Z</time></trkpt><trkpt lat="42.3449233" lon="14.0997917"><ele>54.33333333333333</ele><time>2026-05-02T08:07:33.087Z</time></trkpt><trkpt lat="42.3449283" lon="14.1000483"><ele>53.66666666666667</ele><time>2026-05-02T08:07:34.087Z</time></trkpt><trkpt lat="42.34492" lon="14.1003133"><ele>53.0</ele><time>2026-05-02T08:07:35.087Z</time></trkpt><trkpt lat="42.3448933" lon="14.1005783"><ele>53.333333333333336</ele><time>2026-05-02T08:07:36.088Z</time></trkpt><trkpt lat="42.3448767" lon="14.100815"><ele>53.66666666666667</ele><time>2026-05-02T08:07:37.087Z</time></trkpt><trkpt lat="42.344865" lon="14.1010383"><ele>54.0</ele><time>2026-05-02T08:07:38.087Z</time></trkpt><trkpt lat="42.34484" lon="14.1012783"><ele>54.0</ele><time>2026-05-02T08:07:39.087Z</time></trkpt><trkpt lat="42.3448017" lon="14.1015417"><ele>54.0</ele><time>2026-05-02T08:07:40.087Z</time></trkpt><trkpt lat="42.34477" lon="14.101825"><ele>54.0</ele><time>2026-05-02T08:07:41.087Z</time></trkpt><trkpt lat="42.3447283" lon="14.1021117"><ele>53.5</ele><time>2026-05-02T08:07:42.088Z</time></trkpt><trkpt lat="42.3446933" lon="14.10241"><ele>53.0</ele><time>2026-05-02T08:07:43.088Z</time></trkpt><trkpt lat="42.34465" lon="14.1027167"><ele>53.0</ele><time>2026-05-02T08:07:44.088Z</time></trkpt><trkpt lat="42.34462" lon="14.10303"><ele>53.0</ele><time>2026-05-02T08:07:45.088Z</time></trkpt><trkpt lat="42.3445833" lon="14.1033383"><ele>52.5</ele><time>2026-05-02T08:07:46.087Z</time></trkpt><trkpt lat="42.344535" lon="14.103645"><ele>52.0</ele><time>2026-05-02T08:07:47.088Z</time></trkpt><trkpt lat="42.3444967" lon="14.10395"><ele>51.5</ele><time>2026-05-02T08:07:48.088Z</time></trkpt><trkpt lat="42.3444583" lon="14.10426"><ele>51.0</ele><time>2026-05-02T08:07:49.087Z</time></trkpt><trkpt lat="42.3444233" lon="14.10458"><ele>49.0</ele><time>2026-05-02T08:07:50.088Z</time></trkpt><trkpt lat="42.3443783" lon="14.10492"><ele>47.0</ele><time>2026-05-02T08:07:51.088Z</time></trkpt><trkpt lat="42.3443383" lon="14.10527"><ele>47.0</ele><time>2026-05-02T08:07:52.088Z</time></trkpt><trkpt lat="42.344295" lon="14.105635"><ele>47.0</ele><time>2026-05-02T08:07:53.088Z</time></trkpt><trkpt lat="42.34426" lon="14.1059967"><ele>47.0</ele><time>2026-05-02T08:07:54.087Z</time></trkpt><trkpt lat="42.344215" lon="14.1063617"><ele>47.0</ele><time>2026-05-02T08:07:55.088Z</time></trkpt><trkpt lat="42.3441667" lon="14.10673"><ele>47.5</ele><time>2026-05-02T08:07:56.088Z</time></trkpt><trkpt lat="42.344115" lon="14.1071083"><ele>48.0</ele><time>2026-05-02T08:07:57.087Z</time></trkpt><trkpt lat="42.3440683" lon="14.10749"><ele>48.0</ele><time>2026-05-02T08:07:58.088Z</time></trkpt><trkpt lat="42.3440233" lon="14.1078533"><ele>48.0</ele><time>2026-05-02T08:07:59.088Z</time></trkpt><trkpt lat="42.343975" lon="14.108185"><ele>48.0</ele><time>2026-05-02T08:08:00.088Z</time></trkpt><trkpt lat="42.343935" lon="14.1084917"><ele>48.0</ele><time>2026-05-02T08:08:01.088Z</time></trkpt><trkpt lat="42.3439" lon="14.1087933"><ele>48.33333333333333</ele><time>2026-05-02T08:08:02.087Z</time></trkpt><trkpt lat="42.34386" lon="14.1090933"><ele>48.666666666666664</ele><time>2026-05-02T08:08:03.088Z</time></trkpt><trkpt lat="42.3438233" lon="14.109375"><ele>49.0</ele><time>2026-05-02T08:08:04.087Z</time></trkpt><trkpt lat="42.3437883" lon="14.10965"><ele>49.0</ele><time>2026-05-02T08:08:05.087Z</time></trkpt><trkpt lat="42.3437617" lon="14.1099017"><ele>49.0</ele><time>2026-05-02T08:08:06.086Z</time></trkpt><trkpt lat="42.3437333" lon="14.1101267"><ele>49.0</ele><time>2026-05-02T08:08:07.087Z</time></trkpt><trkpt lat="42.3437033" lon="14.1103417"><ele>49.0</ele><time>2026-05-02T08:08:08.087Z</time></trkpt><trkpt lat="42.3436883" lon="14.1105333"><ele>49.0</ele><time>2026-05-02T08:08:09.086Z</time></trkpt><trkpt lat="42.34367" lon="14.110695"><ele>49.0</ele><time>2026-05-02T08:08:10.086Z</time></trkpt><trkpt lat="42.34365" lon="14.11084"><ele>49.0</ele><time>2026-05-02T08:08:11.086Z</time></trkpt><trkpt lat="42.343625" lon="14.1109617"><ele>49.0</ele><time>2026-05-02T08:08:12.087Z</time></trkpt><trkpt lat="42.3435967" lon="14.11107"><ele>49.0</ele><time>2026-05-02T08:08:13.086Z</time></trkpt><trkpt lat="42.3435733" lon="14.11117"><ele>49.0</ele><time>2026-05-02T08:08:14.087Z</time></trkpt><trkpt lat="42.3435617" lon="14.11126"><ele>49.0</ele><time>2026-05-02T08:08:15.086Z</time></trkpt><trkpt lat="42.343615" lon="14.111405"><ele>49.0</ele><time>2026-05-02T08:08:17.086Z</time></trkpt><trkpt lat="42.34375" lon="14.111475"><ele>49.0</ele><time>2026-05-02T08:08:19.086Z</time></trkpt><trkpt lat="42.34385" lon="14.1115233"><ele>49.0</ele><time>2026-05-02T08:08:20.086Z</time></trkpt><trkpt lat="42.343955" lon="14.1115933"><ele>49.0</ele><time>2026-05-02T08:08:21.086Z</time></trkpt><trkpt lat="42.3440683" lon="14.1116667"><ele>49.0</ele><time>2026-05-02T08:08:22.086Z</time></trkpt><trkpt lat="42.3441917" lon="14.1117433"><ele>48.75</ele><time>2026-05-02T08:08:23.086Z</time></trkpt><trkpt lat="42.3443217" lon="14.1118267"><ele>48.5</ele><time>2026-05-02T08:08:24.086Z</time></trkpt><trkpt lat="42.34445" lon="14.111915"><ele>48.25</ele><time>2026-05-02T08:08:25.087Z</time></trkpt><trkpt lat="42.3445817" lon="14.112"><ele>48.0</ele><time>2026-05-02T08:08:26.087Z</time></trkpt><trkpt lat="42.344725" lon="14.11209"><ele>47.0</ele><time>2026-05-02T08:08:27.086Z</time></trkpt><trkpt lat="42.344875" lon="14.112185"><ele>46.0</ele><time>2026-05-02T08:08:28.086Z</time></trkpt><trkpt lat="42.3450417" lon="14.1122733"><ele>45.0</ele><time>2026-05-02T08:08:29.086Z</time></trkpt><trkpt lat="42.3452267" lon="14.1123633"><ele>45.333333333333336</ele><time>2026-05-02T08:08:30.086Z</time></trkpt><trkpt lat="42.345425" lon="14.1124283"><ele>45.66666666666667</ele><time>2026-05-02T08:08:31.086Z</time></trkpt><trkpt lat="42.3456267" lon="14.1124967"><ele>46.0</ele><time>2026-05-02T08:08:32.087Z</time></trkpt><trkpt lat="42.3458417" lon="14.112565"><ele>46.0</ele><time>2026-05-02T08:08:33.086Z</time></trkpt><trkpt lat="42.3460617" lon="14.1126433"><ele>46.0</ele><time>2026-05-02T08:08:34.087Z</time></trkpt><trkpt lat="42.3462933" lon="14.1127333"><ele>45.0</ele><time>2026-05-02T08:08:35.087Z</time></trkpt><trkpt lat="42.3465267" lon="14.1128367"><ele>44.0</ele><time>2026-05-02T08:08:36.086Z</time></trkpt><trkpt lat="42.34674" lon="14.1129383"><ele>44.0</ele><time>2026-05-02T08:08:37.087Z</time></trkpt><trkpt lat="42.34693" lon="14.113035"><ele>44.0</ele><time>2026-05-02T08:08:38.086Z</time></trkpt><trkpt lat="42.347105" lon="14.1130983"><ele>44.0</ele><time>2026-05-02T08:08:39.087Z</time></trkpt><trkpt lat="42.347245" lon="14.1131617"><ele>44.25</ele><time>2026-05-02T08:08:40.086Z</time></trkpt><trkpt lat="42.347365" lon="14.113225"><ele>44.5</ele><time>2026-05-02T08:08:41.086Z</time></trkpt><trkpt lat="42.347495" lon="14.1132967"><ele>44.75</ele><time>2026-05-02T08:08:42.087Z</time></trkpt><trkpt lat="42.347625" lon="14.1133683"><ele>45.0</ele><time>2026-05-02T08:08:43.087Z</time></trkpt><trkpt lat="42.34776" lon="14.11343"><ele>45.0</ele><time>2026-05-02T08:08:44.087Z</time></trkpt><trkpt lat="42.347885" lon="14.11349"><ele>45.0</ele><time>2026-05-02T08:08:45.087Z</time></trkpt><trkpt lat="42.3479833" lon="14.1135433"><ele>45.0</ele><time>2026-05-02T08:08:46.087Z</time></trkpt><trkpt lat="42.3480733" lon="14.1135967"><ele>45.0</ele><time>2026-05-02T08:08:47.087Z</time></trkpt><trkpt lat="42.3481533" lon="14.11363"><ele>45.0</ele><time>2026-05-02T08:08:48.086Z</time></trkpt><trkpt lat="42.34823" lon="14.11365"><ele>45.0</ele><time>2026-05-02T08:08:49.087Z</time></trkpt><trkpt lat="42.348315" lon="14.11366"><ele>45.0</ele><time>2026-05-02T08:08:50.086Z</time></trkpt><trkpt lat="42.3484033" lon="14.1136567"><ele>45.0</ele><time>2026-05-02T08:08:51.086Z</time></trkpt><trkpt lat="42.348495" lon="14.1136317"><ele>45.0</ele><time>2026-05-02T08:08:52.086Z</time></trkpt><trkpt lat="42.3485917" lon="14.1135767"><ele>45.0</ele><time>2026-05-02T08:08:53.087Z</time></trkpt><trkpt lat="42.3487017" lon="14.1135033"><ele>45.0</ele><time>2026-05-02T08:08:54.087Z</time></trkpt><trkpt lat="42.3488167" lon="14.1134283"><ele>45.0</ele><time>2026-05-02T08:08:55.086Z</time></trkpt><trkpt lat="42.3489417" lon="14.1133533"><ele>45.0</ele><time>2026-05-02T08:08:56.086Z</time></trkpt><trkpt lat="42.3490667" lon="14.1132617"><ele>45.0</ele><time>2026-05-02T08:08:57.087Z</time></trkpt><trkpt lat="42.3491917" lon="14.1131717"><ele>44.2</ele><time>2026-05-02T08:08:58.086Z</time></trkpt><trkpt lat="42.3493" lon="14.1130983"><ele>43.4</ele><time>2026-05-02T08:08:59.087Z</time></trkpt><trkpt lat="42.349405" lon="14.1130283"><ele>42.599999999999994</ele><time>2026-05-02T08:09:00.086Z</time></trkpt><trkpt lat="42.3495017" lon="14.1129683"><ele>41.8</ele><time>2026-05-02T08:09:01.086Z</time></trkpt><trkpt lat="42.349585" lon="14.1129133"><ele>41.0</ele><time>2026-05-02T08:09:02.087Z</time></trkpt><trkpt lat="42.3496567" lon="14.1128617"><ele>41.5</ele><time>2026-05-02T08:09:03.087Z</time></trkpt><trkpt lat="42.3497283" lon="14.112805"><ele>42.0</ele><time>2026-05-02T08:09:04.087Z</time></trkpt><trkpt lat="42.3498" lon="14.1127517"><ele>42.5</ele><time>2026-05-02T08:09:05.087Z</time></trkpt><trkpt lat="42.34987" lon="14.1127033"><ele>43.0</ele><time>2026-05-02T08:09:06.087Z</time></trkpt><trkpt lat="42.3499367" lon="14.1126567"><ele>43.5</ele><time>2026-05-02T08:09:07.087Z</time></trkpt><trkpt lat="42.3499883" lon="14.112605"><ele>44.0</ele><time>2026-05-02T08:09:08.087Z</time></trkpt><trkpt lat="42.3500583" lon="14.1124883"><ele>45.0</ele><time>2026-05-02T08:09:10.086Z</time></trkpt><trkpt lat="42.3500633" lon="14.1123267"><ele>46.0</ele><time>2026-05-02T08:09:12.087Z</time></trkpt><trkpt lat="42.3500417" lon="14.1121717"><ele>47.0</ele><time>2026-05-02T08:09:14.086Z</time></trkpt><trkpt lat="42.3500317" lon="14.1120567"><ele>48.0</ele><time>2026-05-02T08:09:16.086Z</time></trkpt><trkpt lat="42.3500417" lon="14.1119433"><ele>49.0</ele><time>2026-05-02T08:09:18.087Z</time></trkpt><trkpt lat="42.3500517" lon="14.1117867"><ele>48.99999999999999</ele><time>2026-05-02T08:09:20.087Z</time></trkpt><trkpt lat="42.350075" lon="14.1116817"><ele>49.0</ele><time>2026-05-02T08:09:22.087Z</time></trkpt><trkpt lat="42.350025" lon="14.1117467"><ele>49.0</ele><time>2026-05-02T08:09:29.086Z</time></trkpt><trkpt lat="42.3500133" lon="14.1119"><ele>49.0</ele><time>2026-05-02T08:09:31.086Z</time></trkpt><trkpt lat="42.3500083" lon="14.111995"><ele>48.99999999999999</ele><time>2026-05-02T08:09:32.086Z</time></trkpt><trkpt lat="42.3499933" lon="14.1120883"><ele>49.0</ele><time>2026-05-02T08:09:33.086Z</time></trkpt><trkpt lat="42.3499533" lon="14.1122083"><ele>49.0</ele><time>2026-05-02T08:09:35.087Z</time></trkpt><trkpt lat="42.3499" lon="14.112315"><ele>49.0</ele><time>2026-05-02T08:09:37.087Z</time></trkpt><trkpt lat="42.349835" lon="14.1124617"><ele>49.0</ele><time>2026-05-02T08:09:39.087Z</time></trkpt><trkpt lat="42.3497933" lon="14.11254"><ele>49.0</ele><time>2026-05-02T08:09:40.087Z</time></trkpt><trkpt lat="42.349705" lon="14.1126267"><ele>49.0</ele><time>2026-05-02T08:09:42.087Z</time></trkpt><trkpt lat="42.34965" lon="14.1126783"><ele>47.800000000000004</ele><time>2026-05-02T08:09:43.086Z</time></trkpt><trkpt lat="42.3495967" lon="14.1127267"><ele>46.6</ele><time>2026-05-02T08:09:44.087Z</time></trkpt><trkpt lat="42.3495" lon="14.1127217"><ele>45.4</ele><time>2026-05-02T08:09:46.087Z</time></trkpt><trkpt lat="42.3494333" lon="14.1126"><ele>44.2</ele><time>2026-05-02T08:09:48.087Z</time></trkpt><trkpt lat="42.349395" lon="14.112465"><ele>43.0</ele><time>2026-05-02T08:09:50.087Z</time></trkpt><trkpt lat="42.3493" lon="14.1123317"><ele>43.0</ele><time>2026-05-02T08:09:52.087Z</time></trkpt><trkpt lat="42.3492183" lon="14.1122783"><ele>43.0</ele><time>2026-05-02T08:09:53.087Z</time></trkpt><trkpt lat="42.34915" lon="14.1122217"><ele>43.0</ele><time>2026-05-02T08:09:54.087Z</time></trkpt><trkpt lat="42.3490533" lon="14.1121517"><ele>43.0</ele><time>2026-05-02T08:09:56.087Z</time></trkpt><trkpt lat="42.3490167" lon="14.11204"><ele>43.0</ele><time>2026-05-02T08:09:58.086Z</time></trkpt><trkpt lat="42.3490083" lon="14.1119367"><ele>43.0</ele><time>2026-05-02T08:09:59.087Z</time></trkpt><trkpt lat="42.3490033" lon="14.111815"><ele>43.0</ele><time>2026-05-02T08:10:00.086Z</time></trkpt><trkpt lat="42.34899" lon="14.1116867"><ele>43.0</ele><time>2026-05-02T08:10:01.087Z</time></trkpt><trkpt lat="42.3489767" lon="14.1115633"><ele>43.0</ele><time>2026-05-02T08:10:02.086Z</time></trkpt><trkpt lat="42.3489617" lon="14.1114217"><ele>43.0</ele><time>2026-05-02T08:10:03.086Z</time></trkpt><trkpt lat="42.348945" lon="14.11126"><ele>43.0</ele><time>2026-05-02T08:10:04.086Z</time></trkpt><trkpt lat="42.348925" lon="14.1111017"><ele>43.0</ele><time>2026-05-02T08:10:05.087Z</time></trkpt><trkpt lat="42.3489067" lon="14.1109617"><ele>43.0</ele><time>2026-05-02T08:10:06.086Z</time></trkpt><trkpt lat="42.348905" lon="14.1108517"><ele>43.0</ele><time>2026-05-02T08:10:07.086Z</time></trkpt><trkpt lat="42.3489167" lon="14.1107367"><ele>43.0</ele><time>2026-05-02T08:10:08.086Z</time></trkpt><trkpt lat="42.348925" lon="14.1106433"><ele>43.0</ele><time>2026-05-02T08:10:09.086Z</time></trkpt><trkpt lat="42.3489117" lon="14.1105"><ele>43.0</ele><time>2026-05-02T08:10:11.087Z</time></trkpt><trkpt lat="42.3488833" lon="14.1103533"><ele>42.599999999999994</ele><time>2026-05-02T08:10:13.087Z</time></trkpt><trkpt lat="42.34887" lon="14.11025"><ele>42.199999999999996</ele><time>2026-05-02T08:10:14.086Z</time></trkpt><trkpt lat="42.348855" lon="14.11015"><ele>41.8</ele><time>2026-05-02T08:10:15.087Z</time></trkpt><trkpt lat="42.34881" lon="14.1100217"><ele>41.4</ele><time>2026-05-02T08:10:17.087Z</time></trkpt><trkpt lat="42.348725" lon="14.109915"><ele>41.0</ele><time>2026-05-02T08:10:19.087Z</time></trkpt><trkpt lat="42.34864" lon="14.10985"><ele>42.0</ele><time>2026-05-02T08:10:20.086Z</time></trkpt><trkpt lat="42.3485617" lon="14.1097967"><ele>43.0</ele><time>2026-05-02T08:10:21.086Z</time></trkpt><trkpt lat="42.3485017" lon="14.1097533"><ele>44.0</ele><time>2026-05-02T08:10:22.087Z</time></trkpt><trkpt lat="42.34844" lon="14.1097"><ele>45.0</ele><time>2026-05-02T08:10:24.086Z</time></trkpt><trkpt lat="42.34838" lon="14.1096333"><ele>46.0</ele><time>2026-05-02T08:10:26.087Z</time></trkpt><trkpt lat="42.348305" lon="14.10953"><ele>47.0</ele><time>2026-05-02T08:10:28.086Z</time></trkpt><trkpt lat="42.3482133" lon="14.1094083"><ele>47.0</ele><time>2026-05-02T08:10:30.087Z</time></trkpt><trkpt lat="42.3481667" lon="14.1093333"><ele>47.0</ele><time>2026-05-02T08:10:31.086Z</time></trkpt><trkpt lat="42.3481233" lon="14.1092417"><ele>47.0</ele><time>2026-05-02T08:10:32.086Z</time></trkpt><trkpt lat="42.3480583" lon="14.1091467"><ele>47.0</ele><time>2026-05-02T08:10:33.087Z</time></trkpt><trkpt lat="42.3479967" lon="14.1090617"><ele>47.0</ele><time>2026-05-02T08:10:34.086Z</time></trkpt><trkpt lat="42.3479433" lon="14.1089683"><ele>47.0</ele><time>2026-05-02T08:10:35.086Z</time></trkpt><trkpt lat="42.3478933" lon="14.108855"><ele>46.75</ele><time>2026-05-02T08:10:36.087Z</time></trkpt><trkpt lat="42.3478333" lon="14.1087133"><ele>46.5</ele><time>2026-05-02T08:10:37.087Z</time></trkpt><trkpt lat="42.3477683" lon="14.1085533"><ele>46.25</ele><time>2026-05-02T08:10:38.087Z</time></trkpt><trkpt lat="42.34769" lon="14.1083933"><ele>46.0</ele><time>2026-05-02T08:10:39.087Z</time></trkpt><trkpt lat="42.3476083" lon="14.10824"><ele>46.0</ele><time>2026-05-02T08:10:40.086Z</time></trkpt><trkpt lat="42.3475383" lon="14.1081167"><ele>46.0</ele><time>2026-05-02T08:10:41.086Z</time></trkpt><trkpt lat="42.34748" lon="14.1080117"><ele>46.0</ele><time>2026-05-02T08:10:42.087Z</time></trkpt><trkpt lat="42.3474433" lon="14.1079033"><ele>46.0</ele><time>2026-05-02T08:10:43.086Z</time></trkpt><trkpt lat="42.34742" lon="14.10778"><ele>46.0</ele><time>2026-05-02T08:10:44.087Z</time></trkpt><trkpt lat="42.3474" lon="14.1076433"><ele>46.0</ele><time>2026-05-02T08:10:45.086Z</time></trkpt><trkpt lat="42.3473667" lon="14.107515"><ele>46.0</ele><time>2026-05-02T08:10:46.086Z</time></trkpt><trkpt lat="42.3473283" lon="14.1073867"><ele>46.0</ele><time>2026-05-02T08:10:47.086Z</time></trkpt><trkpt lat="42.3472867" lon="14.107275"><ele>46.0</ele><time>2026-05-02T08:10:48.086Z</time></trkpt><trkpt lat="42.347245" lon="14.1071717"><ele>46.0</ele><time>2026-05-02T08:10:49.087Z</time></trkpt><trkpt lat="42.34721" lon="14.1070767"><ele>46.0</ele><time>2026-05-02T08:10:50.087Z</time></trkpt><trkpt lat="42.3471767" lon="14.1069183"><ele>46.0</ele><time>2026-05-02T08:10:52.086Z</time></trkpt><trkpt lat="42.3471833" lon="14.1068217"><ele>46.0</ele><time>2026-05-02T08:10:53.086Z</time></trkpt><trkpt lat="42.347215" lon="14.1067017"><ele>46.0</ele><time>2026-05-02T08:10:54.087Z</time></trkpt><trkpt lat="42.3472583" lon="14.1065833"><ele>46.0</ele><time>2026-05-02T08:10:55.086Z</time></trkpt><trkpt lat="42.3472983" lon="14.10647"><ele>46.0</ele><time>2026-05-02T08:10:56.087Z</time></trkpt><trkpt lat="42.3473317" lon="14.10635"><ele>46.0</ele><time>2026-05-02T08:10:57.087Z</time></trkpt><trkpt lat="42.347365" lon="14.106225"><ele>46.0</ele><time>2026-05-02T08:10:58.087Z</time></trkpt><trkpt lat="42.3474067" lon="14.1061017"><ele>46.0</ele><time>2026-05-02T08:10:59.086Z</time></trkpt><trkpt lat="42.347435" lon="14.1059717"><ele>46.0</ele><time>2026-05-02T08:11:00.086Z</time></trkpt><trkpt lat="42.3474617" lon="14.1058633"><ele>46.0</ele><time>2026-05-02T08:11:01.086Z</time></trkpt><trkpt lat="42.3475033" lon="14.105775"><ele>46.0</ele><time>2026-05-02T08:11:02.087Z</time></trkpt><trkpt lat="42.3475667" lon="14.10569"><ele>46.0</ele><time>2026-05-02T08:11:03.087Z</time></trkpt><trkpt lat="42.347625" lon="14.1055867"><ele>46.0</ele><time>2026-05-02T08:11:04.086Z</time></trkpt><trkpt lat="42.3477" lon="14.1054533"><ele>46.0</ele><time>2026-05-02T08:11:05.086Z</time></trkpt><trkpt lat="42.347775" lon="14.105315"><ele>45.75</ele><time>2026-05-02T08:11:06.087Z</time></trkpt><trkpt lat="42.3478533" lon="14.1051783"><ele>45.5</ele><time>2026-05-02T08:11:07.086Z</time></trkpt><trkpt lat="42.3479283" lon="14.105045"><ele>45.25</ele><time>2026-05-02T08:11:08.086Z</time></trkpt><trkpt lat="42.347995" lon="14.1049183"><ele>45.0</ele><time>2026-05-02T08:11:09.086Z</time></trkpt><trkpt lat="42.34807" lon="14.1048083"><ele>46.2</ele><time>2026-05-02T08:11:10.086Z</time></trkpt><trkpt lat="42.3481383" lon="14.104715"><ele>47.4</ele><time>2026-05-02T08:11:11.086Z</time></trkpt><trkpt lat="42.3481967" lon="14.1046183"><ele>48.599999999999994</ele><time>2026-05-02T08:11:12.086Z</time></trkpt><trkpt lat="42.3482467" lon="14.1045033"><ele>49.8</ele><time>2026-05-02T08:11:13.087Z</time></trkpt><trkpt lat="42.348285" lon="14.1043867"><ele>51.0</ele><time>2026-05-02T08:11:14.087Z</time></trkpt><trkpt lat="42.3483217" lon="14.10426"><ele>51.0</ele><time>2026-05-02T08:11:15.087Z</time></trkpt><trkpt lat="42.3483617" lon="14.1041167"><ele>51.0</ele><time>2026-05-02T08:11:16.087Z</time></trkpt><trkpt lat="42.3484033" lon="14.1039717"><ele>51.0</ele><time>2026-05-02T08:11:17.087Z</time></trkpt><trkpt lat="42.3484333" lon="14.103825"><ele>51.0</ele><time>2026-05-02T08:11:18.086Z</time></trkpt><trkpt lat="42.348465" lon="14.1036633"><ele>50.25</ele><time>2026-05-02T08:11:19.087Z</time></trkpt><trkpt lat="42.34849" lon="14.10348"><ele>49.5</ele><time>2026-05-02T08:11:20.087Z</time></trkpt><trkpt lat="42.3485067" lon="14.10329"><ele>48.75</ele><time>2026-05-02T08:11:21.086Z</time></trkpt><trkpt lat="42.3485167" lon="14.1030783"><ele>48.0</ele><time>2026-05-02T08:11:22.086Z</time></trkpt><trkpt lat="42.3485333" lon="14.1028583"><ele>48.0</ele><time>2026-05-02T08:11:23.087Z</time></trkpt><trkpt lat="42.348555" lon="14.1026533"><ele>48.0</ele><time>2026-05-02T08:11:24.086Z</time></trkpt><trkpt lat="42.34858" lon="14.1024517"><ele>48.0</ele><time>2026-05-02T08:11:25.087Z</time></trkpt><trkpt lat="42.3486133" lon="14.102245"><ele>48.0</ele><time>2026-05-02T08:11:26.087Z</time></trkpt><trkpt lat="42.3486467" lon="14.1020417"><ele>48.0</ele><time>2026-05-02T08:11:27.086Z</time></trkpt><trkpt lat="42.3486917" lon="14.101835"><ele>48.0</ele><time>2026-05-02T08:11:28.086Z</time></trkpt><trkpt lat="42.3487383" lon="14.101625"><ele>48.4</ele><time>2026-05-02T08:11:29.087Z</time></trkpt><trkpt lat="42.348785" lon="14.1014467"><ele>48.8</ele><time>2026-05-02T08:11:30.087Z</time></trkpt><trkpt lat="42.3488183" lon="14.1013133"><ele>49.2</ele><time>2026-05-02T08:11:31.086Z</time></trkpt><trkpt lat="42.3488533" lon="14.1012067"><ele>49.6</ele><time>2026-05-02T08:11:32.086Z</time></trkpt><trkpt lat="42.3488833" lon="14.10113"><ele>50.0</ele><time>2026-05-02T08:11:33.087Z</time></trkpt><trkpt lat="42.348975" lon="14.101025"><ele>50.333333333333336</ele><time>2026-05-02T08:11:35.086Z</time></trkpt><trkpt lat="42.3490383" lon="14.1009617"><ele>50.66666666666667</ele><time>2026-05-02T08:11:36.087Z</time></trkpt><trkpt lat="42.349095" lon="14.1008833"><ele>51.0</ele><time>2026-05-02T08:11:37.087Z</time></trkpt><trkpt lat="42.3491483" lon="14.1008"><ele>51.33333333333333</ele><time>2026-05-02T08:11:38.087Z</time></trkpt><trkpt lat="42.3491817" lon="14.1007167"><ele>51.666666666666664</ele><time>2026-05-02T08:11:39.086Z</time></trkpt><trkpt lat="42.3492267" lon="14.1006383"><ele>52.0</ele><time>2026-05-02T08:11:40.086Z</time></trkpt><trkpt lat="42.3492767" lon="14.1005667"><ele>52.0</ele><time>2026-05-02T08:11:41.086Z</time></trkpt><trkpt lat="42.349325" lon="14.100475"><ele>52.0</ele><time>2026-05-02T08:11:42.087Z</time></trkpt><trkpt lat="42.3493733" lon="14.100365"><ele>52.0</ele><time>2026-05-02T08:11:43.086Z</time></trkpt><trkpt lat="42.3494233" lon="14.10023"><ele>52.0</ele><time>2026-05-02T08:11:44.087Z</time></trkpt><trkpt lat="42.349465" lon="14.100095"><ele>52.0</ele><time>2026-05-02T08:11:45.086Z</time></trkpt><trkpt lat="42.3495" lon="14.0999717"><ele>51.33333333333333</ele><time>2026-05-02T08:11:46.086Z</time></trkpt><trkpt lat="42.3495183" lon="14.0998867"><ele>50.666666666666664</ele><time>2026-05-02T08:11:47.086Z</time></trkpt><trkpt lat="42.3495317" lon="14.099755"><ele>50.0</ele><time>2026-05-02T08:11:49.087Z</time></trkpt><trkpt lat="42.3495217" lon="14.0996267"><ele>49.33333333333333</ele><time>2026-05-02T08:11:51.087Z</time></trkpt><trkpt lat="42.3494983" lon="14.0994833"><ele>48.666666666666664</ele><time>2026-05-02T08:11:53.087Z</time></trkpt><trkpt lat="42.3494667" lon="14.0994033"><ele>48.0</ele><time>2026-05-02T08:11:54.086Z</time></trkpt><trkpt lat="42.3494383" lon="14.0993217"><ele>48.0</ele><time>2026-05-02T08:11:55.086Z</time></trkpt><trkpt lat="42.3494267" lon="14.099175"><ele>48.0</ele><time>2026-05-02T08:11:57.087Z</time></trkpt><trkpt lat="42.3494217" lon="14.0990583"><ele>48.0</ele><time>2026-05-02T08:11:59.087Z</time></trkpt><trkpt lat="42.3494467" lon="14.0989133"><ele>48.0</ele><time>2026-05-02T08:12:01.086Z</time></trkpt><trkpt lat="42.349475" lon="14.098805"><ele>48.0</ele><time>2026-05-02T08:12:02.087Z</time></trkpt><trkpt lat="42.3495133" lon="14.09867"><ele>48.5</ele><time>2026-05-02T08:12:03.086Z</time></trkpt><trkpt lat="42.3495583" lon="14.0985083"><ele>49.0</ele><time>2026-05-02T08:12:04.086Z</time></trkpt><trkpt lat="42.34959" lon="14.0983183"><ele>49.5</ele><time>2026-05-02T08:12:05.086Z</time></trkpt><trkpt lat="42.349625" lon="14.0981283"><ele>50.0</ele><time>2026-05-02T08:12:06.086Z</time></trkpt><trkpt lat="42.3496567" lon="14.09796"><ele>50.25</ele><time>2026-05-02T08:12:07.086Z</time></trkpt><trkpt lat="42.3497" lon="14.09779"><ele>50.5</ele><time>2026-05-02T08:12:08.087Z</time></trkpt><trkpt lat="42.3497433" lon="14.0976183"><ele>50.75</ele><time>2026-05-02T08:12:09.087Z</time></trkpt><trkpt lat="42.3497933" lon="14.0974483"><ele>51.0</ele><time>2026-05-02T08:12:10.086Z</time></trkpt><trkpt lat="42.3498367" lon="14.0972733"><ele>51.0</ele><time>2026-05-02T08:12:11.087Z</time></trkpt><trkpt lat="42.3498783" lon="14.0970883"><ele>51.0</ele><time>2026-05-02T08:12:12.087Z</time></trkpt><trkpt lat="42.3499067" lon="14.096895"><ele>51.0</ele><time>2026-05-02T08:12:13.086Z</time></trkpt><trkpt lat="42.3499333" lon="14.0967083"><ele>51.0</ele><time>2026-05-02T08:12:14.087Z</time></trkpt><trkpt lat="42.349945" lon="14.0965167"><ele>51.25</ele><time>2026-05-02T08:12:15.087Z</time></trkpt><trkpt lat="42.34995" lon="14.09632"><ele>51.5</ele><time>2026-05-02T08:12:16.086Z</time></trkpt><trkpt lat="42.3499633" lon="14.0961183"><ele>51.75</ele><time>2026-05-02T08:12:17.086Z</time></trkpt><trkpt lat="42.349985" lon="14.095915"><ele>52.0</ele><time>2026-05-02T08:12:18.086Z</time></trkpt><trkpt lat="42.3499933" lon="14.0957"><ele>52.0</ele><time>2026-05-02T08:12:19.086Z</time></trkpt><trkpt lat="42.3500067" lon="14.0954783"><ele>52.0</ele><time>2026-05-02T08:12:20.087Z</time></trkpt><trkpt lat="42.35002" lon="14.09528"><ele>52.0</ele><time>2026-05-02T08:12:21.087Z</time></trkpt><trkpt lat="42.3500133" lon="14.0950767"><ele>52.0</ele><time>2026-05-02T08:12:22.086Z</time></trkpt><trkpt lat="42.3500017" lon="14.0948633"><ele>52.0</ele><time>2026-05-02T08:12:23.087Z</time></trkpt><trkpt lat="42.3499717" lon="14.0946367"><ele>52.0</ele><time>2026-05-02T08:12:24.087Z</time></trkpt><trkpt lat="42.3499383" lon="14.0944233"><ele>52.0</ele><time>2026-05-02T08:12:25.087Z</time></trkpt><trkpt lat="42.3499" lon="14.0942367"><ele>52.0</ele><time>2026-05-02T08:12:26.087Z</time></trkpt><trkpt lat="42.3498633" lon="14.094065"><ele>52.0</ele><time>2026-05-02T08:12:27.086Z</time></trkpt><trkpt lat="42.3498367" lon="14.09391"><ele>52.0</ele><time>2026-05-02T08:12:28.086Z</time></trkpt><trkpt lat="42.3497967" lon="14.09376"><ele>51.8</ele><time>2026-05-02T08:12:29.086Z</time></trkpt><trkpt lat="42.349765" lon="14.0936133"><ele>51.6</ele><time>2026-05-02T08:12:30.087Z</time></trkpt><trkpt lat="42.3497167" lon="14.0934883"><ele>51.4</ele><time>2026-05-02T08:12:31.087Z</time></trkpt><trkpt lat="42.34967" lon="14.0933983"><ele>51.199999999999996</ele><time>2026-05-02T08:12:32.087Z</time></trkpt><trkpt lat="42.3496283" lon="14.0933317"><ele>51.0</ele><time>2026-05-02T08:12:33.087Z</time></trkpt><trkpt lat="42.3496117" lon="14.0931483"><ele>52.0</ele><time>2026-05-02T08:12:35.087Z</time></trkpt><trkpt lat="42.3496067" lon="14.0930317"><ele>53.0</ele><time>2026-05-02T08:12:36.086Z</time></trkpt><trkpt lat="42.3495867" lon="14.0929117"><ele>53.99999999999999</ele><time>2026-05-02T08:12:37.086Z</time></trkpt><trkpt lat="42.3495533" lon="14.0927883"><ele>55.0</ele><time>2026-05-02T08:12:38.087Z</time></trkpt><trkpt lat="42.3494983" lon="14.09266"><ele>56.0</ele><time>2026-05-02T08:12:39.087Z</time></trkpt><trkpt lat="42.3494317" lon="14.0925467"><ele>56.0</ele><time>2026-05-02T08:12:40.086Z</time></trkpt><trkpt lat="42.3493733" lon="14.092445"><ele>55.99999999999999</ele><time>2026-05-02T08:12:41.087Z</time></trkpt><trkpt lat="42.3493317" lon="14.092325"><ele>55.99999999999999</ele><time>2026-05-02T08:12:42.086Z</time></trkpt><trkpt lat="42.3492967" lon="14.092185"><ele>56.0</ele><time>2026-05-02T08:12:43.086Z</time></trkpt><trkpt lat="42.3492567" lon="14.0920033"><ele>56.0</ele><time>2026-05-02T08:12:44.086Z</time></trkpt><trkpt lat="42.3492083" lon="14.091815"><ele>56.25</ele><time>2026-05-02T08:12:45.087Z</time></trkpt><trkpt lat="42.3491683" lon="14.091625"><ele>56.5</ele><time>2026-05-02T08:12:46.086Z</time></trkpt><trkpt lat="42.3491417" lon="14.0914383"><ele>56.75</ele><time>2026-05-02T08:12:47.086Z</time></trkpt><trkpt lat="42.3491183" lon="14.0912467"><ele>57.0</ele><time>2026-05-02T08:12:48.086Z</time></trkpt><trkpt lat="42.34911" lon="14.0910633"><ele>57.0</ele><time>2026-05-02T08:12:49.087Z</time></trkpt><trkpt lat="42.349105" lon="14.0908933"><ele>57.0</ele><time>2026-05-02T08:12:50.087Z</time></trkpt><trkpt lat="42.3490783" lon="14.0907133"><ele>57.0</ele><time>2026-05-02T08:12:51.086Z</time></trkpt><trkpt lat="42.3490383" lon="14.090515"><ele>57.0</ele><time>2026-05-02T08:12:52.087Z</time></trkpt><trkpt lat="42.3489967" lon="14.0902983"><ele>57.0</ele><time>2026-05-02T08:12:53.086Z</time></trkpt><trkpt lat="42.348965" lon="14.090085"><ele>57.0</ele><time>2026-05-02T08:12:54.086Z</time></trkpt><trkpt lat="42.3489283" lon="14.0898583"><ele>57.0</ele><time>2026-05-02T08:12:55.086Z</time></trkpt><trkpt lat="42.3489017" lon="14.089655"><ele>57.0</ele><time>2026-05-02T08:12:56.086Z</time></trkpt><trkpt lat="42.3488783" lon="14.0894683"><ele>57.0</ele><time>2026-05-02T08:12:57.086Z</time></trkpt><trkpt lat="42.3488433" lon="14.0893033"><ele>57.0</ele><time>2026-05-02T08:12:58.086Z</time></trkpt><trkpt lat="42.348815" lon="14.08912"><ele>57.0</ele><time>2026-05-02T08:12:59.087Z</time></trkpt><trkpt lat="42.3487867" lon="14.0889283"><ele>58.25</ele><time>2026-05-02T08:13:00.087Z</time></trkpt><trkpt lat="42.34877" lon="14.0887133"><ele>59.5</ele><time>2026-05-02T08:13:01.086Z</time></trkpt><trkpt lat="42.3487683" lon="14.0885183"><ele>60.75</ele><time>2026-05-02T08:13:02.087Z</time></trkpt><trkpt lat="42.3487683" lon="14.08833"><ele>62.0</ele><time>2026-05-02T08:13:03.086Z</time></trkpt><trkpt lat="42.348765" lon="14.0881617"><ele>62.0</ele><time>2026-05-02T08:13:04.087Z</time></trkpt><trkpt lat="42.34875" lon="14.0879967"><ele>62.0</ele><time>2026-05-02T08:13:05.086Z</time></trkpt><trkpt lat="42.3487117" lon="14.0878483"><ele>62.0</ele><time>2026-05-02T08:13:06.087Z</time></trkpt><trkpt lat="42.3486817" lon="14.087715"><ele>62.0</ele><time>2026-05-02T08:13:07.086Z</time></trkpt><trkpt lat="42.3486633" lon="14.0875783"><ele>62.0</ele><time>2026-05-02T08:13:08.086Z</time></trkpt><trkpt lat="42.3486517" lon="14.087445"><ele>62.16666666666667</ele><time>2026-05-02T08:13:09.086Z</time></trkpt><trkpt lat="42.34864" lon="14.087305"><ele>62.333333333333336</ele><time>2026-05-02T08:13:10.087Z</time></trkpt><trkpt lat="42.3486217" lon="14.0871867"><ele>62.5</ele><time>2026-05-02T08:13:11.086Z</time></trkpt><trkpt lat="42.3485883" lon="14.0870867"><ele>62.66666666666667</ele><time>2026-05-02T08:13:12.087Z</time></trkpt><trkpt lat="42.3485267" lon="14.0870067"><ele>62.833333333333336</ele><time>2026-05-02T08:13:13.087Z</time></trkpt><trkpt lat="42.34846" lon="14.0869383"><ele>63.0</ele><time>2026-05-02T08:13:14.087Z</time></trkpt><trkpt lat="42.3483917" lon="14.0868867"><ele>63.0</ele><time>2026-05-02T08:13:15.087Z</time></trkpt><trkpt lat="42.3483167" lon="14.0868283"><ele>63.0</ele><time>2026-05-02T08:13:16.086Z</time></trkpt><trkpt lat="42.3482567" lon="14.0867817"><ele>63.0</ele><time>2026-05-02T08:13:17.086Z</time></trkpt><trkpt lat="42.3481867" lon="14.0866783"><ele>63.0</ele><time>2026-05-02T08:13:19.086Z</time></trkpt><trkpt lat="42.3481333" lon="14.0865067"><ele>63.0</ele><time>2026-05-02T08:13:21.086Z</time></trkpt><trkpt lat="42.3481167" lon="14.086405"><ele>63.0</ele><time>2026-05-02T08:13:22.087Z</time></trkpt><trkpt lat="42.3481033" lon="14.0863117"><ele>63.0</ele><time>2026-05-02T08:13:23.086Z</time></trkpt><trkpt lat="42.348095" lon="14.0862233"><ele>63.0</ele><time>2026-05-02T08:13:24.087Z</time></trkpt><trkpt lat="42.3480933" lon="14.0861183"><ele>63.0</ele><time>2026-05-02T08:13:25.087Z</time></trkpt><trkpt lat="42.348085" lon="14.0860233"><ele>63.0</ele><time>2026-05-02T08:13:26.087Z</time></trkpt><trkpt lat="42.3480667" lon="14.0858883"><ele>63.0</ele><time>2026-05-02T08:13:28.087Z</time></trkpt><trkpt lat="42.34804" lon="14.0857383"><ele>64.0</ele><time>2026-05-02T08:13:30.086Z</time></trkpt><trkpt lat="42.3480317" lon="14.0856367"><ele>65.0</ele><time>2026-05-02T08:13:31.087Z</time></trkpt><trkpt lat="42.348015" lon="14.0855167"><ele>66.0</ele><time>2026-05-02T08:13:32.086Z</time></trkpt><trkpt lat="42.3479967" lon="14.0854117"><ele>67.0</ele><time>2026-05-02T08:13:33.087Z</time></trkpt><trkpt lat="42.3479767" lon="14.085315"><ele>68.0</ele><time>2026-05-02T08:13:34.086Z</time></trkpt><trkpt lat="42.3479417" lon="14.0852233"><ele>69.0</ele><time>2026-05-02T08:13:35.087Z</time></trkpt><trkpt lat="42.3479" lon="14.0851233"><ele>69.0</ele><time>2026-05-02T08:13:36.086Z</time></trkpt><trkpt lat="42.3478633" lon="14.0850367"><ele>69.0</ele><time>2026-05-02T08:13:37.087Z</time></trkpt><trkpt lat="42.3478283" lon="14.0849417"><ele>69.0</ele><time>2026-05-02T08:13:38.087Z</time></trkpt><trkpt lat="42.3478033" lon="14.084825"><ele>69.0</ele><time>2026-05-02T08:13:39.086Z</time></trkpt><trkpt lat="42.3477917" lon="14.084705"><ele>69.0</ele><time>2026-05-02T08:13:40.087Z</time></trkpt><trkpt lat="42.3477733" lon="14.08458"><ele>69.0</ele><time>2026-05-02T08:13:41.087Z</time></trkpt><trkpt lat="42.3477383" lon="14.084445"><ele>68.8</ele><time>2026-05-02T08:13:42.087Z</time></trkpt><trkpt lat="42.34769" lon="14.0843"><ele>68.60000000000001</ele><time>2026-05-02T08:13:43.086Z</time></trkpt><trkpt lat="42.3476517" lon="14.0841667"><ele>68.4</ele><time>2026-05-02T08:13:44.086Z</time></trkpt><trkpt lat="42.347635" lon="14.0840383"><ele>68.2</ele><time>2026-05-02T08:13:45.086Z</time></trkpt><trkpt lat="42.3476183" lon="14.0839167"><ele>68.0</ele><time>2026-05-02T08:13:46.086Z</time></trkpt><trkpt lat="42.3476117" lon="14.0837817"><ele>68.0</ele><time>2026-05-02T08:13:47.086Z</time></trkpt><trkpt lat="42.3476017" lon="14.083625"><ele>68.0</ele><time>2026-05-02T08:13:48.087Z</time></trkpt><trkpt lat="42.3476033" lon="14.083485"><ele>68.0</ele><time>2026-05-02T08:13:49.087Z</time></trkpt><trkpt lat="42.3476033" lon="14.083355"><ele>68.0</ele><time>2026-05-02T08:13:50.086Z</time></trkpt><trkpt lat="42.3476117" lon="14.0832417"><ele>68.0</ele><time>2026-05-02T08:13:51.087Z</time></trkpt><trkpt lat="42.347645" lon="14.08313"><ele>68.0</ele><time>2026-05-02T08:13:52.086Z</time></trkpt><trkpt lat="42.3476967" lon="14.0830167"><ele>68.0</ele><time>2026-05-02T08:13:53.086Z</time></trkpt><trkpt lat="42.3477567" lon="14.0829317"><ele>68.0</ele><time>2026-05-02T08:13:54.087Z</time></trkpt><trkpt lat="42.3478367" lon="14.0828383"><ele>68.0</ele><time>2026-05-02T08:13:55.087Z</time></trkpt><trkpt lat="42.34792" lon="14.0827467"><ele>68.0</ele><time>2026-05-02T08:13:56.087Z</time></trkpt><trkpt lat="42.3479767" lon="14.0826683"><ele>68.0</ele><time>2026-05-02T08:13:57.087Z</time></trkpt><trkpt lat="42.3480283" lon="14.0825567"><ele>68.0</ele><time>2026-05-02T08:13:59.087Z</time></trkpt><trkpt lat="42.348055" lon="14.0824617"><ele>68.0</ele><time>2026-05-02T08:14:02.087Z</time></trkpt><trkpt lat="42.3480783" lon="14.0823817"><ele>68.0</ele><time>2026-05-02T08:14:05.086Z</time></trkpt><trkpt lat="42.3481083" lon="14.0822967"><ele>68.0</ele><time>2026-05-02T08:14:10.087Z</time></trkpt><trkpt lat="42.3481467" lon="14.0822067"><ele>68.0</ele><time>2026-05-02T08:14:16.086Z</time></trkpt><trkpt lat="42.3481933" lon="14.0821133"><ele>67.83333333333334</ele><time>2026-05-02T08:14:23.086Z</time></trkpt><trkpt lat="42.3482417" lon="14.08202"><ele>67.66666666666667</ele><time>2026-05-02T08:14:26.086Z</time></trkpt><trkpt lat="42.3482683" lon="14.081935"><ele>67.5</ele><time>2026-05-02T08:14:28.086Z</time></trkpt><trkpt lat="42.348295" lon="14.0818217"><ele>67.33333333333333</ele><time>2026-05-02T08:14:31.086Z</time></trkpt><trkpt lat="42.3483233" lon="14.0817017"><ele>67.16666666666666</ele><time>2026-05-02T08:14:34.087Z</time></trkpt><trkpt lat="42.3483467" lon="14.0816183"><ele>67.0</ele><time>2026-05-02T08:14:37.085Z</time></trkpt><trkpt lat="42.3483933" lon="14.0815317"><ele>66.66666666666666</ele><time>2026-05-02T08:15:21.086Z</time></trkpt><trkpt lat="42.34835" lon="14.0816483"><ele>66.33333333333333</ele><time>2026-05-02T08:15:25.085Z</time></trkpt><trkpt lat="42.34832" lon="14.0817783"><ele>66.0</ele><time>2026-05-02T08:15:27.085Z</time></trkpt><trkpt lat="42.34832" lon="14.0818667"><ele>65.66666666666667</ele><time>2026-05-02T08:15:29.086Z</time></trkpt><trkpt lat="42.3483867" lon="14.08196"><ele>65.33333333333334</ele><time>2026-05-02T08:15:32.085Z</time></trkpt><trkpt lat="42.34846" lon="14.0820167"><ele>65.0</ele><time>2026-05-02T08:15:34.086Z</time></trkpt><trkpt lat="42.34854" lon="14.0819167"><ele>65.0</ele><time>2026-05-02T08:15:37.085Z</time></trkpt><trkpt lat="42.3485583" lon="14.0818283"><ele>65.0</ele><time>2026-05-02T08:15:38.085Z</time></trkpt><trkpt lat="42.3485767" lon="14.0816783"><ele>65.0</ele><time>2026-05-02T08:15:40.085Z</time></trkpt><trkpt lat="42.3486417" lon="14.0815417"><ele>65.0</ele><time>2026-05-02T08:15:42.085Z</time></trkpt><trkpt lat="42.34872" lon="14.0814733"><ele>65.0</ele><time>2026-05-02T08:15:43.086Z</time></trkpt><trkpt lat="42.3488283" lon="14.0813967"><ele>65.4</ele><time>2026-05-02T08:15:44.085Z</time></trkpt><trkpt lat="42.348935" lon="14.081325"><ele>65.8</ele><time>2026-05-02T08:15:45.086Z</time></trkpt><trkpt lat="42.349025" lon="14.081265"><ele>66.2</ele><time>2026-05-02T08:15:46.086Z</time></trkpt><trkpt lat="42.3491" lon="14.0812367"><ele>66.6</ele><time>2026-05-02T08:15:47.086Z</time></trkpt><trkpt lat="42.34918" lon="14.0812267"><ele>67.0</ele><time>2026-05-02T08:15:48.085Z</time></trkpt><trkpt lat="42.3492583" lon="14.0812467"><ele>67.0</ele><time>2026-05-02T08:15:49.085Z</time></trkpt><trkpt lat="42.3493433" lon="14.081275"><ele>67.0</ele><time>2026-05-02T08:15:50.086Z</time></trkpt><trkpt lat="42.3494133" lon="14.0813"><ele>67.0</ele><time>2026-05-02T08:15:51.085Z</time></trkpt><trkpt lat="42.34948" lon="14.081305"><ele>67.0</ele><time>2026-05-02T08:15:52.085Z</time></trkpt><trkpt lat="42.3495667" lon="14.08128"><ele>67.0</ele><time>2026-05-02T08:15:54.085Z</time></trkpt><trkpt lat="42.3496417" lon="14.0812033"><ele>67.0</ele><time>2026-05-02T08:15:56.085Z</time></trkpt><trkpt lat="42.3496817" lon="14.0810983"><ele>67.0</ele><time>2026-05-02T08:15:58.086Z</time></trkpt><trkpt lat="42.3496667" lon="14.0809817"><ele>67.0</ele><time>2026-05-02T08:16:00.086Z</time></trkpt><trkpt lat="42.3496267" lon="14.0808833"><ele>67.0</ele><time>2026-05-02T08:16:02.086Z</time></trkpt><trkpt lat="42.3495867" lon="14.0807583"><ele>67.0</ele><time>2026-05-02T08:16:05.086Z</time></trkpt><trkpt lat="42.349565" lon="14.08065"><ele>67.0</ele><time>2026-05-02T08:16:07.085Z</time></trkpt><trkpt lat="42.349595" lon="14.080525"><ele>66.75</ele><time>2026-05-02T08:16:09.086Z</time></trkpt><trkpt lat="42.3496567" lon="14.080445"><ele>66.5</ele><time>2026-05-02T08:16:10.086Z</time></trkpt><trkpt lat="42.34975" lon="14.0803483"><ele>66.25</ele><time>2026-05-02T08:16:11.085Z</time></trkpt><trkpt lat="42.3498567" lon="14.0802367"><ele>66.0</ele><time>2026-05-02T08:16:12.086Z</time></trkpt><trkpt lat="42.3499783" lon="14.0801333"><ele>66.0</ele><time>2026-05-02T08:16:13.086Z</time></trkpt><trkpt lat="42.350085" lon="14.0800433"><ele>66.0</ele><time>2026-05-02T08:16:14.085Z</time></trkpt><trkpt lat="42.35017" lon="14.0799533"><ele>66.0</ele><time>2026-05-02T08:16:15.085Z</time></trkpt><trkpt lat="42.3502367" lon="14.0798433"><ele>66.0</ele><time>2026-05-02T08:16:16.086Z</time></trkpt><trkpt lat="42.3502933" lon="14.0796983"><ele>66.0</ele><time>2026-05-02T08:16:17.086Z</time></trkpt><trkpt lat="42.350345" lon="14.0795317"><ele>66.0</ele><time>2026-05-02T08:16:18.086Z</time></trkpt><trkpt lat="42.35038" lon="14.0793583"><ele>66.0</ele><time>2026-05-02T08:16:19.085Z</time></trkpt><trkpt lat="42.3504017" lon="14.0791833"><ele>66.0</ele><time>2026-05-02T08:16:20.086Z</time></trkpt><trkpt lat="42.3504417" lon="14.0789967"><ele>66.0</ele><time>2026-05-02T08:16:21.086Z</time></trkpt><trkpt lat="42.3504917" lon="14.07882"><ele>66.0</ele><time>2026-05-02T08:16:22.085Z</time></trkpt><trkpt lat="42.35054" lon="14.0786883"><ele>66.0</ele><time>2026-05-02T08:16:23.085Z</time></trkpt><trkpt lat="42.3505667" lon="14.0785733"><ele>66.0</ele><time>2026-05-02T08:16:24.086Z</time></trkpt><trkpt lat="42.3505817" lon="14.0784567"><ele>66.0</ele><time>2026-05-02T08:16:25.085Z</time></trkpt><trkpt lat="42.3505633" lon="14.078315"><ele>66.2</ele><time>2026-05-02T08:16:26.085Z</time></trkpt><trkpt lat="42.350545" lon="14.07818"><ele>66.39999999999999</ele><time>2026-05-02T08:16:27.086Z</time></trkpt><trkpt lat="42.3505083" lon="14.0780433"><ele>66.6</ele><time>2026-05-02T08:16:28.085Z</time></trkpt><trkpt lat="42.3504817" lon="14.0779117"><ele>66.8</ele><time>2026-05-02T08:16:29.086Z</time></trkpt><trkpt lat="42.3504633" lon="14.07777"><ele>67.0</ele><time>2026-05-02T08:16:30.085Z</time></trkpt><trkpt lat="42.350455" lon="14.0776167"><ele>67.0</ele><time>2026-05-02T08:16:31.085Z</time></trkpt><trkpt lat="42.35046" lon="14.0774583"><ele>67.0</ele><time>2026-05-02T08:16:32.085Z</time></trkpt><trkpt lat="42.3504533" lon="14.0772933"><ele>67.0</ele><time>2026-05-02T08:16:33.086Z</time></trkpt><trkpt lat="42.35045" lon="14.077125"><ele>67.0</ele><time>2026-05-02T08:16:34.086Z</time></trkpt><trkpt lat="42.3504517" lon="14.07693"><ele>67.2</ele><time>2026-05-02T08:16:35.085Z</time></trkpt><trkpt lat="42.3504567" lon="14.0767517"><ele>67.4</ele><time>2026-05-02T08:16:36.085Z</time></trkpt><trkpt lat="42.35046" lon="14.0766067"><ele>67.6</ele><time>2026-05-02T08:16:37.086Z</time></trkpt><trkpt lat="42.3504867" lon="14.076465"><ele>67.8</ele><time>2026-05-02T08:16:38.086Z</time></trkpt><trkpt lat="42.3505183" lon="14.0763467"><ele>68.0</ele><time>2026-05-02T08:16:39.086Z</time></trkpt><trkpt lat="42.3505217" lon="14.0762283"><ele>68.5</ele><time>2026-05-02T08:16:40.086Z</time></trkpt><trkpt lat="42.350505" lon="14.076095"><ele>69.0</ele><time>2026-05-02T08:16:41.086Z</time></trkpt><trkpt lat="42.3504683" lon="14.0759467"><ele>69.5</ele><time>2026-05-02T08:16:42.085Z</time></trkpt><trkpt lat="42.3504267" lon="14.0757833"><ele>70.0</ele><time>2026-05-02T08:16:43.086Z</time></trkpt><trkpt lat="42.3504167" lon="14.07564"><ele>70.2</ele><time>2026-05-02T08:16:44.086Z</time></trkpt><trkpt lat="42.3504133" lon="14.07554"><ele>70.4</ele><time>2026-05-02T08:16:45.085Z</time></trkpt><trkpt lat="42.350435" lon="14.0754267"><ele>70.6</ele><time>2026-05-02T08:16:47.085Z</time></trkpt><trkpt lat="42.35055" lon="14.0753667"><ele>70.8</ele><time>2026-05-02T08:16:49.086Z</time></trkpt><trkpt lat="42.350635" lon="14.07533"><ele>71.0</ele><time>2026-05-02T08:16:50.086Z</time></trkpt><trkpt lat="42.350735" lon="14.0753017"><ele>71.0</ele><time>2026-05-02T08:16:51.086Z</time></trkpt><trkpt lat="42.35084" lon="14.0752683"><ele>71.0</ele><time>2026-05-02T08:16:52.085Z</time></trkpt><trkpt lat="42.3509433" lon="14.0752333"><ele>71.0</ele><time>2026-05-02T08:16:53.086Z</time></trkpt><trkpt lat="42.3510467" lon="14.0751967"><ele>71.0</ele><time>2026-05-02T08:16:54.086Z</time></trkpt><trkpt lat="42.3511583" lon="14.0751567"><ele>71.0</ele><time>2026-05-02T08:16:55.085Z</time></trkpt><trkpt lat="42.3512533" lon="14.0751233"><ele>71.0</ele><time>2026-05-02T08:16:56.085Z</time></trkpt><trkpt lat="42.3513517" lon="14.0750883"><ele>71.0</ele><time>2026-05-02T08:16:57.085Z</time></trkpt><trkpt lat="42.351435" lon="14.0750667"><ele>71.0</ele><time>2026-05-02T08:16:58.086Z</time></trkpt><trkpt lat="42.3515033" lon="14.0750617"><ele>71.0</ele><time>2026-05-02T08:16:59.086Z</time></trkpt><trkpt lat="42.3515767" lon="14.075055"><ele>71.0</ele><time>2026-05-02T08:17:00.085Z</time></trkpt><trkpt lat="42.35166" lon="14.0750517"><ele>71.0</ele><time>2026-05-02T08:17:01.085Z</time></trkpt><trkpt lat="42.3517517" lon="14.0750633"><ele>71.5</ele><time>2026-05-02T08:17:02.085Z</time></trkpt><trkpt lat="42.3518583" lon="14.0750767"><ele>72.0</ele><time>2026-05-02T08:17:03.085Z</time></trkpt><trkpt lat="42.3519817" lon="14.0750967"><ele>72.5</ele><time>2026-05-02T08:17:04.085Z</time></trkpt><trkpt lat="42.3521133" lon="14.075125"><ele>73.0</ele><time>2026-05-02T08:17:05.086Z</time></trkpt><trkpt lat="42.35226" lon="14.07515"><ele>74.33333333333333</ele><time>2026-05-02T08:17:06.085Z</time></trkpt><trkpt lat="42.3524183" lon="14.0751767"><ele>75.66666666666667</ele><time>2026-05-02T08:17:07.086Z</time></trkpt><trkpt lat="42.3525867" lon="14.0752"><ele>77.0</ele><time>2026-05-02T08:17:08.085Z</time></trkpt><trkpt lat="42.35276" lon="14.0752283"><ele>77.0</ele><time>2026-05-02T08:17:09.086Z</time></trkpt><trkpt lat="42.3529317" lon="14.07527"><ele>77.0</ele><time>2026-05-02T08:17:10.085Z</time></trkpt><trkpt lat="42.3530667" lon="14.0753183"><ele>77.0</ele><time>2026-05-02T08:17:11.085Z</time></trkpt><trkpt lat="42.3531967" lon="14.0753467"><ele>77.0</ele><time>2026-05-02T08:17:12.086Z</time></trkpt><trkpt lat="42.353325" lon="14.0753583"><ele>80.5</ele><time>2026-05-02T08:17:13.085Z</time></trkpt><trkpt lat="42.3534717" lon="14.0753417"><ele>84.0</ele><time>2026-05-02T08:17:14.085Z</time></trkpt><trkpt lat="42.3536167" lon="14.0753217"><ele>87.5</ele><time>2026-05-02T08:17:15.086Z</time></trkpt><trkpt lat="42.3537533" lon="14.07529"><ele>91.0</ele><time>2026-05-02T08:17:16.086Z</time></trkpt><trkpt lat="42.353885" lon="14.0752567"><ele>92.5</ele><time>2026-05-02T08:17:17.086Z</time></trkpt><trkpt lat="42.3540117" lon="14.07523"><ele>94.0</ele><time>2026-05-02T08:17:18.085Z</time></trkpt><trkpt lat="42.354125" lon="14.0752"><ele>95.5</ele><time>2026-05-02T08:17:19.085Z</time></trkpt><trkpt lat="42.354235" lon="14.0751733"><ele>97.0</ele><time>2026-05-02T08:17:20.086Z</time></trkpt><trkpt lat="42.3543467" lon="14.0751433"><ele>97.0</ele><time>2026-05-02T08:17:21.086Z</time></trkpt><trkpt lat="42.354455" lon="14.07511"><ele>97.0</ele><time>2026-05-02T08:17:22.085Z</time></trkpt><trkpt lat="42.35457" lon="14.0750817"><ele>97.0</ele><time>2026-05-02T08:17:23.086Z</time></trkpt><trkpt lat="42.3546817" lon="14.0750467"><ele>97.0</ele><time>2026-05-02T08:17:24.086Z</time></trkpt><trkpt lat="42.3547967" lon="14.0750167"><ele>100.25</ele><time>2026-05-02T08:17:25.085Z</time></trkpt><trkpt lat="42.3549167" lon="14.074995"><ele>103.5</ele><time>2026-05-02T08:17:26.085Z</time></trkpt><trkpt lat="42.3550467" lon="14.0749733"><ele>106.75</ele><time>2026-05-02T08:17:27.086Z</time></trkpt><trkpt lat="42.3551933" lon="14.0749483"><ele>110.0</ele><time>2026-05-02T08:17:28.085Z</time></trkpt><trkpt lat="42.3553483" lon="14.074925"><ele>110.75</ele><time>2026-05-02T08:17:29.086Z</time></trkpt><trkpt lat="42.355505" lon="14.0749033"><ele>111.5</ele><time>2026-05-02T08:17:30.085Z</time></trkpt><trkpt lat="42.35565" lon="14.07488"><ele>112.25</ele><time>2026-05-02T08:17:31.085Z</time></trkpt><trkpt lat="42.3557917" lon="14.074865"><ele>113.0</ele><time>2026-05-02T08:17:32.085Z</time></trkpt><trkpt lat="42.3559317" lon="14.0748567"><ele>114.75</ele><time>2026-05-02T08:17:33.085Z</time></trkpt><trkpt lat="42.3560767" lon="14.0748567"><ele>116.5</ele><time>2026-05-02T08:17:34.086Z</time></trkpt><trkpt lat="42.3562317" lon="14.07487"><ele>118.25</ele><time>2026-05-02T08:17:35.086Z</time></trkpt><trkpt lat="42.3563733" lon="14.074895"><ele>120.0</ele><time>2026-05-02T08:17:36.086Z</time></trkpt><trkpt lat="42.35651" lon="14.0749183"><ele>120.75</ele><time>2026-05-02T08:17:37.086Z</time></trkpt><trkpt lat="42.3566417" lon="14.0749367"><ele>121.5</ele><time>2026-05-02T08:17:38.085Z</time></trkpt><trkpt lat="42.3567767" lon="14.074955"><ele>122.25</ele><time>2026-05-02T08:17:39.086Z</time></trkpt><trkpt lat="42.3569033" lon="14.07498"><ele>123.0</ele><time>2026-05-02T08:17:40.086Z</time></trkpt><trkpt lat="42.3570217" lon="14.075005"><ele>123.0</ele><time>2026-05-02T08:17:41.086Z</time></trkpt><trkpt lat="42.3571217" lon="14.0750333"><ele>123.00000000000001</ele><time>2026-05-02T08:17:42.085Z</time></trkpt><trkpt lat="42.3572167" lon="14.07506"><ele>123.00000000000001</ele><time>2026-05-02T08:17:43.085Z</time></trkpt><trkpt lat="42.35732" lon="14.0750783"><ele>123.0</ele><time>2026-05-02T08:17:44.086Z</time></trkpt><trkpt lat="42.35743" lon="14.0751"><ele>123.0</ele><time>2026-05-02T08:17:45.086Z</time></trkpt><trkpt lat="42.3575517" lon="14.0751283"><ele>122.75</ele><time>2026-05-02T08:17:46.085Z</time></trkpt><trkpt lat="42.3576783" lon="14.0751583"><ele>122.5</ele><time>2026-05-02T08:17:47.085Z</time></trkpt><trkpt lat="42.3578083" lon="14.07519"><ele>122.25</ele><time>2026-05-02T08:17:48.086Z</time></trkpt><trkpt lat="42.357935" lon="14.0752367"><ele>122.0</ele><time>2026-05-02T08:17:49.085Z</time></trkpt><trkpt lat="42.3580583" lon="14.0752817"><ele>121.75</ele><time>2026-05-02T08:17:50.086Z</time></trkpt><trkpt lat="42.358185" lon="14.0753283"><ele>121.5</ele><time>2026-05-02T08:17:51.085Z</time></trkpt><trkpt lat="42.358315" lon="14.07537"><ele>121.25</ele><time>2026-05-02T08:17:52.085Z</time></trkpt><trkpt lat="42.3584167" lon="14.0754033"><ele>121.0</ele><time>2026-05-02T08:17:53.085Z</time></trkpt><trkpt lat="42.3584983" lon="14.0754383"><ele>121.0</ele><time>2026-05-02T08:17:54.085Z</time></trkpt><trkpt lat="42.358575" lon="14.07547"><ele>121.0</ele><time>2026-05-02T08:17:55.086Z</time></trkpt><trkpt lat="42.358635" lon="14.0755067"><ele>121.0</ele><time>2026-05-02T08:17:56.085Z</time></trkpt><trkpt lat="42.3587433" lon="14.0755283"><ele>121.0</ele><time>2026-05-02T08:17:58.085Z</time></trkpt><trkpt lat="42.3588917" lon="14.0754767"><ele>121.0</ele><time>2026-05-02T08:18:00.086Z</time></trkpt><trkpt lat="42.3589917" lon="14.0754133"><ele>122.0</ele><time>2026-05-02T08:18:01.086Z</time></trkpt><trkpt lat="42.3590933" lon="14.0753383"><ele>123.0</ele><time>2026-05-02T08:18:02.086Z</time></trkpt><trkpt lat="42.3591967" lon="14.0752717"><ele>124.0</ele><time>2026-05-02T08:18:03.085Z</time></trkpt><trkpt lat="42.3593" lon="14.0751983"><ele>125.0</ele><time>2026-05-02T08:18:04.085Z</time></trkpt><trkpt lat="42.3594083" lon="14.075125"><ele>125.0</ele><time>2026-05-02T08:18:05.085Z</time></trkpt><trkpt lat="42.3595217" lon="14.0750433"><ele>125.0</ele><time>2026-05-02T08:18:06.086Z</time></trkpt><trkpt lat="42.3596517" lon="14.0749617"><ele>125.0</ele><time>2026-05-02T08:18:07.086Z</time></trkpt><trkpt lat="42.3597783" lon="14.0748717"><ele>125.0</ele><time>2026-05-02T08:18:08.086Z</time></trkpt><trkpt lat="42.3599133" lon="14.074775"><ele>125.75</ele><time>2026-05-02T08:18:09.085Z</time></trkpt><trkpt lat="42.3600367" lon="14.074675"><ele>126.5</ele><time>2026-05-02T08:18:10.086Z</time></trkpt><trkpt lat="42.3601667" lon="14.0745917"><ele>127.25</ele><time>2026-05-02T08:18:11.086Z</time></trkpt><trkpt lat="42.3603017" lon="14.0745017"><ele>128.0</ele><time>2026-05-02T08:18:12.086Z</time></trkpt><trkpt lat="42.3604317" lon="14.0744067"><ele>129.0</ele><time>2026-05-02T08:18:13.085Z</time></trkpt><trkpt lat="42.360565" lon="14.074305"><ele>130.0</ele><time>2026-05-02T08:18:14.085Z</time></trkpt><trkpt lat="42.3607" lon="14.07421"><ele>131.0</ele><time>2026-05-02T08:18:15.086Z</time></trkpt><trkpt lat="42.360835" lon="14.0741183"><ele>131.75</ele><time>2026-05-02T08:18:16.085Z</time></trkpt><trkpt lat="42.36095" lon="14.0740333"><ele>132.5</ele><time>2026-05-02T08:18:17.086Z</time></trkpt><trkpt lat="42.36105" lon="14.0739717"><ele>133.25</ele><time>2026-05-02T08:18:18.085Z</time></trkpt><trkpt lat="42.3611467" lon="14.0739117"><ele>134.0</ele><time>2026-05-02T08:18:19.086Z</time></trkpt><trkpt lat="42.3612417" lon="14.0738483"><ele>134.0</ele><time>2026-05-02T08:18:20.086Z</time></trkpt><trkpt lat="42.3613417" lon="14.0737783"><ele>134.0</ele><time>2026-05-02T08:18:21.085Z</time></trkpt><trkpt lat="42.3614533" lon="14.0736983"><ele>134.0</ele><time>2026-05-02T08:18:22.086Z</time></trkpt><trkpt lat="42.3615483" lon="14.073625"><ele>134.0</ele><time>2026-05-02T08:18:23.085Z</time></trkpt><trkpt lat="42.3616333" lon="14.0735733"><ele>134.0</ele><time>2026-05-02T08:18:24.085Z</time></trkpt><trkpt lat="42.3616983" lon="14.0735267"><ele>134.6</ele><time>2026-05-02T08:18:25.085Z</time></trkpt><trkpt lat="42.361755" lon="14.07348"><ele>135.2</ele><time>2026-05-02T08:18:27.085Z</time></trkpt><trkpt lat="42.3617367" lon="14.073355"><ele>135.79999999999998</ele><time>2026-05-02T08:18:30.085Z</time></trkpt><trkpt lat="42.3616817" lon="14.0732717"><ele>136.4</ele><time>2026-05-02T08:18:31.085Z</time></trkpt><trkpt lat="42.3616067" lon="14.0731667"><ele>137.0</ele><time>2026-05-02T08:18:32.086Z</time></trkpt><trkpt lat="42.361525" lon="14.073045"><ele>137.0</ele><time>2026-05-02T08:18:33.085Z</time></trkpt><trkpt lat="42.361435" lon="14.0729117"><ele>137.0</ele><time>2026-05-02T08:18:34.085Z</time></trkpt><trkpt lat="42.3613383" lon="14.07277"><ele>137.0</ele><time>2026-05-02T08:18:35.085Z</time></trkpt><trkpt lat="42.3612483" lon="14.07263"><ele>137.0</ele><time>2026-05-02T08:18:36.086Z</time></trkpt><trkpt lat="42.3611433" lon="14.0724783"><ele>135.66666666666666</ele><time>2026-05-02T08:18:37.086Z</time></trkpt><trkpt lat="42.36103" lon="14.072325"><ele>134.33333333333334</ele><time>2026-05-02T08:18:38.086Z</time></trkpt><trkpt lat="42.3609167" lon="14.0721517"><ele>133.0</ele><time>2026-05-02T08:18:39.085Z</time></trkpt><trkpt lat="42.36081" lon="14.0719683"><ele>133.0</ele><time>2026-05-02T08:18:40.085Z</time></trkpt><trkpt lat="42.360715" lon="14.0717733"><ele>133.0</ele><time>2026-05-02T08:18:41.086Z</time></trkpt><trkpt lat="42.360645" lon="14.071555"><ele>133.0</ele><time>2026-05-02T08:18:42.085Z</time></trkpt><trkpt lat="42.3605683" lon="14.07132"><ele>133.0</ele><time>2026-05-02T08:18:43.085Z</time></trkpt><trkpt lat="42.3605067" lon="14.0710683"><ele>133.0</ele><time>2026-05-02T08:18:44.085Z</time></trkpt><trkpt lat="42.3604517" lon="14.0708033"><ele>133.0</ele><time>2026-05-02T08:18:45.085Z</time></trkpt><trkpt lat="42.360395" lon="14.070525"><ele>133.66666666666669</ele><time>2026-05-02T08:18:46.085Z</time></trkpt><trkpt lat="42.3603433" lon="14.070255"><ele>134.33333333333334</ele><time>2026-05-02T08:18:47.086Z</time></trkpt><trkpt lat="42.3602917" lon="14.069985"><ele>135.0</ele><time>2026-05-02T08:18:48.085Z</time></trkpt><trkpt lat="42.36025" lon="14.0697417"><ele>136.0</ele><time>2026-05-02T08:18:49.085Z</time></trkpt><trkpt lat="42.3602233" lon="14.0695017"><ele>137.0</ele><time>2026-05-02T08:18:50.085Z</time></trkpt><trkpt lat="42.360215" lon="14.0692583"><ele>138.0</ele><time>2026-05-02T08:18:51.086Z</time></trkpt><trkpt lat="42.36024" lon="14.0690217"><ele>138.66666666666666</ele><time>2026-05-02T08:18:52.086Z</time></trkpt><trkpt lat="42.360285" lon="14.0688167"><ele>139.33333333333331</ele><time>2026-05-02T08:18:53.085Z</time></trkpt><trkpt lat="42.36035" lon="14.068625"><ele>140.0</ele><time>2026-05-02T08:18:54.086Z</time></trkpt><trkpt lat="42.36043" lon="14.06847"><ele>140.0</ele><time>2026-05-02T08:18:55.085Z</time></trkpt><trkpt lat="42.3605067" lon="14.0683417"><ele>140.0</ele><time>2026-05-02T08:18:56.086Z</time></trkpt><trkpt lat="42.360575" lon="14.0682267"><ele>140.0</ele><time>2026-05-02T08:18:57.086Z</time></trkpt><trkpt lat="42.3606283" lon="14.0681183"><ele>140.0</ele><time>2026-05-02T08:18:58.086Z</time></trkpt><trkpt lat="42.360675" lon="14.0679867"><ele>140.0</ele><time>2026-05-02T08:18:59.086Z</time></trkpt><trkpt lat="42.3607017" lon="14.0678533"><ele>140.0</ele><time>2026-05-02T08:19:00.086Z</time></trkpt><trkpt lat="42.36071" lon="14.0677167"><ele>140.0</ele><time>2026-05-02T08:19:01.086Z</time></trkpt><trkpt lat="42.3606967" lon="14.067595"><ele>140.0</ele><time>2026-05-02T08:19:02.085Z</time></trkpt><trkpt lat="42.36066" lon="14.067475"><ele>140.0</ele><time>2026-05-02T08:19:03.086Z</time></trkpt><trkpt lat="42.3606083" lon="14.067355"><ele>140.0</ele><time>2026-05-02T08:19:04.085Z</time></trkpt><trkpt lat="42.3605367" lon="14.06723"><ele>138.2</ele><time>2026-05-02T08:19:05.085Z</time></trkpt><trkpt lat="42.36047" lon="14.0671033"><ele>136.4</ele><time>2026-05-02T08:19:06.086Z</time></trkpt><trkpt lat="42.360425" lon="14.0669933"><ele>134.6</ele><time>2026-05-02T08:19:07.086Z</time></trkpt><trkpt lat="42.3603883" lon="14.0668917"><ele>132.8</ele><time>2026-05-02T08:19:08.086Z</time></trkpt><trkpt lat="42.36037" lon="14.0667917"><ele>131.0</ele><time>2026-05-02T08:19:09.085Z</time></trkpt><trkpt lat="42.3603433" lon="14.0666633"><ele>131.0</ele><time>2026-05-02T08:19:11.085Z</time></trkpt><trkpt lat="42.3602867" lon="14.0666183"><ele>131.0</ele><time>2026-05-02T08:19:14.086Z</time></trkpt><trkpt lat="42.3601667" lon="14.0665667"><ele>131.0</ele><time>2026-05-02T08:19:16.086Z</time></trkpt><trkpt lat="42.360075" lon="14.0665233"><ele>131.0</ele><time>2026-05-02T08:19:17.085Z</time></trkpt><trkpt lat="42.3599783" lon="14.06645"><ele>131.0</ele><time>2026-05-02T08:19:18.085Z</time></trkpt><trkpt lat="42.3598883" lon="14.0663467"><ele>131.0</ele><time>2026-05-02T08:19:19.085Z</time></trkpt><trkpt lat="42.3598067" lon="14.0662167"><ele>131.0</ele><time>2026-05-02T08:19:20.085Z</time></trkpt><trkpt lat="42.359735" lon="14.0660833"><ele>131.0</ele><time>2026-05-02T08:19:21.085Z</time></trkpt><trkpt lat="42.3596783" lon="14.06595"><ele>131.0</ele><time>2026-05-02T08:19:22.085Z</time></trkpt><trkpt lat="42.3596233" lon="14.0658233"><ele>129.25</ele><time>2026-05-02T08:19:23.085Z</time></trkpt><trkpt lat="42.359565" lon="14.06569"><ele>127.5</ele><time>2026-05-02T08:19:24.085Z</time></trkpt><trkpt lat="42.3595017" lon="14.065555"><ele>125.75</ele><time>2026-05-02T08:19:25.085Z</time></trkpt><trkpt lat="42.3594333" lon="14.0654217"><ele>124.0</ele><time>2026-05-02T08:19:26.085Z</time></trkpt><trkpt lat="42.3593333" lon="14.0652883"><ele>124.0</ele><time>2026-05-02T08:19:27.085Z</time></trkpt><trkpt lat="42.359225" lon="14.0651617"><ele>124.0</ele><time>2026-05-02T08:19:28.086Z</time></trkpt><trkpt lat="42.3590917" lon="14.06504"><ele>124.0</ele><time>2026-05-02T08:19:29.085Z</time></trkpt><trkpt lat="42.358975" lon="14.0649067"><ele>123.5</ele><time>2026-05-02T08:19:30.086Z</time></trkpt><trkpt lat="42.3588783" lon="14.0647683"><ele>123.0</ele><time>2026-05-02T08:19:31.086Z</time></trkpt><trkpt lat="42.3587933" lon="14.06463"><ele>122.5</ele><time>2026-05-02T08:19:32.086Z</time></trkpt><trkpt lat="42.3587233" lon="14.0644867"><ele>122.0</ele><time>2026-05-02T08:19:33.086Z</time></trkpt><trkpt lat="42.35865" lon="14.0643533"><ele>121.6</ele><time>2026-05-02T08:19:34.086Z</time></trkpt><trkpt lat="42.358585" lon="14.06423"><ele>121.19999999999999</ele><time>2026-05-02T08:19:35.085Z</time></trkpt><trkpt lat="42.3585167" lon="14.06412"><ele>120.8</ele><time>2026-05-02T08:19:36.085Z</time></trkpt><trkpt lat="42.35844" lon="14.06404"><ele>120.4</ele><time>2026-05-02T08:19:37.086Z</time></trkpt><trkpt lat="42.3583433" lon="14.06399"><ele>120.0</ele><time>2026-05-02T08:19:38.086Z</time></trkpt><trkpt lat="42.358235" lon="14.0639733"><ele>117.8</ele><time>2026-05-02T08:19:39.085Z</time></trkpt><trkpt lat="42.3581183" lon="14.06398"><ele>115.6</ele><time>2026-05-02T08:19:40.085Z</time></trkpt><trkpt lat="42.35801" lon="14.0639967"><ele>113.4</ele><time>2026-05-02T08:19:41.085Z</time></trkpt><trkpt lat="42.3579067" lon="14.06401"><ele>111.2</ele><time>2026-05-02T08:19:42.086Z</time></trkpt><trkpt lat="42.3577983" lon="14.0640117"><ele>109.0</ele><time>2026-05-02T08:19:43.085Z</time></trkpt><trkpt lat="42.3576983" lon="14.0639883"><ele>108.0</ele><time>2026-05-02T08:19:44.085Z</time></trkpt><trkpt lat="42.357605" lon="14.0639367"><ele>107.0</ele><time>2026-05-02T08:19:45.086Z</time></trkpt><trkpt lat="42.3575083" lon="14.063865"><ele>106.0</ele><time>2026-05-02T08:19:46.085Z</time></trkpt><trkpt lat="42.3573917" lon="14.0637833"><ele>105.0</ele><time>2026-05-02T08:19:47.085Z</time></trkpt><trkpt lat="42.3572767" lon="14.0637117"><ele>103.75</ele><time>2026-05-02T08:19:48.085Z</time></trkpt><trkpt lat="42.35716" lon="14.0636533"><ele>102.5</ele><time>2026-05-02T08:19:49.086Z</time></trkpt><trkpt lat="42.357045" lon="14.0636067"><ele>101.25</ele><time>2026-05-02T08:19:50.086Z</time></trkpt><trkpt lat="42.3569317" lon="14.0635783"><ele>100.0</ele><time>2026-05-02T08:19:51.085Z</time></trkpt><trkpt lat="42.3568167" lon="14.0635633"><ele>100.0</ele><time>2026-05-02T08:19:52.086Z</time></trkpt><trkpt lat="42.3566917" lon="14.06357"><ele>100.0</ele><time>2026-05-02T08:19:53.085Z</time></trkpt><trkpt lat="42.356565" lon="14.0636083"><ele>100.0</ele><time>2026-05-02T08:19:54.085Z</time></trkpt><trkpt lat="42.35644" lon="14.0636667"><ele>100.0</ele><time>2026-05-02T08:19:55.085Z</time></trkpt><trkpt lat="42.356335" lon="14.0637333"><ele>98.4</ele><time>2026-05-02T08:19:56.085Z</time></trkpt><trkpt lat="42.3562333" lon="14.0637933"><ele>96.8</ele><time>2026-05-02T08:19:57.086Z</time></trkpt><trkpt lat="42.3561367" lon="14.0638433"><ele>95.19999999999999</ele><time>2026-05-02T08:19:58.085Z</time></trkpt><trkpt lat="42.3560383" lon="14.0638717"><ele>93.6</ele><time>2026-05-02T08:19:59.086Z</time></trkpt><trkpt lat="42.3559483" lon="14.06387"><ele>92.0</ele><time>2026-05-02T08:20:00.085Z</time></trkpt><trkpt lat="42.35585" lon="14.063845"><ele>92.0</ele><time>2026-05-02T08:20:01.085Z</time></trkpt><trkpt lat="42.3557567" lon="14.0637833"><ele>92.0</ele><time>2026-05-02T08:20:02.085Z</time></trkpt><trkpt lat="42.3556733" lon="14.0636833"><ele>92.0</ele><time>2026-05-02T08:20:03.086Z</time></trkpt><trkpt lat="42.355615" lon="14.0635567"><ele>92.0</ele><time>2026-05-02T08:20:04.085Z</time></trkpt><trkpt lat="42.355575" lon="14.063405"><ele>92.0</ele><time>2026-05-02T08:20:05.085Z</time></trkpt><trkpt lat="42.3555367" lon="14.0632267"><ele>89.66666666666667</ele><time>2026-05-02T08:20:06.085Z</time></trkpt><trkpt lat="42.3554917" lon="14.0630383"><ele>87.33333333333333</ele><time>2026-05-02T08:20:07.085Z</time></trkpt><trkpt lat="42.3554217" lon="14.0628583"><ele>85.0</ele><time>2026-05-02T08:20:08.085Z</time></trkpt><trkpt lat="42.3553367" lon="14.062685"><ele>85.0</ele><time>2026-05-02T08:20:09.085Z</time></trkpt><trkpt lat="42.3552383" lon="14.0625233"><ele>85.0</ele><time>2026-05-02T08:20:10.086Z</time></trkpt><trkpt lat="42.3551417" lon="14.0623767"><ele>85.0</ele><time>2026-05-02T08:20:11.085Z</time></trkpt><trkpt lat="42.3550533" lon="14.0622267"><ele>85.0</ele><time>2026-05-02T08:20:12.085Z</time></trkpt><trkpt lat="42.3549583" lon="14.062085"><ele>86.25</ele><time>2026-05-02T08:20:13.085Z</time></trkpt><trkpt lat="42.35487" lon="14.0619533"><ele>87.5</ele><time>2026-05-02T08:20:14.085Z</time></trkpt><trkpt lat="42.3547967" lon="14.0618133"><ele>88.75</ele><time>2026-05-02T08:20:15.085Z</time></trkpt><trkpt lat="42.354705" lon="14.06169"><ele>90.0</ele><time>2026-05-02T08:20:16.086Z</time></trkpt><trkpt lat="42.3546217" lon="14.0615533"><ele>91.0</ele><time>2026-05-02T08:20:17.085Z</time></trkpt><trkpt lat="42.3545333" lon="14.0614133"><ele>92.0</ele><time>2026-05-02T08:20:18.086Z</time></trkpt><trkpt lat="42.3544467" lon="14.0612617"><ele>93.0</ele><time>2026-05-02T08:20:19.086Z</time></trkpt><trkpt lat="42.3543617" lon="14.0611067"><ele>94.0</ele><time>2026-05-02T08:20:20.086Z</time></trkpt><trkpt lat="42.3542617" lon="14.06094"><ele>95.0</ele><time>2026-05-02T08:20:21.085Z</time></trkpt><trkpt lat="42.3541567" lon="14.0607567"><ele>96.0</ele><time>2026-05-02T08:20:22.086Z</time></trkpt><trkpt lat="42.3540333" lon="14.0605667"><ele>97.0</ele><time>2026-05-02T08:20:23.086Z</time></trkpt><trkpt lat="42.3539233" lon="14.0603617"><ele>96.0</ele><time>2026-05-02T08:20:24.086Z</time></trkpt><trkpt lat="42.3538067" lon="14.0601883"><ele>95.0</ele><time>2026-05-02T08:20:25.085Z</time></trkpt><trkpt lat="42.3537067" lon="14.0600283"><ele>94.0</ele><time>2026-05-02T08:20:26.086Z</time></trkpt><trkpt lat="42.353625" lon="14.0598783"><ele>94.0</ele><time>2026-05-02T08:20:27.086Z</time></trkpt><trkpt lat="42.3535533" lon="14.05972"><ele>94.0</ele><time>2026-05-02T08:20:28.085Z</time></trkpt><trkpt lat="42.3535" lon="14.0595433"><ele>94.0</ele><time>2026-05-02T08:20:29.085Z</time></trkpt><trkpt lat="42.3534617" lon="14.059355"><ele>94.0</ele><time>2026-05-02T08:20:30.086Z</time></trkpt><trkpt lat="42.35344" lon="14.05916"><ele>93.75</ele><time>2026-05-02T08:20:31.086Z</time></trkpt><trkpt lat="42.3534283" lon="14.0589783"><ele>93.5</ele><time>2026-05-02T08:20:32.085Z</time></trkpt><trkpt lat="42.35341" lon="14.0588133"><ele>93.25</ele><time>2026-05-02T08:20:33.085Z</time></trkpt><trkpt lat="42.3533983" lon="14.0586567"><ele>93.0</ele><time>2026-05-02T08:20:34.086Z</time></trkpt><trkpt lat="42.3533717" lon="14.0585117"><ele>93.0</ele><time>2026-05-02T08:20:35.085Z</time></trkpt><trkpt lat="42.3533567" lon="14.058365"><ele>93.0</ele><time>2026-05-02T08:20:36.086Z</time></trkpt><trkpt lat="42.35335" lon="14.0582233"><ele>93.0</ele><time>2026-05-02T08:20:37.085Z</time></trkpt><trkpt lat="42.3533367" lon="14.0580783"><ele>93.0</ele><time>2026-05-02T08:20:38.085Z</time></trkpt><trkpt lat="42.3533267" lon="14.05792"><ele>93.0</ele><time>2026-05-02T08:20:39.086Z</time></trkpt><trkpt lat="42.3533117" lon="14.057765"><ele>92.75</ele><time>2026-05-02T08:20:40.086Z</time></trkpt><trkpt lat="42.3532967" lon="14.0576117"><ele>92.5</ele><time>2026-05-02T08:20:41.086Z</time></trkpt><trkpt lat="42.35328" lon="14.0574567"><ele>92.25</ele><time>2026-05-02T08:20:42.085Z</time></trkpt><trkpt lat="42.3532617" lon="14.05729"><ele>92.0</ele><time>2026-05-02T08:20:43.085Z</time></trkpt><trkpt lat="42.3532483" lon="14.0571333"><ele>91.6</ele><time>2026-05-02T08:20:44.085Z</time></trkpt><trkpt lat="42.3532267" lon="14.0569733"><ele>91.19999999999999</ele><time>2026-05-02T08:20:45.086Z</time></trkpt><trkpt lat="42.3532133" lon="14.0568267"><ele>90.8</ele><time>2026-05-02T08:20:46.086Z</time></trkpt><trkpt lat="42.3532033" lon="14.05669"><ele>90.4</ele><time>2026-05-02T08:20:47.085Z</time></trkpt><trkpt lat="42.3531933" lon="14.0565467"><ele>90.0</ele><time>2026-05-02T08:20:48.086Z</time></trkpt><trkpt lat="42.3531683" lon="14.0563833"><ele>89.75</ele><time>2026-05-02T08:20:49.085Z</time></trkpt><trkpt lat="42.35315" lon="14.056215"><ele>89.5</ele><time>2026-05-02T08:20:50.086Z</time></trkpt><trkpt lat="42.3531383" lon="14.0560433"><ele>89.25</ele><time>2026-05-02T08:20:51.086Z</time></trkpt><trkpt lat="42.3531117" lon="14.0558583"><ele>89.0</ele><time>2026-05-02T08:20:52.086Z</time></trkpt><trkpt lat="42.3530883" lon="14.055685"><ele>89.5</ele><time>2026-05-02T08:20:53.085Z</time></trkpt><trkpt lat="42.353065" lon="14.0555017"><ele>90.0</ele><time>2026-05-02T08:20:54.086Z</time></trkpt><trkpt lat="42.3530467" lon="14.055325"><ele>90.5</ele><time>2026-05-02T08:20:55.085Z</time></trkpt><trkpt lat="42.35303" lon="14.05516"><ele>91.0</ele><time>2026-05-02T08:20:56.085Z</time></trkpt><trkpt lat="42.353025" lon="14.055005"><ele>91.25</ele><time>2026-05-02T08:20:57.086Z</time></trkpt><trkpt lat="42.353015" lon="14.0548433"><ele>91.5</ele><time>2026-05-02T08:20:58.086Z</time></trkpt><trkpt lat="42.3530233" lon="14.0546783"><ele>91.75</ele><time>2026-05-02T08:20:59.085Z</time></trkpt><trkpt lat="42.3530483" lon="14.054495"><ele>92.0</ele><time>2026-05-02T08:21:00.086Z</time></trkpt><trkpt lat="42.35308" lon="14.0542983"><ele>95.33333333333334</ele><time>2026-05-02T08:21:01.086Z</time></trkpt><trkpt lat="42.3531133" lon="14.0540833"><ele>98.66666666666667</ele><time>2026-05-02T08:21:02.086Z</time></trkpt><trkpt lat="42.3531533" lon="14.05387"><ele>102.0</ele><time>2026-05-02T08:21:03.086Z</time></trkpt><trkpt lat="42.3531867" lon="14.0536733"><ele>102.0</ele><time>2026-05-02T08:21:04.086Z</time></trkpt><trkpt lat="42.353185" lon="14.05349"><ele>102.0</ele><time>2026-05-02T08:21:05.085Z</time></trkpt><trkpt lat="42.353155" lon="14.0533017"><ele>102.0</ele><time>2026-05-02T08:21:06.086Z</time></trkpt><trkpt lat="42.35308" lon="14.0531133"><ele>102.0</ele><time>2026-05-02T08:21:07.086Z</time></trkpt><trkpt lat="42.35299" lon="14.052945"><ele>102.0</ele><time>2026-05-02T08:21:08.085Z</time></trkpt><trkpt lat="42.3529183" lon="14.0527867"><ele>102.0</ele><time>2026-05-02T08:21:09.085Z</time></trkpt><trkpt lat="42.3528817" lon="14.052615"><ele>102.0</ele><time>2026-05-02T08:21:10.085Z</time></trkpt><trkpt lat="42.3528683" lon="14.0524517"><ele>102.0</ele><time>2026-05-02T08:21:11.085Z</time></trkpt><trkpt lat="42.3528783" lon="14.0522967"><ele>103.0</ele><time>2026-05-02T08:21:12.085Z</time></trkpt><trkpt lat="42.3528967" lon="14.05218"><ele>104.0</ele><time>2026-05-02T08:21:13.085Z</time></trkpt><trkpt lat="42.35291" lon="14.0520917"><ele>104.99999999999999</ele><time>2026-05-02T08:21:14.086Z</time></trkpt><trkpt lat="42.3529483" lon="14.05194"><ele>106.0</ele><time>2026-05-02T08:21:16.085Z</time></trkpt><trkpt lat="42.3529733" lon="14.0518383"><ele>107.0</ele><time>2026-05-02T08:21:17.086Z</time></trkpt><trkpt lat="42.35301" lon="14.05171"><ele>107.25</ele><time>2026-05-02T08:21:18.086Z</time></trkpt><trkpt lat="42.3530383" lon="14.0515433"><ele>107.5</ele><time>2026-05-02T08:21:19.086Z</time></trkpt><trkpt lat="42.3530633" lon="14.0513433"><ele>107.75</ele><time>2026-05-02T08:21:20.086Z</time></trkpt><trkpt lat="42.3530883" lon="14.0511383"><ele>108.0</ele><time>2026-05-02T08:21:21.086Z</time></trkpt><trkpt lat="42.3531083" lon="14.0509417"><ele>109.25</ele><time>2026-05-02T08:21:22.085Z</time></trkpt><trkpt lat="42.3531417" lon="14.05075"><ele>110.5</ele><time>2026-05-02T08:21:23.086Z</time></trkpt><trkpt lat="42.353175" lon="14.05056"><ele>111.75</ele><time>2026-05-02T08:21:24.086Z</time></trkpt><trkpt lat="42.353205" lon="14.0503683"><ele>113.0</ele><time>2026-05-02T08:21:25.086Z</time></trkpt><trkpt lat="42.3532283" lon="14.0501633"><ele>114.66666666666666</ele><time>2026-05-02T08:21:26.085Z</time></trkpt><trkpt lat="42.3532333" lon="14.0499517"><ele>116.33333333333334</ele><time>2026-05-02T08:21:27.086Z</time></trkpt><trkpt lat="42.353225" lon="14.0497383"><ele>118.0</ele><time>2026-05-02T08:21:28.086Z</time></trkpt><trkpt lat="42.3531883" lon="14.049525"><ele>118.0</ele><time>2026-05-02T08:21:29.086Z</time></trkpt><trkpt lat="42.3531483" lon="14.0493167"><ele>118.0</ele><time>2026-05-02T08:21:30.085Z</time></trkpt><trkpt lat="42.35313" lon="14.0491267"><ele>118.0</ele><time>2026-05-02T08:21:31.086Z</time></trkpt><trkpt lat="42.3531183" lon="14.0489283"><ele>118.0</ele><time>2026-05-02T08:21:32.086Z</time></trkpt><trkpt lat="42.3531017" lon="14.0487267"><ele>118.2</ele><time>2026-05-02T08:21:33.086Z</time></trkpt><trkpt lat="42.3530883" lon="14.0485517"><ele>118.4</ele><time>2026-05-02T08:21:34.085Z</time></trkpt><trkpt lat="42.35306" lon="14.0484033"><ele>118.60000000000001</ele><time>2026-05-02T08:21:35.085Z</time></trkpt><trkpt lat="42.3530283" lon="14.0482717"><ele>118.80000000000001</ele><time>2026-05-02T08:21:36.085Z</time></trkpt><trkpt lat="42.3530117" lon="14.048135"><ele>119.0</ele><time>2026-05-02T08:21:37.086Z</time></trkpt><trkpt lat="42.3529967" lon="14.0479933"><ele>119.0</ele><time>2026-05-02T08:21:38.086Z</time></trkpt><trkpt lat="42.3530033" lon="14.04784"><ele>119.0</ele><time>2026-05-02T08:21:39.086Z</time></trkpt><trkpt lat="42.3530383" lon="14.0476917"><ele>119.0</ele><time>2026-05-02T08:21:40.085Z</time></trkpt><trkpt lat="42.3530967" lon="14.04755"><ele>119.0</ele><time>2026-05-02T08:21:41.086Z</time></trkpt><trkpt lat="42.3531567" lon="14.047425"><ele>119.0</ele><time>2026-05-02T08:21:42.086Z</time></trkpt><trkpt lat="42.35322" lon="14.0472967"><ele>119.0</ele><time>2026-05-02T08:21:43.086Z</time></trkpt><trkpt lat="42.3532867" lon="14.0471367"><ele>119.0</ele><time>2026-05-02T08:21:44.086Z</time></trkpt><trkpt lat="42.35335" lon="14.046935"><ele>119.0</ele><time>2026-05-02T08:21:45.085Z</time></trkpt><trkpt lat="42.3534183" lon="14.0467383"><ele>118.0</ele><time>2026-05-02T08:21:46.085Z</time></trkpt><trkpt lat="42.3534767" lon="14.04655"><ele>117.0</ele><time>2026-05-02T08:21:47.086Z</time></trkpt><trkpt lat="42.353525" lon="14.046345"><ele>116.0</ele><time>2026-05-02T08:21:48.086Z</time></trkpt><trkpt lat="42.3535683" lon="14.046125"><ele>116.0</ele><time>2026-05-02T08:21:49.085Z</time></trkpt><trkpt lat="42.3536033" lon="14.0458817"><ele>116.0</ele><time>2026-05-02T08:21:50.086Z</time></trkpt><trkpt lat="42.35364" lon="14.0456083"><ele>116.0</ele><time>2026-05-02T08:21:51.086Z</time></trkpt><trkpt lat="42.3536567" lon="14.0453233"><ele>117.33333333333333</ele><time>2026-05-02T08:21:52.085Z</time></trkpt><trkpt lat="42.3536483" lon="14.0450433"><ele>118.66666666666666</ele><time>2026-05-02T08:21:53.085Z</time></trkpt><trkpt lat="42.3536217" lon="14.0447917"><ele>120.0</ele><time>2026-05-02T08:21:54.086Z</time></trkpt><trkpt lat="42.3536067" lon="14.0445517"><ele>121.66666666666666</ele><time>2026-05-02T08:21:55.085Z</time></trkpt><trkpt lat="42.3536183" lon="14.0443067"><ele>123.33333333333333</ele><time>2026-05-02T08:21:56.086Z</time></trkpt><trkpt lat="42.3536517" lon="14.0440467"><ele>125.0</ele><time>2026-05-02T08:21:57.086Z</time></trkpt><trkpt lat="42.3537117" lon="14.0437833"><ele>126.33333333333333</ele><time>2026-05-02T08:21:58.085Z</time></trkpt><trkpt lat="42.3537833" lon="14.043505"><ele>127.66666666666666</ele><time>2026-05-02T08:21:59.086Z</time></trkpt><trkpt lat="42.3538617" lon="14.0432217"><ele>129.0</ele><time>2026-05-02T08:22:00.085Z</time></trkpt><trkpt lat="42.3539333" lon="14.0429283"><ele>130.0</ele><time>2026-05-02T08:22:01.086Z</time></trkpt><trkpt lat="42.3539833" lon="14.04265"><ele>131.0</ele><time>2026-05-02T08:22:02.086Z</time></trkpt><trkpt lat="42.3540233" lon="14.0423767"><ele>132.0</ele><time>2026-05-02T08:22:03.086Z</time></trkpt><trkpt lat="42.35407" lon="14.042105"><ele>132.0</ele><time>2026-05-02T08:22:04.085Z</time></trkpt><trkpt lat="42.35412" lon="14.041835"><ele>132.0</ele><time>2026-05-02T08:22:05.085Z</time></trkpt><trkpt lat="42.3541667" lon="14.0415567"><ele>132.0</ele><time>2026-05-02T08:22:06.086Z</time></trkpt><trkpt lat="42.35421" lon="14.04127"><ele>133.0</ele><time>2026-05-02T08:22:07.086Z</time></trkpt><trkpt lat="42.3542517" lon="14.0409917"><ele>134.0</ele><time>2026-05-02T08:22:08.085Z</time></trkpt><trkpt lat="42.35429" lon="14.04074"><ele>135.0</ele><time>2026-05-02T08:22:09.085Z</time></trkpt><trkpt lat="42.3543333" lon="14.0404733"><ele>136.66666666666666</ele><time>2026-05-02T08:22:10.085Z</time></trkpt><trkpt lat="42.354385" lon="14.0402067"><ele>138.33333333333331</ele><time>2026-05-02T08:22:11.086Z</time></trkpt><trkpt lat="42.3544283" lon="14.039945"><ele>140.0</ele><time>2026-05-02T08:22:12.086Z</time></trkpt><trkpt lat="42.3544683" lon="14.0397033"><ele>140.33333333333331</ele><time>2026-05-02T08:22:13.086Z</time></trkpt><trkpt lat="42.3545117" lon="14.0394683"><ele>140.66666666666666</ele><time>2026-05-02T08:22:14.085Z</time></trkpt><trkpt lat="42.3545517" lon="14.039235"><ele>141.0</ele><time>2026-05-02T08:22:15.085Z</time></trkpt><trkpt lat="42.35459" lon="14.0390133"><ele>140.0</ele><time>2026-05-02T08:22:16.086Z</time></trkpt><trkpt lat="42.3546217" lon="14.0387833"><ele>139.0</ele><time>2026-05-02T08:22:17.085Z</time></trkpt><trkpt lat="42.3546617" lon="14.0385467"><ele>138.0</ele><time>2026-05-02T08:22:18.086Z</time></trkpt><trkpt lat="42.3546983" lon="14.0382933"><ele>136.0</ele><time>2026-05-02T08:22:19.086Z</time></trkpt><trkpt lat="42.354745" lon="14.038045"><ele>134.0</ele><time>2026-05-02T08:22:20.086Z</time></trkpt><trkpt lat="42.3547783" lon="14.0377833"><ele>132.0</ele><time>2026-05-02T08:22:21.085Z</time></trkpt><trkpt lat="42.354815" lon="14.0375383"><ele>132.33333333333334</ele><time>2026-05-02T08:22:22.085Z</time></trkpt><trkpt lat="42.3548383" lon="14.037305"><ele>132.66666666666669</ele><time>2026-05-02T08:22:23.085Z</time></trkpt><trkpt lat="42.3548567" lon="14.0370683"><ele>133.0</ele><time>2026-05-02T08:22:24.085Z</time></trkpt><trkpt lat="42.3548667" lon="14.0368117"><ele>133.33333333333334</ele><time>2026-05-02T08:22:25.086Z</time></trkpt><trkpt lat="42.35487" lon="14.0365383"><ele>133.66666666666666</ele><time>2026-05-02T08:22:26.085Z</time></trkpt><trkpt lat="42.3548683" lon="14.0362383"><ele>134.0</ele><time>2026-05-02T08:22:27.085Z</time></trkpt><trkpt lat="42.35487" lon="14.0359167"><ele>135.5</ele><time>2026-05-02T08:22:28.086Z</time></trkpt><trkpt lat="42.3548733" lon="14.0355783"><ele>137.0</ele><time>2026-05-02T08:22:29.086Z</time></trkpt><trkpt lat="42.3548783" lon="14.0352267"><ele>137.5</ele><time>2026-05-02T08:22:30.086Z</time></trkpt><trkpt lat="42.3548767" lon="14.034865"><ele>138.0</ele><time>2026-05-02T08:22:31.085Z</time></trkpt><trkpt lat="42.3548717" lon="14.03449"><ele>138.0</ele><time>2026-05-02T08:22:32.086Z</time></trkpt><trkpt lat="42.3548583" lon="14.03411"><ele>138.0</ele><time>2026-05-02T08:22:33.086Z</time></trkpt><trkpt lat="42.354855" lon="14.0337233"><ele>138.0</ele><time>2026-05-02T08:22:34.086Z</time></trkpt><trkpt lat="42.35485" lon="14.0333483"><ele>138.0</ele><time>2026-05-02T08:22:35.086Z</time></trkpt><trkpt lat="42.35485" lon="14.033015"><ele>138.33333333333334</ele><time>2026-05-02T08:22:36.085Z</time></trkpt><trkpt lat="42.354845" lon="14.0327217"><ele>138.66666666666669</ele><time>2026-05-02T08:22:37.085Z</time></trkpt><trkpt lat="42.3548417" lon="14.0324533"><ele>139.0</ele><time>2026-05-02T08:22:38.085Z</time></trkpt><trkpt lat="42.3548467" lon="14.032205"><ele>139.0</ele><time>2026-05-02T08:22:39.085Z</time></trkpt><trkpt lat="42.3548467" lon="14.0319733"><ele>139.0</ele><time>2026-05-02T08:22:40.086Z</time></trkpt><trkpt lat="42.35484" lon="14.0317633"><ele>139.0</ele><time>2026-05-02T08:22:41.086Z</time></trkpt><trkpt lat="42.3548383" lon="14.0315733"><ele>139.0</ele><time>2026-05-02T08:22:42.085Z</time></trkpt><trkpt lat="42.35484" lon="14.031405"><ele>139.0</ele><time>2026-05-02T08:22:43.085Z</time></trkpt><trkpt lat="42.3548417" lon="14.0312733"><ele>139.0</ele><time>2026-05-02T08:22:44.085Z</time></trkpt><trkpt lat="42.354835" lon="14.0311567"><ele>139.0</ele><time>2026-05-02T08:22:45.085Z</time></trkpt><trkpt lat="42.3548267" lon="14.03105"><ele>139.0</ele><time>2026-05-02T08:22:46.086Z</time></trkpt><trkpt lat="42.354825" lon="14.0309383"><ele>139.5</ele><time>2026-05-02T08:22:47.086Z</time></trkpt><trkpt lat="42.3548267" lon="14.03079"><ele>140.0</ele><time>2026-05-02T08:22:48.086Z</time></trkpt><trkpt lat="42.3548283" lon="14.0306067"><ele>140.5</ele><time>2026-05-02T08:22:49.085Z</time></trkpt><trkpt lat="42.35483" lon="14.0303967"><ele>141.0</ele><time>2026-05-02T08:22:50.085Z</time></trkpt><trkpt lat="42.354825" lon="14.030175"><ele>142.33333333333334</ele><time>2026-05-02T08:22:51.085Z</time></trkpt><trkpt lat="42.3548267" lon="14.02994"><ele>143.66666666666669</ele><time>2026-05-02T08:22:52.084Z</time></trkpt><trkpt lat="42.3548283" lon="14.0297033"><ele>145.0</ele><time>2026-05-02T08:22:53.084Z</time></trkpt><trkpt lat="42.3548217" lon="14.0294783"><ele>145.0</ele><time>2026-05-02T08:22:54.084Z</time></trkpt><trkpt lat="42.354815" lon="14.0292667"><ele>145.0</ele><time>2026-05-02T08:22:55.085Z</time></trkpt><trkpt lat="42.354815" lon="14.02906"><ele>145.0</ele><time>2026-05-02T08:22:56.085Z</time></trkpt><trkpt lat="42.35481" lon="14.0288667"><ele>145.0</ele><time>2026-05-02T08:22:57.085Z</time></trkpt><trkpt lat="42.3548067" lon="14.0286717"><ele>145.0</ele><time>2026-05-02T08:22:58.085Z</time></trkpt><trkpt lat="42.3548033" lon="14.02847"><ele>145.0</ele><time>2026-05-02T08:22:59.085Z</time></trkpt><trkpt lat="42.3547983" lon="14.028275"><ele>145.0</ele><time>2026-05-02T08:23:00.085Z</time></trkpt><trkpt lat="42.3548017" lon="14.0280817"><ele>145.0</ele><time>2026-05-02T08:23:01.085Z</time></trkpt><trkpt lat="42.3548017" lon="14.0279033"><ele>145.0</ele><time>2026-05-02T08:23:02.084Z</time></trkpt><trkpt lat="42.3548" lon="14.0277467"><ele>145.0</ele><time>2026-05-02T08:23:03.084Z</time></trkpt><trkpt lat="42.3548" lon="14.02762"><ele>145.0</ele><time>2026-05-02T08:23:04.084Z</time></trkpt><trkpt lat="42.3548033" lon="14.027515"><ele>145.0</ele><time>2026-05-02T08:23:05.084Z</time></trkpt><trkpt lat="42.3548033" lon="14.0273767"><ele>145.4</ele><time>2026-05-02T08:23:07.085Z</time></trkpt><trkpt lat="42.3547917" lon="14.02726"><ele>145.8</ele><time>2026-05-02T08:23:09.084Z</time></trkpt><trkpt lat="42.35479" lon="14.027135"><ele>146.2</ele><time>2026-05-02T08:23:11.084Z</time></trkpt><trkpt lat="42.3547883" lon="14.026975"><ele>146.6</ele><time>2026-05-02T08:23:13.084Z</time></trkpt><trkpt lat="42.3547883" lon="14.0268583"><ele>147.0</ele><time>2026-05-02T08:23:14.084Z</time></trkpt><trkpt lat="42.3547917" lon="14.0267333"><ele>147.0</ele><time>2026-05-02T08:23:15.085Z</time></trkpt><trkpt lat="42.3547883" lon="14.0265917"><ele>147.0</ele><time>2026-05-02T08:23:16.085Z</time></trkpt><trkpt lat="42.35478" lon="14.0264367"><ele>147.0</ele><time>2026-05-02T08:23:17.084Z</time></trkpt><trkpt lat="42.354775" lon="14.0262733"><ele>147.0</ele><time>2026-05-02T08:23:18.085Z</time></trkpt><trkpt lat="42.3547783" lon="14.0261067"><ele>147.0</ele><time>2026-05-02T08:23:19.085Z</time></trkpt><trkpt lat="42.3547783" lon="14.0259583"><ele>147.0</ele><time>2026-05-02T08:23:20.084Z</time></trkpt><trkpt lat="42.35478" lon="14.0258"><ele>147.0</ele><time>2026-05-02T08:23:21.085Z</time></trkpt><trkpt lat="42.354775" lon="14.02564"><ele>147.0</ele><time>2026-05-02T08:23:22.084Z</time></trkpt><trkpt lat="42.3547717" lon="14.02548"><ele>147.5</ele><time>2026-05-02T08:23:23.084Z</time></trkpt><trkpt lat="42.3547717" lon="14.025315"><ele>148.0</ele><time>2026-05-02T08:23:24.084Z</time></trkpt><trkpt lat="42.3547767" lon="14.02516"><ele>148.5</ele><time>2026-05-02T08:23:25.084Z</time></trkpt><trkpt lat="42.3547833" lon="14.0250133"><ele>149.0</ele><time>2026-05-02T08:23:26.084Z</time></trkpt><trkpt lat="42.3547917" lon="14.02486"><ele>149.25</ele><time>2026-05-02T08:23:27.084Z</time></trkpt><trkpt lat="42.3548" lon="14.0246917"><ele>149.5</ele><time>2026-05-02T08:23:28.085Z</time></trkpt><trkpt lat="42.3548133" lon="14.0245133"><ele>149.75</ele><time>2026-05-02T08:23:29.085Z</time></trkpt><trkpt lat="42.3548217" lon="14.0243417"><ele>150.0</ele><time>2026-05-02T08:23:30.084Z</time></trkpt><trkpt lat="42.3548367" lon="14.0241667"><ele>150.4</ele><time>2026-05-02T08:23:31.085Z</time></trkpt><trkpt lat="42.3548483" lon="14.0240017"><ele>150.8</ele><time>2026-05-02T08:23:32.084Z</time></trkpt><trkpt lat="42.354855" lon="14.023865"><ele>151.2</ele><time>2026-05-02T08:23:33.084Z</time></trkpt><trkpt lat="42.354865" lon="14.0237567"><ele>151.6</ele><time>2026-05-02T08:23:34.085Z</time></trkpt><trkpt lat="42.354865" lon="14.0236283"><ele>152.0</ele><time>2026-05-02T08:23:36.085Z</time></trkpt><trkpt lat="42.354785" lon="14.0236217"><ele>152.6</ele><time>2026-05-02T08:23:39.084Z</time></trkpt><trkpt lat="42.3546983" lon="14.023705"><ele>153.2</ele><time>2026-05-02T08:23:41.084Z</time></trkpt><trkpt lat="42.35464" lon="14.0237767"><ele>153.8</ele><time>2026-05-02T08:23:42.085Z</time></trkpt><trkpt lat="42.354565" lon="14.0238633"><ele>154.4</ele><time>2026-05-02T08:23:43.085Z</time></trkpt><trkpt lat="42.3544817" lon="14.0239717"><ele>155.0</ele><time>2026-05-02T08:23:44.085Z</time></trkpt><trkpt lat="42.3543883" lon="14.0240883"><ele>154.8</ele><time>2026-05-02T08:23:45.084Z</time></trkpt><trkpt lat="42.3542967" lon="14.02419"><ele>154.6</ele><time>2026-05-02T08:23:46.085Z</time></trkpt><trkpt lat="42.3542217" lon="14.0242767"><ele>154.4</ele><time>2026-05-02T08:23:47.085Z</time></trkpt><trkpt lat="42.35415" lon="14.0243333"><ele>154.2</ele><time>2026-05-02T08:23:48.085Z</time></trkpt><trkpt lat="42.3540167" lon="14.0243217"><ele>154.0</ele><time>2026-05-02T08:23:50.085Z</time></trkpt><trkpt lat="42.3539267" lon="14.0242533"><ele>154.8</ele><time>2026-05-02T08:23:51.085Z</time></trkpt><trkpt lat="42.35383" lon="14.0241783"><ele>155.60000000000002</ele><time>2026-05-02T08:23:52.084Z</time></trkpt><trkpt lat="42.35374" lon="14.02412"><ele>156.4</ele><time>2026-05-02T08:23:53.085Z</time></trkpt><trkpt lat="42.353635" lon="14.0240833"><ele>157.20000000000002</ele><time>2026-05-02T08:23:54.085Z</time></trkpt><trkpt lat="42.3535133" lon="14.0240667"><ele>158.0</ele><time>2026-05-02T08:23:55.084Z</time></trkpt><trkpt lat="42.35338" lon="14.02405"><ele>158.0</ele><time>2026-05-02T08:23:56.085Z</time></trkpt><trkpt lat="42.3532267" lon="14.0240267"><ele>158.0</ele><time>2026-05-02T08:23:57.085Z</time></trkpt><trkpt lat="42.3530517" lon="14.0239983"><ele>158.0</ele><time>2026-05-02T08:23:58.084Z</time></trkpt><trkpt lat="42.3528717" lon="14.0239667"><ele>160.66666666666666</ele><time>2026-05-02T08:23:59.085Z</time></trkpt><trkpt lat="42.3527083" lon="14.0239417"><ele>163.33333333333334</ele><time>2026-05-02T08:24:00.084Z</time></trkpt><trkpt lat="42.3525567" lon="14.023915"><ele>166.0</ele><time>2026-05-02T08:24:01.085Z</time></trkpt><trkpt lat="42.35241" lon="14.023895"><ele>166.0</ele><time>2026-05-02T08:24:02.084Z</time></trkpt><trkpt lat="42.3522917" lon="14.0238783"><ele>166.0</ele><time>2026-05-02T08:24:03.085Z</time></trkpt><trkpt lat="42.3521967" lon="14.0238767"><ele>166.0</ele><time>2026-05-02T08:24:04.084Z</time></trkpt><trkpt lat="42.352095" lon="14.0238817"><ele>166.0</ele><time>2026-05-02T08:24:05.085Z</time></trkpt><trkpt lat="42.351985" lon="14.0239"><ele>166.0</ele><time>2026-05-02T08:24:06.084Z</time></trkpt><trkpt lat="42.3518767" lon="14.023935"><ele>167.4</ele><time>2026-05-02T08:24:07.084Z</time></trkpt><trkpt lat="42.3517383" lon="14.023995"><ele>168.8</ele><time>2026-05-02T08:24:08.085Z</time></trkpt><trkpt lat="42.3516333" lon="14.0240383"><ele>170.20000000000002</ele><time>2026-05-02T08:24:09.085Z</time></trkpt><trkpt lat="42.35154" lon="14.024065"><ele>171.60000000000002</ele><time>2026-05-02T08:24:10.084Z</time></trkpt><trkpt lat="42.351455" lon="14.024065"><ele>173.0</ele><time>2026-05-02T08:24:11.085Z</time></trkpt><trkpt lat="42.3513733" lon="14.024045"><ele>174.33333333333331</ele><time>2026-05-02T08:24:12.085Z</time></trkpt><trkpt lat="42.3513033" lon="14.0240067"><ele>175.66666666666666</ele><time>2026-05-02T08:24:13.085Z</time></trkpt><trkpt lat="42.3512533" lon="14.0239517"><ele>177.0</ele><time>2026-05-02T08:24:14.085Z</time></trkpt><trkpt lat="42.3512133" lon="14.0238633"><ele>178.33333333333334</ele><time>2026-05-02T08:24:15.085Z</time></trkpt><trkpt lat="42.3511717" lon="14.0237383"><ele>179.66666666666669</ele><time>2026-05-02T08:24:16.084Z</time></trkpt><trkpt lat="42.3511233" lon="14.023585"><ele>181.0</ele><time>2026-05-02T08:24:17.084Z</time></trkpt><trkpt lat="42.3510717" lon="14.02344"><ele>181.0</ele><time>2026-05-02T08:24:18.084Z</time></trkpt><trkpt lat="42.3510217" lon="14.0233183"><ele>181.0</ele><time>2026-05-02T08:24:19.085Z</time></trkpt><trkpt lat="42.3509633" lon="14.02322"><ele>181.0</ele><time>2026-05-02T08:24:20.084Z</time></trkpt><trkpt lat="42.3509" lon="14.023115"><ele>181.0</ele><time>2026-05-02T08:24:21.085Z</time></trkpt><trkpt lat="42.350815" lon="14.0230067"><ele>181.0</ele><time>2026-05-02T08:24:22.084Z</time></trkpt><trkpt lat="42.3507233" lon="14.0228717"><ele>182.25</ele><time>2026-05-02T08:24:23.085Z</time></trkpt><trkpt lat="42.350645" lon="14.0227433"><ele>183.5</ele><time>2026-05-02T08:24:24.085Z</time></trkpt><trkpt lat="42.35056" lon="14.02261"><ele>184.75</ele><time>2026-05-02T08:24:25.085Z</time></trkpt><trkpt lat="42.35048" lon="14.02249"><ele>186.0</ele><time>2026-05-02T08:24:26.084Z</time></trkpt><trkpt lat="42.3504183" lon="14.022385"><ele>186.66666666666666</ele><time>2026-05-02T08:24:27.084Z</time></trkpt><trkpt lat="42.3503383" lon="14.02231"><ele>187.33333333333334</ele><time>2026-05-02T08:24:28.084Z</time></trkpt><trkpt lat="42.3502517" lon="14.0222683"><ele>188.0</ele><time>2026-05-02T08:24:29.084Z</time></trkpt><trkpt lat="42.35018" lon="14.022255"><ele>188.66666666666669</ele><time>2026-05-02T08:24:30.085Z</time></trkpt><trkpt lat="42.3501067" lon="14.0222817"><ele>189.33333333333334</ele><time>2026-05-02T08:24:31.085Z</time></trkpt><trkpt lat="42.3500283" lon="14.0223517"><ele>190.0</ele><time>2026-05-02T08:24:32.085Z</time></trkpt><trkpt lat="42.34993" lon="14.02245"><ele>190.0</ele><time>2026-05-02T08:24:33.084Z</time></trkpt><trkpt lat="42.349805" lon="14.0225683"><ele>190.0</ele><time>2026-05-02T08:24:34.084Z</time></trkpt><trkpt lat="42.349665" lon="14.022695"><ele>190.0</ele><time>2026-05-02T08:24:35.085Z</time></trkpt><trkpt lat="42.3494983" lon="14.0228467"><ele>190.0</ele><time>2026-05-02T08:24:36.084Z</time></trkpt><trkpt lat="42.3493433" lon="14.022985"><ele>190.0</ele><time>2026-05-02T08:24:37.085Z</time></trkpt><trkpt lat="42.349205" lon="14.0231183"><ele>190.0</ele><time>2026-05-02T08:24:38.085Z</time></trkpt><trkpt lat="42.3491" lon="14.0232217"><ele>190.0</ele><time>2026-05-02T08:24:39.084Z</time></trkpt><trkpt lat="42.3490217" lon="14.02328"><ele>190.0</ele><time>2026-05-02T08:24:40.084Z</time></trkpt><trkpt lat="42.3489433" lon="14.0233217"><ele>190.0</ele><time>2026-05-02T08:24:41.085Z</time></trkpt><trkpt lat="42.3488217" lon="14.0233183"><ele>190.0</ele><time>2026-05-02T08:24:43.085Z</time></trkpt><trkpt lat="42.3487733" lon="14.0232567"><ele>190.0</ele><time>2026-05-02T08:24:44.085Z</time></trkpt><trkpt lat="42.3487167" lon="14.0231533"><ele>191.0</ele><time>2026-05-02T08:24:45.085Z</time></trkpt><trkpt lat="42.3486683" lon="14.02303"><ele>192.0</ele><time>2026-05-02T08:24:46.084Z</time></trkpt><trkpt lat="42.3486217" lon="14.022905"><ele>193.0</ele><time>2026-05-02T08:24:47.084Z</time></trkpt><trkpt lat="42.3485733" lon="14.0227717"><ele>194.0</ele><time>2026-05-02T08:24:48.085Z</time></trkpt><trkpt lat="42.34851" lon="14.022615"><ele>195.0</ele><time>2026-05-02T08:24:49.084Z</time></trkpt><trkpt lat="42.3484217" lon="14.0224583"><ele>195.0</ele><time>2026-05-02T08:24:50.085Z</time></trkpt><trkpt lat="42.3483317" lon="14.0223033"><ele>195.0</ele><time>2026-05-02T08:24:51.084Z</time></trkpt><trkpt lat="42.3482183" lon="14.022135"><ele>195.0</ele><time>2026-05-02T08:24:52.085Z</time></trkpt><trkpt lat="42.348115" lon="14.021985"><ele>195.25</ele><time>2026-05-02T08:24:53.085Z</time></trkpt><trkpt lat="42.348025" lon="14.0218467"><ele>195.5</ele><time>2026-05-02T08:24:54.084Z</time></trkpt><trkpt lat="42.3479317" lon="14.021715"><ele>195.75</ele><time>2026-05-02T08:24:55.084Z</time></trkpt><trkpt lat="42.347825" lon="14.0215817"><ele>196.0</ele><time>2026-05-02T08:24:56.085Z</time></trkpt><trkpt lat="42.3477167" lon="14.0214333"><ele>196.0</ele><time>2026-05-02T08:24:57.084Z</time></trkpt><trkpt lat="42.3475883" lon="14.0212617"><ele>196.0</ele><time>2026-05-02T08:24:58.084Z</time></trkpt><trkpt lat="42.3474567" lon="14.0210767"><ele>196.0</ele><time>2026-05-02T08:24:59.084Z</time></trkpt><trkpt lat="42.3473217" lon="14.020885"><ele>196.66666666666666</ele><time>2026-05-02T08:25:00.085Z</time></trkpt><trkpt lat="42.3471967" lon="14.0206783"><ele>197.33333333333331</ele><time>2026-05-02T08:25:01.084Z</time></trkpt><trkpt lat="42.3470817" lon="14.0204617"><ele>198.0</ele><time>2026-05-02T08:25:02.084Z</time></trkpt><trkpt lat="42.34697" lon="14.0202433"><ele>198.0</ele><time>2026-05-02T08:25:03.084Z</time></trkpt><trkpt lat="42.346855" lon="14.0200117"><ele>198.0</ele><time>2026-05-02T08:25:04.084Z</time></trkpt><trkpt lat="42.3467417" lon="14.01979"><ele>198.0</ele><time>2026-05-02T08:25:05.084Z</time></trkpt><trkpt lat="42.3466267" lon="14.0195667"><ele>197.66666666666669</ele><time>2026-05-02T08:25:06.085Z</time></trkpt><trkpt lat="42.3465217" lon="14.0193283"><ele>197.33333333333334</ele><time>2026-05-02T08:25:07.085Z</time></trkpt><trkpt lat="42.3464267" lon="14.0191067"><ele>197.0</ele><time>2026-05-02T08:25:08.085Z</time></trkpt><trkpt lat="42.3463317" lon="14.0188933"><ele>198.33333333333334</ele><time>2026-05-02T08:25:09.085Z</time></trkpt><trkpt lat="42.3462433" lon="14.0186933"><ele>199.66666666666669</ele><time>2026-05-02T08:25:10.084Z</time></trkpt><trkpt lat="42.3461533" lon="14.018495"><ele>201.0</ele><time>2026-05-02T08:25:11.085Z</time></trkpt><trkpt lat="42.3460617" lon="14.0183017"><ele>201.66666666666669</ele><time>2026-05-02T08:25:12.084Z</time></trkpt><trkpt lat="42.3459633" lon="14.0181067"><ele>202.33333333333334</ele><time>2026-05-02T08:25:13.084Z</time></trkpt><trkpt lat="42.3458667" lon="14.0179283"><ele>203.0</ele><time>2026-05-02T08:25:14.085Z</time></trkpt><trkpt lat="42.3457733" lon="14.017755"><ele>203.0</ele><time>2026-05-02T08:25:15.084Z</time></trkpt><trkpt lat="42.3456817" lon="14.01759"><ele>203.0</ele><time>2026-05-02T08:25:16.085Z</time></trkpt><trkpt lat="42.3455983" lon="14.017415"><ele>203.0</ele><time>2026-05-02T08:25:17.085Z</time></trkpt><trkpt lat="42.345505" lon="14.01724"><ele>203.66666666666669</ele><time>2026-05-02T08:25:18.084Z</time></trkpt><trkpt lat="42.345405" lon="14.017055"><ele>204.33333333333331</ele><time>2026-05-02T08:25:19.085Z</time></trkpt><trkpt lat="42.3453117" lon="14.0168783"><ele>205.0</ele><time>2026-05-02T08:25:20.084Z</time></trkpt><trkpt lat="42.34523" lon="14.0167133"><ele>205.4</ele><time>2026-05-02T08:25:21.084Z</time></trkpt><trkpt lat="42.3451583" lon="14.016565"><ele>205.8</ele><time>2026-05-02T08:25:22.084Z</time></trkpt><trkpt lat="42.345105" lon="14.0164267"><ele>206.2</ele><time>2026-05-02T08:25:23.085Z</time></trkpt><trkpt lat="42.34506" lon="14.016305"><ele>206.6</ele><time>2026-05-02T08:25:24.084Z</time></trkpt><trkpt lat="42.3450283" lon="14.0162067"><ele>207.0</ele><time>2026-05-02T08:25:25.084Z</time></trkpt><trkpt lat="42.3449367" lon="14.016125"><ele>207.0</ele><time>2026-05-02T08:25:27.085Z</time></trkpt><trkpt lat="42.344855" lon="14.0161383"><ele>207.0</ele><time>2026-05-02T08:25:28.084Z</time></trkpt><trkpt lat="42.344735" lon="14.0161783"><ele>207.0</ele><time>2026-05-02T08:25:29.085Z</time></trkpt><trkpt lat="42.3445817" lon="14.0162267"><ele>207.0</ele><time>2026-05-02T08:25:30.084Z</time></trkpt><trkpt lat="42.34443" lon="14.0162567"><ele>207.0</ele><time>2026-05-02T08:25:31.085Z</time></trkpt><trkpt lat="42.344285" lon="14.0162933"><ele>207.0</ele><time>2026-05-02T08:25:32.084Z</time></trkpt><trkpt lat="42.3441467" lon="14.0163267"><ele>207.0</ele><time>2026-05-02T08:25:33.085Z</time></trkpt><trkpt lat="42.3440333" lon="14.0163483"><ele>207.0</ele><time>2026-05-02T08:25:34.084Z</time></trkpt><trkpt lat="42.3439267" lon="14.0163733"><ele>206.25</ele><time>2026-05-02T08:25:35.085Z</time></trkpt><trkpt lat="42.3438183" lon="14.01638"><ele>205.5</ele><time>2026-05-02T08:25:36.084Z</time></trkpt><trkpt lat="42.3437" lon="14.0163583"><ele>204.75</ele><time>2026-05-02T08:25:37.084Z</time></trkpt><trkpt lat="42.3435717" lon="14.016335"><ele>204.0</ele><time>2026-05-02T08:25:38.084Z</time></trkpt><trkpt lat="42.3434333" lon="14.0162933"><ele>204.0</ele><time>2026-05-02T08:25:39.085Z</time></trkpt><trkpt lat="42.3433017" lon="14.0162483"><ele>204.0</ele><time>2026-05-02T08:25:40.084Z</time></trkpt><trkpt lat="42.3431833" lon="14.01621"><ele>204.0</ele><time>2026-05-02T08:25:41.085Z</time></trkpt><trkpt lat="42.34308" lon="14.016175"><ele>204.0</ele><time>2026-05-02T08:25:42.085Z</time></trkpt><trkpt lat="42.342985" lon="14.0161483"><ele>202.16666666666666</ele><time>2026-05-02T08:25:43.084Z</time></trkpt><trkpt lat="42.3428967" lon="14.0161167"><ele>200.33333333333331</ele><time>2026-05-02T08:25:44.085Z</time></trkpt><trkpt lat="42.3428283" lon="14.016105"><ele>198.5</ele><time>2026-05-02T08:25:45.084Z</time></trkpt><trkpt lat="42.342765" lon="14.0161267"><ele>196.66666666666666</ele><time>2026-05-02T08:25:46.085Z</time></trkpt><trkpt lat="42.3427" lon="14.0162"><ele>194.83333333333331</ele><time>2026-05-02T08:25:47.085Z</time></trkpt><trkpt lat="42.3426517" lon="14.0163267"><ele>193.0</ele><time>2026-05-02T08:25:48.085Z</time></trkpt><trkpt lat="42.3426183" lon="14.01647"><ele>192.99999999999997</ele><time>2026-05-02T08:25:49.085Z</time></trkpt><trkpt lat="42.3425817" lon="14.0166"><ele>193.0</ele><time>2026-05-02T08:25:50.084Z</time></trkpt><trkpt lat="42.3425483" lon="14.0167133"><ele>193.0</ele><time>2026-05-02T08:25:51.085Z</time></trkpt><trkpt lat="42.34252" lon="14.0167983"><ele>193.0</ele><time>2026-05-02T08:25:52.084Z</time></trkpt><trkpt lat="42.3424867" lon="14.016895"><ele>192.99999999999997</ele><time>2026-05-02T08:25:55.084Z</time></trkpt><trkpt lat="42.3424683" lon="14.0169817"><ele>193.0</ele><time>2026-05-02T08:26:00.084Z</time></trkpt><trkpt lat="42.34237" lon="14.0170467"><ele>192.66666666666666</ele><time>2026-05-02T08:26:02.084Z</time></trkpt><trkpt lat="42.3423" lon="14.0170883"><ele>192.33333333333331</ele><time>2026-05-02T08:26:03.085Z</time></trkpt><trkpt lat="42.3422283" lon="14.017135"><ele>192.0</ele><time>2026-05-02T08:26:04.084Z</time></trkpt><trkpt lat="42.3421283" lon="14.017205"><ele>191.66666666666666</ele><time>2026-05-02T08:26:06.084Z</time></trkpt><trkpt lat="42.3420667" lon="14.0172717"><ele>191.33333333333331</ele><time>2026-05-02T08:26:09.085Z</time></trkpt><trkpt lat="42.341995" lon="14.0172733"><ele>191.0</ele><time>2026-05-02T08:26:33.084Z</time></trkpt><trkpt lat="42.3421117" lon="14.0171983"><ele>188.8</ele><time>2026-05-02T08:26:36.085Z</time></trkpt><trkpt lat="42.3421983" lon="14.0171283"><ele>186.60000000000002</ele><time>2026-05-02T08:26:38.085Z</time></trkpt><trkpt lat="42.342175" lon="14.017015"><ele>184.4</ele><time>2026-05-02T08:26:41.084Z</time></trkpt><trkpt lat="42.34205" lon="14.0169083"><ele>182.2</ele><time>2026-05-02T08:26:43.085Z</time></trkpt><trkpt lat="42.34196" lon="14.0168233"><ele>180.0</ele><time>2026-05-02T08:26:44.085Z</time></trkpt><trkpt lat="42.341855" lon="14.0167267"><ele>179.5</ele><time>2026-05-02T08:26:45.084Z</time></trkpt><trkpt lat="42.34172" lon="14.0166383"><ele>179.0</ele><time>2026-05-02T08:26:46.085Z</time></trkpt><trkpt lat="42.3415867" lon="14.0165633"><ele>178.5</ele><time>2026-05-02T08:26:47.085Z</time></trkpt><trkpt lat="42.3414733" lon="14.0164767"><ele>178.0</ele><time>2026-05-02T08:26:48.084Z</time></trkpt><trkpt lat="42.3413667" lon="14.0163933"><ele>177.5</ele><time>2026-05-02T08:26:49.084Z</time></trkpt><trkpt lat="42.341265" lon="14.016305"><ele>177.0</ele><time>2026-05-02T08:26:50.084Z</time></trkpt><trkpt lat="42.3411783" lon="14.0162383"><ele>176.5</ele><time>2026-05-02T08:26:51.085Z</time></trkpt><trkpt lat="42.34111" lon="14.0161883"><ele>176.0</ele><time>2026-05-02T08:26:52.084Z</time></trkpt><trkpt lat="42.3410567" lon="14.0161383"><ele>175.5</ele><time>2026-05-02T08:26:53.084Z</time></trkpt><trkpt lat="42.3410083" lon="14.0160833"><ele>175.0</ele><time>2026-05-02T08:26:54.085Z</time></trkpt><trkpt lat="42.3409533" lon="14.015995"><ele>175.0</ele><time>2026-05-02T08:26:55.084Z</time></trkpt><trkpt lat="42.340885" lon="14.0158883"><ele>175.0</ele><time>2026-05-02T08:26:56.085Z</time></trkpt><trkpt lat="42.3408117" lon="14.01577"><ele>175.0</ele><time>2026-05-02T08:26:57.084Z</time></trkpt><trkpt lat="42.3407467" lon="14.015645"><ele>175.0</ele><time>2026-05-02T08:26:58.085Z</time></trkpt><trkpt lat="42.3407017" lon="14.0155217"><ele>175.0</ele><time>2026-05-02T08:26:59.085Z</time></trkpt><trkpt lat="42.34065" lon="14.0154217"><ele>176.0</ele><time>2026-05-02T08:27:00.085Z</time></trkpt><trkpt lat="42.34061" lon="14.0153367"><ele>177.0</ele><time>2026-05-02T08:27:01.085Z</time></trkpt><trkpt lat="42.3405367" lon="14.0152267"><ele>178.0</ele><time>2026-05-02T08:27:03.085Z</time></trkpt><trkpt lat="42.340415" lon="14.0151933"><ele>179.0</ele><time>2026-05-02T08:27:05.084Z</time></trkpt><trkpt lat="42.3403267" lon="14.0152283"><ele>180.0</ele><time>2026-05-02T08:27:06.084Z</time></trkpt><trkpt lat="42.3402167" lon="14.015295"><ele>180.8</ele><time>2026-05-02T08:27:07.085Z</time></trkpt><trkpt lat="42.3401233" lon="14.0153817"><ele>181.6</ele><time>2026-05-02T08:27:08.085Z</time></trkpt><trkpt lat="42.3400317" lon="14.0154533"><ele>182.39999999999998</ele><time>2026-05-02T08:27:09.085Z</time></trkpt><trkpt lat="42.3399433" lon="14.0155317"><ele>183.2</ele><time>2026-05-02T08:27:10.085Z</time></trkpt><trkpt lat="42.3398633" lon="14.0156033"><ele>184.0</ele><time>2026-05-02T08:27:11.085Z</time></trkpt><trkpt lat="42.3397867" lon="14.0156567"><ele>184.0</ele><time>2026-05-02T08:27:12.085Z</time></trkpt><trkpt lat="42.33972" lon="14.0156833"><ele>184.0</ele><time>2026-05-02T08:27:13.085Z</time></trkpt><trkpt lat="42.3396567" lon="14.0156733"><ele>184.0</ele><time>2026-05-02T08:27:14.085Z</time></trkpt><trkpt lat="42.33958" lon="14.0156433"><ele>184.0</ele><time>2026-05-02T08:27:15.084Z</time></trkpt><trkpt lat="42.3394933" lon="14.0155783"><ele>184.0</ele><time>2026-05-02T08:27:16.084Z</time></trkpt><trkpt lat="42.33941" lon="14.0155183"><ele>184.0</ele><time>2026-05-02T08:27:17.084Z</time></trkpt><trkpt lat="42.3393417" lon="14.0154633"><ele>184.6</ele><time>2026-05-02T08:27:18.085Z</time></trkpt><trkpt lat="42.3392983" lon="14.0154"><ele>185.2</ele><time>2026-05-02T08:27:19.084Z</time></trkpt><trkpt lat="42.3392717" lon="14.0153133"><ele>185.79999999999998</ele><time>2026-05-02T08:27:20.085Z</time></trkpt><trkpt lat="42.3392383" lon="14.0152083"><ele>186.39999999999998</ele><time>2026-05-02T08:27:21.084Z</time></trkpt><trkpt lat="42.3392" lon="14.0150567"><ele>187.0</ele><time>2026-05-02T08:27:22.084Z</time></trkpt><trkpt lat="42.3391367" lon="14.01488"><ele>187.0</ele><time>2026-05-02T08:27:23.084Z</time></trkpt><trkpt lat="42.33906" lon="14.0146983"><ele>187.0</ele><time>2026-05-02T08:27:24.084Z</time></trkpt><trkpt lat="42.338985" lon="14.0145317"><ele>187.0</ele><time>2026-05-02T08:27:25.084Z</time></trkpt><trkpt lat="42.3389133" lon="14.01436"><ele>187.0</ele><time>2026-05-02T08:27:26.084Z</time></trkpt><trkpt lat="42.3388383" lon="14.0141767"><ele>186.0</ele><time>2026-05-02T08:27:27.084Z</time></trkpt><trkpt lat="42.33876" lon="14.0139933"><ele>185.0</ele><time>2026-05-02T08:27:28.084Z</time></trkpt><trkpt lat="42.3386933" lon="14.0138"><ele>184.0</ele><time>2026-05-02T08:27:29.084Z</time></trkpt><trkpt lat="42.3386167" lon="14.0135833"><ele>184.0</ele><time>2026-05-02T08:27:30.085Z</time></trkpt><trkpt lat="42.3385467" lon="14.0133767"><ele>184.0</ele><time>2026-05-02T08:27:31.084Z</time></trkpt><trkpt lat="42.338495" lon="14.01321"><ele>184.0</ele><time>2026-05-02T08:27:32.084Z</time></trkpt><trkpt lat="42.3384433" lon="14.013055"><ele>184.0</ele><time>2026-05-02T08:27:33.085Z</time></trkpt><trkpt lat="42.3383983" lon="14.0129267"><ele>185.16666666666669</ele><time>2026-05-02T08:27:34.084Z</time></trkpt><trkpt lat="42.3383633" lon="14.0128333"><ele>186.33333333333334</ele><time>2026-05-02T08:27:35.084Z</time></trkpt><trkpt lat="42.3383683" lon="14.0127283"><ele>187.5</ele><time>2026-05-02T08:27:37.084Z</time></trkpt><trkpt lat="42.338455" lon="14.0126633"><ele>188.66666666666666</ele><time>2026-05-02T08:27:39.084Z</time></trkpt><trkpt lat="42.3385217" lon="14.012625"><ele>189.83333333333331</ele><time>2026-05-02T08:27:40.085Z</time></trkpt><trkpt lat="42.3386033" lon="14.01258"><ele>191.0</ele><time>2026-05-02T08:27:41.085Z</time></trkpt><trkpt lat="42.33869" lon="14.01253"><ele>192.16666666666666</ele><time>2026-05-02T08:27:42.084Z</time></trkpt><trkpt lat="42.3387733" lon="14.01247"><ele>193.33333333333331</ele><time>2026-05-02T08:27:43.084Z</time></trkpt><trkpt lat="42.3388383" lon="14.0124217"><ele>194.5</ele><time>2026-05-02T08:27:44.084Z</time></trkpt><trkpt lat="42.33884" lon="14.012335"><ele>195.66666666666666</ele><time>2026-05-02T08:27:47.085Z</time></trkpt><trkpt lat="42.33875" lon="14.0123233"><ele>196.83333333333334</ele><time>2026-05-02T08:27:49.085Z</time></trkpt><trkpt lat="42.3386417" lon="14.012275"><ele>198.0</ele><time>2026-05-02T08:27:51.084Z</time></trkpt><trkpt lat="42.3385683" lon="14.01223"><ele>198.0</ele><time>2026-05-02T08:27:52.085Z</time></trkpt><trkpt lat="42.3384933" lon="14.012175"><ele>198.0</ele><time>2026-05-02T08:27:53.085Z</time></trkpt><trkpt lat="42.3383967" lon="14.012135"><ele>198.0</ele><time>2026-05-02T08:27:54.084Z</time></trkpt><trkpt lat="42.338295" lon="14.01211"><ele>198.0</ele><time>2026-05-02T08:27:55.085Z</time></trkpt><trkpt lat="42.3382067" lon="14.0120817"><ele>198.0</ele><time>2026-05-02T08:27:56.085Z</time></trkpt><trkpt lat="42.3381233" lon="14.012055"><ele>196.0</ele><time>2026-05-02T08:27:57.085Z</time></trkpt><trkpt lat="42.3380467" lon="14.0120267"><ele>194.0</ele><time>2026-05-02T08:27:58.084Z</time></trkpt><trkpt lat="42.3379683" lon="14.011995"><ele>192.0</ele><time>2026-05-02T08:27:59.084Z</time></trkpt><trkpt lat="42.3378883" lon="14.0119533"><ele>190.0</ele><time>2026-05-02T08:28:00.084Z</time></trkpt><trkpt lat="42.3378067" lon="14.0118933"><ele>188.0</ele><time>2026-05-02T08:28:01.085Z</time></trkpt><trkpt lat="42.3377117" lon="14.0118167"><ele>188.0</ele><time>2026-05-02T08:28:02.085Z</time></trkpt><trkpt lat="42.3376" lon="14.01172"><ele>188.0</ele><time>2026-05-02T08:28:03.085Z</time></trkpt><trkpt lat="42.3375033" lon="14.0116167"><ele>188.0</ele><time>2026-05-02T08:28:04.085Z</time></trkpt><trkpt lat="42.3374" lon="14.0114967"><ele>188.0</ele><time>2026-05-02T08:28:05.084Z</time></trkpt><trkpt lat="42.3373017" lon="14.01136"><ele>189.4</ele><time>2026-05-02T08:28:06.085Z</time></trkpt><trkpt lat="42.3372217" lon="14.0112067"><ele>190.8</ele><time>2026-05-02T08:28:07.084Z</time></trkpt><trkpt lat="42.33715" lon="14.01108"><ele>192.2</ele><time>2026-05-02T08:28:08.084Z</time></trkpt><trkpt lat="42.3370867" lon="14.010975"><ele>193.6</ele><time>2026-05-02T08:28:09.084Z</time></trkpt><trkpt lat="42.3370133" lon="14.0109183"><ele>195.0</ele><time>2026-05-02T08:28:10.085Z</time></trkpt><trkpt lat="42.336935" lon="14.0109017"><ele>191.5</ele><time>2026-05-02T08:28:11.085Z</time></trkpt><trkpt lat="42.3368483" lon="14.010925"><ele>188.0</ele><time>2026-05-02T08:28:12.085Z</time></trkpt><trkpt lat="42.336735" lon="14.0109833"><ele>184.5</ele><time>2026-05-02T08:28:13.085Z</time></trkpt><trkpt lat="42.336615" lon="14.0110533"><ele>181.0</ele><time>2026-05-02T08:28:14.085Z</time></trkpt><trkpt lat="42.3365017" lon="14.01113"><ele>181.0</ele><time>2026-05-02T08:28:15.084Z</time></trkpt><trkpt lat="42.3364083" lon="14.0112283"><ele>181.0</ele><time>2026-05-02T08:28:16.084Z</time></trkpt><trkpt lat="42.33633" lon="14.0113517"><ele>181.0</ele><time>2026-05-02T08:28:17.084Z</time></trkpt><trkpt lat="42.33627" lon="14.0115083"><ele>181.0</ele><time>2026-05-02T08:28:18.084Z</time></trkpt><trkpt lat="42.3362083" lon="14.0116967"><ele>185.33333333333334</ele><time>2026-05-02T08:28:19.084Z</time></trkpt><trkpt lat="42.3361267" lon="14.0119083"><ele>189.66666666666669</ele><time>2026-05-02T08:28:20.085Z</time></trkpt><trkpt lat="42.3360617" lon="14.0121317"><ele>194.0</ele><time>2026-05-02T08:28:21.085Z</time></trkpt><trkpt lat="42.3360233" lon="14.0123567"><ele>195.66666666666669</ele><time>2026-05-02T08:28:22.085Z</time></trkpt><trkpt lat="42.33601" lon="14.012595"><ele>197.33333333333331</ele><time>2026-05-02T08:28:23.085Z</time></trkpt><trkpt lat="42.3360167" lon="14.0128433"><ele>199.0</ele><time>2026-05-02T08:28:24.084Z</time></trkpt><trkpt lat="42.3360233" lon="14.0130883"><ele>200.33333333333331</ele><time>2026-05-02T08:28:25.084Z</time></trkpt><trkpt lat="42.3360317" lon="14.013345"><ele>201.66666666666669</ele><time>2026-05-02T08:28:26.084Z</time></trkpt><trkpt lat="42.3360383" lon="14.0136033"><ele>203.0</ele><time>2026-05-02T08:28:27.085Z</time></trkpt><trkpt lat="42.3360533" lon="14.0138667"><ele>203.0</ele><time>2026-05-02T08:28:28.084Z</time></trkpt><trkpt lat="42.33605" lon="14.014105"><ele>203.0</ele><time>2026-05-02T08:28:29.085Z</time></trkpt><trkpt lat="42.33606" lon="14.01432"><ele>203.0</ele><time>2026-05-02T08:28:30.084Z</time></trkpt><trkpt lat="42.3360733" lon="14.0145167"><ele>203.2</ele><time>2026-05-02T08:28:31.085Z</time></trkpt><trkpt lat="42.336105" lon="14.01471"><ele>203.4</ele><time>2026-05-02T08:28:32.084Z</time></trkpt><trkpt lat="42.3361483" lon="14.0148683"><ele>203.6</ele><time>2026-05-02T08:28:33.084Z</time></trkpt><trkpt lat="42.3361783" lon="14.0149983"><ele>203.79999999999998</ele><time>2026-05-02T08:28:34.084Z</time></trkpt><trkpt lat="42.3361717" lon="14.0150983"><ele>204.0</ele><time>2026-05-02T08:28:35.084Z</time></trkpt><trkpt lat="42.33608" lon="14.0151733"><ele>204.0</ele><time>2026-05-02T08:28:37.084Z</time></trkpt><trkpt lat="42.33602" lon="14.0151433"><ele>204.0</ele><time>2026-05-02T08:28:38.084Z</time></trkpt><trkpt lat="42.335955" lon="14.0150783"><ele>204.0</ele><time>2026-05-02T08:28:39.084Z</time></trkpt><trkpt lat="42.3358983" lon="14.0150167"><ele>204.0</ele><time>2026-05-02T08:28:40.084Z</time></trkpt><trkpt lat="42.3358467" lon="14.0149633"><ele>204.0</ele><time>2026-05-02T08:28:41.084Z</time></trkpt><trkpt lat="42.3357917" lon="14.0149017"><ele>204.0</ele><time>2026-05-02T08:28:42.084Z</time></trkpt><trkpt lat="42.3357133" lon="14.014765"><ele>204.0</ele><time>2026-05-02T08:28:44.085Z</time></trkpt><trkpt lat="42.3356817" lon="14.0146867"><ele>204.0</ele><time>2026-05-02T08:28:45.084Z</time></trkpt><trkpt lat="42.335645" lon="14.0145783"><ele>204.0</ele><time>2026-05-02T08:28:47.085Z</time></trkpt><trkpt lat="42.3355583" lon="14.0145483"><ele>204.0</ele><time>2026-05-02T08:28:49.084Z</time></trkpt><trkpt lat="42.335475" lon="14.0145617"><ele>204.0</ele><time>2026-05-02T08:28:50.084Z</time></trkpt><trkpt lat="42.3353667" lon="14.0145767"><ele>204.0</ele><time>2026-05-02T08:28:51.084Z</time></trkpt><trkpt lat="42.3352217" lon="14.0145767"><ele>205.0</ele><time>2026-05-02T08:28:52.085Z</time></trkpt><trkpt lat="42.33506" lon="14.0145583"><ele>206.0</ele><time>2026-05-02T08:28:53.084Z</time></trkpt><trkpt lat="42.3348933" lon="14.0145317"><ele>207.0</ele><time>2026-05-02T08:28:54.084Z</time></trkpt><trkpt lat="42.3347267" lon="14.0145067"><ele>205.25</ele><time>2026-05-02T08:28:55.084Z</time></trkpt><trkpt lat="42.3345733" lon="14.0144767"><ele>203.5</ele><time>2026-05-02T08:28:56.084Z</time></trkpt><trkpt lat="42.3344267" lon="14.01446"><ele>201.75</ele><time>2026-05-02T08:28:57.084Z</time></trkpt><trkpt lat="42.3342817" lon="14.01444"><ele>200.0</ele><time>2026-05-02T08:28:58.084Z</time></trkpt><trkpt lat="42.3341333" lon="14.0144233"><ele>200.0</ele><time>2026-05-02T08:28:59.085Z</time></trkpt><trkpt lat="42.3339633" lon="14.0144217"><ele>200.0</ele><time>2026-05-02T08:29:00.084Z</time></trkpt><trkpt lat="42.3337717" lon="14.0144017"><ele>200.0</ele><time>2026-05-02T08:29:01.085Z</time></trkpt><trkpt lat="42.3335617" lon="14.01437"><ele>198.66666666666669</ele><time>2026-05-02T08:29:02.084Z</time></trkpt><trkpt lat="42.333345" lon="14.01433"><ele>197.33333333333331</ele><time>2026-05-02T08:29:03.084Z</time></trkpt><trkpt lat="42.33314" lon="14.0142933"><ele>196.0</ele><time>2026-05-02T08:29:04.085Z</time></trkpt><trkpt lat="42.3329483" lon="14.0142667"><ele>195.0</ele><time>2026-05-02T08:29:05.084Z</time></trkpt><trkpt lat="42.332775" lon="14.0142367"><ele>194.0</ele><time>2026-05-02T08:29:06.084Z</time></trkpt><trkpt lat="42.3326233" lon="14.0142183"><ele>193.0</ele><time>2026-05-02T08:29:07.084Z</time></trkpt><trkpt lat="42.3324833" lon="14.014205"><ele>193.0</ele><time>2026-05-02T08:29:08.084Z</time></trkpt><trkpt lat="42.3323517" lon="14.0141967"><ele>193.0</ele><time>2026-05-02T08:29:09.084Z</time></trkpt><trkpt lat="42.3322333" lon="14.014195"><ele>193.0</ele><time>2026-05-02T08:29:10.084Z</time></trkpt><trkpt lat="42.3321133" lon="14.0142067"><ele>193.0</ele><time>2026-05-02T08:29:11.085Z</time></trkpt><trkpt lat="42.3320033" lon="14.01424"><ele>191.2</ele><time>2026-05-02T08:29:12.084Z</time></trkpt><trkpt lat="42.3319017" lon="14.0142867"><ele>189.4</ele><time>2026-05-02T08:29:13.084Z</time></trkpt><trkpt lat="42.331805" lon="14.014345"><ele>187.6</ele><time>2026-05-02T08:29:14.084Z</time></trkpt><trkpt lat="42.3317267" lon="14.0144017"><ele>185.79999999999998</ele><time>2026-05-02T08:29:15.085Z</time></trkpt><trkpt lat="42.3316533" lon="14.0144483"><ele>184.0</ele><time>2026-05-02T08:29:16.085Z</time></trkpt><trkpt lat="42.3315917" lon="14.01449"><ele>184.0</ele><time>2026-05-02T08:29:17.085Z</time></trkpt><trkpt lat="42.3315" lon="14.0145583"><ele>184.0</ele><time>2026-05-02T08:29:19.084Z</time></trkpt><trkpt lat="42.33158" lon="14.0145517"><ele>184.0</ele><time>2026-05-02T08:29:28.085Z</time></trkpt><trkpt lat="42.3316483" lon="14.01449"><ele>184.0</ele><time>2026-05-02T08:29:29.085Z</time></trkpt><trkpt lat="42.3317367" lon="14.0144167"><ele>184.0</ele><time>2026-05-02T08:29:30.085Z</time></trkpt><trkpt lat="42.3318417" lon="14.0143517"><ele>184.0</ele><time>2026-05-02T08:29:31.085Z</time></trkpt><trkpt lat="42.3319633" lon="14.0142933"><ele>184.0</ele><time>2026-05-02T08:29:32.085Z</time></trkpt><trkpt lat="42.33209" lon="14.014255"><ele>184.0</ele><time>2026-05-02T08:29:33.084Z</time></trkpt><trkpt lat="42.33223" lon="14.01423"><ele>184.0</ele><time>2026-05-02T08:29:34.085Z</time></trkpt><trkpt lat="42.3323783" lon="14.01423"><ele>187.0</ele><time>2026-05-02T08:29:35.085Z</time></trkpt><trkpt lat="42.3325267" lon="14.014245"><ele>190.0</ele><time>2026-05-02T08:29:36.084Z</time></trkpt><trkpt lat="42.33268" lon="14.0142667"><ele>193.0</ele><time>2026-05-02T08:29:37.085Z</time></trkpt><trkpt lat="42.332845" lon="14.0142917"><ele>193.0</ele><time>2026-05-02T08:29:38.085Z</time></trkpt><trkpt lat="42.333015" lon="14.0143133"><ele>193.0</ele><time>2026-05-02T08:29:39.084Z</time></trkpt><trkpt lat="42.33317" lon="14.0143267"><ele>193.0</ele><time>2026-05-02T08:29:40.084Z</time></trkpt><trkpt lat="42.3332983" lon="14.01434"><ele>193.49999999999997</ele><time>2026-05-02T08:29:41.085Z</time></trkpt><trkpt lat="42.3334" lon="14.0143567"><ele>194.0</ele><time>2026-05-02T08:29:42.084Z</time></trkpt><trkpt lat="42.33347" lon="14.0143717"><ele>194.5</ele><time>2026-05-02T08:29:43.084Z</time></trkpt><trkpt lat="42.3335517" lon="14.0143467"><ele>195.0</ele><time>2026-05-02T08:29:45.084Z</time></trkpt><trkpt lat="42.33351" lon="14.0142783"><ele>195.49999999999997</ele><time>2026-05-02T08:29:48.084Z</time></trkpt><trkpt lat="42.3334367" lon="14.01426"><ele>196.0</ele><time>2026-05-02T08:29:49.085Z</time></trkpt><trkpt lat="42.3333517" lon="14.0142467"><ele>195.99999999999997</ele><time>2026-05-02T08:29:50.084Z</time></trkpt><trkpt lat="42.333275" lon="14.0142383"><ele>196.0</ele><time>2026-05-02T08:29:51.085Z</time></trkpt><trkpt lat="42.3332033" lon="14.01423"><ele>196.0</ele><time>2026-05-02T08:29:52.084Z</time></trkpt><trkpt lat="42.33313" lon="14.01422"><ele>196.0</ele><time>2026-05-02T08:29:53.084Z</time></trkpt><trkpt lat="42.3330417" lon="14.0142083"><ele>195.99999999999997</ele><time>2026-05-02T08:29:54.083Z</time></trkpt><trkpt lat="42.3329567" lon="14.014195"><ele>196.0</ele><time>2026-05-02T08:29:55.083Z</time></trkpt><trkpt lat="42.332885" lon="14.0141767"><ele>195.49999999999997</ele><time>2026-05-02T08:29:56.083Z</time></trkpt><trkpt lat="42.33282" lon="14.0141583"><ele>195.0</ele><time>2026-05-02T08:29:57.083Z</time></trkpt><trkpt lat="42.33274" lon="14.0141483"><ele>194.5</ele><time>2026-05-02T08:29:58.084Z</time></trkpt><trkpt lat="42.3326583" lon="14.0141367"><ele>194.0</ele><time>2026-05-02T08:29:59.083Z</time></trkpt><trkpt lat="42.3325967" lon="14.0141167"><ele>193.49999999999997</ele><time>2026-05-02T08:30:00.084Z</time></trkpt><trkpt lat="42.3324933" lon="14.0140117"><ele>193.0</ele><time>2026-05-02T08:30:02.084Z</time></trkpt><trkpt lat="42.3324317" lon="14.0139167"><ele>191.75</ele><time>2026-05-02T08:30:03.084Z</time></trkpt><trkpt lat="42.33235" lon="14.0137917"><ele>190.5</ele><time>2026-05-02T08:30:04.083Z</time></trkpt><trkpt lat="42.3322733" lon="14.0136583"><ele>189.25</ele><time>2026-05-02T08:30:05.083Z</time></trkpt><trkpt lat="42.332195" lon="14.0135433"><ele>188.0</ele><time>2026-05-02T08:30:06.084Z</time></trkpt><trkpt lat="42.33212" lon="14.01344"><ele>186.5</ele><time>2026-05-02T08:30:07.083Z</time></trkpt><trkpt lat="42.3320333" lon="14.0133317"><ele>185.0</ele><time>2026-05-02T08:30:08.084Z</time></trkpt><trkpt lat="42.3319433" lon="14.0132067"><ele>183.5</ele><time>2026-05-02T08:30:09.084Z</time></trkpt><trkpt lat="42.33185" lon="14.013085"><ele>182.0</ele><time>2026-05-02T08:30:10.084Z</time></trkpt><trkpt lat="42.3317533" lon="14.012965"><ele>182.0</ele><time>2026-05-02T08:30:11.084Z</time></trkpt><trkpt lat="42.3316433" lon="14.01284"><ele>182.0</ele><time>2026-05-02T08:30:12.083Z</time></trkpt><trkpt lat="42.3315183" lon="14.012725"><ele>182.0</ele><time>2026-05-02T08:30:13.083Z</time></trkpt><trkpt lat="42.3313833" lon="14.012605"><ele>180.25</ele><time>2026-05-02T08:30:14.084Z</time></trkpt><trkpt lat="42.3312583" lon="14.0124983"><ele>178.5</ele><time>2026-05-02T08:30:15.083Z</time></trkpt><trkpt lat="42.3311417" lon="14.0124017"><ele>176.75</ele><time>2026-05-02T08:30:16.083Z</time></trkpt><trkpt lat="42.331035" lon="14.0123067"><ele>175.0</ele><time>2026-05-02T08:30:17.083Z</time></trkpt><trkpt lat="42.3309417" lon="14.0122083"><ele>175.0</ele><time>2026-05-02T08:30:18.084Z</time></trkpt><trkpt lat="42.3308467" lon="14.0121033"><ele>175.0</ele><time>2026-05-02T08:30:19.084Z</time></trkpt><trkpt lat="42.3307483" lon="14.0119917"><ele>175.0</ele><time>2026-05-02T08:30:20.083Z</time></trkpt><trkpt lat="42.3306533" lon="14.0118717"><ele>175.0</ele><time>2026-05-02T08:30:21.083Z</time></trkpt><trkpt lat="42.3305483" lon="14.0117583"><ele>172.8</ele><time>2026-05-02T08:30:22.083Z</time></trkpt><trkpt lat="42.3304467" lon="14.011655"><ele>170.6</ele><time>2026-05-02T08:30:23.084Z</time></trkpt><trkpt lat="42.330365" lon="14.0115567"><ele>168.39999999999998</ele><time>2026-05-02T08:30:24.083Z</time></trkpt><trkpt lat="42.3302967" lon="14.0114733"><ele>166.2</ele><time>2026-05-02T08:30:25.083Z</time></trkpt><trkpt lat="42.330225" lon="14.011385"><ele>164.0</ele><time>2026-05-02T08:30:26.083Z</time></trkpt><trkpt lat="42.3301367" lon="14.0112783"><ele>164.0</ele><time>2026-05-02T08:30:27.083Z</time></trkpt><trkpt lat="42.33006" lon="14.011175"><ele>164.0</ele><time>2026-05-02T08:30:28.084Z</time></trkpt><trkpt lat="42.3299917" lon="14.01108"><ele>164.0</ele><time>2026-05-02T08:30:29.083Z</time></trkpt><trkpt lat="42.3299367" lon="14.0109783"><ele>164.0</ele><time>2026-05-02T08:30:30.083Z</time></trkpt><trkpt lat="42.32988" lon="14.0108833"><ele>164.0</ele><time>2026-05-02T08:30:31.083Z</time></trkpt><trkpt lat="42.3298283" lon="14.0108033"><ele>163.2</ele><time>2026-05-02T08:30:32.084Z</time></trkpt><trkpt lat="42.3297817" lon="14.0107283"><ele>162.39999999999998</ele><time>2026-05-02T08:30:33.083Z</time></trkpt><trkpt lat="42.3297167" lon="14.0106617"><ele>161.6</ele><time>2026-05-02T08:30:34.084Z</time></trkpt><trkpt lat="42.3296333" lon="14.0105933"><ele>160.8</ele><time>2026-05-02T08:30:35.084Z</time></trkpt><trkpt lat="42.3295367" lon="14.0105283"><ele>160.0</ele><time>2026-05-02T08:30:36.084Z</time></trkpt><trkpt lat="42.329455" lon="14.0104683"><ele>159.0</ele><time>2026-05-02T08:30:37.084Z</time></trkpt><trkpt lat="42.3293767" lon="14.010415"><ele>158.0</ele><time>2026-05-02T08:30:38.083Z</time></trkpt><trkpt lat="42.3293033" lon="14.01036"><ele>157.0</ele><time>2026-05-02T08:30:39.084Z</time></trkpt><trkpt lat="42.3292267" lon="14.010305"><ele>156.0</ele><time>2026-05-02T08:30:40.084Z</time></trkpt><trkpt lat="42.3291517" lon="14.01025"><ele>155.0</ele><time>2026-05-02T08:30:41.083Z</time></trkpt><trkpt lat="42.329065" lon="14.010185"><ele>154.0</ele><time>2026-05-02T08:30:42.084Z</time></trkpt><trkpt lat="42.3289783" lon="14.0101183"><ele>152.8</ele><time>2026-05-02T08:30:43.084Z</time></trkpt><trkpt lat="42.3288783" lon="14.0100417"><ele>151.60000000000002</ele><time>2026-05-02T08:30:44.084Z</time></trkpt><trkpt lat="42.32878" lon="14.009965"><ele>150.4</ele><time>2026-05-02T08:30:45.084Z</time></trkpt><trkpt lat="42.3286867" lon="14.0099"><ele>149.20000000000002</ele><time>2026-05-02T08:30:46.084Z</time></trkpt><trkpt lat="42.3286083" lon="14.0098317"><ele>148.0</ele><time>2026-05-02T08:30:47.084Z</time></trkpt><trkpt lat="42.32853" lon="14.009765"><ele>148.0</ele><time>2026-05-02T08:30:48.084Z</time></trkpt><trkpt lat="42.328455" lon="14.0097033"><ele>148.0</ele><time>2026-05-02T08:30:49.083Z</time></trkpt><trkpt lat="42.32837" lon="14.0096567"><ele>148.0</ele><time>2026-05-02T08:30:50.083Z</time></trkpt><trkpt lat="42.3282717" lon="14.0096233"><ele>148.0</ele><time>2026-05-02T08:30:51.083Z</time></trkpt><trkpt lat="42.3281683" lon="14.00961"><ele>148.0</ele><time>2026-05-02T08:30:52.083Z</time></trkpt><trkpt lat="42.328075" lon="14.0096067"><ele>147.5</ele><time>2026-05-02T08:30:53.084Z</time></trkpt><trkpt lat="42.327995" lon="14.0096083"><ele>147.0</ele><time>2026-05-02T08:30:54.083Z</time></trkpt><trkpt lat="42.3279217" lon="14.009615"><ele>146.5</ele><time>2026-05-02T08:30:55.083Z</time></trkpt><trkpt lat="42.3278083" lon="14.0096267"><ele>146.0</ele><time>2026-05-02T08:30:57.083Z</time></trkpt><trkpt lat="42.3277283" lon="14.0096017"><ele>145.5</ele><time>2026-05-02T08:30:59.084Z</time></trkpt><trkpt lat="42.3276783" lon="14.0095"><ele>145.0</ele><time>2026-05-02T08:31:02.084Z</time></trkpt><trkpt lat="42.3276533" lon="14.0093317"><ele>145.0</ele><time>2026-05-02T08:31:04.084Z</time></trkpt><trkpt lat="42.327635" lon="14.0092183"><ele>145.0</ele><time>2026-05-02T08:31:05.084Z</time></trkpt><trkpt lat="42.32761" lon="14.0090917"><ele>145.0</ele><time>2026-05-02T08:31:06.083Z</time></trkpt><trkpt lat="42.3275767" lon="14.008995"><ele>145.0</ele><time>2026-05-02T08:31:07.083Z</time></trkpt><trkpt lat="42.327555" lon="14.008905"><ele>145.0</ele><time>2026-05-02T08:31:08.083Z</time></trkpt><trkpt lat="42.3275283" lon="14.0088083"><ele>145.0</ele><time>2026-05-02T08:31:09.084Z</time></trkpt><trkpt lat="42.327505" lon="14.008725"><ele>145.8</ele><time>2026-05-02T08:31:10.084Z</time></trkpt><trkpt lat="42.32748" lon="14.008645"><ele>146.6</ele><time>2026-05-02T08:31:11.083Z</time></trkpt><trkpt lat="42.3274567" lon="14.0084967"><ele>147.4</ele><time>2026-05-02T08:31:13.084Z</time></trkpt><trkpt lat="42.3274533" lon="14.0083683"><ele>148.2</ele><time>2026-05-02T08:31:15.084Z</time></trkpt><trkpt lat="42.3274717" lon="14.0082367"><ele>149.0</ele><time>2026-05-02T08:31:17.084Z</time></trkpt><trkpt lat="42.32752" lon="14.0081167"><ele>150.6</ele><time>2026-05-02T08:31:19.084Z</time></trkpt><trkpt lat="42.327595" lon="14.0079633"><ele>152.2</ele><time>2026-05-02T08:31:21.083Z</time></trkpt><trkpt lat="42.3276467" lon="14.00787"><ele>153.79999999999998</ele><time>2026-05-02T08:31:22.084Z</time></trkpt><trkpt lat="42.3277117" lon="14.00778"><ele>155.4</ele><time>2026-05-02T08:31:23.083Z</time></trkpt><trkpt lat="42.3277867" lon="14.0076933"><ele>157.0</ele><time>2026-05-02T08:31:24.084Z</time></trkpt><trkpt lat="42.32786" lon="14.0076233"><ele>157.0</ele><time>2026-05-02T08:31:25.084Z</time></trkpt><trkpt lat="42.3279217" lon="14.007555"><ele>157.0</ele><time>2026-05-02T08:31:26.084Z</time></trkpt><trkpt lat="42.3279767" lon="14.0074983"><ele>157.0</ele><time>2026-05-02T08:31:27.083Z</time></trkpt><trkpt lat="42.3280317" lon="14.0074267"><ele>157.0</ele><time>2026-05-02T08:31:28.084Z</time></trkpt><trkpt lat="42.3280933" lon="14.0073467"><ele>157.0</ele><time>2026-05-02T08:31:29.084Z</time></trkpt><trkpt lat="42.3281667" lon="14.0072683"><ele>157.0</ele><time>2026-05-02T08:31:30.083Z</time></trkpt><trkpt lat="42.3282517" lon="14.0071967"><ele>158.6</ele><time>2026-05-02T08:31:31.083Z</time></trkpt><trkpt lat="42.3283517" lon="14.00713"><ele>160.2</ele><time>2026-05-02T08:31:32.083Z</time></trkpt><trkpt lat="42.3284583" lon="14.0070717"><ele>161.8</ele><time>2026-05-02T08:31:33.084Z</time></trkpt><trkpt lat="42.3285533" lon="14.0070183"><ele>163.4</ele><time>2026-05-02T08:31:34.083Z</time></trkpt><trkpt lat="42.3286367" lon="14.0069683"><ele>165.0</ele><time>2026-05-02T08:31:35.084Z</time></trkpt><trkpt lat="42.3287067" lon="14.0069233"><ele>165.0</ele><time>2026-05-02T08:31:36.084Z</time></trkpt><trkpt lat="42.3288117" lon="14.006855"><ele>165.0</ele><time>2026-05-02T08:31:38.083Z</time></trkpt><trkpt lat="42.3289133" lon="14.0068083"><ele>165.0</ele><time>2026-05-02T08:31:40.084Z</time></trkpt><trkpt lat="42.328975" lon="14.00678"><ele>165.0</ele><time>2026-05-02T08:31:41.083Z</time></trkpt><trkpt lat="42.3290367" lon="14.0067433"><ele>165.0</ele><time>2026-05-02T08:31:42.083Z</time></trkpt><trkpt lat="42.3291017" lon="14.0067017"><ele>165.0</ele><time>2026-05-02T08:31:43.083Z</time></trkpt><trkpt lat="42.3291617" lon="14.00665"><ele>165.33333333333334</ele><time>2026-05-02T08:31:44.084Z</time></trkpt><trkpt lat="42.329215" lon="14.0065967"><ele>165.66666666666666</ele><time>2026-05-02T08:31:45.084Z</time></trkpt><trkpt lat="42.3292783" lon="14.0065133"><ele>166.0</ele><time>2026-05-02T08:31:47.084Z</time></trkpt><trkpt lat="42.32932" lon="14.006415"><ele>166.33333333333331</ele><time>2026-05-02T08:31:50.083Z</time></trkpt><trkpt lat="42.3293783" lon="14.006335"><ele>166.66666666666666</ele><time>2026-05-02T08:31:52.083Z</time></trkpt><trkpt lat="42.3294817" lon="14.0062767"><ele>167.0</ele><time>2026-05-02T08:31:54.084Z</time></trkpt><trkpt lat="42.32955" lon="14.006245"><ele>167.0</ele><time>2026-05-02T08:31:55.083Z</time></trkpt><trkpt lat="42.3296233" lon="14.0062"><ele>167.0</ele><time>2026-05-02T08:31:56.083Z</time></trkpt><trkpt lat="42.329695" lon="14.006165"><ele>167.0</ele><time>2026-05-02T08:31:57.083Z</time></trkpt><trkpt lat="42.3297633" lon="14.0061333"><ele>167.0</ele><time>2026-05-02T08:31:58.084Z</time></trkpt><trkpt lat="42.329845" lon="14.0060933"><ele>167.0</ele><time>2026-05-02T08:31:59.083Z</time></trkpt><trkpt lat="42.329915" lon="14.0060583"><ele>167.0</ele><time>2026-05-02T08:32:00.083Z</time></trkpt><trkpt lat="42.3299833" lon="14.006025"><ele>169.16666666666666</ele><time>2026-05-02T08:32:01.083Z</time></trkpt><trkpt lat="42.3300567" lon="14.0059783"><ele>171.33333333333331</ele><time>2026-05-02T08:32:02.084Z</time></trkpt><trkpt lat="42.330135" lon="14.0059383"><ele>173.5</ele><time>2026-05-02T08:32:03.083Z</time></trkpt><trkpt lat="42.3302133" lon="14.0058967"><ele>175.66666666666666</ele><time>2026-05-02T08:32:04.084Z</time></trkpt><trkpt lat="42.330285" lon="14.0058567"><ele>177.83333333333334</ele><time>2026-05-02T08:32:05.083Z</time></trkpt><trkpt lat="42.3303833" lon="14.0057867"><ele>180.0</ele><time>2026-05-02T08:32:07.084Z</time></trkpt><trkpt lat="42.3304367" lon="14.0057267"><ele>181.0</ele><time>2026-05-02T08:32:08.084Z</time></trkpt><trkpt lat="42.3304983" lon="14.0056617"><ele>182.0</ele><time>2026-05-02T08:32:09.084Z</time></trkpt><trkpt lat="42.3305633" lon="14.0055867"><ele>183.0</ele><time>2026-05-02T08:32:10.084Z</time></trkpt><trkpt lat="42.3306283" lon="14.0055033"><ele>184.0</ele><time>2026-05-02T08:32:11.083Z</time></trkpt><trkpt lat="42.3307" lon="14.0054167"><ele>185.0</ele><time>2026-05-02T08:32:12.083Z</time></trkpt><trkpt lat="42.3307683" lon="14.0053333"><ele>186.0</ele><time>2026-05-02T08:32:13.083Z</time></trkpt><trkpt lat="42.3308383" lon="14.0052567"><ele>188.83333333333334</ele><time>2026-05-02T08:32:14.084Z</time></trkpt><trkpt lat="42.3308867" lon="14.0051983"><ele>191.66666666666669</ele><time>2026-05-02T08:32:15.084Z</time></trkpt><trkpt lat="42.3309633" lon="14.0051167"><ele>194.5</ele><time>2026-05-02T08:32:17.084Z</time></trkpt><trkpt lat="42.3310217" lon="14.0050383"><ele>197.33333333333334</ele><time>2026-05-02T08:32:26.084Z</time></trkpt><trkpt lat="42.3310717" lon="14.004975"><ele>200.16666666666669</ele><time>2026-05-02T08:32:28.083Z</time></trkpt><trkpt lat="42.331105" lon="14.0049017"><ele>203.0</ele><time>2026-05-02T08:32:30.084Z</time></trkpt><trkpt lat="42.3311417" lon="14.0047467"><ele>204.16666666666669</ele><time>2026-05-02T08:37:44.083Z</time></trkpt><trkpt lat="42.331165" lon="14.0046667"><ele>205.33333333333334</ele><time>2026-05-02T08:37:45.082Z</time></trkpt><trkpt lat="42.3311833" lon="14.004575"><ele>206.5</ele><time>2026-05-02T08:37:46.082Z</time></trkpt><trkpt lat="42.3311983" lon="14.00448"><ele>207.66666666666669</ele><time>2026-05-02T08:37:47.083Z</time></trkpt><trkpt lat="42.3311917" lon="14.0043417"><ele>208.83333333333334</ele><time>2026-05-02T08:37:49.082Z</time></trkpt><trkpt lat="42.33117" lon="14.004215"><ele>210.0</ele><time>2026-05-02T08:37:51.083Z</time></trkpt><trkpt lat="42.3311417" lon="14.0041083"><ele>211.0</ele><time>2026-05-02T08:37:53.082Z</time></trkpt><trkpt lat="42.3311083" lon="14.0040133"><ele>212.0</ele><time>2026-05-02T08:37:55.083Z</time></trkpt><trkpt lat="42.33107" lon="14.003915"><ele>213.0</ele><time>2026-05-02T08:37:57.083Z</time></trkpt><trkpt lat="42.331005" lon="14.0039267"><ele>214.0</ele><time>2026-05-02T08:38:01.083Z</time></trkpt><trkpt lat="42.33097" lon="14.004015"><ele>215.0</ele><time>2026-05-02T08:38:04.083Z</time></trkpt><trkpt lat="42.3309033" lon="14.0040917"><ele>216.0</ele><time>2026-05-02T08:38:07.083Z</time></trkpt><trkpt lat="42.3308217" lon="14.0041217"><ele>216.0</ele><time>2026-05-02T08:38:10.083Z</time></trkpt><trkpt lat="42.3307583" lon="14.004125"><ele>216.0</ele><time>2026-05-02T08:38:12.082Z</time></trkpt><trkpt lat="42.33068" lon="14.0041133"><ele>216.0</ele><time>2026-05-02T08:38:14.082Z</time></trkpt><trkpt lat="42.3305767" lon="14.004095"><ele>216.0</ele><time>2026-05-02T08:38:16.083Z</time></trkpt><trkpt lat="42.3304817" lon="14.00409"><ele>216.0</ele><time>2026-05-02T08:38:18.082Z</time></trkpt><trkpt lat="42.3303933" lon="14.0041117"><ele>216.0</ele><time>2026-05-02T08:38:20.082Z</time></trkpt><trkpt lat="42.330305" lon="14.00415"><ele>210.8</ele><time>2026-05-02T08:38:22.083Z</time></trkpt><trkpt lat="42.33022" lon="14.0042"><ele>205.60000000000002</ele><time>2026-05-02T08:38:24.083Z</time></trkpt><trkpt lat="42.3301217" lon="14.0042683"><ele>200.4</ele><time>2026-05-02T08:38:26.082Z</time></trkpt><trkpt lat="42.330015" lon="14.0043383"><ele>195.2</ele><time>2026-05-02T08:38:28.083Z</time></trkpt><trkpt lat="42.32991" lon="14.0044017"><ele>190.0</ele><time>2026-05-02T08:38:30.083Z</time></trkpt><trkpt lat="42.32982" lon="14.00445"><ele>190.0</ele><time>2026-05-02T08:38:32.082Z</time></trkpt><trkpt lat="42.3297283" lon="14.0044967"><ele>190.0</ele><time>2026-05-02T08:38:34.082Z</time></trkpt><trkpt lat="42.3296333" lon="14.0045233"><ele>190.0</ele><time>2026-05-02T08:38:36.083Z</time></trkpt><trkpt lat="42.329535" lon="14.0045417"><ele>190.0</ele><time>2026-05-02T08:38:38.082Z</time></trkpt><trkpt lat="42.329445" lon="14.0045517"><ele>190.0</ele><time>2026-05-02T08:38:40.082Z</time></trkpt><trkpt lat="42.3293483" lon="14.004525"><ele>186.2</ele><time>2026-05-02T08:38:42.083Z</time></trkpt><trkpt lat="42.3292617" lon="14.0044867"><ele>182.4</ele><time>2026-05-02T08:38:44.082Z</time></trkpt><trkpt lat="42.32918" lon="14.0044417"><ele>178.60000000000002</ele><time>2026-05-02T08:38:46.083Z</time></trkpt><trkpt lat="42.32908" lon="14.0043733"><ele>174.8</ele><time>2026-05-02T08:38:48.083Z</time></trkpt><trkpt lat="42.3289917" lon="14.0043083"><ele>171.0</ele><time>2026-05-02T08:38:50.082Z</time></trkpt><trkpt lat="42.3288883" lon="14.004245"><ele>169.20000000000002</ele><time>2026-05-02T08:38:52.083Z</time></trkpt><trkpt lat="42.32878" lon="14.0041767"><ele>167.4</ele><time>2026-05-02T08:38:54.082Z</time></trkpt><trkpt lat="42.3286883" lon="14.00412"><ele>165.6</ele><time>2026-05-02T08:38:56.083Z</time></trkpt><trkpt lat="42.3286183" lon="14.0040617"><ele>163.8</ele><time>2026-05-02T08:38:58.082Z</time></trkpt><trkpt lat="42.3285617" lon="14.004"><ele>162.0</ele><time>2026-05-02T08:39:00.083Z</time></trkpt><trkpt lat="42.3285267" lon="14.0038967"><ele>162.0</ele><time>2026-05-02T08:39:03.082Z</time></trkpt><trkpt lat="42.328495" lon="14.0038117"><ele>162.0</ele><time>2026-05-02T08:39:05.082Z</time></trkpt><trkpt lat="42.3284533" lon="14.003695"><ele>162.0</ele><time>2026-05-02T08:39:07.083Z</time></trkpt><trkpt lat="42.3283883" lon="14.0035567"><ele>162.0</ele><time>2026-05-02T08:39:09.082Z</time></trkpt><trkpt lat="42.3283483" lon="14.00349"><ele>162.0</ele><time>2026-05-02T08:39:10.083Z</time></trkpt><trkpt lat="42.3283017" lon="14.00341"><ele>162.0</ele><time>2026-05-02T08:39:11.082Z</time></trkpt><trkpt lat="42.328235" lon="14.0033133"><ele>163.0</ele><time>2026-05-02T08:39:12.082Z</time></trkpt><trkpt lat="42.3281683" lon="14.003215"><ele>164.0</ele><time>2026-05-02T08:39:13.082Z</time></trkpt><trkpt lat="42.328115" lon="14.0031317"><ele>165.0</ele><time>2026-05-02T08:39:14.083Z</time></trkpt><trkpt lat="42.3280633" lon="14.0030617"><ele>166.0</ele><time>2026-05-02T08:39:15.082Z</time></trkpt><trkpt lat="42.3279967" lon="14.002955"><ele>167.0</ele><time>2026-05-02T08:39:17.083Z</time></trkpt><trkpt lat="42.327915" lon="14.0028367"><ele>166.16666666666666</ele><time>2026-05-02T08:39:19.083Z</time></trkpt><trkpt lat="42.3278633" lon="14.00276"><ele>165.33333333333331</ele><time>2026-05-02T08:39:20.083Z</time></trkpt><trkpt lat="42.32781" lon="14.0026683"><ele>164.5</ele><time>2026-05-02T08:39:21.082Z</time></trkpt><trkpt lat="42.3277567" lon="14.0025683"><ele>163.66666666666666</ele><time>2026-05-02T08:39:22.082Z</time></trkpt><trkpt lat="42.3277017" lon="14.0024833"><ele>162.83333333333334</ele><time>2026-05-02T08:39:23.082Z</time></trkpt><trkpt lat="42.3276583" lon="14.0024067"><ele>162.0</ele><time>2026-05-02T08:39:24.081Z</time></trkpt><trkpt lat="42.32761" lon="14.0023383"><ele>162.0</ele><time>2026-05-02T08:39:25.081Z</time></trkpt><trkpt lat="42.3275233" lon="14.0022167"><ele>162.0</ele><time>2026-05-02T08:39:27.082Z</time></trkpt><trkpt lat="42.3274517" lon="14.0020933"><ele>162.0</ele><time>2026-05-02T08:39:29.082Z</time></trkpt><trkpt lat="42.3274083" lon="14.0020033"><ele>162.0</ele><time>2026-05-02T08:39:31.082Z</time></trkpt><trkpt lat="42.3273667" lon="14.0018833"><ele>162.0</ele><time>2026-05-02T08:39:33.081Z</time></trkpt><trkpt lat="42.3273367" lon="14.0017383"><ele>162.5</ele><time>2026-05-02T08:39:35.081Z</time></trkpt><trkpt lat="42.3273267" lon="14.0016183"><ele>163.0</ele><time>2026-05-02T08:39:37.081Z</time></trkpt><trkpt lat="42.32732" lon="14.0015217"><ele>163.5</ele><time>2026-05-02T08:39:38.081Z</time></trkpt><trkpt lat="42.3273167" lon="14.0014183"><ele>164.0</ele><time>2026-05-02T08:39:39.081Z</time></trkpt><trkpt lat="42.32731" lon="14.0013033"><ele>164.5</ele><time>2026-05-02T08:39:40.082Z</time></trkpt><trkpt lat="42.327305" lon="14.0011883"><ele>165.0</ele><time>2026-05-02T08:39:41.081Z</time></trkpt><trkpt lat="42.327305" lon="14.001095"><ele>165.0</ele><time>2026-05-02T08:39:42.081Z</time></trkpt><trkpt lat="42.3273067" lon="14.0009817"><ele>165.0</ele><time>2026-05-02T08:39:44.081Z</time></trkpt><trkpt lat="42.3273017" lon="14.0008867"><ele>165.0</ele><time>2026-05-02T08:39:46.081Z</time></trkpt><trkpt lat="42.3272583" lon="14.00081"><ele>165.0</ele><time>2026-05-02T08:39:49.082Z</time></trkpt><trkpt lat="42.327175" lon="14.00077"><ele>165.0</ele><time>2026-05-02T08:39:51.082Z</time></trkpt><trkpt lat="42.3271033" lon="14.0007483"><ele>165.0</ele><time>2026-05-02T08:39:52.081Z</time></trkpt><trkpt lat="42.327025" lon="14.000725"><ele>163.83333333333334</ele><time>2026-05-02T08:39:53.081Z</time></trkpt><trkpt lat="42.32696" lon="14.00071"><ele>162.66666666666666</ele><time>2026-05-02T08:39:54.081Z</time></trkpt><trkpt lat="42.3268967" lon="14.0006983"><ele>161.5</ele><time>2026-05-02T08:39:55.082Z</time></trkpt><trkpt lat="42.3268183" lon="14.000675"><ele>160.33333333333331</ele><time>2026-05-02T08:39:56.082Z</time></trkpt><trkpt lat="42.3267333" lon="14.0006433"><ele>159.16666666666666</ele><time>2026-05-02T08:39:57.081Z</time></trkpt><trkpt lat="42.32664" lon="14.0006033"><ele>158.0</ele><time>2026-05-02T08:39:58.082Z</time></trkpt><trkpt lat="42.32655" lon="14.000545"><ele>158.0</ele><time>2026-05-02T08:39:59.082Z</time></trkpt><trkpt lat="42.3264567" lon="14.0004617"><ele>158.0</ele><time>2026-05-02T08:40:00.081Z</time></trkpt><trkpt lat="42.326345" lon="14.0003617"><ele>158.0</ele><time>2026-05-02T08:40:01.081Z</time></trkpt><trkpt lat="42.3262233" lon="14.0002617"><ele>158.0</ele><time>2026-05-02T08:40:02.082Z</time></trkpt><trkpt lat="42.3261133" lon="14.00018"><ele>156.20000000000002</ele><time>2026-05-02T08:40:03.082Z</time></trkpt><trkpt lat="42.32601" lon="14.0001083"><ele>154.4</ele><time>2026-05-02T08:40:04.081Z</time></trkpt><trkpt lat="42.325915" lon="14.0000317"><ele>152.60000000000002</ele><time>2026-05-02T08:40:05.081Z</time></trkpt><trkpt lat="42.3258367" lon="13.999955"><ele>150.8</ele><time>2026-05-02T08:40:06.081Z</time></trkpt><trkpt lat="42.3257683" lon="13.9998783"><ele>149.0</ele><time>2026-05-02T08:40:07.082Z</time></trkpt><trkpt lat="42.32571" lon="13.9998"><ele>149.0</ele><time>2026-05-02T08:40:08.081Z</time></trkpt><trkpt lat="42.3256467" lon="13.9996967"><ele>149.0</ele><time>2026-05-02T08:40:09.082Z</time></trkpt><trkpt lat="42.3255733" lon="13.9995883"><ele>149.0</ele><time>2026-05-02T08:40:10.081Z</time></trkpt><trkpt lat="42.32549" lon="13.9994883"><ele>149.0</ele><time>2026-05-02T08:40:11.082Z</time></trkpt><trkpt lat="42.325385" lon="13.9994017"><ele>149.0</ele><time>2026-05-02T08:40:12.082Z</time></trkpt><trkpt lat="42.3252883" lon="13.9993267"><ele>148.0</ele><time>2026-05-02T08:40:13.081Z</time></trkpt><trkpt lat="42.325195" lon="13.9992667"><ele>147.0</ele><time>2026-05-02T08:40:14.082Z</time></trkpt><trkpt lat="42.3251217" lon="13.9992217"><ele>146.0</ele><time>2026-05-02T08:40:15.082Z</time></trkpt><trkpt lat="42.3250533" lon="13.999195"><ele>145.0</ele><time>2026-05-02T08:40:16.082Z</time></trkpt><trkpt lat="42.3249567" lon="13.999205"><ele>144.0</ele><time>2026-05-02T08:40:18.082Z</time></trkpt><trkpt lat="42.324855" lon="13.999305"><ele>144.0</ele><time>2026-05-02T08:40:20.081Z</time></trkpt><trkpt lat="42.324795" lon="13.999375"><ele>144.0</ele><time>2026-05-02T08:40:21.081Z</time></trkpt><trkpt lat="42.3247233" lon="13.9994533"><ele>144.0</ele><time>2026-05-02T08:40:22.082Z</time></trkpt><trkpt lat="42.32464" lon="13.9995483"><ele>144.0</ele><time>2026-05-02T08:40:23.082Z</time></trkpt><trkpt lat="42.324545" lon="13.999635"><ele>144.0</ele><time>2026-05-02T08:40:24.082Z</time></trkpt><trkpt lat="42.32445" lon="13.9997083"><ele>144.33333333333334</ele><time>2026-05-02T08:40:25.081Z</time></trkpt><trkpt lat="42.3243183" lon="13.999775"><ele>144.66666666666669</ele><time>2026-05-02T08:40:26.081Z</time></trkpt><trkpt lat="42.3241567" lon="13.9998567"><ele>145.0</ele><time>2026-05-02T08:40:27.081Z</time></trkpt><trkpt lat="42.3239917" lon="13.99994"><ele>145.0</ele><time>2026-05-02T08:40:28.082Z</time></trkpt><trkpt lat="42.3238333" lon="14.0000317"><ele>145.0</ele><time>2026-05-02T08:40:29.082Z</time></trkpt><trkpt lat="42.3236867" lon="14.0001233"><ele>145.0</ele><time>2026-05-02T08:40:30.081Z</time></trkpt><trkpt lat="42.323565" lon="14.000205"><ele>145.0</ele><time>2026-05-02T08:40:31.081Z</time></trkpt><trkpt lat="42.3234583" lon="14.00028"><ele>145.0</ele><time>2026-05-02T08:40:32.081Z</time></trkpt><trkpt lat="42.323375" lon="14.0003483"><ele>145.0</ele><time>2026-05-02T08:40:33.081Z</time></trkpt><trkpt lat="42.323295" lon="14.0004033"><ele>145.0</ele><time>2026-05-02T08:40:34.082Z</time></trkpt><trkpt lat="42.3232233" lon="14.0004583"><ele>145.0</ele><time>2026-05-02T08:40:35.082Z</time></trkpt><trkpt lat="42.3231583" lon="14.0005117"><ele>145.0</ele><time>2026-05-02T08:40:36.081Z</time></trkpt><trkpt lat="42.3230733" lon="14.0005683"><ele>145.0</ele><time>2026-05-02T08:40:38.081Z</time></trkpt><trkpt lat="42.3229933" lon="14.00048"><ele>145.0</ele><time>2026-05-02T08:40:41.081Z</time></trkpt><trkpt lat="42.3229633" lon="14.00038"><ele>145.0</ele><time>2026-05-02T08:40:42.082Z</time></trkpt><trkpt lat="42.3229267" lon="14.0002483"><ele>145.0</ele><time>2026-05-02T08:40:43.082Z</time></trkpt><trkpt lat="42.322875" lon="14.0000867"><ele>141.66666666666669</ele><time>2026-05-02T08:40:44.081Z</time></trkpt><trkpt lat="42.3228133" lon="13.9999"><ele>138.33333333333334</ele><time>2026-05-02T08:40:45.082Z</time></trkpt><trkpt lat="42.322745" lon="13.9997"><ele>135.0</ele><time>2026-05-02T08:40:46.081Z</time></trkpt><trkpt lat="42.3226767" lon="13.9994833"><ele>135.0</ele><time>2026-05-02T08:40:47.082Z</time></trkpt><trkpt lat="42.322605" lon="13.9992483"><ele>135.0</ele><time>2026-05-02T08:40:48.081Z</time></trkpt><trkpt lat="42.32252" lon="13.9990067"><ele>135.0</ele><time>2026-05-02T08:40:49.081Z</time></trkpt><trkpt lat="42.3224383" lon="13.99876"><ele>136.33333333333334</ele><time>2026-05-02T08:40:50.082Z</time></trkpt><trkpt lat="42.322355" lon="13.9985117"><ele>137.66666666666669</ele><time>2026-05-02T08:40:51.081Z</time></trkpt><trkpt lat="42.32227" lon="13.9982567"><ele>139.0</ele><time>2026-05-02T08:40:52.081Z</time></trkpt><trkpt lat="42.3221817" lon="13.9979883"><ele>137.33333333333334</ele><time>2026-05-02T08:40:53.081Z</time></trkpt><trkpt lat="42.32211" lon="13.997725"><ele>135.66666666666666</ele><time>2026-05-02T08:40:54.081Z</time></trkpt><trkpt lat="42.32203" lon="13.9974467"><ele>134.0</ele><time>2026-05-02T08:40:55.082Z</time></trkpt><trkpt lat="42.3219433" lon="13.9971667"><ele>134.0</ele><time>2026-05-02T08:40:56.081Z</time></trkpt><trkpt lat="42.321855" lon="13.9968983"><ele>134.0</ele><time>2026-05-02T08:40:57.082Z</time></trkpt><trkpt lat="42.32178" lon="13.996645"><ele>134.0</ele><time>2026-05-02T08:40:58.081Z</time></trkpt><trkpt lat="42.3217067" lon="13.9964167"><ele>134.0</ele><time>2026-05-02T08:40:59.081Z</time></trkpt><trkpt lat="42.32163" lon="13.9961933"><ele>134.0</ele><time>2026-05-02T08:41:00.082Z</time></trkpt><trkpt lat="42.3215583" lon="13.99596"><ele>134.0</ele><time>2026-05-02T08:41:01.081Z</time></trkpt><trkpt lat="42.3214767" lon="13.9957183"><ele>133.66666666666666</ele><time>2026-05-02T08:41:02.082Z</time></trkpt><trkpt lat="42.3213933" lon="13.9954667"><ele>133.33333333333334</ele><time>2026-05-02T08:41:03.081Z</time></trkpt><trkpt lat="42.3213017" lon="13.9952133"><ele>133.0</ele><time>2026-05-02T08:41:04.081Z</time></trkpt><trkpt lat="42.3212167" lon="13.9949717"><ele>133.0</ele><time>2026-05-02T08:41:05.082Z</time></trkpt><trkpt lat="42.3211367" lon="13.99475"><ele>133.0</ele><time>2026-05-02T08:41:06.081Z</time></trkpt><trkpt lat="42.3210717" lon="13.9945517"><ele>133.0</ele><time>2026-05-02T08:41:07.081Z</time></trkpt><trkpt lat="42.3209983" lon="13.994365"><ele>133.0</ele><time>2026-05-02T08:41:08.081Z</time></trkpt><trkpt lat="42.3209267" lon="13.9942033"><ele>133.0</ele><time>2026-05-02T08:41:09.081Z</time></trkpt><trkpt lat="42.3208633" lon="13.9940567"><ele>133.0</ele><time>2026-05-02T08:41:10.082Z</time></trkpt><trkpt lat="42.32081" lon="13.9939267"><ele>133.0</ele><time>2026-05-02T08:41:11.081Z</time></trkpt><trkpt lat="42.3207517" lon="13.99382"><ele>133.16666666666669</ele><time>2026-05-02T08:41:12.082Z</time></trkpt><trkpt lat="42.3207017" lon="13.9937367"><ele>133.33333333333334</ele><time>2026-05-02T08:41:13.081Z</time></trkpt><trkpt lat="42.32065" lon="13.9936783"><ele>133.5</ele><time>2026-05-02T08:41:14.081Z</time></trkpt><trkpt lat="42.320535" lon="13.993665"><ele>133.66666666666666</ele><time>2026-05-02T08:41:16.081Z</time></trkpt><trkpt lat="42.3204717" lon="13.9936933"><ele>133.83333333333331</ele><time>2026-05-02T08:41:17.081Z</time></trkpt><trkpt lat="42.3203967" lon="13.99375"><ele>134.0</ele><time>2026-05-02T08:41:18.082Z</time></trkpt><trkpt lat="42.320305" lon="13.993825"><ele>135.0</ele><time>2026-05-02T08:41:19.082Z</time></trkpt><trkpt lat="42.32021" lon="13.9939167"><ele>136.0</ele><time>2026-05-02T08:41:20.081Z</time></trkpt><trkpt lat="42.32012" lon="13.99404"><ele>137.0</ele><time>2026-05-02T08:41:21.082Z</time></trkpt><trkpt lat="42.32003" lon="13.9941983"><ele>138.0</ele><time>2026-05-02T08:41:22.081Z</time></trkpt><trkpt lat="42.3199333" lon="13.9943683"><ele>138.0</ele><time>2026-05-02T08:41:23.082Z</time></trkpt><trkpt lat="42.3198383" lon="13.9945283"><ele>138.0</ele><time>2026-05-02T08:41:24.082Z</time></trkpt><trkpt lat="42.3197333" lon="13.99469"><ele>138.0</ele><time>2026-05-02T08:41:25.082Z</time></trkpt><trkpt lat="42.3196233" lon="13.9948533"><ele>139.0</ele><time>2026-05-02T08:41:26.082Z</time></trkpt><trkpt lat="42.31952" lon="13.9950333"><ele>140.0</ele><time>2026-05-02T08:41:27.081Z</time></trkpt><trkpt lat="42.319425" lon="13.9952267"><ele>141.0</ele><time>2026-05-02T08:41:28.081Z</time></trkpt><trkpt lat="42.3193383" lon="13.9954217"><ele>141.0</ele><time>2026-05-02T08:41:29.081Z</time></trkpt><trkpt lat="42.31925" lon="13.9956133"><ele>141.0</ele><time>2026-05-02T08:41:30.081Z</time></trkpt><trkpt lat="42.3191633" lon="13.995795"><ele>141.0</ele><time>2026-05-02T08:41:31.081Z</time></trkpt><trkpt lat="42.3190767" lon="13.995985"><ele>140.66666666666666</ele><time>2026-05-02T08:41:32.081Z</time></trkpt><trkpt lat="42.318995" lon="13.9961633"><ele>140.33333333333331</ele><time>2026-05-02T08:41:33.082Z</time></trkpt><trkpt lat="42.318905" lon="13.9963583"><ele>140.0</ele><time>2026-05-02T08:41:34.081Z</time></trkpt><trkpt lat="42.3188167" lon="13.99655"><ele>142.66666666666666</ele><time>2026-05-02T08:41:35.082Z</time></trkpt><trkpt lat="42.3187283" lon="13.9967283"><ele>145.33333333333334</ele><time>2026-05-02T08:41:36.081Z</time></trkpt><trkpt lat="42.3186617" lon="13.9969083"><ele>148.0</ele><time>2026-05-02T08:41:37.082Z</time></trkpt><trkpt lat="42.318625" lon="13.997105"><ele>148.0</ele><time>2026-05-02T08:41:38.082Z</time></trkpt><trkpt lat="42.3186033" lon="13.9973133"><ele>148.0</ele><time>2026-05-02T08:41:39.081Z</time></trkpt><trkpt lat="42.318575" lon="13.9975433"><ele>148.0</ele><time>2026-05-02T08:41:40.081Z</time></trkpt><trkpt lat="42.3185483" lon="13.9977667"><ele>147.66666666666669</ele><time>2026-05-02T08:41:41.081Z</time></trkpt><trkpt lat="42.3185383" lon="13.9979733"><ele>147.33333333333334</ele><time>2026-05-02T08:41:42.081Z</time></trkpt><trkpt lat="42.3185233" lon="13.9981883"><ele>147.0</ele><time>2026-05-02T08:41:43.082Z</time></trkpt><trkpt lat="42.3184983" lon="13.998415"><ele>146.33333333333334</ele><time>2026-05-02T08:41:44.082Z</time></trkpt><trkpt lat="42.3184667" lon="13.99866"><ele>145.66666666666669</ele><time>2026-05-02T08:41:45.082Z</time></trkpt><trkpt lat="42.3184483" lon="13.99891"><ele>145.0</ele><time>2026-05-02T08:41:46.082Z</time></trkpt><trkpt lat="42.3184383" lon="13.9991833"><ele>143.0</ele><time>2026-05-02T08:41:47.082Z</time></trkpt><trkpt lat="42.318425" lon="13.9994517"><ele>141.0</ele><time>2026-05-02T08:41:48.082Z</time></trkpt><trkpt lat="42.3184133" lon="13.9997167"><ele>139.0</ele><time>2026-05-02T08:41:49.082Z</time></trkpt><trkpt lat="42.3183983" lon="13.999975"><ele>139.0</ele><time>2026-05-02T08:41:50.082Z</time></trkpt><trkpt lat="42.318385" lon="14.0002317"><ele>139.0</ele><time>2026-05-02T08:41:51.082Z</time></trkpt><trkpt lat="42.3183717" lon="14.0004633"><ele>139.0</ele><time>2026-05-02T08:41:52.082Z</time></trkpt><trkpt lat="42.3183617" lon="14.0006817"><ele>138.0</ele><time>2026-05-02T08:41:53.082Z</time></trkpt><trkpt lat="42.3183433" lon="14.0008617"><ele>137.0</ele><time>2026-05-02T08:41:54.081Z</time></trkpt><trkpt lat="42.3183317" lon="14.001035"><ele>136.0</ele><time>2026-05-02T08:41:55.082Z</time></trkpt><trkpt lat="42.3183117" lon="14.00121"><ele>135.0</ele><time>2026-05-02T08:41:56.081Z</time></trkpt><trkpt lat="42.3182783" lon="14.00136"><ele>135.0</ele><time>2026-05-02T08:41:57.082Z</time></trkpt><trkpt lat="42.3182433" lon="14.0015067"><ele>135.0</ele><time>2026-05-02T08:41:58.082Z</time></trkpt><trkpt lat="42.3182133" lon="14.0016383"><ele>135.0</ele><time>2026-05-02T08:41:59.081Z</time></trkpt><trkpt lat="42.3182" lon="14.0017567"><ele>135.0</ele><time>2026-05-02T08:42:00.082Z</time></trkpt><trkpt lat="42.31821" lon="14.00186"><ele>135.0</ele><time>2026-05-02T08:42:01.081Z</time></trkpt><trkpt lat="42.3182417" lon="14.0019767"><ele>134.0</ele><time>2026-05-02T08:42:02.081Z</time></trkpt><trkpt lat="42.31828" lon="14.0021317"><ele>133.0</ele><time>2026-05-02T08:42:03.081Z</time></trkpt><trkpt lat="42.3183233" lon="14.002315"><ele>132.0</ele><time>2026-05-02T08:42:04.081Z</time></trkpt><trkpt lat="42.3183567" lon="14.0025233"><ele>131.0</ele><time>2026-05-02T08:42:05.081Z</time></trkpt><trkpt lat="42.3183883" lon="14.00274"><ele>129.25</ele><time>2026-05-02T08:42:06.081Z</time></trkpt><trkpt lat="42.318405" lon="14.0029483"><ele>127.5</ele><time>2026-05-02T08:42:07.081Z</time></trkpt><trkpt lat="42.3184183" lon="14.00315"><ele>125.75</ele><time>2026-05-02T08:42:08.081Z</time></trkpt><trkpt lat="42.3184267" lon="14.003345"><ele>124.0</ele><time>2026-05-02T08:42:09.082Z</time></trkpt><trkpt lat="42.318425" lon="14.003515"><ele>123.0</ele><time>2026-05-02T08:42:10.081Z</time></trkpt><trkpt lat="42.3184117" lon="14.0036683"><ele>122.0</ele><time>2026-05-02T08:42:11.082Z</time></trkpt><trkpt lat="42.3183683" lon="14.0038267"><ele>121.0</ele><time>2026-05-02T08:42:12.081Z</time></trkpt><trkpt lat="42.31832" lon="14.0039867"><ele>120.0</ele><time>2026-05-02T08:42:13.081Z</time></trkpt><trkpt lat="42.318255" lon="14.0041617"><ele>119.0</ele><time>2026-05-02T08:42:14.081Z</time></trkpt><trkpt lat="42.31819" lon="14.00434"><ele>118.0</ele><time>2026-05-02T08:42:15.081Z</time></trkpt><trkpt lat="42.318115" lon="14.0045383"><ele>117.0</ele><time>2026-05-02T08:42:16.081Z</time></trkpt><trkpt lat="42.318045" lon="14.0047383"><ele>117.0</ele><time>2026-05-02T08:42:17.082Z</time></trkpt><trkpt lat="42.317975" lon="14.004935"><ele>117.0</ele><time>2026-05-02T08:42:18.082Z</time></trkpt><trkpt lat="42.3179" lon="14.0051517"><ele>117.0</ele><time>2026-05-02T08:42:19.082Z</time></trkpt><trkpt lat="42.317825" lon="14.005355"><ele>117.0</ele><time>2026-05-02T08:42:20.082Z</time></trkpt><trkpt lat="42.31775" lon="14.0055467"><ele>117.0</ele><time>2026-05-02T08:42:21.082Z</time></trkpt><trkpt lat="42.3176783" lon="14.0057517"><ele>117.0</ele><time>2026-05-02T08:42:22.082Z</time></trkpt><trkpt lat="42.3176183" lon="14.00592"><ele>117.75</ele><time>2026-05-02T08:42:23.081Z</time></trkpt><trkpt lat="42.3175483" lon="14.0060883"><ele>118.5</ele><time>2026-05-02T08:42:24.081Z</time></trkpt><trkpt lat="42.3174867" lon="14.006275"><ele>119.25</ele><time>2026-05-02T08:42:25.082Z</time></trkpt><trkpt lat="42.3174283" lon="14.0064617"><ele>120.0</ele><time>2026-05-02T08:42:26.082Z</time></trkpt><trkpt lat="42.31737" lon="14.006655"><ele>120.0</ele><time>2026-05-02T08:42:27.081Z</time></trkpt><trkpt lat="42.3173083" lon="14.0068583"><ele>120.0</ele><time>2026-05-02T08:42:28.081Z</time></trkpt><trkpt lat="42.3172483" lon="14.007035"><ele>120.0</ele><time>2026-05-02T08:42:29.082Z</time></trkpt><trkpt lat="42.3172033" lon="14.0071817"><ele>120.0</ele><time>2026-05-02T08:42:30.082Z</time></trkpt><trkpt lat="42.31716" lon="14.007315"><ele>120.0</ele><time>2026-05-02T08:42:31.081Z</time></trkpt><trkpt lat="42.3171267" lon="14.0074383"><ele>120.0</ele><time>2026-05-02T08:42:32.081Z</time></trkpt><trkpt lat="42.3170883" lon="14.00759"><ele>120.0</ele><time>2026-05-02T08:42:33.082Z</time></trkpt><trkpt lat="42.3170483" lon="14.0077333"><ele>120.0</ele><time>2026-05-02T08:42:34.081Z</time></trkpt><trkpt lat="42.3169933" lon="14.0078633"><ele>120.0</ele><time>2026-05-02T08:42:35.081Z</time></trkpt><trkpt lat="42.316915" lon="14.00798"><ele>120.0</ele><time>2026-05-02T08:42:36.081Z</time></trkpt><trkpt lat="42.3168033" lon="14.0081"><ele>120.0</ele><time>2026-05-02T08:42:37.082Z</time></trkpt><trkpt lat="42.3166817" lon="14.008225"><ele>120.0</ele><time>2026-05-02T08:42:38.081Z</time></trkpt><trkpt lat="42.3165683" lon="14.008345"><ele>120.0</ele><time>2026-05-02T08:42:39.082Z</time></trkpt><trkpt lat="42.3164667" lon="14.0084567"><ele>118.2</ele><time>2026-05-02T08:42:40.081Z</time></trkpt><trkpt lat="42.31638" lon="14.0085517"><ele>116.4</ele><time>2026-05-02T08:42:41.082Z</time></trkpt><trkpt lat="42.31631" lon="14.0086417"><ele>114.6</ele><time>2026-05-02T08:42:42.081Z</time></trkpt><trkpt lat="42.3162433" lon="14.00873"><ele>112.8</ele><time>2026-05-02T08:42:43.082Z</time></trkpt><trkpt lat="42.31618" lon="14.0088083"><ele>111.0</ele><time>2026-05-02T08:42:44.081Z</time></trkpt><trkpt lat="42.316085" lon="14.0088833"><ele>111.0</ele><time>2026-05-02T08:42:45.082Z</time></trkpt><trkpt lat="42.3159567" lon="14.0089617"><ele>111.0</ele><time>2026-05-02T08:42:46.081Z</time></trkpt><trkpt lat="42.3158033" lon="14.0090617"><ele>111.0</ele><time>2026-05-02T08:42:47.081Z</time></trkpt><trkpt lat="42.31565" lon="14.0091783"><ele>109.66666666666666</ele><time>2026-05-02T08:42:48.081Z</time></trkpt><trkpt lat="42.3154817" lon="14.009305"><ele>108.33333333333333</ele><time>2026-05-02T08:42:49.082Z</time></trkpt><trkpt lat="42.3153133" lon="14.0094367"><ele>107.0</ele><time>2026-05-02T08:42:50.081Z</time></trkpt><trkpt lat="42.31514" lon="14.0095783"><ele>107.0</ele><time>2026-05-02T08:42:51.081Z</time></trkpt><trkpt lat="42.3149633" lon="14.0097233"><ele>107.0</ele><time>2026-05-02T08:42:52.081Z</time></trkpt><trkpt lat="42.314775" lon="14.00988"><ele>107.0</ele><time>2026-05-02T08:42:53.081Z</time></trkpt><trkpt lat="42.3145783" lon="14.010035"><ele>106.0</ele><time>2026-05-02T08:42:54.082Z</time></trkpt><trkpt lat="42.3143883" lon="14.01019"><ele>105.0</ele><time>2026-05-02T08:42:55.081Z</time></trkpt><trkpt lat="42.314195" lon="14.01035"><ele>104.0</ele><time>2026-05-02T08:42:56.082Z</time></trkpt><trkpt lat="42.3140083" lon="14.0105117"><ele>104.0</ele><time>2026-05-02T08:42:57.081Z</time></trkpt><trkpt lat="42.31383" lon="14.0106517"><ele>104.0</ele><time>2026-05-02T08:42:58.081Z</time></trkpt><trkpt lat="42.31366" lon="14.0107833"><ele>104.0</ele><time>2026-05-02T08:42:59.082Z</time></trkpt><trkpt lat="42.3134983" lon="14.0108967"><ele>103.33333333333333</ele><time>2026-05-02T08:43:00.082Z</time></trkpt><trkpt lat="42.3133333" lon="14.0109833"><ele>102.66666666666666</ele><time>2026-05-02T08:43:01.082Z</time></trkpt><trkpt lat="42.313165" lon="14.0110367"><ele>102.0</ele><time>2026-05-02T08:43:02.082Z</time></trkpt><trkpt lat="42.3129867" lon="14.01108"><ele>102.0</ele><time>2026-05-02T08:43:03.081Z</time></trkpt><trkpt lat="42.3127933" lon="14.0111117"><ele>102.0</ele><time>2026-05-02T08:43:04.082Z</time></trkpt><trkpt lat="42.3125867" lon="14.01114"><ele>102.0</ele><time>2026-05-02T08:43:05.081Z</time></trkpt><trkpt lat="42.3123633" lon="14.01116"><ele>102.5</ele><time>2026-05-02T08:43:06.081Z</time></trkpt><trkpt lat="42.3121317" lon="14.0111517"><ele>103.0</ele><time>2026-05-02T08:43:07.081Z</time></trkpt><trkpt lat="42.3118833" lon="14.011125"><ele>103.0</ele><time>2026-05-02T08:43:08.08Z</time></trkpt><trkpt lat="42.3116267" lon="14.01109"><ele>103.0</ele><time>2026-05-02T08:43:09.08Z</time></trkpt><trkpt lat="42.3113667" lon="14.01104"><ele>102.0</ele><time>2026-05-02T08:43:10.08Z</time></trkpt><trkpt lat="42.311105" lon="14.0109817"><ele>101.0</ele><time>2026-05-02T08:43:11.081Z</time></trkpt><trkpt lat="42.31084" lon="14.0109333"><ele>101.0</ele><time>2026-05-02T08:43:12.081Z</time></trkpt><trkpt lat="42.31058" lon="14.0108833"><ele>101.0</ele><time>2026-05-02T08:43:13.081Z</time></trkpt><trkpt lat="42.310325" lon="14.010835"><ele>101.5</ele><time>2026-05-02T08:43:14.08Z</time></trkpt><trkpt lat="42.3100833" lon="14.0107833"><ele>102.0</ele><time>2026-05-02T08:43:15.08Z</time></trkpt><trkpt lat="42.3098533" lon="14.0107383"><ele>102.33333333333334</ele><time>2026-05-02T08:43:16.08Z</time></trkpt><trkpt lat="42.3096333" lon="14.010705"><ele>102.66666666666667</ele><time>2026-05-02T08:43:17.08Z</time></trkpt><trkpt lat="42.3094117" lon="14.010665"><ele>103.0</ele><time>2026-05-02T08:43:18.081Z</time></trkpt><trkpt lat="42.3091883" lon="14.0106183"><ele>103.0</ele><time>2026-05-02T08:43:19.081Z</time></trkpt><trkpt lat="42.308975" lon="14.0105667"><ele>103.0</ele><time>2026-05-02T08:43:20.08Z</time></trkpt><trkpt lat="42.30878" lon="14.0105283"><ele>103.0</ele><time>2026-05-02T08:43:21.08Z</time></trkpt><trkpt lat="42.3086133" lon="14.0105033"><ele>104.75</ele><time>2026-05-02T08:43:22.081Z</time></trkpt><trkpt lat="42.3084567" lon="14.0105083"><ele>106.5</ele><time>2026-05-02T08:43:23.08Z</time></trkpt><trkpt lat="42.30833" lon="14.010535"><ele>108.25</ele><time>2026-05-02T08:43:24.081Z</time></trkpt><trkpt lat="42.308225" lon="14.0105833"><ele>110.0</ele><time>2026-05-02T08:43:25.08Z</time></trkpt><trkpt lat="42.308115" lon="14.010675"><ele>111.0</ele><time>2026-05-02T08:43:26.08Z</time></trkpt><trkpt lat="42.30799" lon="14.010785"><ele>112.0</ele><time>2026-05-02T08:43:27.08Z</time></trkpt><trkpt lat="42.3078583" lon="14.010885"><ele>113.0</ele><time>2026-05-02T08:43:28.08Z</time></trkpt><trkpt lat="42.3077367" lon="14.0109433"><ele>114.0</ele><time>2026-05-02T08:43:29.08Z</time></trkpt><trkpt lat="42.3076033" lon="14.01095"><ele>114.0</ele><time>2026-05-02T08:43:30.08Z</time></trkpt><trkpt lat="42.3074517" lon="14.0109083"><ele>114.0</ele><time>2026-05-02T08:43:31.081Z</time></trkpt><trkpt lat="42.3072933" lon="14.0108317"><ele>114.0</ele><time>2026-05-02T08:43:32.081Z</time></trkpt><trkpt lat="42.30715" lon="14.010745"><ele>116.75</ele><time>2026-05-02T08:43:33.081Z</time></trkpt><trkpt lat="42.307025" lon="14.0106517"><ele>119.5</ele><time>2026-05-02T08:43:34.081Z</time></trkpt><trkpt lat="42.3069267" lon="14.0105233"><ele>122.25</ele><time>2026-05-02T08:43:35.08Z</time></trkpt><trkpt lat="42.3068567" lon="14.0103633"><ele>125.0</ele><time>2026-05-02T08:43:36.08Z</time></trkpt><trkpt lat="42.306795" lon="14.0101767"><ele>125.75</ele><time>2026-05-02T08:43:37.08Z</time></trkpt><trkpt lat="42.3067367" lon="14.0099767"><ele>126.5</ele><time>2026-05-02T08:43:38.081Z</time></trkpt><trkpt lat="42.3066867" lon="14.0097767"><ele>127.25</ele><time>2026-05-02T08:43:39.08Z</time></trkpt><trkpt lat="42.3066517" lon="14.0096067"><ele>128.0</ele><time>2026-05-02T08:43:40.081Z</time></trkpt><trkpt lat="42.3066117" lon="14.0094433"><ele>128.0</ele><time>2026-05-02T08:43:41.08Z</time></trkpt><trkpt lat="42.3065567" lon="14.0092583"><ele>128.0</ele><time>2026-05-02T08:43:42.08Z</time></trkpt><trkpt lat="42.3064933" lon="14.009055"><ele>128.0</ele><time>2026-05-02T08:43:43.081Z</time></trkpt><trkpt lat="42.3064367" lon="14.00883"><ele>133.33333333333331</ele><time>2026-05-02T08:43:44.08Z</time></trkpt><trkpt lat="42.3063783" lon="14.0085917"><ele>138.66666666666666</ele><time>2026-05-02T08:43:45.081Z</time></trkpt><trkpt lat="42.3063117" lon="14.0083317"><ele>144.0</ele><time>2026-05-02T08:43:46.08Z</time></trkpt><trkpt lat="42.3062383" lon="14.008065"><ele>144.66666666666666</ele><time>2026-05-02T08:43:47.081Z</time></trkpt><trkpt lat="42.30617" lon="14.0078067"><ele>145.33333333333331</ele><time>2026-05-02T08:43:48.081Z</time></trkpt><trkpt lat="42.306105" lon="14.00755"><ele>146.0</ele><time>2026-05-02T08:43:49.081Z</time></trkpt><trkpt lat="42.3060233" lon="14.007285"><ele>146.66666666666666</ele><time>2026-05-02T08:43:50.081Z</time></trkpt><trkpt lat="42.30593" lon="14.0070133"><ele>147.33333333333334</ele><time>2026-05-02T08:43:51.08Z</time></trkpt><trkpt lat="42.30582" lon="14.0067517"><ele>148.0</ele><time>2026-05-02T08:43:52.081Z</time></trkpt><trkpt lat="42.3057067" lon="14.0064817"><ele>156.5</ele><time>2026-05-02T08:43:53.081Z</time></trkpt><trkpt lat="42.30557" lon="14.0062217"><ele>165.0</ele><time>2026-05-02T08:43:54.081Z</time></trkpt><trkpt lat="42.3054217" lon="14.0059633"><ele>164.0</ele><time>2026-05-02T08:43:55.081Z</time></trkpt><trkpt lat="42.30527" lon="14.0056967"><ele>163.0</ele><time>2026-05-02T08:43:56.081Z</time></trkpt><trkpt lat="42.3051317" lon="14.0054267"><ele>163.0</ele><time>2026-05-02T08:43:57.08Z</time></trkpt><trkpt lat="42.3050067" lon="14.0051467"><ele>163.0</ele><time>2026-05-02T08:43:58.081Z</time></trkpt><trkpt lat="42.3048867" lon="14.0048667"><ele>162.66666666666669</ele><time>2026-05-02T08:43:59.081Z</time></trkpt><trkpt lat="42.3047633" lon="14.00461"><ele>162.33333333333334</ele><time>2026-05-02T08:44:00.081Z</time></trkpt><trkpt lat="42.3046517" lon="14.00439"><ele>162.0</ele><time>2026-05-02T08:44:01.081Z</time></trkpt><trkpt lat="42.3045667" lon="14.004205"><ele>164.0</ele><time>2026-05-02T08:44:02.081Z</time></trkpt><trkpt lat="42.3044717" lon="14.00406"><ele>166.0</ele><time>2026-05-02T08:44:03.08Z</time></trkpt><trkpt lat="42.3043717" lon="14.00395"><ele>168.0</ele><time>2026-05-02T08:44:04.081Z</time></trkpt><trkpt lat="42.30429" lon="14.003875"><ele>170.0</ele><time>2026-05-02T08:44:05.081Z</time></trkpt><trkpt lat="42.30419" lon="14.00383"><ele>170.0</ele><time>2026-05-02T08:44:06.081Z</time></trkpt><trkpt lat="42.3040667" lon="14.0037967"><ele>170.0</ele><time>2026-05-02T08:44:07.081Z</time></trkpt><trkpt lat="42.3039167" lon="14.0037383"><ele>170.0</ele><time>2026-05-02T08:44:08.08Z</time></trkpt><trkpt lat="42.30376" lon="14.0036467"><ele>168.66666666666666</ele><time>2026-05-02T08:44:09.08Z</time></trkpt><trkpt lat="42.3036017" lon="14.0035383"><ele>167.33333333333334</ele><time>2026-05-02T08:44:10.081Z</time></trkpt><trkpt lat="42.3034333" lon="14.0034117"><ele>166.0</ele><time>2026-05-02T08:44:11.081Z</time></trkpt><trkpt lat="42.3032533" lon="14.0032917"><ele>167.0</ele><time>2026-05-02T08:44:12.08Z</time></trkpt><trkpt lat="42.3030717" lon="14.0032017"><ele>168.0</ele><time>2026-05-02T08:44:13.081Z</time></trkpt><trkpt lat="42.3028933" lon="14.003135"><ele>169.0</ele><time>2026-05-02T08:44:14.08Z</time></trkpt><trkpt lat="42.3026983" lon="14.0030983"><ele>169.0</ele><time>2026-05-02T08:44:15.08Z</time></trkpt><trkpt lat="42.302515" lon="14.0030883"><ele>169.0</ele><time>2026-05-02T08:44:16.081Z</time></trkpt><trkpt lat="42.3023367" lon="14.00309"><ele>169.0</ele><time>2026-05-02T08:44:17.081Z</time></trkpt><trkpt lat="42.3021583" lon="14.00308"><ele>166.5</ele><time>2026-05-02T08:44:18.081Z</time></trkpt><trkpt lat="42.3020033" lon="14.00306"><ele>164.0</ele><time>2026-05-02T08:44:19.08Z</time></trkpt><trkpt lat="42.301865" lon="14.0030133"><ele>161.5</ele><time>2026-05-02T08:44:20.08Z</time></trkpt><trkpt lat="42.3017483" lon="14.002945"><ele>159.0</ele><time>2026-05-02T08:44:21.081Z</time></trkpt><trkpt lat="42.3016417" lon="14.00286"><ele>159.0</ele><time>2026-05-02T08:44:22.08Z</time></trkpt><trkpt lat="42.3015533" lon="14.0027783"><ele>159.0</ele><time>2026-05-02T08:44:23.08Z</time></trkpt><trkpt lat="42.3014933" lon="14.002705"><ele>159.0</ele><time>2026-05-02T08:44:24.081Z</time></trkpt><trkpt lat="42.3014567" lon="14.0026067"><ele>159.0</ele><time>2026-05-02T08:44:25.08Z</time></trkpt><trkpt lat="42.30143" lon="14.0024817"><ele>159.0</ele><time>2026-05-02T08:44:26.081Z</time></trkpt><trkpt lat="42.3014017" lon="14.002325"><ele>157.66666666666666</ele><time>2026-05-02T08:44:27.08Z</time></trkpt><trkpt lat="42.3013683" lon="14.0021417"><ele>156.33333333333331</ele><time>2026-05-02T08:44:28.08Z</time></trkpt><trkpt lat="42.3013317" lon="14.0019383"><ele>155.0</ele><time>2026-05-02T08:44:29.081Z</time></trkpt><trkpt lat="42.30128" lon="14.0017317"><ele>157.0</ele><time>2026-05-02T08:44:30.08Z</time></trkpt><trkpt lat="42.3012033" lon="14.0015133"><ele>159.0</ele><time>2026-05-02T08:44:31.08Z</time></trkpt><trkpt lat="42.3011183" lon="14.0012733"><ele>161.0</ele><time>2026-05-02T08:44:32.081Z</time></trkpt><trkpt lat="42.3010183" lon="14.0010333"><ele>164.66666666666666</ele><time>2026-05-02T08:44:33.081Z</time></trkpt><trkpt lat="42.3009283" lon="14.00083"><ele>168.33333333333334</ele><time>2026-05-02T08:44:34.081Z</time></trkpt><trkpt lat="42.3008367" lon="14.0006433"><ele>172.0</ele><time>2026-05-02T08:44:35.08Z</time></trkpt><trkpt lat="42.3007367" lon="14.0004767"><ele>172.0</ele><time>2026-05-02T08:44:36.081Z</time></trkpt><trkpt lat="42.300635" lon="14.0003217"><ele>172.0</ele><time>2026-05-02T08:44:37.08Z</time></trkpt><trkpt lat="42.30051" lon="14.0001733"><ele>172.0</ele><time>2026-05-02T08:44:38.08Z</time></trkpt><trkpt lat="42.300405" lon="14.00003"><ele>168.5</ele><time>2026-05-02T08:44:39.08Z</time></trkpt><trkpt lat="42.3003167" lon="13.9998833"><ele>165.0</ele><time>2026-05-02T08:44:40.08Z</time></trkpt><trkpt lat="42.3002283" lon="13.9997317"><ele>161.5</ele><time>2026-05-02T08:44:41.08Z</time></trkpt><trkpt lat="42.3001617" lon="13.99958"><ele>158.0</ele><time>2026-05-02T08:44:42.08Z</time></trkpt><trkpt lat="42.3000933" lon="13.99943"><ele>158.0</ele><time>2026-05-02T08:44:43.08Z</time></trkpt><trkpt lat="42.3000133" lon="13.9992667"><ele>158.0</ele><time>2026-05-02T08:44:44.08Z</time></trkpt><trkpt lat="42.2999267" lon="13.9990883"><ele>158.0</ele><time>2026-05-02T08:44:45.081Z</time></trkpt><trkpt lat="42.2998233" lon="13.9988967"><ele>158.0</ele><time>2026-05-02T08:44:46.081Z</time></trkpt><trkpt lat="42.299715" lon="13.998695"><ele>158.0</ele><time>2026-05-02T08:44:47.081Z</time></trkpt><trkpt lat="42.2996067" lon="13.9984967"><ele>158.0</ele><time>2026-05-02T08:44:48.081Z</time></trkpt><trkpt lat="42.299515" lon="13.9983183"><ele>158.0</ele><time>2026-05-02T08:44:49.08Z</time></trkpt><trkpt lat="42.299425" lon="13.9981517"><ele>158.0</ele><time>2026-05-02T08:44:50.081Z</time></trkpt><trkpt lat="42.2993433" lon="13.9979983"><ele>158.0</ele><time>2026-05-02T08:44:51.081Z</time></trkpt><trkpt lat="42.29928" lon="13.997855"><ele>158.0</ele><time>2026-05-02T08:44:52.08Z</time></trkpt><trkpt lat="42.2992317" lon="13.9977"><ele>158.0</ele><time>2026-05-02T08:44:53.081Z</time></trkpt><trkpt lat="42.299195" lon="13.9975267"><ele>158.0</ele><time>2026-05-02T08:44:54.081Z</time></trkpt><trkpt lat="42.2991717" lon="13.9973317"><ele>158.0</ele><time>2026-05-02T08:44:55.08Z</time></trkpt><trkpt lat="42.2991617" lon="13.997135"><ele>158.0</ele><time>2026-05-02T08:44:56.08Z</time></trkpt><trkpt lat="42.2991583" lon="13.9969467"><ele>158.0</ele><time>2026-05-02T08:44:57.081Z</time></trkpt><trkpt lat="42.2991417" lon="13.996775"><ele>158.0</ele><time>2026-05-02T08:44:58.081Z</time></trkpt><trkpt lat="42.29911" lon="13.9966117"><ele>158.0</ele><time>2026-05-02T08:44:59.08Z</time></trkpt><trkpt lat="42.299065" lon="13.9964767"><ele>158.0</ele><time>2026-05-02T08:45:00.081Z</time></trkpt><trkpt lat="42.299" lon="13.9963467"><ele>156.0</ele><time>2026-05-02T08:45:01.08Z</time></trkpt><trkpt lat="42.2989067" lon="13.99622"><ele>154.0</ele><time>2026-05-02T08:45:02.081Z</time></trkpt><trkpt lat="42.2988117" lon="13.9961017"><ele>152.0</ele><time>2026-05-02T08:45:03.08Z</time></trkpt><trkpt lat="42.2987267" lon="13.9959733"><ele>150.0</ele><time>2026-05-02T08:45:04.08Z</time></trkpt><trkpt lat="42.2986583" lon="13.99584"><ele>150.0</ele><time>2026-05-02T08:45:05.08Z</time></trkpt><trkpt lat="42.29861" lon="13.995715"><ele>150.0</ele><time>2026-05-02T08:45:06.081Z</time></trkpt><trkpt lat="42.2985583" lon="13.9955983"><ele>150.0</ele><time>2026-05-02T08:45:07.08Z</time></trkpt><trkpt lat="42.298485" lon="13.99546"><ele>150.0</ele><time>2026-05-02T08:45:08.081Z</time></trkpt><trkpt lat="42.2984017" lon="13.9953017"><ele>150.0</ele><time>2026-05-02T08:45:09.081Z</time></trkpt><trkpt lat="42.2983133" lon="13.9951233"><ele>150.0</ele><time>2026-05-02T08:45:10.081Z</time></trkpt><trkpt lat="42.2982133" lon="13.9949433"><ele>150.0</ele><time>2026-05-02T08:45:11.081Z</time></trkpt><trkpt lat="42.2981083" lon="13.9947683"><ele>146.66666666666666</ele><time>2026-05-02T08:45:12.08Z</time></trkpt><trkpt lat="42.298" lon="13.9946"><ele>143.33333333333331</ele><time>2026-05-02T08:45:13.08Z</time></trkpt><trkpt lat="42.2979067" lon="13.9944267"><ele>140.0</ele><time>2026-05-02T08:45:14.08Z</time></trkpt><trkpt lat="42.2978117" lon="13.9942333"><ele>140.33333333333331</ele><time>2026-05-02T08:45:15.08Z</time></trkpt><trkpt lat="42.2977217" lon="13.9940167"><ele>140.66666666666666</ele><time>2026-05-02T08:45:16.081Z</time></trkpt><trkpt lat="42.2976233" lon="13.993795"><ele>141.0</ele><time>2026-05-02T08:45:17.08Z</time></trkpt><trkpt lat="42.2975183" lon="13.9935733"><ele>141.0</ele><time>2026-05-02T08:45:18.081Z</time></trkpt><trkpt lat="42.2974183" lon="13.9933683"><ele>141.0</ele><time>2026-05-02T08:45:19.08Z</time></trkpt><trkpt lat="42.2973117" lon="13.993155"><ele>141.0</ele><time>2026-05-02T08:45:20.08Z</time></trkpt><trkpt lat="42.2972033" lon="13.9929517"><ele>139.66666666666666</ele><time>2026-05-02T08:45:21.081Z</time></trkpt><trkpt lat="42.2971" lon="13.9927483"><ele>138.33333333333331</ele><time>2026-05-02T08:45:22.081Z</time></trkpt><trkpt lat="42.2970083" lon="13.9925583"><ele>137.0</ele><time>2026-05-02T08:45:23.08Z</time></trkpt><trkpt lat="42.2969283" lon="13.99237"><ele>137.0</ele><time>2026-05-02T08:45:24.08Z</time></trkpt><trkpt lat="42.2968617" lon="13.992165"><ele>137.0</ele><time>2026-05-02T08:45:25.08Z</time></trkpt><trkpt lat="42.29681" lon="13.9919583"><ele>137.0</ele><time>2026-05-02T08:45:26.08Z</time></trkpt><trkpt lat="42.2967617" lon="13.99177"><ele>137.66666666666666</ele><time>2026-05-02T08:45:27.081Z</time></trkpt><trkpt lat="42.2967217" lon="13.9915733"><ele>138.33333333333334</ele><time>2026-05-02T08:45:28.081Z</time></trkpt><trkpt lat="42.2966917" lon="13.99136"><ele>139.0</ele><time>2026-05-02T08:45:29.08Z</time></trkpt><trkpt lat="42.29667" lon="13.9911433"><ele>139.0</ele><time>2026-05-02T08:45:30.08Z</time></trkpt><trkpt lat="42.2966517" lon="13.9909433"><ele>139.0</ele><time>2026-05-02T08:45:31.081Z</time></trkpt><trkpt lat="42.29664" lon="13.9907633"><ele>139.0</ele><time>2026-05-02T08:45:32.081Z</time></trkpt><trkpt lat="42.296625" lon="13.9906"><ele>139.0</ele><time>2026-05-02T08:45:33.08Z</time></trkpt><trkpt lat="42.2966083" lon="13.9904517"><ele>138.8</ele><time>2026-05-02T08:45:34.081Z</time></trkpt><trkpt lat="42.2965783" lon="13.990305"><ele>138.60000000000002</ele><time>2026-05-02T08:45:35.081Z</time></trkpt><trkpt lat="42.2965267" lon="13.9901717"><ele>138.4</ele><time>2026-05-02T08:45:36.08Z</time></trkpt><trkpt lat="42.2964533" lon="13.9900533"><ele>138.20000000000002</ele><time>2026-05-02T08:45:37.081Z</time></trkpt><trkpt lat="42.2963717" lon="13.98997"><ele>138.0</ele><time>2026-05-02T08:45:38.08Z</time></trkpt><trkpt lat="42.2962867" lon="13.989915"><ele>136.0</ele><time>2026-05-02T08:45:39.081Z</time></trkpt><trkpt lat="42.2962017" lon="13.98988"><ele>134.0</ele><time>2026-05-02T08:45:40.08Z</time></trkpt><trkpt lat="42.2961" lon="13.989845"><ele>132.0</ele><time>2026-05-02T08:45:41.08Z</time></trkpt><trkpt lat="42.29599" lon="13.9897967"><ele>130.0</ele><time>2026-05-02T08:45:42.08Z</time></trkpt><trkpt lat="42.2958867" lon="13.98975"><ele>128.0</ele><time>2026-05-02T08:45:43.08Z</time></trkpt><trkpt lat="42.2957833" lon="13.9896867"><ele>128.0</ele><time>2026-05-02T08:45:44.08Z</time></trkpt><trkpt lat="42.2956783" lon="13.9896067"><ele>128.0</ele><time>2026-05-02T08:45:45.081Z</time></trkpt><trkpt lat="42.2955733" lon="13.989515"><ele>128.0</ele><time>2026-05-02T08:45:46.081Z</time></trkpt><trkpt lat="42.2954633" lon="13.9894317"><ele>128.0</ele><time>2026-05-02T08:45:47.081Z</time></trkpt><trkpt lat="42.2953667" lon="13.9893683"><ele>127.60000000000001</ele><time>2026-05-02T08:45:48.08Z</time></trkpt><trkpt lat="42.295295" lon="13.9893183"><ele>127.20000000000002</ele><time>2026-05-02T08:45:49.081Z</time></trkpt><trkpt lat="42.29522" lon="13.9892633"><ele>126.8</ele><time>2026-05-02T08:45:51.08Z</time></trkpt><trkpt lat="42.2951333" lon="13.989305"><ele>126.4</ele><time>2026-05-02T08:45:55.081Z</time></trkpt><trkpt lat="42.29503" lon="13.98934"><ele>126.0</ele><time>2026-05-02T08:45:57.081Z</time></trkpt><trkpt lat="42.2949617" lon="13.989265"><ele>126.0</ele><time>2026-05-02T08:45:59.081Z</time></trkpt><trkpt lat="42.2949433" lon="13.98918"><ele>126.0</ele><time>2026-05-02T08:46:00.081Z</time></trkpt><trkpt lat="42.2949283" lon="13.9890717"><ele>126.0</ele><time>2026-05-02T08:46:01.081Z</time></trkpt><trkpt lat="42.2949117" lon="13.9889433"><ele>126.0</ele><time>2026-05-02T08:46:02.081Z</time></trkpt><trkpt lat="42.29488" lon="13.9887967"><ele>126.0</ele><time>2026-05-02T08:46:03.08Z</time></trkpt><trkpt lat="42.2948433" lon="13.9886417"><ele>127.33333333333334</ele><time>2026-05-02T08:46:04.081Z</time></trkpt><trkpt lat="42.2947917" lon="13.9884717"><ele>128.66666666666669</ele><time>2026-05-02T08:46:05.08Z</time></trkpt><trkpt lat="42.2947417" lon="13.98828"><ele>130.0</ele><time>2026-05-02T08:46:06.08Z</time></trkpt><trkpt lat="42.2946933" lon="13.988065"><ele>131.0</ele><time>2026-05-02T08:46:07.08Z</time></trkpt><trkpt lat="42.2946433" lon="13.9878517"><ele>132.0</ele><time>2026-05-02T08:46:08.08Z</time></trkpt><trkpt lat="42.2945867" lon="13.9876333"><ele>133.0</ele><time>2026-05-02T08:46:09.08Z</time></trkpt><trkpt lat="42.29453" lon="13.987425"><ele>133.5</ele><time>2026-05-02T08:46:10.081Z</time></trkpt><trkpt lat="42.29447" lon="13.9872383"><ele>134.0</ele><time>2026-05-02T08:46:11.081Z</time></trkpt><trkpt lat="42.2944183" lon="13.987085"><ele>134.5</ele><time>2026-05-02T08:46:12.081Z</time></trkpt><trkpt lat="42.29439" lon="13.9869533"><ele>135.0</ele><time>2026-05-02T08:46:13.081Z</time></trkpt><trkpt lat="42.29438" lon="13.9868333"><ele>135.0</ele><time>2026-05-02T08:46:14.081Z</time></trkpt><trkpt lat="42.2944017" lon="13.9867467"><ele>135.0</ele><time>2026-05-02T08:46:15.08Z</time></trkpt><trkpt lat="42.2944967" lon="13.98668"><ele>135.0</ele><time>2026-05-02T08:46:17.081Z</time></trkpt><trkpt lat="42.2945783" lon="13.9867667"><ele>135.0</ele><time>2026-05-02T08:46:19.08Z</time></trkpt><trkpt lat="42.294615" lon="13.9868417"><ele>135.0</ele><time>2026-05-02T08:46:20.08Z</time></trkpt><trkpt lat="42.294635" lon="13.9869267"><ele>135.0</ele><time>2026-05-02T08:46:21.08Z</time></trkpt><trkpt lat="42.2946683" lon="13.9870717"><ele>135.0</ele><time>2026-05-02T08:46:23.081Z</time></trkpt><trkpt lat="42.2947033" lon="13.9869817"><ele>135.0</ele><time>2026-05-02T08:46:28.081Z</time></trkpt><trkpt lat="42.2946767" lon="13.9868983"><ele>135.0</ele><time>2026-05-02T08:46:29.081Z</time></trkpt><trkpt lat="42.294645" lon="13.986805"><ele>135.0</ele><time>2026-05-02T08:46:30.081Z</time></trkpt><trkpt lat="42.2945983" lon="13.986735"><ele>135.0</ele><time>2026-05-02T08:46:31.081Z</time></trkpt><trkpt lat="42.29454" lon="13.9866917"><ele>135.0</ele><time>2026-05-02T08:46:32.081Z</time></trkpt><trkpt lat="42.2944767" lon="13.9866633"><ele>135.0</ele><time>2026-05-02T08:46:33.081Z</time></trkpt><trkpt lat="42.2943767" lon="13.9865967"><ele>135.6</ele><time>2026-05-02T08:46:35.08Z</time></trkpt><trkpt lat="42.2943333" lon="13.98652"><ele>136.2</ele><time>2026-05-02T08:46:36.08Z</time></trkpt><trkpt lat="42.2942917" lon="13.986405"><ele>136.8</ele><time>2026-05-02T08:46:37.08Z</time></trkpt><trkpt lat="42.2942517" lon="13.98625"><ele>137.4</ele><time>2026-05-02T08:46:38.08Z</time></trkpt><trkpt lat="42.2941983" lon="13.98607"><ele>138.0</ele><time>2026-05-02T08:46:39.081Z</time></trkpt><trkpt lat="42.2941483" lon="13.98588"><ele>139.0</ele><time>2026-05-02T08:46:40.081Z</time></trkpt><trkpt lat="42.294085" lon="13.985665"><ele>140.0</ele><time>2026-05-02T08:46:41.08Z</time></trkpt><trkpt lat="42.2940233" lon="13.985435"><ele>141.0</ele><time>2026-05-02T08:46:42.081Z</time></trkpt><trkpt lat="42.2939617" lon="13.985225"><ele>142.5</ele><time>2026-05-02T08:46:43.08Z</time></trkpt><trkpt lat="42.2939" lon="13.9850467"><ele>144.0</ele><time>2026-05-02T08:46:44.08Z</time></trkpt><trkpt lat="42.2938483" lon="13.98488"><ele>145.5</ele><time>2026-05-02T08:46:45.08Z</time></trkpt><trkpt lat="42.293795" lon="13.9847317"><ele>147.0</ele><time>2026-05-02T08:46:46.081Z</time></trkpt><trkpt lat="42.293725" lon="13.9845833"><ele>147.25</ele><time>2026-05-02T08:46:47.08Z</time></trkpt><trkpt lat="42.2936433" lon="13.9844317"><ele>147.5</ele><time>2026-05-02T08:46:48.081Z</time></trkpt><trkpt lat="42.2935517" lon="13.9842783"><ele>147.75</ele><time>2026-05-02T08:46:49.08Z</time></trkpt><trkpt lat="42.2934617" lon="13.98414"><ele>148.0</ele><time>2026-05-02T08:46:50.08Z</time></trkpt><trkpt lat="42.2933617" lon="13.984005"><ele>148.5</ele><time>2026-05-02T08:46:51.081Z</time></trkpt><trkpt lat="42.293245" lon="13.9838917"><ele>149.0</ele><time>2026-05-02T08:46:52.081Z</time></trkpt><trkpt lat="42.2931167" lon="13.9837833"><ele>149.5</ele><time>2026-05-02T08:46:53.08Z</time></trkpt><trkpt lat="42.293" lon="13.983665"><ele>150.0</ele><time>2026-05-02T08:46:54.08Z</time></trkpt><trkpt lat="42.2929" lon="13.983515"><ele>153.33333333333334</ele><time>2026-05-02T08:46:55.081Z</time></trkpt><trkpt lat="42.292805" lon="13.9833383"><ele>156.66666666666669</ele><time>2026-05-02T08:46:56.08Z</time></trkpt><trkpt lat="42.2927033" lon="13.9831517"><ele>160.0</ele><time>2026-05-02T08:46:57.08Z</time></trkpt><trkpt lat="42.292605" lon="13.9829633"><ele>160.0</ele><time>2026-05-02T08:46:58.081Z</time></trkpt><trkpt lat="42.292515" lon="13.9827883"><ele>160.0</ele><time>2026-05-02T08:46:59.081Z</time></trkpt><trkpt lat="42.2924317" lon="13.98264"><ele>160.0</ele><time>2026-05-02T08:47:00.081Z</time></trkpt><trkpt lat="42.2923483" lon="13.9824967"><ele>160.0</ele><time>2026-05-02T08:47:01.08Z</time></trkpt><trkpt lat="42.2922533" lon="13.9823417"><ele>162.25</ele><time>2026-05-02T08:47:02.08Z</time></trkpt><trkpt lat="42.292165" lon="13.9821967"><ele>164.5</ele><time>2026-05-02T08:47:03.08Z</time></trkpt><trkpt lat="42.292085" lon="13.9820667"><ele>166.75</ele><time>2026-05-02T08:47:04.081Z</time></trkpt><trkpt lat="42.2920033" lon="13.98194"><ele>169.0</ele><time>2026-05-02T08:47:05.081Z</time></trkpt><trkpt lat="42.2919183" lon="13.9818067"><ele>168.5</ele><time>2026-05-02T08:47:06.08Z</time></trkpt><trkpt lat="42.2918167" lon="13.9816667"><ele>168.0</ele><time>2026-05-02T08:47:07.08Z</time></trkpt><trkpt lat="42.2917183" lon="13.981525"><ele>167.5</ele><time>2026-05-02T08:47:08.081Z</time></trkpt><trkpt lat="42.29163" lon="13.9813833"><ele>167.0</ele><time>2026-05-02T08:47:09.08Z</time></trkpt><trkpt lat="42.2915533" lon="13.9812683"><ele>167.0</ele><time>2026-05-02T08:47:10.08Z</time></trkpt><trkpt lat="42.291485" lon="13.9811767"><ele>167.0</ele><time>2026-05-02T08:47:11.08Z</time></trkpt><trkpt lat="42.2914217" lon="13.981125"><ele>167.0</ele><time>2026-05-02T08:47:12.08Z</time></trkpt><trkpt lat="42.291295" lon="13.9811017"><ele>167.0</ele><time>2026-05-02T08:47:14.08Z</time></trkpt><trkpt lat="42.29118" lon="13.9810767"><ele>167.0</ele><time>2026-05-02T08:47:16.08Z</time></trkpt><trkpt lat="42.2910933" lon="13.981075"><ele>167.39999999999998</ele><time>2026-05-02T08:47:18.08Z</time></trkpt><trkpt lat="42.29099" lon="13.981015"><ele>167.79999999999998</ele><time>2026-05-02T08:47:20.081Z</time></trkpt><trkpt lat="42.2909283" lon="13.9809467"><ele>168.2</ele><time>2026-05-02T08:47:21.08Z</time></trkpt><trkpt lat="42.2908883" lon="13.9808417"><ele>168.6</ele><time>2026-05-02T08:47:22.081Z</time></trkpt><trkpt lat="42.2908583" lon="13.9806933"><ele>169.0</ele><time>2026-05-02T08:47:23.08Z</time></trkpt><trkpt lat="42.29085" lon="13.98052"><ele>169.0</ele><time>2026-05-02T08:47:24.081Z</time></trkpt><trkpt lat="42.2908483" lon="13.98035"><ele>169.0</ele><time>2026-05-02T08:47:25.08Z</time></trkpt><trkpt lat="42.29083" lon="13.980195"><ele>169.0</ele><time>2026-05-02T08:47:26.081Z</time></trkpt><trkpt lat="42.290795" lon="13.9800417"><ele>169.0</ele><time>2026-05-02T08:47:27.081Z</time></trkpt><trkpt lat="42.2907233" lon="13.97988"><ele>169.5</ele><time>2026-05-02T08:47:28.081Z</time></trkpt><trkpt lat="42.2906283" lon="13.9797283"><ele>170.0</ele><time>2026-05-02T08:47:29.08Z</time></trkpt><trkpt lat="42.29052" lon="13.9796217"><ele>170.5</ele><time>2026-05-02T08:47:30.081Z</time></trkpt><trkpt lat="42.2904217" lon="13.97955"><ele>171.0</ele><time>2026-05-02T08:47:31.08Z</time></trkpt><trkpt lat="42.2903417" lon="13.9794867"><ele>173.8</ele><time>2026-05-02T08:47:32.08Z</time></trkpt><trkpt lat="42.2902883" lon="13.9793983"><ele>176.60000000000002</ele><time>2026-05-02T08:47:33.08Z</time></trkpt><trkpt lat="42.29027" lon="13.9792967"><ele>179.4</ele><time>2026-05-02T08:47:34.081Z</time></trkpt><trkpt lat="42.2902783" lon="13.979185"><ele>182.2</ele><time>2026-05-02T08:47:35.08Z</time></trkpt><trkpt lat="42.290315" lon="13.979055"><ele>185.0</ele><time>2026-05-02T08:47:36.081Z</time></trkpt><trkpt lat="42.2903583" lon="13.978915"><ele>185.0</ele><time>2026-05-02T08:47:37.081Z</time></trkpt><trkpt lat="42.2903917" lon="13.9787967"><ele>185.0</ele><time>2026-05-02T08:47:38.08Z</time></trkpt><trkpt lat="42.29039" lon="13.9786983"><ele>185.0</ele><time>2026-05-02T08:47:39.079Z</time></trkpt><trkpt lat="42.29031" lon="13.978605"><ele>185.0</ele><time>2026-05-02T08:47:41.079Z</time></trkpt><trkpt lat="42.290235" lon="13.9786267"><ele>185.0</ele><time>2026-05-02T08:47:42.08Z</time></trkpt><trkpt lat="42.29015" lon="13.9786733"><ele>185.0</ele><time>2026-05-02T08:47:43.08Z</time></trkpt><trkpt lat="42.2900567" lon="13.978745"><ele>185.0</ele><time>2026-05-02T08:47:44.079Z</time></trkpt><trkpt lat="42.289965" lon="13.978805"><ele>185.0</ele><time>2026-05-02T08:47:45.079Z</time></trkpt><trkpt lat="42.28988" lon="13.97886"><ele>185.0</ele><time>2026-05-02T08:47:46.079Z</time></trkpt><trkpt lat="42.2897933" lon="13.9789067"><ele>185.0</ele><time>2026-05-02T08:47:47.08Z</time></trkpt><trkpt lat="42.289715" lon="13.9789267"><ele>185.0</ele><time>2026-05-02T08:47:48.08Z</time></trkpt><trkpt lat="42.2895983" lon="13.9788617"><ele>187.6</ele><time>2026-05-02T08:47:50.079Z</time></trkpt><trkpt lat="42.289545" lon="13.9787733"><ele>190.2</ele><time>2026-05-02T08:47:51.08Z</time></trkpt><trkpt lat="42.28951" lon="13.978655"><ele>192.8</ele><time>2026-05-02T08:47:52.08Z</time></trkpt><trkpt lat="42.289485" lon="13.978515"><ele>195.4</ele><time>2026-05-02T08:47:53.079Z</time></trkpt><trkpt lat="42.2894717" lon="13.9783567"><ele>198.0</ele><time>2026-05-02T08:47:54.08Z</time></trkpt><trkpt lat="42.28945" lon="13.978205"><ele>198.60000000000002</ele><time>2026-05-02T08:47:55.079Z</time></trkpt><trkpt lat="42.289425" lon="13.9780783"><ele>199.20000000000002</ele><time>2026-05-02T08:47:56.08Z</time></trkpt><trkpt lat="42.289395" lon="13.9779933"><ele>199.8</ele><time>2026-05-02T08:47:57.08Z</time></trkpt><trkpt lat="42.28933" lon="13.9778867"><ele>200.4</ele><time>2026-05-02T08:47:59.079Z</time></trkpt><trkpt lat="42.2892267" lon="13.9778583"><ele>201.0</ele><time>2026-05-02T08:48:01.08Z</time></trkpt><trkpt lat="42.2891517" lon="13.9778783"><ele>201.0</ele><time>2026-05-02T08:48:02.08Z</time></trkpt><trkpt lat="42.28906" lon="13.9779333"><ele>201.0</ele><time>2026-05-02T08:48:03.079Z</time></trkpt><trkpt lat="42.2889633" lon="13.978005"><ele>201.0</ele><time>2026-05-02T08:48:04.08Z</time></trkpt><trkpt lat="42.2888783" lon="13.978095"><ele>201.0</ele><time>2026-05-02T08:48:05.079Z</time></trkpt><trkpt lat="42.2888117" lon="13.9781917"><ele>201.0</ele><time>2026-05-02T08:48:06.079Z</time></trkpt><trkpt lat="42.2887617" lon="13.9782917"><ele>203.60000000000002</ele><time>2026-05-02T08:48:07.079Z</time></trkpt><trkpt lat="42.28873" lon="13.9784"><ele>206.2</ele><time>2026-05-02T08:48:08.08Z</time></trkpt><trkpt lat="42.288695" lon="13.9785083"><ele>208.79999999999998</ele><time>2026-05-02T08:48:09.08Z</time></trkpt><trkpt lat="42.288645" lon="13.978625"><ele>211.39999999999998</ele><time>2026-05-02T08:48:10.08Z</time></trkpt><trkpt lat="42.28858" lon="13.9787533"><ele>214.0</ele><time>2026-05-02T08:48:11.079Z</time></trkpt><trkpt lat="42.2885117" lon="13.9788683"><ele>213.99999999999997</ele><time>2026-05-02T08:48:12.079Z</time></trkpt><trkpt lat="42.2884567" lon="13.9789667"><ele>214.0</ele><time>2026-05-02T08:48:13.08Z</time></trkpt><trkpt lat="42.28842" lon="13.9790517"><ele>214.0</ele><time>2026-05-02T08:48:14.079Z</time></trkpt><trkpt lat="42.2884033" lon="13.9791483"><ele>214.0</ele><time>2026-05-02T08:48:15.079Z</time></trkpt><trkpt lat="42.288395" lon="13.979255"><ele>213.99999999999997</ele><time>2026-05-02T08:48:16.079Z</time></trkpt><trkpt lat="42.2883883" lon="13.9793717"><ele>214.0</ele><time>2026-05-02T08:48:17.08Z</time></trkpt><trkpt lat="42.2883767" lon="13.9795067"><ele>214.79999999999998</ele><time>2026-05-02T08:48:18.079Z</time></trkpt><trkpt lat="42.28837" lon="13.979665"><ele>215.59999999999997</ele><time>2026-05-02T08:48:19.08Z</time></trkpt><trkpt lat="42.2883567" lon="13.97983"><ele>216.4</ele><time>2026-05-02T08:48:20.079Z</time></trkpt><trkpt lat="42.288345" lon="13.9799783"><ele>217.2</ele><time>2026-05-02T08:48:21.08Z</time></trkpt><trkpt lat="42.2883433" lon="13.98009"><ele>218.0</ele><time>2026-05-02T08:48:22.08Z</time></trkpt><trkpt lat="42.2883667" lon="13.9801933"><ele>218.50000000000003</ele><time>2026-05-02T08:48:23.079Z</time></trkpt><trkpt lat="42.2883983" lon="13.9802967"><ele>219.0</ele><time>2026-05-02T08:48:24.079Z</time></trkpt><trkpt lat="42.2884383" lon="13.9803983"><ele>219.5</ele><time>2026-05-02T08:48:25.08Z</time></trkpt><trkpt lat="42.2884667" lon="13.9805017"><ele>220.0</ele><time>2026-05-02T08:48:26.08Z</time></trkpt><trkpt lat="42.28848" lon="13.9805967"><ele>220.50000000000003</ele><time>2026-05-02T08:48:27.08Z</time></trkpt><trkpt lat="42.2884517" lon="13.9807517"><ele>221.0</ele><time>2026-05-02T08:48:29.079Z</time></trkpt><trkpt lat="42.2884033" lon="13.9808067"><ele>221.0</ele><time>2026-05-02T08:48:30.08Z</time></trkpt><trkpt lat="42.288285" lon="13.980825"><ele>221.0</ele><time>2026-05-02T08:48:32.08Z</time></trkpt><trkpt lat="42.2881867" lon="13.9807283"><ele>221.0</ele><time>2026-05-02T08:48:34.08Z</time></trkpt><trkpt lat="42.288125" lon="13.98059"><ele>221.0</ele><time>2026-05-02T08:48:36.079Z</time></trkpt><trkpt lat="42.2880383" lon="13.9805067"><ele>225.8</ele><time>2026-05-02T08:48:38.079Z</time></trkpt><trkpt lat="42.28795" lon="13.980545"><ele>230.60000000000002</ele><time>2026-05-02T08:48:40.08Z</time></trkpt><trkpt lat="42.287915" lon="13.98068"><ele>235.4</ele><time>2026-05-02T08:48:42.08Z</time></trkpt><trkpt lat="42.2879283" lon="13.9807767"><ele>240.2</ele><time>2026-05-02T08:48:43.079Z</time></trkpt><trkpt lat="42.2879483" lon="13.980895"><ele>245.0</ele><time>2026-05-02T08:48:44.08Z</time></trkpt><trkpt lat="42.2879717" lon="13.981035"><ele>246.6</ele><time>2026-05-02T08:48:45.08Z</time></trkpt><trkpt lat="42.2879983" lon="13.9811917"><ele>248.2</ele><time>2026-05-02T08:48:46.08Z</time></trkpt><trkpt lat="42.2880167" lon="13.9813133"><ele>249.8</ele><time>2026-05-02T08:48:47.079Z</time></trkpt><trkpt lat="42.28798" lon="13.9814533"><ele>251.4</ele><time>2026-05-02T08:48:49.079Z</time></trkpt><trkpt lat="42.2878917" lon="13.9814667"><ele>253.0</ele><time>2026-05-02T08:48:51.08Z</time></trkpt><trkpt lat="42.2878" lon="13.981345"><ele>253.0</ele><time>2026-05-02T08:48:53.079Z</time></trkpt><trkpt lat="42.2877733" lon="13.9812583"><ele>253.0</ele><time>2026-05-02T08:48:54.079Z</time></trkpt><trkpt lat="42.287745" lon="13.9811767"><ele>253.0</ele><time>2026-05-02T08:48:55.079Z</time></trkpt><trkpt lat="42.2876417" lon="13.9810783"><ele>253.0</ele><time>2026-05-02T08:48:57.079Z</time></trkpt><trkpt lat="42.28756" lon="13.98105"><ele>253.0</ele><time>2026-05-02T08:48:58.079Z</time></trkpt><trkpt lat="42.2874567" lon="13.981025"><ele>253.0</ele><time>2026-05-02T08:48:59.08Z</time></trkpt><trkpt lat="42.2873333" lon="13.9809883"><ele>253.0</ele><time>2026-05-02T08:49:00.079Z</time></trkpt><trkpt lat="42.28723" lon="13.9809383"><ele>253.0</ele><time>2026-05-02T08:49:01.08Z</time></trkpt><trkpt lat="42.2871333" lon="13.98091"><ele>253.0</ele><time>2026-05-02T08:49:02.08Z</time></trkpt><trkpt lat="42.2870633" lon="13.9808733"><ele>253.0</ele><time>2026-05-02T08:49:03.08Z</time></trkpt><trkpt lat="42.287" lon="13.980835"><ele>253.8</ele><time>2026-05-02T08:49:04.08Z</time></trkpt><trkpt lat="42.2869467" lon="13.980715"><ele>254.60000000000002</ele><time>2026-05-02T08:49:06.079Z</time></trkpt><trkpt lat="42.2869483" lon="13.9806083"><ele>255.39999999999998</ele><time>2026-05-02T08:49:07.08Z</time></trkpt><trkpt lat="42.2869617" lon="13.9804783"><ele>256.2</ele><time>2026-05-02T08:49:08.079Z</time></trkpt><trkpt lat="42.2869783" lon="13.98034"><ele>257.0</ele><time>2026-05-02T08:49:09.079Z</time></trkpt><trkpt lat="42.2869883" lon="13.9801983"><ele>257.0</ele><time>2026-05-02T08:49:10.08Z</time></trkpt><trkpt lat="42.286985" lon="13.9800633"><ele>257.0</ele><time>2026-05-02T08:49:11.08Z</time></trkpt><trkpt lat="42.2869683" lon="13.9799517"><ele>257.0</ele><time>2026-05-02T08:49:12.08Z</time></trkpt><trkpt lat="42.2869483" lon="13.9798567"><ele>257.0</ele><time>2026-05-02T08:49:13.08Z</time></trkpt><trkpt lat="42.2869117" lon="13.979745"><ele>257.0</ele><time>2026-05-02T08:49:14.079Z</time></trkpt><trkpt lat="42.2868717" lon="13.979635"><ele>257.0</ele><time>2026-05-02T08:49:15.079Z</time></trkpt><trkpt lat="42.28685" lon="13.9795283"><ele>257.2</ele><time>2026-05-02T08:49:16.08Z</time></trkpt><trkpt lat="42.2868417" lon="13.9794083"><ele>257.4</ele><time>2026-05-02T08:49:17.08Z</time></trkpt><trkpt lat="42.2868367" lon="13.9792583"><ele>257.6</ele><time>2026-05-02T08:49:18.079Z</time></trkpt><trkpt lat="42.2868233" lon="13.9791017"><ele>257.8</ele><time>2026-05-02T08:49:19.079Z</time></trkpt><trkpt lat="42.2868117" lon="13.978935"><ele>258.0</ele><time>2026-05-02T08:49:20.08Z</time></trkpt><trkpt lat="42.28678" lon="13.9787583"><ele>257.75</ele><time>2026-05-02T08:49:21.079Z</time></trkpt><trkpt lat="42.2867417" lon="13.9785983"><ele>257.5</ele><time>2026-05-02T08:49:22.079Z</time></trkpt><trkpt lat="42.286685" lon="13.97845"><ele>257.25</ele><time>2026-05-02T08:49:23.079Z</time></trkpt><trkpt lat="42.286615" lon="13.9783183"><ele>257.0</ele><time>2026-05-02T08:49:24.079Z</time></trkpt><trkpt lat="42.28654" lon="13.9782117"><ele>257.0</ele><time>2026-05-02T08:49:25.079Z</time></trkpt><trkpt lat="42.286445" lon="13.9781033"><ele>257.0</ele><time>2026-05-02T08:49:26.079Z</time></trkpt><trkpt lat="42.286345" lon="13.9779983"><ele>257.0</ele><time>2026-05-02T08:49:27.08Z</time></trkpt><trkpt lat="42.28626" lon="13.9778983"><ele>257.0</ele><time>2026-05-02T08:49:28.079Z</time></trkpt><trkpt lat="42.286175" lon="13.9777883"><ele>258.75</ele><time>2026-05-02T08:49:29.079Z</time></trkpt><trkpt lat="42.2860917" lon="13.9776683"><ele>260.5</ele><time>2026-05-02T08:49:30.079Z</time></trkpt><trkpt lat="42.2860283" lon="13.9775267"><ele>262.25</ele><time>2026-05-02T08:49:31.08Z</time></trkpt><trkpt lat="42.28596" lon="13.9773867"><ele>264.0</ele><time>2026-05-02T08:49:32.08Z</time></trkpt><trkpt lat="42.2858817" lon="13.977265"><ele>264.0</ele><time>2026-05-02T08:49:33.079Z</time></trkpt><trkpt lat="42.2857917" lon="13.9771667"><ele>264.0</ele><time>2026-05-02T08:49:34.079Z</time></trkpt><trkpt lat="42.2856833" lon="13.9770733"><ele>264.0</ele><time>2026-05-02T08:49:35.079Z</time></trkpt><trkpt lat="42.2855767" lon="13.976985"><ele>264.0</ele><time>2026-05-02T08:49:36.079Z</time></trkpt><trkpt lat="42.2854767" lon="13.9769033"><ele>264.8333333333333</ele><time>2026-05-02T08:49:37.079Z</time></trkpt><trkpt lat="42.28541" lon="13.9768217"><ele>265.6666666666667</ele><time>2026-05-02T08:49:38.079Z</time></trkpt><trkpt lat="42.2853633" lon="13.9767483"><ele>266.5</ele><time>2026-05-02T08:49:39.079Z</time></trkpt><trkpt lat="42.2853383" lon="13.9766683"><ele>267.33333333333337</ele><time>2026-05-02T08:49:40.08Z</time></trkpt><trkpt lat="42.2853383" lon="13.9765633"><ele>268.1666666666667</ele><time>2026-05-02T08:49:41.08Z</time></trkpt><trkpt lat="42.2853517" lon="13.976435"><ele>269.0</ele><time>2026-05-02T08:49:42.079Z</time></trkpt><trkpt lat="42.2853733" lon="13.9762767"><ele>269.0</ele><time>2026-05-02T08:49:43.079Z</time></trkpt><trkpt lat="42.285395" lon="13.9761"><ele>269.0</ele><time>2026-05-02T08:49:44.08Z</time></trkpt><trkpt lat="42.285415" lon="13.9759217"><ele>269.0</ele><time>2026-05-02T08:49:45.08Z</time></trkpt><trkpt lat="42.28541" lon="13.9757367"><ele>269.0</ele><time>2026-05-02T08:49:46.08Z</time></trkpt><trkpt lat="42.2853883" lon="13.9755583"><ele>270.25</ele><time>2026-05-02T08:49:47.08Z</time></trkpt><trkpt lat="42.2853583" lon="13.9753733"><ele>271.5</ele><time>2026-05-02T08:49:48.08Z</time></trkpt><trkpt lat="42.2853317" lon="13.975195"><ele>272.75</ele><time>2026-05-02T08:49:49.08Z</time></trkpt><trkpt lat="42.2852967" lon="13.9750217"><ele>274.0</ele><time>2026-05-02T08:49:50.079Z</time></trkpt><trkpt lat="42.28524" lon="13.9748467"><ele>274.66666666666663</ele><time>2026-05-02T08:49:51.08Z</time></trkpt><trkpt lat="42.28517" lon="13.974675"><ele>275.3333333333333</ele><time>2026-05-02T08:49:52.08Z</time></trkpt><trkpt lat="42.2850867" lon="13.974505"><ele>276.0</ele><time>2026-05-02T08:49:53.079Z</time></trkpt><trkpt lat="42.285" lon="13.974325"><ele>276.3333333333333</ele><time>2026-05-02T08:49:54.079Z</time></trkpt><trkpt lat="42.284905" lon="13.9741333"><ele>276.66666666666663</ele><time>2026-05-02T08:49:55.08Z</time></trkpt><trkpt lat="42.28482" lon="13.97394"><ele>277.0</ele><time>2026-05-02T08:49:56.08Z</time></trkpt><trkpt lat="42.2847517" lon="13.9737483"><ele>279.75</ele><time>2026-05-02T08:49:57.079Z</time></trkpt><trkpt lat="42.2846683" lon="13.97355"><ele>282.5</ele><time>2026-05-02T08:49:58.08Z</time></trkpt><trkpt lat="42.2845983" lon="13.9733667"><ele>285.25</ele><time>2026-05-02T08:49:59.079Z</time></trkpt><trkpt lat="42.2845183" lon="13.9732383"><ele>288.0</ele><time>2026-05-02T08:50:00.08Z</time></trkpt><trkpt lat="42.284425" lon="13.97313"><ele>288.75</ele><time>2026-05-02T08:50:01.08Z</time></trkpt><trkpt lat="42.2843233" lon="13.973035"><ele>289.5</ele><time>2026-05-02T08:50:02.08Z</time></trkpt><trkpt lat="42.2842067" lon="13.9729433"><ele>290.25</ele><time>2026-05-02T08:50:03.079Z</time></trkpt><trkpt lat="42.28406" lon="13.972845"><ele>291.0</ele><time>2026-05-02T08:50:04.079Z</time></trkpt><trkpt lat="42.2839083" lon="13.97275"><ele>291.5</ele><time>2026-05-02T08:50:05.08Z</time></trkpt><trkpt lat="42.283755" lon="13.9726733"><ele>292.0</ele><time>2026-05-02T08:50:06.079Z</time></trkpt><trkpt lat="42.283615" lon="13.9726133"><ele>292.5</ele><time>2026-05-02T08:50:07.08Z</time></trkpt><trkpt lat="42.2835017" lon="13.9725467"><ele>293.0</ele><time>2026-05-02T08:50:08.08Z</time></trkpt><trkpt lat="42.2833983" lon="13.972515"><ele>293.0</ele><time>2026-05-02T08:50:09.079Z</time></trkpt><trkpt lat="42.2832883" lon="13.9725067"><ele>293.0</ele><time>2026-05-02T08:50:10.08Z</time></trkpt><trkpt lat="42.2831983" lon="13.97249"><ele>293.0</ele><time>2026-05-02T08:50:11.079Z</time></trkpt><trkpt lat="42.2831217" lon="13.9724383"><ele>293.0</ele><time>2026-05-02T08:50:12.08Z</time></trkpt><trkpt lat="42.2830483" lon="13.9723483"><ele>293.0</ele><time>2026-05-02T08:50:13.079Z</time></trkpt><trkpt lat="42.2829867" lon="13.97224"><ele>294.6</ele><time>2026-05-02T08:50:14.08Z</time></trkpt><trkpt lat="42.282945" lon="13.972155"><ele>296.20000000000005</ele><time>2026-05-02T08:50:15.08Z</time></trkpt><trkpt lat="42.2828833" lon="13.9720467"><ele>297.8</ele><time>2026-05-02T08:50:17.079Z</time></trkpt><trkpt lat="42.2829117" lon="13.97193"><ele>299.40000000000003</ele><time>2026-05-02T08:50:20.079Z</time></trkpt><trkpt lat="42.2829917" lon="13.9717667"><ele>301.0</ele><time>2026-05-02T08:50:22.079Z</time></trkpt><trkpt lat="42.283045" lon="13.971655"><ele>301.2</ele><time>2026-05-02T08:50:23.079Z</time></trkpt><trkpt lat="42.2830883" lon="13.9715267"><ele>301.40000000000003</ele><time>2026-05-02T08:50:24.079Z</time></trkpt><trkpt lat="42.2831383" lon="13.9713833"><ele>301.6</ele><time>2026-05-02T08:50:25.079Z</time></trkpt><trkpt lat="42.28319" lon="13.9712383"><ele>301.8</ele><time>2026-05-02T08:50:26.079Z</time></trkpt><trkpt lat="42.2832467" lon="13.97112"><ele>302.0</ele><time>2026-05-02T08:50:27.08Z</time></trkpt><trkpt lat="42.28332" lon="13.9710133"><ele>299.8</ele><time>2026-05-02T08:50:28.08Z</time></trkpt><trkpt lat="42.2834017" lon="13.9709167"><ele>297.6</ele><time>2026-05-02T08:50:29.08Z</time></trkpt><trkpt lat="42.28349" lon="13.97083"><ele>295.40000000000003</ele><time>2026-05-02T08:50:30.08Z</time></trkpt><trkpt lat="42.2835783" lon="13.97073"><ele>293.2</ele><time>2026-05-02T08:50:31.079Z</time></trkpt><trkpt lat="42.283665" lon="13.9706283"><ele>291.0</ele><time>2026-05-02T08:50:32.08Z</time></trkpt><trkpt lat="42.2837517" lon="13.970565"><ele>290.8</ele><time>2026-05-02T08:50:33.079Z</time></trkpt><trkpt lat="42.283845" lon="13.9705283"><ele>290.6</ele><time>2026-05-02T08:50:34.08Z</time></trkpt><trkpt lat="42.2839467" lon="13.970515"><ele>290.4</ele><time>2026-05-02T08:50:35.079Z</time></trkpt><trkpt lat="42.284065" lon="13.97051"><ele>290.2</ele><time>2026-05-02T08:50:36.079Z</time></trkpt><trkpt lat="42.2841883" lon="13.970515"><ele>290.0</ele><time>2026-05-02T08:50:37.079Z</time></trkpt><trkpt lat="42.2843383" lon="13.9705"><ele>289.33333333333337</ele><time>2026-05-02T08:50:38.079Z</time></trkpt><trkpt lat="42.2844917" lon="13.97047"><ele>288.6666666666667</ele><time>2026-05-02T08:50:39.079Z</time></trkpt><trkpt lat="42.28466" lon="13.9704167"><ele>288.0</ele><time>2026-05-02T08:50:40.08Z</time></trkpt><trkpt lat="42.28482" lon="13.970365"><ele>288.0</ele><time>2026-05-02T08:50:41.079Z</time></trkpt><trkpt lat="42.2849483" lon="13.970315"><ele>288.0</ele><time>2026-05-02T08:50:42.08Z</time></trkpt><trkpt lat="42.2850617" lon="13.970275"><ele>288.0</ele><time>2026-05-02T08:50:43.08Z</time></trkpt><trkpt lat="42.285155" lon="13.9702467"><ele>288.0</ele><time>2026-05-02T08:50:44.08Z</time></trkpt><trkpt lat="42.2852383" lon="13.9702"><ele>288.0</ele><time>2026-05-02T08:50:45.08Z</time></trkpt><trkpt lat="42.2853017" lon="13.9701367"><ele>288.0</ele><time>2026-05-02T08:50:46.08Z</time></trkpt><trkpt lat="42.285365" lon="13.97005"><ele>288.0</ele><time>2026-05-02T08:50:47.08Z</time></trkpt><trkpt lat="42.28543" lon="13.96992"><ele>288.0</ele><time>2026-05-02T08:50:48.079Z</time></trkpt><trkpt lat="42.2855" lon="13.9697483"><ele>288.0</ele><time>2026-05-02T08:50:49.079Z</time></trkpt><trkpt lat="42.2855783" lon="13.969545"><ele>288.0</ele><time>2026-05-02T08:50:50.08Z</time></trkpt><trkpt lat="42.285655" lon="13.96935"><ele>288.0</ele><time>2026-05-02T08:50:51.079Z</time></trkpt><trkpt lat="42.2857133" lon="13.9691933"><ele>288.0</ele><time>2026-05-02T08:50:52.08Z</time></trkpt><trkpt lat="42.2857617" lon="13.96905"><ele>288.0</ele><time>2026-05-02T08:50:53.079Z</time></trkpt><trkpt lat="42.2858067" lon="13.96891"><ele>289.6</ele><time>2026-05-02T08:50:54.079Z</time></trkpt><trkpt lat="42.2858567" lon="13.9687933"><ele>291.20000000000005</ele><time>2026-05-02T08:50:55.08Z</time></trkpt><trkpt lat="42.285905" lon="13.9686917"><ele>292.8</ele><time>2026-05-02T08:50:56.08Z</time></trkpt><trkpt lat="42.285975" lon="13.96859"><ele>294.40000000000003</ele><time>2026-05-02T08:50:57.08Z</time></trkpt><trkpt lat="42.286065" lon="13.9684783"><ele>296.0</ele><time>2026-05-02T08:50:58.08Z</time></trkpt><trkpt lat="42.28616" lon="13.9683467"><ele>297.0</ele><time>2026-05-02T08:50:59.08Z</time></trkpt><trkpt lat="42.286235" lon="13.9682217"><ele>298.0</ele><time>2026-05-02T08:51:00.079Z</time></trkpt><trkpt lat="42.2862967" lon="13.9681283"><ele>299.0</ele><time>2026-05-02T08:51:01.08Z</time></trkpt><trkpt lat="42.286355" lon="13.9680567"><ele>300.0</ele><time>2026-05-02T08:51:02.08Z</time></trkpt><trkpt lat="42.286405" lon="13.9679833"><ele>301.0</ele><time>2026-05-02T08:51:03.08Z</time></trkpt><trkpt lat="42.2864433" lon="13.9679117"><ele>302.0</ele><time>2026-05-02T08:51:04.08Z</time></trkpt><trkpt lat="42.2864983" lon="13.967775"><ele>300.8</ele><time>2026-05-02T08:51:06.08Z</time></trkpt><trkpt lat="42.286535" lon="13.9676967"><ele>299.6</ele><time>2026-05-02T08:51:07.079Z</time></trkpt><trkpt lat="42.28658" lon="13.9676017"><ele>298.40000000000003</ele><time>2026-05-02T08:51:08.079Z</time></trkpt><trkpt lat="42.2866333" lon="13.9674917"><ele>297.2</ele><time>2026-05-02T08:51:09.08Z</time></trkpt><trkpt lat="42.2867033" lon="13.967365"><ele>296.0</ele><time>2026-05-02T08:51:10.079Z</time></trkpt><trkpt lat="42.2867933" lon="13.9672333"><ele>296.0</ele><time>2026-05-02T08:51:11.08Z</time></trkpt><trkpt lat="42.28687" lon="13.9671033"><ele>296.0</ele><time>2026-05-02T08:51:12.079Z</time></trkpt><trkpt lat="42.286935" lon="13.9669883"><ele>296.0</ele><time>2026-05-02T08:51:13.079Z</time></trkpt><trkpt lat="42.2869667" lon="13.966875"><ele>296.0</ele><time>2026-05-02T08:51:14.079Z</time></trkpt><trkpt lat="42.286985" lon="13.966755"><ele>296.0</ele><time>2026-05-02T08:51:15.08Z</time></trkpt><trkpt lat="42.2869817" lon="13.9666133"><ele>298.75</ele><time>2026-05-02T08:51:16.079Z</time></trkpt><trkpt lat="42.2869467" lon="13.9664717"><ele>301.5</ele><time>2026-05-02T08:51:17.079Z</time></trkpt><trkpt lat="42.2868967" lon="13.966315"><ele>304.25</ele><time>2026-05-02T08:51:18.079Z</time></trkpt><trkpt lat="42.286835" lon="13.9661333"><ele>307.0</ele><time>2026-05-02T08:51:19.079Z</time></trkpt><trkpt lat="42.2867817" lon="13.965935"><ele>308.25</ele><time>2026-05-02T08:51:20.079Z</time></trkpt><trkpt lat="42.2867233" lon="13.965745"><ele>309.5</ele><time>2026-05-02T08:51:21.079Z</time></trkpt><trkpt lat="42.28667" lon="13.9655583"><ele>310.75</ele><time>2026-05-02T08:51:22.079Z</time></trkpt><trkpt lat="42.2866167" lon="13.96538"><ele>312.0</ele><time>2026-05-02T08:51:23.079Z</time></trkpt><trkpt lat="42.286575" lon="13.9652183"><ele>312.0</ele><time>2026-05-02T08:51:24.079Z</time></trkpt><trkpt lat="42.286555" lon="13.9650633"><ele>312.0</ele><time>2026-05-02T08:51:25.079Z</time></trkpt><trkpt lat="42.2865433" lon="13.9648917"><ele>312.0</ele><time>2026-05-02T08:51:26.079Z</time></trkpt><trkpt lat="42.2865467" lon="13.964715"><ele>312.0</ele><time>2026-05-02T08:51:27.079Z</time></trkpt><trkpt lat="42.2865567" lon="13.9645517"><ele>312.2</ele><time>2026-05-02T08:51:28.08Z</time></trkpt><trkpt lat="42.286575" lon="13.9644167"><ele>312.4</ele><time>2026-05-02T08:51:29.079Z</time></trkpt><trkpt lat="42.286605" lon="13.9642967"><ele>312.6</ele><time>2026-05-02T08:51:30.079Z</time></trkpt><trkpt lat="42.2866467" lon="13.9641833"><ele>312.8</ele><time>2026-05-02T08:51:31.079Z</time></trkpt><trkpt lat="42.2867017" lon="13.9640633"><ele>313.0</ele><time>2026-05-02T08:51:32.08Z</time></trkpt><trkpt lat="42.2867617" lon="13.96397"><ele>313.3333333333333</ele><time>2026-05-02T08:51:33.079Z</time></trkpt><trkpt lat="42.28682" lon="13.9639017"><ele>313.66666666666663</ele><time>2026-05-02T08:51:34.08Z</time></trkpt><trkpt lat="42.2868667" lon="13.963825"><ele>314.0</ele><time>2026-05-02T08:51:35.079Z</time></trkpt><trkpt lat="42.2868967" lon="13.96374"><ele>314.3333333333333</ele><time>2026-05-02T08:51:36.08Z</time></trkpt><trkpt lat="42.2869183" lon="13.9636317"><ele>314.6666666666667</ele><time>2026-05-02T08:51:37.08Z</time></trkpt><trkpt lat="42.2869233" lon="13.9635183"><ele>315.0</ele><time>2026-05-02T08:51:38.079Z</time></trkpt><trkpt lat="42.2869117" lon="13.9633967"><ele>313.75</ele><time>2026-05-02T08:51:39.08Z</time></trkpt><trkpt lat="42.286875" lon="13.9632733"><ele>312.5</ele><time>2026-05-02T08:51:40.08Z</time></trkpt><trkpt lat="42.2868017" lon="13.9631417"><ele>311.25</ele><time>2026-05-02T08:51:41.079Z</time></trkpt><trkpt lat="42.2867283" lon="13.9629917"><ele>310.0</ele><time>2026-05-02T08:51:42.079Z</time></trkpt><trkpt lat="42.2866483" lon="13.962805"><ele>310.0</ele><time>2026-05-02T08:51:43.08Z</time></trkpt><trkpt lat="42.28657" lon="13.9625933"><ele>310.0</ele><time>2026-05-02T08:51:44.079Z</time></trkpt><trkpt lat="42.2864967" lon="13.9623783"><ele>310.0</ele><time>2026-05-02T08:51:45.079Z</time></trkpt><trkpt lat="42.28642" lon="13.9621483"><ele>310.0</ele><time>2026-05-02T08:51:46.08Z</time></trkpt><trkpt lat="42.28634" lon="13.961915"><ele>310.0</ele><time>2026-05-02T08:51:47.079Z</time></trkpt><trkpt lat="42.2862683" lon="13.9617017"><ele>310.0</ele><time>2026-05-02T08:51:48.08Z</time></trkpt><trkpt lat="42.286205" lon="13.961515"><ele>309.0</ele><time>2026-05-02T08:51:49.079Z</time></trkpt><trkpt lat="42.2861633" lon="13.9613667"><ele>308.0</ele><time>2026-05-02T08:51:50.079Z</time></trkpt><trkpt lat="42.2861383" lon="13.9612167"><ele>307.0</ele><time>2026-05-02T08:51:51.08Z</time></trkpt><trkpt lat="42.2861283" lon="13.9610633"><ele>306.0</ele><time>2026-05-02T08:51:52.079Z</time></trkpt><trkpt lat="42.2861233" lon="13.9609017"><ele>305.5</ele><time>2026-05-02T08:51:53.08Z</time></trkpt><trkpt lat="42.2861317" lon="13.9607267"><ele>305.0</ele><time>2026-05-02T08:51:54.08Z</time></trkpt><trkpt lat="42.28615" lon="13.96055"><ele>304.5</ele><time>2026-05-02T08:51:55.08Z</time></trkpt><trkpt lat="42.28618" lon="13.9603617"><ele>304.0</ele><time>2026-05-02T08:51:56.08Z</time></trkpt><trkpt lat="42.286215" lon="13.9601683"><ele>304.0</ele><time>2026-05-02T08:51:57.08Z</time></trkpt><trkpt lat="42.2862367" lon="13.960005"><ele>304.0</ele><time>2026-05-02T08:51:58.08Z</time></trkpt><trkpt lat="42.286245" lon="13.9598933"><ele>304.0</ele><time>2026-05-02T08:51:59.079Z</time></trkpt><trkpt lat="42.2862467" lon="13.9597833"><ele>304.0</ele><time>2026-05-02T08:52:01.079Z</time></trkpt><trkpt lat="42.2862617" lon="13.959695"><ele>304.0</ele><time>2026-05-02T08:52:03.079Z</time></trkpt><trkpt lat="42.2862783" lon="13.9595217"><ele>304.0</ele><time>2026-05-02T08:52:05.08Z</time></trkpt><trkpt lat="42.2862667" lon="13.9594"><ele>304.0</ele><time>2026-05-02T08:52:06.079Z</time></trkpt><trkpt lat="42.2862333" lon="13.9592767"><ele>304.0</ele><time>2026-05-02T08:52:07.079Z</time></trkpt><trkpt lat="42.286195" lon="13.9591617"><ele>304.0</ele><time>2026-05-02T08:52:08.079Z</time></trkpt><trkpt lat="42.2861317" lon="13.9590517"><ele>304.0</ele><time>2026-05-02T08:52:09.08Z</time></trkpt><trkpt lat="42.2860483" lon="13.95893"><ele>302.4</ele><time>2026-05-02T08:52:10.079Z</time></trkpt><trkpt lat="42.2859567" lon="13.9588217"><ele>300.79999999999995</ele><time>2026-05-02T08:52:11.079Z</time></trkpt><trkpt lat="42.2858633" lon="13.9587083"><ele>299.20000000000005</ele><time>2026-05-02T08:52:12.079Z</time></trkpt><trkpt lat="42.2857833" lon="13.9586083"><ele>297.6</ele><time>2026-05-02T08:52:13.08Z</time></trkpt><trkpt lat="42.2857233" lon="13.9585217"><ele>296.0</ele><time>2026-05-02T08:52:14.079Z</time></trkpt><trkpt lat="42.2856733" lon="13.958455"><ele>296.0</ele><time>2026-05-02T08:52:15.08Z</time></trkpt><trkpt lat="42.285635" lon="13.9583867"><ele>296.0</ele><time>2026-05-02T08:52:16.08Z</time></trkpt><trkpt lat="42.2855967" lon="13.9582883"><ele>296.0</ele><time>2026-05-02T08:52:18.079Z</time></trkpt><trkpt lat="42.285505" lon="13.95818"><ele>296.0</ele><time>2026-05-02T08:52:20.079Z</time></trkpt><trkpt lat="42.2854417" lon="13.9581333"><ele>296.0</ele><time>2026-05-02T08:52:21.08Z</time></trkpt><trkpt lat="42.28537" lon="13.958105"><ele>296.0</ele><time>2026-05-02T08:52:22.079Z</time></trkpt><trkpt lat="42.28528" lon="13.9580883"><ele>295.25</ele><time>2026-05-02T08:52:23.079Z</time></trkpt><trkpt lat="42.2851833" lon="13.9580733"><ele>294.5</ele><time>2026-05-02T08:52:24.08Z</time></trkpt><trkpt lat="42.285075" lon="13.9580633"><ele>293.75</ele><time>2026-05-02T08:52:25.079Z</time></trkpt><trkpt lat="42.2849533" lon="13.9580567"><ele>293.0</ele><time>2026-05-02T08:52:26.079Z</time></trkpt><trkpt lat="42.28483" lon="13.95805"><ele>291.75</ele><time>2026-05-02T08:52:27.078Z</time></trkpt><trkpt lat="42.28469" lon="13.9580467"><ele>290.5</ele><time>2026-05-02T08:52:28.078Z</time></trkpt><trkpt lat="42.284535" lon="13.9580367"><ele>289.25</ele><time>2026-05-02T08:52:29.078Z</time></trkpt><trkpt lat="42.2843917" lon="13.95803"><ele>288.0</ele><time>2026-05-02T08:52:30.079Z</time></trkpt><trkpt lat="42.2842783" lon="13.9580217"><ele>288.0</ele><time>2026-05-02T08:52:31.079Z</time></trkpt><trkpt lat="42.2841933" lon="13.958015"><ele>288.0</ele><time>2026-05-02T08:52:32.078Z</time></trkpt><trkpt lat="42.2840967" lon="13.9580133"><ele>288.0</ele><time>2026-05-02T08:52:34.079Z</time></trkpt><trkpt lat="42.2840217" lon="13.9580117"><ele>288.0</ele><time>2026-05-02T08:52:37.078Z</time></trkpt><trkpt lat="42.284115" lon="13.9580433"><ele>288.0</ele><time>2026-05-02T08:52:42.079Z</time></trkpt><trkpt lat="42.284265" lon="13.958035"><ele>288.0</ele><time>2026-05-02T08:52:44.078Z</time></trkpt><trkpt lat="42.284355" lon="13.9580367"><ele>288.0</ele><time>2026-05-02T08:52:45.078Z</time></trkpt><trkpt lat="42.2844467" lon="13.9580433"><ele>288.0</ele><time>2026-05-02T08:52:46.079Z</time></trkpt><trkpt lat="42.2845433" lon="13.95805"><ele>288.0</ele><time>2026-05-02T08:52:47.078Z</time></trkpt><trkpt lat="42.2846433" lon="13.958055"><ele>288.0</ele><time>2026-05-02T08:52:48.078Z</time></trkpt><trkpt lat="42.2847467" lon="13.95806"><ele>288.8333333333333</ele><time>2026-05-02T08:52:49.078Z</time></trkpt><trkpt lat="42.2848433" lon="13.9580683"><ele>289.6666666666667</ele><time>2026-05-02T08:52:50.078Z</time></trkpt><trkpt lat="42.2849367" lon="13.958075"><ele>290.5</ele><time>2026-05-02T08:52:51.079Z</time></trkpt><trkpt lat="42.28501" lon="13.9580883"><ele>291.33333333333337</ele><time>2026-05-02T08:52:52.078Z</time></trkpt><trkpt lat="42.2851117" lon="13.9581083"><ele>292.1666666666667</ele><time>2026-05-02T08:52:54.078Z</time></trkpt><trkpt lat="42.2851767" lon="13.9580767"><ele>293.0</ele><time>2026-05-02T08:52:56.079Z</time></trkpt><trkpt lat="42.2851933" lon="13.9579683"><ele>293.0</ele><time>2026-05-02T08:52:59.078Z</time></trkpt><trkpt lat="42.2851283" lon="13.9579367"><ele>293.0</ele><time>2026-05-02T08:53:01.078Z</time></trkpt><trkpt lat="42.285" lon="13.9579017"><ele>293.0</ele><time>2026-05-02T08:53:03.078Z</time></trkpt><trkpt lat="42.2849133" lon="13.9578633"><ele>293.0</ele><time>2026-05-02T08:53:04.079Z</time></trkpt><trkpt lat="42.2848083" lon="13.95781"><ele>293.0</ele><time>2026-05-02T08:53:05.078Z</time></trkpt><trkpt lat="42.28469" lon="13.9577333"><ele>291.75</ele><time>2026-05-02T08:53:06.078Z</time></trkpt><trkpt lat="42.28456" lon="13.9576433"><ele>290.5</ele><time>2026-05-02T08:53:07.079Z</time></trkpt><trkpt lat="42.28443" lon="13.95755"><ele>289.25</ele><time>2026-05-02T08:53:08.079Z</time></trkpt><trkpt lat="42.284315" lon="13.9574583"><ele>288.0</ele><time>2026-05-02T08:53:09.079Z</time></trkpt><trkpt lat="42.2842117" lon="13.957355"><ele>287.25</ele><time>2026-05-02T08:53:10.078Z</time></trkpt><trkpt lat="42.2841183" lon="13.9572467"><ele>286.5</ele><time>2026-05-02T08:53:11.078Z</time></trkpt><trkpt lat="42.28403" lon="13.9571233"><ele>285.75</ele><time>2026-05-02T08:53:12.078Z</time></trkpt><trkpt lat="42.2839383" lon="13.957"><ele>285.0</ele><time>2026-05-02T08:53:13.079Z</time></trkpt><trkpt lat="42.28384" lon="13.956865"><ele>285.0</ele><time>2026-05-02T08:53:14.078Z</time></trkpt><trkpt lat="42.2837333" lon="13.956725"><ele>285.0</ele><time>2026-05-02T08:53:15.078Z</time></trkpt><trkpt lat="42.2836367" lon="13.9565883"><ele>285.0</ele><time>2026-05-02T08:53:16.078Z</time></trkpt><trkpt lat="42.2835483" lon="13.9564567"><ele>285.0</ele><time>2026-05-02T08:53:17.079Z</time></trkpt><trkpt lat="42.28346" lon="13.956315"><ele>283.0</ele><time>2026-05-02T08:53:18.079Z</time></trkpt><trkpt lat="42.2833683" lon="13.956175"><ele>281.0</ele><time>2026-05-02T08:53:19.078Z</time></trkpt><trkpt lat="42.2832833" lon="13.9560617"><ele>279.0</ele><time>2026-05-02T08:53:20.078Z</time></trkpt><trkpt lat="42.2831933" lon="13.9559483"><ele>277.0</ele><time>2026-05-02T08:53:21.079Z</time></trkpt><trkpt lat="42.2830833" lon="13.9558233"><ele>274.3333333333333</ele><time>2026-05-02T08:53:22.078Z</time></trkpt><trkpt lat="42.2829567" lon="13.955685"><ele>271.6666666666667</ele><time>2026-05-02T08:53:23.079Z</time></trkpt><trkpt lat="42.2828233" lon="13.9555233"><ele>269.0</ele><time>2026-05-02T08:53:24.079Z</time></trkpt><trkpt lat="42.28269" lon="13.9553633"><ele>269.0</ele><time>2026-05-02T08:53:25.079Z</time></trkpt><trkpt lat="42.2825717" lon="13.9552167"><ele>269.0</ele><time>2026-05-02T08:53:26.078Z</time></trkpt><trkpt lat="42.28246" lon="13.9551"><ele>269.0</ele><time>2026-05-02T08:53:27.079Z</time></trkpt><trkpt lat="42.2823483" lon="13.9550067"><ele>269.0</ele><time>2026-05-02T08:53:28.078Z</time></trkpt><trkpt lat="42.2822267" lon="13.9549433"><ele>267.0</ele><time>2026-05-02T08:53:29.078Z</time></trkpt><trkpt lat="42.282085" lon="13.954915"><ele>265.0</ele><time>2026-05-02T08:53:30.079Z</time></trkpt><trkpt lat="42.2819367" lon="13.9549167"><ele>263.0</ele><time>2026-05-02T08:53:31.079Z</time></trkpt><trkpt lat="42.2817933" lon="13.9549333"><ele>261.0</ele><time>2026-05-02T08:53:32.078Z</time></trkpt><trkpt lat="42.2816583" lon="13.9549317"><ele>261.0</ele><time>2026-05-02T08:53:33.079Z</time></trkpt><trkpt lat="42.2815417" lon="13.95491"><ele>261.0</ele><time>2026-05-02T08:53:34.078Z</time></trkpt><trkpt lat="42.2814367" lon="13.954865"><ele>261.0</ele><time>2026-05-02T08:53:35.078Z</time></trkpt><trkpt lat="42.28133" lon="13.954785"><ele>261.0</ele><time>2026-05-02T08:53:36.078Z</time></trkpt><trkpt lat="42.2812267" lon="13.9546767"><ele>260.0</ele><time>2026-05-02T08:53:37.078Z</time></trkpt><trkpt lat="42.2811" lon="13.9545483"><ele>259.0</ele><time>2026-05-02T08:53:38.079Z</time></trkpt><trkpt lat="42.2809617" lon="13.9544317"><ele>258.0</ele><time>2026-05-02T08:53:39.079Z</time></trkpt><trkpt lat="42.2808033" lon="13.9543383"><ele>258.0</ele><time>2026-05-02T08:53:40.078Z</time></trkpt><trkpt lat="42.28063" lon="13.95424"><ele>258.0</ele><time>2026-05-02T08:53:41.079Z</time></trkpt><trkpt lat="42.2804717" lon="13.9541267"><ele>258.0</ele><time>2026-05-02T08:53:42.078Z</time></trkpt><trkpt lat="42.28033" lon="13.95403"><ele>255.2</ele><time>2026-05-02T08:53:43.079Z</time></trkpt><trkpt lat="42.2802033" lon="13.953965"><ele>252.4</ele><time>2026-05-02T08:53:44.078Z</time></trkpt><trkpt lat="42.280105" lon="13.95392"><ele>249.59999999999997</ele><time>2026-05-02T08:53:45.078Z</time></trkpt><trkpt lat="42.28001" lon="13.953905"><ele>246.79999999999998</ele><time>2026-05-02T08:53:46.079Z</time></trkpt><trkpt lat="42.2799183" lon="13.953905"><ele>244.0</ele><time>2026-05-02T08:53:47.078Z</time></trkpt><trkpt lat="42.27981" lon="13.9539083"><ele>243.75</ele><time>2026-05-02T08:53:48.079Z</time></trkpt><trkpt lat="42.2796917" lon="13.95388"><ele>243.5</ele><time>2026-05-02T08:53:49.079Z</time></trkpt><trkpt lat="42.2795617" lon="13.9538183"><ele>243.25</ele><time>2026-05-02T08:53:50.078Z</time></trkpt><trkpt lat="42.279415" lon="13.9537533"><ele>243.0</ele><time>2026-05-02T08:53:51.079Z</time></trkpt><trkpt lat="42.2792617" lon="13.95369"><ele>243.0</ele><time>2026-05-02T08:53:52.078Z</time></trkpt><trkpt lat="42.2791067" lon="13.95363"><ele>243.0</ele><time>2026-05-02T08:53:53.078Z</time></trkpt><trkpt lat="42.2789467" lon="13.9535717"><ele>243.0</ele><time>2026-05-02T08:53:54.079Z</time></trkpt><trkpt lat="42.2787783" lon="13.95352"><ele>244.66666666666669</ele><time>2026-05-02T08:53:55.079Z</time></trkpt><trkpt lat="42.278625" lon="13.9534717"><ele>246.33333333333334</ele><time>2026-05-02T08:53:56.079Z</time></trkpt><trkpt lat="42.2784733" lon="13.9534283"><ele>248.0</ele><time>2026-05-02T08:53:57.078Z</time></trkpt><trkpt lat="42.2783117" lon="13.9533783"><ele>244.33333333333334</ele><time>2026-05-02T08:53:58.079Z</time></trkpt><trkpt lat="42.2781533" lon="13.9533283"><ele>240.66666666666669</ele><time>2026-05-02T08:53:59.079Z</time></trkpt><trkpt lat="42.27798" lon="13.9532783"><ele>237.0</ele><time>2026-05-02T08:54:00.079Z</time></trkpt><trkpt lat="42.2778133" lon="13.9532317"><ele>237.0</ele><time>2026-05-02T08:54:01.078Z</time></trkpt><trkpt lat="42.2776533" lon="13.9531967"><ele>237.0</ele><time>2026-05-02T08:54:02.079Z</time></trkpt><trkpt lat="42.2775283" lon="13.95316"><ele>237.0</ele><time>2026-05-02T08:54:03.078Z</time></trkpt><trkpt lat="42.2774133" lon="13.9531217"><ele>237.0</ele><time>2026-05-02T08:54:04.078Z</time></trkpt><trkpt lat="42.2773167" lon="13.9530783"><ele>237.0</ele><time>2026-05-02T08:54:05.078Z</time></trkpt><trkpt lat="42.2772417" lon="13.9530417"><ele>237.0</ele><time>2026-05-02T08:54:06.078Z</time></trkpt><trkpt lat="42.277175" lon="13.9529783"><ele>237.0</ele><time>2026-05-02T08:54:08.078Z</time></trkpt><trkpt lat="42.2772517" lon="13.95293"><ele>237.0</ele><time>2026-05-02T08:54:11.079Z</time></trkpt><trkpt lat="42.277375" lon="13.9529633"><ele>237.0</ele><time>2026-05-02T08:54:13.078Z</time></trkpt><trkpt lat="42.2774517" lon="13.95299"><ele>237.0</ele><time>2026-05-02T08:54:14.078Z</time></trkpt><trkpt lat="42.2775383" lon="13.9530083"><ele>237.0</ele><time>2026-05-02T08:54:15.078Z</time></trkpt><trkpt lat="42.2776217" lon="13.9530017"><ele>237.0</ele><time>2026-05-02T08:54:16.079Z</time></trkpt><trkpt lat="42.277705" lon="13.9529567"><ele>237.0</ele><time>2026-05-02T08:54:17.078Z</time></trkpt><trkpt lat="42.2777717" lon="13.952895"><ele>237.0</ele><time>2026-05-02T08:54:18.078Z</time></trkpt><trkpt lat="42.2778117" lon="13.9528183"><ele>237.0</ele><time>2026-05-02T08:54:19.078Z</time></trkpt><trkpt lat="42.2778317" lon="13.95273"><ele>237.0</ele><time>2026-05-02T08:54:20.078Z</time></trkpt><trkpt lat="42.2778333" lon="13.95259"><ele>237.0</ele><time>2026-05-02T08:54:22.079Z</time></trkpt><trkpt lat="42.2778117" lon="13.95247"><ele>237.0</ele><time>2026-05-02T08:54:24.079Z</time></trkpt><trkpt lat="42.2777317" lon="13.9523567"><ele>237.0</ele><time>2026-05-02T08:54:26.078Z</time></trkpt><trkpt lat="42.2776683" lon="13.9523"><ele>237.0</ele><time>2026-05-02T08:54:27.078Z</time></trkpt><trkpt lat="42.27758" lon="13.952245"><ele>235.0</ele><time>2026-05-02T08:54:28.078Z</time></trkpt><trkpt lat="42.27749" lon="13.952195"><ele>233.0</ele><time>2026-05-02T08:54:29.079Z</time></trkpt><trkpt lat="42.2774183" lon="13.9521517"><ele>231.0</ele><time>2026-05-02T08:54:30.079Z</time></trkpt><trkpt lat="42.2773483" lon="13.9520367"><ele>229.0</ele><time>2026-05-02T08:54:32.078Z</time></trkpt><trkpt lat="42.2773333" lon="13.9519533"><ele>227.0</ele><time>2026-05-02T08:54:33.078Z</time></trkpt><trkpt lat="42.2773367" lon="13.9518433"><ele>225.0</ele><time>2026-05-02T08:54:34.079Z</time></trkpt><trkpt lat="42.27735" lon="13.95173"><ele>222.6</ele><time>2026-05-02T08:54:35.079Z</time></trkpt><trkpt lat="42.277365" lon="13.95164"><ele>220.2</ele><time>2026-05-02T08:54:36.079Z</time></trkpt><trkpt lat="42.2774167" lon="13.9515183"><ele>217.8</ele><time>2026-05-02T08:54:38.078Z</time></trkpt><trkpt lat="42.2774967" lon="13.9514733"><ele>215.4</ele><time>2026-05-02T08:54:40.078Z</time></trkpt><trkpt lat="42.27762" lon="13.9515117"><ele>213.0</ele><time>2026-05-02T08:54:42.078Z</time></trkpt><trkpt lat="42.2776867" lon="13.9515233"><ele>213.0</ele><time>2026-05-02T08:54:43.079Z</time></trkpt><trkpt lat="42.2777633" lon="13.951465"><ele>213.0</ele><time>2026-05-02T08:54:45.079Z</time></trkpt><trkpt lat="42.2777567" lon="13.951355"><ele>213.0</ele><time>2026-05-02T08:54:47.079Z</time></trkpt><trkpt lat="42.2777267" lon="13.95128"><ele>213.0</ele><time>2026-05-02T08:54:48.079Z</time></trkpt><trkpt lat="42.27768" lon="13.951175"><ele>213.0</ele><time>2026-05-02T08:54:49.079Z</time></trkpt><trkpt lat="42.27762" lon="13.9510417"><ele>213.0</ele><time>2026-05-02T08:54:50.079Z</time></trkpt><trkpt lat="42.2775417" lon="13.9508867"><ele>210.0</ele><time>2026-05-02T08:54:51.078Z</time></trkpt><trkpt lat="42.277455" lon="13.9507233"><ele>207.0</ele><time>2026-05-02T08:54:52.079Z</time></trkpt><trkpt lat="42.27737" lon="13.9505617"><ele>204.0</ele><time>2026-05-02T08:54:53.078Z</time></trkpt><trkpt lat="42.2773033" lon="13.9504167"><ele>201.0</ele><time>2026-05-02T08:54:54.079Z</time></trkpt><trkpt lat="42.2772317" lon="13.950295"><ele>201.0</ele><time>2026-05-02T08:54:55.079Z</time></trkpt><trkpt lat="42.2771667" lon="13.9501967"><ele>201.0</ele><time>2026-05-02T08:54:56.078Z</time></trkpt><trkpt lat="42.27709" lon="13.9501133"><ele>201.0</ele><time>2026-05-02T08:54:57.078Z</time></trkpt><trkpt lat="42.27701" lon="13.95005"><ele>201.0</ele><time>2026-05-02T08:54:58.078Z</time></trkpt><trkpt lat="42.2769533" lon="13.9499917"><ele>201.0</ele><time>2026-05-02T08:54:59.079Z</time></trkpt><trkpt lat="42.2769" lon="13.949905"><ele>201.0</ele><time>2026-05-02T08:55:01.078Z</time></trkpt><trkpt lat="42.2769533" lon="13.9498417"><ele>199.66666666666666</ele><time>2026-05-02T08:55:03.079Z</time></trkpt><trkpt lat="42.27702" lon="13.94982"><ele>198.33333333333331</ele><time>2026-05-02T08:55:04.078Z</time></trkpt><trkpt lat="42.277125" lon="13.9498183"><ele>197.0</ele><time>2026-05-02T08:55:05.079Z</time></trkpt><trkpt lat="42.2772117" lon="13.9498067"><ele>195.66666666666666</ele><time>2026-05-02T08:55:06.079Z</time></trkpt><trkpt lat="42.2772883" lon="13.9497867"><ele>194.33333333333331</ele><time>2026-05-02T08:55:07.078Z</time></trkpt><trkpt lat="42.27735" lon="13.949725"><ele>193.0</ele><time>2026-05-02T08:55:08.078Z</time></trkpt><trkpt lat="42.2773867" lon="13.9496267"><ele>192.99999999999997</ele><time>2026-05-02T08:55:09.078Z</time></trkpt><trkpt lat="42.2774" lon="13.9495217"><ele>193.0</ele><time>2026-05-02T08:55:10.079Z</time></trkpt><trkpt lat="42.2773783" lon="13.9494367"><ele>193.0</ele><time>2026-05-02T08:55:11.078Z</time></trkpt><trkpt lat="42.277335" lon="13.94937"><ele>193.0</ele><time>2026-05-02T08:55:12.079Z</time></trkpt><trkpt lat="42.27727" lon="13.9493167"><ele>192.99999999999997</ele><time>2026-05-02T08:55:13.079Z</time></trkpt><trkpt lat="42.277175" lon="13.94929"><ele>193.0</ele><time>2026-05-02T08:55:14.079Z</time></trkpt><trkpt lat="42.277095" lon="13.9492717"><ele>193.0</ele><time>2026-05-02T08:55:15.079Z</time></trkpt><trkpt lat="42.277025" lon="13.9492367"><ele>193.0</ele><time>2026-05-02T08:55:16.078Z</time></trkpt><trkpt lat="42.27695" lon="13.949175"><ele>193.0</ele><time>2026-05-02T08:55:17.079Z</time></trkpt><trkpt lat="42.27686" lon="13.9490767"><ele>193.0</ele><time>2026-05-02T08:55:18.078Z</time></trkpt><trkpt lat="42.2767717" lon="13.9489683"><ele>193.0</ele><time>2026-05-02T08:55:19.079Z</time></trkpt><trkpt lat="42.2767033" lon="13.9488683"><ele>192.5</ele><time>2026-05-02T08:55:20.079Z</time></trkpt><trkpt lat="42.2766467" lon="13.94874"><ele>192.0</ele><time>2026-05-02T08:55:21.078Z</time></trkpt><trkpt lat="42.27661" lon="13.948595"><ele>191.5</ele><time>2026-05-02T08:55:22.078Z</time></trkpt><trkpt lat="42.2765667" lon="13.948425"><ele>191.0</ele><time>2026-05-02T08:55:23.078Z</time></trkpt><trkpt lat="42.27653" lon="13.9482417"><ele>191.0</ele><time>2026-05-02T08:55:24.078Z</time></trkpt><trkpt lat="42.2765083" lon="13.9480567"><ele>191.0</ele><time>2026-05-02T08:55:25.078Z</time></trkpt><trkpt lat="42.2764783" lon="13.947865"><ele>191.0</ele><time>2026-05-02T08:55:26.078Z</time></trkpt><trkpt lat="42.2764517" lon="13.9476867"><ele>191.0</ele><time>2026-05-02T08:55:27.079Z</time></trkpt><trkpt lat="42.2764183" lon="13.9475033"><ele>188.25</ele><time>2026-05-02T08:55:28.078Z</time></trkpt><trkpt lat="42.27639" lon="13.9473117"><ele>185.5</ele><time>2026-05-02T08:55:29.078Z</time></trkpt><trkpt lat="42.2763667" lon="13.9471233"><ele>182.75</ele><time>2026-05-02T08:55:30.079Z</time></trkpt><trkpt lat="42.2763433" lon="13.946935"><ele>180.0</ele><time>2026-05-02T08:55:31.079Z</time></trkpt><trkpt lat="42.2763117" lon="13.9467433"><ele>182.8</ele><time>2026-05-02T08:55:32.078Z</time></trkpt><trkpt lat="42.2762817" lon="13.94657"><ele>185.6</ele><time>2026-05-02T08:55:33.078Z</time></trkpt><trkpt lat="42.2762517" lon="13.9464333"><ele>188.39999999999998</ele><time>2026-05-02T08:55:34.078Z</time></trkpt><trkpt lat="42.276215" lon="13.946315"><ele>191.2</ele><time>2026-05-02T08:55:35.078Z</time></trkpt><trkpt lat="42.2761733" lon="13.9462233"><ele>194.0</ele><time>2026-05-02T08:55:36.079Z</time></trkpt><trkpt lat="42.2760583" lon="13.946115"><ele>194.0</ele><time>2026-05-02T08:55:38.078Z</time></trkpt><trkpt lat="42.2759683" lon="13.94606"><ele>194.0</ele><time>2026-05-02T08:55:39.079Z</time></trkpt><trkpt lat="42.275855" lon="13.94599"><ele>194.0</ele><time>2026-05-02T08:55:40.079Z</time></trkpt><trkpt lat="42.2757367" lon="13.9459117"><ele>194.0</ele><time>2026-05-02T08:55:41.078Z</time></trkpt><trkpt lat="42.2756367" lon="13.9458417"><ele>193.83333333333334</ele><time>2026-05-02T08:55:42.078Z</time></trkpt><trkpt lat="42.275555" lon="13.9457733"><ele>193.66666666666669</ele><time>2026-05-02T08:55:43.078Z</time></trkpt><trkpt lat="42.275495" lon="13.945695"><ele>193.5</ele><time>2026-05-02T08:55:44.079Z</time></trkpt><trkpt lat="42.275465" lon="13.9456133"><ele>193.33333333333331</ele><time>2026-05-02T08:55:45.079Z</time></trkpt><trkpt lat="42.2754583" lon="13.945525"><ele>193.16666666666666</ele><time>2026-05-02T08:55:46.078Z</time></trkpt><trkpt lat="42.275495" lon="13.94538"><ele>193.0</ele><time>2026-05-02T08:55:48.078Z</time></trkpt><trkpt lat="42.2756167" lon="13.945335"><ele>197.0</ele><time>2026-05-02T08:55:50.079Z</time></trkpt><trkpt lat="42.2757167" lon="13.9453233"><ele>201.0</ele><time>2026-05-02T08:55:51.078Z</time></trkpt><trkpt lat="42.275855" lon="13.9453"><ele>205.0</ele><time>2026-05-02T08:55:52.078Z</time></trkpt><trkpt lat="42.2759967" lon="13.9452717"><ele>209.0</ele><time>2026-05-02T08:55:53.078Z</time></trkpt><trkpt lat="42.2761333" lon="13.94524"><ele>209.0</ele><time>2026-05-02T08:55:54.078Z</time></trkpt><trkpt lat="42.2762717" lon="13.9452083"><ele>209.0</ele><time>2026-05-02T08:55:55.079Z</time></trkpt><trkpt lat="42.2764083" lon="13.9451783"><ele>209.0</ele><time>2026-05-02T08:55:56.078Z</time></trkpt><trkpt lat="42.2765467" lon="13.9451483"><ele>209.0</ele><time>2026-05-02T08:55:57.079Z</time></trkpt><trkpt lat="42.2766833" lon="13.94512"><ele>210.6</ele><time>2026-05-02T08:55:58.079Z</time></trkpt><trkpt lat="42.2768083" lon="13.9450933"><ele>212.2</ele><time>2026-05-02T08:55:59.078Z</time></trkpt><trkpt lat="42.2769033" lon="13.945045"><ele>213.79999999999998</ele><time>2026-05-02T08:56:00.078Z</time></trkpt><trkpt lat="42.276965" lon="13.94498"><ele>215.39999999999998</ele><time>2026-05-02T08:56:01.079Z</time></trkpt><trkpt lat="42.277015" lon="13.9449033"><ele>217.0</ele><time>2026-05-02T08:56:02.079Z</time></trkpt><trkpt lat="42.2770467" lon="13.9448"><ele>217.83333333333331</ele><time>2026-05-02T08:56:03.079Z</time></trkpt><trkpt lat="42.277075" lon="13.944665"><ele>218.66666666666666</ele><time>2026-05-02T08:56:04.079Z</time></trkpt><trkpt lat="42.2770983" lon="13.9445283"><ele>219.5</ele><time>2026-05-02T08:56:05.079Z</time></trkpt><trkpt lat="42.2771117" lon="13.9444183"><ele>220.33333333333331</ele><time>2026-05-02T08:56:06.079Z</time></trkpt><trkpt lat="42.27713" lon="13.9443233"><ele>221.16666666666666</ele><time>2026-05-02T08:56:07.079Z</time></trkpt><trkpt lat="42.277145" lon="13.9442167"><ele>222.0</ele><time>2026-05-02T08:56:08.079Z</time></trkpt><trkpt lat="42.27716" lon="13.9441033"><ele>222.2</ele><time>2026-05-02T08:56:09.079Z</time></trkpt><trkpt lat="42.2771783" lon="13.9439817"><ele>222.39999999999998</ele><time>2026-05-02T08:56:10.078Z</time></trkpt><trkpt lat="42.2771867" lon="13.9438417"><ele>222.60000000000002</ele><time>2026-05-02T08:56:11.078Z</time></trkpt><trkpt lat="42.277185" lon="13.943685"><ele>222.8</ele><time>2026-05-02T08:56:12.079Z</time></trkpt><trkpt lat="42.277165" lon="13.9435283"><ele>223.0</ele><time>2026-05-02T08:56:13.078Z</time></trkpt><trkpt lat="42.2771367" lon="13.9433783"><ele>223.99999999999997</ele><time>2026-05-02T08:56:14.079Z</time></trkpt><trkpt lat="42.2770917" lon="13.9432683"><ele>225.0</ele><time>2026-05-02T08:56:15.079Z</time></trkpt><trkpt lat="42.2770367" lon="13.9431833"><ele>226.0</ele><time>2026-05-02T08:56:16.079Z</time></trkpt><trkpt lat="42.2769717" lon="13.943105"><ele>227.0</ele><time>2026-05-02T08:56:17.078Z</time></trkpt><trkpt lat="42.27689" lon="13.9430467"><ele>227.99999999999997</ele><time>2026-05-02T08:56:18.079Z</time></trkpt><trkpt lat="42.27681" lon="13.9430033"><ele>229.0</ele><time>2026-05-02T08:56:19.078Z</time></trkpt><trkpt lat="42.2767333" lon="13.9429833"><ele>229.0</ele><time>2026-05-02T08:56:20.079Z</time></trkpt><trkpt lat="42.276655" lon="13.94296"><ele>228.99999999999997</ele><time>2026-05-02T08:56:21.079Z</time></trkpt><trkpt lat="42.27656" lon="13.942935"><ele>228.99999999999997</ele><time>2026-05-02T08:56:22.079Z</time></trkpt><trkpt lat="42.27646" lon="13.942915"><ele>229.0</ele><time>2026-05-02T08:56:23.078Z</time></trkpt><trkpt lat="42.276355" lon="13.9428917"><ele>229.0</ele><time>2026-05-02T08:56:24.078Z</time></trkpt><trkpt lat="42.2762583" lon="13.9428633"><ele>229.49999999999997</ele><time>2026-05-02T08:56:25.079Z</time></trkpt><trkpt lat="42.2761867" lon="13.942825"><ele>230.0</ele><time>2026-05-02T08:56:26.079Z</time></trkpt><trkpt lat="42.276135" lon="13.9427683"><ele>230.5</ele><time>2026-05-02T08:56:27.078Z</time></trkpt><trkpt lat="42.27609" lon="13.9426817"><ele>231.0</ele><time>2026-05-02T08:56:28.078Z</time></trkpt><trkpt lat="42.2760533" lon="13.9425683"><ele>231.49999999999997</ele><time>2026-05-02T08:56:29.078Z</time></trkpt><trkpt lat="42.2760083" lon="13.942415"><ele>232.0</ele><time>2026-05-02T08:56:30.079Z</time></trkpt><trkpt lat="42.2759433" lon="13.9422283"><ele>232.0</ele><time>2026-05-02T08:56:31.079Z</time></trkpt><trkpt lat="42.2758767" lon="13.9420317"><ele>232.0</ele><time>2026-05-02T08:56:32.078Z</time></trkpt><trkpt lat="42.2758283" lon="13.9418633"><ele>232.0</ele><time>2026-05-02T08:56:33.078Z</time></trkpt><trkpt lat="42.2757883" lon="13.9417383"><ele>232.0</ele><time>2026-05-02T08:56:34.079Z</time></trkpt><trkpt lat="42.2757533" lon="13.9416417"><ele>234.6</ele><time>2026-05-02T08:56:35.078Z</time></trkpt><trkpt lat="42.2757233" lon="13.941565"><ele>237.2</ele><time>2026-05-02T08:56:36.078Z</time></trkpt><trkpt lat="42.27571" lon="13.941475"><ele>239.8</ele><time>2026-05-02T08:56:37.079Z</time></trkpt><trkpt lat="42.2756917" lon="13.9413483"><ele>242.4</ele><time>2026-05-02T08:56:38.078Z</time></trkpt><trkpt lat="42.2756583" lon="13.941195"><ele>245.0</ele><time>2026-05-02T08:56:39.079Z</time></trkpt><trkpt lat="42.275625" lon="13.9410333"><ele>245.6</ele><time>2026-05-02T08:56:40.078Z</time></trkpt><trkpt lat="42.2755967" lon="13.9408733"><ele>246.2</ele><time>2026-05-02T08:56:41.078Z</time></trkpt><trkpt lat="42.2755833" lon="13.9407217"><ele>246.8</ele><time>2026-05-02T08:56:42.079Z</time></trkpt><trkpt lat="42.275585" lon="13.9405867"><ele>247.4</ele><time>2026-05-02T08:56:43.079Z</time></trkpt><trkpt lat="42.2755933" lon="13.9404583"><ele>248.0</ele><time>2026-05-02T08:56:44.078Z</time></trkpt><trkpt lat="42.2756117" lon="13.94034"><ele>248.0</ele><time>2026-05-02T08:56:45.079Z</time></trkpt><trkpt lat="42.2756267" lon="13.9402333"><ele>248.0</ele><time>2026-05-02T08:56:46.079Z</time></trkpt><trkpt lat="42.2756383" lon="13.9400867"><ele>248.0</ele><time>2026-05-02T08:56:48.079Z</time></trkpt><trkpt lat="42.2755383" lon="13.9400617"><ele>248.0</ele><time>2026-05-02T08:56:51.078Z</time></trkpt><trkpt lat="42.2754533" lon="13.940105"><ele>248.0</ele><time>2026-05-02T08:56:52.079Z</time></trkpt><trkpt lat="42.275345" lon="13.9401717"><ele>242.66666666666669</ele><time>2026-05-02T08:56:53.079Z</time></trkpt><trkpt lat="42.27522" lon="13.940265"><ele>237.33333333333331</ele><time>2026-05-02T08:56:54.079Z</time></trkpt><trkpt lat="42.2750633" lon="13.9403767"><ele>232.0</ele><time>2026-05-02T08:56:55.078Z</time></trkpt><trkpt lat="42.2749017" lon="13.940485"><ele>228.66666666666666</ele><time>2026-05-02T08:56:56.078Z</time></trkpt><trkpt lat="42.2747583" lon="13.9405817"><ele>225.33333333333331</ele><time>2026-05-02T08:56:57.078Z</time></trkpt><trkpt lat="42.2746217" lon="13.9406533"><ele>222.0</ele><time>2026-05-02T08:56:58.078Z</time></trkpt><trkpt lat="42.274475" lon="13.9407167"><ele>222.0</ele><time>2026-05-02T08:56:59.078Z</time></trkpt><trkpt lat="42.2743483" lon="13.940765"><ele>222.0</ele><time>2026-05-02T08:57:00.079Z</time></trkpt><trkpt lat="42.274225" lon="13.9408017"><ele>222.0</ele><time>2026-05-02T08:57:01.079Z</time></trkpt><trkpt lat="42.2741017" lon="13.940815"><ele>222.0</ele><time>2026-05-02T08:57:02.079Z</time></trkpt><trkpt lat="42.2739683" lon="13.940805"><ele>218.5</ele><time>2026-05-02T08:57:03.078Z</time></trkpt><trkpt lat="42.2738433" lon="13.9407767"><ele>215.0</ele><time>2026-05-02T08:57:04.079Z</time></trkpt><trkpt lat="42.2737067" lon="13.9407333"><ele>211.5</ele><time>2026-05-02T08:57:05.079Z</time></trkpt><trkpt lat="42.2735517" lon="13.9406867"><ele>208.0</ele><time>2026-05-02T08:57:06.079Z</time></trkpt><trkpt lat="42.2733867" lon="13.9406417"><ele>208.0</ele><time>2026-05-02T08:57:07.078Z</time></trkpt><trkpt lat="42.273215" lon="13.9406067"><ele>208.0</ele><time>2026-05-02T08:57:08.079Z</time></trkpt><trkpt lat="42.2730467" lon="13.9405717"><ele>208.0</ele><time>2026-05-02T08:57:09.079Z</time></trkpt><trkpt lat="42.27288" lon="13.940535"><ele>205.25</ele><time>2026-05-02T08:57:10.078Z</time></trkpt><trkpt lat="42.2727283" lon="13.94051"><ele>202.5</ele><time>2026-05-02T08:57:11.078Z</time></trkpt><trkpt lat="42.2726067" lon="13.9404933"><ele>199.75</ele><time>2026-05-02T08:57:12.078Z</time></trkpt><trkpt lat="42.2725033" lon="13.94047"><ele>197.0</ele><time>2026-05-02T08:57:13.078Z</time></trkpt><trkpt lat="42.2724267" lon="13.9404483"><ele>197.0</ele><time>2026-05-02T08:57:14.078Z</time></trkpt><trkpt lat="42.2723667" lon="13.9403483"><ele>197.0</ele><time>2026-05-02T08:57:16.078Z</time></trkpt><trkpt lat="42.272425" lon="13.9401817"><ele>197.0</ele><time>2026-05-02T08:57:18.079Z</time></trkpt><trkpt lat="42.272505" lon="13.94007"><ele>197.0</ele><time>2026-05-02T08:57:19.078Z</time></trkpt><trkpt lat="42.2726183" lon="13.9399367"><ele>196.8</ele><time>2026-05-02T08:57:20.078Z</time></trkpt><trkpt lat="42.272725" lon="13.93982"><ele>196.6</ele><time>2026-05-02T08:57:21.078Z</time></trkpt><trkpt lat="42.2728067" lon="13.9397267"><ele>196.4</ele><time>2026-05-02T08:57:22.078Z</time></trkpt><trkpt lat="42.272875" lon="13.9396433"><ele>196.20000000000002</ele><time>2026-05-02T08:57:23.078Z</time></trkpt><trkpt lat="42.2729217" lon="13.9395617"><ele>196.0</ele><time>2026-05-02T08:57:24.079Z</time></trkpt><trkpt lat="42.272945" lon="13.93947"><ele>195.99999999999997</ele><time>2026-05-02T08:57:25.079Z</time></trkpt><trkpt lat="42.2729433" lon="13.93937"><ele>196.0</ele><time>2026-05-02T08:57:26.078Z</time></trkpt><trkpt lat="42.2729283" lon="13.93927"><ele>196.0</ele><time>2026-05-02T08:57:27.078Z</time></trkpt><trkpt lat="42.2729" lon="13.93918"><ele>196.0</ele><time>2026-05-02T08:57:28.078Z</time></trkpt><trkpt lat="42.2728617" lon="13.9390983"><ele>195.99999999999997</ele><time>2026-05-02T08:57:29.079Z</time></trkpt><trkpt lat="42.27281" lon="13.9390183"><ele>196.0</ele><time>2026-05-02T08:57:30.079Z</time></trkpt><trkpt lat="42.272735" lon="13.938915"><ele>194.60000000000002</ele><time>2026-05-02T08:57:31.079Z</time></trkpt><trkpt lat="42.2726467" lon="13.9388017"><ele>193.2</ele><time>2026-05-02T08:57:32.079Z</time></trkpt><trkpt lat="42.272565" lon="13.938705"><ele>191.8</ele><time>2026-05-02T08:57:33.078Z</time></trkpt><trkpt lat="42.2724867" lon="13.9386283"><ele>190.39999999999998</ele><time>2026-05-02T08:57:34.078Z</time></trkpt><trkpt lat="42.2723867" lon="13.9385667"><ele>189.0</ele><time>2026-05-02T08:57:35.078Z</time></trkpt><trkpt lat="42.2722817" lon="13.938505"><ele>187.79999999999998</ele><time>2026-05-02T08:57:36.078Z</time></trkpt><trkpt lat="42.2721617" lon="13.93845"><ele>186.6</ele><time>2026-05-02T08:57:37.079Z</time></trkpt><trkpt lat="42.272045" lon="13.9384083"><ele>185.4</ele><time>2026-05-02T08:57:38.079Z</time></trkpt><trkpt lat="42.2719467" lon="13.938385"><ele>184.2</ele><time>2026-05-02T08:57:39.078Z</time></trkpt><trkpt lat="42.2718667" lon="13.9383683"><ele>183.0</ele><time>2026-05-02T08:57:40.078Z</time></trkpt><trkpt lat="42.271805" lon="13.9383417"><ele>181.2</ele><time>2026-05-02T08:57:41.078Z</time></trkpt><trkpt lat="42.27173" lon="13.9382167"><ele>179.4</ele><time>2026-05-02T08:57:43.078Z</time></trkpt><trkpt lat="42.2717033" lon="13.93811"><ele>177.6</ele><time>2026-05-02T08:57:44.078Z</time></trkpt><trkpt lat="42.2716667" lon="13.938"><ele>175.79999999999998</ele><time>2026-05-02T08:57:45.078Z</time></trkpt><trkpt lat="42.27162" lon="13.93791"><ele>174.0</ele><time>2026-05-02T08:57:46.078Z</time></trkpt><trkpt lat="42.2715517" lon="13.9378617"><ele>174.0</ele><time>2026-05-02T08:57:47.078Z</time></trkpt><trkpt lat="42.2714633" lon="13.9378333"><ele>174.0</ele><time>2026-05-02T08:57:48.078Z</time></trkpt><trkpt lat="42.2713517" lon="13.937835"><ele>174.0</ele><time>2026-05-02T08:57:49.079Z</time></trkpt><trkpt lat="42.2712417" lon="13.9378583"><ele>174.0</ele><time>2026-05-02T08:57:50.078Z</time></trkpt><trkpt lat="42.2711583" lon="13.93791"><ele>174.0</ele><time>2026-05-02T08:57:51.078Z</time></trkpt><trkpt lat="42.2710983" lon="13.9379717"><ele>173.25</ele><time>2026-05-02T08:57:52.078Z</time></trkpt><trkpt lat="42.27104" lon="13.9380617"><ele>172.5</ele><time>2026-05-02T08:57:53.078Z</time></trkpt><trkpt lat="42.270975" lon="13.9381917"><ele>171.75</ele><time>2026-05-02T08:57:54.077Z</time></trkpt><trkpt lat="42.2709117" lon="13.9383583"><ele>171.0</ele><time>2026-05-02T08:57:55.078Z</time></trkpt><trkpt lat="42.270865" lon="13.9385183"><ele>171.0</ele><time>2026-05-02T08:57:56.077Z</time></trkpt><trkpt lat="42.2708283" lon="13.9386633"><ele>171.0</ele><time>2026-05-02T08:57:57.077Z</time></trkpt><trkpt lat="42.2707917" lon="13.9388117"><ele>171.0</ele><time>2026-05-02T08:57:58.078Z</time></trkpt><trkpt lat="42.2707517" lon="13.9389783"><ele>171.0</ele><time>2026-05-02T08:57:59.078Z</time></trkpt><trkpt lat="42.27071" lon="13.9391483"><ele>171.25</ele><time>2026-05-02T08:58:00.077Z</time></trkpt><trkpt lat="42.2706783" lon="13.9393333"><ele>171.5</ele><time>2026-05-02T08:58:01.078Z</time></trkpt><trkpt lat="42.2706433" lon="13.939545"><ele>171.75</ele><time>2026-05-02T08:58:02.078Z</time></trkpt><trkpt lat="42.2706033" lon="13.9397367"><ele>172.0</ele><time>2026-05-02T08:58:03.078Z</time></trkpt><trkpt lat="42.270555" lon="13.939925"><ele>167.0</ele><time>2026-05-02T08:58:04.078Z</time></trkpt><trkpt lat="42.2704867" lon="13.940105"><ele>162.0</ele><time>2026-05-02T08:58:05.078Z</time></trkpt><trkpt lat="42.2704067" lon="13.940295"><ele>157.0</ele><time>2026-05-02T08:58:06.077Z</time></trkpt><trkpt lat="42.27034" lon="13.9404783"><ele>157.0</ele><time>2026-05-02T08:58:07.078Z</time></trkpt><trkpt lat="42.2702767" lon="13.9406517"><ele>157.0</ele><time>2026-05-02T08:58:08.077Z</time></trkpt><trkpt lat="42.2702267" lon="13.9408067"><ele>157.0</ele><time>2026-05-02T08:58:09.078Z</time></trkpt><trkpt lat="42.2701883" lon="13.94094"><ele>157.0</ele><time>2026-05-02T08:58:10.077Z</time></trkpt><trkpt lat="42.270145" lon="13.94107"><ele>157.0</ele><time>2026-05-02T08:58:11.077Z</time></trkpt><trkpt lat="42.2700983" lon="13.941185"><ele>157.0</ele><time>2026-05-02T08:58:12.078Z</time></trkpt><trkpt lat="42.2700367" lon="13.9412883"><ele>157.0</ele><time>2026-05-02T08:58:13.077Z</time></trkpt><trkpt lat="42.269965" lon="13.9413917"><ele>157.0</ele><time>2026-05-02T08:58:14.078Z</time></trkpt><trkpt lat="42.2699133" lon="13.9414767"><ele>157.0</ele><time>2026-05-02T08:58:15.078Z</time></trkpt><trkpt lat="42.2698867" lon="13.9415817"><ele>157.0</ele><time>2026-05-02T08:58:16.077Z</time></trkpt><trkpt lat="42.2698833" lon="13.9417083"><ele>157.0</ele><time>2026-05-02T08:58:17.078Z</time></trkpt><trkpt lat="42.2699" lon="13.9418433"><ele>157.0</ele><time>2026-05-02T08:58:18.078Z</time></trkpt><trkpt lat="42.2699117" lon="13.94196"><ele>157.0</ele><time>2026-05-02T08:58:19.078Z</time></trkpt><trkpt lat="42.2699133" lon="13.942065"><ele>157.0</ele><time>2026-05-02T08:58:20.077Z</time></trkpt><trkpt lat="42.2698967" lon="13.9421583"><ele>157.0</ele><time>2026-05-02T08:58:21.077Z</time></trkpt><trkpt lat="42.26985" lon="13.9422383"><ele>156.2</ele><time>2026-05-02T08:58:22.077Z</time></trkpt><trkpt lat="42.2697867" lon="13.9422917"><ele>155.39999999999998</ele><time>2026-05-02T08:58:23.077Z</time></trkpt><trkpt lat="42.2697017" lon="13.942335"><ele>154.60000000000002</ele><time>2026-05-02T08:58:24.077Z</time></trkpt><trkpt lat="42.2695967" lon="13.9423833"><ele>153.8</ele><time>2026-05-02T08:58:25.078Z</time></trkpt><trkpt lat="42.2694667" lon="13.9424383"><ele>153.0</ele><time>2026-05-02T08:58:26.077Z</time></trkpt><trkpt lat="42.2693167" lon="13.9424933"><ele>152.0</ele><time>2026-05-02T08:58:27.078Z</time></trkpt><trkpt lat="42.2691583" lon="13.9425333"><ele>151.0</ele><time>2026-05-02T08:58:28.077Z</time></trkpt><trkpt lat="42.2690233" lon="13.94258"><ele>150.0</ele><time>2026-05-02T08:58:29.078Z</time></trkpt><trkpt lat="42.268915" lon="13.9426217"><ele>149.0</ele><time>2026-05-02T08:58:30.078Z</time></trkpt><trkpt lat="42.2688267" lon="13.9426467"><ele>148.5</ele><time>2026-05-02T08:58:31.077Z</time></trkpt><trkpt lat="42.2687583" lon="13.9426683"><ele>148.0</ele><time>2026-05-02T08:58:32.077Z</time></trkpt><trkpt lat="42.268695" lon="13.9426867"><ele>147.5</ele><time>2026-05-02T08:58:33.077Z</time></trkpt><trkpt lat="42.2686283" lon="13.9426917"><ele>147.0</ele><time>2026-05-02T08:58:34.077Z</time></trkpt><trkpt lat="42.2685433" lon="13.94268"><ele>146.5</ele><time>2026-05-02T08:58:35.077Z</time></trkpt><trkpt lat="42.26845" lon="13.9426467"><ele>146.0</ele><time>2026-05-02T08:58:36.078Z</time></trkpt><trkpt lat="42.268355" lon="13.9425917"><ele>146.33333333333331</ele><time>2026-05-02T08:58:37.078Z</time></trkpt><trkpt lat="42.2682717" lon="13.942505"><ele>146.66666666666666</ele><time>2026-05-02T08:58:38.077Z</time></trkpt><trkpt lat="42.2681933" lon="13.942415"><ele>147.0</ele><time>2026-05-02T08:58:39.077Z</time></trkpt><trkpt lat="42.26812" lon="13.94235"><ele>147.33333333333334</ele><time>2026-05-02T08:58:40.078Z</time></trkpt><trkpt lat="42.268055" lon="13.9423133"><ele>147.66666666666669</ele><time>2026-05-02T08:58:41.077Z</time></trkpt><trkpt lat="42.26798" lon="13.9423"><ele>148.0</ele><time>2026-05-02T08:58:42.078Z</time></trkpt><trkpt lat="42.267895" lon="13.9423033"><ele>150.20000000000002</ele><time>2026-05-02T08:58:43.077Z</time></trkpt><trkpt lat="42.26782" lon="13.942295"><ele>152.4</ele><time>2026-05-02T08:58:44.077Z</time></trkpt><trkpt lat="42.267725" lon="13.9422317"><ele>154.60000000000002</ele><time>2026-05-02T08:58:46.078Z</time></trkpt><trkpt lat="42.2676867" lon="13.9420417"><ele>156.8</ele><time>2026-05-02T08:58:48.077Z</time></trkpt><trkpt lat="42.2676717" lon="13.9419033"><ele>159.0</ele><time>2026-05-02T08:58:49.077Z</time></trkpt><trkpt lat="42.267655" lon="13.9417617"><ele>158.8</ele><time>2026-05-02T08:58:50.078Z</time></trkpt><trkpt lat="42.26763" lon="13.9416383"><ele>158.60000000000002</ele><time>2026-05-02T08:58:51.078Z</time></trkpt><trkpt lat="42.2675883" lon="13.9415217"><ele>158.4</ele><time>2026-05-02T08:58:52.078Z</time></trkpt><trkpt lat="42.2675283" lon="13.94141"><ele>158.20000000000002</ele><time>2026-05-02T08:58:53.077Z</time></trkpt><trkpt lat="42.2674583" lon="13.9412817"><ele>158.0</ele><time>2026-05-02T08:58:54.077Z</time></trkpt><trkpt lat="42.2673933" lon="13.9411817"><ele>158.0</ele><time>2026-05-02T08:58:55.077Z</time></trkpt><trkpt lat="42.267335" lon="13.9410883"><ele>158.0</ele><time>2026-05-02T08:58:56.077Z</time></trkpt><trkpt lat="42.2672783" lon="13.9409917"><ele>158.0</ele><time>2026-05-02T08:58:57.078Z</time></trkpt><trkpt lat="42.2672133" lon="13.94088"><ele>158.0</ele><time>2026-05-02T08:58:58.077Z</time></trkpt><trkpt lat="42.267145" lon="13.9407533"><ele>158.0</ele><time>2026-05-02T08:58:59.077Z</time></trkpt><trkpt lat="42.26708" lon="13.9406133"><ele>160.66666666666666</ele><time>2026-05-02T08:59:00.078Z</time></trkpt><trkpt lat="42.2670167" lon="13.9404967"><ele>163.33333333333331</ele><time>2026-05-02T08:59:01.078Z</time></trkpt><trkpt lat="42.2669667" lon="13.940395"><ele>166.0</ele><time>2026-05-02T08:59:02.078Z</time></trkpt><trkpt lat="42.2669233" lon="13.9402883"><ele>168.66666666666666</ele><time>2026-05-02T08:59:03.077Z</time></trkpt><trkpt lat="42.2668933" lon="13.9402033"><ele>171.33333333333334</ele><time>2026-05-02T08:59:04.077Z</time></trkpt><trkpt lat="42.2668217" lon="13.9401333"><ele>174.0</ele><time>2026-05-02T08:59:06.077Z</time></trkpt><trkpt lat="42.2667433" lon="13.9401967"><ele>174.0</ele><time>2026-05-02T08:59:08.078Z</time></trkpt><trkpt lat="42.2667083" lon="13.94028"><ele>174.0</ele><time>2026-05-02T08:59:09.078Z</time></trkpt><trkpt lat="42.266675" lon="13.9403917"><ele>174.0</ele><time>2026-05-02T08:59:10.077Z</time></trkpt><trkpt lat="42.2666333" lon="13.940535"><ele>174.0</ele><time>2026-05-02T08:59:11.077Z</time></trkpt><trkpt lat="42.2665767" lon="13.9406883"><ele>174.0</ele><time>2026-05-02T08:59:12.077Z</time></trkpt><trkpt lat="42.2665183" lon="13.94085"><ele>173.75</ele><time>2026-05-02T08:59:13.078Z</time></trkpt><trkpt lat="42.2664667" lon="13.941015"><ele>173.5</ele><time>2026-05-02T08:59:14.078Z</time></trkpt><trkpt lat="42.2664133" lon="13.9411883"><ele>173.25</ele><time>2026-05-02T08:59:15.078Z</time></trkpt><trkpt lat="42.266365" lon="13.9413417"><ele>173.0</ele><time>2026-05-02T08:59:16.078Z</time></trkpt><trkpt lat="42.2663267" lon="13.9414833"><ele>177.0</ele><time>2026-05-02T08:59:17.077Z</time></trkpt><trkpt lat="42.2663183" lon="13.9415983"><ele>181.0</ele><time>2026-05-02T08:59:18.077Z</time></trkpt><trkpt lat="42.2663283" lon="13.9416983"><ele>185.0</ele><time>2026-05-02T08:59:19.078Z</time></trkpt><trkpt lat="42.266345" lon="13.9418183"><ele>189.0</ele><time>2026-05-02T08:59:20.077Z</time></trkpt><trkpt lat="42.2663683" lon="13.9419617"><ele>193.0</ele><time>2026-05-02T08:59:21.077Z</time></trkpt><trkpt lat="42.2663933" lon="13.9421317"><ele>194.0</ele><time>2026-05-02T08:59:22.077Z</time></trkpt><trkpt lat="42.2664167" lon="13.9423217"><ele>195.0</ele><time>2026-05-02T08:59:23.077Z</time></trkpt><trkpt lat="42.2664483" lon="13.9425017"><ele>196.0</ele><time>2026-05-02T08:59:24.078Z</time></trkpt><trkpt lat="42.26647" lon="13.9426717"><ele>197.0</ele><time>2026-05-02T08:59:25.078Z</time></trkpt><trkpt lat="42.2664917" lon="13.9428333"><ele>196.8</ele><time>2026-05-02T08:59:26.078Z</time></trkpt><trkpt lat="42.26651" lon="13.942975"><ele>196.6</ele><time>2026-05-02T08:59:27.077Z</time></trkpt><trkpt lat="42.2665183" lon="13.9430983"><ele>196.4</ele><time>2026-05-02T08:59:28.078Z</time></trkpt><trkpt lat="42.266515" lon="13.9431983"><ele>196.20000000000002</ele><time>2026-05-02T08:59:29.078Z</time></trkpt><trkpt lat="42.2664867" lon="13.943315"><ele>196.0</ele><time>2026-05-02T08:59:31.077Z</time></trkpt><trkpt lat="42.2663767" lon="13.94333"><ele>196.0</ele><time>2026-05-02T08:59:33.077Z</time></trkpt><trkpt lat="42.2662983" lon="13.943325"><ele>196.0</ele><time>2026-05-02T08:59:34.077Z</time></trkpt><trkpt lat="42.2662067" lon="13.9433283"><ele>196.0</ele><time>2026-05-02T08:59:35.078Z</time></trkpt><trkpt lat="42.2661033" lon="13.94334"><ele>196.0</ele><time>2026-05-02T08:59:36.077Z</time></trkpt><trkpt lat="42.2659933" lon="13.94335"><ele>196.0</ele><time>2026-05-02T08:59:37.078Z</time></trkpt><trkpt lat="42.2658817" lon="13.9433517"><ele>196.0</ele><time>2026-05-02T08:59:38.077Z</time></trkpt><trkpt lat="42.2657783" lon="13.9433417"><ele>196.0</ele><time>2026-05-02T08:59:39.078Z</time></trkpt><trkpt lat="42.26569" lon="13.9433083"><ele>196.0</ele><time>2026-05-02T08:59:40.077Z</time></trkpt><trkpt lat="42.2656117" lon="13.9432467"><ele>196.0</ele><time>2026-05-02T08:59:41.077Z</time></trkpt><trkpt lat="42.2655317" lon="13.9431667"><ele>196.0</ele><time>2026-05-02T08:59:42.078Z</time></trkpt><trkpt lat="42.2654583" lon="13.9430917"><ele>195.33333333333331</ele><time>2026-05-02T08:59:43.077Z</time></trkpt><trkpt lat="42.2654067" lon="13.9430333"><ele>194.66666666666666</ele><time>2026-05-02T08:59:44.077Z</time></trkpt><trkpt lat="42.2653583" lon="13.9429667"><ele>194.0</ele><time>2026-05-02T08:59:45.078Z</time></trkpt><trkpt lat="42.265315" lon="13.9428883"><ele>193.33333333333331</ele><time>2026-05-02T08:59:46.077Z</time></trkpt><trkpt lat="42.2652783" lon="13.9427917"><ele>192.66666666666666</ele><time>2026-05-02T08:59:47.077Z</time></trkpt><trkpt lat="42.265245" lon="13.9426767"><ele>192.0</ele><time>2026-05-02T08:59:48.078Z</time></trkpt><trkpt lat="42.2652083" lon="13.9425717"><ele>195.0</ele><time>2026-05-02T08:59:49.078Z</time></trkpt><trkpt lat="42.2651683" lon="13.942485"><ele>198.0</ele><time>2026-05-02T08:59:50.077Z</time></trkpt><trkpt lat="42.26513" lon="13.94239"><ele>201.0</ele><time>2026-05-02T08:59:51.077Z</time></trkpt><trkpt lat="42.2650817" lon="13.94228"><ele>204.0</ele><time>2026-05-02T08:59:52.077Z</time></trkpt><trkpt lat="42.2650333" lon="13.9421567"><ele>207.0</ele><time>2026-05-02T08:59:53.077Z</time></trkpt><trkpt lat="42.26498" lon="13.942015"><ele>207.0</ele><time>2026-05-02T08:59:54.077Z</time></trkpt><trkpt lat="42.26492" lon="13.9418783"><ele>207.0</ele><time>2026-05-02T08:59:55.078Z</time></trkpt><trkpt lat="42.2648583" lon="13.9417333"><ele>207.0</ele><time>2026-05-02T08:59:56.078Z</time></trkpt><trkpt lat="42.2648017" lon="13.9415967"><ele>207.0</ele><time>2026-05-02T08:59:57.078Z</time></trkpt><trkpt lat="42.26476" lon="13.94148"><ele>207.6</ele><time>2026-05-02T08:59:58.077Z</time></trkpt><trkpt lat="42.2647367" lon="13.9413383"><ele>208.2</ele><time>2026-05-02T08:59:59.077Z</time></trkpt><trkpt lat="42.2647183" lon="13.9411983"><ele>208.8</ele><time>2026-05-02T09:00:00.077Z</time></trkpt><trkpt lat="42.264715" lon="13.9410633"><ele>209.4</ele><time>2026-05-02T09:00:01.078Z</time></trkpt><trkpt lat="42.2647133" lon="13.9409333"><ele>210.0</ele><time>2026-05-02T09:00:02.077Z</time></trkpt><trkpt lat="42.264705" lon="13.9408067"><ele>212.4</ele><time>2026-05-02T09:00:03.077Z</time></trkpt><trkpt lat="42.264685" lon="13.9406767"><ele>214.8</ele><time>2026-05-02T09:00:04.077Z</time></trkpt><trkpt lat="42.26466" lon="13.940535"><ele>217.2</ele><time>2026-05-02T09:00:05.078Z</time></trkpt><trkpt lat="42.2646317" lon="13.9403917"><ele>219.6</ele><time>2026-05-02T09:00:06.078Z</time></trkpt><trkpt lat="42.2645983" lon="13.9402533"><ele>222.0</ele><time>2026-05-02T09:00:07.077Z</time></trkpt><trkpt lat="42.26457" lon="13.940105"><ele>223.0</ele><time>2026-05-02T09:00:08.078Z</time></trkpt><trkpt lat="42.26455" lon="13.9399433"><ele>224.0</ele><time>2026-05-02T09:00:09.078Z</time></trkpt><trkpt lat="42.2645283" lon="13.939785"><ele>225.0</ele><time>2026-05-02T09:00:10.077Z</time></trkpt><trkpt lat="42.2645067" lon="13.9396483"><ele>226.0</ele><time>2026-05-02T09:00:11.077Z</time></trkpt><trkpt lat="42.264485" lon="13.939515"><ele>227.0</ele><time>2026-05-02T09:00:12.077Z</time></trkpt><trkpt lat="42.2644483" lon="13.9393883"><ele>227.0</ele><time>2026-05-02T09:00:13.078Z</time></trkpt><trkpt lat="42.2644067" lon="13.939265"><ele>227.0</ele><time>2026-05-02T09:00:14.077Z</time></trkpt><trkpt lat="42.2643783" lon="13.9391517"><ele>227.0</ele><time>2026-05-02T09:00:15.077Z</time></trkpt><trkpt lat="42.2643467" lon="13.9390583"><ele>227.0</ele><time>2026-05-02T09:00:16.078Z</time></trkpt><trkpt lat="42.2642883" lon="13.938965"><ele>227.0</ele><time>2026-05-02T09:00:17.077Z</time></trkpt><trkpt lat="42.26422" lon="13.9388733"><ele>225.39999999999998</ele><time>2026-05-02T09:00:18.078Z</time></trkpt><trkpt lat="42.264145" lon="13.9387767"><ele>223.79999999999998</ele><time>2026-05-02T09:00:19.078Z</time></trkpt><trkpt lat="42.264075" lon="13.93867"><ele>222.2</ele><time>2026-05-02T09:00:20.078Z</time></trkpt><trkpt lat="42.263995" lon="13.93856"><ele>220.6</ele><time>2026-05-02T09:00:21.077Z</time></trkpt><trkpt lat="42.26391" lon="13.9384583"><ele>219.0</ele><time>2026-05-02T09:00:22.078Z</time></trkpt><trkpt lat="42.2638117" lon="13.9383367"><ele>224.0</ele><time>2026-05-02T09:00:23.077Z</time></trkpt><trkpt lat="42.2637148" lon="13.9382094"><ele>229.0</ele><time>2026-05-02T09:00:24.077Z</time></trkpt><trkpt lat="42.2636258" lon="13.9380669"><ele>234.0</ele><time>2026-05-02T09:00:25.078Z</time></trkpt><trkpt lat="42.2635488" lon="13.9379069"><ele>239.0</ele><time>2026-05-02T09:00:26.078Z</time></trkpt><trkpt lat="42.263484" lon="13.9377427"><ele>239.0</ele><time>2026-05-02T09:00:27.077Z</time></trkpt><trkpt lat="42.2634276" lon="13.9375688"><ele>239.0</ele><time>2026-05-02T09:00:28.078Z</time></trkpt><trkpt lat="42.2633723" lon="13.9373803"><ele>239.0</ele><time>2026-05-02T09:00:29.077Z</time></trkpt><trkpt lat="42.2633259" lon="13.9371844"><ele>239.0</ele><time>2026-05-02T09:00:30.077Z</time></trkpt><trkpt lat="42.2632901" lon="13.9369839"><ele>242.79999999999998</ele><time>2026-05-02T09:00:31.078Z</time></trkpt><trkpt lat="42.2632536" lon="13.9368071"><ele>246.59999999999997</ele><time>2026-05-02T09:00:32.078Z</time></trkpt><trkpt lat="42.2632192" lon="13.9366783"><ele>250.4</ele><time>2026-05-02T09:00:33.078Z</time></trkpt><trkpt lat="42.26318" lon="13.9365778"><ele>254.2</ele><time>2026-05-02T09:00:34.078Z</time></trkpt><trkpt lat="42.2631262" lon="13.9365029"><ele>258.0</ele><time>2026-05-02T09:00:35.078Z</time></trkpt><trkpt lat="42.2630641" lon="13.9364633"><ele>259.4</ele><time>2026-05-02T09:00:36.077Z</time></trkpt><trkpt lat="42.2629837" lon="13.9364446"><ele>260.8</ele><time>2026-05-02T09:00:37.078Z</time></trkpt><trkpt lat="42.2628751" lon="13.9364334"><ele>262.2</ele><time>2026-05-02T09:00:38.077Z</time></trkpt><trkpt lat="42.262772" lon="13.9364139"><ele>263.6</ele><time>2026-05-02T09:00:39.077Z</time></trkpt><trkpt lat="42.2626965" lon="13.9363725"><ele>265.0</ele><time>2026-05-02T09:00:40.077Z</time></trkpt><trkpt lat="42.2626322" lon="13.9363072"><ele>265.0</ele><time>2026-05-02T09:00:41.077Z</time></trkpt><trkpt lat="42.2625658" lon="13.9362123"><ele>265.0</ele><time>2026-05-02T09:00:42.077Z</time></trkpt><trkpt lat="42.2624843" lon="13.9360952"><ele>265.0</ele><time>2026-05-02T09:00:43.077Z</time></trkpt><trkpt lat="42.2623822" lon="13.9359553"><ele>265.0</ele><time>2026-05-02T09:00:44.077Z</time></trkpt><trkpt lat="42.2622739" lon="13.9358182"><ele>267.0</ele><time>2026-05-02T09:00:45.078Z</time></trkpt><trkpt lat="42.2621829" lon="13.9357081"><ele>269.0</ele><time>2026-05-02T09:00:46.078Z</time></trkpt><trkpt lat="42.2621214" lon="13.9356213"><ele>271.0</ele><time>2026-05-02T09:00:47.077Z</time></trkpt><trkpt lat="42.2620906" lon="13.9355426"><ele>273.0</ele><time>2026-05-02T09:00:48.078Z</time></trkpt><trkpt lat="42.2620865" lon="13.9353741"><ele>275.0</ele><time>2026-05-02T09:00:50.077Z</time></trkpt><trkpt lat="42.2620937" lon="13.9352638"><ele>275.0</ele><time>2026-05-02T09:00:51.077Z</time></trkpt><trkpt lat="42.2620983" lon="13.9351178"><ele>275.0</ele><time>2026-05-02T09:00:52.078Z</time></trkpt><trkpt lat="42.2620997" lon="13.934943"><ele>275.0</ele><time>2026-05-02T09:00:53.078Z</time></trkpt><trkpt lat="42.2621045" lon="13.9347424"><ele>275.0</ele><time>2026-05-02T09:00:54.077Z</time></trkpt><trkpt lat="42.26211" lon="13.9345579"><ele>276.4</ele><time>2026-05-02T09:00:55.078Z</time></trkpt><trkpt lat="42.2621106" lon="13.9344052"><ele>277.8</ele><time>2026-05-02T09:00:56.078Z</time></trkpt><trkpt lat="42.2621083" lon="13.9342917"><ele>279.2</ele><time>2026-05-02T09:00:57.078Z</time></trkpt><trkpt lat="42.2620767" lon="13.93415"><ele>280.6</ele><time>2026-05-02T09:00:59.078Z</time></trkpt><trkpt lat="42.2620167" lon="13.9340917"><ele>282.0</ele><time>2026-05-02T09:01:01.077Z</time></trkpt><trkpt lat="42.2619167" lon="13.934075"><ele>283.75</ele><time>2026-05-02T09:01:03.077Z</time></trkpt><trkpt lat="42.261845" lon="13.934075"><ele>285.5</ele><time>2026-05-02T09:01:04.077Z</time></trkpt><trkpt lat="42.2617417" lon="13.9340717"><ele>287.25</ele><time>2026-05-02T09:01:05.078Z</time></trkpt><trkpt lat="42.2616117" lon="13.9340417"><ele>289.0</ele><time>2026-05-02T09:01:06.078Z</time></trkpt><trkpt lat="42.261465" lon="13.9339883"><ele>286.66666666666663</ele><time>2026-05-02T09:01:07.077Z</time></trkpt><trkpt lat="42.2612967" lon="13.93391"><ele>284.3333333333333</ele><time>2026-05-02T09:01:08.077Z</time></trkpt><trkpt lat="42.261125" lon="13.9338283"><ele>282.0</ele><time>2026-05-02T09:01:09.078Z</time></trkpt><trkpt lat="42.2609783" lon="13.9337617"><ele>282.0</ele><time>2026-05-02T09:01:10.077Z</time></trkpt><trkpt lat="42.2608467" lon="13.9336967"><ele>282.0</ele><time>2026-05-02T09:01:11.077Z</time></trkpt><trkpt lat="42.2607117" lon="13.9336367"><ele>282.0</ele><time>2026-05-02T09:01:12.078Z</time></trkpt><trkpt lat="42.2605767" lon="13.93358"><ele>282.0</ele><time>2026-05-02T09:01:13.078Z</time></trkpt><trkpt lat="42.260455" lon="13.933535"><ele>282.5</ele><time>2026-05-02T09:01:14.077Z</time></trkpt><trkpt lat="42.260335" lon="13.9335233"><ele>283.0</ele><time>2026-05-02T09:01:15.078Z</time></trkpt><trkpt lat="42.2602083" lon="13.9335333"><ele>283.5</ele><time>2026-05-02T09:01:16.077Z</time></trkpt><trkpt lat="42.2600717" lon="13.9335533"><ele>284.0</ele><time>2026-05-02T09:01:17.077Z</time></trkpt><trkpt lat="42.25993" lon="13.933565"><ele>284.0</ele><time>2026-05-02T09:01:18.077Z</time></trkpt><trkpt lat="42.259795" lon="13.93357"><ele>284.0</ele><time>2026-05-02T09:01:19.078Z</time></trkpt><trkpt lat="42.2596667" lon="13.9335667"><ele>284.0</ele><time>2026-05-02T09:01:20.078Z</time></trkpt><trkpt lat="42.2595567" lon="13.9335483"><ele>284.0</ele><time>2026-05-02T09:01:21.077Z</time></trkpt><trkpt lat="42.2594633" lon="13.9335083"><ele>282.75</ele><time>2026-05-02T09:01:22.077Z</time></trkpt><trkpt lat="42.25936" lon="13.9334467"><ele>281.5</ele><time>2026-05-02T09:01:23.078Z</time></trkpt><trkpt lat="42.259235" lon="13.9333633"><ele>280.25</ele><time>2026-05-02T09:01:24.078Z</time></trkpt><trkpt lat="42.2590883" lon="13.9332617"><ele>279.0</ele><time>2026-05-02T09:01:25.078Z</time></trkpt><trkpt lat="42.258945" lon="13.9331833"><ele>282.75</ele><time>2026-05-02T09:01:26.077Z</time></trkpt><trkpt lat="42.2588167" lon="13.9331217"><ele>286.5</ele><time>2026-05-02T09:01:27.077Z</time></trkpt><trkpt lat="42.2586967" lon="13.933085"><ele>290.25</ele><time>2026-05-02T09:01:28.077Z</time></trkpt><trkpt lat="42.258555" lon="13.9330783"><ele>294.0</ele><time>2026-05-02T09:01:29.077Z</time></trkpt><trkpt lat="42.2584117" lon="13.9330933"><ele>294.0</ele><time>2026-05-02T09:01:30.078Z</time></trkpt><trkpt lat="42.2582983" lon="13.9331117"><ele>294.0</ele><time>2026-05-02T09:01:31.078Z</time></trkpt><trkpt lat="42.2581883" lon="13.9331283"><ele>294.0</ele><time>2026-05-02T09:01:32.078Z</time></trkpt><trkpt lat="42.2580783" lon="13.9331383"><ele>294.0</ele><time>2026-05-02T09:01:33.077Z</time></trkpt><trkpt lat="42.2579433" lon="13.9331317"><ele>295.25</ele><time>2026-05-02T09:01:34.077Z</time></trkpt><trkpt lat="42.2577933" lon="13.933115"><ele>296.5</ele><time>2026-05-02T09:01:35.077Z</time></trkpt><trkpt lat="42.257655" lon="13.93311"><ele>297.75</ele><time>2026-05-02T09:01:36.078Z</time></trkpt><trkpt lat="42.25752" lon="13.9331283"><ele>299.0</ele><time>2026-05-02T09:01:37.077Z</time></trkpt><trkpt lat="42.2573617" lon="13.9331617"><ele>300.25</ele><time>2026-05-02T09:01:38.077Z</time></trkpt><trkpt lat="42.2572133" lon="13.933195"><ele>301.5</ele><time>2026-05-02T09:01:39.078Z</time></trkpt><trkpt lat="42.2570767" lon="13.9332317"><ele>302.75</ele><time>2026-05-02T09:01:40.078Z</time></trkpt><trkpt lat="42.2569533" lon="13.9332817"><ele>304.0</ele><time>2026-05-02T09:01:41.077Z</time></trkpt><trkpt lat="42.2568317" lon="13.9333333"><ele>304.0</ele><time>2026-05-02T09:01:42.078Z</time></trkpt><trkpt lat="42.2567083" lon="13.93335"><ele>304.0</ele><time>2026-05-02T09:01:43.077Z</time></trkpt><trkpt lat="42.256585" lon="13.933335"><ele>304.0</ele><time>2026-05-02T09:01:44.078Z</time></trkpt><trkpt lat="42.2564583" lon="13.9333033"><ele>304.0</ele><time>2026-05-02T09:01:45.078Z</time></trkpt><trkpt lat="42.256315" lon="13.9332467"><ele>303.75</ele><time>2026-05-02T09:01:46.077Z</time></trkpt><trkpt lat="42.25618" lon="13.9331917"><ele>303.5</ele><time>2026-05-02T09:01:47.077Z</time></trkpt><trkpt lat="42.2560517" lon="13.9331317"><ele>303.25</ele><time>2026-05-02T09:01:48.078Z</time></trkpt><trkpt lat="42.255935" lon="13.93308"><ele>303.0</ele><time>2026-05-02T09:01:49.077Z</time></trkpt><trkpt lat="42.25583" lon="13.9330433"><ele>303.0</ele><time>2026-05-02T09:01:50.078Z</time></trkpt><trkpt lat="42.255745" lon="13.9329933"><ele>303.0</ele><time>2026-05-02T09:01:51.077Z</time></trkpt><trkpt lat="42.2556883" lon="13.9329217"><ele>303.0</ele><time>2026-05-02T09:01:52.077Z</time></trkpt><trkpt lat="42.2556533" lon="13.9328283"><ele>303.0</ele><time>2026-05-02T09:01:53.078Z</time></trkpt><trkpt lat="42.2556383" lon="13.9326833"><ele>303.0</ele><time>2026-05-02T09:01:54.078Z</time></trkpt><trkpt lat="42.255635" lon="13.9325217"><ele>300.0</ele><time>2026-05-02T09:01:55.078Z</time></trkpt><trkpt lat="42.2556183" lon="13.93237"><ele>297.0</ele><time>2026-05-02T09:01:56.077Z</time></trkpt><trkpt lat="42.2555767" lon="13.9322367"><ele>294.0</ele><time>2026-05-02T09:01:57.077Z</time></trkpt><trkpt lat="42.25552" lon="13.9321067"><ele>291.0</ele><time>2026-05-02T09:01:58.078Z</time></trkpt><trkpt lat="42.255455" lon="13.9319933"><ele>288.0</ele><time>2026-05-02T09:01:59.077Z</time></trkpt><trkpt lat="42.25538" lon="13.9319033"><ele>288.0</ele><time>2026-05-02T09:02:00.078Z</time></trkpt><trkpt lat="42.255295" lon="13.9318267"><ele>288.0</ele><time>2026-05-02T09:02:01.078Z</time></trkpt><trkpt lat="42.2552067" lon="13.9317567"><ele>288.0</ele><time>2026-05-02T09:02:02.078Z</time></trkpt><trkpt lat="42.255105" lon="13.9317217"><ele>288.0</ele><time>2026-05-02T09:02:03.077Z</time></trkpt><trkpt lat="42.255005" lon="13.9316983"><ele>288.0</ele><time>2026-05-02T09:02:04.077Z</time></trkpt><trkpt lat="42.254915" lon="13.93166"><ele>288.5</ele><time>2026-05-02T09:02:05.077Z</time></trkpt><trkpt lat="42.2548383" lon="13.9315967"><ele>289.0</ele><time>2026-05-02T09:02:06.077Z</time></trkpt><trkpt lat="42.254765" lon="13.9315183"><ele>289.5</ele><time>2026-05-02T09:02:07.078Z</time></trkpt><trkpt lat="42.2547" lon="13.9314633"><ele>290.0</ele><time>2026-05-02T09:02:08.078Z</time></trkpt><trkpt lat="42.2546383" lon="13.93144"><ele>290.5</ele><time>2026-05-02T09:02:09.078Z</time></trkpt><trkpt lat="42.2545567" lon="13.9314567"><ele>291.0</ele><time>2026-05-02T09:02:10.078Z</time></trkpt><trkpt lat="42.25445" lon="13.9314967"><ele>291.0</ele><time>2026-05-02T09:02:11.077Z</time></trkpt><trkpt lat="42.2543217" lon="13.9315383"><ele>291.0</ele><time>2026-05-02T09:02:12.078Z</time></trkpt><trkpt lat="42.2541767" lon="13.93158"><ele>291.0</ele><time>2026-05-02T09:02:13.078Z</time></trkpt><trkpt lat="42.2540433" lon="13.931605"><ele>291.0</ele><time>2026-05-02T09:02:14.077Z</time></trkpt><trkpt lat="42.2539117" lon="13.9316167"><ele>290.25</ele><time>2026-05-02T09:02:15.078Z</time></trkpt><trkpt lat="42.2537833" lon="13.93162"><ele>289.5</ele><time>2026-05-02T09:02:16.078Z</time></trkpt><trkpt lat="42.25367" lon="13.9315933"><ele>288.75</ele><time>2026-05-02T09:02:17.077Z</time></trkpt><trkpt lat="42.2535733" lon="13.931555"><ele>288.0</ele><time>2026-05-02T09:02:18.078Z</time></trkpt><trkpt lat="42.2534733" lon="13.93149"><ele>288.0</ele><time>2026-05-02T09:02:19.077Z</time></trkpt><trkpt lat="42.25336" lon="13.9314017"><ele>288.0</ele><time>2026-05-02T09:02:20.077Z</time></trkpt><trkpt lat="42.25325" lon="13.9313217"><ele>288.0</ele><time>2026-05-02T09:02:21.077Z</time></trkpt><trkpt lat="42.2531417" lon="13.9312683"><ele>288.0</ele><time>2026-05-02T09:02:22.078Z</time></trkpt><trkpt lat="42.2530533" lon="13.93123"><ele>287.0</ele><time>2026-05-02T09:02:23.078Z</time></trkpt><trkpt lat="42.2529767" lon="13.9312117"><ele>286.0</ele><time>2026-05-02T09:02:24.078Z</time></trkpt><trkpt lat="42.252905" lon="13.931195"><ele>285.0</ele><time>2026-05-02T09:02:25.077Z</time></trkpt><trkpt lat="42.2528283" lon="13.9311767"><ele>284.0</ele><time>2026-05-02T09:02:26.077Z</time></trkpt><trkpt lat="42.252725" lon="13.93115"><ele>283.0</ele><time>2026-05-02T09:02:27.078Z</time></trkpt><trkpt lat="42.2526283" lon="13.931125"><ele>282.0</ele><time>2026-05-02T09:02:28.077Z</time></trkpt><trkpt lat="42.2525433" lon="13.9311067"><ele>282.0</ele><time>2026-05-02T09:02:29.078Z</time></trkpt><trkpt lat="42.2524683" lon="13.9310817"><ele>282.0</ele><time>2026-05-02T09:02:30.077Z</time></trkpt><trkpt lat="42.2524" lon="13.9310283"><ele>282.0</ele><time>2026-05-02T09:02:31.077Z</time></trkpt><trkpt lat="42.25235" lon="13.9309583"><ele>282.0</ele><time>2026-05-02T09:02:32.077Z</time></trkpt><trkpt lat="42.2523167" lon="13.93087"><ele>282.0</ele><time>2026-05-02T09:02:33.078Z</time></trkpt><trkpt lat="42.2522917" lon="13.9307417"><ele>282.0</ele><time>2026-05-02T09:02:34.077Z</time></trkpt><trkpt lat="42.25227" lon="13.9305967"><ele>280.6</ele><time>2026-05-02T09:02:35.077Z</time></trkpt><trkpt lat="42.2522467" lon="13.9304533"><ele>279.2</ele><time>2026-05-02T09:02:36.077Z</time></trkpt><trkpt lat="42.252205" lon="13.930335"><ele>277.8</ele><time>2026-05-02T09:02:37.077Z</time></trkpt><trkpt lat="42.2521517" lon="13.9302217"><ele>276.4</ele><time>2026-05-02T09:02:38.078Z</time></trkpt><trkpt lat="42.2520767" lon="13.9301167"><ele>275.0</ele><time>2026-05-02T09:02:39.078Z</time></trkpt><trkpt lat="42.25199" lon="13.9300283"><ele>275.0</ele><time>2026-05-02T09:02:40.077Z</time></trkpt><trkpt lat="42.2519" lon="13.9299617"><ele>275.0</ele><time>2026-05-02T09:02:41.078Z</time></trkpt><trkpt lat="42.25181" lon="13.9299217"><ele>275.0</ele><time>2026-05-02T09:02:42.077Z</time></trkpt><trkpt lat="42.2517167" lon="13.9299017"><ele>275.0</ele><time>2026-05-02T09:02:43.077Z</time></trkpt><trkpt lat="42.2516433" lon="13.929885"><ele>275.0</ele><time>2026-05-02T09:02:44.077Z</time></trkpt><trkpt lat="42.2515383" lon="13.9298517"><ele>275.0</ele><time>2026-05-02T09:02:46.077Z</time></trkpt><trkpt lat="42.2516767" lon="13.9298967"><ele>275.0</ele><time>2026-05-02T09:02:57.077Z</time></trkpt><trkpt lat="42.2517733" lon="13.9299183"><ele>275.0</ele><time>2026-05-02T09:02:58.077Z</time></trkpt><trkpt lat="42.251865" lon="13.929955"><ele>275.0</ele><time>2026-05-02T09:02:59.077Z</time></trkpt><trkpt lat="42.2519483" lon="13.9299867"><ele>275.0</ele><time>2026-05-02T09:03:00.077Z</time></trkpt><trkpt lat="42.2520283" lon="13.9300483"><ele>275.0</ele><time>2026-05-02T09:03:01.077Z</time></trkpt><trkpt lat="42.2521033" lon="13.9301383"><ele>275.0</ele><time>2026-05-02T09:03:02.078Z</time></trkpt><trkpt lat="42.252165" lon="13.9302617"><ele>275.0</ele><time>2026-05-02T09:03:03.078Z</time></trkpt><trkpt lat="42.2522283" lon="13.9303917"><ele>275.0</ele><time>2026-05-02T09:03:04.077Z</time></trkpt><trkpt lat="42.25227" lon="13.9305167"><ele>275.0</ele><time>2026-05-02T09:03:05.077Z</time></trkpt><trkpt lat="42.2522917" lon="13.9306483"><ele>276.4</ele><time>2026-05-02T09:03:06.077Z</time></trkpt><trkpt lat="42.2523033" lon="13.9307767"><ele>277.8</ele><time>2026-05-02T09:03:07.077Z</time></trkpt><trkpt lat="42.25232" lon="13.9308817"><ele>279.2</ele><time>2026-05-02T09:03:08.077Z</time></trkpt><trkpt lat="42.25238" lon="13.9310217"><ele>280.6</ele><time>2026-05-02T09:03:10.077Z</time></trkpt><trkpt lat="42.2524417" lon="13.931075"><ele>282.0</ele><time>2026-05-02T09:03:11.077Z</time></trkpt><trkpt lat="42.252505" lon="13.9311567"><ele>282.0</ele><time>2026-05-02T09:03:13.077Z</time></trkpt><trkpt lat="42.2524633" lon="13.9312267"><ele>282.0</ele><time>2026-05-02T09:03:15.077Z</time></trkpt><trkpt lat="42.2523933" lon="13.9312533"><ele>282.0</ele><time>2026-05-02T09:03:16.077Z</time></trkpt><trkpt lat="42.252305" lon="13.9312817"><ele>282.0</ele><time>2026-05-02T09:03:17.077Z</time></trkpt><trkpt lat="42.25221" lon="13.9313117"><ele>282.0</ele><time>2026-05-02T09:03:18.077Z</time></trkpt><trkpt lat="42.2521283" lon="13.9313533"><ele>282.0</ele><time>2026-05-02T09:03:19.077Z</time></trkpt><trkpt lat="42.2520367" lon="13.9314117"><ele>280.8333333333333</ele><time>2026-05-02T09:03:20.078Z</time></trkpt><trkpt lat="42.25195" lon="13.9314683"><ele>279.6666666666667</ele><time>2026-05-02T09:03:21.078Z</time></trkpt><trkpt lat="42.2518767" lon="13.931535"><ele>278.5</ele><time>2026-05-02T09:03:22.078Z</time></trkpt><trkpt lat="42.2518167" lon="13.9316017"><ele>277.33333333333337</ele><time>2026-05-02T09:03:23.077Z</time></trkpt><trkpt lat="42.2517583" lon="13.9316717"><ele>276.1666666666667</ele><time>2026-05-02T09:03:24.078Z</time></trkpt><trkpt lat="42.251705" lon="13.93174"><ele>275.0</ele><time>2026-05-02T09:03:25.077Z</time></trkpt><trkpt lat="42.2516567" lon="13.93181"><ele>273.6666666666667</ele><time>2026-05-02T09:03:26.077Z</time></trkpt><trkpt lat="42.2515967" lon="13.9318917"><ele>272.33333333333337</ele><time>2026-05-02T09:03:27.078Z</time></trkpt><trkpt lat="42.2515333" lon="13.931975"><ele>271.0</ele><time>2026-05-02T09:03:28.077Z</time></trkpt><trkpt lat="42.251475" lon="13.932055"><ele>269.6666666666667</ele><time>2026-05-02T09:03:29.077Z</time></trkpt><trkpt lat="42.25142" lon="13.9321383"><ele>268.3333333333333</ele><time>2026-05-02T09:03:30.077Z</time></trkpt><trkpt lat="42.2513767" lon="13.9322233"><ele>267.0</ele><time>2026-05-02T09:03:31.077Z</time></trkpt><trkpt lat="42.2513383" lon="13.932305"><ele>263.4</ele><time>2026-05-02T09:03:32.078Z</time></trkpt><trkpt lat="42.251275" lon="13.9324317"><ele>259.79999999999995</ele><time>2026-05-02T09:03:34.077Z</time></trkpt><trkpt lat="42.2512033" lon="13.93256"><ele>256.2</ele><time>2026-05-02T09:03:36.077Z</time></trkpt><trkpt lat="42.25113" lon="13.9326683"><ele>252.6</ele><time>2026-05-02T09:03:38.078Z</time></trkpt><trkpt lat="42.25105" lon="13.9326833"><ele>249.0</ele><time>2026-05-02T09:03:40.076Z</time></trkpt><trkpt lat="42.2509633" lon="13.9326317"><ele>246.5</ele><time>2026-05-02T09:03:42.077Z</time></trkpt><trkpt lat="42.2508767" lon="13.93262"><ele>244.0</ele><time>2026-05-02T09:03:44.077Z</time></trkpt><trkpt lat="42.25078" lon="13.9326433"><ele>241.5</ele><time>2026-05-02T09:03:46.077Z</time></trkpt><trkpt lat="42.2506883" lon="13.9326817"><ele>239.0</ele><time>2026-05-02T09:03:48.077Z</time></trkpt><trkpt lat="42.2506433" lon="13.9327567"><ele>236.5</ele><time>2026-05-02T09:03:50.077Z</time></trkpt><trkpt lat="42.250595" lon="13.932845"><ele>234.0</ele><time>2026-05-02T09:03:52.076Z</time></trkpt><trkpt lat="42.2505083" lon="13.9328917"><ele>231.0</ele><time>2026-05-02T09:03:54.076Z</time></trkpt><trkpt lat="42.250425" lon="13.9328933"><ele>227.99999999999997</ele><time>2026-05-02T09:03:56.076Z</time></trkpt><trkpt lat="42.2503683" lon="13.9329317"><ele>224.99999999999997</ele><time>2026-05-02T09:03:59.077Z</time></trkpt><trkpt lat="42.250455" lon="13.9330417"><ele>222.0</ele><time>2026-05-02T09:04:02.076Z</time></trkpt><trkpt lat="42.2505317" lon="13.9331"><ele>219.0</ele><time>2026-05-02T09:04:03.077Z</time></trkpt><trkpt lat="42.2506233" lon="13.9331783"><ele>217.75</ele><time>2026-05-02T09:04:04.076Z</time></trkpt><trkpt lat="42.2507333" lon="13.9332583"><ele>216.5</ele><time>2026-05-02T09:04:05.077Z</time></trkpt><trkpt lat="42.2508417" lon="13.9333317"><ele>215.25</ele><time>2026-05-02T09:04:06.076Z</time></trkpt><trkpt lat="42.250965" lon="13.93339"><ele>214.0</ele><time>2026-05-02T09:04:07.077Z</time></trkpt><trkpt lat="42.251115" lon="13.933455"><ele>214.0</ele><time>2026-05-02T09:04:08.076Z</time></trkpt><trkpt lat="42.251275" lon="13.9335367"><ele>214.0</ele><time>2026-05-02T09:04:09.076Z</time></trkpt><trkpt lat="42.25142" lon="13.93363"><ele>214.0</ele><time>2026-05-02T09:04:10.076Z</time></trkpt><trkpt lat="42.251565" lon="13.9337233"><ele>218.66666666666666</ele><time>2026-05-02T09:04:11.076Z</time></trkpt><trkpt lat="42.251705" lon="13.9338067"><ele>223.33333333333331</ele><time>2026-05-02T09:04:12.076Z</time></trkpt><trkpt lat="42.2518567" lon="13.9338867"><ele>228.0</ele><time>2026-05-02T09:04:13.077Z</time></trkpt><trkpt lat="42.252005" lon="13.9339733"><ele>228.0</ele><time>2026-05-02T09:04:14.076Z</time></trkpt><trkpt lat="42.2521367" lon="13.9340567"><ele>228.0</ele><time>2026-05-02T09:04:15.077Z</time></trkpt><trkpt lat="42.2522483" lon="13.9341167"><ele>228.0</ele><time>2026-05-02T09:04:16.077Z</time></trkpt><trkpt lat="42.2523467" lon="13.9341717"><ele>228.0</ele><time>2026-05-02T09:04:17.076Z</time></trkpt><trkpt lat="42.2524183" lon="13.93423"><ele>230.83333333333334</ele><time>2026-05-02T09:04:18.077Z</time></trkpt><trkpt lat="42.2524717" lon="13.9343033"><ele>233.66666666666669</ele><time>2026-05-02T09:04:19.076Z</time></trkpt><trkpt lat="42.2524967" lon="13.9343833"><ele>236.5</ele><time>2026-05-02T09:04:20.076Z</time></trkpt><trkpt lat="42.252495" lon="13.9344783"><ele>239.33333333333334</ele><time>2026-05-02T09:04:21.076Z</time></trkpt><trkpt lat="42.252485" lon="13.93459"><ele>242.16666666666669</ele><time>2026-05-02T09:04:22.077Z</time></trkpt><trkpt lat="42.25247" lon="13.93469"><ele>245.0</ele><time>2026-05-02T09:04:23.077Z</time></trkpt><trkpt lat="42.2524633" lon="13.9348"><ele>245.0</ele><time>2026-05-02T09:04:24.077Z</time></trkpt><trkpt lat="42.2524583" lon="13.9349233"><ele>245.0</ele><time>2026-05-02T09:04:25.076Z</time></trkpt><trkpt lat="42.252435" lon="13.9350633"><ele>245.0</ele><time>2026-05-02T09:04:26.076Z</time></trkpt><trkpt lat="42.2523717" lon="13.9351883"><ele>245.0</ele><time>2026-05-02T09:04:27.077Z</time></trkpt><trkpt lat="42.252285" lon="13.9353067"><ele>245.0</ele><time>2026-05-02T09:04:28.077Z</time></trkpt><trkpt lat="42.2521667" lon="13.9354267"><ele>244.0</ele><time>2026-05-02T09:04:29.077Z</time></trkpt><trkpt lat="42.2520333" lon="13.9355467"><ele>243.0</ele><time>2026-05-02T09:04:30.077Z</time></trkpt><trkpt lat="42.25189" lon="13.9356683"><ele>242.0</ele><time>2026-05-02T09:04:31.077Z</time></trkpt><trkpt lat="42.25174" lon="13.9357983"><ele>244.66666666666669</ele><time>2026-05-02T09:04:32.076Z</time></trkpt><trkpt lat="42.251595" lon="13.93593"><ele>247.33333333333331</ele><time>2026-05-02T09:04:33.077Z</time></trkpt><trkpt lat="42.2514533" lon="13.936075"><ele>250.0</ele><time>2026-05-02T09:04:34.077Z</time></trkpt><trkpt lat="42.2513167" lon="13.936235"><ele>250.0</ele><time>2026-05-02T09:04:35.077Z</time></trkpt><trkpt lat="42.2511883" lon="13.9363883"><ele>250.0</ele><time>2026-05-02T09:04:36.077Z</time></trkpt><trkpt lat="42.2510567" lon="13.9365517"><ele>250.0</ele><time>2026-05-02T09:04:37.077Z</time></trkpt><trkpt lat="42.250925" lon="13.936705"><ele>253.5</ele><time>2026-05-02T09:04:38.076Z</time></trkpt><trkpt lat="42.2508067" lon="13.9368367"><ele>257.0</ele><time>2026-05-02T09:04:39.077Z</time></trkpt><trkpt lat="42.2507133" lon="13.936945"><ele>260.5</ele><time>2026-05-02T09:04:40.076Z</time></trkpt><trkpt lat="42.2506333" lon="13.93704"><ele>264.0</ele><time>2026-05-02T09:04:41.077Z</time></trkpt><trkpt lat="42.25058" lon="13.9371333"><ele>262.0</ele><time>2026-05-02T09:04:42.076Z</time></trkpt><trkpt lat="42.250545" lon="13.937235"><ele>260.0</ele><time>2026-05-02T09:04:43.076Z</time></trkpt><trkpt lat="42.2505467" lon="13.937345"><ele>258.0</ele><time>2026-05-02T09:04:44.076Z</time></trkpt><trkpt lat="42.25057" lon="13.9374667"><ele>256.0</ele><time>2026-05-02T09:04:45.076Z</time></trkpt><trkpt lat="42.2506217" lon="13.9375983"><ele>254.0</ele><time>2026-05-02T09:04:46.077Z</time></trkpt><trkpt lat="42.2506867" lon="13.9377217"><ele>254.00000000000003</ele><time>2026-05-02T09:04:47.076Z</time></trkpt><trkpt lat="42.250745" lon="13.9378283"><ele>254.0</ele><time>2026-05-02T09:04:48.076Z</time></trkpt><trkpt lat="42.25079" lon="13.9379017"><ele>254.0</ele><time>2026-05-02T09:04:49.077Z</time></trkpt><trkpt lat="42.2508533" lon="13.937965"><ele>254.0</ele><time>2026-05-02T09:04:51.076Z</time></trkpt><trkpt lat="42.2507883" lon="13.9378733"><ele>254.00000000000003</ele><time>2026-05-02T09:04:59.077Z</time></trkpt><trkpt lat="42.25074" lon="13.937795"><ele>254.0</ele><time>2026-05-02T09:05:00.077Z</time></trkpt><trkpt lat="42.2506833" lon="13.9376917"><ele>254.00000000000003</ele><time>2026-05-02T09:05:01.077Z</time></trkpt><trkpt lat="42.2506267" lon="13.9375717"><ele>254.0</ele><time>2026-05-02T09:05:02.076Z</time></trkpt><trkpt lat="42.2505833" lon="13.9374633"><ele>254.0</ele><time>2026-05-02T09:05:03.076Z</time></trkpt><trkpt lat="42.25056" lon="13.9373683"><ele>254.0</ele><time>2026-05-02T09:05:04.076Z</time></trkpt><trkpt lat="42.2505517" lon="13.937265"><ele>254.00000000000003</ele><time>2026-05-02T09:05:05.076Z</time></trkpt><trkpt lat="42.2505667" lon="13.937165"><ele>254.0</ele><time>2026-05-02T09:05:06.076Z</time></trkpt><trkpt lat="42.2506067" lon="13.9370717"><ele>253.0</ele><time>2026-05-02T09:05:07.077Z</time></trkpt><trkpt lat="42.2506767" lon="13.9369767"><ele>252.0</ele><time>2026-05-02T09:05:08.077Z</time></trkpt><trkpt lat="42.2507683" lon="13.9368633"><ele>251.0</ele><time>2026-05-02T09:05:09.076Z</time></trkpt><trkpt lat="42.2509" lon="13.9367267"><ele>250.0</ele><time>2026-05-02T09:05:10.076Z</time></trkpt><trkpt lat="42.2510333" lon="13.9365717"><ele>250.0</ele><time>2026-05-02T09:05:11.077Z</time></trkpt><trkpt lat="42.25118" lon="13.9364117"><ele>250.0</ele><time>2026-05-02T09:05:12.076Z</time></trkpt><trkpt lat="42.251315" lon="13.9362533"><ele>250.0</ele><time>2026-05-02T09:05:13.077Z</time></trkpt><trkpt lat="42.2514317" lon="13.936115"><ele>247.33333333333331</ele><time>2026-05-02T09:05:14.077Z</time></trkpt><trkpt lat="42.2515467" lon="13.9359933"><ele>244.66666666666669</ele><time>2026-05-02T09:05:15.077Z</time></trkpt><trkpt lat="42.251675" lon="13.9358667"><ele>242.0</ele><time>2026-05-02T09:05:16.077Z</time></trkpt><trkpt lat="42.2518183" lon="13.9357333"><ele>242.0</ele><time>2026-05-02T09:05:17.076Z</time></trkpt><trkpt lat="42.2519633" lon="13.935605"><ele>242.0</ele><time>2026-05-02T09:05:18.077Z</time></trkpt><trkpt lat="42.2520983" lon="13.9354817"><ele>242.0</ele><time>2026-05-02T09:05:19.076Z</time></trkpt><trkpt lat="42.2522117" lon="13.9353683"><ele>242.6</ele><time>2026-05-02T09:05:20.077Z</time></trkpt><trkpt lat="42.2523033" lon="13.9352683"><ele>243.2</ele><time>2026-05-02T09:05:21.076Z</time></trkpt><trkpt lat="42.2523783" lon="13.9351783"><ele>243.8</ele><time>2026-05-02T09:05:22.077Z</time></trkpt><trkpt lat="42.25243" lon="13.9350917"><ele>244.4</ele><time>2026-05-02T09:05:23.076Z</time></trkpt><trkpt lat="42.2524683" lon="13.9349567"><ele>245.0</ele><time>2026-05-02T09:05:25.077Z</time></trkpt><trkpt lat="42.2524767" lon="13.9348517"><ele>245.00000000000003</ele><time>2026-05-02T09:05:27.077Z</time></trkpt><trkpt lat="42.2524733" lon="13.934755"><ele>245.0</ele><time>2026-05-02T09:05:29.076Z</time></trkpt><trkpt lat="42.2523833" lon="13.9347417"><ele>245.0</ele><time>2026-05-02T09:05:33.076Z</time></trkpt><trkpt lat="42.2522767" lon="13.93475"><ele>245.0</ele><time>2026-05-02T09:05:35.077Z</time></trkpt><trkpt lat="42.2522117" lon="13.934755"><ele>245.00000000000003</ele><time>2026-05-02T09:05:36.077Z</time></trkpt><trkpt lat="42.2521483" lon="13.934765"><ele>245.0</ele><time>2026-05-02T09:05:37.077Z</time></trkpt><trkpt lat="42.2520267" lon="13.9347917"><ele>242.28571428571428</ele><time>2026-05-02T09:05:39.077Z</time></trkpt><trkpt lat="42.2519633" lon="13.9348"><ele>239.57142857142856</ele><time>2026-05-02T09:05:40.076Z</time></trkpt><trkpt lat="42.2518967" lon="13.9348017"><ele>236.85714285714286</ele><time>2026-05-02T09:05:41.077Z</time></trkpt><trkpt lat="42.2518267" lon="13.934805"><ele>234.14285714285714</ele><time>2026-05-02T09:05:42.077Z</time></trkpt><trkpt lat="42.2517583" lon="13.9348017"><ele>231.42857142857142</ele><time>2026-05-02T09:05:43.076Z</time></trkpt><trkpt lat="42.2516817" lon="13.9348017"><ele>228.71428571428572</ele><time>2026-05-02T09:05:44.076Z</time></trkpt><trkpt lat="42.2516033" lon="13.9348067"><ele>226.0</ele><time>2026-05-02T09:05:45.076Z</time></trkpt><trkpt lat="42.25153" lon="13.9348133"><ele>225.99999999999997</ele><time>2026-05-02T09:05:46.076Z</time></trkpt><trkpt lat="42.25146" lon="13.93482"><ele>226.0</ele><time>2026-05-02T09:05:47.076Z</time></trkpt><trkpt lat="42.25139" lon="13.9348217"><ele>226.0</ele><time>2026-05-02T09:05:48.077Z</time></trkpt><trkpt lat="42.2512717" lon="13.9348317"><ele>226.0</ele><time>2026-05-02T09:05:50.076Z</time></trkpt><trkpt lat="42.251155" lon="13.9348767"><ele>225.99999999999997</ele><time>2026-05-02T09:05:52.077Z</time></trkpt><trkpt lat="42.2510933" lon="13.9348983"><ele>226.0</ele><time>2026-05-02T09:05:53.077Z</time></trkpt><trkpt lat="42.2510317" lon="13.9349183"><ele>223.2857142857143</ele><time>2026-05-02T09:05:54.076Z</time></trkpt><trkpt lat="42.250965" lon="13.9349333"><ele>220.57142857142856</ele><time>2026-05-02T09:05:55.077Z</time></trkpt><trkpt lat="42.2508883" lon="13.93494"><ele>217.85714285714286</ele><time>2026-05-02T09:05:56.077Z</time></trkpt><trkpt lat="42.2508067" lon="13.93494"><ele>215.14285714285717</ele><time>2026-05-02T09:05:57.076Z</time></trkpt><trkpt lat="42.2507283" lon="13.934935"><ele>212.42857142857144</ele><time>2026-05-02T09:05:58.077Z</time></trkpt><trkpt lat="42.25066" lon="13.934925"><ele>209.71428571428572</ele><time>2026-05-02T09:05:59.077Z</time></trkpt><trkpt lat="42.250595" lon="13.9349183"><ele>207.0</ele><time>2026-05-02T09:06:00.076Z</time></trkpt><trkpt lat="42.25053" lon="13.9349133"><ele>204.2</ele><time>2026-05-02T09:06:01.076Z</time></trkpt><trkpt lat="42.2504183" lon="13.9348983"><ele>201.39999999999998</ele><time>2026-05-02T09:06:03.076Z</time></trkpt><trkpt lat="42.2502933" lon="13.9349283"><ele>198.60000000000002</ele><time>2026-05-02T09:06:05.076Z</time></trkpt><trkpt lat="42.2502217" lon="13.93495"><ele>195.8</ele><time>2026-05-02T09:06:06.077Z</time></trkpt><trkpt lat="42.2501533" lon="13.9349667"><ele>193.0</ele><time>2026-05-02T09:06:07.076Z</time></trkpt><trkpt lat="42.2500283" lon="13.9349833"><ele>193.0</ele><time>2026-05-02T09:06:09.076Z</time></trkpt><trkpt lat="42.2499117" lon="13.9349517"><ele>193.0</ele><time>2026-05-02T09:06:11.076Z</time></trkpt><trkpt lat="42.24984" lon="13.9349267"><ele>193.0</ele><time>2026-05-02T09:06:12.076Z</time></trkpt><trkpt lat="42.2497767" lon="13.934895"><ele>193.0</ele><time>2026-05-02T09:06:13.076Z</time></trkpt><trkpt lat="42.2496667" lon="13.9348883"><ele>193.0</ele><time>2026-05-02T09:06:15.076Z</time></trkpt><trkpt lat="42.2495433" lon="13.934935"><ele>191.14285714285717</ele><time>2026-05-02T09:06:17.076Z</time></trkpt><trkpt lat="42.2494783" lon="13.9349633"><ele>189.28571428571428</ele><time>2026-05-02T09:06:18.076Z</time></trkpt><trkpt lat="42.2494133" lon="13.9349883"><ele>187.42857142857144</ele><time>2026-05-02T09:06:19.077Z</time></trkpt><trkpt lat="42.249345" lon="13.9350033"><ele>185.57142857142858</ele><time>2026-05-02T09:06:20.077Z</time></trkpt><trkpt lat="42.249275" lon="13.9350117"><ele>183.71428571428572</ele><time>2026-05-02T09:06:21.076Z</time></trkpt><trkpt lat="42.2492117" lon="13.9350233"><ele>181.85714285714286</ele><time>2026-05-02T09:06:22.077Z</time></trkpt><trkpt lat="42.2491017" lon="13.9350233"><ele>180.0</ele><time>2026-05-02T09:06:24.076Z</time></trkpt><trkpt lat="42.24901" lon="13.9349817"><ele>178.5</ele><time>2026-05-02T09:06:26.076Z</time></trkpt><trkpt lat="42.2489283" lon="13.9349483"><ele>177.0</ele><time>2026-05-02T09:06:28.076Z</time></trkpt><trkpt lat="42.2488267" lon="13.93498"><ele>175.5</ele><time>2026-05-02T09:06:30.077Z</time></trkpt><trkpt lat="42.2487617" lon="13.93501"><ele>174.0</ele><time>2026-05-02T09:06:31.077Z</time></trkpt><trkpt lat="42.2487033" lon="13.9350467"><ele>172.5</ele><time>2026-05-02T09:06:32.077Z</time></trkpt><trkpt lat="42.248625" lon="13.9351317"><ele>171.0</ele><time>2026-05-02T09:06:34.076Z</time></trkpt><trkpt lat="42.2485833" lon="13.9351983"><ele>168.8</ele><time>2026-05-02T09:06:35.077Z</time></trkpt><trkpt lat="42.2485433" lon="13.935275"><ele>166.60000000000002</ele><time>2026-05-02T09:06:36.076Z</time></trkpt><trkpt lat="42.2484533" lon="13.935385"><ele>164.4</ele><time>2026-05-02T09:06:38.077Z</time></trkpt><trkpt lat="42.2483433" lon="13.9354383"><ele>162.2</ele><time>2026-05-02T09:06:40.076Z</time></trkpt><trkpt lat="42.2482333" lon="13.9354933"><ele>160.0</ele><time>2026-05-02T09:06:42.077Z</time></trkpt><trkpt lat="42.2481633" lon="13.9356067"><ele>160.0</ele><time>2026-05-02T09:06:44.076Z</time></trkpt><trkpt lat="42.2481717" lon="13.9357817"><ele>160.0</ele><time>2026-05-02T09:06:46.076Z</time></trkpt><trkpt lat="42.2481883" lon="13.9359117"><ele>160.0</ele><time>2026-05-02T09:06:47.076Z</time></trkpt><trkpt lat="42.2482083" lon="13.9360533"><ele>160.0</ele><time>2026-05-02T09:06:48.076Z</time></trkpt><trkpt lat="42.2482217" lon="13.9361833"><ele>160.0</ele><time>2026-05-02T09:06:49.077Z</time></trkpt><trkpt lat="42.24822" lon="13.9363033"><ele>159.5</ele><time>2026-05-02T09:06:50.076Z</time></trkpt><trkpt lat="42.24821" lon="13.936405"><ele>159.0</ele><time>2026-05-02T09:06:51.076Z</time></trkpt><trkpt lat="42.248185" lon="13.9365067"><ele>158.5</ele><time>2026-05-02T09:06:52.076Z</time></trkpt><trkpt lat="42.2481533" lon="13.9366083"><ele>158.0</ele><time>2026-05-02T09:06:53.077Z</time></trkpt><trkpt lat="42.248115" lon="13.9367117"><ele>157.5</ele><time>2026-05-02T09:06:54.076Z</time></trkpt><trkpt lat="42.2480717" lon="13.9368067"><ele>157.0</ele><time>2026-05-02T09:06:55.077Z</time></trkpt><trkpt lat="42.24803" lon="13.936885"><ele>154.33333333333334</ele><time>2026-05-02T09:06:56.076Z</time></trkpt><trkpt lat="42.2479833" lon="13.93695"><ele>151.66666666666669</ele><time>2026-05-02T09:06:57.077Z</time></trkpt><trkpt lat="42.2479217" lon="13.9370017"><ele>149.0</ele><time>2026-05-02T09:06:58.076Z</time></trkpt><trkpt lat="42.2478567" lon="13.9370433"><ele>146.33333333333334</ele><time>2026-05-02T09:06:59.077Z</time></trkpt><trkpt lat="42.24778" lon="13.9370983"><ele>143.66666666666666</ele><time>2026-05-02T09:07:00.076Z</time></trkpt><trkpt lat="42.247695" lon="13.9371583"><ele>141.0</ele><time>2026-05-02T09:07:01.077Z</time></trkpt><trkpt lat="42.2476067" lon="13.9372167"><ele>141.0</ele><time>2026-05-02T09:07:02.077Z</time></trkpt><trkpt lat="42.2475367" lon="13.9372717"><ele>141.0</ele><time>2026-05-02T09:07:03.077Z</time></trkpt><trkpt lat="42.2474733" lon="13.9373017"><ele>141.0</ele><time>2026-05-02T09:07:04.076Z</time></trkpt><trkpt lat="42.24741" lon="13.9373067"><ele>141.0</ele><time>2026-05-02T09:07:05.077Z</time></trkpt><trkpt lat="42.2473317" lon="13.9372967"><ele>141.0</ele><time>2026-05-02T09:07:06.077Z</time></trkpt><trkpt lat="42.2472583" lon="13.9372633"><ele>141.0</ele><time>2026-05-02T09:07:07.076Z</time></trkpt><trkpt lat="42.2471867" lon="13.9372017"><ele>141.33333333333334</ele><time>2026-05-02T09:07:08.077Z</time></trkpt><trkpt lat="42.2471317" lon="13.93714"><ele>141.66666666666666</ele><time>2026-05-02T09:07:09.077Z</time></trkpt><trkpt lat="42.2470583" lon="13.93709"><ele>142.0</ele><time>2026-05-02T09:07:11.077Z</time></trkpt><trkpt lat="42.246985" lon="13.9370767"><ele>142.33333333333331</ele><time>2026-05-02T09:07:16.077Z</time></trkpt><trkpt lat="42.246915" lon="13.93701"><ele>142.66666666666666</ele><time>2026-05-02T09:07:20.076Z</time></trkpt><trkpt lat="42.24687" lon="13.9368967"><ele>143.0</ele><time>2026-05-02T09:07:38.076Z</time></trkpt><trkpt lat="42.2468283" lon="13.9367983"><ele>142.8</ele><time>2026-05-02T09:07:40.077Z</time></trkpt><trkpt lat="42.246785" lon="13.9367067"><ele>142.60000000000002</ele><time>2026-05-02T09:07:42.077Z</time></trkpt><trkpt lat="42.246755" lon="13.9365467"><ele>142.39999999999998</ele><time>2026-05-02T09:07:44.076Z</time></trkpt><trkpt lat="42.2467233" lon="13.9364533"><ele>142.2</ele><time>2026-05-02T09:07:45.077Z</time></trkpt><trkpt lat="42.2466733" lon="13.9363483"><ele>142.0</ele><time>2026-05-02T09:07:46.076Z</time></trkpt><trkpt lat="42.2466033" lon="13.936255"><ele>142.0</ele><time>2026-05-02T09:07:47.077Z</time></trkpt><trkpt lat="42.24654" lon="13.9362167"><ele>142.0</ele><time>2026-05-02T09:07:48.077Z</time></trkpt><trkpt lat="42.246425" lon="13.936275"><ele>142.0</ele><time>2026-05-02T09:07:50.076Z</time></trkpt><trkpt lat="42.24637" lon="13.93639"><ele>142.0</ele><time>2026-05-02T09:07:51.076Z</time></trkpt><trkpt lat="42.2463217" lon="13.9365017"><ele>142.0</ele><time>2026-05-02T09:07:52.077Z</time></trkpt><trkpt lat="42.24627" lon="13.9366017"><ele>143.66666666666669</ele><time>2026-05-02T09:07:54.077Z</time></trkpt><trkpt lat="42.2462233" lon="13.9366983"><ele>145.33333333333334</ele><time>2026-05-02T09:07:56.077Z</time></trkpt><trkpt lat="42.24622" lon="13.9367967"><ele>147.0</ele><time>2026-05-02T09:07:57.076Z</time></trkpt><trkpt lat="42.246225" lon="13.936915"><ele>148.66666666666666</ele><time>2026-05-02T09:07:58.076Z</time></trkpt><trkpt lat="42.2462417" lon="13.93703"><ele>150.33333333333331</ele><time>2026-05-02T09:07:59.076Z</time></trkpt><trkpt lat="42.2462517" lon="13.9371167"><ele>152.0</ele><time>2026-05-02T09:08:00.076Z</time></trkpt><trkpt lat="42.24624" lon="13.9373217"><ele>152.33333333333331</ele><time>2026-05-02T09:08:03.076Z</time></trkpt><trkpt lat="42.246205" lon="13.9374117"><ele>152.66666666666666</ele><time>2026-05-02T09:08:04.076Z</time></trkpt><trkpt lat="42.246155" lon="13.9374933"><ele>153.0</ele><time>2026-05-02T09:08:05.077Z</time></trkpt><trkpt lat="42.2460933" lon="13.937585"><ele>153.33333333333334</ele><time>2026-05-02T09:08:06.076Z</time></trkpt><trkpt lat="42.2460233" lon="13.93767"><ele>153.66666666666669</ele><time>2026-05-02T09:08:07.076Z</time></trkpt><trkpt lat="42.2459667" lon="13.937735"><ele>154.0</ele><time>2026-05-02T09:08:08.076Z</time></trkpt><trkpt lat="42.24589" lon="13.9378"><ele>154.0</ele><time>2026-05-02T09:08:10.077Z</time></trkpt><trkpt lat="42.2458233" lon="13.937735"><ele>154.0</ele><time>2026-05-02T09:08:13.077Z</time></trkpt><trkpt lat="42.2457917" lon="13.937655"><ele>154.0</ele><time>2026-05-02T09:08:14.077Z</time></trkpt><trkpt lat="42.2457517" lon="13.93755"><ele>154.0</ele><time>2026-05-02T09:08:15.077Z</time></trkpt><trkpt lat="42.2457083" lon="13.9374083"><ele>154.0</ele><time>2026-05-02T09:08:16.076Z</time></trkpt><trkpt lat="42.2456617" lon="13.9372667"><ele>154.25</ele><time>2026-05-02T09:08:17.076Z</time></trkpt><trkpt lat="42.2456167" lon="13.9371217"><ele>154.5</ele><time>2026-05-02T09:08:18.077Z</time></trkpt><trkpt lat="42.2455683" lon="13.9369433"><ele>154.75</ele><time>2026-05-02T09:08:19.077Z</time></trkpt><trkpt lat="42.2455167" lon="13.9367533"><ele>155.0</ele><time>2026-05-02T09:08:20.077Z</time></trkpt><trkpt lat="42.2454533" lon="13.9365817"><ele>155.5</ele><time>2026-05-02T09:08:21.077Z</time></trkpt><trkpt lat="42.2453883" lon="13.93641"><ele>156.0</ele><time>2026-05-02T09:08:22.077Z</time></trkpt><trkpt lat="42.245325" lon="13.9362417"><ele>156.5</ele><time>2026-05-02T09:08:23.076Z</time></trkpt><trkpt lat="42.2452667" lon="13.9360617"><ele>157.0</ele><time>2026-05-02T09:08:24.077Z</time></trkpt><trkpt lat="42.245205" lon="13.9358817"><ele>157.6</ele><time>2026-05-02T09:08:25.076Z</time></trkpt><trkpt lat="42.2451517" lon="13.9357183"><ele>158.2</ele><time>2026-05-02T09:08:26.077Z</time></trkpt><trkpt lat="42.245105" lon="13.9355683"><ele>158.8</ele><time>2026-05-02T09:08:27.077Z</time></trkpt><trkpt lat="42.2450667" lon="13.93544"><ele>159.4</ele><time>2026-05-02T09:08:28.076Z</time></trkpt><trkpt lat="42.2450283" lon="13.9353367"><ele>160.0</ele><time>2026-05-02T09:08:29.077Z</time></trkpt><trkpt lat="42.2449967" lon="13.9352483"><ele>160.0</ele><time>2026-05-02T09:08:30.077Z</time></trkpt><trkpt lat="42.2449217" lon="13.9351183"><ele>160.0</ele><time>2026-05-02T09:08:32.077Z</time></trkpt><trkpt lat="42.2448383" lon="13.9350683"><ele>160.0</ele><time>2026-05-02T09:08:34.076Z</time></trkpt><trkpt lat="42.244795" lon="13.934955"><ele>160.0</ele><time>2026-05-02T09:08:37.076Z</time></trkpt><trkpt lat="42.2446767" lon="13.9350183"><ele>160.0</ele><time>2026-05-02T09:08:39.076Z</time></trkpt><trkpt lat="42.24453" lon="13.935205"><ele>160.66666666666669</ele><time>2026-05-02T09:08:40.076Z</time></trkpt><trkpt lat="42.24448" lon="13.9355017"><ele>161.33333333333334</ele><time>2026-05-02T09:08:41.076Z</time></trkpt><trkpt lat="42.2444467" lon="13.9357817"><ele>162.0</ele><time>2026-05-02T09:08:42.077Z</time></trkpt><trkpt lat="42.2444183" lon="13.9360267"><ele>162.0</ele><time>2026-05-02T09:08:43.077Z</time></trkpt><trkpt lat="42.244375" lon="13.9362233"><ele>162.0</ele><time>2026-05-02T09:08:44.076Z</time></trkpt><trkpt lat="42.244325" lon="13.9363883"><ele>162.0</ele><time>2026-05-02T09:08:45.077Z</time></trkpt><trkpt lat="42.2442633" lon="13.9365367"><ele>162.0</ele><time>2026-05-02T09:08:46.076Z</time></trkpt><trkpt lat="42.2441983" lon="13.9366733"><ele>161.66666666666666</ele><time>2026-05-02T09:08:47.076Z</time></trkpt><trkpt lat="42.24414" lon="13.93678"><ele>161.33333333333334</ele><time>2026-05-02T09:08:48.076Z</time></trkpt><trkpt lat="42.2441" lon="13.9368667"><ele>161.0</ele><time>2026-05-02T09:08:49.076Z</time></trkpt><trkpt lat="42.244055" lon="13.9369367"><ele>160.66666666666669</ele><time>2026-05-02T09:08:50.077Z</time></trkpt><trkpt lat="42.2439717" lon="13.93697"><ele>160.33333333333334</ele><time>2026-05-02T09:08:52.076Z</time></trkpt><trkpt lat="42.2439017" lon="13.9368683"><ele>160.0</ele><time>2026-05-02T09:08:54.076Z</time></trkpt><trkpt lat="42.24387" lon="13.9367833"><ele>161.0</ele><time>2026-05-02T09:08:55.076Z</time></trkpt><trkpt lat="42.2438367" lon="13.9366733"><ele>162.0</ele><time>2026-05-02T09:08:56.076Z</time></trkpt><trkpt lat="42.2438033" lon="13.93655"><ele>163.0</ele><time>2026-05-02T09:08:57.076Z</time></trkpt><trkpt lat="42.2437617" lon="13.9364167"><ele>164.0</ele><time>2026-05-02T09:08:58.076Z</time></trkpt><trkpt lat="42.24373" lon="13.936285"><ele>165.0</ele><time>2026-05-02T09:08:59.077Z</time></trkpt><trkpt lat="42.2436933" lon="13.9361317"><ele>165.0</ele><time>2026-05-02T09:09:00.077Z</time></trkpt><trkpt lat="42.2436533" lon="13.9359617"><ele>165.0</ele><time>2026-05-02T09:09:01.077Z</time></trkpt><trkpt lat="42.243605" lon="13.935785"><ele>165.0</ele><time>2026-05-02T09:09:02.077Z</time></trkpt><trkpt lat="42.2435633" lon="13.9355933"><ele>165.0</ele><time>2026-05-02T09:09:03.077Z</time></trkpt><trkpt lat="42.2435183" lon="13.935405"><ele>165.5</ele><time>2026-05-02T09:09:04.076Z</time></trkpt><trkpt lat="42.243465" lon="13.9352117"><ele>166.0</ele><time>2026-05-02T09:09:05.077Z</time></trkpt><trkpt lat="42.24343" lon="13.93502"><ele>166.5</ele><time>2026-05-02T09:09:06.076Z</time></trkpt><trkpt lat="42.2433867" lon="13.934845"><ele>167.0</ele><time>2026-05-02T09:09:07.077Z</time></trkpt><trkpt lat="42.2433417" lon="13.934685"><ele>167.5</ele><time>2026-05-02T09:09:08.077Z</time></trkpt><trkpt lat="42.2433" lon="13.9345283"><ele>168.0</ele><time>2026-05-02T09:09:09.077Z</time></trkpt><trkpt lat="42.2432633" lon="13.9343783"><ele>168.5</ele><time>2026-05-02T09:09:10.076Z</time></trkpt><trkpt lat="42.2432233" lon="13.9342383"><ele>169.0</ele><time>2026-05-02T09:09:11.076Z</time></trkpt><trkpt lat="42.2431933" lon="13.9341117"><ele>169.2</ele><time>2026-05-02T09:09:12.076Z</time></trkpt><trkpt lat="42.2431617" lon="13.9339933"><ele>169.39999999999998</ele><time>2026-05-02T09:09:13.077Z</time></trkpt><trkpt lat="42.2431267" lon="13.93387"><ele>169.6</ele><time>2026-05-02T09:09:14.076Z</time></trkpt><trkpt lat="42.2430967" lon="13.9337367"><ele>169.8</ele><time>2026-05-02T09:09:15.076Z</time></trkpt><trkpt lat="42.2430617" lon="13.9336033"><ele>170.0</ele><time>2026-05-02T09:09:16.076Z</time></trkpt><trkpt lat="42.2430333" lon="13.9334667"><ele>171.4</ele><time>2026-05-02T09:09:17.076Z</time></trkpt><trkpt lat="42.243" lon="13.9333367"><ele>172.8</ele><time>2026-05-02T09:09:18.076Z</time></trkpt><trkpt lat="42.2429667" lon="13.933205"><ele>174.2</ele><time>2026-05-02T09:09:19.076Z</time></trkpt><trkpt lat="42.2429317" lon="13.9330583"><ele>175.6</ele><time>2026-05-02T09:09:20.077Z</time></trkpt><trkpt lat="42.2428917" lon="13.9329183"><ele>177.0</ele><time>2026-05-02T09:09:21.077Z</time></trkpt><trkpt lat="42.2428467" lon="13.932775"><ele>177.0</ele><time>2026-05-02T09:09:22.077Z</time></trkpt><trkpt lat="42.242805" lon="13.9326267"><ele>177.0</ele><time>2026-05-02T09:09:23.076Z</time></trkpt><trkpt lat="42.24277" lon="13.93247"><ele>177.0</ele><time>2026-05-02T09:09:24.076Z</time></trkpt><trkpt lat="42.242735" lon="13.9323183"><ele>177.0</ele><time>2026-05-02T09:09:25.077Z</time></trkpt><trkpt lat="42.2427033" lon="13.9321667"><ele>177.39999999999998</ele><time>2026-05-02T09:09:26.076Z</time></trkpt><trkpt lat="42.2426683" lon="13.9320317"><ele>177.79999999999998</ele><time>2026-05-02T09:09:27.076Z</time></trkpt><trkpt lat="42.24263" lon="13.9318983"><ele>178.2</ele><time>2026-05-02T09:09:28.077Z</time></trkpt><trkpt lat="42.242595" lon="13.931765"><ele>178.6</ele><time>2026-05-02T09:09:29.077Z</time></trkpt><trkpt lat="42.2425617" lon="13.9316267"><ele>179.0</ele><time>2026-05-02T09:09:30.077Z</time></trkpt><trkpt lat="42.24253" lon="13.9314933"><ele>179.39999999999998</ele><time>2026-05-02T09:09:31.077Z</time></trkpt><trkpt lat="42.2424983" lon="13.931355"><ele>179.8</ele><time>2026-05-02T09:09:32.076Z</time></trkpt><trkpt lat="42.2424733" lon="13.9312283"><ele>180.2</ele><time>2026-05-02T09:09:33.077Z</time></trkpt><trkpt lat="42.2424367" lon="13.9311017"><ele>180.60000000000002</ele><time>2026-05-02T09:09:34.076Z</time></trkpt><trkpt lat="42.24241" lon="13.9309733"><ele>181.0</ele><time>2026-05-02T09:09:35.076Z</time></trkpt><trkpt lat="42.2423817" lon="13.9308317"><ele>181.20000000000002</ele><time>2026-05-02T09:09:36.076Z</time></trkpt><trkpt lat="42.24234" lon="13.9306983"><ele>181.4</ele><time>2026-05-02T09:09:37.076Z</time></trkpt><trkpt lat="42.2423017" lon="13.9305633"><ele>181.6</ele><time>2026-05-02T09:09:38.076Z</time></trkpt><trkpt lat="42.24227" lon="13.9304317"><ele>181.8</ele><time>2026-05-02T09:09:39.077Z</time></trkpt><trkpt lat="42.2422383" lon="13.9302867"><ele>182.0</ele><time>2026-05-02T09:09:40.077Z</time></trkpt><trkpt lat="42.2421933" lon="13.93014"><ele>182.0</ele><time>2026-05-02T09:09:41.076Z</time></trkpt><trkpt lat="42.2421567" lon="13.929985"><ele>182.0</ele><time>2026-05-02T09:09:42.077Z</time></trkpt><trkpt lat="42.242115" lon="13.9298317"><ele>182.0</ele><time>2026-05-02T09:09:43.076Z</time></trkpt><trkpt lat="42.2420767" lon="13.92967"><ele>182.0</ele><time>2026-05-02T09:09:44.077Z</time></trkpt><trkpt lat="42.2420367" lon="13.9295083"><ele>182.0</ele><time>2026-05-02T09:09:45.077Z</time></trkpt><trkpt lat="42.2420033" lon="13.9293467"><ele>182.0</ele><time>2026-05-02T09:09:46.076Z</time></trkpt><trkpt lat="42.2419633" lon="13.9291833"><ele>182.0</ele><time>2026-05-02T09:09:47.077Z</time></trkpt><trkpt lat="42.241915" lon="13.9290267"><ele>182.0</ele><time>2026-05-02T09:09:48.076Z</time></trkpt><trkpt lat="42.24187" lon="13.928865"><ele>182.0</ele><time>2026-05-02T09:09:49.076Z</time></trkpt><trkpt lat="42.2418333" lon="13.928705"><ele>182.0</ele><time>2026-05-02T09:09:50.077Z</time></trkpt><trkpt lat="42.24179" lon="13.9285517"><ele>182.0</ele><time>2026-05-02T09:09:51.076Z</time></trkpt><trkpt lat="42.2417517" lon="13.9283933"><ele>182.0</ele><time>2026-05-02T09:09:52.077Z</time></trkpt><trkpt lat="42.24172" lon="13.9282317"><ele>183.0</ele><time>2026-05-02T09:09:53.076Z</time></trkpt><trkpt lat="42.24168" lon="13.9280667"><ele>184.0</ele><time>2026-05-02T09:09:54.076Z</time></trkpt><trkpt lat="42.2416433" lon="13.9279183"><ele>185.0</ele><time>2026-05-02T09:09:55.077Z</time></trkpt><trkpt lat="42.241605" lon="13.927775"><ele>186.0</ele><time>2026-05-02T09:09:56.076Z</time></trkpt><trkpt lat="42.2415783" lon="13.9276433"><ele>186.0</ele><time>2026-05-02T09:09:57.076Z</time></trkpt><trkpt lat="42.2415383" lon="13.9275133"><ele>186.0</ele><time>2026-05-02T09:09:58.076Z</time></trkpt><trkpt lat="42.241505" lon="13.92737"><ele>186.0</ele><time>2026-05-02T09:09:59.076Z</time></trkpt><trkpt lat="42.2414733" lon="13.9272317"><ele>186.0</ele><time>2026-05-02T09:10:00.077Z</time></trkpt><trkpt lat="42.2414517" lon="13.9271233"><ele>186.0</ele><time>2026-05-02T09:10:01.076Z</time></trkpt><trkpt lat="42.2414283" lon="13.92703"><ele>186.0</ele><time>2026-05-02T09:10:02.077Z</time></trkpt><trkpt lat="42.2414067" lon="13.9269367"><ele>186.0</ele><time>2026-05-02T09:10:03.077Z</time></trkpt><trkpt lat="42.2413717" lon="13.9267917"><ele>186.0</ele><time>2026-05-02T09:10:05.076Z</time></trkpt><trkpt lat="42.2413433" lon="13.9266817"><ele>186.0</ele><time>2026-05-02T09:10:07.076Z</time></trkpt><trkpt lat="42.24132" lon="13.9265633"><ele>186.0</ele><time>2026-05-02T09:10:10.077Z</time></trkpt><trkpt lat="42.2412967" lon="13.9264783"><ele>186.0</ele><time>2026-05-02T09:10:24.075Z</time></trkpt><trkpt lat="42.241325" lon="13.9263683"><ele>186.25</ele><time>2026-05-02T09:10:26.075Z</time></trkpt><trkpt lat="42.2414183" lon="13.9263033"><ele>186.5</ele><time>2026-05-02T09:10:28.075Z</time></trkpt><trkpt lat="42.2415167" lon="13.9263033"><ele>186.75</ele><time>2026-05-02T09:10:29.076Z</time></trkpt><trkpt lat="42.24166" lon="13.9263367"><ele>187.0</ele><time>2026-05-02T09:10:30.076Z</time></trkpt><trkpt lat="42.24183" lon="13.9263767"><ele>187.0</ele><time>2026-05-02T09:10:31.076Z</time></trkpt><trkpt lat="42.2419917" lon="13.9264283"><ele>187.0</ele><time>2026-05-02T09:10:32.075Z</time></trkpt><trkpt lat="42.2421183" lon="13.926485"><ele>187.0</ele><time>2026-05-02T09:10:33.076Z</time></trkpt><trkpt lat="42.2422317" lon="13.9265617"><ele>187.0</ele><time>2026-05-02T09:10:34.076Z</time></trkpt><trkpt lat="42.242335" lon="13.9266517"><ele>186.5</ele><time>2026-05-02T09:10:35.075Z</time></trkpt><trkpt lat="42.242435" lon="13.9267783"><ele>186.0</ele><time>2026-05-02T09:10:36.076Z</time></trkpt><trkpt lat="42.2425333" lon="13.9268983"><ele>185.5</ele><time>2026-05-02T09:10:37.075Z</time></trkpt><trkpt lat="42.2426317" lon="13.92702"><ele>185.0</ele><time>2026-05-02T09:10:38.075Z</time></trkpt><trkpt lat="42.2427183" lon="13.92715"><ele>185.0</ele><time>2026-05-02T09:10:39.076Z</time></trkpt><trkpt lat="42.2428117" lon="13.92728"><ele>185.0</ele><time>2026-05-02T09:10:40.075Z</time></trkpt><trkpt lat="42.2429167" lon="13.9274133"><ele>185.0</ele><time>2026-05-02T09:10:41.075Z</time></trkpt><trkpt lat="42.2430283" lon="13.9275433"><ele>185.0</ele><time>2026-05-02T09:10:42.075Z</time></trkpt><trkpt lat="42.2431267" lon="13.9276817"><ele>184.2</ele><time>2026-05-02T09:10:43.076Z</time></trkpt><trkpt lat="42.24321" lon="13.9278017"><ele>183.4</ele><time>2026-05-02T09:10:44.075Z</time></trkpt><trkpt lat="42.2432883" lon="13.9279"><ele>182.60000000000002</ele><time>2026-05-02T09:10:45.076Z</time></trkpt><trkpt lat="42.2433717" lon="13.928"><ele>181.8</ele><time>2026-05-02T09:10:46.076Z</time></trkpt><trkpt lat="42.24344" lon="13.9281067"><ele>181.0</ele><time>2026-05-02T09:10:47.076Z</time></trkpt><trkpt lat="42.2435" lon="13.92821"><ele>181.0</ele><time>2026-05-02T09:10:48.075Z</time></trkpt><trkpt lat="42.243565" lon="13.9283033"><ele>181.0</ele><time>2026-05-02T09:10:49.075Z</time></trkpt><trkpt lat="42.2436317" lon="13.92837"><ele>181.0</ele><time>2026-05-02T09:10:50.075Z</time></trkpt><trkpt lat="42.2437183" lon="13.9284233"><ele>181.0</ele><time>2026-05-02T09:10:51.075Z</time></trkpt><trkpt lat="42.2438" lon="13.9284617"><ele>181.0</ele><time>2026-05-02T09:10:52.075Z</time></trkpt><trkpt lat="42.243875" lon="13.9284533"><ele>181.0</ele><time>2026-05-02T09:10:53.075Z</time></trkpt><trkpt lat="42.24397" lon="13.9284067"><ele>180.5</ele><time>2026-05-02T09:10:54.075Z</time></trkpt><trkpt lat="42.2440517" lon="13.9283667"><ele>180.0</ele><time>2026-05-02T09:10:55.075Z</time></trkpt><trkpt lat="42.244135" lon="13.92833"><ele>179.5</ele><time>2026-05-02T09:10:56.076Z</time></trkpt><trkpt lat="42.2442117" lon="13.9282917"><ele>179.0</ele><time>2026-05-02T09:10:57.076Z</time></trkpt><trkpt lat="42.24428" lon="13.9282383"><ele>178.5</ele><time>2026-05-02T09:10:58.075Z</time></trkpt><trkpt lat="42.244335" lon="13.9281783"><ele>178.0</ele><time>2026-05-02T09:10:59.076Z</time></trkpt><trkpt lat="42.2444033" lon="13.92802"><ele>178.0</ele><time>2026-05-02T09:11:01.075Z</time></trkpt><trkpt lat="42.244425" lon="13.92794"><ele>178.0</ele><time>2026-05-02T09:11:02.075Z</time></trkpt><trkpt lat="42.2444683" lon="13.9277817"><ele>178.0</ele><time>2026-05-02T09:11:04.075Z</time></trkpt><trkpt lat="42.2444867" lon="13.92767"><ele>178.0</ele><time>2026-05-02T09:11:05.075Z</time></trkpt><trkpt lat="42.2445" lon="13.9275383"><ele>178.0</ele><time>2026-05-02T09:11:06.075Z</time></trkpt><trkpt lat="42.2445033" lon="13.9274"><ele>179.4</ele><time>2026-05-02T09:11:07.075Z</time></trkpt><trkpt lat="42.2445183" lon="13.9272817"><ele>180.8</ele><time>2026-05-02T09:11:08.075Z</time></trkpt><trkpt lat="42.244545" lon="13.9271817"><ele>182.2</ele><time>2026-05-02T09:11:09.076Z</time></trkpt><trkpt lat="42.2445967" lon="13.9270433"><ele>183.6</ele><time>2026-05-02T09:11:11.076Z</time></trkpt><trkpt lat="42.2446" lon="13.9269117"><ele>185.0</ele><time>2026-05-02T09:11:14.076Z</time></trkpt><trkpt lat="42.24461" lon="13.9267983"><ele>185.0</ele><time>2026-05-02T09:11:16.076Z</time></trkpt><trkpt lat="42.2446333" lon="13.926695"><ele>185.0</ele><time>2026-05-02T09:11:19.076Z</time></trkpt><trkpt lat="42.2446167" lon="13.9268117"><ele>185.0</ele><time>2026-05-02T09:15:20.075Z</time></trkpt><trkpt lat="42.2445867" lon="13.9269017"><ele>185.0</ele><time>2026-05-02T09:15:22.076Z</time></trkpt><trkpt lat="42.2446333" lon="13.9269633"><ele>185.0</ele><time>2026-05-02T09:15:27.075Z</time></trkpt><trkpt lat="42.2447617" lon="13.9269217"><ele>185.0</ele><time>2026-05-02T09:15:29.076Z</time></trkpt><trkpt lat="42.2448633" lon="13.9268967"><ele>180.5</ele><time>2026-05-02T09:15:30.075Z</time></trkpt><trkpt lat="42.244985" lon="13.926865"><ele>176.0</ele><time>2026-05-02T09:15:31.076Z</time></trkpt><trkpt lat="42.2451367" lon="13.9268417"><ele>171.5</ele><time>2026-05-02T09:15:32.076Z</time></trkpt><trkpt lat="42.24529" lon="13.9268217"><ele>167.0</ele><time>2026-05-02T09:15:33.075Z</time></trkpt><trkpt lat="42.2454467" lon="13.926825"><ele>167.0</ele><time>2026-05-02T09:15:34.075Z</time></trkpt><trkpt lat="42.245605" lon="13.926835"><ele>167.0</ele><time>2026-05-02T09:15:35.075Z</time></trkpt><trkpt lat="42.2457417" lon="13.9268367"><ele>167.0</ele><time>2026-05-02T09:15:36.076Z</time></trkpt><trkpt lat="42.2458517" lon="13.926835"><ele>167.0</ele><time>2026-05-02T09:15:37.075Z</time></trkpt><trkpt lat="42.2459467" lon="13.9268283"><ele>166.14285714285714</ele><time>2026-05-02T09:15:38.075Z</time></trkpt><trkpt lat="42.2460267" lon="13.92682"><ele>165.28571428571428</ele><time>2026-05-02T09:15:39.076Z</time></trkpt><trkpt lat="42.24609" lon="13.9268167"><ele>164.42857142857144</ele><time>2026-05-02T09:15:40.076Z</time></trkpt><trkpt lat="42.24617" lon="13.926825"><ele>163.57142857142856</ele><time>2026-05-02T09:15:42.076Z</time></trkpt><trkpt lat="42.2462117" lon="13.926755"><ele>162.71428571428572</ele><time>2026-05-02T09:15:44.075Z</time></trkpt><trkpt lat="42.246225" lon="13.9266633"><ele>161.85714285714286</ele><time>2026-05-02T09:15:46.075Z</time></trkpt><trkpt lat="42.24617" lon="13.9266117"><ele>161.0</ele><time>2026-05-02T09:15:49.076Z</time></trkpt><trkpt lat="42.2460383" lon="13.9265983"><ele>160.83333333333331</ele><time>2026-05-02T09:15:51.075Z</time></trkpt><trkpt lat="42.2459267" lon="13.9265917"><ele>160.66666666666666</ele><time>2026-05-02T09:15:52.075Z</time></trkpt><trkpt lat="42.2458233" lon="13.9265817"><ele>160.5</ele><time>2026-05-02T09:15:53.075Z</time></trkpt><trkpt lat="42.2457483" lon="13.9265383"><ele>160.33333333333334</ele><time>2026-05-02T09:15:54.076Z</time></trkpt><trkpt lat="42.2456983" lon="13.926485"><ele>160.16666666666669</ele><time>2026-05-02T09:15:55.075Z</time></trkpt><trkpt lat="42.2456667" lon="13.9264033"><ele>160.0</ele><time>2026-05-02T09:15:56.076Z</time></trkpt><trkpt lat="42.24564" lon="13.926305"><ele>161.5</ele><time>2026-05-02T09:15:57.076Z</time></trkpt><trkpt lat="42.2456283" lon="13.9261583"><ele>163.0</ele><time>2026-05-02T09:15:58.076Z</time></trkpt><trkpt lat="42.2456283" lon="13.92598"><ele>164.5</ele><time>2026-05-02T09:15:59.075Z</time></trkpt><trkpt lat="42.2456183" lon="13.9257867"><ele>166.0</ele><time>2026-05-02T09:16:00.076Z</time></trkpt><trkpt lat="42.2456083" lon="13.9255867"><ele>165.5</ele><time>2026-05-02T09:16:01.075Z</time></trkpt><trkpt lat="42.245605" lon="13.92539"><ele>165.0</ele><time>2026-05-02T09:16:02.075Z</time></trkpt><trkpt lat="42.2456183" lon="13.925195"><ele>164.5</ele><time>2026-05-02T09:16:03.075Z</time></trkpt><trkpt lat="42.2456467" lon="13.9249967"><ele>164.0</ele><time>2026-05-02T09:16:04.076Z</time></trkpt><trkpt lat="42.2456883" lon="13.9247917"><ele>164.0</ele><time>2026-05-02T09:16:05.076Z</time></trkpt><trkpt lat="42.2457267" lon="13.9246033"><ele>164.0</ele><time>2026-05-02T09:16:06.075Z</time></trkpt><trkpt lat="42.2457717" lon="13.9244483"><ele>164.0</ele><time>2026-05-02T09:16:07.076Z</time></trkpt><trkpt lat="42.24582" lon="13.9243317"><ele>164.0</ele><time>2026-05-02T09:16:08.075Z</time></trkpt><trkpt lat="42.2458867" lon="13.924225"><ele>164.0</ele><time>2026-05-02T09:16:09.075Z</time></trkpt><trkpt lat="42.24597" lon="13.9241217"><ele>164.0</ele><time>2026-05-02T09:16:10.075Z</time></trkpt><trkpt lat="42.2460483" lon="13.9239967"><ele>164.0</ele><time>2026-05-02T09:16:11.076Z</time></trkpt><trkpt lat="42.246115" lon="13.9238617"><ele>164.0</ele><time>2026-05-02T09:16:12.075Z</time></trkpt><trkpt lat="42.24615" lon="13.9237167"><ele>164.0</ele><time>2026-05-02T09:16:13.076Z</time></trkpt><trkpt lat="42.2461583" lon="13.923555"><ele>164.0</ele><time>2026-05-02T09:16:14.076Z</time></trkpt><trkpt lat="42.2461617" lon="13.9233733"><ele>164.0</ele><time>2026-05-02T09:16:15.075Z</time></trkpt><trkpt lat="42.246165" lon="13.9231733"><ele>164.0</ele><time>2026-05-02T09:16:16.075Z</time></trkpt><trkpt lat="42.2461567" lon="13.92296"><ele>164.66666666666666</ele><time>2026-05-02T09:16:17.076Z</time></trkpt><trkpt lat="42.2461417" lon="13.922735"><ele>165.33333333333334</ele><time>2026-05-02T09:16:18.076Z</time></trkpt><trkpt lat="42.24613" lon="13.92251"><ele>166.0</ele><time>2026-05-02T09:16:19.076Z</time></trkpt><trkpt lat="42.2461233" lon="13.9222967"><ele>166.25</ele><time>2026-05-02T09:16:20.076Z</time></trkpt><trkpt lat="42.2461083" lon="13.9221083"><ele>166.5</ele><time>2026-05-02T09:16:21.076Z</time></trkpt><trkpt lat="42.2460917" lon="13.9219317"><ele>166.75</ele><time>2026-05-02T09:16:22.075Z</time></trkpt><trkpt lat="42.24606" lon="13.9217467"><ele>167.0</ele><time>2026-05-02T09:16:23.076Z</time></trkpt><trkpt lat="42.2460133" lon="13.9215533"><ele>167.5</ele><time>2026-05-02T09:16:24.075Z</time></trkpt><trkpt lat="42.2459633" lon="13.9213617"><ele>168.0</ele><time>2026-05-02T09:16:25.075Z</time></trkpt><trkpt lat="42.2459183" lon="13.9211783"><ele>168.5</ele><time>2026-05-02T09:16:26.076Z</time></trkpt><trkpt lat="42.2458683" lon="13.9210067"><ele>169.0</ele><time>2026-05-02T09:16:27.076Z</time></trkpt><trkpt lat="42.245805" lon="13.9208317"><ele>169.25</ele><time>2026-05-02T09:16:28.074Z</time></trkpt><trkpt lat="42.2457183" lon="13.9206583"><ele>169.5</ele><time>2026-05-02T09:16:29.075Z</time></trkpt><trkpt lat="42.245625" lon="13.9204917"><ele>169.75</ele><time>2026-05-02T09:16:30.074Z</time></trkpt><trkpt lat="42.2455483" lon="13.9203467"><ele>170.0</ele><time>2026-05-02T09:16:31.074Z</time></trkpt><trkpt lat="42.2455067" lon="13.9202133"><ele>171.4</ele><time>2026-05-02T09:16:32.075Z</time></trkpt><trkpt lat="42.2454867" lon="13.9200767"><ele>172.8</ele><time>2026-05-02T09:16:33.074Z</time></trkpt><trkpt lat="42.2454717" lon="13.9199517"><ele>174.2</ele><time>2026-05-02T09:16:34.074Z</time></trkpt><trkpt lat="42.2454517" lon="13.919845"><ele>175.6</ele><time>2026-05-02T09:16:35.075Z</time></trkpt><trkpt lat="42.245415" lon="13.9197367"><ele>177.0</ele><time>2026-05-02T09:16:36.075Z</time></trkpt><trkpt lat="42.24536" lon="13.9196083"><ele>177.0</ele><time>2026-05-02T09:16:37.075Z</time></trkpt><trkpt lat="42.2453017" lon="13.91945"><ele>177.0</ele><time>2026-05-02T09:16:38.074Z</time></trkpt><trkpt lat="42.2452667" lon="13.9192867"><ele>177.0</ele><time>2026-05-02T09:16:39.074Z</time></trkpt><trkpt lat="42.245255" lon="13.91914"><ele>177.0</ele><time>2026-05-02T09:16:40.074Z</time></trkpt><trkpt lat="42.245265" lon="13.9189883"><ele>176.5</ele><time>2026-05-02T09:16:41.075Z</time></trkpt><trkpt lat="42.2452867" lon="13.9188083"><ele>176.0</ele><time>2026-05-02T09:16:42.074Z</time></trkpt><trkpt lat="42.24532" lon="13.91862"><ele>175.5</ele><time>2026-05-02T09:16:43.075Z</time></trkpt><trkpt lat="42.24536" lon="13.9184183"><ele>175.0</ele><time>2026-05-02T09:16:44.074Z</time></trkpt><trkpt lat="42.2453983" lon="13.9182167"><ele>174.75</ele><time>2026-05-02T09:16:45.074Z</time></trkpt><trkpt lat="42.2454283" lon="13.9180383"><ele>174.5</ele><time>2026-05-02T09:16:46.074Z</time></trkpt><trkpt lat="42.245445" lon="13.9178767"><ele>174.25</ele><time>2026-05-02T09:16:47.074Z</time></trkpt><trkpt lat="42.245435" lon="13.91773"><ele>174.0</ele><time>2026-05-02T09:16:48.075Z</time></trkpt><trkpt lat="42.2454" lon="13.9175817"><ele>174.0</ele><time>2026-05-02T09:16:49.075Z</time></trkpt><trkpt lat="42.2453483" lon="13.917455"><ele>174.0</ele><time>2026-05-02T09:16:50.075Z</time></trkpt><trkpt lat="42.2452817" lon="13.91733"><ele>174.0</ele><time>2026-05-02T09:16:51.074Z</time></trkpt><trkpt lat="42.2451983" lon="13.917185"><ele>174.0</ele><time>2026-05-02T09:16:52.074Z</time></trkpt><trkpt lat="42.245095" lon="13.9170383"><ele>174.0</ele><time>2026-05-02T09:16:53.075Z</time></trkpt><trkpt lat="42.244995" lon="13.91689"><ele>174.0</ele><time>2026-05-02T09:16:54.075Z</time></trkpt><trkpt lat="42.2449167" lon="13.9167333"><ele>174.0</ele><time>2026-05-02T09:16:55.074Z</time></trkpt><trkpt lat="42.2448517" lon="13.91658"><ele>174.0</ele><time>2026-05-02T09:16:56.075Z</time></trkpt><trkpt lat="42.2447883" lon="13.9164617"><ele>175.0</ele><time>2026-05-02T09:16:57.075Z</time></trkpt><trkpt lat="42.2447217" lon="13.9163783"><ele>176.0</ele><time>2026-05-02T09:16:58.075Z</time></trkpt><trkpt lat="42.2446483" lon="13.916345"><ele>177.0</ele><time>2026-05-02T09:16:59.075Z</time></trkpt><trkpt lat="42.2445417" lon="13.9163133"><ele>178.0</ele><time>2026-05-02T09:17:00.074Z</time></trkpt><trkpt lat="42.2444483" lon="13.9162833"><ele>179.0</ele><time>2026-05-02T09:17:01.074Z</time></trkpt><trkpt lat="42.2443733" lon="13.916225"><ele>179.0</ele><time>2026-05-02T09:17:02.075Z</time></trkpt><trkpt lat="42.24432" lon="13.91615"><ele>179.0</ele><time>2026-05-02T09:17:03.075Z</time></trkpt><trkpt lat="42.2442733" lon="13.916035"><ele>179.0</ele><time>2026-05-02T09:17:04.075Z</time></trkpt><trkpt lat="42.2442333" lon="13.9158733"><ele>179.0</ele><time>2026-05-02T09:17:05.075Z</time></trkpt><trkpt lat="42.2441867" lon="13.9156983"><ele>179.0</ele><time>2026-05-02T09:17:06.074Z</time></trkpt><trkpt lat="42.24412" lon="13.915525"><ele>179.25</ele><time>2026-05-02T09:17:07.075Z</time></trkpt><trkpt lat="42.244055" lon="13.91538"><ele>179.5</ele><time>2026-05-02T09:17:08.074Z</time></trkpt><trkpt lat="42.2439867" lon="13.9152717"><ele>179.75</ele><time>2026-05-02T09:17:09.075Z</time></trkpt><trkpt lat="42.243905" lon="13.9151917"><ele>180.0</ele><time>2026-05-02T09:17:10.074Z</time></trkpt><trkpt lat="42.2437933" lon="13.9151283"><ele>181.5</ele><time>2026-05-02T09:17:11.074Z</time></trkpt><trkpt lat="42.2436817" lon="13.915035"><ele>183.0</ele><time>2026-05-02T09:17:12.074Z</time></trkpt><trkpt lat="42.2435833" lon="13.9149083"><ele>184.5</ele><time>2026-05-02T09:17:13.074Z</time></trkpt><trkpt lat="42.2434933" lon="13.9147667"><ele>186.0</ele><time>2026-05-02T09:17:14.075Z</time></trkpt><trkpt lat="42.2434117" lon="13.9146433"><ele>186.0</ele><time>2026-05-02T09:17:15.075Z</time></trkpt><trkpt lat="42.243355" lon="13.9145583"><ele>186.0</ele><time>2026-05-02T09:17:16.074Z</time></trkpt><trkpt lat="42.2432833" lon="13.91442"><ele>186.0</ele><time>2026-05-02T09:17:18.075Z</time></trkpt><trkpt lat="42.2432633" lon="13.9143167"><ele>186.0</ele><time>2026-05-02T09:17:19.074Z</time></trkpt><trkpt lat="42.2432467" lon="13.91417"><ele>186.0</ele><time>2026-05-02T09:17:20.075Z</time></trkpt><trkpt lat="42.24323" lon="13.91399"><ele>187.25</ele><time>2026-05-02T09:17:21.074Z</time></trkpt><trkpt lat="42.2432117" lon="13.91377"><ele>188.5</ele><time>2026-05-02T09:17:22.074Z</time></trkpt><trkpt lat="42.24319" lon="13.9135583"><ele>189.75</ele><time>2026-05-02T09:17:23.075Z</time></trkpt><trkpt lat="42.2431583" lon="13.9133967"><ele>191.0</ele><time>2026-05-02T09:17:24.074Z</time></trkpt><trkpt lat="42.2431217" lon="13.91325"><ele>191.0</ele><time>2026-05-02T09:17:25.074Z</time></trkpt><trkpt lat="42.2430683" lon="13.9131017"><ele>191.0</ele><time>2026-05-02T09:17:26.074Z</time></trkpt><trkpt lat="42.2429817" lon="13.912955"><ele>191.0</ele><time>2026-05-02T09:17:27.075Z</time></trkpt><trkpt lat="42.2428967" lon="13.9128033"><ele>191.0</ele><time>2026-05-02T09:17:28.074Z</time></trkpt><trkpt lat="42.242835" lon="13.912675"><ele>191.20000000000002</ele><time>2026-05-02T09:17:29.074Z</time></trkpt><trkpt lat="42.242785" lon="13.91254"><ele>191.4</ele><time>2026-05-02T09:17:30.075Z</time></trkpt><trkpt lat="42.2427317" lon="13.91238"><ele>191.6</ele><time>2026-05-02T09:17:31.075Z</time></trkpt><trkpt lat="42.2426833" lon="13.9122467"><ele>191.8</ele><time>2026-05-02T09:17:32.075Z</time></trkpt><trkpt lat="42.2426417" lon="13.9121583"><ele>192.0</ele><time>2026-05-02T09:17:33.074Z</time></trkpt><trkpt lat="42.2425733" lon="13.9120733"><ele>192.0</ele><time>2026-05-02T09:17:35.075Z</time></trkpt><trkpt lat="42.242495" lon="13.9121133"><ele>192.0</ele><time>2026-05-02T09:17:37.075Z</time></trkpt><trkpt lat="42.242445" lon="13.9121783"><ele>192.0</ele><time>2026-05-02T09:17:38.074Z</time></trkpt><trkpt lat="42.242375" lon="13.9122633"><ele>192.0</ele><time>2026-05-02T09:17:39.074Z</time></trkpt><trkpt lat="42.2422967" lon="13.9123583"><ele>192.0</ele><time>2026-05-02T09:17:40.074Z</time></trkpt><trkpt lat="42.2422233" lon="13.91245"><ele>193.66666666666666</ele><time>2026-05-02T09:17:41.075Z</time></trkpt><trkpt lat="42.242165" lon="13.9125283"><ele>195.33333333333331</ele><time>2026-05-02T09:17:42.074Z</time></trkpt><trkpt lat="42.242115" lon="13.9125817"><ele>197.0</ele><time>2026-05-02T09:17:43.074Z</time></trkpt><trkpt lat="42.24206" lon="13.9126233"><ele>198.66666666666666</ele><time>2026-05-02T09:17:45.074Z</time></trkpt><trkpt lat="42.24206" lon="13.9125233"><ele>200.33333333333331</ele><time>2026-05-02T09:17:47.075Z</time></trkpt><trkpt lat="42.2420917" lon="13.9123617"><ele>202.0</ele><time>2026-05-02T09:17:49.074Z</time></trkpt><trkpt lat="42.24208" lon="13.9122717"><ele>201.99999999999997</ele><time>2026-05-02T09:17:50.074Z</time></trkpt><trkpt lat="42.2420533" lon="13.912165"><ele>202.0</ele><time>2026-05-02T09:17:51.075Z</time></trkpt><trkpt lat="42.242025" lon="13.9120617"><ele>202.0</ele><time>2026-05-02T09:17:52.075Z</time></trkpt><trkpt lat="42.2419933" lon="13.9119667"><ele>202.0</ele><time>2026-05-02T09:17:53.074Z</time></trkpt><trkpt lat="42.2419383" lon="13.91187"><ele>201.99999999999997</ele><time>2026-05-02T09:17:54.075Z</time></trkpt><trkpt lat="42.2418833" lon="13.9117783"><ele>202.0</ele><time>2026-05-02T09:17:55.075Z</time></trkpt><trkpt lat="42.2418217" lon="13.9117117"><ele>201.33333333333331</ele><time>2026-05-02T09:17:56.074Z</time></trkpt><trkpt lat="42.2417617" lon="13.9116767"><ele>200.66666666666666</ele><time>2026-05-02T09:17:57.075Z</time></trkpt><trkpt lat="42.2417" lon="13.9116317"><ele>200.0</ele><time>2026-05-02T09:17:58.075Z</time></trkpt><trkpt lat="42.241645" lon="13.9115717"><ele>199.33333333333331</ele><time>2026-05-02T09:17:59.075Z</time></trkpt><trkpt lat="42.2415933" lon="13.9115167"><ele>198.66666666666666</ele><time>2026-05-02T09:18:00.074Z</time></trkpt><trkpt lat="42.2415183" lon="13.9114417"><ele>198.0</ele><time>2026-05-02T09:18:01.075Z</time></trkpt><trkpt lat="42.2414383" lon="13.9113733"><ele>200.60000000000002</ele><time>2026-05-02T09:18:02.075Z</time></trkpt><trkpt lat="42.24136" lon="13.9113033"><ele>203.20000000000002</ele><time>2026-05-02T09:18:03.075Z</time></trkpt><trkpt lat="42.2412883" lon="13.9112183"><ele>205.8</ele><time>2026-05-02T09:18:04.074Z</time></trkpt><trkpt lat="42.24123" lon="13.9111167"><ele>208.4</ele><time>2026-05-02T09:18:05.074Z</time></trkpt><trkpt lat="42.2411833" lon="13.9110133"><ele>211.0</ele><time>2026-05-02T09:18:06.074Z</time></trkpt><trkpt lat="42.2411483" lon="13.9108917"><ele>211.0</ele><time>2026-05-02T09:18:07.075Z</time></trkpt><trkpt lat="42.2411217" lon="13.9107467"><ele>211.0</ele><time>2026-05-02T09:18:08.074Z</time></trkpt><trkpt lat="42.24109" lon="13.9106067"><ele>211.0</ele><time>2026-05-02T09:18:09.074Z</time></trkpt><trkpt lat="42.241055" lon="13.9104767"><ele>211.0</ele><time>2026-05-02T09:18:10.074Z</time></trkpt><trkpt lat="42.241005" lon="13.9103567"><ele>211.0</ele><time>2026-05-02T09:18:11.074Z</time></trkpt><trkpt lat="42.240945" lon="13.9102567"><ele>210.99999999999997</ele><time>2026-05-02T09:18:12.074Z</time></trkpt><trkpt lat="42.2408833" lon="13.910185"><ele>211.0</ele><time>2026-05-02T09:18:13.075Z</time></trkpt><trkpt lat="42.240795" lon="13.9101433"><ele>211.0</ele><time>2026-05-02T09:18:15.075Z</time></trkpt><trkpt lat="42.2407167" lon="13.91017"><ele>211.0</ele><time>2026-05-02T09:18:17.075Z</time></trkpt><trkpt lat="42.2406817" lon="13.9102783"><ele>210.99999999999997</ele><time>2026-05-02T09:18:19.074Z</time></trkpt><trkpt lat="42.2406767" lon="13.9103717"><ele>211.0</ele><time>2026-05-02T09:18:20.075Z</time></trkpt><trkpt lat="42.24069" lon="13.9104783"><ele>210.99999999999997</ele><time>2026-05-02T09:18:21.074Z</time></trkpt><trkpt lat="42.240715" lon="13.9105867"><ele>211.0</ele><time>2026-05-02T09:18:22.075Z</time></trkpt><trkpt lat="42.240735" lon="13.9106767"><ele>211.0</ele><time>2026-05-02T09:18:23.074Z</time></trkpt><trkpt lat="42.240725" lon="13.9107933"><ele>211.0</ele><time>2026-05-02T09:18:25.074Z</time></trkpt><trkpt lat="42.2406917" lon="13.910875"><ele>210.99999999999997</ele><time>2026-05-02T09:18:26.074Z</time></trkpt><trkpt lat="42.24065" lon="13.91097"><ele>211.0</ele><time>2026-05-02T09:18:27.074Z</time></trkpt><trkpt lat="42.2406083" lon="13.9110733"><ele>215.99999999999997</ele><time>2026-05-02T09:18:28.074Z</time></trkpt><trkpt lat="42.2405733" lon="13.91116"><ele>221.0</ele><time>2026-05-02T09:18:29.075Z</time></trkpt><trkpt lat="42.240535" lon="13.91132"><ele>226.0</ele><time>2026-05-02T09:18:31.074Z</time></trkpt><trkpt lat="42.240525" lon="13.9114067"><ele>231.0</ele><time>2026-05-02T09:18:32.074Z</time></trkpt><trkpt lat="42.2405283" lon="13.9115067"><ele>235.99999999999997</ele><time>2026-05-02T09:18:33.075Z</time></trkpt><trkpt lat="42.2405683" lon="13.911625"><ele>241.0</ele><time>2026-05-02T09:18:35.075Z</time></trkpt><trkpt lat="42.240465" lon="13.9116517"><ele>241.0</ele><time>2026-05-02T09:18:39.075Z</time></trkpt><trkpt lat="42.2403533" lon="13.9116717"><ele>241.00000000000003</ele><time>2026-05-02T09:18:41.074Z</time></trkpt><trkpt lat="42.240285" lon="13.9116767"><ele>241.00000000000003</ele><time>2026-05-02T09:18:42.074Z</time></trkpt><trkpt lat="42.2402" lon="13.91169"><ele>241.0</ele><time>2026-05-02T09:18:43.075Z</time></trkpt><trkpt lat="42.2400933" lon="13.9117183"><ele>241.0</ele><time>2026-05-02T09:18:44.074Z</time></trkpt><trkpt lat="42.2399833" lon="13.9117617"><ele>240.99999999999997</ele><time>2026-05-02T09:18:45.074Z</time></trkpt><trkpt lat="42.2399" lon="13.9117967"><ele>241.0</ele><time>2026-05-02T09:18:46.074Z</time></trkpt><trkpt lat="42.2398167" lon="13.911805"><ele>241.0</ele><time>2026-05-02T09:18:48.074Z</time></trkpt><trkpt lat="42.2398133" lon="13.911655"><ele>241.0</ele><time>2026-05-02T09:18:51.075Z</time></trkpt><trkpt lat="42.2397917" lon="13.9115517"><ele>240.99999999999997</ele><time>2026-05-02T09:18:52.074Z</time></trkpt><trkpt lat="42.2397617" lon="13.9114517"><ele>241.0</ele><time>2026-05-02T09:18:53.075Z</time></trkpt><trkpt lat="42.239735" lon="13.91136"><ele>242.60000000000002</ele><time>2026-05-02T09:18:54.075Z</time></trkpt><trkpt lat="42.2397017" lon="13.9112467"><ele>244.20000000000002</ele><time>2026-05-02T09:18:55.075Z</time></trkpt><trkpt lat="42.2396583" lon="13.911115"><ele>245.79999999999998</ele><time>2026-05-02T09:18:56.075Z</time></trkpt><trkpt lat="42.2396067" lon="13.9109733"><ele>247.39999999999998</ele><time>2026-05-02T09:18:57.075Z</time></trkpt><trkpt lat="42.2395517" lon="13.9108483"><ele>249.0</ele><time>2026-05-02T09:18:58.074Z</time></trkpt><trkpt lat="42.2394933" lon="13.91075"><ele>249.2</ele><time>2026-05-02T09:18:59.075Z</time></trkpt><trkpt lat="42.2394367" lon="13.9106617"><ele>249.39999999999998</ele><time>2026-05-02T09:19:00.075Z</time></trkpt><trkpt lat="42.2393633" lon="13.9105783"><ele>249.6</ele><time>2026-05-02T09:19:01.075Z</time></trkpt><trkpt lat="42.2392783" lon="13.910465"><ele>249.8</ele><time>2026-05-02T09:19:02.074Z</time></trkpt><trkpt lat="42.239195" lon="13.9103467"><ele>250.0</ele><time>2026-05-02T09:19:03.075Z</time></trkpt><trkpt lat="42.2391033" lon="13.910215"><ele>250.0</ele><time>2026-05-02T09:19:04.074Z</time></trkpt><trkpt lat="42.2390133" lon="13.9100833"><ele>250.0</ele><time>2026-05-02T09:19:05.074Z</time></trkpt><trkpt lat="42.238925" lon="13.9099633"><ele>250.0</ele><time>2026-05-02T09:19:06.074Z</time></trkpt><trkpt lat="42.2388483" lon="13.9098667"><ele>250.0</ele><time>2026-05-02T09:19:07.074Z</time></trkpt><trkpt lat="42.2387733" lon="13.9097867"><ele>253.0</ele><time>2026-05-02T09:19:08.074Z</time></trkpt><trkpt lat="42.2386867" lon="13.9097267"><ele>256.0</ele><time>2026-05-02T09:19:09.075Z</time></trkpt><trkpt lat="42.2385933" lon="13.9096583"><ele>259.0</ele><time>2026-05-02T09:19:10.075Z</time></trkpt><trkpt lat="42.238495" lon="13.9095767"><ele>262.0</ele><time>2026-05-02T09:19:11.075Z</time></trkpt><trkpt lat="42.238405" lon="13.9094817"><ele>265.0</ele><time>2026-05-02T09:19:12.074Z</time></trkpt><trkpt lat="42.238315" lon="13.9093783"><ele>265.0</ele><time>2026-05-02T09:19:13.075Z</time></trkpt><trkpt lat="42.23823" lon="13.9092717"><ele>265.0</ele><time>2026-05-02T09:19:14.074Z</time></trkpt><trkpt lat="42.238155" lon="13.909185"><ele>265.0</ele><time>2026-05-02T09:19:15.074Z</time></trkpt><trkpt lat="42.2380783" lon="13.9091217"><ele>265.0</ele><time>2026-05-02T09:19:16.074Z</time></trkpt><trkpt lat="42.23799" lon="13.9090983"><ele>265.0</ele><time>2026-05-02T09:19:17.075Z</time></trkpt><trkpt lat="42.237905" lon="13.9090917"><ele>267.2</ele><time>2026-05-02T09:19:18.075Z</time></trkpt><trkpt lat="42.2378167" lon="13.909115"><ele>269.4</ele><time>2026-05-02T09:19:19.075Z</time></trkpt><trkpt lat="42.2377533" lon="13.9091433"><ele>271.6</ele><time>2026-05-02T09:19:20.075Z</time></trkpt><trkpt lat="42.2376833" lon="13.909115"><ele>273.8</ele><time>2026-05-02T09:19:22.074Z</time></trkpt><trkpt lat="42.23763" lon="13.9089417"><ele>276.0</ele><time>2026-05-02T09:19:24.074Z</time></trkpt><trkpt lat="42.2375817" lon="13.908775"><ele>276.0</ele><time>2026-05-02T09:19:25.075Z</time></trkpt><trkpt lat="42.2375133" lon="13.9085783"><ele>276.0</ele><time>2026-05-02T09:19:26.075Z</time></trkpt><trkpt lat="42.23745" lon="13.9084033"><ele>276.0</ele><time>2026-05-02T09:19:27.074Z</time></trkpt><trkpt lat="42.2373867" lon="13.90826"><ele>276.0</ele><time>2026-05-02T09:19:28.075Z</time></trkpt><trkpt lat="42.2373217" lon="13.90811"><ele>276.75</ele><time>2026-05-02T09:19:29.075Z</time></trkpt><trkpt lat="42.2372533" lon="13.9079533"><ele>277.5</ele><time>2026-05-02T09:19:30.075Z</time></trkpt><trkpt lat="42.2371783" lon="13.9078067"><ele>278.25</ele><time>2026-05-02T09:19:31.074Z</time></trkpt><trkpt lat="42.2371067" lon="13.907665"><ele>279.0</ele><time>2026-05-02T09:19:32.074Z</time></trkpt><trkpt lat="42.237035" lon="13.90752"><ele>279.0</ele><time>2026-05-02T09:19:33.074Z</time></trkpt><trkpt lat="42.2369583" lon="13.9073733"><ele>279.0</ele><time>2026-05-02T09:19:34.074Z</time></trkpt><trkpt lat="42.2368883" lon="13.9072283"><ele>279.0</ele><time>2026-05-02T09:19:35.074Z</time></trkpt><trkpt lat="42.2368283" lon="13.9071033"><ele>279.0</ele><time>2026-05-02T09:19:36.075Z</time></trkpt><trkpt lat="42.2367817" lon="13.9069833"><ele>279.0</ele><time>2026-05-02T09:19:37.074Z</time></trkpt><trkpt lat="42.2367317" lon="13.9068617"><ele>279.0</ele><time>2026-05-02T09:19:38.074Z</time></trkpt><trkpt lat="42.2366733" lon="13.9067583"><ele>279.0</ele><time>2026-05-02T09:19:39.074Z</time></trkpt><trkpt lat="42.236605" lon="13.9066533"><ele>279.0</ele><time>2026-05-02T09:19:40.074Z</time></trkpt><trkpt lat="42.2365333" lon="13.9065533"><ele>279.0</ele><time>2026-05-02T09:19:41.074Z</time></trkpt><trkpt lat="42.23647" lon="13.9064683"><ele>278.5</ele><time>2026-05-02T09:19:42.075Z</time></trkpt><trkpt lat="42.2364083" lon="13.9063933"><ele>278.0</ele><time>2026-05-02T09:19:43.074Z</time></trkpt><trkpt lat="42.2363583" lon="13.9063333"><ele>277.5</ele><time>2026-05-02T09:19:44.075Z</time></trkpt><trkpt lat="42.2363" lon="13.9062083"><ele>277.0</ele><time>2026-05-02T09:19:46.074Z</time></trkpt><trkpt lat="42.236275" lon="13.9061183"><ele>276.5</ele><time>2026-05-02T09:19:47.074Z</time></trkpt><trkpt lat="42.2362417" lon="13.9059933"><ele>276.0</ele><time>2026-05-02T09:19:48.074Z</time></trkpt><trkpt lat="42.2362067" lon="13.9058433"><ele>279.0</ele><time>2026-05-02T09:19:49.074Z</time></trkpt><trkpt lat="42.236165" lon="13.9056917"><ele>282.0</ele><time>2026-05-02T09:19:50.074Z</time></trkpt><trkpt lat="42.236125" lon="13.905515"><ele>285.0</ele><time>2026-05-02T09:19:51.075Z</time></trkpt><trkpt lat="42.2360617" lon="13.9053367"><ele>288.0</ele><time>2026-05-02T09:19:52.075Z</time></trkpt><trkpt lat="42.2359867" lon="13.90515"><ele>290.0</ele><time>2026-05-02T09:19:53.075Z</time></trkpt><trkpt lat="42.2359033" lon="13.9049633"><ele>292.0</ele><time>2026-05-02T09:19:54.074Z</time></trkpt><trkpt lat="42.2358167" lon="13.904775"><ele>294.0</ele><time>2026-05-02T09:19:55.075Z</time></trkpt><trkpt lat="42.2357283" lon="13.9045817"><ele>293.6666666666667</ele><time>2026-05-02T09:19:56.074Z</time></trkpt><trkpt lat="42.235635" lon="13.9043817"><ele>293.33333333333337</ele><time>2026-05-02T09:19:57.075Z</time></trkpt><trkpt lat="42.2355467" lon="13.904185"><ele>293.0</ele><time>2026-05-02T09:19:58.074Z</time></trkpt><trkpt lat="42.2354667" lon="13.904"><ele>293.0</ele><time>2026-05-02T09:19:59.074Z</time></trkpt><trkpt lat="42.2354083" lon="13.9038017"><ele>293.0</ele><time>2026-05-02T09:20:00.074Z</time></trkpt><trkpt lat="42.23536" lon="13.9035867"><ele>293.0</ele><time>2026-05-02T09:20:01.075Z</time></trkpt><trkpt lat="42.2353233" lon="13.9033583"><ele>293.5</ele><time>2026-05-02T09:20:02.075Z</time></trkpt><trkpt lat="42.23529" lon="13.9031567"><ele>294.0</ele><time>2026-05-02T09:20:03.075Z</time></trkpt><trkpt lat="42.235265" lon="13.90298"><ele>294.5</ele><time>2026-05-02T09:20:04.075Z</time></trkpt><trkpt lat="42.2352583" lon="13.9028483"><ele>295.0</ele><time>2026-05-02T09:20:05.075Z</time></trkpt><trkpt lat="42.235275" lon="13.902755"><ele>295.0</ele><time>2026-05-02T09:20:06.074Z</time></trkpt><trkpt lat="42.2353533" lon="13.90271"><ele>295.0</ele><time>2026-05-02T09:20:08.074Z</time></trkpt><trkpt lat="42.2354433" lon="13.9028683"><ele>295.0</ele><time>2026-05-02T09:20:10.074Z</time></trkpt><trkpt lat="42.2354667" lon="13.9030333"><ele>295.0</ele><time>2026-05-02T09:20:11.074Z</time></trkpt><trkpt lat="42.2354967" lon="13.9032233"><ele>294.5</ele><time>2026-05-02T09:20:12.074Z</time></trkpt><trkpt lat="42.2355367" lon="13.90342"><ele>294.0</ele><time>2026-05-02T09:20:13.075Z</time></trkpt><trkpt lat="42.2355867" lon="13.9035917"><ele>293.5</ele><time>2026-05-02T09:20:14.074Z</time></trkpt><trkpt lat="42.2356467" lon="13.9037367"><ele>293.0</ele><time>2026-05-02T09:20:15.074Z</time></trkpt><trkpt lat="42.2357033" lon="13.90384"><ele>294.8</ele><time>2026-05-02T09:20:16.075Z</time></trkpt><trkpt lat="42.2357633" lon="13.9038883"><ele>296.6</ele><time>2026-05-02T09:20:17.074Z</time></trkpt><trkpt lat="42.23587" lon="13.903855"><ele>298.4</ele><time>2026-05-02T09:20:19.074Z</time></trkpt><trkpt lat="42.23591" lon="13.90377"><ele>300.2</ele><time>2026-05-02T09:20:20.074Z</time></trkpt><trkpt lat="42.23593" lon="13.9036383"><ele>302.0</ele><time>2026-05-02T09:20:21.074Z</time></trkpt><trkpt lat="42.23593" lon="13.9034933"><ele>304.0</ele><time>2026-05-02T09:20:22.075Z</time></trkpt><trkpt lat="42.2359033" lon="13.9033067"><ele>306.0</ele><time>2026-05-02T09:20:23.075Z</time></trkpt><trkpt lat="42.2358883" lon="13.9030883"><ele>308.0</ele><time>2026-05-02T09:20:24.075Z</time></trkpt><trkpt lat="42.23587" lon="13.90286"><ele>308.0</ele><time>2026-05-02T09:20:25.074Z</time></trkpt><trkpt lat="42.2358533" lon="13.9026333"><ele>308.0</ele><time>2026-05-02T09:20:26.075Z</time></trkpt><trkpt lat="42.2358383" lon="13.902405"><ele>308.0</ele><time>2026-05-02T09:20:27.074Z</time></trkpt><trkpt lat="42.2358233" lon="13.9021717"><ele>310.6666666666667</ele><time>2026-05-02T09:20:28.075Z</time></trkpt><trkpt lat="42.235805" lon="13.901935"><ele>313.3333333333333</ele><time>2026-05-02T09:20:29.075Z</time></trkpt><trkpt lat="42.23578" lon="13.9017033"><ele>316.0</ele><time>2026-05-02T09:20:30.074Z</time></trkpt><trkpt lat="42.2357633" lon="13.9014617"><ele>318.0</ele><time>2026-05-02T09:20:31.074Z</time></trkpt><trkpt lat="42.235745" lon="13.90123"><ele>320.0</ele><time>2026-05-02T09:20:32.075Z</time></trkpt><trkpt lat="42.2357317" lon="13.9010017"><ele>322.0</ele><time>2026-05-02T09:20:33.074Z</time></trkpt><trkpt lat="42.23572" lon="13.9007833"><ele>323.75</ele><time>2026-05-02T09:20:34.075Z</time></trkpt><trkpt lat="42.2357067" lon="13.9005617"><ele>325.5</ele><time>2026-05-02T09:20:35.075Z</time></trkpt><trkpt lat="42.2356967" lon="13.900355"><ele>327.25</ele><time>2026-05-02T09:20:36.075Z</time></trkpt><trkpt lat="42.235685" lon="13.9001833"><ele>329.0</ele><time>2026-05-02T09:20:37.074Z</time></trkpt><trkpt lat="42.2356817" lon="13.9000233"><ele>329.6</ele><time>2026-05-02T09:20:38.074Z</time></trkpt><trkpt lat="42.23569" lon="13.8998733"><ele>330.2</ele><time>2026-05-02T09:20:39.075Z</time></trkpt><trkpt lat="42.2357117" lon="13.8997233"><ele>330.8</ele><time>2026-05-02T09:20:40.074Z</time></trkpt><trkpt lat="42.2357367" lon="13.8995817"><ele>331.40000000000003</ele><time>2026-05-02T09:20:41.074Z</time></trkpt><trkpt lat="42.2357567" lon="13.899445"><ele>332.0</ele><time>2026-05-02T09:20:42.075Z</time></trkpt><trkpt lat="42.23578" lon="13.899315"><ele>333.6</ele><time>2026-05-02T09:20:43.075Z</time></trkpt><trkpt lat="42.235785" lon="13.899175"><ele>335.20000000000005</ele><time>2026-05-02T09:20:44.075Z</time></trkpt><trkpt lat="42.23576" lon="13.8990433"><ele>336.8</ele><time>2026-05-02T09:20:45.074Z</time></trkpt><trkpt lat="42.23575" lon="13.8989033"><ele>338.4</ele><time>2026-05-02T09:20:46.075Z</time></trkpt><trkpt lat="42.235745" lon="13.8987583"><ele>340.0</ele><time>2026-05-02T09:20:47.074Z</time></trkpt><trkpt lat="42.235745" lon="13.898595"><ele>340.0</ele><time>2026-05-02T09:20:48.075Z</time></trkpt><trkpt lat="42.2357383" lon="13.898445"><ele>340.0</ele><time>2026-05-02T09:20:49.074Z</time></trkpt><trkpt lat="42.23573" lon="13.8982933"><ele>340.0</ele><time>2026-05-02T09:20:50.074Z</time></trkpt><trkpt lat="42.2357183" lon="13.8981583"><ele>340.0</ele><time>2026-05-02T09:20:51.075Z</time></trkpt><trkpt lat="42.2356983" lon="13.898045"><ele>340.0</ele><time>2026-05-02T09:20:52.075Z</time></trkpt><trkpt lat="42.23567" lon="13.897955"><ele>341.6</ele><time>2026-05-02T09:20:53.075Z</time></trkpt><trkpt lat="42.23564" lon="13.8978167"><ele>343.2</ele><time>2026-05-02T09:20:55.074Z</time></trkpt><trkpt lat="42.2356467" lon="13.897655"><ele>344.79999999999995</ele><time>2026-05-02T09:20:57.074Z</time></trkpt><trkpt lat="42.2356633" lon="13.89755"><ele>346.4</ele><time>2026-05-02T09:20:58.075Z</time></trkpt><trkpt lat="42.2356833" lon="13.897435"><ele>348.0</ele><time>2026-05-02T09:20:59.075Z</time></trkpt><trkpt lat="42.235705" lon="13.8973117"><ele>348.8333333333333</ele><time>2026-05-02T09:21:00.075Z</time></trkpt><trkpt lat="42.235735" lon="13.8971933"><ele>349.6666666666667</ele><time>2026-05-02T09:21:01.074Z</time></trkpt><trkpt lat="42.2357617" lon="13.8970733"><ele>350.5</ele><time>2026-05-02T09:21:02.074Z</time></trkpt><trkpt lat="42.23579" lon="13.89696"><ele>351.33333333333337</ele><time>2026-05-02T09:21:03.075Z</time></trkpt><trkpt lat="42.2358217" lon="13.8968467"><ele>352.1666666666667</ele><time>2026-05-02T09:21:04.075Z</time></trkpt><trkpt lat="42.235845" lon="13.8967467"><ele>353.0</ele><time>2026-05-02T09:21:05.074Z</time></trkpt><trkpt lat="42.235865" lon="13.896665"><ele>353.0</ele><time>2026-05-02T09:21:06.075Z</time></trkpt><trkpt lat="42.2358967" lon="13.896565"><ele>353.0</ele><time>2026-05-02T09:21:08.075Z</time></trkpt><trkpt lat="42.23592" lon="13.896455"><ele>353.0</ele><time>2026-05-02T09:21:11.075Z</time></trkpt><trkpt lat="42.235935" lon="13.8963483"><ele>353.0</ele><time>2026-05-02T09:21:14.074Z</time></trkpt><trkpt lat="42.2359483" lon="13.896255"><ele>353.0</ele><time>2026-05-02T09:21:16.074Z</time></trkpt><trkpt lat="42.235965" lon="13.896155"><ele>353.0</ele><time>2026-05-02T09:21:18.075Z</time></trkpt><trkpt lat="42.2359967" lon="13.8960417"><ele>353.0</ele><time>2026-05-02T09:21:25.074Z</time></trkpt><trkpt lat="42.2359683" lon="13.8959467"><ele>353.0</ele><time>2026-05-02T09:21:29.074Z</time></trkpt><trkpt lat="42.23594" lon="13.8958367"><ele>353.0</ele><time>2026-05-02T09:21:45.074Z</time></trkpt><trkpt lat="42.2359567" lon="13.8957333"><ele>353.0</ele><time>2026-05-02T09:21:50.073Z</time></trkpt><trkpt lat="42.2359733" lon="13.89564"><ele>353.0</ele><time>2026-05-02T09:22:05.074Z</time></trkpt><trkpt lat="42.236005" lon="13.895535"><ele>353.0</ele><time>2026-05-02T09:22:08.074Z</time></trkpt><trkpt lat="42.23603" lon="13.8954483"><ele>352.4285714285714</ele><time>2026-05-02T09:22:12.074Z</time></trkpt><trkpt lat="42.236045" lon="13.8953567"><ele>351.8571428571429</ele><time>2026-05-02T09:22:16.074Z</time></trkpt><trkpt lat="42.2360567" lon="13.895255"><ele>351.2857142857143</ele><time>2026-05-02T09:22:19.073Z</time></trkpt><trkpt lat="42.2360617" lon="13.8951633"><ele>350.71428571428567</ele><time>2026-05-02T09:22:22.074Z</time></trkpt><trkpt lat="42.2360567" lon="13.89507"><ele>350.1428571428571</ele><time>2026-05-02T09:22:24.073Z</time></trkpt><trkpt lat="42.2360567" lon="13.894965"><ele>349.57142857142856</ele><time>2026-05-02T09:22:26.074Z</time></trkpt><trkpt lat="42.236065" lon="13.8948533"><ele>349.0</ele><time>2026-05-02T09:22:28.073Z</time></trkpt><trkpt lat="42.236065" lon="13.894745"><ele>348.66666666666663</ele><time>2026-05-02T09:22:30.074Z</time></trkpt><trkpt lat="42.2360833" lon="13.8946267"><ele>348.3333333333333</ele><time>2026-05-02T09:22:33.074Z</time></trkpt><trkpt lat="42.2360933" lon="13.8945367"><ele>348.0</ele><time>2026-05-02T09:22:35.073Z</time></trkpt><trkpt lat="42.23611" lon="13.89445"><ele>347.6666666666667</ele><time>2026-05-02T09:22:37.073Z</time></trkpt><trkpt lat="42.2361367" lon="13.89437"><ele>347.33333333333337</ele><time>2026-05-02T09:22:39.073Z</time></trkpt><trkpt lat="42.23618" lon="13.894255"><ele>347.0</ele><time>2026-05-02T09:22:42.073Z</time></trkpt><trkpt lat="42.23623" lon="13.8941533"><ele>346.6</ele><time>2026-05-02T09:22:44.074Z</time></trkpt><trkpt lat="42.2362517" lon="13.8940383"><ele>346.20000000000005</ele><time>2026-05-02T09:22:46.073Z</time></trkpt><trkpt lat="42.2362533" lon="13.8939167"><ele>345.8</ele><time>2026-05-02T09:22:48.074Z</time></trkpt><trkpt lat="42.236265" lon="13.8938017"><ele>345.4</ele><time>2026-05-02T09:22:50.073Z</time></trkpt><trkpt lat="42.2362667" lon="13.89368"><ele>345.0</ele><time>2026-05-02T09:22:52.074Z</time></trkpt><trkpt lat="42.23626" lon="13.89354"><ele>345.0</ele><time>2026-05-02T09:22:54.074Z</time></trkpt><trkpt lat="42.236255" lon="13.8934483"><ele>345.0</ele><time>2026-05-02T09:22:55.074Z</time></trkpt><trkpt lat="42.236265" lon="13.8933533"><ele>345.0</ele><time>2026-05-02T09:22:56.073Z</time></trkpt><trkpt lat="42.2362683" lon="13.8932417"><ele>345.0</ele><time>2026-05-02T09:22:57.074Z</time></trkpt><trkpt lat="42.2362617" lon="13.8931067"><ele>345.0</ele><time>2026-05-02T09:22:58.073Z</time></trkpt><trkpt lat="42.236255" lon="13.89297"><ele>345.0</ele><time>2026-05-02T09:22:59.073Z</time></trkpt><trkpt lat="42.2362483" lon="13.892845"><ele>345.2</ele><time>2026-05-02T09:23:00.073Z</time></trkpt><trkpt lat="42.2362467" lon="13.8927183"><ele>345.4</ele><time>2026-05-02T09:23:01.073Z</time></trkpt><trkpt lat="42.2362433" lon="13.8925933"><ele>345.6</ele><time>2026-05-02T09:23:02.073Z</time></trkpt><trkpt lat="42.2362317" lon="13.892475"><ele>345.8</ele><time>2026-05-02T09:23:03.074Z</time></trkpt><trkpt lat="42.236215" lon="13.892335"><ele>346.0</ele><time>2026-05-02T09:23:04.073Z</time></trkpt><trkpt lat="42.2361917" lon="13.8921917"><ele>347.5</ele><time>2026-05-02T09:23:05.074Z</time></trkpt><trkpt lat="42.2361683" lon="13.892045"><ele>349.0</ele><time>2026-05-02T09:23:06.074Z</time></trkpt><trkpt lat="42.23614" lon="13.8918933"><ele>350.5</ele><time>2026-05-02T09:23:07.074Z</time></trkpt><trkpt lat="42.2360983" lon="13.89173"><ele>352.0</ele><time>2026-05-02T09:23:08.073Z</time></trkpt><trkpt lat="42.2360367" lon="13.8915667"><ele>354.0</ele><time>2026-05-02T09:23:09.074Z</time></trkpt><trkpt lat="42.2359683" lon="13.8914233"><ele>356.0</ele><time>2026-05-02T09:23:10.073Z</time></trkpt><trkpt lat="42.2358933" lon="13.8912783"><ele>358.0</ele><time>2026-05-02T09:23:11.074Z</time></trkpt><trkpt lat="42.2358317" lon="13.891125"><ele>360.0</ele><time>2026-05-02T09:23:12.073Z</time></trkpt><trkpt lat="42.23578" lon="13.890965"><ele>362.5</ele><time>2026-05-02T09:23:13.073Z</time></trkpt><trkpt lat="42.2357467" lon="13.890785"><ele>365.0</ele><time>2026-05-02T09:23:14.073Z</time></trkpt><trkpt lat="42.2357233" lon="13.89059"><ele>367.5</ele><time>2026-05-02T09:23:15.074Z</time></trkpt><trkpt lat="42.2357" lon="13.8903883"><ele>370.0</ele><time>2026-05-02T09:23:16.073Z</time></trkpt><trkpt lat="42.2356717" lon="13.8902083"><ele>369.0</ele><time>2026-05-02T09:23:17.073Z</time></trkpt><trkpt lat="42.2356317" lon="13.8900517"><ele>368.0</ele><time>2026-05-02T09:23:18.073Z</time></trkpt><trkpt lat="42.2355833" lon="13.8899117"><ele>367.0</ele><time>2026-05-02T09:23:19.074Z</time></trkpt><trkpt lat="42.23553" lon="13.889775"><ele>366.0</ele><time>2026-05-02T09:23:20.074Z</time></trkpt><trkpt lat="42.2354633" lon="13.8896367"><ele>366.0</ele><time>2026-05-02T09:23:21.073Z</time></trkpt><trkpt lat="42.235395" lon="13.8894817"><ele>366.0</ele><time>2026-05-02T09:23:22.073Z</time></trkpt><trkpt lat="42.2353267" lon="13.889325"><ele>366.0</ele><time>2026-05-02T09:23:23.073Z</time></trkpt><trkpt lat="42.2352567" lon="13.8891517"><ele>366.0</ele><time>2026-05-02T09:23:24.074Z</time></trkpt><trkpt lat="42.2351733" lon="13.8889683"><ele>369.3333333333333</ele><time>2026-05-02T09:23:25.074Z</time></trkpt><trkpt lat="42.235085" lon="13.88879"><ele>372.66666666666663</ele><time>2026-05-02T09:23:26.073Z</time></trkpt><trkpt lat="42.2349883" lon="13.8886167"><ele>376.0</ele><time>2026-05-02T09:23:27.073Z</time></trkpt><trkpt lat="42.23488" lon="13.8884433"><ele>378.0</ele><time>2026-05-02T09:23:28.073Z</time></trkpt><trkpt lat="42.2347667" lon="13.8882633"><ele>380.0</ele><time>2026-05-02T09:23:29.074Z</time></trkpt><trkpt lat="42.234655" lon="13.8880717"><ele>382.0</ele><time>2026-05-02T09:23:30.073Z</time></trkpt><trkpt lat="42.234545" lon="13.8878767"><ele>382.0</ele><time>2026-05-02T09:23:31.074Z</time></trkpt><trkpt lat="42.234435" lon="13.8876883"><ele>382.0</ele><time>2026-05-02T09:23:32.074Z</time></trkpt><trkpt lat="42.2343217" lon="13.887505"><ele>382.0</ele><time>2026-05-02T09:23:33.073Z</time></trkpt><trkpt lat="42.234215" lon="13.88733"><ele>382.25</ele><time>2026-05-02T09:23:34.073Z</time></trkpt><trkpt lat="42.2341083" lon="13.8871533"><ele>382.5</ele><time>2026-05-02T09:23:35.074Z</time></trkpt><trkpt lat="42.2340133" lon="13.8870067"><ele>382.75</ele><time>2026-05-02T09:23:36.073Z</time></trkpt><trkpt lat="42.233925" lon="13.88688"><ele>383.0</ele><time>2026-05-02T09:23:37.073Z</time></trkpt><trkpt lat="42.23384" lon="13.8867817"><ele>386.79999999999995</ele><time>2026-05-02T09:23:38.073Z</time></trkpt><trkpt lat="42.2337433" lon="13.8867"><ele>390.6</ele><time>2026-05-02T09:23:39.073Z</time></trkpt><trkpt lat="42.2336483" lon="13.886635"><ele>394.4</ele><time>2026-05-02T09:23:40.074Z</time></trkpt><trkpt lat="42.2335733" lon="13.8865667"><ele>398.20000000000005</ele><time>2026-05-02T09:23:41.074Z</time></trkpt><trkpt lat="42.2335167" lon="13.8864933"><ele>402.0</ele><time>2026-05-02T09:23:42.074Z</time></trkpt><trkpt lat="42.23349" lon="13.8864117"><ele>402.0</ele><time>2026-05-02T09:23:43.074Z</time></trkpt><trkpt lat="42.2334933" lon="13.886325"><ele>402.0</ele><time>2026-05-02T09:23:44.073Z</time></trkpt><trkpt lat="42.2335383" lon="13.886255"><ele>402.0</ele><time>2026-05-02T09:23:45.074Z</time></trkpt><trkpt lat="42.2336183" lon="13.8862217"><ele>402.0</ele><time>2026-05-02T09:23:46.073Z</time></trkpt><trkpt lat="42.2337133" lon="13.8862183"><ele>402.0</ele><time>2026-05-02T09:23:47.073Z</time></trkpt><trkpt lat="42.23382" lon="13.88625"><ele>402.0</ele><time>2026-05-02T09:23:48.073Z</time></trkpt><trkpt lat="42.2339383" lon="13.8863233"><ele>407.0</ele><time>2026-05-02T09:23:49.074Z</time></trkpt><trkpt lat="42.2340617" lon="13.8864467"><ele>412.0</ele><time>2026-05-02T09:23:50.073Z</time></trkpt><trkpt lat="42.2341833" lon="13.8865967"><ele>417.0</ele><time>2026-05-02T09:23:51.074Z</time></trkpt><trkpt lat="42.2342917" lon="13.8867467"><ele>413.8</ele><time>2026-05-02T09:23:52.073Z</time></trkpt><trkpt lat="42.2343783" lon="13.8868717"><ele>410.6</ele><time>2026-05-02T09:23:53.073Z</time></trkpt><trkpt lat="42.2344567" lon="13.8869583"><ele>407.40000000000003</ele><time>2026-05-02T09:23:54.073Z</time></trkpt><trkpt lat="42.23452" lon="13.8870133"><ele>404.20000000000005</ele><time>2026-05-02T09:23:55.073Z</time></trkpt><trkpt lat="42.2345883" lon="13.88703"><ele>401.0</ele><time>2026-05-02T09:23:56.074Z</time></trkpt><trkpt lat="42.2347017" lon="13.8869583"><ele>401.0</ele><time>2026-05-02T09:23:58.073Z</time></trkpt><trkpt lat="42.2347167" lon="13.8868667"><ele>401.0</ele><time>2026-05-02T09:23:59.074Z</time></trkpt><trkpt lat="42.2347017" lon="13.8867633"><ele>401.0</ele><time>2026-05-02T09:24:00.073Z</time></trkpt><trkpt lat="42.2346383" lon="13.8866533"><ele>401.0</ele><time>2026-05-02T09:24:01.074Z</time></trkpt><trkpt lat="42.2345233" lon="13.8865117"><ele>401.0</ele><time>2026-05-02T09:24:02.073Z</time></trkpt><trkpt lat="42.2344083" lon="13.8863617"><ele>406.3333333333333</ele><time>2026-05-02T09:24:03.073Z</time></trkpt><trkpt lat="42.2342983" lon="13.8861817"><ele>411.66666666666663</ele><time>2026-05-02T09:24:04.074Z</time></trkpt><trkpt lat="42.2342" lon="13.8859783"><ele>417.0</ele><time>2026-05-02T09:24:05.073Z</time></trkpt><trkpt lat="42.2341167" lon="13.8857667"><ele>420.66666666666663</ele><time>2026-05-02T09:24:06.074Z</time></trkpt><trkpt lat="42.234045" lon="13.8855483"><ele>424.3333333333333</ele><time>2026-05-02T09:24:07.074Z</time></trkpt><trkpt lat="42.2339983" lon="13.88532"><ele>428.0</ele><time>2026-05-02T09:24:08.074Z</time></trkpt><trkpt lat="42.2339667" lon="13.88507"><ele>428.0</ele><time>2026-05-02T09:24:09.073Z</time></trkpt><trkpt lat="42.2339367" lon="13.8848017"><ele>428.0</ele><time>2026-05-02T09:24:10.074Z</time></trkpt><trkpt lat="42.2338983" lon="13.8845367"><ele>428.0</ele><time>2026-05-02T09:24:11.074Z</time></trkpt><trkpt lat="42.2338467" lon="13.8842667"><ele>433.66666666666663</ele><time>2026-05-02T09:24:12.074Z</time></trkpt><trkpt lat="42.233785" lon="13.8839883"><ele>439.33333333333337</ele><time>2026-05-02T09:24:13.074Z</time></trkpt><trkpt lat="42.2337167" lon="13.8837117"><ele>445.0</ele><time>2026-05-02T09:24:14.074Z</time></trkpt><trkpt lat="42.2336567" lon="13.883445"><ele>450.33333333333337</ele><time>2026-05-02T09:24:15.074Z</time></trkpt><trkpt lat="42.23361" lon="13.8831933"><ele>455.66666666666663</ele><time>2026-05-02T09:24:16.074Z</time></trkpt><trkpt lat="42.2335767" lon="13.8829583"><ele>461.0</ele><time>2026-05-02T09:24:17.074Z</time></trkpt><trkpt lat="42.2335583" lon="13.882735"><ele>465.66666666666663</ele><time>2026-05-02T09:24:18.073Z</time></trkpt><trkpt lat="42.2335617" lon="13.882505"><ele>470.33333333333337</ele><time>2026-05-02T09:24:19.073Z</time></trkpt><trkpt lat="42.233585" lon="13.882255"><ele>475.0</ele><time>2026-05-02T09:24:20.074Z</time></trkpt><trkpt lat="42.233615" lon="13.8819867"><ele>476.33333333333337</ele><time>2026-05-02T09:24:21.073Z</time></trkpt><trkpt lat="42.2336567" lon="13.8817117"><ele>477.66666666666663</ele><time>2026-05-02T09:24:22.073Z</time></trkpt><trkpt lat="42.2336933" lon="13.8814617"><ele>479.0</ele><time>2026-05-02T09:24:23.073Z</time></trkpt><trkpt lat="42.2337383" lon="13.88122"><ele>479.0</ele><time>2026-05-02T09:24:24.073Z</time></trkpt><trkpt lat="42.2337767" lon="13.8809967"><ele>479.0</ele><time>2026-05-02T09:24:25.074Z</time></trkpt><trkpt lat="42.2338083" lon="13.8807767"><ele>479.0</ele><time>2026-05-02T09:24:26.074Z</time></trkpt><trkpt lat="42.2338267" lon="13.88055"><ele>478.66666666666663</ele><time>2026-05-02T09:24:27.074Z</time></trkpt><trkpt lat="42.2338167" lon="13.8802983"><ele>478.33333333333337</ele><time>2026-05-02T09:24:28.074Z</time></trkpt><trkpt lat="42.23378" lon="13.880045"><ele>478.0</ele><time>2026-05-02T09:24:29.074Z</time></trkpt><trkpt lat="42.2337367" lon="13.8798117"><ele>477.33333333333337</ele><time>2026-05-02T09:24:30.073Z</time></trkpt><trkpt lat="42.2337083" lon="13.8795917"><ele>476.66666666666663</ele><time>2026-05-02T09:24:31.074Z</time></trkpt><trkpt lat="42.23371" lon="13.87937"><ele>476.0</ele><time>2026-05-02T09:24:32.073Z</time></trkpt><trkpt lat="42.23374" lon="13.8791533"><ele>475.66666666666663</ele><time>2026-05-02T09:24:33.073Z</time></trkpt><trkpt lat="42.2337983" lon="13.878925"><ele>475.33333333333337</ele><time>2026-05-02T09:24:34.074Z</time></trkpt><trkpt lat="42.2338583" lon="13.878685"><ele>475.0</ele><time>2026-05-02T09:24:35.073Z</time></trkpt><trkpt lat="42.2339217" lon="13.87843"><ele>468.6666666666667</ele><time>2026-05-02T09:24:36.074Z</time></trkpt><trkpt lat="42.233975" lon="13.8781733"><ele>462.33333333333337</ele><time>2026-05-02T09:24:37.073Z</time></trkpt><trkpt lat="42.23402" lon="13.8779183"><ele>456.0</ele><time>2026-05-02T09:24:38.074Z</time></trkpt><trkpt lat="42.234055" lon="13.8776633"><ele>458.66666666666663</ele><time>2026-05-02T09:24:39.074Z</time></trkpt><trkpt lat="42.2340867" lon="13.8774167"><ele>461.3333333333333</ele><time>2026-05-02T09:24:40.074Z</time></trkpt><trkpt lat="42.234115" lon="13.8771883"><ele>464.0</ele><time>2026-05-02T09:24:41.074Z</time></trkpt><trkpt lat="42.2341283" lon="13.876965"><ele>464.5</ele><time>2026-05-02T09:24:42.074Z</time></trkpt><trkpt lat="42.23414" lon="13.8767667"><ele>465.0</ele><time>2026-05-02T09:24:43.073Z</time></trkpt><trkpt lat="42.2341683" lon="13.87657"><ele>465.5</ele><time>2026-05-02T09:24:44.074Z</time></trkpt><trkpt lat="42.23422" lon="13.876385"><ele>466.0</ele><time>2026-05-02T09:24:45.074Z</time></trkpt><trkpt lat="42.2342967" lon="13.876205"><ele>466.0</ele><time>2026-05-02T09:24:46.074Z</time></trkpt><trkpt lat="42.23438" lon="13.8760267"><ele>466.0</ele><time>2026-05-02T09:24:47.074Z</time></trkpt><trkpt lat="42.2344833" lon="13.8758333"><ele>466.0</ele><time>2026-05-02T09:24:48.074Z</time></trkpt><trkpt lat="42.2346033" lon="13.8756217"><ele>466.33333333333337</ele><time>2026-05-02T09:24:49.074Z</time></trkpt><trkpt lat="42.2347467" lon="13.87543"><ele>466.66666666666663</ele><time>2026-05-02T09:24:50.073Z</time></trkpt><trkpt lat="42.2349033" lon="13.8752417"><ele>467.0</ele><time>2026-05-02T09:24:51.074Z</time></trkpt><trkpt lat="42.2350633" lon="13.8750767"><ele>467.0</ele><time>2026-05-02T09:24:52.073Z</time></trkpt><trkpt lat="42.2352267" lon="13.87493"><ele>467.0</ele><time>2026-05-02T09:24:53.074Z</time></trkpt><trkpt lat="42.23538" lon="13.8748033"><ele>467.0</ele><time>2026-05-02T09:24:54.073Z</time></trkpt><trkpt lat="42.23551" lon="13.87468"><ele>467.0</ele><time>2026-05-02T09:24:55.074Z</time></trkpt><trkpt lat="42.2356233" lon="13.8745583"><ele>467.00000000000006</ele><time>2026-05-02T09:24:56.074Z</time></trkpt><trkpt lat="42.2356983" lon="13.874435"><ele>467.00000000000006</ele><time>2026-05-02T09:24:57.074Z</time></trkpt><trkpt lat="42.235735" lon="13.87433"><ele>467.0</ele><time>2026-05-02T09:24:58.073Z</time></trkpt><trkpt lat="42.23573" lon="13.87422"><ele>467.0</ele><time>2026-05-02T09:24:59.074Z</time></trkpt><trkpt lat="42.2357017" lon="13.8741183"><ele>465.20000000000005</ele><time>2026-05-02T09:25:00.074Z</time></trkpt><trkpt lat="42.235645" lon="13.8740217"><ele>463.40000000000003</ele><time>2026-05-02T09:25:01.073Z</time></trkpt><trkpt lat="42.235555" lon="13.8739133"><ele>461.59999999999997</ele><time>2026-05-02T09:25:02.073Z</time></trkpt><trkpt lat="42.23546" lon="13.8738033"><ele>459.79999999999995</ele><time>2026-05-02T09:25:03.073Z</time></trkpt><trkpt lat="42.2354017" lon="13.8736917"><ele>458.0</ele><time>2026-05-02T09:25:04.074Z</time></trkpt><trkpt lat="42.23538" lon="13.873585"><ele>458.59999999999997</ele><time>2026-05-02T09:25:05.073Z</time></trkpt><trkpt lat="42.2353867" lon="13.87348"><ele>459.19999999999993</ele><time>2026-05-02T09:25:06.074Z</time></trkpt><trkpt lat="42.2354317" lon="13.87336"><ele>459.8</ele><time>2026-05-02T09:25:07.074Z</time></trkpt><trkpt lat="42.2355083" lon="13.8732583"><ele>460.4</ele><time>2026-05-02T09:25:08.073Z</time></trkpt><trkpt lat="42.235615" lon="13.873195"><ele>461.0</ele><time>2026-05-02T09:25:09.074Z</time></trkpt><trkpt lat="42.235755" lon="13.8731733"><ele>461.0</ele><time>2026-05-02T09:25:10.073Z</time></trkpt><trkpt lat="42.235925" lon="13.8732"><ele>461.0</ele><time>2026-05-02T09:25:11.074Z</time></trkpt><trkpt lat="42.236105" lon="13.873255"><ele>461.0</ele><time>2026-05-02T09:25:12.073Z</time></trkpt><trkpt lat="42.236275" lon="13.8733217"><ele>461.0</ele><time>2026-05-02T09:25:13.073Z</time></trkpt><trkpt lat="42.2364583" lon="13.87337"><ele>461.0</ele><time>2026-05-02T09:25:14.074Z</time></trkpt><trkpt lat="42.2366533" lon="13.8733917"><ele>461.0</ele><time>2026-05-02T09:25:15.073Z</time></trkpt><trkpt lat="42.2368417" lon="13.8733833"><ele>461.3333333333333</ele><time>2026-05-02T09:25:16.074Z</time></trkpt><trkpt lat="42.237015" lon="13.8733383"><ele>461.66666666666663</ele><time>2026-05-02T09:25:17.073Z</time></trkpt><trkpt lat="42.23719" lon="13.87326"><ele>462.0</ele><time>2026-05-02T09:25:18.073Z</time></trkpt><trkpt lat="42.2373483" lon="13.8731483"><ele>460.33333333333337</ele><time>2026-05-02T09:25:19.074Z</time></trkpt><trkpt lat="42.237495" lon="13.8730283"><ele>458.6666666666667</ele><time>2026-05-02T09:25:20.074Z</time></trkpt><trkpt lat="42.23762" lon="13.8728983"><ele>457.0</ele><time>2026-05-02T09:25:21.073Z</time></trkpt><trkpt lat="42.2377333" lon="13.8727467"><ele>462.33333333333337</ele><time>2026-05-02T09:25:22.074Z</time></trkpt><trkpt lat="42.237825" lon="13.87258"><ele>467.66666666666663</ele><time>2026-05-02T09:25:23.073Z</time></trkpt><trkpt lat="42.2378867" lon="13.8723733"><ele>473.0</ele><time>2026-05-02T09:25:24.074Z</time></trkpt><trkpt lat="42.2379383" lon="13.872165"><ele>473.0</ele><time>2026-05-02T09:25:25.073Z</time></trkpt><trkpt lat="42.2380067" lon="13.8719567"><ele>473.0</ele><time>2026-05-02T09:25:26.073Z</time></trkpt><trkpt lat="42.2380917" lon="13.8717517"><ele>473.0</ele><time>2026-05-02T09:25:27.073Z</time></trkpt><trkpt lat="42.2381867" lon="13.871545"><ele>473.3333333333333</ele><time>2026-05-02T09:25:28.074Z</time></trkpt><trkpt lat="42.2382783" lon="13.8713533"><ele>473.66666666666663</ele><time>2026-05-02T09:25:29.074Z</time></trkpt><trkpt lat="42.2383817" lon="13.8711883"><ele>474.0</ele><time>2026-05-02T09:25:30.074Z</time></trkpt><trkpt lat="42.2384733" lon="13.8710383"><ele>477.2</ele><time>2026-05-02T09:25:31.074Z</time></trkpt><trkpt lat="42.2385583" lon="13.87092"><ele>480.4</ele><time>2026-05-02T09:25:32.074Z</time></trkpt><trkpt lat="42.2386233" lon="13.8708317"><ele>483.6</ele><time>2026-05-02T09:25:33.073Z</time></trkpt><trkpt lat="42.2386717" lon="13.8707583"><ele>486.8</ele><time>2026-05-02T09:25:34.074Z</time></trkpt><trkpt lat="42.238705" lon="13.8706367"><ele>490.0</ele><time>2026-05-02T09:25:36.073Z</time></trkpt><trkpt lat="42.2386217" lon="13.8705817"><ele>490.0</ele><time>2026-05-02T09:25:38.073Z</time></trkpt><trkpt lat="42.2385267" lon="13.8706"><ele>490.0</ele><time>2026-05-02T09:25:39.074Z</time></trkpt><trkpt lat="42.2384017" lon="13.8706367"><ele>490.0</ele><time>2026-05-02T09:25:40.073Z</time></trkpt><trkpt lat="42.2382383" lon="13.8706783"><ele>490.0</ele><time>2026-05-02T09:25:41.074Z</time></trkpt><trkpt lat="42.2380833" lon="13.8707217"><ele>489.2</ele><time>2026-05-02T09:25:42.074Z</time></trkpt><trkpt lat="42.2379567" lon="13.8707817"><ele>488.4</ele><time>2026-05-02T09:25:43.073Z</time></trkpt><trkpt lat="42.23786" lon="13.870855"><ele>487.6</ele><time>2026-05-02T09:25:44.074Z</time></trkpt><trkpt lat="42.23777" lon="13.87092"><ele>486.8</ele><time>2026-05-02T09:25:45.074Z</time></trkpt><trkpt lat="42.2376917" lon="13.8709667"><ele>486.0</ele><time>2026-05-02T09:25:46.074Z</time></trkpt><trkpt lat="42.2376133" lon="13.870995"><ele>489.5</ele><time>2026-05-02T09:25:47.073Z</time></trkpt><trkpt lat="42.237525" lon="13.8709317"><ele>493.0</ele><time>2026-05-02T09:25:49.074Z</time></trkpt><trkpt lat="42.23755" lon="13.87076"><ele>496.5</ele><time>2026-05-02T09:25:51.074Z</time></trkpt><trkpt lat="42.2376017" lon="13.8706533"><ele>500.0</ele><time>2026-05-02T09:25:52.074Z</time></trkpt><trkpt lat="42.2376867" lon="13.870525"><ele>500.0</ele><time>2026-05-02T09:25:53.073Z</time></trkpt><trkpt lat="42.2378067" lon="13.8703783"><ele>500.0</ele><time>2026-05-02T09:25:54.074Z</time></trkpt><trkpt lat="42.2379117" lon="13.8702333"><ele>500.0</ele><time>2026-05-02T09:25:55.074Z</time></trkpt><trkpt lat="42.2379883" lon="13.8701083"><ele>500.0</ele><time>2026-05-02T09:25:56.073Z</time></trkpt><trkpt lat="42.2380267" lon="13.8700117"><ele>503.0</ele><time>2026-05-02T09:25:57.073Z</time></trkpt><trkpt lat="42.2380117" lon="13.8698483"><ele>506.0</ele><time>2026-05-02T09:25:59.074Z</time></trkpt><trkpt lat="42.237955" lon="13.869775"><ele>509.0</ele><time>2026-05-02T09:26:00.073Z</time></trkpt><trkpt lat="42.2378633" lon="13.8697133"><ele>512.0</ele><time>2026-05-02T09:26:01.074Z</time></trkpt><trkpt lat="42.2377417" lon="13.869665"><ele>515.0</ele><time>2026-05-02T09:26:02.072Z</time></trkpt><trkpt lat="42.2376117" lon="13.869615"><ele>515.0</ele><time>2026-05-02T09:26:03.072Z</time></trkpt><trkpt lat="42.2374883" lon="13.8695417"><ele>515.0</ele><time>2026-05-02T09:26:04.072Z</time></trkpt><trkpt lat="42.2373583" lon="13.8694633"><ele>515.0</ele><time>2026-05-02T09:26:05.072Z</time></trkpt><trkpt lat="42.237225" lon="13.869385"><ele>515.0</ele><time>2026-05-02T09:26:06.073Z</time></trkpt><trkpt lat="42.2371017" lon="13.86932"><ele>518.8</ele><time>2026-05-02T09:26:07.072Z</time></trkpt><trkpt lat="42.2369933" lon="13.8692667"><ele>522.6</ele><time>2026-05-02T09:26:08.072Z</time></trkpt><trkpt lat="42.2369033" lon="13.8692133"><ele>526.4</ele><time>2026-05-02T09:26:09.073Z</time></trkpt><trkpt lat="42.2368133" lon="13.8691733"><ele>530.2</ele><time>2026-05-02T09:26:10.073Z</time></trkpt><trkpt lat="42.23673" lon="13.8691217"><ele>534.0</ele><time>2026-05-02T09:26:11.073Z</time></trkpt><trkpt lat="42.2366433" lon="13.8690467"><ele>534.0</ele><time>2026-05-02T09:26:12.072Z</time></trkpt><trkpt lat="42.2365433" lon="13.86896"><ele>534.0</ele><time>2026-05-02T09:26:13.073Z</time></trkpt><trkpt lat="42.23643" lon="13.8688667"><ele>534.0</ele><time>2026-05-02T09:26:14.073Z</time></trkpt><trkpt lat="42.2363317" lon="13.86878"><ele>534.0</ele><time>2026-05-02T09:26:15.072Z</time></trkpt><trkpt lat="42.2362567" lon="13.868705"><ele>534.8</ele><time>2026-05-02T09:26:16.072Z</time></trkpt><trkpt lat="42.2362233" lon="13.8686233"><ele>535.5999999999999</ele><time>2026-05-02T09:26:17.073Z</time></trkpt><trkpt lat="42.2362483" lon="13.8684667"><ele>536.4</ele><time>2026-05-02T09:26:19.073Z</time></trkpt><trkpt lat="42.2363083" lon="13.8684067"><ele>537.1999999999999</ele><time>2026-05-02T09:26:20.073Z</time></trkpt><trkpt lat="42.236405" lon="13.8683583"><ele>538.0</ele><time>2026-05-02T09:26:21.073Z</time></trkpt><trkpt lat="42.2365233" lon="13.8683133"><ele>541.0</ele><time>2026-05-02T09:26:22.073Z</time></trkpt><trkpt lat="42.2366567" lon="13.8682583"><ele>544.0</ele><time>2026-05-02T09:26:23.073Z</time></trkpt><trkpt lat="42.2367833" lon="13.8682017"><ele>547.0</ele><time>2026-05-02T09:26:24.072Z</time></trkpt><trkpt lat="42.2369033" lon="13.8681467"><ele>550.0</ele><time>2026-05-02T09:26:25.072Z</time></trkpt><trkpt lat="42.2369933" lon="13.8681"><ele>550.0</ele><time>2026-05-02T09:26:26.073Z</time></trkpt><trkpt lat="42.2370583" lon="13.8680633"><ele>550.0</ele><time>2026-05-02T09:26:27.073Z</time></trkpt><trkpt lat="42.237085" lon="13.867935"><ele>550.0</ele><time>2026-05-02T09:26:29.072Z</time></trkpt><trkpt lat="42.2370517" lon="13.8678583"><ele>550.0</ele><time>2026-05-02T09:26:30.072Z</time></trkpt><trkpt lat="42.23698" lon="13.8677983"><ele>550.0</ele><time>2026-05-02T09:26:31.073Z</time></trkpt><trkpt lat="42.2368733" lon="13.8677383"><ele>550.0</ele><time>2026-05-02T09:26:32.072Z</time></trkpt><trkpt lat="42.2367433" lon="13.86767"><ele>551.75</ele><time>2026-05-02T09:26:33.073Z</time></trkpt><trkpt lat="42.2366183" lon="13.8675783"><ele>553.5</ele><time>2026-05-02T09:26:34.072Z</time></trkpt><trkpt lat="42.236505" lon="13.867455"><ele>555.25</ele><time>2026-05-02T09:26:35.073Z</time></trkpt><trkpt lat="42.2364283" lon="13.86731"><ele>557.0</ele><time>2026-05-02T09:26:36.072Z</time></trkpt><trkpt lat="42.236355" lon="13.8671667"><ele>557.0</ele><time>2026-05-02T09:26:37.072Z</time></trkpt><trkpt lat="42.2362917" lon="13.86703"><ele>557.0</ele><time>2026-05-02T09:26:38.072Z</time></trkpt><trkpt lat="42.23624" lon="13.86691"><ele>557.0</ele><time>2026-05-02T09:26:39.072Z</time></trkpt><trkpt lat="42.236175" lon="13.8668117"><ele>557.0</ele><time>2026-05-02T09:26:40.072Z</time></trkpt><trkpt lat="42.2360917" lon="13.8667517"><ele>557.0</ele><time>2026-05-02T09:26:41.072Z</time></trkpt><trkpt lat="42.2359917" lon="13.8667383"><ele>557.0</ele><time>2026-05-02T09:26:42.073Z</time></trkpt><trkpt lat="42.2358683" lon="13.866765"><ele>557.0</ele><time>2026-05-02T09:26:43.072Z</time></trkpt><trkpt lat="42.2357333" lon="13.86682"><ele>557.0</ele><time>2026-05-02T09:26:44.072Z</time></trkpt><trkpt lat="42.2356167" lon="13.866865"><ele>557.0</ele><time>2026-05-02T09:26:45.073Z</time></trkpt><trkpt lat="42.2355233" lon="13.8668683"><ele>556.1666666666666</ele><time>2026-05-02T09:26:46.072Z</time></trkpt><trkpt lat="42.2354533" lon="13.86684"><ele>555.3333333333333</ele><time>2026-05-02T09:26:47.072Z</time></trkpt><trkpt lat="42.2354217" lon="13.866725"><ele>554.5</ele><time>2026-05-02T09:26:49.073Z</time></trkpt><trkpt lat="42.23551" lon="13.8666333"><ele>553.6666666666666</ele><time>2026-05-02T09:26:51.073Z</time></trkpt><trkpt lat="42.2355733" lon="13.8666183"><ele>552.8333333333334</ele><time>2026-05-02T09:26:52.072Z</time></trkpt><trkpt lat="42.235645" lon="13.8665967"><ele>552.0</ele><time>2026-05-02T09:26:54.072Z</time></trkpt><trkpt lat="42.235715" lon="13.86652"><ele>557.2</ele><time>2026-05-02T09:27:39.072Z</time></trkpt><trkpt lat="42.235785" lon="13.8664533"><ele>562.4000000000001</ele><time>2026-05-02T09:27:40.072Z</time></trkpt><trkpt lat="42.2358633" lon="13.8663917"><ele>567.5999999999999</ele><time>2026-05-02T09:27:41.073Z</time></trkpt><trkpt lat="42.2359483" lon="13.8663167"><ele>572.8</ele><time>2026-05-02T09:27:42.072Z</time></trkpt><trkpt lat="42.2360433" lon="13.8662333"><ele>578.0</ele><time>2026-05-02T09:27:43.072Z</time></trkpt><trkpt lat="42.2361267" lon="13.86615"><ele>578.0</ele><time>2026-05-02T09:27:44.073Z</time></trkpt><trkpt lat="42.2361867" lon="13.86606"><ele>578.0</ele><time>2026-05-02T09:27:45.072Z</time></trkpt><trkpt lat="42.23623" lon="13.865975"><ele>578.0</ele><time>2026-05-02T09:27:46.072Z</time></trkpt><trkpt lat="42.23626" lon="13.8658717"><ele>578.0</ele><time>2026-05-02T09:27:47.072Z</time></trkpt><trkpt lat="42.23629" lon="13.865795"><ele>578.0</ele><time>2026-05-02T09:27:48.073Z</time></trkpt><trkpt lat="42.23635" lon="13.8657683"><ele>578.0</ele><time>2026-05-02T09:27:50.072Z</time></trkpt><trkpt lat="42.2364283" lon="13.865885"><ele>580.6</ele><time>2026-05-02T09:27:52.073Z</time></trkpt><trkpt lat="42.2364967" lon="13.8659667"><ele>583.1999999999999</ele><time>2026-05-02T09:27:53.073Z</time></trkpt><trkpt lat="42.2365883" lon="13.8660317"><ele>585.8</ele><time>2026-05-02T09:27:54.072Z</time></trkpt><trkpt lat="42.2366917" lon="13.866055"><ele>588.4</ele><time>2026-05-02T09:27:55.072Z</time></trkpt><trkpt lat="42.2368067" lon="13.8660417"><ele>591.0</ele><time>2026-05-02T09:27:56.072Z</time></trkpt><trkpt lat="42.2369" lon="13.8660283"><ele>591.0</ele><time>2026-05-02T09:27:57.073Z</time></trkpt><trkpt lat="42.2369717" lon="13.8660217"><ele>591.0</ele><time>2026-05-02T09:27:58.072Z</time></trkpt><trkpt lat="42.23704" lon="13.866045"><ele>591.0</ele><time>2026-05-02T09:27:59.073Z</time></trkpt><trkpt lat="42.2371183" lon="13.8661033"><ele>591.0</ele><time>2026-05-02T09:28:00.073Z</time></trkpt><trkpt lat="42.2372076" lon="13.8661756"><ele>591.0</ele><time>2026-05-02T09:28:01.072Z</time></trkpt><trkpt lat="42.237314" lon="13.8662707"><ele>593.2</ele><time>2026-05-02T09:28:02.072Z</time></trkpt><trkpt lat="42.2374214" lon="13.8663629"><ele>595.4000000000001</ele><time>2026-05-02T09:28:03.073Z</time></trkpt><trkpt lat="42.2375266" lon="13.8664222"><ele>597.6</ele><time>2026-05-02T09:28:04.073Z</time></trkpt><trkpt lat="42.2376245" lon="13.8664539"><ele>599.8000000000001</ele><time>2026-05-02T09:28:05.072Z</time></trkpt><trkpt lat="42.2377116" lon="13.8664521"><ele>602.0</ele><time>2026-05-02T09:28:06.073Z</time></trkpt><trkpt lat="42.2377922" lon="13.8664158"><ele>602.0</ele><time>2026-05-02T09:28:07.073Z</time></trkpt><trkpt lat="42.2378674" lon="13.8663524"><ele>602.0</ele><time>2026-05-02T09:28:08.073Z</time></trkpt><trkpt lat="42.2379397" lon="13.8662648"><ele>602.0</ele><time>2026-05-02T09:28:09.073Z</time></trkpt><trkpt lat="42.2380058" lon="13.8661564"><ele>602.0</ele><time>2026-05-02T09:28:10.073Z</time></trkpt><trkpt lat="42.2380533" lon="13.8660434"><ele>602.0</ele><time>2026-05-02T09:28:11.073Z</time></trkpt><trkpt lat="42.2380791" lon="13.865921"><ele>606.5</ele><time>2026-05-02T09:28:12.073Z</time></trkpt><trkpt lat="42.2380829" lon="13.8657788"><ele>611.0</ele><time>2026-05-02T09:28:13.072Z</time></trkpt><trkpt lat="42.2380732" lon="13.8656213"><ele>615.5</ele><time>2026-05-02T09:28:14.073Z</time></trkpt><trkpt lat="42.2380449" lon="13.8654569"><ele>620.0</ele><time>2026-05-02T09:28:15.073Z</time></trkpt><trkpt lat="42.2380156" lon="13.8653186"><ele>620.0</ele><time>2026-05-02T09:28:16.072Z</time></trkpt><trkpt lat="42.2379962" lon="13.8651948"><ele>620.0</ele><time>2026-05-02T09:28:17.073Z</time></trkpt><trkpt lat="42.2379813" lon="13.8650596"><ele>620.0</ele><time>2026-05-02T09:28:18.073Z</time></trkpt><trkpt lat="42.2379735" lon="13.8649146"><ele>620.0</ele><time>2026-05-02T09:28:19.072Z</time></trkpt><trkpt lat="42.2379727" lon="13.8647675"><ele>620.0</ele><time>2026-05-02T09:28:20.073Z</time></trkpt><trkpt lat="42.2379728" lon="13.8646196"><ele>623.4</ele><time>2026-05-02T09:28:21.073Z</time></trkpt><trkpt lat="42.2379638" lon="13.8644809"><ele>626.8</ele><time>2026-05-02T09:28:22.073Z</time></trkpt><trkpt lat="42.2379472" lon="13.8643736"><ele>630.2</ele><time>2026-05-02T09:28:23.072Z</time></trkpt><trkpt lat="42.2378859" lon="13.8642421"><ele>633.6</ele><time>2026-05-02T09:28:25.072Z</time></trkpt><trkpt lat="42.2378248" lon="13.8641846"><ele>637.0</ele><time>2026-05-02T09:28:26.073Z</time></trkpt><trkpt lat="42.237736" lon="13.8641122"><ele>640.0</ele><time>2026-05-02T09:28:27.073Z</time></trkpt><trkpt lat="42.2376509" lon="13.8640191"><ele>643.0</ele><time>2026-05-02T09:28:28.072Z</time></trkpt><trkpt lat="42.2375795" lon="13.863916"><ele>646.0</ele><time>2026-05-02T09:28:29.073Z</time></trkpt><trkpt lat="42.2375256" lon="13.8638025"><ele>649.0</ele><time>2026-05-02T09:28:30.072Z</time></trkpt><trkpt lat="42.2374794" lon="13.8636796"><ele>652.0</ele><time>2026-05-02T09:28:31.072Z</time></trkpt><trkpt lat="42.2374517" lon="13.8635647"><ele>655.2</ele><time>2026-05-02T09:28:32.072Z</time></trkpt><trkpt lat="42.2374418" lon="13.8634389"><ele>658.4000000000001</ele><time>2026-05-02T09:28:33.073Z</time></trkpt><trkpt lat="42.2374443" lon="13.8633009"><ele>661.5999999999999</ele><time>2026-05-02T09:28:34.072Z</time></trkpt><trkpt lat="42.2374468" lon="13.863177"><ele>664.8</ele><time>2026-05-02T09:28:35.072Z</time></trkpt><trkpt lat="42.2374356" lon="13.8630615"><ele>668.0</ele><time>2026-05-02T09:28:36.072Z</time></trkpt><trkpt lat="42.2374083" lon="13.862954"><ele>668.0</ele><time>2026-05-02T09:28:37.072Z</time></trkpt><trkpt lat="42.2373726" lon="13.862842"><ele>668.0</ele><time>2026-05-02T09:28:38.072Z</time></trkpt><trkpt lat="42.2373454" lon="13.8627153"><ele>668.0</ele><time>2026-05-02T09:28:39.072Z</time></trkpt><trkpt lat="42.2373236" lon="13.8625758"><ele>668.0</ele><time>2026-05-02T09:28:40.073Z</time></trkpt><trkpt lat="42.2372946" lon="13.8624355"><ele>668.0</ele><time>2026-05-02T09:28:41.073Z</time></trkpt><trkpt lat="42.2372597" lon="13.8622847"><ele>672.2</ele><time>2026-05-02T09:28:42.072Z</time></trkpt><trkpt lat="42.237228" lon="13.8621312"><ele>676.4</ele><time>2026-05-02T09:28:43.072Z</time></trkpt><trkpt lat="42.2371992" lon="13.8619817"><ele>680.6</ele><time>2026-05-02T09:28:44.072Z</time></trkpt><trkpt lat="42.2371836" lon="13.8618463"><ele>684.8000000000001</ele><time>2026-05-02T09:28:45.072Z</time></trkpt><trkpt lat="42.2371603" lon="13.8617239"><ele>689.0</ele><time>2026-05-02T09:28:46.072Z</time></trkpt><trkpt lat="42.2371343" lon="13.8616137"><ele>693.0</ele><time>2026-05-02T09:28:47.073Z</time></trkpt><trkpt lat="42.2371253" lon="13.8615063"><ele>697.0</ele><time>2026-05-02T09:28:48.072Z</time></trkpt><trkpt lat="42.2371322" lon="13.8613897"><ele>701.0</ele><time>2026-05-02T09:28:49.072Z</time></trkpt><trkpt lat="42.2371409" lon="13.861247"><ele>705.0</ele><time>2026-05-02T09:28:50.072Z</time></trkpt><trkpt lat="42.2371388" lon="13.8610947"><ele>709.0</ele><time>2026-05-02T09:28:51.073Z</time></trkpt><trkpt lat="42.2371257" lon="13.8609513"><ele>712.1666666666667</ele><time>2026-05-02T09:28:52.072Z</time></trkpt><trkpt lat="42.2371048" lon="13.8608371"><ele>715.3333333333334</ele><time>2026-05-02T09:28:53.072Z</time></trkpt><trkpt lat="42.237077" lon="13.8607291"><ele>718.5</ele><time>2026-05-02T09:28:54.073Z</time></trkpt><trkpt lat="42.2370482" lon="13.8606313"><ele>721.6666666666666</ele><time>2026-05-02T09:28:55.072Z</time></trkpt><trkpt lat="42.2370281" lon="13.8605447"><ele>724.8333333333333</ele><time>2026-05-02T09:28:56.073Z</time></trkpt><trkpt lat="42.2370176" lon="13.8604513"><ele>728.0</ele><time>2026-05-02T09:28:58.073Z</time></trkpt><trkpt lat="42.2370561" lon="13.8603779"><ele>728.0</ele><time>2026-05-02T09:29:02.073Z</time></trkpt><trkpt lat="42.2370815" lon="13.8602908"><ele>728.0</ele><time>2026-05-02T09:29:04.073Z</time></trkpt><trkpt lat="42.2371114" lon="13.8601436"><ele>728.0</ele><time>2026-05-02T09:29:06.072Z</time></trkpt><trkpt lat="42.2371278" lon="13.8600447"><ele>728.0</ele><time>2026-05-02T09:29:07.073Z</time></trkpt><trkpt lat="42.2371442" lon="13.8599276"><ele>728.0</ele><time>2026-05-02T09:29:08.072Z</time></trkpt><trkpt lat="42.2371682" lon="13.8597887"><ele>731.2</ele><time>2026-05-02T09:29:09.072Z</time></trkpt><trkpt lat="42.2371943" lon="13.859636"><ele>734.4</ele><time>2026-05-02T09:29:10.072Z</time></trkpt><trkpt lat="42.2372221" lon="13.8594953"><ele>737.6</ele><time>2026-05-02T09:29:11.072Z</time></trkpt><trkpt lat="42.2372488" lon="13.8593577"><ele>740.8000000000001</ele><time>2026-05-02T09:29:12.073Z</time></trkpt><trkpt lat="42.2372548" lon="13.8592206"><ele>744.0</ele><time>2026-05-02T09:29:13.072Z</time></trkpt><trkpt lat="42.2372438" lon="13.8590898"><ele>746.0</ele><time>2026-05-02T09:29:14.072Z</time></trkpt><trkpt lat="42.2372291" lon="13.8589604"><ele>748.0</ele><time>2026-05-02T09:29:15.072Z</time></trkpt><trkpt lat="42.2372191" lon="13.8588463"><ele>750.0</ele><time>2026-05-02T09:29:16.072Z</time></trkpt><trkpt lat="42.2372165" lon="13.8587506"><ele>752.0</ele><time>2026-05-02T09:29:17.072Z</time></trkpt><trkpt lat="42.2372047" lon="13.858582"><ele>754.0</ele><time>2026-05-02T09:29:19.072Z</time></trkpt><trkpt lat="42.2371986" lon="13.8584891"><ele>756.0</ele><time>2026-05-02T09:29:20.073Z</time></trkpt><trkpt lat="42.2372057" lon="13.8583903"><ele>758.0</ele><time>2026-05-02T09:29:21.073Z</time></trkpt><trkpt lat="42.2372222" lon="13.85829"><ele>760.0</ele><time>2026-05-02T09:29:22.072Z</time></trkpt><trkpt lat="42.2372458" lon="13.8581874"><ele>762.0</ele><time>2026-05-02T09:29:23.072Z</time></trkpt><trkpt lat="42.2372683" lon="13.858083"><ele>764.0</ele><time>2026-05-02T09:29:24.073Z</time></trkpt><trkpt lat="42.2372896" lon="13.8579788"><ele>766.0</ele><time>2026-05-02T09:29:25.073Z</time></trkpt><trkpt lat="42.2373102" lon="13.8578759"><ele>768.0</ele><time>2026-05-02T09:29:26.073Z</time></trkpt><trkpt lat="42.2373384" lon="13.8577745"><ele>770.0</ele><time>2026-05-02T09:29:27.073Z</time></trkpt><trkpt lat="42.2373704" lon="13.8576717"><ele>772.0</ele><time>2026-05-02T09:29:28.073Z</time></trkpt><trkpt lat="42.237404" lon="13.8575692"><ele>774.0</ele><time>2026-05-02T09:29:29.073Z</time></trkpt><trkpt lat="42.2374404" lon="13.8574638"><ele>776.0</ele><time>2026-05-02T09:29:30.073Z</time></trkpt><trkpt lat="42.2374802" lon="13.8573612"><ele>778.0</ele><time>2026-05-02T09:29:31.072Z</time></trkpt><trkpt lat="42.2375219" lon="13.8572551"><ele>780.0</ele><time>2026-05-02T09:29:32.073Z</time></trkpt><trkpt lat="42.2375609" lon="13.857165"><ele>781.8</ele><time>2026-05-02T09:29:33.073Z</time></trkpt><trkpt lat="42.2376072" lon="13.8570515"><ele>783.6</ele><time>2026-05-02T09:29:35.072Z</time></trkpt><trkpt lat="42.2375534" lon="13.8569289"><ele>785.4000000000001</ele><time>2026-05-02T09:29:39.073Z</time></trkpt><trkpt lat="42.2375194" lon="13.8568383"><ele>787.2</ele><time>2026-05-02T09:29:40.072Z</time></trkpt><trkpt lat="42.2374846" lon="13.8567182"><ele>789.0</ele><time>2026-05-02T09:29:41.072Z</time></trkpt><trkpt lat="42.2374517" lon="13.8565467"><ele>789.5</ele><time>2026-05-02T09:29:42.072Z</time></trkpt><trkpt lat="42.2374167" lon="13.8563733"><ele>790.0</ele><time>2026-05-02T09:29:43.072Z</time></trkpt><trkpt lat="42.23739" lon="13.856205"><ele>790.5</ele><time>2026-05-02T09:29:44.073Z</time></trkpt><trkpt lat="42.2373633" lon="13.8560767"><ele>791.0</ele><time>2026-05-02T09:29:45.073Z</time></trkpt><trkpt lat="42.2373467" lon="13.855955"><ele>793.0</ele><time>2026-05-02T09:29:46.072Z</time></trkpt><trkpt lat="42.2373367" lon="13.8558167"><ele>795.0</ele><time>2026-05-02T09:29:47.072Z</time></trkpt><trkpt lat="42.2373033" lon="13.8556533"><ele>797.0</ele><time>2026-05-02T09:29:48.073Z</time></trkpt><trkpt lat="42.2372483" lon="13.85549"><ele>799.0</ele><time>2026-05-02T09:29:49.072Z</time></trkpt><trkpt lat="42.2371733" lon="13.85533"><ele>794.0</ele><time>2026-05-02T09:29:50.072Z</time></trkpt><trkpt lat="42.2370933" lon="13.8551667"><ele>789.0</ele><time>2026-05-02T09:29:51.073Z</time></trkpt><trkpt lat="42.2370183" lon="13.855005"><ele>784.0</ele><time>2026-05-02T09:29:52.073Z</time></trkpt><trkpt lat="42.2369617" lon="13.8548633"><ele>779.0</ele><time>2026-05-02T09:29:53.073Z</time></trkpt><trkpt lat="42.23692" lon="13.8547267"><ele>779.0000000000001</ele><time>2026-05-02T09:29:54.072Z</time></trkpt><trkpt lat="42.2368833" lon="13.854595"><ele>779.0</ele><time>2026-05-02T09:29:55.073Z</time></trkpt><trkpt lat="42.236845" lon="13.8544883"><ele>779.0</ele><time>2026-05-02T09:29:56.072Z</time></trkpt><trkpt lat="42.2368117" lon="13.854395"><ele>779.0</ele><time>2026-05-02T09:29:57.072Z</time></trkpt><trkpt lat="42.2367883" lon="13.8543133"><ele>779.0000000000001</ele><time>2026-05-02T09:29:58.073Z</time></trkpt><trkpt lat="42.2367667" lon="13.8542267"><ele>779.0</ele><time>2026-05-02T09:29:59.073Z</time></trkpt><trkpt lat="42.236745" lon="13.854125"><ele>780.5000000000001</ele><time>2026-05-02T09:30:00.073Z</time></trkpt><trkpt lat="42.2367183" lon="13.8540283"><ele>782.0</ele><time>2026-05-02T09:30:01.072Z</time></trkpt><trkpt lat="42.23669" lon="13.8539233"><ele>783.5</ele><time>2026-05-02T09:30:02.072Z</time></trkpt><trkpt lat="42.2366617" lon="13.8538217"><ele>785.0</ele><time>2026-05-02T09:30:03.072Z</time></trkpt><trkpt lat="42.2366417" lon="13.8537367"><ele>786.5000000000001</ele><time>2026-05-02T09:30:04.073Z</time></trkpt><trkpt lat="42.2365883" lon="13.8536433"><ele>788.0</ele><time>2026-05-02T09:30:06.072Z</time></trkpt><trkpt lat="42.23649" lon="13.8536467"><ele>785.4</ele><time>2026-05-02T09:30:08.073Z</time></trkpt><trkpt lat="42.2364133" lon="13.8536883"><ele>782.8</ele><time>2026-05-02T09:30:09.073Z</time></trkpt><trkpt lat="42.2363417" lon="13.8537417"><ele>780.2</ele><time>2026-05-02T09:30:10.072Z</time></trkpt><trkpt lat="42.236265" lon="13.8538183"><ele>777.6</ele><time>2026-05-02T09:30:11.072Z</time></trkpt><trkpt lat="42.2361767" lon="13.8539067"><ele>775.0</ele><time>2026-05-02T09:30:12.073Z</time></trkpt><trkpt lat="42.2361" lon="13.8539867"><ele>775.0</ele><time>2026-05-02T09:30:13.072Z</time></trkpt><trkpt lat="42.2360217" lon="13.8540517"><ele>775.0</ele><time>2026-05-02T09:30:14.072Z</time></trkpt><trkpt lat="42.2359417" lon="13.8541067"><ele>775.0</ele><time>2026-05-02T09:30:15.072Z</time></trkpt><trkpt lat="42.23585" lon="13.8541383"><ele>775.0</ele><time>2026-05-02T09:30:16.072Z</time></trkpt><trkpt lat="42.235765" lon="13.8541767"><ele>775.0</ele><time>2026-05-02T09:30:17.071Z</time></trkpt><trkpt lat="42.2356883" lon="13.8542233"><ele>771.0</ele><time>2026-05-02T09:30:18.071Z</time></trkpt><trkpt lat="42.235615" lon="13.8542883"><ele>767.0</ele><time>2026-05-02T09:30:19.071Z</time></trkpt><trkpt lat="42.235535" lon="13.8543683"><ele>763.0</ele><time>2026-05-02T09:30:20.072Z</time></trkpt><trkpt lat="42.2354633" lon="13.8544233"><ele>759.0</ele><time>2026-05-02T09:30:21.071Z</time></trkpt><trkpt lat="42.2353767" lon="13.854485"><ele>755.0</ele><time>2026-05-02T09:30:22.072Z</time></trkpt><trkpt lat="42.2352933" lon="13.8545367"><ele>755.0</ele><time>2026-05-02T09:30:23.071Z</time></trkpt><trkpt lat="42.2352067" lon="13.854595"><ele>755.0</ele><time>2026-05-02T09:30:24.071Z</time></trkpt><trkpt lat="42.235135" lon="13.8546333"><ele>755.0</ele><time>2026-05-02T09:30:25.072Z</time></trkpt><trkpt lat="42.2350367" lon="13.8546767"><ele>755.0</ele><time>2026-05-02T09:30:27.072Z</time></trkpt><trkpt lat="42.23495" lon="13.85472"><ele>755.0</ele><time>2026-05-02T09:30:29.072Z</time></trkpt><trkpt lat="42.2348533" lon="13.85476"><ele>754.0</ele><time>2026-05-02T09:30:31.072Z</time></trkpt><trkpt lat="42.2347867" lon="13.85485"><ele>753.0</ele><time>2026-05-02T09:30:33.072Z</time></trkpt><trkpt lat="42.2347117" lon="13.8549233"><ele>752.0</ele><time>2026-05-02T09:30:35.071Z</time></trkpt><trkpt lat="42.23461" lon="13.854985"><ele>751.0</ele><time>2026-05-02T09:30:37.071Z</time></trkpt><trkpt lat="42.2344867" lon="13.8550767"><ele>750.0</ele><time>2026-05-02T09:30:39.072Z</time></trkpt><trkpt lat="42.2343967" lon="13.8551483"><ele>746.6</ele><time>2026-05-02T09:30:40.071Z</time></trkpt><trkpt lat="42.234275" lon="13.8552317"><ele>743.2</ele><time>2026-05-02T09:30:41.071Z</time></trkpt><trkpt lat="42.2341717" lon="13.8553083"><ele>739.8</ele><time>2026-05-02T09:30:42.072Z</time></trkpt><trkpt lat="42.2341" lon="13.85536"><ele>736.4</ele><time>2026-05-02T09:30:43.071Z</time></trkpt><trkpt lat="42.23401" lon="13.855355"><ele>733.0</ele><time>2026-05-02T09:30:45.071Z</time></trkpt><trkpt lat="42.2339583" lon="13.855225"><ele>731.8333333333334</ele><time>2026-05-02T09:30:47.071Z</time></trkpt><trkpt lat="42.233935" lon="13.855125"><ele>730.6666666666667</ele><time>2026-05-02T09:30:48.071Z</time></trkpt><trkpt lat="42.2339033" lon="13.8550433"><ele>729.5</ele><time>2026-05-02T09:30:49.071Z</time></trkpt><trkpt lat="42.2337917" lon="13.8549633"><ele>728.3333333333334</ele><time>2026-05-02T09:30:51.071Z</time></trkpt><trkpt lat="42.2337217" lon="13.8549367"><ele>727.1666666666666</ele><time>2026-05-02T09:30:52.072Z</time></trkpt><trkpt lat="42.2336533" lon="13.8549067"><ele>726.0</ele><time>2026-05-02T09:30:53.071Z</time></trkpt><trkpt lat="42.23359" lon="13.8548833"><ele>729.3333333333334</ele><time>2026-05-02T09:30:54.071Z</time></trkpt><trkpt lat="42.23349" lon="13.8548883"><ele>732.6666666666666</ele><time>2026-05-02T09:30:56.071Z</time></trkpt><trkpt lat="42.2334333" lon="13.854955"><ele>736.0</ele><time>2026-05-02T09:30:57.072Z</time></trkpt><trkpt lat="42.23336" lon="13.8550233"><ele>739.3333333333333</ele><time>2026-05-02T09:30:58.072Z</time></trkpt><trkpt lat="42.2332867" lon="13.855075"><ele>742.6666666666666</ele><time>2026-05-02T09:30:59.071Z</time></trkpt><trkpt lat="42.23322" lon="13.8551"><ele>746.0</ele><time>2026-05-02T09:31:00.072Z</time></trkpt><trkpt lat="42.233145" lon="13.8551017"><ele>746.3333333333333</ele><time>2026-05-02T09:31:02.072Z</time></trkpt><trkpt lat="42.233075" lon="13.85506"><ele>746.6666666666666</ele><time>2026-05-02T09:31:04.071Z</time></trkpt><trkpt lat="42.2330067" lon="13.85498"><ele>747.0</ele><time>2026-05-02T09:31:06.072Z</time></trkpt><trkpt lat="42.232915" lon="13.8548717"><ele>747.3333333333334</ele><time>2026-05-02T09:31:08.071Z</time></trkpt><trkpt lat="42.2328567" lon="13.8548317"><ele>747.6666666666667</ele><time>2026-05-02T09:31:09.071Z</time></trkpt><trkpt lat="42.232785" lon="13.8547883"><ele>748.0</ele><time>2026-05-02T09:31:10.072Z</time></trkpt><trkpt lat="42.23271" lon="13.8547533"><ele>748.0</ele><time>2026-05-02T09:31:11.072Z</time></trkpt><trkpt lat="42.2325833" lon="13.8547683"><ele>748.0</ele><time>2026-05-02T09:31:13.071Z</time></trkpt><trkpt lat="42.2325117" lon="13.8548167"><ele>748.0</ele><time>2026-05-02T09:31:14.072Z</time></trkpt><trkpt lat="42.2324283" lon="13.854885"><ele>748.0</ele><time>2026-05-02T09:31:15.071Z</time></trkpt><trkpt lat="42.2323617" lon="13.85494"><ele>748.0</ele><time>2026-05-02T09:31:16.072Z</time></trkpt><trkpt lat="42.23231" lon="13.8549933"><ele>748.0</ele><time>2026-05-02T09:31:17.071Z</time></trkpt><trkpt lat="42.2322633" lon="13.8550567"><ele>748.8</ele><time>2026-05-02T09:31:18.072Z</time></trkpt><trkpt lat="42.232195" lon="13.8551183"><ele>749.5999999999999</ele><time>2026-05-02T09:31:19.072Z</time></trkpt><trkpt lat="42.2321267" lon="13.8551867"><ele>750.4000000000001</ele><time>2026-05-02T09:31:20.072Z</time></trkpt><trkpt lat="42.232055" lon="13.8552733"><ele>751.2</ele><time>2026-05-02T09:31:21.072Z</time></trkpt><trkpt lat="42.2319767" lon="13.8553683"><ele>752.0</ele><time>2026-05-02T09:31:22.071Z</time></trkpt><trkpt lat="42.2319017" lon="13.8554517"><ele>748.3333333333333</ele><time>2026-05-02T09:31:23.072Z</time></trkpt><trkpt lat="42.231825" lon="13.8555317"><ele>744.6666666666666</ele><time>2026-05-02T09:31:24.072Z</time></trkpt><trkpt lat="42.231755" lon="13.8555983"><ele>741.0</ele><time>2026-05-02T09:31:25.072Z</time></trkpt><trkpt lat="42.2316967" lon="13.855655"><ele>737.3333333333334</ele><time>2026-05-02T09:31:26.072Z</time></trkpt><trkpt lat="42.2316317" lon="13.8557183"><ele>733.6666666666667</ele><time>2026-05-02T09:31:27.072Z</time></trkpt><trkpt lat="42.2315667" lon="13.855805"><ele>730.0</ele><time>2026-05-02T09:31:28.072Z</time></trkpt><trkpt lat="42.2315" lon="13.8559017"><ele>727.2</ele><time>2026-05-02T09:31:29.072Z</time></trkpt><trkpt lat="42.2314333" lon="13.8560083"><ele>724.4</ele><time>2026-05-02T09:31:30.072Z</time></trkpt><trkpt lat="42.2313683" lon="13.8561067"><ele>721.5999999999999</ele><time>2026-05-02T09:31:31.071Z</time></trkpt><trkpt lat="42.2313133" lon="13.8562067"><ele>718.8</ele><time>2026-05-02T09:31:32.071Z</time></trkpt><trkpt lat="42.231265" lon="13.8562983"><ele>716.0</ele><time>2026-05-02T09:31:33.071Z</time></trkpt><trkpt lat="42.2312217" lon="13.8563817"><ele>716.0</ele><time>2026-05-02T09:31:34.072Z</time></trkpt><trkpt lat="42.231175" lon="13.85646"><ele>716.0</ele><time>2026-05-02T09:31:35.071Z</time></trkpt><trkpt lat="42.2311183" lon="13.8565383"><ele>716.0</ele><time>2026-05-02T09:31:36.071Z</time></trkpt><trkpt lat="42.2310467" lon="13.8566067"><ele>716.0</ele><time>2026-05-02T09:31:37.072Z</time></trkpt><trkpt lat="42.2309533" lon="13.856675"><ele>716.0</ele><time>2026-05-02T09:31:38.071Z</time></trkpt><trkpt lat="42.2308517" lon="13.8567383"><ele>713.0</ele><time>2026-05-02T09:31:39.072Z</time></trkpt><trkpt lat="42.2307533" lon="13.856795"><ele>710.0</ele><time>2026-05-02T09:31:40.071Z</time></trkpt><trkpt lat="42.2306783" lon="13.8568383"><ele>707.0</ele><time>2026-05-02T09:31:41.071Z</time></trkpt><trkpt lat="42.2306117" lon="13.8569267"><ele>704.0</ele><time>2026-05-02T09:31:43.072Z</time></trkpt><trkpt lat="42.2306067" lon="13.857125"><ele>701.0</ele><time>2026-05-02T09:31:45.071Z</time></trkpt><trkpt lat="42.2306133" lon="13.857265"><ele>700.0</ele><time>2026-05-02T09:31:46.071Z</time></trkpt><trkpt lat="42.2306233" lon="13.85741"><ele>699.0</ele><time>2026-05-02T09:31:47.072Z</time></trkpt><trkpt lat="42.2306383" lon="13.8575333"><ele>698.0</ele><time>2026-05-02T09:31:48.071Z</time></trkpt><trkpt lat="42.23065" lon="13.8576483"><ele>697.0</ele><time>2026-05-02T09:31:49.072Z</time></trkpt><trkpt lat="42.230675" lon="13.8577567"><ele>696.0</ele><time>2026-05-02T09:31:50.071Z</time></trkpt><trkpt lat="42.230685" lon="13.8578533"><ele>695.0</ele><time>2026-05-02T09:31:51.071Z</time></trkpt><trkpt lat="42.2306933" lon="13.857955"><ele>693.4285714285714</ele><time>2026-05-02T09:31:52.072Z</time></trkpt><trkpt lat="42.2306967" lon="13.8580683"><ele>691.8571428571429</ele><time>2026-05-02T09:31:53.071Z</time></trkpt><trkpt lat="42.2307" lon="13.858175"><ele>690.2857142857142</ele><time>2026-05-02T09:31:54.071Z</time></trkpt><trkpt lat="42.2307" lon="13.858275"><ele>688.7142857142858</ele><time>2026-05-02T09:31:55.072Z</time></trkpt><trkpt lat="42.2307067" lon="13.8583633"><ele>687.1428571428571</ele><time>2026-05-02T09:31:56.071Z</time></trkpt><trkpt lat="42.2307167" lon="13.8584517"><ele>685.5714285714286</ele><time>2026-05-02T09:31:57.071Z</time></trkpt><trkpt lat="42.2307267" lon="13.8585583"><ele>684.0</ele><time>2026-05-02T09:31:58.071Z</time></trkpt><trkpt lat="42.230735" lon="13.8586633"><ele>680.6666666666666</ele><time>2026-05-02T09:31:59.072Z</time></trkpt><trkpt lat="42.230755" lon="13.8587683"><ele>677.3333333333334</ele><time>2026-05-02T09:32:00.072Z</time></trkpt><trkpt lat="42.2307583" lon="13.8588633"><ele>674.0</ele><time>2026-05-02T09:32:01.071Z</time></trkpt><trkpt lat="42.2307617" lon="13.85895"><ele>670.6666666666667</ele><time>2026-05-02T09:32:02.072Z</time></trkpt><trkpt lat="42.2307567" lon="13.8591067"><ele>667.3333333333334</ele><time>2026-05-02T09:32:04.071Z</time></trkpt><trkpt lat="42.2307583" lon="13.859195"><ele>664.0</ele><time>2026-05-02T09:32:05.071Z</time></trkpt><trkpt lat="42.2307567" lon="13.8593383"><ele>661.1666666666667</ele><time>2026-05-02T09:32:07.071Z</time></trkpt><trkpt lat="42.2307617" lon="13.85943"><ele>658.3333333333334</ele><time>2026-05-02T09:32:09.071Z</time></trkpt><trkpt lat="42.2307517" lon="13.8595167"><ele>655.5</ele><time>2026-05-02T09:32:13.071Z</time></trkpt><trkpt lat="42.2306567" lon="13.859495"><ele>652.6666666666666</ele><time>2026-05-02T09:32:18.071Z</time></trkpt><trkpt lat="42.2305783" lon="13.8594567"><ele>649.8333333333333</ele><time>2026-05-02T09:32:20.071Z</time></trkpt><trkpt lat="42.2305017" lon="13.8593933"><ele>647.0</ele><time>2026-05-02T09:32:22.072Z</time></trkpt><trkpt lat="42.230415" lon="13.859295"><ele>649.5</ele><time>2026-05-02T09:32:24.071Z</time></trkpt><trkpt lat="42.230355" lon="13.8592367"><ele>652.0</ele><time>2026-05-02T09:32:25.071Z</time></trkpt><trkpt lat="42.2302717" lon="13.8591733"><ele>654.5</ele><time>2026-05-02T09:32:26.072Z</time></trkpt><trkpt lat="42.23019" lon="13.8591117"><ele>657.0</ele><time>2026-05-02T09:32:27.071Z</time></trkpt><trkpt lat="42.230115" lon="13.85906"><ele>659.5</ele><time>2026-05-02T09:32:28.071Z</time></trkpt><trkpt lat="42.2300533" lon="13.8590133"><ele>662.0</ele><time>2026-05-02T09:32:29.072Z</time></trkpt><trkpt lat="42.2299383" lon="13.858935"><ele>662.0</ele><time>2026-05-02T09:32:31.071Z</time></trkpt><trkpt lat="42.2298367" lon="13.85888"><ele>662.0</ele><time>2026-05-02T09:32:33.072Z</time></trkpt><trkpt lat="42.229765" lon="13.858885"><ele>662.0</ele><time>2026-05-02T09:32:34.071Z</time></trkpt><trkpt lat="42.2296783" lon="13.8588717"><ele>662.0</ele><time>2026-05-02T09:32:35.072Z</time></trkpt><trkpt lat="42.229575" lon="13.858835"><ele>662.0</ele><time>2026-05-02T09:32:36.071Z</time></trkpt><trkpt lat="42.2294767" lon="13.8587833"><ele>663.8333333333333</ele><time>2026-05-02T09:32:37.071Z</time></trkpt><trkpt lat="42.2294017" lon="13.8587383"><ele>665.6666666666666</ele><time>2026-05-02T09:32:38.071Z</time></trkpt><trkpt lat="42.2293" lon="13.8586333"><ele>667.5</ele><time>2026-05-02T09:32:40.071Z</time></trkpt><trkpt lat="42.229255" lon="13.8585517"><ele>669.3333333333334</ele><time>2026-05-02T09:32:41.071Z</time></trkpt><trkpt lat="42.2292117" lon="13.8584567"><ele>671.1666666666667</ele><time>2026-05-02T09:32:42.072Z</time></trkpt><trkpt lat="42.22917" lon="13.8583733"><ele>673.0</ele><time>2026-05-02T09:32:43.072Z</time></trkpt><trkpt lat="42.229115" lon="13.858275"><ele>676.0</ele><time>2026-05-02T09:32:44.072Z</time></trkpt><trkpt lat="42.2290533" lon="13.8581483"><ele>679.0</ele><time>2026-05-02T09:32:45.071Z</time></trkpt><trkpt lat="42.2289883" lon="13.8580267"><ele>682.0</ele><time>2026-05-02T09:32:46.071Z</time></trkpt><trkpt lat="42.2289183" lon="13.8579233"><ele>685.0</ele><time>2026-05-02T09:32:47.071Z</time></trkpt><trkpt lat="42.2288383" lon="13.8578333"><ele>688.0</ele><time>2026-05-02T09:32:48.072Z</time></trkpt><trkpt lat="42.2287417" lon="13.8577467"><ele>689.2</ele><time>2026-05-02T09:32:49.071Z</time></trkpt><trkpt lat="42.2286283" lon="13.8576633"><ele>690.4</ele><time>2026-05-02T09:32:50.072Z</time></trkpt><trkpt lat="42.2285333" lon="13.857615"><ele>691.6</ele><time>2026-05-02T09:32:51.072Z</time></trkpt><trkpt lat="42.2284567" lon="13.8576133"><ele>692.8000000000001</ele><time>2026-05-02T09:32:52.071Z</time></trkpt><trkpt lat="42.228375" lon="13.8576467"><ele>694.0</ele><time>2026-05-02T09:32:53.072Z</time></trkpt><trkpt lat="42.2283067" lon="13.8576933"><ele>694.0</ele><time>2026-05-02T09:32:54.072Z</time></trkpt><trkpt lat="42.2281717" lon="13.8576833"><ele>694.0</ele><time>2026-05-02T09:32:56.071Z</time></trkpt><trkpt lat="42.2280783" lon="13.857625"><ele>694.0</ele><time>2026-05-02T09:32:57.071Z</time></trkpt><trkpt lat="42.2279817" lon="13.8575483"><ele>694.0</ele><time>2026-05-02T09:32:58.071Z</time></trkpt><trkpt lat="42.2279" lon="13.8574733"><ele>694.0</ele><time>2026-05-02T09:32:59.072Z</time></trkpt><trkpt lat="42.22785" lon="13.8573967"><ele>700.6</ele><time>2026-05-02T09:33:00.071Z</time></trkpt><trkpt lat="42.2278033" lon="13.8573067"><ele>707.2</ele><time>2026-05-02T09:33:01.072Z</time></trkpt><trkpt lat="42.2277533" lon="13.8572333"><ele>713.8000000000001</ele><time>2026-05-02T09:33:02.071Z</time></trkpt><trkpt lat="42.227695" lon="13.8571267"><ele>720.4000000000001</ele><time>2026-05-02T09:33:03.071Z</time></trkpt><trkpt lat="42.22764" lon="13.8570033"><ele>727.0</ele><time>2026-05-02T09:33:04.072Z</time></trkpt><trkpt lat="42.2275933" lon="13.85687"><ele>727.8333333333334</ele><time>2026-05-02T09:33:05.072Z</time></trkpt><trkpt lat="42.2275433" lon="13.8567683"><ele>728.6666666666667</ele><time>2026-05-02T09:33:06.071Z</time></trkpt><trkpt lat="42.22749" lon="13.8567017"><ele>729.5</ele><time>2026-05-02T09:33:07.071Z</time></trkpt><trkpt lat="42.2274167" lon="13.8566767"><ele>730.3333333333334</ele><time>2026-05-02T09:33:08.072Z</time></trkpt><trkpt lat="42.2273183" lon="13.8566733"><ele>731.1666666666666</ele><time>2026-05-02T09:33:09.071Z</time></trkpt><trkpt lat="42.2272083" lon="13.85668"><ele>732.0</ele><time>2026-05-02T09:33:10.071Z</time></trkpt><trkpt lat="42.2270983" lon="13.8566817"><ele>736.2</ele><time>2026-05-02T09:33:11.072Z</time></trkpt><trkpt lat="42.2270067" lon="13.8566433"><ele>740.4000000000001</ele><time>2026-05-02T09:33:12.071Z</time></trkpt><trkpt lat="42.2269117" lon="13.85658"><ele>744.5999999999999</ele><time>2026-05-02T09:33:13.071Z</time></trkpt><trkpt lat="42.226815" lon="13.8564833"><ele>748.8</ele><time>2026-05-02T09:33:14.072Z</time></trkpt><trkpt lat="42.2267183" lon="13.856395"><ele>753.0</ele><time>2026-05-02T09:33:15.072Z</time></trkpt><trkpt lat="42.2266433" lon="13.856305"><ele>753.0</ele><time>2026-05-02T09:33:16.071Z</time></trkpt><trkpt lat="42.2265867" lon="13.8561917"><ele>753.0</ele><time>2026-05-02T09:33:17.071Z</time></trkpt><trkpt lat="42.226535" lon="13.8560783"><ele>753.0</ele><time>2026-05-02T09:33:18.072Z</time></trkpt><trkpt lat="42.2264783" lon="13.8559583"><ele>753.0</ele><time>2026-05-02T09:33:19.071Z</time></trkpt><trkpt lat="42.2264017" lon="13.8558417"><ele>753.0</ele><time>2026-05-02T09:33:20.072Z</time></trkpt><trkpt lat="42.2263117" lon="13.8557133"><ele>757.0</ele><time>2026-05-02T09:33:21.072Z</time></trkpt><trkpt lat="42.226225" lon="13.855575"><ele>761.0</ele><time>2026-05-02T09:33:22.071Z</time></trkpt><trkpt lat="42.226115" lon="13.8554533"><ele>765.0</ele><time>2026-05-02T09:33:23.072Z</time></trkpt><trkpt lat="42.226005" lon="13.8553467"><ele>769.0</ele><time>2026-05-02T09:33:24.072Z</time></trkpt><trkpt lat="42.22589" lon="13.855275"><ele>769.0</ele><time>2026-05-02T09:33:25.072Z</time></trkpt><trkpt lat="42.2257567" lon="13.855225"><ele>769.0</ele><time>2026-05-02T09:33:26.072Z</time></trkpt><trkpt lat="42.22564" lon="13.8552167"><ele>769.0</ele><time>2026-05-02T09:33:27.072Z</time></trkpt><trkpt lat="42.2255433" lon="13.8552033"><ele>769.0</ele><time>2026-05-02T09:33:28.071Z</time></trkpt><trkpt lat="42.2254767" lon="13.8551817"><ele>769.0</ele><time>2026-05-02T09:33:29.072Z</time></trkpt><trkpt lat="42.2253833" lon="13.85508"><ele>771.3333333333333</ele><time>2026-05-02T09:33:31.072Z</time></trkpt><trkpt lat="42.225355" lon="13.8549867"><ele>773.6666666666666</ele><time>2026-05-02T09:33:32.072Z</time></trkpt><trkpt lat="42.22533" lon="13.854885"><ele>776.0</ele><time>2026-05-02T09:33:33.071Z</time></trkpt><trkpt lat="42.2253017" lon="13.8547667"><ele>778.3333333333333</ele><time>2026-05-02T09:33:34.072Z</time></trkpt><trkpt lat="42.2252717" lon="13.8546417"><ele>780.6666666666666</ele><time>2026-05-02T09:33:35.072Z</time></trkpt><trkpt lat="42.2252417" lon="13.854535"><ele>783.0</ele><time>2026-05-02T09:33:36.072Z</time></trkpt><trkpt lat="42.2251883" lon="13.8544183"><ele>783.0</ele><time>2026-05-02T09:33:38.071Z</time></trkpt><trkpt lat="42.2251567" lon="13.8543017"><ele>783.0</ele><time>2026-05-02T09:33:40.071Z</time></trkpt><trkpt lat="42.2251317" lon="13.85421"><ele>783.0</ele><time>2026-05-02T09:33:41.071Z</time></trkpt><trkpt lat="42.2251" lon="13.8541033"><ele>783.0</ele><time>2026-05-02T09:33:42.072Z</time></trkpt><trkpt lat="42.2250683" lon="13.8539817"><ele>783.0</ele><time>2026-05-02T09:33:43.071Z</time></trkpt><trkpt lat="42.2250367" lon="13.8538667"><ele>783.0</ele><time>2026-05-02T09:33:44.072Z</time></trkpt><trkpt lat="42.2250217" lon="13.8537617"><ele>784.2</ele><time>2026-05-02T09:33:45.071Z</time></trkpt><trkpt lat="42.2250133" lon="13.85365"><ele>785.4</ele><time>2026-05-02T09:33:46.071Z</time></trkpt><trkpt lat="42.2250067" lon="13.8535183"><ele>786.6</ele><time>2026-05-02T09:33:47.072Z</time></trkpt><trkpt lat="42.2250167" lon="13.8533617"><ele>787.8000000000001</ele><time>2026-05-02T09:33:48.071Z</time></trkpt><trkpt lat="42.225055" lon="13.8532117"><ele>789.0</ele><time>2026-05-02T09:33:49.071Z</time></trkpt><trkpt lat="42.22511" lon="13.8530567"><ele>789.25</ele><time>2026-05-02T09:33:50.071Z</time></trkpt><trkpt lat="42.22518" lon="13.8529033"><ele>789.5</ele><time>2026-05-02T09:33:51.072Z</time></trkpt><trkpt lat="42.2252517" lon="13.852765"><ele>789.75</ele><time>2026-05-02T09:33:52.071Z</time></trkpt><trkpt lat="42.225325" lon="13.8526433"><ele>790.0</ele><time>2026-05-02T09:33:53.071Z</time></trkpt><trkpt lat="42.2254067" lon="13.8525433"><ele>790.4</ele><time>2026-05-02T09:33:54.072Z</time></trkpt><trkpt lat="42.2254817" lon="13.8524433"><ele>790.8</ele><time>2026-05-02T09:33:55.072Z</time></trkpt><trkpt lat="42.2255367" lon="13.85234"><ele>791.2</ele><time>2026-05-02T09:33:56.071Z</time></trkpt><trkpt lat="42.225565" lon="13.8522333"><ele>791.6</ele><time>2026-05-02T09:33:57.071Z</time></trkpt><trkpt lat="42.2255983" lon="13.8521017"><ele>792.0</ele><time>2026-05-02T09:33:58.072Z</time></trkpt><trkpt lat="42.2256133" lon="13.8519633"><ele>792.0</ele><time>2026-05-02T09:33:59.072Z</time></trkpt><trkpt lat="42.22562" lon="13.8518217"><ele>792.0</ele><time>2026-05-02T09:34:00.072Z</time></trkpt><trkpt lat="42.22563" lon="13.85168"><ele>792.0</ele><time>2026-05-02T09:34:01.072Z</time></trkpt><trkpt lat="42.2256467" lon="13.8515167"><ele>792.0</ele><time>2026-05-02T09:34:02.072Z</time></trkpt><trkpt lat="42.2256667" lon="13.8513483"><ele>797.5</ele><time>2026-05-02T09:34:03.071Z</time></trkpt><trkpt lat="42.225675" lon="13.8511767"><ele>803.0</ele><time>2026-05-02T09:34:04.071Z</time></trkpt><trkpt lat="42.2256717" lon="13.8510017"><ele>808.5</ele><time>2026-05-02T09:34:05.072Z</time></trkpt><trkpt lat="42.2256583" lon="13.85083"><ele>814.0</ele><time>2026-05-02T09:34:06.071Z</time></trkpt><trkpt lat="42.225645" lon="13.8506467"><ele>815.75</ele><time>2026-05-02T09:34:07.072Z</time></trkpt><trkpt lat="42.2256258" lon="13.8504641"><ele>817.5</ele><time>2026-05-02T09:34:08.072Z</time></trkpt><trkpt lat="42.2256106" lon="13.8502906"><ele>819.25</ele><time>2026-05-02T09:34:09.071Z</time></trkpt><trkpt lat="42.2255949" lon="13.8501176"><ele>821.0</ele><time>2026-05-02T09:34:10.072Z</time></trkpt><trkpt lat="42.225575" lon="13.8499531"><ele>824.4</ele><time>2026-05-02T09:34:11.071Z</time></trkpt><trkpt lat="42.2255504" lon="13.8497967"><ele>827.8</ele><time>2026-05-02T09:34:12.071Z</time></trkpt><trkpt lat="42.2255179" lon="13.8496406"><ele>831.1999999999999</ele><time>2026-05-02T09:34:13.071Z</time></trkpt><trkpt lat="42.2254966" lon="13.8495174"><ele>834.5999999999999</ele><time>2026-05-02T09:34:14.071Z</time></trkpt><trkpt lat="42.2255061" lon="13.8494276"><ele>838.0</ele><time>2026-05-02T09:34:15.072Z</time></trkpt><trkpt lat="42.2255403" lon="13.8493543"><ele>838.0</ele><time>2026-05-02T09:34:16.071Z</time></trkpt><trkpt lat="42.2255955" lon="13.849298"><ele>838.0</ele><time>2026-05-02T09:34:17.071Z</time></trkpt><trkpt lat="42.2256738" lon="13.8492615"><ele>838.0</ele><time>2026-05-02T09:34:18.072Z</time></trkpt><trkpt lat="42.225781" lon="13.8492311"><ele>838.0</ele><time>2026-05-02T09:34:19.072Z</time></trkpt><trkpt lat="42.2258977" lon="13.8491998"><ele>838.0</ele><time>2026-05-02T09:34:20.072Z</time></trkpt><trkpt lat="42.2260078" lon="13.8491587"><ele>846.0</ele><time>2026-05-02T09:34:21.071Z</time></trkpt><trkpt lat="42.2261136" lon="13.8491145"><ele>854.0</ele><time>2026-05-02T09:34:22.071Z</time></trkpt><trkpt lat="42.2262366" lon="13.8490805"><ele>862.0</ele><time>2026-05-02T09:34:23.071Z</time></trkpt><trkpt lat="42.2263856" lon="13.8490502"><ele>870.0</ele><time>2026-05-02T09:34:24.071Z</time></trkpt><trkpt lat="42.2265493" lon="13.8490263"><ele>870.0</ele><time>2026-05-02T09:34:25.07Z</time></trkpt><trkpt lat="42.2267098" lon="13.8489965"><ele>870.0</ele><time>2026-05-02T09:34:26.071Z</time></trkpt><trkpt lat="42.2268562" lon="13.8489639"><ele>870.0</ele><time>2026-05-02T09:34:27.071Z</time></trkpt><trkpt lat="42.22699" lon="13.8489388"><ele>870.0</ele><time>2026-05-02T09:34:28.07Z</time></trkpt><trkpt lat="42.227113" lon="13.8489162"><ele>870.0</ele><time>2026-05-02T09:34:29.071Z</time></trkpt><trkpt lat="42.227227" lon="13.8488867"><ele>870.0</ele><time>2026-05-02T09:34:30.07Z</time></trkpt><trkpt lat="42.2273444" lon="13.8488579"><ele>870.0</ele><time>2026-05-02T09:34:31.071Z</time></trkpt><trkpt lat="42.2274515" lon="13.8488317"><ele>870.0</ele><time>2026-05-02T09:34:32.07Z</time></trkpt><trkpt lat="42.2275553" lon="13.8488249"><ele>870.0</ele><time>2026-05-02T09:34:33.07Z</time></trkpt><trkpt lat="42.2276666" lon="13.8488341"><ele>870.25</ele><time>2026-05-02T09:34:34.07Z</time></trkpt><trkpt lat="42.2277939" lon="13.8488558"><ele>870.5</ele><time>2026-05-02T09:34:35.07Z</time></trkpt><trkpt lat="42.2279317" lon="13.8488863"><ele>870.75</ele><time>2026-05-02T09:34:36.071Z</time></trkpt><trkpt lat="42.2280598" lon="13.8489165"><ele>871.0</ele><time>2026-05-02T09:34:37.071Z</time></trkpt><trkpt lat="42.2281798" lon="13.8489568"><ele>871.0</ele><time>2026-05-02T09:34:38.07Z</time></trkpt><trkpt lat="42.2282899" lon="13.8489783"><ele>870.9999999999999</ele><time>2026-05-02T09:34:39.071Z</time></trkpt><trkpt lat="42.2283903" lon="13.8489976"><ele>870.9999999999999</ele><time>2026-05-02T09:34:40.071Z</time></trkpt><trkpt lat="42.2284783" lon="13.848985"><ele>871.0</ele><time>2026-05-02T09:34:41.07Z</time></trkpt><trkpt lat="42.2285667" lon="13.848965"><ele>871.0</ele><time>2026-05-02T09:34:42.07Z</time></trkpt><trkpt lat="42.22867" lon="13.8489333"><ele>871.0</ele><time>2026-05-02T09:34:43.07Z</time></trkpt><trkpt lat="42.2287817" lon="13.8489283"><ele>871.0</ele><time>2026-05-02T09:34:44.071Z</time></trkpt><trkpt lat="42.2288833" lon="13.8489533"><ele>871.0</ele><time>2026-05-02T09:34:45.07Z</time></trkpt><trkpt lat="42.228995" lon="13.849015"><ele>871.0</ele><time>2026-05-02T09:34:46.07Z</time></trkpt><trkpt lat="42.2291233" lon="13.8490817"><ele>873.1999999999999</ele><time>2026-05-02T09:34:47.071Z</time></trkpt><trkpt lat="42.2292533" lon="13.8491817"><ele>875.3999999999999</ele><time>2026-05-02T09:34:48.071Z</time></trkpt><trkpt lat="42.2293633" lon="13.8492733"><ele>877.6</ele><time>2026-05-02T09:34:49.071Z</time></trkpt><trkpt lat="42.22944" lon="13.8493267"><ele>879.8</ele><time>2026-05-02T09:34:50.07Z</time></trkpt><trkpt lat="42.2295117" lon="13.849345"><ele>882.0</ele><time>2026-05-02T09:34:51.071Z</time></trkpt><trkpt lat="42.2296417" lon="13.8493383"><ele>883.0</ele><time>2026-05-02T09:34:53.071Z</time></trkpt><trkpt lat="42.2297267" lon="13.8493217"><ele>884.0</ele><time>2026-05-02T09:34:54.071Z</time></trkpt><trkpt lat="42.2298367" lon="13.8492683"><ele>885.0</ele><time>2026-05-02T09:34:55.071Z</time></trkpt><trkpt lat="42.2299483" lon="13.8491967"><ele>886.0</ele><time>2026-05-02T09:34:56.071Z</time></trkpt><trkpt lat="42.2300683" lon="13.8491167"><ele>886.0</ele><time>2026-05-02T09:34:57.07Z</time></trkpt><trkpt lat="42.2302167" lon="13.8490167"><ele>886.0</ele><time>2026-05-02T09:34:58.07Z</time></trkpt><trkpt lat="42.2303617" lon="13.8489383"><ele>886.0</ele><time>2026-05-02T09:34:59.071Z</time></trkpt><trkpt lat="42.230515" lon="13.8488667"><ele>886.0</ele><time>2026-05-02T09:35:00.07Z</time></trkpt><trkpt lat="42.2306733" lon="13.8487767"><ele>886.0</ele><time>2026-05-02T09:35:01.071Z</time></trkpt><trkpt lat="42.2308383" lon="13.8486833"><ele>886.0</ele><time>2026-05-02T09:35:02.07Z</time></trkpt><trkpt lat="42.2310117" lon="13.848595"><ele>886.0</ele><time>2026-05-02T09:35:03.071Z</time></trkpt><trkpt lat="42.2311767" lon="13.848505"><ele>886.0</ele><time>2026-05-02T09:35:04.07Z</time></trkpt><trkpt lat="42.2313317" lon="13.848425"><ele>886.0</ele><time>2026-05-02T09:35:05.071Z</time></trkpt><trkpt lat="42.2314733" lon="13.8483633"><ele>891.0</ele><time>2026-05-02T09:35:06.071Z</time></trkpt><trkpt lat="42.23161" lon="13.8483267"><ele>896.0</ele><time>2026-05-02T09:35:07.07Z</time></trkpt><trkpt lat="42.23174" lon="13.8482967"><ele>901.0</ele><time>2026-05-02T09:35:08.07Z</time></trkpt><trkpt lat="42.2318667" lon="13.8482733"><ele>906.0</ele><time>2026-05-02T09:35:09.071Z</time></trkpt><trkpt lat="42.2319783" lon="13.8482483"><ele>906.0</ele><time>2026-05-02T09:35:10.07Z</time></trkpt><trkpt lat="42.2320583" lon="13.8482167"><ele>906.0</ele><time>2026-05-02T09:35:11.07Z</time></trkpt><trkpt lat="42.232125" lon="13.8481633"><ele>906.0</ele><time>2026-05-02T09:35:12.07Z</time></trkpt><trkpt lat="42.2321833" lon="13.8481033"><ele>906.0</ele><time>2026-05-02T09:35:13.071Z</time></trkpt><trkpt lat="42.232235" lon="13.848035"><ele>906.0</ele><time>2026-05-02T09:35:14.07Z</time></trkpt><trkpt lat="42.2322933" lon="13.84799"><ele>906.0</ele><time>2026-05-02T09:35:15.07Z</time></trkpt><trkpt lat="42.2324183" lon="13.8479767"><ele>905.8</ele><time>2026-05-02T09:35:17.07Z</time></trkpt><trkpt lat="42.2325" lon="13.8479867"><ele>905.5999999999999</ele><time>2026-05-02T09:35:18.071Z</time></trkpt><trkpt lat="42.23257" lon="13.847995"><ele>905.4</ele><time>2026-05-02T09:35:19.071Z</time></trkpt><trkpt lat="42.23251" lon="13.84788"><ele>905.2</ele><time>2026-05-02T09:35:24.071Z</time></trkpt><trkpt lat="42.2324283" lon="13.8478083"><ele>905.0</ele><time>2026-05-02T09:35:25.07Z</time></trkpt><trkpt lat="42.2323233" lon="13.847725"><ele>905.25</ele><time>2026-05-02T09:35:26.071Z</time></trkpt><trkpt lat="42.23221" lon="13.8476367"><ele>905.5</ele><time>2026-05-02T09:35:27.07Z</time></trkpt><trkpt lat="42.2320933" lon="13.8475483"><ele>905.75</ele><time>2026-05-02T09:35:28.071Z</time></trkpt><trkpt lat="42.231975" lon="13.84745"><ele>906.0</ele><time>2026-05-02T09:35:29.071Z</time></trkpt><trkpt lat="42.2318517" lon="13.8473583"><ele>911.0</ele><time>2026-05-02T09:35:30.071Z</time></trkpt><trkpt lat="42.2317433" lon="13.8472983"><ele>915.9999999999999</ele><time>2026-05-02T09:35:31.07Z</time></trkpt><trkpt lat="42.2316367" lon="13.847265"><ele>920.9999999999999</ele><time>2026-05-02T09:35:32.071Z</time></trkpt><trkpt lat="42.2315517" lon="13.8472433"><ele>926.0</ele><time>2026-05-02T09:35:33.07Z</time></trkpt><trkpt lat="42.2314783" lon="13.8472333"><ele>931.0</ele><time>2026-05-02T09:35:34.07Z</time></trkpt><trkpt lat="42.2314133" lon="13.8472067"><ele>931.0</ele><time>2026-05-02T09:35:35.07Z</time></trkpt><trkpt lat="42.2313417" lon="13.8471583"><ele>930.9999999999999</ele><time>2026-05-02T09:35:36.071Z</time></trkpt><trkpt lat="42.2312617" lon="13.8470867"><ele>930.9999999999999</ele><time>2026-05-02T09:35:37.07Z</time></trkpt><trkpt lat="42.2311683" lon="13.8470083"><ele>931.0</ele><time>2026-05-02T09:35:38.071Z</time></trkpt><trkpt lat="42.231075" lon="13.8469333"><ele>931.0</ele><time>2026-05-02T09:35:39.07Z</time></trkpt><trkpt lat="42.2309867" lon="13.846905"><ele>931.0</ele><time>2026-05-02T09:35:40.071Z</time></trkpt><trkpt lat="42.2309017" lon="13.846905"><ele>931.0</ele><time>2026-05-02T09:35:41.071Z</time></trkpt><trkpt lat="42.2307983" lon="13.846935"><ele>931.0</ele><time>2026-05-02T09:35:42.071Z</time></trkpt><trkpt lat="42.2306617" lon="13.8469867"><ele>931.0</ele><time>2026-05-02T09:35:43.07Z</time></trkpt><trkpt lat="42.2305033" lon="13.84704"><ele>932.0</ele><time>2026-05-02T09:35:44.07Z</time></trkpt><trkpt lat="42.2303483" lon="13.84711"><ele>933.0</ele><time>2026-05-02T09:35:45.07Z</time></trkpt><trkpt lat="42.2301967" lon="13.847165"><ele>934.0</ele><time>2026-05-02T09:35:46.07Z</time></trkpt><trkpt lat="42.23005" lon="13.8472183"><ele>934.0</ele><time>2026-05-02T09:35:47.071Z</time></trkpt><trkpt lat="42.2299017" lon="13.8472867"><ele>934.0</ele><time>2026-05-02T09:35:48.07Z</time></trkpt><trkpt lat="42.2297567" lon="13.84736"><ele>934.0</ele><time>2026-05-02T09:35:49.071Z</time></trkpt><trkpt lat="42.2296167" lon="13.8474267"><ele>935.5</ele><time>2026-05-02T09:35:50.071Z</time></trkpt><trkpt lat="42.22948" lon="13.8474883"><ele>937.0</ele><time>2026-05-02T09:35:51.07Z</time></trkpt><trkpt lat="42.2293417" lon="13.8475433"><ele>938.5</ele><time>2026-05-02T09:35:52.07Z</time></trkpt><trkpt lat="42.2291967" lon="13.84759"><ele>940.0</ele><time>2026-05-02T09:35:53.071Z</time></trkpt><trkpt lat="42.229045" lon="13.8476233"><ele>928.6666666666666</ele><time>2026-05-02T09:35:54.07Z</time></trkpt><trkpt lat="42.228885" lon="13.8476533"><ele>917.3333333333333</ele><time>2026-05-02T09:35:55.07Z</time></trkpt><trkpt lat="42.2287283" lon="13.8476867"><ele>906.0</ele><time>2026-05-02T09:35:56.071Z</time></trkpt><trkpt lat="42.2285783" lon="13.8477283"><ele>906.0</ele><time>2026-05-02T09:35:57.071Z</time></trkpt><trkpt lat="42.22843" lon="13.8477617"><ele>906.0</ele><time>2026-05-02T09:35:58.071Z</time></trkpt><trkpt lat="42.2282833" lon="13.8477867"><ele>906.0</ele><time>2026-05-02T09:35:59.071Z</time></trkpt><trkpt lat="42.2281383" lon="13.8478017"><ele>906.0</ele><time>2026-05-02T09:36:00.071Z</time></trkpt><trkpt lat="42.2279933" lon="13.8478033"><ele>904.0</ele><time>2026-05-02T09:36:01.07Z</time></trkpt><trkpt lat="42.2278317" lon="13.84781"><ele>902.0</ele><time>2026-05-02T09:36:02.071Z</time></trkpt><trkpt lat="42.22766" lon="13.847805"><ele>900.0</ele><time>2026-05-02T09:36:03.071Z</time></trkpt><trkpt lat="42.22746" lon="13.84778"><ele>901.0</ele><time>2026-05-02T09:36:04.07Z</time></trkpt><trkpt lat="42.227245" lon="13.847755"><ele>902.0</ele><time>2026-05-02T09:36:05.07Z</time></trkpt><trkpt lat="42.22703" lon="13.84775"><ele>903.0</ele><time>2026-05-02T09:36:06.07Z</time></trkpt><trkpt lat="42.2268233" lon="13.8477483"><ele>903.0</ele><time>2026-05-02T09:36:07.07Z</time></trkpt><trkpt lat="42.2266067" lon="13.847755"><ele>903.0</ele><time>2026-05-02T09:36:08.07Z</time></trkpt><trkpt lat="42.22641" lon="13.8477617"><ele>903.0</ele><time>2026-05-02T09:36:09.07Z</time></trkpt><trkpt lat="42.2262317" lon="13.847755"><ele>903.5</ele><time>2026-05-02T09:36:10.07Z</time></trkpt><trkpt lat="42.2260633" lon="13.8477583"><ele>904.0</ele><time>2026-05-02T09:36:11.071Z</time></trkpt><trkpt lat="42.2259167" lon="13.84776"><ele>904.5</ele><time>2026-05-02T09:36:12.07Z</time></trkpt><trkpt lat="42.2257883" lon="13.84776"><ele>905.0</ele><time>2026-05-02T09:36:13.07Z</time></trkpt><trkpt lat="42.22568" lon="13.84775"><ele>902.4</ele><time>2026-05-02T09:36:14.071Z</time></trkpt><trkpt lat="42.2255817" lon="13.8477267"><ele>899.8</ele><time>2026-05-02T09:36:15.071Z</time></trkpt><trkpt lat="42.225485" lon="13.847685"><ele>897.2</ele><time>2026-05-02T09:36:16.07Z</time></trkpt><trkpt lat="42.2253817" lon="13.8476217"><ele>894.6</ele><time>2026-05-02T09:36:17.07Z</time></trkpt><trkpt lat="42.225275" lon="13.847545"><ele>892.0</ele><time>2026-05-02T09:36:18.071Z</time></trkpt><trkpt lat="42.2251583" lon="13.8474817"><ele>894.25</ele><time>2026-05-02T09:36:19.07Z</time></trkpt><trkpt lat="42.22503" lon="13.8474317"><ele>896.5</ele><time>2026-05-02T09:36:20.07Z</time></trkpt><trkpt lat="42.224905" lon="13.847385"><ele>898.75</ele><time>2026-05-02T09:36:21.07Z</time></trkpt><trkpt lat="42.2247967" lon="13.8473267"><ele>901.0</ele><time>2026-05-02T09:36:22.071Z</time></trkpt><trkpt lat="42.2247233" lon="13.84726"><ele>900.9999999999999</ele><time>2026-05-02T09:36:23.07Z</time></trkpt><trkpt lat="42.2246767" lon="13.847195"><ele>901.0</ele><time>2026-05-02T09:36:24.071Z</time></trkpt><trkpt lat="42.2246517" lon="13.8471"><ele>901.0</ele><time>2026-05-02T09:36:25.07Z</time></trkpt><trkpt lat="42.2246383" lon="13.84698"><ele>901.0</ele><time>2026-05-02T09:36:26.07Z</time></trkpt><trkpt lat="42.22464" lon="13.84686"><ele>900.9999999999999</ele><time>2026-05-02T09:36:27.071Z</time></trkpt><trkpt lat="42.22466" lon="13.8467467"><ele>901.0</ele><time>2026-05-02T09:36:28.071Z</time></trkpt><trkpt lat="42.224705" lon="13.846635"><ele>905.75</ele><time>2026-05-02T09:36:29.071Z</time></trkpt><trkpt lat="42.224775" lon="13.8465083"><ele>910.5</ele><time>2026-05-02T09:36:30.07Z</time></trkpt><trkpt lat="42.2248717" lon="13.8463667"><ele>915.25</ele><time>2026-05-02T09:36:31.071Z</time></trkpt><trkpt lat="42.2249883" lon="13.8462217"><ele>920.0</ele><time>2026-05-02T09:36:32.07Z</time></trkpt><trkpt lat="42.2251267" lon="13.846085"><ele>925.6666666666667</ele><time>2026-05-02T09:36:33.07Z</time></trkpt><trkpt lat="42.225275" lon="13.8459717"><ele>931.3333333333333</ele><time>2026-05-02T09:36:34.071Z</time></trkpt><trkpt lat="42.2254133" lon="13.84587"><ele>937.0</ele><time>2026-05-02T09:36:35.07Z</time></trkpt><trkpt lat="42.22556" lon="13.8457767"><ele>941.3333333333333</ele><time>2026-05-02T09:36:36.07Z</time></trkpt><trkpt lat="42.225725" lon="13.8456633"><ele>945.6666666666667</ele><time>2026-05-02T09:36:37.071Z</time></trkpt><trkpt lat="42.2258833" lon="13.8455483"><ele>950.0</ele><time>2026-05-02T09:36:38.071Z</time></trkpt><trkpt lat="42.2260383" lon="13.8454117"><ele>950.0</ele><time>2026-05-02T09:36:39.07Z</time></trkpt><trkpt lat="42.2261917" lon="13.845275"><ele>950.0</ele><time>2026-05-02T09:36:40.07Z</time></trkpt><trkpt lat="42.226345" lon="13.8451283"><ele>950.0</ele><time>2026-05-02T09:36:41.07Z</time></trkpt><trkpt lat="42.2264817" lon="13.844995"><ele>954.6666666666667</ele><time>2026-05-02T09:36:42.071Z</time></trkpt><trkpt lat="42.226625" lon="13.844855"><ele>959.3333333333333</ele><time>2026-05-02T09:36:43.071Z</time></trkpt><trkpt lat="42.22677" lon="13.84473"><ele>964.0</ele><time>2026-05-02T09:36:44.071Z</time></trkpt><trkpt lat="42.2269117" lon="13.8445917"><ele>964.0</ele><time>2026-05-02T09:36:45.07Z</time></trkpt><trkpt lat="42.2270617" lon="13.844465"><ele>964.0</ele><time>2026-05-02T09:36:46.071Z</time></trkpt><trkpt lat="42.2272183" lon="13.84435"><ele>964.0</ele><time>2026-05-02T09:36:47.071Z</time></trkpt><trkpt lat="42.2273567" lon="13.8442467"><ele>967.0</ele><time>2026-05-02T09:36:48.071Z</time></trkpt><trkpt lat="42.2274667" lon="13.8441617"><ele>970.0000000000001</ele><time>2026-05-02T09:36:49.07Z</time></trkpt><trkpt lat="42.2275617" lon="13.844085"><ele>973.0000000000001</ele><time>2026-05-02T09:36:50.07Z</time></trkpt><trkpt lat="42.2276367" lon="13.844015"><ele>976.0</ele><time>2026-05-02T09:36:51.071Z</time></trkpt><trkpt lat="42.2276867" lon="13.84388"><ele>979.0</ele><time>2026-05-02T09:36:53.071Z</time></trkpt><trkpt lat="42.2276467" lon="13.8437533"><ele>979.0</ele><time>2026-05-02T09:36:55.07Z</time></trkpt><trkpt lat="42.227585" lon="13.843735"><ele>979.0000000000001</ele><time>2026-05-02T09:36:56.07Z</time></trkpt><trkpt lat="42.2275067" lon="13.8437433"><ele>979.0000000000001</ele><time>2026-05-02T09:36:57.071Z</time></trkpt><trkpt lat="42.2274033" lon="13.8437683"><ele>979.0</ele><time>2026-05-02T09:36:58.071Z</time></trkpt><trkpt lat="42.22729" lon="13.8437917"><ele>979.0</ele><time>2026-05-02T09:36:59.071Z</time></trkpt><trkpt lat="42.2271583" lon="13.8438133"><ele>980.5</ele><time>2026-05-02T09:37:00.07Z</time></trkpt><trkpt lat="42.2270167" lon="13.8438167"><ele>982.0</ele><time>2026-05-02T09:37:01.07Z</time></trkpt><trkpt lat="42.2268867" lon="13.843815"><ele>983.5</ele><time>2026-05-02T09:37:02.071Z</time></trkpt><trkpt lat="42.2267783" lon="13.8438033"><ele>985.0</ele><time>2026-05-02T09:37:03.07Z</time></trkpt><trkpt lat="42.226695" lon="13.843805"><ele>985.0</ele><time>2026-05-02T09:37:04.07Z</time></trkpt><trkpt lat="42.2266283" lon="13.8438067"><ele>985.0</ele><time>2026-05-02T09:37:07.07Z</time></trkpt><trkpt lat="42.22654" lon="13.8438933"><ele>985.0</ele><time>2026-05-02T09:37:11.07Z</time></trkpt><trkpt lat="42.2264567" lon="13.8439417"><ele>985.0</ele><time>2026-05-02T09:37:12.07Z</time></trkpt><trkpt lat="42.2263533" lon="13.8439933"><ele>985.0</ele><time>2026-05-02T09:37:13.07Z</time></trkpt><trkpt lat="42.2262233" lon="13.8440517"><ele>986.6666666666666</ele><time>2026-05-02T09:37:14.071Z</time></trkpt><trkpt lat="42.2260883" lon="13.8441167"><ele>988.3333333333333</ele><time>2026-05-02T09:37:15.071Z</time></trkpt><trkpt lat="42.2259317" lon="13.844175"><ele>990.0</ele><time>2026-05-02T09:37:16.071Z</time></trkpt><trkpt lat="42.225785" lon="13.8442267"><ele>988.25</ele><time>2026-05-02T09:37:17.071Z</time></trkpt><trkpt lat="42.2256367" lon="13.8442833"><ele>986.5</ele><time>2026-05-02T09:37:18.07Z</time></trkpt><trkpt lat="42.225505" lon="13.844355"><ele>984.75</ele><time>2026-05-02T09:37:19.071Z</time></trkpt><trkpt lat="42.2253867" lon="13.844435"><ele>983.0</ele><time>2026-05-02T09:37:20.07Z</time></trkpt><trkpt lat="42.2252867" lon="13.8445083"><ele>980.25</ele><time>2026-05-02T09:37:21.071Z</time></trkpt><trkpt lat="42.225175" lon="13.8445617"><ele>977.5</ele><time>2026-05-02T09:37:22.07Z</time></trkpt><trkpt lat="42.225045" lon="13.8445917"><ele>974.75</ele><time>2026-05-02T09:37:23.071Z</time></trkpt><trkpt lat="42.2249167" lon="13.8446017"><ele>972.0</ele><time>2026-05-02T09:37:24.071Z</time></trkpt><trkpt lat="42.2247983" lon="13.8446"><ele>970.1666666666666</ele><time>2026-05-02T09:37:25.07Z</time></trkpt><trkpt lat="42.224715" lon="13.8445767"><ele>968.3333333333333</ele><time>2026-05-02T09:37:26.07Z</time></trkpt><trkpt lat="42.2246433" lon="13.8445383"><ele>966.5</ele><time>2026-05-02T09:37:27.071Z</time></trkpt><trkpt lat="42.2246033" lon="13.84447"><ele>964.6666666666666</ele><time>2026-05-02T09:37:28.071Z</time></trkpt><trkpt lat="42.22459" lon="13.8443817"><ele>962.8333333333333</ele><time>2026-05-02T09:37:29.071Z</time></trkpt><trkpt lat="42.2246067" lon="13.84428"><ele>961.0</ele><time>2026-05-02T09:37:30.071Z</time></trkpt><trkpt lat="42.22465" lon="13.8441483"><ele>959.75</ele><time>2026-05-02T09:37:31.07Z</time></trkpt><trkpt lat="42.2247133" lon="13.843995"><ele>958.5</ele><time>2026-05-02T09:37:32.071Z</time></trkpt><trkpt lat="42.224785" lon="13.8438167"><ele>957.25</ele><time>2026-05-02T09:37:33.07Z</time></trkpt><trkpt lat="42.2248617" lon="13.8436267"><ele>956.0</ele><time>2026-05-02T09:37:34.07Z</time></trkpt><trkpt lat="42.2249267" lon="13.843445"><ele>959.75</ele><time>2026-05-02T09:37:35.07Z</time></trkpt><trkpt lat="42.224995" lon="13.843285"><ele>963.5</ele><time>2026-05-02T09:37:36.071Z</time></trkpt><trkpt lat="42.2250833" lon="13.843155"><ele>967.25</ele><time>2026-05-02T09:37:37.071Z</time></trkpt><trkpt lat="42.22518" lon="13.8430417"><ele>971.0</ele><time>2026-05-02T09:37:38.07Z</time></trkpt><trkpt lat="42.2252833" lon="13.8429183"><ele>971.0</ele><time>2026-05-02T09:37:39.07Z</time></trkpt><trkpt lat="42.225385" lon="13.8427767"><ele>971.0</ele><time>2026-05-02T09:37:40.07Z</time></trkpt><trkpt lat="42.2254933" lon="13.842625"><ele>971.0</ele><time>2026-05-02T09:37:41.07Z</time></trkpt><trkpt lat="42.2256017" lon="13.8424717"><ele>970.25</ele><time>2026-05-02T09:37:42.071Z</time></trkpt><trkpt lat="42.225705" lon="13.8423433"><ele>969.5</ele><time>2026-05-02T09:37:43.071Z</time></trkpt><trkpt lat="42.2258017" lon="13.8422483"><ele>968.75</ele><time>2026-05-02T09:37:44.071Z</time></trkpt><trkpt lat="42.2259017" lon="13.8421683"><ele>968.0</ele><time>2026-05-02T09:37:45.07Z</time></trkpt><trkpt lat="42.2260117" lon="13.842105"><ele>968.0</ele><time>2026-05-02T09:37:46.07Z</time></trkpt><trkpt lat="42.22611" lon="13.842055"><ele>968.0</ele><time>2026-05-02T09:37:47.071Z</time></trkpt><trkpt lat="42.2261983" lon="13.84204"><ele>968.0</ele><time>2026-05-02T09:37:48.071Z</time></trkpt><trkpt lat="42.2262917" lon="13.8420383"><ele>968.0</ele><time>2026-05-02T09:37:49.07Z</time></trkpt><trkpt lat="42.2263933" lon="13.8420567"><ele>968.0</ele><time>2026-05-02T09:37:50.071Z</time></trkpt><trkpt lat="42.22652" lon="13.84206"><ele>969.3333333333334</ele><time>2026-05-02T09:37:51.071Z</time></trkpt><trkpt lat="42.2266633" lon="13.8420517"><ele>970.6666666666667</ele><time>2026-05-02T09:37:52.07Z</time></trkpt><trkpt lat="42.226825" lon="13.8420383"><ele>972.0</ele><time>2026-05-02T09:37:53.071Z</time></trkpt><trkpt lat="42.2269833" lon="13.8420167"><ele>972.0</ele><time>2026-05-02T09:37:54.071Z</time></trkpt><trkpt lat="42.227145" lon="13.8420033"><ele>972.0</ele><time>2026-05-02T09:37:55.07Z</time></trkpt><trkpt lat="42.227315" lon="13.8419983"><ele>972.0</ele><time>2026-05-02T09:37:56.071Z</time></trkpt><trkpt lat="42.227475" lon="13.8419767"><ele>969.3333333333333</ele><time>2026-05-02T09:37:57.071Z</time></trkpt><trkpt lat="42.2276267" lon="13.84196"><ele>966.6666666666666</ele><time>2026-05-02T09:37:58.071Z</time></trkpt><trkpt lat="42.227775" lon="13.8419417"><ele>964.0</ele><time>2026-05-02T09:37:59.07Z</time></trkpt><trkpt lat="42.2279217" lon="13.8419083"><ele>964.0</ele><time>2026-05-02T09:38:00.071Z</time></trkpt><trkpt lat="42.2280617" lon="13.8418567"><ele>964.0</ele><time>2026-05-02T09:38:01.071Z</time></trkpt><trkpt lat="42.2281967" lon="13.841815"><ele>964.0</ele><time>2026-05-02T09:38:02.07Z</time></trkpt><trkpt lat="42.2283283" lon="13.8417617"><ele>964.0</ele><time>2026-05-02T09:38:03.07Z</time></trkpt><trkpt lat="42.228435" lon="13.8417067"><ele>957.6</ele><time>2026-05-02T09:38:04.07Z</time></trkpt><trkpt lat="42.2285317" lon="13.84163"><ele>951.2</ele><time>2026-05-02T09:38:05.07Z</time></trkpt><trkpt lat="42.2286083" lon="13.8415383"><ele>944.8000000000001</ele><time>2026-05-02T09:38:06.071Z</time></trkpt><trkpt lat="42.2286617" lon="13.841425"><ele>938.4000000000001</ele><time>2026-05-02T09:38:07.071Z</time></trkpt><trkpt lat="42.22874" lon="13.8412767"><ele>932.0</ele><time>2026-05-02T09:38:08.07Z</time></trkpt><trkpt lat="42.22882" lon="13.8410983"><ele>933.6666666666667</ele><time>2026-05-02T09:38:09.07Z</time></trkpt><trkpt lat="42.2288933" lon="13.8408967"><ele>935.3333333333333</ele><time>2026-05-02T09:38:10.07Z</time></trkpt><trkpt lat="42.22896" lon="13.84068"><ele>937.0</ele><time>2026-05-02T09:38:11.071Z</time></trkpt><trkpt lat="42.229025" lon="13.8404717"><ele>937.0</ele><time>2026-05-02T09:38:12.071Z</time></trkpt><trkpt lat="42.22909" lon="13.8402767"><ele>937.0</ele><time>2026-05-02T09:38:13.07Z</time></trkpt><trkpt lat="42.2291617" lon="13.8400933"><ele>937.0</ele><time>2026-05-02T09:38:14.07Z</time></trkpt><trkpt lat="42.2292333" lon="13.839905"><ele>931.25</ele><time>2026-05-02T09:38:15.071Z</time></trkpt><trkpt lat="42.2293117" lon="13.8397317"><ele>925.5</ele><time>2026-05-02T09:38:16.07Z</time></trkpt><trkpt lat="42.2293883" lon="13.8395783"><ele>919.75</ele><time>2026-05-02T09:38:17.071Z</time></trkpt><trkpt lat="42.2294667" lon="13.8394383"><ele>914.0</ele><time>2026-05-02T09:38:18.071Z</time></trkpt><trkpt lat="42.22956" lon="13.83929"><ele>919.3333333333334</ele><time>2026-05-02T09:38:19.071Z</time></trkpt><trkpt lat="42.2296633" lon="13.8391283"><ele>924.6666666666667</ele><time>2026-05-02T09:38:20.071Z</time></trkpt><trkpt lat="42.2297783" lon="13.8389383"><ele>930.0</ele><time>2026-05-02T09:38:21.07Z</time></trkpt><trkpt lat="42.2298867" lon="13.8387633"><ele>930.0</ele><time>2026-05-02T09:38:22.07Z</time></trkpt><trkpt lat="42.22998" lon="13.8385933"><ele>930.0</ele><time>2026-05-02T09:38:23.071Z</time></trkpt><trkpt lat="42.2300633" lon="13.8384317"><ele>930.0</ele><time>2026-05-02T09:38:24.071Z</time></trkpt><trkpt lat="42.2301367" lon="13.8382867"><ele>930.0</ele><time>2026-05-02T09:38:25.07Z</time></trkpt><trkpt lat="42.230195" lon="13.8381383"><ele>921.5</ele><time>2026-05-02T09:38:26.071Z</time></trkpt><trkpt lat="42.2302617" lon="13.8380017"><ele>913.0</ele><time>2026-05-02T09:38:27.07Z</time></trkpt><trkpt lat="42.23034" lon="13.8378883"><ele>904.5</ele><time>2026-05-02T09:38:28.071Z</time></trkpt><trkpt lat="42.2304317" lon="13.837785"><ele>896.0</ele><time>2026-05-02T09:38:29.071Z</time></trkpt><trkpt lat="42.2305517" lon="13.837685"><ele>894.5</ele><time>2026-05-02T09:38:30.07Z</time></trkpt><trkpt lat="42.2306717" lon="13.8375933"><ele>893.0</ele><time>2026-05-02T09:38:31.071Z</time></trkpt><trkpt lat="42.230785" lon="13.837505"><ele>891.5</ele><time>2026-05-02T09:38:32.071Z</time></trkpt><trkpt lat="42.2308917" lon="13.8374267"><ele>890.0</ele><time>2026-05-02T09:38:33.07Z</time></trkpt><trkpt lat="42.2310033" lon="13.83735"><ele>890.0</ele><time>2026-05-02T09:38:34.07Z</time></trkpt><trkpt lat="42.231135" lon="13.8373067"><ele>890.0</ele><time>2026-05-02T09:38:35.071Z</time></trkpt><trkpt lat="42.23129" lon="13.837265"><ele>890.0</ele><time>2026-05-02T09:38:36.071Z</time></trkpt><trkpt lat="42.2314767" lon="13.8372067"><ele>893.3333333333334</ele><time>2026-05-02T09:38:37.07Z</time></trkpt><trkpt lat="42.2316667" lon="13.8371617"><ele>896.6666666666667</ele><time>2026-05-02T09:38:38.071Z</time></trkpt><trkpt lat="42.23184" lon="13.837125"><ele>900.0</ele><time>2026-05-02T09:38:39.071Z</time></trkpt><trkpt lat="42.2320067" lon="13.8370883"><ele>900.0</ele><time>2026-05-02T09:38:40.07Z</time></trkpt><trkpt lat="42.2321533" lon="13.8370767"><ele>900.0</ele><time>2026-05-02T09:38:41.07Z</time></trkpt><trkpt lat="42.2322817" lon="13.8370967"><ele>900.0</ele><time>2026-05-02T09:38:42.071Z</time></trkpt><trkpt lat="42.2323833" lon="13.8371117"><ele>900.0</ele><time>2026-05-02T09:38:43.071Z</time></trkpt><trkpt lat="42.2324567" lon="13.8371333"><ele>900.0</ele><time>2026-05-02T09:38:44.071Z</time></trkpt><trkpt lat="42.232555" lon="13.8371183"><ele>900.0</ele><time>2026-05-02T09:38:46.07Z</time></trkpt><trkpt lat="42.2325133" lon="13.8370333"><ele>900.0</ele><time>2026-05-02T09:38:48.07Z</time></trkpt><trkpt lat="42.2324267" lon="13.83699"><ele>900.0</ele><time>2026-05-02T09:38:49.07Z</time></trkpt><trkpt lat="42.2322867" lon="13.8369467"><ele>900.0</ele><time>2026-05-02T09:38:50.071Z</time></trkpt><trkpt lat="42.2321083" lon="13.8368933"><ele>900.0</ele><time>2026-05-02T09:38:51.07Z</time></trkpt><trkpt lat="42.2319" lon="13.83682"><ele>900.0</ele><time>2026-05-02T09:38:52.07Z</time></trkpt><trkpt lat="42.2317017" lon="13.8367617"><ele>900.0</ele><time>2026-05-02T09:38:53.071Z</time></trkpt><trkpt lat="42.2315267" lon="13.8367117"><ele>888.25</ele><time>2026-05-02T09:38:54.071Z</time></trkpt><trkpt lat="42.2313667" lon="13.8366767"><ele>876.5</ele><time>2026-05-02T09:38:55.07Z</time></trkpt><trkpt lat="42.23123" lon="13.8366533"><ele>864.75</ele><time>2026-05-02T09:38:56.07Z</time></trkpt><trkpt lat="42.2310967" lon="13.83664"><ele>853.0</ele><time>2026-05-02T09:38:57.071Z</time></trkpt><trkpt lat="42.2309717" lon="13.8366367"><ele>853.0</ele><time>2026-05-02T09:38:58.071Z</time></trkpt><trkpt lat="42.2308383" lon="13.836655"><ele>853.0</ele><time>2026-05-02T09:38:59.071Z</time></trkpt><trkpt lat="42.2306967" lon="13.8366933"><ele>853.0</ele><time>2026-05-02T09:39:00.07Z</time></trkpt><trkpt lat="42.2305517" lon="13.836765"><ele>853.0</ele><time>2026-05-02T09:39:01.071Z</time></trkpt><trkpt lat="42.2303917" lon="13.8368483"><ele>856.3333333333333</ele><time>2026-05-02T09:39:02.071Z</time></trkpt><trkpt lat="42.2302067" lon="13.8369467"><ele>859.6666666666667</ele><time>2026-05-02T09:39:03.071Z</time></trkpt><trkpt lat="42.2300217" lon="13.837045"><ele>863.0</ele><time>2026-05-02T09:39:04.071Z</time></trkpt><trkpt lat="42.229855" lon="13.837145"><ele>854.6666666666667</ele><time>2026-05-02T09:39:05.07Z</time></trkpt><trkpt lat="42.2296983" lon="13.837225"><ele>846.3333333333333</ele><time>2026-05-02T09:39:06.07Z</time></trkpt><trkpt lat="42.22955" lon="13.8372983"><ele>838.0</ele><time>2026-05-02T09:39:07.07Z</time></trkpt><trkpt lat="42.2294117" lon="13.83737"><ele>838.0</ele><time>2026-05-02T09:39:08.071Z</time></trkpt><trkpt lat="42.229265" lon="13.8374317"><ele>838.0</ele><time>2026-05-02T09:39:09.07Z</time></trkpt><trkpt lat="42.2291367" lon="13.8374967"><ele>838.0</ele><time>2026-05-02T09:39:10.07Z</time></trkpt><trkpt lat="42.22901" lon="13.8375567"><ele>838.0</ele><time>2026-05-02T09:39:11.071Z</time></trkpt><trkpt lat="42.2288917" lon="13.8376267"><ele>841.2</ele><time>2026-05-02T09:39:12.071Z</time></trkpt><trkpt lat="42.22878" lon="13.8376867"><ele>844.4</ele><time>2026-05-02T09:39:13.071Z</time></trkpt><trkpt lat="42.2286867" lon="13.8377433"><ele>847.6000000000001</ele><time>2026-05-02T09:39:14.07Z</time></trkpt><trkpt lat="42.2286083" lon="13.837785"><ele>850.8000000000001</ele><time>2026-05-02T09:39:15.071Z</time></trkpt><trkpt lat="42.2285433" lon="13.8378033"><ele>854.0</ele><time>2026-05-02T09:39:16.071Z</time></trkpt><trkpt lat="42.228525" lon="13.8377"><ele>854.0</ele><time>2026-05-02T09:39:19.07Z</time></trkpt><trkpt lat="42.228585" lon="13.8376433"><ele>854.0</ele><time>2026-05-02T09:39:20.07Z</time></trkpt><trkpt lat="42.228675" lon="13.8375733"><ele>854.0</ele><time>2026-05-02T09:39:21.071Z</time></trkpt><trkpt lat="42.228795" lon="13.8374733"><ele>854.0</ele><time>2026-05-02T09:39:22.071Z</time></trkpt><trkpt lat="42.228935" lon="13.8373433"><ele>848.6666666666667</ele><time>2026-05-02T09:39:23.07Z</time></trkpt><trkpt lat="42.2290733" lon="13.837235"><ele>843.3333333333333</ele><time>2026-05-02T09:39:24.07Z</time></trkpt><trkpt lat="42.2292083" lon="13.8371133"><ele>838.0</ele><time>2026-05-02T09:39:25.071Z</time></trkpt><trkpt lat="42.22933" lon="13.83701"><ele>838.0</ele><time>2026-05-02T09:39:26.071Z</time></trkpt><trkpt lat="42.229435" lon="13.8369067"><ele>838.0</ele><time>2026-05-02T09:39:27.07Z</time></trkpt><trkpt lat="42.22954" lon="13.8367983"><ele>838.0</ele><time>2026-05-02T09:39:28.07Z</time></trkpt><trkpt lat="42.2296467" lon="13.83667"><ele>838.0</ele><time>2026-05-02T09:39:29.071Z</time></trkpt><trkpt lat="42.2297633" lon="13.83652"><ele>835.3333333333333</ele><time>2026-05-02T09:39:30.07Z</time></trkpt><trkpt lat="42.2298867" lon="13.8363667"><ele>832.6666666666667</ele><time>2026-05-02T09:39:31.07Z</time></trkpt><trkpt lat="42.2300233" lon="13.836205"><ele>830.0</ele><time>2026-05-02T09:39:32.071Z</time></trkpt><trkpt lat="42.2301683" lon="13.836045"><ele>820.0</ele><time>2026-05-02T09:39:33.07Z</time></trkpt><trkpt lat="42.230305" lon="13.8359017"><ele>810.0</ele><time>2026-05-02T09:39:34.07Z</time></trkpt><trkpt lat="42.2304317" lon="13.8357783"><ele>800.0</ele><time>2026-05-02T09:39:35.07Z</time></trkpt><trkpt lat="42.2305517" lon="13.8356667"><ele>805.25</ele><time>2026-05-02T09:39:36.071Z</time></trkpt><trkpt lat="42.2306717" lon="13.8355583"><ele>810.5</ele><time>2026-05-02T09:39:37.07Z</time></trkpt><trkpt lat="42.2307967" lon="13.8354633"><ele>815.75</ele><time>2026-05-02T09:39:38.07Z</time></trkpt><trkpt lat="42.23092" lon="13.8353883"><ele>821.0</ele><time>2026-05-02T09:39:39.071Z</time></trkpt><trkpt lat="42.2310367" lon="13.8353283"><ele>821.0</ele><time>2026-05-02T09:39:40.07Z</time></trkpt><trkpt lat="42.2311583" lon="13.8352767"><ele>821.0</ele><time>2026-05-02T09:39:41.07Z</time></trkpt><trkpt lat="42.2312917" lon="13.8352417"><ele>821.0</ele><time>2026-05-02T09:39:42.07Z</time></trkpt><trkpt lat="42.2314333" lon="13.8352133"><ele>821.0</ele><time>2026-05-02T09:39:43.071Z</time></trkpt><trkpt lat="42.2315667" lon="13.835185"><ele>823.0</ele><time>2026-05-02T09:39:44.07Z</time></trkpt><trkpt lat="42.2316967" lon="13.8351533"><ele>825.0</ele><time>2026-05-02T09:39:45.07Z</time></trkpt><trkpt lat="42.2317967" lon="13.8351367"><ele>827.0</ele><time>2026-05-02T09:39:46.07Z</time></trkpt><trkpt lat="42.23188" lon="13.83513"><ele>829.0</ele><time>2026-05-02T09:39:47.07Z</time></trkpt><trkpt lat="42.23197" lon="13.8350767"><ele>831.0</ele><time>2026-05-02T09:39:49.071Z</time></trkpt><trkpt lat="42.2319333" lon="13.8349917"><ele>825.4</ele><time>2026-05-02T09:39:51.07Z</time></trkpt><trkpt lat="42.23187" lon="13.8349683"><ele>819.8</ele><time>2026-05-02T09:39:52.071Z</time></trkpt><trkpt lat="42.2317717" lon="13.834955"><ele>814.1999999999999</ele><time>2026-05-02T09:39:53.07Z</time></trkpt><trkpt lat="42.2316483" lon="13.8349583"><ele>808.5999999999999</ele><time>2026-05-02T09:39:54.07Z</time></trkpt><trkpt lat="42.2315017" lon="13.8349583"><ele>803.0</ele><time>2026-05-02T09:39:55.07Z</time></trkpt><trkpt lat="42.23136" lon="13.8349283"><ele>800.25</ele><time>2026-05-02T09:39:56.07Z</time></trkpt><trkpt lat="42.2312367" lon="13.8348933"><ele>797.5</ele><time>2026-05-02T09:39:57.07Z</time></trkpt><trkpt lat="42.2311117" lon="13.8348767"><ele>794.75</ele><time>2026-05-02T09:39:58.071Z</time></trkpt><trkpt lat="42.2309717" lon="13.8348683"><ele>792.0</ele><time>2026-05-02T09:39:59.069Z</time></trkpt><trkpt lat="42.23081" lon="13.834895"><ele>787.6666666666667</ele><time>2026-05-02T09:40:00.07Z</time></trkpt><trkpt lat="42.2306333" lon="13.8349317"><ele>783.3333333333334</ele><time>2026-05-02T09:40:01.07Z</time></trkpt><trkpt lat="42.230455" lon="13.8349867"><ele>779.0</ele><time>2026-05-02T09:40:02.07Z</time></trkpt><trkpt lat="42.2302767" lon="13.8350483"><ele>779.0</ele><time>2026-05-02T09:40:03.069Z</time></trkpt><trkpt lat="42.2301167" lon="13.8351033"><ele>779.0</ele><time>2026-05-02T09:40:04.069Z</time></trkpt><trkpt lat="42.2299617" lon="13.8351583"><ele>779.0</ele><time>2026-05-02T09:40:05.069Z</time></trkpt><trkpt lat="42.2298167" lon="13.835205"><ele>779.3333333333334</ele><time>2026-05-02T09:40:06.07Z</time></trkpt><trkpt lat="42.2296733" lon="13.8352617"><ele>779.6666666666667</ele><time>2026-05-02T09:40:07.07Z</time></trkpt><trkpt lat="42.2295283" lon="13.8353333"><ele>780.0</ele><time>2026-05-02T09:40:08.069Z</time></trkpt><trkpt lat="42.2293883" lon="13.835405"><ele>780.0</ele><time>2026-05-02T09:40:09.07Z</time></trkpt><trkpt lat="42.2292533" lon="13.8354667"><ele>780.0</ele><time>2026-05-02T09:40:10.07Z</time></trkpt><trkpt lat="42.22912" lon="13.8355517"><ele>780.0</ele><time>2026-05-02T09:40:11.07Z</time></trkpt><trkpt lat="42.2289833" lon="13.8356683"><ele>776.3333333333333</ele><time>2026-05-02T09:40:12.069Z</time></trkpt><trkpt lat="42.2288433" lon="13.83577"><ele>772.6666666666666</ele><time>2026-05-02T09:40:13.07Z</time></trkpt><trkpt lat="42.2286933" lon="13.835855"><ele>769.0</ele><time>2026-05-02T09:40:14.07Z</time></trkpt><trkpt lat="42.2285617" lon="13.8359217"><ele>775.4000000000001</ele><time>2026-05-02T09:40:15.07Z</time></trkpt><trkpt lat="42.22846" lon="13.83598"><ele>781.8</ele><time>2026-05-02T09:40:16.069Z</time></trkpt><trkpt lat="42.228375" lon="13.836025"><ele>788.2</ele><time>2026-05-02T09:40:17.069Z</time></trkpt><trkpt lat="42.2282967" lon="13.8360433"><ele>794.5999999999999</ele><time>2026-05-02T09:40:18.069Z</time></trkpt><trkpt lat="42.2282083" lon="13.8360317"><ele>801.0</ele><time>2026-05-02T09:40:19.07Z</time></trkpt><trkpt lat="42.2281067" lon="13.835985"><ele>791.6666666666667</ele><time>2026-05-02T09:40:20.069Z</time></trkpt><trkpt lat="42.227985" lon="13.8358867"><ele>782.3333333333334</ele><time>2026-05-02T09:40:21.069Z</time></trkpt><trkpt lat="42.2278383" lon="13.83577"><ele>773.0</ele><time>2026-05-02T09:40:22.069Z</time></trkpt><trkpt lat="42.22767" lon="13.8356533"><ele>773.0</ele><time>2026-05-02T09:40:23.069Z</time></trkpt><trkpt lat="42.2275017" lon="13.835545"><ele>773.0</ele><time>2026-05-02T09:40:24.069Z</time></trkpt><trkpt lat="42.2273617" lon="13.8354583"><ele>773.0</ele><time>2026-05-02T09:40:25.069Z</time></trkpt><trkpt lat="42.227235" lon="13.8354067"><ele>772.0</ele><time>2026-05-02T09:40:26.07Z</time></trkpt><trkpt lat="42.22712" lon="13.8353633"><ele>771.0</ele><time>2026-05-02T09:40:27.07Z</time></trkpt><trkpt lat="42.227025" lon="13.8353333"><ele>770.0</ele><time>2026-05-02T09:40:28.07Z</time></trkpt><trkpt lat="42.2269267" lon="13.835335"><ele>769.0</ele><time>2026-05-02T09:40:29.07Z</time></trkpt><trkpt lat="42.22682" lon="13.835345"><ele>768.0</ele><time>2026-05-02T09:40:30.069Z</time></trkpt><trkpt lat="42.2266933" lon="13.8353733"><ele>768.0</ele><time>2026-05-02T09:40:31.069Z</time></trkpt><trkpt lat="42.22654" lon="13.835415"><ele>768.0</ele><time>2026-05-02T09:40:32.069Z</time></trkpt><trkpt lat="42.226375" lon="13.8354717"><ele>768.0</ele><time>2026-05-02T09:40:33.069Z</time></trkpt><trkpt lat="42.2262167" lon="13.8355383"><ele>763.5</ele><time>2026-05-02T09:40:34.069Z</time></trkpt><trkpt lat="42.22608" lon="13.8355967"><ele>759.0</ele><time>2026-05-02T09:40:35.07Z</time></trkpt><trkpt lat="42.2259517" lon="13.8356517"><ele>754.5</ele><time>2026-05-02T09:40:36.069Z</time></trkpt><trkpt lat="42.2258183" lon="13.83572"><ele>750.0</ele><time>2026-05-02T09:40:37.07Z</time></trkpt><trkpt lat="42.2256917" lon="13.8357933"><ele>748.0</ele><time>2026-05-02T09:40:38.07Z</time></trkpt><trkpt lat="42.2255667" lon="13.8358617"><ele>746.0</ele><time>2026-05-02T09:40:39.07Z</time></trkpt><trkpt lat="42.22546" lon="13.8359433"><ele>744.0</ele><time>2026-05-02T09:40:40.07Z</time></trkpt><trkpt lat="42.2253483" lon="13.836025"><ele>742.0</ele><time>2026-05-02T09:40:41.069Z</time></trkpt><trkpt lat="42.22524" lon="13.8361267"><ele>742.0</ele><time>2026-05-02T09:40:42.069Z</time></trkpt><trkpt lat="42.2251233" lon="13.836235"><ele>742.0</ele><time>2026-05-02T09:40:43.069Z</time></trkpt><trkpt lat="42.2250017" lon="13.8363433"><ele>742.0</ele><time>2026-05-02T09:40:44.07Z</time></trkpt><trkpt lat="42.22488" lon="13.836445"><ele>742.0</ele><time>2026-05-02T09:40:45.07Z</time></trkpt><trkpt lat="42.22477" lon="13.83654"><ele>737.5</ele><time>2026-05-02T09:40:46.069Z</time></trkpt><trkpt lat="42.2246733" lon="13.83664"><ele>733.0</ele><time>2026-05-02T09:40:47.07Z</time></trkpt><trkpt lat="42.224595" lon="13.8367483"><ele>728.5</ele><time>2026-05-02T09:40:48.069Z</time></trkpt><trkpt lat="42.2245217" lon="13.83688"><ele>724.0</ele><time>2026-05-02T09:40:49.069Z</time></trkpt><trkpt lat="42.22445" lon="13.8370167"><ele>724.0</ele><time>2026-05-02T09:40:50.069Z</time></trkpt><trkpt lat="42.2243783" lon="13.8371467"><ele>724.0</ele><time>2026-05-02T09:40:51.069Z</time></trkpt><trkpt lat="42.2242967" lon="13.8372767"><ele>724.0</ele><time>2026-05-02T09:40:52.069Z</time></trkpt><trkpt lat="42.2242133" lon="13.8374167"><ele>724.0</ele><time>2026-05-02T09:40:53.069Z</time></trkpt><trkpt lat="42.2241367" lon="13.8375617"><ele>727.25</ele><time>2026-05-02T09:40:54.07Z</time></trkpt><trkpt lat="42.2240667" lon="13.8377117"><ele>730.5</ele><time>2026-05-02T09:40:55.069Z</time></trkpt><trkpt lat="42.2240033" lon="13.8378533"><ele>733.75</ele><time>2026-05-02T09:40:56.07Z</time></trkpt><trkpt lat="42.2239283" lon="13.837985"><ele>737.0</ele><time>2026-05-02T09:40:57.07Z</time></trkpt><trkpt lat="42.223855" lon="13.8380917"><ele>729.5</ele><time>2026-05-02T09:40:58.07Z</time></trkpt><trkpt lat="42.2237783" lon="13.8381883"><ele>722.0</ele><time>2026-05-02T09:40:59.069Z</time></trkpt><trkpt lat="42.2236817" lon="13.838285"><ele>714.5</ele><time>2026-05-02T09:41:00.069Z</time></trkpt><trkpt lat="42.2235717" lon="13.8383817"><ele>707.0</ele><time>2026-05-02T09:41:01.069Z</time></trkpt><trkpt lat="42.223455" lon="13.8384583"><ele>708.0</ele><time>2026-05-02T09:41:02.069Z</time></trkpt><trkpt lat="42.2233233" lon="13.8385383"><ele>709.0</ele><time>2026-05-02T09:41:03.07Z</time></trkpt><trkpt lat="42.2231783" lon="13.838615"><ele>710.0</ele><time>2026-05-02T09:41:04.069Z</time></trkpt><trkpt lat="42.22303" lon="13.83867"><ele>710.0</ele><time>2026-05-02T09:41:05.07Z</time></trkpt><trkpt lat="42.22289" lon="13.83872"><ele>710.0</ele><time>2026-05-02T09:41:06.07Z</time></trkpt><trkpt lat="42.2227567" lon="13.83877"><ele>710.0</ele><time>2026-05-02T09:41:07.07Z</time></trkpt><trkpt lat="42.2226367" lon="13.838815"><ele>710.0</ele><time>2026-05-02T09:41:08.07Z</time></trkpt><trkpt lat="42.2225283" lon="13.83886"><ele>710.0</ele><time>2026-05-02T09:41:09.069Z</time></trkpt><trkpt lat="42.2224167" lon="13.8389233"><ele>710.0</ele><time>2026-05-02T09:41:10.07Z</time></trkpt><trkpt lat="42.22231" lon="13.8390017"><ele>710.0</ele><time>2026-05-02T09:41:11.069Z</time></trkpt><trkpt lat="42.222225" lon="13.8390817"><ele>710.0</ele><time>2026-05-02T09:41:12.069Z</time></trkpt><trkpt lat="42.222155" lon="13.839155"><ele>710.0</ele><time>2026-05-02T09:41:13.069Z</time></trkpt><trkpt lat="42.2220967" lon="13.8392233"><ele>705.0</ele><time>2026-05-02T09:41:14.069Z</time></trkpt><trkpt lat="42.2219967" lon="13.8392933"><ele>700.0</ele><time>2026-05-02T09:41:16.07Z</time></trkpt><trkpt lat="42.2219367" lon="13.8392133"><ele>695.0</ele><time>2026-05-02T09:41:18.069Z</time></trkpt><trkpt lat="42.2219483" lon="13.83911"><ele>690.0</ele><time>2026-05-02T09:41:19.07Z</time></trkpt><trkpt lat="42.2219917" lon="13.838975"><ele>685.0</ele><time>2026-05-02T09:41:20.07Z</time></trkpt><trkpt lat="42.222065" lon="13.8388133"><ele>685.0</ele><time>2026-05-02T09:41:21.07Z</time></trkpt><trkpt lat="42.2221333" lon="13.8386483"><ele>685.0</ele><time>2026-05-02T09:41:22.069Z</time></trkpt><trkpt lat="42.2222083" lon="13.8384967"><ele>685.0</ele><time>2026-05-02T09:41:23.07Z</time></trkpt><trkpt lat="42.2222867" lon="13.8383617"><ele>685.0</ele><time>2026-05-02T09:41:24.069Z</time></trkpt><trkpt lat="42.2223717" lon="13.8382417"><ele>687.25</ele><time>2026-05-02T09:41:25.07Z</time></trkpt><trkpt lat="42.2224683" lon="13.8381133"><ele>689.5</ele><time>2026-05-02T09:41:26.07Z</time></trkpt><trkpt lat="42.2225733" lon="13.8379717"><ele>691.75</ele><time>2026-05-02T09:41:27.069Z</time></trkpt><trkpt lat="42.22268" lon="13.837835"><ele>694.0</ele><time>2026-05-02T09:41:28.069Z</time></trkpt><trkpt lat="42.2227667" lon="13.837705"><ele>688.0</ele><time>2026-05-02T09:41:29.07Z</time></trkpt><trkpt lat="42.222845" lon="13.8375817"><ele>682.0</ele><time>2026-05-02T09:41:30.07Z</time></trkpt><trkpt lat="42.222905" lon="13.8374583"><ele>676.0</ele><time>2026-05-02T09:41:31.069Z</time></trkpt><trkpt lat="42.2229567" lon="13.8373083"><ele>670.0</ele><time>2026-05-02T09:41:32.07Z</time></trkpt><trkpt lat="42.2230033" lon="13.83713"><ele>670.0</ele><time>2026-05-02T09:41:33.069Z</time></trkpt><trkpt lat="42.223035" lon="13.8369317"><ele>670.0</ele><time>2026-05-02T09:41:34.069Z</time></trkpt><trkpt lat="42.2230617" lon="13.8367283"><ele>670.0</ele><time>2026-05-02T09:41:35.07Z</time></trkpt><trkpt lat="42.2230717" lon="13.8365517"><ele>670.0</ele><time>2026-05-02T09:41:36.069Z</time></trkpt><trkpt lat="42.223075" lon="13.8363933"><ele>667.6</ele><time>2026-05-02T09:41:37.069Z</time></trkpt><trkpt lat="42.22308" lon="13.8362533"><ele>665.2</ele><time>2026-05-02T09:41:38.069Z</time></trkpt><trkpt lat="42.223085" lon="13.8361383"><ele>662.8</ele><time>2026-05-02T09:41:39.07Z</time></trkpt><trkpt lat="42.22308" lon="13.8360533"><ele>660.4</ele><time>2026-05-02T09:41:40.07Z</time></trkpt><trkpt lat="42.2230167" lon="13.8359633"><ele>658.0</ele><time>2026-05-02T09:41:42.069Z</time></trkpt><trkpt lat="42.2229117" lon="13.8360267"><ele>658.0</ele><time>2026-05-02T09:41:44.069Z</time></trkpt><trkpt lat="42.222845" lon="13.8361567"><ele>658.0</ele><time>2026-05-02T09:41:45.069Z</time></trkpt><trkpt lat="42.2227633" lon="13.8363333"><ele>658.0</ele><time>2026-05-02T09:41:46.069Z</time></trkpt><trkpt lat="42.2226833" lon="13.8364967"><ele>658.0</ele><time>2026-05-02T09:41:47.07Z</time></trkpt><trkpt lat="42.2226017" lon="13.8366267"><ele>658.0</ele><time>2026-05-02T09:41:48.07Z</time></trkpt><trkpt lat="42.2225183" lon="13.8367233"><ele>658.0</ele><time>2026-05-02T09:41:49.069Z</time></trkpt><trkpt lat="42.22241" lon="13.8368117"><ele>658.0</ele><time>2026-05-02T09:41:50.069Z</time></trkpt><trkpt lat="42.2222733" lon="13.8369017"><ele>658.0</ele><time>2026-05-02T09:41:51.07Z</time></trkpt><trkpt lat="42.2221167" lon="13.8369917"><ele>657.6666666666667</ele><time>2026-05-02T09:41:52.07Z</time></trkpt><trkpt lat="42.2219433" lon="13.8370967"><ele>657.3333333333334</ele><time>2026-05-02T09:41:53.069Z</time></trkpt><trkpt lat="42.2217867" lon="13.8371833"><ele>657.0</ele><time>2026-05-02T09:41:54.069Z</time></trkpt><trkpt lat="42.2216467" lon="13.8372667"><ele>657.0</ele><time>2026-05-02T09:41:55.069Z</time></trkpt><trkpt lat="42.2215167" lon="13.8373467"><ele>657.0</ele><time>2026-05-02T09:41:56.07Z</time></trkpt><trkpt lat="42.221405" lon="13.83742"><ele>657.0</ele><time>2026-05-02T09:41:57.07Z</time></trkpt><trkpt lat="42.22132" lon="13.837475"><ele>657.0</ele><time>2026-05-02T09:41:58.069Z</time></trkpt><trkpt lat="42.2212517" lon="13.8375"><ele>657.0</ele><time>2026-05-02T09:41:59.069Z</time></trkpt><trkpt lat="42.2211933" lon="13.8374333"><ele>657.0</ele><time>2026-05-02T09:42:01.069Z</time></trkpt><trkpt lat="42.2212667" lon="13.83728"><ele>657.0</ele><time>2026-05-02T09:42:03.07Z</time></trkpt><trkpt lat="42.221365" lon="13.8371717"><ele>657.0</ele><time>2026-05-02T09:42:04.069Z</time></trkpt><trkpt lat="42.221505" lon="13.837035"><ele>657.0</ele><time>2026-05-02T09:42:05.069Z</time></trkpt><trkpt lat="42.2216333" lon="13.83688"><ele>653.0</ele><time>2026-05-02T09:42:06.069Z</time></trkpt><trkpt lat="42.2217383" lon="13.83672"><ele>649.0</ele><time>2026-05-02T09:42:07.07Z</time></trkpt><trkpt lat="42.221835" lon="13.83656"><ele>645.0</ele><time>2026-05-02T09:42:08.07Z</time></trkpt><trkpt lat="42.2219167" lon="13.8364167"><ele>641.0</ele><time>2026-05-02T09:42:09.069Z</time></trkpt><trkpt lat="42.22199" lon="13.8362817"><ele>641.0</ele><time>2026-05-02T09:42:10.07Z</time></trkpt><trkpt lat="42.222045" lon="13.8361733"><ele>641.0</ele><time>2026-05-02T09:42:11.069Z</time></trkpt><trkpt lat="42.2220883" lon="13.8360933"><ele>641.0</ele><time>2026-05-02T09:42:12.07Z</time></trkpt><trkpt lat="42.2221117" lon="13.8359567"><ele>641.0</ele><time>2026-05-02T09:42:14.07Z</time></trkpt><trkpt lat="42.22199" lon="13.835975"><ele>641.0</ele><time>2026-05-02T09:42:16.069Z</time></trkpt><trkpt lat="42.2218967" lon="13.8360433"><ele>641.0</ele><time>2026-05-02T09:42:17.069Z</time></trkpt><trkpt lat="42.2217967" lon="13.83615"><ele>641.0</ele><time>2026-05-02T09:42:18.069Z</time></trkpt><trkpt lat="42.2216767" lon="13.836295"><ele>641.0</ele><time>2026-05-02T09:42:19.069Z</time></trkpt><trkpt lat="42.2215383" lon="13.8364367"><ele>631.3333333333333</ele><time>2026-05-02T09:42:20.07Z</time></trkpt><trkpt lat="42.2213767" lon="13.8365683"><ele>621.6666666666666</ele><time>2026-05-02T09:42:21.07Z</time></trkpt><trkpt lat="42.2212317" lon="13.836675"><ele>612.0</ele><time>2026-05-02T09:42:22.07Z</time></trkpt><trkpt lat="42.2211017" lon="13.836775"><ele>616.25</ele><time>2026-05-02T09:42:23.07Z</time></trkpt><trkpt lat="42.2209783" lon="13.836865"><ele>620.5</ele><time>2026-05-02T09:42:24.069Z</time></trkpt><trkpt lat="42.22087" lon="13.8369717"><ele>624.75</ele><time>2026-05-02T09:42:25.069Z</time></trkpt><trkpt lat="42.2207633" lon="13.8371083"><ele>629.0</ele><time>2026-05-02T09:42:26.069Z</time></trkpt><trkpt lat="42.220665" lon="13.83726"><ele>618.25</ele><time>2026-05-02T09:42:27.07Z</time></trkpt><trkpt lat="42.2205817" lon="13.83742"><ele>607.5</ele><time>2026-05-02T09:42:28.07Z</time></trkpt><trkpt lat="42.22051" lon="13.8375917"><ele>596.75</ele><time>2026-05-02T09:42:29.069Z</time></trkpt><trkpt lat="42.2204483" lon="13.8377767"><ele>586.0</ele><time>2026-05-02T09:42:30.069Z</time></trkpt><trkpt lat="42.2204017" lon="13.8379633"><ele>586.0</ele><time>2026-05-02T09:42:31.069Z</time></trkpt><trkpt lat="42.22036" lon="13.8381467"><ele>586.0</ele><time>2026-05-02T09:42:32.069Z</time></trkpt><trkpt lat="42.22032" lon="13.838305"><ele>586.0</ele><time>2026-05-02T09:42:33.069Z</time></trkpt><trkpt lat="42.2202867" lon="13.8384433"><ele>586.0</ele><time>2026-05-02T09:42:34.069Z</time></trkpt><trkpt lat="42.2202833" lon="13.8385867"><ele>588.6</ele><time>2026-05-02T09:42:35.069Z</time></trkpt><trkpt lat="42.2202867" lon="13.838705"><ele>591.2</ele><time>2026-05-02T09:42:36.07Z</time></trkpt><trkpt lat="42.2202883" lon="13.8388133"><ele>593.8</ele><time>2026-05-02T09:42:37.069Z</time></trkpt><trkpt lat="42.220265" lon="13.8389217"><ele>596.4</ele><time>2026-05-02T09:42:38.069Z</time></trkpt><trkpt lat="42.22021" lon="13.839035"><ele>599.0</ele><time>2026-05-02T09:42:39.07Z</time></trkpt><trkpt lat="42.220135" lon="13.8391617"><ele>606.6666666666666</ele><time>2026-05-02T09:42:40.069Z</time></trkpt><trkpt lat="42.2200433" lon="13.8393133"><ele>614.3333333333334</ele><time>2026-05-02T09:42:41.069Z</time></trkpt><trkpt lat="42.2199367" lon="13.839475"><ele>622.0</ele><time>2026-05-02T09:42:42.069Z</time></trkpt><trkpt lat="42.2198233" lon="13.8396283"><ele>605.6666666666667</ele><time>2026-05-02T09:42:43.069Z</time></trkpt><trkpt lat="42.2196967" lon="13.8397867"><ele>589.3333333333334</ele><time>2026-05-02T09:42:44.07Z</time></trkpt><trkpt lat="42.2195833" lon="13.8399367"><ele>573.0</ele><time>2026-05-02T09:42:45.069Z</time></trkpt><trkpt lat="42.219475" lon="13.8400833"><ele>580.25</ele><time>2026-05-02T09:42:46.07Z</time></trkpt><trkpt lat="42.2193767" lon="13.8402233"><ele>587.5</ele><time>2026-05-02T09:42:47.069Z</time></trkpt><trkpt lat="42.2192933" lon="13.8403583"><ele>594.75</ele><time>2026-05-02T09:42:48.07Z</time></trkpt><trkpt lat="42.21922" lon="13.8404717"><ele>602.0</ele><time>2026-05-02T09:42:49.069Z</time></trkpt><trkpt lat="42.2191617" lon="13.84056"><ele>602.0</ele><time>2026-05-02T09:42:50.069Z</time></trkpt><trkpt lat="42.21911" lon="13.840625"><ele>602.0</ele><time>2026-05-02T09:42:51.07Z</time></trkpt><trkpt lat="42.2190267" lon="13.8406533"><ele>602.0</ele><time>2026-05-02T09:42:53.07Z</time></trkpt><trkpt lat="42.2190383" lon="13.8405133"><ele>602.0</ele><time>2026-05-02T09:42:55.07Z</time></trkpt><trkpt lat="42.2190833" lon="13.840405"><ele>602.0</ele><time>2026-05-02T09:42:56.07Z</time></trkpt><trkpt lat="42.2191467" lon="13.84029"><ele>602.0</ele><time>2026-05-02T09:42:57.069Z</time></trkpt><trkpt lat="42.2192083" lon="13.8401617"><ele>602.0</ele><time>2026-05-02T09:42:58.069Z</time></trkpt><trkpt lat="42.21927" lon="13.8400067"><ele>602.0</ele><time>2026-05-02T09:42:59.069Z</time></trkpt><trkpt lat="42.219335" lon="13.8398383"><ele>602.0</ele><time>2026-05-02T09:43:00.069Z</time></trkpt><trkpt lat="42.2194067" lon="13.8396517"><ele>594.75</ele><time>2026-05-02T09:43:01.069Z</time></trkpt><trkpt lat="42.21948" lon="13.839475"><ele>587.5</ele><time>2026-05-02T09:43:02.069Z</time></trkpt><trkpt lat="42.2195467" lon="13.8393117"><ele>580.25</ele><time>2026-05-02T09:43:03.07Z</time></trkpt><trkpt lat="42.2196067" lon="13.8391567"><ele>573.0</ele><time>2026-05-02T09:43:04.069Z</time></trkpt><trkpt lat="42.21967" lon="13.83902"><ele>569.0</ele><time>2026-05-02T09:43:05.07Z</time></trkpt><trkpt lat="42.2197217" lon="13.8389017"><ele>565.0</ele><time>2026-05-02T09:43:06.07Z</time></trkpt><trkpt lat="42.2197617" lon="13.838785"><ele>561.0</ele><time>2026-05-02T09:43:07.07Z</time></trkpt><trkpt lat="42.2197767" lon="13.8386733"><ele>557.0</ele><time>2026-05-02T09:43:08.069Z</time></trkpt><trkpt lat="42.219765" lon="13.8385517"><ele>553.0</ele><time>2026-05-02T09:43:09.069Z</time></trkpt><trkpt lat="42.21974" lon="13.8383967"><ele>546.6666666666667</ele><time>2026-05-02T09:43:10.07Z</time></trkpt><trkpt lat="42.219705" lon="13.8382167"><ele>540.3333333333334</ele><time>2026-05-02T09:43:11.07Z</time></trkpt><trkpt lat="42.2196783" lon="13.8379967"><ele>534.0</ele><time>2026-05-02T09:43:12.07Z</time></trkpt><trkpt lat="42.21967" lon="13.837775"><ele>531.0</ele><time>2026-05-02T09:43:13.07Z</time></trkpt><trkpt lat="42.2196733" lon="13.8375667"><ele>528.0</ele><time>2026-05-02T09:43:14.069Z</time></trkpt><trkpt lat="42.2196833" lon="13.837365"><ele>525.0</ele><time>2026-05-02T09:43:15.069Z</time></trkpt><trkpt lat="42.2197083" lon="13.83716"><ele>525.0</ele><time>2026-05-02T09:43:16.07Z</time></trkpt><trkpt lat="42.2197333" lon="13.8369633"><ele>525.0</ele><time>2026-05-02T09:43:17.069Z</time></trkpt><trkpt lat="42.2197683" lon="13.8367817"><ele>525.0</ele><time>2026-05-02T09:43:18.07Z</time></trkpt><trkpt lat="42.2198117" lon="13.8365983"><ele>525.0</ele><time>2026-05-02T09:43:19.069Z</time></trkpt><trkpt lat="42.2198667" lon="13.8364283"><ele>527.75</ele><time>2026-05-02T09:43:20.069Z</time></trkpt><trkpt lat="42.2199317" lon="13.8362667"><ele>530.5</ele><time>2026-05-02T09:43:21.069Z</time></trkpt><trkpt lat="42.2199917" lon="13.836125"><ele>533.25</ele><time>2026-05-02T09:43:22.07Z</time></trkpt><trkpt lat="42.22005" lon="13.836005"><ele>536.0</ele><time>2026-05-02T09:43:23.069Z</time></trkpt><trkpt lat="42.2201117" lon="13.8359233"><ele>536.0</ele><time>2026-05-02T09:43:24.069Z</time></trkpt><trkpt lat="42.2201583" lon="13.8358617"><ele>536.0</ele><time>2026-05-02T09:43:25.069Z</time></trkpt><trkpt lat="42.220165" lon="13.8357767"><ele>536.0</ele><time>2026-05-02T09:43:27.069Z</time></trkpt><trkpt lat="42.2200417" lon="13.835825"><ele>536.0</ele><time>2026-05-02T09:43:29.07Z</time></trkpt><trkpt lat="42.2199217" lon="13.8359333"><ele>536.0</ele><time>2026-05-02T09:43:30.069Z</time></trkpt><trkpt lat="42.2198" lon="13.8360867"><ele>527.6666666666666</ele><time>2026-05-02T09:43:31.069Z</time></trkpt><trkpt lat="42.21967" lon="13.836285"><ele>519.3333333333334</ele><time>2026-05-02T09:43:32.07Z</time></trkpt><trkpt lat="42.2195467" lon="13.8364917"><ele>511.0</ele><time>2026-05-02T09:43:33.07Z</time></trkpt><trkpt lat="42.2194333" lon="13.8367117"><ele>515.6666666666667</ele><time>2026-05-02T09:43:34.069Z</time></trkpt><trkpt lat="42.21933" lon="13.8369383"><ele>520.3333333333334</ele><time>2026-05-02T09:43:35.07Z</time></trkpt><trkpt lat="42.2192367" lon="13.8371433"><ele>525.0</ele><time>2026-05-02T09:43:36.069Z</time></trkpt><trkpt lat="42.2191617" lon="13.8373383"><ele>525.0</ele><time>2026-05-02T09:43:37.07Z</time></trkpt><trkpt lat="42.2191" lon="13.8375383"><ele>525.0</ele><time>2026-05-02T09:43:38.069Z</time></trkpt><trkpt lat="42.219055" lon="13.8377333"><ele>525.0</ele><time>2026-05-02T09:43:39.069Z</time></trkpt><trkpt lat="42.2190333" lon="13.8379217"><ele>526.8</ele><time>2026-05-02T09:43:40.07Z</time></trkpt><trkpt lat="42.2190117" lon="13.8381"><ele>528.6</ele><time>2026-05-02T09:43:41.07Z</time></trkpt><trkpt lat="42.21899" lon="13.83824"><ele>530.4</ele><time>2026-05-02T09:43:42.069Z</time></trkpt><trkpt lat="42.21896" lon="13.8383633"><ele>532.2</ele><time>2026-05-02T09:43:43.07Z</time></trkpt><trkpt lat="42.2189017" lon="13.8384617"><ele>534.0</ele><time>2026-05-02T09:43:44.07Z</time></trkpt><trkpt lat="42.21882" lon="13.8385567"><ele>526.75</ele><time>2026-05-02T09:43:45.069Z</time></trkpt><trkpt lat="42.218715" lon="13.838665"><ele>519.5</ele><time>2026-05-02T09:43:46.069Z</time></trkpt><trkpt lat="42.218595" lon="13.8387817"><ele>512.25</ele><time>2026-05-02T09:43:47.069Z</time></trkpt><trkpt lat="42.2184767" lon="13.838915"><ele>505.0</ele><time>2026-05-02T09:43:48.07Z</time></trkpt><trkpt lat="42.2183583" lon="13.8390817"><ele>505.0</ele><time>2026-05-02T09:43:49.07Z</time></trkpt><trkpt lat="42.2182433" lon="13.8392467"><ele>505.0</ele><time>2026-05-02T09:43:50.07Z</time></trkpt><trkpt lat="42.2181233" lon="13.8394"><ele>505.0</ele><time>2026-05-02T09:43:51.07Z</time></trkpt><trkpt lat="42.2180083" lon="13.8395383"><ele>500.33333333333337</ele><time>2026-05-02T09:43:52.07Z</time></trkpt><trkpt lat="42.2178967" lon="13.8396767"><ele>495.66666666666663</ele><time>2026-05-02T09:43:53.069Z</time></trkpt><trkpt lat="42.2177817" lon="13.8398117"><ele>491.0</ele><time>2026-05-02T09:43:54.07Z</time></trkpt><trkpt lat="42.2176617" lon="13.8399433"><ele>491.0</ele><time>2026-05-02T09:43:55.069Z</time></trkpt><trkpt lat="42.2175383" lon="13.8400583"><ele>491.0</ele><time>2026-05-02T09:43:56.069Z</time></trkpt><trkpt lat="42.2174" lon="13.8401817"><ele>491.0</ele><time>2026-05-02T09:43:57.069Z</time></trkpt><trkpt lat="42.21727" lon="13.840305"><ele>488.25</ele><time>2026-05-02T09:43:58.07Z</time></trkpt><trkpt lat="42.2171517" lon="13.8404183"><ele>485.5</ele><time>2026-05-02T09:43:59.069Z</time></trkpt><trkpt lat="42.21704" lon="13.8405117"><ele>482.75</ele><time>2026-05-02T09:44:00.07Z</time></trkpt><trkpt lat="42.216925" lon="13.8406"><ele>480.0</ele><time>2026-05-02T09:44:01.07Z</time></trkpt><trkpt lat="42.2168133" lon="13.8406783"><ele>480.0</ele><time>2026-05-02T09:44:02.07Z</time></trkpt><trkpt lat="42.2166867" lon="13.8407583"><ele>480.0</ele><time>2026-05-02T09:44:03.069Z</time></trkpt><trkpt lat="42.2165583" lon="13.8408317"><ele>480.0</ele><time>2026-05-02T09:44:04.069Z</time></trkpt><trkpt lat="42.2164267" lon="13.8409083"><ele>480.0</ele><time>2026-05-02T09:44:05.069Z</time></trkpt><trkpt lat="42.2162917" lon="13.84099"><ele>477.5</ele><time>2026-05-02T09:44:06.069Z</time></trkpt><trkpt lat="42.216145" lon="13.8410733"><ele>475.0</ele><time>2026-05-02T09:44:07.07Z</time></trkpt><trkpt lat="42.2160183" lon="13.8411483"><ele>472.5</ele><time>2026-05-02T09:44:08.069Z</time></trkpt><trkpt lat="42.2158967" lon="13.8412033"><ele>470.0</ele><time>2026-05-02T09:44:09.069Z</time></trkpt><trkpt lat="42.21576" lon="13.8412483"><ele>465.6</ele><time>2026-05-02T09:44:10.069Z</time></trkpt><trkpt lat="42.215645" lon="13.841265"><ele>461.2</ele><time>2026-05-02T09:44:11.069Z</time></trkpt><trkpt lat="42.2155433" lon="13.8412667"><ele>456.79999999999995</ele><time>2026-05-02T09:44:12.069Z</time></trkpt><trkpt lat="42.215465" lon="13.8412283"><ele>452.4</ele><time>2026-05-02T09:44:13.07Z</time></trkpt><trkpt lat="42.215395" lon="13.84116"><ele>448.0</ele><time>2026-05-02T09:44:14.069Z</time></trkpt><trkpt lat="42.2153267" lon="13.8410367"><ele>446.59999999999997</ele><time>2026-05-02T09:44:15.07Z</time></trkpt><trkpt lat="42.2152617" lon="13.84088"><ele>445.19999999999993</ele><time>2026-05-02T09:44:16.069Z</time></trkpt><trkpt lat="42.2152067" lon="13.84073"><ele>443.8</ele><time>2026-05-02T09:44:17.07Z</time></trkpt><trkpt lat="42.2151667" lon="13.8405983"><ele>442.4</ele><time>2026-05-02T09:44:18.069Z</time></trkpt><trkpt lat="42.2151467" lon="13.840485"><ele>441.0</ele><time>2026-05-02T09:44:19.069Z</time></trkpt><trkpt lat="42.2151517" lon="13.840385"><ele>441.0</ele><time>2026-05-02T09:44:20.069Z</time></trkpt><trkpt lat="42.2151883" lon="13.84029"><ele>441.0</ele><time>2026-05-02T09:44:21.07Z</time></trkpt><trkpt lat="42.2152533" lon="13.840195"><ele>441.0</ele><time>2026-05-02T09:44:22.07Z</time></trkpt><trkpt lat="42.2153467" lon="13.8401017"><ele>441.0</ele><time>2026-05-02T09:44:23.069Z</time></trkpt><trkpt lat="42.2154583" lon="13.8399983"><ele>441.0</ele><time>2026-05-02T09:44:24.07Z</time></trkpt><trkpt lat="42.2155717" lon="13.83991"><ele>442.0</ele><time>2026-05-02T09:44:25.07Z</time></trkpt><trkpt lat="42.2156683" lon="13.83983"><ele>443.0</ele><time>2026-05-02T09:44:26.069Z</time></trkpt><trkpt lat="42.2157483" lon="13.83974"><ele>444.0</ele><time>2026-05-02T09:44:27.069Z</time></trkpt><trkpt lat="42.2158183" lon="13.8396367"><ele>445.0</ele><time>2026-05-02T09:44:28.07Z</time></trkpt><trkpt lat="42.2158833" lon="13.83951"><ele>446.0</ele><time>2026-05-02T09:44:29.07Z</time></trkpt><trkpt lat="42.2159533" lon="13.839355"><ele>442.0</ele><time>2026-05-02T09:44:30.07Z</time></trkpt><trkpt lat="42.2160283" lon="13.8391717"><ele>438.0</ele><time>2026-05-02T09:44:31.069Z</time></trkpt><trkpt lat="42.2161017" lon="13.838975"><ele>434.0</ele><time>2026-05-02T09:44:32.069Z</time></trkpt><trkpt lat="42.2161733" lon="13.8387867"><ele>434.0</ele><time>2026-05-02T09:44:33.069Z</time></trkpt><trkpt lat="42.2162517" lon="13.83858"><ele>434.0</ele><time>2026-05-02T09:44:34.069Z</time></trkpt><trkpt lat="42.21631" lon="13.8383733"><ele>434.0</ele><time>2026-05-02T09:44:35.069Z</time></trkpt><trkpt lat="42.2163667" lon="13.8381517"><ele>430.3333333333333</ele><time>2026-05-02T09:44:36.07Z</time></trkpt><trkpt lat="42.216425" lon="13.8379283"><ele>426.66666666666663</ele><time>2026-05-02T09:44:37.069Z</time></trkpt><trkpt lat="42.216475" lon="13.8377083"><ele>423.0</ele><time>2026-05-02T09:44:38.069Z</time></trkpt><trkpt lat="42.216525" lon="13.8374933"><ele>423.0</ele><time>2026-05-02T09:44:39.069Z</time></trkpt><trkpt lat="42.21658" lon="13.83729"><ele>423.0</ele><time>2026-05-02T09:44:40.069Z</time></trkpt><trkpt lat="42.21663" lon="13.83706"><ele>423.0</ele><time>2026-05-02T09:44:41.07Z</time></trkpt><trkpt lat="42.2166883" lon="13.8368433"><ele>419.0</ele><time>2026-05-02T09:44:42.07Z</time></trkpt><trkpt lat="42.2167433" lon="13.836635"><ele>415.0</ele><time>2026-05-02T09:44:43.069Z</time></trkpt><trkpt lat="42.2168183" lon="13.836415"><ele>411.0</ele><time>2026-05-02T09:44:44.069Z</time></trkpt><trkpt lat="42.2169067" lon="13.8362017"><ele>411.0</ele><time>2026-05-02T09:44:45.07Z</time></trkpt><trkpt lat="42.217005" lon="13.83599"><ele>411.0</ele><time>2026-05-02T09:44:46.069Z</time></trkpt><trkpt lat="42.2171133" lon="13.8357767"><ele>411.0</ele><time>2026-05-02T09:44:47.069Z</time></trkpt><trkpt lat="42.21722" lon="13.83558"><ele>411.0</ele><time>2026-05-02T09:44:48.069Z</time></trkpt><trkpt lat="42.217325" lon="13.8354083"><ele>411.0</ele><time>2026-05-02T09:44:49.069Z</time></trkpt><trkpt lat="42.2174083" lon="13.835255"><ele>411.0</ele><time>2026-05-02T09:44:50.07Z</time></trkpt><trkpt lat="42.2174817" lon="13.8351233"><ele>411.0</ele><time>2026-05-02T09:44:51.07Z</time></trkpt><trkpt lat="42.217545" lon="13.8349883"><ele>408.0</ele><time>2026-05-02T09:44:52.07Z</time></trkpt><trkpt lat="42.2175767" lon="13.83485"><ele>405.0</ele><time>2026-05-02T09:44:53.069Z</time></trkpt><trkpt lat="42.217585" lon="13.8346917"><ele>402.0</ele><time>2026-05-02T09:44:54.07Z</time></trkpt><trkpt lat="42.2175633" lon="13.8345"><ele>399.0</ele><time>2026-05-02T09:44:55.069Z</time></trkpt><trkpt lat="42.217525" lon="13.83429"><ele>396.33333333333337</ele><time>2026-05-02T09:44:56.07Z</time></trkpt><trkpt lat="42.2174867" lon="13.8340533"><ele>393.6666666666667</ele><time>2026-05-02T09:44:57.07Z</time></trkpt><trkpt lat="42.2174583" lon="13.83381"><ele>391.0</ele><time>2026-05-02T09:44:58.069Z</time></trkpt><trkpt lat="42.2174367" lon="13.8335933"><ele>388.33333333333337</ele><time>2026-05-02T09:44:59.069Z</time></trkpt><trkpt lat="42.2174233" lon="13.8333817"><ele>385.6666666666667</ele><time>2026-05-02T09:45:00.07Z</time></trkpt><trkpt lat="42.2174167" lon="13.83317"><ele>383.0</ele><time>2026-05-02T09:45:01.07Z</time></trkpt><trkpt lat="42.217415" lon="13.8329533"><ele>383.0</ele><time>2026-05-02T09:45:02.07Z</time></trkpt><trkpt lat="42.2174233" lon="13.8327217"><ele>383.0</ele><time>2026-05-02T09:45:03.069Z</time></trkpt><trkpt lat="42.217435" lon="13.832475"><ele>383.0</ele><time>2026-05-02T09:45:04.07Z</time></trkpt><trkpt lat="42.2174583" lon="13.8322183"><ele>380.6666666666667</ele><time>2026-05-02T09:45:05.069Z</time></trkpt><trkpt lat="42.2174817" lon="13.831985"><ele>378.3333333333333</ele><time>2026-05-02T09:45:06.069Z</time></trkpt><trkpt lat="42.2174967" lon="13.8317567"><ele>376.0</ele><time>2026-05-02T09:45:07.069Z</time></trkpt><trkpt lat="42.2175217" lon="13.8315567"><ele>375.0</ele><time>2026-05-02T09:45:08.069Z</time></trkpt><trkpt lat="42.2175483" lon="13.831375"><ele>374.0</ele><time>2026-05-02T09:45:09.069Z</time></trkpt><trkpt lat="42.2175717" lon="13.83121"><ele>373.0</ele><time>2026-05-02T09:45:10.069Z</time></trkpt><trkpt lat="42.2176133" lon="13.8310417"><ele>372.0</ele><time>2026-05-02T09:45:11.07Z</time></trkpt><trkpt lat="42.21766" lon="13.8308767"><ele>371.40000000000003</ele><time>2026-05-02T09:45:12.069Z</time></trkpt><trkpt lat="42.2177133" lon="13.8307283"><ele>370.8</ele><time>2026-05-02T09:45:13.07Z</time></trkpt><trkpt lat="42.2177517" lon="13.8305983"><ele>370.2</ele><time>2026-05-02T09:45:14.069Z</time></trkpt><trkpt lat="42.2177867" lon="13.8304817"><ele>369.6</ele><time>2026-05-02T09:45:15.069Z</time></trkpt><trkpt lat="42.2178233" lon="13.8303767"><ele>369.0</ele><time>2026-05-02T09:45:16.07Z</time></trkpt><trkpt lat="42.2178567" lon="13.8302833"><ele>369.0</ele><time>2026-05-02T09:45:17.07Z</time></trkpt><trkpt lat="42.2178917" lon="13.8302017"><ele>369.0</ele><time>2026-05-02T09:45:18.069Z</time></trkpt><trkpt lat="42.2179283" lon="13.8301217"><ele>369.0</ele><time>2026-05-02T09:45:19.07Z</time></trkpt><trkpt lat="42.2179633" lon="13.8300233"><ele>369.0</ele><time>2026-05-02T09:45:20.069Z</time></trkpt><trkpt lat="42.217995" lon="13.829915"><ele>369.0</ele><time>2026-05-02T09:45:21.069Z</time></trkpt><trkpt lat="42.2180083" lon="13.829805"><ele>369.0</ele><time>2026-05-02T09:45:22.07Z</time></trkpt><trkpt lat="42.2180167" lon="13.8297033"><ele>368.1666666666667</ele><time>2026-05-02T09:45:23.069Z</time></trkpt><trkpt lat="42.21802" lon="13.8296067"><ele>367.3333333333333</ele><time>2026-05-02T09:45:24.069Z</time></trkpt><trkpt lat="42.2180117" lon="13.8295117"><ele>366.5</ele><time>2026-05-02T09:45:25.07Z</time></trkpt><trkpt lat="42.2180083" lon="13.8294067"><ele>365.66666666666663</ele><time>2026-05-02T09:45:26.07Z</time></trkpt><trkpt lat="42.218005" lon="13.82929"><ele>364.8333333333333</ele><time>2026-05-02T09:45:27.069Z</time></trkpt><trkpt lat="42.2180017" lon="13.82915"><ele>364.0</ele><time>2026-05-02T09:45:28.07Z</time></trkpt><trkpt lat="42.2179917" lon="13.8289967"><ele>363.25</ele><time>2026-05-02T09:45:29.069Z</time></trkpt><trkpt lat="42.21797" lon="13.8288233"><ele>362.5</ele><time>2026-05-02T09:45:30.07Z</time></trkpt><trkpt lat="42.2179517" lon="13.8286333"><ele>361.75</ele><time>2026-05-02T09:45:31.069Z</time></trkpt><trkpt lat="42.2179283" lon="13.8284383"><ele>361.0</ele><time>2026-05-02T09:45:32.069Z</time></trkpt><trkpt lat="42.2179033" lon="13.82822"><ele>359.3333333333333</ele><time>2026-05-02T09:45:33.07Z</time></trkpt><trkpt lat="42.21789" lon="13.8279967"><ele>357.6666666666667</ele><time>2026-05-02T09:45:34.07Z</time></trkpt><trkpt lat="42.217875" lon="13.8277817"><ele>356.0</ele><time>2026-05-02T09:45:35.07Z</time></trkpt><trkpt lat="42.217865" lon="13.82758"><ele>354.25</ele><time>2026-05-02T09:45:36.07Z</time></trkpt><trkpt lat="42.2178633" lon="13.8274017"><ele>352.5</ele><time>2026-05-02T09:45:37.069Z</time></trkpt><trkpt lat="42.2178667" lon="13.827235"><ele>350.75</ele><time>2026-05-02T09:45:38.069Z</time></trkpt><trkpt lat="42.2178683" lon="13.8270917"><ele>349.0</ele><time>2026-05-02T09:45:39.069Z</time></trkpt><trkpt lat="42.2178533" lon="13.8269567"><ele>349.0</ele><time>2026-05-02T09:45:40.069Z</time></trkpt><trkpt lat="42.21782" lon="13.82684"><ele>349.0</ele><time>2026-05-02T09:45:41.07Z</time></trkpt><trkpt lat="42.2177667" lon="13.826745"><ele>349.0</ele><time>2026-05-02T09:45:42.07Z</time></trkpt><trkpt lat="42.2176883" lon="13.82667"><ele>349.0</ele><time>2026-05-02T09:45:43.07Z</time></trkpt><trkpt lat="42.217605" lon="13.8266067"><ele>349.0</ele><time>2026-05-02T09:45:44.069Z</time></trkpt><trkpt lat="42.2175217" lon="13.826555"><ele>347.8333333333333</ele><time>2026-05-02T09:45:45.069Z</time></trkpt><trkpt lat="42.2174417" lon="13.82651"><ele>346.66666666666663</ele><time>2026-05-02T09:45:46.069Z</time></trkpt><trkpt lat="42.2173833" lon="13.826455"><ele>345.5</ele><time>2026-05-02T09:45:47.069Z</time></trkpt><trkpt lat="42.2173367" lon="13.826335"><ele>344.3333333333333</ele><time>2026-05-02T09:45:49.069Z</time></trkpt><trkpt lat="42.2173633" lon="13.826255"><ele>343.1666666666667</ele><time>2026-05-02T09:45:50.069Z</time></trkpt><trkpt lat="42.2174167" lon="13.8261667"><ele>342.0</ele><time>2026-05-02T09:45:51.07Z</time></trkpt><trkpt lat="42.217485" lon="13.8260533"><ele>339.8</ele><time>2026-05-02T09:45:52.07Z</time></trkpt><trkpt lat="42.2175783" lon="13.82593"><ele>337.6</ele><time>2026-05-02T09:45:53.069Z</time></trkpt><trkpt lat="42.2176617" lon="13.8258117"><ele>335.40000000000003</ele><time>2026-05-02T09:45:54.07Z</time></trkpt><trkpt lat="42.2177183" lon="13.8257017"><ele>333.20000000000005</ele><time>2026-05-02T09:45:55.069Z</time></trkpt><trkpt lat="42.2177567" lon="13.825595"><ele>331.0</ele><time>2026-05-02T09:45:56.069Z</time></trkpt><trkpt lat="42.217765" lon="13.82549"><ele>331.0</ele><time>2026-05-02T09:45:57.07Z</time></trkpt><trkpt lat="42.2177433" lon="13.82538"><ele>331.0</ele><time>2026-05-02T09:45:58.069Z</time></trkpt><trkpt lat="42.2176983" lon="13.8252783"><ele>331.0</ele><time>2026-05-02T09:45:59.069Z</time></trkpt><trkpt lat="42.217635" lon="13.825205"><ele>331.0</ele><time>2026-05-02T09:46:00.069Z</time></trkpt><trkpt lat="42.2175567" lon="13.82515"><ele>331.0</ele><time>2026-05-02T09:46:01.069Z</time></trkpt><trkpt lat="42.217455" lon="13.8251283"><ele>331.0</ele><time>2026-05-02T09:46:02.069Z</time></trkpt><trkpt lat="42.2173567" lon="13.8251133"><ele>329.5</ele><time>2026-05-02T09:46:03.069Z</time></trkpt><trkpt lat="42.2172783" lon="13.825095"><ele>328.0</ele><time>2026-05-02T09:46:04.07Z</time></trkpt><trkpt lat="42.21721" lon="13.8250617"><ele>326.5</ele><time>2026-05-02T09:46:05.07Z</time></trkpt><trkpt lat="42.2171083" lon="13.8249717"><ele>325.0</ele><time>2026-05-02T09:46:07.069Z</time></trkpt><trkpt lat="42.2170617" lon="13.8249017"><ele>323.5</ele><time>2026-05-02T09:46:08.069Z</time></trkpt><trkpt lat="42.2170067" lon="13.824815"><ele>322.0</ele><time>2026-05-02T09:46:09.07Z</time></trkpt><trkpt lat="42.2169433" lon="13.8247017"><ele>322.0</ele><time>2026-05-02T09:46:10.07Z</time></trkpt><trkpt lat="42.2168717" lon="13.8245517"><ele>322.0</ele><time>2026-05-02T09:46:11.069Z</time></trkpt><trkpt lat="42.2167967" lon="13.8243633"><ele>322.0</ele><time>2026-05-02T09:46:12.069Z</time></trkpt><trkpt lat="42.2167117" lon="13.824165"><ele>321.0</ele><time>2026-05-02T09:46:13.069Z</time></trkpt><trkpt lat="42.2166267" lon="13.823965"><ele>320.0</ele><time>2026-05-02T09:46:14.07Z</time></trkpt><trkpt lat="42.216545" lon="13.8237733"><ele>319.0</ele><time>2026-05-02T09:46:15.069Z</time></trkpt><trkpt lat="42.21647" lon="13.8235933"><ele>317.5</ele><time>2026-05-02T09:46:16.069Z</time></trkpt><trkpt lat="42.2163967" lon="13.8234233"><ele>316.0</ele><time>2026-05-02T09:46:17.07Z</time></trkpt><trkpt lat="42.21633" lon="13.8232633"><ele>314.5</ele><time>2026-05-02T09:46:18.069Z</time></trkpt><trkpt lat="42.2162717" lon="13.8231233"><ele>313.0</ele><time>2026-05-02T09:46:19.069Z</time></trkpt><trkpt lat="42.21622" lon="13.8229867"><ele>313.0</ele><time>2026-05-02T09:46:20.07Z</time></trkpt><trkpt lat="42.2161783" lon="13.82286"><ele>313.0</ele><time>2026-05-02T09:46:21.069Z</time></trkpt><trkpt lat="42.2161317" lon="13.8227483"><ele>313.0</ele><time>2026-05-02T09:46:22.07Z</time></trkpt><trkpt lat="42.2160817" lon="13.82264"><ele>313.0</ele><time>2026-05-02T09:46:23.07Z</time></trkpt><trkpt lat="42.2160283" lon="13.822525"><ele>313.0</ele><time>2026-05-02T09:46:24.07Z</time></trkpt><trkpt lat="42.2159633" lon="13.8224183"><ele>313.4</ele><time>2026-05-02T09:46:25.07Z</time></trkpt><trkpt lat="42.2158883" lon="13.8223367"><ele>313.8</ele><time>2026-05-02T09:46:26.07Z</time></trkpt><trkpt lat="42.2157867" lon="13.8222833"><ele>314.2</ele><time>2026-05-02T09:46:27.07Z</time></trkpt><trkpt lat="42.21568" lon="13.8222667"><ele>314.6</ele><time>2026-05-02T09:46:28.07Z</time></trkpt><trkpt lat="42.2155733" lon="13.8222783"><ele>315.0</ele><time>2026-05-02T09:46:29.07Z</time></trkpt><trkpt lat="42.2154617" lon="13.8222983"><ele>315.5</ele><time>2026-05-02T09:46:30.069Z</time></trkpt><trkpt lat="42.2153533" lon="13.8223467"><ele>316.0</ele><time>2026-05-02T09:46:31.07Z</time></trkpt><trkpt lat="42.215245" lon="13.822415"><ele>316.5</ele><time>2026-05-02T09:46:32.069Z</time></trkpt><trkpt lat="42.21513" lon="13.822495"><ele>317.0</ele><time>2026-05-02T09:46:33.069Z</time></trkpt><trkpt lat="42.215015" lon="13.8225667"><ele>317.0</ele><time>2026-05-02T09:46:34.07Z</time></trkpt><trkpt lat="42.2149017" lon="13.8226417"><ele>317.0</ele><time>2026-05-02T09:46:35.069Z</time></trkpt><trkpt lat="42.2148" lon="13.8226933"><ele>317.0</ele><time>2026-05-02T09:46:36.07Z</time></trkpt><trkpt lat="42.2147083" lon="13.8227417"><ele>317.0</ele><time>2026-05-02T09:46:37.069Z</time></trkpt><trkpt lat="42.2146333" lon="13.8227733"><ele>317.0</ele><time>2026-05-02T09:46:38.07Z</time></trkpt><trkpt lat="42.2145633" lon="13.82278"><ele>317.0</ele><time>2026-05-02T09:46:39.07Z</time></trkpt><trkpt lat="42.2144883" lon="13.82277"><ele>317.0</ele><time>2026-05-02T09:46:40.069Z</time></trkpt><trkpt lat="42.2144233" lon="13.8227317"><ele>317.0</ele><time>2026-05-02T09:46:41.07Z</time></trkpt><trkpt lat="42.21435" lon="13.822685"><ele>317.0</ele><time>2026-05-02T09:46:42.069Z</time></trkpt><trkpt lat="42.2142833" lon="13.8226267"><ele>317.0</ele><time>2026-05-02T09:46:43.069Z</time></trkpt><trkpt lat="42.21423" lon="13.8225467"><ele>317.0</ele><time>2026-05-02T09:46:44.069Z</time></trkpt><trkpt lat="42.2141783" lon="13.82247"><ele>317.0</ele><time>2026-05-02T09:46:45.069Z</time></trkpt><trkpt lat="42.2141367" lon="13.8224033"><ele>317.0</ele><time>2026-05-02T09:46:46.069Z</time></trkpt><trkpt lat="42.2140867" lon="13.8222883"><ele>317.0</ele><time>2026-05-02T09:46:48.069Z</time></trkpt><trkpt lat="42.2140533" lon="13.8221983"><ele>317.0</ele><time>2026-05-02T09:46:50.07Z</time></trkpt><trkpt lat="42.2140183" lon="13.822125"><ele>317.0</ele><time>2026-05-02T09:46:53.07Z</time></trkpt><trkpt lat="42.2139267" lon="13.8220933"><ele>317.0</ele><time>2026-05-02T09:47:04.07Z</time></trkpt><trkpt lat="42.21386" lon="13.8221067"><ele>317.0</ele><time>2026-05-02T09:47:06.069Z</time></trkpt><trkpt lat="42.2137933" lon="13.822155"><ele>317.0</ele><time>2026-05-02T09:47:09.07Z</time></trkpt><trkpt lat="42.2138767" lon="13.8221083"><ele>317.0</ele><time>2026-05-02T10:10:23.067Z</time></trkpt><trkpt lat="42.2140033" lon="13.8220467"><ele>317.0</ele><time>2026-05-02T10:10:25.067Z</time></trkpt><trkpt lat="42.2140767" lon="13.8219983"><ele>317.0</ele><time>2026-05-02T10:10:26.067Z</time></trkpt><trkpt lat="42.21416" lon="13.8219217"><ele>317.0</ele><time>2026-05-02T10:10:27.066Z</time></trkpt><trkpt lat="42.2142533" lon="13.8218233"><ele>317.0</ele><time>2026-05-02T10:10:28.066Z</time></trkpt><trkpt lat="42.21434" lon="13.8217167"><ele>317.0</ele><time>2026-05-02T10:10:29.066Z</time></trkpt><trkpt lat="42.2144133" lon="13.821615"><ele>317.0</ele><time>2026-05-02T10:10:30.066Z</time></trkpt><trkpt lat="42.2144767" lon="13.8215267"><ele>317.0</ele><time>2026-05-02T10:10:31.067Z</time></trkpt><trkpt lat="42.2145417" lon="13.821425"><ele>317.0</ele><time>2026-05-02T10:10:32.066Z</time></trkpt><trkpt lat="42.2146217" lon="13.8213217"><ele>317.0</ele><time>2026-05-02T10:10:33.066Z</time></trkpt><trkpt lat="42.2146917" lon="13.821215"><ele>317.0</ele><time>2026-05-02T10:10:34.066Z</time></trkpt><trkpt lat="42.21476" lon="13.8211067"><ele>317.0</ele><time>2026-05-02T10:10:35.066Z</time></trkpt><trkpt lat="42.2148267" lon="13.8210067"><ele>317.0</ele><time>2026-05-02T10:10:36.066Z</time></trkpt><trkpt lat="42.2148783" lon="13.8209233"><ele>317.4</ele><time>2026-05-02T10:10:37.066Z</time></trkpt><trkpt lat="42.2149467" lon="13.8208067"><ele>317.79999999999995</ele><time>2026-05-02T10:10:39.066Z</time></trkpt><trkpt lat="42.2149683" lon="13.8206767"><ele>318.2</ele><time>2026-05-02T10:10:41.066Z</time></trkpt><trkpt lat="42.21496" lon="13.820545"><ele>318.59999999999997</ele><time>2026-05-02T10:10:43.066Z</time></trkpt><trkpt lat="42.2149533" lon="13.8204433"><ele>319.0</ele><time>2026-05-02T10:10:46.066Z</time></trkpt><trkpt lat="42.2150117" lon="13.820385"><ele>319.0</ele><time>2026-05-02T10:15:49.065Z</time></trkpt><trkpt lat="42.2150733" lon="13.820355"><ele>319.0</ele><time>2026-05-02T10:15:51.066Z</time></trkpt><trkpt lat="42.2151783" lon="13.8203483"><ele>319.0</ele><time>2026-05-02T10:15:53.065Z</time></trkpt><trkpt lat="42.21526" lon="13.82033"><ele>319.0</ele><time>2026-05-02T10:15:56.066Z</time></trkpt><trkpt lat="42.2153083" lon="13.82027"><ele>319.0</ele><time>2026-05-02T10:16:01.065Z</time></trkpt><trkpt lat="42.21536" lon="13.82021"><ele>319.0</ele><time>2026-05-02T10:16:02.066Z</time></trkpt><trkpt lat="42.215425" lon="13.8201267"><ele>319.0</ele><time>2026-05-02T10:16:03.066Z</time></trkpt><trkpt lat="42.2154967" lon="13.820035"><ele>319.0</ele><time>2026-05-02T10:16:04.065Z</time></trkpt><trkpt lat="42.21558" lon="13.8199183"><ele>319.0</ele><time>2026-05-02T10:16:05.065Z</time></trkpt><trkpt lat="42.2156683" lon="13.8197833"><ele>319.0</ele><time>2026-05-02T10:16:06.066Z</time></trkpt><trkpt lat="42.2157683" lon="13.8196317"><ele>319.0</ele><time>2026-05-02T10:16:07.066Z</time></trkpt><trkpt lat="42.215865" lon="13.8194867"><ele>319.0</ele><time>2026-05-02T10:16:08.065Z</time></trkpt><trkpt lat="42.2159533" lon="13.81934"><ele>319.0</ele><time>2026-05-02T10:16:09.065Z</time></trkpt><trkpt lat="42.2160417" lon="13.8192267"><ele>319.0</ele><time>2026-05-02T10:16:10.065Z</time></trkpt><trkpt lat="42.2161133" lon="13.8191217"><ele>319.16666666666663</ele><time>2026-05-02T10:16:11.065Z</time></trkpt><trkpt lat="42.216165" lon="13.81902"><ele>319.3333333333333</ele><time>2026-05-02T10:16:12.066Z</time></trkpt><trkpt lat="42.2161983" lon="13.8189267"><ele>319.5</ele><time>2026-05-02T10:16:13.065Z</time></trkpt><trkpt lat="42.2162167" lon="13.8188117"><ele>319.6666666666667</ele><time>2026-05-02T10:16:14.065Z</time></trkpt><trkpt lat="42.2162167" lon="13.8186883"><ele>319.83333333333337</ele><time>2026-05-02T10:16:15.065Z</time></trkpt><trkpt lat="42.2162133" lon="13.818555"><ele>320.0</ele><time>2026-05-02T10:16:16.065Z</time></trkpt><trkpt lat="42.2162117" lon="13.818435"><ele>319.6</ele><time>2026-05-02T10:16:17.066Z</time></trkpt><trkpt lat="42.21623" lon="13.8183433"><ele>319.2</ele><time>2026-05-02T10:16:18.066Z</time></trkpt><trkpt lat="42.2162633" lon="13.818265"><ele>318.8</ele><time>2026-05-02T10:16:19.066Z</time></trkpt><trkpt lat="42.2163217" lon="13.8181783"><ele>318.4</ele><time>2026-05-02T10:16:20.065Z</time></trkpt><trkpt lat="42.2164033" lon="13.8180917"><ele>318.0</ele><time>2026-05-02T10:16:21.065Z</time></trkpt><trkpt lat="42.216505" lon="13.817995"><ele>318.0</ele><time>2026-05-02T10:16:22.065Z</time></trkpt><trkpt lat="42.2166233" lon="13.8178917"><ele>318.0</ele><time>2026-05-02T10:16:23.065Z</time></trkpt><trkpt lat="42.216755" lon="13.8177883"><ele>318.0</ele><time>2026-05-02T10:16:24.065Z</time></trkpt><trkpt lat="42.2168983" lon="13.8176883"><ele>318.3333333333333</ele><time>2026-05-02T10:16:25.065Z</time></trkpt><trkpt lat="42.2170583" lon="13.817605"><ele>318.66666666666663</ele><time>2026-05-02T10:16:26.065Z</time></trkpt><trkpt lat="42.2172267" lon="13.8175183"><ele>319.0</ele><time>2026-05-02T10:16:27.065Z</time></trkpt><trkpt lat="42.2174117" lon="13.8174483"><ele>319.0</ele><time>2026-05-02T10:16:28.065Z</time></trkpt><trkpt lat="42.2176033" lon="13.8173883"><ele>319.0</ele><time>2026-05-02T10:16:29.066Z</time></trkpt><trkpt lat="42.2178" lon="13.817345"><ele>319.0</ele><time>2026-05-02T10:16:30.065Z</time></trkpt><trkpt lat="42.218" lon="13.8173"><ele>318.66666666666663</ele><time>2026-05-02T10:16:31.066Z</time></trkpt><trkpt lat="42.2182033" lon="13.8172633"><ele>318.3333333333333</ele><time>2026-05-02T10:16:32.066Z</time></trkpt><trkpt lat="42.218415" lon="13.8172267"><ele>318.0</ele><time>2026-05-02T10:16:33.066Z</time></trkpt><trkpt lat="42.2186317" lon="13.81718"><ele>318.0</ele><time>2026-05-02T10:16:34.066Z</time></trkpt><trkpt lat="42.2188433" lon="13.8171433"><ele>318.0</ele><time>2026-05-02T10:16:35.065Z</time></trkpt><trkpt lat="42.2190583" lon="13.817115"><ele>318.0</ele><time>2026-05-02T10:16:36.065Z</time></trkpt><trkpt lat="42.2192783" lon="13.8170783"><ele>318.0</ele><time>2026-05-02T10:16:37.065Z</time></trkpt><trkpt lat="42.2194983" lon="13.8170533"><ele>318.0</ele><time>2026-05-02T10:16:38.065Z</time></trkpt><trkpt lat="42.2197133" lon="13.81705"><ele>318.0</ele><time>2026-05-02T10:16:39.065Z</time></trkpt><trkpt lat="42.2199267" lon="13.81706"><ele>318.0</ele><time>2026-05-02T10:16:40.065Z</time></trkpt><trkpt lat="42.2201333" lon="13.8170933"><ele>318.0</ele><time>2026-05-02T10:16:41.065Z</time></trkpt><trkpt lat="42.220325" lon="13.8171333"><ele>318.0</ele><time>2026-05-02T10:16:42.064Z</time></trkpt><trkpt lat="42.2205283" lon="13.8171967"><ele>317.6666666666667</ele><time>2026-05-02T10:16:43.065Z</time></trkpt><trkpt lat="42.22073" lon="13.8172633"><ele>317.33333333333337</ele><time>2026-05-02T10:16:44.064Z</time></trkpt><trkpt lat="42.2209367" lon="13.81731"><ele>317.0</ele><time>2026-05-02T10:16:45.065Z</time></trkpt><trkpt lat="42.2211383" lon="13.8173683"><ele>317.0</ele><time>2026-05-02T10:16:46.065Z</time></trkpt><trkpt lat="42.22134" lon="13.8174133"><ele>317.0</ele><time>2026-05-02T10:16:47.064Z</time></trkpt><trkpt lat="42.22154" lon="13.8174483"><ele>317.0</ele><time>2026-05-02T10:16:48.065Z</time></trkpt><trkpt lat="42.2217483" lon="13.8174567"><ele>317.0</ele><time>2026-05-02T10:16:49.064Z</time></trkpt><trkpt lat="42.22196" lon="13.817455"><ele>317.0</ele><time>2026-05-02T10:16:50.065Z</time></trkpt><trkpt lat="42.222165" lon="13.8174333"><ele>317.0</ele><time>2026-05-02T10:16:51.064Z</time></trkpt><trkpt lat="42.2223717" lon="13.81738"><ele>318.0</ele><time>2026-05-02T10:16:52.064Z</time></trkpt><trkpt lat="42.2225767" lon="13.817315"><ele>319.0</ele><time>2026-05-02T10:16:53.064Z</time></trkpt><trkpt lat="42.2227817" lon="13.8172283"><ele>320.0</ele><time>2026-05-02T10:16:54.064Z</time></trkpt><trkpt lat="42.2229867" lon="13.8171167"><ele>320.33333333333337</ele><time>2026-05-02T10:16:55.064Z</time></trkpt><trkpt lat="42.2231817" lon="13.8169833"><ele>320.6666666666667</ele><time>2026-05-02T10:16:56.064Z</time></trkpt><trkpt lat="42.2233767" lon="13.8168333"><ele>321.0</ele><time>2026-05-02T10:16:57.065Z</time></trkpt><trkpt lat="42.2235733" lon="13.81667"><ele>321.0</ele><time>2026-05-02T10:16:58.064Z</time></trkpt><trkpt lat="42.2237633" lon="13.8165183"><ele>321.0</ele><time>2026-05-02T10:16:59.065Z</time></trkpt><trkpt lat="42.223955" lon="13.81636"><ele>321.0</ele><time>2026-05-02T10:17:00.064Z</time></trkpt><trkpt lat="42.2241517" lon="13.8162033"><ele>320.5</ele><time>2026-05-02T10:17:01.065Z</time></trkpt><trkpt lat="42.2243483" lon="13.8160433"><ele>320.0</ele><time>2026-05-02T10:17:02.065Z</time></trkpt><trkpt lat="42.2245417" lon="13.8158883"><ele>320.0</ele><time>2026-05-02T10:17:03.064Z</time></trkpt><trkpt lat="42.224745" lon="13.8157483"><ele>320.0</ele><time>2026-05-02T10:17:04.064Z</time></trkpt><trkpt lat="42.2249517" lon="13.81562"><ele>319.0</ele><time>2026-05-02T10:17:05.064Z</time></trkpt><trkpt lat="42.22516" lon="13.81551"><ele>318.0</ele><time>2026-05-02T10:17:06.064Z</time></trkpt><trkpt lat="42.225375" lon="13.815425"><ele>317.0</ele><time>2026-05-02T10:17:07.065Z</time></trkpt><trkpt lat="42.22559" lon="13.8153617"><ele>317.0</ele><time>2026-05-02T10:17:08.064Z</time></trkpt><trkpt lat="42.22581" lon="13.8153067"><ele>317.0</ele><time>2026-05-02T10:17:09.065Z</time></trkpt><trkpt lat="42.2260283" lon="13.81525"><ele>317.0</ele><time>2026-05-02T10:17:10.064Z</time></trkpt><trkpt lat="42.2262517" lon="13.8151867"><ele>320.0</ele><time>2026-05-02T10:17:11.064Z</time></trkpt><trkpt lat="42.2264733" lon="13.815125"><ele>323.0</ele><time>2026-05-02T10:17:12.064Z</time></trkpt><trkpt lat="42.2266933" lon="13.81507"><ele>323.0</ele><time>2026-05-02T10:17:13.065Z</time></trkpt><trkpt lat="42.2269067" lon="13.8150133"><ele>323.0</ele><time>2026-05-02T10:17:14.065Z</time></trkpt><trkpt lat="42.2271117" lon="13.814965"><ele>323.0</ele><time>2026-05-02T10:17:15.065Z</time></trkpt><trkpt lat="42.2273083" lon="13.8149217"><ele>321.6666666666667</ele><time>2026-05-02T10:17:16.064Z</time></trkpt><trkpt lat="42.2274883" lon="13.8148883"><ele>320.3333333333333</ele><time>2026-05-02T10:17:17.065Z</time></trkpt><trkpt lat="42.2276667" lon="13.8148567"><ele>319.0</ele><time>2026-05-02T10:17:18.064Z</time></trkpt><trkpt lat="42.2278483" lon="13.81484"><ele>319.0</ele><time>2026-05-02T10:17:19.064Z</time></trkpt><trkpt lat="42.22801" lon="13.8148233"><ele>319.0</ele><time>2026-05-02T10:17:20.065Z</time></trkpt><trkpt lat="42.22815" lon="13.8148133"><ele>319.0</ele><time>2026-05-02T10:17:21.064Z</time></trkpt><trkpt lat="42.2282733" lon="13.8148"><ele>319.0</ele><time>2026-05-02T10:17:22.065Z</time></trkpt><trkpt lat="42.2283883" lon="13.8147767"><ele>319.0</ele><time>2026-05-02T10:17:23.064Z</time></trkpt><trkpt lat="42.2284817" lon="13.8147683"><ele>319.0</ele><time>2026-05-02T10:17:24.064Z</time></trkpt><trkpt lat="42.2285683" lon="13.81477"><ele>319.0</ele><time>2026-05-02T10:17:25.064Z</time></trkpt><trkpt lat="42.2286417" lon="13.8147833"><ele>319.0</ele><time>2026-05-02T10:17:26.064Z</time></trkpt><trkpt lat="42.228705" lon="13.8148083"><ele>319.0</ele><time>2026-05-02T10:17:27.065Z</time></trkpt><trkpt lat="42.2287683" lon="13.81484"><ele>319.0</ele><time>2026-05-02T10:17:28.064Z</time></trkpt><trkpt lat="42.228835" lon="13.8148733"><ele>319.0</ele><time>2026-05-02T10:17:29.065Z</time></trkpt><trkpt lat="42.228905" lon="13.8149133"><ele>319.0</ele><time>2026-05-02T10:17:30.065Z</time></trkpt><trkpt lat="42.2289817" lon="13.8149583"><ele>319.0</ele><time>2026-05-02T10:17:31.065Z</time></trkpt><trkpt lat="42.2290567" lon="13.81501"><ele>319.0</ele><time>2026-05-02T10:17:32.065Z</time></trkpt><trkpt lat="42.2291417" lon="13.8150583"><ele>319.0</ele><time>2026-05-02T10:17:33.064Z</time></trkpt><trkpt lat="42.2292383" lon="13.8151133"><ele>319.0</ele><time>2026-05-02T10:17:34.064Z</time></trkpt><trkpt lat="42.2293267" lon="13.8151583"><ele>318.8</ele><time>2026-05-02T10:17:35.064Z</time></trkpt><trkpt lat="42.2294" lon="13.8151833"><ele>318.59999999999997</ele><time>2026-05-02T10:17:36.065Z</time></trkpt><trkpt lat="42.2295067" lon="13.8152567"><ele>318.4</ele><time>2026-05-02T10:17:38.065Z</time></trkpt><trkpt lat="42.229615" lon="13.815375"><ele>318.2</ele><time>2026-05-02T10:17:40.065Z</time></trkpt><trkpt lat="42.229665" lon="13.8154483"><ele>318.0</ele><time>2026-05-02T10:17:41.065Z</time></trkpt><trkpt lat="42.2297083" lon="13.8155283"><ele>318.0</ele><time>2026-05-02T10:17:42.065Z</time></trkpt><trkpt lat="42.2297567" lon="13.8156083"><ele>318.0</ele><time>2026-05-02T10:17:43.064Z</time></trkpt><trkpt lat="42.2298" lon="13.8156983"><ele>318.0</ele><time>2026-05-02T10:17:44.064Z</time></trkpt><trkpt lat="42.2298433" lon="13.8157917"><ele>318.0</ele><time>2026-05-02T10:17:45.064Z</time></trkpt><trkpt lat="42.2298867" lon="13.8158817"><ele>318.0</ele><time>2026-05-02T10:17:46.064Z</time></trkpt><trkpt lat="42.2299167" lon="13.815965"><ele>318.0</ele><time>2026-05-02T10:17:47.064Z</time></trkpt><trkpt lat="42.2299267" lon="13.8160533"><ele>317.6666666666667</ele><time>2026-05-02T10:17:48.064Z</time></trkpt><trkpt lat="42.22992" lon="13.81615"><ele>317.3333333333333</ele><time>2026-05-02T10:17:49.065Z</time></trkpt><trkpt lat="42.2299117" lon="13.8162567"><ele>317.0</ele><time>2026-05-02T10:17:50.064Z</time></trkpt><trkpt lat="42.2299017" lon="13.8163633"><ele>316.66666666666663</ele><time>2026-05-02T10:17:51.064Z</time></trkpt><trkpt lat="42.229895" lon="13.8164583"><ele>316.3333333333333</ele><time>2026-05-02T10:17:52.064Z</time></trkpt><trkpt lat="42.2298967" lon="13.816545"><ele>316.0</ele><time>2026-05-02T10:17:53.064Z</time></trkpt><trkpt lat="42.2299083" lon="13.8167033"><ele>315.6</ele><time>2026-05-02T10:17:55.065Z</time></trkpt><trkpt lat="42.2299383" lon="13.81687"><ele>315.20000000000005</ele><time>2026-05-02T10:17:57.065Z</time></trkpt><trkpt lat="42.2299517" lon="13.816975"><ele>314.79999999999995</ele><time>2026-05-02T10:17:58.064Z</time></trkpt><trkpt lat="42.22997" lon="13.817095"><ele>314.4</ele><time>2026-05-02T10:17:59.064Z</time></trkpt><trkpt lat="42.2299917" lon="13.8172517"><ele>314.0</ele><time>2026-05-02T10:18:00.064Z</time></trkpt><trkpt lat="42.2300133" lon="13.8174383"><ele>314.0</ele><time>2026-05-02T10:18:01.065Z</time></trkpt><trkpt lat="42.23003" lon="13.817635"><ele>314.0</ele><time>2026-05-02T10:18:02.065Z</time></trkpt><trkpt lat="42.2300467" lon="13.8178567"><ele>314.0</ele><time>2026-05-02T10:18:03.064Z</time></trkpt><trkpt lat="42.2300633" lon="13.8180933"><ele>314.33333333333337</ele><time>2026-05-02T10:18:04.065Z</time></trkpt><trkpt lat="42.2300817" lon="13.81834"><ele>314.6666666666667</ele><time>2026-05-02T10:18:05.065Z</time></trkpt><trkpt lat="42.23009" lon="13.818595"><ele>315.0</ele><time>2026-05-02T10:18:06.065Z</time></trkpt><trkpt lat="42.2300917" lon="13.8188267"><ele>315.0</ele><time>2026-05-02T10:18:07.065Z</time></trkpt><trkpt lat="42.230095" lon="13.8190317"><ele>315.0</ele><time>2026-05-02T10:18:08.064Z</time></trkpt><trkpt lat="42.2301033" lon="13.8192117"><ele>315.0</ele><time>2026-05-02T10:18:09.065Z</time></trkpt><trkpt lat="42.2301117" lon="13.8193567"><ele>315.0</ele><time>2026-05-02T10:18:10.064Z</time></trkpt><trkpt lat="42.23012" lon="13.81948"><ele>315.6</ele><time>2026-05-02T10:18:11.065Z</time></trkpt><trkpt lat="42.2301383" lon="13.819575"><ele>316.2</ele><time>2026-05-02T10:18:12.064Z</time></trkpt><trkpt lat="42.2301983" lon="13.8196567"><ele>316.8</ele><time>2026-05-02T10:18:15.064Z</time></trkpt><trkpt lat="42.2303067" lon="13.8196583"><ele>317.4</ele><time>2026-05-02T10:18:17.065Z</time></trkpt><trkpt lat="42.23039" lon="13.8196383"><ele>318.0</ele><time>2026-05-02T10:18:18.064Z</time></trkpt><trkpt lat="42.230495" lon="13.8196217"><ele>318.0</ele><time>2026-05-02T10:18:19.064Z</time></trkpt><trkpt lat="42.23061" lon="13.819605"><ele>318.0</ele><time>2026-05-02T10:18:20.064Z</time></trkpt><trkpt lat="42.2307433" lon="13.819595"><ele>318.0</ele><time>2026-05-02T10:18:21.064Z</time></trkpt><trkpt lat="42.2308883" lon="13.81957"><ele>318.0</ele><time>2026-05-02T10:18:22.064Z</time></trkpt><trkpt lat="42.2310283" lon="13.8195267"><ele>317.75</ele><time>2026-05-02T10:18:23.065Z</time></trkpt><trkpt lat="42.2311633" lon="13.8194617"><ele>317.5</ele><time>2026-05-02T10:18:24.064Z</time></trkpt><trkpt lat="42.2312983" lon="13.819375"><ele>317.25</ele><time>2026-05-02T10:18:25.065Z</time></trkpt><trkpt lat="42.2314333" lon="13.819285"><ele>317.0</ele><time>2026-05-02T10:18:26.065Z</time></trkpt><trkpt lat="42.2315783" lon="13.8192033"><ele>318.0</ele><time>2026-05-02T10:18:27.064Z</time></trkpt><trkpt lat="42.231735" lon="13.8191417"><ele>319.0</ele><time>2026-05-02T10:18:28.064Z</time></trkpt><trkpt lat="42.2319033" lon="13.8191033"><ele>320.0</ele><time>2026-05-02T10:18:29.065Z</time></trkpt><trkpt lat="42.2320867" lon="13.8190767"><ele>320.0</ele><time>2026-05-02T10:18:30.065Z</time></trkpt><trkpt lat="42.2322883" lon="13.819065"><ele>320.0</ele><time>2026-05-02T10:18:31.065Z</time></trkpt><trkpt lat="42.2324867" lon="13.8190567"><ele>320.0</ele><time>2026-05-02T10:18:32.064Z</time></trkpt><trkpt lat="42.2326783" lon="13.8190467"><ele>320.33333333333337</ele><time>2026-05-02T10:18:33.064Z</time></trkpt><trkpt lat="42.23285" lon="13.8190117"><ele>320.6666666666667</ele><time>2026-05-02T10:18:34.065Z</time></trkpt><trkpt lat="42.2330317" lon="13.8189517"><ele>321.0</ele><time>2026-05-02T10:18:35.064Z</time></trkpt><trkpt lat="42.2332183" lon="13.8188783"><ele>324.3333333333333</ele><time>2026-05-02T10:18:36.065Z</time></trkpt><trkpt lat="42.2333983" lon="13.818785"><ele>327.66666666666663</ele><time>2026-05-02T10:18:37.065Z</time></trkpt><trkpt lat="42.233585" lon="13.8186783"><ele>331.0</ele><time>2026-05-02T10:18:38.064Z</time></trkpt><trkpt lat="42.2337767" lon="13.8185683"><ele>329.3333333333333</ele><time>2026-05-02T10:18:39.064Z</time></trkpt><trkpt lat="42.233945" lon="13.8184667"><ele>327.6666666666667</ele><time>2026-05-02T10:18:40.064Z</time></trkpt><trkpt lat="42.2341117" lon="13.8183617"><ele>326.0</ele><time>2026-05-02T10:18:41.065Z</time></trkpt><trkpt lat="42.2342717" lon="13.8182317"><ele>326.0</ele><time>2026-05-02T10:18:42.065Z</time></trkpt><trkpt lat="42.2344283" lon="13.8180833"><ele>326.0</ele><time>2026-05-02T10:18:43.065Z</time></trkpt><trkpt lat="42.234575" lon="13.817925"><ele>326.0</ele><time>2026-05-02T10:18:44.065Z</time></trkpt><trkpt lat="42.2347167" lon="13.81774"><ele>324.33333333333337</ele><time>2026-05-02T10:18:45.064Z</time></trkpt><trkpt lat="42.2348383" lon="13.8175633"><ele>322.6666666666667</ele><time>2026-05-02T10:18:46.064Z</time></trkpt><trkpt lat="42.2349433" lon="13.817395"><ele>321.0</ele><time>2026-05-02T10:18:47.065Z</time></trkpt><trkpt lat="42.2350283" lon="13.81725"><ele>321.0</ele><time>2026-05-02T10:18:48.064Z</time></trkpt><trkpt lat="42.2350967" lon="13.817125"><ele>321.0</ele><time>2026-05-02T10:18:49.065Z</time></trkpt><trkpt lat="42.2351467" lon="13.8170167"><ele>321.0</ele><time>2026-05-02T10:18:50.064Z</time></trkpt><trkpt lat="42.2351833" lon="13.8169283"><ele>321.0</ele><time>2026-05-02T10:18:51.065Z</time></trkpt><trkpt lat="42.23521" lon="13.81685"><ele>321.0</ele><time>2026-05-02T10:18:52.064Z</time></trkpt><trkpt lat="42.2352533" lon="13.8167367"><ele>321.0</ele><time>2026-05-02T10:18:54.064Z</time></trkpt><trkpt lat="42.23531" lon="13.8166267"><ele>321.20000000000005</ele><time>2026-05-02T10:19:10.065Z</time></trkpt><trkpt lat="42.2353733" lon="13.8165417"><ele>321.40000000000003</ele><time>2026-05-02T10:19:12.064Z</time></trkpt><trkpt lat="42.2354583" lon="13.8164467"><ele>321.6</ele><time>2026-05-02T10:19:14.064Z</time></trkpt><trkpt lat="42.2355383" lon="13.8163783"><ele>321.8</ele><time>2026-05-02T10:19:16.065Z</time></trkpt><trkpt lat="42.2356283" lon="13.8163167"><ele>322.0</ele><time>2026-05-02T10:19:18.064Z</time></trkpt><trkpt lat="42.2356917" lon="13.8162883"><ele>322.0</ele><time>2026-05-02T10:19:19.064Z</time></trkpt><trkpt lat="42.2357717" lon="13.81627"><ele>322.0</ele><time>2026-05-02T10:19:20.064Z</time></trkpt><trkpt lat="42.2358667" lon="13.8162667"><ele>322.0</ele><time>2026-05-02T10:19:21.065Z</time></trkpt><trkpt lat="42.2359733" lon="13.81629"><ele>322.0</ele><time>2026-05-02T10:19:22.064Z</time></trkpt><trkpt lat="42.236095" lon="13.8163383"><ele>322.0</ele><time>2026-05-02T10:19:23.064Z</time></trkpt><trkpt lat="42.23622" lon="13.8164233"><ele>322.0</ele><time>2026-05-02T10:19:24.065Z</time></trkpt><trkpt lat="42.2363417" lon="13.81653"><ele>322.0</ele><time>2026-05-02T10:19:25.064Z</time></trkpt><trkpt lat="42.236475" lon="13.8166283"><ele>322.0</ele><time>2026-05-02T10:19:26.064Z</time></trkpt><trkpt lat="42.2366167" lon="13.816695"><ele>322.0</ele><time>2026-05-02T10:19:27.065Z</time></trkpt><trkpt lat="42.23676" lon="13.816735"><ele>321.5</ele><time>2026-05-02T10:19:28.065Z</time></trkpt><trkpt lat="42.2369083" lon="13.8167567"><ele>321.0</ele><time>2026-05-02T10:19:29.065Z</time></trkpt><trkpt lat="42.237045" lon="13.8167517"><ele>320.5</ele><time>2026-05-02T10:19:30.064Z</time></trkpt><trkpt lat="42.2371883" lon="13.8167217"><ele>320.0</ele><time>2026-05-02T10:19:31.065Z</time></trkpt><trkpt lat="42.2373467" lon="13.81667"><ele>319.6666666666667</ele><time>2026-05-02T10:19:32.064Z</time></trkpt><trkpt lat="42.2375133" lon="13.8165933"><ele>319.3333333333333</ele><time>2026-05-02T10:19:33.065Z</time></trkpt><trkpt lat="42.2376833" lon="13.8165133"><ele>319.0</ele><time>2026-05-02T10:19:34.065Z</time></trkpt><trkpt lat="42.2378667" lon="13.8164267"><ele>319.0</ele><time>2026-05-02T10:19:35.064Z</time></trkpt><trkpt lat="42.2380433" lon="13.8163367"><ele>319.0</ele><time>2026-05-02T10:19:36.065Z</time></trkpt><trkpt lat="42.2382033" lon="13.81626"><ele>319.0</ele><time>2026-05-02T10:19:37.064Z</time></trkpt><trkpt lat="42.2383517" lon="13.8161933"><ele>319.0</ele><time>2026-05-02T10:19:38.064Z</time></trkpt><trkpt lat="42.2384783" lon="13.8161317"><ele>319.0</ele><time>2026-05-02T10:19:39.064Z</time></trkpt><trkpt lat="42.2386017" lon="13.8161033"><ele>319.0</ele><time>2026-05-02T10:19:40.064Z</time></trkpt><trkpt lat="42.2387283" lon="13.8161083"><ele>319.0</ele><time>2026-05-02T10:19:41.065Z</time></trkpt><trkpt lat="42.2388633" lon="13.81612"><ele>319.79999999999995</ele><time>2026-05-02T10:19:42.064Z</time></trkpt><trkpt lat="42.2389917" lon="13.8161517"><ele>320.59999999999997</ele><time>2026-05-02T10:19:43.064Z</time></trkpt><trkpt lat="42.239095" lon="13.8161767"><ele>321.4</ele><time>2026-05-02T10:19:44.064Z</time></trkpt><trkpt lat="42.2391817" lon="13.816195"><ele>322.2</ele><time>2026-05-02T10:19:45.065Z</time></trkpt><trkpt lat="42.23925" lon="13.8162083"><ele>323.0</ele><time>2026-05-02T10:19:46.064Z</time></trkpt><trkpt lat="42.2393317" lon="13.8162333"><ele>323.0</ele><time>2026-05-02T10:19:48.065Z</time></trkpt><trkpt lat="42.2394183" lon="13.816355"><ele>323.0</ele><time>2026-05-02T10:19:50.065Z</time></trkpt><trkpt lat="42.23946" lon="13.816435"><ele>323.0</ele><time>2026-05-02T10:19:51.065Z</time></trkpt><trkpt lat="42.2395567" lon="13.8165033"><ele>323.0</ele><time>2026-05-02T10:19:53.064Z</time></trkpt><trkpt lat="42.239625" lon="13.8165033"><ele>323.0</ele><time>2026-05-02T10:19:54.065Z</time></trkpt><trkpt lat="42.23971" lon="13.8164917"><ele>324.0</ele><time>2026-05-02T10:19:55.065Z</time></trkpt><trkpt lat="42.2398067" lon="13.8164567"><ele>325.0</ele><time>2026-05-02T10:19:56.064Z</time></trkpt><trkpt lat="42.2399133" lon="13.8164133"><ele>326.0</ele><time>2026-05-02T10:19:57.065Z</time></trkpt><trkpt lat="42.2400267" lon="13.8163683"><ele>327.0</ele><time>2026-05-02T10:19:58.064Z</time></trkpt><trkpt lat="42.2401483" lon="13.81635"><ele>327.0</ele><time>2026-05-02T10:19:59.065Z</time></trkpt><trkpt lat="42.240285" lon="13.8163367"><ele>327.0</ele><time>2026-05-02T10:20:00.064Z</time></trkpt><trkpt lat="42.24043" lon="13.8163267"><ele>327.0</ele><time>2026-05-02T10:20:01.064Z</time></trkpt><trkpt lat="42.24056" lon="13.8163283"><ele>327.0</ele><time>2026-05-02T10:20:02.065Z</time></trkpt><trkpt lat="42.24067" lon="13.81633"><ele>327.3333333333333</ele><time>2026-05-02T10:20:03.064Z</time></trkpt><trkpt lat="42.2407633" lon="13.81633"><ele>327.6666666666667</ele><time>2026-05-02T10:20:04.065Z</time></trkpt><trkpt lat="42.2408483" lon="13.81633"><ele>328.0</ele><time>2026-05-02T10:20:05.064Z</time></trkpt><trkpt lat="42.24093" lon="13.8163217"><ele>328.33333333333337</ele><time>2026-05-02T10:20:06.064Z</time></trkpt><trkpt lat="42.2410217" lon="13.8163117"><ele>328.6666666666667</ele><time>2026-05-02T10:20:07.065Z</time></trkpt><trkpt lat="42.2411167" lon="13.816295"><ele>329.0</ele><time>2026-05-02T10:20:08.065Z</time></trkpt><trkpt lat="42.2412117" lon="13.8162667"><ele>329.0</ele><time>2026-05-02T10:20:09.064Z</time></trkpt><trkpt lat="42.24131" lon="13.81622"><ele>329.0</ele><time>2026-05-02T10:20:10.064Z</time></trkpt><trkpt lat="42.24141" lon="13.81616"><ele>329.0</ele><time>2026-05-02T10:20:11.065Z</time></trkpt><trkpt lat="42.2415183" lon="13.816065"><ele>329.0</ele><time>2026-05-02T10:20:12.064Z</time></trkpt><trkpt lat="42.2415933" lon="13.8159683"><ele>329.0</ele><time>2026-05-02T10:20:13.065Z</time></trkpt><trkpt lat="42.2416383" lon="13.8158717"><ele>327.4</ele><time>2026-05-02T10:20:14.065Z</time></trkpt><trkpt lat="42.2416617" lon="13.8157833"><ele>325.79999999999995</ele><time>2026-05-02T10:20:15.064Z</time></trkpt><trkpt lat="42.2416667" lon="13.8156833"><ele>324.20000000000005</ele><time>2026-05-02T10:20:16.064Z</time></trkpt><trkpt lat="42.2416783" lon="13.8155583"><ele>322.6</ele><time>2026-05-02T10:20:17.064Z</time></trkpt><trkpt lat="42.2416983" lon="13.815415"><ele>321.0</ele><time>2026-05-02T10:20:18.064Z</time></trkpt><trkpt lat="42.2417333" lon="13.8152567"><ele>320.6666666666667</ele><time>2026-05-02T10:20:19.065Z</time></trkpt><trkpt lat="42.2417667" lon="13.8151367"><ele>320.3333333333333</ele><time>2026-05-02T10:20:20.064Z</time></trkpt><trkpt lat="42.2418017" lon="13.8150333"><ele>320.0</ele><time>2026-05-02T10:20:21.064Z</time></trkpt><trkpt lat="42.2418333" lon="13.81494"><ele>319.66666666666663</ele><time>2026-05-02T10:20:22.065Z</time></trkpt><trkpt lat="42.241855" lon="13.8148533"><ele>319.3333333333333</ele><time>2026-05-02T10:20:23.065Z</time></trkpt><trkpt lat="42.2418733" lon="13.8147667"><ele>319.0</ele><time>2026-05-02T10:20:24.064Z</time></trkpt><trkpt lat="42.2419367" lon="13.814625"><ele>319.0</ele><time>2026-05-02T10:20:26.065Z</time></trkpt><trkpt lat="42.2420217" lon="13.8145383"><ele>319.0</ele><time>2026-05-02T10:20:28.065Z</time></trkpt><trkpt lat="42.2420933" lon="13.81451"><ele>319.0</ele><time>2026-05-02T10:20:29.064Z</time></trkpt><trkpt lat="42.2421817" lon="13.8144983"><ele>319.0</ele><time>2026-05-02T10:20:30.064Z</time></trkpt><trkpt lat="42.2422617" lon="13.8144817"><ele>319.0</ele><time>2026-05-02T10:20:31.065Z</time></trkpt><trkpt lat="42.24235" lon="13.8144417"><ele>319.0</ele><time>2026-05-02T10:20:32.064Z</time></trkpt><trkpt lat="42.242435" lon="13.8143617"><ele>319.25</ele><time>2026-05-02T10:20:33.065Z</time></trkpt><trkpt lat="42.24252" lon="13.8142617"><ele>319.5</ele><time>2026-05-02T10:20:34.064Z</time></trkpt><trkpt lat="42.2426283" lon="13.81415"><ele>319.75</ele><time>2026-05-02T10:20:35.065Z</time></trkpt><trkpt lat="42.2427367" lon="13.8140333"><ele>320.0</ele><time>2026-05-02T10:20:36.065Z</time></trkpt><trkpt lat="42.2428533" lon="13.8139083"><ele>320.0</ele><time>2026-05-02T10:20:37.064Z</time></trkpt><trkpt lat="42.242965" lon="13.813795"><ele>320.0</ele><time>2026-05-02T10:20:38.065Z</time></trkpt><trkpt lat="42.243065" lon="13.8136717"><ele>320.0</ele><time>2026-05-02T10:20:39.064Z</time></trkpt><trkpt lat="42.24317" lon="13.8135417"><ele>320.0</ele><time>2026-05-02T10:20:40.065Z</time></trkpt><trkpt lat="42.2432633" lon="13.81342"><ele>321.25</ele><time>2026-05-02T10:20:41.065Z</time></trkpt><trkpt lat="42.2433517" lon="13.8133033"><ele>322.5</ele><time>2026-05-02T10:20:42.064Z</time></trkpt><trkpt lat="42.2434567" lon="13.8131883"><ele>323.75</ele><time>2026-05-02T10:20:43.064Z</time></trkpt><trkpt lat="42.243555" lon="13.8130867"><ele>325.0</ele><time>2026-05-02T10:20:44.065Z</time></trkpt><trkpt lat="42.2436433" lon="13.8130033"><ele>325.0</ele><time>2026-05-02T10:20:45.065Z</time></trkpt><trkpt lat="42.2437433" lon="13.8129417"><ele>325.0</ele><time>2026-05-02T10:20:46.065Z</time></trkpt><trkpt lat="42.2438383" lon="13.81291"><ele>325.0</ele><time>2026-05-02T10:20:47.065Z</time></trkpt><trkpt lat="42.2439567" lon="13.8128633"><ele>325.0</ele><time>2026-05-02T10:20:48.064Z</time></trkpt><trkpt lat="42.2440783" lon="13.8128167"><ele>324.2</ele><time>2026-05-02T10:20:49.065Z</time></trkpt><trkpt lat="42.2441817" lon="13.8127583"><ele>323.4</ele><time>2026-05-02T10:20:50.065Z</time></trkpt><trkpt lat="42.2442767" lon="13.81271"><ele>322.6</ele><time>2026-05-02T10:20:51.063Z</time></trkpt><trkpt lat="42.24437" lon="13.81267"><ele>321.8</ele><time>2026-05-02T10:20:52.063Z</time></trkpt><trkpt lat="42.24448" lon="13.81264"><ele>321.0</ele><time>2026-05-02T10:20:53.063Z</time></trkpt><trkpt lat="42.2446017" lon="13.8126083"><ele>321.0</ele><time>2026-05-02T10:20:54.063Z</time></trkpt><trkpt lat="42.2447167" lon="13.8125583"><ele>321.0</ele><time>2026-05-02T10:20:55.064Z</time></trkpt><trkpt lat="42.2448083" lon="13.812505"><ele>321.0</ele><time>2026-05-02T10:20:56.063Z</time></trkpt><trkpt lat="42.2448883" lon="13.8124217"><ele>321.0</ele><time>2026-05-02T10:20:57.064Z</time></trkpt><trkpt lat="42.2449617" lon="13.8123083"><ele>321.0</ele><time>2026-05-02T10:20:58.063Z</time></trkpt><trkpt lat="42.245015" lon="13.8122"><ele>321.75</ele><time>2026-05-02T10:20:59.063Z</time></trkpt><trkpt lat="42.2450517" lon="13.8120617"><ele>322.5</ele><time>2026-05-02T10:21:00.063Z</time></trkpt><trkpt lat="42.2450817" lon="13.8119067"><ele>323.25</ele><time>2026-05-02T10:21:01.063Z</time></trkpt><trkpt lat="42.2451117" lon="13.8117533"><ele>324.0</ele><time>2026-05-02T10:21:02.064Z</time></trkpt><trkpt lat="42.2451517" lon="13.8116217"><ele>324.0</ele><time>2026-05-02T10:21:03.064Z</time></trkpt><trkpt lat="42.2452133" lon="13.8115017"><ele>324.0</ele><time>2026-05-02T10:21:04.064Z</time></trkpt><trkpt lat="42.2452933" lon="13.8113967"><ele>324.0</ele><time>2026-05-02T10:21:05.064Z</time></trkpt><trkpt lat="42.2453933" lon="13.81129"><ele>324.0</ele><time>2026-05-02T10:21:06.064Z</time></trkpt><trkpt lat="42.245495" lon="13.81118"><ele>324.0</ele><time>2026-05-02T10:21:07.064Z</time></trkpt><trkpt lat="42.245625" lon="13.8110533"><ele>324.0</ele><time>2026-05-02T10:21:08.064Z</time></trkpt><trkpt lat="42.2457283" lon="13.8109167"><ele>324.0</ele><time>2026-05-02T10:21:09.063Z</time></trkpt><trkpt lat="42.24583" lon="13.8107733"><ele>324.25</ele><time>2026-05-02T10:21:10.064Z</time></trkpt><trkpt lat="42.2459333" lon="13.81063"><ele>324.5</ele><time>2026-05-02T10:21:11.063Z</time></trkpt><trkpt lat="42.24604" lon="13.8105117"><ele>324.75</ele><time>2026-05-02T10:21:12.064Z</time></trkpt><trkpt lat="42.2461467" lon="13.8103867"><ele>325.0</ele><time>2026-05-02T10:21:13.063Z</time></trkpt><trkpt lat="42.2462333" lon="13.8102667"><ele>325.0</ele><time>2026-05-02T10:21:14.064Z</time></trkpt><trkpt lat="42.2463167" lon="13.8101467"><ele>325.0</ele><time>2026-05-02T10:21:15.063Z</time></trkpt><trkpt lat="42.24638" lon="13.8100233"><ele>325.0</ele><time>2026-05-02T10:21:16.063Z</time></trkpt><trkpt lat="42.2464317" lon="13.80989"><ele>325.0</ele><time>2026-05-02T10:21:17.064Z</time></trkpt><trkpt lat="42.2464833" lon="13.8097417"><ele>325.0</ele><time>2026-05-02T10:21:18.064Z</time></trkpt><trkpt lat="42.2465317" lon="13.8095517"><ele>325.0</ele><time>2026-05-02T10:21:19.063Z</time></trkpt><trkpt lat="42.2465933" lon="13.809335"><ele>325.0</ele><time>2026-05-02T10:21:20.064Z</time></trkpt><trkpt lat="42.2466567" lon="13.8091217"><ele>324.66666666666663</ele><time>2026-05-02T10:21:21.064Z</time></trkpt><trkpt lat="42.2467133" lon="13.8088967"><ele>324.3333333333333</ele><time>2026-05-02T10:21:22.064Z</time></trkpt><trkpt lat="42.2467633" lon="13.80868"><ele>324.0</ele><time>2026-05-02T10:21:23.063Z</time></trkpt><trkpt lat="42.246805" lon="13.808495"><ele>324.2</ele><time>2026-05-02T10:21:24.063Z</time></trkpt><trkpt lat="42.246835" lon="13.8083333"><ele>324.4</ele><time>2026-05-02T10:21:25.063Z</time></trkpt><trkpt lat="42.2468683" lon="13.8081967"><ele>324.6</ele><time>2026-05-02T10:21:26.064Z</time></trkpt><trkpt lat="42.2469217" lon="13.8081033"><ele>324.8</ele><time>2026-05-02T10:21:27.063Z</time></trkpt><trkpt lat="42.24699" lon="13.8079817"><ele>325.0</ele><time>2026-05-02T10:21:28.063Z</time></trkpt><trkpt lat="42.2470817" lon="13.8078517"><ele>325.0</ele><time>2026-05-02T10:21:29.064Z</time></trkpt><trkpt lat="42.247185" lon="13.8077233"><ele>325.0</ele><time>2026-05-02T10:21:30.064Z</time></trkpt><trkpt lat="42.24729" lon="13.807615"><ele>325.0</ele><time>2026-05-02T10:21:31.063Z</time></trkpt><trkpt lat="42.2474017" lon="13.8075267"><ele>325.0</ele><time>2026-05-02T10:21:32.064Z</time></trkpt><trkpt lat="42.24751" lon="13.80745"><ele>325.6</ele><time>2026-05-02T10:21:33.063Z</time></trkpt><trkpt lat="42.247595" lon="13.8073667"><ele>326.2</ele><time>2026-05-02T10:21:34.064Z</time></trkpt><trkpt lat="42.2476683" lon="13.8072683"><ele>326.79999999999995</ele><time>2026-05-02T10:21:35.064Z</time></trkpt><trkpt lat="42.247715" lon="13.8071783"><ele>327.4</ele><time>2026-05-02T10:21:36.063Z</time></trkpt><trkpt lat="42.24775" lon="13.807065"><ele>328.0</ele><time>2026-05-02T10:21:37.063Z</time></trkpt><trkpt lat="42.2477717" lon="13.8069333"><ele>327.5</ele><time>2026-05-02T10:21:38.063Z</time></trkpt><trkpt lat="42.2477917" lon="13.8067633"><ele>327.0</ele><time>2026-05-02T10:21:39.063Z</time></trkpt><trkpt lat="42.2478167" lon="13.8066067"><ele>326.5</ele><time>2026-05-02T10:21:40.064Z</time></trkpt><trkpt lat="42.2478567" lon="13.8064683"><ele>326.0</ele><time>2026-05-02T10:21:41.064Z</time></trkpt><trkpt lat="42.2479217" lon="13.806335"><ele>326.0</ele><time>2026-05-02T10:21:42.064Z</time></trkpt><trkpt lat="42.2479983" lon="13.806185"><ele>326.0</ele><time>2026-05-02T10:21:43.063Z</time></trkpt><trkpt lat="42.2480767" lon="13.8060267"><ele>326.0</ele><time>2026-05-02T10:21:44.064Z</time></trkpt><trkpt lat="42.248145" lon="13.8058817"><ele>326.0</ele><time>2026-05-02T10:21:45.064Z</time></trkpt><trkpt lat="42.2482133" lon="13.8057533"><ele>328.25</ele><time>2026-05-02T10:21:46.064Z</time></trkpt><trkpt lat="42.2482933" lon="13.805625"><ele>330.5</ele><time>2026-05-02T10:21:47.063Z</time></trkpt><trkpt lat="42.2483717" lon="13.8055033"><ele>332.75</ele><time>2026-05-02T10:21:48.064Z</time></trkpt><trkpt lat="42.2484583" lon="13.8053917"><ele>335.0</ele><time>2026-05-02T10:21:49.064Z</time></trkpt><trkpt lat="42.2485517" lon="13.805305"><ele>335.0</ele><time>2026-05-02T10:21:50.063Z</time></trkpt><trkpt lat="42.2486617" lon="13.80525"><ele>335.0</ele><time>2026-05-02T10:21:51.063Z</time></trkpt><trkpt lat="42.2487883" lon="13.8052167"><ele>335.0</ele><time>2026-05-02T10:21:52.064Z</time></trkpt><trkpt lat="42.2489183" lon="13.8051917"><ele>335.0</ele><time>2026-05-02T10:21:53.064Z</time></trkpt><trkpt lat="42.2490283" lon="13.8051433"><ele>335.4</ele><time>2026-05-02T10:21:54.063Z</time></trkpt><trkpt lat="42.24913" lon="13.8050633"><ele>335.8</ele><time>2026-05-02T10:21:55.064Z</time></trkpt><trkpt lat="42.249225" lon="13.804965"><ele>336.20000000000005</ele><time>2026-05-02T10:21:56.063Z</time></trkpt><trkpt lat="42.2492967" lon="13.80487"><ele>336.6</ele><time>2026-05-02T10:21:57.064Z</time></trkpt><trkpt lat="42.2493583" lon="13.8048117"><ele>337.0</ele><time>2026-05-02T10:21:58.063Z</time></trkpt><trkpt lat="42.2494567" lon="13.804795"><ele>337.0</ele><time>2026-05-02T10:22:00.064Z</time></trkpt><trkpt lat="42.249575" lon="13.8048917"><ele>337.0</ele><time>2026-05-02T10:22:02.063Z</time></trkpt><trkpt lat="42.24965" lon="13.8049683"><ele>337.0</ele><time>2026-05-02T10:22:03.063Z</time></trkpt><trkpt lat="42.24973" lon="13.805025"><ele>337.0</ele><time>2026-05-02T10:22:04.063Z</time></trkpt><trkpt lat="42.24984" lon="13.8050483"><ele>337.0</ele><time>2026-05-02T10:22:05.063Z</time></trkpt><trkpt lat="42.24997" lon="13.8050417"><ele>337.66666666666663</ele><time>2026-05-02T10:22:06.063Z</time></trkpt><trkpt lat="42.250125" lon="13.805035"><ele>338.3333333333333</ele><time>2026-05-02T10:22:07.063Z</time></trkpt><trkpt lat="42.2502867" lon="13.8050183"><ele>339.0</ele><time>2026-05-02T10:22:08.063Z</time></trkpt><trkpt lat="42.2504583" lon="13.8050033"><ele>341.5</ele><time>2026-05-02T10:22:09.063Z</time></trkpt><trkpt lat="42.25063" lon="13.80499"><ele>344.0</ele><time>2026-05-02T10:22:10.063Z</time></trkpt><trkpt lat="42.2507783" lon="13.8049833"><ele>346.5</ele><time>2026-05-02T10:22:11.063Z</time></trkpt><trkpt lat="42.2508933" lon="13.8049883"><ele>349.0</ele><time>2026-05-02T10:22:12.064Z</time></trkpt><trkpt lat="42.251" lon="13.8050183"><ele>349.0</ele><time>2026-05-02T10:22:13.064Z</time></trkpt><trkpt lat="42.251085" lon="13.805075"><ele>349.0</ele><time>2026-05-02T10:22:14.064Z</time></trkpt><trkpt lat="42.2511433" lon="13.8051533"><ele>349.0</ele><time>2026-05-02T10:22:15.063Z</time></trkpt><trkpt lat="42.25118" lon="13.805255"><ele>349.0</ele><time>2026-05-02T10:22:16.063Z</time></trkpt><trkpt lat="42.251205" lon="13.8054017"><ele>349.0</ele><time>2026-05-02T10:22:17.063Z</time></trkpt><trkpt lat="42.25122" lon="13.8055933"><ele>349.0</ele><time>2026-05-02T10:22:18.063Z</time></trkpt><trkpt lat="42.2512417" lon="13.8058017"><ele>349.0</ele><time>2026-05-02T10:22:19.063Z</time></trkpt><trkpt lat="42.251285" lon="13.8060167"><ele>349.0</ele><time>2026-05-02T10:22:20.063Z</time></trkpt><trkpt lat="42.2513467" lon="13.8062333"><ele>349.0</ele><time>2026-05-02T10:22:21.064Z</time></trkpt><trkpt lat="42.25144" lon="13.806445"><ele>349.0</ele><time>2026-05-02T10:22:22.063Z</time></trkpt><trkpt lat="42.2515383" lon="13.80667"><ele>349.0</ele><time>2026-05-02T10:22:23.064Z</time></trkpt><trkpt lat="42.251645" lon="13.80691"><ele>351.66666666666663</ele><time>2026-05-02T10:22:24.063Z</time></trkpt><trkpt lat="42.2517533" lon="13.8071483"><ele>354.3333333333333</ele><time>2026-05-02T10:22:25.064Z</time></trkpt><trkpt lat="42.2518517" lon="13.8073817"><ele>357.0</ele><time>2026-05-02T10:22:26.063Z</time></trkpt><trkpt lat="42.251945" lon="13.80759"><ele>357.0</ele><time>2026-05-02T10:22:27.063Z</time></trkpt><trkpt lat="42.2520367" lon="13.8077817"><ele>357.0</ele><time>2026-05-02T10:22:28.064Z</time></trkpt><trkpt lat="42.252135" lon="13.8079683"><ele>357.0</ele><time>2026-05-02T10:22:29.063Z</time></trkpt><trkpt lat="42.25223" lon="13.8081383"><ele>359.25</ele><time>2026-05-02T10:22:30.064Z</time></trkpt><trkpt lat="42.25232" lon="13.808295"><ele>361.5</ele><time>2026-05-02T10:22:31.064Z</time></trkpt><trkpt lat="42.2524067" lon="13.808445"><ele>363.75</ele><time>2026-05-02T10:22:32.063Z</time></trkpt><trkpt lat="42.2524933" lon="13.8085867"><ele>366.0</ele><time>2026-05-02T10:22:33.063Z</time></trkpt><trkpt lat="42.2525667" lon="13.808715"><ele>366.0</ele><time>2026-05-02T10:22:34.064Z</time></trkpt><trkpt lat="42.2526333" lon="13.808835"><ele>366.0</ele><time>2026-05-02T10:22:35.064Z</time></trkpt><trkpt lat="42.252685" lon="13.8089433"><ele>366.0</ele><time>2026-05-02T10:22:36.063Z</time></trkpt><trkpt lat="42.252725" lon="13.80904"><ele>366.0</ele><time>2026-05-02T10:22:37.064Z</time></trkpt><trkpt lat="42.2527567" lon="13.8091233"><ele>366.0</ele><time>2026-05-02T10:22:38.063Z</time></trkpt><trkpt lat="42.2528267" lon="13.8092567"><ele>366.4</ele><time>2026-05-02T10:22:40.063Z</time></trkpt><trkpt lat="42.2528717" lon="13.80934"><ele>366.8</ele><time>2026-05-02T10:22:41.064Z</time></trkpt><trkpt lat="42.25294" lon="13.8094383"><ele>367.2</ele><time>2026-05-02T10:22:42.064Z</time></trkpt><trkpt lat="42.2530317" lon="13.8095433"><ele>367.59999999999997</ele><time>2026-05-02T10:22:43.063Z</time></trkpt><trkpt lat="42.2531333" lon="13.8096583"><ele>368.0</ele><time>2026-05-02T10:22:44.064Z</time></trkpt><trkpt lat="42.2532417" lon="13.8097833"><ele>370.0</ele><time>2026-05-02T10:22:45.064Z</time></trkpt><trkpt lat="42.2533567" lon="13.8099267"><ele>372.0</ele><time>2026-05-02T10:22:46.063Z</time></trkpt><trkpt lat="42.2534917" lon="13.810065"><ele>374.0</ele><time>2026-05-02T10:22:47.063Z</time></trkpt><trkpt lat="42.2536333" lon="13.8102"><ele>374.0</ele><time>2026-05-02T10:22:48.064Z</time></trkpt><trkpt lat="42.2537617" lon="13.8103267"><ele>374.0</ele><time>2026-05-02T10:22:49.063Z</time></trkpt><trkpt lat="42.2538817" lon="13.8104767"><ele>374.0</ele><time>2026-05-02T10:22:50.064Z</time></trkpt><trkpt lat="42.2540033" lon="13.8106317"><ele>376.0</ele><time>2026-05-02T10:22:51.063Z</time></trkpt><trkpt lat="42.2541283" lon="13.8107817"><ele>378.0</ele><time>2026-05-02T10:22:52.063Z</time></trkpt><trkpt lat="42.2542483" lon="13.8109133"><ele>380.0</ele><time>2026-05-02T10:22:53.063Z</time></trkpt><trkpt lat="42.2543567" lon="13.8110383"><ele>380.25</ele><time>2026-05-02T10:22:54.063Z</time></trkpt><trkpt lat="42.25445" lon="13.811175"><ele>380.5</ele><time>2026-05-02T10:22:55.064Z</time></trkpt><trkpt lat="42.254525" lon="13.8113167"><ele>380.75</ele><time>2026-05-02T10:22:56.063Z</time></trkpt><trkpt lat="42.2545833" lon="13.811455"><ele>381.0</ele><time>2026-05-02T10:22:57.063Z</time></trkpt><trkpt lat="42.254615" lon="13.8115717"><ele>381.0</ele><time>2026-05-02T10:22:58.063Z</time></trkpt><trkpt lat="42.2546467" lon="13.8116683"><ele>381.0</ele><time>2026-05-02T10:22:59.063Z</time></trkpt><trkpt lat="42.2547067" lon="13.8117817"><ele>381.0</ele><time>2026-05-02T10:23:01.064Z</time></trkpt><trkpt lat="42.2547867" lon="13.8117533"><ele>381.0</ele><time>2026-05-02T10:23:03.063Z</time></trkpt><trkpt lat="42.2548717" lon="13.8115983"><ele>381.0</ele><time>2026-05-02T10:23:05.064Z</time></trkpt><trkpt lat="42.2549333" lon="13.8114883"><ele>382.5</ele><time>2026-05-02T10:23:06.063Z</time></trkpt><trkpt lat="42.2550133" lon="13.8113583"><ele>384.0</ele><time>2026-05-02T10:23:07.063Z</time></trkpt><trkpt lat="42.2550933" lon="13.8112067"><ele>385.5</ele><time>2026-05-02T10:23:08.063Z</time></trkpt><trkpt lat="42.25518" lon="13.81103"><ele>387.0</ele><time>2026-05-02T10:23:09.064Z</time></trkpt><trkpt lat="42.25526" lon="13.8108483"><ele>387.0</ele><time>2026-05-02T10:23:10.064Z</time></trkpt><trkpt lat="42.2553217" lon="13.8106883"><ele>387.0</ele><time>2026-05-02T10:23:11.063Z</time></trkpt><trkpt lat="42.25538" lon="13.8105433"><ele>387.0</ele><time>2026-05-02T10:23:12.064Z</time></trkpt><trkpt lat="42.2554533" lon="13.8104017"><ele>387.0</ele><time>2026-05-02T10:23:13.063Z</time></trkpt><trkpt lat="42.25555" lon="13.81025"><ele>387.33333333333337</ele><time>2026-05-02T10:23:14.063Z</time></trkpt><trkpt lat="42.2556583" lon="13.8100967"><ele>387.6666666666667</ele><time>2026-05-02T10:23:15.063Z</time></trkpt><trkpt lat="42.2557767" lon="13.8099333"><ele>388.0</ele><time>2026-05-02T10:23:16.064Z</time></trkpt><trkpt lat="42.2558833" lon="13.80974"><ele>388.0</ele><time>2026-05-02T10:23:17.063Z</time></trkpt><trkpt lat="42.2559933" lon="13.8095483"><ele>388.0</ele><time>2026-05-02T10:23:18.064Z</time></trkpt><trkpt lat="42.2561017" lon="13.8093533"><ele>388.0</ele><time>2026-05-02T10:23:19.064Z</time></trkpt><trkpt lat="42.2561867" lon="13.809185"><ele>387.75</ele><time>2026-05-02T10:23:20.064Z</time></trkpt><trkpt lat="42.2562767" lon="13.8090533"><ele>387.5</ele><time>2026-05-02T10:23:21.063Z</time></trkpt><trkpt lat="42.2563833" lon="13.8089367"><ele>387.25</ele><time>2026-05-02T10:23:22.063Z</time></trkpt><trkpt lat="42.256495" lon="13.80882"><ele>387.0</ele><time>2026-05-02T10:23:23.063Z</time></trkpt><trkpt lat="42.25659" lon="13.808715"><ele>387.0</ele><time>2026-05-02T10:23:24.063Z</time></trkpt><trkpt lat="42.2566733" lon="13.8086333"><ele>387.0</ele><time>2026-05-02T10:23:25.063Z</time></trkpt><trkpt lat="42.2567583" lon="13.8085767"><ele>387.0</ele><time>2026-05-02T10:23:26.063Z</time></trkpt><trkpt lat="42.25686" lon="13.8085333"><ele>387.0</ele><time>2026-05-02T10:23:27.063Z</time></trkpt><trkpt lat="42.2569733" lon="13.8084783"><ele>387.0</ele><time>2026-05-02T10:23:28.064Z</time></trkpt><trkpt lat="42.257095" lon="13.808395"><ele>386.0</ele><time>2026-05-02T10:23:29.063Z</time></trkpt><trkpt lat="42.25722" lon="13.8082833"><ele>385.0</ele><time>2026-05-02T10:23:30.064Z</time></trkpt><trkpt lat="42.257355" lon="13.8081633"><ele>384.0</ele><time>2026-05-02T10:23:31.064Z</time></trkpt><trkpt lat="42.257495" lon="13.808055"><ele>384.0</ele><time>2026-05-02T10:23:32.063Z</time></trkpt><trkpt lat="42.257645" lon="13.8079433"><ele>384.0</ele><time>2026-05-02T10:23:33.064Z</time></trkpt><trkpt lat="42.2577883" lon="13.8078183"><ele>384.0</ele><time>2026-05-02T10:23:34.063Z</time></trkpt><trkpt lat="42.2579267" lon="13.8076933"><ele>382.5</ele><time>2026-05-02T10:23:35.063Z</time></trkpt><trkpt lat="42.2580467" lon="13.80758"><ele>381.0</ele><time>2026-05-02T10:23:36.064Z</time></trkpt><trkpt lat="42.2581733" lon="13.807485"><ele>379.5</ele><time>2026-05-02T10:23:37.064Z</time></trkpt><trkpt lat="42.2583017" lon="13.8074133"><ele>378.0</ele><time>2026-05-02T10:23:38.063Z</time></trkpt><trkpt lat="42.2584483" lon="13.8073517"><ele>378.0</ele><time>2026-05-02T10:23:39.064Z</time></trkpt><trkpt lat="42.2585967" lon="13.8073"><ele>378.0</ele><time>2026-05-02T10:23:40.064Z</time></trkpt><trkpt lat="42.25875" lon="13.8072483"><ele>378.0</ele><time>2026-05-02T10:23:41.063Z</time></trkpt><trkpt lat="42.2589117" lon="13.8071783"><ele>379.3333333333333</ele><time>2026-05-02T10:23:42.063Z</time></trkpt><trkpt lat="42.25907" lon="13.8071033"><ele>380.66666666666663</ele><time>2026-05-02T10:23:43.063Z</time></trkpt><trkpt lat="42.2592233" lon="13.80702"><ele>382.0</ele><time>2026-05-02T10:23:44.063Z</time></trkpt><trkpt lat="42.2593717" lon="13.80692"><ele>382.0</ele><time>2026-05-02T10:23:45.063Z</time></trkpt><trkpt lat="42.2595233" lon="13.8068383"><ele>382.0</ele><time>2026-05-02T10:23:46.063Z</time></trkpt><trkpt lat="42.2596817" lon="13.8067483"><ele>382.0</ele><time>2026-05-02T10:23:47.063Z</time></trkpt><trkpt lat="42.259845" lon="13.80666"><ele>380.3333333333333</ele><time>2026-05-02T10:23:48.063Z</time></trkpt><trkpt lat="42.2600067" lon="13.806575"><ele>378.6666666666667</ele><time>2026-05-02T10:23:49.064Z</time></trkpt><trkpt lat="42.2601483" lon="13.8064833"><ele>377.0</ele><time>2026-05-02T10:23:50.064Z</time></trkpt><trkpt lat="42.2602833" lon="13.80638"><ele>377.0</ele><time>2026-05-02T10:23:51.064Z</time></trkpt><trkpt lat="42.2604233" lon="13.80627"><ele>377.0</ele><time>2026-05-02T10:23:52.064Z</time></trkpt><trkpt lat="42.260565" lon="13.806155"><ele>377.0</ele><time>2026-05-02T10:23:53.063Z</time></trkpt><trkpt lat="42.2607033" lon="13.8060517"><ele>376.40000000000003</ele><time>2026-05-02T10:23:54.064Z</time></trkpt><trkpt lat="42.260825" lon="13.80597"><ele>375.8</ele><time>2026-05-02T10:23:55.063Z</time></trkpt><trkpt lat="42.26092" lon="13.8058967"><ele>375.2</ele><time>2026-05-02T10:23:56.063Z</time></trkpt><trkpt lat="42.2609833" lon="13.80584"><ele>374.6</ele><time>2026-05-02T10:23:57.063Z</time></trkpt><trkpt lat="42.2610617" lon="13.8057317"><ele>374.0</ele><time>2026-05-02T10:23:59.063Z</time></trkpt><trkpt lat="42.26119" lon="13.8056317"><ele>374.0</ele><time>2026-05-02T10:24:01.064Z</time></trkpt><trkpt lat="42.2613067" lon="13.8055883"><ele>374.0</ele><time>2026-05-02T10:24:02.064Z</time></trkpt><trkpt lat="42.2614467" lon="13.8055267"><ele>374.0</ele><time>2026-05-02T10:24:03.064Z</time></trkpt><trkpt lat="42.2616033" lon="13.8054617"><ele>374.0</ele><time>2026-05-02T10:24:04.064Z</time></trkpt><trkpt lat="42.2617683" lon="13.8053983"><ele>373.25</ele><time>2026-05-02T10:24:05.064Z</time></trkpt><trkpt lat="42.261915" lon="13.80535"><ele>372.5</ele><time>2026-05-02T10:24:06.064Z</time></trkpt><trkpt lat="42.262045" lon="13.805305"><ele>371.75</ele><time>2026-05-02T10:24:07.064Z</time></trkpt><trkpt lat="42.2621533" lon="13.8052717"><ele>371.0</ele><time>2026-05-02T10:24:08.064Z</time></trkpt><trkpt lat="42.26223" lon="13.80526"><ele>370.8</ele><time>2026-05-02T10:24:09.063Z</time></trkpt><trkpt lat="42.26231" lon="13.8052817"><ele>370.6</ele><time>2026-05-02T10:24:11.063Z</time></trkpt><trkpt lat="42.26241" lon="13.8053133"><ele>370.4</ele><time>2026-05-02T10:24:13.063Z</time></trkpt><trkpt lat="42.2624883" lon="13.8053117"><ele>370.2</ele><time>2026-05-02T10:24:14.063Z</time></trkpt><trkpt lat="42.2625867" lon="13.8052933"><ele>370.0</ele><time>2026-05-02T10:24:15.064Z</time></trkpt><trkpt lat="42.262705" lon="13.805265"><ele>370.0</ele><time>2026-05-02T10:24:16.064Z</time></trkpt><trkpt lat="42.26284" lon="13.8052367"><ele>370.0</ele><time>2026-05-02T10:24:17.063Z</time></trkpt><trkpt lat="42.2629933" lon="13.8051967"><ele>370.0</ele><time>2026-05-02T10:24:18.064Z</time></trkpt><trkpt lat="42.26315" lon="13.8051633"><ele>368.3333333333333</ele><time>2026-05-02T10:24:19.063Z</time></trkpt><trkpt lat="42.26332" lon="13.8051333"><ele>366.6666666666667</ele><time>2026-05-02T10:24:20.064Z</time></trkpt><trkpt lat="42.2634917" lon="13.80509"><ele>365.0</ele><time>2026-05-02T10:24:21.063Z</time></trkpt><trkpt lat="42.263645" lon="13.805065"><ele>365.0</ele><time>2026-05-02T10:24:22.064Z</time></trkpt><trkpt lat="42.2637917" lon="13.80504"><ele>365.0</ele><time>2026-05-02T10:24:23.063Z</time></trkpt><trkpt lat="42.263955" lon="13.805025"><ele>365.0</ele><time>2026-05-02T10:24:24.064Z</time></trkpt><trkpt lat="42.26411" lon="13.80502"><ele>364.0</ele><time>2026-05-02T10:24:25.064Z</time></trkpt><trkpt lat="42.26428" lon="13.8050133"><ele>363.0</ele><time>2026-05-02T10:24:26.063Z</time></trkpt><trkpt lat="42.2644517" lon="13.8049983"><ele>362.0</ele><time>2026-05-02T10:24:27.064Z</time></trkpt><trkpt lat="42.264625" lon="13.8049867"><ele>360.6666666666667</ele><time>2026-05-02T10:24:28.063Z</time></trkpt><trkpt lat="42.2648033" lon="13.8049383"><ele>359.3333333333333</ele><time>2026-05-02T10:24:29.064Z</time></trkpt><trkpt lat="42.2649917" lon="13.804885"><ele>358.0</ele><time>2026-05-02T10:24:30.064Z</time></trkpt><trkpt lat="42.2651883" lon="13.8048233"><ele>358.0</ele><time>2026-05-02T10:24:31.063Z</time></trkpt><trkpt lat="42.2653933" lon="13.8047467"><ele>358.0</ele><time>2026-05-02T10:24:32.064Z</time></trkpt><trkpt lat="42.2655817" lon="13.804675"><ele>358.0</ele><time>2026-05-02T10:24:33.064Z</time></trkpt><trkpt lat="42.2657517" lon="13.8046083"><ele>357.3333333333333</ele><time>2026-05-02T10:24:34.064Z</time></trkpt><trkpt lat="42.2659217" lon="13.8045417"><ele>356.6666666666667</ele><time>2026-05-02T10:24:35.064Z</time></trkpt><trkpt lat="42.2660767" lon="13.8044867"><ele>356.0</ele><time>2026-05-02T10:24:36.063Z</time></trkpt><trkpt lat="42.2662233" lon="13.80442"><ele>356.0</ele><time>2026-05-02T10:24:37.063Z</time></trkpt><trkpt lat="42.2663617" lon="13.8043367"><ele>356.0</ele><time>2026-05-02T10:24:38.063Z</time></trkpt><trkpt lat="42.2665033" lon="13.8042333"><ele>356.0</ele><time>2026-05-02T10:24:39.063Z</time></trkpt><trkpt lat="42.2666383" lon="13.8041133"><ele>355.75</ele><time>2026-05-02T10:24:40.063Z</time></trkpt><trkpt lat="42.2667567" lon="13.803985"><ele>355.5</ele><time>2026-05-02T10:24:41.063Z</time></trkpt><trkpt lat="42.2668583" lon="13.8038567"><ele>355.25</ele><time>2026-05-02T10:24:42.063Z</time></trkpt><trkpt lat="42.2669333" lon="13.8037333"><ele>355.0</ele><time>2026-05-02T10:24:43.063Z</time></trkpt><trkpt lat="42.2669917" lon="13.80362"><ele>355.0</ele><time>2026-05-02T10:24:44.063Z</time></trkpt><trkpt lat="42.2670267" lon="13.8034983"><ele>355.0</ele><time>2026-05-02T10:24:45.063Z</time></trkpt><trkpt lat="42.2670533" lon="13.80337"><ele>355.0</ele><time>2026-05-02T10:24:46.064Z</time></trkpt><trkpt lat="42.26708" lon="13.8032567"><ele>355.0</ele><time>2026-05-02T10:24:47.064Z</time></trkpt><trkpt lat="42.2671267" lon="13.8031467"><ele>355.0</ele><time>2026-05-02T10:24:48.064Z</time></trkpt><trkpt lat="42.2672" lon="13.8030383"><ele>354.8</ele><time>2026-05-02T10:24:49.063Z</time></trkpt><trkpt lat="42.2672767" lon="13.8029283"><ele>354.6</ele><time>2026-05-02T10:24:50.064Z</time></trkpt><trkpt lat="42.267345" lon="13.8028333"><ele>354.4</ele><time>2026-05-02T10:24:51.064Z</time></trkpt><trkpt lat="42.2673983" lon="13.80276"><ele>354.2</ele><time>2026-05-02T10:24:52.064Z</time></trkpt><trkpt lat="42.267455" lon="13.8026617"><ele>354.0</ele><time>2026-05-02T10:24:54.063Z</time></trkpt><trkpt lat="42.2674983" lon="13.802535"><ele>354.0</ele><time>2026-05-02T10:24:57.063Z</time></trkpt><trkpt lat="42.2675783" lon="13.8024033"><ele>354.0</ele><time>2026-05-02T10:24:59.064Z</time></trkpt><trkpt lat="42.2676267" lon="13.802325"><ele>354.0</ele><time>2026-05-02T10:25:00.063Z</time></trkpt><trkpt lat="42.2676817" lon="13.802245"><ele>354.0</ele><time>2026-05-02T10:25:01.063Z</time></trkpt><trkpt lat="42.2677517" lon="13.802155"><ele>354.0</ele><time>2026-05-02T10:25:02.063Z</time></trkpt><trkpt lat="42.26783" lon="13.80207"><ele>354.0</ele><time>2026-05-02T10:25:03.063Z</time></trkpt><trkpt lat="42.2679" lon="13.8019933"><ele>354.0</ele><time>2026-05-02T10:25:04.063Z</time></trkpt><trkpt lat="42.2679633" lon="13.80192"><ele>354.0</ele><time>2026-05-02T10:25:05.063Z</time></trkpt><trkpt lat="42.26802" lon="13.8018583"><ele>354.0</ele><time>2026-05-02T10:25:06.064Z</time></trkpt><trkpt lat="42.2680717" lon="13.8018067"><ele>354.0</ele><time>2026-05-02T10:25:07.064Z</time></trkpt><trkpt lat="42.2681417" lon="13.8017317"><ele>354.0</ele><time>2026-05-02T10:25:09.064Z</time></trkpt><trkpt lat="42.268215" lon="13.80164"><ele>353.79999999999995</ele><time>2026-05-02T10:26:01.062Z</time></trkpt><trkpt lat="42.2682717" lon="13.801575"><ele>353.59999999999997</ele><time>2026-05-02T10:26:02.062Z</time></trkpt><trkpt lat="42.26834" lon="13.8014983"><ele>353.4</ele><time>2026-05-02T10:26:03.063Z</time></trkpt><trkpt lat="42.2684233" lon="13.8014067"><ele>353.2</ele><time>2026-05-02T10:26:04.062Z</time></trkpt><trkpt lat="42.2685133" lon="13.8013083"><ele>353.0</ele><time>2026-05-02T10:26:05.063Z</time></trkpt><trkpt lat="42.2686133" lon="13.8011983"><ele>353.0</ele><time>2026-05-02T10:26:06.062Z</time></trkpt><trkpt lat="42.2687167" lon="13.8010733"><ele>353.0</ele><time>2026-05-02T10:26:07.063Z</time></trkpt><trkpt lat="42.2688217" lon="13.800975"><ele>353.0</ele><time>2026-05-02T10:26:08.062Z</time></trkpt><trkpt lat="42.26893" lon="13.80087"><ele>353.0</ele><time>2026-05-02T10:26:09.062Z</time></trkpt><trkpt lat="42.26904" lon="13.8007667"><ele>352.75</ele><time>2026-05-02T10:26:10.062Z</time></trkpt><trkpt lat="42.269155" lon="13.8006817"><ele>352.5</ele><time>2026-05-02T10:26:11.063Z</time></trkpt><trkpt lat="42.2692617" lon="13.800625"><ele>352.25</ele><time>2026-05-02T10:26:12.063Z</time></trkpt><trkpt lat="42.2693733" lon="13.8005817"><ele>352.0</ele><time>2026-05-02T10:26:13.062Z</time></trkpt><trkpt lat="42.2694833" lon="13.80054"><ele>352.0</ele><time>2026-05-02T10:26:14.062Z</time></trkpt><trkpt lat="42.2695933" lon="13.8004833"><ele>352.0</ele><time>2026-05-02T10:26:15.063Z</time></trkpt><trkpt lat="42.2696933" lon="13.8003983"><ele>352.0</ele><time>2026-05-02T10:26:16.063Z</time></trkpt><trkpt lat="42.2697983" lon="13.800305"><ele>352.0</ele><time>2026-05-02T10:26:17.063Z</time></trkpt><trkpt lat="42.2698983" lon="13.8001833"><ele>350.75</ele><time>2026-05-02T10:26:18.062Z</time></trkpt><trkpt lat="42.2700183" lon="13.8000433"><ele>349.5</ele><time>2026-05-02T10:26:19.063Z</time></trkpt><trkpt lat="42.2701217" lon="13.7999217"><ele>348.25</ele><time>2026-05-02T10:26:20.063Z</time></trkpt><trkpt lat="42.27024" lon="13.7998133"><ele>347.0</ele><time>2026-05-02T10:26:21.063Z</time></trkpt><trkpt lat="42.2703567" lon="13.7997167"><ele>347.0</ele><time>2026-05-02T10:26:22.063Z</time></trkpt><trkpt lat="42.27049" lon="13.79962"><ele>347.0</ele><time>2026-05-02T10:26:23.062Z</time></trkpt><trkpt lat="42.2706117" lon="13.79955"><ele>347.0</ele><time>2026-05-02T10:26:24.062Z</time></trkpt><trkpt lat="42.2707283" lon="13.79949"><ele>347.0</ele><time>2026-05-02T10:26:25.063Z</time></trkpt><trkpt lat="42.2708583" lon="13.799435"><ele>348.0</ele><time>2026-05-02T10:26:26.063Z</time></trkpt><trkpt lat="42.2710033" lon="13.799385"><ele>349.0</ele><time>2026-05-02T10:26:27.062Z</time></trkpt><trkpt lat="42.2711567" lon="13.7993233"><ele>350.0</ele><time>2026-05-02T10:26:28.062Z</time></trkpt><trkpt lat="42.27132" lon="13.799255"><ele>349.33333333333337</ele><time>2026-05-02T10:26:29.062Z</time></trkpt><trkpt lat="42.2714817" lon="13.7991667"><ele>348.6666666666667</ele><time>2026-05-02T10:26:30.062Z</time></trkpt><trkpt lat="42.2716467" lon="13.7990717"><ele>348.0</ele><time>2026-05-02T10:26:31.062Z</time></trkpt><trkpt lat="42.2718167" lon="13.798975"><ele>348.0</ele><time>2026-05-02T10:26:32.063Z</time></trkpt><trkpt lat="42.2719867" lon="13.79888"><ele>348.0</ele><time>2026-05-02T10:26:33.063Z</time></trkpt><trkpt lat="42.2721367" lon="13.79879"><ele>348.0</ele><time>2026-05-02T10:26:34.063Z</time></trkpt><trkpt lat="42.2722933" lon="13.7986933"><ele>347.6666666666667</ele><time>2026-05-02T10:26:35.063Z</time></trkpt><trkpt lat="42.2724283" lon="13.7985917"><ele>347.33333333333337</ele><time>2026-05-02T10:26:36.063Z</time></trkpt><trkpt lat="42.2725483" lon="13.7984967"><ele>347.0</ele><time>2026-05-02T10:26:37.062Z</time></trkpt><trkpt lat="42.272685" lon="13.798395"><ele>347.0</ele><time>2026-05-02T10:26:38.063Z</time></trkpt><trkpt lat="42.2728183" lon="13.798285"><ele>347.0</ele><time>2026-05-02T10:26:39.063Z</time></trkpt><trkpt lat="42.272935" lon="13.798185"><ele>347.0</ele><time>2026-05-02T10:26:40.062Z</time></trkpt><trkpt lat="42.2730483" lon="13.7981067"><ele>347.0</ele><time>2026-05-02T10:26:41.063Z</time></trkpt><trkpt lat="42.2731833" lon="13.7980167"><ele>348.6666666666667</ele><time>2026-05-02T10:26:42.062Z</time></trkpt><trkpt lat="42.2733183" lon="13.7979383"><ele>350.3333333333333</ele><time>2026-05-02T10:26:43.063Z</time></trkpt><trkpt lat="42.2734683" lon="13.7978483"><ele>352.0</ele><time>2026-05-02T10:26:44.063Z</time></trkpt><trkpt lat="42.2736217" lon="13.79775"><ele>350.3333333333333</ele><time>2026-05-02T10:26:45.063Z</time></trkpt><trkpt lat="42.2737817" lon="13.7976383"><ele>348.6666666666667</ele><time>2026-05-02T10:26:46.062Z</time></trkpt><trkpt lat="42.2739417" lon="13.7975133"><ele>347.0</ele><time>2026-05-02T10:26:47.062Z</time></trkpt><trkpt lat="42.2740883" lon="13.7974133"><ele>347.0</ele><time>2026-05-02T10:26:48.063Z</time></trkpt><trkpt lat="42.2742217" lon="13.7973167"><ele>347.0</ele><time>2026-05-02T10:26:49.063Z</time></trkpt><trkpt lat="42.2743317" lon="13.7972067"><ele>347.0</ele><time>2026-05-02T10:26:50.062Z</time></trkpt><trkpt lat="42.274435" lon="13.7970917"><ele>347.0</ele><time>2026-05-02T10:26:51.062Z</time></trkpt><trkpt lat="42.2745467" lon="13.79699"><ele>347.0</ele><time>2026-05-02T10:26:52.062Z</time></trkpt><trkpt lat="42.2746683" lon="13.7968933"><ele>347.0</ele><time>2026-05-02T10:26:53.062Z</time></trkpt><trkpt lat="42.274805" lon="13.7967817"><ele>347.0</ele><time>2026-05-02T10:26:54.062Z</time></trkpt><trkpt lat="42.27494" lon="13.796685"><ele>347.0</ele><time>2026-05-02T10:26:55.062Z</time></trkpt><trkpt lat="42.2750533" lon="13.7966083"><ele>347.0</ele><time>2026-05-02T10:26:56.063Z</time></trkpt><trkpt lat="42.2751433" lon="13.79653"><ele>347.0</ele><time>2026-05-02T10:26:57.063Z</time></trkpt><trkpt lat="42.2752333" lon="13.7964117"><ele>347.0</ele><time>2026-05-02T10:26:58.063Z</time></trkpt><trkpt lat="42.27532" lon="13.7963217"><ele>347.0</ele><time>2026-05-02T10:26:59.062Z</time></trkpt><trkpt lat="42.2754317" lon="13.7962517"><ele>347.0</ele><time>2026-05-02T10:27:00.063Z</time></trkpt><trkpt lat="42.2755433" lon="13.7962183"><ele>347.0</ele><time>2026-05-02T10:27:01.062Z</time></trkpt><trkpt lat="42.2756483" lon="13.7961917"><ele>347.0</ele><time>2026-05-02T10:27:02.063Z</time></trkpt><trkpt lat="42.2757483" lon="13.7961267"><ele>347.0</ele><time>2026-05-02T10:27:03.063Z</time></trkpt><trkpt lat="42.2758517" lon="13.7960383"><ele>347.0</ele><time>2026-05-02T10:27:04.062Z</time></trkpt><trkpt lat="42.2759667" lon="13.7959317"><ele>347.0</ele><time>2026-05-02T10:27:05.062Z</time></trkpt><trkpt lat="42.2760767" lon="13.7958067"><ele>347.0</ele><time>2026-05-02T10:27:06.063Z</time></trkpt><trkpt lat="42.2761967" lon="13.7956783"><ele>347.0</ele><time>2026-05-02T10:27:07.062Z</time></trkpt><trkpt lat="42.276315" lon="13.7955483"><ele>347.0</ele><time>2026-05-02T10:27:08.063Z</time></trkpt><trkpt lat="42.2764233" lon="13.795435"><ele>347.0</ele><time>2026-05-02T10:27:09.062Z</time></trkpt><trkpt lat="42.2765267" lon="13.79535"><ele>347.0</ele><time>2026-05-02T10:27:10.062Z</time></trkpt><trkpt lat="42.2766483" lon="13.795285"><ele>347.25</ele><time>2026-05-02T10:27:11.063Z</time></trkpt><trkpt lat="42.2767833" lon="13.7952317"><ele>347.5</ele><time>2026-05-02T10:27:12.063Z</time></trkpt><trkpt lat="42.2769233" lon="13.7951833"><ele>347.75</ele><time>2026-05-02T10:27:13.062Z</time></trkpt><trkpt lat="42.2770617" lon="13.7951467"><ele>348.0</ele><time>2026-05-02T10:27:14.063Z</time></trkpt><trkpt lat="42.2771917" lon="13.7951267"><ele>348.25</ele><time>2026-05-02T10:27:15.062Z</time></trkpt><trkpt lat="42.2773317" lon="13.79511"><ele>348.5</ele><time>2026-05-02T10:27:16.062Z</time></trkpt><trkpt lat="42.2774583" lon="13.795085"><ele>348.75</ele><time>2026-05-02T10:27:17.062Z</time></trkpt><trkpt lat="42.2775733" lon="13.7950667"><ele>349.0</ele><time>2026-05-02T10:27:18.063Z</time></trkpt><trkpt lat="42.2776833" lon="13.7950683"><ele>349.0</ele><time>2026-05-02T10:27:19.062Z</time></trkpt><trkpt lat="42.2778017" lon="13.7950833"><ele>349.0</ele><time>2026-05-02T10:27:20.063Z</time></trkpt><trkpt lat="42.2779267" lon="13.795115"><ele>349.0</ele><time>2026-05-02T10:27:21.062Z</time></trkpt><trkpt lat="42.2780567" lon="13.795155"><ele>349.0</ele><time>2026-05-02T10:27:22.062Z</time></trkpt><trkpt lat="42.2781917" lon="13.7952067"><ele>350.5</ele><time>2026-05-02T10:27:23.062Z</time></trkpt><trkpt lat="42.2783483" lon="13.795245"><ele>352.0</ele><time>2026-05-02T10:27:24.063Z</time></trkpt><trkpt lat="42.278495" lon="13.7952767"><ele>353.5</ele><time>2026-05-02T10:27:25.062Z</time></trkpt><trkpt lat="42.2786333" lon="13.7953033"><ele>355.0</ele><time>2026-05-02T10:27:26.063Z</time></trkpt><trkpt lat="42.2787467" lon="13.795305"><ele>355.0</ele><time>2026-05-02T10:27:27.063Z</time></trkpt><trkpt lat="42.27884" lon="13.79529"><ele>355.0</ele><time>2026-05-02T10:27:28.062Z</time></trkpt><trkpt lat="42.2789467" lon="13.795255"><ele>355.0</ele><time>2026-05-02T10:27:29.062Z</time></trkpt><trkpt lat="42.2790683" lon="13.7952133"><ele>355.0</ele><time>2026-05-02T10:27:30.062Z</time></trkpt><trkpt lat="42.27918" lon="13.795185"><ele>355.0</ele><time>2026-05-02T10:27:31.063Z</time></trkpt><trkpt lat="42.27929" lon="13.79515"><ele>352.4</ele><time>2026-05-02T10:27:32.063Z</time></trkpt><trkpt lat="42.2793983" lon="13.7951067"><ele>349.8</ele><time>2026-05-02T10:27:33.062Z</time></trkpt><trkpt lat="42.2794967" lon="13.7950433"><ele>347.20000000000005</ele><time>2026-05-02T10:27:34.062Z</time></trkpt><trkpt lat="42.2795867" lon="13.7949717"><ele>344.6</ele><time>2026-05-02T10:27:35.063Z</time></trkpt><trkpt lat="42.27966" lon="13.7948967"><ele>342.0</ele><time>2026-05-02T10:27:36.063Z</time></trkpt><trkpt lat="42.2797433" lon="13.794815"><ele>342.0</ele><time>2026-05-02T10:27:37.063Z</time></trkpt><trkpt lat="42.27984" lon="13.7947317"><ele>342.0</ele><time>2026-05-02T10:27:38.062Z</time></trkpt><trkpt lat="42.2799517" lon="13.7946283"><ele>342.0</ele><time>2026-05-02T10:27:39.063Z</time></trkpt><trkpt lat="42.2800767" lon="13.794515"><ele>342.0</ele><time>2026-05-02T10:27:40.062Z</time></trkpt><trkpt lat="42.2802117" lon="13.7943883"><ele>342.0</ele><time>2026-05-02T10:27:41.062Z</time></trkpt><trkpt lat="42.2803567" lon="13.7942583"><ele>342.0</ele><time>2026-05-02T10:27:42.062Z</time></trkpt><trkpt lat="42.2805033" lon="13.794135"><ele>342.0</ele><time>2026-05-02T10:27:43.062Z</time></trkpt><trkpt lat="42.280655" lon="13.794015"><ele>342.0</ele><time>2026-05-02T10:27:44.062Z</time></trkpt><trkpt lat="42.2807983" lon="13.79391"><ele>342.0</ele><time>2026-05-02T10:27:45.063Z</time></trkpt><trkpt lat="42.280935" lon="13.79382"><ele>342.0</ele><time>2026-05-02T10:27:46.063Z</time></trkpt><trkpt lat="42.2810633" lon="13.7937433"><ele>342.0</ele><time>2026-05-02T10:27:47.063Z</time></trkpt><trkpt lat="42.28119" lon="13.7936733"><ele>342.0</ele><time>2026-05-02T10:27:48.062Z</time></trkpt><trkpt lat="42.28132" lon="13.7936083"><ele>342.0</ele><time>2026-05-02T10:27:49.063Z</time></trkpt><trkpt lat="42.28145" lon="13.7935333"><ele>342.0</ele><time>2026-05-02T10:27:50.062Z</time></trkpt><trkpt lat="42.281575" lon="13.79345"><ele>342.0</ele><time>2026-05-02T10:27:51.062Z</time></trkpt><trkpt lat="42.2816967" lon="13.7933783"><ele>342.0</ele><time>2026-05-02T10:27:52.063Z</time></trkpt><trkpt lat="42.2818267" lon="13.7932933"><ele>342.0</ele><time>2026-05-02T10:27:53.062Z</time></trkpt><trkpt lat="42.2819583" lon="13.7932017"><ele>342.0</ele><time>2026-05-02T10:27:54.063Z</time></trkpt><trkpt lat="42.2820867" lon="13.7930983"><ele>342.0</ele><time>2026-05-02T10:27:55.063Z</time></trkpt><trkpt lat="42.2822117" lon="13.7929933"><ele>342.0</ele><time>2026-05-02T10:27:56.063Z</time></trkpt><trkpt lat="42.2823233" lon="13.7928733"><ele>342.0</ele><time>2026-05-02T10:27:57.063Z</time></trkpt><trkpt lat="42.282425" lon="13.7927533"><ele>342.0</ele><time>2026-05-02T10:27:58.062Z</time></trkpt><trkpt lat="42.2824983" lon="13.79263"><ele>342.1666666666667</ele><time>2026-05-02T10:27:59.062Z</time></trkpt><trkpt lat="42.2825583" lon="13.79251"><ele>342.3333333333333</ele><time>2026-05-02T10:28:00.063Z</time></trkpt><trkpt lat="42.2825967" lon="13.7923933"><ele>342.5</ele><time>2026-05-02T10:28:01.063Z</time></trkpt><trkpt lat="42.282625" lon="13.792295"><ele>342.66666666666663</ele><time>2026-05-02T10:28:02.062Z</time></trkpt><trkpt lat="42.28265" lon="13.792215"><ele>342.8333333333333</ele><time>2026-05-02T10:28:03.063Z</time></trkpt><trkpt lat="42.2826967" lon="13.7921533"><ele>343.0</ele><time>2026-05-02T10:28:04.063Z</time></trkpt><trkpt lat="42.2827633" lon="13.792085"><ele>343.0</ele><time>2026-05-02T10:28:05.063Z</time></trkpt><trkpt lat="42.2828367" lon="13.7920083"><ele>343.0</ele><time>2026-05-02T10:28:06.063Z</time></trkpt><trkpt lat="42.2829233" lon="13.791925"><ele>343.0</ele><time>2026-05-02T10:28:07.062Z</time></trkpt><trkpt lat="42.2830267" lon="13.7918367"><ele>343.0</ele><time>2026-05-02T10:28:08.062Z</time></trkpt><trkpt lat="42.2831317" lon="13.7917467"><ele>343.0</ele><time>2026-05-02T10:28:09.063Z</time></trkpt><trkpt lat="42.283245" lon="13.791645"><ele>344.0</ele><time>2026-05-02T10:28:10.063Z</time></trkpt><trkpt lat="42.2833617" lon="13.791535"><ele>345.0</ele><time>2026-05-02T10:28:11.062Z</time></trkpt><trkpt lat="42.283485" lon="13.79143"><ele>346.0</ele><time>2026-05-02T10:28:12.062Z</time></trkpt><trkpt lat="42.2836" lon="13.791345"><ele>347.0</ele><time>2026-05-02T10:28:13.063Z</time></trkpt><trkpt lat="42.283685" lon="13.7912833"><ele>347.0</ele><time>2026-05-02T10:28:14.063Z</time></trkpt><trkpt lat="42.2837367" lon="13.7912317"><ele>347.0</ele><time>2026-05-02T10:28:15.062Z</time></trkpt><trkpt lat="42.283725" lon="13.7911333"><ele>347.0</ele><time>2026-05-02T10:28:18.063Z</time></trkpt><trkpt lat="42.2836617" lon="13.7910867"><ele>347.0</ele><time>2026-05-02T10:28:19.063Z</time></trkpt><trkpt lat="42.2835783" lon="13.7910233"><ele>347.0</ele><time>2026-05-02T10:28:20.063Z</time></trkpt><trkpt lat="42.2834817" lon="13.790935"><ele>347.0</ele><time>2026-05-02T10:28:21.063Z</time></trkpt><trkpt lat="42.283375" lon="13.79083"><ele>347.20000000000005</ele><time>2026-05-02T10:28:22.062Z</time></trkpt><trkpt lat="42.2832767" lon="13.790715"><ele>347.4</ele><time>2026-05-02T10:28:23.063Z</time></trkpt><trkpt lat="42.2831983" lon="13.7905983"><ele>347.6</ele><time>2026-05-02T10:28:24.062Z</time></trkpt><trkpt lat="42.2831367" lon="13.79049"><ele>347.79999999999995</ele><time>2026-05-02T10:28:25.062Z</time></trkpt><trkpt lat="42.283085" lon="13.7904"><ele>348.0</ele><time>2026-05-02T10:28:26.062Z</time></trkpt><trkpt lat="42.28304" lon="13.790265"><ele>348.0</ele><time>2026-05-02T10:28:28.062Z</time></trkpt><trkpt lat="42.28306" lon="13.79008"><ele>348.0</ele><time>2026-05-02T10:28:30.063Z</time></trkpt><trkpt lat="42.2830733" lon="13.7899867"><ele>348.0</ele><time>2026-05-02T10:28:31.062Z</time></trkpt><trkpt lat="42.2830833" lon="13.7899017"><ele>348.0</ele><time>2026-05-02T10:28:32.062Z</time></trkpt><trkpt lat="42.2831133" lon="13.789765"><ele>348.0</ele><time>2026-05-02T10:28:34.062Z</time></trkpt><trkpt lat="42.283165" lon="13.7896"><ele>348.0</ele><time>2026-05-02T10:28:36.063Z</time></trkpt><trkpt lat="42.2831917" lon="13.7894917"><ele>348.0</ele><time>2026-05-02T10:28:37.063Z</time></trkpt><trkpt lat="42.2832083" lon="13.7893833"><ele>348.0</ele><time>2026-05-02T10:28:38.063Z</time></trkpt><trkpt lat="42.2832217" lon="13.78928"><ele>348.0</ele><time>2026-05-02T10:28:39.063Z</time></trkpt><trkpt lat="42.2832417" lon="13.7891717"><ele>348.0</ele><time>2026-05-02T10:28:40.063Z</time></trkpt><trkpt lat="42.2832667" lon="13.7890683"><ele>348.0</ele><time>2026-05-02T10:28:41.063Z</time></trkpt><trkpt lat="42.2832967" lon="13.7889683"><ele>347.4</ele><time>2026-05-02T10:28:42.062Z</time></trkpt><trkpt lat="42.2833233" lon="13.7888517"><ele>346.79999999999995</ele><time>2026-05-02T10:28:43.063Z</time></trkpt><trkpt lat="42.2833533" lon="13.7887117"><ele>346.2</ele><time>2026-05-02T10:28:44.063Z</time></trkpt><trkpt lat="42.2833733" lon="13.7885833"><ele>345.6</ele><time>2026-05-02T10:28:45.063Z</time></trkpt><trkpt lat="42.2833867" lon="13.7884417"><ele>345.0</ele><time>2026-05-02T10:28:46.062Z</time></trkpt><trkpt lat="42.2833883" lon="13.7883133"><ele>344.2</ele><time>2026-05-02T10:28:47.062Z</time></trkpt><trkpt lat="42.2833883" lon="13.7881867"><ele>343.4</ele><time>2026-05-02T10:28:48.063Z</time></trkpt><trkpt lat="42.2833717" lon="13.7880433"><ele>342.6</ele><time>2026-05-02T10:28:49.062Z</time></trkpt><trkpt lat="42.2833417" lon="13.7879083"><ele>341.8</ele><time>2026-05-02T10:28:50.062Z</time></trkpt><trkpt lat="42.2832967" lon="13.7877717"><ele>341.0</ele><time>2026-05-02T10:28:51.063Z</time></trkpt><trkpt lat="42.283235" lon="13.7876367"><ele>341.0</ele><time>2026-05-02T10:28:52.063Z</time></trkpt><trkpt lat="42.2831717" lon="13.7875233"><ele>341.0</ele><time>2026-05-02T10:28:53.063Z</time></trkpt><trkpt lat="42.2831067" lon="13.7874133"><ele>341.0</ele><time>2026-05-02T10:28:54.063Z</time></trkpt><trkpt lat="42.2830467" lon="13.78731"><ele>341.0</ele><time>2026-05-02T10:28:55.063Z</time></trkpt><trkpt lat="42.283" lon="13.7872317"><ele>341.0</ele><time>2026-05-02T10:28:56.062Z</time></trkpt><trkpt lat="42.2829317" lon="13.7871"><ele>341.0</ele><time>2026-05-02T10:28:58.063Z</time></trkpt><trkpt lat="42.28289" lon="13.787015"><ele>341.0</ele><time>2026-05-02T10:28:59.062Z</time></trkpt><trkpt lat="42.2828333" lon="13.786905"><ele>341.0</ele><time>2026-05-02T10:29:00.062Z</time></trkpt><trkpt lat="42.2827683" lon="13.7867617"><ele>341.0</ele><time>2026-05-02T10:29:01.062Z</time></trkpt><trkpt lat="42.282695" lon="13.7865967"><ele>341.0</ele><time>2026-05-02T10:29:02.062Z</time></trkpt><trkpt lat="42.2826217" lon="13.78641"><ele>341.0</ele><time>2026-05-02T10:29:03.062Z</time></trkpt><trkpt lat="42.282555" lon="13.7862083"><ele>341.0</ele><time>2026-05-02T10:29:04.063Z</time></trkpt><trkpt lat="42.2824817" lon="13.7860017"><ele>341.0</ele><time>2026-05-02T10:29:05.062Z</time></trkpt><trkpt lat="42.2824117" lon="13.7858017"><ele>340.6666666666667</ele><time>2026-05-02T10:29:06.062Z</time></trkpt><trkpt lat="42.2823417" lon="13.785575"><ele>340.3333333333333</ele><time>2026-05-02T10:29:07.063Z</time></trkpt><trkpt lat="42.282285" lon="13.7853617"><ele>340.0</ele><time>2026-05-02T10:29:08.062Z</time></trkpt><trkpt lat="42.282225" lon="13.78513"><ele>340.0</ele><time>2026-05-02T10:29:09.062Z</time></trkpt><trkpt lat="42.2821667" lon="13.784905"><ele>340.0</ele><time>2026-05-02T10:29:10.063Z</time></trkpt><trkpt lat="42.2821033" lon="13.7846717"><ele>340.0</ele><time>2026-05-02T10:29:11.062Z</time></trkpt><trkpt lat="42.2820483" lon="13.7844367"><ele>340.0</ele><time>2026-05-02T10:29:12.062Z</time></trkpt><trkpt lat="42.281995" lon="13.7842117"><ele>340.0</ele><time>2026-05-02T10:29:13.063Z</time></trkpt><trkpt lat="42.281945" lon="13.7839883"><ele>340.0</ele><time>2026-05-02T10:29:14.062Z</time></trkpt><trkpt lat="42.281895" lon="13.783755"><ele>340.0</ele><time>2026-05-02T10:29:15.063Z</time></trkpt><trkpt lat="42.281835" lon="13.7835317"><ele>340.0</ele><time>2026-05-02T10:29:16.062Z</time></trkpt><trkpt lat="42.28177" lon="13.7833083"><ele>340.0</ele><time>2026-05-02T10:29:17.062Z</time></trkpt><trkpt lat="42.2817033" lon="13.7830883"><ele>339.66666666666663</ele><time>2026-05-02T10:29:18.062Z</time></trkpt><trkpt lat="42.2816283" lon="13.782865"><ele>339.3333333333333</ele><time>2026-05-02T10:29:19.062Z</time></trkpt><trkpt lat="42.2815483" lon="13.7826383"><ele>339.0</ele><time>2026-05-02T10:29:20.062Z</time></trkpt><trkpt lat="42.2814683" lon="13.782405"><ele>340.0</ele><time>2026-05-02T10:29:21.062Z</time></trkpt><trkpt lat="42.281385" lon="13.7821717"><ele>341.0</ele><time>2026-05-02T10:29:22.063Z</time></trkpt><trkpt lat="42.2813067" lon="13.7819367"><ele>342.0</ele><time>2026-05-02T10:29:23.062Z</time></trkpt><trkpt lat="42.2812267" lon="13.7816967"><ele>342.0</ele><time>2026-05-02T10:29:24.062Z</time></trkpt><trkpt lat="42.281145" lon="13.7814583"><ele>342.0</ele><time>2026-05-02T10:29:25.063Z</time></trkpt><trkpt lat="42.2810667" lon="13.7812183"><ele>342.0</ele><time>2026-05-02T10:29:26.063Z</time></trkpt><trkpt lat="42.2810033" lon="13.78098"><ele>341.6666666666667</ele><time>2026-05-02T10:29:27.062Z</time></trkpt><trkpt lat="42.280945" lon="13.7807533"><ele>341.33333333333337</ele><time>2026-05-02T10:29:28.062Z</time></trkpt><trkpt lat="42.2808883" lon="13.7805367"><ele>341.0</ele><time>2026-05-02T10:29:29.063Z</time></trkpt><trkpt lat="42.28083" lon="13.7803417"><ele>341.75</ele><time>2026-05-02T10:29:30.062Z</time></trkpt><trkpt lat="42.28079" lon="13.78016"><ele>342.5</ele><time>2026-05-02T10:29:31.063Z</time></trkpt><trkpt lat="42.28075" lon="13.78"><ele>343.25</ele><time>2026-05-02T10:29:32.062Z</time></trkpt><trkpt lat="42.2806983" lon="13.7798433"><ele>344.0</ele><time>2026-05-02T10:29:33.062Z</time></trkpt><trkpt lat="42.2806417" lon="13.77968"><ele>344.0</ele><time>2026-05-02T10:29:34.062Z</time></trkpt><trkpt lat="42.280575" lon="13.779515"><ele>344.0</ele><time>2026-05-02T10:29:35.062Z</time></trkpt><trkpt lat="42.2805133" lon="13.77935"><ele>344.0</ele><time>2026-05-02T10:29:36.063Z</time></trkpt><trkpt lat="42.2804567" lon="13.7791867"><ele>344.0</ele><time>2026-05-02T10:29:37.063Z</time></trkpt><trkpt lat="42.2804183" lon="13.779015"><ele>344.25</ele><time>2026-05-02T10:29:38.062Z</time></trkpt><trkpt lat="42.2803933" lon="13.7788367"><ele>344.5</ele><time>2026-05-02T10:29:39.063Z</time></trkpt><trkpt lat="42.2803633" lon="13.77865"><ele>344.75</ele><time>2026-05-02T10:29:40.062Z</time></trkpt><trkpt lat="42.280335" lon="13.778445"><ele>345.0</ele><time>2026-05-02T10:29:41.062Z</time></trkpt><trkpt lat="42.280315" lon="13.7782467"><ele>345.0</ele><time>2026-05-02T10:29:42.062Z</time></trkpt><trkpt lat="42.2802967" lon="13.7780217"><ele>345.0</ele><time>2026-05-02T10:29:43.063Z</time></trkpt><trkpt lat="42.2802683" lon="13.7777867"><ele>345.0</ele><time>2026-05-02T10:29:44.062Z</time></trkpt><trkpt lat="42.280235" lon="13.7775533"><ele>345.3333333333333</ele><time>2026-05-02T10:29:45.063Z</time></trkpt><trkpt lat="42.2802067" lon="13.7773417"><ele>345.66666666666663</ele><time>2026-05-02T10:29:46.063Z</time></trkpt><trkpt lat="42.2801733" lon="13.7771333"><ele>346.0</ele><time>2026-05-02T10:29:47.063Z</time></trkpt><trkpt lat="42.2801317" lon="13.77692"><ele>346.0</ele><time>2026-05-02T10:29:48.063Z</time></trkpt><trkpt lat="42.2800933" lon="13.7766983"><ele>346.0</ele><time>2026-05-02T10:29:49.062Z</time></trkpt><trkpt lat="42.2800483" lon="13.77647"><ele>346.0</ele><time>2026-05-02T10:29:50.062Z</time></trkpt><trkpt lat="42.2800133" lon="13.77625"><ele>346.0</ele><time>2026-05-02T10:29:51.062Z</time></trkpt><trkpt lat="42.27999" lon="13.7760517"><ele>346.0</ele><time>2026-05-02T10:29:52.062Z</time></trkpt><trkpt lat="42.2799733" lon="13.7758583"><ele>346.0</ele><time>2026-05-02T10:29:53.063Z</time></trkpt><trkpt lat="42.279965" lon="13.7756967"><ele>346.0</ele><time>2026-05-02T10:29:54.062Z</time></trkpt><trkpt lat="42.279965" lon="13.7755583"><ele>346.0</ele><time>2026-05-02T10:29:55.063Z</time></trkpt><trkpt lat="42.279975" lon="13.77547"><ele>346.0</ele><time>2026-05-02T10:29:56.063Z</time></trkpt><trkpt lat="42.2800417" lon="13.7753567"><ele>346.0</ele><time>2026-05-02T10:29:58.063Z</time></trkpt><trkpt lat="42.280115" lon="13.775295"><ele>346.0</ele><time>2026-05-02T10:29:59.062Z</time></trkpt><trkpt lat="42.2802117" lon="13.7752333"><ele>346.0</ele><time>2026-05-02T10:30:00.063Z</time></trkpt><trkpt lat="42.28033" lon="13.7751633"><ele>346.0</ele><time>2026-05-02T10:30:01.063Z</time></trkpt><trkpt lat="42.280455" lon="13.7750817"><ele>346.0</ele><time>2026-05-02T10:30:02.062Z</time></trkpt><trkpt lat="42.2805917" lon="13.7749933"><ele>346.0</ele><time>2026-05-02T10:30:03.063Z</time></trkpt><trkpt lat="42.2807383" lon="13.774905"><ele>346.3333333333333</ele><time>2026-05-02T10:30:04.063Z</time></trkpt><trkpt lat="42.280885" lon="13.7748083"><ele>346.6666666666667</ele><time>2026-05-02T10:30:05.062Z</time></trkpt><trkpt lat="42.2810333" lon="13.7747083"><ele>347.0</ele><time>2026-05-02T10:30:06.062Z</time></trkpt><trkpt lat="42.2811617" lon="13.7746217"><ele>347.0</ele><time>2026-05-02T10:30:07.063Z</time></trkpt><trkpt lat="42.2812767" lon="13.7745517"><ele>347.0</ele><time>2026-05-02T10:30:08.062Z</time></trkpt><trkpt lat="42.2813667" lon="13.7745"><ele>347.0</ele><time>2026-05-02T10:30:09.063Z</time></trkpt><trkpt lat="42.2814367" lon="13.7744633"><ele>347.0</ele><time>2026-05-02T10:30:10.062Z</time></trkpt><trkpt lat="42.2815083" lon="13.7744083"><ele>347.0</ele><time>2026-05-02T10:30:12.063Z</time></trkpt><trkpt lat="42.2815917" lon="13.7743817"><ele>347.33333333333337</ele><time>2026-05-02T10:31:52.062Z</time></trkpt><trkpt lat="42.281675" lon="13.774445"><ele>347.6666666666667</ele><time>2026-05-02T10:31:55.061Z</time></trkpt><trkpt lat="42.2817583" lon="13.7745067"><ele>348.0</ele><time>2026-05-02T10:31:57.062Z</time></trkpt><trkpt lat="42.28182" lon="13.7745433"><ele>348.3333333333333</ele><time>2026-05-02T10:31:58.062Z</time></trkpt><trkpt lat="42.2818867" lon="13.774575"><ele>348.66666666666663</ele><time>2026-05-02T10:31:59.061Z</time></trkpt><trkpt lat="42.2819633" lon="13.7745933"><ele>349.0</ele><time>2026-05-02T10:32:00.062Z</time></trkpt><trkpt lat="42.2820433" lon="13.7746067"><ele>349.0</ele><time>2026-05-02T10:32:01.061Z</time></trkpt><trkpt lat="42.2821317" lon="13.7746233"><ele>349.0</ele><time>2026-05-02T10:32:02.061Z</time></trkpt><trkpt lat="42.2822183" lon="13.774645"><ele>349.0</ele><time>2026-05-02T10:32:03.061Z</time></trkpt><trkpt lat="42.2823083" lon="13.774665"><ele>349.0</ele><time>2026-05-02T10:32:04.061Z</time></trkpt><trkpt lat="42.28239" lon="13.7746833"><ele>349.0</ele><time>2026-05-02T10:32:05.061Z</time></trkpt><trkpt lat="42.2824567" lon="13.7747067"><ele>349.0</ele><time>2026-05-02T10:32:06.062Z</time></trkpt><trkpt lat="42.282555" lon="13.7747633"><ele>348.79999999999995</ele><time>2026-05-02T10:32:08.061Z</time></trkpt><trkpt lat="42.2826617" lon="13.7748317"><ele>348.59999999999997</ele><time>2026-05-02T10:32:10.061Z</time></trkpt><trkpt lat="42.2827517" lon="13.77483"><ele>348.4</ele><time>2026-05-02T10:32:12.061Z</time></trkpt><trkpt lat="42.2828167" lon="13.77474"><ele>348.2</ele><time>2026-05-02T10:32:14.062Z</time></trkpt><trkpt lat="42.2828533" lon="13.7746583"><ele>348.0</ele><time>2026-05-02T10:32:15.062Z</time></trkpt><trkpt lat="42.2829" lon="13.774565"><ele>348.0</ele><time>2026-05-02T10:32:16.061Z</time></trkpt><trkpt lat="42.2829517" lon="13.7744717"><ele>348.0</ele><time>2026-05-02T10:32:17.061Z</time></trkpt><trkpt lat="42.2830067" lon="13.7743933"><ele>348.0</ele><time>2026-05-02T10:32:18.062Z</time></trkpt><trkpt lat="42.2830567" lon="13.774315"><ele>348.0</ele><time>2026-05-02T10:32:19.061Z</time></trkpt><trkpt lat="42.2831167" lon="13.7742267"><ele>348.0</ele><time>2026-05-02T10:32:20.062Z</time></trkpt><trkpt lat="42.2831867" lon="13.77413"><ele>348.0</ele><time>2026-05-02T10:32:21.061Z</time></trkpt><trkpt lat="42.28326" lon="13.7740233"><ele>348.75</ele><time>2026-05-02T10:32:22.062Z</time></trkpt><trkpt lat="42.28333" lon="13.7739117"><ele>349.5</ele><time>2026-05-02T10:32:23.062Z</time></trkpt><trkpt lat="42.283405" lon="13.773795"><ele>350.25</ele><time>2026-05-02T10:32:24.062Z</time></trkpt><trkpt lat="42.283485" lon="13.7736683"><ele>351.0</ele><time>2026-05-02T10:32:25.062Z</time></trkpt><trkpt lat="42.2835633" lon="13.7735333"><ele>354.75</ele><time>2026-05-02T10:32:26.062Z</time></trkpt><trkpt lat="42.28364" lon="13.7734017"><ele>358.5</ele><time>2026-05-02T10:32:27.062Z</time></trkpt><trkpt lat="42.2837183" lon="13.7732717"><ele>362.25</ele><time>2026-05-02T10:32:28.061Z</time></trkpt><trkpt lat="42.2837817" lon="13.773145"><ele>366.0</ele><time>2026-05-02T10:32:29.062Z</time></trkpt><trkpt lat="42.2838333" lon="13.7730433"><ele>366.0</ele><time>2026-05-02T10:32:30.062Z</time></trkpt><trkpt lat="42.283885" lon="13.7729667"><ele>366.0</ele><time>2026-05-02T10:32:31.061Z</time></trkpt><trkpt lat="42.2839533" lon="13.7728667"><ele>366.0</ele><time>2026-05-02T10:32:33.061Z</time></trkpt><trkpt lat="42.2840133" lon="13.7727617"><ele>366.0</ele><time>2026-05-02T10:32:35.062Z</time></trkpt><trkpt lat="42.2840517" lon="13.7726933"><ele>366.0</ele><time>2026-05-02T10:32:36.062Z</time></trkpt><trkpt lat="42.284095" lon="13.7726183"><ele>366.0</ele><time>2026-05-02T10:32:37.061Z</time></trkpt><trkpt lat="42.284135" lon="13.7725483"><ele>365.6</ele><time>2026-05-02T10:32:38.062Z</time></trkpt><trkpt lat="42.2841833" lon="13.77244"><ele>365.20000000000005</ele><time>2026-05-02T10:32:40.061Z</time></trkpt><trkpt lat="42.2842033" lon="13.7723533"><ele>364.79999999999995</ele><time>2026-05-02T10:32:42.061Z</time></trkpt><trkpt lat="42.284235" lon="13.7722317"><ele>364.4</ele><time>2026-05-02T10:32:44.062Z</time></trkpt><trkpt lat="42.2842833" lon="13.7720717"><ele>364.0</ele><time>2026-05-02T10:32:46.061Z</time></trkpt><trkpt lat="42.2843283" lon="13.7719467"><ele>364.0</ele><time>2026-05-02T10:32:48.062Z</time></trkpt><trkpt lat="42.2843733" lon="13.77185"><ele>364.0</ele><time>2026-05-02T10:32:50.062Z</time></trkpt><trkpt lat="42.2843167" lon="13.77198"><ele>364.0</ele><time>2026-05-02T10:33:03.061Z</time></trkpt><trkpt lat="42.2842817" lon="13.772085"><ele>364.0</ele><time>2026-05-02T10:33:04.062Z</time></trkpt><trkpt lat="42.2842433" lon="13.77221"><ele>364.0</ele><time>2026-05-02T10:33:05.062Z</time></trkpt><trkpt lat="42.2842083" lon="13.77234"><ele>364.0</ele><time>2026-05-02T10:33:06.061Z</time></trkpt><trkpt lat="42.2841717" lon="13.772465"><ele>364.0</ele><time>2026-05-02T10:33:07.061Z</time></trkpt><trkpt lat="42.284115" lon="13.7725867"><ele>364.0</ele><time>2026-05-02T10:33:08.062Z</time></trkpt><trkpt lat="42.2840433" lon="13.7727117"><ele>364.0</ele><time>2026-05-02T10:33:09.061Z</time></trkpt><trkpt lat="42.28396" lon="13.7728483"><ele>364.66666666666663</ele><time>2026-05-02T10:33:10.062Z</time></trkpt><trkpt lat="42.2838667" lon="13.7729983"><ele>365.3333333333333</ele><time>2026-05-02T10:33:11.061Z</time></trkpt><trkpt lat="42.28377" lon="13.77316"><ele>366.0</ele><time>2026-05-02T10:33:12.062Z</time></trkpt><trkpt lat="42.2836683" lon="13.77333"><ele>366.0</ele><time>2026-05-02T10:33:13.062Z</time></trkpt><trkpt lat="42.2835783" lon="13.77349"><ele>366.0</ele><time>2026-05-02T10:33:14.061Z</time></trkpt><trkpt lat="42.2834867" lon="13.7736383"><ele>366.0</ele><time>2026-05-02T10:33:15.061Z</time></trkpt><trkpt lat="42.2834" lon="13.7737783"><ele>366.0</ele><time>2026-05-02T10:33:16.062Z</time></trkpt><trkpt lat="42.283315" lon="13.77391"><ele>364.6</ele><time>2026-05-02T10:33:17.062Z</time></trkpt><trkpt lat="42.2832367" lon="13.774025"><ele>363.20000000000005</ele><time>2026-05-02T10:33:18.062Z</time></trkpt><trkpt lat="42.2831683" lon="13.7741317"><ele>361.79999999999995</ele><time>2026-05-02T10:33:19.062Z</time></trkpt><trkpt lat="42.2831083" lon="13.7742283"><ele>360.4</ele><time>2026-05-02T10:33:20.061Z</time></trkpt><trkpt lat="42.2830583" lon="13.77431"><ele>359.0</ele><time>2026-05-02T10:33:21.061Z</time></trkpt><trkpt lat="42.2830083" lon="13.7744067"><ele>359.0</ele><time>2026-05-02T10:33:23.062Z</time></trkpt><trkpt lat="42.282935" lon="13.7744317"><ele>359.0</ele><time>2026-05-02T10:33:28.062Z</time></trkpt><trkpt lat="42.283" lon="13.7743483"><ele>359.0</ele><time>2026-05-02T10:33:34.062Z</time></trkpt><trkpt lat="42.2830417" lon="13.77418"><ele>359.0</ele><time>2026-05-02T10:33:36.061Z</time></trkpt><trkpt lat="42.2830683" lon="13.7740867"><ele>359.0</ele><time>2026-05-02T10:33:37.062Z</time></trkpt><trkpt lat="42.28309" lon="13.773985"><ele>359.0</ele><time>2026-05-02T10:33:38.062Z</time></trkpt><trkpt lat="42.2831067" lon="13.7738983"><ele>360.4</ele><time>2026-05-02T10:33:39.061Z</time></trkpt><trkpt lat="42.2831383" lon="13.7737483"><ele>361.79999999999995</ele><time>2026-05-02T10:33:41.062Z</time></trkpt><trkpt lat="42.2831733" lon="13.7736067"><ele>363.20000000000005</ele><time>2026-05-02T10:33:43.061Z</time></trkpt><trkpt lat="42.2831983" lon="13.7735167"><ele>364.6</ele><time>2026-05-02T10:33:44.062Z</time></trkpt><trkpt lat="42.2832333" lon="13.7734217"><ele>366.0</ele><time>2026-05-02T10:33:45.061Z</time></trkpt><trkpt lat="42.28327" lon="13.7733217"><ele>366.0</ele><time>2026-05-02T10:33:46.062Z</time></trkpt><trkpt lat="42.2832967" lon="13.77322"><ele>366.0</ele><time>2026-05-02T10:33:47.062Z</time></trkpt><trkpt lat="42.283325" lon="13.7731117"><ele>366.0</ele><time>2026-05-02T10:33:48.061Z</time></trkpt><trkpt lat="42.2833483" lon="13.7730033"><ele>366.0</ele><time>2026-05-02T10:33:49.062Z</time></trkpt><trkpt lat="42.2833767" lon="13.7728933"><ele>366.0</ele><time>2026-05-02T10:33:50.062Z</time></trkpt><trkpt lat="42.2834067" lon="13.7727867"><ele>366.0</ele><time>2026-05-02T10:33:51.062Z</time></trkpt><trkpt lat="42.28343" lon="13.7726867"><ele>367.8333333333333</ele><time>2026-05-02T10:33:52.061Z</time></trkpt><trkpt lat="42.2834533" lon="13.7725833"><ele>369.6666666666667</ele><time>2026-05-02T10:33:53.061Z</time></trkpt><trkpt lat="42.2834817" lon="13.7724733"><ele>371.5</ele><time>2026-05-02T10:33:54.062Z</time></trkpt><trkpt lat="42.2835067" lon="13.7723667"><ele>373.33333333333337</ele><time>2026-05-02T10:33:55.061Z</time></trkpt><trkpt lat="42.2835217" lon="13.772265"><ele>375.1666666666667</ele><time>2026-05-02T10:33:56.062Z</time></trkpt><trkpt lat="42.2835267" lon="13.7721667"><ele>377.0</ele><time>2026-05-02T10:33:57.062Z</time></trkpt><trkpt lat="42.28353" lon="13.772075"><ele>377.0</ele><time>2026-05-02T10:33:58.061Z</time></trkpt><trkpt lat="42.2835317" lon="13.77196"><ele>377.0</ele><time>2026-05-02T10:33:59.062Z</time></trkpt><trkpt lat="42.283535" lon="13.7718383"><ele>377.0</ele><time>2026-05-02T10:34:00.061Z</time></trkpt><trkpt lat="42.2835467" lon="13.7717033"><ele>377.0</ele><time>2026-05-02T10:34:01.062Z</time></trkpt><trkpt lat="42.2835483" lon="13.771585"><ele>377.0</ele><time>2026-05-02T10:34:02.062Z</time></trkpt><trkpt lat="42.283545" lon="13.771465"><ele>377.6</ele><time>2026-05-02T10:34:03.062Z</time></trkpt><trkpt lat="42.2835317" lon="13.7713317"><ele>378.20000000000005</ele><time>2026-05-02T10:34:04.062Z</time></trkpt><trkpt lat="42.283515" lon="13.7711933"><ele>378.8</ele><time>2026-05-02T10:34:05.062Z</time></trkpt><trkpt lat="42.28349" lon="13.771045"><ele>379.4</ele><time>2026-05-02T10:34:06.062Z</time></trkpt><trkpt lat="42.28347" lon="13.7709133"><ele>380.0</ele><time>2026-05-02T10:34:07.061Z</time></trkpt><trkpt lat="42.2834617" lon="13.7707967"><ele>380.0</ele><time>2026-05-02T10:34:08.062Z</time></trkpt><trkpt lat="42.2834617" lon="13.7706833"><ele>380.0</ele><time>2026-05-02T10:34:09.061Z</time></trkpt><trkpt lat="42.2834717" lon="13.7705867"><ele>380.0</ele><time>2026-05-02T10:34:10.062Z</time></trkpt><trkpt lat="42.2834783" lon="13.77048"><ele>380.0</ele><time>2026-05-02T10:34:11.062Z</time></trkpt><trkpt lat="42.2834817" lon="13.7703583"><ele>380.0</ele><time>2026-05-02T10:34:12.061Z</time></trkpt><trkpt lat="42.28348" lon="13.7702417"><ele>380.0</ele><time>2026-05-02T10:34:13.062Z</time></trkpt><trkpt lat="42.283465" lon="13.7701433"><ele>379.6666666666667</ele><time>2026-05-02T10:34:14.061Z</time></trkpt><trkpt lat="42.2834417" lon="13.77006"><ele>379.33333333333337</ele><time>2026-05-02T10:34:15.062Z</time></trkpt><trkpt lat="42.2834133" lon="13.7699567"><ele>379.0</ele><time>2026-05-02T10:34:16.061Z</time></trkpt><trkpt lat="42.2834033" lon="13.76985"><ele>378.6666666666667</ele><time>2026-05-02T10:34:17.062Z</time></trkpt><trkpt lat="42.2834017" lon="13.76974"><ele>378.3333333333333</ele><time>2026-05-02T10:34:18.062Z</time></trkpt><trkpt lat="42.2834" lon="13.7696133"><ele>378.0</ele><time>2026-05-02T10:34:19.061Z</time></trkpt><trkpt lat="42.28339" lon="13.7694817"><ele>379.6666666666667</ele><time>2026-05-02T10:34:20.061Z</time></trkpt><trkpt lat="42.2833767" lon="13.769345"><ele>381.33333333333337</ele><time>2026-05-02T10:34:21.062Z</time></trkpt><trkpt lat="42.2833683" lon="13.7692083"><ele>383.0</ele><time>2026-05-02T10:34:22.061Z</time></trkpt><trkpt lat="42.2833567" lon="13.7690933"><ele>384.6666666666667</ele><time>2026-05-02T10:34:23.061Z</time></trkpt><trkpt lat="42.2833467" lon="13.768995"><ele>386.33333333333337</ele><time>2026-05-02T10:34:24.061Z</time></trkpt><trkpt lat="42.2833367" lon="13.76891"><ele>388.0</ele><time>2026-05-02T10:34:25.062Z</time></trkpt><trkpt lat="42.2833183" lon="13.7687717"><ele>388.0</ele><time>2026-05-02T10:34:27.062Z</time></trkpt><trkpt lat="42.2833" lon="13.7686083"><ele>388.0</ele><time>2026-05-02T10:34:29.061Z</time></trkpt><trkpt lat="42.283295" lon="13.7685083"><ele>388.0</ele><time>2026-05-02T10:34:30.062Z</time></trkpt><trkpt lat="42.2832867" lon="13.7683917"><ele>388.0</ele><time>2026-05-02T10:34:31.062Z</time></trkpt><trkpt lat="42.28329" lon="13.76827"><ele>388.0</ele><time>2026-05-02T10:34:32.061Z</time></trkpt><trkpt lat="42.283295" lon="13.768155"><ele>390.59999999999997</ele><time>2026-05-02T10:34:33.062Z</time></trkpt><trkpt lat="42.2833017" lon="13.7680317"><ele>393.2</ele><time>2026-05-02T10:34:34.062Z</time></trkpt><trkpt lat="42.2833133" lon="13.7678967"><ele>395.8</ele><time>2026-05-02T10:34:35.062Z</time></trkpt><trkpt lat="42.28333" lon="13.7677383"><ele>398.4</ele><time>2026-05-02T10:34:36.062Z</time></trkpt><trkpt lat="42.2833517" lon="13.76758"><ele>401.0</ele><time>2026-05-02T10:34:37.061Z</time></trkpt><trkpt lat="42.2833733" lon="13.767435"><ele>400.6</ele><time>2026-05-02T10:34:38.062Z</time></trkpt><trkpt lat="42.2833933" lon="13.7672983"><ele>400.20000000000005</ele><time>2026-05-02T10:34:39.061Z</time></trkpt><trkpt lat="42.2834117" lon="13.7671483"><ele>399.79999999999995</ele><time>2026-05-02T10:34:40.061Z</time></trkpt><trkpt lat="42.28343" lon="13.7669967"><ele>399.4</ele><time>2026-05-02T10:34:41.061Z</time></trkpt><trkpt lat="42.28345" lon="13.7668433"><ele>399.0</ele><time>2026-05-02T10:34:42.061Z</time></trkpt><trkpt lat="42.2834767" lon="13.7667"><ele>399.0</ele><time>2026-05-02T10:34:43.061Z</time></trkpt><trkpt lat="42.283505" lon="13.766545"><ele>399.0</ele><time>2026-05-02T10:34:44.061Z</time></trkpt><trkpt lat="42.28352" lon="13.766375"><ele>399.0</ele><time>2026-05-02T10:34:45.062Z</time></trkpt><trkpt lat="42.283535" lon="13.7661917"><ele>399.0</ele><time>2026-05-02T10:34:46.062Z</time></trkpt><trkpt lat="42.2835467" lon="13.766015"><ele>396.75</ele><time>2026-05-02T10:34:47.062Z</time></trkpt><trkpt lat="42.2835533" lon="13.76585"><ele>394.5</ele><time>2026-05-02T10:34:48.061Z</time></trkpt><trkpt lat="42.2835667" lon="13.7656833"><ele>392.25</ele><time>2026-05-02T10:34:49.061Z</time></trkpt><trkpt lat="42.2835833" lon="13.76553"><ele>390.0</ele><time>2026-05-02T10:34:50.061Z</time></trkpt><trkpt lat="42.2836033" lon="13.7653767"><ele>390.0</ele><time>2026-05-02T10:34:51.061Z</time></trkpt><trkpt lat="42.283615" lon="13.7652367"><ele>390.0</ele><time>2026-05-02T10:34:52.062Z</time></trkpt><trkpt lat="42.2836267" lon="13.7651083"><ele>390.0</ele><time>2026-05-02T10:34:53.062Z</time></trkpt><trkpt lat="42.2836433" lon="13.7649933"><ele>390.0</ele><time>2026-05-02T10:34:54.061Z</time></trkpt><trkpt lat="42.2836783" lon="13.7648817"><ele>390.0</ele><time>2026-05-02T10:34:55.061Z</time></trkpt><trkpt lat="42.28373" lon="13.764755"><ele>389.25</ele><time>2026-05-02T10:34:56.061Z</time></trkpt><trkpt lat="42.2837983" lon="13.7646217"><ele>388.5</ele><time>2026-05-02T10:34:57.061Z</time></trkpt><trkpt lat="42.283885" lon="13.7644883"><ele>387.75</ele><time>2026-05-02T10:34:58.061Z</time></trkpt><trkpt lat="42.2839833" lon="13.7643533"><ele>387.0</ele><time>2026-05-02T10:34:59.062Z</time></trkpt><trkpt lat="42.2840683" lon="13.7642183"><ele>387.0</ele><time>2026-05-02T10:35:00.062Z</time></trkpt><trkpt lat="42.284145" lon="13.7640983"><ele>387.0</ele><time>2026-05-02T10:35:01.061Z</time></trkpt><trkpt lat="42.2842067" lon="13.7639967"><ele>387.0</ele><time>2026-05-02T10:35:02.062Z</time></trkpt><trkpt lat="42.284255" lon="13.76388"><ele>387.0</ele><time>2026-05-02T10:35:04.061Z</time></trkpt><trkpt lat="42.2841817" lon="13.7638033"><ele>387.0</ele><time>2026-05-02T10:35:07.062Z</time></trkpt><trkpt lat="42.2841167" lon="13.7637933"><ele>387.0</ele><time>2026-05-02T10:35:08.061Z</time></trkpt><trkpt lat="42.2840283" lon="13.763785"><ele>387.0</ele><time>2026-05-02T10:35:09.062Z</time></trkpt><trkpt lat="42.2839267" lon="13.7637833"><ele>387.0</ele><time>2026-05-02T10:35:10.061Z</time></trkpt><trkpt lat="42.2838167" lon="13.7637767"><ele>387.0</ele><time>2026-05-02T10:35:11.061Z</time></trkpt><trkpt lat="42.2837067" lon="13.76376"><ele>387.0</ele><time>2026-05-02T10:35:12.061Z</time></trkpt><trkpt lat="42.2835867" lon="13.7637467"><ele>387.0</ele><time>2026-05-02T10:35:13.062Z</time></trkpt><trkpt lat="42.28346" lon="13.763735"><ele>387.0</ele><time>2026-05-02T10:35:14.062Z</time></trkpt><trkpt lat="42.28332" lon="13.7637217"><ele>387.0</ele><time>2026-05-02T10:35:15.062Z</time></trkpt><trkpt lat="42.283185" lon="13.763705"><ele>387.0</ele><time>2026-05-02T10:35:16.061Z</time></trkpt><trkpt lat="42.28307" lon="13.7636933"><ele>387.8</ele><time>2026-05-02T10:35:17.062Z</time></trkpt><trkpt lat="42.28297" lon="13.7636917"><ele>388.6</ele><time>2026-05-02T10:35:18.061Z</time></trkpt><trkpt lat="42.2828817" lon="13.76371"><ele>389.40000000000003</ele><time>2026-05-02T10:35:19.062Z</time></trkpt><trkpt lat="42.2828017" lon="13.76373"><ele>390.20000000000005</ele><time>2026-05-02T10:35:20.062Z</time></trkpt><trkpt lat="42.2827383" lon="13.76374"><ele>391.0</ele><time>2026-05-02T10:35:21.062Z</time></trkpt><trkpt lat="42.2826167" lon="13.7636967"><ele>391.00000000000006</ele><time>2026-05-02T10:35:23.061Z</time></trkpt><trkpt lat="42.2825417" lon="13.7636683"><ele>391.0</ele><time>2026-05-02T10:35:24.061Z</time></trkpt><trkpt lat="42.282465" lon="13.763635"><ele>391.0</ele><time>2026-05-02T10:35:25.062Z</time></trkpt><trkpt lat="42.2823833" lon="13.7635967"><ele>391.0</ele><time>2026-05-02T10:35:26.061Z</time></trkpt><trkpt lat="42.2822933" lon="13.7635583"><ele>391.00000000000006</ele><time>2026-05-02T10:35:27.062Z</time></trkpt><trkpt lat="42.2822067" lon="13.7635383"><ele>391.0</ele><time>2026-05-02T10:35:28.062Z</time></trkpt><trkpt lat="42.282135" lon="13.7635383"><ele>393.33333333333337</ele><time>2026-05-02T10:35:29.061Z</time></trkpt><trkpt lat="42.2820617" lon="13.7635617"><ele>395.6666666666667</ele><time>2026-05-02T10:35:30.062Z</time></trkpt><trkpt lat="42.2819833" lon="13.7635817"><ele>398.0</ele><time>2026-05-02T10:35:31.061Z</time></trkpt><trkpt lat="42.2818983" lon="13.7635833"><ele>400.33333333333337</ele><time>2026-05-02T10:35:32.062Z</time></trkpt><trkpt lat="42.2818117" lon="13.7635717"><ele>402.6666666666667</ele><time>2026-05-02T10:35:33.062Z</time></trkpt><trkpt lat="42.2817267" lon="13.7635633"><ele>405.0</ele><time>2026-05-02T10:35:34.061Z</time></trkpt><trkpt lat="42.2816367" lon="13.763565"><ele>405.0</ele><time>2026-05-02T10:35:35.062Z</time></trkpt><trkpt lat="42.2815467" lon="13.763585"><ele>405.0</ele><time>2026-05-02T10:35:36.061Z</time></trkpt><trkpt lat="42.2814483" lon="13.7636133"><ele>405.0</ele><time>2026-05-02T10:35:37.062Z</time></trkpt><trkpt lat="42.2813453" lon="13.7636411"><ele>405.0</ele><time>2026-05-02T10:35:38.061Z</time></trkpt><trkpt lat="42.2812432" lon="13.7636595"><ele>405.0</ele><time>2026-05-02T10:35:39.062Z</time></trkpt><trkpt lat="42.2811391" lon="13.7636634"><ele>407.0</ele><time>2026-05-02T10:35:40.061Z</time></trkpt><trkpt lat="42.2810415" lon="13.7636428"><ele>409.0</ele><time>2026-05-02T10:35:41.061Z</time></trkpt><trkpt lat="42.2809519" lon="13.763599"><ele>411.0</ele><time>2026-05-02T10:35:42.061Z</time></trkpt><trkpt lat="42.2808687" lon="13.7635643"><ele>413.0</ele><time>2026-05-02T10:35:43.061Z</time></trkpt><trkpt lat="42.2807906" lon="13.763542"><ele>415.0</ele><time>2026-05-02T10:35:44.062Z</time></trkpt><trkpt lat="42.2807089" lon="13.7635215"><ele>417.0</ele><time>2026-05-02T10:35:45.062Z</time></trkpt><trkpt lat="42.2806257" lon="13.7634994"><ele>421.5</ele><time>2026-05-02T10:35:46.062Z</time></trkpt><trkpt lat="42.2805467" lon="13.7634631"><ele>426.0</ele><time>2026-05-02T10:35:47.061Z</time></trkpt><trkpt lat="42.2804708" lon="13.7634309"><ele>430.5</ele><time>2026-05-02T10:35:48.061Z</time></trkpt><trkpt lat="42.280396" lon="13.7633958"><ele>435.0</ele><time>2026-05-02T10:35:49.061Z</time></trkpt><trkpt lat="42.2803189" lon="13.7633718"><ele>439.5</ele><time>2026-05-02T10:35:50.061Z</time></trkpt><trkpt lat="42.2802388" lon="13.763349"><ele>444.0</ele><time>2026-05-02T10:35:51.062Z</time></trkpt><trkpt lat="42.2801722" lon="13.7633088"><ele>444.0</ele><time>2026-05-02T10:35:52.061Z</time></trkpt><trkpt lat="42.2801059" lon="13.763247"><ele>444.0</ele><time>2026-05-02T10:35:53.06Z</time></trkpt><trkpt lat="42.2800454" lon="13.763168"><ele>444.0</ele><time>2026-05-02T10:35:54.061Z</time></trkpt><trkpt lat="42.2799841" lon="13.7630862"><ele>444.0</ele><time>2026-05-02T10:35:55.06Z</time></trkpt><trkpt lat="42.2799201" lon="13.7630128"><ele>444.0</ele><time>2026-05-02T10:35:56.06Z</time></trkpt><trkpt lat="42.2798523" lon="13.762943"><ele>444.0</ele><time>2026-05-02T10:35:57.06Z</time></trkpt><trkpt lat="42.2797824" lon="13.7628702"><ele>445.5</ele><time>2026-05-02T10:35:58.06Z</time></trkpt><trkpt lat="42.2797158" lon="13.762797"><ele>447.0</ele><time>2026-05-02T10:35:59.06Z</time></trkpt><trkpt lat="42.279651" lon="13.7627242"><ele>448.5</ele><time>2026-05-02T10:36:00.06Z</time></trkpt><trkpt lat="42.279585" lon="13.7626584"><ele>450.0</ele><time>2026-05-02T10:36:01.06Z</time></trkpt><trkpt lat="42.2795059" lon="13.7626013"><ele>451.5</ele><time>2026-05-02T10:36:02.061Z</time></trkpt><trkpt lat="42.2794201" lon="13.7625602"><ele>453.0</ele><time>2026-05-02T10:36:03.061Z</time></trkpt><trkpt lat="42.279334" lon="13.7625294"><ele>454.4</ele><time>2026-05-02T10:36:04.061Z</time></trkpt><trkpt lat="42.2792435" lon="13.7625029"><ele>455.79999999999995</ele><time>2026-05-02T10:36:05.06Z</time></trkpt><trkpt lat="42.2791527" lon="13.7624745"><ele>457.2</ele><time>2026-05-02T10:36:06.061Z</time></trkpt><trkpt lat="42.2790609" lon="13.7624397"><ele>458.6</ele><time>2026-05-02T10:36:07.06Z</time></trkpt><trkpt lat="42.2789683" lon="13.7623905"><ele>460.0</ele><time>2026-05-02T10:36:08.06Z</time></trkpt><trkpt lat="42.2788789" lon="13.762344"><ele>461.8</ele><time>2026-05-02T10:36:09.06Z</time></trkpt><trkpt lat="42.2787844" lon="13.7623039"><ele>463.6</ele><time>2026-05-02T10:36:10.06Z</time></trkpt><trkpt lat="42.278689" lon="13.7622628"><ele>465.4</ele><time>2026-05-02T10:36:11.06Z</time></trkpt><trkpt lat="42.2785911" lon="13.7622228"><ele>467.2</ele><time>2026-05-02T10:36:12.06Z</time></trkpt><trkpt lat="42.2784938" lon="13.7621774"><ele>469.0</ele><time>2026-05-02T10:36:13.061Z</time></trkpt><trkpt lat="42.2784052" lon="13.7621233"><ele>469.0</ele><time>2026-05-02T10:36:14.061Z</time></trkpt><trkpt lat="42.2783296" lon="13.7620392"><ele>469.0</ele><time>2026-05-02T10:36:15.061Z</time></trkpt><trkpt lat="42.278259" lon="13.7619409"><ele>469.0</ele><time>2026-05-02T10:36:16.061Z</time></trkpt><trkpt lat="42.2781881" lon="13.7618523"><ele>469.0</ele><time>2026-05-02T10:36:17.061Z</time></trkpt><trkpt lat="42.2781055" lon="13.7617907"><ele>469.0</ele><time>2026-05-02T10:36:18.06Z</time></trkpt><trkpt lat="42.2780045" lon="13.7617487"><ele>470.6</ele><time>2026-05-02T10:36:19.061Z</time></trkpt><trkpt lat="42.2778918" lon="13.7617186"><ele>472.2</ele><time>2026-05-02T10:36:20.06Z</time></trkpt><trkpt lat="42.2777783" lon="13.7616932"><ele>473.80000000000007</ele><time>2026-05-02T10:36:21.06Z</time></trkpt><trkpt lat="42.2776738" lon="13.7616853"><ele>475.40000000000003</ele><time>2026-05-02T10:36:22.061Z</time></trkpt><trkpt lat="42.2775746" lon="13.76171"><ele>477.0</ele><time>2026-05-02T10:36:23.06Z</time></trkpt><trkpt lat="42.2774822" lon="13.7617424"><ele>477.0</ele><time>2026-05-02T10:36:24.061Z</time></trkpt><trkpt lat="42.2773787" lon="13.7617741"><ele>477.0</ele><time>2026-05-02T10:36:25.061Z</time></trkpt><trkpt lat="42.2772622" lon="13.7617818"><ele>477.0</ele><time>2026-05-02T10:36:26.06Z</time></trkpt><trkpt lat="42.2771451" lon="13.7617749"><ele>477.0</ele><time>2026-05-02T10:36:27.06Z</time></trkpt><trkpt lat="42.2770241" lon="13.7617582"><ele>479.25</ele><time>2026-05-02T10:36:28.06Z</time></trkpt><trkpt lat="42.2769029" lon="13.7617491"><ele>481.5</ele><time>2026-05-02T10:36:29.061Z</time></trkpt><trkpt lat="42.2767851" lon="13.7617473"><ele>483.75</ele><time>2026-05-02T10:36:30.061Z</time></trkpt><trkpt lat="42.2766712" lon="13.7617489"><ele>486.0</ele><time>2026-05-02T10:36:31.06Z</time></trkpt><trkpt lat="42.2765636" lon="13.7617242"><ele>486.0</ele><time>2026-05-02T10:36:32.06Z</time></trkpt><trkpt lat="42.2764665" lon="13.7616805"><ele>486.0</ele><time>2026-05-02T10:36:33.06Z</time></trkpt><trkpt lat="42.2763633" lon="13.7616131"><ele>486.0</ele><time>2026-05-02T10:36:34.061Z</time></trkpt><trkpt lat="42.2762536" lon="13.7615523"><ele>486.0</ele><time>2026-05-02T10:36:35.061Z</time></trkpt><trkpt lat="42.2761386" lon="13.7614883"><ele>489.25</ele><time>2026-05-02T10:36:36.06Z</time></trkpt><trkpt lat="42.2760179" lon="13.7614165"><ele>492.5</ele><time>2026-05-02T10:36:37.06Z</time></trkpt><trkpt lat="42.2759027" lon="13.7613342"><ele>495.75</ele><time>2026-05-02T10:36:38.06Z</time></trkpt><trkpt lat="42.2757951" lon="13.7612473"><ele>499.0</ele><time>2026-05-02T10:36:39.061Z</time></trkpt><trkpt lat="42.2756868" lon="13.7611593"><ele>500.0</ele><time>2026-05-02T10:36:40.06Z</time></trkpt><trkpt lat="42.2755742" lon="13.761079"><ele>501.0</ele><time>2026-05-02T10:36:41.061Z</time></trkpt><trkpt lat="42.2754559" lon="13.7609982"><ele>502.0</ele><time>2026-05-02T10:36:42.061Z</time></trkpt><trkpt lat="42.2753355" lon="13.7609155"><ele>503.0</ele><time>2026-05-02T10:36:43.06Z</time></trkpt><trkpt lat="42.2752132" lon="13.7608371"><ele>503.0</ele><time>2026-05-02T10:36:44.061Z</time></trkpt><trkpt lat="42.27508" lon="13.76076"><ele>503.0</ele><time>2026-05-02T10:36:45.061Z</time></trkpt><trkpt lat="42.274965" lon="13.76069"><ele>503.0</ele><time>2026-05-02T10:36:46.06Z</time></trkpt><trkpt lat="42.2748667" lon="13.7606333"><ele>503.0</ele><time>2026-05-02T10:36:47.061Z</time></trkpt><trkpt lat="42.27479" lon="13.7605867"><ele>503.0</ele><time>2026-05-02T10:36:48.061Z</time></trkpt><trkpt lat="42.27473" lon="13.7605517"><ele>503.00000000000006</ele><time>2026-05-02T10:36:49.06Z</time></trkpt><trkpt lat="42.2746817" lon="13.760485"><ele>503.0</ele><time>2026-05-02T10:36:51.06Z</time></trkpt><trkpt lat="42.2747067" lon="13.7603867"><ele>503.0</ele><time>2026-05-02T10:44:37.059Z</time></trkpt><trkpt lat="42.2747783" lon="13.7603167"><ele>503.00000000000006</ele><time>2026-05-02T11:21:08.054Z</time></trkpt><trkpt lat="42.2747317" lon="13.7603783"><ele>503.0</ele><time>2026-05-02T11:21:18.053Z</time></trkpt><trkpt lat="42.2747883" lon="13.7604317"><ele>503.0</ele><time>2026-05-02T11:25:14.052Z</time></trkpt><trkpt lat="42.2748267" lon="13.760355"><ele>503.0</ele><time>2026-05-02T11:26:39.053Z</time></trkpt><trkpt lat="42.2748733" lon="13.760255"><ele>502.99999999999994</ele><time>2026-05-02T11:27:07.052Z</time></trkpt><trkpt lat="42.2749383" lon="13.760175"><ele>502.99999999999994</ele><time>2026-05-02T11:27:10.053Z</time></trkpt><trkpt lat="42.2750083" lon="13.7600933"><ele>503.0</ele><time>2026-05-02T11:27:12.052Z</time></trkpt><trkpt lat="42.2750667" lon="13.759995"><ele>503.0</ele><time>2026-05-02T11:27:14.053Z</time></trkpt><trkpt lat="42.2751417" lon="13.7598917"><ele>502.99999999999994</ele><time>2026-05-02T11:27:16.053Z</time></trkpt><trkpt lat="42.2751883" lon="13.7598283"><ele>503.0</ele><time>2026-05-02T11:27:17.052Z</time></trkpt><trkpt lat="42.2752367" lon="13.75975"><ele>503.0</ele><time>2026-05-02T11:27:18.052Z</time></trkpt><trkpt lat="42.2752967" lon="13.75966"><ele>503.0</ele><time>2026-05-02T11:27:19.052Z</time></trkpt><trkpt lat="42.27535" lon="13.7595633"><ele>502.99999999999994</ele><time>2026-05-02T11:27:20.053Z</time></trkpt><trkpt lat="42.27541" lon="13.759465"><ele>503.0</ele><time>2026-05-02T11:27:21.052Z</time></trkpt><trkpt lat="42.2754683" lon="13.75936"><ele>503.59999999999997</ele><time>2026-05-02T11:27:22.053Z</time></trkpt><trkpt lat="42.2755317" lon="13.759255"><ele>504.19999999999993</ele><time>2026-05-02T11:27:23.052Z</time></trkpt><trkpt lat="42.2755983" lon="13.7591533"><ele>504.8</ele><time>2026-05-02T11:27:24.052Z</time></trkpt><trkpt lat="42.2756683" lon="13.759045"><ele>505.4</ele><time>2026-05-02T11:27:25.053Z</time></trkpt><trkpt lat="42.27575" lon="13.758935"><ele>506.0</ele><time>2026-05-02T11:27:26.052Z</time></trkpt><trkpt lat="42.275835" lon="13.7588333"><ele>503.0</ele><time>2026-05-02T11:27:27.053Z</time></trkpt><trkpt lat="42.275915" lon="13.7587283"><ele>500.0</ele><time>2026-05-02T11:27:28.052Z</time></trkpt><trkpt lat="42.2759967" lon="13.7586367"><ele>497.0</ele><time>2026-05-02T11:27:29.052Z</time></trkpt><trkpt lat="42.2760783" lon="13.7585467"><ele>494.0</ele><time>2026-05-02T11:27:30.052Z</time></trkpt><trkpt lat="42.276165" lon="13.7584683"><ele>491.0</ele><time>2026-05-02T11:27:31.053Z</time></trkpt><trkpt lat="42.276255" lon="13.7584033"><ele>490.25</ele><time>2026-05-02T11:27:32.052Z</time></trkpt><trkpt lat="42.2763617" lon="13.75835"><ele>489.5</ele><time>2026-05-02T11:27:33.053Z</time></trkpt><trkpt lat="42.2764667" lon="13.7583"><ele>488.75</ele><time>2026-05-02T11:27:34.053Z</time></trkpt><trkpt lat="42.276575" lon="13.7582517"><ele>488.0</ele><time>2026-05-02T11:27:35.053Z</time></trkpt><trkpt lat="42.2766867" lon="13.7582133"><ele>487.75</ele><time>2026-05-02T11:27:36.052Z</time></trkpt><trkpt lat="42.2767933" lon="13.7581783"><ele>487.5</ele><time>2026-05-02T11:27:37.052Z</time></trkpt><trkpt lat="42.2769067" lon="13.7581567"><ele>487.25</ele><time>2026-05-02T11:27:38.052Z</time></trkpt><trkpt lat="42.277025" lon="13.758135"><ele>487.0</ele><time>2026-05-02T11:27:39.053Z</time></trkpt><trkpt lat="42.27714" lon="13.75811"><ele>487.0</ele><time>2026-05-02T11:27:40.052Z</time></trkpt><trkpt lat="42.277265" lon="13.7580833"><ele>487.0</ele><time>2026-05-02T11:27:41.052Z</time></trkpt><trkpt lat="42.2773817" lon="13.75805"><ele>487.0</ele><time>2026-05-02T11:27:42.052Z</time></trkpt><trkpt lat="42.27751" lon="13.7580183"><ele>487.0</ele><time>2026-05-02T11:27:43.052Z</time></trkpt><trkpt lat="42.27764" lon="13.757985"><ele>485.5</ele><time>2026-05-02T11:27:44.053Z</time></trkpt><trkpt lat="42.277775" lon="13.7579533"><ele>484.0</ele><time>2026-05-02T11:27:45.053Z</time></trkpt><trkpt lat="42.2779133" lon="13.7579183"><ele>482.5</ele><time>2026-05-02T11:27:46.053Z</time></trkpt><trkpt lat="42.2780533" lon="13.7578783"><ele>481.0</ele><time>2026-05-02T11:27:47.052Z</time></trkpt><trkpt lat="42.2781967" lon="13.75785"><ele>478.25</ele><time>2026-05-02T11:27:48.052Z</time></trkpt><trkpt lat="42.2783433" lon="13.7578117"><ele>475.5</ele><time>2026-05-02T11:27:49.052Z</time></trkpt><trkpt lat="42.27849" lon="13.7577683"><ele>472.75</ele><time>2026-05-02T11:27:50.052Z</time></trkpt><trkpt lat="42.2786317" lon="13.7577333"><ele>470.0</ele><time>2026-05-02T11:27:51.052Z</time></trkpt><trkpt lat="42.2787783" lon="13.7577033"><ele>469.5</ele><time>2026-05-02T11:27:52.052Z</time></trkpt><trkpt lat="42.278925" lon="13.7576617"><ele>469.0</ele><time>2026-05-02T11:27:53.053Z</time></trkpt><trkpt lat="42.2790617" lon="13.7576233"><ele>468.5</ele><time>2026-05-02T11:27:54.053Z</time></trkpt><trkpt lat="42.27919" lon="13.7575783"><ele>468.0</ele><time>2026-05-02T11:27:55.052Z</time></trkpt><trkpt lat="42.279315" lon="13.7575233"><ele>467.0</ele><time>2026-05-02T11:27:56.053Z</time></trkpt><trkpt lat="42.2794433" lon="13.7574667"><ele>466.0</ele><time>2026-05-02T11:27:57.052Z</time></trkpt><trkpt lat="42.2795633" lon="13.7574"><ele>465.0</ele><time>2026-05-02T11:27:58.052Z</time></trkpt><trkpt lat="42.27969" lon="13.7573283"><ele>464.0</ele><time>2026-05-02T11:27:59.052Z</time></trkpt><trkpt lat="42.2798033" lon="13.757255"><ele>461.75</ele><time>2026-05-02T11:28:00.052Z</time></trkpt><trkpt lat="42.2799167" lon="13.7571783"><ele>459.5</ele><time>2026-05-02T11:28:01.053Z</time></trkpt><trkpt lat="42.2800217" lon="13.757095"><ele>457.25</ele><time>2026-05-02T11:28:02.052Z</time></trkpt><trkpt lat="42.2801333" lon="13.757005"><ele>455.0</ele><time>2026-05-02T11:28:03.053Z</time></trkpt><trkpt lat="42.280245" lon="13.75691"><ele>455.8</ele><time>2026-05-02T11:28:04.052Z</time></trkpt><trkpt lat="42.28033" lon="13.7568033"><ele>456.6</ele><time>2026-05-02T11:28:05.053Z</time></trkpt><trkpt lat="42.2804033" lon="13.756705"><ele>457.4</ele><time>2026-05-02T11:28:06.052Z</time></trkpt><trkpt lat="42.280455" lon="13.7566083"><ele>458.2</ele><time>2026-05-02T11:28:07.052Z</time></trkpt><trkpt lat="42.280495" lon="13.756515"><ele>459.0</ele><time>2026-05-02T11:28:08.053Z</time></trkpt><trkpt lat="42.280505" lon="13.756405"><ele>459.0</ele><time>2026-05-02T11:28:09.053Z</time></trkpt><trkpt lat="42.28049" lon="13.756305"><ele>459.0</ele><time>2026-05-02T11:28:10.053Z</time></trkpt><trkpt lat="42.2804667" lon="13.756205"><ele>459.0</ele><time>2026-05-02T11:28:11.052Z</time></trkpt><trkpt lat="42.280425" lon="13.7561117"><ele>459.0</ele><time>2026-05-02T11:28:12.052Z</time></trkpt><trkpt lat="42.2803733" lon="13.7560483"><ele>459.0</ele><time>2026-05-02T11:28:13.053Z</time></trkpt><trkpt lat="42.28031" lon="13.756005"><ele>459.0</ele><time>2026-05-02T11:28:14.053Z</time></trkpt><trkpt lat="42.2802217" lon="13.7559817"><ele>456.25</ele><time>2026-05-02T11:28:15.053Z</time></trkpt><trkpt lat="42.2801233" lon="13.755985"><ele>453.5</ele><time>2026-05-02T11:28:16.052Z</time></trkpt><trkpt lat="42.28001" lon="13.7559933"><ele>450.75</ele><time>2026-05-02T11:28:17.052Z</time></trkpt><trkpt lat="42.2798783" lon="13.7560083"><ele>448.0</ele><time>2026-05-02T11:28:18.053Z</time></trkpt><trkpt lat="42.279745" lon="13.7560267"><ele>449.5</ele><time>2026-05-02T11:28:19.052Z</time></trkpt><trkpt lat="42.2796133" lon="13.756055"><ele>451.0</ele><time>2026-05-02T11:28:20.052Z</time></trkpt><trkpt lat="42.2794817" lon="13.7560883"><ele>452.5</ele><time>2026-05-02T11:28:21.053Z</time></trkpt><trkpt lat="42.2793533" lon="13.7561233"><ele>454.0</ele><time>2026-05-02T11:28:22.053Z</time></trkpt><trkpt lat="42.27923" lon="13.7561583"><ele>454.0</ele><time>2026-05-02T11:28:23.053Z</time></trkpt><trkpt lat="42.2791117" lon="13.7561833"><ele>454.0</ele><time>2026-05-02T11:28:24.052Z</time></trkpt><trkpt lat="42.278995" lon="13.7561883"><ele>454.0</ele><time>2026-05-02T11:28:25.053Z</time></trkpt><trkpt lat="42.2788767" lon="13.756175"><ele>454.0</ele><time>2026-05-02T11:28:26.052Z</time></trkpt><trkpt lat="42.2787533" lon="13.756155"><ele>453.5</ele><time>2026-05-02T11:28:27.053Z</time></trkpt><trkpt lat="42.278625" lon="13.7561217"><ele>453.0</ele><time>2026-05-02T11:28:28.053Z</time></trkpt><trkpt lat="42.2785" lon="13.7560817"><ele>452.5</ele><time>2026-05-02T11:28:29.052Z</time></trkpt><trkpt lat="42.2783667" lon="13.756025"><ele>452.0</ele><time>2026-05-02T11:28:30.053Z</time></trkpt><trkpt lat="42.2782417" lon="13.7559583"><ele>447.25</ele><time>2026-05-02T11:28:31.053Z</time></trkpt><trkpt lat="42.2781033" lon="13.7558717"><ele>442.5</ele><time>2026-05-02T11:28:32.053Z</time></trkpt><trkpt lat="42.27798" lon="13.7557833"><ele>437.75</ele><time>2026-05-02T11:28:33.052Z</time></trkpt><trkpt lat="42.2778583" lon="13.7557017"><ele>433.0</ele><time>2026-05-02T11:28:34.052Z</time></trkpt><trkpt lat="42.27775" lon="13.7556367"><ele>432.6666666666667</ele><time>2026-05-02T11:28:35.052Z</time></trkpt><trkpt lat="42.2776583" lon="13.755575"><ele>432.33333333333337</ele><time>2026-05-02T11:28:36.052Z</time></trkpt><trkpt lat="42.2775833" lon="13.7555133"><ele>432.0</ele><time>2026-05-02T11:28:37.052Z</time></trkpt><trkpt lat="42.277535" lon="13.7554433"><ele>431.66666666666663</ele><time>2026-05-02T11:28:38.052Z</time></trkpt><trkpt lat="42.2775067" lon="13.7553517"><ele>431.3333333333333</ele><time>2026-05-02T11:28:39.052Z</time></trkpt><trkpt lat="42.277495" lon="13.7552367"><ele>431.0</ele><time>2026-05-02T11:28:40.053Z</time></trkpt><trkpt lat="42.2775017" lon="13.7550967"><ele>427.75</ele><time>2026-05-02T11:28:41.052Z</time></trkpt><trkpt lat="42.277515" lon="13.7549333"><ele>424.5</ele><time>2026-05-02T11:28:42.052Z</time></trkpt><trkpt lat="42.2775167" lon="13.75476"><ele>421.25</ele><time>2026-05-02T11:28:43.053Z</time></trkpt><trkpt lat="42.2775067" lon="13.7545783"><ele>418.0</ele><time>2026-05-02T11:28:44.053Z</time></trkpt><trkpt lat="42.2774983" lon="13.75439"><ele>417.0</ele><time>2026-05-02T11:28:45.052Z</time></trkpt><trkpt lat="42.2774967" lon="13.754195"><ele>416.0</ele><time>2026-05-02T11:28:46.052Z</time></trkpt><trkpt lat="42.2774817" lon="13.753995"><ele>415.0</ele><time>2026-05-02T11:28:47.053Z</time></trkpt><trkpt lat="42.2774717" lon="13.7537867"><ele>414.0</ele><time>2026-05-02T11:28:48.052Z</time></trkpt><trkpt lat="42.2774633" lon="13.7535733"><ele>411.66666666666663</ele><time>2026-05-02T11:28:49.052Z</time></trkpt><trkpt lat="42.277465" lon="13.753375"><ele>409.3333333333333</ele><time>2026-05-02T11:28:50.053Z</time></trkpt><trkpt lat="42.2774583" lon="13.7531667"><ele>407.0</ele><time>2026-05-02T11:28:51.052Z</time></trkpt><trkpt lat="42.2774617" lon="13.7529633"><ele>407.0</ele><time>2026-05-02T11:28:52.053Z</time></trkpt><trkpt lat="42.277485" lon="13.7527633"><ele>407.0</ele><time>2026-05-02T11:28:53.053Z</time></trkpt><trkpt lat="42.2774967" lon="13.7525683"><ele>407.0</ele><time>2026-05-02T11:28:54.053Z</time></trkpt><trkpt lat="42.2775017" lon="13.752405"><ele>407.0</ele><time>2026-05-02T11:28:55.052Z</time></trkpt><trkpt lat="42.2775083" lon="13.752265"><ele>406.8</ele><time>2026-05-02T11:28:56.052Z</time></trkpt><trkpt lat="42.27751" lon="13.7521567"><ele>406.6</ele><time>2026-05-02T11:28:57.052Z</time></trkpt><trkpt lat="42.2775383" lon="13.752075"><ele>406.40000000000003</ele><time>2026-05-02T11:28:58.053Z</time></trkpt><trkpt lat="42.2776267" lon="13.7519933"><ele>406.20000000000005</ele><time>2026-05-02T11:29:00.053Z</time></trkpt><trkpt lat="42.2777583" lon="13.7519983"><ele>406.0</ele><time>2026-05-02T11:29:02.053Z</time></trkpt><trkpt lat="42.2778333" lon="13.7520167"><ele>406.0</ele><time>2026-05-02T11:29:03.053Z</time></trkpt><trkpt lat="42.2779117" lon="13.752045"><ele>406.0</ele><time>2026-05-02T11:29:04.053Z</time></trkpt><trkpt lat="42.2779983" lon="13.75208"><ele>406.0</ele><time>2026-05-02T11:29:05.053Z</time></trkpt><trkpt lat="42.2781" lon="13.75212"><ele>406.0</ele><time>2026-05-02T11:29:06.052Z</time></trkpt><trkpt lat="42.2782133" lon="13.75215"><ele>406.0</ele><time>2026-05-02T11:29:07.052Z</time></trkpt><trkpt lat="42.2783317" lon="13.7521717"><ele>405.0</ele><time>2026-05-02T11:29:08.052Z</time></trkpt><trkpt lat="42.2784567" lon="13.7521867"><ele>404.0</ele><time>2026-05-02T11:29:09.052Z</time></trkpt><trkpt lat="42.2785883" lon="13.7521917"><ele>403.0</ele><time>2026-05-02T11:29:10.053Z</time></trkpt><trkpt lat="42.2787267" lon="13.7522"><ele>402.0</ele><time>2026-05-02T11:29:11.053Z</time></trkpt><trkpt lat="42.2788767" lon="13.7521983"><ele>400.66666666666663</ele><time>2026-05-02T11:29:12.053Z</time></trkpt><trkpt lat="42.2790283" lon="13.7521933"><ele>399.3333333333333</ele><time>2026-05-02T11:29:13.052Z</time></trkpt><trkpt lat="42.2791783" lon="13.752195"><ele>398.0</ele><time>2026-05-02T11:29:14.053Z</time></trkpt><trkpt lat="42.2793317" lon="13.7521833"><ele>398.0</ele><time>2026-05-02T11:29:15.052Z</time></trkpt><trkpt lat="42.279485" lon="13.7521783"><ele>398.0</ele><time>2026-05-02T11:29:16.052Z</time></trkpt><trkpt lat="42.2796417" lon="13.7521683"><ele>398.0</ele><time>2026-05-02T11:29:17.053Z</time></trkpt><trkpt lat="42.2798017" lon="13.7521617"><ele>396.25</ele><time>2026-05-02T11:29:18.052Z</time></trkpt><trkpt lat="42.2799483" lon="13.75216"><ele>394.5</ele><time>2026-05-02T11:29:19.052Z</time></trkpt><trkpt lat="42.2800967" lon="13.752165"><ele>392.75</ele><time>2026-05-02T11:29:20.053Z</time></trkpt><trkpt lat="42.2802417" lon="13.7521767"><ele>391.0</ele><time>2026-05-02T11:29:21.053Z</time></trkpt><trkpt lat="42.2803817" lon="13.7522033"><ele>391.0</ele><time>2026-05-02T11:29:22.053Z</time></trkpt><trkpt lat="42.2805117" lon="13.75224"><ele>391.0</ele><time>2026-05-02T11:29:23.053Z</time></trkpt><trkpt lat="42.2806367" lon="13.75229"><ele>391.0</ele><time>2026-05-02T11:29:24.052Z</time></trkpt><trkpt lat="42.280755" lon="13.75236"><ele>391.0</ele><time>2026-05-02T11:29:25.052Z</time></trkpt><trkpt lat="42.2808717" lon="13.7524367"><ele>390.5</ele><time>2026-05-02T11:29:26.052Z</time></trkpt><trkpt lat="42.28099" lon="13.752535"><ele>390.0</ele><time>2026-05-02T11:29:27.053Z</time></trkpt><trkpt lat="42.2811033" lon="13.75265"><ele>389.5</ele><time>2026-05-02T11:29:28.053Z</time></trkpt><trkpt lat="42.2812167" lon="13.752765"><ele>389.0</ele><time>2026-05-02T11:29:29.052Z</time></trkpt><trkpt lat="42.2813333" lon="13.75289"><ele>389.0</ele><time>2026-05-02T11:29:30.052Z</time></trkpt><trkpt lat="42.2814533" lon="13.7530167"><ele>389.0</ele><time>2026-05-02T11:29:31.052Z</time></trkpt><trkpt lat="42.28157" lon="13.7531483"><ele>389.0</ele><time>2026-05-02T11:29:32.052Z</time></trkpt><trkpt lat="42.28168" lon="13.7532883"><ele>389.0</ele><time>2026-05-02T11:29:33.052Z</time></trkpt><trkpt lat="42.281785" lon="13.753425"><ele>389.0</ele><time>2026-05-02T11:29:34.052Z</time></trkpt><trkpt lat="42.2818833" lon="13.753555"><ele>389.0</ele><time>2026-05-02T11:29:35.052Z</time></trkpt><trkpt lat="42.28199" lon="13.753665"><ele>389.0</ele><time>2026-05-02T11:29:36.052Z</time></trkpt><trkpt lat="42.282105" lon="13.753765"><ele>389.5</ele><time>2026-05-02T11:29:37.052Z</time></trkpt><trkpt lat="42.2822333" lon="13.75386"><ele>390.0</ele><time>2026-05-02T11:29:38.051Z</time></trkpt><trkpt lat="42.282365" lon="13.7539483"><ele>390.5</ele><time>2026-05-02T11:29:39.052Z</time></trkpt><trkpt lat="42.2825" lon="13.7540367"><ele>391.0</ele><time>2026-05-02T11:29:40.051Z</time></trkpt><trkpt lat="42.2826333" lon="13.7541183"><ele>391.0</ele><time>2026-05-02T11:29:41.051Z</time></trkpt><trkpt lat="42.2827783" lon="13.7542"><ele>391.0</ele><time>2026-05-02T11:29:42.052Z</time></trkpt><trkpt lat="42.282915" lon="13.75428"><ele>391.0</ele><time>2026-05-02T11:29:43.052Z</time></trkpt><trkpt lat="42.2830467" lon="13.7543517"><ele>391.0</ele><time>2026-05-02T11:29:44.052Z</time></trkpt><trkpt lat="42.28317" lon="13.754415"><ele>390.20000000000005</ele><time>2026-05-02T11:29:45.051Z</time></trkpt><trkpt lat="42.2832817" lon="13.7544683"><ele>389.40000000000003</ele><time>2026-05-02T11:29:46.051Z</time></trkpt><trkpt lat="42.2833833" lon="13.75451"><ele>388.6</ele><time>2026-05-02T11:29:47.051Z</time></trkpt><trkpt lat="42.2834667" lon="13.7545433"><ele>387.8</ele><time>2026-05-02T11:29:48.052Z</time></trkpt><trkpt lat="42.2835333" lon="13.75456"><ele>387.0</ele><time>2026-05-02T11:29:49.051Z</time></trkpt><trkpt lat="42.2836333" lon="13.7546167"><ele>387.0</ele><time>2026-05-02T11:29:51.051Z</time></trkpt><trkpt lat="42.2837017" lon="13.7547417"><ele>387.0</ele><time>2026-05-02T11:29:53.051Z</time></trkpt><trkpt lat="42.2837317" lon="13.7548317"><ele>387.0</ele><time>2026-05-02T11:29:54.052Z</time></trkpt><trkpt lat="42.283765" lon="13.75494"><ele>387.0</ele><time>2026-05-02T11:29:55.051Z</time></trkpt><trkpt lat="42.2838067" lon="13.7550633"><ele>387.0</ele><time>2026-05-02T11:29:56.052Z</time></trkpt><trkpt lat="42.283845" lon="13.7551917"><ele>386.0</ele><time>2026-05-02T11:29:57.052Z</time></trkpt><trkpt lat="42.283885" lon="13.7553333"><ele>385.0</ele><time>2026-05-02T11:29:58.052Z</time></trkpt><trkpt lat="42.283935" lon="13.75549"><ele>384.0</ele><time>2026-05-02T11:29:59.051Z</time></trkpt><trkpt lat="42.28399" lon="13.7556533"><ele>383.0</ele><time>2026-05-02T11:30:00.052Z</time></trkpt><trkpt lat="42.2840567" lon="13.755825"><ele>383.0</ele><time>2026-05-02T11:30:01.052Z</time></trkpt><trkpt lat="42.2841267" lon="13.7560017"><ele>383.0</ele><time>2026-05-02T11:30:02.052Z</time></trkpt><trkpt lat="42.284195" lon="13.7561917"><ele>383.0</ele><time>2026-05-02T11:30:03.051Z</time></trkpt><trkpt lat="42.2842617" lon="13.756385"><ele>383.6666666666667</ele><time>2026-05-02T11:30:04.051Z</time></trkpt><trkpt lat="42.2843217" lon="13.7565733"><ele>384.33333333333337</ele><time>2026-05-02T11:30:05.052Z</time></trkpt><trkpt lat="42.284385" lon="13.7567583"><ele>385.0</ele><time>2026-05-02T11:30:06.051Z</time></trkpt><trkpt lat="42.2844383" lon="13.7569483"><ele>385.33333333333337</ele><time>2026-05-02T11:30:07.052Z</time></trkpt><trkpt lat="42.284485" lon="13.7571417"><ele>385.66666666666663</ele><time>2026-05-02T11:30:08.051Z</time></trkpt><trkpt lat="42.2845217" lon="13.7573517"><ele>386.0</ele><time>2026-05-02T11:30:09.052Z</time></trkpt><trkpt lat="42.2845567" lon="13.7575717"><ele>387.0</ele><time>2026-05-02T11:30:10.051Z</time></trkpt><trkpt lat="42.2845883" lon="13.7577883"><ele>388.0</ele><time>2026-05-02T11:30:11.051Z</time></trkpt><trkpt lat="42.28462" lon="13.7580133"><ele>389.0</ele><time>2026-05-02T11:30:12.052Z</time></trkpt><trkpt lat="42.2846583" lon="13.7582317"><ele>389.0</ele><time>2026-05-02T11:30:13.052Z</time></trkpt><trkpt lat="42.28469" lon="13.75844"><ele>389.0</ele><time>2026-05-02T11:30:14.051Z</time></trkpt><trkpt lat="42.2847233" lon="13.7586317"><ele>389.0</ele><time>2026-05-02T11:30:15.051Z</time></trkpt><trkpt lat="42.28474" lon="13.7588233"><ele>389.0</ele><time>2026-05-02T11:30:16.051Z</time></trkpt><trkpt lat="42.28474" lon="13.7590217"><ele>388.3333333333333</ele><time>2026-05-02T11:30:17.052Z</time></trkpt><trkpt lat="42.2847317" lon="13.7592383"><ele>387.66666666666663</ele><time>2026-05-02T11:30:18.052Z</time></trkpt><trkpt lat="42.2847133" lon="13.7594617"><ele>387.0</ele><time>2026-05-02T11:30:19.051Z</time></trkpt><trkpt lat="42.284675" lon="13.7596667"><ele>386.66666666666663</ele><time>2026-05-02T11:30:20.052Z</time></trkpt><trkpt lat="42.284635" lon="13.7599017"><ele>386.3333333333333</ele><time>2026-05-02T11:30:21.051Z</time></trkpt><trkpt lat="42.28459" lon="13.76012"><ele>386.0</ele><time>2026-05-02T11:30:22.051Z</time></trkpt><trkpt lat="42.2845517" lon="13.760335"><ele>386.0</ele><time>2026-05-02T11:30:23.052Z</time></trkpt><trkpt lat="42.284505" lon="13.7605733"><ele>386.0</ele><time>2026-05-02T11:30:24.051Z</time></trkpt><trkpt lat="42.2844683" lon="13.7608067"><ele>386.0</ele><time>2026-05-02T11:30:25.052Z</time></trkpt><trkpt lat="42.2844217" lon="13.7610467"><ele>386.0</ele><time>2026-05-02T11:30:26.052Z</time></trkpt><trkpt lat="42.2843733" lon="13.76128"><ele>386.0</ele><time>2026-05-02T11:30:27.051Z</time></trkpt><trkpt lat="42.2843283" lon="13.7615067"><ele>386.0</ele><time>2026-05-02T11:30:28.052Z</time></trkpt><trkpt lat="42.2842867" lon="13.7617133"><ele>386.3333333333333</ele><time>2026-05-02T11:30:29.052Z</time></trkpt><trkpt lat="42.2842467" lon="13.7619183"><ele>386.66666666666663</ele><time>2026-05-02T11:30:30.052Z</time></trkpt><trkpt lat="42.284195" lon="13.76213"><ele>387.0</ele><time>2026-05-02T11:30:31.051Z</time></trkpt><trkpt lat="42.284155" lon="13.76233"><ele>387.0</ele><time>2026-05-02T11:30:32.052Z</time></trkpt><trkpt lat="42.2841067" lon="13.7625117"><ele>387.0</ele><time>2026-05-02T11:30:33.051Z</time></trkpt><trkpt lat="42.284055" lon="13.762685"><ele>387.0</ele><time>2026-05-02T11:30:34.052Z</time></trkpt><trkpt lat="42.2839967" lon="13.7628217"><ele>387.0</ele><time>2026-05-02T11:30:35.052Z</time></trkpt><trkpt lat="42.283955" lon="13.7629367"><ele>387.40000000000003</ele><time>2026-05-02T11:30:36.052Z</time></trkpt><trkpt lat="42.2839217" lon="13.76303"><ele>387.8</ele><time>2026-05-02T11:30:37.052Z</time></trkpt><trkpt lat="42.283895" lon="13.76316"><ele>388.2</ele><time>2026-05-02T11:30:39.051Z</time></trkpt><trkpt lat="42.2839367" lon="13.76325"><ele>388.6</ele><time>2026-05-02T11:30:41.052Z</time></trkpt><trkpt lat="42.284035" lon="13.7632783"><ele>389.0</ele><time>2026-05-02T11:30:43.051Z</time></trkpt><trkpt lat="42.284155" lon="13.7633367"><ele>388.66666666666663</ele><time>2026-05-02T11:30:45.051Z</time></trkpt><trkpt lat="42.284215" lon="13.7633883"><ele>388.3333333333333</ele><time>2026-05-02T11:30:46.051Z</time></trkpt><trkpt lat="42.28425" lon="13.7635017"><ele>388.0</ele><time>2026-05-02T11:30:48.051Z</time></trkpt><trkpt lat="42.2842" lon="13.7636367"><ele>387.66666666666663</ele><time>2026-05-02T11:30:50.052Z</time></trkpt><trkpt lat="42.284155" lon="13.7637183"><ele>387.3333333333333</ele><time>2026-05-02T11:30:51.051Z</time></trkpt><trkpt lat="42.2841117" lon="13.7638033"><ele>387.0</ele><time>2026-05-02T11:30:52.052Z</time></trkpt><trkpt lat="42.2840517" lon="13.7639083"><ele>387.0</ele><time>2026-05-02T11:30:53.052Z</time></trkpt><trkpt lat="42.2839817" lon="13.7640283"><ele>387.0</ele><time>2026-05-02T11:30:54.052Z</time></trkpt><trkpt lat="42.2838983" lon="13.764145"><ele>387.0</ele><time>2026-05-02T11:30:55.052Z</time></trkpt><trkpt lat="42.2838133" lon="13.7642783"><ele>387.0</ele><time>2026-05-02T11:30:56.052Z</time></trkpt><trkpt lat="42.2837233" lon="13.7644183"><ele>386.33333333333337</ele><time>2026-05-02T11:30:57.051Z</time></trkpt><trkpt lat="42.2836233" lon="13.7645667"><ele>385.6666666666667</ele><time>2026-05-02T11:30:58.052Z</time></trkpt><trkpt lat="42.2835183" lon="13.7647217"><ele>385.0</ele><time>2026-05-02T11:30:59.051Z</time></trkpt><trkpt lat="42.283405" lon="13.7648817"><ele>385.0</ele><time>2026-05-02T11:31:00.051Z</time></trkpt><trkpt lat="42.2832883" lon="13.7650483"><ele>385.0</ele><time>2026-05-02T11:31:01.051Z</time></trkpt><trkpt lat="42.2831683" lon="13.76522"><ele>385.0</ele><time>2026-05-02T11:31:02.051Z</time></trkpt><trkpt lat="42.2830367" lon="13.7653967"><ele>383.33333333333337</ele><time>2026-05-02T11:31:03.052Z</time></trkpt><trkpt lat="42.2828983" lon="13.765575"><ele>381.6666666666667</ele><time>2026-05-02T11:31:04.052Z</time></trkpt><trkpt lat="42.282755" lon="13.7657467"><ele>380.0</ele><time>2026-05-02T11:31:05.052Z</time></trkpt><trkpt lat="42.2826083" lon="13.7659267"><ele>380.5</ele><time>2026-05-02T11:31:06.052Z</time></trkpt><trkpt lat="42.2822933" lon="13.7662867"><ele>381.0</ele><time>2026-05-02T11:31:08.051Z</time></trkpt><trkpt lat="42.28213" lon="13.7664817"><ele>379.3333333333333</ele><time>2026-05-02T11:31:09.052Z</time></trkpt><trkpt lat="42.2819633" lon="13.76668"><ele>377.66666666666663</ele><time>2026-05-02T11:31:10.052Z</time></trkpt><trkpt lat="42.2817967" lon="13.7668833"><ele>376.0</ele><time>2026-05-02T11:31:11.052Z</time></trkpt><trkpt lat="42.281625" lon="13.7670817"><ele>375.5</ele><time>2026-05-02T11:31:12.052Z</time></trkpt><trkpt lat="42.281455" lon="13.76729"><ele>375.0</ele><time>2026-05-02T11:31:13.051Z</time></trkpt><trkpt lat="42.28128" lon="13.7674933"><ele>372.5</ele><time>2026-05-02T11:31:14.052Z</time></trkpt><trkpt lat="42.2810983" lon="13.7677033"><ele>370.0</ele><time>2026-05-02T11:31:15.051Z</time></trkpt><trkpt lat="42.2809133" lon="13.7679217"><ele>370.0</ele><time>2026-05-02T11:31:16.051Z</time></trkpt><trkpt lat="42.2807283" lon="13.76815"><ele>370.0</ele><time>2026-05-02T11:31:17.052Z</time></trkpt><trkpt lat="42.28054" lon="13.7683767"><ele>367.0</ele><time>2026-05-02T11:31:18.051Z</time></trkpt><trkpt lat="42.2803467" lon="13.7686017"><ele>364.0</ele><time>2026-05-02T11:31:19.052Z</time></trkpt><trkpt lat="42.280155" lon="13.768825"><ele>364.0</ele><time>2026-05-02T11:31:20.052Z</time></trkpt><trkpt lat="42.2799683" lon="13.7690533"><ele>364.0</ele><time>2026-05-02T11:31:21.051Z</time></trkpt><trkpt lat="42.2797817" lon="13.7692817"><ele>362.5</ele><time>2026-05-02T11:31:22.051Z</time></trkpt><trkpt lat="42.2796017" lon="13.7694967"><ele>361.0</ele><time>2026-05-02T11:31:23.052Z</time></trkpt><trkpt lat="42.2794267" lon="13.7697067"><ele>361.0</ele><time>2026-05-02T11:31:24.052Z</time></trkpt><trkpt lat="42.2792533" lon="13.76991"><ele>361.0</ele><time>2026-05-02T11:31:25.052Z</time></trkpt><trkpt lat="42.2790867" lon="13.7701067"><ele>359.66666666666663</ele><time>2026-05-02T11:31:26.051Z</time></trkpt><trkpt lat="42.27892" lon="13.770315"><ele>358.3333333333333</ele><time>2026-05-02T11:31:27.051Z</time></trkpt><trkpt lat="42.2787617" lon="13.770515"><ele>357.0</ele><time>2026-05-02T11:31:28.051Z</time></trkpt><trkpt lat="42.2786033" lon="13.770725"><ele>357.0</ele><time>2026-05-02T11:31:29.051Z</time></trkpt><trkpt lat="42.2784567" lon="13.7709417"><ele>357.0</ele><time>2026-05-02T11:31:30.052Z</time></trkpt><trkpt lat="42.2783233" lon="13.7711683"><ele>357.0</ele><time>2026-05-02T11:31:31.052Z</time></trkpt><trkpt lat="42.2781983" lon="13.7714117"><ele>355.6666666666667</ele><time>2026-05-02T11:31:32.052Z</time></trkpt><trkpt lat="42.278085" lon="13.77166"><ele>354.33333333333337</ele><time>2026-05-02T11:31:33.051Z</time></trkpt><trkpt lat="42.2779683" lon="13.77192"><ele>353.0</ele><time>2026-05-02T11:31:34.051Z</time></trkpt><trkpt lat="42.27786" lon="13.7721817"><ele>351.5</ele><time>2026-05-02T11:31:35.051Z</time></trkpt><trkpt lat="42.2777667" lon="13.7724633"><ele>350.0</ele><time>2026-05-02T11:31:36.051Z</time></trkpt><trkpt lat="42.277675" lon="13.772755"><ele>349.0</ele><time>2026-05-02T11:31:37.051Z</time></trkpt><trkpt lat="42.2775983" lon="13.7730583"><ele>348.0</ele><time>2026-05-02T11:31:38.051Z</time></trkpt><trkpt lat="42.277525" lon="13.7733717"><ele>347.5</ele><time>2026-05-02T11:31:39.052Z</time></trkpt><trkpt lat="42.2774467" lon="13.7736917"><ele>347.0</ele><time>2026-05-02T11:31:40.051Z</time></trkpt><trkpt lat="42.2773683" lon="13.77401"><ele>347.0</ele><time>2026-05-02T11:31:41.052Z</time></trkpt><trkpt lat="42.2772883" lon="13.7743367"><ele>347.0</ele><time>2026-05-02T11:31:42.051Z</time></trkpt><trkpt lat="42.2772067" lon="13.7746683"><ele>343.0</ele><time>2026-05-02T11:31:43.051Z</time></trkpt><trkpt lat="42.2771317" lon="13.7750033"><ele>339.0</ele><time>2026-05-02T11:31:44.052Z</time></trkpt><trkpt lat="42.277055" lon="13.7753433"><ele>338.5</ele><time>2026-05-02T11:31:45.051Z</time></trkpt><trkpt lat="42.2769733" lon="13.7756767"><ele>338.0</ele><time>2026-05-02T11:31:46.052Z</time></trkpt><trkpt lat="42.2768933" lon="13.7760133"><ele>338.0</ele><time>2026-05-02T11:31:47.052Z</time></trkpt><trkpt lat="42.2768067" lon="13.776355"><ele>338.0</ele><time>2026-05-02T11:31:48.052Z</time></trkpt><trkpt lat="42.27672" lon="13.7766967"><ele>339.0</ele><time>2026-05-02T11:31:49.051Z</time></trkpt><trkpt lat="42.2766333" lon="13.7770383"><ele>340.0</ele><time>2026-05-02T11:31:50.051Z</time></trkpt><trkpt lat="42.27656" lon="13.7773767"><ele>340.0</ele><time>2026-05-02T11:31:51.051Z</time></trkpt><trkpt lat="42.2764733" lon="13.7777217"><ele>340.0</ele><time>2026-05-02T11:31:52.052Z</time></trkpt><trkpt lat="42.2763917" lon="13.7780633"><ele>340.0</ele><time>2026-05-02T11:31:53.052Z</time></trkpt><trkpt lat="42.27631" lon="13.7784033"><ele>340.0</ele><time>2026-05-02T11:31:54.051Z</time></trkpt><trkpt lat="42.2762317" lon="13.778735"><ele>340.0</ele><time>2026-05-02T11:31:55.052Z</time></trkpt><trkpt lat="42.27615" lon="13.7790617"><ele>340.0</ele><time>2026-05-02T11:31:56.051Z</time></trkpt><trkpt lat="42.2760717" lon="13.77939"><ele>340.5</ele><time>2026-05-02T11:31:57.052Z</time></trkpt><trkpt lat="42.275985" lon="13.7797233"><ele>341.0</ele><time>2026-05-02T11:31:58.052Z</time></trkpt><trkpt lat="42.275905" lon="13.7800567"><ele>341.0</ele><time>2026-05-02T11:31:59.051Z</time></trkpt><trkpt lat="42.2758233" lon="13.7803867"><ele>341.0</ele><time>2026-05-02T11:32:00.051Z</time></trkpt><trkpt lat="42.2757467" lon="13.7807083"><ele>340.5</ele><time>2026-05-02T11:32:01.052Z</time></trkpt><trkpt lat="42.27567" lon="13.7810217"><ele>340.0</ele><time>2026-05-02T11:32:02.052Z</time></trkpt><trkpt lat="42.2755917" lon="13.7813383"><ele>340.0</ele><time>2026-05-02T11:32:03.052Z</time></trkpt><trkpt lat="42.275515" lon="13.7816533"><ele>340.0</ele><time>2026-05-02T11:32:04.052Z</time></trkpt><trkpt lat="42.2754417" lon="13.7819567"><ele>340.0</ele><time>2026-05-02T11:32:05.051Z</time></trkpt><trkpt lat="42.2753633" lon="13.78224"><ele>340.0</ele><time>2026-05-02T11:32:06.051Z</time></trkpt><trkpt lat="42.2752933" lon="13.782515"><ele>340.0</ele><time>2026-05-02T11:32:07.051Z</time></trkpt><trkpt lat="42.2752283" lon="13.7827783"><ele>340.3333333333333</ele><time>2026-05-02T11:32:08.052Z</time></trkpt><trkpt lat="42.2751683" lon="13.78303"><ele>340.6666666666667</ele><time>2026-05-02T11:32:09.052Z</time></trkpt><trkpt lat="42.2751117" lon="13.7832667"><ele>341.0</ele><time>2026-05-02T11:32:10.051Z</time></trkpt><trkpt lat="42.2750517" lon="13.7834833"><ele>340.33333333333337</ele><time>2026-05-02T11:32:11.052Z</time></trkpt><trkpt lat="42.2750033" lon="13.7836983"><ele>339.6666666666667</ele><time>2026-05-02T11:32:12.051Z</time></trkpt><trkpt lat="42.2749567" lon="13.783895"><ele>339.0</ele><time>2026-05-02T11:32:13.051Z</time></trkpt><trkpt lat="42.2749083" lon="13.7840833"><ele>339.0</ele><time>2026-05-02T11:32:14.051Z</time></trkpt><trkpt lat="42.2748583" lon="13.7842467"><ele>339.0</ele><time>2026-05-02T11:32:15.051Z</time></trkpt><trkpt lat="42.274815" lon="13.78439"><ele>339.0</ele><time>2026-05-02T11:32:16.052Z</time></trkpt><trkpt lat="42.2747733" lon="13.784495"><ele>339.0</ele><time>2026-05-02T11:32:17.052Z</time></trkpt><trkpt lat="42.27472" lon="13.7845717"><ele>339.0</ele><time>2026-05-02T11:32:18.051Z</time></trkpt><trkpt lat="42.274665" lon="13.7846267"><ele>338.5</ele><time>2026-05-02T11:32:19.052Z</time></trkpt><trkpt lat="42.2746033" lon="13.784665"><ele>338.0</ele><time>2026-05-02T11:32:20.051Z</time></trkpt><trkpt lat="42.2745517" lon="13.784715"><ele>337.5</ele><time>2026-05-02T11:32:21.052Z</time></trkpt><trkpt lat="42.2745183" lon="13.7848683"><ele>337.0</ele><time>2026-05-02T11:32:23.052Z</time></trkpt><trkpt lat="42.2745767" lon="13.78501"><ele>336.5</ele><time>2026-05-02T11:32:25.052Z</time></trkpt><trkpt lat="42.2745983" lon="13.7850933"><ele>336.0</ele><time>2026-05-02T11:32:26.052Z</time></trkpt><trkpt lat="42.274605" lon="13.7851883"><ele>335.8</ele><time>2026-05-02T11:32:27.051Z</time></trkpt><trkpt lat="42.274595" lon="13.785295"><ele>335.6</ele><time>2026-05-02T11:32:28.052Z</time></trkpt><trkpt lat="42.2745767" lon="13.785405"><ele>335.4</ele><time>2026-05-02T11:32:29.052Z</time></trkpt><trkpt lat="42.2745533" lon="13.78553"><ele>335.2</ele><time>2026-05-02T11:32:30.052Z</time></trkpt><trkpt lat="42.2745167" lon="13.785665"><ele>335.0</ele><time>2026-05-02T11:32:31.051Z</time></trkpt><trkpt lat="42.27448" lon="13.7858167"><ele>335.0</ele><time>2026-05-02T11:32:32.052Z</time></trkpt><trkpt lat="42.27444" lon="13.7859683"><ele>335.0</ele><time>2026-05-02T11:32:33.051Z</time></trkpt><trkpt lat="42.27439" lon="13.7861283"><ele>335.0</ele><time>2026-05-02T11:32:34.051Z</time></trkpt><trkpt lat="42.2743367" lon="13.7862967"><ele>335.0</ele><time>2026-05-02T11:32:35.051Z</time></trkpt><trkpt lat="42.27428" lon="13.7864683"><ele>335.33333333333337</ele><time>2026-05-02T11:32:36.052Z</time></trkpt><trkpt lat="42.2742133" lon="13.786645"><ele>335.6666666666667</ele><time>2026-05-02T11:32:37.051Z</time></trkpt><trkpt lat="42.274145" lon="13.7868317"><ele>336.0</ele><time>2026-05-02T11:32:38.051Z</time></trkpt><trkpt lat="42.27407" lon="13.7870117"><ele>336.6666666666667</ele><time>2026-05-02T11:32:39.051Z</time></trkpt><trkpt lat="42.27398" lon="13.7871983"><ele>337.33333333333337</ele><time>2026-05-02T11:32:40.051Z</time></trkpt><trkpt lat="42.2738767" lon="13.7873833"><ele>338.0</ele><time>2026-05-02T11:32:41.052Z</time></trkpt><trkpt lat="42.2737783" lon="13.7875667"><ele>337.33333333333337</ele><time>2026-05-02T11:32:42.052Z</time></trkpt><trkpt lat="42.2736717" lon="13.7877567"><ele>336.6666666666667</ele><time>2026-05-02T11:32:43.052Z</time></trkpt><trkpt lat="42.2735583" lon="13.7879367"><ele>336.0</ele><time>2026-05-02T11:32:44.051Z</time></trkpt><trkpt lat="42.27344" lon="13.7881233"><ele>336.0</ele><time>2026-05-02T11:32:45.052Z</time></trkpt><trkpt lat="42.2733233" lon="13.7883133"><ele>336.0</ele><time>2026-05-02T11:32:46.052Z</time></trkpt><trkpt lat="42.2732033" lon="13.78851"><ele>336.0</ele><time>2026-05-02T11:32:47.051Z</time></trkpt><trkpt lat="42.2730833" lon="13.7887"><ele>335.6666666666667</ele><time>2026-05-02T11:32:48.052Z</time></trkpt><trkpt lat="42.2729567" lon="13.7888983"><ele>335.33333333333337</ele><time>2026-05-02T11:32:49.051Z</time></trkpt><trkpt lat="42.272825" lon="13.7890983"><ele>335.0</ele><time>2026-05-02T11:32:50.051Z</time></trkpt><trkpt lat="42.27269" lon="13.7893067"><ele>334.6666666666667</ele><time>2026-05-02T11:32:51.052Z</time></trkpt><trkpt lat="42.2725533" lon="13.7895183"><ele>334.3333333333333</ele><time>2026-05-02T11:32:52.051Z</time></trkpt><trkpt lat="42.2724167" lon="13.78973"><ele>334.0</ele><time>2026-05-02T11:32:53.051Z</time></trkpt><trkpt lat="42.2722767" lon="13.789945"><ele>334.3333333333333</ele><time>2026-05-02T11:32:54.052Z</time></trkpt><trkpt lat="42.2721367" lon="13.7901583"><ele>334.6666666666667</ele><time>2026-05-02T11:32:55.052Z</time></trkpt><trkpt lat="42.2719967" lon="13.79038"><ele>335.0</ele><time>2026-05-02T11:32:56.051Z</time></trkpt><trkpt lat="42.2718583" lon="13.7906017"><ele>335.33333333333337</ele><time>2026-05-02T11:32:57.051Z</time></trkpt><trkpt lat="42.2717117" lon="13.7908283"><ele>335.6666666666667</ele><time>2026-05-02T11:32:58.051Z</time></trkpt><trkpt lat="42.2715617" lon="13.7910517"><ele>336.0</ele><time>2026-05-02T11:32:59.051Z</time></trkpt><trkpt lat="42.271415" lon="13.7912883"><ele>335.0</ele><time>2026-05-02T11:33:00.051Z</time></trkpt><trkpt lat="42.27127" lon="13.7915183"><ele>334.0</ele><time>2026-05-02T11:33:01.051Z</time></trkpt><trkpt lat="42.27112" lon="13.7917467"><ele>332.5</ele><time>2026-05-02T11:33:02.051Z</time></trkpt><trkpt lat="42.2709717" lon="13.79198"><ele>331.0</ele><time>2026-05-02T11:33:03.051Z</time></trkpt><trkpt lat="42.2708133" lon="13.7922167"><ele>331.0</ele><time>2026-05-02T11:33:04.051Z</time></trkpt><trkpt lat="42.2706583" lon="13.7924567"><ele>331.0</ele><time>2026-05-02T11:33:05.051Z</time></trkpt><trkpt lat="42.2705067" lon="13.7926917"><ele>328.5</ele><time>2026-05-02T11:33:06.052Z</time></trkpt><trkpt lat="42.2703517" lon="13.79293"><ele>326.0</ele><time>2026-05-02T11:33:07.051Z</time></trkpt><trkpt lat="42.2701983" lon="13.79317"><ele>326.0</ele><time>2026-05-02T11:33:08.051Z</time></trkpt><trkpt lat="42.2700383" lon="13.7934117"><ele>326.0</ele><time>2026-05-02T11:33:09.051Z</time></trkpt><trkpt lat="42.269875" lon="13.793655"><ele>327.5</ele><time>2026-05-02T11:33:10.052Z</time></trkpt><trkpt lat="42.2697117" lon="13.7939"><ele>329.0</ele><time>2026-05-02T11:33:11.051Z</time></trkpt><trkpt lat="42.2695583" lon="13.7941383"><ele>330.5</ele><time>2026-05-02T11:33:12.051Z</time></trkpt><trkpt lat="42.2694" lon="13.7943783"><ele>332.0</ele><time>2026-05-02T11:33:13.052Z</time></trkpt><trkpt lat="42.2692467" lon="13.7946133"><ele>332.0</ele><time>2026-05-02T11:33:14.052Z</time></trkpt><trkpt lat="42.2691" lon="13.794855"><ele>332.0</ele><time>2026-05-02T11:33:15.051Z</time></trkpt><trkpt lat="42.26894" lon="13.7950933"><ele>331.5</ele><time>2026-05-02T11:33:16.051Z</time></trkpt><trkpt lat="42.2687833" lon="13.7953333"><ele>331.0</ele><time>2026-05-02T11:33:17.052Z</time></trkpt><trkpt lat="42.2686317" lon="13.7955683"><ele>331.0</ele><time>2026-05-02T11:33:18.052Z</time></trkpt><trkpt lat="42.2684817" lon="13.7958083"><ele>331.0</ele><time>2026-05-02T11:33:19.051Z</time></trkpt><trkpt lat="42.2683467" lon="13.7960433"><ele>330.66666666666663</ele><time>2026-05-02T11:33:20.051Z</time></trkpt><trkpt lat="42.2682183" lon="13.796275"><ele>330.3333333333333</ele><time>2026-05-02T11:33:21.052Z</time></trkpt><trkpt lat="42.2680933" lon="13.7965117"><ele>330.0</ele><time>2026-05-02T11:33:22.051Z</time></trkpt><trkpt lat="42.2679733" lon="13.7967583"><ele>331.5</ele><time>2026-05-02T11:33:23.051Z</time></trkpt><trkpt lat="42.2678517" lon="13.7970167"><ele>333.0</ele><time>2026-05-02T11:33:24.051Z</time></trkpt><trkpt lat="42.2677333" lon="13.79728"><ele>333.0</ele><time>2026-05-02T11:33:25.052Z</time></trkpt><trkpt lat="42.2676217" lon="13.7975483"><ele>333.0</ele><time>2026-05-02T11:33:26.052Z</time></trkpt><trkpt lat="42.26751" lon="13.797815"><ele>335.0</ele><time>2026-05-02T11:33:27.051Z</time></trkpt><trkpt lat="42.2674017" lon="13.798085"><ele>337.0</ele><time>2026-05-02T11:33:28.051Z</time></trkpt><trkpt lat="42.2672983" lon="13.7983533"><ele>335.0</ele><time>2026-05-02T11:33:29.051Z</time></trkpt><trkpt lat="42.2671967" lon="13.7986267"><ele>333.0</ele><time>2026-05-02T11:33:30.052Z</time></trkpt><trkpt lat="42.2670917" lon="13.7989017"><ele>333.0</ele><time>2026-05-02T11:33:31.052Z</time></trkpt><trkpt lat="42.2669817" lon="13.79918"><ele>333.0</ele><time>2026-05-02T11:33:32.052Z</time></trkpt><trkpt lat="42.2668817" lon="13.7994483"><ele>334.0</ele><time>2026-05-02T11:33:33.052Z</time></trkpt><trkpt lat="42.2667817" lon="13.799715"><ele>335.0</ele><time>2026-05-02T11:33:34.052Z</time></trkpt><trkpt lat="42.26668" lon="13.799975"><ele>336.0</ele><time>2026-05-02T11:33:35.052Z</time></trkpt><trkpt lat="42.2665783" lon="13.80023"><ele>337.0</ele><time>2026-05-02T11:33:36.051Z</time></trkpt><trkpt lat="42.26648" lon="13.8004933"><ele>338.0</ele><time>2026-05-02T11:33:37.051Z</time></trkpt><trkpt lat="42.266375" lon="13.8007417"><ele>339.0</ele><time>2026-05-02T11:33:38.052Z</time></trkpt><trkpt lat="42.2662483" lon="13.8009783"><ele>340.6666666666667</ele><time>2026-05-02T11:33:39.052Z</time></trkpt><trkpt lat="42.266115" lon="13.8012083"><ele>342.33333333333337</ele><time>2026-05-02T11:33:40.051Z</time></trkpt><trkpt lat="42.26598" lon="13.8014333"><ele>344.0</ele><time>2026-05-02T11:33:41.051Z</time></trkpt><trkpt lat="42.265845" lon="13.8016433"><ele>344.6666666666667</ele><time>2026-05-02T11:33:42.051Z</time></trkpt><trkpt lat="42.2657" lon="13.801845"><ele>345.3333333333333</ele><time>2026-05-02T11:33:43.051Z</time></trkpt><trkpt lat="42.2655383" lon="13.8020467"><ele>346.0</ele><time>2026-05-02T11:33:44.051Z</time></trkpt><trkpt lat="42.26537" lon="13.8022367"><ele>348.0</ele><time>2026-05-02T11:33:45.052Z</time></trkpt><trkpt lat="42.2652" lon="13.8024183"><ele>350.0</ele><time>2026-05-02T11:33:46.052Z</time></trkpt><trkpt lat="42.26502" lon="13.8025833"><ele>352.0</ele><time>2026-05-02T11:33:47.051Z</time></trkpt><trkpt lat="42.2648367" lon="13.8027367"><ele>353.3333333333333</ele><time>2026-05-02T11:33:48.051Z</time></trkpt><trkpt lat="42.2646417" lon="13.802885"><ele>354.6666666666667</ele><time>2026-05-02T11:33:49.051Z</time></trkpt><trkpt lat="42.2644433" lon="13.803015"><ele>356.0</ele><time>2026-05-02T11:33:50.051Z</time></trkpt><trkpt lat="42.2642383" lon="13.8031283"><ele>356.0</ele><time>2026-05-02T11:33:51.052Z</time></trkpt><trkpt lat="42.264025" lon="13.8032417"><ele>356.0</ele><time>2026-05-02T11:33:52.051Z</time></trkpt><trkpt lat="42.2638167" lon="13.8033467"><ele>356.33333333333337</ele><time>2026-05-02T11:33:53.052Z</time></trkpt><trkpt lat="42.2636117" lon="13.8034583"><ele>356.6666666666667</ele><time>2026-05-02T11:33:54.051Z</time></trkpt><trkpt lat="42.2634017" lon="13.8035667"><ele>357.0</ele><time>2026-05-02T11:33:55.051Z</time></trkpt><trkpt lat="42.26319" lon="13.8036767"><ele>358.3333333333333</ele><time>2026-05-02T11:33:56.052Z</time></trkpt><trkpt lat="42.2629783" lon="13.80379"><ele>359.66666666666663</ele><time>2026-05-02T11:33:57.051Z</time></trkpt><trkpt lat="42.26278" lon="13.8039017"><ele>361.0</ele><time>2026-05-02T11:33:58.051Z</time></trkpt><trkpt lat="42.2625733" lon="13.8040083"><ele>361.0</ele><time>2026-05-02T11:33:59.051Z</time></trkpt><trkpt lat="42.2623767" lon="13.804115"><ele>361.0</ele><time>2026-05-02T11:34:00.052Z</time></trkpt><trkpt lat="42.2621783" lon="13.8042217"><ele>361.0</ele><time>2026-05-02T11:34:01.051Z</time></trkpt><trkpt lat="42.261985" lon="13.8043283"><ele>363.3333333333333</ele><time>2026-05-02T11:34:02.052Z</time></trkpt><trkpt lat="42.2617917" lon="13.8044317"><ele>365.6666666666667</ele><time>2026-05-02T11:34:03.051Z</time></trkpt><trkpt lat="42.2616033" lon="13.804535"><ele>368.0</ele><time>2026-05-02T11:34:04.051Z</time></trkpt><trkpt lat="42.2614133" lon="13.804635"><ele>368.33333333333337</ele><time>2026-05-02T11:34:05.051Z</time></trkpt><trkpt lat="42.261225" lon="13.804735"><ele>368.6666666666667</ele><time>2026-05-02T11:34:06.052Z</time></trkpt><trkpt lat="42.2610383" lon="13.8048383"><ele>369.0</ele><time>2026-05-02T11:34:07.051Z</time></trkpt><trkpt lat="42.2608617" lon="13.8049317"><ele>369.0</ele><time>2026-05-02T11:34:08.051Z</time></trkpt><trkpt lat="42.260685" lon="13.8050267"><ele>369.0</ele><time>2026-05-02T11:34:09.052Z</time></trkpt><trkpt lat="42.2604983" lon="13.8051183"><ele>369.0</ele><time>2026-05-02T11:34:10.052Z</time></trkpt><trkpt lat="42.2603217" lon="13.8052117"><ele>370.3333333333333</ele><time>2026-05-02T11:34:11.051Z</time></trkpt><trkpt lat="42.2601367" lon="13.80531"><ele>371.66666666666663</ele><time>2026-05-02T11:34:12.052Z</time></trkpt><trkpt lat="42.259955" lon="13.8054117"><ele>373.0</ele><time>2026-05-02T11:34:13.052Z</time></trkpt><trkpt lat="42.2597733" lon="13.8055133"><ele>373.0</ele><time>2026-05-02T11:34:14.052Z</time></trkpt><trkpt lat="42.2595917" lon="13.805615"><ele>373.0</ele><time>2026-05-02T11:34:15.052Z</time></trkpt><trkpt lat="42.2594017" lon="13.8057233"><ele>373.0</ele><time>2026-05-02T11:34:16.051Z</time></trkpt><trkpt lat="42.2592133" lon="13.8058317"><ele>373.0</ele><time>2026-05-02T11:34:17.052Z</time></trkpt><trkpt lat="42.2590233" lon="13.805935"><ele>373.0</ele><time>2026-05-02T11:34:18.052Z</time></trkpt><trkpt lat="42.2588367" lon="13.8060367"><ele>373.0</ele><time>2026-05-02T11:34:19.052Z</time></trkpt><trkpt lat="42.2586517" lon="13.8061383"><ele>373.66666666666663</ele><time>2026-05-02T11:34:20.052Z</time></trkpt><trkpt lat="42.2584783" lon="13.80623"><ele>374.3333333333333</ele><time>2026-05-02T11:34:21.052Z</time></trkpt><trkpt lat="42.2583117" lon="13.80632"><ele>375.0</ele><time>2026-05-02T11:34:22.051Z</time></trkpt><trkpt lat="42.25814" lon="13.8064083"><ele>374.0</ele><time>2026-05-02T11:34:23.051Z</time></trkpt><trkpt lat="42.2579733" lon="13.8064983"><ele>373.0</ele><time>2026-05-02T11:34:24.052Z</time></trkpt><trkpt lat="42.2578" lon="13.8065883"><ele>372.0</ele><time>2026-05-02T11:34:25.051Z</time></trkpt><trkpt lat="42.2576317" lon="13.8066833"><ele>372.0</ele><time>2026-05-02T11:34:26.051Z</time></trkpt><trkpt lat="42.257465" lon="13.806775"><ele>372.0</ele><time>2026-05-02T11:34:27.052Z</time></trkpt><trkpt lat="42.2572983" lon="13.80686"><ele>372.0</ele><time>2026-05-02T11:34:28.052Z</time></trkpt><trkpt lat="42.2571417" lon="13.8069417"><ele>373.3333333333333</ele><time>2026-05-02T11:34:29.052Z</time></trkpt><trkpt lat="42.2569867" lon="13.80702"><ele>374.66666666666663</ele><time>2026-05-02T11:34:30.051Z</time></trkpt><trkpt lat="42.2568333" lon="13.807105"><ele>376.0</ele><time>2026-05-02T11:34:31.051Z</time></trkpt><trkpt lat="42.2566733" lon="13.8071933"><ele>376.0</ele><time>2026-05-02T11:34:32.052Z</time></trkpt><trkpt lat="42.25651" lon="13.8072867"><ele>376.0</ele><time>2026-05-02T11:34:33.052Z</time></trkpt><trkpt lat="42.25634" lon="13.8073767"><ele>376.0</ele><time>2026-05-02T11:34:34.051Z</time></trkpt><trkpt lat="42.2561667" lon="13.8074683"><ele>375.3333333333333</ele><time>2026-05-02T11:34:35.052Z</time></trkpt><trkpt lat="42.2560017" lon="13.8075583"><ele>374.6666666666667</ele><time>2026-05-02T11:34:36.052Z</time></trkpt><trkpt lat="42.2558417" lon="13.8076467"><ele>374.0</ele><time>2026-05-02T11:34:37.051Z</time></trkpt><trkpt lat="42.2556883" lon="13.8077317"><ele>375.6666666666667</ele><time>2026-05-02T11:34:38.052Z</time></trkpt><trkpt lat="42.2555417" lon="13.8078133"><ele>377.3333333333333</ele><time>2026-05-02T11:34:39.052Z</time></trkpt><trkpt lat="42.2553967" lon="13.8078933"><ele>379.0</ele><time>2026-05-02T11:34:40.051Z</time></trkpt><trkpt lat="42.255255" lon="13.8079717"><ele>379.0</ele><time>2026-05-02T11:34:41.052Z</time></trkpt><trkpt lat="42.2551133" lon="13.8080467"><ele>379.0</ele><time>2026-05-02T11:34:42.052Z</time></trkpt><trkpt lat="42.2549667" lon="13.8081183"><ele>379.0</ele><time>2026-05-02T11:34:43.052Z</time></trkpt><trkpt lat="42.2548167" lon="13.8081983"><ele>378.0</ele><time>2026-05-02T11:34:44.051Z</time></trkpt><trkpt lat="42.2546683" lon="13.8082733"><ele>377.0</ele><time>2026-05-02T11:34:45.052Z</time></trkpt><trkpt lat="42.2545217" lon="13.8083517"><ele>376.0</ele><time>2026-05-02T11:34:46.051Z</time></trkpt><trkpt lat="42.25438" lon="13.8084317"><ele>376.25</ele><time>2026-05-02T11:34:47.052Z</time></trkpt><trkpt lat="42.2542433" lon="13.8085033"><ele>376.5</ele><time>2026-05-02T11:34:48.051Z</time></trkpt><trkpt lat="42.25411" lon="13.8085733"><ele>376.75</ele><time>2026-05-02T11:34:49.051Z</time></trkpt><trkpt lat="42.2539783" lon="13.8086383"><ele>377.0</ele><time>2026-05-02T11:34:50.051Z</time></trkpt><trkpt lat="42.25385" lon="13.8087083"><ele>376.25</ele><time>2026-05-02T11:34:51.052Z</time></trkpt><trkpt lat="42.2537283" lon="13.8087717"><ele>375.5</ele><time>2026-05-02T11:34:52.052Z</time></trkpt><trkpt lat="42.25361" lon="13.8088317"><ele>374.75</ele><time>2026-05-02T11:34:53.052Z</time></trkpt><trkpt lat="42.2535" lon="13.8088883"><ele>374.0</ele><time>2026-05-02T11:34:54.052Z</time></trkpt><trkpt lat="42.2534033" lon="13.8089417"><ele>374.0</ele><time>2026-05-02T11:34:55.052Z</time></trkpt><trkpt lat="42.2533183" lon="13.8089833"><ele>374.0</ele><time>2026-05-02T11:34:56.051Z</time></trkpt><trkpt lat="42.2532433" lon="13.80901"><ele>374.0</ele><time>2026-05-02T11:34:57.051Z</time></trkpt><trkpt lat="42.2531783" lon="13.8090233"><ele>374.0</ele><time>2026-05-02T11:34:58.052Z</time></trkpt><trkpt lat="42.2530667" lon="13.8090167"><ele>374.0</ele><time>2026-05-02T11:35:00.051Z</time></trkpt><trkpt lat="42.2529533" lon="13.8089833"><ele>373.0</ele><time>2026-05-02T11:35:02.051Z</time></trkpt><trkpt lat="42.2528883" lon="13.80897"><ele>372.0</ele><time>2026-05-02T11:35:03.051Z</time></trkpt><trkpt lat="42.2528217" lon="13.8089767"><ele>371.0</ele><time>2026-05-02T11:35:04.052Z</time></trkpt><trkpt lat="42.2527367" lon="13.809085"><ele>370.0</ele><time>2026-05-02T11:35:06.052Z</time></trkpt><trkpt lat="42.2527167" lon="13.8091683"><ele>369.0</ele><time>2026-05-02T11:35:07.051Z</time></trkpt><trkpt lat="42.2526917" lon="13.8092567"><ele>368.0</ele><time>2026-05-02T11:35:08.052Z</time></trkpt><trkpt lat="42.252655" lon="13.8093367"><ele>368.0</ele><time>2026-05-02T11:35:09.052Z</time></trkpt><trkpt lat="42.2525967" lon="13.80941"><ele>368.0</ele><time>2026-05-02T11:35:10.052Z</time></trkpt><trkpt lat="42.252525" lon="13.8094733"><ele>368.0</ele><time>2026-05-02T11:35:11.051Z</time></trkpt><trkpt lat="42.2524483" lon="13.80954"><ele>368.0</ele><time>2026-05-02T11:35:12.052Z</time></trkpt><trkpt lat="42.2523583" lon="13.809615"><ele>368.0</ele><time>2026-05-02T11:35:13.051Z</time></trkpt><trkpt lat="42.2522533" lon="13.8097"><ele>367.5</ele><time>2026-05-02T11:35:14.052Z</time></trkpt><trkpt lat="42.2521367" lon="13.8098"><ele>367.0</ele><time>2026-05-02T11:35:15.052Z</time></trkpt><trkpt lat="42.2520083" lon="13.8098967"><ele>366.5</ele><time>2026-05-02T11:35:16.052Z</time></trkpt><trkpt lat="42.2518767" lon="13.810005"><ele>366.0</ele><time>2026-05-02T11:35:17.052Z</time></trkpt><trkpt lat="42.2517483" lon="13.8101317"><ele>365.3333333333333</ele><time>2026-05-02T11:35:18.051Z</time></trkpt><trkpt lat="42.251605" lon="13.8102533"><ele>364.66666666666663</ele><time>2026-05-02T11:35:19.052Z</time></trkpt><trkpt lat="42.2514517" lon="13.810385"><ele>364.0</ele><time>2026-05-02T11:35:20.051Z</time></trkpt><trkpt lat="42.2512967" lon="13.8105183"><ele>364.0</ele><time>2026-05-02T11:35:21.051Z</time></trkpt><trkpt lat="42.2511317" lon="13.81066"><ele>364.0</ele><time>2026-05-02T11:35:22.052Z</time></trkpt><trkpt lat="42.2509583" lon="13.810805"><ele>364.0</ele><time>2026-05-02T11:35:23.051Z</time></trkpt><trkpt lat="42.2507967" lon="13.8109517"><ele>364.0</ele><time>2026-05-02T11:35:24.051Z</time></trkpt><trkpt lat="42.250625" lon="13.8111033"><ele>364.0</ele><time>2026-05-02T11:35:25.051Z</time></trkpt><trkpt lat="42.2504417" lon="13.81126"><ele>364.0</ele><time>2026-05-02T11:35:26.051Z</time></trkpt><trkpt lat="42.2502583" lon="13.8114283"><ele>360.0</ele><time>2026-05-02T11:35:27.051Z</time></trkpt><trkpt lat="42.2500767" lon="13.8116017"><ele>356.0</ele><time>2026-05-02T11:35:28.051Z</time></trkpt><trkpt lat="42.2498883" lon="13.8117783"><ele>354.0</ele><time>2026-05-02T11:35:29.051Z</time></trkpt><trkpt lat="42.2496833" lon="13.8119483"><ele>352.0</ele><time>2026-05-02T11:35:30.051Z</time></trkpt><trkpt lat="42.249465" lon="13.8121267"><ele>352.0</ele><time>2026-05-02T11:35:31.051Z</time></trkpt><trkpt lat="42.24925" lon="13.8123083"><ele>352.0</ele><time>2026-05-02T11:35:32.052Z</time></trkpt><trkpt lat="42.24903" lon="13.81249"><ele>351.0</ele><time>2026-05-02T11:35:33.052Z</time></trkpt><trkpt lat="42.24881" lon="13.8126733"><ele>350.0</ele><time>2026-05-02T11:35:34.052Z</time></trkpt><trkpt lat="42.2485933" lon="13.8128583"><ele>350.0</ele><time>2026-05-02T11:35:35.051Z</time></trkpt><trkpt lat="42.2483783" lon="13.8130417"><ele>350.0</ele><time>2026-05-02T11:35:36.052Z</time></trkpt><trkpt lat="42.2481717" lon="13.81322"><ele>350.5</ele><time>2026-05-02T11:35:37.052Z</time></trkpt><trkpt lat="42.2479667" lon="13.8134"><ele>351.0</ele><time>2026-05-02T11:35:38.052Z</time></trkpt><trkpt lat="42.2477633" lon="13.813575"><ele>351.0</ele><time>2026-05-02T11:35:39.051Z</time></trkpt><trkpt lat="42.24756" lon="13.8137467"><ele>351.0</ele><time>2026-05-02T11:35:40.052Z</time></trkpt><trkpt lat="42.2473633" lon="13.813915"><ele>347.0</ele><time>2026-05-02T11:35:41.051Z</time></trkpt><trkpt lat="42.2471683" lon="13.8140717"><ele>343.0</ele><time>2026-05-02T11:35:42.051Z</time></trkpt><trkpt lat="42.24697" lon="13.8142183"><ele>346.0</ele><time>2026-05-02T11:35:43.052Z</time></trkpt><trkpt lat="42.246765" lon="13.814345"><ele>349.0</ele><time>2026-05-02T11:35:44.052Z</time></trkpt><trkpt lat="42.2465567" lon="13.8144633"><ele>344.0</ele><time>2026-05-02T11:35:45.051Z</time></trkpt><trkpt lat="42.2463467" lon="13.8145617"><ele>339.0</ele><time>2026-05-02T11:35:46.051Z</time></trkpt><trkpt lat="42.24612" lon="13.814655"><ele>339.0</ele><time>2026-05-02T11:35:47.051Z</time></trkpt><trkpt lat="42.2459017" lon="13.8147267"><ele>339.0</ele><time>2026-05-02T11:35:48.051Z</time></trkpt><trkpt lat="42.245665" lon="13.814785"><ele>341.0</ele><time>2026-05-02T11:35:49.052Z</time></trkpt><trkpt lat="42.2454283" lon="13.814825"><ele>343.0</ele><time>2026-05-02T11:35:50.051Z</time></trkpt><trkpt lat="42.245185" lon="13.8148483"><ele>343.0</ele><time>2026-05-02T11:35:51.051Z</time></trkpt><trkpt lat="42.244935" lon="13.8148633"><ele>343.0</ele><time>2026-05-02T11:35:52.051Z</time></trkpt><trkpt lat="42.24468" lon="13.8148833"><ele>341.5</ele><time>2026-05-02T11:35:53.051Z</time></trkpt><trkpt lat="42.2444217" lon="13.8148917"><ele>340.0</ele><time>2026-05-02T11:35:54.051Z</time></trkpt><trkpt lat="42.2441683" lon="13.8149017"><ele>338.0</ele><time>2026-05-02T11:35:55.051Z</time></trkpt><trkpt lat="42.2439233" lon="13.8149167"><ele>336.0</ele><time>2026-05-02T11:35:56.052Z</time></trkpt><trkpt lat="42.2436783" lon="13.8149217"><ele>336.0</ele><time>2026-05-02T11:35:57.051Z</time></trkpt><trkpt lat="42.2434317" lon="13.814925"><ele>336.0</ele><time>2026-05-02T11:35:58.052Z</time></trkpt><trkpt lat="42.2431867" lon="13.8149183"><ele>330.5</ele><time>2026-05-02T11:35:59.052Z</time></trkpt><trkpt lat="42.2429417" lon="13.8148917"><ele>325.0</ele><time>2026-05-02T11:36:00.051Z</time></trkpt><trkpt lat="42.2426983" lon="13.8148583"><ele>325.0</ele><time>2026-05-02T11:36:01.052Z</time></trkpt><trkpt lat="42.2424583" lon="13.8148217"><ele>325.0</ele><time>2026-05-02T11:36:02.051Z</time></trkpt><trkpt lat="42.2422167" lon="13.8147783"><ele>323.0</ele><time>2026-05-02T11:36:03.052Z</time></trkpt><trkpt lat="42.24199" lon="13.8147383"><ele>321.0</ele><time>2026-05-02T11:36:04.052Z</time></trkpt><trkpt lat="42.241775" lon="13.8146883"><ele>319.0</ele><time>2026-05-02T11:36:05.052Z</time></trkpt><trkpt lat="42.2415633" lon="13.8146583"><ele>319.66666666666663</ele><time>2026-05-02T11:36:06.051Z</time></trkpt><trkpt lat="42.24137" lon="13.8146233"><ele>320.3333333333333</ele><time>2026-05-02T11:36:07.051Z</time></trkpt><trkpt lat="42.24118" lon="13.8145817"><ele>321.0</ele><time>2026-05-02T11:36:08.052Z</time></trkpt><trkpt lat="42.2409917" lon="13.8145433"><ele>321.0</ele><time>2026-05-02T11:36:09.051Z</time></trkpt><trkpt lat="42.24082" lon="13.81451"><ele>321.0</ele><time>2026-05-02T11:36:10.051Z</time></trkpt><trkpt lat="42.2406633" lon="13.8144783"><ele>321.0</ele><time>2026-05-02T11:36:11.051Z</time></trkpt><trkpt lat="42.2405167" lon="13.8144567"><ele>320.0</ele><time>2026-05-02T11:36:12.052Z</time></trkpt><trkpt lat="42.24038" lon="13.8144267"><ele>319.0</ele><time>2026-05-02T11:36:13.051Z</time></trkpt><trkpt lat="42.2402467" lon="13.8143983"><ele>318.0</ele><time>2026-05-02T11:36:14.052Z</time></trkpt><trkpt lat="42.2401317" lon="13.8143683"><ele>317.0</ele><time>2026-05-02T11:36:15.052Z</time></trkpt><trkpt lat="42.2400333" lon="13.81434"><ele>317.0</ele><time>2026-05-02T11:36:16.052Z</time></trkpt><trkpt lat="42.2399367" lon="13.8142917"><ele>317.0</ele><time>2026-05-02T11:36:17.052Z</time></trkpt><trkpt lat="42.2398583" lon="13.81424"><ele>317.0</ele><time>2026-05-02T11:36:18.051Z</time></trkpt><trkpt lat="42.2397967" lon="13.8141667"><ele>317.0</ele><time>2026-05-02T11:36:19.051Z</time></trkpt><trkpt lat="42.2397467" lon="13.8140667"><ele>317.0</ele><time>2026-05-02T11:36:20.051Z</time></trkpt><trkpt lat="42.2397033" lon="13.81398"><ele>317.0</ele><time>2026-05-02T11:36:21.052Z</time></trkpt><trkpt lat="42.239595" lon="13.8138983"><ele>318.0</ele><time>2026-05-02T11:36:23.051Z</time></trkpt><trkpt lat="42.239525" lon="13.8139183"><ele>319.0</ele><time>2026-05-02T11:36:24.052Z</time></trkpt><trkpt lat="42.2394633" lon="13.8139717"><ele>320.0</ele><time>2026-05-02T11:36:25.052Z</time></trkpt><trkpt lat="42.2394" lon="13.8140383"><ele>321.0</ele><time>2026-05-02T11:36:26.052Z</time></trkpt><trkpt lat="42.2393217" lon="13.8140983"><ele>322.0</ele><time>2026-05-02T11:36:27.052Z</time></trkpt><trkpt lat="42.239215" lon="13.8141367"><ele>323.0</ele><time>2026-05-02T11:36:28.052Z</time></trkpt><trkpt lat="42.2391017" lon="13.8141467"><ele>323.0</ele><time>2026-05-02T11:36:29.052Z</time></trkpt><trkpt lat="42.2389717" lon="13.814135"><ele>323.0</ele><time>2026-05-02T11:36:30.051Z</time></trkpt><trkpt lat="42.238835" lon="13.8141117"><ele>323.0</ele><time>2026-05-02T11:36:31.052Z</time></trkpt><trkpt lat="42.23869" lon="13.8140867"><ele>323.0</ele><time>2026-05-02T11:36:32.052Z</time></trkpt><trkpt lat="42.23855" lon="13.8140583"><ele>322.6666666666667</ele><time>2026-05-02T11:36:33.051Z</time></trkpt><trkpt lat="42.2383933" lon="13.81403"><ele>322.3333333333333</ele><time>2026-05-02T11:36:34.052Z</time></trkpt><trkpt lat="42.2382267" lon="13.8139983"><ele>322.0</ele><time>2026-05-02T11:36:35.052Z</time></trkpt><trkpt lat="42.2380517" lon="13.81397"><ele>321.0</ele><time>2026-05-02T11:36:36.052Z</time></trkpt><trkpt lat="42.2378733" lon="13.81394"><ele>320.0</ele><time>2026-05-02T11:36:37.052Z</time></trkpt><trkpt lat="42.2376883" lon="13.8139033"><ele>319.0</ele><time>2026-05-02T11:36:38.052Z</time></trkpt><trkpt lat="42.2374933" lon="13.81386"><ele>319.0</ele><time>2026-05-02T11:36:39.051Z</time></trkpt><trkpt lat="42.2372967" lon="13.8138233"><ele>319.0</ele><time>2026-05-02T11:36:40.052Z</time></trkpt><trkpt lat="42.2371" lon="13.813785"><ele>319.0</ele><time>2026-05-02T11:36:41.051Z</time></trkpt><trkpt lat="42.2369067" lon="13.8137483"><ele>319.0</ele><time>2026-05-02T11:36:42.051Z</time></trkpt><trkpt lat="42.2367017" lon="13.813705"><ele>319.0</ele><time>2026-05-02T11:36:43.052Z</time></trkpt><trkpt lat="42.236495" lon="13.8136633"><ele>319.0</ele><time>2026-05-02T11:36:44.052Z</time></trkpt><trkpt lat="42.2362817" lon="13.81363"><ele>319.3333333333333</ele><time>2026-05-02T11:36:45.052Z</time></trkpt><trkpt lat="42.2360733" lon="13.8136"><ele>319.6666666666667</ele><time>2026-05-02T11:36:46.052Z</time></trkpt><trkpt lat="42.2358517" lon="13.8135917"><ele>320.0</ele><time>2026-05-02T11:36:47.051Z</time></trkpt><trkpt lat="42.2356283" lon="13.8136"><ele>320.0</ele><time>2026-05-02T11:36:48.052Z</time></trkpt><trkpt lat="42.235405" lon="13.8136417"><ele>320.0</ele><time>2026-05-02T11:36:49.052Z</time></trkpt><trkpt lat="42.23519" lon="13.8137"><ele>320.0</ele><time>2026-05-02T11:36:50.051Z</time></trkpt><trkpt lat="42.2349817" lon="13.8137867"><ele>321.5</ele><time>2026-05-02T11:36:51.051Z</time></trkpt><trkpt lat="42.2347667" lon="13.8138867"><ele>323.0</ele><time>2026-05-02T11:36:52.051Z</time></trkpt><trkpt lat="42.2345617" lon="13.814005"><ele>323.0</ele><time>2026-05-02T11:36:53.052Z</time></trkpt><trkpt lat="42.2343533" lon="13.8141233"><ele>323.0</ele><time>2026-05-02T11:36:54.051Z</time></trkpt><trkpt lat="42.2341567" lon="13.81424"><ele>323.0</ele><time>2026-05-02T11:36:55.051Z</time></trkpt><trkpt lat="42.2339567" lon="13.81435"><ele>321.33333333333337</ele><time>2026-05-02T11:36:56.052Z</time></trkpt><trkpt lat="42.23376" lon="13.814455"><ele>319.6666666666667</ele><time>2026-05-02T11:36:57.051Z</time></trkpt><trkpt lat="42.2335683" lon="13.8145583"><ele>318.0</ele><time>2026-05-02T11:36:58.05Z</time></trkpt><trkpt lat="42.2333533" lon="13.814635"><ele>319.0</ele><time>2026-05-02T11:36:59.05Z</time></trkpt><trkpt lat="42.2331367" lon="13.81469"><ele>320.0</ele><time>2026-05-02T11:37:00.051Z</time></trkpt><trkpt lat="42.232915" lon="13.81473"><ele>321.0</ele><time>2026-05-02T11:37:01.051Z</time></trkpt><trkpt lat="42.23269" lon="13.8147433"><ele>321.0</ele><time>2026-05-02T11:37:02.05Z</time></trkpt><trkpt lat="42.2324567" lon="13.8147283"><ele>321.0</ele><time>2026-05-02T11:37:03.05Z</time></trkpt><trkpt lat="42.2322217" lon="13.814685"><ele>320.0</ele><time>2026-05-02T11:37:04.051Z</time></trkpt><trkpt lat="42.2319867" lon="13.81464"><ele>319.0</ele><time>2026-05-02T11:37:05.05Z</time></trkpt><trkpt lat="42.2317467" lon="13.8145867"><ele>319.0</ele><time>2026-05-02T11:37:06.05Z</time></trkpt><trkpt lat="42.231515" lon="13.8145417"><ele>319.0</ele><time>2026-05-02T11:37:07.051Z</time></trkpt><trkpt lat="42.2312817" lon="13.81451"><ele>319.0</ele><time>2026-05-02T11:37:08.051Z</time></trkpt><trkpt lat="42.2310433" lon="13.8144883"><ele>319.0</ele><time>2026-05-02T11:37:09.051Z</time></trkpt><trkpt lat="42.2308033" lon="13.814475"><ele>320.5</ele><time>2026-05-02T11:37:10.05Z</time></trkpt><trkpt lat="42.2305517" lon="13.8144717"><ele>322.0</ele><time>2026-05-02T11:37:11.05Z</time></trkpt><trkpt lat="42.2303033" lon="13.8144867"><ele>322.0</ele><time>2026-05-02T11:37:12.05Z</time></trkpt><trkpt lat="42.2300533" lon="13.8145217"><ele>322.0</ele><time>2026-05-02T11:37:13.05Z</time></trkpt><trkpt lat="42.229805" lon="13.814555"><ele>321.5</ele><time>2026-05-02T11:37:14.05Z</time></trkpt><trkpt lat="42.2295717" lon="13.8145883"><ele>321.0</ele><time>2026-05-02T11:37:15.051Z</time></trkpt><trkpt lat="42.2293567" lon="13.8146317"><ele>321.0</ele><time>2026-05-02T11:37:16.05Z</time></trkpt><trkpt lat="42.2291517" lon="13.8146683"><ele>321.0</ele><time>2026-05-02T11:37:17.051Z</time></trkpt><trkpt lat="42.2289533" lon="13.81469"><ele>321.0</ele><time>2026-05-02T11:37:18.05Z</time></trkpt><trkpt lat="42.2287617" lon="13.8147083"><ele>320.3333333333333</ele><time>2026-05-02T11:37:19.051Z</time></trkpt><trkpt lat="42.228575" lon="13.8147283"><ele>319.66666666666663</ele><time>2026-05-02T11:37:20.051Z</time></trkpt><trkpt lat="42.2283833" lon="13.8147483"><ele>319.0</ele><time>2026-05-02T11:37:21.05Z</time></trkpt><trkpt lat="42.22819" lon="13.8147717"><ele>319.0</ele><time>2026-05-02T11:37:22.051Z</time></trkpt><trkpt lat="42.2279967" lon="13.8147967"><ele>319.0</ele><time>2026-05-02T11:37:23.051Z</time></trkpt><trkpt lat="42.2278033" lon="13.8148167"><ele>319.0</ele><time>2026-05-02T11:37:24.05Z</time></trkpt><trkpt lat="42.2276183" lon="13.814835"><ele>319.0</ele><time>2026-05-02T11:37:25.051Z</time></trkpt><trkpt lat="42.2274317" lon="13.8148567"><ele>319.0</ele><time>2026-05-02T11:37:26.051Z</time></trkpt><trkpt lat="42.2272433" lon="13.814895"><ele>319.0</ele><time>2026-05-02T11:37:27.051Z</time></trkpt><trkpt lat="42.2270567" lon="13.8149433"><ele>320.3333333333333</ele><time>2026-05-02T11:37:28.051Z</time></trkpt><trkpt lat="42.2268733" lon="13.8149867"><ele>321.6666666666667</ele><time>2026-05-02T11:37:29.051Z</time></trkpt><trkpt lat="42.2266867" lon="13.8150317"><ele>323.0</ele><time>2026-05-02T11:37:30.051Z</time></trkpt><trkpt lat="42.2265017" lon="13.8150833"><ele>324.6666666666667</ele><time>2026-05-02T11:37:31.05Z</time></trkpt><trkpt lat="42.2263133" lon="13.8151233"><ele>326.3333333333333</ele><time>2026-05-02T11:37:32.05Z</time></trkpt><trkpt lat="42.226135" lon="13.8151733"><ele>328.0</ele><time>2026-05-02T11:37:33.051Z</time></trkpt><trkpt lat="42.2259583" lon="13.815215"><ele>324.3333333333333</ele><time>2026-05-02T11:37:34.051Z</time></trkpt><trkpt lat="42.22579" lon="13.8152617"><ele>320.6666666666667</ele><time>2026-05-02T11:37:35.05Z</time></trkpt><trkpt lat="42.22562" lon="13.8153083"><ele>317.0</ele><time>2026-05-02T11:37:36.051Z</time></trkpt><trkpt lat="42.2254483" lon="13.8153533"><ele>317.0</ele><time>2026-05-02T11:37:37.05Z</time></trkpt><trkpt lat="42.2252933" lon="13.8154017"><ele>317.0</ele><time>2026-05-02T11:37:38.051Z</time></trkpt><trkpt lat="42.2251383" lon="13.8154567"><ele>317.0</ele><time>2026-05-02T11:37:39.05Z</time></trkpt><trkpt lat="42.22499" lon="13.8155233"><ele>317.0</ele><time>2026-05-02T11:37:40.05Z</time></trkpt><trkpt lat="42.22484" lon="13.8156083"><ele>317.0</ele><time>2026-05-02T11:37:41.05Z</time></trkpt><trkpt lat="42.2246967" lon="13.8157033"><ele>317.0</ele><time>2026-05-02T11:37:42.051Z</time></trkpt><trkpt lat="42.22456" lon="13.8158117"><ele>316.5</ele><time>2026-05-02T11:37:43.051Z</time></trkpt><trkpt lat="42.2244167" lon="13.8159233"><ele>316.0</ele><time>2026-05-02T11:37:44.051Z</time></trkpt><trkpt lat="42.2241383" lon="13.8161567"><ele>316.0</ele><time>2026-05-02T11:37:46.051Z</time></trkpt><trkpt lat="42.2240083" lon="13.8162683"><ele>316.0</ele><time>2026-05-02T11:37:47.05Z</time></trkpt><trkpt lat="42.22388" lon="13.816375"><ele>316.0</ele><time>2026-05-02T11:37:48.051Z</time></trkpt><trkpt lat="42.2237533" lon="13.8164783"><ele>316.25</ele><time>2026-05-02T11:37:49.05Z</time></trkpt><trkpt lat="42.2236267" lon="13.81658"><ele>316.5</ele><time>2026-05-02T11:37:50.051Z</time></trkpt><trkpt lat="42.223505" lon="13.8166817"><ele>316.75</ele><time>2026-05-02T11:37:51.051Z</time></trkpt><trkpt lat="42.2233767" lon="13.8167817"><ele>317.0</ele><time>2026-05-02T11:37:52.051Z</time></trkpt><trkpt lat="42.2232467" lon="13.8168767"><ele>317.75</ele><time>2026-05-02T11:37:53.051Z</time></trkpt><trkpt lat="42.2231233" lon="13.8169717"><ele>318.5</ele><time>2026-05-02T11:37:54.051Z</time></trkpt><trkpt lat="42.2230033" lon="13.817065"><ele>319.25</ele><time>2026-05-02T11:37:55.051Z</time></trkpt><trkpt lat="42.2228833" lon="13.81714"><ele>320.0</ele><time>2026-05-02T11:37:56.05Z</time></trkpt><trkpt lat="42.2227667" lon="13.817205"><ele>320.0</ele><time>2026-05-02T11:37:57.05Z</time></trkpt><trkpt lat="42.222645" lon="13.81726"><ele>320.0</ele><time>2026-05-02T11:37:58.05Z</time></trkpt><trkpt lat="42.2225233" lon="13.8173017"><ele>320.0</ele><time>2026-05-02T11:37:59.05Z</time></trkpt><trkpt lat="42.2223933" lon="13.81734"><ele>320.0</ele><time>2026-05-02T11:38:00.051Z</time></trkpt><trkpt lat="42.2222683" lon="13.8173717"><ele>319.25</ele><time>2026-05-02T11:38:01.051Z</time></trkpt><trkpt lat="42.222145" lon="13.8173983"><ele>318.5</ele><time>2026-05-02T11:38:02.05Z</time></trkpt><trkpt lat="42.2220267" lon="13.817415"><ele>317.75</ele><time>2026-05-02T11:38:03.051Z</time></trkpt><trkpt lat="42.2219017" lon="13.8174283"><ele>317.0</ele><time>2026-05-02T11:38:04.05Z</time></trkpt><trkpt lat="42.2217767" lon="13.817425"><ele>317.0</ele><time>2026-05-02T11:38:05.05Z</time></trkpt><trkpt lat="42.2216417" lon="13.81741"><ele>317.0</ele><time>2026-05-02T11:38:06.051Z</time></trkpt><trkpt lat="42.221495" lon="13.8173883"><ele>317.0</ele><time>2026-05-02T11:38:07.051Z</time></trkpt><trkpt lat="42.22134" lon="13.8173517"><ele>317.0</ele><time>2026-05-02T11:38:08.05Z</time></trkpt><trkpt lat="42.22119" lon="13.8173167"><ele>317.0</ele><time>2026-05-02T11:38:09.05Z</time></trkpt><trkpt lat="42.2210267" lon="13.8172767"><ele>317.0</ele><time>2026-05-02T11:38:10.05Z</time></trkpt><trkpt lat="42.220865" lon="13.8172333"><ele>317.0</ele><time>2026-05-02T11:38:11.051Z</time></trkpt><trkpt lat="42.2205333" lon="13.8171483"><ele>317.33333333333337</ele><time>2026-05-02T11:38:13.05Z</time></trkpt><trkpt lat="42.2203717" lon="13.817095"><ele>317.6666666666667</ele><time>2026-05-02T11:38:14.05Z</time></trkpt><trkpt lat="42.2202033" lon="13.8170483"><ele>318.0</ele><time>2026-05-02T11:38:15.05Z</time></trkpt><trkpt lat="42.220045" lon="13.817005"><ele>318.0</ele><time>2026-05-02T11:38:16.051Z</time></trkpt><trkpt lat="42.2198883" lon="13.81699"><ele>318.0</ele><time>2026-05-02T11:38:17.051Z</time></trkpt><trkpt lat="42.2197267" lon="13.8169783"><ele>318.0</ele><time>2026-05-02T11:38:18.051Z</time></trkpt><trkpt lat="42.2195533" lon="13.8169817"><ele>318.5</ele><time>2026-05-02T11:38:19.051Z</time></trkpt><trkpt lat="42.2193717" lon="13.8169933"><ele>319.0</ele><time>2026-05-02T11:38:20.05Z</time></trkpt><trkpt lat="42.2190017" lon="13.817055"><ele>318.66666666666663</ele><time>2026-05-02T11:38:22.051Z</time></trkpt><trkpt lat="42.2188133" lon="13.8170933"><ele>318.3333333333333</ele><time>2026-05-02T11:38:23.05Z</time></trkpt><trkpt lat="42.2186267" lon="13.8171367"><ele>318.0</ele><time>2026-05-02T11:38:24.05Z</time></trkpt><trkpt lat="42.2184383" lon="13.8171767"><ele>318.0</ele><time>2026-05-02T11:38:25.05Z</time></trkpt><trkpt lat="42.21825" lon="13.8172083"><ele>318.0</ele><time>2026-05-02T11:38:26.051Z</time></trkpt><trkpt lat="42.2180733" lon="13.8172317"><ele>318.0</ele><time>2026-05-02T11:38:27.05Z</time></trkpt><trkpt lat="42.217905" lon="13.8172633"><ele>318.5</ele><time>2026-05-02T11:38:28.051Z</time></trkpt><trkpt lat="42.2177467" lon="13.8173"><ele>319.0</ele><time>2026-05-02T11:38:29.05Z</time></trkpt><trkpt lat="42.2174483" lon="13.8173783"><ele>320.75</ele><time>2026-05-02T11:38:31.051Z</time></trkpt><trkpt lat="42.2173183" lon="13.8174183"><ele>322.5</ele><time>2026-05-02T11:38:32.051Z</time></trkpt><trkpt lat="42.2171917" lon="13.8174683"><ele>324.25</ele><time>2026-05-02T11:38:33.05Z</time></trkpt><trkpt lat="42.2170667" lon="13.8175283"><ele>326.0</ele><time>2026-05-02T11:38:34.051Z</time></trkpt><trkpt lat="42.2169433" lon="13.8175967"><ele>324.0</ele><time>2026-05-02T11:38:35.05Z</time></trkpt><trkpt lat="42.2168283" lon="13.8176783"><ele>322.0</ele><time>2026-05-02T11:38:36.05Z</time></trkpt><trkpt lat="42.2167183" lon="13.8177583"><ele>320.0</ele><time>2026-05-02T11:38:37.051Z</time></trkpt><trkpt lat="42.2166117" lon="13.8178533"><ele>318.0</ele><time>2026-05-02T11:38:38.051Z</time></trkpt><trkpt lat="42.2165083" lon="13.8179467"><ele>319.25</ele><time>2026-05-02T11:38:39.05Z</time></trkpt><trkpt lat="42.21641" lon="13.818055"><ele>320.5</ele><time>2026-05-02T11:38:40.051Z</time></trkpt><trkpt lat="42.216315" lon="13.8181617"><ele>321.75</ele><time>2026-05-02T11:38:41.05Z</time></trkpt><trkpt lat="42.2162233" lon="13.818265"><ele>323.0</ele><time>2026-05-02T11:38:42.05Z</time></trkpt><trkpt lat="42.2161317" lon="13.8183733"><ele>323.0</ele><time>2026-05-02T11:38:43.051Z</time></trkpt><trkpt lat="42.21604" lon="13.8184783"><ele>323.0</ele><time>2026-05-02T11:38:44.051Z</time></trkpt><trkpt lat="42.21595" lon="13.8185883"><ele>323.0</ele><time>2026-05-02T11:38:45.05Z</time></trkpt><trkpt lat="42.215855" lon="13.8186983"><ele>323.0</ele><time>2026-05-02T11:38:46.051Z</time></trkpt><trkpt lat="42.215755" lon="13.8188133"><ele>322.25</ele><time>2026-05-02T11:38:47.05Z</time></trkpt><trkpt lat="42.21566" lon="13.8189217"><ele>321.5</ele><time>2026-05-02T11:38:48.051Z</time></trkpt><trkpt lat="42.2155633" lon="13.8190217"><ele>320.75</ele><time>2026-05-02T11:38:49.051Z</time></trkpt><trkpt lat="42.2154717" lon="13.8191183"><ele>320.0</ele><time>2026-05-02T11:38:50.05Z</time></trkpt><trkpt lat="42.2153817" lon="13.8192133"><ele>320.0</ele><time>2026-05-02T11:38:51.051Z</time></trkpt><trkpt lat="42.2152883" lon="13.8193083"><ele>320.0</ele><time>2026-05-02T11:38:52.051Z</time></trkpt><trkpt lat="42.21519" lon="13.8193933"><ele>320.0</ele><time>2026-05-02T11:38:53.051Z</time></trkpt><trkpt lat="42.2150983" lon="13.819475"><ele>320.0</ele><time>2026-05-02T11:38:54.051Z</time></trkpt><trkpt lat="42.2150067" lon="13.8195467"><ele>320.0</ele><time>2026-05-02T11:38:55.05Z</time></trkpt><trkpt lat="42.2149117" lon="13.8196117"><ele>321.0</ele><time>2026-05-02T11:38:56.05Z</time></trkpt><trkpt lat="42.2148117" lon="13.8196817"><ele>322.0</ele><time>2026-05-02T11:38:57.05Z</time></trkpt><trkpt lat="42.214705" lon="13.81975"><ele>323.0</ele><time>2026-05-02T11:38:58.051Z</time></trkpt><trkpt lat="42.2145883" lon="13.819825"><ele>324.0</ele><time>2026-05-02T11:38:59.051Z</time></trkpt><trkpt lat="42.214475" lon="13.8198917"><ele>324.0</ele><time>2026-05-02T11:39:00.05Z</time></trkpt><trkpt lat="42.21436" lon="13.8199633"><ele>324.0</ele><time>2026-05-02T11:39:01.05Z</time></trkpt><trkpt lat="42.2142483" lon="13.82004"><ele>324.0</ele><time>2026-05-02T11:39:02.051Z</time></trkpt><trkpt lat="42.2140433" lon="13.8201817"><ele>321.75</ele><time>2026-05-02T11:39:04.051Z</time></trkpt><trkpt lat="42.21394" lon="13.8202467"><ele>319.5</ele><time>2026-05-02T11:39:05.05Z</time></trkpt><trkpt lat="42.21384" lon="13.8203133"><ele>317.25</ele><time>2026-05-02T11:39:06.05Z</time></trkpt><trkpt lat="42.213735" lon="13.8203767"><ele>315.0</ele><time>2026-05-02T11:39:07.05Z</time></trkpt><trkpt lat="42.2136233" lon="13.8204483"><ele>315.0</ele><time>2026-05-02T11:39:08.05Z</time></trkpt><trkpt lat="42.2135117" lon="13.8205183"><ele>315.0</ele><time>2026-05-02T11:39:09.051Z</time></trkpt><trkpt lat="42.2133983" lon="13.8205967"><ele>315.0</ele><time>2026-05-02T11:39:10.05Z</time></trkpt><trkpt lat="42.2132783" lon="13.8206733"><ele>315.0</ele><time>2026-05-02T11:39:11.05Z</time></trkpt><trkpt lat="42.2131533" lon="13.82075"><ele>315.0</ele><time>2026-05-02T11:39:12.051Z</time></trkpt><trkpt lat="42.2130367" lon="13.8208317"><ele>315.0</ele><time>2026-05-02T11:39:13.051Z</time></trkpt><trkpt lat="42.2129133" lon="13.8209117"><ele>315.0</ele><time>2026-05-02T11:39:14.05Z</time></trkpt><trkpt lat="42.2127933" lon="13.8209867"><ele>315.0</ele><time>2026-05-02T11:39:15.05Z</time></trkpt><trkpt lat="42.2126667" lon="13.82107"><ele>315.0</ele><time>2026-05-02T11:39:16.051Z</time></trkpt><trkpt lat="42.21254" lon="13.821155"><ele>315.0</ele><time>2026-05-02T11:39:17.051Z</time></trkpt><trkpt lat="42.2124133" lon="13.8212433"><ele>315.0</ele><time>2026-05-02T11:39:18.05Z</time></trkpt><trkpt lat="42.21229" lon="13.8213317"><ele>315.0</ele><time>2026-05-02T11:39:19.051Z</time></trkpt><trkpt lat="42.2121733" lon="13.821415"><ele>315.25</ele><time>2026-05-02T11:39:20.051Z</time></trkpt><trkpt lat="42.2120583" lon="13.82149"><ele>315.5</ele><time>2026-05-02T11:39:21.051Z</time></trkpt><trkpt lat="42.2119417" lon="13.8215717"><ele>315.75</ele><time>2026-05-02T11:39:22.05Z</time></trkpt><trkpt lat="42.2118183" lon="13.8216533"><ele>316.0</ele><time>2026-05-02T11:39:23.05Z</time></trkpt><trkpt lat="42.21169" lon="13.821735"><ele>315.66666666666663</ele><time>2026-05-02T11:39:24.05Z</time></trkpt><trkpt lat="42.2115517" lon="13.8218167"><ele>315.3333333333333</ele><time>2026-05-02T11:39:25.05Z</time></trkpt><trkpt lat="42.2114067" lon="13.8219017"><ele>315.0</ele><time>2026-05-02T11:39:26.05Z</time></trkpt><trkpt lat="42.21126" lon="13.8219933"><ele>314.0</ele><time>2026-05-02T11:39:27.051Z</time></trkpt><trkpt lat="42.2111133" lon="13.822085"><ele>313.0</ele><time>2026-05-02T11:39:28.051Z</time></trkpt><trkpt lat="42.210965" lon="13.8221817"><ele>312.0</ele><time>2026-05-02T11:39:29.05Z</time></trkpt><trkpt lat="42.210815" lon="13.822285"><ele>312.0</ele><time>2026-05-02T11:39:30.05Z</time></trkpt><trkpt lat="42.210665" lon="13.8223767"><ele>312.0</ele><time>2026-05-02T11:39:31.05Z</time></trkpt><trkpt lat="42.2105067" lon="13.8224783"><ele>312.0</ele><time>2026-05-02T11:39:32.05Z</time></trkpt><trkpt lat="42.21035" lon="13.8225717"><ele>311.6666666666667</ele><time>2026-05-02T11:39:33.05Z</time></trkpt><trkpt lat="42.210205" lon="13.8226717"><ele>311.33333333333337</ele><time>2026-05-02T11:39:34.051Z</time></trkpt><trkpt lat="42.2100583" lon="13.8227667"><ele>311.0</ele><time>2026-05-02T11:39:35.051Z</time></trkpt><trkpt lat="42.20991" lon="13.8228633"><ele>313.0</ele><time>2026-05-02T11:39:36.05Z</time></trkpt><trkpt lat="42.2097683" lon="13.8229633"><ele>315.0</ele><time>2026-05-02T11:39:37.05Z</time></trkpt><trkpt lat="42.2096283" lon="13.823055"><ele>317.0</ele><time>2026-05-02T11:39:38.05Z</time></trkpt><trkpt lat="42.2094833" lon="13.8231467"><ele>317.0</ele><time>2026-05-02T11:39:39.05Z</time></trkpt><trkpt lat="42.20934" lon="13.8232417"><ele>317.0</ele><time>2026-05-02T11:39:40.051Z</time></trkpt><trkpt lat="42.2092" lon="13.8233433"><ele>317.0</ele><time>2026-05-02T11:39:41.051Z</time></trkpt><trkpt lat="42.2090567" lon="13.8234467"><ele>317.6666666666667</ele><time>2026-05-02T11:39:42.05Z</time></trkpt><trkpt lat="42.2089117" lon="13.8235517"><ele>318.3333333333333</ele><time>2026-05-02T11:39:43.05Z</time></trkpt><trkpt lat="42.208775" lon="13.8236617"><ele>319.0</ele><time>2026-05-02T11:39:44.05Z</time></trkpt><trkpt lat="42.2086333" lon="13.8237817"><ele>319.0</ele><time>2026-05-02T11:39:45.051Z</time></trkpt><trkpt lat="42.2085017" lon="13.823905"><ele>319.0</ele><time>2026-05-02T11:39:46.051Z</time></trkpt><trkpt lat="42.208375" lon="13.8240483"><ele>319.0</ele><time>2026-05-02T11:39:47.05Z</time></trkpt><trkpt lat="42.20825" lon="13.8241967"><ele>322.3333333333333</ele><time>2026-05-02T11:39:48.05Z</time></trkpt><trkpt lat="42.208125" lon="13.8243517"><ele>325.6666666666667</ele><time>2026-05-02T11:39:49.05Z</time></trkpt><trkpt lat="42.208005" lon="13.8245167"><ele>329.0</ele><time>2026-05-02T11:39:50.051Z</time></trkpt><trkpt lat="42.2078867" lon="13.82469"><ele>329.0</ele><time>2026-05-02T11:39:51.051Z</time></trkpt><trkpt lat="42.20778" lon="13.8248733"><ele>329.0</ele><time>2026-05-02T11:39:52.05Z</time></trkpt><trkpt lat="42.2076817" lon="13.8250633"><ele>329.0</ele><time>2026-05-02T11:39:53.05Z</time></trkpt><trkpt lat="42.207585" lon="13.8252517"><ele>332.6666666666667</ele><time>2026-05-02T11:39:54.051Z</time></trkpt><trkpt lat="42.2074917" lon="13.8254333"><ele>336.3333333333333</ele><time>2026-05-02T11:39:55.05Z</time></trkpt><trkpt lat="42.2073983" lon="13.8256133"><ele>340.0</ele><time>2026-05-02T11:39:56.051Z</time></trkpt><trkpt lat="42.2073117" lon="13.8258"><ele>331.0</ele><time>2026-05-02T11:39:57.05Z</time></trkpt><trkpt lat="42.2072117" lon="13.8259917"><ele>322.0</ele><time>2026-05-02T11:39:58.05Z</time></trkpt><trkpt lat="42.2071083" lon="13.82617"><ele>313.0</ele><time>2026-05-02T11:39:59.05Z</time></trkpt><trkpt lat="42.20699" lon="13.8263417"><ele>313.0</ele><time>2026-05-02T11:40:00.05Z</time></trkpt><trkpt lat="42.206855" lon="13.8265117"><ele>313.0</ele><time>2026-05-02T11:40:01.051Z</time></trkpt><trkpt lat="42.20671" lon="13.8266817"><ele>313.0</ele><time>2026-05-02T11:40:02.051Z</time></trkpt><trkpt lat="42.2065667" lon="13.8268417"><ele>316.66666666666663</ele><time>2026-05-02T11:40:03.051Z</time></trkpt><trkpt lat="42.20643" lon="13.8270083"><ele>320.3333333333333</ele><time>2026-05-02T11:40:04.051Z</time></trkpt><trkpt lat="42.2063067" lon="13.8271867"><ele>324.0</ele><time>2026-05-02T11:40:05.051Z</time></trkpt><trkpt lat="42.2062" lon="13.8273633"><ele>324.0</ele><time>2026-05-02T11:40:06.05Z</time></trkpt><trkpt lat="42.2061" lon="13.8275633"><ele>324.0</ele><time>2026-05-02T11:40:07.05Z</time></trkpt><trkpt lat="42.2060067" lon="13.8277733"><ele>324.0</ele><time>2026-05-02T11:40:08.051Z</time></trkpt><trkpt lat="42.2059283" lon="13.82799"><ele>317.6666666666667</ele><time>2026-05-02T11:40:09.05Z</time></trkpt><trkpt lat="42.2058767" lon="13.828225"><ele>311.33333333333337</ele><time>2026-05-02T11:40:10.051Z</time></trkpt><trkpt lat="42.2058517" lon="13.8284683"><ele>305.0</ele><time>2026-05-02T11:40:11.05Z</time></trkpt><trkpt lat="42.2058167" lon="13.8287167"><ele>301.6666666666667</ele><time>2026-05-02T11:40:12.051Z</time></trkpt><trkpt lat="42.2057717" lon="13.828965"><ele>298.3333333333333</ele><time>2026-05-02T11:40:13.05Z</time></trkpt><trkpt lat="42.2057267" lon="13.8292117"><ele>295.0</ele><time>2026-05-02T11:40:14.05Z</time></trkpt><trkpt lat="42.2056817" lon="13.8294517"><ele>298.0</ele><time>2026-05-02T11:40:15.051Z</time></trkpt><trkpt lat="42.2056433" lon="13.8296867"><ele>301.0</ele><time>2026-05-02T11:40:16.051Z</time></trkpt><trkpt lat="42.2056033" lon="13.8299133"><ele>304.0</ele><time>2026-05-02T11:40:17.05Z</time></trkpt><trkpt lat="42.2055683" lon="13.830145"><ele>304.0</ele><time>2026-05-02T11:40:18.05Z</time></trkpt><trkpt lat="42.205525" lon="13.8303717"><ele>304.0</ele><time>2026-05-02T11:40:19.05Z</time></trkpt><trkpt lat="42.2054817" lon="13.8306067"><ele>304.0</ele><time>2026-05-02T11:40:20.051Z</time></trkpt><trkpt lat="42.2054383" lon="13.8308367"><ele>301.3333333333333</ele><time>2026-05-02T11:40:21.051Z</time></trkpt><trkpt lat="42.2053933" lon="13.83106"><ele>298.6666666666667</ele><time>2026-05-02T11:40:22.05Z</time></trkpt><trkpt lat="42.205345" lon="13.8312683"><ele>296.0</ele><time>2026-05-02T11:40:23.051Z</time></trkpt><trkpt lat="42.2053" lon="13.8314767"><ele>296.0</ele><time>2026-05-02T11:40:24.05Z</time></trkpt><trkpt lat="42.2052483" lon="13.8316867"><ele>296.0</ele><time>2026-05-02T11:40:25.051Z</time></trkpt><trkpt lat="42.2051917" lon="13.831895"><ele>296.0</ele><time>2026-05-02T11:40:26.05Z</time></trkpt><trkpt lat="42.205135" lon="13.8321117"><ele>291.33333333333337</ele><time>2026-05-02T11:40:27.05Z</time></trkpt><trkpt lat="42.2050667" lon="13.8323367"><ele>286.6666666666667</ele><time>2026-05-02T11:40:28.051Z</time></trkpt><trkpt lat="42.20498" lon="13.832555"><ele>282.0</ele><time>2026-05-02T11:40:29.051Z</time></trkpt><trkpt lat="42.2048917" lon="13.8327617"><ele>287.6666666666667</ele><time>2026-05-02T11:40:30.051Z</time></trkpt><trkpt lat="42.2048083" lon="13.8329533"><ele>293.33333333333337</ele><time>2026-05-02T11:40:31.051Z</time></trkpt><trkpt lat="42.2047167" lon="13.8331617"><ele>299.0</ele><time>2026-05-02T11:40:32.05Z</time></trkpt><trkpt lat="42.20463" lon="13.8333667"><ele>293.33333333333337</ele><time>2026-05-02T11:40:33.05Z</time></trkpt><trkpt lat="42.20455" lon="13.8335683"><ele>287.6666666666667</ele><time>2026-05-02T11:40:34.051Z</time></trkpt><trkpt lat="42.2044667" lon="13.833785"><ele>282.0</ele><time>2026-05-02T11:40:35.05Z</time></trkpt><trkpt lat="42.2043917" lon="13.8339983"><ele>282.0</ele><time>2026-05-02T11:40:36.051Z</time></trkpt><trkpt lat="42.2043083" lon="13.8342067"><ele>282.0</ele><time>2026-05-02T11:40:37.051Z</time></trkpt><trkpt lat="42.204225" lon="13.8344167"><ele>282.0</ele><time>2026-05-02T11:40:38.051Z</time></trkpt><trkpt lat="42.2041417" lon="13.83463"><ele>279.6666666666667</ele><time>2026-05-02T11:40:39.051Z</time></trkpt><trkpt lat="42.2040633" lon="13.8348417"><ele>277.33333333333337</ele><time>2026-05-02T11:40:40.051Z</time></trkpt><trkpt lat="42.2039833" lon="13.8350533"><ele>275.0</ele><time>2026-05-02T11:40:41.051Z</time></trkpt><trkpt lat="42.2038967" lon="13.83527"><ele>275.0</ele><time>2026-05-02T11:40:42.05Z</time></trkpt><trkpt lat="42.2038083" lon="13.8354783"><ele>275.0</ele><time>2026-05-02T11:40:43.05Z</time></trkpt><trkpt lat="42.2037183" lon="13.8356783"><ele>275.0</ele><time>2026-05-02T11:40:44.051Z</time></trkpt><trkpt lat="42.2036333" lon="13.8358667"><ele>269.0</ele><time>2026-05-02T11:40:45.05Z</time></trkpt><trkpt lat="42.20353" lon="13.8360417"><ele>263.0</ele><time>2026-05-02T11:40:46.05Z</time></trkpt><trkpt lat="42.2034117" lon="13.8362067"><ele>257.0</ele><time>2026-05-02T11:40:47.05Z</time></trkpt><trkpt lat="42.2032833" lon="13.8363617"><ele>259.33333333333337</ele><time>2026-05-02T11:40:48.051Z</time></trkpt><trkpt lat="42.2031517" lon="13.836505"><ele>261.6666666666667</ele><time>2026-05-02T11:40:49.05Z</time></trkpt><trkpt lat="42.2030083" lon="13.8366417"><ele>264.0</ele><time>2026-05-02T11:40:50.05Z</time></trkpt><trkpt lat="42.2028583" lon="13.8367617"><ele>260.6666666666667</ele><time>2026-05-02T11:40:51.051Z</time></trkpt><trkpt lat="42.2027033" lon="13.8368767"><ele>257.33333333333337</ele><time>2026-05-02T11:40:52.051Z</time></trkpt><trkpt lat="42.20253" lon="13.8369767"><ele>254.0</ele><time>2026-05-02T11:40:53.05Z</time></trkpt><trkpt lat="42.2023567" lon="13.83707"><ele>254.0</ele><time>2026-05-02T11:40:54.05Z</time></trkpt><trkpt lat="42.2021867" lon="13.8371483"><ele>254.0</ele><time>2026-05-02T11:40:55.051Z</time></trkpt><trkpt lat="42.2020033" lon="13.8372017"><ele>254.0</ele><time>2026-05-02T11:40:56.05Z</time></trkpt><trkpt lat="42.201825" lon="13.8372433"><ele>254.0</ele><time>2026-05-02T11:40:57.051Z</time></trkpt><trkpt lat="42.2016483" lon="13.837275"><ele>254.0</ele><time>2026-05-02T11:40:58.051Z</time></trkpt><trkpt lat="42.2014767" lon="13.8372983"><ele>254.0</ele><time>2026-05-02T11:40:59.051Z</time></trkpt><trkpt lat="42.2013133" lon="13.83732"><ele>255.0</ele><time>2026-05-02T11:41:00.05Z</time></trkpt><trkpt lat="42.2011483" lon="13.837345"><ele>256.0</ele><time>2026-05-02T11:41:01.051Z</time></trkpt><trkpt lat="42.2009817" lon="13.83737"><ele>257.0</ele><time>2026-05-02T11:41:02.051Z</time></trkpt><trkpt lat="42.2008167" lon="13.8374"><ele>259.0</ele><time>2026-05-02T11:41:03.05Z</time></trkpt><trkpt lat="42.2006467" lon="13.8374267"><ele>261.0</ele><time>2026-05-02T11:41:04.051Z</time></trkpt><trkpt lat="42.200485" lon="13.8374433"><ele>263.0</ele><time>2026-05-02T11:41:05.051Z</time></trkpt><trkpt lat="42.200335" lon="13.8374633"><ele>263.0</ele><time>2026-05-02T11:41:06.05Z</time></trkpt><trkpt lat="42.200185" lon="13.8374833"><ele>263.0</ele><time>2026-05-02T11:41:07.051Z</time></trkpt><trkpt lat="42.200035" lon="13.8375067"><ele>263.0</ele><time>2026-05-02T11:41:08.051Z</time></trkpt><trkpt lat="42.199885" lon="13.8375267"><ele>264.5</ele><time>2026-05-02T11:41:09.05Z</time></trkpt><trkpt lat="42.1997383" lon="13.837545"><ele>266.0</ele><time>2026-05-02T11:41:10.051Z</time></trkpt><trkpt lat="42.1996017" lon="13.8375617"><ele>267.5</ele><time>2026-05-02T11:41:11.051Z</time></trkpt><trkpt lat="42.19947" lon="13.8375867"><ele>269.0</ele><time>2026-05-02T11:41:12.051Z</time></trkpt><trkpt lat="42.199335" lon="13.837595"><ele>269.0</ele><time>2026-05-02T11:41:13.05Z</time></trkpt><trkpt lat="42.199195" lon="13.8375983"><ele>269.0</ele><time>2026-05-02T11:41:14.05Z</time></trkpt><trkpt lat="42.1990517" lon="13.8375933"><ele>269.0</ele><time>2026-05-02T11:41:15.051Z</time></trkpt><trkpt lat="42.1988983" lon="13.837565"><ele>269.0</ele><time>2026-05-02T11:41:16.051Z</time></trkpt><trkpt lat="42.1987467" lon="13.8375133"><ele>268.0</ele><time>2026-05-02T11:41:17.051Z</time></trkpt><trkpt lat="42.19859" lon="13.8374833"><ele>267.0</ele><time>2026-05-02T11:41:18.05Z</time></trkpt><trkpt lat="42.1984267" lon="13.83745"><ele>266.0</ele><time>2026-05-02T11:41:19.05Z</time></trkpt><trkpt lat="42.1982633" lon="13.8374233"><ele>265.33333333333337</ele><time>2026-05-02T11:41:20.051Z</time></trkpt><trkpt lat="42.1980933" lon="13.8374267"><ele>264.6666666666667</ele><time>2026-05-02T11:41:21.05Z</time></trkpt><trkpt lat="42.1979417" lon="13.8374367"><ele>264.0</ele><time>2026-05-02T11:41:22.051Z</time></trkpt><trkpt lat="42.1978" lon="13.8374633"><ele>264.0</ele><time>2026-05-02T11:41:23.051Z</time></trkpt><trkpt lat="42.1976567" lon="13.837505"><ele>264.0</ele><time>2026-05-02T11:41:24.05Z</time></trkpt><trkpt lat="42.19752" lon="13.8375517"><ele>264.0</ele><time>2026-05-02T11:41:25.05Z</time></trkpt><trkpt lat="42.197385" lon="13.8376017"><ele>264.0</ele><time>2026-05-02T11:41:26.05Z</time></trkpt><trkpt lat="42.1972533" lon="13.8376733"><ele>265.6666666666667</ele><time>2026-05-02T11:41:27.051Z</time></trkpt><trkpt lat="42.1971183" lon="13.83777"><ele>267.33333333333337</ele><time>2026-05-02T11:41:28.051Z</time></trkpt><trkpt lat="42.1969867" lon="13.837875"><ele>269.0</ele><time>2026-05-02T11:41:29.051Z</time></trkpt><trkpt lat="42.196845" lon="13.8380017"><ele>269.0</ele><time>2026-05-02T11:41:30.051Z</time></trkpt><trkpt lat="42.1967233" lon="13.8381367"><ele>269.0</ele><time>2026-05-02T11:41:31.051Z</time></trkpt><trkpt lat="42.1966017" lon="13.8382917"><ele>269.0</ele><time>2026-05-02T11:41:32.051Z</time></trkpt><trkpt lat="42.1964933" lon="13.838455"><ele>278.33333333333337</ele><time>2026-05-02T11:41:33.05Z</time></trkpt><trkpt lat="42.1963967" lon="13.8386283"><ele>287.6666666666667</ele><time>2026-05-02T11:41:34.051Z</time></trkpt><trkpt lat="42.196305" lon="13.8388083"><ele>297.0</ele><time>2026-05-02T11:41:35.05Z</time></trkpt><trkpt lat="42.196235" lon="13.8389833"><ele>297.0</ele><time>2026-05-02T11:41:36.05Z</time></trkpt><trkpt lat="42.196175" lon="13.83918"><ele>297.0</ele><time>2026-05-02T11:41:37.05Z</time></trkpt><trkpt lat="42.196125" lon="13.8393817"><ele>297.0</ele><time>2026-05-02T11:41:38.051Z</time></trkpt><trkpt lat="42.1960867" lon="13.83959"><ele>291.6666666666667</ele><time>2026-05-02T11:41:39.05Z</time></trkpt><trkpt lat="42.1960483" lon="13.8398033"><ele>286.33333333333337</ele><time>2026-05-02T11:41:40.051Z</time></trkpt><trkpt lat="42.19603" lon="13.8400133"><ele>281.0</ele><time>2026-05-02T11:41:41.05Z</time></trkpt><trkpt lat="42.1960183" lon="13.840215"><ele>279.0</ele><time>2026-05-02T11:41:42.051Z</time></trkpt><trkpt lat="42.1960117" lon="13.84041"><ele>277.0</ele><time>2026-05-02T11:41:43.05Z</time></trkpt><trkpt lat="42.196005" lon="13.840615"><ele>275.0</ele><time>2026-05-02T11:41:44.05Z</time></trkpt><trkpt lat="42.19599" lon="13.8408283"><ele>272.33333333333337</ele><time>2026-05-02T11:41:45.05Z</time></trkpt><trkpt lat="42.195975" lon="13.8410233"><ele>269.6666666666667</ele><time>2026-05-02T11:41:46.05Z</time></trkpt><trkpt lat="42.1959533" lon="13.8412283"><ele>267.0</ele><time>2026-05-02T11:41:47.05Z</time></trkpt><trkpt lat="42.1959333" lon="13.8414433"><ele>267.0</ele><time>2026-05-02T11:41:48.051Z</time></trkpt><trkpt lat="42.1958917" lon="13.84164"><ele>267.0</ele><time>2026-05-02T11:41:49.05Z</time></trkpt><trkpt lat="42.1958333" lon="13.84182"><ele>267.0</ele><time>2026-05-02T11:41:50.051Z</time></trkpt><trkpt lat="42.1957767" lon="13.8420033"><ele>267.0</ele><time>2026-05-02T11:41:51.051Z</time></trkpt><trkpt lat="42.195705" lon="13.84218"><ele>283.6666666666667</ele><time>2026-05-02T11:41:52.051Z</time></trkpt><trkpt lat="42.1956167" lon="13.8423517"><ele>300.33333333333337</ele><time>2026-05-02T11:41:53.05Z</time></trkpt><trkpt lat="42.19553" lon="13.8425267"><ele>317.0</ele><time>2026-05-02T11:41:54.051Z</time></trkpt><trkpt lat="42.1954217" lon="13.8426767"><ele>321.33333333333337</ele><time>2026-05-02T11:41:55.05Z</time></trkpt><trkpt lat="42.1953233" lon="13.8428217"><ele>325.6666666666667</ele><time>2026-05-02T11:41:56.05Z</time></trkpt><trkpt lat="42.195215" lon="13.8429767"><ele>330.0</ele><time>2026-05-02T11:41:57.051Z</time></trkpt><trkpt lat="42.195105" lon="13.84312"><ele>330.0</ele><time>2026-05-02T11:41:58.051Z</time></trkpt><trkpt lat="42.1949967" lon="13.843265"><ele>330.0</ele><time>2026-05-02T11:41:59.05Z</time></trkpt><trkpt lat="42.1948883" lon="13.8434117"><ele>330.0</ele><time>2026-05-02T11:42:00.05Z</time></trkpt><trkpt lat="42.19172" lon="13.8465133"><ele>309.5</ele><time>2026-05-02T11:42:24.101Z</time></trkpt><trkpt lat="42.1915983" lon="13.8466233"><ele>289.0</ele><time>2026-05-02T11:42:25.101Z</time></trkpt><trkpt lat="42.1914883" lon="13.846725"><ele>268.5</ele><time>2026-05-02T11:42:26.101Z</time></trkpt><trkpt lat="42.1913917" lon="13.8468233"><ele>248.0</ele><time>2026-05-02T11:42:27.102Z</time></trkpt><trkpt lat="42.1912867" lon="13.84693"><ele>247.0</ele><time>2026-05-02T11:42:28.102Z</time></trkpt><trkpt lat="42.1911817" lon="13.8470417"><ele>246.0</ele><time>2026-05-02T11:42:29.101Z</time></trkpt><trkpt lat="42.19107" lon="13.847145"><ele>245.0</ele><time>2026-05-02T11:42:30.101Z</time></trkpt><trkpt lat="42.190965" lon="13.8472367"><ele>244.0</ele><time>2026-05-02T11:42:31.102Z</time></trkpt><trkpt lat="42.190865" lon="13.8472983"><ele>244.0</ele><time>2026-05-02T11:42:32.102Z</time></trkpt><trkpt lat="42.1907567" lon="13.8474367"><ele>244.0</ele><time>2026-05-02T11:42:33.101Z</time></trkpt><trkpt lat="42.190655" lon="13.84752"><ele>244.0</ele><time>2026-05-02T11:42:34.101Z</time></trkpt><trkpt lat="42.1905667" lon="13.8475683"><ele>244.0</ele><time>2026-05-02T11:42:35.102Z</time></trkpt><trkpt lat="42.190455" lon="13.847585"><ele>244.16666666666666</ele><time>2026-05-02T11:42:36.101Z</time></trkpt><trkpt lat="42.1903683" lon="13.8476033"><ele>244.33333333333331</ele><time>2026-05-02T11:42:37.102Z</time></trkpt><trkpt lat="42.1902867" lon="13.84763"><ele>244.5</ele><time>2026-05-02T11:42:38.101Z</time></trkpt><trkpt lat="42.190225" lon="13.8476867"><ele>244.66666666666669</ele><time>2026-05-02T11:42:39.102Z</time></trkpt><trkpt lat="42.1901717" lon="13.84776"><ele>244.83333333333334</ele><time>2026-05-02T11:42:40.102Z</time></trkpt><trkpt lat="42.1901467" lon="13.8478633"><ele>245.0</ele><time>2026-05-02T11:42:41.101Z</time></trkpt><trkpt lat="42.1901483" lon="13.8479733"><ele>246.6</ele><time>2026-05-02T11:42:42.101Z</time></trkpt><trkpt lat="42.1901733" lon="13.8480667"><ele>248.2</ele><time>2026-05-02T11:42:43.101Z</time></trkpt><trkpt lat="42.1902333" lon="13.84815"><ele>249.8</ele><time>2026-05-02T11:42:44.102Z</time></trkpt><trkpt lat="42.1903183" lon="13.848205"><ele>251.4</ele><time>2026-05-02T11:42:45.101Z</time></trkpt><trkpt lat="42.1904083" lon="13.84826"><ele>253.0</ele><time>2026-05-02T11:42:46.102Z</time></trkpt><trkpt lat="42.1904967" lon="13.8483333"><ele>253.0</ele><time>2026-05-02T11:42:47.101Z</time></trkpt><trkpt lat="42.19059" lon="13.84843"><ele>253.0</ele><time>2026-05-02T11:42:48.101Z</time></trkpt><trkpt lat="42.1906667" lon="13.8485383"><ele>253.0</ele><time>2026-05-02T11:42:49.102Z</time></trkpt><trkpt lat="42.19074" lon="13.8486683"><ele>253.0</ele><time>2026-05-02T11:42:50.101Z</time></trkpt><trkpt lat="42.1908133" lon="13.84881"><ele>251.5</ele><time>2026-05-02T11:42:51.101Z</time></trkpt><trkpt lat="42.1908867" lon="13.8489683"><ele>250.0</ele><time>2026-05-02T11:42:52.101Z</time></trkpt><trkpt lat="42.1909683" lon="13.8491333"><ele>248.5</ele><time>2026-05-02T11:42:53.101Z</time></trkpt><trkpt lat="42.1910583" lon="13.8493033"><ele>247.0</ele><time>2026-05-02T11:42:54.101Z</time></trkpt><trkpt lat="42.1911467" lon="13.8494817"><ele>254.66666666666666</ele><time>2026-05-02T11:42:55.101Z</time></trkpt><trkpt lat="42.1912567" lon="13.8496667"><ele>262.3333333333333</ele><time>2026-05-02T11:42:56.102Z</time></trkpt><trkpt lat="42.191365" lon="13.8498533"><ele>270.0</ele><time>2026-05-02T11:42:57.101Z</time></trkpt><trkpt lat="42.1914867" lon="13.8500517"><ele>267.3333333333333</ele><time>2026-05-02T11:42:58.102Z</time></trkpt><trkpt lat="42.1916167" lon="13.8502417"><ele>264.66666666666663</ele><time>2026-05-02T11:42:59.102Z</time></trkpt><trkpt lat="42.1917567" lon="13.8504233"><ele>262.0</ele><time>2026-05-02T11:43:00.102Z</time></trkpt><trkpt lat="42.1919067" lon="13.850595"><ele>262.0</ele><time>2026-05-02T11:43:01.101Z</time></trkpt><trkpt lat="42.1920617" lon="13.8507567"><ele>262.0</ele><time>2026-05-02T11:43:02.101Z</time></trkpt><trkpt lat="42.19221" lon="13.8508983"><ele>262.0</ele><time>2026-05-02T11:43:03.101Z</time></trkpt><trkpt lat="42.1923517" lon="13.8510283"><ele>262.3333333333333</ele><time>2026-05-02T11:43:04.101Z</time></trkpt><trkpt lat="42.19249" lon="13.851155"><ele>262.6666666666667</ele><time>2026-05-02T11:43:05.101Z</time></trkpt><trkpt lat="42.1926233" lon="13.8512817"><ele>263.0</ele><time>2026-05-02T11:43:06.101Z</time></trkpt><trkpt lat="42.19275" lon="13.851425"><ele>263.0</ele><time>2026-05-02T11:43:07.102Z</time></trkpt><trkpt lat="42.1928833" lon="13.851555"><ele>263.0</ele><time>2026-05-02T11:43:08.101Z</time></trkpt><trkpt lat="42.193015" lon="13.8516933"><ele>263.0</ele><time>2026-05-02T11:43:09.102Z</time></trkpt><trkpt lat="42.1931467" lon="13.8518067"><ele>267.0</ele><time>2026-05-02T11:43:10.101Z</time></trkpt><trkpt lat="42.19327" lon="13.8518833"><ele>271.0</ele><time>2026-05-02T11:43:11.102Z</time></trkpt><trkpt lat="42.1933733" lon="13.851925"><ele>275.0</ele><time>2026-05-02T11:43:12.102Z</time></trkpt><trkpt lat="42.1935117" lon="13.8519667"><ele>279.0</ele><time>2026-05-02T11:43:13.102Z</time></trkpt><trkpt lat="42.193655" lon="13.85199"><ele>279.0</ele><time>2026-05-02T11:43:14.101Z</time></trkpt><trkpt lat="42.1937983" lon="13.8520083"><ele>279.0</ele><time>2026-05-02T11:43:15.101Z</time></trkpt><trkpt lat="42.1939683" lon="13.85205"><ele>279.0</ele><time>2026-05-02T11:43:16.101Z</time></trkpt><trkpt lat="42.19414" lon="13.8520783"><ele>272.3333333333333</ele><time>2026-05-02T11:43:17.102Z</time></trkpt><trkpt lat="42.1943083" lon="13.8521083"><ele>265.66666666666663</ele><time>2026-05-02T11:43:18.102Z</time></trkpt><trkpt lat="42.1944633" lon="13.8521283"><ele>259.0</ele><time>2026-05-02T11:43:19.102Z</time></trkpt><trkpt lat="42.1946233" lon="13.85219"><ele>259.0</ele><time>2026-05-02T11:43:20.101Z</time></trkpt><trkpt lat="42.194745" lon="13.8522483"><ele>259.0</ele><time>2026-05-02T11:43:21.102Z</time></trkpt><trkpt lat="42.194865" lon="13.8523433"><ele>259.0</ele><time>2026-05-02T11:43:22.101Z</time></trkpt><trkpt lat="42.19497" lon="13.852465"><ele>259.0</ele><time>2026-05-02T11:43:23.102Z</time></trkpt><trkpt lat="42.1950683" lon="13.85261"><ele>260.5</ele><time>2026-05-02T11:43:24.102Z</time></trkpt><trkpt lat="42.19516" lon="13.852775"><ele>262.0</ele><time>2026-05-02T11:43:25.102Z</time></trkpt><trkpt lat="42.1952467" lon="13.852935"><ele>263.5</ele><time>2026-05-02T11:43:26.101Z</time></trkpt><trkpt lat="42.1953183" lon="13.853105"><ele>265.0</ele><time>2026-05-02T11:43:27.101Z</time></trkpt><trkpt lat="42.195395" lon="13.8532967"><ele>270.0</ele><time>2026-05-02T11:43:28.102Z</time></trkpt><trkpt lat="42.1954467" lon="13.85349"><ele>275.0</ele><time>2026-05-02T11:43:29.101Z</time></trkpt><trkpt lat="42.1955133" lon="13.8536883"><ele>280.0</ele><time>2026-05-02T11:43:30.101Z</time></trkpt><trkpt lat="42.1955917" lon="13.8538983"><ele>280.0</ele><time>2026-05-02T11:43:31.102Z</time></trkpt><trkpt lat="42.1956567" lon="13.854115"><ele>280.0</ele><time>2026-05-02T11:43:32.1Z</time></trkpt><trkpt lat="42.19572" lon="13.8543233"><ele>280.0</ele><time>2026-05-02T11:43:33.101Z</time></trkpt><trkpt lat="42.195775" lon="13.854515"><ele>272.25</ele><time>2026-05-02T11:43:34.1Z</time></trkpt><trkpt lat="42.1958233" lon="13.8546967"><ele>264.5</ele><time>2026-05-02T11:43:35.101Z</time></trkpt><trkpt lat="42.1958667" lon="13.8548883"><ele>256.75</ele><time>2026-05-02T11:43:36.1Z</time></trkpt><trkpt lat="42.1959083" lon="13.8550817"><ele>249.0</ele><time>2026-05-02T11:43:37.1Z</time></trkpt><trkpt lat="42.1959233" lon="13.8552833"><ele>249.0</ele><time>2026-05-02T11:43:38.1Z</time></trkpt><trkpt lat="42.1959267" lon="13.8554983"><ele>249.0</ele><time>2026-05-02T11:43:39.101Z</time></trkpt><trkpt lat="42.1959083" lon="13.8557133"><ele>249.0</ele><time>2026-05-02T11:43:40.1Z</time></trkpt><trkpt lat="42.1958833" lon="13.8559367"><ele>248.33333333333331</ele><time>2026-05-02T11:43:41.1Z</time></trkpt><trkpt lat="42.1958683" lon="13.85617"><ele>247.66666666666666</ele><time>2026-05-02T11:43:42.101Z</time></trkpt><trkpt lat="42.19585" lon="13.85642"><ele>247.0</ele><time>2026-05-02T11:43:43.1Z</time></trkpt><trkpt lat="42.1958433" lon="13.8566683"><ele>247.33333333333331</ele><time>2026-05-02T11:43:44.101Z</time></trkpt><trkpt lat="42.1958283" lon="13.85692"><ele>247.66666666666669</ele><time>2026-05-02T11:43:45.1Z</time></trkpt><trkpt lat="42.1958167" lon="13.85717"><ele>248.0</ele><time>2026-05-02T11:43:46.1Z</time></trkpt><trkpt lat="42.1958017" lon="13.8574317"><ele>247.0</ele><time>2026-05-02T11:43:47.1Z</time></trkpt><trkpt lat="42.1957867" lon="13.8576983"><ele>246.0</ele><time>2026-05-02T11:43:48.1Z</time></trkpt><trkpt lat="42.19577" lon="13.85795"><ele>245.0</ele><time>2026-05-02T11:43:49.101Z</time></trkpt><trkpt lat="42.1957417" lon="13.8581933"><ele>245.0</ele><time>2026-05-02T11:43:50.101Z</time></trkpt><trkpt lat="42.19572" lon="13.8584267"><ele>245.0</ele><time>2026-05-02T11:43:51.1Z</time></trkpt><trkpt lat="42.1956833" lon="13.8586617"><ele>245.0</ele><time>2026-05-02T11:43:52.101Z</time></trkpt><trkpt lat="42.1956483" lon="13.8588917"><ele>255.33333333333334</ele><time>2026-05-02T11:43:53.101Z</time></trkpt><trkpt lat="42.1956133" lon="13.8591217"><ele>265.6666666666667</ele><time>2026-05-02T11:43:54.1Z</time></trkpt><trkpt lat="42.1955867" lon="13.8593483"><ele>276.0</ele><time>2026-05-02T11:43:55.101Z</time></trkpt><trkpt lat="42.1955733" lon="13.85957"><ele>276.0</ele><time>2026-05-02T11:43:56.1Z</time></trkpt><trkpt lat="42.19556" lon="13.85978"><ele>276.0</ele><time>2026-05-02T11:43:57.1Z</time></trkpt><trkpt lat="42.1955467" lon="13.8600033"><ele>276.0</ele><time>2026-05-02T11:43:58.101Z</time></trkpt><trkpt lat="42.1955383" lon="13.860215"><ele>275.3333333333333</ele><time>2026-05-02T11:43:59.1Z</time></trkpt><trkpt lat="42.1955383" lon="13.8604383"><ele>274.66666666666663</ele><time>2026-05-02T11:44:00.1Z</time></trkpt><trkpt lat="42.195535" lon="13.8606483"><ele>274.0</ele><time>2026-05-02T11:44:01.101Z</time></trkpt><trkpt lat="42.1955283" lon="13.8608317"><ele>273.75</ele><time>2026-05-02T11:44:02.101Z</time></trkpt><trkpt lat="42.195535" lon="13.861"><ele>273.5</ele><time>2026-05-02T11:44:03.101Z</time></trkpt><trkpt lat="42.195535" lon="13.861165"><ele>273.25</ele><time>2026-05-02T11:44:04.101Z</time></trkpt><trkpt lat="42.1955433" lon="13.8613183"><ele>273.0</ele><time>2026-05-02T11:44:05.101Z</time></trkpt><trkpt lat="42.1955567" lon="13.861465"><ele>273.0</ele><time>2026-05-02T11:44:06.1Z</time></trkpt><trkpt lat="42.19557" lon="13.86159"><ele>273.0</ele><time>2026-05-02T11:44:07.1Z</time></trkpt><trkpt lat="42.1955783" lon="13.8616933"><ele>273.0</ele><time>2026-05-02T11:44:08.1Z</time></trkpt><trkpt lat="42.195575" lon="13.861795"><ele>273.0</ele><time>2026-05-02T11:44:09.101Z</time></trkpt><trkpt lat="42.1955683" lon="13.861895"><ele>273.0</ele><time>2026-05-02T11:44:10.1Z</time></trkpt><trkpt lat="42.1955717" lon="13.8619883"><ele>273.0</ele><time>2026-05-02T11:44:11.101Z</time></trkpt><trkpt lat="42.1956233" lon="13.8621333"><ele>266.6</ele><time>2026-05-02T11:44:13.101Z</time></trkpt><trkpt lat="42.1957367" lon="13.8621567"><ele>260.20000000000005</ele><time>2026-05-02T11:44:15.101Z</time></trkpt><trkpt lat="42.195805" lon="13.8621483"><ele>253.8</ele><time>2026-05-02T11:44:16.101Z</time></trkpt><trkpt lat="42.1959217" lon="13.8622217"><ele>247.4</ele><time>2026-05-02T11:44:18.1Z</time></trkpt><trkpt lat="42.1959633" lon="13.8623"><ele>241.0</ele><time>2026-05-02T11:44:19.1Z</time></trkpt><trkpt lat="42.196" lon="13.8624"><ele>241.0</ele><time>2026-05-02T11:44:20.1Z</time></trkpt><trkpt lat="42.1960167" lon="13.8625167"><ele>241.00000000000003</ele><time>2026-05-02T11:44:21.1Z</time></trkpt><trkpt lat="42.1960233" lon="13.86265"><ele>241.00000000000003</ele><time>2026-05-02T11:44:22.1Z</time></trkpt><trkpt lat="42.1960417" lon="13.8627983"><ele>241.0</ele><time>2026-05-02T11:44:23.1Z</time></trkpt><trkpt lat="42.19606" lon="13.862965"><ele>241.0</ele><time>2026-05-02T11:44:24.1Z</time></trkpt><trkpt lat="42.1960817" lon="13.8631383"><ele>242.25</ele><time>2026-05-02T11:44:25.101Z</time></trkpt><trkpt lat="42.1961083" lon="13.8633083"><ele>243.5</ele><time>2026-05-02T11:44:26.101Z</time></trkpt><trkpt lat="42.19615" lon="13.863475"><ele>244.75</ele><time>2026-05-02T11:44:27.101Z</time></trkpt><trkpt lat="42.1962017" lon="13.863615"><ele>246.0</ele><time>2026-05-02T11:44:28.101Z</time></trkpt><trkpt lat="42.19629" lon="13.8637233"><ele>244.0</ele><time>2026-05-02T11:44:29.1Z</time></trkpt><trkpt lat="42.1963867" lon="13.8637983"><ele>242.0</ele><time>2026-05-02T11:44:30.101Z</time></trkpt><trkpt lat="42.1965" lon="13.863835"><ele>240.0</ele><time>2026-05-02T11:44:31.1Z</time></trkpt><trkpt lat="42.1966183" lon="13.8638283"><ele>238.0</ele><time>2026-05-02T11:44:32.1Z</time></trkpt><trkpt lat="42.1967483" lon="13.8637917"><ele>238.0</ele><time>2026-05-02T11:44:33.1Z</time></trkpt><trkpt lat="42.1968767" lon="13.863725"><ele>238.0</ele><time>2026-05-02T11:44:34.1Z</time></trkpt><trkpt lat="42.1970017" lon="13.8636533"><ele>238.0</ele><time>2026-05-02T11:44:35.1Z</time></trkpt><trkpt lat="42.19711" lon="13.8635717"><ele>238.0</ele><time>2026-05-02T11:44:36.101Z</time></trkpt><trkpt lat="42.1972" lon="13.863485"><ele>238.2</ele><time>2026-05-02T11:44:37.1Z</time></trkpt><trkpt lat="42.1972717" lon="13.863385"><ele>238.4</ele><time>2026-05-02T11:44:38.1Z</time></trkpt><trkpt lat="42.1973167" lon="13.8632683"><ele>238.59999999999997</ele><time>2026-05-02T11:44:39.1Z</time></trkpt><trkpt lat="42.197345" lon="13.863155"><ele>238.79999999999998</ele><time>2026-05-02T11:44:40.101Z</time></trkpt><trkpt lat="42.197355" lon="13.8630267"><ele>239.0</ele><time>2026-05-02T11:44:41.101Z</time></trkpt><trkpt lat="42.1973417" lon="13.8629"><ele>238.83333333333334</ele><time>2026-05-02T11:44:42.101Z</time></trkpt><trkpt lat="42.19732" lon="13.86278"><ele>238.66666666666669</ele><time>2026-05-02T11:44:43.1Z</time></trkpt><trkpt lat="42.197285" lon="13.8626767"><ele>238.5</ele><time>2026-05-02T11:44:44.1Z</time></trkpt><trkpt lat="42.1972433" lon="13.862585"><ele>238.33333333333331</ele><time>2026-05-02T11:44:45.101Z</time></trkpt><trkpt lat="42.197205" lon="13.8624917"><ele>238.16666666666666</ele><time>2026-05-02T11:44:46.1Z</time></trkpt><trkpt lat="42.1971683" lon="13.8624067"><ele>238.0</ele><time>2026-05-02T11:44:47.1Z</time></trkpt><trkpt lat="42.1971283" lon="13.8623317"><ele>237.99999999999997</ele><time>2026-05-02T11:44:48.101Z</time></trkpt><trkpt lat="42.19706" lon="13.862205"><ele>238.0</ele><time>2026-05-02T11:44:50.101Z</time></trkpt><trkpt lat="42.1970083" lon="13.8621367"><ele>238.0</ele><time>2026-05-02T11:44:52.101Z</time></trkpt><trkpt lat="42.19697" lon="13.86206"><ele>238.0</ele><time>2026-05-02T11:45:07.101Z</time></trkpt><trkpt lat="42.196915" lon="13.8619417"><ele>237.99999999999997</ele><time>2026-05-02T11:45:09.101Z</time></trkpt><trkpt lat="42.1968833" lon="13.861855"><ele>238.0</ele><time>2026-05-02T11:45:10.1Z</time></trkpt><trkpt lat="42.1968433" lon="13.8617733"><ele>238.49999999999997</ele><time>2026-05-02T11:45:11.1Z</time></trkpt><trkpt lat="42.1967983" lon="13.8616867"><ele>239.0</ele><time>2026-05-02T11:45:12.1Z</time></trkpt><trkpt lat="42.1967517" lon="13.8615933"><ele>239.5</ele><time>2026-05-02T11:45:13.1Z</time></trkpt><trkpt lat="42.1967017" lon="13.861495"><ele>240.0</ele><time>2026-05-02T11:45:14.1Z</time></trkpt><trkpt lat="42.1966467" lon="13.8613867"><ele>240.49999999999997</ele><time>2026-05-02T11:45:15.1Z</time></trkpt><trkpt lat="42.196595" lon="13.8612733"><ele>241.0</ele><time>2026-05-02T11:45:16.1Z</time></trkpt><trkpt lat="42.1965483" lon="13.8611483"><ele>241.0</ele><time>2026-05-02T11:45:17.1Z</time></trkpt><trkpt lat="42.1965067" lon="13.8610283"><ele>241.00000000000003</ele><time>2026-05-02T11:45:18.1Z</time></trkpt><trkpt lat="42.19648" lon="13.86091"><ele>241.00000000000003</ele><time>2026-05-02T11:45:19.1Z</time></trkpt><trkpt lat="42.1964683" lon="13.8607817"><ele>241.0</ele><time>2026-05-02T11:45:20.1Z</time></trkpt><trkpt lat="42.1964767" lon="13.8606517"><ele>241.0</ele><time>2026-05-02T11:45:21.101Z</time></trkpt><trkpt lat="42.196505" lon="13.8605333"><ele>241.0</ele><time>2026-05-02T11:45:22.101Z</time></trkpt><trkpt lat="42.1965533" lon="13.860415"><ele>241.00000000000003</ele><time>2026-05-02T11:45:23.101Z</time></trkpt><trkpt lat="42.19662" lon="13.8603083"><ele>241.00000000000003</ele><time>2026-05-02T11:45:24.1Z</time></trkpt><trkpt lat="42.1967017" lon="13.8602133"><ele>241.0</ele><time>2026-05-02T11:45:25.1Z</time></trkpt><trkpt lat="42.19681" lon="13.860145"><ele>241.0</ele><time>2026-05-02T11:45:26.1Z</time></trkpt><trkpt lat="42.196935" lon="13.86011"><ele>241.0</ele><time>2026-05-02T11:45:27.1Z</time></trkpt><trkpt lat="42.197065" lon="13.8600967"><ele>241.0</ele><time>2026-05-02T11:45:28.101Z</time></trkpt><trkpt lat="42.1972083" lon="13.8601"><ele>241.0</ele><time>2026-05-02T11:45:29.101Z</time></trkpt><trkpt lat="42.1973433" lon="13.860105"><ele>241.0</ele><time>2026-05-02T11:45:30.101Z</time></trkpt><trkpt lat="42.1974933" lon="13.8601283"><ele>241.0</ele><time>2026-05-02T11:45:31.1Z</time></trkpt><trkpt lat="42.1976383" lon="13.86015"><ele>241.0</ele><time>2026-05-02T11:45:32.1Z</time></trkpt><trkpt lat="42.1977917" lon="13.860185"><ele>241.0</ele><time>2026-05-02T11:45:33.1Z</time></trkpt><trkpt lat="42.19792" lon="13.8602267"><ele>241.0</ele><time>2026-05-02T11:45:34.1Z</time></trkpt><trkpt lat="42.1980367" lon="13.8602767"><ele>241.0</ele><time>2026-05-02T11:45:35.1Z</time></trkpt><trkpt lat="42.1981483" lon="13.8603283"><ele>241.0</ele><time>2026-05-02T11:45:36.101Z</time></trkpt><trkpt lat="42.1982583" lon="13.8603883"><ele>241.0</ele><time>2026-05-02T11:45:37.1Z</time></trkpt><trkpt lat="42.19837" lon="13.86044"><ele>241.0</ele><time>2026-05-02T11:45:38.101Z</time></trkpt><trkpt lat="42.19858" lon="13.860585"><ele>241.0</ele><time>2026-05-02T11:45:40.101Z</time></trkpt><trkpt lat="42.198315" lon="13.8606917"><ele>241.0</ele><time>2026-05-02T11:45:41.101Z</time></trkpt><trkpt lat="42.19799" lon="13.8608783"><ele>241.0</ele><time>2026-05-02T11:45:42.1Z</time></trkpt><trkpt lat="42.197765" lon="13.860955"><ele>241.0</ele><time>2026-05-02T11:45:43.1Z</time></trkpt><trkpt lat="42.1976483" lon="13.8609183"><ele>241.0</ele><time>2026-05-02T11:45:44.101Z</time></trkpt><trkpt lat="42.1975633" lon="13.8608417"><ele>241.0</ele><time>2026-05-02T11:45:45.1Z</time></trkpt><trkpt lat="42.1975033" lon="13.86073"><ele>241.00000000000003</ele><time>2026-05-02T11:45:46.1Z</time></trkpt><trkpt lat="42.19746" lon="13.8606017"><ele>241.00000000000003</ele><time>2026-05-02T11:45:47.1Z</time></trkpt><trkpt lat="42.1974367" lon="13.8604467"><ele>241.0</ele><time>2026-05-02T11:45:48.101Z</time></trkpt><trkpt lat="42.197425" lon="13.8602817"><ele>241.0</ele><time>2026-05-02T11:45:49.1Z</time></trkpt><trkpt lat="42.1974167" lon="13.8601017"><ele>241.0</ele><time>2026-05-02T11:45:50.1Z</time></trkpt><trkpt lat="42.1974133" lon="13.8598983"><ele>241.0</ele><time>2026-05-02T11:45:51.1Z</time></trkpt><trkpt lat="42.1974167" lon="13.8596917"><ele>241.0</ele><time>2026-05-02T11:45:52.101Z</time></trkpt><trkpt lat="42.19742" lon="13.8594817"><ele>242.0</ele><time>2026-05-02T11:45:53.101Z</time></trkpt><trkpt lat="42.1974217" lon="13.8592633"><ele>243.0</ele><time>2026-05-02T11:45:54.1Z</time></trkpt><trkpt lat="42.1974283" lon="13.8590367"><ele>244.0</ele><time>2026-05-02T11:45:55.101Z</time></trkpt><trkpt lat="42.1974283" lon="13.8588"><ele>244.0</ele><time>2026-05-02T11:45:56.1Z</time></trkpt><trkpt lat="42.1974317" lon="13.8585567"><ele>244.0</ele><time>2026-05-02T11:45:57.1Z</time></trkpt><trkpt lat="42.1974367" lon="13.858305"><ele>244.0</ele><time>2026-05-02T11:45:58.1Z</time></trkpt><trkpt lat="42.1974433" lon="13.8580433"><ele>243.66666666666666</ele><time>2026-05-02T11:45:59.1Z</time></trkpt><trkpt lat="42.1974583" lon="13.857775"><ele>243.33333333333331</ele><time>2026-05-02T11:46:00.1Z</time></trkpt><trkpt lat="42.1974717" lon="13.8574967"><ele>243.0</ele><time>2026-05-02T11:46:01.1Z</time></trkpt><trkpt lat="42.197485" lon="13.85721"><ele>244.33333333333331</ele><time>2026-05-02T11:46:02.1Z</time></trkpt><trkpt lat="42.19749" lon="13.8569183"><ele>245.66666666666666</ele><time>2026-05-02T11:46:03.101Z</time></trkpt><trkpt lat="42.1974933" lon="13.8566217"><ele>247.0</ele><time>2026-05-02T11:46:04.1Z</time></trkpt><trkpt lat="42.1974967" lon="13.85632"><ele>248.5</ele><time>2026-05-02T11:46:05.1Z</time></trkpt><trkpt lat="42.1975" lon="13.85601"><ele>250.0</ele><time>2026-05-02T11:46:06.1Z</time></trkpt><trkpt lat="42.1974917" lon="13.85569"><ele>250.0</ele><time>2026-05-02T11:46:07.1Z</time></trkpt><trkpt lat="42.197475" lon="13.8553767"><ele>250.0</ele><time>2026-05-02T11:46:08.101Z</time></trkpt><trkpt lat="42.1974433" lon="13.85506"><ele>248.0</ele><time>2026-05-02T11:46:09.1Z</time></trkpt><trkpt lat="42.1973846" lon="13.8544192"><ele>249.0</ele><time>2026-05-02T11:46:11.172Z</time></trkpt><trkpt lat="42.1973378" lon="13.8540051"><ele>250.0</ele><time>2026-05-02T11:46:12.582Z</time></trkpt><trkpt lat="42.1972761" lon="13.8537578"><ele>246.0</ele><time>2026-05-02T11:46:13.596Z</time></trkpt><trkpt lat="42.197111" lon="13.8534072"><ele>242.0</ele><time>2026-05-02T11:46:14.596Z</time></trkpt><trkpt lat="42.1969741" lon="13.8530796"><ele>243.0</ele><time>2026-05-02T11:46:15.597Z</time></trkpt><trkpt lat="42.1967617" lon="13.8526065"><ele>244.0</ele><time>2026-05-02T11:46:17.097Z</time></trkpt><trkpt lat="42.1966004" lon="13.852301"><ele>245.0</ele><time>2026-05-02T11:46:18.097Z</time></trkpt><trkpt lat="42.1964218" lon="13.8519973"><ele>246.0</ele><time>2026-05-02T11:46:19.096Z</time></trkpt><trkpt lat="42.1962355" lon="13.8517118"><ele>246.0</ele><time>2026-05-02T11:46:20.097Z</time></trkpt><trkpt lat="42.1960423" lon="13.8514473"><ele>246.0</ele><time>2026-05-02T11:46:21.097Z</time></trkpt><trkpt lat="42.1958301" lon="13.8511926"><ele>245.0</ele><time>2026-05-02T11:46:22.096Z</time></trkpt><trkpt lat="42.1956133" lon="13.8509595"><ele>244.0</ele><time>2026-05-02T11:46:23.096Z</time></trkpt><trkpt lat="42.195381" lon="13.8507468"><ele>244.0</ele><time>2026-05-02T11:46:24.096Z</time></trkpt><trkpt lat="42.1951356" lon="13.8505481"><ele>244.0</ele><time>2026-05-02T11:46:25.096Z</time></trkpt><trkpt lat="42.1948819" lon="13.8503577"><ele>244.0</ele><time>2026-05-02T11:46:26.097Z</time></trkpt><trkpt lat="42.1946275" lon="13.8501753"><ele>244.0</ele><time>2026-05-02T11:46:27.096Z</time></trkpt><trkpt lat="42.1943623" lon="13.8499984"><ele>244.5</ele><time>2026-05-02T11:46:28.097Z</time></trkpt><trkpt lat="42.1940934" lon="13.8498263"><ele>245.0</ele><time>2026-05-02T11:46:29.096Z</time></trkpt><trkpt lat="42.1938274" lon="13.8496484"><ele>245.0</ele><time>2026-05-02T11:46:30.096Z</time></trkpt><trkpt lat="42.1935606" lon="13.8494612"><ele>245.0</ele><time>2026-05-02T11:46:31.096Z</time></trkpt><trkpt lat="42.1933017" lon="13.849265"><ele>245.0</ele><time>2026-05-02T11:46:32.096Z</time></trkpt><trkpt lat="42.1930383" lon="13.8490517"><ele>245.0</ele><time>2026-05-02T11:46:33.096Z</time></trkpt><trkpt lat="42.19278" lon="13.8488317"><ele>245.0</ele><time>2026-05-02T11:46:34.097Z</time></trkpt><trkpt lat="42.1925217" lon="13.8485967"><ele>245.0</ele><time>2026-05-02T11:46:35.096Z</time></trkpt><trkpt lat="42.19227" lon="13.848345"><ele>245.0</ele><time>2026-05-02T11:46:36.097Z</time></trkpt><trkpt lat="42.19202" lon="13.848085"><ele>245.0</ele><time>2026-05-02T11:46:37.097Z</time></trkpt><trkpt lat="42.1917833" lon="13.847815"><ele>244.5</ele><time>2026-05-02T11:46:38.096Z</time></trkpt><trkpt lat="42.191535" lon="13.847525"><ele>244.0</ele><time>2026-05-02T11:46:39.097Z</time></trkpt><trkpt lat="42.19129" lon="13.8472267"><ele>244.0</ele><time>2026-05-02T11:46:40.097Z</time></trkpt><trkpt lat="42.1910517" lon="13.8469283"><ele>244.0</ele><time>2026-05-02T11:46:41.096Z</time></trkpt><trkpt lat="42.190815" lon="13.8466183"><ele>246.5</ele><time>2026-05-02T11:46:42.096Z</time></trkpt><trkpt lat="42.1905767" lon="13.8463067"><ele>249.0</ele><time>2026-05-02T11:46:43.097Z</time></trkpt><trkpt lat="42.190335" lon="13.8459933"><ele>249.0</ele><time>2026-05-02T11:46:44.097Z</time></trkpt><trkpt lat="42.19009" lon="13.8456717"><ele>249.0</ele><time>2026-05-02T11:46:45.096Z</time></trkpt><trkpt lat="42.1898417" lon="13.845355"><ele>249.5</ele><time>2026-05-02T11:46:46.096Z</time></trkpt><trkpt lat="42.1895883" lon="13.845045"><ele>250.0</ele><time>2026-05-02T11:46:47.096Z</time></trkpt><trkpt lat="42.1893217" lon="13.844735"><ele>250.0</ele><time>2026-05-02T11:46:48.096Z</time></trkpt><trkpt lat="42.1890483" lon="13.8444333"><ele>250.0</ele><time>2026-05-02T11:46:49.096Z</time></trkpt><trkpt lat="42.1887733" lon="13.8441383"><ele>250.0</ele><time>2026-05-02T11:46:50.096Z</time></trkpt><trkpt lat="42.1884933" lon="13.84385"><ele>250.0</ele><time>2026-05-02T11:46:51.097Z</time></trkpt><trkpt lat="42.1882083" lon="13.84358"><ele>246.5</ele><time>2026-05-02T11:46:52.096Z</time></trkpt><trkpt lat="42.18792" lon="13.84332"><ele>243.0</ele><time>2026-05-02T11:46:53.096Z</time></trkpt><trkpt lat="42.1876267" lon="13.84307"><ele>244.0</ele><time>2026-05-02T11:46:54.097Z</time></trkpt><trkpt lat="42.1873333" lon="13.8428417"><ele>245.0</ele><time>2026-05-02T11:46:55.097Z</time></trkpt><trkpt lat="42.1870367" lon="13.8426267"><ele>245.0</ele><time>2026-05-02T11:46:56.097Z</time></trkpt><trkpt lat="42.1867417" lon="13.8424183"><ele>245.0</ele><time>2026-05-02T11:46:57.096Z</time></trkpt><trkpt lat="42.1864433" lon="13.8422267"><ele>247.0</ele><time>2026-05-02T11:46:58.097Z</time></trkpt><trkpt lat="42.1861383" lon="13.8420367"><ele>249.0</ele><time>2026-05-02T11:46:59.096Z</time></trkpt><trkpt lat="42.18583" lon="13.841855"><ele>248.5</ele><time>2026-05-02T11:47:00.097Z</time></trkpt><trkpt lat="42.1855217" lon="13.8416783"><ele>248.0</ele><time>2026-05-02T11:47:01.097Z</time></trkpt><trkpt lat="42.1852167" lon="13.84151"><ele>248.0</ele><time>2026-05-02T11:47:02.096Z</time></trkpt><trkpt lat="42.18491" lon="13.84135"><ele>248.0</ele><time>2026-05-02T11:47:03.096Z</time></trkpt><trkpt lat="42.1846083" lon="13.841195"><ele>248.0</ele><time>2026-05-02T11:47:04.096Z</time></trkpt><trkpt lat="42.18432" lon="13.8410433"><ele>248.0</ele><time>2026-05-02T11:47:05.096Z</time></trkpt><trkpt lat="42.1840333" lon="13.8408883"><ele>251.0</ele><time>2026-05-02T11:47:06.096Z</time></trkpt><trkpt lat="42.1837567" lon="13.84074"><ele>254.0</ele><time>2026-05-02T11:47:07.097Z</time></trkpt><trkpt lat="42.18348" lon="13.8405717"><ele>254.0</ele><time>2026-05-02T11:47:08.097Z</time></trkpt><trkpt lat="42.1832083" lon="13.840405"><ele>254.0</ele><time>2026-05-02T11:47:09.097Z</time></trkpt><trkpt lat="42.182935" lon="13.8402283"><ele>250.5</ele><time>2026-05-02T11:47:10.097Z</time></trkpt><trkpt lat="42.1826717" lon="13.84003"><ele>247.0</ele><time>2026-05-02T11:47:11.097Z</time></trkpt><trkpt lat="42.1824283" lon="13.83982"><ele>252.5</ele><time>2026-05-02T11:47:12.096Z</time></trkpt><trkpt lat="42.182195" lon="13.83959"><ele>258.0</ele><time>2026-05-02T11:47:13.097Z</time></trkpt><trkpt lat="42.18198" lon="13.8393467"><ele>254.5</ele><time>2026-05-02T11:47:14.097Z</time></trkpt><trkpt lat="42.1817817" lon="13.8391017"><ele>251.0</ele><time>2026-05-02T11:47:15.097Z</time></trkpt><trkpt lat="42.1815917" lon="13.83884"><ele>251.5</ele><time>2026-05-02T11:47:16.096Z</time></trkpt><trkpt lat="42.181415" lon="13.8385667"><ele>252.0</ele><time>2026-05-02T11:47:17.096Z</time></trkpt><trkpt lat="42.18125" lon="13.8382983"><ele>250.0</ele><time>2026-05-02T11:47:18.096Z</time></trkpt><trkpt lat="42.1810967" lon="13.8380183"><ele>248.0</ele><time>2026-05-02T11:47:19.097Z</time></trkpt><trkpt lat="42.1809567" lon="13.8377217"><ele>248.0</ele><time>2026-05-02T11:47:20.097Z</time></trkpt><trkpt lat="42.18083" lon="13.8374117"><ele>248.0</ele><time>2026-05-02T11:47:21.097Z</time></trkpt><trkpt lat="42.1807133" lon="13.8371017"><ele>250.5</ele><time>2026-05-02T11:47:22.096Z</time></trkpt><trkpt lat="42.1806017" lon="13.8367883"><ele>253.0</ele><time>2026-05-02T11:47:23.097Z</time></trkpt><trkpt lat="42.180505" lon="13.836485"><ele>253.0</ele><time>2026-05-02T11:47:24.097Z</time></trkpt><trkpt lat="42.18041" lon="13.8361717"><ele>253.0</ele><time>2026-05-02T11:47:25.097Z</time></trkpt><trkpt lat="42.1803133" lon="13.8358617"><ele>270.5</ele><time>2026-05-02T11:47:26.097Z</time></trkpt><trkpt lat="42.180215" lon="13.8355417"><ele>288.0</ele><time>2026-05-02T11:47:27.096Z</time></trkpt><trkpt lat="42.1801133" lon="13.8352183"><ele>307.0</ele><time>2026-05-02T11:47:28.096Z</time></trkpt><trkpt lat="42.1800217" lon="13.8349"><ele>326.0</ele><time>2026-05-02T11:47:29.096Z</time></trkpt><trkpt lat="42.17994" lon="13.8345883"><ele>331.5</ele><time>2026-05-02T11:47:30.096Z</time></trkpt><trkpt lat="42.1798483" lon="13.8342717"><ele>337.0</ele><time>2026-05-02T11:47:31.097Z</time></trkpt><trkpt lat="42.1797567" lon="13.833955"><ele>337.0</ele><time>2026-05-02T11:47:32.096Z</time></trkpt><trkpt lat="42.179665" lon="13.8336417"><ele>337.0</ele><time>2026-05-02T11:47:33.097Z</time></trkpt><trkpt lat="42.179575" lon="13.83333"><ele>349.5</ele><time>2026-05-02T11:47:34.097Z</time></trkpt><trkpt lat="42.1794833" lon="13.833015"><ele>362.0</ele><time>2026-05-02T11:47:35.097Z</time></trkpt><trkpt lat="42.1773417" lon="13.8255833"><ele>312.5</ele><time>2026-05-02T11:47:57.1Z</time></trkpt><trkpt lat="42.1771983" lon="13.82535"><ele>263.0</ele><time>2026-05-02T11:47:58.099Z</time></trkpt><trkpt lat="42.177015" lon="13.825115"><ele>263.0</ele><time>2026-05-02T11:47:59.099Z</time></trkpt><trkpt lat="42.17681" lon="13.8248883"><ele>263.0</ele><time>2026-05-02T11:48:00.099Z</time></trkpt><trkpt lat="42.1765967" lon="13.8246717"><ele>261.5</ele><time>2026-05-02T11:48:01.1Z</time></trkpt><trkpt lat="42.1763783" lon="13.824475"><ele>260.0</ele><time>2026-05-02T11:48:02.1Z</time></trkpt><trkpt lat="42.176155" lon="13.82429"><ele>260.0</ele><time>2026-05-02T11:48:03.1Z</time></trkpt><trkpt lat="42.1759217" lon="13.824125"><ele>260.0</ele><time>2026-05-02T11:48:04.1Z</time></trkpt><trkpt lat="42.1756783" lon="13.8239817"><ele>257.5</ele><time>2026-05-02T11:48:05.1Z</time></trkpt><trkpt lat="42.1754383" lon="13.8238633"><ele>255.0</ele><time>2026-05-02T11:48:06.099Z</time></trkpt><trkpt lat="42.1751883" lon="13.8237533"><ele>255.0</ele><time>2026-05-02T11:48:07.099Z</time></trkpt><trkpt lat="42.174925" lon="13.823655"><ele>255.0</ele><time>2026-05-02T11:48:08.099Z</time></trkpt><trkpt lat="42.174655" lon="13.8235867"><ele>255.5</ele><time>2026-05-02T11:48:09.099Z</time></trkpt><trkpt lat="42.1743767" lon="13.8235433"><ele>256.0</ele><time>2026-05-02T11:48:10.1Z</time></trkpt><trkpt lat="42.1740933" lon="13.8235167"><ele>255.5</ele><time>2026-05-02T11:48:11.1Z</time></trkpt><trkpt lat="42.1738" lon="13.8235067"><ele>255.0</ele><time>2026-05-02T11:48:12.099Z</time></trkpt><trkpt lat="42.1735017" lon="13.8235"><ele>255.0</ele><time>2026-05-02T11:48:13.099Z</time></trkpt><trkpt lat="42.1731917" lon="13.823505"><ele>255.0</ele><time>2026-05-02T11:48:14.099Z</time></trkpt><trkpt lat="42.1728867" lon="13.8235167"><ele>254.5</ele><time>2026-05-02T11:48:15.099Z</time></trkpt><trkpt lat="42.1725817" lon="13.8235333"><ele>254.0</ele><time>2026-05-02T11:48:16.099Z</time></trkpt><trkpt lat="42.1722717" lon="13.8235533"><ele>254.0</ele><time>2026-05-02T11:48:17.1Z</time></trkpt><trkpt lat="42.1719633" lon="13.8235667"><ele>254.0</ele><time>2026-05-02T11:48:18.099Z</time></trkpt><trkpt lat="42.171645" lon="13.8235717"><ele>252.5</ele><time>2026-05-02T11:48:19.1Z</time></trkpt><trkpt lat="42.1713233" lon="13.8235767"><ele>251.0</ele><time>2026-05-02T11:48:20.1Z</time></trkpt><trkpt lat="42.1710033" lon="13.8235917"><ele>250.0</ele><time>2026-05-02T11:48:21.1Z</time></trkpt><trkpt lat="42.1706717" lon="13.8236033"><ele>249.0</ele><time>2026-05-02T11:48:22.099Z</time></trkpt><trkpt lat="42.1703433" lon="13.8236217"><ele>249.0</ele><time>2026-05-02T11:48:23.099Z</time></trkpt><trkpt lat="42.170005" lon="13.8236367"><ele>249.0</ele><time>2026-05-02T11:48:24.099Z</time></trkpt><trkpt lat="42.1696733" lon="13.8236617"><ele>247.5</ele><time>2026-05-02T11:48:25.099Z</time></trkpt><trkpt lat="42.16933" lon="13.8236817"><ele>246.0</ele><time>2026-05-02T11:48:26.1Z</time></trkpt><trkpt lat="42.168985" lon="13.8236967"><ele>245.5</ele><time>2026-05-02T11:48:27.099Z</time></trkpt><trkpt lat="42.16864" lon="13.82372"><ele>245.0</ele><time>2026-05-02T11:48:28.1Z</time></trkpt><trkpt lat="42.1682867" lon="13.82374"><ele>246.0</ele><time>2026-05-02T11:48:29.1Z</time></trkpt><trkpt lat="42.167935" lon="13.8237617"><ele>247.0</ele><time>2026-05-02T11:48:30.099Z</time></trkpt><trkpt lat="42.1675817" lon="13.82378"><ele>247.0</ele><time>2026-05-02T11:48:31.099Z</time></trkpt><trkpt lat="42.1672217" lon="13.8237967"><ele>247.0</ele><time>2026-05-02T11:48:32.1Z</time></trkpt><trkpt lat="42.1668717" lon="13.823825"><ele>246.5</ele><time>2026-05-02T11:48:33.1Z</time></trkpt><trkpt lat="42.1665167" lon="13.8238433"><ele>246.0</ele><time>2026-05-02T11:48:34.1Z</time></trkpt><trkpt lat="42.16616" lon="13.823865"><ele>246.0</ele><time>2026-05-02T11:48:35.099Z</time></trkpt><trkpt lat="42.1657967" lon="13.823885"><ele>246.0</ele><time>2026-05-02T11:48:36.1Z</time></trkpt><trkpt lat="42.165435" lon="13.8239117"><ele>246.5</ele><time>2026-05-02T11:48:37.1Z</time></trkpt><trkpt lat="42.1650733" lon="13.8239333"><ele>247.0</ele><time>2026-05-02T11:48:38.1Z</time></trkpt><trkpt lat="42.1647067" lon="13.8239583"><ele>247.5</ele><time>2026-05-02T11:48:39.099Z</time></trkpt><trkpt lat="42.1643433" lon="13.8239883"><ele>248.0</ele><time>2026-05-02T11:48:40.099Z</time></trkpt><trkpt lat="42.1639783" lon="13.8240083"><ele>248.5</ele><time>2026-05-02T11:48:41.099Z</time></trkpt><trkpt lat="42.1636117" lon="13.8240283"><ele>249.0</ele><time>2026-05-02T11:48:42.099Z</time></trkpt><trkpt lat="42.1632517" lon="13.8240533"><ele>249.5</ele><time>2026-05-02T11:48:43.099Z</time></trkpt><trkpt lat="42.16288" lon="13.8240767"><ele>250.0</ele><time>2026-05-02T11:48:44.1Z</time></trkpt><trkpt lat="42.1625167" lon="13.8240967"><ele>250.5</ele><time>2026-05-02T11:48:45.1Z</time></trkpt><trkpt lat="42.162145" lon="13.8241067"><ele>251.0</ele><time>2026-05-02T11:48:46.099Z</time></trkpt><trkpt lat="42.16178" lon="13.824125"><ele>251.5</ele><time>2026-05-02T11:48:47.1Z</time></trkpt><trkpt lat="42.1614067" lon="13.8241533"><ele>252.0</ele><time>2026-05-02T11:48:48.1Z</time></trkpt><trkpt lat="42.1610367" lon="13.82418"><ele>253.5</ele><time>2026-05-02T11:48:49.1Z</time></trkpt><trkpt lat="42.1606683" lon="13.824205"><ele>255.0</ele><time>2026-05-02T11:48:50.1Z</time></trkpt><trkpt lat="42.1603" lon="13.82423"><ele>255.0</ele><time>2026-05-02T11:48:51.1Z</time></trkpt><trkpt lat="42.1599333" lon="13.8242567"><ele>255.0</ele><time>2026-05-02T11:48:52.1Z</time></trkpt><trkpt lat="42.15956" lon="13.8242933"><ele>253.0</ele><time>2026-05-02T11:48:53.099Z</time></trkpt><trkpt lat="42.1591933" lon="13.8243333"><ele>251.0</ele><time>2026-05-02T11:48:54.099Z</time></trkpt><trkpt lat="42.1588167" lon="13.8243633"><ele>251.0</ele><time>2026-05-02T11:48:55.099Z</time></trkpt><trkpt lat="42.15844" lon="13.8243833"><ele>251.0</ele><time>2026-05-02T11:48:56.1Z</time></trkpt><trkpt lat="42.1580717" lon="13.8244233"><ele>252.0</ele><time>2026-05-02T11:48:57.099Z</time></trkpt><trkpt lat="42.1577" lon="13.824465"><ele>253.0</ele><time>2026-05-02T11:48:58.099Z</time></trkpt><trkpt lat="42.1573283" lon="13.8245067"><ele>253.0</ele><time>2026-05-02T11:48:59.1Z</time></trkpt><trkpt lat="42.1569617" lon="13.8245583"><ele>253.0</ele><time>2026-05-02T11:49:00.099Z</time></trkpt><trkpt lat="42.1565883" lon="13.8246133"><ele>252.5</ele><time>2026-05-02T11:49:01.099Z</time></trkpt><trkpt lat="42.1562183" lon="13.824665"><ele>252.0</ele><time>2026-05-02T11:49:02.099Z</time></trkpt><trkpt lat="42.1558467" lon="13.824715"><ele>254.5</ele><time>2026-05-02T11:49:03.099Z</time></trkpt><trkpt lat="42.155475" lon="13.824775"><ele>257.0</ele><time>2026-05-02T11:49:04.1Z</time></trkpt><trkpt lat="42.1551083" lon="13.824845"><ele>256.5</ele><time>2026-05-02T11:49:05.099Z</time></trkpt><trkpt lat="42.15475" lon="13.8249067"><ele>256.0</ele><time>2026-05-02T11:49:06.1Z</time></trkpt><trkpt lat="42.1544" lon="13.8249717"><ele>256.0</ele><time>2026-05-02T11:49:07.099Z</time></trkpt><trkpt lat="42.1540567" lon="13.8250467"><ele>256.0</ele><time>2026-05-02T11:49:08.099Z</time></trkpt><trkpt lat="42.153715" lon="13.8251317"><ele>253.5</ele><time>2026-05-02T11:49:09.1Z</time></trkpt><trkpt lat="42.1533717" lon="13.8252183"><ele>251.0</ele><time>2026-05-02T11:49:10.099Z</time></trkpt><trkpt lat="42.1530283" lon="13.825295"><ele>251.0</ele><time>2026-05-02T11:49:11.099Z</time></trkpt><trkpt lat="42.1526917" lon="13.8253817"><ele>251.0</ele><time>2026-05-02T11:49:12.1Z</time></trkpt><trkpt lat="42.15235" lon="13.825465"><ele>252.5</ele><time>2026-05-02T11:49:13.099Z</time></trkpt><trkpt lat="42.152015" lon="13.825555"><ele>254.0</ele><time>2026-05-02T11:49:14.099Z</time></trkpt><trkpt lat="42.1516833" lon="13.8256417"><ele>253.5</ele><time>2026-05-02T11:49:15.099Z</time></trkpt><trkpt lat="42.15136" lon="13.8257333"><ele>253.0</ele><time>2026-05-02T11:49:16.1Z</time></trkpt><trkpt lat="42.15104" lon="13.82582"><ele>253.0</ele><time>2026-05-02T11:49:17.099Z</time></trkpt><trkpt lat="42.1507317" lon="13.8259167"><ele>253.0</ele><time>2026-05-02T11:49:18.1Z</time></trkpt><trkpt lat="42.1504283" lon="13.8260117"><ele>252.5</ele><time>2026-05-02T11:49:19.1Z</time></trkpt><trkpt lat="42.1501267" lon="13.8261017"><ele>252.0</ele><time>2026-05-02T11:49:20.1Z</time></trkpt><trkpt lat="42.1498283" lon="13.8261967"><ele>252.0</ele><time>2026-05-02T11:49:21.1Z</time></trkpt><trkpt lat="42.1495317" lon="13.8262917"><ele>252.0</ele><time>2026-05-02T11:49:22.099Z</time></trkpt><trkpt lat="42.149235" lon="13.8263933"><ele>251.0</ele><time>2026-05-02T11:49:23.1Z</time></trkpt><trkpt lat="42.1489433" lon="13.8265067"><ele>250.0</ele><time>2026-05-02T11:49:24.1Z</time></trkpt><trkpt lat="42.1486467" lon="13.8266233"><ele>250.0</ele><time>2026-05-02T11:49:25.099Z</time></trkpt><trkpt lat="42.14835" lon="13.8267517"><ele>250.0</ele><time>2026-05-02T11:49:26.099Z</time></trkpt><trkpt lat="42.14805" lon="13.826895"><ele>251.5</ele><time>2026-05-02T11:49:27.099Z</time></trkpt><trkpt lat="42.147755" lon="13.8270467"><ele>253.0</ele><time>2026-05-02T11:49:28.1Z</time></trkpt><trkpt lat="42.14746" lon="13.82721"><ele>253.0</ele><time>2026-05-02T11:49:29.1Z</time></trkpt><trkpt lat="42.14717" lon="13.8273817"><ele>253.0</ele><time>2026-05-02T11:49:30.099Z</time></trkpt><trkpt lat="42.14688" lon="13.8275683"><ele>252.5</ele><time>2026-05-02T11:49:31.1Z</time></trkpt><trkpt lat="42.146595" lon="13.8277683"><ele>252.0</ele><time>2026-05-02T11:49:32.099Z</time></trkpt><trkpt lat="42.14631" lon="13.82798"><ele>254.0</ele><time>2026-05-02T11:49:33.1Z</time></trkpt><trkpt lat="42.1460333" lon="13.8282083"><ele>256.0</ele><time>2026-05-02T11:49:34.099Z</time></trkpt><trkpt lat="42.145765" lon="13.82845"><ele>258.0</ele><time>2026-05-02T11:49:35.1Z</time></trkpt><trkpt lat="42.1455033" lon="13.8287067"><ele>260.0</ele><time>2026-05-02T11:49:36.1Z</time></trkpt><trkpt lat="42.1452433" lon="13.828985"><ele>260.0</ele><time>2026-05-02T11:49:37.099Z</time></trkpt><trkpt lat="42.1449867" lon="13.8292717"><ele>260.0</ele><time>2026-05-02T11:49:38.1Z</time></trkpt><trkpt lat="42.1447383" lon="13.82957"><ele>258.0</ele><time>2026-05-02T11:49:39.099Z</time></trkpt><trkpt lat="42.1445" lon="13.82987"><ele>256.0</ele><time>2026-05-02T11:49:40.1Z</time></trkpt><trkpt lat="42.14427" lon="13.8301933"><ele>254.0</ele><time>2026-05-02T11:49:41.099Z</time></trkpt><trkpt lat="42.1440467" lon="13.8305367"><ele>252.0</ele><time>2026-05-02T11:49:42.099Z</time></trkpt><trkpt lat="42.1438333" lon="13.83088"><ele>253.5</ele><time>2026-05-02T11:49:43.099Z</time></trkpt><trkpt lat="42.1436217" lon="13.83124"><ele>255.0</ele><time>2026-05-02T11:49:44.099Z</time></trkpt><trkpt lat="42.1434217" lon="13.8316183"><ele>254.5</ele><time>2026-05-02T11:49:45.099Z</time></trkpt><trkpt lat="42.1432367" lon="13.8319967"><ele>254.0</ele><time>2026-05-02T11:49:46.099Z</time></trkpt><trkpt lat="42.1430567" lon="13.8324017"><ele>254.0</ele><time>2026-05-02T11:49:47.099Z</time></trkpt><trkpt lat="42.1428883" lon="13.8328083"><ele>254.0</ele><time>2026-05-02T11:49:48.099Z</time></trkpt><trkpt lat="42.1427317" lon="13.8332217"><ele>255.0</ele><time>2026-05-02T11:49:49.099Z</time></trkpt><trkpt lat="42.1425867" lon="13.83365"><ele>256.0</ele><time>2026-05-02T11:49:50.099Z</time></trkpt><trkpt lat="42.142455" lon="13.8340717"><ele>254.5</ele><time>2026-05-02T11:49:51.099Z</time></trkpt><trkpt lat="42.1423383" lon="13.8345"><ele>253.0</ele><time>2026-05-02T11:49:52.099Z</time></trkpt><trkpt lat="42.14223" lon="13.83494"><ele>253.0</ele><time>2026-05-02T11:49:53.099Z</time></trkpt><trkpt lat="42.1421267" lon="13.8353833"><ele>253.0</ele><time>2026-05-02T11:49:54.1Z</time></trkpt><trkpt lat="42.1420317" lon="13.8358283"><ele>254.0</ele><time>2026-05-02T11:49:55.099Z</time></trkpt><trkpt lat="42.141935" lon="13.836275"><ele>255.0</ele><time>2026-05-02T11:49:56.099Z</time></trkpt><trkpt lat="42.14184" lon="13.836725"><ele>255.0</ele><time>2026-05-02T11:49:57.099Z</time></trkpt><trkpt lat="42.141735" lon="13.837165"><ele>255.0</ele><time>2026-05-02T11:49:58.099Z</time></trkpt><trkpt lat="42.1416317" lon="13.8376017"><ele>254.5</ele><time>2026-05-02T11:49:59.098Z</time></trkpt><trkpt lat="42.14152" lon="13.838035"><ele>254.0</ele><time>2026-05-02T11:50:00.098Z</time></trkpt><trkpt lat="42.141405" lon="13.83848"><ele>255.5</ele><time>2026-05-02T11:50:01.099Z</time></trkpt><trkpt lat="42.1412883" lon="13.8389217"><ele>257.0</ele><time>2026-05-02T11:50:02.098Z</time></trkpt><trkpt lat="42.1411667" lon="13.839355"><ele>258.0</ele><time>2026-05-02T11:50:03.098Z</time></trkpt><trkpt lat="42.14103" lon="13.8397667"><ele>259.0</ele><time>2026-05-02T11:50:04.099Z</time></trkpt><trkpt lat="42.1408917" lon="13.8401717"><ele>261.0</ele><time>2026-05-02T11:50:05.098Z</time></trkpt><trkpt lat="42.140735" lon="13.84058"><ele>263.0</ele><time>2026-05-02T11:50:06.098Z</time></trkpt><trkpt lat="42.1405617" lon="13.840975"><ele>268.5</ele><time>2026-05-02T11:50:07.099Z</time></trkpt><trkpt lat="42.140385" lon="13.8413617"><ele>274.0</ele><time>2026-05-02T11:50:08.099Z</time></trkpt><trkpt lat="42.1401867" lon="13.8417183"><ele>275.5</ele><time>2026-05-02T11:50:09.098Z</time></trkpt><trkpt lat="42.139975" lon="13.84206"><ele>277.0</ele><time>2026-05-02T11:50:10.098Z</time></trkpt><trkpt lat="42.13975" lon="13.8424017"><ele>278.0</ele><time>2026-05-02T11:50:11.098Z</time></trkpt><trkpt lat="42.1395167" lon="13.842725"><ele>279.0</ele><time>2026-05-02T11:50:12.099Z</time></trkpt><trkpt lat="42.1392767" lon="13.8430333"><ele>278.0</ele><time>2026-05-02T11:50:13.099Z</time></trkpt><trkpt lat="42.1390267" lon="13.8433217"><ele>277.0</ele><time>2026-05-02T11:50:14.099Z</time></trkpt><trkpt lat="42.1387733" lon="13.8435917"><ele>279.0</ele><time>2026-05-02T11:50:15.098Z</time></trkpt><trkpt lat="42.13851" lon="13.84384"><ele>281.0</ele><time>2026-05-02T11:50:16.099Z</time></trkpt><trkpt lat="42.13824" lon="13.8440783"><ele>284.5</ele><time>2026-05-02T11:50:17.099Z</time></trkpt><trkpt lat="42.1379633" lon="13.8443083"><ele>288.0</ele><time>2026-05-02T11:50:18.098Z</time></trkpt><trkpt lat="42.137685" lon="13.8445267"><ele>288.0</ele><time>2026-05-02T11:50:19.098Z</time></trkpt><trkpt lat="42.1374067" lon="13.84473"><ele>288.0</ele><time>2026-05-02T11:50:20.099Z</time></trkpt><trkpt lat="42.1371283" lon="13.8449233"><ele>291.5</ele><time>2026-05-02T11:50:21.098Z</time></trkpt><trkpt lat="42.136845" lon="13.8451117"><ele>295.0</ele><time>2026-05-02T11:50:22.099Z</time></trkpt><trkpt lat="42.1365517" lon="13.8452917"><ele>297.0</ele><time>2026-05-02T11:50:23.099Z</time></trkpt><trkpt lat="42.1362617" lon="13.84547"><ele>299.0</ele><time>2026-05-02T11:50:24.098Z</time></trkpt><trkpt lat="42.1359683" lon="13.8456367"><ele>301.0</ele><time>2026-05-02T11:50:25.099Z</time></trkpt><trkpt lat="42.1356767" lon="13.8458117"><ele>303.0</ele><time>2026-05-02T11:50:26.099Z</time></trkpt><trkpt lat="42.1353817" lon="13.84598"><ele>303.0</ele><time>2026-05-02T11:50:27.098Z</time></trkpt><trkpt lat="42.1350917" lon="13.84615"><ele>303.0</ele><time>2026-05-02T11:50:28.098Z</time></trkpt><trkpt lat="42.1348" lon="13.8463267"><ele>305.0</ele><time>2026-05-02T11:50:29.098Z</time></trkpt><trkpt lat="42.13451" lon="13.846505"><ele>307.0</ele><time>2026-05-02T11:50:30.098Z</time></trkpt><trkpt lat="42.1342183" lon="13.8466817"><ele>303.0</ele><time>2026-05-02T11:50:31.099Z</time></trkpt><trkpt lat="42.1339267" lon="13.84687"><ele>299.0</ele><time>2026-05-02T11:50:32.099Z</time></trkpt><trkpt lat="42.133635" lon="13.84706"><ele>299.0</ele><time>2026-05-02T11:50:33.099Z</time></trkpt><trkpt lat="42.133345" lon="13.847255"><ele>299.0</ele><time>2026-05-02T11:50:34.098Z</time></trkpt><trkpt lat="42.1330533" lon="13.8474533"><ele>297.0</ele><time>2026-05-02T11:50:35.099Z</time></trkpt><trkpt lat="42.1327617" lon="13.847665"><ele>295.0</ele><time>2026-05-02T11:50:36.099Z</time></trkpt><trkpt lat="42.1324667" lon="13.8478683"><ele>298.0</ele><time>2026-05-02T11:50:37.098Z</time></trkpt><trkpt lat="42.1321683" lon="13.8480833"><ele>301.0</ele><time>2026-05-02T11:50:38.098Z</time></trkpt><trkpt lat="42.13187" lon="13.8483017"><ele>298.0</ele><time>2026-05-02T11:50:39.099Z</time></trkpt><trkpt lat="42.1315783" lon="13.8485183"><ele>295.0</ele><time>2026-05-02T11:50:40.098Z</time></trkpt><trkpt lat="42.131285" lon="13.848745"><ele>292.5</ele><time>2026-05-02T11:50:41.098Z</time></trkpt><trkpt lat="42.1309883" lon="13.84898"><ele>290.0</ele><time>2026-05-02T11:50:42.099Z</time></trkpt><trkpt lat="42.130695" lon="13.8492133"><ele>284.5</ele><time>2026-05-02T11:50:43.099Z</time></trkpt><trkpt lat="42.1303967" lon="13.84946"><ele>279.0</ele><time>2026-05-02T11:50:44.099Z</time></trkpt><trkpt lat="42.1301017" lon="13.84971"><ele>284.0</ele><time>2026-05-02T11:50:45.098Z</time></trkpt><trkpt lat="42.129805" lon="13.8499733"><ele>289.0</ele><time>2026-05-02T11:50:46.099Z</time></trkpt><trkpt lat="42.12951" lon="13.8502317"><ele>290.5</ele><time>2026-05-02T11:50:47.098Z</time></trkpt><trkpt lat="42.1292167" lon="13.8505"><ele>292.0</ele><time>2026-05-02T11:50:48.098Z</time></trkpt><trkpt lat="42.12892" lon="13.8507767"><ele>294.0</ele><time>2026-05-02T11:50:49.098Z</time></trkpt><trkpt lat="42.1286283" lon="13.851045"><ele>296.0</ele><time>2026-05-02T11:50:50.098Z</time></trkpt><trkpt lat="42.128335" lon="13.851325"><ele>299.0</ele><time>2026-05-02T11:50:51.098Z</time></trkpt><trkpt lat="42.1280383" lon="13.8516067"><ele>302.0</ele><time>2026-05-02T11:50:52.098Z</time></trkpt><trkpt lat="42.127755" lon="13.8518983"><ele>302.0</ele><time>2026-05-02T11:50:53.098Z</time></trkpt><trkpt lat="42.1274683" lon="13.8521933"><ele>302.0</ele><time>2026-05-02T11:50:54.099Z</time></trkpt><trkpt lat="42.12718" lon="13.8524967"><ele>303.5</ele><time>2026-05-02T11:50:55.098Z</time></trkpt><trkpt lat="42.126895" lon="13.8527983"><ele>305.0</ele><time>2026-05-02T11:50:56.098Z</time></trkpt><trkpt lat="42.1266167" lon="13.8531067"><ele>306.0</ele><time>2026-05-02T11:50:57.098Z</time></trkpt><trkpt lat="42.1263417" lon="13.8534167"><ele>307.0</ele><time>2026-05-02T11:50:58.098Z</time></trkpt><trkpt lat="42.1260617" lon="13.8537267"><ele>307.0</ele><time>2026-05-02T11:50:59.099Z</time></trkpt><trkpt lat="42.125785" lon="13.85405"><ele>307.0</ele><time>2026-05-02T11:51:00.099Z</time></trkpt><trkpt lat="42.1255167" lon="13.8543567"><ele>309.5</ele><time>2026-05-02T11:51:01.098Z</time></trkpt><trkpt lat="42.1252517" lon="13.854685"><ele>312.0</ele><time>2026-05-02T11:51:02.098Z</time></trkpt><trkpt lat="42.1249817" lon="13.8550217"><ele>313.0</ele><time>2026-05-02T11:51:03.098Z</time></trkpt><trkpt lat="42.1247167" lon="13.855345"><ele>314.0</ele><time>2026-05-02T11:51:04.099Z</time></trkpt><trkpt lat="42.12446" lon="13.855675"><ele>314.5</ele><time>2026-05-02T11:51:05.099Z</time></trkpt><trkpt lat="42.124205" lon="13.856005"><ele>315.0</ele><time>2026-05-02T11:51:06.098Z</time></trkpt><trkpt lat="42.1239467" lon="13.856345"><ele>315.5</ele><time>2026-05-02T11:51:07.098Z</time></trkpt><trkpt lat="42.1236883" lon="13.8566783"><ele>316.0</ele><time>2026-05-02T11:51:08.098Z</time></trkpt><trkpt lat="42.1234333" lon="13.85701"><ele>318.5</ele><time>2026-05-02T11:51:09.098Z</time></trkpt><trkpt lat="42.12318" lon="13.85734"><ele>321.0</ele><time>2026-05-02T11:51:10.098Z</time></trkpt><trkpt lat="42.1229283" lon="13.8576767"><ele>321.0</ele><time>2026-05-02T11:51:11.099Z</time></trkpt><trkpt lat="42.12267" lon="13.858005"><ele>321.0</ele><time>2026-05-02T11:51:12.098Z</time></trkpt><trkpt lat="42.1224183" lon="13.8583267"><ele>324.5</ele><time>2026-05-02T11:51:13.098Z</time></trkpt><trkpt lat="42.122165" lon="13.8586583"><ele>328.0</ele><time>2026-05-02T11:51:14.099Z</time></trkpt><trkpt lat="42.1219133" lon="13.858975"><ele>328.0</ele><time>2026-05-02T11:51:15.098Z</time></trkpt><trkpt lat="42.1216533" lon="13.8592833"><ele>328.0</ele><time>2026-05-02T11:51:16.098Z</time></trkpt><trkpt lat="42.12139" lon="13.8595933"><ele>327.0</ele><time>2026-05-02T11:51:17.099Z</time></trkpt><trkpt lat="42.1211233" lon="13.8598883"><ele>326.0</ele><time>2026-05-02T11:51:18.098Z</time></trkpt><trkpt lat="42.1208567" lon="13.8601767"><ele>327.0</ele><time>2026-05-02T11:51:19.098Z</time></trkpt><trkpt lat="42.1205867" lon="13.86046"><ele>328.0</ele><time>2026-05-02T11:51:20.099Z</time></trkpt><trkpt lat="42.1203117" lon="13.8607283"><ele>328.5</ele><time>2026-05-02T11:51:21.099Z</time></trkpt><trkpt lat="42.1200317" lon="13.8609917"><ele>329.0</ele><time>2026-05-02T11:51:22.098Z</time></trkpt><trkpt lat="42.1197483" lon="13.861245"><ele>329.0</ele><time>2026-05-02T11:51:23.098Z</time></trkpt><trkpt lat="42.1194633" lon="13.861495"><ele>329.0</ele><time>2026-05-02T11:51:24.098Z</time></trkpt><trkpt lat="42.1191733" lon="13.8617317"><ele>328.0</ele><time>2026-05-02T11:51:25.099Z</time></trkpt><trkpt lat="42.1188783" lon="13.86196"><ele>327.0</ele><time>2026-05-02T11:51:26.098Z</time></trkpt><trkpt lat="42.1185767" lon="13.8621783"><ele>327.0</ele><time>2026-05-02T11:51:27.098Z</time></trkpt><trkpt lat="42.1182767" lon="13.862395"><ele>327.0</ele><time>2026-05-02T11:51:28.099Z</time></trkpt><trkpt lat="42.117975" lon="13.862605"><ele>333.0</ele><time>2026-05-02T11:51:29.099Z</time></trkpt><trkpt lat="42.117675" lon="13.8627917"><ele>339.0</ele><time>2026-05-02T11:51:30.098Z</time></trkpt><trkpt lat="42.1173867" lon="13.8629733"><ele>339.5</ele><time>2026-05-02T11:51:31.098Z</time></trkpt><trkpt lat="42.1171017" lon="13.86314"><ele>340.0</ele><time>2026-05-02T11:51:32.098Z</time></trkpt><trkpt lat="42.11681" lon="13.8632883"><ele>340.0</ele><time>2026-05-02T11:51:33.098Z</time></trkpt><trkpt lat="42.1165233" lon="13.8634267"><ele>340.0</ele><time>2026-05-02T11:51:34.099Z</time></trkpt><trkpt lat="42.1162433" lon="13.8635567"><ele>340.0</ele><time>2026-05-02T11:51:35.098Z</time></trkpt><trkpt lat="42.1159717" lon="13.8636883"><ele>340.0</ele><time>2026-05-02T11:51:36.099Z</time></trkpt><trkpt lat="42.1156983" lon="13.8638033"><ele>340.0</ele><time>2026-05-02T11:51:37.099Z</time></trkpt><trkpt lat="42.1154233" lon="13.8639167"><ele>340.0</ele><time>2026-05-02T11:51:38.098Z</time></trkpt><trkpt lat="42.1151383" lon="13.8640283"><ele>339.5</ele><time>2026-05-02T11:51:39.099Z</time></trkpt><trkpt lat="42.1148567" lon="13.8641317"><ele>339.0</ele><time>2026-05-02T11:51:40.099Z</time></trkpt><trkpt lat="42.1145667" lon="13.8642267"><ele>340.0</ele><time>2026-05-02T11:51:41.099Z</time></trkpt><trkpt lat="42.1142783" lon="13.86431"><ele>341.0</ele><time>2026-05-02T11:51:42.098Z</time></trkpt><trkpt lat="42.113985" lon="13.8643867"><ele>341.5</ele><time>2026-05-02T11:51:43.098Z</time></trkpt><trkpt lat="42.11369" lon="13.8644567"><ele>342.0</ele><time>2026-05-02T11:51:44.099Z</time></trkpt><trkpt lat="42.113385" lon="13.8645283"><ele>342.0</ele><time>2026-05-02T11:51:45.099Z</time></trkpt><trkpt lat="42.11308" lon="13.8645883"><ele>342.0</ele><time>2026-05-02T11:51:46.099Z</time></trkpt><trkpt lat="42.1127767" lon="13.8646517"><ele>342.0</ele><time>2026-05-02T11:51:47.099Z</time></trkpt><trkpt lat="42.11247" lon="13.86471"><ele>342.0</ele><time>2026-05-02T11:51:48.099Z</time></trkpt><trkpt lat="42.1121683" lon="13.864765"><ele>336.0</ele><time>2026-05-02T11:51:49.098Z</time></trkpt><trkpt lat="42.1118567" lon="13.8648067"><ele>330.0</ele><time>2026-05-02T11:51:50.098Z</time></trkpt><trkpt lat="42.1115433" lon="13.8648433"><ele>324.0</ele><time>2026-05-02T11:51:51.098Z</time></trkpt><trkpt lat="42.1112267" lon="13.8648717"><ele>318.0</ele><time>2026-05-02T11:51:52.098Z</time></trkpt><trkpt lat="42.1109117" lon="13.864905"><ele>318.5</ele><time>2026-05-02T11:51:53.099Z</time></trkpt><trkpt lat="42.1105983" lon="13.8649367"><ele>319.0</ele><time>2026-05-02T11:51:54.098Z</time></trkpt><trkpt lat="42.1102783" lon="13.86496"><ele>319.0</ele><time>2026-05-02T11:51:55.099Z</time></trkpt><trkpt lat="42.1099567" lon="13.8649767"><ele>319.0</ele><time>2026-05-02T11:51:56.098Z</time></trkpt><trkpt lat="42.109635" lon="13.8649883"><ele>328.0</ele><time>2026-05-02T11:51:57.099Z</time></trkpt><trkpt lat="42.109305" lon="13.8649983"><ele>337.0</ele><time>2026-05-02T11:51:58.099Z</time></trkpt><trkpt lat="42.10898" lon="13.86501"><ele>341.0</ele><time>2026-05-02T11:51:59.098Z</time></trkpt><trkpt lat="42.10865" lon="13.8650117"><ele>345.0</ele><time>2026-05-02T11:52:00.099Z</time></trkpt><trkpt lat="42.1083183" lon="13.8650117"><ele>344.5</ele><time>2026-05-02T11:52:01.098Z</time></trkpt><trkpt lat="42.1079833" lon="13.865015"><ele>344.0</ele><time>2026-05-02T11:52:02.099Z</time></trkpt><trkpt lat="42.1076483" lon="13.8650183"><ele>344.5</ele><time>2026-05-02T11:52:03.098Z</time></trkpt><trkpt lat="42.1073133" lon="13.86502"><ele>345.0</ele><time>2026-05-02T11:52:04.098Z</time></trkpt><trkpt lat="42.1069767" lon="13.8650133"><ele>345.0</ele><time>2026-05-02T11:52:05.099Z</time></trkpt><trkpt lat="42.1066383" lon="13.8649983"><ele>345.0</ele><time>2026-05-02T11:52:06.098Z</time></trkpt><trkpt lat="42.1062983" lon="13.8649883"><ele>344.0</ele><time>2026-05-02T11:52:07.099Z</time></trkpt><trkpt lat="42.1059567" lon="13.8649833"><ele>343.0</ele><time>2026-05-02T11:52:08.099Z</time></trkpt><trkpt lat="42.105615" lon="13.8649733"><ele>343.0</ele><time>2026-05-02T11:52:09.099Z</time></trkpt><trkpt lat="42.1052733" lon="13.86496"><ele>343.0</ele><time>2026-05-02T11:52:10.099Z</time></trkpt><trkpt lat="42.1049233" lon="13.8649483"><ele>343.0</ele><time>2026-05-02T11:52:11.099Z</time></trkpt><trkpt lat="42.1045733" lon="13.864945"><ele>343.0</ele><time>2026-05-02T11:52:12.098Z</time></trkpt><trkpt lat="42.1042233" lon="13.8649367"><ele>344.0</ele><time>2026-05-02T11:52:13.098Z</time></trkpt><trkpt lat="42.1038667" lon="13.8649317"><ele>345.0</ele><time>2026-05-02T11:52:14.098Z</time></trkpt><trkpt lat="42.103515" lon="13.8649217"><ele>344.0</ele><time>2026-05-02T11:52:15.099Z</time></trkpt><trkpt lat="42.1031583" lon="13.8649183"><ele>343.0</ele><time>2026-05-02T11:52:16.099Z</time></trkpt><trkpt lat="42.102805" lon="13.8649133"><ele>343.0</ele><time>2026-05-02T11:52:17.098Z</time></trkpt><trkpt lat="42.10245" lon="13.864915"><ele>343.0</ele><time>2026-05-02T11:52:18.098Z</time></trkpt><trkpt lat="42.10209" lon="13.86492"><ele>338.5</ele><time>2026-05-02T11:52:19.098Z</time></trkpt><trkpt lat="42.1017317" lon="13.864925"><ele>334.0</ele><time>2026-05-02T11:52:20.098Z</time></trkpt><trkpt lat="42.1013633" lon="13.8649333"><ele>333.5</ele><time>2026-05-02T11:52:21.098Z</time></trkpt><trkpt lat="42.1009983" lon="13.8649533"><ele>333.0</ele><time>2026-05-02T11:52:22.099Z</time></trkpt><trkpt lat="42.1006283" lon="13.8649667"><ele>338.0</ele><time>2026-05-02T11:52:23.099Z</time></trkpt><trkpt lat="42.1002633" lon="13.8649833"><ele>343.0</ele><time>2026-05-02T11:52:24.098Z</time></trkpt><trkpt lat="42.0998983" lon="13.8650117"><ele>345.5</ele><time>2026-05-02T11:52:25.098Z</time></trkpt><trkpt lat="42.0995367" lon="13.86505"><ele>348.0</ele><time>2026-05-02T11:52:26.099Z</time></trkpt><trkpt lat="42.0991767" lon="13.865095"><ele>346.5</ele><time>2026-05-02T11:52:27.099Z</time></trkpt><trkpt lat="42.0988117" lon="13.86514"><ele>345.0</ele><time>2026-05-02T11:52:28.098Z</time></trkpt><trkpt lat="42.09844" lon="13.8652033"><ele>345.0</ele><time>2026-05-02T11:52:29.099Z</time></trkpt><trkpt lat="42.09807" lon="13.865265"><ele>345.0</ele><time>2026-05-02T11:52:30.099Z</time></trkpt><trkpt lat="42.0977" lon="13.8653367"><ele>343.5</ele><time>2026-05-02T11:52:31.098Z</time></trkpt><trkpt lat="42.0973267" lon="13.8654033"><ele>342.0</ele><time>2026-05-02T11:52:32.099Z</time></trkpt><trkpt lat="42.096955" lon="13.865475"><ele>342.0</ele><time>2026-05-02T11:52:33.098Z</time></trkpt><trkpt lat="42.0965867" lon="13.8655483"><ele>342.0</ele><time>2026-05-02T11:52:34.098Z</time></trkpt><trkpt lat="42.0962117" lon="13.8656317"><ele>334.5</ele><time>2026-05-02T11:52:35.099Z</time></trkpt><trkpt lat="42.09584" lon="13.8657233"><ele>327.0</ele><time>2026-05-02T11:52:36.098Z</time></trkpt><trkpt lat="42.09547" lon="13.86581"><ele>322.0</ele><time>2026-05-02T11:52:37.099Z</time></trkpt><trkpt lat="42.0950983" lon="13.86591"><ele>317.0</ele><time>2026-05-02T11:52:38.099Z</time></trkpt><trkpt lat="42.0947333" lon="13.8660133"><ele>314.5</ele><time>2026-05-02T11:52:39.098Z</time></trkpt><trkpt lat="42.094365" lon="13.8661183"><ele>312.0</ele><time>2026-05-02T11:52:40.098Z</time></trkpt><trkpt lat="42.094" lon="13.8662333"><ele>312.0</ele><time>2026-05-02T11:52:41.098Z</time></trkpt><trkpt lat="42.0936267" lon="13.8663517"><ele>312.0</ele><time>2026-05-02T11:52:42.098Z</time></trkpt><trkpt lat="42.0932667" lon="13.8664783"><ele>314.0</ele><time>2026-05-02T11:52:43.098Z</time></trkpt><trkpt lat="42.0929033" lon="13.86661"><ele>316.0</ele><time>2026-05-02T11:52:44.098Z</time></trkpt><trkpt lat="42.0925383" lon="13.8667383"><ele>318.5</ele><time>2026-05-02T11:52:45.098Z</time></trkpt><trkpt lat="42.0921683" lon="13.8668683"><ele>321.0</ele><time>2026-05-02T11:52:46.099Z</time></trkpt><trkpt lat="42.091795" lon="13.8670033"><ele>327.5</ele><time>2026-05-02T11:52:47.099Z</time></trkpt><trkpt lat="42.09143" lon="13.8671433"><ele>334.0</ele><time>2026-05-02T11:52:48.099Z</time></trkpt><trkpt lat="42.091065" lon="13.8672917"><ele>337.0</ele><time>2026-05-02T11:52:49.098Z</time></trkpt><trkpt lat="42.0906967" lon="13.86744"><ele>340.0</ele><time>2026-05-02T11:52:50.098Z</time></trkpt><trkpt lat="42.090335" lon="13.867595"><ele>339.0</ele><time>2026-05-02T11:52:51.099Z</time></trkpt><trkpt lat="42.0899717" lon="13.8677467"><ele>338.0</ele><time>2026-05-02T11:52:52.098Z</time></trkpt><trkpt lat="42.08961" lon="13.8678917"><ele>341.0</ele><time>2026-05-02T11:52:53.099Z</time></trkpt><trkpt lat="42.0892433" lon="13.8680317"><ele>344.0</ele><time>2026-05-02T11:52:54.098Z</time></trkpt><trkpt lat="42.08888" lon="13.8681717"><ele>346.5</ele><time>2026-05-02T11:52:55.099Z</time></trkpt><trkpt lat="42.08852" lon="13.86831"><ele>349.0</ele><time>2026-05-02T11:52:56.099Z</time></trkpt><trkpt lat="42.0881567" lon="13.86844"><ele>350.5</ele><time>2026-05-02T11:52:57.099Z</time></trkpt><trkpt lat="42.0877883" lon="13.86856"><ele>352.0</ele><time>2026-05-02T11:52:58.098Z</time></trkpt><trkpt lat="42.08742" lon="13.8686683"><ele>352.0</ele><time>2026-05-02T11:52:59.098Z</time></trkpt><trkpt lat="42.087045" lon="13.8687583"><ele>352.0</ele><time>2026-05-02T11:53:00.098Z</time></trkpt><trkpt lat="42.0866767" lon="13.8688333"><ele>352.5</ele><time>2026-05-02T11:53:01.098Z</time></trkpt><trkpt lat="42.086305" lon="13.8688933"><ele>353.0</ele><time>2026-05-02T11:53:02.098Z</time></trkpt><trkpt lat="42.085935" lon="13.8689517"><ele>354.0</ele><time>2026-05-02T11:53:03.098Z</time></trkpt><trkpt lat="42.0855633" lon="13.8689883"><ele>355.0</ele><time>2026-05-02T11:53:04.098Z</time></trkpt><trkpt lat="42.0851867" lon="13.869"><ele>356.5</ele><time>2026-05-02T11:53:05.098Z</time></trkpt><trkpt lat="42.0848183" lon="13.8690117"><ele>358.0</ele><time>2026-05-02T11:53:06.098Z</time></trkpt><trkpt lat="42.084445" lon="13.86901"><ele>359.0</ele><time>2026-05-02T11:53:07.099Z</time></trkpt><trkpt lat="42.0840783" lon="13.8689917"><ele>360.0</ele><time>2026-05-02T11:53:08.098Z</time></trkpt><trkpt lat="42.083715" lon="13.8689617"><ele>360.0</ele><time>2026-05-02T11:53:09.099Z</time></trkpt><trkpt lat="42.0833517" lon="13.8689117"><ele>360.0</ele><time>2026-05-02T11:53:10.098Z</time></trkpt><trkpt lat="42.0829917" lon="13.868855"><ele>360.5</ele><time>2026-05-02T11:53:11.098Z</time></trkpt><trkpt lat="42.0826333" lon="13.8687867"><ele>361.0</ele><time>2026-05-02T11:53:12.099Z</time></trkpt><trkpt lat="42.082275" lon="13.8686983"><ele>361.0</ele><time>2026-05-02T11:53:13.099Z</time></trkpt><trkpt lat="42.0819217" lon="13.8686033"><ele>361.0</ele><time>2026-05-02T11:53:14.098Z</time></trkpt><trkpt lat="42.0815717" lon="13.868495"><ele>360.5</ele><time>2026-05-02T11:53:15.098Z</time></trkpt><trkpt lat="42.0812283" lon="13.8683733"><ele>360.0</ele><time>2026-05-02T11:53:16.099Z</time></trkpt><trkpt lat="42.0808817" lon="13.8682367"><ele>362.0</ele><time>2026-05-02T11:53:17.099Z</time></trkpt><trkpt lat="42.0805483" lon="13.868095"><ele>364.0</ele><time>2026-05-02T11:53:18.098Z</time></trkpt><trkpt lat="42.08022" lon="13.8679417"><ele>363.0</ele><time>2026-05-02T11:53:19.099Z</time></trkpt><trkpt lat="42.07989" lon="13.8677783"><ele>362.0</ele><time>2026-05-02T11:53:20.099Z</time></trkpt><trkpt lat="42.0795583" lon="13.8675933"><ele>362.0</ele><time>2026-05-02T11:53:21.099Z</time></trkpt><trkpt lat="42.0792383" lon="13.86741"><ele>362.0</ele><time>2026-05-02T11:53:22.098Z</time></trkpt><trkpt lat="42.078925" lon="13.8672117"><ele>363.5</ele><time>2026-05-02T11:53:23.099Z</time></trkpt><trkpt lat="42.0786167" lon="13.8670033"><ele>365.0</ele><time>2026-05-02T11:53:24.098Z</time></trkpt><trkpt lat="42.078315" lon="13.8667867"><ele>365.0</ele><time>2026-05-02T11:53:25.098Z</time></trkpt><trkpt lat="42.0780183" lon="13.866565"><ele>365.0</ele><time>2026-05-02T11:53:26.099Z</time></trkpt><trkpt lat="42.0777183" lon="13.8663283"><ele>365.0</ele><time>2026-05-02T11:53:27.099Z</time></trkpt><trkpt lat="42.0774317" lon="13.8660783"><ele>365.0</ele><time>2026-05-02T11:53:28.098Z</time></trkpt><trkpt lat="42.0771467" lon="13.865825"><ele>365.0</ele><time>2026-05-02T11:53:29.099Z</time></trkpt><trkpt lat="42.076875" lon="13.8655567"><ele>365.0</ele><time>2026-05-02T11:53:30.098Z</time></trkpt><trkpt lat="42.0766033" lon="13.8652933"><ele>367.0</ele><time>2026-05-02T11:53:31.098Z</time></trkpt><trkpt lat="42.076335" lon="13.8650283"><ele>369.0</ele><time>2026-05-02T11:53:32.098Z</time></trkpt><trkpt lat="42.0760767" lon="13.86476"><ele>369.0</ele><time>2026-05-02T11:53:33.099Z</time></trkpt><trkpt lat="42.0758167" lon="13.86449"><ele>369.0</ele><time>2026-05-02T11:53:34.098Z</time></trkpt><trkpt lat="42.0755583" lon="13.8642167"><ele>368.5</ele><time>2026-05-02T11:53:35.099Z</time></trkpt><trkpt lat="42.0753033" lon="13.8639467"><ele>368.0</ele><time>2026-05-02T11:53:36.099Z</time></trkpt><trkpt lat="42.0750533" lon="13.863665"><ele>368.5</ele><time>2026-05-02T11:53:37.099Z</time></trkpt><trkpt lat="42.074805" lon="13.8633917"><ele>369.0</ele><time>2026-05-02T11:53:38.098Z</time></trkpt><trkpt lat="42.0745533" lon="13.8631167"><ele>369.0</ele><time>2026-05-02T11:53:39.099Z</time></trkpt><trkpt lat="42.0743067" lon="13.8628483"><ele>369.0</ele><time>2026-05-02T11:53:40.098Z</time></trkpt><trkpt lat="42.07406" lon="13.86258"><ele>372.5</ele><time>2026-05-02T11:53:41.099Z</time></trkpt><trkpt lat="42.0738117" lon="13.8623117"><ele>376.0</ele><time>2026-05-02T11:53:42.099Z</time></trkpt><trkpt lat="42.0735683" lon="13.86205"><ele>375.0</ele><time>2026-05-02T11:53:43.098Z</time></trkpt><trkpt lat="42.0733267" lon="13.86178"><ele>374.0</ele><time>2026-05-02T11:53:44.099Z</time></trkpt><trkpt lat="42.07309" lon="13.8615217"><ele>384.5</ele><time>2026-05-02T11:53:45.098Z</time></trkpt><trkpt lat="42.072845" lon="13.86126"><ele>395.0</ele><time>2026-05-02T11:53:46.099Z</time></trkpt><trkpt lat="42.0726033" lon="13.8610033"><ele>405.5</ele><time>2026-05-02T11:53:47.099Z</time></trkpt><trkpt lat="42.072365" lon="13.86076"><ele>416.0</ele><time>2026-05-02T11:53:48.099Z</time></trkpt><trkpt lat="42.0721183" lon="13.860525"><ele>416.0</ele><time>2026-05-02T11:53:49.098Z</time></trkpt><trkpt lat="42.0718617" lon="13.8602917"><ele>416.0</ele><time>2026-05-02T11:53:50.098Z</time></trkpt><trkpt lat="42.0716067" lon="13.8600733"><ele>416.5</ele><time>2026-05-02T11:53:51.098Z</time></trkpt><trkpt lat="42.0713433" lon="13.859865"><ele>417.0</ele><time>2026-05-02T11:53:52.098Z</time></trkpt><trkpt lat="42.07108" lon="13.8596667"><ele>417.0</ele><time>2026-05-02T11:53:53.099Z</time></trkpt><trkpt lat="42.070805" lon="13.859485"><ele>417.0</ele><time>2026-05-02T11:53:54.098Z</time></trkpt><trkpt lat="42.0705317" lon="13.859315"><ele>417.5</ele><time>2026-05-02T11:53:55.098Z</time></trkpt><trkpt lat="42.0702533" lon="13.85916"><ele>418.0</ele><time>2026-05-02T11:53:56.099Z</time></trkpt><trkpt lat="42.0699733" lon="13.8590283"><ele>426.0</ele><time>2026-05-02T11:53:57.099Z</time></trkpt><trkpt lat="42.0696883" lon="13.8589117"><ele>434.0</ele><time>2026-05-02T11:53:58.098Z</time></trkpt><trkpt lat="42.0694017" lon="13.8588183"><ele>434.0</ele><time>2026-05-02T11:53:59.098Z</time></trkpt><trkpt lat="42.0691183" lon="13.8587417"><ele>434.0</ele><time>2026-05-02T11:54:00.098Z</time></trkpt><trkpt lat="42.0688283" lon="13.85868"><ele>440.5</ele><time>2026-05-02T11:54:01.098Z</time></trkpt><trkpt lat="42.068535" lon="13.8586217"><ele>447.0</ele><time>2026-05-02T11:54:02.098Z</time></trkpt><trkpt lat="42.0682467" lon="13.85859"><ele>449.0</ele><time>2026-05-02T11:54:03.099Z</time></trkpt><trkpt lat="42.0679583" lon="13.858565"><ele>451.0</ele><time>2026-05-02T11:54:04.099Z</time></trkpt><trkpt lat="42.067675" lon="13.8585533"><ele>452.5</ele><time>2026-05-02T11:54:05.099Z</time></trkpt><trkpt lat="42.0673967" lon="13.85856"><ele>454.0</ele><time>2026-05-02T11:54:06.099Z</time></trkpt><trkpt lat="42.0671133" lon="13.85858"><ele>454.0</ele><time>2026-05-02T11:54:07.099Z</time></trkpt><trkpt lat="42.0668267" lon="13.8586117"><ele>454.0</ele><time>2026-05-02T11:54:08.099Z</time></trkpt><trkpt lat="42.0665417" lon="13.858655"><ele>453.0</ele><time>2026-05-02T11:54:09.098Z</time></trkpt><trkpt lat="42.06626" lon="13.8587017"><ele>452.0</ele><time>2026-05-02T11:54:10.099Z</time></trkpt><trkpt lat="42.0659833" lon="13.8587617"><ele>449.5</ele><time>2026-05-02T11:54:11.099Z</time></trkpt><trkpt lat="42.065705" lon="13.8588233"><ele>447.0</ele><time>2026-05-02T11:54:12.098Z</time></trkpt><trkpt lat="42.0654283" lon="13.8588883"><ele>447.0</ele><time>2026-05-02T11:54:13.099Z</time></trkpt><trkpt lat="42.06515" lon="13.858955"><ele>447.0</ele><time>2026-05-02T11:54:14.098Z</time></trkpt><trkpt lat="42.0648683" lon="13.8590167"><ele>447.5</ele><time>2026-05-02T11:54:15.099Z</time></trkpt><trkpt lat="42.06459" lon="13.859075"><ele>448.0</ele><time>2026-05-02T11:54:16.099Z</time></trkpt><trkpt lat="42.0643083" lon="13.8591267"><ele>448.5</ele><time>2026-05-02T11:54:17.099Z</time></trkpt><trkpt lat="42.0640267" lon="13.8591633"><ele>449.0</ele><time>2026-05-02T11:54:18.098Z</time></trkpt><trkpt lat="42.063745" lon="13.85919"><ele>449.0</ele><time>2026-05-02T11:54:19.098Z</time></trkpt><trkpt lat="42.0634633" lon="13.859215"><ele>449.0</ele><time>2026-05-02T11:54:20.098Z</time></trkpt><trkpt lat="42.0631783" lon="13.8592283"><ele>448.0</ele><time>2026-05-02T11:54:21.099Z</time></trkpt><trkpt lat="42.0628983" lon="13.859245"><ele>447.0</ele><time>2026-05-02T11:54:22.098Z</time></trkpt><trkpt lat="42.0626133" lon="13.8592583"><ele>451.0</ele><time>2026-05-02T11:54:23.099Z</time></trkpt><trkpt lat="42.0623267" lon="13.8592583"><ele>455.0</ele><time>2026-05-02T11:54:24.099Z</time></trkpt><trkpt lat="42.06204" lon="13.8592583"><ele>455.0</ele><time>2026-05-02T11:54:25.099Z</time></trkpt><trkpt lat="42.061755" lon="13.8592683"><ele>455.0</ele><time>2026-05-02T11:54:26.099Z</time></trkpt><trkpt lat="42.061465" lon="13.8592783"><ele>460.5</ele><time>2026-05-02T11:54:27.099Z</time></trkpt><trkpt lat="42.0611717" lon="13.8592783"><ele>466.0</ele><time>2026-05-02T11:54:28.099Z</time></trkpt><trkpt lat="42.0608833" lon="13.8592867"><ele>476.5</ele><time>2026-05-02T11:54:29.098Z</time></trkpt><trkpt lat="42.060585" lon="13.8592967"><ele>487.0</ele><time>2026-05-02T11:54:30.099Z</time></trkpt><trkpt lat="42.0602883" lon="13.8593067"><ele>487.0</ele><time>2026-05-02T11:54:31.098Z</time></trkpt><trkpt lat="42.0599917" lon="13.859315"><ele>487.0</ele><time>2026-05-02T11:54:32.098Z</time></trkpt><trkpt lat="42.0597033" lon="13.8593033"><ele>485.5</ele><time>2026-05-02T11:54:33.098Z</time></trkpt><trkpt lat="42.0594167" lon="13.8592767"><ele>484.0</ele><time>2026-05-02T11:54:34.099Z</time></trkpt><trkpt lat="42.0591267" lon="13.8592367"><ele>488.5</ele><time>2026-05-02T11:54:35.098Z</time></trkpt><trkpt lat="42.0588383" lon="13.8591917"><ele>493.0</ele><time>2026-05-02T11:54:36.098Z</time></trkpt><trkpt lat="42.0585467" lon="13.8591667"><ele>488.0</ele><time>2026-05-02T11:54:37.098Z</time></trkpt><trkpt lat="42.0582567" lon="13.8591417"><ele>483.0</ele><time>2026-05-02T11:54:38.099Z</time></trkpt><trkpt lat="42.057965" lon="13.8591167"><ele>483.0</ele><time>2026-05-02T11:54:39.098Z</time></trkpt><trkpt lat="42.057675" lon="13.8590917"><ele>483.0</ele><time>2026-05-02T11:54:40.099Z</time></trkpt><trkpt lat="42.0573833" lon="13.8590683"><ele>471.0</ele><time>2026-05-02T11:54:41.098Z</time></trkpt><trkpt lat="42.0567" lon="13.859325"><ele>469.5</ele><time>2026-05-02T11:54:43.1Z</time></trkpt><trkpt lat="42.0563867" lon="13.8593283"><ele>468.0</ele><time>2026-05-02T11:54:44.1Z</time></trkpt><trkpt lat="42.0560667" lon="13.85934"><ele>466.5</ele><time>2026-05-02T11:54:45.1Z</time></trkpt><trkpt lat="42.0557433" lon="13.8593467"><ele>465.0</ele><time>2026-05-02T11:54:46.1Z</time></trkpt><trkpt lat="42.0554267" lon="13.85935"><ele>465.0</ele><time>2026-05-02T11:54:47.101Z</time></trkpt><trkpt lat="42.05511" lon="13.859355"><ele>465.0</ele><time>2026-05-02T11:54:48.101Z</time></trkpt><trkpt lat="42.0548" lon="13.8593617"><ele>459.5</ele><time>2026-05-02T11:54:49.1Z</time></trkpt><trkpt lat="42.0544933" lon="13.8593667"><ele>454.0</ele><time>2026-05-02T11:54:50.1Z</time></trkpt><trkpt lat="42.05418" lon="13.8593733"><ele>453.0</ele><time>2026-05-02T11:54:51.1Z</time></trkpt><trkpt lat="42.0538683" lon="13.8593783"><ele>452.0</ele><time>2026-05-02T11:54:52.101Z</time></trkpt><trkpt lat="42.0535567" lon="13.8593833"><ele>452.0</ele><time>2026-05-02T11:54:53.1Z</time></trkpt><trkpt lat="42.0532417" lon="13.85939"><ele>452.0</ele><time>2026-05-02T11:54:54.1Z</time></trkpt><trkpt lat="42.0529267" lon="13.8593917"><ele>452.0</ele><time>2026-05-02T11:54:55.1Z</time></trkpt><trkpt lat="42.0526133" lon="13.8593833"><ele>452.0</ele><time>2026-05-02T11:54:56.101Z</time></trkpt><trkpt lat="42.0523033" lon="13.859365"><ele>454.5</ele><time>2026-05-02T11:54:57.1Z</time></trkpt><trkpt lat="42.051995" lon="13.8593367"><ele>457.0</ele><time>2026-05-02T11:54:58.1Z</time></trkpt><trkpt lat="42.05169" lon="13.8593"><ele>470.5</ele><time>2026-05-02T11:54:59.1Z</time></trkpt><trkpt lat="42.0513867" lon="13.85925"><ele>484.0</ele><time>2026-05-02T11:55:00.1Z</time></trkpt><trkpt lat="42.0510817" lon="13.8591867"><ele>480.5</ele><time>2026-05-02T11:55:01.1Z</time></trkpt><trkpt lat="42.050785" lon="13.8591117"><ele>477.0</ele><time>2026-05-02T11:55:02.1Z</time></trkpt><trkpt lat="42.050485" lon="13.8590267"><ele>477.0</ele><time>2026-05-02T11:55:03.1Z</time></trkpt><trkpt lat="42.0501817" lon="13.8589267"><ele>477.0</ele><time>2026-05-02T11:55:04.101Z</time></trkpt><trkpt lat="42.0498867" lon="13.8588083"><ele>473.5</ele><time>2026-05-02T11:55:05.101Z</time></trkpt><trkpt lat="42.04959" lon="13.8586783"><ele>470.0</ele><time>2026-05-02T11:55:06.1Z</time></trkpt><trkpt lat="42.0493033" lon="13.8585483"><ele>478.5</ele><time>2026-05-02T11:55:07.101Z</time></trkpt><trkpt lat="42.0490117" lon="13.858405"><ele>487.0</ele><time>2026-05-02T11:55:08.101Z</time></trkpt><trkpt lat="42.048735" lon="13.8582533"><ele>487.0</ele><time>2026-05-02T11:55:09.1Z</time></trkpt><trkpt lat="42.04846" lon="13.8580883"><ele>487.0</ele><time>2026-05-02T11:55:10.1Z</time></trkpt><trkpt lat="42.0481933" lon="13.8579067"><ele>487.0</ele><time>2026-05-02T11:55:11.1Z</time></trkpt><trkpt lat="42.0479317" lon="13.8577183"><ele>487.0</ele><time>2026-05-02T11:55:12.1Z</time></trkpt><trkpt lat="42.0476783" lon="13.857525"><ele>488.5</ele><time>2026-05-02T11:55:13.1Z</time></trkpt><trkpt lat="42.0474317" lon="13.8573167"><ele>490.0</ele><time>2026-05-02T11:55:14.1Z</time></trkpt><trkpt lat="42.0471817" lon="13.857095"><ele>490.0</ele><time>2026-05-02T11:55:15.1Z</time></trkpt><trkpt lat="42.0469433" lon="13.8568583"><ele>490.0</ele><time>2026-05-02T11:55:16.101Z</time></trkpt><trkpt lat="42.046705" lon="13.856625"><ele>483.5</ele><time>2026-05-02T11:55:17.1Z</time></trkpt><trkpt lat="42.0464733" lon="13.8563933"><ele>477.0</ele><time>2026-05-02T11:55:18.1Z</time></trkpt><trkpt lat="42.0462417" lon="13.85616"><ele>477.0</ele><time>2026-05-02T11:55:19.1Z</time></trkpt><trkpt lat="42.0460033" lon="13.855935"><ele>477.0</ele><time>2026-05-02T11:55:20.1Z</time></trkpt><trkpt lat="42.0457667" lon="13.85571"><ele>477.0</ele><time>2026-05-02T11:55:21.101Z</time></trkpt><trkpt lat="42.0455283" lon="13.855495"><ele>477.0</ele><time>2026-05-02T11:55:22.101Z</time></trkpt><trkpt lat="42.0452817" lon="13.8552933"><ele>487.0</ele><time>2026-05-02T11:55:23.1Z</time></trkpt><trkpt lat="42.0450317" lon="13.855095"><ele>497.0</ele><time>2026-05-02T11:55:24.101Z</time></trkpt><trkpt lat="42.0447817" lon="13.8549083"><ele>503.5</ele><time>2026-05-02T11:55:25.101Z</time></trkpt><trkpt lat="42.0445333" lon="13.854745"><ele>510.0</ele><time>2026-05-02T11:55:26.101Z</time></trkpt><trkpt lat="42.0442783" lon="13.854585"><ele>507.0</ele><time>2026-05-02T11:55:27.101Z</time></trkpt><trkpt lat="42.0440117" lon="13.8544117"><ele>504.0</ele><time>2026-05-02T11:55:28.101Z</time></trkpt><trkpt lat="42.0437383" lon="13.854245"><ele>506.0</ele><time>2026-05-02T11:55:29.101Z</time></trkpt><trkpt lat="42.0434817" lon="13.8540767"><ele>508.0</ele><time>2026-05-02T11:55:30.1Z</time></trkpt><trkpt lat="42.0432217" lon="13.8539017"><ele>508.0</ele><time>2026-05-02T11:55:31.1Z</time></trkpt><trkpt lat="42.0429683" lon="13.85371"><ele>508.0</ele><time>2026-05-02T11:55:32.1Z</time></trkpt><trkpt lat="42.0427283" lon="13.8535117"><ele>507.0</ele><time>2026-05-02T11:55:33.1Z</time></trkpt><trkpt lat="42.0424967" lon="13.8532983"><ele>506.0</ele><time>2026-05-02T11:55:34.101Z</time></trkpt><trkpt lat="42.0422667" lon="13.8530533"><ele>506.0</ele><time>2026-05-02T11:55:35.101Z</time></trkpt><trkpt lat="42.0420483" lon="13.8528017"><ele>506.0</ele><time>2026-05-02T11:55:36.1Z</time></trkpt><trkpt lat="42.0418467" lon="13.8525333"><ele>500.5</ele><time>2026-05-02T11:55:37.1Z</time></trkpt><trkpt lat="42.0416433" lon="13.852255"><ele>495.0</ele><time>2026-05-02T11:55:38.1Z</time></trkpt><trkpt lat="42.04146" lon="13.85197"><ele>502.0</ele><time>2026-05-02T11:55:39.1Z</time></trkpt><trkpt lat="42.0412783" lon="13.85168"><ele>509.0</ele><time>2026-05-02T11:55:40.1Z</time></trkpt><trkpt lat="42.0411017" lon="13.8513917"><ele>509.0</ele><time>2026-05-02T11:55:41.101Z</time></trkpt><trkpt lat="42.040925" lon="13.851095"><ele>509.0</ele><time>2026-05-02T11:55:42.101Z</time></trkpt><trkpt lat="42.0407467" lon="13.850795"><ele>499.0</ele><time>2026-05-02T11:55:43.1Z</time></trkpt><trkpt lat="42.0405667" lon="13.8505083"><ele>489.0</ele><time>2026-05-02T11:55:44.1Z</time></trkpt><trkpt lat="42.04038" lon="13.8502167"><ele>497.5</ele><time>2026-05-02T11:55:45.101Z</time></trkpt><trkpt lat="42.04019" lon="13.8499333"><ele>506.0</ele><time>2026-05-02T11:55:46.101Z</time></trkpt><trkpt lat="42.0400033" lon="13.8496567"><ele>501.0</ele><time>2026-05-02T11:55:47.1Z</time></trkpt><trkpt lat="42.0398033" lon="13.849385"><ele>496.0</ele><time>2026-05-02T11:55:48.1Z</time></trkpt><trkpt lat="42.0396033" lon="13.8491183"><ele>496.0</ele><time>2026-05-02T11:55:49.1Z</time></trkpt><trkpt lat="42.0393867" lon="13.848865"><ele>496.0</ele><time>2026-05-02T11:55:50.101Z</time></trkpt><trkpt lat="42.03917" lon="13.8486267"><ele>498.0</ele><time>2026-05-02T11:55:51.1Z</time></trkpt><trkpt lat="42.03895" lon="13.8483983"><ele>500.0</ele><time>2026-05-02T11:55:52.1Z</time></trkpt><trkpt lat="42.038725" lon="13.8481783"><ele>500.0</ele><time>2026-05-02T11:55:53.1Z</time></trkpt><trkpt lat="42.0384967" lon="13.8479633"><ele>500.0</ele><time>2026-05-02T11:55:54.1Z</time></trkpt><trkpt lat="42.0382633" lon="13.84776"><ele>506.5</ele><time>2026-05-02T11:55:55.101Z</time></trkpt><trkpt lat="42.03802" lon="13.8475617"><ele>513.0</ele><time>2026-05-02T11:55:56.1Z</time></trkpt><trkpt lat="42.037775" lon="13.847365"><ele>513.0</ele><time>2026-05-02T11:55:57.1Z</time></trkpt><trkpt lat="42.0375333" lon="13.8471817"><ele>513.0</ele><time>2026-05-02T11:55:58.1Z</time></trkpt><trkpt lat="42.0372883" lon="13.847"><ele>519.0</ele><time>2026-05-02T11:55:59.1Z</time></trkpt><trkpt lat="42.0370467" lon="13.8468167"><ele>525.0</ele><time>2026-05-02T11:56:00.1Z</time></trkpt><trkpt lat="42.036805" lon="13.8466267"><ele>520.5</ele><time>2026-05-02T11:56:01.101Z</time></trkpt><trkpt lat="42.0365717" lon="13.84643"><ele>516.0</ele><time>2026-05-02T11:56:02.1Z</time></trkpt><trkpt lat="42.0363333" lon="13.84623"><ele>516.0</ele><time>2026-05-02T11:56:03.1Z</time></trkpt><trkpt lat="42.0361067" lon="13.84602"><ele>516.0</ele><time>2026-05-02T11:56:04.1Z</time></trkpt><trkpt lat="42.0358767" lon="13.845795"><ele>528.0</ele><time>2026-05-02T11:56:05.101Z</time></trkpt><trkpt lat="42.0356633" lon="13.8455633"><ele>540.0</ele><time>2026-05-02T11:56:06.101Z</time></trkpt><trkpt lat="42.0354467" lon="13.845315"><ele>556.5</ele><time>2026-05-02T11:56:07.1Z</time></trkpt><trkpt lat="42.0352483" lon="13.84506"><ele>573.0</ele><time>2026-05-02T11:56:08.1Z</time></trkpt><trkpt lat="42.03505" lon="13.8447933"><ele>573.0</ele><time>2026-05-02T11:56:09.101Z</time></trkpt><trkpt lat="42.0348667" lon="13.84453"><ele>573.0</ele><time>2026-05-02T11:56:10.1Z</time></trkpt><trkpt lat="42.034685" lon="13.8442533"><ele>573.0</ele><time>2026-05-02T11:56:11.1Z</time></trkpt><trkpt lat="42.034515" lon="13.84396"><ele>573.0</ele><time>2026-05-02T11:56:12.101Z</time></trkpt><trkpt lat="42.03435" lon="13.84366"><ele>568.5</ele><time>2026-05-02T11:56:13.101Z</time></trkpt><trkpt lat="42.034185" lon="13.8433533"><ele>564.0</ele><time>2026-05-02T11:56:14.1Z</time></trkpt><trkpt lat="42.0340217" lon="13.8430417"><ele>564.0</ele><time>2026-05-02T11:56:15.101Z</time></trkpt><trkpt lat="42.0338633" lon="13.8427383"><ele>564.0</ele><time>2026-05-02T11:56:16.1Z</time></trkpt><trkpt lat="42.03371" lon="13.8424267"><ele>571.0</ele><time>2026-05-02T11:56:17.1Z</time></trkpt><trkpt lat="42.03355" lon="13.842115"><ele>578.0</ele><time>2026-05-02T11:56:18.1Z</time></trkpt><trkpt lat="42.0333983" lon="13.8418033"><ele>573.5</ele><time>2026-05-02T11:56:19.1Z</time></trkpt><trkpt lat="42.0332383" lon="13.84151"><ele>569.0</ele><time>2026-05-02T11:56:20.101Z</time></trkpt><trkpt lat="42.0330783" lon="13.8412183"><ele>580.0</ele><time>2026-05-02T11:56:21.1Z</time></trkpt><trkpt lat="42.0329117" lon="13.840925"><ele>591.0</ele><time>2026-05-02T11:56:22.101Z</time></trkpt><trkpt lat="42.032735" lon="13.840645"><ele>591.0</ele><time>2026-05-02T11:56:23.101Z</time></trkpt><trkpt lat="42.0325533" lon="13.8403683"><ele>591.0</ele><time>2026-05-02T11:56:24.101Z</time></trkpt><trkpt lat="42.0323617" lon="13.8400967"><ele>591.5</ele><time>2026-05-02T11:56:25.1Z</time></trkpt><trkpt lat="42.03216" lon="13.8398383"><ele>592.0</ele><time>2026-05-02T11:56:26.1Z</time></trkpt><trkpt lat="42.031945" lon="13.8395717"><ele>592.0</ele><time>2026-05-02T11:56:27.101Z</time></trkpt><trkpt lat="42.0317417" lon="13.8393283"><ele>592.0</ele><time>2026-05-02T11:56:28.1Z</time></trkpt><trkpt lat="42.0315433" lon="13.839095"><ele>591.5</ele><time>2026-05-02T11:56:29.101Z</time></trkpt><trkpt lat="42.0313283" lon="13.8388733"><ele>591.0</ele><time>2026-05-02T11:56:30.1Z</time></trkpt><trkpt lat="42.0311083" lon="13.8386467"><ele>595.5</ele><time>2026-05-02T11:56:31.1Z</time></trkpt><trkpt lat="42.0308767" lon="13.838435"><ele>600.0</ele><time>2026-05-02T11:56:32.101Z</time></trkpt><trkpt lat="42.03064" lon="13.8382267"><ele>600.0</ele><time>2026-05-02T11:56:33.1Z</time></trkpt><trkpt lat="42.0304033" lon="13.838035"><ele>600.0</ele><time>2026-05-02T11:56:34.101Z</time></trkpt><trkpt lat="42.030165" lon="13.8378617"><ele>595.5</ele><time>2026-05-02T11:56:35.1Z</time></trkpt><trkpt lat="42.0299217" lon="13.8376967"><ele>591.0</ele><time>2026-05-02T11:56:36.101Z</time></trkpt><trkpt lat="42.02967" lon="13.8375367"><ele>602.5</ele><time>2026-05-02T11:56:37.1Z</time></trkpt><trkpt lat="42.02942" lon="13.8373883"><ele>614.0</ele><time>2026-05-02T11:56:38.101Z</time></trkpt><trkpt lat="42.0291683" lon="13.8372433"><ele>603.5</ele><time>2026-05-02T11:56:39.1Z</time></trkpt><trkpt lat="42.0289083" lon="13.8371083"><ele>593.0</ele><time>2026-05-02T11:56:40.101Z</time></trkpt><trkpt lat="42.0286517" lon="13.836985"><ele>593.0</ele><time>2026-05-02T11:56:41.101Z</time></trkpt><trkpt lat="42.0283933" lon="13.8368733"><ele>593.0</ele><time>2026-05-02T11:56:42.1Z</time></trkpt><trkpt lat="42.0281317" lon="13.8367683"><ele>602.5</ele><time>2026-05-02T11:56:43.1Z</time></trkpt><trkpt lat="42.0278667" lon="13.83666"><ele>612.0</ele><time>2026-05-02T11:56:44.101Z</time></trkpt><trkpt lat="42.0276067" lon="13.83657"><ele>608.0</ele><time>2026-05-02T11:56:45.1Z</time></trkpt><trkpt lat="42.0273433" lon="13.8364833"><ele>604.0</ele><time>2026-05-02T11:56:46.101Z</time></trkpt><trkpt lat="42.0270783" lon="13.836405"><ele>604.0</ele><time>2026-05-02T11:56:47.1Z</time></trkpt><trkpt lat="42.02681" lon="13.8363317"><ele>604.0</ele><time>2026-05-02T11:56:48.101Z</time></trkpt><trkpt lat="42.026545" lon="13.8362533"><ele>601.5</ele><time>2026-05-02T11:56:49.1Z</time></trkpt><trkpt lat="42.0262783" lon="13.836175"><ele>599.0</ele><time>2026-05-02T11:56:50.1Z</time></trkpt><trkpt lat="42.0260083" lon="13.836095"><ele>593.5</ele><time>2026-05-02T11:56:51.101Z</time></trkpt><trkpt lat="42.02574" lon="13.8360117"><ele>588.0</ele><time>2026-05-02T11:56:52.101Z</time></trkpt><trkpt lat="42.0254717" lon="13.8359267"><ele>605.0</ele><time>2026-05-02T11:56:53.101Z</time></trkpt><trkpt lat="42.025205" lon="13.83583"><ele>622.0</ele><time>2026-05-02T11:56:54.101Z</time></trkpt><trkpt lat="42.02494" lon="13.8357467"><ele>622.0</ele><time>2026-05-02T11:56:55.1Z</time></trkpt><trkpt lat="42.024675" lon="13.835665"><ele>622.0</ele><time>2026-05-02T11:56:56.1Z</time></trkpt><trkpt lat="42.0244067" lon="13.8355767"><ele>619.0</ele><time>2026-05-02T11:56:57.1Z</time></trkpt><trkpt lat="42.02414" lon="13.8354833"><ele>616.0</ele><time>2026-05-02T11:56:58.101Z</time></trkpt><trkpt lat="42.0238767" lon="13.8353833"><ele>616.0</ele><time>2026-05-02T11:56:59.1Z</time></trkpt><trkpt lat="42.0236167" lon="13.8352783"><ele>616.0</ele><time>2026-05-02T11:57:00.1Z</time></trkpt><trkpt lat="42.0233533" lon="13.83517"><ele>625.5</ele><time>2026-05-02T11:57:01.1Z</time></trkpt><trkpt lat="42.0230933" lon="13.83505"><ele>635.0</ele><time>2026-05-02T11:57:02.099Z</time></trkpt><trkpt lat="42.02284" lon="13.8349267"><ele>635.0</ele><time>2026-05-02T11:57:03.099Z</time></trkpt><trkpt lat="42.0225867" lon="13.8347917"><ele>635.0</ele><time>2026-05-02T11:57:04.099Z</time></trkpt><trkpt lat="42.0223217" lon="13.8346367"><ele>638.0</ele><time>2026-05-02T11:57:05.099Z</time></trkpt><trkpt lat="42.0220633" lon="13.8344617"><ele>641.0</ele><time>2026-05-02T11:57:06.1Z</time></trkpt><trkpt lat="42.0218133" lon="13.8342867"><ele>629.0</ele><time>2026-05-02T11:57:07.1Z</time></trkpt><trkpt lat="42.02158" lon="13.83411"><ele>617.0</ele><time>2026-05-02T11:57:08.099Z</time></trkpt><trkpt lat="42.0213467" lon="13.83392"><ele>617.0</ele><time>2026-05-02T11:57:09.099Z</time></trkpt><trkpt lat="42.0211033" lon="13.8337033"><ele>617.0</ele><time>2026-05-02T11:57:10.1Z</time></trkpt><trkpt lat="42.0208767" lon="13.8334783"><ele>622.0</ele><time>2026-05-02T11:57:11.1Z</time></trkpt><trkpt lat="42.020655" lon="13.8332433"><ele>627.0</ele><time>2026-05-02T11:57:12.099Z</time></trkpt><trkpt lat="42.0204533" lon="13.833"><ele>627.0</ele><time>2026-05-02T11:57:13.099Z</time></trkpt><trkpt lat="42.0202633" lon="13.832745"><ele>627.0</ele><time>2026-05-02T11:57:14.099Z</time></trkpt><trkpt lat="42.0200733" lon="13.83247"><ele>623.5</ele><time>2026-05-02T11:57:15.1Z</time></trkpt><trkpt lat="42.0198967" lon="13.832175"><ele>620.0</ele><time>2026-05-02T11:57:16.099Z</time></trkpt><trkpt lat="42.0197367" lon="13.8318717"><ele>632.0</ele><time>2026-05-02T11:57:17.1Z</time></trkpt><trkpt lat="42.01959" lon="13.83155"><ele>644.0</ele><time>2026-05-02T11:57:18.099Z</time></trkpt><trkpt lat="42.0194433" lon="13.8312133"><ele>654.0</ele><time>2026-05-02T11:57:19.1Z</time></trkpt><trkpt lat="42.019315" lon="13.8308817"><ele>664.0</ele><time>2026-05-02T11:57:20.1Z</time></trkpt><trkpt lat="42.0191933" lon="13.830555"><ele>640.5</ele><time>2026-05-02T11:57:21.1Z</time></trkpt><trkpt lat="42.0190733" lon="13.83022"><ele>617.0</ele><time>2026-05-02T11:57:22.099Z</time></trkpt><trkpt lat="42.018955" lon="13.8298867"><ele>617.0</ele><time>2026-05-02T11:57:23.099Z</time></trkpt><trkpt lat="42.0188267" lon="13.8295483"><ele>617.0</ele><time>2026-05-02T11:57:24.1Z</time></trkpt><trkpt lat="42.0187" lon="13.829215"><ele>622.5</ele><time>2026-05-02T11:57:25.099Z</time></trkpt><trkpt lat="42.0185633" lon="13.8288783"><ele>628.0</ele><time>2026-05-02T11:57:26.1Z</time></trkpt><trkpt lat="42.018435" lon="13.8285533"><ele>628.0</ele><time>2026-05-02T11:57:27.1Z</time></trkpt><trkpt lat="42.0182817" lon="13.8282283"><ele>628.0</ele><time>2026-05-02T11:57:28.099Z</time></trkpt><trkpt lat="42.0181217" lon="13.8279217"><ele>650.5</ele><time>2026-05-02T11:57:29.1Z</time></trkpt><trkpt lat="42.0179583" lon="13.8276317"><ele>673.0</ele><time>2026-05-02T11:57:30.099Z</time></trkpt><trkpt lat="42.0177733" lon="13.8273517"><ele>673.0</ele><time>2026-05-02T11:57:31.099Z</time></trkpt><trkpt lat="42.0175783" lon="13.8270917"><ele>673.0</ele><time>2026-05-02T11:57:32.099Z</time></trkpt><trkpt lat="42.017375" lon="13.8268417"><ele>675.0</ele><time>2026-05-02T11:57:33.099Z</time></trkpt><trkpt lat="42.0171483" lon="13.8266067"><ele>677.0</ele><time>2026-05-02T11:57:34.099Z</time></trkpt><trkpt lat="42.016925" lon="13.8263867"><ele>677.0</ele><time>2026-05-02T11:57:35.1Z</time></trkpt><trkpt lat="42.0166933" lon="13.8261917"><ele>677.0</ele><time>2026-05-02T11:57:36.1Z</time></trkpt><trkpt lat="42.016455" lon="13.8260217"><ele>682.5</ele><time>2026-05-02T11:57:37.099Z</time></trkpt><trkpt lat="42.0162067" lon="13.82586"><ele>688.0</ele><time>2026-05-02T11:57:38.099Z</time></trkpt><trkpt lat="42.0159617" lon="13.82571"><ele>678.5</ele><time>2026-05-02T11:57:39.1Z</time></trkpt><trkpt lat="42.015715" lon="13.8255583"><ele>669.0</ele><time>2026-05-02T11:57:40.099Z</time></trkpt><trkpt lat="42.0154633" lon="13.8254017"><ele>669.0</ele><time>2026-05-02T11:57:41.099Z</time></trkpt><trkpt lat="42.01521" lon="13.8252317"><ele>669.0</ele><time>2026-05-02T11:57:42.099Z</time></trkpt><trkpt lat="42.0149683" lon="13.82506"><ele>684.5</ele><time>2026-05-02T11:57:43.099Z</time></trkpt><trkpt lat="42.0147367" lon="13.8248817"><ele>700.0</ele><time>2026-05-02T11:57:44.1Z</time></trkpt><trkpt lat="42.0145017" lon="13.8246933"><ele>700.0</ele><time>2026-05-02T11:57:45.1Z</time></trkpt><trkpt lat="42.0142733" lon="13.824515"><ele>700.0</ele><time>2026-05-02T11:57:46.099Z</time></trkpt><trkpt lat="42.01403" lon="13.824325"><ele>711.5</ele><time>2026-05-02T11:57:47.1Z</time></trkpt><trkpt lat="42.0137917" lon="13.8241233"><ele>723.0</ele><time>2026-05-02T11:57:48.1Z</time></trkpt><trkpt lat="42.0135583" lon="13.8239083"><ele>711.0</ele><time>2026-05-02T11:57:49.1Z</time></trkpt><trkpt lat="42.0133183" lon="13.8236933"><ele>699.0</ele><time>2026-05-02T11:57:50.1Z</time></trkpt><trkpt lat="42.0130833" lon="13.8234517"><ele>699.0</ele><time>2026-05-02T11:57:51.099Z</time></trkpt><trkpt lat="42.012845" lon="13.8232367"><ele>699.0</ele><time>2026-05-02T11:57:52.1Z</time></trkpt><trkpt lat="42.012605" lon="13.8230217"><ele>675.5</ele><time>2026-05-02T11:57:53.1Z</time></trkpt><trkpt lat="42.012365" lon="13.8228033"><ele>652.0</ele><time>2026-05-02T11:57:54.099Z</time></trkpt><trkpt lat="42.01125" lon="13.821585"><ele>684.0</ele><time>2026-05-02T11:57:59.101Z</time></trkpt><trkpt lat="42.0121" lon="13.8203167"><ele>690.0</ele><time>2026-05-02T11:58:00.1Z</time></trkpt><trkpt lat="42.012205" lon="13.8198767"><ele>696.0</ele><time>2026-05-02T11:58:01.101Z</time></trkpt><trkpt lat="42.0121367" lon="13.8194783"><ele>700.5</ele><time>2026-05-02T11:58:02.1Z</time></trkpt><trkpt lat="42.0120917" lon="13.81911"><ele>705.0</ele><time>2026-05-02T11:58:03.101Z</time></trkpt><trkpt lat="42.0120533" lon="13.81874"><ele>710.5</ele><time>2026-05-02T11:58:04.1Z</time></trkpt><trkpt lat="42.0120083" lon="13.8183733"><ele>716.0</ele><time>2026-05-02T11:58:05.1Z</time></trkpt><trkpt lat="42.0119633" lon="13.8180033"><ele>721.5</ele><time>2026-05-02T11:58:06.1Z</time></trkpt><trkpt lat="42.011915" lon="13.8176333"><ele>727.0</ele><time>2026-05-02T11:58:07.101Z</time></trkpt><trkpt lat="42.0118633" lon="13.8172667"><ele>727.0</ele><time>2026-05-02T11:58:08.1Z</time></trkpt><trkpt lat="42.01182" lon="13.816895"><ele>727.0</ele><time>2026-05-02T11:58:09.101Z</time></trkpt><trkpt lat="42.0117767" lon="13.81652"><ele>730.0</ele><time>2026-05-02T11:58:10.1Z</time></trkpt><trkpt lat="42.01173" lon="13.8161483"><ele>733.0</ele><time>2026-05-02T11:58:11.101Z</time></trkpt><trkpt lat="42.011685" lon="13.8157717"><ele>714.5</ele><time>2026-05-02T11:58:12.101Z</time></trkpt><trkpt lat="42.011645" lon="13.8154033"><ele>696.0</ele><time>2026-05-02T11:58:13.101Z</time></trkpt><trkpt lat="42.0116083" lon="13.8150217"><ele>695.5</ele><time>2026-05-02T11:58:14.101Z</time></trkpt><trkpt lat="42.0115633" lon="13.814645"><ele>695.0</ele><time>2026-05-02T11:58:15.1Z</time></trkpt><trkpt lat="42.0115217" lon="13.8142667"><ele>701.0</ele><time>2026-05-02T11:58:16.101Z</time></trkpt><trkpt lat="42.0114833" lon="13.81388"><ele>707.0</ele><time>2026-05-02T11:58:17.1Z</time></trkpt><trkpt lat="42.011465" lon="13.8134917"><ele>713.5</ele><time>2026-05-02T11:58:18.1Z</time></trkpt><trkpt lat="42.011435" lon="13.8131033"><ele>720.0</ele><time>2026-05-02T11:58:19.101Z</time></trkpt><trkpt lat="42.0114117" lon="13.81271"><ele>724.0</ele><time>2026-05-02T11:58:20.101Z</time></trkpt><trkpt lat="42.0113967" lon="13.8123133"><ele>728.0</ele><time>2026-05-02T11:58:21.1Z</time></trkpt><trkpt lat="42.01138" lon="13.8119117"><ele>729.0</ele><time>2026-05-02T11:58:22.101Z</time></trkpt><trkpt lat="42.011375" lon="13.8115217"><ele>730.0</ele><time>2026-05-02T11:58:23.1Z</time></trkpt><trkpt lat="42.0113817" lon="13.8111267"><ele>732.0</ele><time>2026-05-02T11:58:24.101Z</time></trkpt><trkpt lat="42.01139" lon="13.8107267"><ele>734.0</ele><time>2026-05-02T11:58:25.1Z</time></trkpt><trkpt lat="42.011415" lon="13.81033"><ele>737.5</ele><time>2026-05-02T11:58:26.101Z</time></trkpt><trkpt lat="42.0114567" lon="13.809935"><ele>741.0</ele><time>2026-05-02T11:58:27.1Z</time></trkpt><trkpt lat="42.0115067" lon="13.809535"><ele>736.0</ele><time>2026-05-02T11:58:28.101Z</time></trkpt><trkpt lat="42.011555" lon="13.8091433"><ele>731.0</ele><time>2026-05-02T11:58:29.1Z</time></trkpt><trkpt lat="42.01161" lon="13.80875"><ele>741.5</ele><time>2026-05-02T11:58:30.101Z</time></trkpt><trkpt lat="42.0116767" lon="13.8083617"><ele>752.0</ele><time>2026-05-02T11:58:31.101Z</time></trkpt><trkpt lat="42.0117567" lon="13.807985"><ele>750.5</ele><time>2026-05-02T11:58:32.101Z</time></trkpt><trkpt lat="42.0118467" lon="13.807605"><ele>749.0</ele><time>2026-05-02T11:58:33.1Z</time></trkpt><trkpt lat="42.0119483" lon="13.80723"><ele>749.0</ele><time>2026-05-02T11:58:34.101Z</time></trkpt><trkpt lat="42.0120667" lon="13.806865"><ele>749.0</ele><time>2026-05-02T11:58:35.1Z</time></trkpt><trkpt lat="42.0121833" lon="13.8065033"><ele>746.0</ele><time>2026-05-02T11:58:36.101Z</time></trkpt><trkpt lat="42.012305" lon="13.806145"><ele>743.0</ele><time>2026-05-02T11:58:37.1Z</time></trkpt><trkpt lat="42.0124333" lon="13.8057983"><ele>749.5</ele><time>2026-05-02T11:58:38.1Z</time></trkpt><trkpt lat="42.0125633" lon="13.805445"><ele>756.0</ele><time>2026-05-02T11:58:39.1Z</time></trkpt><trkpt lat="42.0126917" lon="13.8050867"><ele>756.0</ele><time>2026-05-02T11:58:40.101Z</time></trkpt><trkpt lat="42.0128217" lon="13.804735"><ele>756.0</ele><time>2026-05-02T11:58:41.101Z</time></trkpt><trkpt lat="42.01296" lon="13.8043917"><ele>750.5</ele><time>2026-05-02T11:58:42.1Z</time></trkpt><trkpt lat="42.01309" lon="13.804035"><ele>745.0</ele><time>2026-05-02T11:58:43.1Z</time></trkpt><trkpt lat="42.0132183" lon="13.803675"><ele>756.0</ele><time>2026-05-02T11:58:44.1Z</time></trkpt><trkpt lat="42.0133433" lon="13.8033217"><ele>767.0</ele><time>2026-05-02T11:58:45.1Z</time></trkpt><trkpt lat="42.0134617" lon="13.8029633"><ele>760.5</ele><time>2026-05-02T11:58:46.101Z</time></trkpt><trkpt lat="42.013575" lon="13.8026067"><ele>754.0</ele><time>2026-05-02T11:58:47.1Z</time></trkpt><trkpt lat="42.0136817" lon="13.8022317"><ele>754.0</ele><time>2026-05-02T11:58:48.1Z</time></trkpt><trkpt lat="42.0137783" lon="13.8018583"><ele>754.0</ele><time>2026-05-02T11:58:49.1Z</time></trkpt><trkpt lat="42.0138733" lon="13.8014717"><ele>748.0</ele><time>2026-05-02T11:58:50.101Z</time></trkpt><trkpt lat="42.0139633" lon="13.80109"><ele>742.0</ele><time>2026-05-02T11:58:51.101Z</time></trkpt><trkpt lat="42.0140633" lon="13.8007033"><ele>753.0</ele><time>2026-05-02T11:58:52.101Z</time></trkpt><trkpt lat="42.0141567" lon="13.80032"><ele>764.0</ele><time>2026-05-02T11:58:53.1Z</time></trkpt><trkpt lat="42.0142533" lon="13.7999333"><ele>764.0</ele><time>2026-05-02T11:58:54.1Z</time></trkpt><trkpt lat="42.0143517" lon="13.7995467"><ele>764.0</ele><time>2026-05-02T11:58:55.101Z</time></trkpt><trkpt lat="42.0144533" lon="13.7991683"><ele>764.5</ele><time>2026-05-02T11:58:56.1Z</time></trkpt><trkpt lat="42.0145633" lon="13.798785"><ele>765.0</ele><time>2026-05-02T11:58:57.101Z</time></trkpt><trkpt lat="42.01468" lon="13.7984033"><ele>765.0</ele><time>2026-05-02T11:58:58.101Z</time></trkpt><trkpt lat="42.0148167" lon="13.79803"><ele>765.0</ele><time>2026-05-02T11:58:59.101Z</time></trkpt><trkpt lat="42.014965" lon="13.7976617"><ele>772.0</ele><time>2026-05-02T11:59:00.101Z</time></trkpt><trkpt lat="42.015125" lon="13.7973033"><ele>779.0</ele><time>2026-05-02T11:59:01.1Z</time></trkpt><trkpt lat="42.015305" lon="13.7969467"><ele>776.0</ele><time>2026-05-02T11:59:02.1Z</time></trkpt><trkpt lat="42.015495" lon="13.796605"><ele>773.0</ele><time>2026-05-02T11:59:03.1Z</time></trkpt><trkpt lat="42.0157" lon="13.7962783"><ele>776.0</ele><time>2026-05-02T11:59:04.101Z</time></trkpt><trkpt lat="42.0159083" lon="13.79596"><ele>779.0</ele><time>2026-05-02T11:59:05.101Z</time></trkpt><trkpt lat="42.0161283" lon="13.7956433"><ele>779.0</ele><time>2026-05-02T11:59:06.101Z</time></trkpt><trkpt lat="42.016355" lon="13.7953367"><ele>779.0</ele><time>2026-05-02T11:59:07.1Z</time></trkpt><trkpt lat="42.0165967" lon="13.795035"><ele>778.5</ele><time>2026-05-02T11:59:08.1Z</time></trkpt><trkpt lat="42.01684" lon="13.7947467"><ele>778.0</ele><time>2026-05-02T11:59:09.1Z</time></trkpt><trkpt lat="42.0170783" lon="13.79447"><ele>777.0</ele><time>2026-05-02T11:59:10.1Z</time></trkpt><trkpt lat="42.017315" lon="13.7942017"><ele>776.0</ele><time>2026-05-02T11:59:11.1Z</time></trkpt><trkpt lat="42.017545" lon="13.793945"><ele>776.0</ele><time>2026-05-02T11:59:12.101Z</time></trkpt><trkpt lat="42.01777" lon="13.793695"><ele>776.0</ele><time>2026-05-02T11:59:13.1Z</time></trkpt><trkpt lat="42.0179833" lon="13.793455"><ele>778.0</ele><time>2026-05-02T11:59:14.1Z</time></trkpt><trkpt lat="42.0181967" lon="13.793215"><ele>780.0</ele><time>2026-05-02T11:59:15.1Z</time></trkpt><trkpt lat="42.0184133" lon="13.7929733"><ele>780.0</ele><time>2026-05-02T11:59:16.1Z</time></trkpt><trkpt lat="42.0186167" lon="13.7927433"><ele>780.0</ele><time>2026-05-02T11:59:17.101Z</time></trkpt><trkpt lat="42.018825" lon="13.7925117"><ele>783.0</ele><time>2026-05-02T11:59:18.1Z</time></trkpt><trkpt lat="42.0190317" lon="13.792275"><ele>786.0</ele><time>2026-05-02T11:59:19.101Z</time></trkpt><trkpt lat="42.0192433" lon="13.7920433"><ele>779.0</ele><time>2026-05-02T11:59:20.101Z</time></trkpt><trkpt lat="42.0194617" lon="13.7918067"><ele>772.0</ele><time>2026-05-02T11:59:21.1Z</time></trkpt><trkpt lat="42.0196767" lon="13.79157"><ele>772.0</ele><time>2026-05-02T11:59:22.101Z</time></trkpt><trkpt lat="42.01989" lon="13.7913317"><ele>772.0</ele><time>2026-05-02T11:59:23.1Z</time></trkpt><trkpt lat="42.0201033" lon="13.79109"><ele>774.0</ele><time>2026-05-02T11:59:24.101Z</time></trkpt><trkpt lat="42.0203217" lon="13.7908467"><ele>776.0</ele><time>2026-05-02T11:59:25.101Z</time></trkpt><trkpt lat="42.0205317" lon="13.7906"><ele>776.0</ele><time>2026-05-02T11:59:26.101Z</time></trkpt><trkpt lat="42.020755" lon="13.7903583"><ele>776.0</ele><time>2026-05-02T11:59:27.101Z</time></trkpt><trkpt lat="42.0209733" lon="13.790115"><ele>779.0</ele><time>2026-05-02T11:59:28.101Z</time></trkpt><trkpt lat="42.0211917" lon="13.7898633"><ele>782.0</ele><time>2026-05-02T11:59:29.1Z</time></trkpt><trkpt lat="42.0214133" lon="13.7896133"><ele>782.0</ele><time>2026-05-02T11:59:30.1Z</time></trkpt><trkpt lat="42.0216333" lon="13.78936"><ele>782.0</ele><time>2026-05-02T11:59:31.101Z</time></trkpt><trkpt lat="42.0218517" lon="13.78911"><ele>785.0</ele><time>2026-05-02T11:59:32.1Z</time></trkpt><trkpt lat="42.0220683" lon="13.7888533"><ele>788.0</ele><time>2026-05-02T11:59:33.101Z</time></trkpt><trkpt lat="42.022285" lon="13.7886"><ele>789.5</ele><time>2026-05-02T11:59:34.1Z</time></trkpt><trkpt lat="42.0224983" lon="13.78834"><ele>791.0</ele><time>2026-05-02T11:59:35.1Z</time></trkpt><trkpt lat="42.0227133" lon="13.7880867"><ele>791.0</ele><time>2026-05-02T11:59:36.101Z</time></trkpt><trkpt lat="42.02293" lon="13.7878217"><ele>791.0</ele><time>2026-05-02T11:59:37.101Z</time></trkpt><trkpt lat="42.0231483" lon="13.78755"><ele>793.5</ele><time>2026-05-02T11:59:38.101Z</time></trkpt><trkpt lat="42.0233583" lon="13.78728"><ele>796.0</ele><time>2026-05-02T11:59:39.101Z</time></trkpt><trkpt lat="42.0235683" lon="13.7870017"><ele>789.5</ele><time>2026-05-02T11:59:40.1Z</time></trkpt><trkpt lat="42.0237717" lon="13.7867183"><ele>783.0</ele><time>2026-05-02T11:59:41.101Z</time></trkpt><trkpt lat="42.023975" lon="13.7864317"><ele>784.0</ele><time>2026-05-02T11:59:42.1Z</time></trkpt><trkpt lat="42.0241667" lon="13.7861317"><ele>785.0</ele><time>2026-05-02T11:59:43.101Z</time></trkpt><trkpt lat="42.0243467" lon="13.7858333"><ele>785.0</ele><time>2026-05-02T11:59:44.1Z</time></trkpt><trkpt lat="42.0245317" lon="13.7855217"><ele>785.0</ele><time>2026-05-02T11:59:45.1Z</time></trkpt><trkpt lat="42.0247117" lon="13.7852133"><ele>785.0</ele><time>2026-05-02T11:59:46.101Z</time></trkpt><trkpt lat="42.0248933" lon="13.784895"><ele>785.0</ele><time>2026-05-02T11:59:47.1Z</time></trkpt><trkpt lat="42.025065" lon="13.78457"><ele>779.5</ele><time>2026-05-02T11:59:48.1Z</time></trkpt><trkpt lat="42.02523" lon="13.7842333"><ele>774.0</ele><time>2026-05-02T11:59:49.1Z</time></trkpt><trkpt lat="42.02539" lon="13.7839"><ele>774.0</ele><time>2026-05-02T11:59:50.1Z</time></trkpt><trkpt lat="42.0255417" lon="13.7835533"><ele>774.0</ele><time>2026-05-02T11:59:51.101Z</time></trkpt><trkpt lat="42.0256883" lon="13.78321"><ele>773.0</ele><time>2026-05-02T11:59:52.1Z</time></trkpt><trkpt lat="42.02582" lon="13.7828583"><ele>772.0</ele><time>2026-05-02T11:59:53.1Z</time></trkpt><trkpt lat="42.0259483" lon="13.7824967"><ele>772.0</ele><time>2026-05-02T11:59:54.1Z</time></trkpt><trkpt lat="42.02607" lon="13.7821317"><ele>772.0</ele><time>2026-05-02T11:59:55.101Z</time></trkpt><trkpt lat="42.0261783" lon="13.781755"><ele>775.5</ele><time>2026-05-02T11:59:56.101Z</time></trkpt><trkpt lat="42.0262767" lon="13.7813767"><ele>779.0</ele><time>2026-05-02T11:59:57.1Z</time></trkpt><trkpt lat="42.0263667" lon="13.78099"><ele>783.0</ele><time>2026-05-02T11:59:58.1Z</time></trkpt><trkpt lat="42.0264467" lon="13.7806017"><ele>787.0</ele><time>2026-05-02T11:59:59.1Z</time></trkpt><trkpt lat="42.0265217" lon="13.7802017"><ele>792.5</ele><time>2026-05-02T12:00:00.1Z</time></trkpt><trkpt lat="42.0265883" lon="13.7798083"><ele>798.0</ele><time>2026-05-02T12:00:01.101Z</time></trkpt><trkpt lat="42.02664" lon="13.7794083"><ele>801.5</ele><time>2026-05-02T12:00:02.101Z</time></trkpt><trkpt lat="42.0266733" lon="13.7790033"><ele>805.0</ele><time>2026-05-02T12:00:03.1Z</time></trkpt><trkpt lat="42.0266917" lon="13.7785967"><ele>811.0</ele><time>2026-05-02T12:00:04.101Z</time></trkpt><trkpt lat="42.0267083" lon="13.778185"><ele>817.0</ele><time>2026-05-02T12:00:05.1Z</time></trkpt><trkpt lat="42.0267267" lon="13.77778"><ele>826.0</ele><time>2026-05-02T12:00:06.101Z</time></trkpt><trkpt lat="42.0267433" lon="13.777375"><ele>835.0</ele><time>2026-05-02T12:00:07.101Z</time></trkpt><trkpt lat="42.02675" lon="13.7769717"><ele>848.5</ele><time>2026-05-02T12:00:08.1Z</time></trkpt><trkpt lat="42.02677" lon="13.7765817"><ele>862.0</ele><time>2026-05-02T12:00:09.101Z</time></trkpt><trkpt lat="42.0268" lon="13.7761967"><ele>878.5</ele><time>2026-05-02T12:00:10.1Z</time></trkpt><trkpt lat="42.026825" lon="13.7758067"><ele>895.0</ele><time>2026-05-02T12:00:11.1Z</time></trkpt><trkpt lat="42.0268567" lon="13.77542"><ele>911.0</ele><time>2026-05-02T12:00:12.1Z</time></trkpt><trkpt lat="42.0268983" lon="13.7750467"><ele>927.0</ele><time>2026-05-02T12:00:13.1Z</time></trkpt><trkpt lat="42.02692" lon="13.7746567"><ele>945.0</ele><time>2026-05-02T12:00:14.1Z</time></trkpt><trkpt lat="42.0269417" lon="13.7742667"><ele>963.0</ele><time>2026-05-02T12:00:15.101Z</time></trkpt><trkpt lat="42.0269683" lon="13.77388"><ele>980.5</ele><time>2026-05-02T12:00:16.1Z</time></trkpt><trkpt lat="42.026995" lon="13.7734917"><ele>998.0</ele><time>2026-05-02T12:00:17.101Z</time></trkpt><trkpt lat="42.0270217" lon="13.773105"><ele>861.0</ele><time>2026-05-02T12:00:18.1Z</time></trkpt><trkpt lat="42.0206167" lon="13.7220733"><ele>861.0</ele><time>2026-05-02T12:02:10.1Z</time></trkpt><trkpt lat="42.0205583" lon="13.7215833"><ele>861.0</ele><time>2026-05-02T12:02:11.1Z</time></trkpt><trkpt lat="42.0205033" lon="13.72111"><ele>860.0</ele><time>2026-05-02T12:02:12.1Z</time></trkpt><trkpt lat="42.020455" lon="13.7206267"><ele>859.0</ele><time>2026-05-02T12:02:13.1Z</time></trkpt><trkpt lat="42.0203967" lon="13.72015"><ele>858.0</ele><time>2026-05-02T12:02:14.101Z</time></trkpt><trkpt lat="42.0203383" lon="13.719675"><ele>857.0</ele><time>2026-05-02T12:02:15.101Z</time></trkpt><trkpt lat="42.0202833" lon="13.7191983"><ele>856.0</ele><time>2026-05-02T12:02:16.1Z</time></trkpt><trkpt lat="42.0202383" lon="13.7187133"><ele>855.0</ele><time>2026-05-02T12:02:17.101Z</time></trkpt><trkpt lat="42.0201983" lon="13.718225"><ele>855.5</ele><time>2026-05-02T12:02:18.101Z</time></trkpt><trkpt lat="42.0201533" lon="13.71774"><ele>856.0</ele><time>2026-05-02T12:02:19.1Z</time></trkpt><trkpt lat="42.02012" lon="13.7172567"><ele>856.5</ele><time>2026-05-02T12:02:20.1Z</time></trkpt><trkpt lat="42.020105" lon="13.7167767"><ele>857.0</ele><time>2026-05-02T12:02:21.1Z</time></trkpt><trkpt lat="42.0200783" lon="13.7162883"><ele>856.5</ele><time>2026-05-02T12:02:22.101Z</time></trkpt><trkpt lat="42.0200617" lon="13.7157883"><ele>856.0</ele><time>2026-05-02T12:02:23.1Z</time></trkpt><trkpt lat="42.0200483" lon="13.7152933"><ele>856.0</ele><time>2026-05-02T12:02:24.101Z</time></trkpt><trkpt lat="42.0200467" lon="13.714805"><ele>856.0</ele><time>2026-05-02T12:02:25.101Z</time></trkpt><trkpt lat="42.0200483" lon="13.7143083"><ele>858.0</ele><time>2026-05-02T12:02:26.101Z</time></trkpt><trkpt lat="42.0200517" lon="13.7138217"><ele>860.0</ele><time>2026-05-02T12:02:27.101Z</time></trkpt><trkpt lat="42.02006" lon="13.713335"><ele>860.0</ele><time>2026-05-02T12:02:28.101Z</time></trkpt><trkpt lat="42.02008" lon="13.7128417"><ele>860.0</ele><time>2026-05-02T12:02:29.1Z</time></trkpt><trkpt lat="42.020105" lon="13.7123467"><ele>860.5</ele><time>2026-05-02T12:02:30.1Z</time></trkpt><trkpt lat="42.020135" lon="13.7118517"><ele>861.0</ele><time>2026-05-02T12:02:31.1Z</time></trkpt><trkpt lat="42.02017" lon="13.7113633"><ele>863.0</ele><time>2026-05-02T12:02:32.101Z</time></trkpt><trkpt lat="42.0202117" lon="13.71088"><ele>865.0</ele><time>2026-05-02T12:02:33.101Z</time></trkpt><trkpt lat="42.0202533" lon="13.7103883"><ele>866.0</ele><time>2026-05-02T12:02:34.1Z</time></trkpt><trkpt lat="42.020305" lon="13.709905"><ele>867.0</ele><time>2026-05-02T12:02:35.101Z</time></trkpt><trkpt lat="42.0203617" lon="13.7094233"><ele>867.0</ele><time>2026-05-02T12:02:36.101Z</time></trkpt><trkpt lat="42.0204217" lon="13.7089383"><ele>867.0</ele><time>2026-05-02T12:02:37.1Z</time></trkpt><trkpt lat="42.0204783" lon="13.70845"><ele>867.0</ele><time>2026-05-02T12:02:38.101Z</time></trkpt><trkpt lat="42.0205467" lon="13.707975"><ele>867.0</ele><time>2026-05-02T12:02:39.101Z</time></trkpt><trkpt lat="42.02062" lon="13.7074983"><ele>867.0</ele><time>2026-05-02T12:02:40.1Z</time></trkpt><trkpt lat="42.0206983" lon="13.7070283"><ele>867.0</ele><time>2026-05-02T12:02:41.1Z</time></trkpt><trkpt lat="42.0207817" lon="13.7065533"><ele>867.5</ele><time>2026-05-02T12:02:42.1Z</time></trkpt><trkpt lat="42.0208667" lon="13.7060917"><ele>868.0</ele><time>2026-05-02T12:02:43.1Z</time></trkpt><trkpt lat="42.0209567" lon="13.7056283"><ele>867.5</ele><time>2026-05-02T12:02:44.1Z</time></trkpt><trkpt lat="42.0210617" lon="13.70517"><ele>867.0</ele><time>2026-05-02T12:02:45.101Z</time></trkpt><trkpt lat="42.0211567" lon="13.70472"><ele>866.0</ele><time>2026-05-02T12:02:46.101Z</time></trkpt><trkpt lat="42.02126" lon="13.70426"><ele>865.0</ele><time>2026-05-02T12:02:47.101Z</time></trkpt><trkpt lat="42.02137" lon="13.7038033"><ele>864.0</ele><time>2026-05-02T12:02:48.1Z</time></trkpt><trkpt lat="42.02148" lon="13.70335"><ele>863.0</ele><time>2026-05-02T12:02:49.1Z</time></trkpt><trkpt lat="42.0216" lon="13.7029017"><ele>869.0</ele><time>2026-05-02T12:02:50.1Z</time></trkpt><trkpt lat="42.02173" lon="13.70245"><ele>875.0</ele><time>2026-05-02T12:02:51.101Z</time></trkpt><trkpt lat="42.0218633" lon="13.702"><ele>873.0</ele><time>2026-05-02T12:02:52.101Z</time></trkpt><trkpt lat="42.02201" lon="13.7015517"><ele>871.0</ele><time>2026-05-02T12:02:53.101Z</time></trkpt><trkpt lat="42.0221567" lon="13.7011067"><ele>869.5</ele><time>2026-05-02T12:02:54.101Z</time></trkpt><trkpt lat="42.0222983" lon="13.7006583"><ele>868.0</ele><time>2026-05-02T12:02:55.1Z</time></trkpt><trkpt lat="42.0224517" lon="13.7002117"><ele>868.5</ele><time>2026-05-02T12:02:56.1Z</time></trkpt><trkpt lat="42.0226167" lon="13.6997667"><ele>869.0</ele><time>2026-05-02T12:02:57.101Z</time></trkpt><trkpt lat="42.0227833" lon="13.6993217"><ele>869.0</ele><time>2026-05-02T12:02:58.1Z</time></trkpt><trkpt lat="42.022945" lon="13.698875"><ele>869.0</ele><time>2026-05-02T12:02:59.101Z</time></trkpt><trkpt lat="42.0231267" lon="13.698435"><ele>869.0</ele><time>2026-05-02T12:03:00.1Z</time></trkpt><trkpt lat="42.0233133" lon="13.6979933"><ele>869.0</ele><time>2026-05-02T12:03:01.1Z</time></trkpt><trkpt lat="42.02351" lon="13.6975583"><ele>869.0</ele><time>2026-05-02T12:03:02.1Z</time></trkpt><trkpt lat="42.0237067" lon="13.6971167"><ele>869.0</ele><time>2026-05-02T12:03:03.101Z</time></trkpt><trkpt lat="42.02391" lon="13.6966833"><ele>865.5</ele><time>2026-05-02T12:03:04.1Z</time></trkpt><trkpt lat="42.024115" lon="13.6962433"><ele>862.0</ele><time>2026-05-02T12:03:05.1Z</time></trkpt><trkpt lat="42.0243233" lon="13.69581"><ele>862.0</ele><time>2026-05-02T12:03:06.1Z</time></trkpt><trkpt lat="42.0245333" lon="13.6953817"><ele>862.0</ele><time>2026-05-02T12:03:07.1Z</time></trkpt><trkpt lat="42.02475" lon="13.6949517"><ele>859.0</ele><time>2026-05-02T12:03:08.1Z</time></trkpt><trkpt lat="42.024975" lon="13.6945167"><ele>856.0</ele><time>2026-05-02T12:03:09.101Z</time></trkpt><trkpt lat="42.02521" lon="13.6940767"><ele>856.0</ele><time>2026-05-02T12:03:10.1Z</time></trkpt><trkpt lat="42.0254533" lon="13.6936483"><ele>856.0</ele><time>2026-05-02T12:03:11.101Z</time></trkpt><trkpt lat="42.02569" lon="13.6932133"><ele>859.0</ele><time>2026-05-02T12:03:12.1Z</time></trkpt><trkpt lat="42.0259367" lon="13.692775"><ele>862.0</ele><time>2026-05-02T12:03:13.1Z</time></trkpt><trkpt lat="42.0261833" lon="13.69234"><ele>859.5</ele><time>2026-05-02T12:03:14.101Z</time></trkpt><trkpt lat="42.0264267" lon="13.6919017"><ele>857.0</ele><time>2026-05-02T12:03:15.1Z</time></trkpt><trkpt lat="42.0266717" lon="13.691465"><ele>851.0</ele><time>2026-05-02T12:03:16.101Z</time></trkpt><trkpt lat="42.02692" lon="13.6910333"><ele>845.0</ele><time>2026-05-02T12:03:17.101Z</time></trkpt><trkpt lat="42.02716" lon="13.69059"><ele>841.5</ele><time>2026-05-02T12:03:18.1Z</time></trkpt><trkpt lat="42.0274" lon="13.6901533"><ele>838.0</ele><time>2026-05-02T12:03:19.1Z</time></trkpt><trkpt lat="42.0276467" lon="13.6897133"><ele>840.0</ele><time>2026-05-02T12:03:20.101Z</time></trkpt><trkpt lat="42.0278883" lon="13.689275"><ele>842.0</ele><time>2026-05-02T12:03:21.1Z</time></trkpt><trkpt lat="42.028135" lon="13.6888383"><ele>847.5</ele><time>2026-05-02T12:03:22.1Z</time></trkpt><trkpt lat="42.02838" lon="13.6884033"><ele>853.0</ele><time>2026-05-02T12:03:23.101Z</time></trkpt><trkpt lat="42.02863" lon="13.6879733"><ele>853.0</ele><time>2026-05-02T12:03:24.101Z</time></trkpt><trkpt lat="42.028865" lon="13.687535"><ele>853.0</ele><time>2026-05-02T12:03:25.1Z</time></trkpt><trkpt lat="42.0291083" lon="13.687095"><ele>852.0</ele><time>2026-05-02T12:03:26.1Z</time></trkpt><trkpt lat="42.0293383" lon="13.686655"><ele>851.0</ele><time>2026-05-02T12:03:27.101Z</time></trkpt><trkpt lat="42.029575" lon="13.6862283"><ele>848.5</ele><time>2026-05-02T12:03:28.101Z</time></trkpt><trkpt lat="42.029815" lon="13.6858"><ele>846.0</ele><time>2026-05-02T12:03:29.1Z</time></trkpt><trkpt lat="42.0300617" lon="13.6853717"><ele>849.0</ele><time>2026-05-02T12:03:30.1Z</time></trkpt><trkpt lat="42.0302967" lon="13.6849417"><ele>852.0</ele><time>2026-05-02T12:03:31.1Z</time></trkpt><trkpt lat="42.03053" lon="13.684515"><ele>852.0</ele><time>2026-05-02T12:03:32.101Z</time></trkpt><trkpt lat="42.0307667" lon="13.68408"><ele>852.0</ele><time>2026-05-02T12:03:33.1Z</time></trkpt><trkpt lat="42.0309983" lon="13.6836533"><ele>852.5</ele><time>2026-05-02T12:03:34.101Z</time></trkpt><trkpt lat="42.03123" lon="13.68322"><ele>853.0</ele><time>2026-05-02T12:03:35.101Z</time></trkpt><trkpt lat="42.03146" lon="13.682795"><ele>853.0</ele><time>2026-05-02T12:03:36.1Z</time></trkpt><trkpt lat="42.03169" lon="13.682365"><ele>853.0</ele><time>2026-05-02T12:03:37.1Z</time></trkpt><trkpt lat="42.0319183" lon="13.6819267"><ele>853.0</ele><time>2026-05-02T12:03:38.1Z</time></trkpt><trkpt lat="42.0321417" lon="13.6814983"><ele>853.0</ele><time>2026-05-02T12:03:39.101Z</time></trkpt><trkpt lat="42.0323583" lon="13.6810517"><ele>853.5</ele><time>2026-05-02T12:03:40.101Z</time></trkpt><trkpt lat="42.032575" lon="13.6805967"><ele>854.0</ele><time>2026-05-02T12:03:41.101Z</time></trkpt><trkpt lat="42.0327917" lon="13.6801433"><ele>854.0</ele><time>2026-05-02T12:03:42.101Z</time></trkpt><trkpt lat="42.0329933" lon="13.6796817"><ele>854.0</ele><time>2026-05-02T12:03:43.101Z</time></trkpt><trkpt lat="42.0331817" lon="13.679215"><ele>855.0</ele><time>2026-05-02T12:03:44.101Z</time></trkpt><trkpt lat="42.03336" lon="13.6787317"><ele>856.0</ele><time>2026-05-02T12:03:45.1Z</time></trkpt><trkpt lat="42.033535" lon="13.6782533"><ele>851.0</ele><time>2026-05-02T12:03:46.1Z</time></trkpt><trkpt lat="42.0336867" lon="13.67776"><ele>846.0</ele><time>2026-05-02T12:03:47.1Z</time></trkpt><trkpt lat="42.033825" lon="13.6772667"><ele>837.5</ele><time>2026-05-02T12:03:48.1Z</time></trkpt><trkpt lat="42.0339517" lon="13.6767783"><ele>829.0</ele><time>2026-05-02T12:03:49.101Z</time></trkpt><trkpt lat="42.0340617" lon="13.6762933"><ele>831.0</ele><time>2026-05-02T12:03:50.101Z</time></trkpt><trkpt lat="42.0341583" lon="13.675805"><ele>833.0</ele><time>2026-05-02T12:03:51.1Z</time></trkpt><trkpt lat="42.0342483" lon="13.675315"><ele>824.0</ele><time>2026-05-02T12:03:52.1Z</time></trkpt><trkpt lat="42.03432" lon="13.6748133"><ele>815.0</ele><time>2026-05-02T12:03:53.101Z</time></trkpt><trkpt lat="42.0343833" lon="13.6743083"><ele>815.5</ele><time>2026-05-02T12:03:54.1Z</time></trkpt><trkpt lat="42.0344367" lon="13.673805"><ele>816.0</ele><time>2026-05-02T12:03:55.1Z</time></trkpt><trkpt lat="42.0344733" lon="13.6732983"><ele>816.0</ele><time>2026-05-02T12:03:56.1Z</time></trkpt><trkpt lat="42.0345017" lon="13.6727817"><ele>816.0</ele><time>2026-05-02T12:03:57.101Z</time></trkpt><trkpt lat="42.0345167" lon="13.6722567"><ele>825.0</ele><time>2026-05-02T12:03:58.1Z</time></trkpt><trkpt lat="42.034545" lon="13.6717433"><ele>834.0</ele><time>2026-05-02T12:03:59.101Z</time></trkpt><trkpt lat="42.03457" lon="13.6712217"><ele>837.0</ele><time>2026-05-02T12:04:00.101Z</time></trkpt><trkpt lat="42.0345967" lon="13.6707167"><ele>840.0</ele><time>2026-05-02T12:04:01.1Z</time></trkpt><trkpt lat="42.034625" lon="13.6702167"><ele>842.5</ele><time>2026-05-02T12:04:02.1Z</time></trkpt><trkpt lat="42.03465" lon="13.6697167"><ele>845.0</ele><time>2026-05-02T12:04:03.101Z</time></trkpt><trkpt lat="42.0346867" lon="13.669225"><ele>847.0</ele><time>2026-05-02T12:04:04.101Z</time></trkpt><trkpt lat="42.0347333" lon="13.6687383"><ele>849.0</ele><time>2026-05-02T12:04:05.1Z</time></trkpt><trkpt lat="42.034795" lon="13.66826"><ele>851.5</ele><time>2026-05-02T12:04:06.1Z</time></trkpt><trkpt lat="42.034865" lon="13.6677783"><ele>854.0</ele><time>2026-05-02T12:04:07.1Z</time></trkpt><trkpt lat="42.034945" lon="13.6673083"><ele>855.0</ele><time>2026-05-02T12:04:08.1Z</time></trkpt><trkpt lat="42.0350367" lon="13.6668383"><ele>856.0</ele><time>2026-05-02T12:04:09.1Z</time></trkpt><trkpt lat="42.035145" lon="13.666375"><ele>856.5</ele><time>2026-05-02T12:04:10.101Z</time></trkpt><trkpt lat="42.03528" lon="13.6659183"><ele>857.0</ele><time>2026-05-02T12:04:11.1Z</time></trkpt><trkpt lat="42.0354133" lon="13.66547"><ele>859.0</ele><time>2026-05-02T12:04:12.1Z</time></trkpt><trkpt lat="42.0355567" lon="13.665035"><ele>861.0</ele><time>2026-05-02T12:04:13.101Z</time></trkpt><trkpt lat="42.0357067" lon="13.6646017"><ele>859.5</ele><time>2026-05-02T12:04:14.101Z</time></trkpt><trkpt lat="42.03587" lon="13.664175"><ele>858.0</ele><time>2026-05-02T12:04:15.1Z</time></trkpt><trkpt lat="42.0360417" lon="13.6637583"><ele>859.5</ele><time>2026-05-02T12:04:16.099Z</time></trkpt><trkpt lat="42.0362317" lon="13.6633417"><ele>861.0</ele><time>2026-05-02T12:04:17.099Z</time></trkpt><trkpt lat="42.0364283" lon="13.6629367"><ele>862.0</ele><time>2026-05-02T12:04:18.099Z</time></trkpt><trkpt lat="42.03663" lon="13.6625383"><ele>863.0</ele><time>2026-05-02T12:04:19.1Z</time></trkpt><trkpt lat="42.0368383" lon="13.6621483"><ele>864.5</ele><time>2026-05-02T12:04:20.1Z</time></trkpt><trkpt lat="42.03705" lon="13.661765"><ele>866.0</ele><time>2026-05-02T12:04:21.099Z</time></trkpt><trkpt lat="42.0372783" lon="13.6614"><ele>865.0</ele><time>2026-05-02T12:04:22.1Z</time></trkpt><trkpt lat="42.0375267" lon="13.66104"><ele>864.0</ele><time>2026-05-02T12:04:23.099Z</time></trkpt><trkpt lat="42.0377883" lon="13.660695"><ele>864.0</ele><time>2026-05-02T12:04:24.1Z</time></trkpt><trkpt lat="42.038045" lon="13.660365"><ele>864.0</ele><time>2026-05-02T12:04:25.099Z</time></trkpt><trkpt lat="42.0383067" lon="13.6600417"><ele>864.0</ele><time>2026-05-02T12:04:26.1Z</time></trkpt><trkpt lat="42.0385933" lon="13.65973"><ele>864.0</ele><time>2026-05-02T12:04:27.1Z</time></trkpt><trkpt lat="42.0388817" lon="13.659425"><ele>862.0</ele><time>2026-05-02T12:04:28.1Z</time></trkpt><trkpt lat="42.0391733" lon="13.6591367"><ele>860.0</ele><time>2026-05-02T12:04:29.099Z</time></trkpt><trkpt lat="42.0394717" lon="13.658855"><ele>859.0</ele><time>2026-05-02T12:04:30.1Z</time></trkpt><trkpt lat="42.0397733" lon="13.6585883"><ele>858.0</ele><time>2026-05-02T12:04:31.1Z</time></trkpt><trkpt lat="42.040085" lon="13.6583417"><ele>857.5</ele><time>2026-05-02T12:04:32.1Z</time></trkpt><trkpt lat="42.0404033" lon="13.65811"><ele>857.0</ele><time>2026-05-02T12:04:33.099Z</time></trkpt><trkpt lat="42.0407183" lon="13.657895"><ele>857.5</ele><time>2026-05-02T12:04:34.1Z</time></trkpt><trkpt lat="42.0410483" lon="13.6577"><ele>858.0</ele><time>2026-05-02T12:04:35.099Z</time></trkpt><trkpt lat="42.041375" lon="13.6575117"><ele>859.0</ele><time>2026-05-02T12:04:36.099Z</time></trkpt><trkpt lat="42.041705" lon="13.6573367"><ele>860.0</ele><time>2026-05-02T12:04:37.099Z</time></trkpt><trkpt lat="42.0420383" lon="13.6571633"><ele>860.0</ele><time>2026-05-02T12:04:38.099Z</time></trkpt><trkpt lat="42.0423767" lon="13.657"><ele>860.0</ele><time>2026-05-02T12:04:39.099Z</time></trkpt><trkpt lat="42.0427167" lon="13.6568483"><ele>858.5</ele><time>2026-05-02T12:04:40.099Z</time></trkpt><trkpt lat="42.0430483" lon="13.6566967"><ele>857.0</ele><time>2026-05-02T12:04:41.099Z</time></trkpt><trkpt lat="42.04338" lon="13.6565383"><ele>856.0</ele><time>2026-05-02T12:04:42.1Z</time></trkpt><trkpt lat="42.0437133" lon="13.656375"><ele>855.0</ele><time>2026-05-02T12:04:43.099Z</time></trkpt><trkpt lat="42.0440517" lon="13.6562117"><ele>852.5</ele><time>2026-05-02T12:04:44.1Z</time></trkpt><trkpt lat="42.0443883" lon="13.6560417"><ele>850.0</ele><time>2026-05-02T12:04:45.1Z</time></trkpt><trkpt lat="42.0447233" lon="13.6558633"><ele>851.0</ele><time>2026-05-02T12:04:46.1Z</time></trkpt><trkpt lat="42.04505" lon="13.65567"><ele>852.0</ele><time>2026-05-02T12:04:47.099Z</time></trkpt><trkpt lat="42.045375" lon="13.655465"><ele>850.5</ele><time>2026-05-02T12:04:48.1Z</time></trkpt><trkpt lat="42.04569" lon="13.65525"><ele>849.0</ele><time>2026-05-02T12:04:49.099Z</time></trkpt><trkpt lat="42.0459933" lon="13.6550217"><ele>849.0</ele><time>2026-05-02T12:04:50.099Z</time></trkpt><trkpt lat="42.0462933" lon="13.65478"><ele>849.0</ele><time>2026-05-02T12:04:51.099Z</time></trkpt><trkpt lat="42.0465883" lon="13.6545233"><ele>851.5</ele><time>2026-05-02T12:04:52.1Z</time></trkpt><trkpt lat="42.046885" lon="13.654255"><ele>854.0</ele><time>2026-05-02T12:04:53.1Z</time></trkpt><trkpt lat="42.04717" lon="13.6539767"><ele>854.0</ele><time>2026-05-02T12:04:54.099Z</time></trkpt><trkpt lat="42.0474583" lon="13.653685"><ele>854.0</ele><time>2026-05-02T12:04:55.099Z</time></trkpt><trkpt lat="42.0477367" lon="13.653375"><ele>853.0</ele><time>2026-05-02T12:04:56.099Z</time></trkpt><trkpt lat="42.0480033" lon="13.653055"><ele>852.0</ele><time>2026-05-02T12:04:57.099Z</time></trkpt><trkpt lat="42.048265" lon="13.6527267"><ele>850.5</ele><time>2026-05-02T12:04:58.1Z</time></trkpt><trkpt lat="42.0485217" lon="13.6523933"><ele>849.0</ele><time>2026-05-02T12:04:59.099Z</time></trkpt><trkpt lat="42.0487817" lon="13.652045"><ele>849.5</ele><time>2026-05-02T12:05:00.099Z</time></trkpt><trkpt lat="42.04903" lon="13.6516967"><ele>850.0</ele><time>2026-05-02T12:05:01.1Z</time></trkpt><trkpt lat="42.0492817" lon="13.651345"><ele>848.5</ele><time>2026-05-02T12:05:02.1Z</time></trkpt><trkpt lat="42.049535" lon="13.6509967"><ele>847.0</ele><time>2026-05-02T12:05:03.099Z</time></trkpt><trkpt lat="42.0497817" lon="13.6506317"><ele>847.5</ele><time>2026-05-02T12:05:04.099Z</time></trkpt><trkpt lat="42.0500317" lon="13.65026"><ele>848.0</ele><time>2026-05-02T12:05:05.099Z</time></trkpt><trkpt lat="42.0502817" lon="13.6498917"><ele>848.0</ele><time>2026-05-02T12:05:06.099Z</time></trkpt><trkpt lat="42.0505217" lon="13.6495183"><ele>848.0</ele><time>2026-05-02T12:05:07.099Z</time></trkpt><trkpt lat="42.05076" lon="13.6491367"><ele>848.0</ele><time>2026-05-02T12:05:08.1Z</time></trkpt><trkpt lat="42.05099" lon="13.6487583"><ele>848.0</ele><time>2026-05-02T12:05:09.1Z</time></trkpt><trkpt lat="42.0512217" lon="13.6483767"><ele>849.5</ele><time>2026-05-02T12:05:10.1Z</time></trkpt><trkpt lat="42.0514467" lon="13.6479917"><ele>851.0</ele><time>2026-05-02T12:05:11.1Z</time></trkpt><trkpt lat="42.0516733" lon="13.6476017"><ele>851.0</ele><time>2026-05-02T12:05:12.1Z</time></trkpt><trkpt lat="42.0518967" lon="13.6472067"><ele>851.0</ele><time>2026-05-02T12:05:13.1Z</time></trkpt><trkpt lat="42.0521133" lon="13.6468067"><ele>851.5</ele><time>2026-05-02T12:05:14.1Z</time></trkpt><trkpt lat="42.0523317" lon="13.64641"><ele>852.0</ele><time>2026-05-02T12:05:15.1Z</time></trkpt><trkpt lat="42.0525483" lon="13.6459967"><ele>852.0</ele><time>2026-05-02T12:05:16.099Z</time></trkpt><trkpt lat="42.052765" lon="13.6455817"><ele>852.0</ele><time>2026-05-02T12:05:17.1Z</time></trkpt><trkpt lat="42.052975" lon="13.6451733"><ele>852.0</ele><time>2026-05-02T12:05:18.099Z</time></trkpt><trkpt lat="42.0531817" lon="13.644755"><ele>852.0</ele><time>2026-05-02T12:05:19.099Z</time></trkpt><trkpt lat="42.0533833" lon="13.6443367"><ele>848.0</ele><time>2026-05-02T12:05:20.1Z</time></trkpt><trkpt lat="42.05359" lon="13.6438983"><ele>844.0</ele><time>2026-05-02T12:05:21.099Z</time></trkpt><trkpt lat="42.0537967" lon="13.6434683"><ele>843.0</ele><time>2026-05-02T12:05:22.1Z</time></trkpt><trkpt lat="42.0539917" lon="13.6430267"><ele>842.0</ele><time>2026-05-02T12:05:23.099Z</time></trkpt><trkpt lat="42.0541817" lon="13.6425817"><ele>842.0</ele><time>2026-05-02T12:05:24.1Z</time></trkpt><trkpt lat="42.0543767" lon="13.6421383"><ele>842.0</ele><time>2026-05-02T12:05:25.1Z</time></trkpt><trkpt lat="42.054575" lon="13.6416867"><ele>839.5</ele><time>2026-05-02T12:05:26.1Z</time></trkpt><trkpt lat="42.0547517" lon="13.64123"><ele>837.0</ele><time>2026-05-02T12:05:27.1Z</time></trkpt><trkpt lat="42.0549317" lon="13.6407683"><ele>837.0</ele><time>2026-05-02T12:05:28.1Z</time></trkpt><trkpt lat="42.0551033" lon="13.6403117"><ele>837.0</ele><time>2026-05-02T12:05:29.099Z</time></trkpt><trkpt lat="42.0552583" lon="13.639865"><ele>834.5</ele><time>2026-05-02T12:05:30.099Z</time></trkpt><trkpt lat="42.0554133" lon="13.6394117"><ele>832.0</ele><time>2026-05-02T12:05:31.1Z</time></trkpt><trkpt lat="42.05555" lon="13.638965"><ele>829.5</ele><time>2026-05-02T12:05:32.1Z</time></trkpt><trkpt lat="42.0556783" lon="13.63851"><ele>827.0</ele><time>2026-05-02T12:05:33.099Z</time></trkpt><trkpt lat="42.0558083" lon="13.6380517"><ele>825.0</ele><time>2026-05-02T12:05:34.1Z</time></trkpt><trkpt lat="42.0559167" lon="13.6375883"><ele>823.0</ele><time>2026-05-02T12:05:35.099Z</time></trkpt><trkpt lat="42.0560167" lon="13.6371183"><ele>820.5</ele><time>2026-05-02T12:05:36.1Z</time></trkpt><trkpt lat="42.056105" lon="13.6366517"><ele>818.0</ele><time>2026-05-02T12:05:37.1Z</time></trkpt><trkpt lat="42.0561817" lon="13.6361833"><ele>817.5</ele><time>2026-05-02T12:05:38.099Z</time></trkpt><trkpt lat="42.0562483" lon="13.635705"><ele>817.0</ele><time>2026-05-02T12:05:39.1Z</time></trkpt><trkpt lat="42.0563067" lon="13.6352317"><ele>817.0</ele><time>2026-05-02T12:05:40.099Z</time></trkpt><trkpt lat="42.0563417" lon="13.6347483"><ele>817.0</ele><time>2026-05-02T12:05:41.1Z</time></trkpt><trkpt lat="42.056375" lon="13.6342633"><ele>814.5</ele><time>2026-05-02T12:05:42.099Z</time></trkpt><trkpt lat="42.056395" lon="13.633775"><ele>812.0</ele><time>2026-05-02T12:05:43.1Z</time></trkpt><trkpt lat="42.0564017" lon="13.6332783"><ele>802.0</ele><time>2026-05-02T12:05:44.1Z</time></trkpt><trkpt lat="42.0564033" lon="13.6327933"><ele>792.0</ele><time>2026-05-02T12:05:45.1Z</time></trkpt><trkpt lat="42.05639" lon="13.63232"><ele>787.0</ele><time>2026-05-02T12:05:46.099Z</time></trkpt><trkpt lat="42.0563667" lon="13.6318433"><ele>782.0</ele><time>2026-05-02T12:05:47.1Z</time></trkpt><trkpt lat="42.0563217" lon="13.6313567"><ele>779.0</ele><time>2026-05-02T12:05:48.099Z</time></trkpt><trkpt lat="42.05627" lon="13.6308717"><ele>776.0</ele><time>2026-05-02T12:05:49.099Z</time></trkpt><trkpt lat="42.0562117" lon="13.6303883"><ele>778.5</ele><time>2026-05-02T12:05:50.1Z</time></trkpt><trkpt lat="42.0561433" lon="13.6299083"><ele>781.0</ele><time>2026-05-02T12:05:51.099Z</time></trkpt><trkpt lat="42.056065" lon="13.6294267"><ele>786.5</ele><time>2026-05-02T12:05:52.1Z</time></trkpt><trkpt lat="42.0559867" lon="13.6289433"><ele>792.0</ele><time>2026-05-02T12:05:53.1Z</time></trkpt><trkpt lat="42.0559017" lon="13.6284567"><ele>793.0</ele><time>2026-05-02T12:05:54.1Z</time></trkpt><trkpt lat="42.0558167" lon="13.6279683"><ele>794.0</ele><time>2026-05-02T12:05:55.099Z</time></trkpt><trkpt lat="42.0557333" lon="13.6274767"><ele>794.0</ele><time>2026-05-02T12:05:56.099Z</time></trkpt><trkpt lat="42.0556517" lon="13.6269833"><ele>794.0</ele><time>2026-05-02T12:05:57.099Z</time></trkpt><trkpt lat="42.0555717" lon="13.6264917"><ele>794.5</ele><time>2026-05-02T12:05:58.099Z</time></trkpt><trkpt lat="42.0555033" lon="13.6260067"><ele>795.0</ele><time>2026-05-02T12:05:59.1Z</time></trkpt><trkpt lat="42.055425" lon="13.625525"><ele>799.5</ele><time>2026-05-02T12:06:00.099Z</time></trkpt><trkpt lat="42.05536" lon="13.625035"><ele>804.0</ele><time>2026-05-02T12:06:01.099Z</time></trkpt><trkpt lat="42.055305" lon="13.62454"><ele>807.0</ele><time>2026-05-02T12:06:02.1Z</time></trkpt><trkpt lat="42.055255" lon="13.6240583"><ele>810.0</ele><time>2026-05-02T12:06:03.099Z</time></trkpt><trkpt lat="42.0552217" lon="13.6235617"><ele>810.0</ele><time>2026-05-02T12:06:04.1Z</time></trkpt><trkpt lat="42.0551917" lon="13.62306"><ele>810.0</ele><time>2026-05-02T12:06:05.099Z</time></trkpt><trkpt lat="42.0551833" lon="13.6225633"><ele>809.0</ele><time>2026-05-02T12:06:06.1Z</time></trkpt><trkpt lat="42.0551917" lon="13.62208"><ele>808.0</ele><time>2026-05-02T12:06:07.1Z</time></trkpt><trkpt lat="42.0552117" lon="13.621595"><ele>807.0</ele><time>2026-05-02T12:06:08.1Z</time></trkpt><trkpt lat="42.055245" lon="13.6211167"><ele>806.0</ele><time>2026-05-02T12:06:09.099Z</time></trkpt><trkpt lat="42.0552883" lon="13.6206433"><ele>803.5</ele><time>2026-05-02T12:06:10.1Z</time></trkpt><trkpt lat="42.0553533" lon="13.62017"><ele>801.0</ele><time>2026-05-02T12:06:11.099Z</time></trkpt><trkpt lat="42.0554217" lon="13.6196967"><ele>796.5</ele><time>2026-05-02T12:06:12.1Z</time></trkpt><trkpt lat="42.0554917" lon="13.6192233"><ele>792.0</ele><time>2026-05-02T12:06:13.099Z</time></trkpt><trkpt lat="42.0555733" lon="13.6187533"><ele>789.5</ele><time>2026-05-02T12:06:14.1Z</time></trkpt><trkpt lat="42.055665" lon="13.6182767"><ele>787.0</ele><time>2026-05-02T12:06:15.099Z</time></trkpt><trkpt lat="42.0557733" lon="13.6178083"><ele>789.5</ele><time>2026-05-02T12:06:16.099Z</time></trkpt><trkpt lat="42.0559067" lon="13.617335"><ele>792.0</ele><time>2026-05-02T12:06:17.099Z</time></trkpt><trkpt lat="42.05604" lon="13.6168517"><ele>792.0</ele><time>2026-05-02T12:06:18.1Z</time></trkpt><trkpt lat="42.0561717" lon="13.616375"><ele>792.0</ele><time>2026-05-02T12:06:19.1Z</time></trkpt><trkpt lat="42.0563117" lon="13.6159"><ele>789.0</ele><time>2026-05-02T12:06:20.1Z</time></trkpt><trkpt lat="42.0564617" lon="13.615415"><ele>786.0</ele><time>2026-05-02T12:06:21.1Z</time></trkpt><trkpt lat="42.0566" lon="13.61494"><ele>784.5</ele><time>2026-05-02T12:06:22.1Z</time></trkpt><trkpt lat="42.0567367" lon="13.6144667"><ele>783.0</ele><time>2026-05-02T12:06:23.1Z</time></trkpt><trkpt lat="42.0568783" lon="13.613985"><ele>779.0</ele><time>2026-05-02T12:06:24.1Z</time></trkpt><trkpt lat="42.0570117" lon="13.6135067"><ele>775.0</ele><time>2026-05-02T12:06:25.099Z</time></trkpt><trkpt lat="42.0571467" lon="13.6130267"><ele>770.0</ele><time>2026-05-02T12:06:26.099Z</time></trkpt><trkpt lat="42.0572783" lon="13.6125383"><ele>765.0</ele><time>2026-05-02T12:06:27.1Z</time></trkpt><trkpt lat="42.0574133" lon="13.6120517"><ele>760.5</ele><time>2026-05-02T12:06:28.1Z</time></trkpt><trkpt lat="42.0575317" lon="13.6115567"><ele>756.0</ele><time>2026-05-02T12:06:29.099Z</time></trkpt><trkpt lat="42.0576517" lon="13.611055"><ele>752.5</ele><time>2026-05-02T12:06:30.099Z</time></trkpt><trkpt lat="42.0577633" lon="13.610545"><ele>749.0</ele><time>2026-05-02T12:06:31.099Z</time></trkpt><trkpt lat="42.0578717" lon="13.6100283"><ele>748.5</ele><time>2026-05-02T12:06:32.099Z</time></trkpt><trkpt lat="42.0579683" lon="13.6095017"><ele>748.0</ele><time>2026-05-02T12:06:33.099Z</time></trkpt><trkpt lat="42.058075" lon="13.60897"><ele>754.0</ele><time>2026-05-02T12:06:34.099Z</time></trkpt><trkpt lat="42.0581683" lon="13.6084383"><ele>760.0</ele><time>2026-05-02T12:06:35.099Z</time></trkpt><trkpt lat="42.0582533" lon="13.607895"><ele>762.0</ele><time>2026-05-02T12:06:36.099Z</time></trkpt><trkpt lat="42.0583333" lon="13.6073433"><ele>764.0</ele><time>2026-05-02T12:06:37.099Z</time></trkpt><trkpt lat="42.0584133" lon="13.606795"><ele>764.0</ele><time>2026-05-02T12:06:38.099Z</time></trkpt><trkpt lat="42.05848" lon="13.606245"><ele>764.0</ele><time>2026-05-02T12:06:39.099Z</time></trkpt><trkpt lat="42.0585483" lon="13.605695"><ele>760.0</ele><time>2026-05-02T12:06:40.099Z</time></trkpt><trkpt lat="42.05861" lon="13.605135"><ele>756.0</ele><time>2026-05-02T12:06:41.1Z</time></trkpt><trkpt lat="42.0586683" lon="13.6045733"><ele>754.0</ele><time>2026-05-02T12:06:42.1Z</time></trkpt><trkpt lat="42.0587117" lon="13.6040033"><ele>752.0</ele><time>2026-05-02T12:06:43.1Z</time></trkpt><trkpt lat="42.05875" lon="13.6034267"><ele>749.5</ele><time>2026-05-02T12:06:44.099Z</time></trkpt><trkpt lat="42.058785" lon="13.6028567"><ele>747.0</ele><time>2026-05-02T12:06:45.1Z</time></trkpt><trkpt lat="42.0588083" lon="13.6022767"><ele>746.5</ele><time>2026-05-02T12:06:46.099Z</time></trkpt><trkpt lat="42.05883" lon="13.6017033"><ele>746.0</ele><time>2026-05-02T12:06:47.1Z</time></trkpt><trkpt lat="42.0588467" lon="13.601125"><ele>746.0</ele><time>2026-05-02T12:06:48.099Z</time></trkpt><trkpt lat="42.0588567" lon="13.6005517"><ele>746.0</ele><time>2026-05-02T12:06:49.099Z</time></trkpt><trkpt lat="42.058855" lon="13.5999733"><ele>744.0</ele><time>2026-05-02T12:06:50.099Z</time></trkpt><trkpt lat="42.0588517" lon="13.5994"><ele>742.0</ele><time>2026-05-02T12:06:51.1Z</time></trkpt><trkpt lat="42.0588467" lon="13.5988233"><ele>740.5</ele><time>2026-05-02T12:06:52.099Z</time></trkpt><trkpt lat="42.0588283" lon="13.5982533"><ele>739.0</ele><time>2026-05-02T12:06:53.099Z</time></trkpt><trkpt lat="42.0588217" lon="13.5976967"><ele>738.5</ele><time>2026-05-02T12:06:54.1Z</time></trkpt><trkpt lat="42.0588133" lon="13.59715"><ele>738.0</ele><time>2026-05-02T12:06:55.099Z</time></trkpt><trkpt lat="42.058805" lon="13.596605"><ele>737.0</ele><time>2026-05-02T12:06:56.099Z</time></trkpt><trkpt lat="42.0588083" lon="13.59606"><ele>736.0</ele><time>2026-05-02T12:06:57.1Z</time></trkpt><trkpt lat="42.058805" lon="13.5955217"><ele>735.5</ele><time>2026-05-02T12:06:58.099Z</time></trkpt><trkpt lat="42.0587967" lon="13.5949817"><ele>735.0</ele><time>2026-05-02T12:06:59.1Z</time></trkpt><trkpt lat="42.0587983" lon="13.5944517"><ele>734.0</ele><time>2026-05-02T12:07:00.1Z</time></trkpt><trkpt lat="42.0588017" lon="13.5939233"><ele>733.0</ele><time>2026-05-02T12:07:01.099Z</time></trkpt><trkpt lat="42.058805" lon="13.5933883"><ele>730.5</ele><time>2026-05-02T12:07:02.1Z</time></trkpt><trkpt lat="42.0588117" lon="13.5928667"><ele>728.0</ele><time>2026-05-02T12:07:03.1Z</time></trkpt><trkpt lat="42.0588167" lon="13.5923633"><ele>729.0</ele><time>2026-05-02T12:07:04.099Z</time></trkpt><trkpt lat="42.0588333" lon="13.5918667"><ele>730.0</ele><time>2026-05-02T12:07:05.1Z</time></trkpt><trkpt lat="42.0588483" lon="13.5913533"><ele>730.0</ele><time>2026-05-02T12:07:06.1Z</time></trkpt><trkpt lat="42.05887" lon="13.5908417"><ele>730.0</ele><time>2026-05-02T12:07:07.1Z</time></trkpt><trkpt lat="42.0588967" lon="13.5903333"><ele>730.0</ele><time>2026-05-02T12:07:08.099Z</time></trkpt><trkpt lat="42.0589367" lon="13.5898333"><ele>730.0</ele><time>2026-05-02T12:07:09.099Z</time></trkpt><trkpt lat="42.058985" lon="13.5893283"><ele>727.0</ele><time>2026-05-02T12:07:10.1Z</time></trkpt><trkpt lat="42.0590333" lon="13.5888233"><ele>724.0</ele><time>2026-05-02T12:07:11.1Z</time></trkpt><trkpt lat="42.05909" lon="13.5883167"><ele>725.0</ele><time>2026-05-02T12:07:12.099Z</time></trkpt><trkpt lat="42.0591533" lon="13.587805"><ele>726.0</ele><time>2026-05-02T12:07:13.099Z</time></trkpt><trkpt lat="42.0592267" lon="13.5873"><ele>724.5</ele><time>2026-05-02T12:07:14.099Z</time></trkpt><trkpt lat="42.059305" lon="13.58679"><ele>723.0</ele><time>2026-05-02T12:07:15.1Z</time></trkpt><trkpt lat="42.059395" lon="13.5862817"><ele>722.0</ele><time>2026-05-02T12:07:16.1Z</time></trkpt><trkpt lat="42.0594867" lon="13.5857717"><ele>721.0</ele><time>2026-05-02T12:07:17.1Z</time></trkpt><trkpt lat="42.0595817" lon="13.5852567"><ele>719.5</ele><time>2026-05-02T12:07:18.1Z</time></trkpt><trkpt lat="42.0596783" lon="13.584745"><ele>718.0</ele><time>2026-05-02T12:07:19.099Z</time></trkpt><trkpt lat="42.05977" lon="13.584235"><ele>716.5</ele><time>2026-05-02T12:07:20.099Z</time></trkpt><trkpt lat="42.059865" lon="13.5837267"><ele>715.0</ele><time>2026-05-02T12:07:21.099Z</time></trkpt><trkpt lat="42.0599683" lon="13.5832233"><ele>716.5</ele><time>2026-05-02T12:07:22.099Z</time></trkpt><trkpt lat="42.0600733" lon="13.5827117"><ele>718.0</ele><time>2026-05-02T12:07:23.099Z</time></trkpt><trkpt lat="42.0601767" lon="13.5822083"><ele>716.5</ele><time>2026-05-02T12:07:24.099Z</time></trkpt><trkpt lat="42.0602783" lon="13.5817017"><ele>715.0</ele><time>2026-05-02T12:07:25.099Z</time></trkpt><trkpt lat="42.060385" lon="13.5811917"><ele>713.5</ele><time>2026-05-02T12:07:26.1Z</time></trkpt><trkpt lat="42.060485" lon="13.5806867"><ele>712.0</ele><time>2026-05-02T12:07:27.099Z</time></trkpt><trkpt lat="42.0605833" lon="13.5801833"><ele>710.0</ele><time>2026-05-02T12:07:28.099Z</time></trkpt><trkpt lat="42.0606867" lon="13.5796683"><ele>708.0</ele><time>2026-05-02T12:07:29.1Z</time></trkpt><trkpt lat="42.06078" lon="13.5791667"><ele>710.0</ele><time>2026-05-02T12:07:30.099Z</time></trkpt><trkpt lat="42.0608817" lon="13.5786717"><ele>712.0</ele><time>2026-05-02T12:07:31.1Z</time></trkpt><trkpt lat="42.0609717" lon="13.5781767"><ele>711.0</ele><time>2026-05-02T12:07:32.1Z</time></trkpt><trkpt lat="42.0610517" lon="13.5776817"><ele>710.0</ele><time>2026-05-02T12:07:33.099Z</time></trkpt><trkpt lat="42.0611283" lon="13.57718"><ele>709.0</ele><time>2026-05-02T12:07:34.099Z</time></trkpt><trkpt lat="42.061195" lon="13.576675"><ele>708.0</ele><time>2026-05-02T12:07:35.099Z</time></trkpt><trkpt lat="42.061255" lon="13.57617"><ele>707.0</ele><time>2026-05-02T12:07:36.1Z</time></trkpt><trkpt lat="42.0613133" lon="13.5756633"><ele>706.0</ele><time>2026-05-02T12:07:37.1Z</time></trkpt><trkpt lat="42.0613767" lon="13.5751567"><ele>705.5</ele><time>2026-05-02T12:07:38.099Z</time></trkpt><trkpt lat="42.0614417" lon="13.5746467"><ele>705.0</ele><time>2026-05-02T12:07:39.099Z</time></trkpt><trkpt lat="42.06148" lon="13.5741283"><ele>702.0</ele><time>2026-05-02T12:07:40.1Z</time></trkpt><trkpt lat="42.06151" lon="13.5736167"><ele>699.0</ele><time>2026-05-02T12:07:41.1Z</time></trkpt><trkpt lat="42.0615467" lon="13.5731"><ele>699.5</ele><time>2026-05-02T12:07:42.099Z</time></trkpt><trkpt lat="42.0615733" lon="13.57258"><ele>700.0</ele><time>2026-05-02T12:07:43.099Z</time></trkpt><trkpt lat="42.06159" lon="13.5720633"><ele>700.0</ele><time>2026-05-02T12:07:44.099Z</time></trkpt><trkpt lat="42.0615967" lon="13.571545"><ele>700.0</ele><time>2026-05-02T12:07:45.099Z</time></trkpt><trkpt lat="42.0616117" lon="13.5710483"><ele>699.0</ele><time>2026-05-02T12:07:46.099Z</time></trkpt><trkpt lat="42.061615" lon="13.570555"><ele>698.0</ele><time>2026-05-02T12:07:47.099Z</time></trkpt><trkpt lat="42.0616167" lon="13.5700883"><ele>699.0</ele><time>2026-05-02T12:07:48.1Z</time></trkpt><trkpt lat="42.0616167" lon="13.569635"><ele>700.0</ele><time>2026-05-02T12:07:49.099Z</time></trkpt><trkpt lat="42.0616067" lon="13.569195"><ele>700.0</ele><time>2026-05-02T12:07:50.1Z</time></trkpt><trkpt lat="42.0616083" lon="13.5687817"><ele>700.0</ele><time>2026-05-02T12:07:51.1Z</time></trkpt><trkpt lat="42.0616017" lon="13.5683817"><ele>700.0</ele><time>2026-05-02T12:07:52.1Z</time></trkpt><trkpt lat="42.061595" lon="13.568005"><ele>700.0</ele><time>2026-05-02T12:07:53.099Z</time></trkpt><trkpt lat="42.061595" lon="13.567645"><ele>700.0</ele><time>2026-05-02T12:07:54.1Z</time></trkpt><trkpt lat="42.0615933" lon="13.5672933"><ele>700.0</ele><time>2026-05-02T12:07:55.099Z</time></trkpt><trkpt lat="42.06159" lon="13.56697"><ele>699.3333333333334</ele><time>2026-05-02T12:07:56.1Z</time></trkpt><trkpt lat="42.0615917" lon="13.5666683"><ele>698.6666666666666</ele><time>2026-05-02T12:07:57.1Z</time></trkpt><trkpt lat="42.061595" lon="13.5663667"><ele>698.0</ele><time>2026-05-02T12:07:58.1Z</time></trkpt><trkpt lat="42.0615867" lon="13.56608"><ele>698.0</ele><time>2026-05-02T12:07:59.099Z</time></trkpt><trkpt lat="42.06158" lon="13.5658"><ele>698.0</ele><time>2026-05-02T12:08:00.099Z</time></trkpt><trkpt lat="42.06158" lon="13.5655483"><ele>698.0</ele><time>2026-05-02T12:08:01.1Z</time></trkpt><trkpt lat="42.0616017" lon="13.5653067"><ele>699.0</ele><time>2026-05-02T12:08:02.099Z</time></trkpt><trkpt lat="42.061645" lon="13.565075"><ele>700.0</ele><time>2026-05-02T12:08:03.1Z</time></trkpt><trkpt lat="42.0617017" lon="13.5648717"><ele>701.0</ele><time>2026-05-02T12:08:04.1Z</time></trkpt><trkpt lat="42.0617733" lon="13.5646667"><ele>700.6666666666666</ele><time>2026-05-02T12:08:05.1Z</time></trkpt><trkpt lat="42.0618617" lon="13.5644833"><ele>700.3333333333334</ele><time>2026-05-02T12:08:06.099Z</time></trkpt><trkpt lat="42.061955" lon="13.5643083"><ele>700.0</ele><time>2026-05-02T12:08:07.099Z</time></trkpt><trkpt lat="42.062065" lon="13.5641533"><ele>700.0</ele><time>2026-05-02T12:08:08.099Z</time></trkpt><trkpt lat="42.0621833" lon="13.5640167"><ele>700.0</ele><time>2026-05-02T12:08:09.1Z</time></trkpt><trkpt lat="42.062305" lon="13.5638883"><ele>700.0</ele><time>2026-05-02T12:08:10.1Z</time></trkpt><trkpt lat="42.0624167" lon="13.56376"><ele>699.75</ele><time>2026-05-02T12:08:11.1Z</time></trkpt><trkpt lat="42.06252" lon="13.5636283"><ele>699.5</ele><time>2026-05-02T12:08:12.1Z</time></trkpt><trkpt lat="42.0626267" lon="13.5634883"><ele>699.25</ele><time>2026-05-02T12:08:13.099Z</time></trkpt><trkpt lat="42.062715" lon="13.56332"><ele>699.0</ele><time>2026-05-02T12:08:14.099Z</time></trkpt><trkpt lat="42.06278" lon="13.5631517"><ele>699.0</ele><time>2026-05-02T12:08:15.099Z</time></trkpt><trkpt lat="42.0628133" lon="13.5629717"><ele>699.0</ele><time>2026-05-02T12:08:16.1Z</time></trkpt><trkpt lat="42.0628117" lon="13.5627917"><ele>699.0</ele><time>2026-05-02T12:08:17.1Z</time></trkpt><trkpt lat="42.0627817" lon="13.5626133"><ele>699.0</ele><time>2026-05-02T12:08:18.099Z</time></trkpt><trkpt lat="42.06272" lon="13.5624433"><ele>698.6666666666666</ele><time>2026-05-02T12:08:19.099Z</time></trkpt><trkpt lat="42.06263" lon="13.56229"><ele>698.3333333333333</ele><time>2026-05-02T12:08:20.1Z</time></trkpt><trkpt lat="42.0625133" lon="13.5621517"><ele>698.0</ele><time>2026-05-02T12:08:21.099Z</time></trkpt><trkpt lat="42.062385" lon="13.5620433"><ele>696.6666666666666</ele><time>2026-05-02T12:08:22.099Z</time></trkpt><trkpt lat="42.0622417" lon="13.5619633"><ele>695.3333333333334</ele><time>2026-05-02T12:08:23.099Z</time></trkpt><trkpt lat="42.0620883" lon="13.56191"><ele>694.0</ele><time>2026-05-02T12:08:24.1Z</time></trkpt><trkpt lat="42.0619267" lon="13.561885"><ele>694.0</ele><time>2026-05-02T12:08:25.099Z</time></trkpt><trkpt lat="42.0617533" lon="13.5618817"><ele>694.0</ele><time>2026-05-02T12:08:26.1Z</time></trkpt><trkpt lat="42.0615767" lon="13.5618783"><ele>694.0</ele><time>2026-05-02T12:08:27.1Z</time></trkpt><trkpt lat="42.0614033" lon="13.561885"><ele>694.0</ele><time>2026-05-02T12:08:28.1Z</time></trkpt><trkpt lat="42.061225" lon="13.5618767"><ele>694.0</ele><time>2026-05-02T12:08:29.1Z</time></trkpt><trkpt lat="42.061045" lon="13.56188"><ele>694.0</ele><time>2026-05-02T12:08:30.099Z</time></trkpt><trkpt lat="42.06087" lon="13.5618983"><ele>693.6666666666667</ele><time>2026-05-02T12:08:31.099Z</time></trkpt><trkpt lat="42.060685" lon="13.5619217"><ele>693.3333333333334</ele><time>2026-05-02T12:08:32.099Z</time></trkpt><trkpt lat="42.0605183" lon="13.5619617"><ele>693.0</ele><time>2026-05-02T12:08:33.099Z</time></trkpt><trkpt lat="42.0603583" lon="13.5620217"><ele>693.0</ele><time>2026-05-02T12:08:34.099Z</time></trkpt><trkpt lat="42.060215" lon="13.5620983"><ele>693.0</ele><time>2026-05-02T12:08:35.1Z</time></trkpt><trkpt lat="42.0600833" lon="13.562205"><ele>693.0</ele><time>2026-05-02T12:08:36.1Z</time></trkpt><trkpt lat="42.0599633" lon="13.562315"><ele>693.25</ele><time>2026-05-02T12:08:37.099Z</time></trkpt><trkpt lat="42.0598617" lon="13.5624383"><ele>693.5</ele><time>2026-05-02T12:08:38.099Z</time></trkpt><trkpt lat="42.0597767" lon="13.5625633"><ele>693.75</ele><time>2026-05-02T12:08:39.1Z</time></trkpt><trkpt lat="42.0597017" lon="13.56268"><ele>694.0</ele><time>2026-05-02T12:08:40.099Z</time></trkpt><trkpt lat="42.059635" lon="13.5628033"><ele>693.5</ele><time>2026-05-02T12:08:41.099Z</time></trkpt><trkpt lat="42.0595833" lon="13.5629333"><ele>693.0</ele><time>2026-05-02T12:08:42.1Z</time></trkpt><trkpt lat="42.0595367" lon="13.5630883"><ele>692.5</ele><time>2026-05-02T12:08:43.099Z</time></trkpt><trkpt lat="42.0594917" lon="13.5632517"><ele>692.0</ele><time>2026-05-02T12:08:44.1Z</time></trkpt><trkpt lat="42.05945" lon="13.5634233"><ele>692.0</ele><time>2026-05-02T12:08:45.1Z</time></trkpt><trkpt lat="42.05941" lon="13.5635983"><ele>692.0</ele><time>2026-05-02T12:08:46.1Z</time></trkpt><trkpt lat="42.059375" lon="13.56377"><ele>692.0</ele><time>2026-05-02T12:08:47.099Z</time></trkpt><trkpt lat="42.0593417" lon="13.5639333"><ele>692.0</ele><time>2026-05-02T12:08:48.099Z</time></trkpt><trkpt lat="42.0593083" lon="13.5640883"><ele>692.0</ele><time>2026-05-02T12:08:49.099Z</time></trkpt><trkpt lat="42.059275" lon="13.56424"><ele>692.0</ele><time>2026-05-02T12:08:50.099Z</time></trkpt><trkpt lat="42.0592533" lon="13.5643717"><ele>692.0</ele><time>2026-05-02T12:08:51.1Z</time></trkpt><trkpt lat="42.0592233" lon="13.56449"><ele>692.0</ele><time>2026-05-02T12:08:52.099Z</time></trkpt><trkpt lat="42.0591967" lon="13.5646033"><ele>692.0</ele><time>2026-05-02T12:08:53.099Z</time></trkpt><trkpt lat="42.05917" lon="13.564695"><ele>692.0</ele><time>2026-05-02T12:08:54.1Z</time></trkpt><trkpt lat="42.05914" lon="13.5648017"><ele>692.0</ele><time>2026-05-02T12:08:56.1Z</time></trkpt><trkpt lat="42.05913" lon="13.56497"><ele>692.0</ele><time>2026-05-02T12:09:28.099Z</time></trkpt><trkpt lat="42.0590883" lon="13.5650817"><ele>692.0</ele><time>2026-05-02T12:09:30.099Z</time></trkpt><trkpt lat="42.059065" lon="13.5651633"><ele>692.0</ele><time>2026-05-02T12:09:31.1Z</time></trkpt><trkpt lat="42.0590367" lon="13.5652717"><ele>691.4000000000001</ele><time>2026-05-02T12:09:32.099Z</time></trkpt><trkpt lat="42.0590033" lon="13.5653817"><ele>690.8000000000001</ele><time>2026-05-02T12:09:33.099Z</time></trkpt><trkpt lat="42.0589717" lon="13.5654983"><ele>690.2</ele><time>2026-05-02T12:09:34.099Z</time></trkpt><trkpt lat="42.05894" lon="13.5656233"><ele>689.6</ele><time>2026-05-02T12:09:35.099Z</time></trkpt><trkpt lat="42.0589067" lon="13.5657583"><ele>689.0</ele><time>2026-05-02T12:09:36.099Z</time></trkpt><trkpt lat="42.0588717" lon="13.5659033"><ele>689.0</ele><time>2026-05-02T12:09:37.099Z</time></trkpt><trkpt lat="42.0588383" lon="13.5660517"><ele>689.0</ele><time>2026-05-02T12:09:38.099Z</time></trkpt><trkpt lat="42.0588067" lon="13.566205"><ele>689.0</ele><time>2026-05-02T12:09:39.099Z</time></trkpt><trkpt lat="42.058775" lon="13.566355"><ele>689.0</ele><time>2026-05-02T12:09:40.099Z</time></trkpt><trkpt lat="42.058745" lon="13.56649"><ele>689.2</ele><time>2026-05-02T12:09:41.099Z</time></trkpt><trkpt lat="42.05871" lon="13.566615"><ele>689.4000000000001</ele><time>2026-05-02T12:09:42.1Z</time></trkpt><trkpt lat="42.058665" lon="13.566725"><ele>689.6</ele><time>2026-05-02T12:09:43.1Z</time></trkpt><trkpt lat="42.0586017" lon="13.5668183"><ele>689.8</ele><time>2026-05-02T12:09:44.099Z</time></trkpt><trkpt lat="42.058535" lon="13.5669067"><ele>690.0</ele><time>2026-05-02T12:09:45.1Z</time></trkpt><trkpt lat="42.0584533" lon="13.5669833"><ele>689.8</ele><time>2026-05-02T12:09:46.1Z</time></trkpt><trkpt lat="42.058365" lon="13.5670417"><ele>689.6</ele><time>2026-05-02T12:09:47.099Z</time></trkpt><trkpt lat="42.0582583" lon="13.5670717"><ele>689.4000000000001</ele><time>2026-05-02T12:09:48.1Z</time></trkpt><trkpt lat="42.05815" lon="13.5670833"><ele>689.2</ele><time>2026-05-02T12:09:49.099Z</time></trkpt><trkpt lat="42.0580567" lon="13.56709"><ele>689.0</ele><time>2026-05-02T12:09:50.1Z</time></trkpt><trkpt lat="42.057975" lon="13.567085"><ele>689.0</ele><time>2026-05-02T12:09:51.099Z</time></trkpt><trkpt lat="42.0578983" lon="13.56706"><ele>689.0</ele><time>2026-05-02T12:09:52.099Z</time></trkpt><trkpt lat="42.0577817" lon="13.5669817"><ele>689.0</ele><time>2026-05-02T12:09:54.1Z</time></trkpt><trkpt lat="42.05772" lon="13.5669617"><ele>689.0</ele><time>2026-05-02T12:09:55.1Z</time></trkpt><trkpt lat="42.0576283" lon="13.56703"><ele>689.0</ele><time>2026-05-02T12:09:57.099Z</time></trkpt><trkpt lat="42.0575967" lon="13.5671667"><ele>689.0</ele><time>2026-05-02T12:09:59.1Z</time></trkpt><trkpt lat="42.0575967" lon="13.5672667"><ele>689.0</ele><time>2026-05-02T12:10:00.099Z</time></trkpt><trkpt lat="42.05759" lon="13.567375"><ele>689.0</ele><time>2026-05-02T12:10:01.1Z</time></trkpt><trkpt lat="42.0575717" lon="13.5675"><ele>689.0</ele><time>2026-05-02T12:10:02.099Z</time></trkpt><trkpt lat="42.0575567" lon="13.56763"><ele>689.0</ele><time>2026-05-02T12:10:03.099Z</time></trkpt><trkpt lat="42.05755" lon="13.5677733"><ele>688.75</ele><time>2026-05-02T12:10:04.099Z</time></trkpt><trkpt lat="42.0575383" lon="13.56793"><ele>688.5</ele><time>2026-05-02T12:10:05.1Z</time></trkpt><trkpt lat="42.0575217" lon="13.5681083"><ele>688.25</ele><time>2026-05-02T12:10:06.099Z</time></trkpt><trkpt lat="42.0575083" lon="13.5682917"><ele>688.0</ele><time>2026-05-02T12:10:07.1Z</time></trkpt><trkpt lat="42.0574983" lon="13.568475"><ele>688.0</ele><time>2026-05-02T12:10:08.1Z</time></trkpt><trkpt lat="42.0574883" lon="13.56867"><ele>688.0</ele><time>2026-05-02T12:10:09.099Z</time></trkpt><trkpt lat="42.057475" lon="13.5688717"><ele>688.0</ele><time>2026-05-02T12:10:10.099Z</time></trkpt><trkpt lat="42.0574633" lon="13.56908"><ele>688.0</ele><time>2026-05-02T12:10:11.099Z</time></trkpt><trkpt lat="42.0574533" lon="13.569295"><ele>688.0</ele><time>2026-05-02T12:10:12.1Z</time></trkpt><trkpt lat="42.0574417" lon="13.569515"><ele>688.0</ele><time>2026-05-02T12:10:13.1Z</time></trkpt><trkpt lat="42.0574283" lon="13.5697383"><ele>687.0</ele><time>2026-05-02T12:10:14.099Z</time></trkpt><trkpt lat="42.057415" lon="13.5699667"><ele>686.0</ele><time>2026-05-02T12:10:15.099Z</time></trkpt><trkpt lat="42.057405" lon="13.5701967"><ele>685.0</ele><time>2026-05-02T12:10:16.1Z</time></trkpt><trkpt lat="42.0573883" lon="13.5704317"><ele>684.6666666666667</ele><time>2026-05-02T12:10:17.099Z</time></trkpt><trkpt lat="42.057375" lon="13.5706583"><ele>684.3333333333334</ele><time>2026-05-02T12:10:18.099Z</time></trkpt><trkpt lat="42.0573583" lon="13.5708867"><ele>684.0</ele><time>2026-05-02T12:10:19.1Z</time></trkpt><trkpt lat="42.05735" lon="13.57112"><ele>683.3333333333334</ele><time>2026-05-02T12:10:20.1Z</time></trkpt><trkpt lat="42.0573317" lon="13.5713583"><ele>682.6666666666667</ele><time>2026-05-02T12:10:21.099Z</time></trkpt><trkpt lat="42.0573183" lon="13.5716083"><ele>682.0</ele><time>2026-05-02T12:10:22.1Z</time></trkpt><trkpt lat="42.0573" lon="13.5718667"><ele>682.3333333333334</ele><time>2026-05-02T12:10:23.099Z</time></trkpt><trkpt lat="42.0572817" lon="13.5721267"><ele>682.6666666666666</ele><time>2026-05-02T12:10:24.099Z</time></trkpt><trkpt lat="42.0572633" lon="13.572395"><ele>683.0</ele><time>2026-05-02T12:10:25.099Z</time></trkpt><trkpt lat="42.0572483" lon="13.57267"><ele>684.3333333333333</ele><time>2026-05-02T12:10:26.099Z</time></trkpt><trkpt lat="42.0572333" lon="13.5729467"><ele>685.6666666666666</ele><time>2026-05-02T12:10:27.099Z</time></trkpt><trkpt lat="42.057215" lon="13.5732283"><ele>687.0</ele><time>2026-05-02T12:10:28.099Z</time></trkpt><trkpt lat="42.0571983" lon="13.5735017"><ele>687.3333333333334</ele><time>2026-05-02T12:10:29.099Z</time></trkpt><trkpt lat="42.0571783" lon="13.5737883"><ele>687.6666666666667</ele><time>2026-05-02T12:10:30.1Z</time></trkpt><trkpt lat="42.057165" lon="13.5740733"><ele>688.0</ele><time>2026-05-02T12:10:31.1Z</time></trkpt><trkpt lat="42.0571517" lon="13.5743733"><ele>687.6666666666667</ele><time>2026-05-02T12:10:32.1Z</time></trkpt><trkpt lat="42.0571333" lon="13.574675"><ele>687.3333333333334</ele><time>2026-05-02T12:10:33.099Z</time></trkpt><trkpt lat="42.0571167" lon="13.5749733"><ele>687.0</ele><time>2026-05-02T12:10:34.099Z</time></trkpt><trkpt lat="42.0570967" lon="13.5752717"><ele>686.6666666666666</ele><time>2026-05-02T12:10:35.099Z</time></trkpt><trkpt lat="42.0570767" lon="13.57557"><ele>686.3333333333333</ele><time>2026-05-02T12:10:36.1Z</time></trkpt><trkpt lat="42.0570633" lon="13.575865"><ele>686.0</ele><time>2026-05-02T12:10:37.1Z</time></trkpt><trkpt lat="42.05705" lon="13.5761667"><ele>686.3333333333333</ele><time>2026-05-02T12:10:38.099Z</time></trkpt><trkpt lat="42.0570333" lon="13.57647"><ele>686.6666666666666</ele><time>2026-05-02T12:10:39.099Z</time></trkpt><trkpt lat="42.057015" lon="13.5767683"><ele>687.0</ele><time>2026-05-02T12:10:40.099Z</time></trkpt><trkpt lat="42.057" lon="13.5770717"><ele>687.0</ele><time>2026-05-02T12:10:41.1Z</time></trkpt><trkpt lat="42.05698" lon="13.577385"><ele>687.0</ele><time>2026-05-02T12:10:42.099Z</time></trkpt><trkpt lat="42.0569667" lon="13.5776833"><ele>687.0</ele><time>2026-05-02T12:10:43.099Z</time></trkpt><trkpt lat="42.05695" lon="13.5779733"><ele>687.0</ele><time>2026-05-02T12:10:44.1Z</time></trkpt><trkpt lat="42.056935" lon="13.578245"><ele>687.0</ele><time>2026-05-02T12:10:45.1Z</time></trkpt><trkpt lat="42.0569183" lon="13.578515"><ele>687.6666666666666</ele><time>2026-05-02T12:10:46.1Z</time></trkpt><trkpt lat="42.0569017" lon="13.5787683"><ele>688.3333333333333</ele><time>2026-05-02T12:10:47.1Z</time></trkpt><trkpt lat="42.0568883" lon="13.5790067"><ele>689.0</ele><time>2026-05-02T12:10:48.1Z</time></trkpt><trkpt lat="42.0568633" lon="13.5792333"><ele>689.0</ele><time>2026-05-02T12:10:49.1Z</time></trkpt><trkpt lat="42.0568283" lon="13.5794333"><ele>689.0</ele><time>2026-05-02T12:10:50.1Z</time></trkpt><trkpt lat="42.05678" lon="13.5796333"><ele>689.0</ele><time>2026-05-02T12:10:51.1Z</time></trkpt><trkpt lat="42.05673" lon="13.5798283"><ele>689.0</ele><time>2026-05-02T12:10:52.099Z</time></trkpt><trkpt lat="42.056665" lon="13.580005"><ele>689.0</ele><time>2026-05-02T12:10:53.1Z</time></trkpt><trkpt lat="42.0565933" lon="13.5801733"><ele>689.0</ele><time>2026-05-02T12:10:54.099Z</time></trkpt><trkpt lat="42.0565167" lon="13.5803383"><ele>689.0</ele><time>2026-05-02T12:10:55.1Z</time></trkpt><trkpt lat="42.0564467" lon="13.5804933"><ele>689.0</ele><time>2026-05-02T12:10:56.1Z</time></trkpt><trkpt lat="42.0563783" lon="13.5806267"><ele>689.0</ele><time>2026-05-02T12:10:57.098Z</time></trkpt><trkpt lat="42.0563217" lon="13.58073"><ele>689.0</ele><time>2026-05-02T12:10:58.099Z</time></trkpt><trkpt lat="42.056265" lon="13.5807983"><ele>689.0</ele><time>2026-05-02T12:10:59.099Z</time></trkpt><trkpt lat="42.0561967" lon="13.5808483"><ele>689.0</ele><time>2026-05-02T12:11:00.098Z</time></trkpt><trkpt lat="42.0561217" lon="13.5808883"><ele>689.0</ele><time>2026-05-02T12:11:01.098Z</time></trkpt><trkpt lat="42.0560417" lon="13.5809317"><ele>689.0</ele><time>2026-05-02T12:11:02.099Z</time></trkpt><trkpt lat="42.0559717" lon="13.5809933"><ele>689.0</ele><time>2026-05-02T12:11:03.098Z</time></trkpt><trkpt lat="42.0559183" lon="13.5810767"><ele>689.0</ele><time>2026-05-02T12:11:04.098Z</time></trkpt><trkpt lat="42.0558933" lon="13.5811717"><ele>689.0</ele><time>2026-05-02T12:11:05.099Z</time></trkpt><trkpt lat="42.0558867" lon="13.5812817"><ele>689.0</ele><time>2026-05-02T12:11:06.098Z</time></trkpt><trkpt lat="42.0559017" lon="13.5813867"><ele>689.5</ele><time>2026-05-02T12:11:07.099Z</time></trkpt><trkpt lat="42.0559333" lon="13.5814783"><ele>690.0</ele><time>2026-05-02T12:11:08.098Z</time></trkpt><trkpt lat="42.0559817" lon="13.581575"><ele>690.5</ele><time>2026-05-02T12:11:09.099Z</time></trkpt><trkpt lat="42.0560283" lon="13.58168"><ele>691.0</ele><time>2026-05-02T12:11:10.099Z</time></trkpt><trkpt lat="42.056055" lon="13.5818017"><ele>691.5</ele><time>2026-05-02T12:11:11.099Z</time></trkpt><trkpt lat="42.0560533" lon="13.581935"><ele>692.0</ele><time>2026-05-02T12:11:12.099Z</time></trkpt><trkpt lat="42.056045" lon="13.5820783"><ele>692.75</ele><time>2026-05-02T12:11:13.099Z</time></trkpt><trkpt lat="42.0560433" lon="13.5822317"><ele>693.5</ele><time>2026-05-02T12:11:14.098Z</time></trkpt><trkpt lat="42.0560433" lon="13.5823983"><ele>694.25</ele><time>2026-05-02T12:11:15.098Z</time></trkpt><trkpt lat="42.0560517" lon="13.582575"><ele>695.0</ele><time>2026-05-02T12:11:16.098Z</time></trkpt><trkpt lat="42.056085" lon="13.5827467"><ele>695.25</ele><time>2026-05-02T12:11:17.098Z</time></trkpt><trkpt lat="42.0561333" lon="13.58293"><ele>695.5</ele><time>2026-05-02T12:11:18.099Z</time></trkpt><trkpt lat="42.0561883" lon="13.5831133"><ele>695.75</ele><time>2026-05-02T12:11:19.099Z</time></trkpt><trkpt lat="42.05625" lon="13.5833"><ele>696.0</ele><time>2026-05-02T12:11:20.098Z</time></trkpt><trkpt lat="42.0563067" lon="13.5834767"><ele>696.0</ele><time>2026-05-02T12:11:21.098Z</time></trkpt><trkpt lat="42.056375" lon="13.5836633"><ele>696.0</ele><time>2026-05-02T12:11:22.098Z</time></trkpt><trkpt lat="42.0564417" lon="13.58386"><ele>696.0</ele><time>2026-05-02T12:11:23.099Z</time></trkpt><trkpt lat="42.0564917" lon="13.584065"><ele>696.6666666666666</ele><time>2026-05-02T12:11:24.099Z</time></trkpt><trkpt lat="42.05653" lon="13.5842817"><ele>697.3333333333333</ele><time>2026-05-02T12:11:25.098Z</time></trkpt><trkpt lat="42.0565533" lon="13.584505"><ele>698.0</ele><time>2026-05-02T12:11:26.098Z</time></trkpt><trkpt lat="42.0565567" lon="13.584725"><ele>699.3333333333333</ele><time>2026-05-02T12:11:27.098Z</time></trkpt><trkpt lat="42.0565433" lon="13.5849533"><ele>700.6666666666666</ele><time>2026-05-02T12:11:28.098Z</time></trkpt><trkpt lat="42.056525" lon="13.5851817"><ele>702.0</ele><time>2026-05-02T12:11:29.098Z</time></trkpt><trkpt lat="42.0565083" lon="13.5854167"><ele>702.6666666666666</ele><time>2026-05-02T12:11:30.099Z</time></trkpt><trkpt lat="42.0564883" lon="13.5856533"><ele>703.3333333333333</ele><time>2026-05-02T12:11:31.099Z</time></trkpt><trkpt lat="42.05647" lon="13.58589"><ele>704.0</ele><time>2026-05-02T12:11:32.098Z</time></trkpt><trkpt lat="42.0564533" lon="13.5861167"><ele>705.0</ele><time>2026-05-02T12:11:33.098Z</time></trkpt><trkpt lat="42.0564417" lon="13.58634"><ele>706.0</ele><time>2026-05-02T12:11:34.099Z</time></trkpt><trkpt lat="42.0564267" lon="13.5865633"><ele>707.0</ele><time>2026-05-02T12:11:35.098Z</time></trkpt><trkpt lat="42.0564183" lon="13.586795"><ele>708.0</ele><time>2026-05-02T12:11:36.099Z</time></trkpt><trkpt lat="42.0564083" lon="13.5870317"><ele>709.0</ele><time>2026-05-02T12:11:37.099Z</time></trkpt><trkpt lat="42.056395" lon="13.587275"><ele>710.0</ele><time>2026-05-02T12:11:38.098Z</time></trkpt><trkpt lat="42.056375" lon="13.58752"><ele>710.0</ele><time>2026-05-02T12:11:39.098Z</time></trkpt><trkpt lat="42.0563617" lon="13.587755"><ele>710.0</ele><time>2026-05-02T12:11:40.099Z</time></trkpt><trkpt lat="42.0563483" lon="13.588"><ele>710.0</ele><time>2026-05-02T12:11:41.098Z</time></trkpt><trkpt lat="42.05633" lon="13.588235"><ele>710.6666666666666</ele><time>2026-05-02T12:11:42.098Z</time></trkpt><trkpt lat="42.05632" lon="13.5884617"><ele>711.3333333333334</ele><time>2026-05-02T12:11:43.099Z</time></trkpt><trkpt lat="42.0563117" lon="13.588675"><ele>712.0</ele><time>2026-05-02T12:11:44.098Z</time></trkpt><trkpt lat="42.0563" lon="13.588895"><ele>712.6666666666667</ele><time>2026-05-02T12:11:45.099Z</time></trkpt><trkpt lat="42.0562917" lon="13.5891067"><ele>713.3333333333334</ele><time>2026-05-02T12:11:46.098Z</time></trkpt><trkpt lat="42.05628" lon="13.58931"><ele>714.0</ele><time>2026-05-02T12:11:47.098Z</time></trkpt><trkpt lat="42.056265" lon="13.5895"><ele>714.0</ele><time>2026-05-02T12:11:48.099Z</time></trkpt><trkpt lat="42.0562483" lon="13.58968"><ele>714.0</ele><time>2026-05-02T12:11:49.099Z</time></trkpt><trkpt lat="42.0562383" lon="13.5898467"><ele>714.0</ele><time>2026-05-02T12:11:50.099Z</time></trkpt><trkpt lat="42.0562283" lon="13.5900033"><ele>714.0</ele><time>2026-05-02T12:11:51.099Z</time></trkpt><trkpt lat="42.05622" lon="13.590155"><ele>714.0</ele><time>2026-05-02T12:11:52.098Z</time></trkpt><trkpt lat="42.0562117" lon="13.5903117"><ele>714.0</ele><time>2026-05-02T12:11:53.099Z</time></trkpt><trkpt lat="42.0562033" lon="13.590475"><ele>714.0</ele><time>2026-05-02T12:11:54.098Z</time></trkpt><trkpt lat="42.0561983" lon="13.59064"><ele>714.0</ele><time>2026-05-02T12:11:55.098Z</time></trkpt><trkpt lat="42.0561883" lon="13.5908117"><ele>714.5</ele><time>2026-05-02T12:11:56.098Z</time></trkpt><trkpt lat="42.056175" lon="13.590995"><ele>715.0</ele><time>2026-05-02T12:11:57.099Z</time></trkpt><trkpt lat="42.0561633" lon="13.5911817"><ele>715.5</ele><time>2026-05-02T12:11:58.098Z</time></trkpt><trkpt lat="42.0561567" lon="13.591365"><ele>716.0</ele><time>2026-05-02T12:11:59.098Z</time></trkpt><trkpt lat="42.0561483" lon="13.5915483"><ele>716.0</ele><time>2026-05-02T12:12:00.098Z</time></trkpt><trkpt lat="42.0561333" lon="13.5917467"><ele>716.0</ele><time>2026-05-02T12:12:01.099Z</time></trkpt><trkpt lat="42.056115" lon="13.59195"><ele>716.0</ele><time>2026-05-02T12:12:02.099Z</time></trkpt><trkpt lat="42.056095" lon="13.5921517"><ele>716.6666666666666</ele><time>2026-05-02T12:12:03.098Z</time></trkpt><trkpt lat="42.0560817" lon="13.5923617"><ele>717.3333333333334</ele><time>2026-05-02T12:12:04.099Z</time></trkpt><trkpt lat="42.0560683" lon="13.5925783"><ele>718.0</ele><time>2026-05-02T12:12:05.098Z</time></trkpt><trkpt lat="42.0560617" lon="13.5927883"><ele>718.3333333333334</ele><time>2026-05-02T12:12:06.099Z</time></trkpt><trkpt lat="42.0560667" lon="13.593015"><ele>718.6666666666666</ele><time>2026-05-02T12:12:07.099Z</time></trkpt><trkpt lat="42.0560767" lon="13.5932533"><ele>719.0</ele><time>2026-05-02T12:12:08.099Z</time></trkpt><trkpt lat="42.0560867" lon="13.5934983"><ele>719.3333333333333</ele><time>2026-05-02T12:12:09.098Z</time></trkpt><trkpt lat="42.0561033" lon="13.5937367"><ele>719.6666666666666</ele><time>2026-05-02T12:12:10.098Z</time></trkpt><trkpt lat="42.056125" lon="13.5939683"><ele>720.0</ele><time>2026-05-02T12:12:11.098Z</time></trkpt><trkpt lat="42.0561433" lon="13.5941983"><ele>720.0</ele><time>2026-05-02T12:12:12.099Z</time></trkpt><trkpt lat="42.0561633" lon="13.5944167"><ele>720.0</ele><time>2026-05-02T12:12:13.099Z</time></trkpt><trkpt lat="42.0561833" lon="13.594645"><ele>720.0</ele><time>2026-05-02T12:12:14.099Z</time></trkpt><trkpt lat="42.0562033" lon="13.5948717"><ele>720.0</ele><time>2026-05-02T12:12:15.099Z</time></trkpt><trkpt lat="42.0562217" lon="13.595105"><ele>720.0</ele><time>2026-05-02T12:12:16.098Z</time></trkpt><trkpt lat="42.0562467" lon="13.595335"><ele>720.0</ele><time>2026-05-02T12:12:17.099Z</time></trkpt><trkpt lat="42.05627" lon="13.595565"><ele>720.0</ele><time>2026-05-02T12:12:18.098Z</time></trkpt><trkpt lat="42.056295" lon="13.595805"><ele>720.0</ele><time>2026-05-02T12:12:19.099Z</time></trkpt><trkpt lat="42.0563267" lon="13.596045"><ele>720.0</ele><time>2026-05-02T12:12:20.098Z</time></trkpt><trkpt lat="42.0563533" lon="13.5962833"><ele>720.0</ele><time>2026-05-02T12:12:21.099Z</time></trkpt><trkpt lat="42.0563767" lon="13.596515"><ele>720.0</ele><time>2026-05-02T12:12:22.099Z</time></trkpt><trkpt lat="42.0564033" lon="13.5967483"><ele>720.0</ele><time>2026-05-02T12:12:23.099Z</time></trkpt><trkpt lat="42.05643" lon="13.5969767"><ele>720.3333333333334</ele><time>2026-05-02T12:12:24.098Z</time></trkpt><trkpt lat="42.056455" lon="13.5972067"><ele>720.6666666666667</ele><time>2026-05-02T12:12:25.098Z</time></trkpt><trkpt lat="42.0564783" lon="13.5974233"><ele>721.0</ele><time>2026-05-02T12:12:26.099Z</time></trkpt><trkpt lat="42.056495" lon="13.5976383"><ele>721.6666666666667</ele><time>2026-05-02T12:12:27.098Z</time></trkpt><trkpt lat="42.0565183" lon="13.5978467"><ele>722.3333333333334</ele><time>2026-05-02T12:12:28.099Z</time></trkpt><trkpt lat="42.0565433" lon="13.59805"><ele>723.0</ele><time>2026-05-02T12:12:29.098Z</time></trkpt><trkpt lat="42.05657" lon="13.5982533"><ele>723.0</ele><time>2026-05-02T12:12:30.098Z</time></trkpt><trkpt lat="42.05659" lon="13.5984633"><ele>723.0</ele><time>2026-05-02T12:12:31.099Z</time></trkpt><trkpt lat="42.0566167" lon="13.5986767"><ele>723.0</ele><time>2026-05-02T12:12:32.099Z</time></trkpt><trkpt lat="42.0566383" lon="13.5988817"><ele>723.6666666666666</ele><time>2026-05-02T12:12:33.099Z</time></trkpt><trkpt lat="42.0566583" lon="13.59909"><ele>724.3333333333333</ele><time>2026-05-02T12:12:34.099Z</time></trkpt><trkpt lat="42.0566767" lon="13.5993"><ele>725.0</ele><time>2026-05-02T12:12:35.099Z</time></trkpt><trkpt lat="42.0566983" lon="13.599515"><ele>726.3333333333333</ele><time>2026-05-02T12:12:36.098Z</time></trkpt><trkpt lat="42.0567167" lon="13.5997283"><ele>727.6666666666666</ele><time>2026-05-02T12:12:37.099Z</time></trkpt><trkpt lat="42.0567417" lon="13.5999467"><ele>729.0</ele><time>2026-05-02T12:12:38.099Z</time></trkpt><trkpt lat="42.0567617" lon="13.6001633"><ele>729.3333333333334</ele><time>2026-05-02T12:12:39.098Z</time></trkpt><trkpt lat="42.0567883" lon="13.6003767"><ele>729.6666666666667</ele><time>2026-05-02T12:12:40.099Z</time></trkpt><trkpt lat="42.0568117" lon="13.6005817"><ele>730.0</ele><time>2026-05-02T12:12:41.098Z</time></trkpt><trkpt lat="42.0568283" lon="13.6007883"><ele>730.0</ele><time>2026-05-02T12:12:42.099Z</time></trkpt><trkpt lat="42.05685" lon="13.60098"><ele>730.0</ele><time>2026-05-02T12:12:43.098Z</time></trkpt><trkpt lat="42.05687" lon="13.6011667"><ele>730.0</ele><time>2026-05-02T12:12:44.098Z</time></trkpt><trkpt lat="42.0568883" lon="13.601345"><ele>730.0</ele><time>2026-05-02T12:12:45.098Z</time></trkpt><trkpt lat="42.056905" lon="13.6015117"><ele>730.5</ele><time>2026-05-02T12:12:46.098Z</time></trkpt><trkpt lat="42.0569217" lon="13.6016783"><ele>731.0</ele><time>2026-05-02T12:12:47.099Z</time></trkpt><trkpt lat="42.05694" lon="13.601835"><ele>731.5</ele><time>2026-05-02T12:12:48.099Z</time></trkpt><trkpt lat="42.05696" lon="13.6019867"><ele>732.0</ele><time>2026-05-02T12:12:49.098Z</time></trkpt><trkpt lat="42.0569767" lon="13.6021383"><ele>732.4000000000001</ele><time>2026-05-02T12:12:50.098Z</time></trkpt><trkpt lat="42.0569933" lon="13.60228"><ele>732.8000000000001</ele><time>2026-05-02T12:12:51.098Z</time></trkpt><trkpt lat="42.0570017" lon="13.6023933"><ele>733.2</ele><time>2026-05-02T12:12:52.098Z</time></trkpt><trkpt lat="42.0570133" lon="13.6024983"><ele>733.6</ele><time>2026-05-02T12:12:53.098Z</time></trkpt><trkpt lat="42.057015" lon="13.6025833"><ele>734.0</ele><time>2026-05-02T12:12:54.099Z</time></trkpt><trkpt lat="42.0570417" lon="13.6027367"><ele>734.0</ele><time>2026-05-02T12:12:56.099Z</time></trkpt><trkpt lat="42.0570883" lon="13.6027967"><ele>734.0</ele><time>2026-05-02T12:12:57.098Z</time></trkpt><trkpt lat="42.0571467" lon="13.6028317"><ele>734.0</ele><time>2026-05-02T12:12:58.099Z</time></trkpt><trkpt lat="42.05722" lon="13.6028583"><ele>734.0</ele><time>2026-05-02T12:12:59.099Z</time></trkpt><trkpt lat="42.0572983" lon="13.6028833"><ele>734.0</ele><time>2026-05-02T12:13:00.099Z</time></trkpt><trkpt lat="42.0573833" lon="13.6029083"><ele>734.0</ele><time>2026-05-02T12:13:01.099Z</time></trkpt><trkpt lat="42.0574683" lon="13.6029433"><ele>735.6</ele><time>2026-05-02T12:13:02.099Z</time></trkpt><trkpt lat="42.057555" lon="13.6029717"><ele>737.2</ele><time>2026-05-02T12:13:03.099Z</time></trkpt><trkpt lat="42.0576483" lon="13.60301"><ele>738.8000000000001</ele><time>2026-05-02T12:13:04.098Z</time></trkpt><trkpt lat="42.05775" lon="13.6030483"><ele>740.4000000000001</ele><time>2026-05-02T12:13:05.099Z</time></trkpt><trkpt lat="42.057855" lon="13.60308"><ele>742.0</ele><time>2026-05-02T12:13:06.099Z</time></trkpt><trkpt lat="42.0579683" lon="13.6031267"><ele>742.0</ele><time>2026-05-02T12:13:07.098Z</time></trkpt><trkpt lat="42.0580883" lon="13.603185"><ele>742.0</ele><time>2026-05-02T12:13:08.098Z</time></trkpt><trkpt lat="42.0582133" lon="13.603235"><ele>742.0</ele><time>2026-05-02T12:13:09.099Z</time></trkpt><trkpt lat="42.0583483" lon="13.6032933"><ele>742.0</ele><time>2026-05-02T12:13:10.098Z</time></trkpt><trkpt lat="42.0584717" lon="13.6033517"><ele>743.25</ele><time>2026-05-02T12:13:11.099Z</time></trkpt><trkpt lat="42.0586033" lon="13.6034117"><ele>744.5</ele><time>2026-05-02T12:13:12.099Z</time></trkpt><trkpt lat="42.0587467" lon="13.6034817"><ele>745.75</ele><time>2026-05-02T12:13:13.099Z</time></trkpt><trkpt lat="42.058875" lon="13.603545"><ele>747.0</ele><time>2026-05-02T12:13:14.098Z</time></trkpt><trkpt lat="42.0590233" lon="13.60362"><ele>749.3333333333334</ele><time>2026-05-02T12:13:15.099Z</time></trkpt><trkpt lat="42.05917" lon="13.60369"><ele>751.6666666666667</ele><time>2026-05-02T12:13:16.098Z</time></trkpt><trkpt lat="42.0593183" lon="13.6037617"><ele>754.0</ele><time>2026-05-02T12:13:17.099Z</time></trkpt><trkpt lat="42.0594617" lon="13.60382"><ele>754.0</ele><time>2026-05-02T12:13:18.099Z</time></trkpt><trkpt lat="42.059605" lon="13.6038867"><ele>754.0</ele><time>2026-05-02T12:13:19.098Z</time></trkpt><trkpt lat="42.0597417" lon="13.6039517"><ele>754.0</ele><time>2026-05-02T12:13:20.099Z</time></trkpt><trkpt lat="42.0598667" lon="13.604005"><ele>754.0</ele><time>2026-05-02T12:13:21.099Z</time></trkpt><trkpt lat="42.06" lon="13.6040667"><ele>753.75</ele><time>2026-05-02T12:13:22.099Z</time></trkpt><trkpt lat="42.0601383" lon="13.6041283"><ele>753.5</ele><time>2026-05-02T12:13:23.099Z</time></trkpt><trkpt lat="42.06027" lon="13.6041867"><ele>753.25</ele><time>2026-05-02T12:13:24.099Z</time></trkpt><trkpt lat="42.0603983" lon="13.6042333"><ele>753.0</ele><time>2026-05-02T12:13:25.099Z</time></trkpt><trkpt lat="42.0605333" lon="13.60427"><ele>753.0</ele><time>2026-05-02T12:13:26.099Z</time></trkpt><trkpt lat="42.060665" lon="13.6043"><ele>753.0</ele><time>2026-05-02T12:13:27.098Z</time></trkpt><trkpt lat="42.0608017" lon="13.60432"><ele>753.0</ele><time>2026-05-02T12:13:28.099Z</time></trkpt><trkpt lat="42.0609433" lon="13.6043483"><ele>753.0</ele><time>2026-05-02T12:13:29.098Z</time></trkpt><trkpt lat="42.06109" lon="13.6043733"><ele>753.75</ele><time>2026-05-02T12:13:30.098Z</time></trkpt><trkpt lat="42.0612317" lon="13.6043967"><ele>754.5</ele><time>2026-05-02T12:13:31.098Z</time></trkpt><trkpt lat="42.0613683" lon="13.6044317"><ele>755.25</ele><time>2026-05-02T12:13:32.099Z</time></trkpt><trkpt lat="42.0615067" lon="13.6044633"><ele>756.0</ele><time>2026-05-02T12:13:33.099Z</time></trkpt><trkpt lat="42.06164" lon="13.6044933"><ele>757.25</ele><time>2026-05-02T12:13:34.099Z</time></trkpt><trkpt lat="42.0617717" lon="13.60452"><ele>758.5</ele><time>2026-05-02T12:13:35.099Z</time></trkpt><trkpt lat="42.0618967" lon="13.604555"><ele>759.75</ele><time>2026-05-02T12:13:36.098Z</time></trkpt><trkpt lat="42.0620133" lon="13.60459"><ele>761.0</ele><time>2026-05-02T12:13:37.099Z</time></trkpt><trkpt lat="42.06213" lon="13.6046183"><ele>761.0</ele><time>2026-05-02T12:13:38.098Z</time></trkpt><trkpt lat="42.0622333" lon="13.60465"><ele>761.0</ele><time>2026-05-02T12:13:39.099Z</time></trkpt><trkpt lat="42.0623367" lon="13.6046883"><ele>761.0</ele><time>2026-05-02T12:13:40.098Z</time></trkpt><trkpt lat="42.0624317" lon="13.6047183"><ele>761.0</ele><time>2026-05-02T12:13:41.098Z</time></trkpt><trkpt lat="42.0625183" lon="13.604735"><ele>761.0</ele><time>2026-05-02T12:13:42.098Z</time></trkpt><trkpt lat="42.0625967" lon="13.6047467"><ele>762.3333333333333</ele><time>2026-05-02T12:13:43.098Z</time></trkpt><trkpt lat="42.0626567" lon="13.6047083"><ele>763.6666666666666</ele><time>2026-05-02T12:13:44.098Z</time></trkpt><trkpt lat="42.0627117" lon="13.60457"><ele>765.0</ele><time>2026-05-02T12:13:46.099Z</time></trkpt><trkpt lat="42.0626933" lon="13.604475"><ele>766.3333333333333</ele><time>2026-05-02T12:13:47.099Z</time></trkpt><trkpt lat="42.0626617" lon="13.60437"><ele>767.6666666666666</ele><time>2026-05-02T12:13:48.099Z</time></trkpt><trkpt lat="42.0626183" lon="13.6042717"><ele>769.0</ele><time>2026-05-02T12:13:49.098Z</time></trkpt><trkpt lat="42.0625717" lon="13.6041733"><ele>769.1666666666666</ele><time>2026-05-02T12:13:50.099Z</time></trkpt><trkpt lat="42.0625283" lon="13.6040717"><ele>769.3333333333333</ele><time>2026-05-02T12:13:51.098Z</time></trkpt><trkpt lat="42.0624817" lon="13.603985"><ele>769.5</ele><time>2026-05-02T12:13:52.098Z</time></trkpt><trkpt lat="42.0624433" lon="13.6039067"><ele>769.6666666666667</ele><time>2026-05-02T12:13:53.098Z</time></trkpt><trkpt lat="42.0624133" lon="13.6038317"><ele>769.8333333333334</ele><time>2026-05-02T12:13:54.098Z</time></trkpt><trkpt lat="42.06246" lon="13.6037433"><ele>770.0</ele><time>2026-05-02T12:13:57.099Z</time></trkpt><trkpt lat="42.06252" lon="13.6038217"><ele>770.0</ele><time>2026-05-02T12:14:09.099Z</time></trkpt><trkpt lat="42.0625867" lon="13.6039167"><ele>770.0</ele><time>2026-05-02T12:14:11.098Z</time></trkpt><trkpt lat="42.06266" lon="13.6040283"><ele>770.0</ele><time>2026-05-02T12:14:13.098Z</time></trkpt><trkpt lat="42.062725" lon="13.604165"><ele>770.0</ele><time>2026-05-02T12:14:15.099Z</time></trkpt><trkpt lat="42.062765" lon="13.6042917"><ele>770.0</ele><time>2026-05-02T12:14:17.099Z</time></trkpt><trkpt lat="42.0628183" lon="13.60444"><ele>769.8333333333334</ele><time>2026-05-02T12:14:19.099Z</time></trkpt><trkpt lat="42.0628683" lon="13.6045867"><ele>769.6666666666667</ele><time>2026-05-02T12:14:21.098Z</time></trkpt><trkpt lat="42.0628983" lon="13.60467"><ele>769.5</ele><time>2026-05-02T12:14:22.098Z</time></trkpt><trkpt lat="42.0629283" lon="13.60475"><ele>769.3333333333333</ele><time>2026-05-02T12:14:23.098Z</time></trkpt><trkpt lat="42.0629667" lon="13.6048533"><ele>769.1666666666666</ele><time>2026-05-02T12:14:24.098Z</time></trkpt><trkpt lat="42.063" lon="13.6049617"><ele>769.0</ele><time>2026-05-02T12:14:25.099Z</time></trkpt><trkpt lat="42.0630367" lon="13.60507"><ele>769.0</ele><time>2026-05-02T12:14:26.098Z</time></trkpt><trkpt lat="42.0630783" lon="13.6051767"><ele>769.0</ele><time>2026-05-02T12:14:27.098Z</time></trkpt><trkpt lat="42.0631283" lon="13.6053067"><ele>769.0</ele><time>2026-05-02T12:14:28.099Z</time></trkpt><trkpt lat="42.0631883" lon="13.605445"><ele>769.0</ele><time>2026-05-02T12:14:29.098Z</time></trkpt><trkpt lat="42.0632467" lon="13.6055717"><ele>769.0</ele><time>2026-05-02T12:14:30.099Z</time></trkpt><trkpt lat="42.0633067" lon="13.60569"><ele>769.6666666666666</ele><time>2026-05-02T12:14:31.099Z</time></trkpt><trkpt lat="42.0633717" lon="13.60579"><ele>770.3333333333333</ele><time>2026-05-02T12:14:32.099Z</time></trkpt><trkpt lat="42.0634333" lon="13.60587"><ele>771.0</ele><time>2026-05-02T12:14:33.099Z</time></trkpt><trkpt lat="42.0634817" lon="13.6059333"><ele>771.6666666666667</ele><time>2026-05-02T12:14:34.098Z</time></trkpt><trkpt lat="42.0635383" lon="13.6060067"><ele>772.3333333333334</ele><time>2026-05-02T12:14:36.099Z</time></trkpt><trkpt lat="42.06361" lon="13.6060883"><ele>773.0</ele><time>2026-05-02T12:14:38.098Z</time></trkpt><trkpt lat="42.0636683" lon="13.60613"><ele>773.0000000000001</ele><time>2026-05-02T12:14:39.098Z</time></trkpt><trkpt lat="42.063735" lon="13.6061783"><ele>773.0</ele><time>2026-05-02T12:14:40.099Z</time></trkpt><trkpt lat="42.0638083" lon="13.60624"><ele>773.0</ele><time>2026-05-02T12:14:41.098Z</time></trkpt><trkpt lat="42.0638833" lon="13.6062917"><ele>773.0</ele><time>2026-05-02T12:14:42.099Z</time></trkpt><trkpt lat="42.0639633" lon="13.60635"><ele>773.0000000000001</ele><time>2026-05-02T12:14:43.098Z</time></trkpt><trkpt lat="42.0640383" lon="13.606405"><ele>773.0</ele><time>2026-05-02T12:14:44.099Z</time></trkpt><trkpt lat="42.06411" lon="13.6064417"><ele>774.2</ele><time>2026-05-02T12:14:45.098Z</time></trkpt><trkpt lat="42.064175" lon="13.6064583"><ele>775.4</ele><time>2026-05-02T12:14:46.099Z</time></trkpt><trkpt lat="42.06429" lon="13.606445"><ele>776.6</ele><time>2026-05-02T12:14:48.099Z</time></trkpt><trkpt lat="42.0644017" lon="13.606415"><ele>777.8000000000001</ele><time>2026-05-02T12:14:50.099Z</time></trkpt><trkpt lat="42.0645" lon="13.6063967"><ele>779.0</ele><time>2026-05-02T12:14:53.099Z</time></trkpt><trkpt lat="42.064565" lon="13.606525"><ele>779.0000000000001</ele><time>2026-05-02T12:14:55.099Z</time></trkpt><trkpt lat="42.0645683" lon="13.6066267"><ele>779.0</ele><time>2026-05-02T12:14:56.099Z</time></trkpt><trkpt lat="42.0645767" lon="13.6067383"><ele>779.0</ele><time>2026-05-02T12:14:57.098Z</time></trkpt><trkpt lat="42.06458" lon="13.60683"><ele>779.0</ele><time>2026-05-02T12:14:58.099Z</time></trkpt><trkpt lat="42.06457" lon="13.60698"><ele>779.0000000000001</ele><time>2026-05-02T12:15:00.099Z</time></trkpt><trkpt lat="42.0645733" lon="13.6071217"><ele>779.0</ele><time>2026-05-02T12:15:02.098Z</time></trkpt><trkpt lat="42.0645867" lon="13.6073"><ele>779.6</ele><time>2026-05-02T12:15:04.099Z</time></trkpt><trkpt lat="42.0645933" lon="13.60741"><ele>780.2</ele><time>2026-05-02T12:15:05.099Z</time></trkpt><trkpt lat="42.0645983" lon="13.60753"><ele>780.8000000000001</ele><time>2026-05-02T12:15:06.098Z</time></trkpt><trkpt lat="42.06461" lon="13.6076583"><ele>781.4000000000001</ele><time>2026-05-02T12:15:07.098Z</time></trkpt><trkpt lat="42.06462" lon="13.6077867"><ele>782.0</ele><time>2026-05-02T12:15:08.099Z</time></trkpt><trkpt lat="42.064625" lon="13.6079033"><ele>782.5000000000001</ele><time>2026-05-02T12:15:09.099Z</time></trkpt><trkpt lat="42.064635" lon="13.608025"><ele>783.0</ele><time>2026-05-02T12:15:10.098Z</time></trkpt><trkpt lat="42.0646433" lon="13.60814"><ele>783.5</ele><time>2026-05-02T12:15:11.099Z</time></trkpt><trkpt lat="42.064655" lon="13.6082433"><ele>784.0</ele><time>2026-05-02T12:15:12.098Z</time></trkpt><trkpt lat="42.0646717" lon="13.6083533"><ele>784.5000000000001</ele><time>2026-05-02T12:15:13.099Z</time></trkpt><trkpt lat="42.0646983" lon="13.6084567"><ele>785.0</ele><time>2026-05-02T12:15:14.099Z</time></trkpt><trkpt lat="42.0647367" lon="13.6085517"><ele>785.0000000000001</ele><time>2026-05-02T12:15:15.098Z</time></trkpt><trkpt lat="42.0647817" lon="13.608645"><ele>785.0</ele><time>2026-05-02T12:15:16.098Z</time></trkpt><trkpt lat="42.0648317" lon="13.6087367"><ele>785.0</ele><time>2026-05-02T12:15:17.098Z</time></trkpt><trkpt lat="42.06488" lon="13.608825"><ele>785.0</ele><time>2026-05-02T12:15:18.099Z</time></trkpt><trkpt lat="42.064915" lon="13.6089317"><ele>785.0000000000001</ele><time>2026-05-02T12:15:19.099Z</time></trkpt><trkpt lat="42.0649433" lon="13.6090483"><ele>785.0</ele><time>2026-05-02T12:15:20.098Z</time></trkpt><trkpt lat="42.0649817" lon="13.609175"><ele>787.4</ele><time>2026-05-02T12:15:21.098Z</time></trkpt><trkpt lat="42.0650183" lon="13.60931"><ele>789.8</ele><time>2026-05-02T12:15:22.098Z</time></trkpt><trkpt lat="42.0650583" lon="13.609445"><ele>792.2</ele><time>2026-05-02T12:15:23.098Z</time></trkpt><trkpt lat="42.0650967" lon="13.6095783"><ele>794.6</ele><time>2026-05-02T12:15:24.098Z</time></trkpt><trkpt lat="42.0651317" lon="13.609695"><ele>797.0</ele><time>2026-05-02T12:15:25.098Z</time></trkpt><trkpt lat="42.0651667" lon="13.6097983"><ele>797.5000000000001</ele><time>2026-05-02T12:15:26.099Z</time></trkpt><trkpt lat="42.0652017" lon="13.609895"><ele>798.0</ele><time>2026-05-02T12:15:27.098Z</time></trkpt><trkpt lat="42.065245" lon="13.6099867"><ele>798.5</ele><time>2026-05-02T12:15:28.098Z</time></trkpt><trkpt lat="42.0653033" lon="13.6100767"><ele>799.0</ele><time>2026-05-02T12:15:29.098Z</time></trkpt><trkpt lat="42.0653667" lon="13.61017"><ele>799.5000000000001</ele><time>2026-05-02T12:15:30.098Z</time></trkpt><trkpt lat="42.06543" lon="13.6102783"><ele>800.0</ele><time>2026-05-02T12:15:31.098Z</time></trkpt><trkpt lat="42.0654833" lon="13.610385"><ele>801.75</ele><time>2026-05-02T12:15:32.098Z</time></trkpt><trkpt lat="42.0655383" lon="13.6105083"><ele>803.5</ele><time>2026-05-02T12:15:33.098Z</time></trkpt><trkpt lat="42.0655917" lon="13.6106367"><ele>805.25</ele><time>2026-05-02T12:15:34.098Z</time></trkpt><trkpt lat="42.065645" lon="13.6107733"><ele>807.0</ele><time>2026-05-02T12:15:35.098Z</time></trkpt><trkpt lat="42.0657017" lon="13.6109183"><ele>807.0</ele><time>2026-05-02T12:15:36.098Z</time></trkpt><trkpt lat="42.0657633" lon="13.6110617"><ele>807.0</ele><time>2026-05-02T12:15:37.098Z</time></trkpt><trkpt lat="42.0658317" lon="13.6112033"><ele>807.0</ele><time>2026-05-02T12:15:38.098Z</time></trkpt><trkpt lat="42.0659117" lon="13.6113417"><ele>807.0</ele><time>2026-05-02T12:15:39.098Z</time></trkpt><trkpt lat="42.0659967" lon="13.6114833"><ele>808.25</ele><time>2026-05-02T12:15:40.098Z</time></trkpt><trkpt lat="42.0660717" lon="13.6116283"><ele>809.5</ele><time>2026-05-02T12:15:41.098Z</time></trkpt><trkpt lat="42.0661433" lon="13.6117783"><ele>810.75</ele><time>2026-05-02T12:15:42.098Z</time></trkpt><trkpt lat="42.06622" lon="13.6119283"><ele>812.0</ele><time>2026-05-02T12:15:43.099Z</time></trkpt><trkpt lat="42.0663033" lon="13.6120767"><ele>813.5</ele><time>2026-05-02T12:15:44.099Z</time></trkpt><trkpt lat="42.0663817" lon="13.6122233"><ele>815.0</ele><time>2026-05-02T12:15:45.099Z</time></trkpt><trkpt lat="42.0664533" lon="13.6123717"><ele>816.5</ele><time>2026-05-02T12:15:46.099Z</time></trkpt><trkpt lat="42.0665217" lon="13.61251"><ele>818.0</ele><time>2026-05-02T12:15:47.099Z</time></trkpt><trkpt lat="42.0665817" lon="13.6126333"><ele>819.2</ele><time>2026-05-02T12:15:48.099Z</time></trkpt><trkpt lat="42.06663" lon="13.6127483"><ele>820.4</ele><time>2026-05-02T12:15:49.098Z</time></trkpt><trkpt lat="42.0666683" lon="13.61286"><ele>821.6</ele><time>2026-05-02T12:15:50.099Z</time></trkpt><trkpt lat="42.0666883" lon="13.6129767"><ele>822.8000000000001</ele><time>2026-05-02T12:15:51.099Z</time></trkpt><trkpt lat="42.0667" lon="13.6130983"><ele>824.0</ele><time>2026-05-02T12:15:52.099Z</time></trkpt><trkpt lat="42.06671" lon="13.6132267"><ele>825.0</ele><time>2026-05-02T12:15:53.099Z</time></trkpt><trkpt lat="42.0667233" lon="13.6133567"><ele>826.0</ele><time>2026-05-02T12:15:54.098Z</time></trkpt><trkpt lat="42.0667383" lon="13.6134883"><ele>827.0</ele><time>2026-05-02T12:15:55.098Z</time></trkpt><trkpt lat="42.0667517" lon="13.6136217"><ele>828.0</ele><time>2026-05-02T12:15:56.098Z</time></trkpt><trkpt lat="42.0667683" lon="13.6137483"><ele>829.0</ele><time>2026-05-02T12:15:57.098Z</time></trkpt><trkpt lat="42.06679" lon="13.6138667"><ele>829.8333333333333</ele><time>2026-05-02T12:15:58.098Z</time></trkpt><trkpt lat="42.066815" lon="13.6139867"><ele>830.6666666666666</ele><time>2026-05-02T12:15:59.098Z</time></trkpt><trkpt lat="42.0668383" lon="13.61409"><ele>831.5</ele><time>2026-05-02T12:16:00.098Z</time></trkpt><trkpt lat="42.0668917" lon="13.614245"><ele>832.3333333333333</ele><time>2026-05-02T12:16:02.098Z</time></trkpt><trkpt lat="42.0669333" lon="13.6143117"><ele>833.1666666666666</ele><time>2026-05-02T12:16:03.099Z</time></trkpt><trkpt lat="42.0669883" lon="13.61438"><ele>834.0</ele><time>2026-05-02T12:16:04.098Z</time></trkpt><trkpt lat="42.0670467" lon="13.6144517"><ele>834.6</ele><time>2026-05-02T12:16:05.098Z</time></trkpt><trkpt lat="42.067115" lon="13.614525"><ele>835.2</ele><time>2026-05-02T12:16:06.098Z</time></trkpt><trkpt lat="42.0671883" lon="13.6145933"><ele>835.8000000000001</ele><time>2026-05-02T12:16:07.098Z</time></trkpt><trkpt lat="42.0672783" lon="13.614675"><ele>836.4000000000001</ele><time>2026-05-02T12:16:08.098Z</time></trkpt><trkpt lat="42.0673683" lon="13.6147567"><ele>837.0</ele><time>2026-05-02T12:16:09.098Z</time></trkpt><trkpt lat="42.0674533" lon="13.6148317"><ele>837.0</ele><time>2026-05-02T12:16:10.098Z</time></trkpt><trkpt lat="42.0675333" lon="13.6148967"><ele>837.0</ele><time>2026-05-02T12:16:11.099Z</time></trkpt><trkpt lat="42.0676117" lon="13.6149467"><ele>837.0</ele><time>2026-05-02T12:16:12.098Z</time></trkpt><trkpt lat="42.0676833" lon="13.6149833"><ele>837.0</ele><time>2026-05-02T12:16:13.099Z</time></trkpt><trkpt lat="42.06776" lon="13.615"><ele>837.0</ele><time>2026-05-02T12:16:14.099Z</time></trkpt><trkpt lat="42.0678383" lon="13.61499"><ele>837.0</ele><time>2026-05-02T12:16:15.099Z</time></trkpt><trkpt lat="42.06792" lon="13.6149617"><ele>837.0</ele><time>2026-05-02T12:16:16.099Z</time></trkpt><trkpt lat="42.06801" lon="13.61491"><ele>837.0</ele><time>2026-05-02T12:16:17.099Z</time></trkpt><trkpt lat="42.0681067" lon="13.614855"><ele>837.0</ele><time>2026-05-02T12:16:18.099Z</time></trkpt><trkpt lat="42.0681983" lon="13.6147917"><ele>837.0</ele><time>2026-05-02T12:16:19.099Z</time></trkpt><trkpt lat="42.0682867" lon="13.61473"><ele>837.0</ele><time>2026-05-02T12:16:20.098Z</time></trkpt><trkpt lat="42.0683667" lon="13.614665"><ele>837.8</ele><time>2026-05-02T12:16:21.099Z</time></trkpt><trkpt lat="42.06844" lon="13.6146017"><ele>838.6</ele><time>2026-05-02T12:16:22.099Z</time></trkpt><trkpt lat="42.0684983" lon="13.6145217"><ele>839.4</ele><time>2026-05-02T12:16:23.098Z</time></trkpt><trkpt lat="42.0685533" lon="13.6144283"><ele>840.1999999999999</ele><time>2026-05-02T12:16:24.098Z</time></trkpt><trkpt lat="42.0686033" lon="13.614325"><ele>841.0</ele><time>2026-05-02T12:16:25.099Z</time></trkpt><trkpt lat="42.0686633" lon="13.6142133"><ele>844.0</ele><time>2026-05-02T12:16:26.099Z</time></trkpt><trkpt lat="42.0687267" lon="13.6141017"><ele>847.0</ele><time>2026-05-02T12:16:27.099Z</time></trkpt><trkpt lat="42.0688017" lon="13.6139833"><ele>850.0</ele><time>2026-05-02T12:16:28.099Z</time></trkpt><trkpt lat="42.0688767" lon="13.6138617"><ele>853.0</ele><time>2026-05-02T12:16:29.098Z</time></trkpt><trkpt lat="42.06896" lon="13.6137433"><ele>853.5</ele><time>2026-05-02T12:16:30.099Z</time></trkpt><trkpt lat="42.069055" lon="13.613625"><ele>854.0</ele><time>2026-05-02T12:16:31.099Z</time></trkpt><trkpt lat="42.0691567" lon="13.6135"><ele>854.5</ele><time>2026-05-02T12:16:32.098Z</time></trkpt><trkpt lat="42.0692417" lon="13.6133683"><ele>855.0</ele><time>2026-05-02T12:16:33.099Z</time></trkpt><trkpt lat="42.06932" lon="13.613245"><ele>856.0</ele><time>2026-05-02T12:16:34.098Z</time></trkpt><trkpt lat="42.0693983" lon="13.6131267"><ele>857.0</ele><time>2026-05-02T12:16:35.099Z</time></trkpt><trkpt lat="42.0694883" lon="13.6130183"><ele>858.0</ele><time>2026-05-02T12:16:36.098Z</time></trkpt><trkpt lat="42.069585" lon="13.6129033"><ele>859.0</ele><time>2026-05-02T12:16:37.098Z</time></trkpt><trkpt lat="42.0696717" lon="13.612805"><ele>859.4000000000001</ele><time>2026-05-02T12:16:38.099Z</time></trkpt><trkpt lat="42.069765" lon="13.6127083"><ele>859.8000000000001</ele><time>2026-05-02T12:16:39.098Z</time></trkpt><trkpt lat="42.069845" lon="13.612615"><ele>860.1999999999999</ele><time>2026-05-02T12:16:40.099Z</time></trkpt><trkpt lat="42.06992" lon="13.612525"><ele>860.5999999999999</ele><time>2026-05-02T12:16:41.099Z</time></trkpt><trkpt lat="42.0699917" lon="13.6124417"><ele>861.0</ele><time>2026-05-02T12:16:42.098Z</time></trkpt><trkpt lat="42.07007" lon="13.6123483"><ele>862.25</ele><time>2026-05-02T12:16:43.098Z</time></trkpt><trkpt lat="42.0701533" lon="13.6122617"><ele>863.5</ele><time>2026-05-02T12:16:44.098Z</time></trkpt><trkpt lat="42.07023" lon="13.6121517"><ele>864.75</ele><time>2026-05-02T12:16:45.098Z</time></trkpt><trkpt lat="42.0703083" lon="13.612025"><ele>866.0</ele><time>2026-05-02T12:16:46.099Z</time></trkpt><trkpt lat="42.070395" lon="13.6119017"><ele>866.25</ele><time>2026-05-02T12:16:47.099Z</time></trkpt><trkpt lat="42.07048" lon="13.6117683"><ele>866.5</ele><time>2026-05-02T12:16:48.099Z</time></trkpt><trkpt lat="42.070565" lon="13.6116367"><ele>866.75</ele><time>2026-05-02T12:16:49.098Z</time></trkpt><trkpt lat="42.07064" lon="13.6114967"><ele>867.0</ele><time>2026-05-02T12:16:50.099Z</time></trkpt><trkpt lat="42.0707217" lon="13.6113483"><ele>868.5</ele><time>2026-05-02T12:16:51.098Z</time></trkpt><trkpt lat="42.070785" lon="13.6112017"><ele>870.0</ele><time>2026-05-02T12:16:52.098Z</time></trkpt><trkpt lat="42.07085" lon="13.6110383"><ele>871.5</ele><time>2026-05-02T12:16:53.098Z</time></trkpt><trkpt lat="42.0709133" lon="13.6108817"><ele>873.0</ele><time>2026-05-02T12:16:54.099Z</time></trkpt><trkpt lat="42.070975" lon="13.6107233"><ele>873.0</ele><time>2026-05-02T12:16:55.098Z</time></trkpt><trkpt lat="42.0710267" lon="13.6105817"><ele>873.0</ele><time>2026-05-02T12:16:56.099Z</time></trkpt><trkpt lat="42.0710783" lon="13.61045"><ele>873.0</ele><time>2026-05-02T12:16:57.098Z</time></trkpt><trkpt lat="42.0711217" lon="13.61032"><ele>873.0</ele><time>2026-05-02T12:16:58.098Z</time></trkpt><trkpt lat="42.0711617" lon="13.6102117"><ele>873.0</ele><time>2026-05-02T12:16:59.098Z</time></trkpt><trkpt lat="42.0712017" lon="13.6101117"><ele>873.0</ele><time>2026-05-02T12:17:00.098Z</time></trkpt><trkpt lat="42.0712483" lon="13.610015"><ele>873.0</ele><time>2026-05-02T12:17:01.099Z</time></trkpt><trkpt lat="42.0713067" lon="13.6099267"><ele>873.0</ele><time>2026-05-02T12:17:02.099Z</time></trkpt><trkpt lat="42.0713783" lon="13.60984"><ele>873.0</ele><time>2026-05-02T12:17:03.098Z</time></trkpt><trkpt lat="42.0714633" lon="13.6097583"><ele>873.0</ele><time>2026-05-02T12:17:04.098Z</time></trkpt><trkpt lat="42.071555" lon="13.6096967"><ele>874.5999999999999</ele><time>2026-05-02T12:17:05.099Z</time></trkpt><trkpt lat="42.0716517" lon="13.6096483"><ele>876.1999999999999</ele><time>2026-05-02T12:17:06.099Z</time></trkpt><trkpt lat="42.0717467" lon="13.609595"><ele>877.8</ele><time>2026-05-02T12:17:07.099Z</time></trkpt><trkpt lat="42.0718283" lon="13.6095217"><ele>879.4</ele><time>2026-05-02T12:17:08.099Z</time></trkpt><trkpt lat="42.0719017" lon="13.6094367"><ele>881.0</ele><time>2026-05-02T12:17:09.099Z</time></trkpt><trkpt lat="42.0719767" lon="13.6093483"><ele>881.0000000000001</ele><time>2026-05-02T12:17:10.098Z</time></trkpt><trkpt lat="42.0720483" lon="13.6092733"><ele>881.0</ele><time>2026-05-02T12:17:11.099Z</time></trkpt><trkpt lat="42.0721217" lon="13.60921"><ele>881.0</ele><time>2026-05-02T12:17:12.098Z</time></trkpt><trkpt lat="42.07218" lon="13.6091717"><ele>881.0</ele><time>2026-05-02T12:17:13.099Z</time></trkpt><trkpt lat="42.0722667" lon="13.6091483"><ele>881.0000000000001</ele><time>2026-05-02T12:17:15.098Z</time></trkpt><trkpt lat="42.07234" lon="13.6091817"><ele>881.0</ele><time>2026-05-02T12:17:17.099Z</time></trkpt><trkpt lat="42.0724233" lon="13.6092717"><ele>882.5999999999999</ele><time>2026-05-02T12:17:19.099Z</time></trkpt><trkpt lat="42.072475" lon="13.6093433"><ele>884.1999999999999</ele><time>2026-05-02T12:17:20.098Z</time></trkpt><trkpt lat="42.07254" lon="13.609425"><ele>885.8000000000001</ele><time>2026-05-02T12:17:21.098Z</time></trkpt><trkpt lat="42.0726167" lon="13.609515"><ele>887.4000000000001</ele><time>2026-05-02T12:17:22.098Z</time></trkpt><trkpt lat="42.072695" lon="13.609605"><ele>889.0</ele><time>2026-05-02T12:17:23.099Z</time></trkpt><trkpt lat="42.0727767" lon="13.6097067"><ele>889.4000000000001</ele><time>2026-05-02T12:17:24.098Z</time></trkpt><trkpt lat="42.0728567" lon="13.609805"><ele>889.8000000000001</ele><time>2026-05-02T12:17:25.097Z</time></trkpt><trkpt lat="42.0729383" lon="13.6099033"><ele>890.1999999999999</ele><time>2026-05-02T12:17:26.097Z</time></trkpt><trkpt lat="42.07302" lon="13.6099983"><ele>890.5999999999999</ele><time>2026-05-02T12:17:27.098Z</time></trkpt><trkpt lat="42.0731067" lon="13.6100933"><ele>891.0</ele><time>2026-05-02T12:17:28.098Z</time></trkpt><trkpt lat="42.07319" lon="13.610185"><ele>893.0</ele><time>2026-05-02T12:17:29.097Z</time></trkpt><trkpt lat="42.0732783" lon="13.6102867"><ele>894.9999999999999</ele><time>2026-05-02T12:17:30.098Z</time></trkpt><trkpt lat="42.0733583" lon="13.6103717"><ele>896.9999999999999</ele><time>2026-05-02T12:17:31.097Z</time></trkpt><trkpt lat="42.07343" lon="13.6104417"><ele>899.0</ele><time>2026-05-02T12:17:32.097Z</time></trkpt><trkpt lat="42.07349" lon="13.610505"><ele>901.0</ele><time>2026-05-02T12:17:33.098Z</time></trkpt><trkpt lat="42.07357" lon="13.6106083"><ele>901.1999999999999</ele><time>2026-05-02T12:17:35.098Z</time></trkpt><trkpt lat="42.0736583" lon="13.6106617"><ele>901.3999999999999</ele><time>2026-05-02T12:17:37.098Z</time></trkpt><trkpt lat="42.0737617" lon="13.6107167"><ele>901.6</ele><time>2026-05-02T12:17:39.097Z</time></trkpt><trkpt lat="42.07383" lon="13.6107717"><ele>901.8</ele><time>2026-05-02T12:17:40.098Z</time></trkpt><trkpt lat="42.0739067" lon="13.6108317"><ele>902.0</ele><time>2026-05-02T12:17:41.097Z</time></trkpt><trkpt lat="42.0739983" lon="13.6109017"><ele>902.0</ele><time>2026-05-02T12:17:42.097Z</time></trkpt><trkpt lat="42.07409" lon="13.6109567"><ele>902.0</ele><time>2026-05-02T12:17:43.098Z</time></trkpt><trkpt lat="42.0741833" lon="13.6110133"><ele>902.0</ele><time>2026-05-02T12:17:44.098Z</time></trkpt><trkpt lat="42.074275" lon="13.6110583"><ele>902.0</ele><time>2026-05-02T12:17:45.097Z</time></trkpt><trkpt lat="42.074375" lon="13.6110983"><ele>902.0</ele><time>2026-05-02T12:17:46.097Z</time></trkpt><trkpt lat="42.07449" lon="13.6111533"><ele>904.0</ele><time>2026-05-02T12:17:47.098Z</time></trkpt><trkpt lat="42.0745883" lon="13.6112067"><ele>906.0</ele><time>2026-05-02T12:17:48.097Z</time></trkpt><trkpt lat="42.0747533" lon="13.611275"><ele>908.0</ele><time>2026-05-02T12:17:50.097Z</time></trkpt><trkpt lat="42.0748483" lon="13.6112983"><ele>910.0</ele><time>2026-05-02T12:17:52.097Z</time></trkpt><trkpt lat="42.0749283" lon="13.6113033"><ele>911.3333333333333</ele><time>2026-05-02T12:18:27.097Z</time></trkpt><trkpt lat="42.0750117" lon="13.6113167"><ele>912.6666666666666</ele><time>2026-05-02T12:18:29.097Z</time></trkpt><trkpt lat="42.07509" lon="13.6113233"><ele>914.0</ele><time>2026-05-02T12:18:31.097Z</time></trkpt><trkpt lat="42.07516" lon="13.6113317"><ele>915.3333333333333</ele><time>2026-05-02T12:18:34.097Z</time></trkpt><trkpt lat="42.0752282" lon="13.6113212"><ele>916.6666666666666</ele><time>2026-05-02T12:19:25.194Z</time></trkpt><trkpt lat="42.0752006" lon="13.6112345"><ele>918.0</ele><time>2026-05-02T12:19:30.147Z</time></trkpt><trkpt lat="42.0751443" lon="13.6111435"><ele>918.1666666666666</ele><time>2026-05-02T12:19:32.158Z</time></trkpt><trkpt lat="42.0750437" lon="13.6110516"><ele>918.3333333333333</ele><time>2026-05-02T12:19:44.091Z</time></trkpt><trkpt lat="42.0750216" lon="13.6109643"><ele>918.5</ele><time>2026-05-02T12:19:46.148Z</time></trkpt><trkpt lat="42.075018" lon="13.6108702"><ele>918.6666666666666</ele><time>2026-05-02T12:19:50.169Z</time></trkpt><trkpt lat="42.0749966" lon="13.6107832"><ele>918.8333333333333</ele><time>2026-05-02T12:19:57.124Z</time></trkpt><trkpt lat="42.0750252" lon="13.610873"><ele>919.0</ele><time>2026-05-02T12:20:25.127Z</time></trkpt><trkpt lat="42.0750599" lon="13.6109482"><ele>919.0</ele><time>2026-05-02T12:20:31.047Z</time></trkpt><trkpt lat="42.0750503" lon="13.611052"><ele>918.9999999999999</ele><time>2026-05-02T12:20:34.13Z</time></trkpt><trkpt lat="42.0750435" lon="13.6111369"><ele>919.0</ele><time>2026-05-02T12:20:38.15Z</time></trkpt><trkpt lat="42.0751112" lon="13.6111747"><ele>919.0</ele><time>2026-05-02T12:20:46.19Z</time></trkpt><trkpt lat="42.0751716" lon="13.6112059"><ele>918.9999999999999</ele><time>2026-05-02T12:20:55.136Z</time></trkpt><trkpt lat="42.0751445" lon="13.6111251"><ele>919.0</ele><time>2026-05-02T12:23:26.201Z</time></trkpt><trkpt lat="42.0750773" lon="13.6110432"><ele>919.0</ele><time>2026-05-02T12:23:29.136Z</time></trkpt><trkpt lat="42.0750406" lon="13.6109414"><ele>918.9999999999999</ele><time>2026-05-02T12:23:31.186Z</time></trkpt><trkpt lat="42.0750094" lon="13.6108561"><ele>919.0</ele><time>2026-05-02T12:23:33.148Z</time></trkpt><trkpt lat="42.0749893" lon="13.6107663"><ele>919.0</ele><time>2026-05-02T12:23:36.112Z</time></trkpt><trkpt lat="42.0750512" lon="13.6108072"><ele>919.0</ele><time>2026-05-02T12:31:30.118Z</time></trkpt><trkpt lat="42.0751657" lon="13.6107885"><ele>918.9999999999999</ele><time>2026-05-02T12:31:41.192Z</time></trkpt><trkpt lat="42.0752283" lon="13.61083"><ele>919.0</ele><time>2026-05-02T12:32:50.097Z</time></trkpt><trkpt lat="42.075305" lon="13.6110033"><ele>919.0</ele><time>2026-05-02T12:33:04.096Z</time></trkpt><trkpt lat="42.0754183" lon="13.6110583"><ele>919.0000000000001</ele><time>2026-05-02T12:33:24.096Z</time></trkpt><trkpt lat="42.0755323" lon="13.6110114"><ele>919.0000000000001</ele><time>2026-05-02T12:33:40.177Z</time></trkpt><trkpt lat="42.0756403" lon="13.6109578"><ele>919.0</ele><time>2026-05-02T12:33:48.125Z</time></trkpt><trkpt lat="42.0757115" lon="13.6109294"><ele>919.0</ele><time>2026-05-02T12:34:09.168Z</time></trkpt><trkpt lat="42.0757959" lon="13.6109812"><ele>920.9999999999999</ele><time>2026-05-02T12:34:10.172Z</time></trkpt><trkpt lat="42.0758587" lon="13.6110861"><ele>923.0</ele><time>2026-05-02T12:34:40.177Z</time></trkpt><trkpt lat="42.075795" lon="13.6110117"><ele>925.0</ele><time>2026-05-02T12:53:43.095Z</time></trkpt><trkpt lat="42.07581" lon="13.6111367"><ele>927.0</ele><time>2026-05-02T12:54:00.095Z</time></trkpt><trkpt lat="42.075834" lon="13.6112177"><ele>928.9999999999999</ele><time>2026-05-02T12:54:08.144Z</time></trkpt><trkpt lat="42.0758495" lon="13.6113196"><ele>931.0</ele><time>2026-05-02T12:54:28.179Z</time></trkpt><trkpt lat="42.0758294" lon="13.6112391"><ele>930.9999999999999</ele><time>2026-05-02T13:03:06.164Z</time></trkpt><trkpt lat="42.0757793" lon="13.6111525"><ele>931.0</ele><time>2026-05-02T13:03:12.192Z</time></trkpt><trkpt lat="42.075761" lon="13.6110245"><ele>931.0</ele><time>2026-05-02T13:05:07.106Z</time></trkpt><trkpt lat="42.0757879" lon="13.6109422"><ele>931.0</ele><time>2026-05-02T13:05:12.131Z</time></trkpt><trkpt lat="42.0757353" lon="13.6108685"><ele>930.9999999999999</ele><time>2026-05-02T13:05:16.149Z</time></trkpt><trkpt lat="42.0756924" lon="13.610948"><ele>931.0</ele><time>2026-05-02T13:05:19.165Z</time></trkpt><trkpt lat="42.0756242" lon="13.6109308"><ele>929.2857142857142</ele><time>2026-05-02T13:05:28.128Z</time></trkpt><trkpt lat="42.0755616" lon="13.6109638"><ele>927.5714285714286</ele><time>2026-05-02T13:05:31.173Z</time></trkpt><trkpt lat="42.0755107" lon="13.6110239"><ele>925.8571428571429</ele><time>2026-05-02T13:05:34.196Z</time></trkpt><trkpt lat="42.0754504" lon="13.6110901"><ele>924.1428571428571</ele><time>2026-05-02T13:05:42.206Z</time></trkpt><trkpt lat="42.0753851" lon="13.6111047"><ele>922.4285714285713</ele><time>2026-05-02T13:05:46.173Z</time></trkpt><trkpt lat="42.0753265" lon="13.6110652"><ele>920.7142857142857</ele><time>2026-05-02T13:05:52.101Z</time></trkpt><trkpt lat="42.0752674" lon="13.6110101"><ele>919.0</ele><time>2026-05-02T13:05:56.153Z</time></trkpt><trkpt lat="42.0752069" lon="13.6109852"><ele>918.9999999999999</ele><time>2026-05-02T13:06:02.149Z</time></trkpt><trkpt lat="42.0751402" lon="13.6109554"><ele>919.0</ele><time>2026-05-02T13:06:07.174Z</time></trkpt><trkpt lat="42.0750919" lon="13.610897"><ele>919.0</ele><time>2026-05-02T13:06:11.204Z</time></trkpt><trkpt lat="42.0750158" lon="13.6108587"><ele>919.0</ele><time>2026-05-02T13:06:24.194Z</time></trkpt><trkpt lat="42.0750606" lon="13.6108134"><ele>918.9999999999999</ele><time>2026-05-02T13:13:46.095Z</time></trkpt><trkpt lat="42.0750949" lon="13.6108857"><ele>919.0</ele><time>2026-05-02T13:13:47.096Z</time></trkpt><trkpt lat="42.0751533" lon="13.61102"><ele>919.0</ele><time>2026-05-02T13:13:49.095Z</time></trkpt><trkpt lat="42.0751617" lon="13.61113"><ele>919.0000000000001</ele><time>2026-05-02T13:13:51.095Z</time></trkpt><trkpt lat="42.07514" lon="13.61124"><ele>919.0000000000001</ele><time>2026-05-02T13:13:54.096Z</time></trkpt><trkpt lat="42.0751033" lon="13.6113183"><ele>919.0</ele><time>2026-05-02T13:13:58.095Z</time></trkpt><trkpt lat="42.0750033" lon="13.6113283"><ele>919.0</ele><time>2026-05-02T13:14:01.096Z</time></trkpt><trkpt lat="42.0748767" lon="13.61132"><ele>917.2</ele><time>2026-05-02T13:14:03.096Z</time></trkpt><trkpt lat="42.0748" lon="13.6112983"><ele>915.4000000000001</ele><time>2026-05-02T13:14:04.095Z</time></trkpt><trkpt lat="42.07472" lon="13.6112783"><ele>913.6</ele><time>2026-05-02T13:14:05.095Z</time></trkpt><trkpt lat="42.07463" lon="13.611255"><ele>911.8</ele><time>2026-05-02T13:14:06.095Z</time></trkpt><trkpt lat="42.0745283" lon="13.611215"><ele>910.0</ele><time>2026-05-02T13:14:07.095Z</time></trkpt><trkpt lat="42.07443" lon="13.61117"><ele>909.75</ele><time>2026-05-02T13:14:08.095Z</time></trkpt><trkpt lat="42.07432" lon="13.611115"><ele>909.5</ele><time>2026-05-02T13:14:09.096Z</time></trkpt><trkpt lat="42.0742183" lon="13.6110567"><ele>909.25</ele><time>2026-05-02T13:14:10.095Z</time></trkpt><trkpt lat="42.0741133" lon="13.6109883"><ele>909.0</ele><time>2026-05-02T13:14:11.096Z</time></trkpt><trkpt lat="42.07401" lon="13.6109233"><ele>907.6</ele><time>2026-05-02T13:14:12.096Z</time></trkpt><trkpt lat="42.07392" lon="13.6108517"><ele>906.2</ele><time>2026-05-02T13:14:13.096Z</time></trkpt><trkpt lat="42.073835" lon="13.610795"><ele>904.8000000000001</ele><time>2026-05-02T13:14:14.096Z</time></trkpt><trkpt lat="42.073745" lon="13.6107333"><ele>903.4000000000001</ele><time>2026-05-02T13:14:15.096Z</time></trkpt><trkpt lat="42.0736533" lon="13.6106583"><ele>902.0</ele><time>2026-05-02T13:14:16.095Z</time></trkpt><trkpt lat="42.0735433" lon="13.6105783"><ele>902.0</ele><time>2026-05-02T13:14:17.095Z</time></trkpt><trkpt lat="42.0734417" lon="13.6104733"><ele>902.0</ele><time>2026-05-02T13:14:18.096Z</time></trkpt><trkpt lat="42.073335" lon="13.6103567"><ele>902.0</ele><time>2026-05-02T13:14:19.095Z</time></trkpt><trkpt lat="42.0732317" lon="13.6102433"><ele>902.0</ele><time>2026-05-02T13:14:20.096Z</time></trkpt><trkpt lat="42.0731333" lon="13.6101233"><ele>899.25</ele><time>2026-05-02T13:14:21.095Z</time></trkpt><trkpt lat="42.07303" lon="13.61"><ele>896.5</ele><time>2026-05-02T13:14:22.095Z</time></trkpt><trkpt lat="42.0729233" lon="13.6098833"><ele>893.75</ele><time>2026-05-02T13:14:23.095Z</time></trkpt><trkpt lat="42.0728233" lon="13.6097717"><ele>891.0</ele><time>2026-05-02T13:14:24.096Z</time></trkpt><trkpt lat="42.0727333" lon="13.6096633"><ele>891.0</ele><time>2026-05-02T13:14:25.095Z</time></trkpt><trkpt lat="42.072645" lon="13.6095583"><ele>891.0</ele><time>2026-05-02T13:14:26.095Z</time></trkpt><trkpt lat="42.0725583" lon="13.60946"><ele>891.0</ele><time>2026-05-02T13:14:27.095Z</time></trkpt><trkpt lat="42.07247" lon="13.6093583"><ele>891.0</ele><time>2026-05-02T13:14:28.096Z</time></trkpt><trkpt lat="42.0723917" lon="13.6092667"><ele>889.0</ele><time>2026-05-02T13:14:29.096Z</time></trkpt><trkpt lat="42.07232" lon="13.609175"><ele>886.9999999999999</ele><time>2026-05-02T13:14:30.095Z</time></trkpt><trkpt lat="42.0722617" lon="13.60909"><ele>884.9999999999999</ele><time>2026-05-02T13:14:31.096Z</time></trkpt><trkpt lat="42.0722183" lon="13.608995"><ele>883.0</ele><time>2026-05-02T13:14:32.095Z</time></trkpt><trkpt lat="42.0721817" lon="13.608875"><ele>881.0</ele><time>2026-05-02T13:14:33.096Z</time></trkpt><trkpt lat="42.0721567" lon="13.608735"><ele>880.25</ele><time>2026-05-02T13:14:34.095Z</time></trkpt><trkpt lat="42.0721333" lon="13.60858"><ele>879.5</ele><time>2026-05-02T13:14:35.095Z</time></trkpt><trkpt lat="42.07211" lon="13.6084083"><ele>878.75</ele><time>2026-05-02T13:14:36.096Z</time></trkpt><trkpt lat="42.0720933" lon="13.6082483"><ele>878.0</ele><time>2026-05-02T13:14:37.096Z</time></trkpt><trkpt lat="42.07208" lon="13.608105"><ele>878.0</ele><time>2026-05-02T13:14:38.096Z</time></trkpt><trkpt lat="42.0720767" lon="13.6079633"><ele>878.0</ele><time>2026-05-02T13:14:39.095Z</time></trkpt><trkpt lat="42.07208" lon="13.6078283"><ele>878.0</ele><time>2026-05-02T13:14:40.096Z</time></trkpt><trkpt lat="42.0720817" lon="13.6077033"><ele>878.0</ele><time>2026-05-02T13:14:41.095Z</time></trkpt><trkpt lat="42.0720733" lon="13.6075817"><ele>878.0</ele><time>2026-05-02T13:14:42.095Z</time></trkpt><trkpt lat="42.072075" lon="13.607465"><ele>876.8</ele><time>2026-05-02T13:14:43.096Z</time></trkpt><trkpt lat="42.0720717" lon="13.6073433"><ele>875.5999999999999</ele><time>2026-05-02T13:14:44.095Z</time></trkpt><trkpt lat="42.07207" lon="13.6071983"><ele>874.4000000000001</ele><time>2026-05-02T13:14:45.096Z</time></trkpt><trkpt lat="42.072055" lon="13.6070517"><ele>873.2</ele><time>2026-05-02T13:14:46.095Z</time></trkpt><trkpt lat="42.07202" lon="13.6068967"><ele>872.0</ele><time>2026-05-02T13:14:47.095Z</time></trkpt><trkpt lat="42.0719683" lon="13.6067617"><ele>869.75</ele><time>2026-05-02T13:14:48.095Z</time></trkpt><trkpt lat="42.071905" lon="13.6066317"><ele>867.5</ele><time>2026-05-02T13:14:49.096Z</time></trkpt><trkpt lat="42.07182" lon="13.6065033"><ele>865.25</ele><time>2026-05-02T13:14:50.095Z</time></trkpt><trkpt lat="42.0717217" lon="13.6063917"><ele>863.0</ele><time>2026-05-02T13:14:51.095Z</time></trkpt><trkpt lat="42.0716267" lon="13.606285"><ele>862.0</ele><time>2026-05-02T13:14:52.096Z</time></trkpt><trkpt lat="42.0715317" lon="13.6062033"><ele>861.0</ele><time>2026-05-02T13:14:53.095Z</time></trkpt><trkpt lat="42.071445" lon="13.606135"><ele>860.0</ele><time>2026-05-02T13:14:54.096Z</time></trkpt><trkpt lat="42.0713483" lon="13.606085"><ele>859.0</ele><time>2026-05-02T13:14:55.095Z</time></trkpt><trkpt lat="42.0712583" lon="13.6060367"><ele>858.0</ele><time>2026-05-02T13:14:56.095Z</time></trkpt><trkpt lat="42.0711767" lon="13.6059917"><ele>856.0</ele><time>2026-05-02T13:14:57.095Z</time></trkpt><trkpt lat="42.0710983" lon="13.6059383"><ele>854.0</ele><time>2026-05-02T13:14:58.095Z</time></trkpt><trkpt lat="42.07102" lon="13.60586"><ele>852.0</ele><time>2026-05-02T13:14:59.095Z</time></trkpt><trkpt lat="42.070935" lon="13.60577"><ele>850.0</ele><time>2026-05-02T13:15:00.095Z</time></trkpt><trkpt lat="42.070835" lon="13.60568"><ele>848.0</ele><time>2026-05-02T13:15:01.095Z</time></trkpt><trkpt lat="42.0707233" lon="13.6055767"><ele>844.3333333333334</ele><time>2026-05-02T13:15:02.095Z</time></trkpt><trkpt lat="42.0705933" lon="13.605455"><ele>840.6666666666667</ele><time>2026-05-02T13:15:03.095Z</time></trkpt><trkpt lat="42.07047" lon="13.6053417"><ele>837.0</ele><time>2026-05-02T13:15:04.096Z</time></trkpt><trkpt lat="42.0703517" lon="13.6052283"><ele>835.75</ele><time>2026-05-02T13:15:05.096Z</time></trkpt><trkpt lat="42.0702467" lon="13.6051217"><ele>834.5</ele><time>2026-05-02T13:15:06.095Z</time></trkpt><trkpt lat="42.070145" lon="13.6050233"><ele>833.25</ele><time>2026-05-02T13:15:07.095Z</time></trkpt><trkpt lat="42.070045" lon="13.6049267"><ele>832.0</ele><time>2026-05-02T13:15:08.096Z</time></trkpt><trkpt lat="42.06995" lon="13.6048317"><ele>829.0</ele><time>2026-05-02T13:15:09.096Z</time></trkpt><trkpt lat="42.06985" lon="13.6047433"><ele>826.0</ele><time>2026-05-02T13:15:10.096Z</time></trkpt><trkpt lat="42.0697467" lon="13.6046417"><ele>823.0</ele><time>2026-05-02T13:15:11.095Z</time></trkpt><trkpt lat="42.0696433" lon="13.6045467"><ele>820.0</ele><time>2026-05-02T13:15:12.095Z</time></trkpt><trkpt lat="42.069535" lon="13.6044433"><ele>818.25</ele><time>2026-05-02T13:15:13.095Z</time></trkpt><trkpt lat="42.0694267" lon="13.6043367"><ele>816.5</ele><time>2026-05-02T13:15:14.096Z</time></trkpt><trkpt lat="42.0693267" lon="13.6042317"><ele>814.75</ele><time>2026-05-02T13:15:15.095Z</time></trkpt><trkpt lat="42.0692267" lon="13.6041233"><ele>813.0</ele><time>2026-05-02T13:15:16.096Z</time></trkpt><trkpt lat="42.06913" lon="13.6040217"><ele>811.75</ele><time>2026-05-02T13:15:17.095Z</time></trkpt><trkpt lat="42.06903" lon="13.6039183"><ele>810.5</ele><time>2026-05-02T13:15:18.095Z</time></trkpt><trkpt lat="42.0689333" lon="13.60381"><ele>809.25</ele><time>2026-05-02T13:15:19.096Z</time></trkpt><trkpt lat="42.0688367" lon="13.6037083"><ele>808.0</ele><time>2026-05-02T13:15:20.096Z</time></trkpt><trkpt lat="42.0687467" lon="13.6036217"><ele>808.0</ele><time>2026-05-02T13:15:21.095Z</time></trkpt><trkpt lat="42.06867" lon="13.60354"><ele>808.0</ele><time>2026-05-02T13:15:22.096Z</time></trkpt><trkpt lat="42.0686017" lon="13.6034667"><ele>808.0</ele><time>2026-05-02T13:15:23.096Z</time></trkpt><trkpt lat="42.0685367" lon="13.6033917"><ele>808.0</ele><time>2026-05-02T13:15:24.095Z</time></trkpt><trkpt lat="42.0684733" lon="13.6033467"><ele>808.0</ele><time>2026-05-02T13:15:25.095Z</time></trkpt><trkpt lat="42.0683483" lon="13.6033333"><ele>807.9999999999999</ele><time>2026-05-02T13:15:27.096Z</time></trkpt><trkpt lat="42.0682817" lon="13.6033817"><ele>808.0</ele><time>2026-05-02T13:15:28.095Z</time></trkpt><trkpt lat="42.068205" lon="13.603435"><ele>808.0</ele><time>2026-05-02T13:15:29.095Z</time></trkpt><trkpt lat="42.068135" lon="13.6034917"><ele>808.0</ele><time>2026-05-02T13:15:30.096Z</time></trkpt><trkpt lat="42.0680617" lon="13.60352"><ele>807.9999999999999</ele><time>2026-05-02T13:15:31.096Z</time></trkpt><trkpt lat="42.0679717" lon="13.60353"><ele>808.0</ele><time>2026-05-02T13:15:32.095Z</time></trkpt><trkpt lat="42.0678667" lon="13.6035317"><ele>810.25</ele><time>2026-05-02T13:15:33.096Z</time></trkpt><trkpt lat="42.0677583" lon="13.6035333"><ele>812.5</ele><time>2026-05-02T13:15:34.096Z</time></trkpt><trkpt lat="42.0676433" lon="13.60353"><ele>814.75</ele><time>2026-05-02T13:15:35.095Z</time></trkpt><trkpt lat="42.06753" lon="13.60352"><ele>817.0</ele><time>2026-05-02T13:15:36.095Z</time></trkpt><trkpt lat="42.0674083" lon="13.60351"><ele>818.0</ele><time>2026-05-02T13:15:37.095Z</time></trkpt><trkpt lat="42.0672767" lon="13.6035"><ele>819.0</ele><time>2026-05-02T13:15:38.096Z</time></trkpt><trkpt lat="42.0671417" lon="13.6034833"><ele>820.0</ele><time>2026-05-02T13:15:39.095Z</time></trkpt><trkpt lat="42.067005" lon="13.603455"><ele>821.0</ele><time>2026-05-02T13:15:40.095Z</time></trkpt><trkpt lat="42.0668767" lon="13.6034233"><ele>821.0</ele><time>2026-05-02T13:15:41.096Z</time></trkpt><trkpt lat="42.0667567" lon="13.6033917"><ele>821.0</ele><time>2026-05-02T13:15:42.096Z</time></trkpt><trkpt lat="42.066645" lon="13.6033483"><ele>821.0</ele><time>2026-05-02T13:15:43.095Z</time></trkpt><trkpt lat="42.0665167" lon="13.60332"><ele>821.0</ele><time>2026-05-02T13:15:44.095Z</time></trkpt><trkpt lat="42.0663933" lon="13.6032983"><ele>822.4</ele><time>2026-05-02T13:15:45.095Z</time></trkpt><trkpt lat="42.0662717" lon="13.6032883"><ele>823.8</ele><time>2026-05-02T13:15:46.096Z</time></trkpt><trkpt lat="42.0661667" lon="13.6032867"><ele>825.1999999999999</ele><time>2026-05-02T13:15:47.095Z</time></trkpt><trkpt lat="42.0660767" lon="13.6033017"><ele>826.5999999999999</ele><time>2026-05-02T13:15:48.096Z</time></trkpt><trkpt lat="42.0659583" lon="13.6033233"><ele>828.0</ele><time>2026-05-02T13:15:50.096Z</time></trkpt><trkpt lat="42.0658917" lon="13.60334"><ele>828.0</ele><time>2026-05-02T13:15:52.095Z</time></trkpt><trkpt lat="42.06581" lon="13.6033217"><ele>828.0</ele><time>2026-05-02T13:15:54.096Z</time></trkpt><trkpt lat="42.0657533" lon="13.60328"><ele>828.0</ele><time>2026-05-02T13:15:56.095Z</time></trkpt><trkpt lat="42.065715" lon="13.6031417"><ele>828.0</ele><time>2026-05-02T13:15:58.096Z</time></trkpt><trkpt lat="42.0656967" lon="13.6030533"><ele>828.0</ele><time>2026-05-02T13:15:59.096Z</time></trkpt><trkpt lat="42.0656767" lon="13.60294"><ele>828.0</ele><time>2026-05-02T13:16:00.095Z</time></trkpt><trkpt lat="42.0656733" lon="13.6028333"><ele>828.5999999999999</ele><time>2026-05-02T13:16:01.095Z</time></trkpt><trkpt lat="42.06568" lon="13.6027483"><ele>829.1999999999999</ele><time>2026-05-02T13:16:02.096Z</time></trkpt><trkpt lat="42.0657333" lon="13.6026183"><ele>829.8</ele><time>2026-05-02T13:16:04.096Z</time></trkpt><trkpt lat="42.065815" lon="13.602485"><ele>830.4</ele><time>2026-05-02T13:16:06.096Z</time></trkpt><trkpt lat="42.06585" lon="13.602385"><ele>831.0</ele><time>2026-05-02T13:16:07.095Z</time></trkpt><trkpt lat="42.0658733" lon="13.6022683"><ele>831.0</ele><time>2026-05-02T13:16:08.096Z</time></trkpt><trkpt lat="42.0659033" lon="13.602135"><ele>831.0</ele><time>2026-05-02T13:16:09.096Z</time></trkpt><trkpt lat="42.065935" lon="13.60199"><ele>831.0</ele><time>2026-05-02T13:16:10.095Z</time></trkpt><trkpt lat="42.0659633" lon="13.6018467"><ele>831.0</ele><time>2026-05-02T13:16:11.095Z</time></trkpt><trkpt lat="42.0659867" lon="13.601695"><ele>831.0</ele><time>2026-05-02T13:16:12.096Z</time></trkpt><trkpt lat="42.0660133" lon="13.6015533"><ele>830.5999999999999</ele><time>2026-05-02T13:16:13.095Z</time></trkpt><trkpt lat="42.066035" lon="13.601405"><ele>830.2</ele><time>2026-05-02T13:16:14.096Z</time></trkpt><trkpt lat="42.0660417" lon="13.60125"><ele>829.8</ele><time>2026-05-02T13:16:15.095Z</time></trkpt><trkpt lat="42.0660483" lon="13.6011067"><ele>829.4000000000001</ele><time>2026-05-02T13:16:16.096Z</time></trkpt><trkpt lat="42.06605" lon="13.6009817"><ele>829.0</ele><time>2026-05-02T13:16:17.095Z</time></trkpt><trkpt lat="42.066065" lon="13.6008667"><ele>828.9999999999999</ele><time>2026-05-02T13:16:18.096Z</time></trkpt><trkpt lat="42.06608" lon="13.60076"><ele>829.0</ele><time>2026-05-02T13:16:19.095Z</time></trkpt><trkpt lat="42.066095" lon="13.6006717"><ele>829.0</ele><time>2026-05-02T13:16:20.095Z</time></trkpt><trkpt lat="42.0661217" lon="13.6005333"><ele>829.0</ele><time>2026-05-02T13:16:22.095Z</time></trkpt><trkpt lat="42.066135" lon="13.6003983"><ele>828.9999999999999</ele><time>2026-05-02T13:16:24.095Z</time></trkpt><trkpt lat="42.06613" lon="13.6002867"><ele>829.0</ele><time>2026-05-02T13:16:26.096Z</time></trkpt><trkpt lat="42.0660467" lon="13.6002083"><ele>828.8000000000001</ele><time>2026-05-02T13:16:28.095Z</time></trkpt><trkpt lat="42.0659683" lon="13.6001917"><ele>828.6</ele><time>2026-05-02T13:16:29.095Z</time></trkpt><trkpt lat="42.0658333" lon="13.6002017"><ele>828.4</ele><time>2026-05-02T13:16:30.096Z</time></trkpt><trkpt lat="42.0657167" lon="13.6001967"><ele>828.2</ele><time>2026-05-02T13:16:31.096Z</time></trkpt><trkpt lat="42.06561" lon="13.6001933"><ele>828.0</ele><time>2026-05-02T13:16:32.095Z</time></trkpt><trkpt lat="42.065505" lon="13.6001983"><ele>826.2</ele><time>2026-05-02T13:16:33.096Z</time></trkpt><trkpt lat="42.0654017" lon="13.6001917"><ele>824.4</ele><time>2026-05-02T13:16:34.096Z</time></trkpt><trkpt lat="42.0652933" lon="13.6001833"><ele>822.6</ele><time>2026-05-02T13:16:35.095Z</time></trkpt><trkpt lat="42.0651867" lon="13.6001633"><ele>820.8000000000001</ele><time>2026-05-02T13:16:36.095Z</time></trkpt><trkpt lat="42.0650767" lon="13.6001533"><ele>819.0</ele><time>2026-05-02T13:16:37.096Z</time></trkpt><trkpt lat="42.0649583" lon="13.6001467"><ele>817.2</ele><time>2026-05-02T13:16:38.096Z</time></trkpt><trkpt lat="42.0648483" lon="13.6001317"><ele>815.4000000000001</ele><time>2026-05-02T13:16:39.096Z</time></trkpt><trkpt lat="42.0647517" lon="13.600135"><ele>813.6</ele><time>2026-05-02T13:16:40.095Z</time></trkpt><trkpt lat="42.0646667" lon="13.6001283"><ele>811.8</ele><time>2026-05-02T13:16:41.096Z</time></trkpt><trkpt lat="42.0645833" lon="13.600135"><ele>810.0</ele><time>2026-05-02T13:16:42.096Z</time></trkpt><trkpt lat="42.0645017" lon="13.600145"><ele>810.0</ele><time>2026-05-02T13:16:43.096Z</time></trkpt><trkpt lat="42.064415" lon="13.6001467"><ele>810.0</ele><time>2026-05-02T13:16:44.096Z</time></trkpt><trkpt lat="42.064315" lon="13.600135"><ele>810.0</ele><time>2026-05-02T13:16:45.096Z</time></trkpt><trkpt lat="42.0642183" lon="13.60011"><ele>810.0</ele><time>2026-05-02T13:16:46.096Z</time></trkpt><trkpt lat="42.0641333" lon="13.6000867"><ele>810.0</ele><time>2026-05-02T13:16:47.096Z</time></trkpt><trkpt lat="42.0640617" lon="13.600055"><ele>810.0</ele><time>2026-05-02T13:16:48.096Z</time></trkpt><trkpt lat="42.064" lon="13.60003"><ele>808.8571428571428</ele><time>2026-05-02T13:16:49.096Z</time></trkpt><trkpt lat="42.063935" lon="13.600005"><ele>807.7142857142857</ele><time>2026-05-02T13:16:50.095Z</time></trkpt><trkpt lat="42.063875" lon="13.5999767"><ele>806.5714285714286</ele><time>2026-05-02T13:16:51.095Z</time></trkpt><trkpt lat="42.0637867" lon="13.5999367"><ele>805.4285714285713</ele><time>2026-05-02T13:16:53.095Z</time></trkpt><trkpt lat="42.06372" lon="13.5999067"><ele>804.2857142857143</ele><time>2026-05-02T13:16:55.096Z</time></trkpt><trkpt lat="42.063725" lon="13.599815"><ele>803.1428571428571</ele><time>2026-05-02T13:16:58.095Z</time></trkpt><trkpt lat="42.063765" lon="13.5997283"><ele>802.0</ele><time>2026-05-02T13:17:00.095Z</time></trkpt><trkpt lat="42.06382" lon="13.59958"><ele>800.9999999999999</ele><time>2026-05-02T13:17:02.096Z</time></trkpt><trkpt lat="42.0638583" lon="13.5994667"><ele>800.0</ele><time>2026-05-02T13:17:03.095Z</time></trkpt><trkpt lat="42.0638983" lon="13.5993533"><ele>799.0</ele><time>2026-05-02T13:17:04.096Z</time></trkpt><trkpt lat="42.0639217" lon="13.5992467"><ele>798.0</ele><time>2026-05-02T13:17:05.095Z</time></trkpt><trkpt lat="42.0639467" lon="13.59916"><ele>796.9999999999999</ele><time>2026-05-02T13:17:06.095Z</time></trkpt><trkpt lat="42.063995" lon="13.5990333"><ele>796.0</ele><time>2026-05-02T13:17:08.095Z</time></trkpt><trkpt lat="42.0640683" lon="13.59897"><ele>797.5999999999999</ele><time>2026-05-02T13:17:11.096Z</time></trkpt><trkpt lat="42.0641883" lon="13.5989767"><ele>799.2</ele><time>2026-05-02T13:17:13.095Z</time></trkpt><trkpt lat="42.0642733" lon="13.598975"><ele>800.8</ele><time>2026-05-02T13:17:14.095Z</time></trkpt><trkpt lat="42.064375" lon="13.5989883"><ele>802.4000000000001</ele><time>2026-05-02T13:17:15.095Z</time></trkpt><trkpt lat="42.06448" lon="13.5989883"><ele>804.0</ele><time>2026-05-02T13:17:16.095Z</time></trkpt><trkpt lat="42.064585" lon="13.5989867"><ele>804.0</ele><time>2026-05-02T13:17:17.095Z</time></trkpt><trkpt lat="42.0646917" lon="13.5989983"><ele>804.0</ele><time>2026-05-02T13:17:18.096Z</time></trkpt><trkpt lat="42.0647867" lon="13.5989983"><ele>804.0</ele><time>2026-05-02T13:17:19.095Z</time></trkpt><trkpt lat="42.0648783" lon="13.59899"><ele>804.0</ele><time>2026-05-02T13:17:20.095Z</time></trkpt><trkpt lat="42.0649683" lon="13.5989983"><ele>804.0</ele><time>2026-05-02T13:17:21.096Z</time></trkpt><trkpt lat="42.0650583" lon="13.5989883"><ele>806.2</ele><time>2026-05-02T13:17:22.095Z</time></trkpt><trkpt lat="42.0651433" lon="13.5989867"><ele>808.4000000000001</ele><time>2026-05-02T13:17:23.095Z</time></trkpt><trkpt lat="42.0652367" lon="13.598985"><ele>810.6</ele><time>2026-05-02T13:17:24.095Z</time></trkpt><trkpt lat="42.0653333" lon="13.5989983"><ele>812.8</ele><time>2026-05-02T13:17:25.095Z</time></trkpt><trkpt lat="42.065425" lon="13.5989967"><ele>815.0</ele><time>2026-05-02T13:17:26.095Z</time></trkpt><trkpt lat="42.065515" lon="13.5990033"><ele>815.0</ele><time>2026-05-02T13:17:27.096Z</time></trkpt><trkpt lat="42.0656083" lon="13.5990067"><ele>815.0</ele><time>2026-05-02T13:17:28.095Z</time></trkpt><trkpt lat="42.0657033" lon="13.5990133"><ele>815.0</ele><time>2026-05-02T13:17:29.096Z</time></trkpt><trkpt lat="42.0658017" lon="13.5990067"><ele>815.0</ele><time>2026-05-02T13:17:30.095Z</time></trkpt><trkpt lat="42.0658917" lon="13.5990183"><ele>815.0</ele><time>2026-05-02T13:17:31.095Z</time></trkpt><trkpt lat="42.0659833" lon="13.59903"><ele>816.6666666666667</ele><time>2026-05-02T13:17:32.095Z</time></trkpt><trkpt lat="42.0660717" lon="13.599035"><ele>818.3333333333334</ele><time>2026-05-02T13:17:33.096Z</time></trkpt><trkpt lat="42.0661533" lon="13.5990517"><ele>820.0</ele><time>2026-05-02T13:17:34.095Z</time></trkpt><trkpt lat="42.0662167" lon="13.59905"><ele>821.6666666666667</ele><time>2026-05-02T13:17:35.095Z</time></trkpt><trkpt lat="42.0662933" lon="13.5990533"><ele>823.3333333333334</ele><time>2026-05-02T13:17:37.096Z</time></trkpt><trkpt lat="42.0663667" lon="13.59907"><ele>825.0</ele><time>2026-05-02T13:17:40.096Z</time></trkpt><trkpt lat="42.0664417" lon="13.5989633"><ele>825.0</ele><time>2026-05-02T13:17:43.095Z</time></trkpt><trkpt lat="42.0664617" lon="13.5988667"><ele>825.0</ele><time>2026-05-02T13:17:44.095Z</time></trkpt><trkpt lat="42.066495" lon="13.598755"><ele>825.0</ele><time>2026-05-02T13:17:45.095Z</time></trkpt><trkpt lat="42.0665317" lon="13.5986317"><ele>825.0</ele><time>2026-05-02T13:17:46.096Z</time></trkpt><trkpt lat="42.0665667" lon="13.5985017"><ele>825.0</ele><time>2026-05-02T13:17:47.095Z</time></trkpt><trkpt lat="42.0666183" lon="13.5983967"><ele>825.6666666666666</ele><time>2026-05-02T13:17:48.096Z</time></trkpt><trkpt lat="42.066665" lon="13.5983167"><ele>826.3333333333333</ele><time>2026-05-02T13:17:49.096Z</time></trkpt><trkpt lat="42.0667067" lon="13.598235"><ele>827.0</ele><time>2026-05-02T13:17:50.096Z</time></trkpt><trkpt lat="42.066745" lon="13.598135"><ele>827.6666666666666</ele><time>2026-05-02T13:17:51.095Z</time></trkpt><trkpt lat="42.0667833" lon="13.59804"><ele>828.3333333333333</ele><time>2026-05-02T13:17:52.096Z</time></trkpt><trkpt lat="42.0668217" lon="13.59797"><ele>829.0</ele><time>2026-05-02T13:17:53.095Z</time></trkpt><trkpt lat="42.0669033" lon="13.5979217"><ele>829.0</ele><time>2026-05-02T13:17:55.095Z</time></trkpt><trkpt lat="42.0669683" lon="13.59793"><ele>829.0</ele><time>2026-05-02T13:17:56.096Z</time></trkpt><trkpt lat="42.0670517" lon="13.5979233"><ele>829.0</ele><time>2026-05-02T13:17:57.095Z</time></trkpt><trkpt lat="42.06716" lon="13.59793"><ele>829.0</ele><time>2026-05-02T13:17:58.096Z</time></trkpt><trkpt lat="42.0672683" lon="13.5979333"><ele>829.0</ele><time>2026-05-02T13:17:59.095Z</time></trkpt><trkpt lat="42.0673733" lon="13.5979467"><ele>831.2</ele><time>2026-05-02T13:18:00.096Z</time></trkpt><trkpt lat="42.0674867" lon="13.5979717"><ele>833.4000000000001</ele><time>2026-05-02T13:18:01.095Z</time></trkpt><trkpt lat="42.0675883" lon="13.59801"><ele>835.6</ele><time>2026-05-02T13:18:02.096Z</time></trkpt><trkpt lat="42.0676817" lon="13.5980483"><ele>837.8</ele><time>2026-05-02T13:18:03.095Z</time></trkpt><trkpt lat="42.0677817" lon="13.598085"><ele>840.0</ele><time>2026-05-02T13:18:04.095Z</time></trkpt><trkpt lat="42.06789" lon="13.598115"><ele>840.0</ele><time>2026-05-02T13:18:05.095Z</time></trkpt><trkpt lat="42.0680133" lon="13.59814"><ele>840.0</ele><time>2026-05-02T13:18:06.096Z</time></trkpt><trkpt lat="42.0681383" lon="13.59817"><ele>840.0</ele><time>2026-05-02T13:18:07.095Z</time></trkpt><trkpt lat="42.0682833" lon="13.59821"><ele>840.0</ele><time>2026-05-02T13:18:08.096Z</time></trkpt><trkpt lat="42.06844" lon="13.59824"><ele>842.6666666666667</ele><time>2026-05-02T13:18:09.095Z</time></trkpt><trkpt lat="42.0686" lon="13.59827"><ele>845.3333333333334</ele><time>2026-05-02T13:18:10.095Z</time></trkpt><trkpt lat="42.0687617" lon="13.59831"><ele>848.0</ele><time>2026-05-02T13:18:11.095Z</time></trkpt><trkpt lat="42.0689083" lon="13.598355"><ele>848.0</ele><time>2026-05-02T13:18:12.096Z</time></trkpt><trkpt lat="42.0690433" lon="13.5984"><ele>848.0</ele><time>2026-05-02T13:18:13.095Z</time></trkpt><trkpt lat="42.0691517" lon="13.5984367"><ele>848.0</ele><time>2026-05-02T13:18:14.096Z</time></trkpt><trkpt lat="42.069245" lon="13.598475"><ele>848.0</ele><time>2026-05-02T13:18:15.095Z</time></trkpt><trkpt lat="42.0693133" lon="13.5985217"><ele>848.0</ele><time>2026-05-02T13:18:16.096Z</time></trkpt><trkpt lat="42.069365" lon="13.5986333"><ele>850.5999999999999</ele><time>2026-05-02T13:18:18.096Z</time></trkpt><trkpt lat="42.0693317" lon="13.5988033"><ele>853.1999999999999</ele><time>2026-05-02T13:18:20.095Z</time></trkpt><trkpt lat="42.0693067" lon="13.598925"><ele>855.8</ele><time>2026-05-02T13:18:21.095Z</time></trkpt><trkpt lat="42.06929" lon="13.5990667"><ele>858.4</ele><time>2026-05-02T13:18:22.096Z</time></trkpt><trkpt lat="42.0692817" lon="13.5992117"><ele>861.0</ele><time>2026-05-02T13:18:23.096Z</time></trkpt><trkpt lat="42.069285" lon="13.5993767"><ele>861.3333333333334</ele><time>2026-05-02T13:18:24.095Z</time></trkpt><trkpt lat="42.0692967" lon="13.59953"><ele>861.6666666666667</ele><time>2026-05-02T13:18:25.095Z</time></trkpt><trkpt lat="42.069315" lon="13.5996483"><ele>862.0</ele><time>2026-05-02T13:18:26.095Z</time></trkpt><trkpt lat="42.0693333" lon="13.5997417"><ele>862.3333333333334</ele><time>2026-05-02T13:18:27.095Z</time></trkpt><trkpt lat="42.06936" lon="13.5998217"><ele>862.6666666666667</ele><time>2026-05-02T13:18:28.095Z</time></trkpt><trkpt lat="42.069415" lon="13.5999133"><ele>863.0</ele><time>2026-05-02T13:18:30.096Z</time></trkpt><trkpt lat="42.0694867" lon="13.5999317"><ele>863.0</ele><time>2026-05-02T13:18:32.095Z</time></trkpt><trkpt lat="42.0696183" lon="13.5998667"><ele>863.0</ele><time>2026-05-02T13:18:34.095Z</time></trkpt><trkpt lat="42.0697183" lon="13.5998167"><ele>863.0</ele><time>2026-05-02T13:18:35.096Z</time></trkpt><trkpt lat="42.0698317" lon="13.59978"><ele>863.0</ele><time>2026-05-02T13:18:36.096Z</time></trkpt><trkpt lat="42.0699617" lon="13.5997633"><ele>864.75</ele><time>2026-05-02T13:18:37.096Z</time></trkpt><trkpt lat="42.0701033" lon="13.5997533"><ele>866.5</ele><time>2026-05-02T13:18:38.096Z</time></trkpt><trkpt lat="42.0702483" lon="13.5997367"><ele>868.25</ele><time>2026-05-02T13:18:39.095Z</time></trkpt><trkpt lat="42.0704067" lon="13.5997133"><ele>870.0</ele><time>2026-05-02T13:18:40.095Z</time></trkpt><trkpt lat="42.0705683" lon="13.5996717"><ele>870.0</ele><time>2026-05-02T13:18:41.096Z</time></trkpt><trkpt lat="42.0707367" lon="13.5996167"><ele>870.0</ele><time>2026-05-02T13:18:42.096Z</time></trkpt><trkpt lat="42.0709117" lon="13.5995483"><ele>870.0</ele><time>2026-05-02T13:18:43.095Z</time></trkpt><trkpt lat="42.0710933" lon="13.5994683"><ele>872.0</ele><time>2026-05-02T13:18:44.095Z</time></trkpt><trkpt lat="42.0712733" lon="13.599385"><ele>874.0</ele><time>2026-05-02T13:18:45.096Z</time></trkpt><trkpt lat="42.0714617" lon="13.599295"><ele>876.0</ele><time>2026-05-02T13:18:46.095Z</time></trkpt><trkpt lat="42.07165" lon="13.5992083"><ele>878.3333333333333</ele><time>2026-05-02T13:18:47.095Z</time></trkpt><trkpt lat="42.0718417" lon="13.59912"><ele>880.6666666666666</ele><time>2026-05-02T13:18:48.095Z</time></trkpt><trkpt lat="42.072035" lon="13.5990317"><ele>883.0</ele><time>2026-05-02T13:18:49.096Z</time></trkpt><trkpt lat="42.0722233" lon="13.5989467"><ele>883.0</ele><time>2026-05-02T13:18:50.096Z</time></trkpt><trkpt lat="42.0724133" lon="13.5988583"><ele>883.0</ele><time>2026-05-02T13:18:51.095Z</time></trkpt><trkpt lat="42.0726" lon="13.598775"><ele>883.0</ele><time>2026-05-02T13:18:52.096Z</time></trkpt><trkpt lat="42.07278" lon="13.5987"><ele>887.3333333333333</ele><time>2026-05-02T13:18:53.095Z</time></trkpt><trkpt lat="42.07295" lon="13.5986233"><ele>891.6666666666667</ele><time>2026-05-02T13:18:54.096Z</time></trkpt><trkpt lat="42.07312" lon="13.5985517"><ele>896.0</ele><time>2026-05-02T13:18:55.095Z</time></trkpt><trkpt lat="42.0732833" lon="13.5984783"><ele>898.6666666666667</ele><time>2026-05-02T13:18:56.095Z</time></trkpt><trkpt lat="42.07345" lon="13.5983983"><ele>901.3333333333333</ele><time>2026-05-02T13:18:57.096Z</time></trkpt><trkpt lat="42.0736067" lon="13.5983267"><ele>904.0</ele><time>2026-05-02T13:18:58.095Z</time></trkpt><trkpt lat="42.07376" lon="13.5982517"><ele>904.0</ele><time>2026-05-02T13:18:59.096Z</time></trkpt><trkpt lat="42.0739133" lon="13.5982"><ele>904.0</ele><time>2026-05-02T13:19:00.096Z</time></trkpt><trkpt lat="42.07407" lon="13.598165"><ele>904.0</ele><time>2026-05-02T13:19:01.095Z</time></trkpt><trkpt lat="42.0742283" lon="13.598145"><ele>907.0</ele><time>2026-05-02T13:19:02.095Z</time></trkpt><trkpt lat="42.07439" lon="13.5981417"><ele>910.0</ele><time>2026-05-02T13:19:03.094Z</time></trkpt><trkpt lat="42.074555" lon="13.5981467"><ele>913.0</ele><time>2026-05-02T13:19:04.094Z</time></trkpt><trkpt lat="42.074725" lon="13.598155"><ele>913.0</ele><time>2026-05-02T13:19:05.094Z</time></trkpt><trkpt lat="42.07489" lon="13.598175"><ele>913.0</ele><time>2026-05-02T13:19:06.095Z</time></trkpt><trkpt lat="42.0750617" lon="13.5981917"><ele>913.0</ele><time>2026-05-02T13:19:07.094Z</time></trkpt><trkpt lat="42.0752333" lon="13.5982017"><ele>916.6666666666666</ele><time>2026-05-02T13:19:08.095Z</time></trkpt><trkpt lat="42.0754133" lon="13.5982133"><ele>920.3333333333333</ele><time>2026-05-02T13:19:09.094Z</time></trkpt><trkpt lat="42.0755967" lon="13.5982217"><ele>924.0</ele><time>2026-05-02T13:19:10.095Z</time></trkpt><trkpt lat="42.0757733" lon="13.5982183"><ele>927.3333333333333</ele><time>2026-05-02T13:19:11.095Z</time></trkpt><trkpt lat="42.07596" lon="13.5982017"><ele>930.6666666666666</ele><time>2026-05-02T13:19:12.094Z</time></trkpt><trkpt lat="42.0761333" lon="13.5981717"><ele>934.0</ele><time>2026-05-02T13:19:13.094Z</time></trkpt><trkpt lat="42.07627" lon="13.5981267"><ele>934.0</ele><time>2026-05-02T13:19:14.094Z</time></trkpt><trkpt lat="42.0763833" lon="13.5980483"><ele>934.0</ele><time>2026-05-02T13:19:15.095Z</time></trkpt><trkpt lat="42.0764833" lon="13.5979317"><ele>934.0</ele><time>2026-05-02T13:19:16.095Z</time></trkpt><trkpt lat="42.076565" lon="13.5977867"><ele>934.0</ele><time>2026-05-02T13:19:17.094Z</time></trkpt><trkpt lat="42.0766517" lon="13.5976317"><ele>937.5</ele><time>2026-05-02T13:19:18.095Z</time></trkpt><trkpt lat="42.076735" lon="13.59749"><ele>941.0</ele><time>2026-05-02T13:19:19.094Z</time></trkpt><trkpt lat="42.0768367" lon="13.59738"><ele>944.5</ele><time>2026-05-02T13:19:20.094Z</time></trkpt><trkpt lat="42.0769633" lon="13.59731"><ele>948.0</ele><time>2026-05-02T13:19:21.094Z</time></trkpt><trkpt lat="42.0770833" lon="13.5972783"><ele>948.0</ele><time>2026-05-02T13:19:22.095Z</time></trkpt><trkpt lat="42.0771867" lon="13.5973"><ele>948.0</ele><time>2026-05-02T13:19:23.094Z</time></trkpt><trkpt lat="42.0772633" lon="13.597405"><ele>948.0</ele><time>2026-05-02T13:19:24.094Z</time></trkpt><trkpt lat="42.0773033" lon="13.5975667"><ele>948.0</ele><time>2026-05-02T13:19:25.094Z</time></trkpt><trkpt lat="42.0773383" lon="13.5977467"><ele>949.1666666666666</ele><time>2026-05-02T13:19:26.095Z</time></trkpt><trkpt lat="42.0773867" lon="13.59789"><ele>950.3333333333333</ele><time>2026-05-02T13:19:27.095Z</time></trkpt><trkpt lat="42.0774533" lon="13.5979933"><ele>951.5</ele><time>2026-05-02T13:19:28.095Z</time></trkpt><trkpt lat="42.077525" lon="13.5980433"><ele>952.6666666666666</ele><time>2026-05-02T13:19:29.095Z</time></trkpt><trkpt lat="42.0775933" lon="13.59804"><ele>953.8333333333333</ele><time>2026-05-02T13:19:30.095Z</time></trkpt><trkpt lat="42.0776533" lon="13.597995"><ele>955.0</ele><time>2026-05-02T13:19:31.094Z</time></trkpt><trkpt lat="42.0776833" lon="13.5979133"><ele>957.0</ele><time>2026-05-02T13:19:32.095Z</time></trkpt><trkpt lat="42.0776933" lon="13.5977983"><ele>959.0</ele><time>2026-05-02T13:19:33.094Z</time></trkpt><trkpt lat="42.07766" lon="13.5976517"><ele>961.0</ele><time>2026-05-02T13:19:34.094Z</time></trkpt><trkpt lat="42.0775983" lon="13.5974733"><ele>963.0</ele><time>2026-05-02T13:19:35.094Z</time></trkpt><trkpt lat="42.077485" lon="13.5972417"><ele>960.6666666666667</ele><time>2026-05-02T13:19:36.094Z</time></trkpt><trkpt lat="42.07738" lon="13.597025"><ele>958.3333333333334</ele><time>2026-05-02T13:19:37.094Z</time></trkpt><trkpt lat="42.0772867" lon="13.5968067"><ele>956.0</ele><time>2026-05-02T13:19:38.094Z</time></trkpt><trkpt lat="42.07719" lon="13.5965917"><ele>956.0</ele><time>2026-05-02T13:19:39.094Z</time></trkpt><trkpt lat="42.07712" lon="13.5963967"><ele>956.0</ele><time>2026-05-02T13:19:40.094Z</time></trkpt><trkpt lat="42.0770783" lon="13.596215"><ele>956.0</ele><time>2026-05-02T13:19:41.094Z</time></trkpt><trkpt lat="42.0770733" lon="13.5960517"><ele>956.0</ele><time>2026-05-02T13:19:42.095Z</time></trkpt><trkpt lat="42.0771233" lon="13.5958817"><ele>955.6666666666667</ele><time>2026-05-02T13:19:43.094Z</time></trkpt><trkpt lat="42.0772117" lon="13.5957067"><ele>955.3333333333333</ele><time>2026-05-02T13:19:44.094Z</time></trkpt><trkpt lat="42.0773283" lon="13.5955417"><ele>955.0</ele><time>2026-05-02T13:19:45.094Z</time></trkpt><trkpt lat="42.07746" lon="13.595385"><ele>959.6666666666666</ele><time>2026-05-02T13:19:46.094Z</time></trkpt><trkpt lat="42.0775983" lon="13.5952317"><ele>964.3333333333333</ele><time>2026-05-02T13:19:47.095Z</time></trkpt><trkpt lat="42.0777433" lon="13.59507"><ele>969.0</ele><time>2026-05-02T13:19:48.094Z</time></trkpt><trkpt lat="42.0778867" lon="13.5949133"><ele>969.0</ele><time>2026-05-02T13:19:49.095Z</time></trkpt><trkpt lat="42.0780183" lon="13.59478"><ele>969.0</ele><time>2026-05-02T13:19:50.094Z</time></trkpt><trkpt lat="42.0781333" lon="13.59467"><ele>969.0</ele><time>2026-05-02T13:19:51.094Z</time></trkpt><trkpt lat="42.07823" lon="13.59458"><ele>969.0</ele><time>2026-05-02T13:19:52.094Z</time></trkpt><trkpt lat="42.0782867" lon="13.594475"><ele>972.4000000000001</ele><time>2026-05-02T13:19:53.095Z</time></trkpt><trkpt lat="42.07832" lon="13.5943483"><ele>975.8000000000001</ele><time>2026-05-02T13:19:54.094Z</time></trkpt><trkpt lat="42.07832" lon="13.5941933"><ele>979.1999999999999</ele><time>2026-05-02T13:19:55.095Z</time></trkpt><trkpt lat="42.0783083" lon="13.5940367"><ele>982.5999999999999</ele><time>2026-05-02T13:19:56.095Z</time></trkpt><trkpt lat="42.0783033" lon="13.593885"><ele>986.0</ele><time>2026-05-02T13:19:57.094Z</time></trkpt><trkpt lat="42.0783317" lon="13.5937533"><ele>984.0</ele><time>2026-05-02T13:19:58.095Z</time></trkpt><trkpt lat="42.078395" lon="13.59365"><ele>981.9999999999999</ele><time>2026-05-02T13:19:59.094Z</time></trkpt><trkpt lat="42.0784783" lon="13.5935667"><ele>979.9999999999999</ele><time>2026-05-02T13:20:00.094Z</time></trkpt><trkpt lat="42.0785633" lon="13.5934817"><ele>978.0</ele><time>2026-05-02T13:20:01.095Z</time></trkpt><trkpt lat="42.07866" lon="13.593395"><ele>976.0</ele><time>2026-05-02T13:20:02.094Z</time></trkpt><trkpt lat="42.078765" lon="13.593295"><ele>976.0</ele><time>2026-05-02T13:20:03.094Z</time></trkpt><trkpt lat="42.0788833" lon="13.593185"><ele>976.0</ele><time>2026-05-02T13:20:04.095Z</time></trkpt><trkpt lat="42.0790217" lon="13.593075"><ele>976.0</ele><time>2026-05-02T13:20:05.095Z</time></trkpt><trkpt lat="42.079155" lon="13.59295"><ele>980.6666666666666</ele><time>2026-05-02T13:20:06.094Z</time></trkpt><trkpt lat="42.07928" lon="13.5928067"><ele>985.3333333333333</ele><time>2026-05-02T13:20:07.095Z</time></trkpt><trkpt lat="42.07941" lon="13.5926883"><ele>990.0</ele><time>2026-05-02T13:20:08.095Z</time></trkpt><trkpt lat="42.0795233" lon="13.5925833"><ele>990.0</ele><time>2026-05-02T13:20:09.095Z</time></trkpt><trkpt lat="42.07963" lon="13.5924883"><ele>990.0</ele><time>2026-05-02T13:20:10.094Z</time></trkpt><trkpt lat="42.0797317" lon="13.5923983"><ele>990.0</ele><time>2026-05-02T13:20:11.094Z</time></trkpt><trkpt lat="42.07983" lon="13.5923033"><ele>990.0</ele><time>2026-05-02T13:20:12.094Z</time></trkpt><trkpt lat="42.0799233" lon="13.59222"><ele>993.5</ele><time>2026-05-02T13:20:13.094Z</time></trkpt><trkpt lat="42.08003" lon="13.592135"><ele>997.0</ele><time>2026-05-02T13:20:14.095Z</time></trkpt><trkpt lat="42.0801317" lon="13.5920483"><ele>1000.5</ele><time>2026-05-02T13:20:15.095Z</time></trkpt><trkpt lat="42.0802383" lon="13.5919683"><ele>1004.0</ele><time>2026-05-02T13:20:16.094Z</time></trkpt><trkpt lat="42.0803283" lon="13.59189"><ele>1004.0</ele><time>2026-05-02T13:20:17.094Z</time></trkpt><trkpt lat="42.0804133" lon="13.5918183"><ele>1004.0000000000001</ele><time>2026-05-02T13:20:18.094Z</time></trkpt><trkpt lat="42.0804983" lon="13.5917417"><ele>1004.0000000000001</ele><time>2026-05-02T13:20:19.094Z</time></trkpt><trkpt lat="42.08058" lon="13.5916633"><ele>1004.0</ele><time>2026-05-02T13:20:20.094Z</time></trkpt><trkpt lat="42.0806533" lon="13.5915733"><ele>1004.0</ele><time>2026-05-02T13:20:21.094Z</time></trkpt><trkpt lat="42.080695" lon="13.59149"><ele>1004.0</ele><time>2026-05-02T13:20:22.094Z</time></trkpt><trkpt lat="42.0807283" lon="13.5913533"><ele>1004.0000000000001</ele><time>2026-05-02T13:20:24.094Z</time></trkpt><trkpt lat="42.0807033" lon="13.5912667"><ele>1004.0000000000001</ele><time>2026-05-02T13:20:26.094Z</time></trkpt><trkpt lat="42.0806367" lon="13.5912"><ele>1004.0</ele><time>2026-05-02T13:20:28.094Z</time></trkpt><trkpt lat="42.0805583" lon="13.5911583"><ele>1004.0</ele><time>2026-05-02T13:20:29.095Z</time></trkpt><trkpt lat="42.080455" lon="13.5911"><ele>1005.25</ele><time>2026-05-02T13:20:30.094Z</time></trkpt><trkpt lat="42.0803433" lon="13.591015"><ele>1006.5</ele><time>2026-05-02T13:20:31.094Z</time></trkpt><trkpt lat="42.0802333" lon="13.5909417"><ele>1007.75</ele><time>2026-05-02T13:20:32.094Z</time></trkpt><trkpt lat="42.0801367" lon="13.5908717"><ele>1009.0</ele><time>2026-05-02T13:20:33.095Z</time></trkpt><trkpt lat="42.08006" lon="13.590805"><ele>1008.9999999999999</ele><time>2026-05-02T13:20:34.095Z</time></trkpt><trkpt lat="42.0799883" lon="13.5907533"><ele>1009.0</ele><time>2026-05-02T13:20:35.094Z</time></trkpt><trkpt lat="42.0799267" lon="13.5907017"><ele>1009.0</ele><time>2026-05-02T13:20:36.094Z</time></trkpt><trkpt lat="42.0798667" lon="13.5906533"><ele>1009.0</ele><time>2026-05-02T13:20:37.094Z</time></trkpt><trkpt lat="42.0798133" lon="13.5906017"><ele>1008.9999999999999</ele><time>2026-05-02T13:20:38.095Z</time></trkpt><trkpt lat="42.0797317" lon="13.5904917"><ele>1009.0</ele><time>2026-05-02T13:20:40.095Z</time></trkpt><trkpt lat="42.0796933" lon="13.5903933"><ele>1008.9999999999999</ele><time>2026-05-02T13:20:42.095Z</time></trkpt><trkpt lat="42.0796983" lon="13.5903067"><ele>1009.0</ele><time>2026-05-02T13:20:45.094Z</time></trkpt><trkpt lat="42.0797183" lon="13.5904383"><ele>1009.0</ele><time>2026-05-02T13:20:54.094Z</time></trkpt><trkpt lat="42.0797683" lon="13.5905283"><ele>1009.0</ele><time>2026-05-02T13:20:55.095Z</time></trkpt><trkpt lat="42.0798383" lon="13.5906167"><ele>1008.9999999999999</ele><time>2026-05-02T13:20:56.095Z</time></trkpt><trkpt lat="42.0799183" lon="13.59069"><ele>1009.0</ele><time>2026-05-02T13:20:57.095Z</time></trkpt><trkpt lat="42.0800183" lon="13.590745"><ele>1009.0</ele><time>2026-05-02T13:20:58.095Z</time></trkpt><trkpt lat="42.0801183" lon="13.590805"><ele>1009.0000000000001</ele><time>2026-05-02T13:20:59.095Z</time></trkpt><trkpt lat="42.0802017" lon="13.5908717"><ele>1009.0000000000001</ele><time>2026-05-02T13:21:00.094Z</time></trkpt><trkpt lat="42.0802817" lon="13.59093"><ele>1009.0</ele><time>2026-05-02T13:21:01.095Z</time></trkpt><trkpt lat="42.0803417" lon="13.5909817"><ele>1009.0</ele><time>2026-05-02T13:21:02.095Z</time></trkpt><trkpt lat="42.08045" lon="13.5910767"><ele>1008.9999999999999</ele><time>2026-05-02T13:21:04.095Z</time></trkpt><trkpt lat="42.0805167" lon="13.5911233"><ele>1009.0</ele><time>2026-05-02T13:21:05.094Z</time></trkpt><trkpt lat="42.08058" lon="13.5911683"><ele>1009.0</ele><time>2026-05-02T13:21:06.095Z</time></trkpt><trkpt lat="42.0806633" lon="13.59126"><ele>1009.0</ele><time>2026-05-02T13:21:08.094Z</time></trkpt><trkpt lat="42.08073" lon="13.5912717"><ele>1008.9999999999999</ele><time>2026-05-02T13:21:12.094Z</time></trkpt><trkpt lat="42.080765" lon="13.5911917"><ele>1009.0</ele><time>2026-05-02T13:21:14.095Z</time></trkpt><trkpt lat="42.0807717" lon="13.591095"><ele>1009.0</ele><time>2026-05-02T13:21:16.094Z</time></trkpt><trkpt lat="42.0807283" lon="13.5909933"><ele>1009.0</ele><time>2026-05-02T13:21:18.095Z</time></trkpt><trkpt lat="42.0806783" lon="13.5909383"><ele>1009.0</ele><time>2026-05-02T13:21:19.094Z</time></trkpt><trkpt lat="42.0806217" lon="13.5908867"><ele>1009.0</ele><time>2026-05-02T13:21:20.094Z</time></trkpt><trkpt lat="42.080565" lon="13.5908333"><ele>1009.0</ele><time>2026-05-02T13:21:21.094Z</time></trkpt><trkpt lat="42.0805" lon="13.5907817"><ele>1009.0</ele><time>2026-05-02T13:21:22.095Z</time></trkpt><trkpt lat="42.080435" lon="13.5907217"><ele>1009.0</ele><time>2026-05-02T13:21:23.095Z</time></trkpt><trkpt lat="42.0803633" lon="13.5906683"><ele>1008.9999999999999</ele><time>2026-05-02T13:21:24.094Z</time></trkpt><trkpt lat="42.0802883" lon="13.590615"><ele>1009.0</ele><time>2026-05-02T13:21:25.095Z</time></trkpt><trkpt lat="42.0802217" lon="13.59056"><ele>1009.0</ele><time>2026-05-02T13:21:26.094Z</time></trkpt><trkpt lat="42.080165" lon="13.590505"><ele>1009.0</ele><time>2026-05-02T13:21:27.095Z</time></trkpt><trkpt lat="42.0801267" lon="13.5904267"><ele>1008.9999999999999</ele><time>2026-05-02T13:21:28.094Z</time></trkpt><trkpt lat="42.0801133" lon="13.5903033"><ele>1009.0</ele><time>2026-05-02T13:21:30.095Z</time></trkpt><trkpt lat="42.0801733" lon="13.590245"><ele>1009.0</ele><time>2026-05-02T13:21:36.094Z</time></trkpt><trkpt lat="42.0802283" lon="13.590305"><ele>1009.0000000000001</ele><time>2026-05-02T13:21:43.094Z</time></trkpt><trkpt lat="42.08033" lon="13.5903267"><ele>1009.0000000000001</ele><time>2026-05-02T13:21:45.095Z</time></trkpt><trkpt lat="42.080425" lon="13.5903733"><ele>1009.0</ele><time>2026-05-02T13:21:47.095Z</time></trkpt><trkpt lat="42.08052" lon="13.5903967"><ele>1009.0</ele><time>2026-05-02T13:21:49.094Z</time></trkpt><trkpt lat="42.08062" lon="13.5904333"><ele>1009.0</ele><time>2026-05-02T13:21:51.094Z</time></trkpt><trkpt lat="42.0807367" lon="13.5904833"><ele>1009.0</ele><time>2026-05-02T13:21:53.095Z</time></trkpt><trkpt lat="42.0808417" lon="13.5905133"><ele>1009.0</ele><time>2026-05-02T13:21:55.095Z</time></trkpt><trkpt lat="42.0809433" lon="13.5905483"><ele>1009.0</ele><time>2026-05-02T13:21:57.094Z</time></trkpt><trkpt lat="42.0810583" lon="13.59058"><ele>1010.8333333333333</ele><time>2026-05-02T13:21:59.094Z</time></trkpt><trkpt lat="42.0811733" lon="13.5906283"><ele>1012.6666666666666</ele><time>2026-05-02T13:22:01.094Z</time></trkpt><trkpt lat="42.0812633" lon="13.59063"><ele>1014.5</ele><time>2026-05-02T13:22:03.095Z</time></trkpt><trkpt lat="42.0813217" lon="13.590595"><ele>1016.3333333333333</ele><time>2026-05-02T13:22:05.094Z</time></trkpt><trkpt lat="42.0813683" lon="13.590495"><ele>1018.1666666666666</ele><time>2026-05-02T13:22:07.094Z</time></trkpt><trkpt lat="42.08136" lon="13.5903917"><ele>1020.0</ele><time>2026-05-02T13:22:09.095Z</time></trkpt><trkpt lat="42.0813583" lon="13.5902967"><ele>1020.5</ele><time>2026-05-02T13:22:11.094Z</time></trkpt><trkpt lat="42.0813567" lon="13.5902083"><ele>1021.0</ele><time>2026-05-02T13:22:13.094Z</time></trkpt><trkpt lat="42.081375" lon="13.5901233"><ele>1021.5</ele><time>2026-05-02T13:22:16.094Z</time></trkpt><trkpt lat="42.0814567" lon="13.590125"><ele>1022.0</ele><time>2026-05-02T13:22:18.094Z</time></trkpt><trkpt lat="42.0815467" lon="13.5901117"><ele>1022.5</ele><time>2026-05-02T13:22:20.094Z</time></trkpt><trkpt lat="42.0816133" lon="13.590065"><ele>1023.0</ele><time>2026-05-02T13:22:22.094Z</time></trkpt><trkpt lat="42.0816767" lon="13.589995"><ele>1023.3333333333334</ele><time>2026-05-02T13:22:24.095Z</time></trkpt><trkpt lat="42.0817283" lon="13.5899133"><ele>1023.6666666666667</ele><time>2026-05-02T13:22:27.095Z</time></trkpt><trkpt lat="42.0817717" lon="13.5898467"><ele>1024.0</ele><time>2026-05-02T13:22:32.095Z</time></trkpt><trkpt lat="42.0818483" lon="13.5898"><ele>1024.3333333333335</ele><time>2026-05-02T13:22:36.095Z</time></trkpt><trkpt lat="42.08193" lon="13.5897683"><ele>1024.6666666666667</ele><time>2026-05-02T13:22:38.094Z</time></trkpt><trkpt lat="42.0820217" lon="13.589735"><ele>1025.0</ele><time>2026-05-02T13:22:40.095Z</time></trkpt><trkpt lat="42.0821067" lon="13.589735"><ele>1025.0</ele><time>2026-05-02T13:22:42.095Z</time></trkpt><trkpt lat="42.0822133" lon="13.589715"><ele>1025.0</ele><time>2026-05-02T13:22:44.095Z</time></trkpt><trkpt lat="42.08232" lon="13.5896917"><ele>1025.0</ele><time>2026-05-02T13:22:46.095Z</time></trkpt><trkpt lat="42.0823917" lon="13.589675"><ele>1025.0</ele><time>2026-05-02T13:22:48.095Z</time></trkpt><trkpt lat="42.0824817" lon="13.5896367"><ele>1025.0</ele><time>2026-05-02T13:23:09.095Z</time></trkpt><trkpt lat="42.0826033" lon="13.5896333"><ele>1025.6</ele><time>2026-05-02T13:23:11.094Z</time></trkpt><trkpt lat="42.082665" lon="13.58966"><ele>1026.2</ele><time>2026-05-02T13:23:12.094Z</time></trkpt><trkpt lat="42.0827667" lon="13.5897333"><ele>1026.8</ele><time>2026-05-02T13:23:14.095Z</time></trkpt><trkpt lat="42.08285" lon="13.5898017"><ele>1027.4</ele><time>2026-05-02T13:23:16.094Z</time></trkpt><trkpt lat="42.0829383" lon="13.589885"><ele>1028.0</ele><time>2026-05-02T13:23:18.095Z</time></trkpt><trkpt lat="42.08293" lon="13.5897933"><ele>1028.0</ele><time>2026-05-02T13:23:29.094Z</time></trkpt><trkpt lat="42.0829333" lon="13.58965"><ele>1028.0</ele><time>2026-05-02T13:23:31.095Z</time></trkpt><trkpt lat="42.08296" lon="13.58953"><ele>1028.0</ele><time>2026-05-02T13:23:32.095Z</time></trkpt><trkpt lat="42.08299" lon="13.5894117"><ele>1028.0</ele><time>2026-05-02T13:23:33.095Z</time></trkpt><trkpt lat="42.0830133" lon="13.5893033"><ele>1028.0</ele><time>2026-05-02T13:23:34.094Z</time></trkpt><trkpt lat="42.0830583" lon="13.589185"><ele>1024.6666666666667</ele><time>2026-05-02T13:23:36.095Z</time></trkpt><trkpt lat="42.0831217" lon="13.5891833"><ele>1021.3333333333334</ele><time>2026-05-02T13:23:42.094Z</time></trkpt><trkpt lat="42.08304" lon="13.589195"><ele>1018.0</ele><time>2026-05-02T13:23:47.094Z</time></trkpt><trkpt lat="42.0829383" lon="13.589095"><ele>1014.6666666666667</ele><time>2026-05-02T13:23:49.094Z</time></trkpt><trkpt lat="42.0828667" lon="13.58904"><ele>1011.3333333333334</ele><time>2026-05-02T13:23:50.095Z</time></trkpt><trkpt lat="42.08279" lon="13.5889833"><ele>1008.0</ele><time>2026-05-02T13:23:51.094Z</time></trkpt><trkpt lat="42.0827133" lon="13.5889233"><ele>1008.0</ele><time>2026-05-02T13:23:52.095Z</time></trkpt><trkpt lat="42.0826433" lon="13.588865"><ele>1008.0</ele><time>2026-05-02T13:23:53.095Z</time></trkpt><trkpt lat="42.0825867" lon="13.5888167"><ele>1008.0</ele><time>2026-05-02T13:23:54.095Z</time></trkpt><trkpt lat="42.0825167" lon="13.5887667"><ele>1008.0</ele><time>2026-05-02T13:23:56.094Z</time></trkpt><trkpt lat="42.0824633" lon="13.588715"><ele>1008.0</ele><time>2026-05-02T13:23:59.095Z</time></trkpt><trkpt lat="42.0823517" lon="13.5887283"><ele>1008.0</ele><time>2026-05-02T13:24:01.095Z</time></trkpt><trkpt lat="42.0822167" lon="13.58875"><ele>1007.5</ele><time>2026-05-02T13:24:03.095Z</time></trkpt><trkpt lat="42.0821467" lon="13.5887583"><ele>1007.0</ele><time>2026-05-02T13:24:04.095Z</time></trkpt><trkpt lat="42.08207" lon="13.5887483"><ele>1006.5</ele><time>2026-05-02T13:24:05.094Z</time></trkpt><trkpt lat="42.0819983" lon="13.5887333"><ele>1006.0</ele><time>2026-05-02T13:24:06.094Z</time></trkpt><trkpt lat="42.0819083" lon="13.5886867"><ele>1005.5</ele><time>2026-05-02T13:24:08.095Z</time></trkpt><trkpt lat="42.0819667" lon="13.5887517"><ele>1005.0</ele><time>2026-05-02T13:24:14.094Z</time></trkpt><trkpt lat="42.0820383" lon="13.58875"><ele>1005.0</ele><time>2026-05-02T13:24:15.095Z</time></trkpt><trkpt lat="42.0821383" lon="13.588755"><ele>1005.0</ele><time>2026-05-02T13:24:16.095Z</time></trkpt><trkpt lat="42.0822417" lon="13.5887567"><ele>1005.0</ele><time>2026-05-02T13:24:17.095Z</time></trkpt><trkpt lat="42.0823433" lon="13.5887467"><ele>1005.0</ele><time>2026-05-02T13:24:18.095Z</time></trkpt><trkpt lat="42.0824133" lon="13.5887417"><ele>1005.0</ele><time>2026-05-02T13:24:19.094Z</time></trkpt><trkpt lat="42.08249" lon="13.5887383"><ele>1005.75</ele><time>2026-05-02T13:24:21.095Z</time></trkpt><trkpt lat="42.0825683" lon="13.5886717"><ele>1006.5</ele><time>2026-05-02T13:24:24.094Z</time></trkpt><trkpt lat="42.0827083" lon="13.5886917"><ele>1007.25</ele><time>2026-05-02T13:24:26.094Z</time></trkpt><trkpt lat="42.08281" lon="13.5887083"><ele>1008.0</ele><time>2026-05-02T13:24:27.094Z</time></trkpt><trkpt lat="42.0829267" lon="13.5887367"><ele>1008.0</ele><time>2026-05-02T13:24:28.093Z</time></trkpt><trkpt lat="42.08305" lon="13.5887583"><ele>1008.0</ele><time>2026-05-02T13:24:29.093Z</time></trkpt><trkpt lat="42.0831767" lon="13.588775"><ele>1008.0</ele><time>2026-05-02T13:24:30.093Z</time></trkpt><trkpt lat="42.08332" lon="13.588795"><ele>1008.0</ele><time>2026-05-02T13:24:31.093Z</time></trkpt><trkpt lat="42.0834533" lon="13.5888067"><ele>1005.75</ele><time>2026-05-02T13:24:32.093Z</time></trkpt><trkpt lat="42.083585" lon="13.5888117"><ele>1003.5</ele><time>2026-05-02T13:24:33.094Z</time></trkpt><trkpt lat="42.08371" lon="13.5888183"><ele>1001.25</ele><time>2026-05-02T13:24:34.093Z</time></trkpt><trkpt lat="42.0838367" lon="13.5888267"><ele>999.0</ele><time>2026-05-02T13:24:35.094Z</time></trkpt><trkpt lat="42.0839517" lon="13.5888417"><ele>999.0</ele><time>2026-05-02T13:24:36.094Z</time></trkpt><trkpt lat="42.0840517" lon="13.5888517"><ele>999.0</ele><time>2026-05-02T13:24:37.093Z</time></trkpt><trkpt lat="42.0841267" lon="13.5888367"><ele>999.0</ele><time>2026-05-02T13:24:38.093Z</time></trkpt><trkpt lat="42.0842233" lon="13.588825"><ele>999.0</ele><time>2026-05-02T13:24:40.094Z</time></trkpt><trkpt lat="42.08433" lon="13.588825"><ele>999.0</ele><time>2026-05-02T13:24:42.093Z</time></trkpt><trkpt lat="42.0843983" lon="13.58882"><ele>999.0</ele><time>2026-05-02T13:24:43.093Z</time></trkpt><trkpt lat="42.0844883" lon="13.5887983"><ele>997.0</ele><time>2026-05-02T13:24:44.094Z</time></trkpt><trkpt lat="42.0845817" lon="13.5887733"><ele>995.0000000000001</ele><time>2026-05-02T13:24:45.094Z</time></trkpt><trkpt lat="42.0846733" lon="13.5887633"><ele>993.0000000000001</ele><time>2026-05-02T13:24:46.093Z</time></trkpt><trkpt lat="42.084775" lon="13.588735"><ele>991.0</ele><time>2026-05-02T13:24:48.093Z</time></trkpt><trkpt lat="42.0847567" lon="13.5886317"><ele>989.0</ele><time>2026-05-02T13:24:51.093Z</time></trkpt><trkpt lat="42.0846167" lon="13.5886117"><ele>984.8000000000001</ele><time>2026-05-02T13:24:53.093Z</time></trkpt><trkpt lat="42.0845333" lon="13.588595"><ele>980.6000000000001</ele><time>2026-05-02T13:24:54.094Z</time></trkpt><trkpt lat="42.0844583" lon="13.5885633"><ele>976.4</ele><time>2026-05-02T13:24:55.093Z</time></trkpt><trkpt lat="42.0843783" lon="13.5884983"><ele>972.2</ele><time>2026-05-02T13:24:56.093Z</time></trkpt><trkpt lat="42.0842983" lon="13.5884217"><ele>968.0</ele><time>2026-05-02T13:24:57.094Z</time></trkpt><trkpt lat="42.0842267" lon="13.5883333"><ele>968.0</ele><time>2026-05-02T13:24:58.093Z</time></trkpt><trkpt lat="42.0841867" lon="13.5882517"><ele>968.0</ele><time>2026-05-02T13:24:59.094Z</time></trkpt><trkpt lat="42.0841667" lon="13.58811"><ele>968.0</ele><time>2026-05-02T13:25:01.093Z</time></trkpt><trkpt lat="42.084235" lon="13.5880067"><ele>968.0</ele><time>2026-05-02T13:25:03.093Z</time></trkpt><trkpt lat="42.0843417" lon="13.5879167"><ele>968.0</ele><time>2026-05-02T13:25:05.094Z</time></trkpt><trkpt lat="42.08443" lon="13.5878217"><ele>965.4</ele><time>2026-05-02T13:25:07.094Z</time></trkpt><trkpt lat="42.08451" lon="13.587725"><ele>962.8</ele><time>2026-05-02T13:25:09.093Z</time></trkpt><trkpt lat="42.0845617" lon="13.5876567"><ele>960.2</ele><time>2026-05-02T13:25:10.094Z</time></trkpt><trkpt lat="42.0846233" lon="13.5875717"><ele>957.6</ele><time>2026-05-02T13:25:11.093Z</time></trkpt><trkpt lat="42.084705" lon="13.58747"><ele>955.0</ele><time>2026-05-02T13:25:12.093Z</time></trkpt><trkpt lat="42.084785" lon="13.587365"><ele>955.0</ele><time>2026-05-02T13:25:13.093Z</time></trkpt><trkpt lat="42.084875" lon="13.5872767"><ele>955.0</ele><time>2026-05-02T13:25:14.094Z</time></trkpt><trkpt lat="42.0849583" lon="13.5872067"><ele>955.0</ele><time>2026-05-02T13:25:15.093Z</time></trkpt><trkpt lat="42.0850533" lon="13.5871517"><ele>955.0</ele><time>2026-05-02T13:25:16.094Z</time></trkpt><trkpt lat="42.0851583" lon="13.5871"><ele>955.0</ele><time>2026-05-02T13:25:17.094Z</time></trkpt><trkpt lat="42.0852683" lon="13.5870583"><ele>954.3333333333333</ele><time>2026-05-02T13:25:18.093Z</time></trkpt><trkpt lat="42.085365" lon="13.5870117"><ele>953.6666666666666</ele><time>2026-05-02T13:25:19.093Z</time></trkpt><trkpt lat="42.0854383" lon="13.5869683"><ele>953.0</ele><time>2026-05-02T13:25:20.094Z</time></trkpt><trkpt lat="42.0854883" lon="13.586905"><ele>952.3333333333333</ele><time>2026-05-02T13:25:21.094Z</time></trkpt><trkpt lat="42.085525" lon="13.58683"><ele>951.6666666666666</ele><time>2026-05-02T13:25:22.094Z</time></trkpt><trkpt lat="42.0855483" lon="13.5867433"><ele>951.0</ele><time>2026-05-02T13:25:23.094Z</time></trkpt><trkpt lat="42.0855483" lon="13.5866583"><ele>949.8</ele><time>2026-05-02T13:25:24.093Z</time></trkpt><trkpt lat="42.0855267" lon="13.58655"><ele>948.5999999999999</ele><time>2026-05-02T13:25:25.094Z</time></trkpt><trkpt lat="42.0854833" lon="13.5864333"><ele>947.4</ele><time>2026-05-02T13:25:26.093Z</time></trkpt><trkpt lat="42.085435" lon="13.5863"><ele>946.2</ele><time>2026-05-02T13:25:27.094Z</time></trkpt><trkpt lat="42.0854017" lon="13.5861683"><ele>945.0</ele><time>2026-05-02T13:25:28.094Z</time></trkpt><trkpt lat="42.08538" lon="13.5860233"><ele>944.8</ele><time>2026-05-02T13:25:29.094Z</time></trkpt><trkpt lat="42.08538" lon="13.5858817"><ele>944.6</ele><time>2026-05-02T13:25:30.094Z</time></trkpt><trkpt lat="42.085395" lon="13.5857517"><ele>944.4000000000001</ele><time>2026-05-02T13:25:31.093Z</time></trkpt><trkpt lat="42.0854267" lon="13.5856233"><ele>944.2</ele><time>2026-05-02T13:25:32.093Z</time></trkpt><trkpt lat="42.0854667" lon="13.58549"><ele>944.0</ele><time>2026-05-02T13:25:33.093Z</time></trkpt><trkpt lat="42.0855167" lon="13.5853533"><ele>943.5</ele><time>2026-05-02T13:25:34.093Z</time></trkpt><trkpt lat="42.085565" lon="13.5852183"><ele>943.0</ele><time>2026-05-02T13:25:35.093Z</time></trkpt><trkpt lat="42.0856217" lon="13.5850783"><ele>942.5</ele><time>2026-05-02T13:25:36.093Z</time></trkpt><trkpt lat="42.0856783" lon="13.5849267"><ele>942.0</ele><time>2026-05-02T13:25:37.093Z</time></trkpt><trkpt lat="42.0857367" lon="13.58478"><ele>945.1666666666666</ele><time>2026-05-02T13:25:38.094Z</time></trkpt><trkpt lat="42.085795" lon="13.5846433"><ele>948.3333333333333</ele><time>2026-05-02T13:25:39.093Z</time></trkpt><trkpt lat="42.0858433" lon="13.584535"><ele>951.5</ele><time>2026-05-02T13:25:40.093Z</time></trkpt><trkpt lat="42.0859" lon="13.58446"><ele>954.6666666666666</ele><time>2026-05-02T13:25:41.094Z</time></trkpt><trkpt lat="42.0859583" lon="13.584395"><ele>957.8333333333333</ele><time>2026-05-02T13:25:42.094Z</time></trkpt><trkpt lat="42.08601" lon="13.5843267"><ele>961.0</ele><time>2026-05-02T13:25:43.094Z</time></trkpt><trkpt lat="42.0860783" lon="13.5842967"><ele>961.5999999999999</ele><time>2026-05-02T13:25:45.094Z</time></trkpt><trkpt lat="42.0861317" lon="13.5842467"><ele>962.1999999999999</ele><time>2026-05-02T13:25:52.094Z</time></trkpt><trkpt lat="42.0861117" lon="13.5841017"><ele>962.8000000000001</ele><time>2026-05-02T13:25:54.093Z</time></trkpt><trkpt lat="42.0860917" lon="13.5839917"><ele>963.4000000000001</ele><time>2026-05-02T13:25:55.093Z</time></trkpt><trkpt lat="42.0860583" lon="13.58386"><ele>964.0</ele><time>2026-05-02T13:25:56.093Z</time></trkpt><trkpt lat="42.0860167" lon="13.5837067"><ele>965.0</ele><time>2026-05-02T13:25:57.093Z</time></trkpt><trkpt lat="42.0859533" lon="13.5835233"><ele>966.0</ele><time>2026-05-02T13:25:58.093Z</time></trkpt><trkpt lat="42.0858767" lon="13.5833283"><ele>967.0</ele><time>2026-05-02T13:25:59.094Z</time></trkpt><trkpt lat="42.0857817" lon="13.5831317"><ele>964.6666666666666</ele><time>2026-05-02T13:26:00.093Z</time></trkpt><trkpt lat="42.0856867" lon="13.582955"><ele>962.3333333333333</ele><time>2026-05-02T13:26:01.093Z</time></trkpt><trkpt lat="42.085605" lon="13.5827867"><ele>960.0</ele><time>2026-05-02T13:26:02.093Z</time></trkpt><trkpt lat="42.085535" lon="13.5826083"><ele>960.0</ele><time>2026-05-02T13:26:03.093Z</time></trkpt><trkpt lat="42.085465" lon="13.5824117"><ele>960.0</ele><time>2026-05-02T13:26:04.094Z</time></trkpt><trkpt lat="42.0854" lon="13.58221"><ele>960.0</ele><time>2026-05-02T13:26:05.093Z</time></trkpt><trkpt lat="42.085335" lon="13.5819917"><ele>963.0</ele><time>2026-05-02T13:26:06.094Z</time></trkpt><trkpt lat="42.0852617" lon="13.5817583"><ele>966.0</ele><time>2026-05-02T13:26:07.093Z</time></trkpt><trkpt lat="42.0851917" lon="13.5815333"><ele>969.0</ele><time>2026-05-02T13:26:08.094Z</time></trkpt><trkpt lat="42.0851133" lon="13.58132"><ele>970.5</ele><time>2026-05-02T13:26:09.093Z</time></trkpt><trkpt lat="42.0850483" lon="13.5811367"><ele>972.0</ele><time>2026-05-02T13:26:10.093Z</time></trkpt><trkpt lat="42.0850017" lon="13.5809767"><ele>973.5</ele><time>2026-05-02T13:26:11.093Z</time></trkpt><trkpt lat="42.0849633" lon="13.5808317"><ele>975.0</ele><time>2026-05-02T13:26:12.094Z</time></trkpt><trkpt lat="42.0849267" lon="13.5807083"><ele>975.0</ele><time>2026-05-02T13:26:13.094Z</time></trkpt><trkpt lat="42.0848967" lon="13.580615"><ele>975.0</ele><time>2026-05-02T13:26:14.094Z</time></trkpt><trkpt lat="42.0848733" lon="13.58053"><ele>975.0</ele><time>2026-05-02T13:26:15.094Z</time></trkpt><trkpt lat="42.0848567" lon="13.5804467"><ele>975.0</ele><time>2026-05-02T13:26:16.093Z</time></trkpt><trkpt lat="42.0848383" lon="13.580275"><ele>975.0</ele><time>2026-05-02T13:26:18.094Z</time></trkpt><trkpt lat="42.0848333" lon="13.5801583"><ele>975.0</ele><time>2026-05-02T13:26:19.093Z</time></trkpt><trkpt lat="42.0848333" lon="13.5800283"><ele>975.5</ele><time>2026-05-02T13:26:20.094Z</time></trkpt><trkpt lat="42.0848383" lon="13.5799083"><ele>976.0</ele><time>2026-05-02T13:26:21.093Z</time></trkpt><trkpt lat="42.0848567" lon="13.5798"><ele>976.5</ele><time>2026-05-02T13:26:22.094Z</time></trkpt><trkpt lat="42.0848817" lon="13.5797133"><ele>977.0</ele><time>2026-05-02T13:26:23.093Z</time></trkpt><trkpt lat="42.08491" lon="13.579635"><ele>977.5</ele><time>2026-05-02T13:26:24.093Z</time></trkpt><trkpt lat="42.084955" lon="13.5795467"><ele>978.0</ele><time>2026-05-02T13:26:25.094Z</time></trkpt><trkpt lat="42.085005" lon="13.5794583"><ele>975.2</ele><time>2026-05-02T13:26:26.093Z</time></trkpt><trkpt lat="42.0850533" lon="13.5793717"><ele>972.4</ele><time>2026-05-02T13:26:27.093Z</time></trkpt><trkpt lat="42.0851167" lon="13.57929"><ele>969.6000000000001</ele><time>2026-05-02T13:26:28.093Z</time></trkpt><trkpt lat="42.0851967" lon="13.5791883"><ele>966.8000000000001</ele><time>2026-05-02T13:26:29.094Z</time></trkpt><trkpt lat="42.0852867" lon="13.5790783"><ele>964.0</ele><time>2026-05-02T13:26:30.094Z</time></trkpt><trkpt lat="42.0853783" lon="13.5789633"><ele>964.0</ele><time>2026-05-02T13:26:31.093Z</time></trkpt><trkpt lat="42.085465" lon="13.5788433"><ele>964.0</ele><time>2026-05-02T13:26:32.094Z</time></trkpt><trkpt lat="42.0855517" lon="13.5787067"><ele>964.0</ele><time>2026-05-02T13:26:33.094Z</time></trkpt><trkpt lat="42.0856383" lon="13.5785767"><ele>964.0</ele><time>2026-05-02T13:26:34.093Z</time></trkpt><trkpt lat="42.085715" lon="13.5784683"><ele>963.6666666666666</ele><time>2026-05-02T13:26:35.094Z</time></trkpt><trkpt lat="42.085775" lon="13.57835"><ele>963.3333333333333</ele><time>2026-05-02T13:26:36.093Z</time></trkpt><trkpt lat="42.08582" lon="13.5782333"><ele>963.0</ele><time>2026-05-02T13:26:37.094Z</time></trkpt><trkpt lat="42.0858667" lon="13.5781367"><ele>962.6666666666667</ele><time>2026-05-02T13:26:38.093Z</time></trkpt><trkpt lat="42.0859083" lon="13.5780417"><ele>962.3333333333334</ele><time>2026-05-02T13:26:39.094Z</time></trkpt><trkpt lat="42.085935" lon="13.5779517"><ele>962.0</ele><time>2026-05-02T13:26:40.094Z</time></trkpt><trkpt lat="42.085945" lon="13.5778533"><ele>959.5000000000001</ele><time>2026-05-02T13:26:41.093Z</time></trkpt><trkpt lat="42.0859617" lon="13.57775"><ele>957.0</ele><time>2026-05-02T13:26:42.094Z</time></trkpt><trkpt lat="42.085985" lon="13.57765"><ele>954.5</ele><time>2026-05-02T13:26:43.094Z</time></trkpt><trkpt lat="42.0860117" lon="13.57757"><ele>952.0</ele><time>2026-05-02T13:26:44.094Z</time></trkpt><trkpt lat="42.0860417" lon="13.5774733"><ele>949.5000000000001</ele><time>2026-05-02T13:26:46.094Z</time></trkpt><trkpt lat="42.0859683" lon="13.5774017"><ele>947.0</ele><time>2026-05-02T13:27:06.093Z</time></trkpt><trkpt lat="42.0858517" lon="13.5773867"><ele>947.0000000000001</ele><time>2026-05-02T13:27:08.093Z</time></trkpt><trkpt lat="42.0857717" lon="13.57739"><ele>947.0</ele><time>2026-05-02T13:27:09.093Z</time></trkpt><trkpt lat="42.0856883" lon="13.577385"><ele>947.0</ele><time>2026-05-02T13:27:10.093Z</time></trkpt><trkpt lat="42.0856067" lon="13.5773817"><ele>947.0</ele><time>2026-05-02T13:27:11.093Z</time></trkpt><trkpt lat="42.0855283" lon="13.5773733"><ele>947.0000000000001</ele><time>2026-05-02T13:27:12.093Z</time></trkpt><trkpt lat="42.085445" lon="13.57736"><ele>947.0</ele><time>2026-05-02T13:27:13.094Z</time></trkpt><trkpt lat="42.0853633" lon="13.5773533"><ele>944.6666666666667</ele><time>2026-05-02T13:27:14.093Z</time></trkpt><trkpt lat="42.0852867" lon="13.5773633"><ele>942.3333333333334</ele><time>2026-05-02T13:27:15.094Z</time></trkpt><trkpt lat="42.085215" lon="13.57736"><ele>940.0</ele><time>2026-05-02T13:27:16.093Z</time></trkpt><trkpt lat="42.0851483" lon="13.5773617"><ele>937.6666666666667</ele><time>2026-05-02T13:27:17.094Z</time></trkpt><trkpt lat="42.0850833" lon="13.5773533"><ele>935.3333333333334</ele><time>2026-05-02T13:27:18.094Z</time></trkpt><trkpt lat="42.08498" lon="13.577285"><ele>933.0</ele><time>2026-05-02T13:27:20.094Z</time></trkpt><trkpt lat="42.08496" lon="13.5771333"><ele>933.0</ele><time>2026-05-02T13:27:22.093Z</time></trkpt><trkpt lat="42.0849867" lon="13.5770517"><ele>933.0</ele><time>2026-05-02T13:27:23.094Z</time></trkpt><trkpt lat="42.085045" lon="13.5769717"><ele>933.0</ele><time>2026-05-02T13:27:24.093Z</time></trkpt><trkpt lat="42.0851067" lon="13.5769167"><ele>933.0</ele><time>2026-05-02T13:27:25.094Z</time></trkpt><trkpt lat="42.0852133" lon="13.5768467"><ele>933.0</ele><time>2026-05-02T13:27:27.093Z</time></trkpt><trkpt lat="42.085275" lon="13.5768083"><ele>933.0</ele><time>2026-05-02T13:27:28.093Z</time></trkpt><trkpt lat="42.0853433" lon="13.5767767"><ele>930.5</ele><time>2026-05-02T13:27:29.093Z</time></trkpt><trkpt lat="42.0854417" lon="13.5766917"><ele>928.0</ele><time>2026-05-02T13:27:31.094Z</time></trkpt><trkpt lat="42.0854517" lon="13.5765817"><ele>925.5</ele><time>2026-05-02T13:27:33.094Z</time></trkpt><trkpt lat="42.0853617" lon="13.5765183"><ele>923.0</ele><time>2026-05-02T13:27:36.094Z</time></trkpt><trkpt lat="42.085295" lon="13.5765083"><ele>920.5</ele><time>2026-05-02T13:27:37.094Z</time></trkpt><trkpt lat="42.08522" lon="13.5764933"><ele>918.0</ele><time>2026-05-02T13:27:38.093Z</time></trkpt><trkpt lat="42.0851317" lon="13.5764667"><ele>918.0</ele><time>2026-05-02T13:27:39.094Z</time></trkpt><trkpt lat="42.08505" lon="13.5764383"><ele>918.0</ele><time>2026-05-02T13:27:40.093Z</time></trkpt><trkpt lat="42.08497" lon="13.5763983"><ele>918.0</ele><time>2026-05-02T13:27:41.094Z</time></trkpt><trkpt lat="42.0848917" lon="13.576355"><ele>918.0</ele><time>2026-05-02T13:27:42.093Z</time></trkpt><trkpt lat="42.0848167" lon="13.5763217"><ele>918.0</ele><time>2026-05-02T13:27:43.093Z</time></trkpt><trkpt lat="42.0847433" lon="13.5762833"><ele>918.0</ele><time>2026-05-02T13:27:44.093Z</time></trkpt><trkpt lat="42.0846783" lon="13.5762567"><ele>916.8333333333334</ele><time>2026-05-02T13:27:45.094Z</time></trkpt><trkpt lat="42.084605" lon="13.57624"><ele>915.6666666666667</ele><time>2026-05-02T13:27:46.094Z</time></trkpt><trkpt lat="42.0845267" lon="13.5762283"><ele>914.5</ele><time>2026-05-02T13:27:47.093Z</time></trkpt><trkpt lat="42.084455" lon="13.5762267"><ele>913.3333333333334</ele><time>2026-05-02T13:27:48.093Z</time></trkpt><trkpt lat="42.0843733" lon="13.57622"><ele>912.1666666666667</ele><time>2026-05-02T13:27:49.094Z</time></trkpt><trkpt lat="42.084295" lon="13.5761967"><ele>911.0</ele><time>2026-05-02T13:27:50.094Z</time></trkpt><trkpt lat="42.0841833" lon="13.5761617"><ele>907.4</ele><time>2026-05-02T13:27:52.093Z</time></trkpt><trkpt lat="42.0840817" lon="13.57613"><ele>903.8</ele><time>2026-05-02T13:27:54.094Z</time></trkpt><trkpt lat="42.0839867" lon="13.5760983"><ele>900.1999999999999</ele><time>2026-05-02T13:27:56.093Z</time></trkpt><trkpt lat="42.0838617" lon="13.5760933"><ele>896.5999999999999</ele><time>2026-05-02T13:27:58.094Z</time></trkpt><trkpt lat="42.08378" lon="13.5760917"><ele>893.0</ele><time>2026-05-02T13:27:59.094Z</time></trkpt><trkpt lat="42.0836983" lon="13.5760867"><ele>893.0000000000001</ele><time>2026-05-02T13:28:00.094Z</time></trkpt><trkpt lat="42.0836183" lon="13.576055"><ele>893.0</ele><time>2026-05-02T13:28:01.093Z</time></trkpt><trkpt lat="42.0835467" lon="13.575995"><ele>893.0</ele><time>2026-05-02T13:28:02.094Z</time></trkpt><trkpt lat="42.08349" lon="13.5759233"><ele>893.0</ele><time>2026-05-02T13:28:03.094Z</time></trkpt><trkpt lat="42.083435" lon="13.5758567"><ele>893.0000000000001</ele><time>2026-05-02T13:28:04.094Z</time></trkpt><trkpt lat="42.08337" lon="13.5757417"><ele>893.0</ele><time>2026-05-02T13:28:06.093Z</time></trkpt><trkpt lat="42.0833217" lon="13.575605"><ele>893.0</ele><time>2026-05-02T13:28:08.094Z</time></trkpt><trkpt lat="42.0832833" lon="13.57551"><ele>893.0</ele><time>2026-05-02T13:28:09.094Z</time></trkpt><trkpt lat="42.08323" lon="13.5753983"><ele>893.0</ele><time>2026-05-02T13:28:10.094Z</time></trkpt><trkpt lat="42.08318" lon="13.575285"><ele>893.0</ele><time>2026-05-02T13:28:11.093Z</time></trkpt><trkpt lat="42.083135" lon="13.5751867"><ele>893.0</ele><time>2026-05-02T13:28:12.094Z</time></trkpt><trkpt lat="42.0830983" lon="13.5750667"><ele>891.4</ele><time>2026-05-02T13:28:13.094Z</time></trkpt><trkpt lat="42.0830667" lon="13.5749367"><ele>889.8</ele><time>2026-05-02T13:28:14.094Z</time></trkpt><trkpt lat="42.083025" lon="13.574805"><ele>888.2</ele><time>2026-05-02T13:28:15.094Z</time></trkpt><trkpt lat="42.0829867" lon="13.574685"><ele>886.6</ele><time>2026-05-02T13:28:16.094Z</time></trkpt><trkpt lat="42.082925" lon="13.5745717"><ele>885.0</ele><time>2026-05-02T13:28:17.093Z</time></trkpt><trkpt lat="42.0828733" lon="13.57445"><ele>884.0</ele><time>2026-05-02T13:28:18.093Z</time></trkpt><trkpt lat="42.08281" lon="13.5743367"><ele>883.0</ele><time>2026-05-02T13:28:19.093Z</time></trkpt><trkpt lat="42.0827633" lon="13.5742367"><ele>882.0</ele><time>2026-05-02T13:28:20.093Z</time></trkpt><trkpt lat="42.0827283" lon="13.57414"><ele>881.0</ele><time>2026-05-02T13:28:21.094Z</time></trkpt><trkpt lat="42.08269" lon="13.5740517"><ele>880.0</ele><time>2026-05-02T13:28:22.094Z</time></trkpt><trkpt lat="42.08264" lon="13.57396"><ele>879.0</ele><time>2026-05-02T13:28:23.094Z</time></trkpt><trkpt lat="42.08258" lon="13.573855"><ele>879.0</ele><time>2026-05-02T13:28:24.093Z</time></trkpt><trkpt lat="42.0825067" lon="13.57374"><ele>879.0000000000001</ele><time>2026-05-02T13:28:25.093Z</time></trkpt><trkpt lat="42.0824367" lon="13.5736233"><ele>879.0000000000001</ele><time>2026-05-02T13:28:26.093Z</time></trkpt><trkpt lat="42.0823783" lon="13.57353"><ele>879.0</ele><time>2026-05-02T13:28:27.094Z</time></trkpt><trkpt lat="42.0823333" lon="13.5734433"><ele>879.0</ele><time>2026-05-02T13:28:28.094Z</time></trkpt><trkpt lat="42.08229" lon="13.5733617"><ele>878.2</ele><time>2026-05-02T13:28:29.093Z</time></trkpt><trkpt lat="42.08225" lon="13.5732917"><ele>877.4000000000001</ele><time>2026-05-02T13:28:30.093Z</time></trkpt><trkpt lat="42.082175" lon="13.5731817"><ele>876.6</ele><time>2026-05-02T13:28:32.093Z</time></trkpt><trkpt lat="42.0820783" lon="13.57307"><ele>875.8</ele><time>2026-05-02T13:28:34.093Z</time></trkpt><trkpt lat="42.08202" lon="13.573"><ele>875.0</ele><time>2026-05-02T13:28:35.094Z</time></trkpt><trkpt lat="42.08195" lon="13.5729267"><ele>875.0000000000001</ele><time>2026-05-02T13:28:36.093Z</time></trkpt><trkpt lat="42.0818917" lon="13.5728567"><ele>875.0</ele><time>2026-05-02T13:28:37.093Z</time></trkpt><trkpt lat="42.0818233" lon="13.5727883"><ele>875.0</ele><time>2026-05-02T13:28:38.093Z</time></trkpt><trkpt lat="42.0817533" lon="13.5727067"><ele>875.0</ele><time>2026-05-02T13:28:39.094Z</time></trkpt><trkpt lat="42.08169" lon="13.5726117"><ele>875.0000000000001</ele><time>2026-05-02T13:28:40.093Z</time></trkpt><trkpt lat="42.0816333" lon="13.57251"><ele>875.0</ele><time>2026-05-02T13:28:41.093Z</time></trkpt><trkpt lat="42.0815817" lon="13.5724233"><ele>874.6666666666667</ele><time>2026-05-02T13:28:42.094Z</time></trkpt><trkpt lat="42.0815267" lon="13.57236"><ele>874.3333333333334</ele><time>2026-05-02T13:28:43.094Z</time></trkpt><trkpt lat="42.0814767" lon="13.5723083"><ele>874.0</ele><time>2026-05-02T13:28:44.094Z</time></trkpt><trkpt lat="42.0814217" lon="13.5721917"><ele>873.6666666666667</ele><time>2026-05-02T13:28:46.093Z</time></trkpt><trkpt lat="42.0814267" lon="13.5720733"><ele>873.3333333333334</ele><time>2026-05-02T13:28:48.094Z</time></trkpt><trkpt lat="42.08148" lon="13.571975"><ele>873.0</ele><time>2026-05-02T13:28:50.093Z</time></trkpt><trkpt lat="42.081505" lon="13.57188"><ele>871.4</ele><time>2026-05-02T13:28:52.094Z</time></trkpt><trkpt lat="42.0814567" lon="13.5717333"><ele>869.8</ele><time>2026-05-02T13:28:54.094Z</time></trkpt><trkpt lat="42.0813983" lon="13.5716467"><ele>868.2</ele><time>2026-05-02T13:28:55.093Z</time></trkpt><trkpt lat="42.0813083" lon="13.5715533"><ele>866.6</ele><time>2026-05-02T13:28:56.093Z</time></trkpt><trkpt lat="42.0812267" lon="13.571475"><ele>865.0</ele><time>2026-05-02T13:28:57.094Z</time></trkpt><trkpt lat="42.0811617" lon="13.5714133"><ele>865.0</ele><time>2026-05-02T13:28:58.094Z</time></trkpt><trkpt lat="42.0811017" lon="13.5713733"><ele>865.0</ele><time>2026-05-02T13:28:59.094Z</time></trkpt><trkpt lat="42.081035" lon="13.5713217"><ele>865.0</ele><time>2026-05-02T13:29:00.094Z</time></trkpt><trkpt lat="42.0809783" lon="13.571265"><ele>865.0</ele><time>2026-05-02T13:29:01.093Z</time></trkpt><trkpt lat="42.0809233" lon="13.571205"><ele>865.0</ele><time>2026-05-02T13:29:02.093Z</time></trkpt><trkpt lat="42.0808717" lon="13.57113"><ele>865.0</ele><time>2026-05-02T13:29:03.094Z</time></trkpt><trkpt lat="42.08082" lon="13.571055"><ele>865.0</ele><time>2026-05-02T13:29:04.093Z</time></trkpt><trkpt lat="42.0807833" lon="13.5709733"><ele>865.6</ele><time>2026-05-02T13:29:05.094Z</time></trkpt><trkpt lat="42.0807517" lon="13.5708733"><ele>866.2</ele><time>2026-05-02T13:29:06.093Z</time></trkpt><trkpt lat="42.080705" lon="13.57076"><ele>866.8</ele><time>2026-05-02T13:29:07.093Z</time></trkpt><trkpt lat="42.0806567" lon="13.5706367"><ele>867.4</ele><time>2026-05-02T13:29:08.094Z</time></trkpt><trkpt lat="42.0806083" lon="13.5704933"><ele>868.0</ele><time>2026-05-02T13:29:09.093Z</time></trkpt><trkpt lat="42.0805517" lon="13.5703417"><ele>868.0</ele><time>2026-05-02T13:29:10.094Z</time></trkpt><trkpt lat="42.0804967" lon="13.5701783"><ele>868.0</ele><time>2026-05-02T13:29:11.093Z</time></trkpt><trkpt lat="42.0804533" lon="13.5700217"><ele>868.0</ele><time>2026-05-02T13:29:12.093Z</time></trkpt><trkpt lat="42.0804217" lon="13.56986"><ele>868.0</ele><time>2026-05-02T13:29:13.093Z</time></trkpt><trkpt lat="42.0803917" lon="13.5697"><ele>867.9999999999999</ele><time>2026-05-02T13:29:14.093Z</time></trkpt><trkpt lat="42.0803683" lon="13.569565"><ele>868.0</ele><time>2026-05-02T13:29:15.094Z</time></trkpt><trkpt lat="42.0803617" lon="13.569445"><ele>868.0</ele><time>2026-05-02T13:29:16.094Z</time></trkpt><trkpt lat="42.0803533" lon="13.56934"><ele>868.0</ele><time>2026-05-02T13:29:17.093Z</time></trkpt><trkpt lat="42.0803417" lon="13.5692333"><ele>867.9999999999999</ele><time>2026-05-02T13:29:18.094Z</time></trkpt><trkpt lat="42.0803133" lon="13.56913"><ele>868.0</ele><time>2026-05-02T13:29:19.093Z</time></trkpt><trkpt lat="42.080275" lon="13.5690267"><ele>865.25</ele><time>2026-05-02T13:29:20.093Z</time></trkpt><trkpt lat="42.0802317" lon="13.5689017"><ele>862.5</ele><time>2026-05-02T13:29:21.094Z</time></trkpt><trkpt lat="42.0801633" lon="13.568745"><ele>859.75</ele><time>2026-05-02T13:29:22.093Z</time></trkpt><trkpt lat="42.080115" lon="13.5685817"><ele>857.0</ele><time>2026-05-02T13:29:23.093Z</time></trkpt><trkpt lat="42.0800733" lon="13.5684267"><ele>853.75</ele><time>2026-05-02T13:29:24.094Z</time></trkpt><trkpt lat="42.0800417" lon="13.56824"><ele>850.5</ele><time>2026-05-02T13:29:25.093Z</time></trkpt><trkpt lat="42.0800267" lon="13.5680533"><ele>847.25</ele><time>2026-05-02T13:29:26.093Z</time></trkpt><trkpt lat="42.0800267" lon="13.5679033"><ele>844.0</ele><time>2026-05-02T13:29:27.093Z</time></trkpt><trkpt lat="42.08004" lon="13.5677533"><ele>842.4000000000001</ele><time>2026-05-02T13:29:28.094Z</time></trkpt><trkpt lat="42.08008" lon="13.56762"><ele>840.8</ele><time>2026-05-02T13:29:29.094Z</time></trkpt><trkpt lat="42.08012" lon="13.5675017"><ele>839.2</ele><time>2026-05-02T13:29:30.093Z</time></trkpt><trkpt lat="42.0801617" lon="13.5673917"><ele>837.5999999999999</ele><time>2026-05-02T13:29:31.094Z</time></trkpt><trkpt lat="42.0802167" lon="13.5672817"><ele>836.0</ele><time>2026-05-02T13:29:32.093Z</time></trkpt><trkpt lat="42.08028" lon="13.56716"><ele>836.0</ele><time>2026-05-02T13:29:33.094Z</time></trkpt><trkpt lat="42.080355" lon="13.5670567"><ele>836.0</ele><time>2026-05-02T13:29:34.094Z</time></trkpt><trkpt lat="42.0804267" lon="13.5669683"><ele>836.0</ele><time>2026-05-02T13:29:35.094Z</time></trkpt><trkpt lat="42.0804983" lon="13.56688"><ele>836.0</ele><time>2026-05-02T13:29:36.094Z</time></trkpt><trkpt lat="42.080555" lon="13.566805"><ele>836.0</ele><time>2026-05-02T13:29:37.093Z</time></trkpt><trkpt lat="42.0806017" lon="13.566685"><ele>836.4</ele><time>2026-05-02T13:29:39.092Z</time></trkpt><trkpt lat="42.08057" lon="13.5665183"><ele>836.8</ele><time>2026-05-02T13:29:41.093Z</time></trkpt><trkpt lat="42.0805467" lon="13.5664"><ele>837.1999999999999</ele><time>2026-05-02T13:29:42.093Z</time></trkpt><trkpt lat="42.080515" lon="13.5662583"><ele>837.5999999999999</ele><time>2026-05-02T13:29:43.093Z</time></trkpt><trkpt lat="42.0804917" lon="13.5660983"><ele>838.0</ele><time>2026-05-02T13:29:44.093Z</time></trkpt><trkpt lat="42.0804767" lon="13.56593"><ele>838.0</ele><time>2026-05-02T13:29:45.092Z</time></trkpt><trkpt lat="42.08047" lon="13.5657917"><ele>838.0</ele><time>2026-05-02T13:29:46.092Z</time></trkpt><trkpt lat="42.0804533" lon="13.565665"><ele>838.0</ele><time>2026-05-02T13:29:47.093Z</time></trkpt><trkpt lat="42.08042" lon="13.56557"><ele>838.0</ele><time>2026-05-02T13:29:48.092Z</time></trkpt><trkpt lat="42.08037" lon="13.5654617"><ele>838.0</ele><time>2026-05-02T13:29:49.093Z</time></trkpt><trkpt lat="42.080315" lon="13.5653183"><ele>835.0</ele><time>2026-05-02T13:29:50.092Z</time></trkpt><trkpt lat="42.0802567" lon="13.5651467"><ele>832.0</ele><time>2026-05-02T13:29:51.093Z</time></trkpt><trkpt lat="42.0801983" lon="13.5649733"><ele>829.0</ele><time>2026-05-02T13:29:52.092Z</time></trkpt><trkpt lat="42.080145" lon="13.564785"><ele>826.0</ele><time>2026-05-02T13:29:53.093Z</time></trkpt><trkpt lat="42.0801017" lon="13.5645983"><ele>824.0</ele><time>2026-05-02T13:29:54.093Z</time></trkpt><trkpt lat="42.0800733" lon="13.564405"><ele>822.0</ele><time>2026-05-02T13:29:55.092Z</time></trkpt><trkpt lat="42.0800667" lon="13.564225"><ele>820.0</ele><time>2026-05-02T13:29:56.092Z</time></trkpt><trkpt lat="42.0800583" lon="13.564015"><ele>818.0</ele><time>2026-05-02T13:29:57.092Z</time></trkpt><trkpt lat="42.08005" lon="13.5638133"><ele>817.6666666666667</ele><time>2026-05-02T13:29:58.093Z</time></trkpt><trkpt lat="42.08004" lon="13.563605"><ele>817.3333333333333</ele><time>2026-05-02T13:29:59.093Z</time></trkpt><trkpt lat="42.0800317" lon="13.5633983"><ele>817.0</ele><time>2026-05-02T13:30:00.093Z</time></trkpt><trkpt lat="42.0800217" lon="13.5632"><ele>817.0</ele><time>2026-05-02T13:30:01.093Z</time></trkpt><trkpt lat="42.0800167" lon="13.5630233"><ele>817.0</ele><time>2026-05-02T13:30:02.093Z</time></trkpt><trkpt lat="42.080025" lon="13.5628783"><ele>817.0</ele><time>2026-05-02T13:30:03.093Z</time></trkpt><trkpt lat="42.08004" lon="13.5627583"><ele>817.0</ele><time>2026-05-02T13:30:04.093Z</time></trkpt><trkpt lat="42.0800483" lon="13.562655"><ele>817.0</ele><time>2026-05-02T13:30:05.093Z</time></trkpt><trkpt lat="42.0800583" lon="13.5625583"><ele>815.2</ele><time>2026-05-02T13:30:06.093Z</time></trkpt><trkpt lat="42.0800483" lon="13.5624617"><ele>813.4000000000001</ele><time>2026-05-02T13:30:07.093Z</time></trkpt><trkpt lat="42.080015" lon="13.5623583"><ele>811.5999999999999</ele><time>2026-05-02T13:30:08.092Z</time></trkpt><trkpt lat="42.0799633" lon="13.5622367"><ele>809.8</ele><time>2026-05-02T13:30:09.092Z</time></trkpt><trkpt lat="42.0799083" lon="13.5621217"><ele>808.0</ele><time>2026-05-02T13:30:10.092Z</time></trkpt><trkpt lat="42.0798633" lon="13.5620133"><ele>811.8</ele><time>2026-05-02T13:30:11.093Z</time></trkpt><trkpt lat="42.0798417" lon="13.5618867"><ele>815.5999999999999</ele><time>2026-05-02T13:30:12.093Z</time></trkpt><trkpt lat="42.07984" lon="13.561735"><ele>819.4000000000001</ele><time>2026-05-02T13:30:13.092Z</time></trkpt><trkpt lat="42.0798433" lon="13.5615817"><ele>823.2</ele><time>2026-05-02T13:30:14.093Z</time></trkpt><trkpt lat="42.0798617" lon="13.5614367"><ele>827.0</ele><time>2026-05-02T13:30:15.092Z</time></trkpt><trkpt lat="42.0798983" lon="13.561325"><ele>822.5000000000001</ele><time>2026-05-02T13:30:16.092Z</time></trkpt><trkpt lat="42.07995" lon="13.5612283"><ele>818.0</ele><time>2026-05-02T13:30:17.092Z</time></trkpt><trkpt lat="42.080005" lon="13.5611333"><ele>813.5</ele><time>2026-05-02T13:30:18.093Z</time></trkpt><trkpt lat="42.0800567" lon="13.5610467"><ele>809.0</ele><time>2026-05-02T13:30:19.093Z</time></trkpt><trkpt lat="42.0800967" lon="13.560955"><ele>804.5000000000001</ele><time>2026-05-02T13:30:20.093Z</time></trkpt><trkpt lat="42.0801167" lon="13.56086"><ele>800.0</ele><time>2026-05-02T13:30:21.092Z</time></trkpt><trkpt lat="42.0801233" lon="13.5607417"><ele>798.8</ele><time>2026-05-02T13:30:22.093Z</time></trkpt><trkpt lat="42.0801017" lon="13.560605"><ele>797.6</ele><time>2026-05-02T13:30:23.093Z</time></trkpt><trkpt lat="42.0800633" lon="13.56046"><ele>796.4000000000001</ele><time>2026-05-02T13:30:24.093Z</time></trkpt><trkpt lat="42.0800133" lon="13.5603217"><ele>795.2</ele><time>2026-05-02T13:30:25.092Z</time></trkpt><trkpt lat="42.0799533" lon="13.56019"><ele>794.0</ele><time>2026-05-02T13:30:26.092Z</time></trkpt><trkpt lat="42.0798983" lon="13.5600767"><ele>797.0</ele><time>2026-05-02T13:30:27.092Z</time></trkpt><trkpt lat="42.079835" lon="13.55998"><ele>800.0</ele><time>2026-05-02T13:30:28.093Z</time></trkpt><trkpt lat="42.079765" lon="13.5598683"><ele>803.0</ele><time>2026-05-02T13:30:29.092Z</time></trkpt><trkpt lat="42.07969" lon="13.55973"><ele>806.0</ele><time>2026-05-02T13:30:30.092Z</time></trkpt><trkpt lat="42.0796133" lon="13.55957"><ele>800.0</ele><time>2026-05-02T13:30:31.093Z</time></trkpt><trkpt lat="42.0795317" lon="13.5594133"><ele>794.0</ele><time>2026-05-02T13:30:32.093Z</time></trkpt><trkpt lat="42.0794517" lon="13.5592683"><ele>788.0</ele><time>2026-05-02T13:30:33.092Z</time></trkpt><trkpt lat="42.0793817" lon="13.5591183"><ele>782.0</ele><time>2026-05-02T13:30:34.093Z</time></trkpt><trkpt lat="42.0793217" lon="13.5589817"><ele>782.0</ele><time>2026-05-02T13:30:35.093Z</time></trkpt><trkpt lat="42.0792467" lon="13.5588333"><ele>782.0</ele><time>2026-05-02T13:30:36.093Z</time></trkpt><trkpt lat="42.07916" lon="13.5586883"><ele>782.0</ele><time>2026-05-02T13:30:37.092Z</time></trkpt><trkpt lat="42.07906" lon="13.5585283"><ele>782.0</ele><time>2026-05-02T13:30:38.092Z</time></trkpt><trkpt lat="42.0789683" lon="13.5583783"><ele>782.5</ele><time>2026-05-02T13:30:39.093Z</time></trkpt><trkpt lat="42.0788933" lon="13.5582333"><ele>783.0</ele><time>2026-05-02T13:30:40.092Z</time></trkpt><trkpt lat="42.078815" lon="13.5580817"><ele>783.5</ele><time>2026-05-02T13:30:41.092Z</time></trkpt><trkpt lat="42.0787383" lon="13.557915"><ele>784.0</ele><time>2026-05-02T13:30:42.093Z</time></trkpt><trkpt lat="42.0786633" lon="13.5577567"><ele>779.0</ele><time>2026-05-02T13:30:43.092Z</time></trkpt><trkpt lat="42.0785983" lon="13.557595"><ele>774.0</ele><time>2026-05-02T13:30:44.093Z</time></trkpt><trkpt lat="42.0785317" lon="13.5574167"><ele>769.0</ele><time>2026-05-02T13:30:45.093Z</time></trkpt><trkpt lat="42.0784667" lon="13.557255"><ele>764.0</ele><time>2026-05-02T13:30:46.093Z</time></trkpt><trkpt lat="42.0784" lon="13.5571183"><ele>762.3333333333333</ele><time>2026-05-02T13:30:47.092Z</time></trkpt><trkpt lat="42.07834" lon="13.557"><ele>760.6666666666666</ele><time>2026-05-02T13:30:48.093Z</time></trkpt><trkpt lat="42.0782967" lon="13.5569033"><ele>759.0</ele><time>2026-05-02T13:30:49.093Z</time></trkpt><trkpt lat="42.07826" lon="13.5568167"><ele>757.3333333333334</ele><time>2026-05-02T13:30:50.093Z</time></trkpt><trkpt lat="42.078235" lon="13.556735"><ele>755.6666666666667</ele><time>2026-05-02T13:30:51.092Z</time></trkpt><trkpt lat="42.0782083" lon="13.5566267"><ele>754.0</ele><time>2026-05-02T13:30:52.092Z</time></trkpt><trkpt lat="42.0781883" lon="13.556505"><ele>757.8000000000001</ele><time>2026-05-02T13:30:53.092Z</time></trkpt><trkpt lat="42.0781717" lon="13.5563817"><ele>761.6</ele><time>2026-05-02T13:30:54.093Z</time></trkpt><trkpt lat="42.0781583" lon="13.5562517"><ele>765.4</ele><time>2026-05-02T13:30:55.092Z</time></trkpt><trkpt lat="42.07814" lon="13.556115"><ele>769.2</ele><time>2026-05-02T13:30:56.092Z</time></trkpt><trkpt lat="42.078105" lon="13.555985"><ele>773.0</ele><time>2026-05-02T13:30:57.093Z</time></trkpt><trkpt lat="42.0780517" lon="13.5558517"><ele>773.0</ele><time>2026-05-02T13:30:58.092Z</time></trkpt><trkpt lat="42.077975" lon="13.555705"><ele>773.0</ele><time>2026-05-02T13:30:59.092Z</time></trkpt><trkpt lat="42.0778983" lon="13.5555517"><ele>773.0</ele><time>2026-05-02T13:31:00.092Z</time></trkpt><trkpt lat="42.0778433" lon="13.5554183"><ele>773.0</ele><time>2026-05-02T13:31:01.092Z</time></trkpt><trkpt lat="42.0778267" lon="13.5552917"><ele>770.5000000000001</ele><time>2026-05-02T13:31:02.093Z</time></trkpt><trkpt lat="42.07782" lon="13.5551717"><ele>768.0</ele><time>2026-05-02T13:31:03.093Z</time></trkpt><trkpt lat="42.07782" lon="13.5550617"><ele>765.5</ele><time>2026-05-02T13:31:04.092Z</time></trkpt><trkpt lat="42.0778117" lon="13.55495"><ele>763.0</ele><time>2026-05-02T13:31:05.092Z</time></trkpt><trkpt lat="42.077795" lon="13.5548483"><ele>760.5</ele><time>2026-05-02T13:31:06.092Z</time></trkpt><trkpt lat="42.0777767" lon="13.55475"><ele>758.0</ele><time>2026-05-02T13:31:07.092Z</time></trkpt><trkpt lat="42.0777367" lon="13.5546533"><ele>758.0</ele><time>2026-05-02T13:31:08.092Z</time></trkpt><trkpt lat="42.077665" lon="13.55454"><ele>758.0</ele><time>2026-05-02T13:31:09.092Z</time></trkpt><trkpt lat="42.0775667" lon="13.5544217"><ele>758.0</ele><time>2026-05-02T13:31:10.093Z</time></trkpt><trkpt lat="42.07745" lon="13.5543083"><ele>758.0</ele><time>2026-05-02T13:31:11.093Z</time></trkpt><trkpt lat="42.0773567" lon="13.5542183"><ele>758.6666666666666</ele><time>2026-05-02T13:31:12.093Z</time></trkpt><trkpt lat="42.07728" lon="13.55414"><ele>759.3333333333333</ele><time>2026-05-02T13:31:13.093Z</time></trkpt><trkpt lat="42.0772183" lon="13.55404"><ele>760.0</ele><time>2026-05-02T13:31:14.092Z</time></trkpt><trkpt lat="42.07717" lon="13.5539367"><ele>760.6666666666666</ele><time>2026-05-02T13:31:15.092Z</time></trkpt><trkpt lat="42.0771483" lon="13.5538467"><ele>761.3333333333334</ele><time>2026-05-02T13:31:16.092Z</time></trkpt><trkpt lat="42.0771317" lon="13.5537483"><ele>762.0</ele><time>2026-05-02T13:31:17.092Z</time></trkpt><trkpt lat="42.0771067" lon="13.553655"><ele>758.6</ele><time>2026-05-02T13:31:18.092Z</time></trkpt><trkpt lat="42.0770767" lon="13.5535733"><ele>755.2</ele><time>2026-05-02T13:31:19.092Z</time></trkpt><trkpt lat="42.0770217" lon="13.5534667"><ele>751.8</ele><time>2026-05-02T13:31:21.093Z</time></trkpt><trkpt lat="42.0770567" lon="13.5533733"><ele>748.4</ele><time>2026-05-02T13:31:24.092Z</time></trkpt><trkpt lat="42.077175" lon="13.5533217"><ele>745.0</ele><time>2026-05-02T13:31:26.092Z</time></trkpt><trkpt lat="42.0772683" lon="13.5532867"><ele>745.0</ele><time>2026-05-02T13:31:27.093Z</time></trkpt><trkpt lat="42.0773733" lon="13.5532283"><ele>745.0</ele><time>2026-05-02T13:31:28.092Z</time></trkpt><trkpt lat="42.0774633" lon="13.55316"><ele>745.0</ele><time>2026-05-02T13:31:29.092Z</time></trkpt><trkpt lat="42.0775267" lon="13.5530683"><ele>745.0</ele><time>2026-05-02T13:31:30.093Z</time></trkpt><trkpt lat="42.0775633" lon="13.55296"><ele>745.0</ele><time>2026-05-02T13:31:31.092Z</time></trkpt><trkpt lat="42.0775833" lon="13.5528433"><ele>747.25</ele><time>2026-05-02T13:31:32.092Z</time></trkpt><trkpt lat="42.0775717" lon="13.5527"><ele>749.5</ele><time>2026-05-02T13:31:33.093Z</time></trkpt><trkpt lat="42.07754" lon="13.5525533"><ele>751.75</ele><time>2026-05-02T13:31:34.092Z</time></trkpt><trkpt lat="42.0774967" lon="13.55239"><ele>754.0</ele><time>2026-05-02T13:31:35.093Z</time></trkpt><trkpt lat="42.07745" lon="13.5522183"><ele>752.25</ele><time>2026-05-02T13:31:36.092Z</time></trkpt><trkpt lat="42.0774067" lon="13.55206"><ele>750.5</ele><time>2026-05-02T13:31:37.093Z</time></trkpt><trkpt lat="42.07736" lon="13.5519133"><ele>748.75</ele><time>2026-05-02T13:31:38.093Z</time></trkpt><trkpt lat="42.0773117" lon="13.5517633"><ele>747.0</ele><time>2026-05-02T13:31:39.092Z</time></trkpt><trkpt lat="42.0772467" lon="13.5516167"><ele>747.0</ele><time>2026-05-02T13:31:40.092Z</time></trkpt><trkpt lat="42.0771683" lon="13.5514783"><ele>747.0</ele><time>2026-05-02T13:31:41.093Z</time></trkpt><trkpt lat="42.0770833" lon="13.551345"><ele>747.0</ele><time>2026-05-02T13:31:42.093Z</time></trkpt><trkpt lat="42.0769883" lon="13.5512217"><ele>747.0</ele><time>2026-05-02T13:31:43.093Z</time></trkpt><trkpt lat="42.0768767" lon="13.5511183"><ele>745.8</ele><time>2026-05-02T13:31:44.092Z</time></trkpt><trkpt lat="42.076765" lon="13.5510367"><ele>744.6</ele><time>2026-05-02T13:31:45.092Z</time></trkpt><trkpt lat="42.07667" lon="13.5509567"><ele>743.4</ele><time>2026-05-02T13:31:46.092Z</time></trkpt><trkpt lat="42.076595" lon="13.5508633"><ele>742.1999999999999</ele><time>2026-05-02T13:31:47.093Z</time></trkpt><trkpt lat="42.07656" lon="13.55076"><ele>741.0</ele><time>2026-05-02T13:31:48.093Z</time></trkpt><trkpt lat="42.0765517" lon="13.5506733"><ele>743.3333333333334</ele><time>2026-05-02T13:31:49.093Z</time></trkpt><trkpt lat="42.0766383" lon="13.5506317"><ele>745.6666666666666</ele><time>2026-05-02T13:31:52.093Z</time></trkpt><trkpt lat="42.0767467" lon="13.5506717"><ele>748.0</ele><time>2026-05-02T13:31:54.092Z</time></trkpt><trkpt lat="42.07681" lon="13.5506583"><ele>750.3333333333333</ele><time>2026-05-02T13:31:55.092Z</time></trkpt><trkpt lat="42.07688" lon="13.5506367"><ele>752.6666666666666</ele><time>2026-05-02T13:31:56.093Z</time></trkpt><trkpt lat="42.0769467" lon="13.550605"><ele>755.0</ele><time>2026-05-02T13:31:57.093Z</time></trkpt><trkpt lat="42.0770133" lon="13.5505667"><ele>755.0</ele><time>2026-05-02T13:31:58.093Z</time></trkpt><trkpt lat="42.0770917" lon="13.5505267"><ele>755.0</ele><time>2026-05-02T13:31:59.092Z</time></trkpt><trkpt lat="42.0771917" lon="13.5504933"><ele>755.0</ele><time>2026-05-02T13:32:00.092Z</time></trkpt><trkpt lat="42.0772917" lon="13.5504583"><ele>755.0</ele><time>2026-05-02T13:32:01.092Z</time></trkpt><trkpt lat="42.0773917" lon="13.5504167"><ele>755.0</ele><time>2026-05-02T13:32:02.092Z</time></trkpt><trkpt lat="42.0775067" lon="13.550375"><ele>757.0</ele><time>2026-05-02T13:32:03.092Z</time></trkpt><trkpt lat="42.0776183" lon="13.5503233"><ele>759.0</ele><time>2026-05-02T13:32:04.092Z</time></trkpt><trkpt lat="42.0777367" lon="13.5502667"><ele>761.0</ele><time>2026-05-02T13:32:05.093Z</time></trkpt><trkpt lat="42.07785" lon="13.5502117"><ele>763.0</ele><time>2026-05-02T13:32:06.092Z</time></trkpt><trkpt lat="42.0779733" lon="13.5501633"><ele>763.0</ele><time>2026-05-02T13:32:07.092Z</time></trkpt><trkpt lat="42.0780983" lon="13.5501117"><ele>763.0</ele><time>2026-05-02T13:32:08.092Z</time></trkpt><trkpt lat="42.07822" lon="13.55006"><ele>763.0</ele><time>2026-05-02T13:32:09.093Z</time></trkpt><trkpt lat="42.07834" lon="13.5500133"><ele>763.0</ele><time>2026-05-02T13:32:10.092Z</time></trkpt><trkpt lat="42.07845" lon="13.549955"><ele>765.8</ele><time>2026-05-02T13:32:11.093Z</time></trkpt><trkpt lat="42.07856" lon="13.549915"><ele>768.5999999999999</ele><time>2026-05-02T13:32:12.092Z</time></trkpt><trkpt lat="42.078665" lon="13.5498633"><ele>771.4000000000001</ele><time>2026-05-02T13:32:13.093Z</time></trkpt><trkpt lat="42.07876" lon="13.5498233"><ele>774.2</ele><time>2026-05-02T13:32:14.093Z</time></trkpt><trkpt lat="42.0788633" lon="13.5497933"><ele>777.0</ele><time>2026-05-02T13:32:15.092Z</time></trkpt><trkpt lat="42.0789733" lon="13.5497467"><ele>777.0</ele><time>2026-05-02T13:32:16.092Z</time></trkpt><trkpt lat="42.0790867" lon="13.549705"><ele>777.0</ele><time>2026-05-02T13:32:17.093Z</time></trkpt><trkpt lat="42.0791983" lon="13.549655"><ele>777.0</ele><time>2026-05-02T13:32:18.093Z</time></trkpt><trkpt lat="42.0793167" lon="13.5495933"><ele>777.0</ele><time>2026-05-02T13:32:19.092Z</time></trkpt><trkpt lat="42.0794133" lon="13.54955"><ele>777.6</ele><time>2026-05-02T13:32:20.093Z</time></trkpt><trkpt lat="42.0794817" lon="13.5495217"><ele>778.2</ele><time>2026-05-02T13:32:21.092Z</time></trkpt><trkpt lat="42.0795767" lon="13.5494917"><ele>778.8</ele><time>2026-05-02T13:32:23.092Z</time></trkpt><trkpt lat="42.0796717" lon="13.5494567"><ele>779.4</ele><time>2026-05-02T13:32:25.092Z</time></trkpt><trkpt lat="42.0797767" lon="13.5493817"><ele>780.0</ele><time>2026-05-02T13:32:27.093Z</time></trkpt><trkpt lat="42.0798633" lon="13.5492817"><ele>780.0</ele><time>2026-05-02T13:32:29.092Z</time></trkpt><trkpt lat="42.0799117" lon="13.54922"><ele>780.0</ele><time>2026-05-02T13:32:30.093Z</time></trkpt><trkpt lat="42.0799733" lon="13.5491617"><ele>780.0</ele><time>2026-05-02T13:32:31.093Z</time></trkpt><trkpt lat="42.0800467" lon="13.54908"><ele>780.0</ele><time>2026-05-02T13:32:32.092Z</time></trkpt><trkpt lat="42.0801383" lon="13.548975"><ele>780.0</ele><time>2026-05-02T13:32:33.092Z</time></trkpt><trkpt lat="42.0802383" lon="13.5488733"><ele>779.75</ele><time>2026-05-02T13:32:34.093Z</time></trkpt><trkpt lat="42.0803467" lon="13.5487583"><ele>779.5</ele><time>2026-05-02T13:32:35.093Z</time></trkpt><trkpt lat="42.0804633" lon="13.548645"><ele>779.25</ele><time>2026-05-02T13:32:36.093Z</time></trkpt><trkpt lat="42.080575" lon="13.5485317"><ele>779.0</ele><time>2026-05-02T13:32:37.093Z</time></trkpt><trkpt lat="42.08068" lon="13.5484083"><ele>780.5</ele><time>2026-05-02T13:32:38.093Z</time></trkpt><trkpt lat="42.0807833" lon="13.5483017"><ele>782.0</ele><time>2026-05-02T13:32:39.092Z</time></trkpt><trkpt lat="42.0808783" lon="13.5482067"><ele>783.5</ele><time>2026-05-02T13:32:40.092Z</time></trkpt><trkpt lat="42.080965" lon="13.5481017"><ele>785.0</ele><time>2026-05-02T13:32:41.092Z</time></trkpt><trkpt lat="42.0810533" lon="13.5480133"><ele>785.0</ele><time>2026-05-02T13:32:42.093Z</time></trkpt><trkpt lat="42.081135" lon="13.5479017"><ele>785.0</ele><time>2026-05-02T13:32:43.093Z</time></trkpt><trkpt lat="42.0812317" lon="13.5478033"><ele>785.0</ele><time>2026-05-02T13:32:44.093Z</time></trkpt><trkpt lat="42.0813317" lon="13.5476983"><ele>785.0</ele><time>2026-05-02T13:32:45.093Z</time></trkpt><trkpt lat="42.0814367" lon="13.5476033"><ele>782.0</ele><time>2026-05-02T13:32:46.093Z</time></trkpt><trkpt lat="42.0815367" lon="13.5475233"><ele>779.0</ele><time>2026-05-02T13:32:47.092Z</time></trkpt><trkpt lat="42.0816367" lon="13.54745"><ele>776.0</ele><time>2026-05-02T13:32:48.092Z</time></trkpt><trkpt lat="42.0817517" lon="13.5473933"><ele>773.0</ele><time>2026-05-02T13:32:49.092Z</time></trkpt><trkpt lat="42.081855" lon="13.5473317"><ele>773.0</ele><time>2026-05-02T13:32:50.092Z</time></trkpt><trkpt lat="42.0819533" lon="13.54728"><ele>773.0</ele><time>2026-05-02T13:32:51.092Z</time></trkpt><trkpt lat="42.082045" lon="13.5472267"><ele>773.0</ele><time>2026-05-02T13:32:52.092Z</time></trkpt><trkpt lat="42.0821217" lon="13.5471733"><ele>773.0</ele><time>2026-05-02T13:32:53.092Z</time></trkpt><trkpt lat="42.08219" lon="13.5470983"><ele>773.0</ele><time>2026-05-02T13:32:54.092Z</time></trkpt><trkpt lat="42.08225" lon="13.54701"><ele>773.5999999999999</ele><time>2026-05-02T13:32:55.093Z</time></trkpt><trkpt lat="42.0823033" lon="13.5469067"><ele>774.1999999999999</ele><time>2026-05-02T13:32:56.093Z</time></trkpt><trkpt lat="42.0823633" lon="13.5467767"><ele>774.8</ele><time>2026-05-02T13:32:57.092Z</time></trkpt><trkpt lat="42.0824083" lon="13.5466417"><ele>775.4</ele><time>2026-05-02T13:32:58.093Z</time></trkpt><trkpt lat="42.0824517" lon="13.546505"><ele>776.0</ele><time>2026-05-02T13:32:59.092Z</time></trkpt><trkpt lat="42.08249" lon="13.5463683"><ele>776.0</ele><time>2026-05-02T13:33:00.092Z</time></trkpt><trkpt lat="42.0825183" lon="13.54622"><ele>776.0</ele><time>2026-05-02T13:33:01.092Z</time></trkpt><trkpt lat="42.0825317" lon="13.546075"><ele>776.0</ele><time>2026-05-02T13:33:02.093Z</time></trkpt><trkpt lat="42.0825433" lon="13.5459233"><ele>776.0</ele><time>2026-05-02T13:33:03.092Z</time></trkpt><trkpt lat="42.0825583" lon="13.5457633"><ele>774.5</ele><time>2026-05-02T13:33:04.092Z</time></trkpt><trkpt lat="42.0825617" lon="13.5455933"><ele>773.0</ele><time>2026-05-02T13:33:05.092Z</time></trkpt><trkpt lat="42.0825467" lon="13.5454083"><ele>771.5</ele><time>2026-05-02T13:33:06.093Z</time></trkpt><trkpt lat="42.08252" lon="13.54521"><ele>770.0</ele><time>2026-05-02T13:33:07.092Z</time></trkpt><trkpt lat="42.082485" lon="13.54501"><ele>769.3333333333334</ele><time>2026-05-02T13:33:08.092Z</time></trkpt><trkpt lat="42.0824417" lon="13.5447867"><ele>768.6666666666667</ele><time>2026-05-02T13:33:09.093Z</time></trkpt><trkpt lat="42.082405" lon="13.5445733"><ele>768.0</ele><time>2026-05-02T13:33:10.092Z</time></trkpt><trkpt lat="42.0823733" lon="13.5443667"><ele>765.2</ele><time>2026-05-02T13:33:11.093Z</time></trkpt><trkpt lat="42.0823633" lon="13.544185"><ele>762.4</ele><time>2026-05-02T13:33:12.093Z</time></trkpt><trkpt lat="42.082365" lon="13.544025"><ele>759.6</ele><time>2026-05-02T13:33:13.092Z</time></trkpt><trkpt lat="42.0823783" lon="13.5438917"><ele>756.8000000000001</ele><time>2026-05-02T13:33:14.093Z</time></trkpt><trkpt lat="42.0823883" lon="13.5437933"><ele>754.0</ele><time>2026-05-02T13:33:15.092Z</time></trkpt><trkpt lat="42.0823783" lon="13.5437067"><ele>753.4000000000001</ele><time>2026-05-02T13:33:16.093Z</time></trkpt><trkpt lat="42.082345" lon="13.54359"><ele>752.8</ele><time>2026-05-02T13:33:18.092Z</time></trkpt><trkpt lat="42.0822567" lon="13.543535"><ele>752.2</ele><time>2026-05-02T13:33:20.093Z</time></trkpt><trkpt lat="42.0821767" lon="13.54352"><ele>751.5999999999999</ele><time>2026-05-02T13:33:21.092Z</time></trkpt><trkpt lat="42.082065" lon="13.5435133"><ele>751.0</ele><time>2026-05-02T13:33:22.092Z</time></trkpt><trkpt lat="42.0819267" lon="13.54351"><ele>751.0</ele><time>2026-05-02T13:33:23.092Z</time></trkpt><trkpt lat="42.0817717" lon="13.54352"><ele>751.0</ele><time>2026-05-02T13:33:24.092Z</time></trkpt><trkpt lat="42.08162" lon="13.5435183"><ele>751.0</ele><time>2026-05-02T13:33:25.092Z</time></trkpt><trkpt lat="42.0814783" lon="13.5435083"><ele>751.0</ele><time>2026-05-02T13:33:26.093Z</time></trkpt><trkpt lat="42.081355" lon="13.5435033"><ele>750.0</ele><time>2026-05-02T13:33:27.092Z</time></trkpt><trkpt lat="42.0812417" lon="13.5434933"><ele>749.0</ele><time>2026-05-02T13:33:28.093Z</time></trkpt><trkpt lat="42.0811317" lon="13.5434883"><ele>748.0</ele><time>2026-05-02T13:33:29.092Z</time></trkpt><trkpt lat="42.081015" lon="13.543495"><ele>747.0</ele><time>2026-05-02T13:33:30.092Z</time></trkpt><trkpt lat="42.0808867" lon="13.543495"><ele>746.25</ele><time>2026-05-02T13:33:31.092Z</time></trkpt><trkpt lat="42.0807383" lon="13.5435033"><ele>745.5</ele><time>2026-05-02T13:33:32.092Z</time></trkpt><trkpt lat="42.0805817" lon="13.5434983"><ele>744.75</ele><time>2026-05-02T13:33:33.093Z</time></trkpt><trkpt lat="42.0804383" lon="13.543495"><ele>744.0</ele><time>2026-05-02T13:33:34.092Z</time></trkpt><trkpt lat="42.0803017" lon="13.5435017"><ele>744.0</ele><time>2026-05-02T13:33:35.093Z</time></trkpt><trkpt lat="42.0801683" lon="13.5435017"><ele>744.0</ele><time>2026-05-02T13:33:36.093Z</time></trkpt><trkpt lat="42.0800367" lon="13.5435017"><ele>744.0</ele><time>2026-05-02T13:33:37.092Z</time></trkpt><trkpt lat="42.0799283" lon="13.5434967"><ele>744.0</ele><time>2026-05-02T13:33:38.092Z</time></trkpt><trkpt lat="42.0798467" lon="13.5434867"><ele>743.3333333333334</ele><time>2026-05-02T13:33:39.092Z</time></trkpt><trkpt lat="42.0797483" lon="13.543435"><ele>742.6666666666666</ele><time>2026-05-02T13:33:41.092Z</time></trkpt><trkpt lat="42.07972" lon="13.5433567"><ele>742.0</ele><time>2026-05-02T13:33:42.092Z</time></trkpt><trkpt lat="42.0796833" lon="13.5432467"><ele>741.3333333333333</ele><time>2026-05-02T13:33:43.092Z</time></trkpt><trkpt lat="42.079645" lon="13.5431183"><ele>740.6666666666666</ele><time>2026-05-02T13:33:44.092Z</time></trkpt><trkpt lat="42.079615" lon="13.54301"><ele>740.0</ele><time>2026-05-02T13:33:45.093Z</time></trkpt><trkpt lat="42.079565" lon="13.5428867"><ele>740.25</ele><time>2026-05-02T13:33:47.092Z</time></trkpt><trkpt lat="42.0794517" lon="13.5428483"><ele>740.5</ele><time>2026-05-02T13:33:49.092Z</time></trkpt><trkpt lat="42.0793517" lon="13.5428333"><ele>740.75</ele><time>2026-05-02T13:33:50.092Z</time></trkpt><trkpt lat="42.079235" lon="13.5428067"><ele>741.0</ele><time>2026-05-02T13:33:51.093Z</time></trkpt><trkpt lat="42.07912" lon="13.54277"><ele>740.4</ele><time>2026-05-02T13:33:52.092Z</time></trkpt><trkpt lat="42.079025" lon="13.5427217"><ele>739.8</ele><time>2026-05-02T13:33:53.093Z</time></trkpt><trkpt lat="42.0789517" lon="13.5426567"><ele>739.1999999999999</ele><time>2026-05-02T13:33:54.093Z</time></trkpt><trkpt lat="42.078885" lon="13.5425867"><ele>738.5999999999999</ele><time>2026-05-02T13:33:55.092Z</time></trkpt><trkpt lat="42.0788133" lon="13.54251"><ele>738.0</ele><time>2026-05-02T13:33:56.093Z</time></trkpt><trkpt lat="42.078745" lon="13.5424183"><ele>738.0</ele><time>2026-05-02T13:33:57.093Z</time></trkpt><trkpt lat="42.0786783" lon="13.5423133"><ele>738.0</ele><time>2026-05-02T13:33:58.092Z</time></trkpt><trkpt lat="42.0786133" lon="13.5422233"><ele>738.0</ele><time>2026-05-02T13:33:59.093Z</time></trkpt><trkpt lat="42.0785433" lon="13.5421517"><ele>738.0</ele><time>2026-05-02T13:34:00.093Z</time></trkpt><trkpt lat="42.0784883" lon="13.54208"><ele>738.0</ele><time>2026-05-02T13:34:01.092Z</time></trkpt><trkpt lat="42.078435" lon="13.5420217"><ele>738.0</ele><time>2026-05-02T13:34:02.092Z</time></trkpt><trkpt lat="42.0783933" lon="13.5419467"><ele>738.4</ele><time>2026-05-02T13:34:03.092Z</time></trkpt><trkpt lat="42.0783483" lon="13.5418633"><ele>738.8</ele><time>2026-05-02T13:34:04.092Z</time></trkpt><trkpt lat="42.0783333" lon="13.5417383"><ele>739.2</ele><time>2026-05-02T13:34:06.092Z</time></trkpt><trkpt lat="42.0783917" lon="13.5416317"><ele>739.6</ele><time>2026-05-02T13:34:08.092Z</time></trkpt><trkpt lat="42.078425" lon="13.5415"><ele>740.0</ele><time>2026-05-02T13:34:10.093Z</time></trkpt><trkpt lat="42.0783733" lon="13.541345"><ele>740.0</ele><time>2026-05-02T13:34:12.093Z</time></trkpt><trkpt lat="42.0783117" lon="13.5412583"><ele>740.0</ele><time>2026-05-02T13:34:14.092Z</time></trkpt><trkpt lat="42.07837" lon="13.5411667"><ele>740.0</ele><time>2026-05-02T13:34:17.093Z</time></trkpt><trkpt lat="42.0783983" lon="13.54109"><ele>740.0</ele><time>2026-05-02T13:34:19.092Z</time></trkpt><trkpt lat="42.0783667" lon="13.540975"><ele>740.0</ele><time>2026-05-02T13:34:21.093Z</time></trkpt><trkpt lat="42.078325" lon="13.540895"><ele>740.0</ele><time>2026-05-02T13:34:22.092Z</time></trkpt><trkpt lat="42.0782733" lon="13.5408"><ele>738.6</ele><time>2026-05-02T13:34:23.092Z</time></trkpt><trkpt lat="42.0782317" lon="13.540705"><ele>737.2</ele><time>2026-05-02T13:34:24.092Z</time></trkpt><trkpt lat="42.07817" lon="13.5406067"><ele>735.8</ele><time>2026-05-02T13:34:25.093Z</time></trkpt><trkpt lat="42.078105" lon="13.5405033"><ele>734.4</ele><time>2026-05-02T13:34:26.093Z</time></trkpt><trkpt lat="42.0780467" lon="13.5403967"><ele>733.0</ele><time>2026-05-02T13:34:27.092Z</time></trkpt><trkpt lat="42.0780017" lon="13.5403083"><ele>733.0</ele><time>2026-05-02T13:34:28.092Z</time></trkpt><trkpt lat="42.0779883" lon="13.5401733"><ele>733.0</ele><time>2026-05-02T13:34:30.093Z</time></trkpt><trkpt lat="42.0780583" lon="13.5400767"><ele>733.0</ele><time>2026-05-02T13:34:32.093Z</time></trkpt><trkpt lat="42.0781183" lon="13.54001"><ele>733.0</ele><time>2026-05-02T13:34:33.092Z</time></trkpt><trkpt lat="42.078185" lon="13.5399567"><ele>733.0</ele><time>2026-05-02T13:34:34.092Z</time></trkpt><trkpt lat="42.0782483" lon="13.5399133"><ele>733.0</ele><time>2026-05-02T13:34:35.092Z</time></trkpt><trkpt lat="42.0783317" lon="13.539935"><ele>735.0</ele><time>2026-05-02T13:34:40.093Z</time></trkpt><trkpt lat="42.0784117" lon="13.5400117"><ele>737.0</ele><time>2026-05-02T13:34:43.093Z</time></trkpt><trkpt lat="42.0785433" lon="13.5400283"><ele>739.0</ele><time>2026-05-02T13:34:45.093Z</time></trkpt><trkpt lat="42.0786333" lon="13.54003"><ele>741.0</ele><time>2026-05-02T13:34:46.092Z</time></trkpt><trkpt lat="42.07873" lon="13.5400217"><ele>743.0</ele><time>2026-05-02T13:34:47.093Z</time></trkpt><trkpt lat="42.0788183" lon="13.5400133"><ele>743.0</ele><time>2026-05-02T13:34:48.093Z</time></trkpt><trkpt lat="42.0788883" lon="13.5400117"><ele>743.0</ele><time>2026-05-02T13:34:49.092Z</time></trkpt><trkpt lat="42.0789783" lon="13.540015"><ele>743.0</ele><time>2026-05-02T13:34:51.092Z</time></trkpt><trkpt lat="42.0790533" lon="13.5400217"><ele>743.0</ele><time>2026-05-02T13:34:54.093Z</time></trkpt><trkpt lat="42.079105" lon="13.5400833"><ele>743.0</ele><time>2026-05-02T13:34:56.092Z</time></trkpt><trkpt lat="42.0791483" lon="13.5402217"><ele>743.0</ele><time>2026-05-02T13:34:58.092Z</time></trkpt><trkpt lat="42.0792067" lon="13.5403517"><ele>743.0</ele><time>2026-05-02T13:35:00.093Z</time></trkpt><trkpt lat="42.0792867" lon="13.540365"><ele>743.0</ele><time>2026-05-02T13:35:02.093Z</time></trkpt><trkpt lat="42.0793533" lon="13.5403533"><ele>743.0</ele><time>2026-05-02T13:35:03.092Z</time></trkpt><trkpt lat="42.0794233" lon="13.54034"><ele>743.0</ele><time>2026-05-02T13:35:04.092Z</time></trkpt><trkpt lat="42.0794917" lon="13.5403183"><ele>743.0</ele><time>2026-05-02T13:35:05.092Z</time></trkpt><trkpt lat="42.0795633" lon="13.54033"><ele>743.0</ele><time>2026-05-02T13:35:07.092Z</time></trkpt><trkpt lat="42.079605" lon="13.5404517"><ele>743.0</ele><time>2026-05-02T13:35:09.092Z</time></trkpt><trkpt lat="42.0796333" lon="13.540565"><ele>743.0</ele><time>2026-05-02T13:35:10.092Z</time></trkpt><trkpt lat="42.079675" lon="13.5406833"><ele>743.0</ele><time>2026-05-02T13:35:11.093Z</time></trkpt><trkpt lat="42.0797367" lon="13.5407967"><ele>743.0</ele><time>2026-05-02T13:35:12.092Z</time></trkpt><trkpt lat="42.0798167" lon="13.5409"><ele>743.0</ele><time>2026-05-02T13:35:13.093Z</time></trkpt><trkpt lat="42.079915" lon="13.5409733"><ele>743.25</ele><time>2026-05-02T13:35:14.092Z</time></trkpt><trkpt lat="42.0800283" lon="13.5410233"><ele>743.5</ele><time>2026-05-02T13:35:15.093Z</time></trkpt><trkpt lat="42.0801567" lon="13.5410533"><ele>743.75</ele><time>2026-05-02T13:35:16.092Z</time></trkpt><trkpt lat="42.080295" lon="13.5410633"><ele>744.0</ele><time>2026-05-02T13:35:17.092Z</time></trkpt><trkpt lat="42.08044" lon="13.54105"><ele>744.0</ele><time>2026-05-02T13:35:18.093Z</time></trkpt><trkpt lat="42.080585" lon="13.5410367"><ele>744.0</ele><time>2026-05-02T13:35:19.092Z</time></trkpt><trkpt lat="42.0807383" lon="13.5410283"><ele>744.0</ele><time>2026-05-02T13:35:20.091Z</time></trkpt><trkpt lat="42.0808917" lon="13.541025"><ele>744.25</ele><time>2026-05-02T13:35:21.091Z</time></trkpt><trkpt lat="42.081045" lon="13.5410233"><ele>744.5</ele><time>2026-05-02T13:35:22.092Z</time></trkpt><trkpt lat="42.0811867" lon="13.5410333"><ele>744.75</ele><time>2026-05-02T13:35:23.092Z</time></trkpt><trkpt lat="42.0813367" lon="13.5410517"><ele>745.0</ele><time>2026-05-02T13:35:24.092Z</time></trkpt><trkpt lat="42.0814767" lon="13.5410883"><ele>745.25</ele><time>2026-05-02T13:35:25.092Z</time></trkpt><trkpt lat="42.08161" lon="13.5411283"><ele>745.5</ele><time>2026-05-02T13:35:26.092Z</time></trkpt><trkpt lat="42.0817267" lon="13.5411767"><ele>745.75</ele><time>2026-05-02T13:35:27.092Z</time></trkpt><trkpt lat="42.0818183" lon="13.5412383"><ele>746.0</ele><time>2026-05-02T13:35:28.092Z</time></trkpt><trkpt lat="42.0818933" lon="13.5413133"><ele>746.0</ele><time>2026-05-02T13:35:29.091Z</time></trkpt><trkpt lat="42.0819467" lon="13.5413933"><ele>746.0</ele><time>2026-05-02T13:35:30.092Z</time></trkpt><trkpt lat="42.0819967" lon="13.54148"><ele>746.0</ele><time>2026-05-02T13:35:31.091Z</time></trkpt><trkpt lat="42.0820517" lon="13.541565"><ele>746.0</ele><time>2026-05-02T13:35:32.092Z</time></trkpt><trkpt lat="42.0821117" lon="13.5416533"><ele>746.0</ele><time>2026-05-02T13:35:33.091Z</time></trkpt><trkpt lat="42.08216" lon="13.54176"><ele>746.0</ele><time>2026-05-02T13:35:34.091Z</time></trkpt><trkpt lat="42.0822167" lon="13.54188"><ele>746.0</ele><time>2026-05-02T13:35:35.091Z</time></trkpt><trkpt lat="42.082275" lon="13.542005"><ele>746.0</ele><time>2026-05-02T13:35:36.092Z</time></trkpt><trkpt lat="42.0823267" lon="13.54214"><ele>746.0</ele><time>2026-05-02T13:35:37.092Z</time></trkpt><trkpt lat="42.08238" lon="13.5422583"><ele>746.0</ele><time>2026-05-02T13:35:38.091Z</time></trkpt><trkpt lat="42.0824233" lon="13.5423583"><ele>746.0</ele><time>2026-05-02T13:35:39.092Z</time></trkpt><trkpt lat="42.08246" lon="13.5424367"><ele>747.1666666666666</ele><time>2026-05-02T13:35:40.091Z</time></trkpt><trkpt lat="42.0825117" lon="13.5425633"><ele>748.3333333333333</ele><time>2026-05-02T13:35:42.092Z</time></trkpt><trkpt lat="42.082495" lon="13.54265"><ele>749.5</ele><time>2026-05-02T13:35:51.092Z</time></trkpt><trkpt lat="42.0826" lon="13.542625"><ele>750.6666666666666</ele><time>2026-05-02T13:35:53.091Z</time></trkpt><trkpt lat="42.0826633" lon="13.54259"><ele>751.8333333333334</ele><time>2026-05-02T13:35:54.091Z</time></trkpt><trkpt lat="42.0827267" lon="13.5425317"><ele>753.0</ele><time>2026-05-02T13:35:55.092Z</time></trkpt><trkpt lat="42.0827767" lon="13.5424433"><ele>753.0</ele><time>2026-05-02T13:35:56.091Z</time></trkpt><trkpt lat="42.082825" lon="13.5423417"><ele>753.0</ele><time>2026-05-02T13:35:57.091Z</time></trkpt><trkpt lat="42.0828683" lon="13.542245"><ele>753.0</ele><time>2026-05-02T13:35:58.091Z</time></trkpt><trkpt lat="42.0829" lon="13.542165"><ele>753.0</ele><time>2026-05-02T13:35:59.091Z</time></trkpt><trkpt lat="42.0829317" lon="13.54209"><ele>753.0</ele><time>2026-05-02T13:36:01.092Z</time></trkpt><trkpt lat="42.0828683" lon="13.542185"><ele>753.0</ele><time>2026-05-02T13:36:15.092Z</time></trkpt><trkpt lat="42.0828333" lon="13.5422683"><ele>753.0</ele><time>2026-05-02T13:36:16.092Z</time></trkpt><trkpt lat="42.0828017" lon="13.5423567"><ele>753.0</ele><time>2026-05-02T13:36:17.091Z</time></trkpt><trkpt lat="42.0827733" lon="13.5424417"><ele>753.0</ele><time>2026-05-02T13:36:18.092Z</time></trkpt><trkpt lat="42.08273" lon="13.54253"><ele>753.0</ele><time>2026-05-02T13:36:20.091Z</time></trkpt><trkpt lat="42.0826783" lon="13.5426"><ele>753.0</ele><time>2026-05-02T13:36:23.092Z</time></trkpt><trkpt lat="42.0825867" lon="13.5426283"><ele>753.0</ele><time>2026-05-02T13:36:26.092Z</time></trkpt><trkpt lat="42.0824867" lon="13.5426633"><ele>752.6666666666666</ele><time>2026-05-02T13:36:28.092Z</time></trkpt><trkpt lat="42.082385" lon="13.5427683"><ele>752.3333333333334</ele><time>2026-05-02T13:36:30.092Z</time></trkpt><trkpt lat="42.0823483" lon="13.5428383"><ele>752.0</ele><time>2026-05-02T13:36:31.092Z</time></trkpt><trkpt lat="42.0823283" lon="13.5429383"><ele>751.6666666666667</ele><time>2026-05-02T13:36:32.091Z</time></trkpt><trkpt lat="42.0823183" lon="13.5430467"><ele>751.3333333333334</ele><time>2026-05-02T13:36:33.092Z</time></trkpt><trkpt lat="42.0823067" lon="13.5431433"><ele>751.0</ele><time>2026-05-02T13:36:34.092Z</time></trkpt><trkpt lat="42.0823183" lon="13.5432733"><ele>751.0</ele><time>2026-05-02T13:36:36.092Z</time></trkpt><trkpt lat="42.0823617" lon="13.543335"><ele>751.0</ele><time>2026-05-02T13:36:38.091Z</time></trkpt><trkpt lat="42.0824483" lon="13.5432317"><ele>751.0</ele><time>2026-05-02T13:36:41.092Z</time></trkpt><trkpt lat="42.0825033" lon="13.543125"><ele>751.0</ele><time>2026-05-02T13:36:42.091Z</time></trkpt><trkpt lat="42.0825767" lon="13.5430433"><ele>751.0</ele><time>2026-05-02T13:36:43.092Z</time></trkpt><trkpt lat="42.0826467" lon="13.5429933"><ele>753.0</ele><time>2026-05-02T13:36:44.092Z</time></trkpt><trkpt lat="42.082715" lon="13.5429683"><ele>755.0</ele><time>2026-05-02T13:36:45.092Z</time></trkpt><trkpt lat="42.08279" lon="13.5429667"><ele>757.0</ele><time>2026-05-02T13:36:46.092Z</time></trkpt><trkpt lat="42.0828917" lon="13.542985"><ele>759.0</ele><time>2026-05-02T13:36:47.091Z</time></trkpt><trkpt lat="42.083" lon="13.5430117"><ele>761.0</ele><time>2026-05-02T13:36:48.092Z</time></trkpt><trkpt lat="42.0831233" lon="13.5430267"><ele>761.0</ele><time>2026-05-02T13:36:49.091Z</time></trkpt><trkpt lat="42.0832617" lon="13.5430467"><ele>761.0</ele><time>2026-05-02T13:36:50.091Z</time></trkpt><trkpt lat="42.08341" lon="13.543065"><ele>761.0</ele><time>2026-05-02T13:36:51.091Z</time></trkpt><trkpt lat="42.0835567" lon="13.543075"><ele>761.0</ele><time>2026-05-02T13:36:52.091Z</time></trkpt><trkpt lat="42.0836917" lon="13.54307"><ele>765.0</ele><time>2026-05-02T13:36:53.092Z</time></trkpt><trkpt lat="42.083835" lon="13.5430417"><ele>769.0</ele><time>2026-05-02T13:36:54.091Z</time></trkpt><trkpt lat="42.0839733" lon="13.5430017"><ele>773.0</ele><time>2026-05-02T13:36:55.092Z</time></trkpt><trkpt lat="42.084095" lon="13.5429617"><ele>777.0</ele><time>2026-05-02T13:36:56.092Z</time></trkpt><trkpt lat="42.0842183" lon="13.5429333"><ele>779.25</ele><time>2026-05-02T13:36:57.091Z</time></trkpt><trkpt lat="42.084345" lon="13.5429283"><ele>781.5</ele><time>2026-05-02T13:36:58.092Z</time></trkpt><trkpt lat="42.0844817" lon="13.5429317"><ele>783.75</ele><time>2026-05-02T13:36:59.091Z</time></trkpt><trkpt lat="42.08463" lon="13.5429533"><ele>786.0</ele><time>2026-05-02T13:37:00.092Z</time></trkpt><trkpt lat="42.084765" lon="13.54296"><ele>786.0</ele><time>2026-05-02T13:37:01.091Z</time></trkpt><trkpt lat="42.0848933" lon="13.5430067"><ele>786.0</ele><time>2026-05-02T13:37:02.092Z</time></trkpt><trkpt lat="42.0850283" lon="13.5430267"><ele>786.0</ele><time>2026-05-02T13:37:03.091Z</time></trkpt><trkpt lat="42.08516" lon="13.5430417"><ele>786.0</ele><time>2026-05-02T13:37:04.092Z</time></trkpt><trkpt lat="42.0852933" lon="13.5430867"><ele>788.25</ele><time>2026-05-02T13:37:05.091Z</time></trkpt><trkpt lat="42.0854417" lon="13.5432017"><ele>790.5</ele><time>2026-05-02T13:37:06.091Z</time></trkpt><trkpt lat="42.0855317" lon="13.5432267"><ele>792.75</ele><time>2026-05-02T13:37:07.091Z</time></trkpt><trkpt lat="42.0856383" lon="13.5432683"><ele>795.0</ele><time>2026-05-02T13:37:08.091Z</time></trkpt><trkpt lat="42.0857517" lon="13.5433183"><ele>794.75</ele><time>2026-05-02T13:37:09.091Z</time></trkpt><trkpt lat="42.085865" lon="13.543375"><ele>794.5</ele><time>2026-05-02T13:37:10.091Z</time></trkpt><trkpt lat="42.0859783" lon="13.5434367"><ele>794.25</ele><time>2026-05-02T13:37:11.092Z</time></trkpt><trkpt lat="42.086095" lon="13.5434767"><ele>794.0</ele><time>2026-05-02T13:37:12.091Z</time></trkpt><trkpt lat="42.08623" lon="13.5435067"><ele>794.0</ele><time>2026-05-02T13:37:13.092Z</time></trkpt><trkpt lat="42.0863667" lon="13.5435267"><ele>794.0</ele><time>2026-05-02T13:37:14.092Z</time></trkpt><trkpt lat="42.0865183" lon="13.5435533"><ele>794.0</ele><time>2026-05-02T13:37:15.092Z</time></trkpt><trkpt lat="42.08666" lon="13.543575"><ele>794.0</ele><time>2026-05-02T13:37:16.091Z</time></trkpt><trkpt lat="42.0867867" lon="13.5435817"><ele>793.6</ele><time>2026-05-02T13:37:17.092Z</time></trkpt><trkpt lat="42.0869" lon="13.543555"><ele>793.2</ele><time>2026-05-02T13:37:18.092Z</time></trkpt><trkpt lat="42.0869983" lon="13.5434933"><ele>792.8000000000001</ele><time>2026-05-02T13:37:19.092Z</time></trkpt><trkpt lat="42.0870967" lon="13.5434283"><ele>792.4000000000001</ele><time>2026-05-02T13:37:20.092Z</time></trkpt><trkpt lat="42.08718" lon="13.5433217"><ele>792.0</ele><time>2026-05-02T13:37:21.092Z</time></trkpt><trkpt lat="42.087255" lon="13.5432233"><ele>792.0</ele><time>2026-05-02T13:37:22.091Z</time></trkpt><trkpt lat="42.0873117" lon="13.5431333"><ele>792.0</ele><time>2026-05-02T13:37:23.091Z</time></trkpt><trkpt lat="42.0873567" lon="13.5430683"><ele>792.0</ele><time>2026-05-02T13:37:24.091Z</time></trkpt><trkpt lat="42.0874333" lon="13.5429583"><ele>792.0</ele><time>2026-05-02T13:37:26.091Z</time></trkpt><trkpt lat="42.0874717" lon="13.54288"><ele>792.0</ele><time>2026-05-02T13:37:27.092Z</time></trkpt><trkpt lat="42.0875183" lon="13.54279"><ele>792.0</ele><time>2026-05-02T13:37:28.092Z</time></trkpt><trkpt lat="42.0875667" lon="13.5427033"><ele>792.0</ele><time>2026-05-02T13:37:29.092Z</time></trkpt><trkpt lat="42.087635" lon="13.5425983"><ele>792.0</ele><time>2026-05-02T13:37:31.091Z</time></trkpt><trkpt lat="42.0876933" lon="13.5425433"><ele>792.0</ele><time>2026-05-02T13:37:34.091Z</time></trkpt><trkpt lat="42.087785" lon="13.54241"><ele>792.0</ele><time>2026-05-02T13:37:36.092Z</time></trkpt><trkpt lat="42.0878633" lon="13.5423117"><ele>792.0</ele><time>2026-05-02T13:37:37.092Z</time></trkpt><trkpt lat="42.0879533" lon="13.5422183"><ele>792.0</ele><time>2026-05-02T13:37:38.092Z</time></trkpt><trkpt lat="42.08806" lon="13.5421317"><ele>792.0</ele><time>2026-05-02T13:37:39.091Z</time></trkpt><trkpt lat="42.088175" lon="13.542055"><ele>792.0</ele><time>2026-05-02T13:37:40.091Z</time></trkpt><trkpt lat="42.088295" lon="13.54198"><ele>792.0</ele><time>2026-05-02T13:37:41.091Z</time></trkpt><trkpt lat="42.0884083" lon="13.5419233"><ele>792.8</ele><time>2026-05-02T13:37:42.092Z</time></trkpt><trkpt lat="42.0885117" lon="13.5418783"><ele>793.6</ele><time>2026-05-02T13:37:43.092Z</time></trkpt><trkpt lat="42.0885883" lon="13.54179"><ele>794.4</ele><time>2026-05-02T13:37:44.091Z</time></trkpt><trkpt lat="42.088645" lon="13.5416967"><ele>795.1999999999999</ele><time>2026-05-02T13:37:45.092Z</time></trkpt><trkpt lat="42.088675" lon="13.541585"><ele>796.0</ele><time>2026-05-02T13:37:46.091Z</time></trkpt><trkpt lat="42.0886883" lon="13.541475"><ele>796.0</ele><time>2026-05-02T13:37:47.091Z</time></trkpt><trkpt lat="42.0886733" lon="13.5413467"><ele>796.0</ele><time>2026-05-02T13:37:48.091Z</time></trkpt><trkpt lat="42.0886317" lon="13.541195"><ele>796.0</ele><time>2026-05-02T13:37:49.091Z</time></trkpt><trkpt lat="42.0885717" lon="13.5410433"><ele>796.0</ele><time>2026-05-02T13:37:50.091Z</time></trkpt><trkpt lat="42.0884867" lon="13.5408983"><ele>795.75</ele><time>2026-05-02T13:37:51.091Z</time></trkpt><trkpt lat="42.0884117" lon="13.540755"><ele>795.5</ele><time>2026-05-02T13:37:52.092Z</time></trkpt><trkpt lat="42.0883567" lon="13.5406367"><ele>795.25</ele><time>2026-05-02T13:37:53.091Z</time></trkpt><trkpt lat="42.0883183" lon="13.5404933"><ele>795.0</ele><time>2026-05-02T13:37:54.091Z</time></trkpt><trkpt lat="42.088295" lon="13.5403333"><ele>794.75</ele><time>2026-05-02T13:37:55.092Z</time></trkpt><trkpt lat="42.08829" lon="13.5401517"><ele>794.5</ele><time>2026-05-02T13:37:56.092Z</time></trkpt><trkpt lat="42.0882917" lon="13.5399467"><ele>794.25</ele><time>2026-05-02T13:37:57.092Z</time></trkpt><trkpt lat="42.088305" lon="13.5397317"><ele>794.0</ele><time>2026-05-02T13:37:58.091Z</time></trkpt><trkpt lat="42.088325" lon="13.5395167"><ele>794.0</ele><time>2026-05-02T13:37:59.092Z</time></trkpt><trkpt lat="42.088355" lon="13.5393283"><ele>794.0</ele><time>2026-05-02T13:38:00.092Z</time></trkpt><trkpt lat="42.0883733" lon="13.539155"><ele>794.0</ele><time>2026-05-02T13:38:01.092Z</time></trkpt><trkpt lat="42.088385" lon="13.539"><ele>794.0</ele><time>2026-05-02T13:38:02.091Z</time></trkpt><trkpt lat="42.08838" lon="13.5388717"><ele>794.0000000000001</ele><time>2026-05-02T13:38:03.092Z</time></trkpt><trkpt lat="42.0883683" lon="13.5387683"><ele>794.0</ele><time>2026-05-02T13:38:04.091Z</time></trkpt><trkpt lat="42.0883617" lon="13.5386333"><ele>794.0</ele><time>2026-05-02T13:38:06.091Z</time></trkpt><trkpt lat="42.0884183" lon="13.5385717"><ele>794.0</ele><time>2026-05-02T13:38:09.092Z</time></trkpt><trkpt lat="42.0885217" lon="13.5385367"><ele>794.0000000000001</ele><time>2026-05-02T13:38:11.092Z</time></trkpt><trkpt lat="42.08859" lon="13.53851"><ele>794.0</ele><time>2026-05-02T13:38:12.091Z</time></trkpt><trkpt lat="42.088655" lon="13.5384717"><ele>794.0000000000001</ele><time>2026-05-02T13:38:13.092Z</time></trkpt><trkpt lat="42.0887267" lon="13.5384383"><ele>794.0</ele><time>2026-05-02T13:38:14.091Z</time></trkpt><trkpt lat="42.0887983" lon="13.5383967"><ele>794.0</ele><time>2026-05-02T13:38:15.091Z</time></trkpt><trkpt lat="42.0888683" lon="13.53836"><ele>794.0</ele><time>2026-05-02T13:38:16.091Z</time></trkpt><trkpt lat="42.088925" lon="13.5382917"><ele>794.0000000000001</ele><time>2026-05-02T13:38:17.092Z</time></trkpt><trkpt lat="42.0889767" lon="13.5381917"><ele>794.0</ele><time>2026-05-02T13:38:18.092Z</time></trkpt><trkpt lat="42.0890283" lon="13.538075"><ele>794.0</ele><time>2026-05-02T13:38:19.092Z</time></trkpt><trkpt lat="42.0890783" lon="13.53795"><ele>794.0</ele><time>2026-05-02T13:38:20.091Z</time></trkpt><trkpt lat="42.089135" lon="13.5378367"><ele>794.0</ele><time>2026-05-02T13:38:21.092Z</time></trkpt><trkpt lat="42.0892" lon="13.5377217"><ele>794.0</ele><time>2026-05-02T13:38:22.091Z</time></trkpt><trkpt lat="42.0892817" lon="13.5376083"><ele>794.0</ele><time>2026-05-02T13:38:23.092Z</time></trkpt><trkpt lat="42.0893767" lon="13.5375083"><ele>796.25</ele><time>2026-05-02T13:38:24.091Z</time></trkpt><trkpt lat="42.0894733" lon="13.5373967"><ele>798.5</ele><time>2026-05-02T13:38:25.092Z</time></trkpt><trkpt lat="42.0895767" lon="13.537285"><ele>800.75</ele><time>2026-05-02T13:38:26.091Z</time></trkpt><trkpt lat="42.08968" lon="13.5371733"><ele>803.0</ele><time>2026-05-02T13:38:27.092Z</time></trkpt><trkpt lat="42.0897783" lon="13.53706"><ele>802.25</ele><time>2026-05-02T13:38:28.091Z</time></trkpt><trkpt lat="42.0898633" lon="13.5369533"><ele>801.5</ele><time>2026-05-02T13:38:29.092Z</time></trkpt><trkpt lat="42.0899467" lon="13.5368483"><ele>800.75</ele><time>2026-05-02T13:38:30.092Z</time></trkpt><trkpt lat="42.0900283" lon="13.53674"><ele>800.0</ele><time>2026-05-02T13:38:31.092Z</time></trkpt><trkpt lat="42.0901083" lon="13.5366383"><ele>801.3333333333334</ele><time>2026-05-02T13:38:32.091Z</time></trkpt><trkpt lat="42.090175" lon="13.5365483"><ele>802.6666666666667</ele><time>2026-05-02T13:38:33.091Z</time></trkpt><trkpt lat="42.09023" lon="13.5364683"><ele>804.0</ele><time>2026-05-02T13:38:34.091Z</time></trkpt><trkpt lat="42.0902683" lon="13.5363833"><ele>805.3333333333333</ele><time>2026-05-02T13:38:35.091Z</time></trkpt><trkpt lat="42.0902883" lon="13.5362933"><ele>806.6666666666666</ele><time>2026-05-02T13:38:36.091Z</time></trkpt><trkpt lat="42.09028" lon="13.536185"><ele>808.0</ele><time>2026-05-02T13:38:37.092Z</time></trkpt><trkpt lat="42.0902567" lon="13.536065"><ele>808.0</ele><time>2026-05-02T13:38:38.091Z</time></trkpt><trkpt lat="42.0902317" lon="13.5359167"><ele>808.0</ele><time>2026-05-02T13:38:39.091Z</time></trkpt><trkpt lat="42.0902083" lon="13.5357633"><ele>808.0</ele><time>2026-05-02T13:38:40.091Z</time></trkpt><trkpt lat="42.0901933" lon="13.5356217"><ele>808.0</ele><time>2026-05-02T13:38:41.091Z</time></trkpt><trkpt lat="42.0901917" lon="13.535495"><ele>808.0</ele><time>2026-05-02T13:38:42.091Z</time></trkpt><trkpt lat="42.090195" lon="13.5353767"><ele>808.0</ele><time>2026-05-02T13:38:43.092Z</time></trkpt><trkpt lat="42.0902083" lon="13.535285"><ele>808.0</ele><time>2026-05-02T13:38:44.091Z</time></trkpt><trkpt lat="42.0902267" lon="13.5352017"><ele>808.0</ele><time>2026-05-02T13:38:45.091Z</time></trkpt><trkpt lat="42.0902467" lon="13.5350617"><ele>808.0</ele><time>2026-05-02T13:38:47.092Z</time></trkpt><trkpt lat="42.090255" lon="13.5349483"><ele>808.0</ele><time>2026-05-02T13:38:49.091Z</time></trkpt><trkpt lat="42.09027" lon="13.534765"><ele>808.0</ele><time>2026-05-02T13:38:51.091Z</time></trkpt><trkpt lat="42.0902833" lon="13.53466"><ele>808.0</ele><time>2026-05-02T13:38:52.091Z</time></trkpt><trkpt lat="42.0903133" lon="13.5345483"><ele>808.0</ele><time>2026-05-02T13:38:53.091Z</time></trkpt><trkpt lat="42.0903633" lon="13.53444"><ele>808.0</ele><time>2026-05-02T13:38:54.091Z</time></trkpt><trkpt lat="42.0904283" lon="13.5343233"><ele>808.0</ele><time>2026-05-02T13:38:55.091Z</time></trkpt><trkpt lat="42.09051" lon="13.5342033"><ele>808.0</ele><time>2026-05-02T13:38:56.091Z</time></trkpt><trkpt lat="42.0906067" lon="13.5340633"><ele>808.0</ele><time>2026-05-02T13:38:57.091Z</time></trkpt><trkpt lat="42.0907" lon="13.5338967"><ele>808.0</ele><time>2026-05-02T13:38:58.091Z</time></trkpt><trkpt lat="42.090795" lon="13.53371"><ele>810.0</ele><time>2026-05-02T13:38:59.092Z</time></trkpt><trkpt lat="42.0908883" lon="13.533505"><ele>812.0</ele><time>2026-05-02T13:39:00.091Z</time></trkpt><trkpt lat="42.0909917" lon="13.5333017"><ele>814.0</ele><time>2026-05-02T13:39:01.092Z</time></trkpt><trkpt lat="42.0910867" lon="13.533105"><ele>814.0</ele><time>2026-05-02T13:39:02.092Z</time></trkpt><trkpt lat="42.0911767" lon="13.532935"><ele>814.0</ele><time>2026-05-02T13:39:03.091Z</time></trkpt><trkpt lat="42.09127" lon="13.532795"><ele>814.0</ele><time>2026-05-02T13:39:04.091Z</time></trkpt><trkpt lat="42.09137" lon="13.53266"><ele>814.0</ele><time>2026-05-02T13:39:05.092Z</time></trkpt><trkpt lat="42.0914817" lon="13.5325317"><ele>816.0</ele><time>2026-05-02T13:39:06.091Z</time></trkpt><trkpt lat="42.0916" lon="13.5323883"><ele>818.0</ele><time>2026-05-02T13:39:07.092Z</time></trkpt><trkpt lat="42.0917183" lon="13.532215"><ele>820.0</ele><time>2026-05-02T13:39:08.091Z</time></trkpt><trkpt lat="42.0918183" lon="13.532015"><ele>820.0</ele><time>2026-05-02T13:39:09.092Z</time></trkpt><trkpt lat="42.0919" lon="13.5318233"><ele>820.0</ele><time>2026-05-02T13:39:10.091Z</time></trkpt><trkpt lat="42.0919617" lon="13.5316383"><ele>820.0</ele><time>2026-05-02T13:39:11.091Z</time></trkpt><trkpt lat="42.0920083" lon="13.5314383"><ele>819.3333333333333</ele><time>2026-05-02T13:39:12.091Z</time></trkpt><trkpt lat="42.0920517" lon="13.5312233"><ele>818.6666666666667</ele><time>2026-05-02T13:39:13.091Z</time></trkpt><trkpt lat="42.0920917" lon="13.5310133"><ele>818.0</ele><time>2026-05-02T13:39:14.091Z</time></trkpt><trkpt lat="42.0921467" lon="13.53079"><ele>818.0</ele><time>2026-05-02T13:39:15.092Z</time></trkpt><trkpt lat="42.092205" lon="13.5305767"><ele>818.0</ele><time>2026-05-02T13:39:16.091Z</time></trkpt><trkpt lat="42.0922717" lon="13.5303767"><ele>818.0</ele><time>2026-05-02T13:39:17.091Z</time></trkpt><trkpt lat="42.0923433" lon="13.5301767"><ele>820.3333333333334</ele><time>2026-05-02T13:39:18.092Z</time></trkpt><trkpt lat="42.09243" lon="13.529965"><ele>822.6666666666667</ele><time>2026-05-02T13:39:19.091Z</time></trkpt><trkpt lat="42.092515" lon="13.529755"><ele>825.0</ele><time>2026-05-02T13:39:20.092Z</time></trkpt><trkpt lat="42.0926033" lon="13.529555"><ele>825.0</ele><time>2026-05-02T13:39:21.091Z</time></trkpt><trkpt lat="42.09268" lon="13.529375"><ele>825.0</ele><time>2026-05-02T13:39:22.092Z</time></trkpt><trkpt lat="42.0927433" lon="13.5292033"><ele>825.0</ele><time>2026-05-02T13:39:23.092Z</time></trkpt><trkpt lat="42.0928" lon="13.52903"><ele>825.0</ele><time>2026-05-02T13:39:24.092Z</time></trkpt><trkpt lat="42.0928517" lon="13.5288617"><ele>824.0</ele><time>2026-05-02T13:39:25.091Z</time></trkpt><trkpt lat="42.0929033" lon="13.5287033"><ele>823.0</ele><time>2026-05-02T13:39:26.091Z</time></trkpt><trkpt lat="42.0929617" lon="13.528555"><ele>822.0</ele><time>2026-05-02T13:39:27.091Z</time></trkpt><trkpt lat="42.0930183" lon="13.5284267"><ele>821.0</ele><time>2026-05-02T13:39:28.092Z</time></trkpt><trkpt lat="42.0930733" lon="13.528325"><ele>821.0000000000001</ele><time>2026-05-02T13:39:29.092Z</time></trkpt><trkpt lat="42.093125" lon="13.528235"><ele>821.0</ele><time>2026-05-02T13:39:30.092Z</time></trkpt><trkpt lat="42.0931733" lon="13.5281467"><ele>821.0</ele><time>2026-05-02T13:39:31.091Z</time></trkpt><trkpt lat="42.0932317" lon="13.5280667"><ele>821.0</ele><time>2026-05-02T13:39:32.091Z</time></trkpt><trkpt lat="42.093295" lon="13.527985"><ele>821.0000000000001</ele><time>2026-05-02T13:39:33.091Z</time></trkpt><trkpt lat="42.0933733" lon="13.5279067"><ele>821.0</ele><time>2026-05-02T13:39:34.091Z</time></trkpt><trkpt lat="42.0934483" lon="13.527825"><ele>822.4</ele><time>2026-05-02T13:39:35.091Z</time></trkpt><trkpt lat="42.0935217" lon="13.5277567"><ele>823.8</ele><time>2026-05-02T13:39:36.091Z</time></trkpt><trkpt lat="42.093585" lon="13.527705"><ele>825.1999999999999</ele><time>2026-05-02T13:39:37.091Z</time></trkpt><trkpt lat="42.0936933" lon="13.527645"><ele>826.5999999999999</ele><time>2026-05-02T13:39:39.091Z</time></trkpt><trkpt lat="42.0937883" lon="13.5275633"><ele>828.0</ele><time>2026-05-02T13:39:41.092Z</time></trkpt><trkpt lat="42.09384" lon="13.5274967"><ele>828.0</ele><time>2026-05-02T13:39:43.091Z</time></trkpt><trkpt lat="42.0938717" lon="13.527365"><ele>828.0</ele><time>2026-05-02T13:39:45.092Z</time></trkpt><trkpt lat="42.0938767" lon="13.5272583"><ele>828.0</ele><time>2026-05-02T13:39:46.092Z</time></trkpt><trkpt lat="42.0938783" lon="13.52714"><ele>828.0</ele><time>2026-05-02T13:39:47.091Z</time></trkpt><trkpt lat="42.0938867" lon="13.5270267"><ele>828.0</ele><time>2026-05-02T13:39:48.091Z</time></trkpt><trkpt lat="42.0939017" lon="13.5269167"><ele>828.0</ele><time>2026-05-02T13:39:49.091Z</time></trkpt><trkpt lat="42.09392" lon="13.5268133"><ele>827.5999999999999</ele><time>2026-05-02T13:39:50.091Z</time></trkpt><trkpt lat="42.0939433" lon="13.5267017"><ele>827.1999999999999</ele><time>2026-05-02T13:39:51.091Z</time></trkpt><trkpt lat="42.0939717" lon="13.5265667"><ele>826.8</ele><time>2026-05-02T13:39:52.091Z</time></trkpt><trkpt lat="42.0939983" lon="13.52643"><ele>826.4</ele><time>2026-05-02T13:39:53.092Z</time></trkpt><trkpt lat="42.0940133" lon="13.5262817"><ele>826.0</ele><time>2026-05-02T13:39:54.091Z</time></trkpt><trkpt lat="42.0940267" lon="13.5261383"><ele>826.8333333333333</ele><time>2026-05-02T13:39:55.092Z</time></trkpt><trkpt lat="42.09405" lon="13.5260167"><ele>827.6666666666666</ele><time>2026-05-02T13:39:56.092Z</time></trkpt><trkpt lat="42.09407" lon="13.5259117"><ele>828.5</ele><time>2026-05-02T13:39:57.091Z</time></trkpt><trkpt lat="42.0940933" lon="13.525815"><ele>829.3333333333333</ele><time>2026-05-02T13:39:58.091Z</time></trkpt><trkpt lat="42.09413" lon="13.5257167"><ele>830.1666666666666</ele><time>2026-05-02T13:39:59.091Z</time></trkpt><trkpt lat="42.094175" lon="13.5256067"><ele>831.0</ele><time>2026-05-02T13:40:00.091Z</time></trkpt><trkpt lat="42.0942067" lon="13.5255167"><ele>831.0</ele><time>2026-05-02T13:40:01.091Z</time></trkpt><trkpt lat="42.09422" lon="13.5254233"><ele>831.0</ele><time>2026-05-02T13:40:02.091Z</time></trkpt><trkpt lat="42.0942383" lon="13.52533"><ele>831.0</ele><time>2026-05-02T13:40:03.091Z</time></trkpt><trkpt lat="42.09428" lon="13.525235"><ele>831.0</ele><time>2026-05-02T13:40:04.091Z</time></trkpt><trkpt lat="42.0943417" lon="13.52514"><ele>831.0</ele><time>2026-05-02T13:40:05.091Z</time></trkpt><trkpt lat="42.09442" lon="13.5250317"><ele>831.0</ele><time>2026-05-02T13:40:06.091Z</time></trkpt><trkpt lat="42.094505" lon="13.5249267"><ele>828.1999999999999</ele><time>2026-05-02T13:40:07.092Z</time></trkpt><trkpt lat="42.0945983" lon="13.5248283"><ele>825.4</ele><time>2026-05-02T13:40:08.091Z</time></trkpt><trkpt lat="42.094675" lon="13.524745"><ele>822.6</ele><time>2026-05-02T13:40:09.091Z</time></trkpt><trkpt lat="42.0947483" lon="13.5246733"><ele>819.8</ele><time>2026-05-02T13:40:10.092Z</time></trkpt><trkpt lat="42.0948133" lon="13.524595"><ele>817.0</ele><time>2026-05-02T13:40:11.091Z</time></trkpt><trkpt lat="42.0948817" lon="13.5245167"><ele>817.8</ele><time>2026-05-02T13:40:12.091Z</time></trkpt><trkpt lat="42.094955" lon="13.524455"><ele>818.6</ele><time>2026-05-02T13:40:13.091Z</time></trkpt><trkpt lat="42.0950367" lon="13.5243983"><ele>819.4</ele><time>2026-05-02T13:40:14.091Z</time></trkpt><trkpt lat="42.0951233" lon="13.52433"><ele>820.1999999999999</ele><time>2026-05-02T13:40:15.092Z</time></trkpt><trkpt lat="42.0952033" lon="13.5242717"><ele>821.0</ele><time>2026-05-02T13:40:16.092Z</time></trkpt><trkpt lat="42.09528" lon="13.5241917"><ele>821.0</ele><time>2026-05-02T13:40:17.092Z</time></trkpt><trkpt lat="42.0953567" lon="13.52411"><ele>821.0</ele><time>2026-05-02T13:40:18.092Z</time></trkpt><trkpt lat="42.0954383" lon="13.5240283"><ele>821.0</ele><time>2026-05-02T13:40:19.092Z</time></trkpt><trkpt lat="42.0955217" lon="13.5239483"><ele>821.0</ele><time>2026-05-02T13:40:20.091Z</time></trkpt><trkpt lat="42.0956" lon="13.523865"><ele>821.0</ele><time>2026-05-02T13:40:21.092Z</time></trkpt><trkpt lat="42.0956633" lon="13.5237933"><ele>822.3333333333334</ele><time>2026-05-02T13:40:22.092Z</time></trkpt><trkpt lat="42.0957083" lon="13.52373"><ele>823.6666666666667</ele><time>2026-05-02T13:40:23.092Z</time></trkpt><trkpt lat="42.0957517" lon="13.5236433"><ele>825.0</ele><time>2026-05-02T13:40:24.091Z</time></trkpt><trkpt lat="42.0957917" lon="13.5235383"><ele>826.3333333333333</ele><time>2026-05-02T13:40:25.091Z</time></trkpt><trkpt lat="42.0958217" lon="13.523425"><ele>827.6666666666666</ele><time>2026-05-02T13:40:26.091Z</time></trkpt><trkpt lat="42.095845" lon="13.5233183"><ele>829.0</ele><time>2026-05-02T13:40:27.09Z</time></trkpt><trkpt lat="42.09587" lon="13.52322"><ele>829.0</ele><time>2026-05-02T13:40:28.091Z</time></trkpt><trkpt lat="42.0959033" lon="13.523135"><ele>829.0</ele><time>2026-05-02T13:40:29.091Z</time></trkpt><trkpt lat="42.0959633" lon="13.52298"><ele>829.0</ele><time>2026-05-02T13:40:31.091Z</time></trkpt><trkpt lat="42.096005" lon="13.5228717"><ele>829.0</ele><time>2026-05-02T13:40:32.091Z</time></trkpt><trkpt lat="42.0960483" lon="13.52275"><ele>829.0</ele><time>2026-05-02T13:40:33.09Z</time></trkpt><trkpt lat="42.0960817" lon="13.522645"><ele>829.8000000000001</ele><time>2026-05-02T13:40:34.091Z</time></trkpt><trkpt lat="42.0961183" lon="13.5225567"><ele>830.6</ele><time>2026-05-02T13:40:35.09Z</time></trkpt><trkpt lat="42.09615" lon="13.5224817"><ele>831.4</ele><time>2026-05-02T13:40:36.09Z</time></trkpt><trkpt lat="42.0961883" lon="13.522335"><ele>832.2</ele><time>2026-05-02T13:40:38.091Z</time></trkpt><trkpt lat="42.096245" lon="13.522175"><ele>833.0</ele><time>2026-05-02T13:40:40.09Z</time></trkpt><trkpt lat="42.096285" lon="13.52209"><ele>833.3333333333334</ele><time>2026-05-02T13:40:41.09Z</time></trkpt><trkpt lat="42.096325" lon="13.522005"><ele>833.6666666666667</ele><time>2026-05-02T13:40:42.091Z</time></trkpt><trkpt lat="42.0963733" lon="13.5219317"><ele>834.0</ele><time>2026-05-02T13:40:43.09Z</time></trkpt><trkpt lat="42.0964517" lon="13.52184"><ele>834.3333333333333</ele><time>2026-05-02T13:40:45.091Z</time></trkpt><trkpt lat="42.0965633" lon="13.5218367"><ele>834.6666666666666</ele><time>2026-05-02T13:40:47.09Z</time></trkpt><trkpt lat="42.0966333" lon="13.5218333"><ele>835.0</ele><time>2026-05-02T13:40:48.09Z</time></trkpt><trkpt lat="42.0966983" lon="13.5218267"><ele>836.3333333333333</ele><time>2026-05-02T13:40:49.091Z</time></trkpt><trkpt lat="42.0967633" lon="13.5218267"><ele>837.6666666666666</ele><time>2026-05-02T13:40:50.09Z</time></trkpt><trkpt lat="42.0968767" lon="13.521805"><ele>839.0</ele><time>2026-05-02T13:40:52.09Z</time></trkpt><trkpt lat="42.096935" lon="13.52177"><ele>840.3333333333333</ele><time>2026-05-02T13:40:53.091Z</time></trkpt><trkpt lat="42.0969983" lon="13.52174"><ele>841.6666666666666</ele><time>2026-05-02T13:40:54.09Z</time></trkpt><trkpt lat="42.0971117" lon="13.5216867"><ele>843.0</ele><time>2026-05-02T13:40:56.09Z</time></trkpt><trkpt lat="42.0971967" lon="13.5216567"><ele>843.0</ele><time>2026-05-02T13:40:58.09Z</time></trkpt><trkpt lat="42.0973133" lon="13.52163"><ele>843.0</ele><time>2026-05-02T13:41:00.091Z</time></trkpt><trkpt lat="42.0973783" lon="13.521615"><ele>843.0</ele><time>2026-05-02T13:41:01.09Z</time></trkpt><trkpt lat="42.0974533" lon="13.521605"><ele>843.0</ele><time>2026-05-02T13:41:02.09Z</time></trkpt><trkpt lat="42.0975217" lon="13.5215917"><ele>843.0</ele><time>2026-05-02T13:41:03.091Z</time></trkpt><trkpt lat="42.0975917" lon="13.521575"><ele>843.0</ele><time>2026-05-02T13:41:04.091Z</time></trkpt><trkpt lat="42.0976567" lon="13.521565"><ele>846.1666666666666</ele><time>2026-05-02T13:41:05.09Z</time></trkpt><trkpt lat="42.09772" lon="13.5215433"><ele>849.3333333333333</ele><time>2026-05-02T13:41:06.091Z</time></trkpt><trkpt lat="42.0977917" lon="13.52153"><ele>852.5</ele><time>2026-05-02T13:41:07.09Z</time></trkpt><trkpt lat="42.097855" lon="13.5215317"><ele>855.6666666666666</ele><time>2026-05-02T13:41:08.09Z</time></trkpt><trkpt lat="42.09792" lon="13.5215283"><ele>858.8333333333333</ele><time>2026-05-02T13:41:09.09Z</time></trkpt><trkpt lat="42.0979867" lon="13.521525"><ele>862.0</ele><time>2026-05-02T13:41:10.09Z</time></trkpt><trkpt lat="42.0981117" lon="13.5215083"><ele>862.0</ele><time>2026-05-02T13:41:12.091Z</time></trkpt><trkpt lat="42.0982283" lon="13.5214633"><ele>862.0</ele><time>2026-05-02T13:41:14.09Z</time></trkpt><trkpt lat="42.098345" lon="13.521445"><ele>862.0</ele><time>2026-05-02T13:41:16.091Z</time></trkpt><trkpt lat="42.0984217" lon="13.521425"><ele>862.0</ele><time>2026-05-02T13:41:19.09Z</time></trkpt><trkpt lat="42.0982909" lon="13.5214656"><ele>861.9999999999999</ele><time>2026-05-02T13:41:50.09Z</time></trkpt><trkpt lat="42.0982283" lon="13.521475"><ele>862.0</ele><time>2026-05-02T13:41:51.09Z</time></trkpt><trkpt lat="42.0981383" lon="13.52149"><ele>862.0</ele><time>2026-05-02T13:41:54.091Z</time></trkpt><trkpt lat="42.09806" lon="13.5215033"><ele>862.0</ele><time>2026-05-02T13:41:56.091Z</time></trkpt><trkpt lat="42.0979683" lon="13.5215267"><ele>861.9999999999999</ele><time>2026-05-02T13:41:58.091Z</time></trkpt><trkpt lat="42.0978867" lon="13.5215383"><ele>862.0</ele><time>2026-05-02T13:42:00.091Z</time></trkpt><trkpt lat="42.097795" lon="13.5215433"><ele>862.0</ele><time>2026-05-02T13:42:02.091Z</time></trkpt><trkpt lat="42.0977117" lon="13.521555"><ele>862.0</ele><time>2026-05-02T13:42:04.091Z</time></trkpt><trkpt lat="42.0976167" lon="13.5215767"><ele>862.0</ele><time>2026-05-02T13:42:06.091Z</time></trkpt><trkpt lat="42.097515" lon="13.5216067"><ele>862.0</ele><time>2026-05-02T13:42:08.09Z</time></trkpt><trkpt lat="42.0974017" lon="13.5216317"><ele>862.0</ele><time>2026-05-02T13:42:10.091Z</time></trkpt><trkpt lat="42.097305" lon="13.52166"><ele>858.8333333333333</ele><time>2026-05-02T13:42:12.091Z</time></trkpt><trkpt lat="42.0972083" lon="13.5216783"><ele>855.6666666666666</ele><time>2026-05-02T13:42:14.091Z</time></trkpt><trkpt lat="42.0971167" lon="13.5217"><ele>852.5</ele><time>2026-05-02T13:42:16.091Z</time></trkpt><trkpt lat="42.0970417" lon="13.521735"><ele>849.3333333333333</ele><time>2026-05-02T13:42:18.091Z</time></trkpt><trkpt lat="42.096985" lon="13.521775"><ele>846.1666666666666</ele><time>2026-05-02T13:42:20.091Z</time></trkpt><trkpt lat="42.09689" lon="13.5218017"><ele>843.0</ele><time>2026-05-02T13:42:23.091Z</time></trkpt><trkpt lat="42.096805" lon="13.5218217"><ele>843.0</ele><time>2026-05-02T13:42:25.091Z</time></trkpt><trkpt lat="42.0967167" lon="13.5218233"><ele>843.0</ele><time>2026-05-02T13:42:28.091Z</time></trkpt><trkpt lat="42.096645" lon="13.52183"><ele>843.0</ele><time>2026-05-02T13:42:30.091Z</time></trkpt><trkpt lat="42.0965567" lon="13.5218383"><ele>843.0</ele><time>2026-05-02T13:42:32.09Z</time></trkpt><trkpt lat="42.0964717" lon="13.5218617"><ele>843.0</ele><time>2026-05-02T13:42:34.091Z</time></trkpt><trkpt lat="42.0964" lon="13.521865"><ele>843.0</ele><time>2026-05-02T13:42:36.091Z</time></trkpt><trkpt lat="42.0963217" lon="13.52184"><ele>841.4</ele><time>2026-05-02T13:42:43.09Z</time></trkpt><trkpt lat="42.09627" lon="13.5217583"><ele>839.8</ele><time>2026-05-02T13:42:46.09Z</time></trkpt><trkpt lat="42.0963067" lon="13.52162"><ele>838.2</ele><time>2026-05-02T13:42:49.09Z</time></trkpt><trkpt lat="42.0963533" lon="13.5214733"><ele>836.6</ele><time>2026-05-02T13:42:51.091Z</time></trkpt><trkpt lat="42.0963633" lon="13.5213867"><ele>835.0</ele><time>2026-05-02T13:42:52.09Z</time></trkpt><trkpt lat="42.09638" lon="13.5212417"><ele>834.8333333333333</ele><time>2026-05-02T13:42:54.091Z</time></trkpt><trkpt lat="42.0964183" lon="13.5211283"><ele>834.6666666666666</ele><time>2026-05-02T13:42:56.091Z</time></trkpt><trkpt lat="42.0964817" lon="13.5210133"><ele>834.5</ele><time>2026-05-02T13:42:58.091Z</time></trkpt><trkpt lat="42.0965233" lon="13.52094"><ele>834.3333333333333</ele><time>2026-05-02T13:42:59.091Z</time></trkpt><trkpt lat="42.0965783" lon="13.5208583"><ele>834.1666666666666</ele><time>2026-05-02T13:43:00.09Z</time></trkpt><trkpt lat="42.0966467" lon="13.52076"><ele>834.0</ele><time>2026-05-02T13:43:01.091Z</time></trkpt><trkpt lat="42.0967267" lon="13.52067"><ele>835.3333333333334</ele><time>2026-05-02T13:43:02.091Z</time></trkpt><trkpt lat="42.09679" lon="13.5205833"><ele>836.6666666666667</ele><time>2026-05-02T13:43:03.09Z</time></trkpt><trkpt lat="42.0968467" lon="13.5204983"><ele>838.0</ele><time>2026-05-02T13:43:04.091Z</time></trkpt><trkpt lat="42.096895" lon="13.520425"><ele>839.3333333333334</ele><time>2026-05-02T13:43:05.09Z</time></trkpt><trkpt lat="42.0969517" lon="13.52035"><ele>840.6666666666667</ele><time>2026-05-02T13:43:06.09Z</time></trkpt><trkpt lat="42.097005" lon="13.5202867"><ele>842.0</ele><time>2026-05-02T13:43:07.09Z</time></trkpt><trkpt lat="42.0970667" lon="13.5202383"><ele>842.0000000000001</ele><time>2026-05-02T13:43:08.091Z</time></trkpt><trkpt lat="42.0971333" lon="13.52019"><ele>842.0</ele><time>2026-05-02T13:43:09.091Z</time></trkpt><trkpt lat="42.097215" lon="13.5201367"><ele>842.0</ele><time>2026-05-02T13:43:10.091Z</time></trkpt><trkpt lat="42.0972917" lon="13.5201033"><ele>842.0</ele><time>2026-05-02T13:43:11.09Z</time></trkpt><trkpt lat="42.0973533" lon="13.5200733"><ele>842.0</ele><time>2026-05-02T13:43:12.091Z</time></trkpt><trkpt lat="42.097415" lon="13.520035"><ele>842.0000000000001</ele><time>2026-05-02T13:43:14.091Z</time></trkpt><trkpt lat="42.0974267" lon="13.5199483"><ele>842.0</ele><time>2026-05-02T13:43:16.09Z</time></trkpt><trkpt lat="42.0973883" lon="13.5198167"><ele>842.0000000000001</ele><time>2026-05-02T13:43:18.091Z</time></trkpt><trkpt lat="42.0973417" lon="13.5197233"><ele>842.0</ele><time>2026-05-02T13:43:20.091Z</time></trkpt><trkpt lat="42.0973283" lon="13.519595"><ele>842.0</ele><time>2026-05-02T13:44:45.09Z</time></trkpt><trkpt lat="42.0973333" lon="13.51949"><ele>842.0</ele><time>2026-05-02T13:44:47.091Z</time></trkpt><trkpt lat="42.0973233" lon="13.5193767"><ele>842.0000000000001</ele><time>2026-05-02T13:44:49.091Z</time></trkpt><trkpt lat="42.09727" lon="13.5193"><ele>842.0</ele><time>2026-05-02T13:45:04.09Z</time></trkpt><trkpt lat="42.0972167" lon="13.51919"><ele>844.6</ele><time>2026-05-02T13:45:06.09Z</time></trkpt><trkpt lat="42.097175" lon="13.5190983"><ele>847.2</ele><time>2026-05-02T13:45:08.09Z</time></trkpt><trkpt lat="42.097165" lon="13.5190067"><ele>849.8</ele><time>2026-05-02T13:45:10.091Z</time></trkpt><trkpt lat="42.097185" lon="13.5188983"><ele>852.4</ele><time>2026-05-02T13:45:12.09Z</time></trkpt><trkpt lat="42.0972383" lon="13.5187217"><ele>855.0</ele><time>2026-05-02T13:45:14.09Z</time></trkpt><trkpt lat="42.0972783" lon="13.5185933"><ele>858.5</ele><time>2026-05-02T13:45:15.09Z</time></trkpt><trkpt lat="42.097325" lon="13.5184533"><ele>862.0</ele><time>2026-05-02T13:45:16.091Z</time></trkpt><trkpt lat="42.097375" lon="13.5183033"><ele>865.5</ele><time>2026-05-02T13:45:17.09Z</time></trkpt><trkpt lat="42.0974338" lon="13.5181617"><ele>869.0</ele><time>2026-05-02T13:45:18.09Z</time></trkpt><trkpt lat="42.0974963" lon="13.5180321"><ele>870.75</ele><time>2026-05-02T13:45:19.09Z</time></trkpt><trkpt lat="42.0975577" lon="13.5179038"><ele>872.5</ele><time>2026-05-02T13:45:20.09Z</time></trkpt><trkpt lat="42.0976245" lon="13.5177738"><ele>874.25</ele><time>2026-05-02T13:45:21.09Z</time></trkpt><trkpt lat="42.0976936" lon="13.5176443"><ele>876.0</ele><time>2026-05-02T13:45:22.09Z</time></trkpt><trkpt lat="42.0977662" lon="13.5175139"><ele>876.0</ele><time>2026-05-02T13:45:23.091Z</time></trkpt><trkpt lat="42.0978344" lon="13.5173761"><ele>875.9999999999999</ele><time>2026-05-02T13:45:24.091Z</time></trkpt><trkpt lat="42.0978881" lon="13.5172425"><ele>875.9999999999999</ele><time>2026-05-02T13:45:25.091Z</time></trkpt><trkpt lat="42.0979277" lon="13.5171195"><ele>876.0</ele><time>2026-05-02T13:45:26.09Z</time></trkpt><trkpt lat="42.097955" lon="13.5170112"><ele>876.0</ele><time>2026-05-02T13:45:27.09Z</time></trkpt><trkpt lat="42.097977" lon="13.5169029"><ele>876.0</ele><time>2026-05-02T13:45:28.09Z</time></trkpt><trkpt lat="42.0979924" lon="13.5167848"><ele>875.9999999999999</ele><time>2026-05-02T13:45:29.09Z</time></trkpt><trkpt lat="42.0980078" lon="13.5166656"><ele>875.9999999999999</ele><time>2026-05-02T13:45:30.091Z</time></trkpt><trkpt lat="42.0980311" lon="13.5165389"><ele>876.0</ele><time>2026-05-02T13:45:31.09Z</time></trkpt><trkpt lat="42.0980574" lon="13.5164061"><ele>876.0</ele><time>2026-05-02T13:45:32.09Z</time></trkpt><trkpt lat="42.098086" lon="13.5162632"><ele>877.5999999999999</ele><time>2026-05-02T13:45:33.091Z</time></trkpt><trkpt lat="42.098119" lon="13.5161138"><ele>879.1999999999999</ele><time>2026-05-02T13:45:34.091Z</time></trkpt><trkpt lat="42.0981571" lon="13.515976"><ele>880.8000000000001</ele><time>2026-05-02T13:45:35.091Z</time></trkpt><trkpt lat="42.0982027" lon="13.5158709"><ele>882.4000000000001</ele><time>2026-05-02T13:45:36.091Z</time></trkpt><trkpt lat="42.0982531" lon="13.5157929"><ele>884.0</ele><time>2026-05-02T13:45:37.09Z</time></trkpt><trkpt lat="42.0983117" lon="13.5157117"><ele>887.2</ele><time>2026-05-02T13:45:38.09Z</time></trkpt><trkpt lat="42.0983751" lon="13.5156217"><ele>890.4000000000001</ele><time>2026-05-02T13:45:39.09Z</time></trkpt><trkpt lat="42.0984352" lon="13.5155153"><ele>893.6</ele><time>2026-05-02T13:45:40.09Z</time></trkpt><trkpt lat="42.0984922" lon="13.5154032"><ele>896.8</ele><time>2026-05-02T13:45:41.09Z</time></trkpt><trkpt lat="42.098543" lon="13.5153028"><ele>900.0</ele><time>2026-05-02T13:45:42.09Z</time></trkpt><trkpt lat="42.0985845" lon="13.5152271"><ele>901.0</ele><time>2026-05-02T13:45:43.09Z</time></trkpt><trkpt lat="42.0986546" lon="13.5150971"><ele>902.0</ele><time>2026-05-02T13:45:45.091Z</time></trkpt><trkpt lat="42.0986974" lon="13.5150219"><ele>903.0</ele><time>2026-05-02T13:45:46.09Z</time></trkpt><trkpt lat="42.0987421" lon="13.5149318"><ele>904.0</ele><time>2026-05-02T13:45:47.091Z</time></trkpt><trkpt lat="42.098791" lon="13.5148312"><ele>905.0</ele><time>2026-05-02T13:45:48.091Z</time></trkpt><trkpt lat="42.0988472" lon="13.5147095"><ele>905.0</ele><time>2026-05-02T13:45:49.091Z</time></trkpt><trkpt lat="42.0988989" lon="13.5145828"><ele>905.0</ele><time>2026-05-02T13:45:50.091Z</time></trkpt><trkpt lat="42.098935" lon="13.5144717"><ele>905.0</ele><time>2026-05-02T13:45:51.09Z</time></trkpt><trkpt lat="42.0989567" lon="13.5143817"><ele>905.0</ele><time>2026-05-02T13:45:52.091Z</time></trkpt><trkpt lat="42.09895" lon="13.5142733"><ele>905.0</ele><time>2026-05-02T13:45:54.091Z</time></trkpt><trkpt lat="42.0988567" lon="13.51417"><ele>906.0</ele><time>2026-05-02T13:45:56.09Z</time></trkpt><trkpt lat="42.0988033" lon="13.5140667"><ele>907.0</ele><time>2026-05-02T13:45:57.091Z</time></trkpt><trkpt lat="42.098755" lon="13.5139433"><ele>908.0</ele><time>2026-05-02T13:45:58.09Z</time></trkpt><trkpt lat="42.0987083" lon="13.51382"><ele>909.0</ele><time>2026-05-02T13:45:59.091Z</time></trkpt><trkpt lat="42.09867" lon="13.5137033"><ele>910.0</ele><time>2026-05-02T13:46:00.09Z</time></trkpt><trkpt lat="42.098635" lon="13.5136"><ele>912.2</ele><time>2026-05-02T13:46:01.09Z</time></trkpt><trkpt lat="42.0986017" lon="13.51347"><ele>914.4</ele><time>2026-05-02T13:46:03.09Z</time></trkpt><trkpt lat="42.098545" lon="13.51331"><ele>916.5999999999999</ele><time>2026-05-02T13:46:34.09Z</time></trkpt><trkpt lat="42.098535" lon="13.513185"><ele>918.8</ele><time>2026-05-02T13:46:35.09Z</time></trkpt><trkpt lat="42.0985283" lon="13.5130567"><ele>921.0</ele><time>2026-05-02T13:46:36.089Z</time></trkpt><trkpt lat="42.0985133" lon="13.51294"><ele>921.8</ele><time>2026-05-02T13:46:37.089Z</time></trkpt><trkpt lat="42.098485" lon="13.5128283"><ele>922.5999999999999</ele><time>2026-05-02T13:46:38.09Z</time></trkpt><trkpt lat="42.0984467" lon="13.512705"><ele>923.4</ele><time>2026-05-02T13:46:39.09Z</time></trkpt><trkpt lat="42.0984167" lon="13.5125767"><ele>924.2</ele><time>2026-05-02T13:46:40.09Z</time></trkpt><trkpt lat="42.098405" lon="13.5124533"><ele>925.0</ele><time>2026-05-02T13:46:41.089Z</time></trkpt><trkpt lat="42.0983983" lon="13.5123233"><ele>925.0</ele><time>2026-05-02T13:46:42.09Z</time></trkpt><trkpt lat="42.0983933" lon="13.512185"><ele>925.0</ele><time>2026-05-02T13:46:43.09Z</time></trkpt><trkpt lat="42.0983933" lon="13.5120333"><ele>925.0</ele><time>2026-05-02T13:46:44.089Z</time></trkpt><trkpt lat="42.0984067" lon="13.5118767"><ele>925.0</ele><time>2026-05-02T13:46:45.089Z</time></trkpt><trkpt lat="42.09843" lon="13.5117117"><ele>925.8</ele><time>2026-05-02T13:46:46.089Z</time></trkpt><trkpt lat="42.0984467" lon="13.5115633"><ele>926.6</ele><time>2026-05-02T13:46:47.09Z</time></trkpt><trkpt lat="42.0984417" lon="13.5114333"><ele>927.4000000000001</ele><time>2026-05-02T13:46:48.089Z</time></trkpt><trkpt lat="42.0984167" lon="13.51132"><ele>928.2</ele><time>2026-05-02T13:46:49.089Z</time></trkpt><trkpt lat="42.098375" lon="13.5112083"><ele>929.0</ele><time>2026-05-02T13:46:50.089Z</time></trkpt><trkpt lat="42.0983117" lon="13.5111017"><ele>925.6</ele><time>2026-05-02T13:46:51.09Z</time></trkpt><trkpt lat="42.0982417" lon="13.5110067"><ele>922.2</ele><time>2026-05-02T13:46:52.09Z</time></trkpt><trkpt lat="42.0981717" lon="13.51091"><ele>918.8000000000001</ele><time>2026-05-02T13:46:53.089Z</time></trkpt><trkpt lat="42.0981233" lon="13.5107983"><ele>915.4000000000001</ele><time>2026-05-02T13:46:54.09Z</time></trkpt><trkpt lat="42.098075" lon="13.5106633"><ele>912.0</ele><time>2026-05-02T13:46:55.089Z</time></trkpt><trkpt lat="42.0980233" lon="13.51051"><ele>912.0</ele><time>2026-05-02T13:46:56.09Z</time></trkpt><trkpt lat="42.0979633" lon="13.5103483"><ele>912.0</ele><time>2026-05-02T13:46:57.09Z</time></trkpt><trkpt lat="42.0978933" lon="13.5101733"><ele>912.0</ele><time>2026-05-02T13:46:58.089Z</time></trkpt><trkpt lat="42.0978233" lon="13.51002"><ele>912.0</ele><time>2026-05-02T13:46:59.09Z</time></trkpt><trkpt lat="42.09776" lon="13.5098833"><ele>912.0</ele><time>2026-05-02T13:47:00.09Z</time></trkpt><trkpt lat="42.0977183" lon="13.50976"><ele>912.0</ele><time>2026-05-02T13:47:01.089Z</time></trkpt><trkpt lat="42.0976783" lon="13.5096317"><ele>912.0</ele><time>2026-05-02T13:47:02.09Z</time></trkpt><trkpt lat="42.0976467" lon="13.5095133"><ele>912.0</ele><time>2026-05-02T13:47:03.089Z</time></trkpt><trkpt lat="42.097625" lon="13.5094133"><ele>912.0</ele><time>2026-05-02T13:47:04.089Z</time></trkpt><trkpt lat="42.0976333" lon="13.5093083"><ele>912.0</ele><time>2026-05-02T13:47:05.089Z</time></trkpt><trkpt lat="42.097655" lon="13.5091867"><ele>912.0</ele><time>2026-05-02T13:47:06.089Z</time></trkpt><trkpt lat="42.097695" lon="13.5090533"><ele>912.0</ele><time>2026-05-02T13:47:07.09Z</time></trkpt><trkpt lat="42.0977383" lon="13.5088933"><ele>912.0</ele><time>2026-05-02T13:47:08.089Z</time></trkpt><trkpt lat="42.09777" lon="13.5087167"><ele>912.0</ele><time>2026-05-02T13:47:09.089Z</time></trkpt><trkpt lat="42.09779" lon="13.5085217"><ele>912.0</ele><time>2026-05-02T13:47:10.09Z</time></trkpt><trkpt lat="42.0978033" lon="13.5083217"><ele>912.0</ele><time>2026-05-02T13:47:11.089Z</time></trkpt><trkpt lat="42.0978167" lon="13.5081417"><ele>912.0</ele><time>2026-05-02T13:47:12.09Z</time></trkpt><trkpt lat="42.097835" lon="13.507975"><ele>912.2</ele><time>2026-05-02T13:47:13.089Z</time></trkpt><trkpt lat="42.09786" lon="13.5078083"><ele>912.4000000000001</ele><time>2026-05-02T13:47:14.09Z</time></trkpt><trkpt lat="42.0978883" lon="13.5076467"><ele>912.5999999999999</ele><time>2026-05-02T13:47:15.09Z</time></trkpt><trkpt lat="42.0979217" lon="13.5075133"><ele>912.8</ele><time>2026-05-02T13:47:16.089Z</time></trkpt><trkpt lat="42.097965" lon="13.5074017"><ele>913.0</ele><time>2026-05-02T13:47:17.09Z</time></trkpt><trkpt lat="42.098015" lon="13.5073083"><ele>913.0</ele><time>2026-05-02T13:47:18.089Z</time></trkpt><trkpt lat="42.0980817" lon="13.5072233"><ele>913.0</ele><time>2026-05-02T13:47:19.089Z</time></trkpt><trkpt lat="42.0981633" lon="13.5071367"><ele>913.0</ele><time>2026-05-02T13:47:20.09Z</time></trkpt><trkpt lat="42.09825" lon="13.5070417"><ele>913.0</ele><time>2026-05-02T13:47:21.089Z</time></trkpt><trkpt lat="42.0983417" lon="13.506935"><ele>913.0</ele><time>2026-05-02T13:47:22.09Z</time></trkpt><trkpt lat="42.0984117" lon="13.50684"><ele>913.4</ele><time>2026-05-02T13:47:23.09Z</time></trkpt><trkpt lat="42.0984767" lon="13.5067417"><ele>913.8</ele><time>2026-05-02T13:47:24.089Z</time></trkpt><trkpt lat="42.0985233" lon="13.5066367"><ele>914.2</ele><time>2026-05-02T13:47:25.09Z</time></trkpt><trkpt lat="42.098565" lon="13.506505"><ele>914.6</ele><time>2026-05-02T13:47:26.09Z</time></trkpt><trkpt lat="42.0986067" lon="13.5063533"><ele>915.0</ele><time>2026-05-02T13:47:27.089Z</time></trkpt><trkpt lat="42.0986617" lon="13.506175"><ele>915.0</ele><time>2026-05-02T13:47:28.089Z</time></trkpt><trkpt lat="42.09871" lon="13.5059867"><ele>915.0</ele><time>2026-05-02T13:47:29.089Z</time></trkpt><trkpt lat="42.09877" lon="13.5058067"><ele>915.0</ele><time>2026-05-02T13:47:30.089Z</time></trkpt><trkpt lat="42.09882" lon="13.5056533"><ele>915.0</ele><time>2026-05-02T13:47:31.089Z</time></trkpt><trkpt lat="42.0988517" lon="13.5055233"><ele>916.0</ele><time>2026-05-02T13:47:32.09Z</time></trkpt><trkpt lat="42.0988917" lon="13.5054033"><ele>917.0</ele><time>2026-05-02T13:47:33.089Z</time></trkpt><trkpt lat="42.098955" lon="13.5052817"><ele>918.0</ele><time>2026-05-02T13:47:34.089Z</time></trkpt><trkpt lat="42.0990333" lon="13.5051667"><ele>919.0</ele><time>2026-05-02T13:47:35.09Z</time></trkpt><trkpt lat="42.099125" lon="13.50505"><ele>920.75</ele><time>2026-05-02T13:47:36.09Z</time></trkpt><trkpt lat="42.0992217" lon="13.504935"><ele>922.5</ele><time>2026-05-02T13:47:37.089Z</time></trkpt><trkpt lat="42.099315" lon="13.5048167"><ele>924.25</ele><time>2026-05-02T13:47:38.089Z</time></trkpt><trkpt lat="42.0994033" lon="13.50468"><ele>926.0</ele><time>2026-05-02T13:47:39.089Z</time></trkpt><trkpt lat="42.0994917" lon="13.5045233"><ele>927.6666666666667</ele><time>2026-05-02T13:47:40.09Z</time></trkpt><trkpt lat="42.0995767" lon="13.5043583"><ele>929.3333333333333</ele><time>2026-05-02T13:47:41.09Z</time></trkpt><trkpt lat="42.099665" lon="13.5041817"><ele>931.0</ele><time>2026-05-02T13:47:42.089Z</time></trkpt><trkpt lat="42.0997467" lon="13.504"><ele>931.0</ele><time>2026-05-02T13:47:43.089Z</time></trkpt><trkpt lat="42.0998267" lon="13.5038167"><ele>931.0</ele><time>2026-05-02T13:47:44.09Z</time></trkpt><trkpt lat="42.099905" lon="13.5036367"><ele>931.0</ele><time>2026-05-02T13:47:45.089Z</time></trkpt><trkpt lat="42.0999933" lon="13.5034467"><ele>931.6666666666666</ele><time>2026-05-02T13:47:46.09Z</time></trkpt><trkpt lat="42.1000867" lon="13.5032617"><ele>932.3333333333333</ele><time>2026-05-02T13:47:47.09Z</time></trkpt><trkpt lat="42.1001767" lon="13.50306"><ele>933.0</ele><time>2026-05-02T13:47:48.09Z</time></trkpt><trkpt lat="42.100275" lon="13.5028617"><ele>936.3333333333333</ele><time>2026-05-02T13:47:49.089Z</time></trkpt><trkpt lat="42.1003783" lon="13.5026583"><ele>939.6666666666666</ele><time>2026-05-02T13:47:50.089Z</time></trkpt><trkpt lat="42.1004867" lon="13.5024617"><ele>943.0</ele><time>2026-05-02T13:47:51.09Z</time></trkpt><trkpt lat="42.1006" lon="13.5022783"><ele>943.0</ele><time>2026-05-02T13:47:52.09Z</time></trkpt><trkpt lat="42.10072" lon="13.502115"><ele>943.0</ele><time>2026-05-02T13:47:53.09Z</time></trkpt><trkpt lat="42.1008417" lon="13.5019633"><ele>943.0</ele><time>2026-05-02T13:47:54.089Z</time></trkpt><trkpt lat="42.10096" lon="13.501825"><ele>944.25</ele><time>2026-05-02T13:47:55.089Z</time></trkpt><trkpt lat="42.1010683" lon="13.5017017"><ele>945.5</ele><time>2026-05-02T13:47:56.09Z</time></trkpt><trkpt lat="42.101155" lon="13.501575"><ele>946.75</ele><time>2026-05-02T13:47:57.089Z</time></trkpt><trkpt lat="42.1012317" lon="13.501435"><ele>948.0</ele><time>2026-05-02T13:47:58.089Z</time></trkpt><trkpt lat="42.1013017" lon="13.5013083"><ele>949.0</ele><time>2026-05-02T13:47:59.09Z</time></trkpt><trkpt lat="42.1013667" lon="13.5012"><ele>950.0</ele><time>2026-05-02T13:48:00.089Z</time></trkpt><trkpt lat="42.10142" lon="13.501125"><ele>951.0</ele><time>2026-05-02T13:48:01.09Z</time></trkpt><trkpt lat="42.1015067" lon="13.501085"><ele>952.0</ele><time>2026-05-02T13:48:03.09Z</time></trkpt><trkpt lat="42.1015767" lon="13.5012267"><ele>953.0</ele><time>2026-05-02T13:48:05.09Z</time></trkpt><trkpt lat="42.1016" lon="13.50137"><ele>953.0</ele><time>2026-05-02T13:48:06.09Z</time></trkpt><trkpt lat="42.1016217" lon="13.50153"><ele>953.0</ele><time>2026-05-02T13:48:07.09Z</time></trkpt><trkpt lat="42.1016483" lon="13.501705"><ele>953.0</ele><time>2026-05-02T13:48:08.09Z</time></trkpt><trkpt lat="42.1016983" lon="13.5018933"><ele>953.0</ele><time>2026-05-02T13:48:09.09Z</time></trkpt><trkpt lat="42.1017483" lon="13.5021017"><ele>951.0</ele><time>2026-05-02T13:48:10.09Z</time></trkpt><trkpt lat="42.1018017" lon="13.5022983"><ele>949.0</ele><time>2026-05-02T13:48:11.089Z</time></trkpt><trkpt lat="42.10186" lon="13.5024717"><ele>947.0</ele><time>2026-05-02T13:48:12.09Z</time></trkpt><trkpt lat="42.10192" lon="13.5026233"><ele>945.0</ele><time>2026-05-02T13:48:13.089Z</time></trkpt><trkpt lat="42.1019867" lon="13.5027583"><ele>945.0</ele><time>2026-05-02T13:48:14.09Z</time></trkpt><trkpt lat="42.1020533" lon="13.50287"><ele>945.0</ele><time>2026-05-02T13:48:15.089Z</time></trkpt><trkpt lat="42.1021133" lon="13.50297"><ele>945.0</ele><time>2026-05-02T13:48:16.089Z</time></trkpt><trkpt lat="42.1021633" lon="13.5030667"><ele>945.0</ele><time>2026-05-02T13:48:17.089Z</time></trkpt><trkpt lat="42.102195" lon="13.5031483"><ele>945.0</ele><time>2026-05-02T13:48:18.09Z</time></trkpt><trkpt lat="42.1021867" lon="13.503365"><ele>943.75</ele><time>2026-05-02T13:48:20.09Z</time></trkpt><trkpt lat="42.1021483" lon="13.50349"><ele>942.5</ele><time>2026-05-02T13:48:21.089Z</time></trkpt><trkpt lat="42.1020933" lon="13.5036283"><ele>941.25</ele><time>2026-05-02T13:48:22.09Z</time></trkpt><trkpt lat="42.1020083" lon="13.5038"><ele>940.0</ele><time>2026-05-02T13:48:23.09Z</time></trkpt><trkpt lat="42.1019133" lon="13.5040017"><ele>938.75</ele><time>2026-05-02T13:48:24.089Z</time></trkpt><trkpt lat="42.101825" lon="13.5041933"><ele>937.5</ele><time>2026-05-02T13:48:25.09Z</time></trkpt><trkpt lat="42.1017533" lon="13.5043567"><ele>936.25</ele><time>2026-05-02T13:48:26.09Z</time></trkpt><trkpt lat="42.1016883" lon="13.5045"><ele>935.0</ele><time>2026-05-02T13:48:27.09Z</time></trkpt><trkpt lat="42.1016217" lon="13.5046233"><ele>934.0</ele><time>2026-05-02T13:48:28.09Z</time></trkpt><trkpt lat="42.1015583" lon="13.5047567"><ele>933.0</ele><time>2026-05-02T13:48:29.089Z</time></trkpt><trkpt lat="42.1014983" lon="13.504885"><ele>932.0</ele><time>2026-05-02T13:48:30.089Z</time></trkpt><trkpt lat="42.10145" lon="13.5050333"><ele>931.0</ele><time>2026-05-02T13:48:31.09Z</time></trkpt><trkpt lat="42.1014033" lon="13.5052117"><ele>931.0</ele><time>2026-05-02T13:48:32.09Z</time></trkpt><trkpt lat="42.1013633" lon="13.5054033"><ele>931.0</ele><time>2026-05-02T13:48:33.09Z</time></trkpt><trkpt lat="42.1013267" lon="13.505615"><ele>931.0</ele><time>2026-05-02T13:48:34.09Z</time></trkpt><trkpt lat="42.10129" lon="13.5058367"><ele>931.0</ele><time>2026-05-02T13:48:35.089Z</time></trkpt><trkpt lat="42.1012533" lon="13.50606"><ele>931.0</ele><time>2026-05-02T13:48:36.09Z</time></trkpt><trkpt lat="42.101215" lon="13.5063"><ele>931.0</ele><time>2026-05-02T13:48:37.089Z</time></trkpt><trkpt lat="42.1011883" lon="13.50654"><ele>931.0</ele><time>2026-05-02T13:48:38.09Z</time></trkpt><trkpt lat="42.101165" lon="13.5067633"><ele>931.0</ele><time>2026-05-02T13:48:39.09Z</time></trkpt><trkpt lat="42.1011517" lon="13.506965"><ele>931.0</ele><time>2026-05-02T13:48:40.089Z</time></trkpt><trkpt lat="42.1011467" lon="13.5071417"><ele>931.0</ele><time>2026-05-02T13:48:41.09Z</time></trkpt><trkpt lat="42.1011567" lon="13.5072883"><ele>932.5999999999999</ele><time>2026-05-02T13:48:42.089Z</time></trkpt><trkpt lat="42.101175" lon="13.5074117"><ele>934.1999999999999</ele><time>2026-05-02T13:48:43.089Z</time></trkpt><trkpt lat="42.10119" lon="13.5075233"><ele>935.8000000000001</ele><time>2026-05-02T13:48:44.089Z</time></trkpt><trkpt lat="42.1012" lon="13.50764"><ele>937.4000000000001</ele><time>2026-05-02T13:48:45.089Z</time></trkpt><trkpt lat="42.101185" lon="13.5077767"><ele>939.0</ele><time>2026-05-02T13:48:46.089Z</time></trkpt><trkpt lat="42.1011617" lon="13.5079283"><ele>940.75</ele><time>2026-05-02T13:48:47.09Z</time></trkpt><trkpt lat="42.1011283" lon="13.5080833"><ele>942.5</ele><time>2026-05-02T13:48:48.089Z</time></trkpt><trkpt lat="42.1010967" lon="13.5082467"><ele>944.25</ele><time>2026-05-02T13:48:49.09Z</time></trkpt><trkpt lat="42.1010733" lon="13.5083933"><ele>946.0</ele><time>2026-05-02T13:48:50.09Z</time></trkpt><trkpt lat="42.1010533" lon="13.5085533"><ele>946.0</ele><time>2026-05-02T13:48:51.089Z</time></trkpt><trkpt lat="42.1010417" lon="13.50871"><ele>945.9999999999999</ele><time>2026-05-02T13:48:52.089Z</time></trkpt><trkpt lat="42.10102" lon="13.5088567"><ele>945.9999999999999</ele><time>2026-05-02T13:48:53.089Z</time></trkpt><trkpt lat="42.1009817" lon="13.508995"><ele>946.0</ele><time>2026-05-02T13:48:54.089Z</time></trkpt><trkpt lat="42.100935" lon="13.5091267"><ele>946.0</ele><time>2026-05-02T13:48:55.09Z</time></trkpt><trkpt lat="42.1008867" lon="13.5092533"><ele>947.6666666666666</ele><time>2026-05-02T13:48:56.09Z</time></trkpt><trkpt lat="42.1008383" lon="13.5093567"><ele>949.3333333333333</ele><time>2026-05-02T13:48:57.089Z</time></trkpt><trkpt lat="42.1007933" lon="13.5094367"><ele>951.0</ele><time>2026-05-02T13:48:58.09Z</time></trkpt><trkpt lat="42.1007367" lon="13.5095533"><ele>952.6666666666667</ele><time>2026-05-02T13:49:00.089Z</time></trkpt><trkpt lat="42.1007633" lon="13.509635"><ele>954.3333333333334</ele><time>2026-05-02T13:49:04.09Z</time></trkpt><trkpt lat="42.1008317" lon="13.509545"><ele>956.0</ele><time>2026-05-02T13:49:06.09Z</time></trkpt><trkpt lat="42.100875" lon="13.509455"><ele>956.0</ele><time>2026-05-02T13:49:07.09Z</time></trkpt><trkpt lat="42.100935" lon="13.50934"><ele>956.0</ele><time>2026-05-02T13:49:08.089Z</time></trkpt><trkpt lat="42.101025" lon="13.5091817"><ele>956.0</ele><time>2026-05-02T13:49:09.089Z</time></trkpt><trkpt lat="42.1011517" lon="13.5090133"><ele>956.0</ele><time>2026-05-02T13:49:10.089Z</time></trkpt><trkpt lat="42.1012917" lon="13.5088433"><ele>955.0</ele><time>2026-05-02T13:49:11.089Z</time></trkpt><trkpt lat="42.1014317" lon="13.508675"><ele>954.0</ele><time>2026-05-02T13:49:12.089Z</time></trkpt><trkpt lat="42.1015783" lon="13.508515"><ele>953.0</ele><time>2026-05-02T13:49:13.089Z</time></trkpt><trkpt lat="42.1017267" lon="13.5083383"><ele>953.0</ele><time>2026-05-02T13:49:14.09Z</time></trkpt><trkpt lat="42.1018733" lon="13.5081433"><ele>953.0</ele><time>2026-05-02T13:49:15.089Z</time></trkpt><trkpt lat="42.1020217" lon="13.5079283"><ele>953.0</ele><time>2026-05-02T13:49:16.09Z</time></trkpt><trkpt lat="42.1021633" lon="13.507705"><ele>951.0</ele><time>2026-05-02T13:49:17.089Z</time></trkpt><trkpt lat="42.1022933" lon="13.5074733"><ele>949.0</ele><time>2026-05-02T13:49:18.089Z</time></trkpt><trkpt lat="42.1024117" lon="13.507225"><ele>947.0</ele><time>2026-05-02T13:49:19.089Z</time></trkpt><trkpt lat="42.1025133" lon="13.5069633"><ele>953.0</ele><time>2026-05-02T13:49:20.089Z</time></trkpt><trkpt lat="42.1026133" lon="13.50669"><ele>959.0</ele><time>2026-05-02T13:49:21.089Z</time></trkpt><trkpt lat="42.1027067" lon="13.506405"><ele>956.3333333333334</ele><time>2026-05-02T13:49:22.089Z</time></trkpt><trkpt lat="42.1027917" lon="13.506135"><ele>953.6666666666667</ele><time>2026-05-02T13:49:23.089Z</time></trkpt><trkpt lat="42.1028617" lon="13.505875"><ele>951.0</ele><time>2026-05-02T13:49:24.09Z</time></trkpt><trkpt lat="42.10293" lon="13.5056317"><ele>951.0</ele><time>2026-05-02T13:49:25.09Z</time></trkpt><trkpt lat="42.103" lon="13.5054183"><ele>951.0</ele><time>2026-05-02T13:49:26.09Z</time></trkpt><trkpt lat="42.1030783" lon="13.5052333"><ele>951.0</ele><time>2026-05-02T13:49:27.09Z</time></trkpt><trkpt lat="42.1031717" lon="13.505065"><ele>956.3333333333333</ele><time>2026-05-02T13:49:28.09Z</time></trkpt><trkpt lat="42.103285" lon="13.5049367"><ele>961.6666666666666</ele><time>2026-05-02T13:49:29.089Z</time></trkpt><trkpt lat="42.10342" lon="13.50483"><ele>967.0</ele><time>2026-05-02T13:49:30.089Z</time></trkpt><trkpt lat="42.10357" lon="13.5047367"><ele>967.0</ele><time>2026-05-02T13:49:31.089Z</time></trkpt><trkpt lat="42.1037267" lon="13.5046417"><ele>967.0</ele><time>2026-05-02T13:49:32.09Z</time></trkpt><trkpt lat="42.10388" lon="13.5045367"><ele>967.0</ele><time>2026-05-02T13:49:33.09Z</time></trkpt><trkpt lat="42.1040317" lon="13.5044067"><ele>968.3333333333333</ele><time>2026-05-02T13:49:34.09Z</time></trkpt><trkpt lat="42.10418" lon="13.5042467"><ele>969.6666666666667</ele><time>2026-05-02T13:49:35.089Z</time></trkpt><trkpt lat="42.104315" lon="13.50407"><ele>971.0</ele><time>2026-05-02T13:49:36.089Z</time></trkpt><trkpt lat="42.1044383" lon="13.503865"><ele>970.0</ele><time>2026-05-02T13:49:37.09Z</time></trkpt><trkpt lat="42.10454" lon="13.5036333"><ele>969.0</ele><time>2026-05-02T13:49:38.09Z</time></trkpt><trkpt lat="42.1046433" lon="13.5033967"><ele>968.0</ele><time>2026-05-02T13:49:39.089Z</time></trkpt><trkpt lat="42.1047467" lon="13.50316"><ele>968.3333333333334</ele><time>2026-05-02T13:49:40.089Z</time></trkpt><trkpt lat="42.1048417" lon="13.50291"><ele>968.6666666666667</ele><time>2026-05-02T13:49:41.09Z</time></trkpt><trkpt lat="42.10493" lon="13.5026467"><ele>969.0</ele><time>2026-05-02T13:49:42.089Z</time></trkpt><trkpt lat="42.105005" lon="13.5023733"><ele>974.3333333333333</ele><time>2026-05-02T13:49:43.09Z</time></trkpt><trkpt lat="42.1050833" lon="13.502095"><ele>979.6666666666666</ele><time>2026-05-02T13:49:44.089Z</time></trkpt><trkpt lat="42.10516" lon="13.501805"><ele>985.0</ele><time>2026-05-02T13:49:45.09Z</time></trkpt><trkpt lat="42.1052333" lon="13.5015167"><ele>984.5</ele><time>2026-05-02T13:49:46.09Z</time></trkpt><trkpt lat="42.105305" lon="13.50123"><ele>984.0</ele><time>2026-05-02T13:49:47.09Z</time></trkpt><trkpt lat="42.1053583" lon="13.500935"><ele>984.0</ele><time>2026-05-02T13:49:48.089Z</time></trkpt><trkpt lat="42.1053933" lon="13.5006733"><ele>984.0</ele><time>2026-05-02T13:49:49.09Z</time></trkpt><trkpt lat="42.1054133" lon="13.50045"><ele>984.0</ele><time>2026-05-02T13:49:50.089Z</time></trkpt><trkpt lat="42.105425" lon="13.500235"><ele>986.6666666666667</ele><time>2026-05-02T13:49:51.089Z</time></trkpt><trkpt lat="42.1053983" lon="13.50003"><ele>989.3333333333334</ele><time>2026-05-02T13:49:52.09Z</time></trkpt><trkpt lat="42.105365" lon="13.4998367"><ele>992.0</ele><time>2026-05-02T13:49:53.089Z</time></trkpt><trkpt lat="42.10529" lon="13.4996583"><ele>992.0</ele><time>2026-05-02T13:49:54.09Z</time></trkpt><trkpt lat="42.1051717" lon="13.4994883"><ele>992.0</ele><time>2026-05-02T13:49:55.09Z</time></trkpt><trkpt lat="42.1050417" lon="13.4993283"><ele>992.0</ele><time>2026-05-02T13:49:56.089Z</time></trkpt><trkpt lat="42.104895" lon="13.499165"><ele>992.0</ele><time>2026-05-02T13:49:57.09Z</time></trkpt><trkpt lat="42.1047683" lon="13.499"><ele>992.0</ele><time>2026-05-02T13:49:58.09Z</time></trkpt><trkpt lat="42.1046633" lon="13.49883"><ele>992.0</ele><time>2026-05-02T13:49:59.089Z</time></trkpt><trkpt lat="42.1045783" lon="13.4986583"><ele>993.5</ele><time>2026-05-02T13:50:00.09Z</time></trkpt><trkpt lat="42.1045317" lon="13.498465"><ele>995.0</ele><time>2026-05-02T13:50:01.089Z</time></trkpt><trkpt lat="42.10452" lon="13.498275"><ele>996.5</ele><time>2026-05-02T13:50:02.089Z</time></trkpt><trkpt lat="42.1045467" lon="13.4980983"><ele>998.0</ele><time>2026-05-02T13:50:03.09Z</time></trkpt><trkpt lat="42.1045983" lon="13.49794"><ele>997.0</ele><time>2026-05-02T13:50:04.09Z</time></trkpt><trkpt lat="42.1046783" lon="13.4978"><ele>996.0</ele><time>2026-05-02T13:50:05.089Z</time></trkpt><trkpt lat="42.1047833" lon="13.497675"><ele>995.0</ele><time>2026-05-02T13:50:06.09Z</time></trkpt><trkpt lat="42.1049117" lon="13.49755"><ele>994.0</ele><time>2026-05-02T13:50:07.089Z</time></trkpt><trkpt lat="42.1050517" lon="13.4974217"><ele>996.3333333333333</ele><time>2026-05-02T13:50:08.089Z</time></trkpt><trkpt lat="42.1052017" lon="13.4973"><ele>998.6666666666667</ele><time>2026-05-02T13:50:09.09Z</time></trkpt><trkpt lat="42.105355" lon="13.4971683"><ele>1001.0</ele><time>2026-05-02T13:50:10.09Z</time></trkpt><trkpt lat="42.1055167" lon="13.497035"><ele>1001.0</ele><time>2026-05-02T13:50:11.089Z</time></trkpt><trkpt lat="42.1056883" lon="13.4968967"><ele>1001.0</ele><time>2026-05-02T13:50:12.09Z</time></trkpt><trkpt lat="42.105865" lon="13.4967533"><ele>1001.0</ele><time>2026-05-02T13:50:13.089Z</time></trkpt><trkpt lat="42.1060367" lon="13.49661"><ele>1003.0</ele><time>2026-05-02T13:50:14.09Z</time></trkpt><trkpt lat="42.1061933" lon="13.4964733"><ele>1005.0</ele><time>2026-05-02T13:50:15.089Z</time></trkpt><trkpt lat="42.1063267" lon="13.496325"><ele>1007.0</ele><time>2026-05-02T13:50:16.09Z</time></trkpt><trkpt lat="42.1064483" lon="13.4961533"><ele>1007.0</ele><time>2026-05-02T13:50:17.09Z</time></trkpt><trkpt lat="42.10655" lon="13.4959467"><ele>1007.0</ele><time>2026-05-02T13:50:18.09Z</time></trkpt><trkpt lat="42.1066283" lon="13.495715"><ele>1007.0</ele><time>2026-05-02T13:50:19.089Z</time></trkpt><trkpt lat="42.1066917" lon="13.4954617"><ele>1010.6666666666667</ele><time>2026-05-02T13:50:20.09Z</time></trkpt><trkpt lat="42.1067383" lon="13.4952"><ele>1014.3333333333333</ele><time>2026-05-02T13:50:21.089Z</time></trkpt><trkpt lat="42.106785" lon="13.4949367"><ele>1018.0</ele><time>2026-05-02T13:50:22.089Z</time></trkpt><trkpt lat="42.1068433" lon="13.4946867"><ele>1017.3333333333333</ele><time>2026-05-02T13:50:23.089Z</time></trkpt><trkpt lat="42.1069167" lon="13.4944433"><ele>1016.6666666666667</ele><time>2026-05-02T13:50:24.09Z</time></trkpt><trkpt lat="42.1070167" lon="13.4942233"><ele>1016.0</ele><time>2026-05-02T13:50:25.09Z</time></trkpt><trkpt lat="42.1071383" lon="13.4940267"><ele>1016.0</ele><time>2026-05-02T13:50:26.089Z</time></trkpt><trkpt lat="42.1072717" lon="13.4938383"><ele>1016.0</ele><time>2026-05-02T13:50:27.09Z</time></trkpt><trkpt lat="42.1073983" lon="13.493665"><ele>1016.0</ele><time>2026-05-02T13:50:28.09Z</time></trkpt><trkpt lat="42.1075083" lon="13.4935117"><ele>1019.5</ele><time>2026-05-02T13:50:29.089Z</time></trkpt><trkpt lat="42.107595" lon="13.4933633"><ele>1023.0</ele><time>2026-05-02T13:50:30.09Z</time></trkpt><trkpt lat="42.1076533" lon="13.4931983"><ele>1026.5</ele><time>2026-05-02T13:50:31.09Z</time></trkpt><trkpt lat="42.1076833" lon="13.49302"><ele>1030.0</ele><time>2026-05-02T13:50:32.089Z</time></trkpt><trkpt lat="42.107675" lon="13.4928233"><ele>1032.0</ele><time>2026-05-02T13:50:33.089Z</time></trkpt><trkpt lat="42.1076317" lon="13.4926017"><ele>1034.0</ele><time>2026-05-02T13:50:34.09Z</time></trkpt><trkpt lat="42.1075767" lon="13.49238"><ele>1036.0</ele><time>2026-05-02T13:50:35.09Z</time></trkpt><trkpt lat="42.107515" lon="13.4921383"><ele>1039.3333333333333</ele><time>2026-05-02T13:50:36.09Z</time></trkpt><trkpt lat="42.1074517" lon="13.4919267"><ele>1042.6666666666667</ele><time>2026-05-02T13:50:37.089Z</time></trkpt><trkpt lat="42.10737" lon="13.49173"><ele>1046.0</ele><time>2026-05-02T13:50:38.09Z</time></trkpt><trkpt lat="42.1072633" lon="13.49155"><ele>1041.75</ele><time>2026-05-02T13:50:39.09Z</time></trkpt><trkpt lat="42.1071733" lon="13.491375"><ele>1037.5</ele><time>2026-05-02T13:50:40.09Z</time></trkpt><trkpt lat="42.107105" lon="13.4912067"><ele>1033.25</ele><time>2026-05-02T13:50:41.09Z</time></trkpt><trkpt lat="42.1070717" lon="13.4910183"><ele>1029.0</ele><time>2026-05-02T13:50:42.089Z</time></trkpt><trkpt lat="42.1070717" lon="13.4908183"><ele>1029.0</ele><time>2026-05-02T13:50:43.089Z</time></trkpt><trkpt lat="42.1071017" lon="13.4905917"><ele>1029.0</ele><time>2026-05-02T13:50:44.089Z</time></trkpt><trkpt lat="42.10714" lon="13.490365"><ele>1029.0</ele><time>2026-05-02T13:50:45.089Z</time></trkpt><trkpt lat="42.1071883" lon="13.4901283"><ele>1030.3333333333333</ele><time>2026-05-02T13:50:46.09Z</time></trkpt><trkpt lat="42.1072333" lon="13.4898917"><ele>1031.6666666666665</ele><time>2026-05-02T13:50:47.09Z</time></trkpt><trkpt lat="42.10728" lon="13.4896483"><ele>1033.0</ele><time>2026-05-02T13:50:48.089Z</time></trkpt><trkpt lat="42.1073317" lon="13.4894"><ele>1035.0</ele><time>2026-05-02T13:50:49.09Z</time></trkpt><trkpt lat="42.107385" lon="13.48917"><ele>1037.0</ele><time>2026-05-02T13:50:50.09Z</time></trkpt><trkpt lat="42.10745" lon="13.4889733"><ele>1039.0</ele><time>2026-05-02T13:50:51.089Z</time></trkpt><trkpt lat="42.1075467" lon="13.4888017"><ele>1041.6666666666665</ele><time>2026-05-02T13:50:52.089Z</time></trkpt><trkpt lat="42.1076683" lon="13.4886583"><ele>1044.3333333333333</ele><time>2026-05-02T13:50:53.09Z</time></trkpt><trkpt lat="42.1078067" lon="13.48855"><ele>1047.0</ele><time>2026-05-02T13:50:54.09Z</time></trkpt><trkpt lat="42.1079717" lon="13.4884717"><ele>1047.0</ele><time>2026-05-02T13:50:55.089Z</time></trkpt><trkpt lat="42.1081483" lon="13.488405"><ele>1047.0</ele><time>2026-05-02T13:50:56.09Z</time></trkpt><trkpt lat="42.1083317" lon="13.48832"><ele>1047.0</ele><time>2026-05-02T13:50:57.089Z</time></trkpt><trkpt lat="42.1085117" lon="13.4881967"><ele>1050.3333333333333</ele><time>2026-05-02T13:50:58.09Z</time></trkpt><trkpt lat="42.10868" lon="13.48804"><ele>1053.6666666666665</ele><time>2026-05-02T13:50:59.09Z</time></trkpt><trkpt lat="42.1088333" lon="13.4878367"><ele>1057.0</ele><time>2026-05-02T13:51:00.09Z</time></trkpt><trkpt lat="42.1089733" lon="13.4876083"><ele>1061.0</ele><time>2026-05-02T13:51:01.089Z</time></trkpt><trkpt lat="42.1091017" lon="13.48737"><ele>1065.0</ele><time>2026-05-02T13:51:02.09Z</time></trkpt><trkpt lat="42.1092217" lon="13.4871233"><ele>1069.0</ele><time>2026-05-02T13:51:03.09Z</time></trkpt><trkpt lat="42.1093433" lon="13.4868667"><ele>1069.0</ele><time>2026-05-02T13:51:04.089Z</time></trkpt><trkpt lat="42.1094667" lon="13.4866183"><ele>1069.0</ele><time>2026-05-02T13:51:05.09Z</time></trkpt><trkpt lat="42.1095883" lon="13.486375"><ele>1069.0</ele><time>2026-05-02T13:51:06.089Z</time></trkpt><trkpt lat="42.1097083" lon="13.4861383"><ele>1067.3333333333333</ele><time>2026-05-02T13:51:07.09Z</time></trkpt><trkpt lat="42.1098183" lon="13.4858983"><ele>1065.6666666666667</ele><time>2026-05-02T13:51:08.09Z</time></trkpt><trkpt lat="42.109915" lon="13.4856717"><ele>1064.0</ele><time>2026-05-02T13:51:09.089Z</time></trkpt><trkpt lat="42.1099833" lon="13.4854367"><ele>1070.3333333333335</ele><time>2026-05-02T13:51:10.089Z</time></trkpt><trkpt lat="42.1100133" lon="13.4851833"><ele>1076.6666666666667</ele><time>2026-05-02T13:51:11.089Z</time></trkpt><trkpt lat="42.110005" lon="13.4849283"><ele>1083.0</ele><time>2026-05-02T13:51:12.09Z</time></trkpt><trkpt lat="42.1099817" lon="13.484665"><ele>1085.0</ele><time>2026-05-02T13:51:13.09Z</time></trkpt><trkpt lat="42.1099517" lon="13.4843933"><ele>1087.0</ele><time>2026-05-02T13:51:14.09Z</time></trkpt><trkpt lat="42.1099367" lon="13.484125"><ele>1089.0</ele><time>2026-05-02T13:51:15.09Z</time></trkpt><trkpt lat="42.1099433" lon="13.4838583"><ele>1088.6666666666667</ele><time>2026-05-02T13:51:16.089Z</time></trkpt><trkpt lat="42.109985" lon="13.4835967"><ele>1088.3333333333335</ele><time>2026-05-02T13:51:17.09Z</time></trkpt><trkpt lat="42.1100667" lon="13.483345"><ele>1088.0</ele><time>2026-05-02T13:51:18.089Z</time></trkpt><trkpt lat="42.1101817" lon="13.483115"><ele>1085.6666666666667</ele><time>2026-05-02T13:51:19.089Z</time></trkpt><trkpt lat="42.1103183" lon="13.4828917"><ele>1083.3333333333333</ele><time>2026-05-02T13:51:20.09Z</time></trkpt><trkpt lat="42.110475" lon="13.4826983"><ele>1081.0</ele><time>2026-05-02T13:51:21.089Z</time></trkpt><trkpt lat="42.1106383" lon="13.48249"><ele>1086.0</ele><time>2026-05-02T13:51:22.09Z</time></trkpt><trkpt lat="42.1107967" lon="13.48229"><ele>1091.0</ele><time>2026-05-02T13:51:23.089Z</time></trkpt><trkpt lat="42.1109233" lon="13.482095"><ele>1096.0</ele><time>2026-05-02T13:51:24.089Z</time></trkpt><trkpt lat="42.1110233" lon="13.4818783"><ele>1096.0</ele><time>2026-05-02T13:51:25.089Z</time></trkpt><trkpt lat="42.111105" lon="13.4816283"><ele>1096.0</ele><time>2026-05-02T13:51:26.089Z</time></trkpt><trkpt lat="42.1111683" lon="13.4813617"><ele>1096.0</ele><time>2026-05-02T13:51:27.089Z</time></trkpt><trkpt lat="42.1112183" lon="13.48108"><ele>1096.3333333333333</ele><time>2026-05-02T13:51:28.089Z</time></trkpt><trkpt lat="42.111255" lon="13.4807933"><ele>1096.6666666666667</ele><time>2026-05-02T13:51:29.089Z</time></trkpt><trkpt lat="42.1112967" lon="13.4805117"><ele>1097.0</ele><time>2026-05-02T13:51:30.089Z</time></trkpt><trkpt lat="42.1113183" lon="13.48022"><ele>1097.6666666666667</ele><time>2026-05-02T13:51:31.089Z</time></trkpt><trkpt lat="42.1113167" lon="13.4799217"><ele>1098.3333333333333</ele><time>2026-05-02T13:51:32.09Z</time></trkpt><trkpt lat="42.1112867" lon="13.4796483"><ele>1099.0</ele><time>2026-05-02T13:51:33.089Z</time></trkpt><trkpt lat="42.111225" lon="13.4793733"><ele>1102.0</ele><time>2026-05-02T13:51:34.09Z</time></trkpt><trkpt lat="42.1111533" lon="13.4791083"><ele>1105.0</ele><time>2026-05-02T13:51:35.089Z</time></trkpt><trkpt lat="42.111085" lon="13.4788383"><ele>1108.0</ele><time>2026-05-02T13:51:36.089Z</time></trkpt><trkpt lat="42.1110217" lon="13.4785717"><ele>1108.6666666666665</ele><time>2026-05-02T13:51:37.09Z</time></trkpt><trkpt lat="42.1109817" lon="13.47831"><ele>1109.3333333333333</ele><time>2026-05-02T13:51:38.089Z</time></trkpt><trkpt lat="42.1109733" lon="13.4780517"><ele>1110.0</ele><time>2026-05-02T13:51:39.089Z</time></trkpt><trkpt lat="42.110965" lon="13.4777933"><ele>1110.0</ele><time>2026-05-02T13:51:40.09Z</time></trkpt><trkpt lat="42.1109267" lon="13.47753"><ele>1110.0</ele><time>2026-05-02T13:51:41.09Z</time></trkpt><trkpt lat="42.110865" lon="13.4772767"><ele>1110.0</ele><time>2026-05-02T13:51:42.089Z</time></trkpt><trkpt lat="42.1107733" lon="13.477035"><ele>1105.6666666666667</ele><time>2026-05-02T13:51:43.089Z</time></trkpt><trkpt lat="42.1106483" lon="13.4768"><ele>1101.3333333333335</ele><time>2026-05-02T13:51:44.089Z</time></trkpt><trkpt lat="42.1105183" lon="13.4765817"><ele>1097.0</ele><time>2026-05-02T13:51:45.09Z</time></trkpt><trkpt lat="42.1104033" lon="13.4763517"><ele>1098.6666666666667</ele><time>2026-05-02T13:51:46.09Z</time></trkpt><trkpt lat="42.1103" lon="13.4761117"><ele>1100.3333333333333</ele><time>2026-05-02T13:51:47.09Z</time></trkpt><trkpt lat="42.110225" lon="13.4758567"><ele>1102.0</ele><time>2026-05-02T13:51:48.089Z</time></trkpt><trkpt lat="42.11017" lon="13.4755767"><ele>1101.6666666666665</ele><time>2026-05-02T13:51:49.088Z</time></trkpt><trkpt lat="42.1101233" lon="13.4753117"><ele>1101.3333333333333</ele><time>2026-05-02T13:51:50.089Z</time></trkpt><trkpt lat="42.110085" lon="13.4750433"><ele>1101.0</ele><time>2026-05-02T13:51:51.089Z</time></trkpt><trkpt lat="42.1100133" lon="13.4747767"><ele>1102.0</ele><time>2026-05-02T13:51:52.088Z</time></trkpt><trkpt lat="42.1099167" lon="13.4745183"><ele>1103.0</ele><time>2026-05-02T13:51:53.089Z</time></trkpt><trkpt lat="42.1098183" lon="13.4742467"><ele>1104.0</ele><time>2026-05-02T13:51:54.088Z</time></trkpt><trkpt lat="42.1096967" lon="13.4739783"><ele>1099.0</ele><time>2026-05-02T13:51:55.089Z</time></trkpt><trkpt lat="42.1095717" lon="13.4737083"><ele>1094.0</ele><time>2026-05-02T13:51:56.089Z</time></trkpt><trkpt lat="42.1094517" lon="13.47342"><ele>1094.0</ele><time>2026-05-02T13:51:57.088Z</time></trkpt><trkpt lat="42.1093383" lon="13.4731317"><ele>1094.0</ele><time>2026-05-02T13:51:58.089Z</time></trkpt><trkpt lat="42.109235" lon="13.4728367"><ele>1095.5</ele><time>2026-05-02T13:51:59.089Z</time></trkpt><trkpt lat="42.1091433" lon="13.4725333"><ele>1097.0</ele><time>2026-05-02T13:52:00.088Z</time></trkpt><trkpt lat="42.1090583" lon="13.4722267"><ele>1093.5</ele><time>2026-05-02T13:52:01.088Z</time></trkpt><trkpt lat="42.108985" lon="13.4719267"><ele>1090.0</ele><time>2026-05-02T13:52:02.089Z</time></trkpt><trkpt lat="42.1089233" lon="13.4716383"><ele>1090.0</ele><time>2026-05-02T13:52:03.088Z</time></trkpt><trkpt lat="42.10887" lon="13.47137"><ele>1090.0</ele><time>2026-05-02T13:52:04.089Z</time></trkpt><trkpt lat="42.1088333" lon="13.4711033"><ele>1090.0</ele><time>2026-05-02T13:52:05.088Z</time></trkpt><trkpt lat="42.1088167" lon="13.470835"><ele>1090.3333333333333</ele><time>2026-05-02T13:52:06.088Z</time></trkpt><trkpt lat="42.108825" lon="13.47057"><ele>1090.6666666666667</ele><time>2026-05-02T13:52:07.089Z</time></trkpt><trkpt lat="42.1088283" lon="13.470285"><ele>1091.0</ele><time>2026-05-02T13:52:08.089Z</time></trkpt><trkpt lat="42.1088133" lon="13.4700083"><ele>1089.6666666666667</ele><time>2026-05-02T13:52:09.088Z</time></trkpt><trkpt lat="42.1087683" lon="13.4697517"><ele>1088.3333333333333</ele><time>2026-05-02T13:52:10.088Z</time></trkpt><trkpt lat="42.1087067" lon="13.4694833"><ele>1087.0</ele><time>2026-05-02T13:52:11.089Z</time></trkpt><trkpt lat="42.108625" lon="13.4692233"><ele>1086.5</ele><time>2026-05-02T13:52:12.088Z</time></trkpt><trkpt lat="42.1085233" lon="13.468945"><ele>1086.0</ele><time>2026-05-02T13:52:13.089Z</time></trkpt><trkpt lat="42.1084117" lon="13.468655"><ele>1084.0</ele><time>2026-05-02T13:52:14.088Z</time></trkpt><trkpt lat="42.1083067" lon="13.46837"><ele>1082.0</ele><time>2026-05-02T13:52:15.088Z</time></trkpt><trkpt lat="42.1081983" lon="13.4680833"><ele>1085.0</ele><time>2026-05-02T13:52:16.088Z</time></trkpt><trkpt lat="42.1080883" lon="13.4677933"><ele>1088.0</ele><time>2026-05-02T13:52:17.089Z</time></trkpt><trkpt lat="42.1079833" lon="13.4675"><ele>1088.0</ele><time>2026-05-02T13:52:18.089Z</time></trkpt><trkpt lat="42.10788" lon="13.46721"><ele>1088.0</ele><time>2026-05-02T13:52:19.088Z</time></trkpt><trkpt lat="42.1077767" lon="13.466915"><ele>1089.6666666666667</ele><time>2026-05-02T13:52:20.088Z</time></trkpt><trkpt lat="42.1076667" lon="13.46664"><ele>1091.3333333333333</ele><time>2026-05-02T13:52:21.089Z</time></trkpt><trkpt lat="42.1075733" lon="13.466375"><ele>1093.0</ele><time>2026-05-02T13:52:22.088Z</time></trkpt><trkpt lat="42.1074933" lon="13.46613"><ele>1094.0</ele><time>2026-05-02T13:52:23.088Z</time></trkpt><trkpt lat="42.1074317" lon="13.465895"><ele>1095.0</ele><time>2026-05-02T13:52:24.088Z</time></trkpt><trkpt lat="42.1073933" lon="13.4656583"><ele>1096.0</ele><time>2026-05-02T13:52:25.089Z</time></trkpt><trkpt lat="42.1073833" lon="13.4654117"><ele>1096.0</ele><time>2026-05-02T13:52:26.089Z</time></trkpt><trkpt lat="42.1074033" lon="13.4651683"><ele>1096.0</ele><time>2026-05-02T13:52:27.088Z</time></trkpt><trkpt lat="42.1074483" lon="13.464925"><ele>1096.0</ele><time>2026-05-02T13:52:28.088Z</time></trkpt><trkpt lat="42.107525" lon="13.464705"><ele>1097.0</ele><time>2026-05-02T13:52:29.088Z</time></trkpt><trkpt lat="42.1076317" lon="13.4645017"><ele>1098.0</ele><time>2026-05-02T13:52:30.089Z</time></trkpt><trkpt lat="42.10775" lon="13.4642917"><ele>1099.0</ele><time>2026-05-02T13:52:31.088Z</time></trkpt><trkpt lat="42.1078767" lon="13.4640717"><ele>1099.0</ele><time>2026-05-02T13:52:32.088Z</time></trkpt><trkpt lat="42.1079983" lon="13.4638483"><ele>1099.0</ele><time>2026-05-02T13:52:33.089Z</time></trkpt><trkpt lat="42.108125" lon="13.4636183"><ele>1099.0</ele><time>2026-05-02T13:52:34.088Z</time></trkpt><trkpt lat="42.1082433" lon="13.4633933"><ele>1101.6666666666665</ele><time>2026-05-02T13:52:35.088Z</time></trkpt><trkpt lat="42.1083533" lon="13.463175"><ele>1104.3333333333333</ele><time>2026-05-02T13:52:36.089Z</time></trkpt><trkpt lat="42.1084517" lon="13.46295"><ele>1107.0</ele><time>2026-05-02T13:52:37.088Z</time></trkpt><trkpt lat="42.1085283" lon="13.4627333"><ele>1108.3333333333333</ele><time>2026-05-02T13:52:38.088Z</time></trkpt><trkpt lat="42.1085917" lon="13.4625317"><ele>1109.6666666666665</ele><time>2026-05-02T13:52:39.089Z</time></trkpt><trkpt lat="42.108645" lon="13.46234"><ele>1111.0</ele><time>2026-05-02T13:52:40.088Z</time></trkpt><trkpt lat="42.108695" lon="13.46216"><ele>1111.25</ele><time>2026-05-02T13:52:41.088Z</time></trkpt><trkpt lat="42.1087367" lon="13.4619833"><ele>1111.5</ele><time>2026-05-02T13:52:42.088Z</time></trkpt><trkpt lat="42.1087717" lon="13.4618117"><ele>1111.75</ele><time>2026-05-02T13:52:43.088Z</time></trkpt><trkpt lat="42.1088117" lon="13.4616333"><ele>1112.0</ele><time>2026-05-02T13:52:44.088Z</time></trkpt><trkpt lat="42.10886" lon="13.4614417"><ele>1109.6666666666667</ele><time>2026-05-02T13:52:45.088Z</time></trkpt><trkpt lat="42.1089133" lon="13.4612483"><ele>1107.3333333333333</ele><time>2026-05-02T13:52:46.088Z</time></trkpt><trkpt lat="42.1089833" lon="13.4610483"><ele>1105.0</ele><time>2026-05-02T13:52:47.089Z</time></trkpt><trkpt lat="42.109075" lon="13.4608567"><ele>1106.6666666666665</ele><time>2026-05-02T13:52:48.088Z</time></trkpt><trkpt lat="42.1091917" lon="13.4606717"><ele>1108.3333333333333</ele><time>2026-05-02T13:52:49.088Z</time></trkpt><trkpt lat="42.1093167" lon="13.4604967"><ele>1110.0</ele><time>2026-05-02T13:52:50.088Z</time></trkpt><trkpt lat="42.1094317" lon="13.4603517"><ele>1107.5</ele><time>2026-05-02T13:52:51.088Z</time></trkpt><trkpt lat="42.1095367" lon="13.460215"><ele>1105.0</ele><time>2026-05-02T13:52:52.088Z</time></trkpt><trkpt lat="42.1096417" lon="13.4600933"><ele>1102.5</ele><time>2026-05-02T13:52:53.088Z</time></trkpt><trkpt lat="42.1097333" lon="13.459985"><ele>1100.0</ele><time>2026-05-02T13:52:54.089Z</time></trkpt><trkpt lat="42.1098083" lon="13.459895"><ele>1100.0</ele><time>2026-05-02T13:52:55.089Z</time></trkpt><trkpt lat="42.10987" lon="13.4598133"><ele>1100.0</ele><time>2026-05-02T13:52:56.089Z</time></trkpt><trkpt lat="42.1099217" lon="13.4597467"><ele>1100.0</ele><time>2026-05-02T13:52:57.089Z</time></trkpt><trkpt lat="42.1099767" lon="13.45968"><ele>1100.0</ele><time>2026-05-02T13:52:59.089Z</time></trkpt><trkpt lat="42.1098767" lon="13.459725"><ele>1100.0</ele><time>2026-05-02T13:53:05.089Z</time></trkpt><trkpt lat="42.109815" lon="13.4598017"><ele>1100.0</ele><time>2026-05-02T13:53:06.089Z</time></trkpt><trkpt lat="42.1097383" lon="13.4598983"><ele>1100.0</ele><time>2026-05-02T13:53:07.089Z</time></trkpt><trkpt lat="42.109645" lon="13.460015"><ele>1100.0</ele><time>2026-05-02T13:53:08.089Z</time></trkpt><trkpt lat="42.1095467" lon="13.4601517"><ele>1100.0</ele><time>2026-05-02T13:53:09.089Z</time></trkpt><trkpt lat="42.1094333" lon="13.4603017"><ele>1100.0</ele><time>2026-05-02T13:53:10.089Z</time></trkpt><trkpt lat="42.1093167" lon="13.4604533"><ele>1101.6666666666667</ele><time>2026-05-02T13:53:11.089Z</time></trkpt><trkpt lat="42.109195" lon="13.460605"><ele>1103.3333333333333</ele><time>2026-05-02T13:53:12.089Z</time></trkpt><trkpt lat="42.1090817" lon="13.46078"><ele>1105.0</ele><time>2026-05-02T13:53:13.088Z</time></trkpt><trkpt lat="42.1089833" lon="13.4609533"><ele>1105.0</ele><time>2026-05-02T13:53:14.088Z</time></trkpt><trkpt lat="42.1089083" lon="13.46112"><ele>1105.0</ele><time>2026-05-02T13:53:15.089Z</time></trkpt><trkpt lat="42.1088517" lon="13.461285"><ele>1105.0</ele><time>2026-05-02T13:53:16.088Z</time></trkpt><trkpt lat="42.10882" lon="13.4614267"><ele>1105.0</ele><time>2026-05-02T13:53:17.088Z</time></trkpt><trkpt lat="42.1087883" lon="13.461535"><ele>1106.4</ele><time>2026-05-02T13:53:18.088Z</time></trkpt><trkpt lat="42.108755" lon="13.46162"><ele>1107.8</ele><time>2026-05-02T13:53:19.088Z</time></trkpt><trkpt lat="42.1087167" lon="13.4617683"><ele>1109.2</ele><time>2026-05-02T13:53:21.089Z</time></trkpt><trkpt lat="42.1086867" lon="13.4619183"><ele>1110.6</ele><time>2026-05-02T13:53:23.089Z</time></trkpt><trkpt lat="42.1086683" lon="13.4620167"><ele>1112.0</ele><time>2026-05-02T13:53:25.088Z</time></trkpt><trkpt lat="42.1087367" lon="13.461985"><ele>1112.0</ele><time>2026-05-02T13:53:30.089Z</time></trkpt><trkpt lat="42.1087517" lon="13.4618967"><ele>1112.0</ele><time>2026-05-02T13:54:11.088Z</time></trkpt><trkpt lat="42.1087433" lon="13.46172"><ele>1112.0</ele><time>2026-05-02T13:54:13.088Z</time></trkpt><trkpt lat="42.1087283" lon="13.4616267"><ele>1112.0</ele><time>2026-05-02T13:54:14.088Z</time></trkpt><trkpt lat="42.1087183" lon="13.4615383"><ele>1112.0</ele><time>2026-05-02T13:54:15.089Z</time></trkpt><trkpt lat="42.1087083" lon="13.4614533"><ele>1112.0</ele><time>2026-05-02T13:54:16.088Z</time></trkpt><trkpt lat="42.1086767" lon="13.4612883"><ele>1110.6</ele><time>2026-05-02T13:54:18.089Z</time></trkpt><trkpt lat="42.1086517" lon="13.4611967"><ele>1109.2</ele><time>2026-05-02T13:54:19.088Z</time></trkpt><trkpt lat="42.108625" lon="13.4610917"><ele>1107.8</ele><time>2026-05-02T13:54:20.088Z</time></trkpt><trkpt lat="42.108595" lon="13.4609633"><ele>1106.4</ele><time>2026-05-02T13:54:21.088Z</time></trkpt><trkpt lat="42.1085683" lon="13.4607933"><ele>1105.0</ele><time>2026-05-02T13:54:22.088Z</time></trkpt><trkpt lat="42.108545" lon="13.4606233"><ele>1105.0</ele><time>2026-05-02T13:54:23.089Z</time></trkpt><trkpt lat="42.1085217" lon="13.4604717"><ele>1105.0</ele><time>2026-05-02T13:54:24.089Z</time></trkpt><trkpt lat="42.1084933" lon="13.4603517"><ele>1105.0</ele><time>2026-05-02T13:54:25.088Z</time></trkpt><trkpt lat="42.1084583" lon="13.460255"><ele>1105.0</ele><time>2026-05-02T13:54:26.088Z</time></trkpt><trkpt lat="42.1084333" lon="13.46011"><ele>1105.0</ele><time>2026-05-02T13:54:28.088Z</time></trkpt><trkpt lat="42.1084783" lon="13.4600117"><ele>1102.6</ele><time>2026-05-02T13:54:30.088Z</time></trkpt><trkpt lat="42.1085467" lon="13.4598783"><ele>1100.2</ele><time>2026-05-02T13:54:32.088Z</time></trkpt><trkpt lat="42.10857" lon="13.4597317"><ele>1097.8</ele><time>2026-05-02T13:54:34.089Z</time></trkpt><trkpt lat="42.1085583" lon="13.4596233"><ele>1095.4</ele><time>2026-05-02T13:54:35.088Z</time></trkpt><trkpt lat="42.108535" lon="13.4594917"><ele>1093.0</ele><time>2026-05-02T13:54:36.088Z</time></trkpt><trkpt lat="42.1085233" lon="13.4593667"><ele>1091.1666666666665</ele><time>2026-05-02T13:54:37.089Z</time></trkpt><trkpt lat="42.1085133" lon="13.4592417"><ele>1089.3333333333333</ele><time>2026-05-02T13:54:38.089Z</time></trkpt><trkpt lat="42.1085083" lon="13.4591183"><ele>1087.5</ele><time>2026-05-02T13:54:39.088Z</time></trkpt><trkpt lat="42.1085" lon="13.4590067"><ele>1085.6666666666667</ele><time>2026-05-02T13:54:40.089Z</time></trkpt><trkpt lat="42.108495" lon="13.4588917"><ele>1083.8333333333335</ele><time>2026-05-02T13:54:41.089Z</time></trkpt><trkpt lat="42.1085017" lon="13.4587833"><ele>1082.0</ele><time>2026-05-02T13:54:42.089Z</time></trkpt><trkpt lat="42.108515" lon="13.458675"><ele>1080.2</ele><time>2026-05-02T13:54:43.089Z</time></trkpt><trkpt lat="42.1085283" lon="13.4585717"><ele>1078.4</ele><time>2026-05-02T13:54:44.089Z</time></trkpt><trkpt lat="42.10854" lon="13.45846"><ele>1076.6</ele><time>2026-05-02T13:54:45.089Z</time></trkpt><trkpt lat="42.1085583" lon="13.4583183"><ele>1074.8</ele><time>2026-05-02T13:54:46.088Z</time></trkpt><trkpt lat="42.10856" lon="13.4581883"><ele>1073.0</ele><time>2026-05-02T13:54:47.088Z</time></trkpt><trkpt lat="42.1085583" lon="13.4580683"><ele>1073.0</ele><time>2026-05-02T13:54:48.089Z</time></trkpt><trkpt lat="42.1085667" lon="13.4579533"><ele>1073.0</ele><time>2026-05-02T13:54:49.088Z</time></trkpt><trkpt lat="42.108585" lon="13.4578283"><ele>1073.0</ele><time>2026-05-02T13:54:50.089Z</time></trkpt><trkpt lat="42.1086183" lon="13.4577"><ele>1073.0</ele><time>2026-05-02T13:54:51.089Z</time></trkpt><trkpt lat="42.1086467" lon="13.457575"><ele>1073.0</ele><time>2026-05-02T13:54:52.089Z</time></trkpt><trkpt lat="42.1086617" lon="13.4574467"><ele>1071.2</ele><time>2026-05-02T13:54:53.089Z</time></trkpt><trkpt lat="42.10866" lon="13.4573233"><ele>1069.4</ele><time>2026-05-02T13:54:54.088Z</time></trkpt><trkpt lat="42.10866" lon="13.4571883"><ele>1067.6000000000001</ele><time>2026-05-02T13:54:55.089Z</time></trkpt><trkpt lat="42.1086567" lon="13.4570533"><ele>1065.8</ele><time>2026-05-02T13:54:56.089Z</time></trkpt><trkpt lat="42.108655" lon="13.4569283"><ele>1064.0</ele><time>2026-05-02T13:54:57.089Z</time></trkpt><trkpt lat="42.1086567" lon="13.4568017"><ele>1062.0</ele><time>2026-05-02T13:54:58.088Z</time></trkpt><trkpt lat="42.1086667" lon="13.4566533"><ele>1060.0</ele><time>2026-05-02T13:54:59.089Z</time></trkpt><trkpt lat="42.10866" lon="13.4565167"><ele>1058.0</ele><time>2026-05-02T13:55:00.089Z</time></trkpt><trkpt lat="42.1086483" lon="13.45639"><ele>1056.0</ele><time>2026-05-02T13:55:01.089Z</time></trkpt><trkpt lat="42.1086367" lon="13.4562633"><ele>1054.0</ele><time>2026-05-02T13:55:02.088Z</time></trkpt><trkpt lat="42.108625" lon="13.4561567"><ele>1052.6000000000001</ele><time>2026-05-02T13:55:03.088Z</time></trkpt><trkpt lat="42.1086033" lon="13.4560533"><ele>1051.2</ele><time>2026-05-02T13:55:04.088Z</time></trkpt><trkpt lat="42.1085683" lon="13.455935"><ele>1049.8000000000002</ele><time>2026-05-02T13:55:05.089Z</time></trkpt><trkpt lat="42.1085267" lon="13.4558233"><ele>1048.4</ele><time>2026-05-02T13:55:06.088Z</time></trkpt><trkpt lat="42.1084967" lon="13.455705"><ele>1047.0</ele><time>2026-05-02T13:55:07.088Z</time></trkpt><trkpt lat="42.1084767" lon="13.4555783"><ele>1045.8</ele><time>2026-05-02T13:55:08.089Z</time></trkpt><trkpt lat="42.1084583" lon="13.4554417"><ele>1044.6</ele><time>2026-05-02T13:55:09.089Z</time></trkpt><trkpt lat="42.108435" lon="13.4553133"><ele>1043.3999999999999</ele><time>2026-05-02T13:55:10.088Z</time></trkpt><trkpt lat="42.10841" lon="13.4551933"><ele>1042.2</ele><time>2026-05-02T13:55:11.089Z</time></trkpt><trkpt lat="42.1083867" lon="13.455075"><ele>1041.0</ele><time>2026-05-02T13:55:12.089Z</time></trkpt><trkpt lat="42.10836" lon="13.4549483"><ele>1041.0</ele><time>2026-05-02T13:55:13.088Z</time></trkpt><trkpt lat="42.1083317" lon="13.4548033"><ele>1041.0</ele><time>2026-05-02T13:55:14.088Z</time></trkpt><trkpt lat="42.10831" lon="13.4546483"><ele>1041.0</ele><time>2026-05-02T13:55:15.089Z</time></trkpt><trkpt lat="42.1082983" lon="13.4545"><ele>1041.0</ele><time>2026-05-02T13:55:16.089Z</time></trkpt><trkpt lat="42.1082833" lon="13.454345"><ele>1039.75</ele><time>2026-05-02T13:55:17.089Z</time></trkpt><trkpt lat="42.1082633" lon="13.4541733"><ele>1038.5</ele><time>2026-05-02T13:55:18.089Z</time></trkpt><trkpt lat="42.1082567" lon="13.4540033"><ele>1037.25</ele><time>2026-05-02T13:55:19.088Z</time></trkpt><trkpt lat="42.10825" lon="13.4538317"><ele>1036.0</ele><time>2026-05-02T13:55:20.089Z</time></trkpt><trkpt lat="42.1082383" lon="13.4536733"><ele>1032.8</ele><time>2026-05-02T13:55:21.089Z</time></trkpt><trkpt lat="42.1082217" lon="13.45354"><ele>1029.6</ele><time>2026-05-02T13:55:22.088Z</time></trkpt><trkpt lat="42.1082" lon="13.4534167"><ele>1026.4</ele><time>2026-05-02T13:55:23.088Z</time></trkpt><trkpt lat="42.1081633" lon="13.4532833"><ele>1023.2</ele><time>2026-05-02T13:55:24.088Z</time></trkpt><trkpt lat="42.10812" lon="13.45314"><ele>1020.0</ele><time>2026-05-02T13:55:25.089Z</time></trkpt><trkpt lat="42.1080817" lon="13.4529917"><ele>1018.8</ele><time>2026-05-02T13:55:26.088Z</time></trkpt><trkpt lat="42.10806" lon="13.452855"><ele>1017.6</ele><time>2026-05-02T13:55:27.088Z</time></trkpt><trkpt lat="42.10805" lon="13.4527267"><ele>1016.4000000000001</ele><time>2026-05-02T13:55:28.089Z</time></trkpt><trkpt lat="42.10805" lon="13.4525883"><ele>1015.2</ele><time>2026-05-02T13:55:29.089Z</time></trkpt><trkpt lat="42.10805" lon="13.4524283"><ele>1014.0</ele><time>2026-05-02T13:55:30.088Z</time></trkpt><trkpt lat="42.1080483" lon="13.45226"><ele>1014.0</ele><time>2026-05-02T13:55:31.089Z</time></trkpt><trkpt lat="42.1080483" lon="13.4521083"><ele>1014.0000000000001</ele><time>2026-05-02T13:55:32.089Z</time></trkpt><trkpt lat="42.1080333" lon="13.4519783"><ele>1014.0000000000001</ele><time>2026-05-02T13:55:33.089Z</time></trkpt><trkpt lat="42.1080033" lon="13.45186"><ele>1014.0</ele><time>2026-05-02T13:55:34.089Z</time></trkpt><trkpt lat="42.107975" lon="13.4517383"><ele>1014.0</ele><time>2026-05-02T13:55:35.088Z</time></trkpt><trkpt lat="42.1079483" lon="13.4516283"><ele>1014.0</ele><time>2026-05-02T13:55:36.089Z</time></trkpt><trkpt lat="42.10794" lon="13.4515367"><ele>1014.0000000000001</ele><time>2026-05-02T13:55:37.088Z</time></trkpt><trkpt lat="42.1079133" lon="13.4513933"><ele>1014.0000000000001</ele><time>2026-05-02T13:55:39.089Z</time></trkpt><trkpt lat="42.107865" lon="13.45123"><ele>1014.0</ele><time>2026-05-02T13:55:41.089Z</time></trkpt><trkpt lat="42.1078283" lon="13.4511133"><ele>1014.0</ele><time>2026-05-02T13:55:42.089Z</time></trkpt><trkpt lat="42.1077867" lon="13.450975"><ele>1013.75</ele><time>2026-05-02T13:55:43.089Z</time></trkpt><trkpt lat="42.10773" lon="13.4508267"><ele>1013.5</ele><time>2026-05-02T13:55:44.089Z</time></trkpt><trkpt lat="42.1076683" lon="13.450685"><ele>1013.25</ele><time>2026-05-02T13:55:45.088Z</time></trkpt><trkpt lat="42.1076033" lon="13.4505567"><ele>1013.0</ele><time>2026-05-02T13:55:46.088Z</time></trkpt><trkpt lat="42.10754" lon="13.4504267"><ele>1012.0</ele><time>2026-05-02T13:55:47.088Z</time></trkpt><trkpt lat="42.1074767" lon="13.4502867"><ele>1011.0</ele><time>2026-05-02T13:55:48.088Z</time></trkpt><trkpt lat="42.1074067" lon="13.4501533"><ele>1010.0</ele><time>2026-05-02T13:55:49.088Z</time></trkpt><trkpt lat="42.1073467" lon="13.450035"><ele>1009.0</ele><time>2026-05-02T13:55:50.089Z</time></trkpt><trkpt lat="42.10729" lon="13.4499183"><ele>1008.2</ele><time>2026-05-02T13:55:51.089Z</time></trkpt><trkpt lat="42.1072333" lon="13.4498033"><ele>1007.4000000000001</ele><time>2026-05-02T13:55:52.089Z</time></trkpt><trkpt lat="42.1071717" lon="13.449695"><ele>1006.6</ele><time>2026-05-02T13:55:53.088Z</time></trkpt><trkpt lat="42.10711" lon="13.449575"><ele>1005.8</ele><time>2026-05-02T13:55:54.088Z</time></trkpt><trkpt lat="42.1070533" lon="13.449455"><ele>1005.0</ele><time>2026-05-02T13:55:55.089Z</time></trkpt><trkpt lat="42.1069933" lon="13.4493283"><ele>1004.25</ele><time>2026-05-02T13:55:56.088Z</time></trkpt><trkpt lat="42.106935" lon="13.449195"><ele>1003.5</ele><time>2026-05-02T13:55:57.088Z</time></trkpt><trkpt lat="42.1068833" lon="13.44905"><ele>1002.75</ele><time>2026-05-02T13:55:58.089Z</time></trkpt><trkpt lat="42.1068233" lon="13.4489017"><ele>1002.0</ele><time>2026-05-02T13:55:59.089Z</time></trkpt><trkpt lat="42.1067767" lon="13.448745"><ele>1001.6</ele><time>2026-05-02T13:56:00.088Z</time></trkpt><trkpt lat="42.106725" lon="13.4485983"><ele>1001.2</ele><time>2026-05-02T13:56:01.088Z</time></trkpt><trkpt lat="42.10667" lon="13.4484717"><ele>1000.8</ele><time>2026-05-02T13:56:02.089Z</time></trkpt><trkpt lat="42.1066167" lon="13.4483483"><ele>1000.4</ele><time>2026-05-02T13:56:03.088Z</time></trkpt><trkpt lat="42.1065717" lon="13.4482467"><ele>1000.0</ele><time>2026-05-02T13:56:04.088Z</time></trkpt><trkpt lat="42.1065317" lon="13.4481683"><ele>998.9999999999999</ele><time>2026-05-02T13:56:05.088Z</time></trkpt><trkpt lat="42.1064833" lon="13.44811"><ele>998.0</ele><time>2026-05-02T13:56:06.088Z</time></trkpt><trkpt lat="42.10642" lon="13.4480767"><ele>997.0</ele><time>2026-05-02T13:56:07.089Z</time></trkpt><trkpt lat="42.1063367" lon="13.4480567"><ele>996.0</ele><time>2026-05-02T13:56:08.088Z</time></trkpt><trkpt lat="42.106245" lon="13.4480333"><ele>994.9999999999999</ele><time>2026-05-02T13:56:09.088Z</time></trkpt><trkpt lat="42.1061433" lon="13.4480067"><ele>994.0</ele><time>2026-05-02T13:56:10.089Z</time></trkpt><trkpt lat="42.106055" lon="13.4479617"><ele>993.6666666666666</ele><time>2026-05-02T13:56:11.089Z</time></trkpt><trkpt lat="42.1059833" lon="13.4479183"><ele>993.3333333333333</ele><time>2026-05-02T13:56:12.088Z</time></trkpt><trkpt lat="42.10593" lon="13.4478667"><ele>993.0</ele><time>2026-05-02T13:56:13.088Z</time></trkpt><trkpt lat="42.1058933" lon="13.4477883"><ele>992.6666666666667</ele><time>2026-05-02T13:56:14.088Z</time></trkpt><trkpt lat="42.1058517" lon="13.4476783"><ele>992.3333333333334</ele><time>2026-05-02T13:56:15.088Z</time></trkpt><trkpt lat="42.1058133" lon="13.44752"><ele>992.0</ele><time>2026-05-02T13:56:16.089Z</time></trkpt><trkpt lat="42.105775" lon="13.4473617"><ele>992.0</ele><time>2026-05-02T13:56:17.088Z</time></trkpt><trkpt lat="42.10575" lon="13.4472183"><ele>992.0</ele><time>2026-05-02T13:56:18.088Z</time></trkpt><trkpt lat="42.10573" lon="13.4470917"><ele>992.0</ele><time>2026-05-02T13:56:19.089Z</time></trkpt><trkpt lat="42.1057233" lon="13.446975"><ele>992.0</ele><time>2026-05-02T13:56:20.088Z</time></trkpt><trkpt lat="42.1057317" lon="13.4468517"><ele>992.0</ele><time>2026-05-02T13:56:21.088Z</time></trkpt><trkpt lat="42.10576" lon="13.4467317"><ele>991.0000000000001</ele><time>2026-05-02T13:56:22.088Z</time></trkpt><trkpt lat="42.1058017" lon="13.4466383"><ele>990.0</ele><time>2026-05-02T13:56:23.088Z</time></trkpt><trkpt lat="42.1058333" lon="13.4465417"><ele>989.0</ele><time>2026-05-02T13:56:24.088Z</time></trkpt><trkpt lat="42.1058383" lon="13.446445"><ele>988.0</ele><time>2026-05-02T13:56:25.089Z</time></trkpt><trkpt lat="42.105815" lon="13.4463467"><ele>987.0000000000001</ele><time>2026-05-02T13:56:26.089Z</time></trkpt><trkpt lat="42.1057767" lon="13.4462433"><ele>986.0</ele><time>2026-05-02T13:56:27.089Z</time></trkpt><trkpt lat="42.1057217" lon="13.4461533"><ele>984.1999999999999</ele><time>2026-05-02T13:56:28.088Z</time></trkpt><trkpt lat="42.105675" lon="13.4460617"><ele>982.3999999999999</ele><time>2026-05-02T13:56:29.088Z</time></trkpt><trkpt lat="42.1056333" lon="13.4459717"><ele>980.6</ele><time>2026-05-02T13:56:30.088Z</time></trkpt><trkpt lat="42.10559" lon="13.4458567"><ele>978.8</ele><time>2026-05-02T13:56:31.088Z</time></trkpt><trkpt lat="42.1055333" lon="13.4457217"><ele>977.0</ele><time>2026-05-02T13:56:32.088Z</time></trkpt><trkpt lat="42.1054783" lon="13.4455783"><ele>977.0</ele><time>2026-05-02T13:56:33.089Z</time></trkpt><trkpt lat="42.1054233" lon="13.44543"><ele>977.0</ele><time>2026-05-02T13:56:34.088Z</time></trkpt><trkpt lat="42.1053767" lon="13.4453"><ele>977.0</ele><time>2026-05-02T13:56:35.089Z</time></trkpt><trkpt lat="42.1053283" lon="13.4451633"><ele>977.0</ele><time>2026-05-02T13:56:36.088Z</time></trkpt><trkpt lat="42.1052833" lon="13.4450217"><ele>977.0</ele><time>2026-05-02T13:56:37.089Z</time></trkpt><trkpt lat="42.10524" lon="13.44488"><ele>977.0</ele><time>2026-05-02T13:56:38.088Z</time></trkpt><trkpt lat="42.105195" lon="13.4447633"><ele>977.0</ele><time>2026-05-02T13:56:39.088Z</time></trkpt><trkpt lat="42.1051483" lon="13.444645"><ele>977.0</ele><time>2026-05-02T13:56:40.089Z</time></trkpt><trkpt lat="42.105105" lon="13.444525"><ele>977.0</ele><time>2026-05-02T13:56:41.089Z</time></trkpt><trkpt lat="42.1050567" lon="13.4444033"><ele>976.5</ele><time>2026-05-02T13:56:42.088Z</time></trkpt><trkpt lat="42.1050083" lon="13.4442783"><ele>976.0</ele><time>2026-05-02T13:56:43.089Z</time></trkpt><trkpt lat="42.1049567" lon="13.4441467"><ele>975.5</ele><time>2026-05-02T13:56:44.089Z</time></trkpt><trkpt lat="42.104895" lon="13.4440083"><ele>975.0</ele><time>2026-05-02T13:56:45.089Z</time></trkpt><trkpt lat="42.104825" lon="13.4438817"><ele>974.5</ele><time>2026-05-02T13:56:46.089Z</time></trkpt><trkpt lat="42.1047417" lon="13.4437433"><ele>974.0</ele><time>2026-05-02T13:56:47.089Z</time></trkpt><trkpt lat="42.1046717" lon="13.443615"><ele>973.5</ele><time>2026-05-02T13:56:48.089Z</time></trkpt><trkpt lat="42.1046083" lon="13.4434633"><ele>973.0</ele><time>2026-05-02T13:56:49.089Z</time></trkpt><trkpt lat="42.1045483" lon="13.4432883"><ele>973.0</ele><time>2026-05-02T13:56:50.088Z</time></trkpt><trkpt lat="42.1044717" lon="13.44311"><ele>973.0</ele><time>2026-05-02T13:56:51.089Z</time></trkpt><trkpt lat="42.1043883" lon="13.4429483"><ele>973.0</ele><time>2026-05-02T13:56:52.089Z</time></trkpt><trkpt lat="42.1043183" lon="13.4428367"><ele>973.0</ele><time>2026-05-02T13:56:53.088Z</time></trkpt><trkpt lat="42.104255" lon="13.4427367"><ele>973.0</ele><time>2026-05-02T13:56:54.088Z</time></trkpt><trkpt lat="42.1042117" lon="13.4426567"><ele>973.0</ele><time>2026-05-02T13:56:55.089Z</time></trkpt><trkpt lat="42.1041333" lon="13.4425117"><ele>973.0</ele><time>2026-05-02T13:56:57.088Z</time></trkpt><trkpt lat="42.1040867" lon="13.44242"><ele>973.0</ele><time>2026-05-02T13:56:58.089Z</time></trkpt><trkpt lat="42.104035" lon="13.4422983"><ele>973.0</ele><time>2026-05-02T13:56:59.088Z</time></trkpt><trkpt lat="42.1039767" lon="13.44216"><ele>972.25</ele><time>2026-05-02T13:57:00.088Z</time></trkpt><trkpt lat="42.1039133" lon="13.441995"><ele>971.5</ele><time>2026-05-02T13:57:01.089Z</time></trkpt><trkpt lat="42.10385" lon="13.4418283"><ele>970.75</ele><time>2026-05-02T13:57:02.089Z</time></trkpt><trkpt lat="42.103775" lon="13.441675"><ele>970.0</ele><time>2026-05-02T13:57:03.088Z</time></trkpt><trkpt lat="42.1036933" lon="13.441515"><ele>970.0</ele><time>2026-05-02T13:57:04.088Z</time></trkpt><trkpt lat="42.103595" lon="13.44136"><ele>970.0</ele><time>2026-05-02T13:57:05.089Z</time></trkpt><trkpt lat="42.103495" lon="13.4411967"><ele>970.0</ele><time>2026-05-02T13:57:06.088Z</time></trkpt><trkpt lat="42.1034017" lon="13.441045"><ele>970.4</ele><time>2026-05-02T13:57:07.089Z</time></trkpt><trkpt lat="42.1033233" lon="13.4409"><ele>970.8</ele><time>2026-05-02T13:57:08.089Z</time></trkpt><trkpt lat="42.10327" lon="13.44077"><ele>971.2</ele><time>2026-05-02T13:57:09.088Z</time></trkpt><trkpt lat="42.1032133" lon="13.440655"><ele>971.6</ele><time>2026-05-02T13:57:10.088Z</time></trkpt><trkpt lat="42.1031583" lon="13.4405667"><ele>972.0</ele><time>2026-05-02T13:57:11.088Z</time></trkpt><trkpt lat="42.1030867" lon="13.4404583"><ele>972.0</ele><time>2026-05-02T13:57:12.088Z</time></trkpt><trkpt lat="42.1029933" lon="13.4403333"><ele>972.0</ele><time>2026-05-02T13:57:13.088Z</time></trkpt><trkpt lat="42.10289" lon="13.44022"><ele>972.0</ele><time>2026-05-02T13:57:14.089Z</time></trkpt><trkpt lat="42.1027783" lon="13.440135"><ele>972.0</ele><time>2026-05-02T13:57:15.088Z</time></trkpt><trkpt lat="42.1026583" lon="13.4400667"><ele>972.0</ele><time>2026-05-02T13:57:16.088Z</time></trkpt><trkpt lat="42.102535" lon="13.4400033"><ele>972.0</ele><time>2026-05-02T13:57:17.089Z</time></trkpt><trkpt lat="42.10243" lon="13.4399333"><ele>972.0</ele><time>2026-05-02T13:57:18.088Z</time></trkpt><trkpt lat="42.10234" lon="13.4398617"><ele>972.0</ele><time>2026-05-02T13:57:19.088Z</time></trkpt><trkpt lat="42.10225" lon="13.4397567"><ele>973.0</ele><time>2026-05-02T13:57:20.089Z</time></trkpt><trkpt lat="42.1021567" lon="13.43963"><ele>974.0</ele><time>2026-05-02T13:57:21.088Z</time></trkpt><trkpt lat="42.1020633" lon="13.4394783"><ele>975.0</ele><time>2026-05-02T13:57:22.088Z</time></trkpt><trkpt lat="42.1019583" lon="13.4393233"><ele>976.0</ele><time>2026-05-02T13:57:23.088Z</time></trkpt><trkpt lat="42.1018467" lon="13.4391633"><ele>976.0</ele><time>2026-05-02T13:57:24.089Z</time></trkpt><trkpt lat="42.10172" lon="13.4390033"><ele>976.0</ele><time>2026-05-02T13:57:25.088Z</time></trkpt><trkpt lat="42.1016067" lon="13.4388483"><ele>976.0</ele><time>2026-05-02T13:57:26.088Z</time></trkpt><trkpt lat="42.1015" lon="13.438685"><ele>975.6666666666666</ele><time>2026-05-02T13:57:27.088Z</time></trkpt><trkpt lat="42.1013917" lon="13.4385133"><ele>975.3333333333333</ele><time>2026-05-02T13:57:28.089Z</time></trkpt><trkpt lat="42.101295" lon="13.438335"><ele>975.0</ele><time>2026-05-02T13:57:29.089Z</time></trkpt><trkpt lat="42.1011883" lon="13.4381567"><ele>975.0</ele><time>2026-05-02T13:57:30.088Z</time></trkpt><trkpt lat="42.1010817" lon="13.4379667"><ele>975.0</ele><time>2026-05-02T13:57:31.089Z</time></trkpt><trkpt lat="42.1009767" lon="13.4377917"><ele>975.0</ele><time>2026-05-02T13:57:32.088Z</time></trkpt><trkpt lat="42.10088" lon="13.43763"><ele>975.0</ele><time>2026-05-02T13:57:33.088Z</time></trkpt><trkpt lat="42.1008083" lon="13.4374933"><ele>975.0</ele><time>2026-05-02T13:57:34.088Z</time></trkpt><trkpt lat="42.1007483" lon="13.43739"><ele>975.0</ele><time>2026-05-02T13:57:35.088Z</time></trkpt><trkpt lat="42.100705" lon="13.4373233"><ele>975.0</ele><time>2026-05-02T13:57:36.089Z</time></trkpt><trkpt lat="42.10065" lon="13.4372083"><ele>975.0</ele><time>2026-05-02T13:57:38.089Z</time></trkpt><trkpt lat="42.1006083" lon="13.4371367"><ele>974.25</ele><time>2026-05-02T13:57:39.088Z</time></trkpt><trkpt lat="42.100555" lon="13.4370433"><ele>973.5</ele><time>2026-05-02T13:57:40.089Z</time></trkpt><trkpt lat="42.1004933" lon="13.4369217"><ele>972.75</ele><time>2026-05-02T13:57:41.088Z</time></trkpt><trkpt lat="42.100425" lon="13.4367917"><ele>972.0</ele><time>2026-05-02T13:57:42.089Z</time></trkpt><trkpt lat="42.10035" lon="13.43664"><ele>972.0</ele><time>2026-05-02T13:57:43.089Z</time></trkpt><trkpt lat="42.1002683" lon="13.4364767"><ele>972.0</ele><time>2026-05-02T13:57:44.089Z</time></trkpt><trkpt lat="42.1001833" lon="13.4363017"><ele>972.0</ele><time>2026-05-02T13:57:45.088Z</time></trkpt><trkpt lat="42.1001033" lon="13.436115"><ele>972.0</ele><time>2026-05-02T13:57:46.089Z</time></trkpt><trkpt lat="42.1000283" lon="13.4359233"><ele>972.0</ele><time>2026-05-02T13:57:47.088Z</time></trkpt><trkpt lat="42.0999617" lon="13.4357367"><ele>972.0</ele><time>2026-05-02T13:57:48.088Z</time></trkpt><trkpt lat="42.0998967" lon="13.43557"><ele>972.5</ele><time>2026-05-02T13:57:49.088Z</time></trkpt><trkpt lat="42.0998367" lon="13.435405"><ele>973.0</ele><time>2026-05-02T13:57:50.089Z</time></trkpt><trkpt lat="42.0997817" lon="13.4352483"><ele>973.5</ele><time>2026-05-02T13:57:51.088Z</time></trkpt><trkpt lat="42.0997283" lon="13.4350833"><ele>974.0</ele><time>2026-05-02T13:57:52.088Z</time></trkpt><trkpt lat="42.099675" lon="13.4349283"><ele>974.0</ele><time>2026-05-02T13:57:53.089Z</time></trkpt><trkpt lat="42.099615" lon="13.4347583"><ele>974.0</ele><time>2026-05-02T13:57:54.089Z</time></trkpt><trkpt lat="42.0995483" lon="13.4346"><ele>974.0</ele><time>2026-05-02T13:57:55.088Z</time></trkpt><trkpt lat="42.0994833" lon="13.4344383"><ele>974.0</ele><time>2026-05-02T13:57:56.089Z</time></trkpt><trkpt lat="42.0994267" lon="13.434285"><ele>974.1666666666667</ele><time>2026-05-02T13:57:57.088Z</time></trkpt><trkpt lat="42.0993883" lon="13.4341667"><ele>974.3333333333334</ele><time>2026-05-02T13:57:58.089Z</time></trkpt><trkpt lat="42.09936" lon="13.4340717"><ele>974.5</ele><time>2026-05-02T13:57:59.089Z</time></trkpt><trkpt lat="42.0993483" lon="13.4339617"><ele>974.6666666666667</ele><time>2026-05-02T13:58:01.089Z</time></trkpt><trkpt lat="42.09928" lon="13.433835"><ele>974.8333333333334</ele><time>2026-05-02T13:58:04.088Z</time></trkpt><trkpt lat="42.0992233" lon="13.4337717"><ele>975.0</ele><time>2026-05-02T13:58:05.089Z</time></trkpt><trkpt lat="42.0991433" lon="13.4337"><ele>974.25</ele><time>2026-05-02T13:58:06.088Z</time></trkpt><trkpt lat="42.0990533" lon="13.4336067"><ele>973.5</ele><time>2026-05-02T13:58:07.088Z</time></trkpt><trkpt lat="42.0989517" lon="13.43351"><ele>972.75</ele><time>2026-05-02T13:58:08.088Z</time></trkpt><trkpt lat="42.0988417" lon="13.4334033"><ele>972.0</ele><time>2026-05-02T13:58:09.089Z</time></trkpt><trkpt lat="42.0987217" lon="13.4332767"><ele>972.0</ele><time>2026-05-02T13:58:10.089Z</time></trkpt><trkpt lat="42.0985933" lon="13.4331433"><ele>972.0</ele><time>2026-05-02T13:58:11.088Z</time></trkpt><trkpt lat="42.0984717" lon="13.4330117"><ele>972.0</ele><time>2026-05-02T13:58:12.088Z</time></trkpt><trkpt lat="42.0983567" lon="13.4328967"><ele>971.25</ele><time>2026-05-02T13:58:13.089Z</time></trkpt><trkpt lat="42.09824" lon="13.4327833"><ele>970.5</ele><time>2026-05-02T13:58:14.089Z</time></trkpt><trkpt lat="42.09813" lon="13.4326767"><ele>969.75</ele><time>2026-05-02T13:58:15.089Z</time></trkpt><trkpt lat="42.0980367" lon="13.432575"><ele>969.0</ele><time>2026-05-02T13:58:16.089Z</time></trkpt><trkpt lat="42.0979617" lon="13.4324967"><ele>969.0</ele><time>2026-05-02T13:58:17.088Z</time></trkpt><trkpt lat="42.0979183" lon="13.4324317"><ele>969.0</ele><time>2026-05-02T13:58:18.088Z</time></trkpt><trkpt lat="42.0978883" lon="13.4323567"><ele>969.0</ele><time>2026-05-02T13:58:20.088Z</time></trkpt><trkpt lat="42.0979617" lon="13.4322967"><ele>969.0</ele><time>2026-05-02T13:58:23.088Z</time></trkpt><trkpt lat="42.0980917" lon="13.4323067"><ele>969.0</ele><time>2026-05-02T13:58:25.088Z</time></trkpt><trkpt lat="42.09817" lon="13.4323517"><ele>969.0</ele><time>2026-05-02T13:58:26.088Z</time></trkpt><trkpt lat="42.098255" lon="13.4324167"><ele>967.5</ele><time>2026-05-02T13:58:27.088Z</time></trkpt><trkpt lat="42.0983533" lon="13.43249"><ele>966.0</ele><time>2026-05-02T13:58:28.088Z</time></trkpt><trkpt lat="42.0984683" lon="13.4325767"><ele>964.5</ele><time>2026-05-02T13:58:29.089Z</time></trkpt><trkpt lat="42.0985933" lon="13.432685"><ele>963.0</ele><time>2026-05-02T13:58:30.088Z</time></trkpt><trkpt lat="42.0987083" lon="13.4327817"><ele>963.0</ele><time>2026-05-02T13:58:31.089Z</time></trkpt><trkpt lat="42.0988183" lon="13.4328533"><ele>963.0</ele><time>2026-05-02T13:58:32.088Z</time></trkpt><trkpt lat="42.09893" lon="13.4328983"><ele>963.0</ele><time>2026-05-02T13:58:33.088Z</time></trkpt><trkpt lat="42.0990483" lon="13.43294"><ele>963.0</ele><time>2026-05-02T13:58:34.088Z</time></trkpt><trkpt lat="42.0991533" lon="13.432965"><ele>964.0</ele><time>2026-05-02T13:58:35.089Z</time></trkpt><trkpt lat="42.0992433" lon="13.4329983"><ele>965.0</ele><time>2026-05-02T13:58:36.088Z</time></trkpt><trkpt lat="42.0993167" lon="13.4330433"><ele>966.0</ele><time>2026-05-02T13:58:37.088Z</time></trkpt><trkpt lat="42.0993783" lon="13.43309"><ele>967.0</ele><time>2026-05-02T13:58:38.088Z</time></trkpt><trkpt lat="42.0994833" lon="13.4330817"><ele>968.0</ele><time>2026-05-02T13:58:40.089Z</time></trkpt><trkpt lat="42.0995533" lon="13.4330417"><ele>969.0</ele><time>2026-05-02T13:58:41.088Z</time></trkpt><trkpt lat="42.0996383" lon="13.432995"><ele>965.8333333333334</ele><time>2026-05-02T13:58:42.089Z</time></trkpt><trkpt lat="42.0997167" lon="13.4329483"><ele>962.6666666666667</ele><time>2026-05-02T13:58:43.088Z</time></trkpt><trkpt lat="42.0997917" lon="13.4329017"><ele>959.5</ele><time>2026-05-02T13:58:44.089Z</time></trkpt><trkpt lat="42.0998717" lon="13.4328517"><ele>956.3333333333334</ele><time>2026-05-02T13:58:45.088Z</time></trkpt><trkpt lat="42.099945" lon="13.4327867"><ele>953.1666666666667</ele><time>2026-05-02T13:58:46.089Z</time></trkpt><trkpt lat="42.1000133" lon="13.4327117"><ele>950.0</ele><time>2026-05-02T13:58:47.089Z</time></trkpt><trkpt lat="42.100075" lon="13.4326217"><ele>950.0000000000001</ele><time>2026-05-02T13:58:48.088Z</time></trkpt><trkpt lat="42.1001267" lon="13.4325383"><ele>950.0</ele><time>2026-05-02T13:58:49.088Z</time></trkpt><trkpt lat="42.10016" lon="13.4324567"><ele>950.0</ele><time>2026-05-02T13:58:50.088Z</time></trkpt><trkpt lat="42.10019" lon="13.4323783"><ele>950.0</ele><time>2026-05-02T13:58:51.089Z</time></trkpt><trkpt lat="42.1002483" lon="13.4322433"><ele>950.0000000000001</ele><time>2026-05-02T13:58:53.089Z</time></trkpt><trkpt lat="42.1002833" lon="13.43217"><ele>950.0</ele><time>2026-05-02T13:58:55.089Z</time></trkpt><trkpt lat="42.1002567" lon="13.43209"><ele>949.2</ele><time>2026-05-02T13:58:58.088Z</time></trkpt><trkpt lat="42.1001967" lon="13.4320583"><ele>948.4</ele><time>2026-05-02T13:59:01.088Z</time></trkpt><trkpt lat="42.10011" lon="13.4320133"><ele>947.5999999999999</ele><time>2026-05-02T13:59:04.088Z</time></trkpt><trkpt lat="42.1000283" lon="13.43187"><ele>946.8</ele><time>2026-05-02T13:59:14.088Z</time></trkpt><trkpt lat="42.099935" lon="13.431805"><ele>946.0</ele><time>2026-05-02T13:59:16.088Z</time></trkpt><trkpt lat="42.099845" lon="13.4317767"><ele>946.5999999999999</ele><time>2026-05-02T13:59:18.089Z</time></trkpt><trkpt lat="42.099785" lon="13.4317367"><ele>947.1999999999999</ele><time>2026-05-02T13:59:21.088Z</time></trkpt><trkpt lat="42.0997333" lon="13.4316483"><ele>947.8000000000001</ele><time>2026-05-02T13:59:24.088Z</time></trkpt><trkpt lat="42.099735" lon="13.431505"><ele>948.4000000000001</ele><time>2026-05-02T13:59:27.088Z</time></trkpt><trkpt lat="42.0997867" lon="13.4313633"><ele>949.0</ele><time>2026-05-02T13:59:29.088Z</time></trkpt><trkpt lat="42.0998017" lon="13.4312183"><ele>948.9999999999999</ele><time>2026-05-02T13:59:31.088Z</time></trkpt><trkpt lat="42.0997383" lon="13.43108"><ele>949.0</ele><time>2026-05-02T13:59:33.088Z</time></trkpt><trkpt lat="42.0996917" lon="13.4310117"><ele>949.0</ele><time>2026-05-02T13:59:34.087Z</time></trkpt><trkpt lat="42.0996517" lon="13.43094"><ele>949.0</ele><time>2026-05-02T13:59:35.088Z</time></trkpt><trkpt lat="42.0996033" lon="13.430865"><ele>948.9999999999999</ele><time>2026-05-02T13:59:36.087Z</time></trkpt><trkpt lat="42.0995517" lon="13.4307883"><ele>949.0</ele><time>2026-05-02T13:59:37.088Z</time></trkpt><trkpt lat="42.0994983" lon="13.4307067"><ele>948.9999999999999</ele><time>2026-05-02T13:59:38.087Z</time></trkpt><trkpt lat="42.0994533" lon="13.43061"><ele>949.0</ele><time>2026-05-02T13:59:39.087Z</time></trkpt><trkpt lat="42.0994117" lon="13.4305033"><ele>949.0</ele><time>2026-05-02T13:59:40.087Z</time></trkpt><trkpt lat="42.099375" lon="13.4303933"><ele>949.0</ele><time>2026-05-02T13:59:41.087Z</time></trkpt><trkpt lat="42.0993333" lon="13.4302783"><ele>948.9999999999999</ele><time>2026-05-02T13:59:42.088Z</time></trkpt><trkpt lat="42.09929" lon="13.4301717"><ele>949.0</ele><time>2026-05-02T13:59:43.087Z</time></trkpt><trkpt lat="42.0992533" lon="13.430085"><ele>947.6666666666666</ele><time>2026-05-02T13:59:44.087Z</time></trkpt><trkpt lat="42.099215" lon="13.4300133"><ele>946.3333333333333</ele><time>2026-05-02T13:59:45.087Z</time></trkpt><trkpt lat="42.09917" lon="13.4299517"><ele>945.0</ele><time>2026-05-02T13:59:46.088Z</time></trkpt><trkpt lat="42.099115" lon="13.4299067"><ele>943.6666666666667</ele><time>2026-05-02T13:59:47.087Z</time></trkpt><trkpt lat="42.0990367" lon="13.4298633"><ele>942.3333333333334</ele><time>2026-05-02T13:59:48.088Z</time></trkpt><trkpt lat="42.09895" lon="13.4298067"><ele>941.0</ele><time>2026-05-02T13:59:49.088Z</time></trkpt><trkpt lat="42.098865" lon="13.4297417"><ele>941.0000000000001</ele><time>2026-05-02T13:59:50.087Z</time></trkpt><trkpt lat="42.0987967" lon="13.42967"><ele>941.0</ele><time>2026-05-02T13:59:51.087Z</time></trkpt><trkpt lat="42.0987367" lon="13.429595"><ele>941.0</ele><time>2026-05-02T13:59:52.087Z</time></trkpt><trkpt lat="42.0987017" lon="13.4295167"><ele>941.0</ele><time>2026-05-02T13:59:53.087Z</time></trkpt><trkpt lat="42.0986667" lon="13.429355"><ele>941.0000000000001</ele><time>2026-05-02T13:59:55.088Z</time></trkpt><trkpt lat="42.0986467" lon="13.4292467"><ele>941.0</ele><time>2026-05-02T13:59:56.087Z</time></trkpt><trkpt lat="42.0986233" lon="13.429135"><ele>942.8</ele><time>2026-05-02T13:59:57.087Z</time></trkpt><trkpt lat="42.0985883" lon="13.4290183"><ele>944.5999999999999</ele><time>2026-05-02T13:59:58.087Z</time></trkpt><trkpt lat="42.0985567" lon="13.4289017"><ele>946.4</ele><time>2026-05-02T13:59:59.088Z</time></trkpt><trkpt lat="42.0985267" lon="13.428765"><ele>948.2</ele><time>2026-05-02T14:00:00.087Z</time></trkpt><trkpt lat="42.0984933" lon="13.4286217"><ele>950.0</ele><time>2026-05-02T14:00:01.088Z</time></trkpt><trkpt lat="42.098455" lon="13.428465"><ele>951.25</ele><time>2026-05-02T14:00:02.088Z</time></trkpt><trkpt lat="42.09841" lon="13.428295"><ele>952.5</ele><time>2026-05-02T14:00:03.088Z</time></trkpt><trkpt lat="42.0983667" lon="13.42812"><ele>953.75</ele><time>2026-05-02T14:00:04.088Z</time></trkpt><trkpt lat="42.09833" lon="13.4279567"><ele>955.0</ele><time>2026-05-02T14:00:05.087Z</time></trkpt><trkpt lat="42.098295" lon="13.4277933"><ele>955.25</ele><time>2026-05-02T14:00:06.087Z</time></trkpt><trkpt lat="42.098255" lon="13.42764"><ele>955.5</ele><time>2026-05-02T14:00:07.088Z</time></trkpt><trkpt lat="42.0982217" lon="13.42749"><ele>955.75</ele><time>2026-05-02T14:00:08.087Z</time></trkpt><trkpt lat="42.0981817" lon="13.42734"><ele>956.0</ele><time>2026-05-02T14:00:09.088Z</time></trkpt><trkpt lat="42.0981467" lon="13.427215"><ele>952.5000000000001</ele><time>2026-05-02T14:00:10.088Z</time></trkpt><trkpt lat="42.098115" lon="13.4271267"><ele>949.0</ele><time>2026-05-02T14:00:11.088Z</time></trkpt><trkpt lat="42.0980833" lon="13.4270267"><ele>945.5</ele><time>2026-05-02T14:00:13.087Z</time></trkpt><trkpt lat="42.09807" lon="13.4269217"><ele>942.0</ele><time>2026-05-02T14:00:16.087Z</time></trkpt><trkpt lat="42.0980667" lon="13.4268083"><ele>938.5000000000001</ele><time>2026-05-02T14:00:22.088Z</time></trkpt><trkpt lat="42.098055" lon="13.426895"><ele>935.0</ele><time>2026-05-02T14:00:29.087Z</time></trkpt><trkpt lat="42.098075" lon="13.4270117"><ele>935.0000000000001</ele><time>2026-05-02T14:00:31.087Z</time></trkpt><trkpt lat="42.09811" lon="13.4271083"><ele>935.0</ele><time>2026-05-02T14:01:47.088Z</time></trkpt><trkpt lat="42.0981417" lon="13.4271967"><ele>935.0</ele><time>2026-05-02T14:01:48.087Z</time></trkpt><trkpt lat="42.098175" lon="13.4273017"><ele>935.0</ele><time>2026-05-02T14:01:49.088Z</time></trkpt><trkpt lat="42.0982117" lon="13.4274217"><ele>935.0000000000001</ele><time>2026-05-02T14:01:50.087Z</time></trkpt><trkpt lat="42.098245" lon="13.4275533"><ele>935.0</ele><time>2026-05-02T14:01:51.088Z</time></trkpt><trkpt lat="42.098275" lon="13.4277"><ele>940.0</ele><time>2026-05-02T14:01:52.087Z</time></trkpt><trkpt lat="42.09831" lon="13.4278567"><ele>945.0</ele><time>2026-05-02T14:01:53.087Z</time></trkpt><trkpt lat="42.0983467" lon="13.4280133"><ele>950.0</ele><time>2026-05-02T14:01:54.088Z</time></trkpt><trkpt lat="42.09839" lon="13.42818"><ele>955.0</ele><time>2026-05-02T14:01:55.087Z</time></trkpt><trkpt lat="42.0984267" lon="13.42834"><ele>954.9999999999999</ele><time>2026-05-02T14:01:56.088Z</time></trkpt><trkpt lat="42.0984617" lon="13.4284767"><ele>955.0</ele><time>2026-05-02T14:01:57.088Z</time></trkpt><trkpt lat="42.09849" lon="13.428595"><ele>955.0</ele><time>2026-05-02T14:01:58.088Z</time></trkpt><trkpt lat="42.0985067" lon="13.4286833"><ele>955.0</ele><time>2026-05-02T14:01:59.087Z</time></trkpt><trkpt lat="42.0985483" lon="13.428775"><ele>954.9999999999999</ele><time>2026-05-02T14:02:01.087Z</time></trkpt><trkpt lat="42.0986183" lon="13.4287883"><ele>955.0</ele><time>2026-05-02T14:02:03.088Z</time></trkpt><trkpt lat="42.0986283" lon="13.42867"><ele>955.0</ele><time>2026-05-02T14:02:13.087Z</time></trkpt><trkpt lat="42.0986133" lon="13.4285817"><ele>955.0</ele><time>2026-05-02T14:02:14.087Z</time></trkpt><trkpt lat="42.0986083" lon="13.42846"><ele>955.0</ele><time>2026-05-02T14:02:15.088Z</time></trkpt><trkpt lat="42.0986167" lon="13.4283167"><ele>955.0</ele><time>2026-05-02T14:02:16.088Z</time></trkpt><trkpt lat="42.0986333" lon="13.428155"><ele>955.0</ele><time>2026-05-02T14:02:17.087Z</time></trkpt><trkpt lat="42.098655" lon="13.4279933"><ele>955.25</ele><time>2026-05-02T14:02:18.087Z</time></trkpt><trkpt lat="42.098665" lon="13.42784"><ele>955.5</ele><time>2026-05-02T14:02:19.088Z</time></trkpt><trkpt lat="42.0986717" lon="13.4276533"><ele>955.75</ele><time>2026-05-02T14:02:20.087Z</time></trkpt><trkpt lat="42.0986767" lon="13.4274733"><ele>956.0</ele><time>2026-05-02T14:02:21.087Z</time></trkpt><trkpt lat="42.0986883" lon="13.4273217"><ele>956.0</ele><time>2026-05-02T14:02:22.087Z</time></trkpt><trkpt lat="42.0986983" lon="13.4271883"><ele>955.9999999999999</ele><time>2026-05-02T14:02:23.087Z</time></trkpt><trkpt lat="42.0987033" lon="13.4270783"><ele>955.9999999999999</ele><time>2026-05-02T14:02:24.088Z</time></trkpt><trkpt lat="42.0987017" lon="13.4269483"><ele>956.0</ele><time>2026-05-02T14:02:25.088Z</time></trkpt><trkpt lat="42.098705" lon="13.4267983"><ele>956.0</ele><time>2026-05-02T14:02:26.088Z</time></trkpt><trkpt lat="42.0987217" lon="13.42662"><ele>956.0</ele><time>2026-05-02T14:02:27.088Z</time></trkpt><trkpt lat="42.0987367" lon="13.42643"><ele>956.0</ele><time>2026-05-02T14:02:28.088Z</time></trkpt><trkpt lat="42.098745" lon="13.4262733"><ele>956.0</ele><time>2026-05-02T14:02:29.087Z</time></trkpt><trkpt lat="42.0987567" lon="13.4261517"><ele>956.0</ele><time>2026-05-02T14:02:30.087Z</time></trkpt><trkpt lat="42.0987917" lon="13.425985"><ele>956.0</ele><time>2026-05-02T14:02:32.088Z</time></trkpt><trkpt lat="42.0988233" lon="13.425895"><ele>955.9999999999999</ele><time>2026-05-02T14:02:33.087Z</time></trkpt><trkpt lat="42.09888" lon="13.4258033"><ele>955.9999999999999</ele><time>2026-05-02T14:02:34.088Z</time></trkpt><trkpt lat="42.0989533" lon="13.425705"><ele>956.0</ele><time>2026-05-02T14:02:35.088Z</time></trkpt><trkpt lat="42.09901" lon="13.42559"><ele>956.0</ele><time>2026-05-02T14:02:36.088Z</time></trkpt><trkpt lat="42.0990633" lon="13.4254517"><ele>955.25</ele><time>2026-05-02T14:02:37.087Z</time></trkpt><trkpt lat="42.0991067" lon="13.4252833"><ele>954.5</ele><time>2026-05-02T14:02:38.087Z</time></trkpt><trkpt lat="42.09914" lon="13.4250917"><ele>953.75</ele><time>2026-05-02T14:02:39.088Z</time></trkpt><trkpt lat="42.099185" lon="13.4248933"><ele>953.0</ele><time>2026-05-02T14:02:40.087Z</time></trkpt><trkpt lat="42.0992217" lon="13.4247"><ele>952.25</ele><time>2026-05-02T14:02:41.088Z</time></trkpt><trkpt lat="42.0992517" lon="13.4245067"><ele>951.5</ele><time>2026-05-02T14:02:42.088Z</time></trkpt><trkpt lat="42.0992733" lon="13.4243267"><ele>950.75</ele><time>2026-05-02T14:02:43.087Z</time></trkpt><trkpt lat="42.0992933" lon="13.4241433"><ele>950.0</ele><time>2026-05-02T14:02:44.087Z</time></trkpt><trkpt lat="42.0993117" lon="13.423945"><ele>949.0</ele><time>2026-05-02T14:02:45.087Z</time></trkpt><trkpt lat="42.09934" lon="13.42373"><ele>948.0</ele><time>2026-05-02T14:02:46.087Z</time></trkpt><trkpt lat="42.09937" lon="13.4235217"><ele>947.0</ele><time>2026-05-02T14:02:47.088Z</time></trkpt><trkpt lat="42.0993917" lon="13.4233217"><ele>947.0</ele><time>2026-05-02T14:02:48.087Z</time></trkpt><trkpt lat="42.0994033" lon="13.4231267"><ele>947.0</ele><time>2026-05-02T14:02:49.087Z</time></trkpt><trkpt lat="42.0994067" lon="13.4229333"><ele>947.0</ele><time>2026-05-02T14:02:50.088Z</time></trkpt><trkpt lat="42.0994067" lon="13.422755"><ele>947.0</ele><time>2026-05-02T14:02:51.087Z</time></trkpt><trkpt lat="42.099405" lon="13.4225833"><ele>946.25</ele><time>2026-05-02T14:02:52.088Z</time></trkpt><trkpt lat="42.099405" lon="13.4224083"><ele>945.5</ele><time>2026-05-02T14:02:53.087Z</time></trkpt><trkpt lat="42.0993933" lon="13.4222183"><ele>944.75</ele><time>2026-05-02T14:02:54.087Z</time></trkpt><trkpt lat="42.09939" lon="13.422015"><ele>944.0</ele><time>2026-05-02T14:02:55.088Z</time></trkpt><trkpt lat="42.0993917" lon="13.421815"><ele>943.25</ele><time>2026-05-02T14:02:56.088Z</time></trkpt><trkpt lat="42.0993967" lon="13.421615"><ele>942.5</ele><time>2026-05-02T14:02:57.088Z</time></trkpt><trkpt lat="42.0993967" lon="13.421425"><ele>941.75</ele><time>2026-05-02T14:02:58.088Z</time></trkpt><trkpt lat="42.0993983" lon="13.42123"><ele>941.0</ele><time>2026-05-02T14:02:59.088Z</time></trkpt><trkpt lat="42.0994067" lon="13.4210417"><ele>939.5</ele><time>2026-05-02T14:03:00.088Z</time></trkpt><trkpt lat="42.099425" lon="13.4208567"><ele>938.0</ele><time>2026-05-02T14:03:01.087Z</time></trkpt><trkpt lat="42.0994367" lon="13.4206583"><ele>936.5</ele><time>2026-05-02T14:03:02.087Z</time></trkpt><trkpt lat="42.0994383" lon="13.4204633"><ele>935.0</ele><time>2026-05-02T14:03:03.088Z</time></trkpt><trkpt lat="42.09943" lon="13.42026"><ele>933.6</ele><time>2026-05-02T14:03:04.088Z</time></trkpt><trkpt lat="42.0994233" lon="13.42007"><ele>932.2</ele><time>2026-05-02T14:03:05.087Z</time></trkpt><trkpt lat="42.0994317" lon="13.4199183"><ele>930.8</ele><time>2026-05-02T14:03:06.088Z</time></trkpt><trkpt lat="42.0994517" lon="13.4197933"><ele>929.4</ele><time>2026-05-02T14:03:07.087Z</time></trkpt><trkpt lat="42.0994883" lon="13.41969"><ele>928.0</ele><time>2026-05-02T14:03:08.087Z</time></trkpt><trkpt lat="42.0995233" lon="13.419605"><ele>927.8</ele><time>2026-05-02T14:03:09.087Z</time></trkpt><trkpt lat="42.0995383" lon="13.4195033"><ele>927.5999999999999</ele><time>2026-05-02T14:03:10.087Z</time></trkpt><trkpt lat="42.0995433" lon="13.4193767"><ele>927.4000000000001</ele><time>2026-05-02T14:03:11.087Z</time></trkpt><trkpt lat="42.0995483" lon="13.41922"><ele>927.2</ele><time>2026-05-02T14:03:12.087Z</time></trkpt><trkpt lat="42.09956" lon="13.419045"><ele>927.0</ele><time>2026-05-02T14:03:13.087Z</time></trkpt><trkpt lat="42.0995733" lon="13.4188617"><ele>925.75</ele><time>2026-05-02T14:03:14.088Z</time></trkpt><trkpt lat="42.0995817" lon="13.4186667"><ele>924.5</ele><time>2026-05-02T14:03:15.087Z</time></trkpt><trkpt lat="42.0995967" lon="13.41848"><ele>923.25</ele><time>2026-05-02T14:03:16.087Z</time></trkpt><trkpt lat="42.09962" lon="13.4182833"><ele>922.0</ele><time>2026-05-02T14:03:17.087Z</time></trkpt><trkpt lat="42.09966" lon="13.4180883"><ele>921.0</ele><time>2026-05-02T14:03:18.087Z</time></trkpt><trkpt lat="42.0996917" lon="13.4179"><ele>920.0</ele><time>2026-05-02T14:03:19.088Z</time></trkpt><trkpt lat="42.0997267" lon="13.41772"><ele>919.0</ele><time>2026-05-02T14:03:20.087Z</time></trkpt><trkpt lat="42.0997567" lon="13.4175217"><ele>918.0</ele><time>2026-05-02T14:03:21.087Z</time></trkpt><trkpt lat="42.0997867" lon="13.4173317"><ele>916.5</ele><time>2026-05-02T14:03:22.088Z</time></trkpt><trkpt lat="42.099815" lon="13.41715"><ele>915.0</ele><time>2026-05-02T14:03:23.087Z</time></trkpt><trkpt lat="42.09984" lon="13.416975"><ele>913.5</ele><time>2026-05-02T14:03:24.088Z</time></trkpt><trkpt lat="42.0998667" lon="13.416805"><ele>912.0</ele><time>2026-05-02T14:03:25.087Z</time></trkpt><trkpt lat="42.0998883" lon="13.41663"><ele>912.0</ele><time>2026-05-02T14:03:26.088Z</time></trkpt><trkpt lat="42.0999067" lon="13.4164433"><ele>912.0</ele><time>2026-05-02T14:03:27.087Z</time></trkpt><trkpt lat="42.0999217" lon="13.416245"><ele>912.0</ele><time>2026-05-02T14:03:28.088Z</time></trkpt><trkpt lat="42.0999433" lon="13.4160433"><ele>912.0</ele><time>2026-05-02T14:03:29.088Z</time></trkpt><trkpt lat="42.0999683" lon="13.4158483"><ele>911.25</ele><time>2026-05-02T14:03:30.088Z</time></trkpt><trkpt lat="42.0999917" lon="13.4156567"><ele>910.5</ele><time>2026-05-02T14:03:31.088Z</time></trkpt><trkpt lat="42.1000167" lon="13.4154683"><ele>909.75</ele><time>2026-05-02T14:03:32.087Z</time></trkpt><trkpt lat="42.1000467" lon="13.4152783"><ele>909.0</ele><time>2026-05-02T14:03:33.088Z</time></trkpt><trkpt lat="42.100075" lon="13.41508"><ele>908.0</ele><time>2026-05-02T14:03:34.087Z</time></trkpt><trkpt lat="42.1001033" lon="13.414895"><ele>907.0</ele><time>2026-05-02T14:03:35.088Z</time></trkpt><trkpt lat="42.100125" lon="13.414715"><ele>906.0</ele><time>2026-05-02T14:03:36.088Z</time></trkpt><trkpt lat="42.1001467" lon="13.4145417"><ele>905.0</ele><time>2026-05-02T14:03:37.088Z</time></trkpt><trkpt lat="42.100175" lon="13.4143633"><ele>903.5</ele><time>2026-05-02T14:03:38.088Z</time></trkpt><trkpt lat="42.1002133" lon="13.4141983"><ele>902.0</ele><time>2026-05-02T14:03:39.087Z</time></trkpt><trkpt lat="42.100255" lon="13.4140317"><ele>900.5</ele><time>2026-05-02T14:03:40.087Z</time></trkpt><trkpt lat="42.1002883" lon="13.4138483"><ele>899.0</ele><time>2026-05-02T14:03:41.087Z</time></trkpt><trkpt lat="42.10032" lon="13.4136567"><ele>898.75</ele><time>2026-05-02T14:03:42.087Z</time></trkpt><trkpt lat="42.1003583" lon="13.4134683"><ele>898.5</ele><time>2026-05-02T14:03:43.087Z</time></trkpt><trkpt lat="42.100405" lon="13.4132917"><ele>898.25</ele><time>2026-05-02T14:03:44.087Z</time></trkpt><trkpt lat="42.100455" lon="13.4131367"><ele>898.0</ele><time>2026-05-02T14:03:45.087Z</time></trkpt><trkpt lat="42.10049" lon="13.412995"><ele>897.2</ele><time>2026-05-02T14:03:46.087Z</time></trkpt><trkpt lat="42.1005283" lon="13.4128667"><ele>896.4</ele><time>2026-05-02T14:03:47.087Z</time></trkpt><trkpt lat="42.1005617" lon="13.4127533"><ele>895.6000000000001</ele><time>2026-05-02T14:03:48.088Z</time></trkpt><trkpt lat="42.1005783" lon="13.412615"><ele>894.8000000000001</ele><time>2026-05-02T14:03:49.088Z</time></trkpt><trkpt lat="42.1005883" lon="13.412475"><ele>894.0</ele><time>2026-05-02T14:03:50.088Z</time></trkpt><trkpt lat="42.1006" lon="13.4123433"><ele>894.0</ele><time>2026-05-02T14:03:51.087Z</time></trkpt><trkpt lat="42.10063" lon="13.41221"><ele>894.0</ele><time>2026-05-02T14:03:52.087Z</time></trkpt><trkpt lat="42.1006783" lon="13.41206"><ele>894.0</ele><time>2026-05-02T14:03:53.088Z</time></trkpt><trkpt lat="42.1007283" lon="13.4118967"><ele>894.0</ele><time>2026-05-02T14:03:54.087Z</time></trkpt><trkpt lat="42.1007717" lon="13.41174"><ele>892.2</ele><time>2026-05-02T14:03:55.088Z</time></trkpt><trkpt lat="42.10081" lon="13.4116133"><ele>890.4000000000001</ele><time>2026-05-02T14:03:56.087Z</time></trkpt><trkpt lat="42.100855" lon="13.411515"><ele>888.6</ele><time>2026-05-02T14:03:57.088Z</time></trkpt><trkpt lat="42.1009017" lon="13.4114183"><ele>886.8</ele><time>2026-05-02T14:03:58.088Z</time></trkpt><trkpt lat="42.100955" lon="13.411325"><ele>885.0</ele><time>2026-05-02T14:03:59.087Z</time></trkpt><trkpt lat="42.101015" lon="13.4111967"><ele>884.0</ele><time>2026-05-02T14:04:00.087Z</time></trkpt><trkpt lat="42.1010783" lon="13.411045"><ele>883.0</ele><time>2026-05-02T14:04:01.087Z</time></trkpt><trkpt lat="42.1011483" lon="13.4108933"><ele>882.0</ele><time>2026-05-02T14:04:02.087Z</time></trkpt><trkpt lat="42.1012083" lon="13.4107267"><ele>881.0</ele><time>2026-05-02T14:04:03.087Z</time></trkpt><trkpt lat="42.101255" lon="13.4105433"><ele>880.6666666666667</ele><time>2026-05-02T14:04:04.088Z</time></trkpt><trkpt lat="42.101315" lon="13.41037"><ele>880.3333333333333</ele><time>2026-05-02T14:04:05.088Z</time></trkpt><trkpt lat="42.1013883" lon="13.4101833"><ele>880.0</ele><time>2026-05-02T14:04:06.087Z</time></trkpt><trkpt lat="42.101465" lon="13.4099983"><ele>880.0</ele><time>2026-05-02T14:04:07.087Z</time></trkpt><trkpt lat="42.101555" lon="13.409805"><ele>880.0</ele><time>2026-05-02T14:04:08.087Z</time></trkpt><trkpt lat="42.1016433" lon="13.4096"><ele>880.0</ele><time>2026-05-02T14:04:09.087Z</time></trkpt><trkpt lat="42.1017267" lon="13.4094"><ele>877.5</ele><time>2026-05-02T14:04:10.087Z</time></trkpt><trkpt lat="42.1018017" lon="13.4092133"><ele>875.0</ele><time>2026-05-02T14:04:11.087Z</time></trkpt><trkpt lat="42.1018783" lon="13.4090417"><ele>872.5</ele><time>2026-05-02T14:04:12.087Z</time></trkpt><trkpt lat="42.1019617" lon="13.40889"><ele>870.0</ele><time>2026-05-02T14:04:13.088Z</time></trkpt><trkpt lat="42.102045" lon="13.408735"><ele>869.25</ele><time>2026-05-02T14:04:14.088Z</time></trkpt><trkpt lat="42.1021333" lon="13.4085817"><ele>868.5</ele><time>2026-05-02T14:04:15.087Z</time></trkpt><trkpt lat="42.1022133" lon="13.40844"><ele>867.75</ele><time>2026-05-02T14:04:16.087Z</time></trkpt><trkpt lat="42.1022783" lon="13.4083"><ele>867.0</ele><time>2026-05-02T14:04:17.088Z</time></trkpt><trkpt lat="42.1023367" lon="13.4081517"><ele>866.75</ele><time>2026-05-02T14:04:18.088Z</time></trkpt><trkpt lat="42.1023917" lon="13.4079867"><ele>866.5</ele><time>2026-05-02T14:04:19.087Z</time></trkpt><trkpt lat="42.1024433" lon="13.4078117"><ele>866.25</ele><time>2026-05-02T14:04:20.088Z</time></trkpt><trkpt lat="42.102485" lon="13.407655"><ele>866.0</ele><time>2026-05-02T14:04:21.087Z</time></trkpt><trkpt lat="42.102515" lon="13.4075"><ele>865.5999999999999</ele><time>2026-05-02T14:04:22.087Z</time></trkpt><trkpt lat="42.1025283" lon="13.4073583"><ele>865.1999999999999</ele><time>2026-05-02T14:04:23.088Z</time></trkpt><trkpt lat="42.102515" lon="13.40723"><ele>864.8000000000001</ele><time>2026-05-02T14:04:24.088Z</time></trkpt><trkpt lat="42.1025017" lon="13.40708"><ele>864.4000000000001</ele><time>2026-05-02T14:04:25.088Z</time></trkpt><trkpt lat="42.1024883" lon="13.4069233"><ele>864.0</ele><time>2026-05-02T14:04:26.088Z</time></trkpt><trkpt lat="42.102485" lon="13.4067683"><ele>862.5</ele><time>2026-05-02T14:04:27.088Z</time></trkpt><trkpt lat="42.10249" lon="13.4066133"><ele>861.0</ele><time>2026-05-02T14:04:28.088Z</time></trkpt><trkpt lat="42.1025033" lon="13.406455"><ele>859.5</ele><time>2026-05-02T14:04:29.087Z</time></trkpt><trkpt lat="42.1025283" lon="13.4063"><ele>858.0</ele><time>2026-05-02T14:04:30.087Z</time></trkpt><trkpt lat="42.1025517" lon="13.4061517"><ele>857.0</ele><time>2026-05-02T14:04:31.088Z</time></trkpt><trkpt lat="42.102565" lon="13.4060083"><ele>856.0</ele><time>2026-05-02T14:04:32.087Z</time></trkpt><trkpt lat="42.1025783" lon="13.4058617"><ele>855.0</ele><time>2026-05-02T14:04:33.088Z</time></trkpt><trkpt lat="42.102605" lon="13.4056967"><ele>854.0</ele><time>2026-05-02T14:04:34.088Z</time></trkpt><trkpt lat="42.1026367" lon="13.405515"><ele>853.0</ele><time>2026-05-02T14:04:35.087Z</time></trkpt><trkpt lat="42.102685" lon="13.4053317"><ele>852.0</ele><time>2026-05-02T14:04:36.088Z</time></trkpt><trkpt lat="42.1027633" lon="13.4051367"><ele>851.0</ele><time>2026-05-02T14:04:37.088Z</time></trkpt><trkpt lat="42.1028383" lon="13.40494"><ele>851.0</ele><time>2026-05-02T14:04:38.087Z</time></trkpt><trkpt lat="42.1029167" lon="13.40472"><ele>851.0</ele><time>2026-05-02T14:04:39.087Z</time></trkpt><trkpt lat="42.1029817" lon="13.404515"><ele>851.0</ele><time>2026-05-02T14:04:40.088Z</time></trkpt><trkpt lat="42.1030367" lon="13.404325"><ele>850.25</ele><time>2026-05-02T14:04:41.088Z</time></trkpt><trkpt lat="42.103095" lon="13.4041467"><ele>849.5</ele><time>2026-05-02T14:04:42.088Z</time></trkpt><trkpt lat="42.1031617" lon="13.40399"><ele>848.75</ele><time>2026-05-02T14:04:43.087Z</time></trkpt><trkpt lat="42.103235" lon="13.4038283"><ele>848.0</ele><time>2026-05-02T14:04:44.088Z</time></trkpt><trkpt lat="42.103305" lon="13.40369"><ele>847.0</ele><time>2026-05-02T14:04:45.087Z</time></trkpt><trkpt lat="42.10337" lon="13.4035533"><ele>846.0</ele><time>2026-05-02T14:04:46.087Z</time></trkpt><trkpt lat="42.1034417" lon="13.4034"><ele>845.0</ele><time>2026-05-02T14:04:47.088Z</time></trkpt><trkpt lat="42.103515" lon="13.4032367"><ele>844.0</ele><time>2026-05-02T14:04:48.088Z</time></trkpt><trkpt lat="42.103595" lon="13.4030683"><ele>843.0</ele><time>2026-05-02T14:04:49.087Z</time></trkpt><trkpt lat="42.1036633" lon="13.40292"><ele>842.0</ele><time>2026-05-02T14:04:50.087Z</time></trkpt><trkpt lat="42.1037383" lon="13.4027717"><ele>841.0</ele><time>2026-05-02T14:04:51.088Z</time></trkpt><trkpt lat="42.103815" lon="13.4026267"><ele>840.0</ele><time>2026-05-02T14:04:52.088Z</time></trkpt><trkpt lat="42.1038867" lon="13.402505"><ele>840.0</ele><time>2026-05-02T14:04:53.087Z</time></trkpt><trkpt lat="42.1039533" lon="13.4024017"><ele>840.0</ele><time>2026-05-02T14:04:54.087Z</time></trkpt><trkpt lat="42.1040217" lon="13.40231"><ele>840.0</ele><time>2026-05-02T14:04:55.088Z</time></trkpt><trkpt lat="42.1040883" lon="13.4022317"><ele>840.0</ele><time>2026-05-02T14:04:56.087Z</time></trkpt><trkpt lat="42.104145" lon="13.4021717"><ele>840.0</ele><time>2026-05-02T14:04:57.087Z</time></trkpt><trkpt lat="42.1041917" lon="13.4021017"><ele>840.0</ele><time>2026-05-02T14:04:58.087Z</time></trkpt><trkpt lat="42.1042317" lon="13.402025"><ele>839.8</ele><time>2026-05-02T14:04:59.088Z</time></trkpt><trkpt lat="42.1042833" lon="13.40194"><ele>839.6</ele><time>2026-05-02T14:05:00.087Z</time></trkpt><trkpt lat="42.1043383" lon="13.40184"><ele>839.4000000000001</ele><time>2026-05-02T14:05:01.087Z</time></trkpt><trkpt lat="42.1044033" lon="13.40172"><ele>839.2</ele><time>2026-05-02T14:05:02.087Z</time></trkpt><trkpt lat="42.1044817" lon="13.40158"><ele>839.0</ele><time>2026-05-02T14:05:03.088Z</time></trkpt><trkpt lat="42.1045817" lon="13.4013933"><ele>838.0</ele><time>2026-05-02T14:05:04.088Z</time></trkpt><trkpt lat="42.1046867" lon="13.40121"><ele>837.0</ele><time>2026-05-02T14:05:05.087Z</time></trkpt><trkpt lat="42.104795" lon="13.4010133"><ele>836.0</ele><time>2026-05-02T14:05:06.088Z</time></trkpt><trkpt lat="42.1048933" lon="13.400825"><ele>836.6666666666667</ele><time>2026-05-02T14:05:07.088Z</time></trkpt><trkpt lat="42.104995" lon="13.40063"><ele>837.3333333333333</ele><time>2026-05-02T14:05:08.088Z</time></trkpt><trkpt lat="42.1050783" lon="13.4004717"><ele>838.0</ele><time>2026-05-02T14:05:09.087Z</time></trkpt><trkpt lat="42.1051633" lon="13.40032"><ele>837.0</ele><time>2026-05-02T14:05:10.087Z</time></trkpt><trkpt lat="42.10526" lon="13.40015"><ele>836.0</ele><time>2026-05-02T14:05:11.088Z</time></trkpt><trkpt lat="42.105345" lon="13.3999883"><ele>835.0</ele><time>2026-05-02T14:05:12.087Z</time></trkpt><trkpt lat="42.1054167" lon="13.39984"><ele>834.0</ele><time>2026-05-02T14:05:13.087Z</time></trkpt><trkpt lat="42.1054783" lon="13.3996833"><ele>833.8000000000001</ele><time>2026-05-02T14:05:14.088Z</time></trkpt><trkpt lat="42.10553" lon="13.399555"><ele>833.6</ele><time>2026-05-02T14:05:15.087Z</time></trkpt><trkpt lat="42.1055783" lon="13.3994333"><ele>833.4</ele><time>2026-05-02T14:05:16.088Z</time></trkpt><trkpt lat="42.1056033" lon="13.399325"><ele>833.2</ele><time>2026-05-02T14:05:17.087Z</time></trkpt><trkpt lat="42.1056217" lon="13.3992083"><ele>833.0</ele><time>2026-05-02T14:05:18.088Z</time></trkpt><trkpt lat="42.105635" lon="13.3990667"><ele>833.0</ele><time>2026-05-02T14:05:19.088Z</time></trkpt><trkpt lat="42.105645" lon="13.39896"><ele>833.0</ele><time>2026-05-02T14:05:20.088Z</time></trkpt><trkpt lat="42.10565" lon="13.3988683"><ele>833.0</ele><time>2026-05-02T14:05:21.088Z</time></trkpt><trkpt lat="42.1056583" lon="13.3987833"><ele>833.0</ele><time>2026-05-02T14:05:22.088Z</time></trkpt><trkpt lat="42.1056883" lon="13.3987067"><ele>833.0</ele><time>2026-05-02T14:05:23.088Z</time></trkpt><trkpt lat="42.1057317" lon="13.3986267"><ele>833.0</ele><time>2026-05-02T14:05:24.088Z</time></trkpt><trkpt lat="42.105805" lon="13.398535"><ele>833.0</ele><time>2026-05-02T14:05:25.088Z</time></trkpt><trkpt lat="42.1058967" lon="13.3984567"><ele>833.0</ele><time>2026-05-02T14:05:26.088Z</time></trkpt><trkpt lat="42.1060117" lon="13.39836"><ele>833.0</ele><time>2026-05-02T14:05:27.087Z</time></trkpt><trkpt lat="42.1061483" lon="13.3982617"><ele>833.0</ele><time>2026-05-02T14:05:28.087Z</time></trkpt><trkpt lat="42.106285" lon="13.3981583"><ele>833.0</ele><time>2026-05-02T14:05:29.088Z</time></trkpt><trkpt lat="42.1064217" lon="13.3980633"><ele>833.0</ele><time>2026-05-02T14:05:30.087Z</time></trkpt><trkpt lat="42.10655" lon="13.39796"><ele>833.0</ele><time>2026-05-02T14:05:31.087Z</time></trkpt><trkpt lat="42.1066783" lon="13.3978383"><ele>833.0</ele><time>2026-05-02T14:05:32.087Z</time></trkpt><trkpt lat="42.1067983" lon="13.3976717"><ele>834.0</ele><time>2026-05-02T14:05:33.088Z</time></trkpt><trkpt lat="42.1069017" lon="13.397505"><ele>835.0</ele><time>2026-05-02T14:05:34.087Z</time></trkpt><trkpt lat="42.1069917" lon="13.39735"><ele>836.0</ele><time>2026-05-02T14:05:35.088Z</time></trkpt><trkpt lat="42.10706" lon="13.3972017"><ele>837.0</ele><time>2026-05-02T14:05:36.088Z</time></trkpt><trkpt lat="42.107115" lon="13.3970817"><ele>837.3333333333334</ele><time>2026-05-02T14:05:37.087Z</time></trkpt><trkpt lat="42.1071567" lon="13.396975"><ele>837.6666666666667</ele><time>2026-05-02T14:05:38.088Z</time></trkpt><trkpt lat="42.107185" lon="13.396895"><ele>838.0</ele><time>2026-05-02T14:05:39.087Z</time></trkpt><trkpt lat="42.1071933" lon="13.3967933"><ele>838.3333333333334</ele><time>2026-05-02T14:05:41.087Z</time></trkpt><trkpt lat="42.1071483" lon="13.3966483"><ele>838.6666666666667</ele><time>2026-05-02T14:05:43.087Z</time></trkpt><trkpt lat="42.10709" lon="13.3965417"><ele>839.0</ele><time>2026-05-02T14:05:44.088Z</time></trkpt><trkpt lat="42.1070267" lon="13.39641"><ele>840.0</ele><time>2026-05-02T14:05:45.088Z</time></trkpt><trkpt lat="42.1069617" lon="13.3962683"><ele>841.0</ele><time>2026-05-02T14:05:46.087Z</time></trkpt><trkpt lat="42.1068883" lon="13.3961133"><ele>842.0</ele><time>2026-05-02T14:05:47.087Z</time></trkpt><trkpt lat="42.1068133" lon="13.39595"><ele>843.0</ele><time>2026-05-02T14:05:48.088Z</time></trkpt><trkpt lat="42.106735" lon="13.3957833"><ele>843.0</ele><time>2026-05-02T14:05:49.088Z</time></trkpt><trkpt lat="42.1066617" lon="13.39562"><ele>843.0</ele><time>2026-05-02T14:05:50.088Z</time></trkpt><trkpt lat="42.10659" lon="13.395455"><ele>843.0</ele><time>2026-05-02T14:05:51.086Z</time></trkpt><trkpt lat="42.1065167" lon="13.3953033"><ele>843.0</ele><time>2026-05-02T14:05:52.086Z</time></trkpt><trkpt lat="42.1064483" lon="13.3951467"><ele>843.0</ele><time>2026-05-02T14:05:53.087Z</time></trkpt><trkpt lat="42.1063817" lon="13.3949933"><ele>843.0</ele><time>2026-05-02T14:05:54.087Z</time></trkpt><trkpt lat="42.1063183" lon="13.3948467"><ele>843.0</ele><time>2026-05-02T14:05:55.086Z</time></trkpt><trkpt lat="42.106255" lon="13.3947"><ele>843.0</ele><time>2026-05-02T14:05:56.086Z</time></trkpt><trkpt lat="42.1061867" lon="13.3945533"><ele>843.0</ele><time>2026-05-02T14:05:57.086Z</time></trkpt><trkpt lat="42.10613" lon="13.394435"><ele>843.0</ele><time>2026-05-02T14:05:58.086Z</time></trkpt><trkpt lat="42.106085" lon="13.3943517"><ele>843.0</ele><time>2026-05-02T14:05:59.086Z</time></trkpt><trkpt lat="42.1060367" lon="13.394295"><ele>843.0</ele><time>2026-05-02T14:06:00.086Z</time></trkpt><trkpt lat="42.1059617" lon="13.3942383"><ele>843.0</ele><time>2026-05-02T14:06:02.086Z</time></trkpt><trkpt lat="42.1058433" lon="13.394165"><ele>843.0</ele><time>2026-05-02T14:06:04.087Z</time></trkpt><trkpt lat="42.1057583" lon="13.3941267"><ele>843.0</ele><time>2026-05-02T14:06:05.086Z</time></trkpt><trkpt lat="42.1056783" lon="13.3940917"><ele>843.0</ele><time>2026-05-02T14:06:06.087Z</time></trkpt><trkpt lat="42.1056083" lon="13.394065"><ele>843.0</ele><time>2026-05-02T14:06:07.086Z</time></trkpt><trkpt lat="42.1055183" lon="13.394015"><ele>843.0</ele><time>2026-05-02T14:06:09.086Z</time></trkpt><trkpt lat="42.10543" lon="13.394"><ele>843.0</ele><time>2026-05-02T14:06:11.087Z</time></trkpt><trkpt lat="42.10536" lon="13.394005"><ele>841.2</ele><time>2026-05-02T14:06:12.087Z</time></trkpt><trkpt lat="42.10528" lon="13.394035"><ele>839.4</ele><time>2026-05-02T14:06:13.087Z</time></trkpt><trkpt lat="42.105195" lon="13.3940967"><ele>837.6</ele><time>2026-05-02T14:06:14.086Z</time></trkpt><trkpt lat="42.10511" lon="13.3941633"><ele>835.8000000000001</ele><time>2026-05-02T14:06:15.087Z</time></trkpt><trkpt lat="42.1050117" lon="13.3943033"><ele>834.0</ele><time>2026-05-02T14:06:16.086Z</time></trkpt><trkpt lat="42.1049117" lon="13.3944533"><ele>832.0</ele><time>2026-05-02T14:06:17.086Z</time></trkpt><trkpt lat="42.1048067" lon="13.3945917"><ele>830.0</ele><time>2026-05-02T14:06:18.087Z</time></trkpt><trkpt lat="42.104695" lon="13.394705"><ele>828.0</ele><time>2026-05-02T14:06:19.086Z</time></trkpt><trkpt lat="42.1045817" lon="13.3948017"><ele>826.0</ele><time>2026-05-02T14:06:20.086Z</time></trkpt><trkpt lat="42.1044683" lon="13.3948683"><ele>826.0</ele><time>2026-05-02T14:06:21.087Z</time></trkpt><trkpt lat="42.10435" lon="13.3949033"><ele>826.0</ele><time>2026-05-02T14:06:22.086Z</time></trkpt><trkpt lat="42.1042267" lon="13.3949333"><ele>826.0</ele><time>2026-05-02T14:06:23.086Z</time></trkpt><trkpt lat="42.1040917" lon="13.3949667"><ele>826.0</ele><time>2026-05-02T14:06:24.087Z</time></trkpt><trkpt lat="42.10395" lon="13.395015"><ele>825.25</ele><time>2026-05-02T14:06:25.086Z</time></trkpt><trkpt lat="42.103805" lon="13.3950633"><ele>824.5</ele><time>2026-05-02T14:06:26.086Z</time></trkpt><trkpt lat="42.1036583" lon="13.3951033"><ele>823.75</ele><time>2026-05-02T14:06:27.086Z</time></trkpt><trkpt lat="42.1035117" lon="13.3951333"><ele>823.0</ele><time>2026-05-02T14:06:28.087Z</time></trkpt><trkpt lat="42.1033683" lon="13.39515"><ele>822.0</ele><time>2026-05-02T14:06:29.087Z</time></trkpt><trkpt lat="42.1032317" lon="13.3951133"><ele>821.0</ele><time>2026-05-02T14:06:30.086Z</time></trkpt><trkpt lat="42.1030867" lon="13.39506"><ele>820.0</ele><time>2026-05-02T14:06:31.087Z</time></trkpt><trkpt lat="42.1029333" lon="13.3949667"><ele>820.0</ele><time>2026-05-02T14:06:32.086Z</time></trkpt><trkpt lat="42.1027883" lon="13.3948533"><ele>820.0</ele><time>2026-05-02T14:06:33.086Z</time></trkpt><trkpt lat="42.1026433" lon="13.39472"><ele>820.0</ele><time>2026-05-02T14:06:34.087Z</time></trkpt><trkpt lat="42.102495" lon="13.3945667"><ele>819.3333333333333</ele><time>2026-05-02T14:06:35.086Z</time></trkpt><trkpt lat="42.1023433" lon="13.394405"><ele>818.6666666666667</ele><time>2026-05-02T14:06:36.087Z</time></trkpt><trkpt lat="42.102195" lon="13.3942433"><ele>818.0</ele><time>2026-05-02T14:06:37.087Z</time></trkpt><trkpt lat="42.1020433" lon="13.3940883"><ele>818.0</ele><time>2026-05-02T14:06:38.086Z</time></trkpt><trkpt lat="42.1018867" lon="13.3939183"><ele>818.0</ele><time>2026-05-02T14:06:39.087Z</time></trkpt><trkpt lat="42.1017233" lon="13.3937533"><ele>818.0</ele><time>2026-05-02T14:06:40.086Z</time></trkpt><trkpt lat="42.1015567" lon="13.3935817"><ele>817.6666666666667</ele><time>2026-05-02T14:06:41.086Z</time></trkpt><trkpt lat="42.1013867" lon="13.3934117"><ele>817.3333333333333</ele><time>2026-05-02T14:06:42.087Z</time></trkpt><trkpt lat="42.1012217" lon="13.3932417"><ele>817.0</ele><time>2026-05-02T14:06:43.087Z</time></trkpt><trkpt lat="42.1010617" lon="13.3930667"><ele>816.0</ele><time>2026-05-02T14:06:44.087Z</time></trkpt><trkpt lat="42.100895" lon="13.3928883"><ele>815.0</ele><time>2026-05-02T14:06:45.087Z</time></trkpt><trkpt lat="42.10073" lon="13.3927133"><ele>814.0</ele><time>2026-05-02T14:06:46.086Z</time></trkpt><trkpt lat="42.10056" lon="13.3925317"><ele>814.0</ele><time>2026-05-02T14:06:47.086Z</time></trkpt><trkpt lat="42.1003933" lon="13.392355"><ele>814.0</ele><time>2026-05-02T14:06:48.087Z</time></trkpt><trkpt lat="42.100225" lon="13.39218"><ele>814.0</ele><time>2026-05-02T14:06:49.087Z</time></trkpt><trkpt lat="42.1000517" lon="13.392005"><ele>814.0</ele><time>2026-05-02T14:06:50.087Z</time></trkpt><trkpt lat="42.09988" lon="13.3918283"><ele>814.0</ele><time>2026-05-02T14:06:51.087Z</time></trkpt><trkpt lat="42.099705" lon="13.391635"><ele>814.0</ele><time>2026-05-02T14:06:52.087Z</time></trkpt><trkpt lat="42.0995233" lon="13.3914467"><ele>812.0</ele><time>2026-05-02T14:06:53.087Z</time></trkpt><trkpt lat="42.0993367" lon="13.39125"><ele>810.0</ele><time>2026-05-02T14:06:54.087Z</time></trkpt><trkpt lat="42.0991483" lon="13.3910533"><ele>810.5</ele><time>2026-05-02T14:06:55.087Z</time></trkpt><trkpt lat="42.0989583" lon="13.3908583"><ele>811.0</ele><time>2026-05-02T14:06:56.086Z</time></trkpt><trkpt lat="42.0987683" lon="13.39065"><ele>810.0</ele><time>2026-05-02T14:06:57.087Z</time></trkpt><trkpt lat="42.0985767" lon="13.3904467"><ele>809.0</ele><time>2026-05-02T14:06:58.086Z</time></trkpt><trkpt lat="42.0983867" lon="13.3902483"><ele>809.0</ele><time>2026-05-02T14:06:59.087Z</time></trkpt><trkpt lat="42.0981983" lon="13.3900517"><ele>809.0</ele><time>2026-05-02T14:07:00.086Z</time></trkpt><trkpt lat="42.0980167" lon="13.3898667"><ele>809.0</ele><time>2026-05-02T14:07:01.086Z</time></trkpt><trkpt lat="42.0978467" lon="13.3896983"><ele>809.0</ele><time>2026-05-02T14:07:02.086Z</time></trkpt><trkpt lat="42.0976917" lon="13.3895367"><ele>809.0</ele><time>2026-05-02T14:07:03.087Z</time></trkpt><trkpt lat="42.0975517" lon="13.3893817"><ele>808.0</ele><time>2026-05-02T14:07:04.086Z</time></trkpt><trkpt lat="42.0974267" lon="13.3892517"><ele>807.0</ele><time>2026-05-02T14:07:05.086Z</time></trkpt><trkpt lat="42.0973133" lon="13.3891217"><ele>806.0</ele><time>2026-05-02T14:07:06.087Z</time></trkpt><trkpt lat="42.0972233" lon="13.3890033"><ele>805.0</ele><time>2026-05-02T14:07:07.086Z</time></trkpt><trkpt lat="42.0971467" lon="13.38888"><ele>804.6</ele><time>2026-05-02T14:07:08.087Z</time></trkpt><trkpt lat="42.097095" lon="13.38876"><ele>804.2</ele><time>2026-05-02T14:07:09.086Z</time></trkpt><trkpt lat="42.0970633" lon="13.38865"><ele>803.8</ele><time>2026-05-02T14:07:10.087Z</time></trkpt><trkpt lat="42.0970583" lon="13.388555"><ele>803.4</ele><time>2026-05-02T14:07:11.086Z</time></trkpt><trkpt lat="42.0970967" lon="13.3884483"><ele>803.0</ele><time>2026-05-02T14:07:13.087Z</time></trkpt><trkpt lat="42.0972133" lon="13.3884233"><ele>803.0</ele><time>2026-05-02T14:07:15.086Z</time></trkpt><trkpt lat="42.0973033" lon="13.38843"><ele>803.0</ele><time>2026-05-02T14:07:16.087Z</time></trkpt><trkpt lat="42.0974083" lon="13.3884233"><ele>803.0</ele><time>2026-05-02T14:07:17.086Z</time></trkpt><trkpt lat="42.0975317" lon="13.3884133"><ele>803.0</ele><time>2026-05-02T14:07:18.087Z</time></trkpt><trkpt lat="42.09766" lon="13.3884233"><ele>803.0</ele><time>2026-05-02T14:07:19.087Z</time></trkpt><trkpt lat="42.0977833" lon="13.38844"><ele>802.5</ele><time>2026-05-02T14:07:20.087Z</time></trkpt><trkpt lat="42.0978983" lon="13.3884583"><ele>802.0</ele><time>2026-05-02T14:07:21.086Z</time></trkpt><trkpt lat="42.0980083" lon="13.388455"><ele>801.5</ele><time>2026-05-02T14:07:22.086Z</time></trkpt><trkpt lat="42.0981233" lon="13.38842"><ele>801.0</ele><time>2026-05-02T14:07:23.086Z</time></trkpt><trkpt lat="42.0982417" lon="13.3883817"><ele>801.1999999999999</ele><time>2026-05-02T14:07:24.086Z</time></trkpt><trkpt lat="42.0983483" lon="13.3883683"><ele>801.4</ele><time>2026-05-02T14:07:25.087Z</time></trkpt><trkpt lat="42.0984633" lon="13.3883783"><ele>801.6</ele><time>2026-05-02T14:07:26.086Z</time></trkpt><trkpt lat="42.0985617" lon="13.38841"><ele>801.8</ele><time>2026-05-02T14:07:27.086Z</time></trkpt><trkpt lat="42.0986617" lon="13.388465"><ele>802.0</ele><time>2026-05-02T14:07:28.086Z</time></trkpt><trkpt lat="42.0987617" lon="13.388545"><ele>802.0</ele><time>2026-05-02T14:07:29.086Z</time></trkpt><trkpt lat="42.098875" lon="13.38864"><ele>802.0</ele><time>2026-05-02T14:07:30.086Z</time></trkpt><trkpt lat="42.099005" lon="13.3887217"><ele>802.0</ele><time>2026-05-02T14:07:31.086Z</time></trkpt><trkpt lat="42.0991467" lon="13.3887883"><ele>802.0</ele><time>2026-05-02T14:07:32.086Z</time></trkpt><trkpt lat="42.099285" lon="13.3888583"><ele>803.5</ele><time>2026-05-02T14:07:33.087Z</time></trkpt><trkpt lat="42.0994167" lon="13.3889233"><ele>805.0</ele><time>2026-05-02T14:07:34.087Z</time></trkpt><trkpt lat="42.0995383" lon="13.38898"><ele>806.5</ele><time>2026-05-02T14:07:35.087Z</time></trkpt><trkpt lat="42.099635" lon="13.389005"><ele>808.0</ele><time>2026-05-02T14:07:36.086Z</time></trkpt><trkpt lat="42.09974" lon="13.3890033"><ele>808.0</ele><time>2026-05-02T14:07:37.086Z</time></trkpt><trkpt lat="42.0998567" lon="13.3889867"><ele>808.0</ele><time>2026-05-02T14:07:38.086Z</time></trkpt><trkpt lat="42.0999717" lon="13.3889733"><ele>808.0</ele><time>2026-05-02T14:07:39.086Z</time></trkpt><trkpt lat="42.100075" lon="13.3889533"><ele>808.0</ele><time>2026-05-02T14:07:40.086Z</time></trkpt><trkpt lat="42.1001617" lon="13.3889217"><ele>808.0</ele><time>2026-05-02T14:07:41.086Z</time></trkpt><trkpt lat="42.1002417" lon="13.3888767"><ele>807.5999999999999</ele><time>2026-05-02T14:07:42.086Z</time></trkpt><trkpt lat="42.1003283" lon="13.388805"><ele>807.1999999999999</ele><time>2026-05-02T14:07:44.086Z</time></trkpt><trkpt lat="42.1004033" lon="13.388835"><ele>806.8</ele><time>2026-05-02T14:07:46.087Z</time></trkpt><trkpt lat="42.1005217" lon="13.3889267"><ele>806.4</ele><time>2026-05-02T14:07:48.087Z</time></trkpt><trkpt lat="42.1005867" lon="13.3889683"><ele>806.0</ele><time>2026-05-02T14:07:49.086Z</time></trkpt><trkpt lat="42.1006467" lon="13.3890067"><ele>806.0000000000001</ele><time>2026-05-02T14:07:50.086Z</time></trkpt><trkpt lat="42.1007033" lon="13.3890467"><ele>806.0</ele><time>2026-05-02T14:07:51.086Z</time></trkpt><trkpt lat="42.1007617" lon="13.3890917"><ele>806.0</ele><time>2026-05-02T14:07:52.087Z</time></trkpt><trkpt lat="42.10084" lon="13.3891467"><ele>806.0</ele><time>2026-05-02T14:07:53.087Z</time></trkpt><trkpt lat="42.1009233" lon="13.3891967"><ele>806.0000000000001</ele><time>2026-05-02T14:07:54.087Z</time></trkpt><trkpt lat="42.1010017" lon="13.3892467"><ele>806.0</ele><time>2026-05-02T14:07:55.086Z</time></trkpt><trkpt lat="42.10109" lon="13.3892767"><ele>806.1999999999999</ele><time>2026-05-02T14:07:56.086Z</time></trkpt><trkpt lat="42.1011833" lon="13.389315"><ele>806.4</ele><time>2026-05-02T14:07:57.086Z</time></trkpt><trkpt lat="42.1012883" lon="13.3893567"><ele>806.6</ele><time>2026-05-02T14:07:58.086Z</time></trkpt><trkpt lat="42.101395" lon="13.3894017"><ele>806.8</ele><time>2026-05-02T14:07:59.086Z</time></trkpt><trkpt lat="42.1015117" lon="13.38945"><ele>807.0</ele><time>2026-05-02T14:08:00.087Z</time></trkpt><trkpt lat="42.1016067" lon="13.389495"><ele>808.0</ele><time>2026-05-02T14:08:01.087Z</time></trkpt><trkpt lat="42.101695" lon="13.3895117"><ele>809.0</ele><time>2026-05-02T14:08:02.086Z</time></trkpt><trkpt lat="42.10179" lon="13.389525"><ele>810.0</ele><time>2026-05-02T14:08:03.087Z</time></trkpt><trkpt lat="42.1018817" lon="13.3895233"><ele>811.0</ele><time>2026-05-02T14:08:04.086Z</time></trkpt><trkpt lat="42.10197" lon="13.38954"><ele>812.0</ele><time>2026-05-02T14:08:05.087Z</time></trkpt><trkpt lat="42.1020633" lon="13.3895633"><ele>812.0</ele><time>2026-05-02T14:08:06.087Z</time></trkpt><trkpt lat="42.1021517" lon="13.3895917"><ele>812.0</ele><time>2026-05-02T14:08:07.086Z</time></trkpt><trkpt lat="42.1022417" lon="13.3896233"><ele>812.0</ele><time>2026-05-02T14:08:08.086Z</time></trkpt><trkpt lat="42.102335" lon="13.389655"><ele>812.0</ele><time>2026-05-02T14:08:09.086Z</time></trkpt><trkpt lat="42.1024367" lon="13.38968"><ele>812.0</ele><time>2026-05-02T14:08:10.087Z</time></trkpt><trkpt lat="42.102535" lon="13.3896967"><ele>812.5000000000001</ele><time>2026-05-02T14:08:11.087Z</time></trkpt><trkpt lat="42.10262" lon="13.3897083"><ele>813.0</ele><time>2026-05-02T14:08:12.087Z</time></trkpt><trkpt lat="42.1026983" lon="13.389705"><ele>813.5</ele><time>2026-05-02T14:08:13.086Z</time></trkpt><trkpt lat="42.1027717" lon="13.3897"><ele>814.0</ele><time>2026-05-02T14:08:14.086Z</time></trkpt><trkpt lat="42.1028367" lon="13.3896883"><ele>814.5000000000001</ele><time>2026-05-02T14:08:15.087Z</time></trkpt><trkpt lat="42.102945" lon="13.38966"><ele>815.0</ele><time>2026-05-02T14:08:17.086Z</time></trkpt><trkpt lat="42.1030533" lon="13.3896283"><ele>815.8</ele><time>2026-05-02T14:08:19.087Z</time></trkpt><trkpt lat="42.1031583" lon="13.389605"><ele>816.6</ele><time>2026-05-02T14:08:21.087Z</time></trkpt><trkpt lat="42.1032367" lon="13.389595"><ele>817.4000000000001</ele><time>2026-05-02T14:08:23.086Z</time></trkpt><trkpt lat="42.1033117" lon="13.3895883"><ele>818.2</ele><time>2026-05-02T14:08:25.087Z</time></trkpt><trkpt lat="42.103425" lon="13.3895683"><ele>819.0</ele><time>2026-05-02T14:08:27.087Z</time></trkpt><trkpt lat="42.1035317" lon="13.3895567"><ele>821.0</ele><time>2026-05-02T14:08:29.087Z</time></trkpt><trkpt lat="42.1036067" lon="13.3895233"><ele>823.0</ele><time>2026-05-02T14:08:31.086Z</time></trkpt><trkpt lat="42.1035983" lon="13.3894117"><ele>825.0</ele><time>2026-05-02T14:08:34.086Z</time></trkpt><trkpt lat="42.10353" lon="13.3892433"><ele>827.0</ele><time>2026-05-02T14:08:36.087Z</time></trkpt><trkpt lat="42.1034833" lon="13.3891283"><ele>829.0</ele><time>2026-05-02T14:08:37.086Z</time></trkpt><trkpt lat="42.1034317" lon="13.389015"><ele>829.0</ele><time>2026-05-02T14:08:38.086Z</time></trkpt><trkpt lat="42.1033867" lon="13.3888933"><ele>829.0</ele><time>2026-05-02T14:08:39.087Z</time></trkpt><trkpt lat="42.10334" lon="13.3887567"><ele>829.0</ele><time>2026-05-02T14:08:40.087Z</time></trkpt><trkpt lat="42.1032867" lon="13.3886267"><ele>829.0</ele><time>2026-05-02T14:08:41.086Z</time></trkpt><trkpt lat="42.1032433" lon="13.388515"><ele>829.0</ele><time>2026-05-02T14:08:42.087Z</time></trkpt><trkpt lat="42.103205" lon="13.3884233"><ele>828.2</ele><time>2026-05-02T14:08:43.086Z</time></trkpt><trkpt lat="42.103175" lon="13.388345"><ele>827.4000000000001</ele><time>2026-05-02T14:08:44.086Z</time></trkpt><trkpt lat="42.1031383" lon="13.388205"><ele>826.6</ele><time>2026-05-02T14:08:46.086Z</time></trkpt><trkpt lat="42.1031667" lon="13.3880633"><ele>825.8</ele><time>2026-05-02T14:08:48.087Z</time></trkpt><trkpt lat="42.1031967" lon="13.387985"><ele>825.0</ele><time>2026-05-02T14:08:49.086Z</time></trkpt><trkpt lat="42.1032083" lon="13.38783"><ele>825.0</ele><time>2026-05-02T14:08:51.087Z</time></trkpt><trkpt lat="42.1031767" lon="13.38774"><ele>825.0</ele><time>2026-05-02T14:08:52.086Z</time></trkpt><trkpt lat="42.1031383" lon="13.38765"><ele>825.0</ele><time>2026-05-02T14:08:53.087Z</time></trkpt><trkpt lat="42.103085" lon="13.3875333"><ele>825.0</ele><time>2026-05-02T14:08:55.086Z</time></trkpt><trkpt lat="42.1030567" lon="13.3874267"><ele>825.0</ele><time>2026-05-02T14:08:57.086Z</time></trkpt><trkpt lat="42.1030083" lon="13.3872767"><ele>825.0</ele><time>2026-05-02T14:08:59.087Z</time></trkpt><trkpt lat="42.102975" lon="13.3871917"><ele>825.0</ele><time>2026-05-02T14:09:00.087Z</time></trkpt><trkpt lat="42.1029483" lon="13.3870483"><ele>825.0</ele><time>2026-05-02T14:09:02.086Z</time></trkpt><trkpt lat="42.1029867" lon="13.3869"><ele>825.0</ele><time>2026-05-02T14:09:04.087Z</time></trkpt><trkpt lat="42.1029867" lon="13.3867533"><ele>825.0</ele><time>2026-05-02T14:09:06.087Z</time></trkpt><trkpt lat="42.102955" lon="13.3866683"><ele>825.0</ele><time>2026-05-02T14:09:07.086Z</time></trkpt><trkpt lat="42.102905" lon="13.3865717"><ele>825.0</ele><time>2026-05-02T14:09:08.086Z</time></trkpt><trkpt lat="42.1028483" lon="13.3864467"><ele>825.0</ele><time>2026-05-02T14:09:09.087Z</time></trkpt><trkpt lat="42.1027867" lon="13.3863"><ele>825.0</ele><time>2026-05-02T14:09:10.087Z</time></trkpt><trkpt lat="42.1027217" lon="13.386165"><ele>825.0</ele><time>2026-05-02T14:09:11.086Z</time></trkpt><trkpt lat="42.102665" lon="13.3860533"><ele>825.2</ele><time>2026-05-02T14:09:12.086Z</time></trkpt><trkpt lat="42.1026033" lon="13.38595"><ele>825.4</ele><time>2026-05-02T14:09:13.087Z</time></trkpt><trkpt lat="42.1025433" lon="13.38585"><ele>825.5999999999999</ele><time>2026-05-02T14:09:14.086Z</time></trkpt><trkpt lat="42.1024833" lon="13.3857417"><ele>825.8</ele><time>2026-05-02T14:09:15.086Z</time></trkpt><trkpt lat="42.1024283" lon="13.3856417"><ele>826.0</ele><time>2026-05-02T14:09:16.086Z</time></trkpt><trkpt lat="42.1023883" lon="13.385565"><ele>826.3333333333333</ele><time>2026-05-02T14:09:17.087Z</time></trkpt><trkpt lat="42.1023283" lon="13.38547"><ele>826.6666666666666</ele><time>2026-05-02T14:09:19.087Z</time></trkpt><trkpt lat="42.1023067" lon="13.3853817"><ele>827.0</ele><time>2026-05-02T14:09:21.087Z</time></trkpt><trkpt lat="42.10234" lon="13.3852383"><ele>827.3333333333333</ele><time>2026-05-02T14:09:23.086Z</time></trkpt><trkpt lat="42.102385" lon="13.3851667"><ele>827.6666666666666</ele><time>2026-05-02T14:09:24.087Z</time></trkpt><trkpt lat="42.1024367" lon="13.3850917"><ele>828.0</ele><time>2026-05-02T14:09:25.086Z</time></trkpt><trkpt lat="42.102495" lon="13.385005"><ele>828.0</ele><time>2026-05-02T14:09:26.086Z</time></trkpt><trkpt lat="42.1025533" lon="13.3849167"><ele>828.0</ele><time>2026-05-02T14:09:27.087Z</time></trkpt><trkpt lat="42.1026233" lon="13.3848267"><ele>828.0</ele><time>2026-05-02T14:09:28.086Z</time></trkpt><trkpt lat="42.10269" lon="13.3847567"><ele>828.0</ele><time>2026-05-02T14:09:29.087Z</time></trkpt><trkpt lat="42.1027533" lon="13.3847117"><ele>828.0</ele><time>2026-05-02T14:09:30.086Z</time></trkpt><trkpt lat="42.1028233" lon="13.3846733"><ele>828.0</ele><time>2026-05-02T14:09:31.086Z</time></trkpt><trkpt lat="42.10289" lon="13.3846233"><ele>828.2</ele><time>2026-05-02T14:09:32.086Z</time></trkpt><trkpt lat="42.1029517" lon="13.3845467"><ele>828.4</ele><time>2026-05-02T14:09:33.087Z</time></trkpt><trkpt lat="42.10301" lon="13.3844717"><ele>828.6</ele><time>2026-05-02T14:09:34.086Z</time></trkpt><trkpt lat="42.103075" lon="13.3843783"><ele>828.8000000000001</ele><time>2026-05-02T14:09:35.086Z</time></trkpt><trkpt lat="42.1031467" lon="13.3842833"><ele>829.0</ele><time>2026-05-02T14:09:36.087Z</time></trkpt><trkpt lat="42.1032167" lon="13.3841733"><ele>830.2</ele><time>2026-05-02T14:09:37.086Z</time></trkpt><trkpt lat="42.1032783" lon="13.3840717"><ele>831.4000000000001</ele><time>2026-05-02T14:09:38.087Z</time></trkpt><trkpt lat="42.103325" lon="13.3839767"><ele>832.6</ele><time>2026-05-02T14:09:39.087Z</time></trkpt><trkpt lat="42.10338" lon="13.3838733"><ele>833.8</ele><time>2026-05-02T14:09:40.086Z</time></trkpt><trkpt lat="42.1034367" lon="13.383775"><ele>835.0</ele><time>2026-05-02T14:09:41.086Z</time></trkpt><trkpt lat="42.1034983" lon="13.3836883"><ele>835.0</ele><time>2026-05-02T14:09:42.087Z</time></trkpt><trkpt lat="42.1035767" lon="13.38361"><ele>835.0</ele><time>2026-05-02T14:09:43.086Z</time></trkpt><trkpt lat="42.103665" lon="13.3835317"><ele>835.0</ele><time>2026-05-02T14:09:44.086Z</time></trkpt><trkpt lat="42.1037517" lon="13.38345"><ele>835.0</ele><time>2026-05-02T14:09:45.087Z</time></trkpt><trkpt lat="42.1038417" lon="13.3833617"><ele>835.0</ele><time>2026-05-02T14:09:46.087Z</time></trkpt><trkpt lat="42.10392" lon="13.383285"><ele>834.9999999999999</ele><time>2026-05-02T14:09:47.086Z</time></trkpt><trkpt lat="42.1039883" lon="13.3832217"><ele>835.0</ele><time>2026-05-02T14:09:48.086Z</time></trkpt><trkpt lat="42.1040583" lon="13.383175"><ele>835.0</ele><time>2026-05-02T14:09:49.087Z</time></trkpt><trkpt lat="42.1041383" lon="13.383135"><ele>835.0</ele><time>2026-05-02T14:09:50.087Z</time></trkpt><trkpt lat="42.1042283" lon="13.3830883"><ele>834.9999999999999</ele><time>2026-05-02T14:09:51.086Z</time></trkpt><trkpt lat="42.1043267" lon="13.3830383"><ele>835.0</ele><time>2026-05-02T14:09:52.086Z</time></trkpt><trkpt lat="42.10444" lon="13.3829733"><ele>837.25</ele><time>2026-05-02T14:09:53.087Z</time></trkpt><trkpt lat="42.1045733" lon="13.3829083"><ele>839.5</ele><time>2026-05-02T14:09:54.087Z</time></trkpt><trkpt lat="42.1047" lon="13.3828583"><ele>841.75</ele><time>2026-05-02T14:09:55.086Z</time></trkpt><trkpt lat="42.1048183" lon="13.3827983"><ele>844.0</ele><time>2026-05-02T14:09:56.087Z</time></trkpt><trkpt lat="42.1049233" lon="13.3827533"><ele>845.2</ele><time>2026-05-02T14:09:57.086Z</time></trkpt><trkpt lat="42.1050217" lon="13.3827367"><ele>846.4000000000001</ele><time>2026-05-02T14:09:58.087Z</time></trkpt><trkpt lat="42.1051183" lon="13.38274"><ele>847.6</ele><time>2026-05-02T14:09:59.086Z</time></trkpt><trkpt lat="42.105225" lon="13.3827567"><ele>848.8</ele><time>2026-05-02T14:10:00.086Z</time></trkpt><trkpt lat="42.10534" lon="13.38278"><ele>850.0</ele><time>2026-05-02T14:10:01.087Z</time></trkpt><trkpt lat="42.1054483" lon="13.3827917"><ele>850.0</ele><time>2026-05-02T14:10:02.087Z</time></trkpt><trkpt lat="42.1055433" lon="13.3827917"><ele>850.0</ele><time>2026-05-02T14:10:03.087Z</time></trkpt><trkpt lat="42.105655" lon="13.3828"><ele>850.0</ele><time>2026-05-02T14:10:04.086Z</time></trkpt><trkpt lat="42.10577" lon="13.382815"><ele>850.0</ele><time>2026-05-02T14:10:05.086Z</time></trkpt><trkpt lat="42.10588" lon="13.3828133"><ele>850.0</ele><time>2026-05-02T14:10:06.086Z</time></trkpt><trkpt lat="42.105995" lon="13.382815"><ele>851.75</ele><time>2026-05-02T14:10:07.086Z</time></trkpt><trkpt lat="42.10611" lon="13.3828117"><ele>853.5</ele><time>2026-05-02T14:10:08.087Z</time></trkpt><trkpt lat="42.1062283" lon="13.3828133"><ele>855.25</ele><time>2026-05-02T14:10:09.086Z</time></trkpt><trkpt lat="42.1063417" lon="13.3828167"><ele>857.0</ele><time>2026-05-02T14:10:10.086Z</time></trkpt><trkpt lat="42.1064467" lon="13.3828283"><ele>857.0000000000001</ele><time>2026-05-02T14:10:11.086Z</time></trkpt><trkpt lat="42.106535" lon="13.3828567"><ele>857.0</ele><time>2026-05-02T14:10:12.087Z</time></trkpt><trkpt lat="42.1066" lon="13.382905"><ele>857.0</ele><time>2026-05-02T14:10:13.087Z</time></trkpt><trkpt lat="42.1066383" lon="13.3829733"><ele>857.0</ele><time>2026-05-02T14:10:14.086Z</time></trkpt><trkpt lat="42.1067017" lon="13.3830933"><ele>857.0000000000001</ele><time>2026-05-02T14:10:16.086Z</time></trkpt><trkpt lat="42.1068" lon="13.3831517"><ele>857.0</ele><time>2026-05-02T14:10:18.087Z</time></trkpt><trkpt lat="42.1068583" lon="13.383195"><ele>858.6</ele><time>2026-05-02T14:10:19.086Z</time></trkpt><trkpt lat="42.1069117" lon="13.3832733"><ele>860.2</ele><time>2026-05-02T14:10:20.087Z</time></trkpt><trkpt lat="42.106945" lon="13.3833617"><ele>861.8</ele><time>2026-05-02T14:10:21.086Z</time></trkpt><trkpt lat="42.106985" lon="13.38349"><ele>863.4</ele><time>2026-05-02T14:10:23.087Z</time></trkpt><trkpt lat="42.1070767" lon="13.383405"><ele>865.0</ele><time>2026-05-02T14:10:26.087Z</time></trkpt><trkpt lat="42.10714" lon="13.383325"><ele>865.0</ele><time>2026-05-02T14:10:27.087Z</time></trkpt><trkpt lat="42.1072183" lon="13.38325"><ele>865.0</ele><time>2026-05-02T14:10:28.086Z</time></trkpt><trkpt lat="42.1072917" lon="13.3831733"><ele>865.0</ele><time>2026-05-02T14:10:29.087Z</time></trkpt><trkpt lat="42.1073533" lon="13.38311"><ele>865.0</ele><time>2026-05-02T14:10:30.086Z</time></trkpt><trkpt lat="42.10741" lon="13.3830683"><ele>865.0</ele><time>2026-05-02T14:10:31.086Z</time></trkpt><trkpt lat="42.107525" lon="13.3829767"><ele>867.0</ele><time>2026-05-02T14:10:33.086Z</time></trkpt><trkpt lat="42.1076033" lon="13.38293"><ele>869.0</ele><time>2026-05-02T14:10:34.086Z</time></trkpt><trkpt lat="42.107685" lon="13.382905"><ele>871.0</ele><time>2026-05-02T14:10:35.086Z</time></trkpt><trkpt lat="42.107775" lon="13.3828867"><ele>873.0</ele><time>2026-05-02T14:10:36.087Z</time></trkpt><trkpt lat="42.1078717" lon="13.3828567"><ele>875.0</ele><time>2026-05-02T14:10:37.087Z</time></trkpt><trkpt lat="42.107975" lon="13.3828267"><ele>875.0</ele><time>2026-05-02T14:10:38.087Z</time></trkpt><trkpt lat="42.1080833" lon="13.3828"><ele>875.0</ele><time>2026-05-02T14:10:39.087Z</time></trkpt><trkpt lat="42.1081733" lon="13.38279"><ele>875.0</ele><time>2026-05-02T14:10:40.086Z</time></trkpt><trkpt lat="42.1082517" lon="13.3827883"><ele>875.0</ele><time>2026-05-02T14:10:41.086Z</time></trkpt><trkpt lat="42.1083333" lon="13.38277"><ele>875.0</ele><time>2026-05-02T14:10:42.087Z</time></trkpt><trkpt lat="42.1084233" lon="13.3827517"><ele>875.6666666666667</ele><time>2026-05-02T14:10:43.086Z</time></trkpt><trkpt lat="42.10852" lon="13.3827383"><ele>876.3333333333334</ele><time>2026-05-02T14:10:44.086Z</time></trkpt><trkpt lat="42.1086033" lon="13.3827133"><ele>877.0</ele><time>2026-05-02T14:10:45.087Z</time></trkpt><trkpt lat="42.1086867" lon="13.3826733"><ele>877.6666666666667</ele><time>2026-05-02T14:10:46.086Z</time></trkpt><trkpt lat="42.1087667" lon="13.3826233"><ele>878.3333333333334</ele><time>2026-05-02T14:10:47.087Z</time></trkpt><trkpt lat="42.1088483" lon="13.3825867"><ele>879.0</ele><time>2026-05-02T14:10:48.087Z</time></trkpt><trkpt lat="42.10893" lon="13.3825483"><ele>879.0</ele><time>2026-05-02T14:10:49.086Z</time></trkpt><trkpt lat="42.1090117" lon="13.3824967"><ele>879.0</ele><time>2026-05-02T14:10:50.086Z</time></trkpt><trkpt lat="42.109095" lon="13.3824533"><ele>879.0</ele><time>2026-05-02T14:10:51.086Z</time></trkpt><trkpt lat="42.1091767" lon="13.3824183"><ele>879.0</ele><time>2026-05-02T14:10:52.087Z</time></trkpt><trkpt lat="42.1092583" lon="13.3823683"><ele>879.0</ele><time>2026-05-02T14:10:53.087Z</time></trkpt><trkpt lat="42.109335" lon="13.3823267"><ele>879.0</ele><time>2026-05-02T14:10:54.086Z</time></trkpt><trkpt lat="42.1094283" lon="13.3822767"><ele>880.0</ele><time>2026-05-02T14:10:55.087Z</time></trkpt><trkpt lat="42.109515" lon="13.3822333"><ele>881.0</ele><time>2026-05-02T14:10:56.086Z</time></trkpt><trkpt lat="42.1095883" lon="13.382185"><ele>882.0</ele><time>2026-05-02T14:10:57.087Z</time></trkpt><trkpt lat="42.1096567" lon="13.3821283"><ele>883.0</ele><time>2026-05-02T14:10:58.086Z</time></trkpt><trkpt lat="42.10972" lon="13.3820717"><ele>884.0</ele><time>2026-05-02T14:10:59.087Z</time></trkpt><trkpt lat="42.1097783" lon="13.3820317"><ele>885.0</ele><time>2026-05-02T14:11:00.087Z</time></trkpt><trkpt lat="42.1098483" lon="13.3820167"><ele>886.1666666666666</ele><time>2026-05-02T14:11:02.087Z</time></trkpt><trkpt lat="42.1099183" lon="13.3820583"><ele>887.3333333333333</ele><time>2026-05-02T14:11:05.087Z</time></trkpt><trkpt lat="42.1100317" lon="13.3821083"><ele>888.5</ele><time>2026-05-02T14:11:07.087Z</time></trkpt><trkpt lat="42.110095" lon="13.3821167"><ele>889.6666666666666</ele><time>2026-05-02T14:11:08.087Z</time></trkpt><trkpt lat="42.110165" lon="13.382115"><ele>890.8333333333333</ele><time>2026-05-02T14:11:09.087Z</time></trkpt><trkpt lat="42.1102383" lon="13.3821033"><ele>892.0</ele><time>2026-05-02T14:11:10.087Z</time></trkpt><trkpt lat="42.1103117" lon="13.3820883"><ele>892.0</ele><time>2026-05-02T14:11:11.087Z</time></trkpt><trkpt lat="42.1103883" lon="13.3820617"><ele>892.0</ele><time>2026-05-02T14:11:12.087Z</time></trkpt><trkpt lat="42.1104533" lon="13.3820267"><ele>892.0</ele><time>2026-05-02T14:11:13.086Z</time></trkpt><trkpt lat="42.1105183" lon="13.3819783"><ele>892.0</ele><time>2026-05-02T14:11:15.086Z</time></trkpt><trkpt lat="42.1105233" lon="13.3818267"><ele>892.0</ele><time>2026-05-02T14:11:18.086Z</time></trkpt><trkpt lat="42.1105183" lon="13.381635"><ele>892.0</ele><time>2026-05-02T14:11:20.086Z</time></trkpt><trkpt lat="42.110515" lon="13.3814933"><ele>892.0</ele><time>2026-05-02T14:11:21.087Z</time></trkpt><trkpt lat="42.1105183" lon="13.3813317"><ele>892.0</ele><time>2026-05-02T14:11:22.086Z</time></trkpt><trkpt lat="42.1105217" lon="13.3811567"><ele>892.0</ele><time>2026-05-02T14:11:23.087Z</time></trkpt><trkpt lat="42.110525" lon="13.3809733"><ele>892.5</ele><time>2026-05-02T14:11:24.086Z</time></trkpt><trkpt lat="42.1105233" lon="13.3807967"><ele>893.0</ele><time>2026-05-02T14:11:25.086Z</time></trkpt><trkpt lat="42.1105117" lon="13.3806333"><ele>893.5</ele><time>2026-05-02T14:11:26.087Z</time></trkpt><trkpt lat="42.1105" lon="13.3804633"><ele>894.0</ele><time>2026-05-02T14:11:27.086Z</time></trkpt><trkpt lat="42.1104983" lon="13.3803267"><ele>894.1666666666666</ele><time>2026-05-02T14:11:28.087Z</time></trkpt><trkpt lat="42.1104983" lon="13.3802133"><ele>894.3333333333333</ele><time>2026-05-02T14:11:29.086Z</time></trkpt><trkpt lat="42.1105017" lon="13.380095"><ele>894.5</ele><time>2026-05-02T14:11:31.086Z</time></trkpt><trkpt lat="42.11056" lon="13.38002"><ele>894.6666666666666</ele><time>2026-05-02T14:11:35.086Z</time></trkpt><trkpt lat="42.1105717" lon="13.3798867"><ele>894.8333333333333</ele><time>2026-05-02T14:11:37.087Z</time></trkpt><trkpt lat="42.110555" lon="13.3797967"><ele>895.0</ele><time>2026-05-02T14:11:38.087Z</time></trkpt><trkpt lat="42.1105183" lon="13.379685"><ele>897.0</ele><time>2026-05-02T14:11:39.086Z</time></trkpt><trkpt lat="42.1104467" lon="13.3795533"><ele>899.0</ele><time>2026-05-02T14:11:40.087Z</time></trkpt><trkpt lat="42.1103417" lon="13.3794267"><ele>901.0</ele><time>2026-05-02T14:11:41.086Z</time></trkpt><trkpt lat="42.11025" lon="13.379335"><ele>903.0</ele><time>2026-05-02T14:11:42.086Z</time></trkpt><trkpt lat="42.11016" lon="13.37927"><ele>903.0</ele><time>2026-05-02T14:11:43.087Z</time></trkpt><trkpt lat="42.1100667" lon="13.37924"><ele>903.0</ele><time>2026-05-02T14:11:44.087Z</time></trkpt><trkpt lat="42.1099683" lon="13.3792333"><ele>903.0</ele><time>2026-05-02T14:11:45.087Z</time></trkpt><trkpt lat="42.1098433" lon="13.3792417"><ele>903.0</ele><time>2026-05-02T14:11:46.086Z</time></trkpt><trkpt lat="42.1097017" lon="13.3792467"><ele>901.5999999999999</ele><time>2026-05-02T14:11:47.087Z</time></trkpt><trkpt lat="42.109575" lon="13.3792183"><ele>900.1999999999999</ele><time>2026-05-02T14:11:48.086Z</time></trkpt><trkpt lat="42.1094683" lon="13.3791817"><ele>898.8</ele><time>2026-05-02T14:11:49.086Z</time></trkpt><trkpt lat="42.1093717" lon="13.3791417"><ele>897.4</ele><time>2026-05-02T14:11:50.087Z</time></trkpt><trkpt lat="42.1092967" lon="13.3790917"><ele>896.0</ele><time>2026-05-02T14:11:51.087Z</time></trkpt><trkpt lat="42.109225" lon="13.378995"><ele>896.75</ele><time>2026-05-02T14:11:53.087Z</time></trkpt><trkpt lat="42.1092167" lon="13.3788217"><ele>897.5</ele><time>2026-05-02T14:11:55.086Z</time></trkpt><trkpt lat="42.109195" lon="13.378695"><ele>898.25</ele><time>2026-05-02T14:11:56.086Z</time></trkpt><trkpt lat="42.10914" lon="13.378545"><ele>899.0</ele><time>2026-05-02T14:11:57.087Z</time></trkpt><trkpt lat="42.1090617" lon="13.3783867"><ele>899.0</ele><time>2026-05-02T14:11:58.087Z</time></trkpt><trkpt lat="42.1089667" lon="13.3782283"><ele>899.0</ele><time>2026-05-02T14:11:59.086Z</time></trkpt><trkpt lat="42.1088683" lon="13.3780717"><ele>899.0</ele><time>2026-05-02T14:12:00.087Z</time></trkpt><trkpt lat="42.1087633" lon="13.37795"><ele>899.0</ele><time>2026-05-02T14:12:01.087Z</time></trkpt><trkpt lat="42.10865" lon="13.3778433"><ele>902.0</ele><time>2026-05-02T14:12:02.086Z</time></trkpt><trkpt lat="42.10853" lon="13.3777533"><ele>905.0</ele><time>2026-05-02T14:12:03.087Z</time></trkpt><trkpt lat="42.1084067" lon="13.37768"><ele>908.0</ele><time>2026-05-02T14:12:04.087Z</time></trkpt><trkpt lat="42.108295" lon="13.3776433"><ele>911.0</ele><time>2026-05-02T14:12:05.086Z</time></trkpt><trkpt lat="42.10822" lon="13.377625"><ele>911.0</ele><time>2026-05-02T14:12:06.086Z</time></trkpt><trkpt lat="42.1081267" lon="13.3775967"><ele>910.9999999999999</ele><time>2026-05-02T14:12:08.087Z</time></trkpt><trkpt lat="42.108055" lon="13.3775733"><ele>910.9999999999999</ele><time>2026-05-02T14:12:10.087Z</time></trkpt><trkpt lat="42.10794" lon="13.3775383"><ele>911.0</ele><time>2026-05-02T14:12:12.086Z</time></trkpt><trkpt lat="42.1078333" lon="13.3774583"><ele>911.0</ele><time>2026-05-02T14:12:14.086Z</time></trkpt><trkpt lat="42.1077817" lon="13.3774033"><ele>911.0000000000001</ele><time>2026-05-02T14:12:15.086Z</time></trkpt><trkpt lat="42.107735" lon="13.37734"><ele>911.0</ele><time>2026-05-02T14:12:16.087Z</time></trkpt><trkpt lat="42.1076533" lon="13.377235"><ele>911.0</ele><time>2026-05-02T14:12:18.087Z</time></trkpt><trkpt lat="42.107535" lon="13.3771667"><ele>911.0</ele><time>2026-05-02T14:12:20.087Z</time></trkpt><trkpt lat="42.1074733" lon="13.3771433"><ele>911.0000000000001</ele><time>2026-05-02T14:12:21.086Z</time></trkpt><trkpt lat="42.1074083" lon="13.37711"><ele>911.0</ele><time>2026-05-02T14:12:22.087Z</time></trkpt><trkpt lat="42.10732" lon="13.3770533"><ele>910.1999999999999</ele><time>2026-05-02T14:12:24.086Z</time></trkpt><trkpt lat="42.1072517" lon="13.37712"><ele>909.3999999999999</ele><time>2026-05-02T14:12:27.086Z</time></trkpt><trkpt lat="42.1071583" lon="13.3771417"><ele>908.6</ele><time>2026-05-02T14:12:29.087Z</time></trkpt><trkpt lat="42.10704" lon="13.37708"><ele>907.8</ele><time>2026-05-02T14:12:31.087Z</time></trkpt><trkpt lat="42.106965" lon="13.3770333"><ele>907.0</ele><time>2026-05-02T14:12:32.086Z</time></trkpt><trkpt lat="42.1069017" lon="13.3769767"><ele>907.0</ele><time>2026-05-02T14:12:33.087Z</time></trkpt><trkpt lat="42.1068317" lon="13.37691"><ele>907.0</ele><time>2026-05-02T14:12:34.087Z</time></trkpt><trkpt lat="42.1067683" lon="13.3768433"><ele>907.0</ele><time>2026-05-02T14:12:35.086Z</time></trkpt><trkpt lat="42.1066883" lon="13.3767533"><ele>907.0</ele><time>2026-05-02T14:12:37.086Z</time></trkpt><trkpt lat="42.106635" lon="13.3767033"><ele>907.0</ele><time>2026-05-02T14:12:39.087Z</time></trkpt><trkpt lat="42.1065117" lon="13.37664"><ele>905.0</ele><time>2026-05-02T14:12:41.086Z</time></trkpt><trkpt lat="42.1064183" lon="13.37661"><ele>903.0</ele><time>2026-05-02T14:12:42.087Z</time></trkpt><trkpt lat="42.1063267" lon="13.3765783"><ele>901.0</ele><time>2026-05-02T14:12:43.086Z</time></trkpt><trkpt lat="42.1062417" lon="13.3765483"><ele>899.0</ele><time>2026-05-02T14:12:44.086Z</time></trkpt><trkpt lat="42.1061583" lon="13.3765183"><ele>897.0</ele><time>2026-05-02T14:12:45.086Z</time></trkpt><trkpt lat="42.10607" lon="13.3764717"><ele>897.0</ele><time>2026-05-02T14:12:46.086Z</time></trkpt><trkpt lat="42.1060017" lon="13.3764233"><ele>897.0</ele><time>2026-05-02T14:12:47.086Z</time></trkpt><trkpt lat="42.105935" lon="13.3763217"><ele>897.0</ele><time>2026-05-02T14:12:49.086Z</time></trkpt><trkpt lat="42.10588" lon="13.3762283"><ele>897.0</ele><time>2026-05-02T14:12:51.087Z</time></trkpt><trkpt lat="42.105825" lon="13.3761617"><ele>897.0</ele><time>2026-05-02T14:12:52.086Z</time></trkpt><trkpt lat="42.105765" lon="13.3760717"><ele>897.0</ele><time>2026-05-02T14:12:53.087Z</time></trkpt><trkpt lat="42.1057117" lon="13.3759867"><ele>894.0</ele><time>2026-05-02T14:12:54.086Z</time></trkpt><trkpt lat="42.1056533" lon="13.3759133"><ele>891.0</ele><time>2026-05-02T14:12:55.086Z</time></trkpt><trkpt lat="42.105605" lon="13.3758517"><ele>888.0</ele><time>2026-05-02T14:12:56.086Z</time></trkpt><trkpt lat="42.1055183" lon="13.375745"><ele>885.0</ele><time>2026-05-02T14:12:58.087Z</time></trkpt><trkpt lat="42.1054667" lon="13.3756783"><ele>882.0</ele><time>2026-05-02T14:12:59.087Z</time></trkpt><trkpt lat="42.1054083" lon="13.3756083"><ele>879.0</ele><time>2026-05-02T14:13:00.086Z</time></trkpt><trkpt lat="42.1053517" lon="13.3755283"><ele>879.6666666666666</ele><time>2026-05-02T14:13:01.086Z</time></trkpt><trkpt lat="42.1053067" lon="13.3754567"><ele>880.3333333333333</ele><time>2026-05-02T14:13:02.086Z</time></trkpt><trkpt lat="42.10526" lon="13.375385"><ele>881.0</ele><time>2026-05-02T14:13:03.087Z</time></trkpt><trkpt lat="42.1052067" lon="13.37531"><ele>881.6666666666666</ele><time>2026-05-02T14:13:04.086Z</time></trkpt><trkpt lat="42.1051467" lon="13.375255"><ele>882.3333333333333</ele><time>2026-05-02T14:13:05.087Z</time></trkpt><trkpt lat="42.1050533" lon="13.3751683"><ele>883.0</ele><time>2026-05-02T14:13:07.085Z</time></trkpt><trkpt lat="42.10503" lon="13.3750683"><ele>883.0</ele><time>2026-05-02T14:13:09.086Z</time></trkpt><trkpt lat="42.1050117" lon="13.3749733"><ele>883.0</ele><time>2026-05-02T14:13:11.086Z</time></trkpt><trkpt lat="42.10493" lon="13.374845"><ele>883.0</ele><time>2026-05-02T14:13:13.085Z</time></trkpt><trkpt lat="42.1048767" lon="13.3747567"><ele>883.0</ele><time>2026-05-02T14:13:14.085Z</time></trkpt><trkpt lat="42.1048333" lon="13.3746533"><ele>883.0</ele><time>2026-05-02T14:13:15.085Z</time></trkpt><trkpt lat="42.104795" lon="13.3745217"><ele>880.8</ele><time>2026-05-02T14:13:16.085Z</time></trkpt><trkpt lat="42.1047567" lon="13.37441"><ele>878.5999999999999</ele><time>2026-05-02T14:13:17.085Z</time></trkpt><trkpt lat="42.104705" lon="13.3743217"><ele>876.4000000000001</ele><time>2026-05-02T14:13:18.086Z</time></trkpt><trkpt lat="42.1046" lon="13.3742867"><ele>874.2</ele><time>2026-05-02T14:13:20.085Z</time></trkpt><trkpt lat="42.1045067" lon="13.3742667"><ele>872.0</ele><time>2026-05-02T14:13:22.085Z</time></trkpt><trkpt lat="42.1044467" lon="13.3741567"><ele>872.0</ele><time>2026-05-02T14:13:24.086Z</time></trkpt><trkpt lat="42.1043883" lon="13.374005"><ele>872.0</ele><time>2026-05-02T14:13:26.085Z</time></trkpt><trkpt lat="42.1043067" lon="13.3738633"><ele>872.0</ele><time>2026-05-02T14:13:28.085Z</time></trkpt><trkpt lat="42.1042567" lon="13.3737783"><ele>872.0</ele><time>2026-05-02T14:13:29.085Z</time></trkpt><trkpt lat="42.1042017" lon="13.3736967"><ele>872.0</ele><time>2026-05-02T14:13:30.086Z</time></trkpt><trkpt lat="42.1041367" lon="13.3736117"><ele>871.0</ele><time>2026-05-02T14:13:31.086Z</time></trkpt><trkpt lat="42.104065" lon="13.3735233"><ele>870.0</ele><time>2026-05-02T14:13:32.085Z</time></trkpt><trkpt lat="42.1039967" lon="13.3734283"><ele>869.0</ele><time>2026-05-02T14:13:33.085Z</time></trkpt><trkpt lat="42.1039517" lon="13.3733317"><ele>868.0</ele><time>2026-05-02T14:13:34.086Z</time></trkpt><trkpt lat="42.10389" lon="13.3732433"><ele>867.0</ele><time>2026-05-02T14:13:35.085Z</time></trkpt><trkpt lat="42.1038067" lon="13.3731533"><ele>867.0</ele><time>2026-05-02T14:13:36.086Z</time></trkpt><trkpt lat="42.1037167" lon="13.37306"><ele>867.0</ele><time>2026-05-02T14:13:37.085Z</time></trkpt><trkpt lat="42.1036417" lon="13.3729767"><ele>867.0</ele><time>2026-05-02T14:13:38.086Z</time></trkpt><trkpt lat="42.10358" lon="13.37288"><ele>867.0</ele><time>2026-05-02T14:13:39.085Z</time></trkpt><trkpt lat="42.1035267" lon="13.3727867"><ele>867.0</ele><time>2026-05-02T14:13:40.085Z</time></trkpt><trkpt lat="42.1034517" lon="13.372685"><ele>866.8</ele><time>2026-05-02T14:13:42.085Z</time></trkpt><trkpt lat="42.1033717" lon="13.37259"><ele>866.6</ele><time>2026-05-02T14:13:44.085Z</time></trkpt><trkpt lat="42.103305" lon="13.3724717"><ele>866.3999999999999</ele><time>2026-05-02T14:13:46.086Z</time></trkpt><trkpt lat="42.1032917" lon="13.3723333"><ele>866.1999999999999</ele><time>2026-05-02T14:13:48.085Z</time></trkpt><trkpt lat="42.1032483" lon="13.3722117"><ele>866.0</ele><time>2026-05-02T14:13:50.086Z</time></trkpt><trkpt lat="42.10315" lon="13.372085"><ele>866.0000000000001</ele><time>2026-05-02T14:13:52.085Z</time></trkpt><trkpt lat="42.1030967" lon="13.372015"><ele>866.0</ele><time>2026-05-02T14:13:53.085Z</time></trkpt><trkpt lat="42.1030433" lon="13.37196"><ele>866.0</ele><time>2026-05-02T14:13:54.085Z</time></trkpt><trkpt lat="42.1029783" lon="13.3719133"><ele>866.0</ele><time>2026-05-02T14:13:55.086Z</time></trkpt><trkpt lat="42.102925" lon="13.3718667"><ele>866.0000000000001</ele><time>2026-05-02T14:13:56.086Z</time></trkpt><trkpt lat="42.1028267" lon="13.3717833"><ele>866.0</ele><time>2026-05-02T14:13:58.086Z</time></trkpt><trkpt lat="42.1027533" lon="13.3716733"><ele>866.0000000000001</ele><time>2026-05-02T14:14:00.085Z</time></trkpt><trkpt lat="42.1027133" lon="13.3716017"><ele>866.0</ele><time>2026-05-02T14:14:01.086Z</time></trkpt><trkpt lat="42.1026767" lon="13.37152"><ele>866.0</ele><time>2026-05-02T14:14:02.085Z</time></trkpt><trkpt lat="42.1026467" lon="13.3714433"><ele>866.0</ele><time>2026-05-02T14:14:03.086Z</time></trkpt><trkpt lat="42.102605" lon="13.371375"><ele>866.0000000000001</ele><time>2026-05-02T14:14:04.085Z</time></trkpt><trkpt lat="42.102515" lon="13.3712917"><ele>866.0</ele><time>2026-05-02T14:14:06.085Z</time></trkpt><trkpt lat="42.1024233" lon="13.3712167"><ele>862.8</ele><time>2026-05-02T14:14:08.085Z</time></trkpt><trkpt lat="42.1023183" lon="13.37112"><ele>859.5999999999999</ele><time>2026-05-02T14:14:10.085Z</time></trkpt><trkpt lat="42.1022267" lon="13.371055"><ele>856.4</ele><time>2026-05-02T14:14:12.085Z</time></trkpt><trkpt lat="42.1021317" lon="13.3709683"><ele>853.2</ele><time>2026-05-02T14:14:14.086Z</time></trkpt><trkpt lat="42.1020517" lon="13.370895"><ele>850.0</ele><time>2026-05-02T14:14:16.086Z</time></trkpt><trkpt lat="42.10198" lon="13.3708533"><ele>849.9999999999999</ele><time>2026-05-02T14:14:18.086Z</time></trkpt><trkpt lat="42.10192" lon="13.370795"><ele>850.0</ele><time>2026-05-02T14:14:20.085Z</time></trkpt><trkpt lat="42.1018633" lon="13.3707267"><ele>850.0</ele><time>2026-05-02T14:14:22.085Z</time></trkpt><trkpt lat="42.1017767" lon="13.3706767"><ele>850.0</ele><time>2026-05-02T14:14:24.086Z</time></trkpt><trkpt lat="42.1017" lon="13.3706333"><ele>849.9999999999999</ele><time>2026-05-02T14:14:26.086Z</time></trkpt><trkpt lat="42.1016517" lon="13.3705683"><ele>850.0</ele><time>2026-05-02T14:14:28.085Z</time></trkpt><trkpt lat="42.10158" lon="13.3705033"><ele>846.3333333333333</ele><time>2026-05-02T14:14:30.086Z</time></trkpt><trkpt lat="42.1015083" lon="13.3705267"><ele>842.6666666666666</ele><time>2026-05-02T14:14:32.085Z</time></trkpt><trkpt lat="42.1014267" lon="13.3705467"><ele>839.0</ele><time>2026-05-02T14:14:34.085Z</time></trkpt><trkpt lat="42.1013467" lon="13.3705067"><ele>835.3333333333333</ele><time>2026-05-02T14:14:36.085Z</time></trkpt><trkpt lat="42.101275" lon="13.370495"><ele>831.6666666666666</ele><time>2026-05-02T14:14:38.085Z</time></trkpt><trkpt lat="42.1011867" lon="13.3704883"><ele>828.0</ele><time>2026-05-02T14:14:41.085Z</time></trkpt><trkpt lat="42.101125" lon="13.3705467"><ele>828.0</ele><time>2026-05-02T14:14:43.085Z</time></trkpt><trkpt lat="42.1010533" lon="13.370605"><ele>828.0</ele><time>2026-05-02T14:14:45.085Z</time></trkpt><trkpt lat="42.1009917" lon="13.37065"><ele>828.0</ele><time>2026-05-02T14:14:47.085Z</time></trkpt><trkpt lat="42.1009117" lon="13.3706917"><ele>828.0</ele><time>2026-05-02T14:14:49.086Z</time></trkpt><trkpt lat="42.1008267" lon="13.3706717"><ele>828.0</ele><time>2026-05-02T14:14:51.085Z</time></trkpt><trkpt lat="42.1007417" lon="13.3706083"><ele>828.0</ele><time>2026-05-02T14:14:53.085Z</time></trkpt><trkpt lat="42.1006583" lon="13.3705333"><ele>825.8</ele><time>2026-05-02T14:14:55.085Z</time></trkpt><trkpt lat="42.10055" lon="13.37046"><ele>823.5999999999999</ele><time>2026-05-02T14:14:57.085Z</time></trkpt><trkpt lat="42.1004533" lon="13.3704367"><ele>821.4000000000001</ele><time>2026-05-02T14:14:59.086Z</time></trkpt><trkpt lat="42.100375" lon="13.3704583"><ele>819.2</ele><time>2026-05-02T14:15:01.085Z</time></trkpt><trkpt lat="42.10031" lon="13.3705167"><ele>817.0</ele><time>2026-05-02T14:15:03.086Z</time></trkpt><trkpt lat="42.1002233" lon="13.37054"><ele>816.9999999999999</ele><time>2026-05-02T14:15:06.086Z</time></trkpt><trkpt lat="42.100145" lon="13.3704917"><ele>817.0</ele><time>2026-05-02T14:15:08.086Z</time></trkpt><trkpt lat="42.100085" lon="13.3704417"><ele>817.0</ele><time>2026-05-02T14:15:09.085Z</time></trkpt><trkpt lat="42.1000167" lon="13.3703833"><ele>817.0</ele><time>2026-05-02T14:15:10.086Z</time></trkpt><trkpt lat="42.0999267" lon="13.3703183"><ele>816.9999999999999</ele><time>2026-05-02T14:15:11.085Z</time></trkpt><trkpt lat="42.0998417" lon="13.37025"><ele>817.0</ele><time>2026-05-02T14:15:12.085Z</time></trkpt><trkpt lat="42.0997667" lon="13.3701917"><ele>814.1666666666666</ele><time>2026-05-02T14:15:13.086Z</time></trkpt><trkpt lat="42.099705" lon="13.3701417"><ele>811.3333333333333</ele><time>2026-05-02T14:15:14.086Z</time></trkpt><trkpt lat="42.09965" lon="13.3700883"><ele>808.5</ele><time>2026-05-02T14:15:15.085Z</time></trkpt><trkpt lat="42.0995917" lon="13.3700267"><ele>805.6666666666667</ele><time>2026-05-02T14:15:16.086Z</time></trkpt><trkpt lat="42.0995267" lon="13.36995"><ele>802.8333333333334</ele><time>2026-05-02T14:15:17.086Z</time></trkpt><trkpt lat="42.099465" lon="13.36987"><ele>800.0</ele><time>2026-05-02T14:15:18.086Z</time></trkpt><trkpt lat="42.0994183" lon="13.3698067"><ele>800.0</ele><time>2026-05-02T14:15:19.085Z</time></trkpt><trkpt lat="42.0993817" lon="13.3697333"><ele>800.0</ele><time>2026-05-02T14:15:20.086Z</time></trkpt><trkpt lat="42.0993083" lon="13.3696367"><ele>800.0</ele><time>2026-05-02T14:15:22.086Z</time></trkpt><trkpt lat="42.0991983" lon="13.3695233"><ele>800.0</ele><time>2026-05-02T14:15:24.086Z</time></trkpt><trkpt lat="42.0991267" lon="13.3694383"><ele>800.0</ele><time>2026-05-02T14:15:25.086Z</time></trkpt><trkpt lat="42.0990617" lon="13.369365"><ele>798.3333333333334</ele><time>2026-05-02T14:15:26.086Z</time></trkpt><trkpt lat="42.0990033" lon="13.3692983"><ele>796.6666666666667</ele><time>2026-05-02T14:15:27.086Z</time></trkpt><trkpt lat="42.0989433" lon="13.369235"><ele>795.0</ele><time>2026-05-02T14:15:28.086Z</time></trkpt><trkpt lat="42.0988817" lon="13.3691683"><ele>793.3333333333333</ele><time>2026-05-02T14:15:29.086Z</time></trkpt><trkpt lat="42.0988183" lon="13.3690983"><ele>791.6666666666666</ele><time>2026-05-02T14:15:30.086Z</time></trkpt><trkpt lat="42.09876" lon="13.369035"><ele>790.0</ele><time>2026-05-02T14:15:31.085Z</time></trkpt><trkpt lat="42.0987017" lon="13.36898"><ele>789.9999999999999</ele><time>2026-05-02T14:15:32.086Z</time></trkpt><trkpt lat="42.0986417" lon="13.3689383"><ele>790.0</ele><time>2026-05-02T14:15:33.086Z</time></trkpt><trkpt lat="42.098575" lon="13.3688967"><ele>790.0</ele><time>2026-05-02T14:15:34.085Z</time></trkpt><trkpt lat="42.0984967" lon="13.3688517"><ele>790.0</ele><time>2026-05-02T14:15:35.086Z</time></trkpt><trkpt lat="42.098415" lon="13.368805"><ele>789.9999999999999</ele><time>2026-05-02T14:15:36.085Z</time></trkpt><trkpt lat="42.0983317" lon="13.3687617"><ele>790.0</ele><time>2026-05-02T14:15:37.086Z</time></trkpt><trkpt lat="42.0982617" lon="13.3687217"><ele>789.4285714285714</ele><time>2026-05-02T14:15:38.086Z</time></trkpt><trkpt lat="42.098195" lon="13.36868"><ele>788.8571428571429</ele><time>2026-05-02T14:15:39.085Z</time></trkpt><trkpt lat="42.0981283" lon="13.36865"><ele>788.2857142857143</ele><time>2026-05-02T14:15:40.085Z</time></trkpt><trkpt lat="42.098065" lon="13.3686167"><ele>787.7142857142858</ele><time>2026-05-02T14:15:41.086Z</time></trkpt><trkpt lat="42.0979917" lon="13.3685883"><ele>787.1428571428571</ele><time>2026-05-02T14:15:42.085Z</time></trkpt><trkpt lat="42.0979233" lon="13.36856"><ele>786.5714285714287</ele><time>2026-05-02T14:15:43.085Z</time></trkpt><trkpt lat="42.0978533" lon="13.3685183"><ele>786.0</ele><time>2026-05-02T14:15:44.085Z</time></trkpt><trkpt lat="42.0977867" lon="13.368485"><ele>786.0000000000001</ele><time>2026-05-02T14:15:45.085Z</time></trkpt><trkpt lat="42.097715" lon="13.3684517"><ele>786.0</ele><time>2026-05-02T14:15:46.086Z</time></trkpt><trkpt lat="42.0976433" lon="13.3684233"><ele>786.0</ele><time>2026-05-02T14:15:47.085Z</time></trkpt><trkpt lat="42.0975783" lon="13.3683933"><ele>786.0</ele><time>2026-05-02T14:15:48.086Z</time></trkpt><trkpt lat="42.0975133" lon="13.3683733"><ele>786.0</ele><time>2026-05-02T14:15:49.086Z</time></trkpt><trkpt lat="42.0974433" lon="13.3683533"><ele>786.0000000000001</ele><time>2026-05-02T14:15:50.085Z</time></trkpt><trkpt lat="42.09737" lon="13.3683383"><ele>786.0</ele><time>2026-05-02T14:15:51.085Z</time></trkpt><trkpt lat="42.0972967" lon="13.3683167"><ele>783.3333333333334</ele><time>2026-05-02T14:15:52.086Z</time></trkpt><trkpt lat="42.0972317" lon="13.3682967"><ele>780.6666666666667</ele><time>2026-05-02T14:15:53.085Z</time></trkpt><trkpt lat="42.09717" lon="13.36827"><ele>778.0</ele><time>2026-05-02T14:15:54.085Z</time></trkpt><trkpt lat="42.0971033" lon="13.3682417"><ele>775.3333333333334</ele><time>2026-05-02T14:15:55.085Z</time></trkpt><trkpt lat="42.0970417" lon="13.3682133"><ele>772.6666666666667</ele><time>2026-05-02T14:15:56.086Z</time></trkpt><trkpt lat="42.0969317" lon="13.3681333"><ele>770.0</ele><time>2026-05-02T14:15:58.086Z</time></trkpt><trkpt lat="42.096875" lon="13.3680883"><ele>770.0000000000001</ele><time>2026-05-02T14:15:59.085Z</time></trkpt><trkpt lat="42.096815" lon="13.368045"><ele>770.0</ele><time>2026-05-02T14:16:00.085Z</time></trkpt><trkpt lat="42.096755" lon="13.3679983"><ele>770.0</ele><time>2026-05-02T14:16:01.086Z</time></trkpt><trkpt lat="42.0966933" lon="13.3679433"><ele>770.0</ele><time>2026-05-02T14:16:02.086Z</time></trkpt><trkpt lat="42.0966083" lon="13.3678417"><ele>770.0000000000001</ele><time>2026-05-02T14:16:04.086Z</time></trkpt><trkpt lat="42.09653" lon="13.3677483"><ele>770.0</ele><time>2026-05-02T14:16:06.086Z</time></trkpt><trkpt lat="42.09645" lon="13.367665"><ele>766.6</ele><time>2026-05-02T14:16:08.085Z</time></trkpt><trkpt lat="42.0963717" lon="13.3675533"><ele>763.2</ele><time>2026-05-02T14:16:10.085Z</time></trkpt><trkpt lat="42.0962933" lon="13.367455"><ele>759.8</ele><time>2026-05-02T14:16:12.085Z</time></trkpt><trkpt lat="42.096215" lon="13.367365"><ele>756.4</ele><time>2026-05-02T14:16:14.085Z</time></trkpt><trkpt lat="42.096135" lon="13.3672833"><ele>753.0</ele><time>2026-05-02T14:16:16.086Z</time></trkpt><trkpt lat="42.0960633" lon="13.3672267"><ele>750.4</ele><time>2026-05-02T14:16:18.085Z</time></trkpt><trkpt lat="42.0959733" lon="13.3671733"><ele>747.8</ele><time>2026-05-02T14:16:20.086Z</time></trkpt><trkpt lat="42.0958833" lon="13.3671333"><ele>745.2</ele><time>2026-05-02T14:16:22.085Z</time></trkpt><trkpt lat="42.0957667" lon="13.36709"><ele>742.6</ele><time>2026-05-02T14:16:24.085Z</time></trkpt><trkpt lat="42.0956867" lon="13.3670667"><ele>740.0</ele><time>2026-05-02T14:16:25.086Z</time></trkpt><trkpt lat="42.0955883" lon="13.3670333"><ele>738.75</ele><time>2026-05-02T14:16:26.085Z</time></trkpt><trkpt lat="42.0954767" lon="13.3669817"><ele>737.5</ele><time>2026-05-02T14:16:27.085Z</time></trkpt><trkpt lat="42.0953683" lon="13.36693"><ele>736.25</ele><time>2026-05-02T14:16:28.085Z</time></trkpt><trkpt lat="42.0952633" lon="13.3668817"><ele>735.0</ele><time>2026-05-02T14:16:29.086Z</time></trkpt><trkpt lat="42.0951617" lon="13.36683"><ele>735.0</ele><time>2026-05-02T14:16:30.086Z</time></trkpt><trkpt lat="42.095075" lon="13.36678"><ele>735.0</ele><time>2026-05-02T14:16:31.085Z</time></trkpt><trkpt lat="42.0949917" lon="13.3667383"><ele>735.0</ele><time>2026-05-02T14:16:32.086Z</time></trkpt><trkpt lat="42.0949117" lon="13.3667017"><ele>735.0</ele><time>2026-05-02T14:16:33.085Z</time></trkpt><trkpt lat="42.0948417" lon="13.3666783"><ele>735.0</ele><time>2026-05-02T14:16:34.086Z</time></trkpt><trkpt lat="42.0947133" lon="13.366655"><ele>734.8</ele><time>2026-05-02T14:16:36.085Z</time></trkpt><trkpt lat="42.0946467" lon="13.36664"><ele>734.6</ele><time>2026-05-02T14:16:37.085Z</time></trkpt><trkpt lat="42.09453" lon="13.3665533"><ele>734.4000000000001</ele><time>2026-05-02T14:16:39.086Z</time></trkpt><trkpt lat="42.0944683" lon="13.3664967"><ele>734.2</ele><time>2026-05-02T14:16:40.086Z</time></trkpt><trkpt lat="42.09442" lon="13.3664367"><ele>734.0</ele><time>2026-05-02T14:16:41.086Z</time></trkpt><trkpt lat="42.094345" lon="13.3663183"><ele>733.4000000000001</ele><time>2026-05-02T14:16:43.086Z</time></trkpt><trkpt lat="42.094355" lon="13.3661567"><ele>732.8</ele><time>2026-05-02T14:16:45.086Z</time></trkpt><trkpt lat="42.0943967" lon="13.366055"><ele>732.2</ele><time>2026-05-02T14:16:46.086Z</time></trkpt><trkpt lat="42.0944667" lon="13.3659367"><ele>731.5999999999999</ele><time>2026-05-02T14:16:47.085Z</time></trkpt><trkpt lat="42.094555" lon="13.3658083"><ele>731.0</ele><time>2026-05-02T14:16:48.086Z</time></trkpt><trkpt lat="42.0946517" lon="13.3656667"><ele>731.0</ele><time>2026-05-02T14:16:49.086Z</time></trkpt><trkpt lat="42.0947383" lon="13.3655483"><ele>731.0</ele><time>2026-05-02T14:16:50.086Z</time></trkpt><trkpt lat="42.094825" lon="13.365435"><ele>731.0</ele><time>2026-05-02T14:16:51.086Z</time></trkpt><trkpt lat="42.0948983" lon="13.365335"><ele>731.0</ele><time>2026-05-02T14:16:52.085Z</time></trkpt><trkpt lat="42.09497" lon="13.3652433"><ele>731.0</ele><time>2026-05-02T14:16:53.086Z</time></trkpt><trkpt lat="42.0950433" lon="13.365145"><ele>730.5999999999999</ele><time>2026-05-02T14:16:54.085Z</time></trkpt><trkpt lat="42.0951083" lon="13.3650317"><ele>730.2</ele><time>2026-05-02T14:16:55.085Z</time></trkpt><trkpt lat="42.0951783" lon="13.3649167"><ele>729.8</ele><time>2026-05-02T14:16:56.086Z</time></trkpt><trkpt lat="42.095245" lon="13.3648167"><ele>729.4000000000001</ele><time>2026-05-02T14:16:57.085Z</time></trkpt><trkpt lat="42.095315" lon="13.364715"><ele>729.0</ele><time>2026-05-02T14:16:58.086Z</time></trkpt><trkpt lat="42.09539" lon="13.364625"><ele>728.8000000000001</ele><time>2026-05-02T14:16:59.085Z</time></trkpt><trkpt lat="42.0955033" lon="13.364485"><ele>728.6</ele><time>2026-05-02T14:17:01.085Z</time></trkpt><trkpt lat="42.0955633" lon="13.3644133"><ele>728.4</ele><time>2026-05-02T14:17:02.086Z</time></trkpt><trkpt lat="42.0956267" lon="13.3643383"><ele>728.2</ele><time>2026-05-02T14:17:03.085Z</time></trkpt><trkpt lat="42.0957033" lon="13.36424"><ele>728.0</ele><time>2026-05-02T14:17:04.086Z</time></trkpt><trkpt lat="42.09579" lon="13.364115"><ele>727.0</ele><time>2026-05-02T14:17:05.085Z</time></trkpt><trkpt lat="42.095885" lon="13.3639867"><ele>726.0</ele><time>2026-05-02T14:17:06.085Z</time></trkpt><trkpt lat="42.0959817" lon="13.3638317"><ele>725.0</ele><time>2026-05-02T14:17:07.086Z</time></trkpt><trkpt lat="42.09609" lon="13.363655"><ele>724.0</ele><time>2026-05-02T14:17:08.085Z</time></trkpt><trkpt lat="42.0962017" lon="13.3634817"><ele>723.0</ele><time>2026-05-02T14:17:09.086Z</time></trkpt><trkpt lat="42.0963133" lon="13.3633133"><ele>722.0</ele><time>2026-05-02T14:17:10.086Z</time></trkpt><trkpt lat="42.0964133" lon="13.3631533"><ele>721.6666666666666</ele><time>2026-05-02T14:17:11.085Z</time></trkpt><trkpt lat="42.0965117" lon="13.3629983"><ele>721.3333333333334</ele><time>2026-05-02T14:17:12.085Z</time></trkpt><trkpt lat="42.0966117" lon="13.3628433"><ele>721.0</ele><time>2026-05-02T14:17:13.086Z</time></trkpt><trkpt lat="42.0967233" lon="13.3626783"><ele>719.3333333333334</ele><time>2026-05-02T14:17:14.085Z</time></trkpt><trkpt lat="42.0968367" lon="13.36251"><ele>717.6666666666666</ele><time>2026-05-02T14:17:15.085Z</time></trkpt><trkpt lat="42.0969483" lon="13.3623417"><ele>716.0</ele><time>2026-05-02T14:17:16.085Z</time></trkpt><trkpt lat="42.09706" lon="13.3621633"><ele>715.75</ele><time>2026-05-02T14:17:17.086Z</time></trkpt><trkpt lat="42.097165" lon="13.3620117"><ele>715.5</ele><time>2026-05-02T14:17:18.085Z</time></trkpt><trkpt lat="42.097265" lon="13.3618583"><ele>715.25</ele><time>2026-05-02T14:17:19.086Z</time></trkpt><trkpt lat="42.097355" lon="13.3617233"><ele>715.0</ele><time>2026-05-02T14:17:20.085Z</time></trkpt><trkpt lat="42.09744" lon="13.3615967"><ele>714.75</ele><time>2026-05-02T14:17:21.085Z</time></trkpt><trkpt lat="42.097525" lon="13.361465"><ele>714.5</ele><time>2026-05-02T14:17:22.086Z</time></trkpt><trkpt lat="42.097615" lon="13.361325"><ele>714.25</ele><time>2026-05-02T14:17:23.086Z</time></trkpt><trkpt lat="42.0977033" lon="13.3611883"><ele>714.0</ele><time>2026-05-02T14:17:24.086Z</time></trkpt><trkpt lat="42.0977917" lon="13.3610667"><ele>714.0</ele><time>2026-05-02T14:17:25.086Z</time></trkpt><trkpt lat="42.0978733" lon="13.3609533"><ele>714.0</ele><time>2026-05-02T14:17:26.085Z</time></trkpt><trkpt lat="42.0979517" lon="13.360835"><ele>714.0</ele><time>2026-05-02T14:17:27.086Z</time></trkpt><trkpt lat="42.098025" lon="13.3607233"><ele>714.0</ele><time>2026-05-02T14:17:28.085Z</time></trkpt><trkpt lat="42.098105" lon="13.36061"><ele>713.0</ele><time>2026-05-02T14:17:29.086Z</time></trkpt><trkpt lat="42.09817" lon="13.3605117"><ele>712.0</ele><time>2026-05-02T14:17:30.086Z</time></trkpt><trkpt lat="42.0982383" lon="13.36042"><ele>711.0</ele><time>2026-05-02T14:17:31.086Z</time></trkpt><trkpt lat="42.09831" lon="13.3603233"><ele>710.0</ele><time>2026-05-02T14:17:32.085Z</time></trkpt><trkpt lat="42.09838" lon="13.36023"><ele>709.0</ele><time>2026-05-02T14:17:33.085Z</time></trkpt><trkpt lat="42.09845" lon="13.3601317"><ele>709.0</ele><time>2026-05-02T14:17:34.085Z</time></trkpt><trkpt lat="42.0985167" lon="13.3600483"><ele>709.0</ele><time>2026-05-02T14:17:35.085Z</time></trkpt><trkpt lat="42.0985983" lon="13.3599633"><ele>709.0</ele><time>2026-05-02T14:17:36.086Z</time></trkpt><trkpt lat="42.09869" lon="13.35987"><ele>709.0</ele><time>2026-05-02T14:17:37.086Z</time></trkpt><trkpt lat="42.098795" lon="13.35976"><ele>709.0</ele><time>2026-05-02T14:17:38.085Z</time></trkpt><trkpt lat="42.0989033" lon="13.359645"><ele>708.75</ele><time>2026-05-02T14:17:39.085Z</time></trkpt><trkpt lat="42.0990183" lon="13.35952"><ele>708.5</ele><time>2026-05-02T14:17:40.085Z</time></trkpt><trkpt lat="42.0991267" lon="13.3593867"><ele>708.25</ele><time>2026-05-02T14:17:41.086Z</time></trkpt><trkpt lat="42.0992433" lon="13.3592517"><ele>708.0</ele><time>2026-05-02T14:17:42.086Z</time></trkpt><trkpt lat="42.0993583" lon="13.3591117"><ele>708.0</ele><time>2026-05-02T14:17:43.086Z</time></trkpt><trkpt lat="42.09947" lon="13.3589717"><ele>708.0</ele><time>2026-05-02T14:17:44.085Z</time></trkpt><trkpt lat="42.099575" lon="13.3588383"><ele>708.0</ele><time>2026-05-02T14:17:45.085Z</time></trkpt><trkpt lat="42.099665" lon="13.3587167"><ele>708.0</ele><time>2026-05-02T14:17:46.085Z</time></trkpt><trkpt lat="42.09975" lon="13.3585967"><ele>708.0</ele><time>2026-05-02T14:17:47.085Z</time></trkpt><trkpt lat="42.0998317" lon="13.3584817"><ele>708.0</ele><time>2026-05-02T14:17:48.086Z</time></trkpt><trkpt lat="42.0999183" lon="13.3583683"><ele>708.0</ele><time>2026-05-02T14:17:49.086Z</time></trkpt><trkpt lat="42.1000167" lon="13.358255"><ele>708.0</ele><time>2026-05-02T14:17:50.086Z</time></trkpt><trkpt lat="42.1001233" lon="13.35815"><ele>708.25</ele><time>2026-05-02T14:17:51.086Z</time></trkpt><trkpt lat="42.10023" lon="13.35804"><ele>708.5</ele><time>2026-05-02T14:17:52.086Z</time></trkpt><trkpt lat="42.100345" lon="13.3579133"><ele>708.75</ele><time>2026-05-02T14:17:53.086Z</time></trkpt><trkpt lat="42.1004617" lon="13.3577867"><ele>709.0</ele><time>2026-05-02T14:17:54.086Z</time></trkpt><trkpt lat="42.1005833" lon="13.3576583"><ele>709.0</ele><time>2026-05-02T14:17:55.086Z</time></trkpt><trkpt lat="42.1007067" lon="13.3575233"><ele>709.0</ele><time>2026-05-02T14:17:56.085Z</time></trkpt><trkpt lat="42.1008133" lon="13.3574067"><ele>709.0</ele><time>2026-05-02T14:17:57.086Z</time></trkpt><trkpt lat="42.1009083" lon="13.35729"><ele>709.0</ele><time>2026-05-02T14:17:58.085Z</time></trkpt><trkpt lat="42.1010083" lon="13.35719"><ele>709.25</ele><time>2026-05-02T14:17:59.086Z</time></trkpt><trkpt lat="42.1011167" lon="13.3570967"><ele>709.5</ele><time>2026-05-02T14:18:00.086Z</time></trkpt><trkpt lat="42.10123" lon="13.35701"><ele>709.75</ele><time>2026-05-02T14:18:01.085Z</time></trkpt><trkpt lat="42.10135" lon="13.3569183"><ele>710.0</ele><time>2026-05-02T14:18:02.085Z</time></trkpt><trkpt lat="42.101465" lon="13.3568233"><ele>710.0</ele><time>2026-05-02T14:18:03.086Z</time></trkpt><trkpt lat="42.1015767" lon="13.35672"><ele>710.0</ele><time>2026-05-02T14:18:04.085Z</time></trkpt><trkpt lat="42.10169" lon="13.356605"><ele>710.0</ele><time>2026-05-02T14:18:05.086Z</time></trkpt><trkpt lat="42.1018133" lon="13.3564633"><ele>710.0</ele><time>2026-05-02T14:18:06.086Z</time></trkpt><trkpt lat="42.1019333" lon="13.3563"><ele>711.0</ele><time>2026-05-02T14:18:07.085Z</time></trkpt><trkpt lat="42.1020633" lon="13.35612"><ele>712.0</ele><time>2026-05-02T14:18:08.085Z</time></trkpt><trkpt lat="42.1022033" lon="13.3559383"><ele>713.0</ele><time>2026-05-02T14:18:09.086Z</time></trkpt><trkpt lat="42.1023367" lon="13.3557517"><ele>713.0</ele><time>2026-05-02T14:18:10.085Z</time></trkpt><trkpt lat="42.1024817" lon="13.3555617"><ele>713.0</ele><time>2026-05-02T14:18:11.086Z</time></trkpt><trkpt lat="42.10262" lon="13.355385"><ele>713.0</ele><time>2026-05-02T14:18:12.086Z</time></trkpt><trkpt lat="42.1027567" lon="13.3552133"><ele>713.0</ele><time>2026-05-02T14:18:13.086Z</time></trkpt><trkpt lat="42.1028933" lon="13.3550383"><ele>713.0</ele><time>2026-05-02T14:18:14.086Z</time></trkpt><trkpt lat="42.1030267" lon="13.3548667"><ele>713.0</ele><time>2026-05-02T14:18:15.085Z</time></trkpt><trkpt lat="42.103165" lon="13.3547033"><ele>716.3333333333333</ele><time>2026-05-02T14:18:16.085Z</time></trkpt><trkpt lat="42.1032967" lon="13.3545383"><ele>719.6666666666666</ele><time>2026-05-02T14:18:17.085Z</time></trkpt><trkpt lat="42.10343" lon="13.3543683"><ele>723.0</ele><time>2026-05-02T14:18:18.085Z</time></trkpt><trkpt lat="42.1035617" lon="13.3541867"><ele>723.0</ele><time>2026-05-02T14:18:19.086Z</time></trkpt><trkpt lat="42.103695" lon="13.3540067"><ele>723.0</ele><time>2026-05-02T14:18:20.085Z</time></trkpt><trkpt lat="42.1038317" lon="13.3538283"><ele>723.0</ele><time>2026-05-02T14:18:21.086Z</time></trkpt><trkpt lat="42.1039667" lon="13.353655"><ele>725.3333333333334</ele><time>2026-05-02T14:18:22.086Z</time></trkpt><trkpt lat="42.1040983" lon="13.3534833"><ele>727.6666666666667</ele><time>2026-05-02T14:18:23.085Z</time></trkpt><trkpt lat="42.10423" lon="13.3533283"><ele>730.0</ele><time>2026-05-02T14:18:24.086Z</time></trkpt><trkpt lat="42.10435" lon="13.3532"><ele>730.0</ele><time>2026-05-02T14:18:25.086Z</time></trkpt><trkpt lat="42.1044883" lon="13.3530783"><ele>730.0</ele><time>2026-05-02T14:18:26.086Z</time></trkpt><trkpt lat="42.1046383" lon="13.3529517"><ele>730.0</ele><time>2026-05-02T14:18:27.085Z</time></trkpt><trkpt lat="42.1047833" lon="13.3528367"><ele>733.3333333333334</ele><time>2026-05-02T14:18:28.086Z</time></trkpt><trkpt lat="42.1049417" lon="13.3527083"><ele>736.6666666666666</ele><time>2026-05-02T14:18:29.085Z</time></trkpt><trkpt lat="42.1051" lon="13.3525883"><ele>740.0</ele><time>2026-05-02T14:18:30.085Z</time></trkpt><trkpt lat="42.10524" lon="13.3524767"><ele>740.0</ele><time>2026-05-02T14:18:31.086Z</time></trkpt><trkpt lat="42.1053733" lon="13.35237"><ele>740.0</ele><time>2026-05-02T14:18:32.085Z</time></trkpt><trkpt lat="42.1055017" lon="13.352265"><ele>740.0</ele><time>2026-05-02T14:18:33.086Z</time></trkpt><trkpt lat="42.1056267" lon="13.35217"><ele>740.0</ele><time>2026-05-02T14:18:34.085Z</time></trkpt><trkpt lat="42.105755" lon="13.3520683"><ele>741.0</ele><time>2026-05-02T14:18:35.085Z</time></trkpt><trkpt lat="42.10589" lon="13.351955"><ele>742.0</ele><time>2026-05-02T14:18:36.086Z</time></trkpt><trkpt lat="42.1060067" lon="13.3518617"><ele>743.0</ele><time>2026-05-02T14:18:37.085Z</time></trkpt><trkpt lat="42.1061083" lon="13.35179"><ele>744.0</ele><time>2026-05-02T14:18:38.085Z</time></trkpt><trkpt lat="42.1062017" lon="13.3517083"><ele>744.0</ele><time>2026-05-02T14:18:39.085Z</time></trkpt><trkpt lat="42.106285" lon="13.351645"><ele>744.0</ele><time>2026-05-02T14:18:40.085Z</time></trkpt><trkpt lat="42.1063633" lon="13.3515833"><ele>744.0</ele><time>2026-05-02T14:18:41.085Z</time></trkpt><trkpt lat="42.1064467" lon="13.3515167"><ele>744.0</ele><time>2026-05-02T14:18:42.085Z</time></trkpt><trkpt lat="42.1065383" lon="13.3514667"><ele>744.0</ele><time>2026-05-02T14:18:43.085Z</time></trkpt><trkpt lat="42.1066417" lon="13.35142"><ele>744.6</ele><time>2026-05-02T14:18:44.086Z</time></trkpt><trkpt lat="42.106745" lon="13.351365"><ele>745.2</ele><time>2026-05-02T14:18:45.086Z</time></trkpt><trkpt lat="42.106835" lon="13.3513217"><ele>745.8000000000001</ele><time>2026-05-02T14:18:46.085Z</time></trkpt><trkpt lat="42.1069167" lon="13.3512617"><ele>746.4000000000001</ele><time>2026-05-02T14:18:47.086Z</time></trkpt><trkpt lat="42.1069867" lon="13.35115"><ele>747.0</ele><time>2026-05-02T14:18:49.086Z</time></trkpt><trkpt lat="42.1070167" lon="13.3510433"><ele>747.0</ele><time>2026-05-02T14:18:50.085Z</time></trkpt><trkpt lat="42.107035" lon="13.35089"><ele>747.0</ele><time>2026-05-02T14:18:51.085Z</time></trkpt><trkpt lat="42.10706" lon="13.3507117"><ele>747.0</ele><time>2026-05-02T14:18:52.085Z</time></trkpt><trkpt lat="42.107085" lon="13.350525"><ele>747.0</ele><time>2026-05-02T14:18:53.085Z</time></trkpt><trkpt lat="42.1071067" lon="13.3503517"><ele>747.4000000000001</ele><time>2026-05-02T14:18:54.085Z</time></trkpt><trkpt lat="42.1071333" lon="13.3502083"><ele>747.8000000000001</ele><time>2026-05-02T14:18:55.085Z</time></trkpt><trkpt lat="42.1071717" lon="13.3501017"><ele>748.2</ele><time>2026-05-02T14:18:56.086Z</time></trkpt><trkpt lat="42.1072217" lon="13.350005"><ele>748.6</ele><time>2026-05-02T14:18:57.085Z</time></trkpt><trkpt lat="42.1072833" lon="13.3499033"><ele>749.0</ele><time>2026-05-02T14:18:58.085Z</time></trkpt><trkpt lat="42.1073583" lon="13.3497833"><ele>749.4000000000001</ele><time>2026-05-02T14:18:59.086Z</time></trkpt><trkpt lat="42.1074417" lon="13.34965"><ele>749.8</ele><time>2026-05-02T14:19:00.085Z</time></trkpt><trkpt lat="42.1075217" lon="13.3495383"><ele>750.2</ele><time>2026-05-02T14:19:01.085Z</time></trkpt><trkpt lat="42.1075833" lon="13.3494483"><ele>750.5999999999999</ele><time>2026-05-02T14:19:02.085Z</time></trkpt><trkpt lat="42.107635" lon="13.3493833"><ele>751.0</ele><time>2026-05-02T14:19:03.086Z</time></trkpt><trkpt lat="42.1076983" lon="13.3493417"><ele>751.0</ele><time>2026-05-02T14:19:05.085Z</time></trkpt><trkpt lat="42.10777" lon="13.349335"><ele>751.0</ele><time>2026-05-02T14:19:07.086Z</time></trkpt><trkpt lat="42.1079" lon="13.34935"><ele>751.0</ele><time>2026-05-02T14:19:09.086Z</time></trkpt><trkpt lat="42.10799" lon="13.3493467"><ele>751.0</ele><time>2026-05-02T14:19:10.086Z</time></trkpt><trkpt lat="42.1081" lon="13.349345"><ele>751.0</ele><time>2026-05-02T14:19:11.085Z</time></trkpt><trkpt lat="42.1082067" lon="13.3493533"><ele>752.4</ele><time>2026-05-02T14:19:12.086Z</time></trkpt><trkpt lat="42.10832" lon="13.3493617"><ele>753.8</ele><time>2026-05-02T14:19:13.085Z</time></trkpt><trkpt lat="42.108425" lon="13.349365"><ele>755.1999999999999</ele><time>2026-05-02T14:19:14.086Z</time></trkpt><trkpt lat="42.1085167" lon="13.3493717"><ele>756.5999999999999</ele><time>2026-05-02T14:19:15.085Z</time></trkpt><trkpt lat="42.1086133" lon="13.3493733"><ele>758.0</ele><time>2026-05-02T14:19:16.085Z</time></trkpt><trkpt lat="42.10872" lon="13.349375"><ele>758.0</ele><time>2026-05-02T14:19:17.086Z</time></trkpt><trkpt lat="42.108825" lon="13.3493883"><ele>758.0</ele><time>2026-05-02T14:19:18.086Z</time></trkpt><trkpt lat="42.1089167" lon="13.349395"><ele>758.0</ele><time>2026-05-02T14:19:19.085Z</time></trkpt><trkpt lat="42.1089933" lon="13.3494033"><ele>758.0</ele><time>2026-05-02T14:19:20.085Z</time></trkpt><trkpt lat="42.1090783" lon="13.3493867"><ele>758.0</ele><time>2026-05-02T14:19:21.085Z</time></trkpt><trkpt lat="42.109185" lon="13.34936"><ele>759.0</ele><time>2026-05-02T14:19:22.085Z</time></trkpt><trkpt lat="42.1093067" lon="13.34932"><ele>760.0</ele><time>2026-05-02T14:19:23.085Z</time></trkpt><trkpt lat="42.1094083" lon="13.3492883"><ele>761.0</ele><time>2026-05-02T14:19:24.086Z</time></trkpt><trkpt lat="42.109515" lon="13.3492433"><ele>762.0</ele><time>2026-05-02T14:19:25.086Z</time></trkpt><trkpt lat="42.10962" lon="13.3491983"><ele>762.0</ele><time>2026-05-02T14:19:26.086Z</time></trkpt><trkpt lat="42.10973" lon="13.3491417"><ele>762.0</ele><time>2026-05-02T14:19:27.085Z</time></trkpt><trkpt lat="42.10985" lon="13.3490883"><ele>762.0</ele><time>2026-05-02T14:19:28.086Z</time></trkpt><trkpt lat="42.109955" lon="13.3490417"><ele>762.0</ele><time>2026-05-02T14:19:29.085Z</time></trkpt><trkpt lat="42.1100383" lon="13.3489867"><ele>762.0</ele><time>2026-05-02T14:19:30.085Z</time></trkpt><trkpt lat="42.11011" lon="13.348915"><ele>763.3333333333334</ele><time>2026-05-02T14:19:31.085Z</time></trkpt><trkpt lat="42.1101817" lon="13.3488217"><ele>764.6666666666667</ele><time>2026-05-02T14:19:32.086Z</time></trkpt><trkpt lat="42.11024" lon="13.34873"><ele>766.0</ele><time>2026-05-02T14:19:33.086Z</time></trkpt><trkpt lat="42.1103017" lon="13.3486467"><ele>767.3333333333334</ele><time>2026-05-02T14:19:34.085Z</time></trkpt><trkpt lat="42.1103567" lon="13.3485917"><ele>768.6666666666667</ele><time>2026-05-02T14:19:35.086Z</time></trkpt><trkpt lat="42.11042" lon="13.3485717"><ele>770.0</ele><time>2026-05-02T14:19:36.086Z</time></trkpt><trkpt lat="42.1104933" lon="13.3485583"><ele>770.0</ele><time>2026-05-02T14:19:37.085Z</time></trkpt><trkpt lat="42.110595" lon="13.34857"><ele>770.0</ele><time>2026-05-02T14:19:38.085Z</time></trkpt><trkpt lat="42.1106983" lon="13.3485883"><ele>770.0</ele><time>2026-05-02T14:19:39.085Z</time></trkpt><trkpt lat="42.1108267" lon="13.348595"><ele>770.0</ele><time>2026-05-02T14:19:40.086Z</time></trkpt><trkpt lat="42.1109583" lon="13.3486067"><ele>771.5</ele><time>2026-05-02T14:19:41.086Z</time></trkpt><trkpt lat="42.11108" lon="13.348615"><ele>773.0</ele><time>2026-05-02T14:19:42.086Z</time></trkpt><trkpt lat="42.1112033" lon="13.3486167"><ele>774.5</ele><time>2026-05-02T14:19:43.086Z</time></trkpt><trkpt lat="42.1113317" lon="13.3486233"><ele>776.0</ele><time>2026-05-02T14:19:44.086Z</time></trkpt><trkpt lat="42.1114683" lon="13.3486233"><ele>776.5</ele><time>2026-05-02T14:19:45.086Z</time></trkpt><trkpt lat="42.1116083" lon="13.34861"><ele>777.0</ele><time>2026-05-02T14:19:46.086Z</time></trkpt><trkpt lat="42.1117467" lon="13.3485867"><ele>777.5</ele><time>2026-05-02T14:19:47.086Z</time></trkpt><trkpt lat="42.1118733" lon="13.348555"><ele>778.0</ele><time>2026-05-02T14:19:48.086Z</time></trkpt><trkpt lat="42.1119833" lon="13.34856"><ele>778.0</ele><time>2026-05-02T14:19:49.085Z</time></trkpt><trkpt lat="42.1121" lon="13.3485717"><ele>778.0</ele><time>2026-05-02T14:19:50.085Z</time></trkpt><trkpt lat="42.1122217" lon="13.3485883"><ele>778.0</ele><time>2026-05-02T14:19:51.085Z</time></trkpt><trkpt lat="42.1123233" lon="13.3486"><ele>778.0</ele><time>2026-05-02T14:19:52.085Z</time></trkpt><trkpt lat="42.1124233" lon="13.3486"><ele>778.0</ele><time>2026-05-02T14:19:53.085Z</time></trkpt><trkpt lat="42.1125317" lon="13.3486033"><ele>780.25</ele><time>2026-05-02T14:19:54.085Z</time></trkpt><trkpt lat="42.112655" lon="13.348595"><ele>782.5</ele><time>2026-05-02T14:19:55.085Z</time></trkpt><trkpt lat="42.1127883" lon="13.34856"><ele>784.75</ele><time>2026-05-02T14:19:56.085Z</time></trkpt><trkpt lat="42.1129283" lon="13.3485217"><ele>787.0</ele><time>2026-05-02T14:19:57.086Z</time></trkpt><trkpt lat="42.1130567" lon="13.3484817"><ele>787.0</ele><time>2026-05-02T14:19:58.085Z</time></trkpt><trkpt lat="42.1132033" lon="13.3484283"><ele>787.0</ele><time>2026-05-02T14:19:59.085Z</time></trkpt><trkpt lat="42.1133383" lon="13.3483567"><ele>787.0</ele><time>2026-05-02T14:20:00.086Z</time></trkpt><trkpt lat="42.1134733" lon="13.3482817"><ele>787.0</ele><time>2026-05-02T14:20:01.086Z</time></trkpt><trkpt lat="42.113605" lon="13.348195"><ele>788.0</ele><time>2026-05-02T14:20:02.085Z</time></trkpt><trkpt lat="42.11374" lon="13.3481117"><ele>789.0</ele><time>2026-05-02T14:20:03.085Z</time></trkpt><trkpt lat="42.1138817" lon="13.3480383"><ele>790.0</ele><time>2026-05-02T14:20:04.086Z</time></trkpt><trkpt lat="42.11402" lon="13.3479633"><ele>791.0</ele><time>2026-05-02T14:20:05.086Z</time></trkpt><trkpt lat="42.11416" lon="13.3478933"><ele>792.25</ele><time>2026-05-02T14:20:06.085Z</time></trkpt><trkpt lat="42.1142833" lon="13.347825"><ele>793.5</ele><time>2026-05-02T14:20:07.086Z</time></trkpt><trkpt lat="42.1144033" lon="13.3477767"><ele>794.75</ele><time>2026-05-02T14:20:08.085Z</time></trkpt><trkpt lat="42.1145283" lon="13.34775"><ele>796.0</ele><time>2026-05-02T14:20:09.085Z</time></trkpt><trkpt lat="42.1146617" lon="13.3477283"><ele>796.0</ele><time>2026-05-02T14:20:10.085Z</time></trkpt><trkpt lat="42.1147883" lon="13.3477133"><ele>796.0</ele><time>2026-05-02T14:20:11.085Z</time></trkpt><trkpt lat="42.1149233" lon="13.3477"><ele>796.0</ele><time>2026-05-02T14:20:12.086Z</time></trkpt><trkpt lat="42.1150583" lon="13.3477"><ele>796.0</ele><time>2026-05-02T14:20:13.086Z</time></trkpt><trkpt lat="42.1151917" lon="13.3476933"><ele>797.5</ele><time>2026-05-02T14:20:14.085Z</time></trkpt><trkpt lat="42.115305" lon="13.3476733"><ele>799.0</ele><time>2026-05-02T14:20:15.086Z</time></trkpt><trkpt lat="42.1154117" lon="13.3476267"><ele>800.5</ele><time>2026-05-02T14:20:16.084Z</time></trkpt><trkpt lat="42.115525" lon="13.3475567"><ele>802.0</ele><time>2026-05-02T14:20:17.084Z</time></trkpt><trkpt lat="42.1156383" lon="13.347485"><ele>803.0</ele><time>2026-05-02T14:20:18.085Z</time></trkpt><trkpt lat="42.115755" lon="13.3473967"><ele>804.0</ele><time>2026-05-02T14:20:19.085Z</time></trkpt><trkpt lat="42.1158667" lon="13.347305"><ele>805.0</ele><time>2026-05-02T14:20:20.085Z</time></trkpt><trkpt lat="42.1159783" lon="13.3472133"><ele>806.0</ele><time>2026-05-02T14:20:21.084Z</time></trkpt><trkpt lat="42.1160917" lon="13.3471217"><ele>806.5</ele><time>2026-05-02T14:20:22.084Z</time></trkpt><trkpt lat="42.1161933" lon="13.347045"><ele>807.0</ele><time>2026-05-02T14:20:23.085Z</time></trkpt><trkpt lat="42.116295" lon="13.3469717"><ele>807.5</ele><time>2026-05-02T14:20:24.085Z</time></trkpt><trkpt lat="42.1164033" lon="13.3469"><ele>808.0</ele><time>2026-05-02T14:20:25.085Z</time></trkpt><trkpt lat="42.11651" lon="13.3468417"><ele>809.0</ele><time>2026-05-02T14:20:26.085Z</time></trkpt><trkpt lat="42.1165983" lon="13.3468083"><ele>810.0</ele><time>2026-05-02T14:20:27.085Z</time></trkpt><trkpt lat="42.1166817" lon="13.3467817"><ele>811.0</ele><time>2026-05-02T14:20:28.085Z</time></trkpt><trkpt lat="42.116765" lon="13.3467567"><ele>812.0</ele><time>2026-05-02T14:20:29.085Z</time></trkpt><trkpt lat="42.1168667" lon="13.3467333"><ele>813.0</ele><time>2026-05-02T14:20:30.084Z</time></trkpt><trkpt lat="42.1169683" lon="13.3466883"><ele>813.0</ele><time>2026-05-02T14:20:31.085Z</time></trkpt><trkpt lat="42.1170867" lon="13.3466467"><ele>813.0</ele><time>2026-05-02T14:20:32.085Z</time></trkpt><trkpt lat="42.1172167" lon="13.34659"><ele>813.0</ele><time>2026-05-02T14:20:33.084Z</time></trkpt><trkpt lat="42.1173583" lon="13.3465217"><ele>813.0</ele><time>2026-05-02T14:20:34.085Z</time></trkpt><trkpt lat="42.1175033" lon="13.34644"><ele>814.75</ele><time>2026-05-02T14:20:35.085Z</time></trkpt><trkpt lat="42.1176367" lon="13.3463633"><ele>816.5</ele><time>2026-05-02T14:20:36.084Z</time></trkpt><trkpt lat="42.1177717" lon="13.3463067"><ele>818.25</ele><time>2026-05-02T14:20:37.085Z</time></trkpt><trkpt lat="42.1179133" lon="13.3462567"><ele>820.0</ele><time>2026-05-02T14:20:38.084Z</time></trkpt><trkpt lat="42.11806" lon="13.3462217"><ele>820.0</ele><time>2026-05-02T14:20:39.084Z</time></trkpt><trkpt lat="42.11821" lon="13.3461983"><ele>820.0</ele><time>2026-05-02T14:20:40.084Z</time></trkpt><trkpt lat="42.1183667" lon="13.3461683"><ele>820.0</ele><time>2026-05-02T14:20:41.084Z</time></trkpt><trkpt lat="42.1185267" lon="13.3461283"><ele>821.3333333333333</ele><time>2026-05-02T14:20:42.085Z</time></trkpt><trkpt lat="42.118685" lon="13.34607"><ele>822.6666666666667</ele><time>2026-05-02T14:20:43.085Z</time></trkpt><trkpt lat="42.1188583" lon="13.3460033"><ele>824.0</ele><time>2026-05-02T14:20:44.085Z</time></trkpt><trkpt lat="42.1190233" lon="13.3459367"><ele>826.0</ele><time>2026-05-02T14:20:45.085Z</time></trkpt><trkpt lat="42.1191983" lon="13.3458617"><ele>828.0</ele><time>2026-05-02T14:20:46.084Z</time></trkpt><trkpt lat="42.119385" lon="13.345785"><ele>830.0</ele><time>2026-05-02T14:20:47.084Z</time></trkpt><trkpt lat="42.119565" lon="13.3457267"><ele>830.0</ele><time>2026-05-02T14:20:48.084Z</time></trkpt><trkpt lat="42.119745" lon="13.3456567"><ele>830.0</ele><time>2026-05-02T14:20:49.085Z</time></trkpt><trkpt lat="42.1199217" lon="13.345585"><ele>830.0</ele><time>2026-05-02T14:20:50.084Z</time></trkpt><trkpt lat="42.1200717" lon="13.345515"><ele>833.3333333333334</ele><time>2026-05-02T14:20:51.084Z</time></trkpt><trkpt lat="42.1202167" lon="13.3454283"><ele>836.6666666666667</ele><time>2026-05-02T14:20:52.084Z</time></trkpt><trkpt lat="42.1203517" lon="13.34536"><ele>840.0</ele><time>2026-05-02T14:20:53.085Z</time></trkpt><trkpt lat="42.1204933" lon="13.3453017"><ele>840.0</ele><time>2026-05-02T14:20:54.084Z</time></trkpt><trkpt lat="42.1206317" lon="13.3452617"><ele>840.0</ele><time>2026-05-02T14:20:55.084Z</time></trkpt><trkpt lat="42.1207767" lon="13.34523"><ele>840.0</ele><time>2026-05-02T14:20:56.085Z</time></trkpt><trkpt lat="42.1209317" lon="13.3452183"><ele>840.0</ele><time>2026-05-02T14:20:57.085Z</time></trkpt><trkpt lat="42.1210933" lon="13.3452067"><ele>841.3333333333333</ele><time>2026-05-02T14:20:58.085Z</time></trkpt><trkpt lat="42.1212583" lon="13.3451783"><ele>842.6666666666666</ele><time>2026-05-02T14:20:59.085Z</time></trkpt><trkpt lat="42.1214067" lon="13.3451233"><ele>844.0</ele><time>2026-05-02T14:21:00.084Z</time></trkpt><trkpt lat="42.1215433" lon="13.3450617"><ele>844.8333333333333</ele><time>2026-05-02T14:21:01.084Z</time></trkpt><trkpt lat="42.1216467" lon="13.345"><ele>845.6666666666666</ele><time>2026-05-02T14:21:02.084Z</time></trkpt><trkpt lat="42.121725" lon="13.344945"><ele>846.5</ele><time>2026-05-02T14:21:03.084Z</time></trkpt><trkpt lat="42.1217833" lon="13.3448967"><ele>847.3333333333333</ele><time>2026-05-02T14:21:04.084Z</time></trkpt><trkpt lat="42.1218467" lon="13.344855"><ele>848.1666666666666</ele><time>2026-05-02T14:21:05.084Z</time></trkpt><trkpt lat="42.1219083" lon="13.3448133"><ele>849.0</ele><time>2026-05-02T14:21:06.085Z</time></trkpt><trkpt lat="42.1220233" lon="13.3447617"><ele>849.0</ele><time>2026-05-02T14:21:08.084Z</time></trkpt><trkpt lat="42.1221217" lon="13.3447267"><ele>849.0</ele><time>2026-05-02T14:21:10.084Z</time></trkpt><trkpt lat="42.12223" lon="13.34471"><ele>849.0</ele><time>2026-05-02T14:21:12.085Z</time></trkpt><trkpt lat="42.1223133" lon="13.344725"><ele>849.0</ele><time>2026-05-02T14:21:14.084Z</time></trkpt><trkpt lat="42.1223967" lon="13.3447517"><ele>849.0</ele><time>2026-05-02T14:21:17.085Z</time></trkpt><trkpt lat="42.12247" lon="13.3447583"><ele>850.3333333333334</ele><time>2026-05-02T14:21:19.085Z</time></trkpt><trkpt lat="42.1225483" lon="13.34474"><ele>851.6666666666667</ele><time>2026-05-02T14:21:21.085Z</time></trkpt><trkpt lat="42.1226183" lon="13.3447167"><ele>853.0</ele><time>2026-05-02T14:21:23.084Z</time></trkpt><trkpt lat="42.122705" lon="13.3447017"><ele>854.3333333333334</ele><time>2026-05-02T14:21:25.084Z</time></trkpt><trkpt lat="42.1227883" lon="13.3446733"><ele>855.6666666666667</ele><time>2026-05-02T14:21:27.085Z</time></trkpt><trkpt lat="42.1228583" lon="13.3446467"><ele>857.0</ele><time>2026-05-02T14:21:29.084Z</time></trkpt><trkpt lat="42.1229217" lon="13.3446133"><ele>857.8333333333334</ele><time>2026-05-02T14:21:31.084Z</time></trkpt><trkpt lat="42.122995" lon="13.3445933"><ele>858.6666666666667</ele><time>2026-05-02T14:21:33.084Z</time></trkpt><trkpt lat="42.12309" lon="13.3445667"><ele>859.5</ele><time>2026-05-02T14:21:35.085Z</time></trkpt><trkpt lat="42.1231517" lon="13.3445483"><ele>860.3333333333333</ele><time>2026-05-02T14:21:36.085Z</time></trkpt><trkpt lat="42.1232217" lon="13.3445117"><ele>861.1666666666666</ele><time>2026-05-02T14:21:37.085Z</time></trkpt><trkpt lat="42.12331" lon="13.344465"><ele>862.0</ele><time>2026-05-02T14:21:38.084Z</time></trkpt><trkpt lat="42.1234033" lon="13.3444117"><ele>862.75</ele><time>2026-05-02T14:21:39.084Z</time></trkpt><trkpt lat="42.1235117" lon="13.3443483"><ele>863.5</ele><time>2026-05-02T14:21:40.085Z</time></trkpt><trkpt lat="42.1236183" lon="13.3442733"><ele>864.25</ele><time>2026-05-02T14:21:41.084Z</time></trkpt><trkpt lat="42.1237283" lon="13.3442033"><ele>865.0</ele><time>2026-05-02T14:21:42.084Z</time></trkpt><trkpt lat="42.1238383" lon="13.3441467"><ele>865.0</ele><time>2026-05-02T14:21:43.084Z</time></trkpt><trkpt lat="42.123945" lon="13.344105"><ele>865.0</ele><time>2026-05-02T14:21:44.084Z</time></trkpt><trkpt lat="42.12405" lon="13.3440583"><ele>865.0</ele><time>2026-05-02T14:21:45.084Z</time></trkpt><trkpt lat="42.1241567" lon="13.3440233"><ele>865.0</ele><time>2026-05-02T14:21:46.084Z</time></trkpt><trkpt lat="42.1242667" lon="13.3439867"><ele>865.0</ele><time>2026-05-02T14:21:47.084Z</time></trkpt><trkpt lat="42.12438" lon="13.3439433"><ele>866.25</ele><time>2026-05-02T14:21:48.084Z</time></trkpt><trkpt lat="42.1244933" lon="13.3438867"><ele>867.5</ele><time>2026-05-02T14:21:49.084Z</time></trkpt><trkpt lat="42.1246017" lon="13.3438333"><ele>868.75</ele><time>2026-05-02T14:21:50.084Z</time></trkpt><trkpt lat="42.1247017" lon="13.3437783"><ele>870.0</ele><time>2026-05-02T14:21:51.084Z</time></trkpt><trkpt lat="42.1248033" lon="13.3437283"><ele>870.6666666666666</ele><time>2026-05-02T14:21:52.084Z</time></trkpt><trkpt lat="42.124895" lon="13.3436883"><ele>871.3333333333333</ele><time>2026-05-02T14:21:53.084Z</time></trkpt><trkpt lat="42.12497" lon="13.3436717"><ele>872.0</ele><time>2026-05-02T14:21:54.084Z</time></trkpt><trkpt lat="42.1250733" lon="13.3436433"><ele>872.6666666666666</ele><time>2026-05-02T14:21:56.084Z</time></trkpt><trkpt lat="42.1250983" lon="13.3435617"><ele>873.3333333333333</ele><time>2026-05-02T14:21:58.084Z</time></trkpt><trkpt lat="42.12508" lon="13.34348"><ele>874.0</ele><time>2026-05-02T14:21:59.084Z</time></trkpt><trkpt lat="42.1250433" lon="13.3433933"><ele>874.0</ele><time>2026-05-02T14:22:00.085Z</time></trkpt><trkpt lat="42.1249867" lon="13.3432933"><ele>874.0000000000001</ele><time>2026-05-02T14:22:01.085Z</time></trkpt><trkpt lat="42.1249133" lon="13.3432033"><ele>874.0000000000001</ele><time>2026-05-02T14:22:02.084Z</time></trkpt><trkpt lat="42.124835" lon="13.3431217"><ele>874.0</ele><time>2026-05-02T14:22:03.084Z</time></trkpt><trkpt lat="42.124735" lon="13.3430467"><ele>874.0</ele><time>2026-05-02T14:22:04.084Z</time></trkpt><trkpt lat="42.1246233" lon="13.3429733"><ele>877.5</ele><time>2026-05-02T14:22:05.084Z</time></trkpt><trkpt lat="42.1245083" lon="13.3428883"><ele>881.0</ele><time>2026-05-02T14:22:06.085Z</time></trkpt><trkpt lat="42.12438" lon="13.342805"><ele>884.5</ele><time>2026-05-02T14:22:07.085Z</time></trkpt><trkpt lat="42.1242567" lon="13.3427367"><ele>888.0</ele><time>2026-05-02T14:22:08.084Z</time></trkpt><trkpt lat="42.12415" lon="13.3426783"><ele>887.6666666666666</ele><time>2026-05-02T14:22:09.085Z</time></trkpt><trkpt lat="42.1240533" lon="13.3426217"><ele>887.3333333333333</ele><time>2026-05-02T14:22:10.085Z</time></trkpt><trkpt lat="42.12397" lon="13.34258"><ele>887.0</ele><time>2026-05-02T14:22:11.084Z</time></trkpt><trkpt lat="42.1238917" lon="13.3425433"><ele>886.6666666666666</ele><time>2026-05-02T14:22:12.084Z</time></trkpt><trkpt lat="42.1238233" lon="13.342495"><ele>886.3333333333333</ele><time>2026-05-02T14:22:13.084Z</time></trkpt><trkpt lat="42.1237467" lon="13.34246"><ele>886.0</ele><time>2026-05-02T14:22:14.085Z</time></trkpt><trkpt lat="42.1236683" lon="13.34243"><ele>886.0</ele><time>2026-05-02T14:22:15.084Z</time></trkpt><trkpt lat="42.1236067" lon="13.3424083"><ele>885.9999999999999</ele><time>2026-05-02T14:22:16.085Z</time></trkpt><trkpt lat="42.12366" lon="13.3423517"><ele>885.9999999999999</ele><time>2026-05-02T14:22:21.084Z</time></trkpt><trkpt lat="42.1238017" lon="13.3423333"><ele>886.0</ele><time>2026-05-02T14:22:23.084Z</time></trkpt><trkpt lat="42.1238983" lon="13.3423067"><ele>886.0</ele><time>2026-05-02T14:22:24.085Z</time></trkpt><trkpt lat="42.12401" lon="13.342265"><ele>891.75</ele><time>2026-05-02T14:22:25.084Z</time></trkpt><trkpt lat="42.12414" lon="13.3422133"><ele>897.5</ele><time>2026-05-02T14:22:26.085Z</time></trkpt><trkpt lat="42.124275" lon="13.3421683"><ele>903.25</ele><time>2026-05-02T14:22:27.084Z</time></trkpt><trkpt lat="42.1243967" lon="13.3421617"><ele>909.0</ele><time>2026-05-02T14:22:28.085Z</time></trkpt><trkpt lat="42.1245217" lon="13.3421967"><ele>903.75</ele><time>2026-05-02T14:22:29.084Z</time></trkpt><trkpt lat="42.1246417" lon="13.3422517"><ele>898.5</ele><time>2026-05-02T14:22:30.085Z</time></trkpt><trkpt lat="42.12476" lon="13.3423017"><ele>893.25</ele><time>2026-05-02T14:22:31.084Z</time></trkpt><trkpt lat="42.12488" lon="13.342325"><ele>888.0</ele><time>2026-05-02T14:22:32.084Z</time></trkpt><trkpt lat="42.1249967" lon="13.34234"><ele>888.0</ele><time>2026-05-02T14:22:33.085Z</time></trkpt><trkpt lat="42.1251317" lon="13.34234"><ele>888.0</ele><time>2026-05-02T14:22:34.085Z</time></trkpt><trkpt lat="42.1252583" lon="13.3423267"><ele>888.0</ele><time>2026-05-02T14:22:35.085Z</time></trkpt><trkpt lat="42.1254117" lon="13.3423033"><ele>888.0</ele><time>2026-05-02T14:22:36.084Z</time></trkpt><trkpt lat="42.12557" lon="13.3422567"><ele>894.6666666666667</ele><time>2026-05-02T14:22:37.085Z</time></trkpt><trkpt lat="42.1257283" lon="13.342205"><ele>901.3333333333334</ele><time>2026-05-02T14:22:38.085Z</time></trkpt><trkpt lat="42.125885" lon="13.34214"><ele>908.0</ele><time>2026-05-02T14:22:39.085Z</time></trkpt><trkpt lat="42.1260467" lon="13.342075"><ele>908.6666666666667</ele><time>2026-05-02T14:22:40.085Z</time></trkpt><trkpt lat="42.1262017" lon="13.342005"><ele>909.3333333333333</ele><time>2026-05-02T14:22:41.084Z</time></trkpt><trkpt lat="42.1263583" lon="13.341935"><ele>910.0</ele><time>2026-05-02T14:22:42.085Z</time></trkpt><trkpt lat="42.1265033" lon="13.3418717"><ele>907.25</ele><time>2026-05-02T14:22:43.084Z</time></trkpt><trkpt lat="42.1266433" lon="13.34181"><ele>904.5</ele><time>2026-05-02T14:22:44.085Z</time></trkpt><trkpt lat="42.1267733" lon="13.341755"><ele>901.75</ele><time>2026-05-02T14:22:45.085Z</time></trkpt><trkpt lat="42.1269033" lon="13.3417117"><ele>899.0</ele><time>2026-05-02T14:22:46.084Z</time></trkpt><trkpt lat="42.1270383" lon="13.3416683"><ele>899.0</ele><time>2026-05-02T14:22:47.084Z</time></trkpt><trkpt lat="42.1271817" lon="13.341645"><ele>899.0</ele><time>2026-05-02T14:22:48.085Z</time></trkpt><trkpt lat="42.12733" lon="13.341645"><ele>899.0</ele><time>2026-05-02T14:22:49.085Z</time></trkpt><trkpt lat="42.127485" lon="13.3416467"><ele>899.0</ele><time>2026-05-02T14:22:50.084Z</time></trkpt><trkpt lat="42.127655" lon="13.341665"><ele>899.6666666666667</ele><time>2026-05-02T14:22:51.085Z</time></trkpt><trkpt lat="42.1278233" lon="13.3416967"><ele>900.3333333333333</ele><time>2026-05-02T14:22:52.084Z</time></trkpt><trkpt lat="42.1279883" lon="13.3417467"><ele>901.0</ele><time>2026-05-02T14:22:53.085Z</time></trkpt><trkpt lat="42.1281433" lon="13.3418067"><ele>902.3333333333333</ele><time>2026-05-02T14:22:54.085Z</time></trkpt><trkpt lat="42.1282617" lon="13.3418817"><ele>903.6666666666666</ele><time>2026-05-02T14:22:55.085Z</time></trkpt><trkpt lat="42.12835" lon="13.3419283"><ele>905.0</ele><time>2026-05-02T14:22:56.085Z</time></trkpt><trkpt lat="42.1284083" lon="13.3419633"><ele>906.3333333333333</ele><time>2026-05-02T14:22:57.084Z</time></trkpt><trkpt lat="42.12847" lon="13.3419817"><ele>907.6666666666666</ele><time>2026-05-02T14:22:58.085Z</time></trkpt><trkpt lat="42.128535" lon="13.341985"><ele>909.0</ele><time>2026-05-02T14:22:59.085Z</time></trkpt><trkpt lat="42.1286183" lon="13.3420033"><ele>909.0</ele><time>2026-05-02T14:23:01.084Z</time></trkpt><trkpt lat="42.1285667" lon="13.341945"><ele>909.0</ele><time>2026-05-02T14:23:07.085Z</time></trkpt><trkpt lat="42.1284917" lon="13.3419417"><ele>909.0</ele><time>2026-05-02T14:23:08.084Z</time></trkpt><trkpt lat="42.128405" lon="13.3419283"><ele>909.0</ele><time>2026-05-02T14:23:09.084Z</time></trkpt><trkpt lat="42.128325" lon="13.3419033"><ele>909.0</ele><time>2026-05-02T14:23:10.084Z</time></trkpt><trkpt lat="42.1282417" lon="13.34184"><ele>909.0</ele><time>2026-05-02T14:23:12.085Z</time></trkpt><trkpt lat="42.1282567" lon="13.341755"><ele>909.0</ele><time>2026-05-02T14:23:15.084Z</time></trkpt><trkpt lat="42.1283317" lon="13.3416833"><ele>909.0</ele><time>2026-05-02T14:23:17.084Z</time></trkpt><trkpt lat="42.1284017" lon="13.3416333"><ele>909.0</ele><time>2026-05-02T14:23:18.085Z</time></trkpt><trkpt lat="42.1284767" lon="13.34159"><ele>909.0</ele><time>2026-05-02T14:23:19.085Z</time></trkpt><trkpt lat="42.128555" lon="13.3415517"><ele>909.0</ele><time>2026-05-02T14:23:20.085Z</time></trkpt><trkpt lat="42.1286367" lon="13.3414933"><ele>909.0</ele><time>2026-05-02T14:23:21.085Z</time></trkpt><trkpt lat="42.1287133" lon="13.3414217"><ele>911.5</ele><time>2026-05-02T14:23:22.085Z</time></trkpt><trkpt lat="42.1287933" lon="13.3413467"><ele>914.0</ele><time>2026-05-02T14:23:23.084Z</time></trkpt><trkpt lat="42.1288833" lon="13.3412583"><ele>916.5</ele><time>2026-05-02T14:23:24.085Z</time></trkpt><trkpt lat="42.1289767" lon="13.341155"><ele>919.0</ele><time>2026-05-02T14:23:25.084Z</time></trkpt><trkpt lat="42.1290617" lon="13.3410383"><ele>919.0</ele><time>2026-05-02T14:23:26.085Z</time></trkpt><trkpt lat="42.1291317" lon="13.3409133"><ele>919.0000000000001</ele><time>2026-05-02T14:23:27.085Z</time></trkpt><trkpt lat="42.1292083" lon="13.3407933"><ele>919.0000000000001</ele><time>2026-05-02T14:23:28.085Z</time></trkpt><trkpt lat="42.1292833" lon="13.340685"><ele>919.0</ele><time>2026-05-02T14:23:29.084Z</time></trkpt><trkpt lat="42.12936" lon="13.3405967"><ele>919.0</ele><time>2026-05-02T14:23:30.084Z</time></trkpt><trkpt lat="42.1294317" lon="13.340505"><ele>923.0</ele><time>2026-05-02T14:23:31.084Z</time></trkpt><trkpt lat="42.1294933" lon="13.340415"><ele>927.0000000000001</ele><time>2026-05-02T14:23:32.084Z</time></trkpt><trkpt lat="42.129565" lon="13.340305"><ele>931.0000000000001</ele><time>2026-05-02T14:23:33.084Z</time></trkpt><trkpt lat="42.12963" lon="13.3401917"><ele>935.0</ele><time>2026-05-02T14:23:34.084Z</time></trkpt><trkpt lat="42.1296967" lon="13.3400833"><ele>939.0</ele><time>2026-05-02T14:23:35.084Z</time></trkpt><trkpt lat="42.129775" lon="13.3399567"><ele>939.0</ele><time>2026-05-02T14:23:36.084Z</time></trkpt><trkpt lat="42.129845" lon="13.3398317"><ele>939.0000000000001</ele><time>2026-05-02T14:23:37.085Z</time></trkpt><trkpt lat="42.1299067" lon="13.3397017"><ele>939.0000000000001</ele><time>2026-05-02T14:23:38.084Z</time></trkpt><trkpt lat="42.1299717" lon="13.3395817"><ele>939.0</ele><time>2026-05-02T14:23:39.084Z</time></trkpt><trkpt lat="42.1300083" lon="13.339475"><ele>939.0</ele><time>2026-05-02T14:23:40.084Z</time></trkpt><trkpt lat="42.130045" lon="13.3393817"><ele>937.6666666666666</ele><time>2026-05-02T14:23:41.084Z</time></trkpt><trkpt lat="42.130125" lon="13.3392667"><ele>936.3333333333333</ele><time>2026-05-02T14:23:43.085Z</time></trkpt><trkpt lat="42.1301933" lon="13.3392333"><ele>935.0</ele><time>2026-05-02T14:23:44.085Z</time></trkpt><trkpt lat="42.13026" lon="13.3391867"><ele>933.6666666666666</ele><time>2026-05-02T14:23:45.084Z</time></trkpt><trkpt lat="42.1303317" lon="13.3391333"><ele>932.3333333333333</ele><time>2026-05-02T14:23:46.085Z</time></trkpt><trkpt lat="42.1304017" lon="13.3390917"><ele>931.0</ele><time>2026-05-02T14:23:47.084Z</time></trkpt><trkpt lat="42.1304683" lon="13.3390667"><ele>930.9999999999999</ele><time>2026-05-02T14:23:48.085Z</time></trkpt><trkpt lat="42.1305517" lon="13.3390533"><ele>931.0</ele><time>2026-05-02T14:23:49.084Z</time></trkpt><trkpt lat="42.1306317" lon="13.3390517"><ele>931.0</ele><time>2026-05-02T14:23:50.084Z</time></trkpt><trkpt lat="42.130705" lon="13.33903"><ele>931.0</ele><time>2026-05-02T14:23:51.084Z</time></trkpt><trkpt lat="42.13077" lon="13.3390167"><ele>930.9999999999999</ele><time>2026-05-02T14:23:52.084Z</time></trkpt><trkpt lat="42.1308783" lon="13.33899"><ele>931.0</ele><time>2026-05-02T14:23:54.085Z</time></trkpt><trkpt lat="42.130975" lon="13.338975"><ele>932.1666666666666</ele><time>2026-05-02T14:23:56.085Z</time></trkpt><trkpt lat="42.1310817" lon="13.3389383"><ele>933.3333333333333</ele><time>2026-05-02T14:23:58.084Z</time></trkpt><trkpt lat="42.1311933" lon="13.3388933"><ele>934.5</ele><time>2026-05-02T14:24:00.084Z</time></trkpt><trkpt lat="42.1312533" lon="13.3388633"><ele>935.6666666666667</ele><time>2026-05-02T14:24:01.085Z</time></trkpt><trkpt lat="42.131315" lon="13.3388333"><ele>936.8333333333334</ele><time>2026-05-02T14:24:02.084Z</time></trkpt><trkpt lat="42.13138" lon="13.338815"><ele>938.0</ele><time>2026-05-02T14:24:03.084Z</time></trkpt><trkpt lat="42.131455" lon="13.338795"><ele>941.8</ele><time>2026-05-02T14:24:04.085Z</time></trkpt><trkpt lat="42.13153" lon="13.338775"><ele>945.5999999999999</ele><time>2026-05-02T14:24:05.085Z</time></trkpt><trkpt lat="42.13162" lon="13.338745"><ele>949.4000000000001</ele><time>2026-05-02T14:24:06.085Z</time></trkpt><trkpt lat="42.131715" lon="13.3387"><ele>953.2</ele><time>2026-05-02T14:24:07.084Z</time></trkpt><trkpt lat="42.1318133" lon="13.3386433"><ele>957.0</ele><time>2026-05-02T14:24:08.085Z</time></trkpt><trkpt lat="42.1319133" lon="13.3385767"><ele>957.0</ele><time>2026-05-02T14:24:09.085Z</time></trkpt><trkpt lat="42.13202" lon="13.3385017"><ele>957.0</ele><time>2026-05-02T14:24:10.085Z</time></trkpt><trkpt lat="42.1321233" lon="13.3384233"><ele>957.0</ele><time>2026-05-02T14:24:11.084Z</time></trkpt><trkpt lat="42.13222" lon="13.3383533"><ele>957.0</ele><time>2026-05-02T14:24:12.085Z</time></trkpt><trkpt lat="42.1323133" lon="13.3382983"><ele>955.8</ele><time>2026-05-02T14:24:13.085Z</time></trkpt><trkpt lat="42.1324267" lon="13.3382617"><ele>954.6</ele><time>2026-05-02T14:24:14.084Z</time></trkpt><trkpt lat="42.1325317" lon="13.33823"><ele>953.3999999999999</ele><time>2026-05-02T14:24:15.084Z</time></trkpt><trkpt lat="42.13263" lon="13.3382"><ele>952.1999999999999</ele><time>2026-05-02T14:24:16.085Z</time></trkpt><trkpt lat="42.1327317" lon="13.3381367"><ele>951.0</ele><time>2026-05-02T14:24:17.084Z</time></trkpt><trkpt lat="42.1328317" lon="13.3380883"><ele>955.1999999999999</ele><time>2026-05-02T14:24:18.084Z</time></trkpt><trkpt lat="42.1329333" lon="13.3380483"><ele>959.3999999999999</ele><time>2026-05-02T14:24:19.084Z</time></trkpt><trkpt lat="42.1330383" lon="13.3380167"><ele>963.6</ele><time>2026-05-02T14:24:20.085Z</time></trkpt><trkpt lat="42.13313" lon="13.3379967"><ele>967.8</ele><time>2026-05-02T14:24:21.085Z</time></trkpt><trkpt lat="42.1332033" lon="13.3379967"><ele>972.0</ele><time>2026-05-02T14:24:22.084Z</time></trkpt><trkpt lat="42.1333167" lon="13.337995"><ele>973.5</ele><time>2026-05-02T14:24:24.084Z</time></trkpt><trkpt lat="42.133425" lon="13.33799"><ele>975.0</ele><time>2026-05-02T14:24:26.085Z</time></trkpt><trkpt lat="42.1334917" lon="13.338005"><ele>976.5</ele><time>2026-05-02T14:24:28.085Z</time></trkpt><trkpt lat="42.1335683" lon="13.3380033"><ele>978.0</ele><time>2026-05-02T14:24:32.085Z</time></trkpt><trkpt lat="42.133665" lon="13.3380133"><ele>979.5</ele><time>2026-05-02T14:24:35.085Z</time></trkpt><trkpt lat="42.1337333" lon="13.3380233"><ele>981.0</ele><time>2026-05-02T14:24:36.084Z</time></trkpt><trkpt lat="42.1338117" lon="13.3380317"><ele>981.0</ele><time>2026-05-02T14:24:37.084Z</time></trkpt><trkpt lat="42.1338929" lon="13.3380475"><ele>980.9999999999999</ele><time>2026-05-02T14:24:38.085Z</time></trkpt><trkpt lat="42.1339608" lon="13.3380593"><ele>980.9999999999999</ele><time>2026-05-02T14:24:39.084Z</time></trkpt><trkpt lat="42.1340868" lon="13.3380687"><ele>981.0</ele><time>2026-05-02T14:24:41.084Z</time></trkpt><trkpt lat="42.1341683" lon="13.3380529"><ele>981.0</ele><time>2026-05-02T14:24:42.084Z</time></trkpt><trkpt lat="42.1342643" lon="13.3380198"><ele>981.1999999999999</ele><time>2026-05-02T14:24:43.084Z</time></trkpt><trkpt lat="42.1343635" lon="13.3379738"><ele>981.3999999999999</ele><time>2026-05-02T14:24:44.084Z</time></trkpt><trkpt lat="42.1344472" lon="13.3379284"><ele>981.6</ele><time>2026-05-02T14:24:45.085Z</time></trkpt><trkpt lat="42.1345087" lon="13.3378898"><ele>981.8</ele><time>2026-05-02T14:24:46.085Z</time></trkpt><trkpt lat="42.1346106" lon="13.3377883"><ele>982.0</ele><time>2026-05-02T14:24:48.085Z</time></trkpt><trkpt lat="42.1346684" lon="13.3377093"><ele>982.0</ele><time>2026-05-02T14:24:49.085Z</time></trkpt><trkpt lat="42.1347439" lon="13.3376215"><ele>982.0</ele><time>2026-05-02T14:24:50.084Z</time></trkpt><trkpt lat="42.1348271" lon="13.3375219"><ele>982.0</ele><time>2026-05-02T14:24:51.085Z</time></trkpt><trkpt lat="42.1349183" lon="13.3374131"><ele>982.0</ele><time>2026-05-02T14:24:52.084Z</time></trkpt><trkpt lat="42.1350142" lon="13.3373039"><ele>986.25</ele><time>2026-05-02T14:24:53.084Z</time></trkpt><trkpt lat="42.1351123" lon="13.3371842"><ele>990.5</ele><time>2026-05-02T14:24:54.084Z</time></trkpt><trkpt lat="42.1352069" lon="13.3370664"><ele>994.75</ele><time>2026-05-02T14:24:55.084Z</time></trkpt><trkpt lat="42.1353076" lon="13.3369527"><ele>999.0</ele><time>2026-05-02T14:24:56.084Z</time></trkpt><trkpt lat="42.1354107" lon="13.3368371"><ele>999.0</ele><time>2026-05-02T14:24:57.084Z</time></trkpt><trkpt lat="42.135508" lon="13.3367319"><ele>999.0000000000001</ele><time>2026-05-02T14:24:58.084Z</time></trkpt><trkpt lat="42.1355901" lon="13.33665"><ele>999.0000000000001</ele><time>2026-05-02T14:24:59.085Z</time></trkpt><trkpt lat="42.1356528" lon="13.3365938"><ele>999.0</ele><time>2026-05-02T14:25:00.085Z</time></trkpt><trkpt lat="42.1357412" lon="13.3365239"><ele>999.0</ele><time>2026-05-02T14:25:02.085Z</time></trkpt><trkpt lat="42.1358296" lon="13.3364268"><ele>1001.5</ele><time>2026-05-02T14:25:04.085Z</time></trkpt><trkpt lat="42.1358822" lon="13.3363641"><ele>1004.0</ele><time>2026-05-02T14:25:05.084Z</time></trkpt><trkpt lat="42.1359321" lon="13.3362953"><ele>1006.5</ele><time>2026-05-02T14:25:06.085Z</time></trkpt><trkpt lat="42.1359866" lon="13.3362165"><ele>1009.0</ele><time>2026-05-02T14:25:07.084Z</time></trkpt><trkpt lat="42.1360376" lon="13.3361362"><ele>1011.5</ele><time>2026-05-02T14:25:08.084Z</time></trkpt><trkpt lat="42.1360886" lon="13.3360548"><ele>1014.0</ele><time>2026-05-02T14:25:09.084Z</time></trkpt><trkpt lat="42.1361325" lon="13.335975"><ele>1014.0</ele><time>2026-05-02T14:25:10.085Z</time></trkpt><trkpt lat="42.1361718" lon="13.3359063"><ele>1014.0</ele><time>2026-05-02T14:25:11.085Z</time></trkpt><trkpt lat="42.1362186" lon="13.335842"><ele>1014.0</ele><time>2026-05-02T14:25:12.084Z</time></trkpt><trkpt lat="42.136268" lon="13.3357699"><ele>1014.0</ele><time>2026-05-02T14:25:13.084Z</time></trkpt><trkpt lat="42.1363202" lon="13.3356939"><ele>1014.0</ele><time>2026-05-02T14:25:14.084Z</time></trkpt><trkpt lat="42.1363642" lon="13.3356184"><ele>1014.0</ele><time>2026-05-02T14:25:15.084Z</time></trkpt><trkpt lat="42.1364117" lon="13.3354983"><ele>1018.6</ele><time>2026-05-02T14:25:17.085Z</time></trkpt><trkpt lat="42.1364067" lon="13.3353283"><ele>1023.2</ele><time>2026-05-02T14:25:19.084Z</time></trkpt><trkpt lat="42.136395" lon="13.3352117"><ele>1027.8000000000002</ele><time>2026-05-02T14:25:20.085Z</time></trkpt><trkpt lat="42.136395" lon="13.3350917"><ele>1032.4</ele><time>2026-05-02T14:25:21.085Z</time></trkpt><trkpt lat="42.1363983" lon="13.33497"><ele>1037.0</ele><time>2026-05-02T14:25:22.085Z</time></trkpt><trkpt lat="42.1364" lon="13.3348667"><ele>1037.0</ele><time>2026-05-02T14:25:23.084Z</time></trkpt><trkpt lat="42.136395" lon="13.33477"><ele>1037.0</ele><time>2026-05-02T14:25:24.085Z</time></trkpt><trkpt lat="42.136345" lon="13.3346133"><ele>1037.0</ele><time>2026-05-02T14:25:26.084Z</time></trkpt><trkpt lat="42.1363517" lon="13.33447"><ele>1037.0</ele><time>2026-05-02T14:25:28.085Z</time></trkpt><trkpt lat="42.1363883" lon="13.334395"><ele>1037.0</ele><time>2026-05-02T14:25:30.084Z</time></trkpt><trkpt lat="42.13643" lon="13.33432"><ele>1037.0</ele><time>2026-05-02T14:25:32.085Z</time></trkpt><trkpt lat="42.1364767" lon="13.3342583"><ele>1040.5</ele><time>2026-05-02T14:25:34.085Z</time></trkpt><trkpt lat="42.1365483" lon="13.3342283"><ele>1044.0</ele><time>2026-05-02T14:25:39.084Z</time></trkpt><trkpt lat="42.1364883" lon="13.3341133"><ele>1047.5</ele><time>2026-05-02T14:26:14.085Z</time></trkpt><trkpt lat="42.13639" lon="13.3340683"><ele>1051.0</ele><time>2026-05-02T14:26:16.085Z</time></trkpt><trkpt lat="42.136325" lon="13.33404"><ele>1054.5</ele><time>2026-05-02T14:26:18.085Z</time></trkpt><trkpt lat="42.1362417" lon="13.334095"><ele>1058.0</ele><time>2026-05-02T14:26:23.085Z</time></trkpt><trkpt lat="42.1361367" lon="13.3341517"><ele>1058.0</ele><time>2026-05-02T14:26:25.085Z</time></trkpt><trkpt lat="42.13604" lon="13.3342317"><ele>1058.0</ele><time>2026-05-02T14:26:27.085Z</time></trkpt><trkpt lat="42.1359683" lon="13.3343183"><ele>1058.0</ele><time>2026-05-02T14:26:29.084Z</time></trkpt><trkpt lat="42.135905" lon="13.334415"><ele>1058.0</ele><time>2026-05-02T14:26:31.084Z</time></trkpt><trkpt lat="42.135835" lon="13.3344967"><ele>1058.0</ele><time>2026-05-02T14:26:33.084Z</time></trkpt><trkpt lat="42.135915" lon="13.3344117"><ele>1058.0</ele><time>2026-05-02T14:26:50.085Z</time></trkpt><trkpt lat="42.136005" lon="13.3342917"><ele>1058.0</ele><time>2026-05-02T14:26:52.085Z</time></trkpt><trkpt lat="42.1360533" lon="13.33423"><ele>1058.0</ele><time>2026-05-02T14:26:53.085Z</time></trkpt><trkpt lat="42.1361033" lon="13.3341783"><ele>1058.0</ele><time>2026-05-02T14:26:54.085Z</time></trkpt><trkpt lat="42.1361983" lon="13.3341167"><ele>1058.0</ele><time>2026-05-02T14:26:56.085Z</time></trkpt><trkpt lat="42.136265" lon="13.3340517"><ele>1058.0</ele><time>2026-05-02T14:26:59.084Z</time></trkpt><trkpt lat="42.13628" lon="13.33393"><ele>1061.6666666666667</ele><time>2026-05-02T14:27:01.085Z</time></trkpt><trkpt lat="42.1362833" lon="13.333845"><ele>1065.3333333333335</ele><time>2026-05-02T14:27:02.084Z</time></trkpt><trkpt lat="42.1362883" lon="13.3337483"><ele>1069.0</ele><time>2026-05-02T14:27:03.084Z</time></trkpt><trkpt lat="42.1363133" lon="13.3336233"><ele>1072.6666666666667</ele><time>2026-05-02T14:27:05.085Z</time></trkpt><trkpt lat="42.1363183" lon="13.333515"><ele>1076.3333333333333</ele><time>2026-05-02T14:27:09.085Z</time></trkpt><trkpt lat="42.1363533" lon="13.3334167"><ele>1080.0</ele><time>2026-05-02T14:27:11.085Z</time></trkpt><trkpt lat="42.1363883" lon="13.3332917"><ele>1080.0</ele><time>2026-05-02T14:27:13.084Z</time></trkpt><trkpt lat="42.1364033" lon="13.3331567"><ele>1080.0</ele><time>2026-05-02T14:27:15.085Z</time></trkpt><trkpt lat="42.1364017" lon="13.33301"><ele>1080.0</ele><time>2026-05-02T14:27:17.084Z</time></trkpt><trkpt lat="42.1364033" lon="13.3328833"><ele>1080.0</ele><time>2026-05-02T14:27:19.085Z</time></trkpt><trkpt lat="42.1363933" lon="13.3327267"><ele>1080.0</ele><time>2026-05-02T14:27:21.084Z</time></trkpt><trkpt lat="42.13639" lon="13.33264"><ele>1082.8333333333333</ele><time>2026-05-02T14:27:22.084Z</time></trkpt><trkpt lat="42.1363867" lon="13.3324767"><ele>1085.6666666666667</ele><time>2026-05-02T14:27:24.084Z</time></trkpt><trkpt lat="42.1363783" lon="13.3323883"><ele>1088.5</ele><time>2026-05-02T14:27:25.085Z</time></trkpt><trkpt lat="42.1363717" lon="13.332295"><ele>1091.3333333333335</ele><time>2026-05-02T14:27:26.084Z</time></trkpt><trkpt lat="42.1363783" lon="13.33219"><ele>1094.1666666666667</ele><time>2026-05-02T14:27:27.084Z</time></trkpt><trkpt lat="42.136395" lon="13.3320883"><ele>1097.0</ele><time>2026-05-02T14:27:28.085Z</time></trkpt><trkpt lat="42.136425" lon="13.33198"><ele>1097.3333333333335</ele><time>2026-05-02T14:27:29.084Z</time></trkpt><trkpt lat="42.1364633" lon="13.33189"><ele>1097.6666666666667</ele><time>2026-05-02T14:27:30.084Z</time></trkpt><trkpt lat="42.1365067" lon="13.331805"><ele>1098.0</ele><time>2026-05-02T14:27:31.084Z</time></trkpt><trkpt lat="42.13656" lon="13.3317133"><ele>1098.3333333333333</ele><time>2026-05-02T14:27:32.085Z</time></trkpt><trkpt lat="42.1366067" lon="13.3316317"><ele>1098.6666666666665</ele><time>2026-05-02T14:27:33.084Z</time></trkpt><trkpt lat="42.1366767" lon="13.331515"><ele>1099.0</ele><time>2026-05-02T14:27:35.085Z</time></trkpt><trkpt lat="42.136725" lon="13.3314233"><ele>1099.8333333333333</ele><time>2026-05-02T14:27:37.084Z</time></trkpt><trkpt lat="42.13668" lon="13.33135"><ele>1100.6666666666665</ele><time>2026-05-02T14:32:20.083Z</time></trkpt><trkpt lat="42.1366133" lon="13.3313583"><ele>1101.5</ele><time>2026-05-02T14:32:23.083Z</time></trkpt><trkpt lat="42.1365167" lon="13.33136"><ele>1102.3333333333333</ele><time>2026-05-02T14:32:25.083Z</time></trkpt><trkpt lat="42.1364217" lon="13.33134"><ele>1103.1666666666667</ele><time>2026-05-02T14:32:28.083Z</time></trkpt><trkpt lat="42.1363283" lon="13.33133"><ele>1104.0</ele><time>2026-05-02T14:32:30.084Z</time></trkpt><trkpt lat="42.1362" lon="13.331325"><ele>1104.3333333333333</ele><time>2026-05-02T14:32:32.083Z</time></trkpt><trkpt lat="42.1361233" lon="13.331335"><ele>1104.6666666666667</ele><time>2026-05-02T14:32:33.083Z</time></trkpt><trkpt lat="42.13605" lon="13.33134"><ele>1105.0</ele><time>2026-05-02T14:32:34.083Z</time></trkpt><trkpt lat="42.1359733" lon="13.3313517"><ele>1105.3333333333335</ele><time>2026-05-02T14:32:35.083Z</time></trkpt><trkpt lat="42.135895" lon="13.33137"><ele>1105.6666666666667</ele><time>2026-05-02T14:32:36.083Z</time></trkpt><trkpt lat="42.1357983" lon="13.3313883"><ele>1106.0</ele><time>2026-05-02T14:32:37.083Z</time></trkpt><trkpt lat="42.1357083" lon="13.3313933"><ele>1106.0</ele><time>2026-05-02T14:32:38.083Z</time></trkpt><trkpt lat="42.13562" lon="13.33138"><ele>1106.0</ele><time>2026-05-02T14:32:39.084Z</time></trkpt><trkpt lat="42.135545" lon="13.33138"><ele>1106.0</ele><time>2026-05-02T14:32:40.084Z</time></trkpt><trkpt lat="42.1354833" lon="13.3314033"><ele>1106.0</ele><time>2026-05-02T14:32:41.083Z</time></trkpt><trkpt lat="42.135375" lon="13.3314917"><ele>1106.0</ele><time>2026-05-02T14:32:43.084Z</time></trkpt><trkpt lat="42.1353133" lon="13.3315417"><ele>1106.0</ele><time>2026-05-02T14:32:44.084Z</time></trkpt><trkpt lat="42.1351917" lon="13.3316133"><ele>1106.0</ele><time>2026-05-02T14:32:46.084Z</time></trkpt><trkpt lat="42.1351267" lon="13.3316367"><ele>1106.0</ele><time>2026-05-02T14:32:47.083Z</time></trkpt><trkpt lat="42.135055" lon="13.3316583"><ele>1106.0</ele><time>2026-05-02T14:32:48.084Z</time></trkpt><trkpt lat="42.1349833" lon="13.3316817"><ele>1106.0</ele><time>2026-05-02T14:32:49.083Z</time></trkpt><trkpt lat="42.13487" lon="13.331745"><ele>1106.0</ele><time>2026-05-02T14:32:51.084Z</time></trkpt><trkpt lat="42.1347583" lon="13.3318383"><ele>1105.0</ele><time>2026-05-02T14:32:53.084Z</time></trkpt><trkpt lat="42.1346833" lon="13.3319"><ele>1104.0</ele><time>2026-05-02T14:32:54.083Z</time></trkpt><trkpt lat="42.13459" lon="13.3319583"><ele>1103.0</ele><time>2026-05-02T14:32:55.083Z</time></trkpt><trkpt lat="42.1344983" lon="13.33201"><ele>1102.0</ele><time>2026-05-02T14:32:56.084Z</time></trkpt><trkpt lat="42.1344" lon="13.3320383"><ele>1101.0</ele><time>2026-05-02T14:32:57.083Z</time></trkpt><trkpt lat="42.134285" lon="13.33206"><ele>1101.0</ele><time>2026-05-02T14:32:58.084Z</time></trkpt><trkpt lat="42.1341633" lon="13.3320667"><ele>1101.0</ele><time>2026-05-02T14:32:59.083Z</time></trkpt><trkpt lat="42.134055" lon="13.3320733"><ele>1101.0</ele><time>2026-05-02T14:33:00.084Z</time></trkpt><trkpt lat="42.1339617" lon="13.3320717"><ele>1101.0</ele><time>2026-05-02T14:33:01.084Z</time></trkpt><trkpt lat="42.1338683" lon="13.3320767"><ele>1101.0</ele><time>2026-05-02T14:33:02.083Z</time></trkpt><trkpt lat="42.1337717" lon="13.33206"><ele>1100.3333333333333</ele><time>2026-05-02T14:33:03.084Z</time></trkpt><trkpt lat="42.1336683" lon="13.3320233"><ele>1099.6666666666667</ele><time>2026-05-02T14:33:04.084Z</time></trkpt><trkpt lat="42.1335783" lon="13.3319783"><ele>1099.0</ele><time>2026-05-02T14:33:05.084Z</time></trkpt><trkpt lat="42.13351" lon="13.331935"><ele>1098.3333333333335</ele><time>2026-05-02T14:33:06.083Z</time></trkpt><trkpt lat="42.133445" lon="13.3318883"><ele>1097.6666666666667</ele><time>2026-05-02T14:33:07.083Z</time></trkpt><trkpt lat="42.1333967" lon="13.3318283"><ele>1097.0</ele><time>2026-05-02T14:33:08.083Z</time></trkpt><trkpt lat="42.133355" lon="13.3317467"><ele>1097.0</ele><time>2026-05-02T14:33:09.083Z</time></trkpt><trkpt lat="42.1333317" lon="13.331655"><ele>1097.0</ele><time>2026-05-02T14:33:10.084Z</time></trkpt><trkpt lat="42.1332933" lon="13.33154"><ele>1097.0</ele><time>2026-05-02T14:33:11.083Z</time></trkpt><trkpt lat="42.1332517" lon="13.3314333"><ele>1097.0</ele><time>2026-05-02T14:33:12.084Z</time></trkpt><trkpt lat="42.1332067" lon="13.3313383"><ele>1097.0</ele><time>2026-05-02T14:33:13.084Z</time></trkpt><trkpt lat="42.133145" lon="13.331245"><ele>1097.0</ele><time>2026-05-02T14:33:14.083Z</time></trkpt><trkpt lat="42.1330733" lon="13.3311533"><ele>1093.25</ele><time>2026-05-02T14:33:15.083Z</time></trkpt><trkpt lat="42.1329817" lon="13.3310667"><ele>1089.5</ele><time>2026-05-02T14:33:16.084Z</time></trkpt><trkpt lat="42.1328867" lon="13.3309817"><ele>1085.75</ele><time>2026-05-02T14:33:17.083Z</time></trkpt><trkpt lat="42.13278" lon="13.3309017"><ele>1082.0</ele><time>2026-05-02T14:33:18.083Z</time></trkpt><trkpt lat="42.1326633" lon="13.33081"><ele>1082.0</ele><time>2026-05-02T14:33:19.084Z</time></trkpt><trkpt lat="42.1325367" lon="13.3307067"><ele>1082.0</ele><time>2026-05-02T14:33:20.084Z</time></trkpt><trkpt lat="42.1324133" lon="13.3306117"><ele>1082.0</ele><time>2026-05-02T14:33:21.084Z</time></trkpt><trkpt lat="42.132295" lon="13.3305117"><ele>1082.0</ele><time>2026-05-02T14:33:22.083Z</time></trkpt><trkpt lat="42.1321783" lon="13.33042"><ele>1078.5</ele><time>2026-05-02T14:33:23.084Z</time></trkpt><trkpt lat="42.1320567" lon="13.3303367"><ele>1075.0</ele><time>2026-05-02T14:33:24.083Z</time></trkpt><trkpt lat="42.1319333" lon="13.3302567"><ele>1071.5</ele><time>2026-05-02T14:33:25.083Z</time></trkpt><trkpt lat="42.1318067" lon="13.3301967"><ele>1068.0</ele><time>2026-05-02T14:33:26.083Z</time></trkpt><trkpt lat="42.1316883" lon="13.3301467"><ele>1068.0</ele><time>2026-05-02T14:33:27.083Z</time></trkpt><trkpt lat="42.131585" lon="13.3300967"><ele>1068.0</ele><time>2026-05-02T14:33:28.083Z</time></trkpt><trkpt lat="42.131505" lon="13.3300433"><ele>1068.0</ele><time>2026-05-02T14:33:29.084Z</time></trkpt><trkpt lat="42.1314383" lon="13.329965"><ele>1068.0</ele><time>2026-05-02T14:33:30.083Z</time></trkpt><trkpt lat="42.1313817" lon="13.329865"><ele>1068.0</ele><time>2026-05-02T14:33:31.083Z</time></trkpt><trkpt lat="42.1313367" lon="13.3297617"><ele>1067.0</ele><time>2026-05-02T14:33:32.084Z</time></trkpt><trkpt lat="42.1312867" lon="13.3296733"><ele>1066.0</ele><time>2026-05-02T14:33:33.083Z</time></trkpt><trkpt lat="42.1312267" lon="13.3296233"><ele>1065.0</ele><time>2026-05-02T14:33:34.084Z</time></trkpt><trkpt lat="42.1311517" lon="13.32958"><ele>1064.0</ele><time>2026-05-02T14:33:35.083Z</time></trkpt><trkpt lat="42.1310617" lon="13.32955"><ele>1063.0</ele><time>2026-05-02T14:33:36.083Z</time></trkpt><trkpt lat="42.1309633" lon="13.3295167"><ele>1062.0</ele><time>2026-05-02T14:33:37.083Z</time></trkpt><trkpt lat="42.1308767" lon="13.3294717"><ele>1062.0</ele><time>2026-05-02T14:33:38.083Z</time></trkpt><trkpt lat="42.1308117" lon="13.329425"><ele>1062.0</ele><time>2026-05-02T14:33:39.084Z</time></trkpt><trkpt lat="42.130755" lon="13.329365"><ele>1062.0</ele><time>2026-05-02T14:33:40.084Z</time></trkpt><trkpt lat="42.1307117" lon="13.329295"><ele>1062.0</ele><time>2026-05-02T14:33:41.084Z</time></trkpt><trkpt lat="42.1306817" lon="13.3292"><ele>1062.0</ele><time>2026-05-02T14:33:42.084Z</time></trkpt><trkpt lat="42.1306667" lon="13.3290983"><ele>1062.0</ele><time>2026-05-02T14:33:43.084Z</time></trkpt><trkpt lat="42.1306633" lon="13.3289867"><ele>1062.0</ele><time>2026-05-02T14:33:44.083Z</time></trkpt><trkpt lat="42.1306667" lon="13.32887"><ele>1062.0</ele><time>2026-05-02T14:33:45.084Z</time></trkpt><trkpt lat="42.1306667" lon="13.3287667"><ele>1062.0</ele><time>2026-05-02T14:33:46.083Z</time></trkpt><trkpt lat="42.130665" lon="13.328655"><ele>1062.0</ele><time>2026-05-02T14:33:47.083Z</time></trkpt><trkpt lat="42.1306633" lon="13.3285317"><ele>1062.0</ele><time>2026-05-02T14:33:48.083Z</time></trkpt><trkpt lat="42.1306667" lon="13.32841"><ele>1062.0</ele><time>2026-05-02T14:33:49.083Z</time></trkpt><trkpt lat="42.13068" lon="13.3283"><ele>1062.0</ele><time>2026-05-02T14:33:50.083Z</time></trkpt><trkpt lat="42.1307017" lon="13.3282083"><ele>1062.0</ele><time>2026-05-02T14:33:51.084Z</time></trkpt><trkpt lat="42.130705" lon="13.3280683"><ele>1062.0</ele><time>2026-05-02T14:33:53.084Z</time></trkpt><trkpt lat="42.13065" lon="13.328005"><ele>1062.0</ele><time>2026-05-02T14:33:55.083Z</time></trkpt><trkpt lat="42.1305383" lon="13.32804"><ele>1062.0</ele><time>2026-05-02T14:33:57.084Z</time></trkpt><trkpt lat="42.1304767" lon="13.3280783"><ele>1062.0</ele><time>2026-05-02T14:33:58.084Z</time></trkpt><trkpt lat="42.1303783" lon="13.3281533"><ele>1062.0</ele><time>2026-05-02T14:34:00.083Z</time></trkpt><trkpt lat="42.130315" lon="13.328195"><ele>1062.0</ele><time>2026-05-02T14:34:01.084Z</time></trkpt><trkpt lat="42.13022" lon="13.3282417"><ele>1062.0</ele><time>2026-05-02T14:34:03.083Z</time></trkpt><trkpt lat="42.130205" lon="13.3281233"><ele>1062.0</ele><time>2026-05-02T14:34:06.082Z</time></trkpt><trkpt lat="42.130235" lon="13.3280433"><ele>1062.0</ele><time>2026-05-02T14:34:07.082Z</time></trkpt><trkpt lat="42.1302833" lon="13.3279383"><ele>1062.0</ele><time>2026-05-02T14:34:08.083Z</time></trkpt><trkpt lat="42.1303383" lon="13.3278233"><ele>1062.5</ele><time>2026-05-02T14:34:09.083Z</time></trkpt><trkpt lat="42.1303867" lon="13.3276967"><ele>1063.0</ele><time>2026-05-02T14:34:10.083Z</time></trkpt><trkpt lat="42.1304133" lon="13.3275417"><ele>1063.5</ele><time>2026-05-02T14:34:11.082Z</time></trkpt><trkpt lat="42.1304233" lon="13.3273817"><ele>1064.0</ele><time>2026-05-02T14:34:12.083Z</time></trkpt><trkpt lat="42.1304233" lon="13.32721"><ele>1065.5</ele><time>2026-05-02T14:34:13.083Z</time></trkpt><trkpt lat="42.1304317" lon="13.32703"><ele>1067.0</ele><time>2026-05-02T14:34:14.082Z</time></trkpt><trkpt lat="42.130465" lon="13.3268533"><ele>1068.5</ele><time>2026-05-02T14:34:15.083Z</time></trkpt><trkpt lat="42.1305033" lon="13.3266767"><ele>1070.0</ele><time>2026-05-02T14:34:16.082Z</time></trkpt><trkpt lat="42.13053" lon="13.3265"><ele>1072.25</ele><time>2026-05-02T14:34:17.083Z</time></trkpt><trkpt lat="42.1305517" lon="13.3263033"><ele>1074.5</ele><time>2026-05-02T14:34:18.082Z</time></trkpt><trkpt lat="42.1305633" lon="13.3261083"><ele>1076.75</ele><time>2026-05-02T14:34:19.082Z</time></trkpt><trkpt lat="42.13057" lon="13.3259333"><ele>1079.0</ele><time>2026-05-02T14:34:20.082Z</time></trkpt><trkpt lat="42.1305717" lon="13.3257583"><ele>1079.0</ele><time>2026-05-02T14:34:21.083Z</time></trkpt><trkpt lat="42.13057" lon="13.3255933"><ele>1079.0</ele><time>2026-05-02T14:34:22.082Z</time></trkpt><trkpt lat="42.13058" lon="13.3254483"><ele>1079.0</ele><time>2026-05-02T14:34:23.082Z</time></trkpt><trkpt lat="42.1306067" lon="13.32533"><ele>1079.0</ele><time>2026-05-02T14:34:24.082Z</time></trkpt><trkpt lat="42.13061" lon="13.3251617"><ele>1079.0</ele><time>2026-05-02T14:34:26.082Z</time></trkpt><trkpt lat="42.130585" lon="13.32507"><ele>1079.8333333333335</ele><time>2026-05-02T14:34:27.082Z</time></trkpt><trkpt lat="42.1305533" lon="13.32496"><ele>1080.6666666666667</ele><time>2026-05-02T14:34:28.082Z</time></trkpt><trkpt lat="42.1305317" lon="13.3248367"><ele>1081.5</ele><time>2026-05-02T14:34:29.082Z</time></trkpt><trkpt lat="42.13053" lon="13.3247217"><ele>1082.3333333333333</ele><time>2026-05-02T14:34:30.083Z</time></trkpt><trkpt lat="42.130545" lon="13.3246"><ele>1083.1666666666665</ele><time>2026-05-02T14:34:31.082Z</time></trkpt><trkpt lat="42.1305833" lon="13.3245017"><ele>1084.0</ele><time>2026-05-02T14:34:32.083Z</time></trkpt><trkpt lat="42.1306333" lon="13.3244117"><ele>1084.0</ele><time>2026-05-02T14:34:33.083Z</time></trkpt><trkpt lat="42.1306867" lon="13.324345"><ele>1084.0</ele><time>2026-05-02T14:34:34.083Z</time></trkpt><trkpt lat="42.1307383" lon="13.3242217"><ele>1084.0</ele><time>2026-05-02T14:34:36.083Z</time></trkpt><trkpt lat="42.13074" lon="13.3241217"><ele>1084.0</ele><time>2026-05-02T14:34:37.082Z</time></trkpt><trkpt lat="42.13073" lon="13.3239967"><ele>1084.0</ele><time>2026-05-02T14:34:38.083Z</time></trkpt><trkpt lat="42.13072" lon="13.32386"><ele>1084.0</ele><time>2026-05-02T14:34:39.082Z</time></trkpt><trkpt lat="42.1307183" lon="13.3237117"><ele>1082.25</ele><time>2026-05-02T14:34:40.082Z</time></trkpt><trkpt lat="42.1307317" lon="13.32355"><ele>1080.5</ele><time>2026-05-02T14:34:41.083Z</time></trkpt><trkpt lat="42.1307617" lon="13.323375"><ele>1078.75</ele><time>2026-05-02T14:34:42.082Z</time></trkpt><trkpt lat="42.1307983" lon="13.3231867"><ele>1077.0</ele><time>2026-05-02T14:34:43.082Z</time></trkpt><trkpt lat="42.1308333" lon="13.32299"><ele>1077.0</ele><time>2026-05-02T14:34:44.083Z</time></trkpt><trkpt lat="42.1308767" lon="13.3228033"><ele>1077.0</ele><time>2026-05-02T14:34:45.082Z</time></trkpt><trkpt lat="42.1309133" lon="13.3226317"><ele>1077.0</ele><time>2026-05-02T14:34:46.082Z</time></trkpt><trkpt lat="42.1309533" lon="13.322475"><ele>1077.0</ele><time>2026-05-02T14:34:47.082Z</time></trkpt><trkpt lat="42.1309767" lon="13.3223233"><ele>1077.0</ele><time>2026-05-02T14:34:48.083Z</time></trkpt><trkpt lat="42.1309767" lon="13.322165"><ele>1077.0</ele><time>2026-05-02T14:34:49.082Z</time></trkpt><trkpt lat="42.1309633" lon="13.3219933"><ele>1077.0</ele><time>2026-05-02T14:34:50.082Z</time></trkpt><trkpt lat="42.1309383" lon="13.321805"><ele>1077.0</ele><time>2026-05-02T14:34:51.082Z</time></trkpt><trkpt lat="42.1309233" lon="13.3215817"><ele>1075.6666666666667</ele><time>2026-05-02T14:34:52.082Z</time></trkpt><trkpt lat="42.1309083" lon="13.3213567"><ele>1074.3333333333335</ele><time>2026-05-02T14:34:53.083Z</time></trkpt><trkpt lat="42.1309017" lon="13.321135"><ele>1073.0</ele><time>2026-05-02T14:34:54.082Z</time></trkpt><trkpt lat="42.1308833" lon="13.3209117"><ele>1073.0</ele><time>2026-05-02T14:34:55.082Z</time></trkpt><trkpt lat="42.1308633" lon="13.3207183"><ele>1073.0</ele><time>2026-05-02T14:34:56.082Z</time></trkpt><trkpt lat="42.1308517" lon="13.3205517"><ele>1073.0</ele><time>2026-05-02T14:34:57.083Z</time></trkpt><trkpt lat="42.13085" lon="13.32041"><ele>1073.0</ele><time>2026-05-02T14:34:58.083Z</time></trkpt><trkpt lat="42.1308683" lon="13.3202967"><ele>1073.3333333333335</ele><time>2026-05-02T14:34:59.083Z</time></trkpt><trkpt lat="42.1309067" lon="13.320215"><ele>1073.6666666666667</ele><time>2026-05-02T14:35:00.083Z</time></trkpt><trkpt lat="42.1309483" lon="13.32015"><ele>1074.0</ele><time>2026-05-02T14:35:01.083Z</time></trkpt><trkpt lat="42.1309817" lon="13.3200467"><ele>1074.3333333333333</ele><time>2026-05-02T14:35:03.082Z</time></trkpt><trkpt lat="42.1309517" lon="13.31995"><ele>1074.6666666666665</ele><time>2026-05-02T14:35:05.083Z</time></trkpt><trkpt lat="42.1309483" lon="13.3198133"><ele>1075.0</ele><time>2026-05-02T14:35:07.082Z</time></trkpt><trkpt lat="42.1309617" lon="13.31972"><ele>1075.2857142857144</ele><time>2026-05-02T14:35:08.082Z</time></trkpt><trkpt lat="42.1309867" lon="13.3196233"><ele>1075.5714285714287</ele><time>2026-05-02T14:35:09.082Z</time></trkpt><trkpt lat="42.13102" lon="13.3195233"><ele>1075.857142857143</ele><time>2026-05-02T14:35:10.082Z</time></trkpt><trkpt lat="42.1310533" lon="13.3194367"><ele>1076.1428571428573</ele><time>2026-05-02T14:35:11.083Z</time></trkpt><trkpt lat="42.131095" lon="13.3193667"><ele>1076.4285714285716</ele><time>2026-05-02T14:35:12.083Z</time></trkpt><trkpt lat="42.1311467" lon="13.3193"><ele>1076.7142857142858</ele><time>2026-05-02T14:35:13.082Z</time></trkpt><trkpt lat="42.1311983" lon="13.3192333"><ele>1077.0</ele><time>2026-05-02T14:35:14.082Z</time></trkpt><trkpt lat="42.1312417" lon="13.319165"><ele>1077.0</ele><time>2026-05-02T14:35:15.083Z</time></trkpt><trkpt lat="42.1312867" lon="13.3190583"><ele>1077.0</ele><time>2026-05-02T14:35:16.083Z</time></trkpt><trkpt lat="42.1313233" lon="13.3189183"><ele>1077.0</ele><time>2026-05-02T14:35:17.082Z</time></trkpt><trkpt lat="42.1313633" lon="13.3187683"><ele>1077.0</ele><time>2026-05-02T14:35:18.083Z</time></trkpt><trkpt lat="42.1314083" lon="13.318635"><ele>1077.0</ele><time>2026-05-02T14:35:19.083Z</time></trkpt><trkpt lat="42.13144" lon="13.3185183"><ele>1075.8</ele><time>2026-05-02T14:35:20.083Z</time></trkpt><trkpt lat="42.131495" lon="13.3184133"><ele>1074.6</ele><time>2026-05-02T14:35:21.082Z</time></trkpt><trkpt lat="42.1315517" lon="13.3183267"><ele>1073.3999999999999</ele><time>2026-05-02T14:35:22.083Z</time></trkpt><trkpt lat="42.1316217" lon="13.3182483"><ele>1072.2</ele><time>2026-05-02T14:35:23.082Z</time></trkpt><trkpt lat="42.1317083" lon="13.3181683"><ele>1071.0</ele><time>2026-05-02T14:35:24.082Z</time></trkpt><trkpt lat="42.1317983" lon="13.3180667"><ele>1068.5</ele><time>2026-05-02T14:35:25.083Z</time></trkpt><trkpt lat="42.1318683" lon="13.317965"><ele>1066.0</ele><time>2026-05-02T14:35:26.082Z</time></trkpt><trkpt lat="42.1319133" lon="13.31787"><ele>1063.5</ele><time>2026-05-02T14:35:27.082Z</time></trkpt><trkpt lat="42.13193" lon="13.317775"><ele>1061.0</ele><time>2026-05-02T14:35:28.083Z</time></trkpt><trkpt lat="42.1319417" lon="13.31769"><ele>1058.5</ele><time>2026-05-02T14:35:29.082Z</time></trkpt><trkpt lat="42.1319733" lon="13.317605"><ele>1056.0</ele><time>2026-05-02T14:35:30.083Z</time></trkpt><trkpt lat="42.1320133" lon="13.3175133"><ele>1056.0</ele><time>2026-05-02T14:35:31.082Z</time></trkpt><trkpt lat="42.132055" lon="13.3174133"><ele>1056.0</ele><time>2026-05-02T14:35:32.082Z</time></trkpt><trkpt lat="42.1321133" lon="13.317305"><ele>1056.0</ele><time>2026-05-02T14:35:33.082Z</time></trkpt><trkpt lat="42.132185" lon="13.31719"><ele>1056.0</ele><time>2026-05-02T14:35:34.083Z</time></trkpt><trkpt lat="42.1322683" lon="13.31707"><ele>1056.0</ele><time>2026-05-02T14:35:35.082Z</time></trkpt><trkpt lat="42.13235" lon="13.3169617"><ele>1055.5</ele><time>2026-05-02T14:35:36.082Z</time></trkpt><trkpt lat="42.132435" lon="13.3168583"><ele>1055.0</ele><time>2026-05-02T14:35:37.083Z</time></trkpt><trkpt lat="42.1325267" lon="13.316745"><ele>1054.5</ele><time>2026-05-02T14:35:38.083Z</time></trkpt><trkpt lat="42.132615" lon="13.3166233"><ele>1054.0</ele><time>2026-05-02T14:35:39.083Z</time></trkpt><trkpt lat="42.1327017" lon="13.3165017"><ele>1053.2</ele><time>2026-05-02T14:35:40.083Z</time></trkpt><trkpt lat="42.13279" lon="13.3163717"><ele>1052.4</ele><time>2026-05-02T14:35:41.083Z</time></trkpt><trkpt lat="42.1328683" lon="13.31626"><ele>1051.6</ele><time>2026-05-02T14:35:42.083Z</time></trkpt><trkpt lat="42.132935" lon="13.3161517"><ele>1050.8</ele><time>2026-05-02T14:35:43.083Z</time></trkpt><trkpt lat="42.1329917" lon="13.3160567"><ele>1050.0</ele><time>2026-05-02T14:35:44.082Z</time></trkpt><trkpt lat="42.1330333" lon="13.315985"><ele>1050.0</ele><time>2026-05-02T14:35:45.083Z</time></trkpt><trkpt lat="42.1330633" lon="13.31591"><ele>1050.0</ele><time>2026-05-02T14:35:46.083Z</time></trkpt><trkpt lat="42.1330817" lon="13.3158283"><ele>1050.0</ele><time>2026-05-02T14:35:47.082Z</time></trkpt><trkpt lat="42.13306" lon="13.3156733"><ele>1050.0</ele><time>2026-05-02T14:35:49.082Z</time></trkpt><trkpt lat="42.13303" lon="13.3155933"><ele>1050.0</ele><time>2026-05-02T14:35:50.082Z</time></trkpt><trkpt lat="42.1328967" lon="13.3154967"><ele>1049.6</ele><time>2026-05-02T14:35:52.082Z</time></trkpt><trkpt lat="42.1327983" lon="13.3154417"><ele>1049.2</ele><time>2026-05-02T14:35:53.083Z</time></trkpt><trkpt lat="42.1327133" lon="13.315365"><ele>1048.8</ele><time>2026-05-02T14:35:54.083Z</time></trkpt><trkpt lat="42.1326367" lon="13.3152483"><ele>1048.4</ele><time>2026-05-02T14:35:55.082Z</time></trkpt><trkpt lat="42.1325733" lon="13.31511"><ele>1048.0</ele><time>2026-05-02T14:35:56.083Z</time></trkpt><trkpt lat="42.132525" lon="13.3149467"><ele>1048.0</ele><time>2026-05-02T14:35:57.082Z</time></trkpt><trkpt lat="42.1324767" lon="13.3147867"><ele>1048.0</ele><time>2026-05-02T14:35:58.082Z</time></trkpt><trkpt lat="42.132425" lon="13.31464"><ele>1048.0</ele><time>2026-05-02T14:35:59.082Z</time></trkpt><trkpt lat="42.1323633" lon="13.3145183"><ele>1048.0</ele><time>2026-05-02T14:36:00.082Z</time></trkpt><trkpt lat="42.132265" lon="13.3143917"><ele>1048.3333333333333</ele><time>2026-05-02T14:36:01.082Z</time></trkpt><trkpt lat="42.132145" lon="13.3142467"><ele>1048.6666666666667</ele><time>2026-05-02T14:36:02.082Z</time></trkpt><trkpt lat="42.13203" lon="13.3141117"><ele>1049.0</ele><time>2026-05-02T14:36:03.082Z</time></trkpt><trkpt lat="42.1319317" lon="13.3139733"><ele>1049.6000000000001</ele><time>2026-05-02T14:36:04.083Z</time></trkpt><trkpt lat="42.1318667" lon="13.31387"><ele>1050.2</ele><time>2026-05-02T14:36:05.082Z</time></trkpt><trkpt lat="42.1318383" lon="13.31377"><ele>1050.8000000000002</ele><time>2026-05-02T14:36:06.082Z</time></trkpt><trkpt lat="42.131825" lon="13.3136467"><ele>1051.4</ele><time>2026-05-02T14:36:07.083Z</time></trkpt><trkpt lat="42.131825" lon="13.3134933"><ele>1052.0</ele><time>2026-05-02T14:36:08.082Z</time></trkpt><trkpt lat="42.1318283" lon="13.313315"><ele>1052.0</ele><time>2026-05-02T14:36:09.082Z</time></trkpt><trkpt lat="42.1318333" lon="13.3131333"><ele>1052.0</ele><time>2026-05-02T14:36:10.083Z</time></trkpt><trkpt lat="42.1318333" lon="13.31297"><ele>1052.0</ele><time>2026-05-02T14:36:11.083Z</time></trkpt><trkpt lat="42.13186" lon="13.3128083"><ele>1052.0</ele><time>2026-05-02T14:36:12.082Z</time></trkpt><trkpt lat="42.1319017" lon="13.3126517"><ele>1052.6</ele><time>2026-05-02T14:36:13.083Z</time></trkpt><trkpt lat="42.131965" lon="13.31253"><ele>1053.2</ele><time>2026-05-02T14:36:14.083Z</time></trkpt><trkpt lat="42.1320367" lon="13.31242"><ele>1053.8</ele><time>2026-05-02T14:36:15.082Z</time></trkpt><trkpt lat="42.1321167" lon="13.31233"><ele>1054.4</ele><time>2026-05-02T14:36:16.082Z</time></trkpt><trkpt lat="42.1321633" lon="13.3122567"><ele>1055.0</ele><time>2026-05-02T14:36:17.082Z</time></trkpt><trkpt lat="42.13219" lon="13.312175"><ele>1057.0</ele><time>2026-05-02T14:36:18.082Z</time></trkpt><trkpt lat="42.1322617" lon="13.3120467"><ele>1059.0</ele><time>2026-05-02T14:36:20.083Z</time></trkpt><trkpt lat="42.1323117" lon="13.311995"><ele>1061.0</ele><time>2026-05-02T14:36:21.082Z</time></trkpt><trkpt lat="42.13238" lon="13.3118917"><ele>1063.0</ele><time>2026-05-02T14:36:23.083Z</time></trkpt><trkpt lat="42.13247" lon="13.311765"><ele>1065.0</ele><time>2026-05-02T14:36:25.082Z</time></trkpt><trkpt lat="42.13254" lon="13.3117083"><ele>1062.3333333333333</ele><time>2026-05-02T14:36:26.083Z</time></trkpt><trkpt lat="42.132625" lon="13.3116583"><ele>1059.6666666666667</ele><time>2026-05-02T14:36:27.082Z</time></trkpt><trkpt lat="42.1326967" lon="13.3116067"><ele>1057.0</ele><time>2026-05-02T14:36:28.082Z</time></trkpt><trkpt lat="42.13276" lon="13.3115283"><ele>1054.3333333333335</ele><time>2026-05-02T14:36:29.083Z</time></trkpt><trkpt lat="42.1328033" lon="13.3114317"><ele>1051.6666666666667</ele><time>2026-05-02T14:36:30.082Z</time></trkpt><trkpt lat="42.1328467" lon="13.3113483"><ele>1049.0</ele><time>2026-05-02T14:36:31.083Z</time></trkpt><trkpt lat="42.13291" lon="13.311275"><ele>1049.0</ele><time>2026-05-02T14:36:32.082Z</time></trkpt><trkpt lat="42.13299" lon="13.3112233"><ele>1049.0</ele><time>2026-05-02T14:36:33.083Z</time></trkpt><trkpt lat="42.1330783" lon="13.3111833"><ele>1049.0</ele><time>2026-05-02T14:36:34.082Z</time></trkpt><trkpt lat="42.133155" lon="13.311155"><ele>1049.0</ele><time>2026-05-02T14:36:35.083Z</time></trkpt><trkpt lat="42.133215" lon="13.3111267"><ele>1049.0</ele><time>2026-05-02T14:36:36.082Z</time></trkpt><trkpt lat="42.1332717" lon="13.3109817"><ele>1049.0</ele><time>2026-05-02T14:36:38.083Z</time></trkpt><trkpt lat="42.1332933" lon="13.310865"><ele>1047.0</ele><time>2026-05-02T14:36:39.083Z</time></trkpt><trkpt lat="42.1333317" lon="13.31075"><ele>1045.0</ele><time>2026-05-02T14:36:40.083Z</time></trkpt><trkpt lat="42.1334017" lon="13.31066"><ele>1043.0</ele><time>2026-05-02T14:36:41.083Z</time></trkpt><trkpt lat="42.1334867" lon="13.3105767"><ele>1041.0</ele><time>2026-05-02T14:36:42.082Z</time></trkpt><trkpt lat="42.133565" lon="13.3104867"><ele>1039.0</ele><time>2026-05-02T14:36:43.082Z</time></trkpt><trkpt lat="42.1336283" lon="13.3104017"><ele>1039.0</ele><time>2026-05-02T14:36:44.083Z</time></trkpt><trkpt lat="42.1336767" lon="13.31032"><ele>1039.0</ele><time>2026-05-02T14:36:45.082Z</time></trkpt><trkpt lat="42.1337133" lon="13.3102333"><ele>1039.0</ele><time>2026-05-02T14:36:46.082Z</time></trkpt><trkpt lat="42.13376" lon="13.3101417"><ele>1039.0</ele><time>2026-05-02T14:36:47.082Z</time></trkpt><trkpt lat="42.133795" lon="13.31007"><ele>1039.0</ele><time>2026-05-02T14:36:48.083Z</time></trkpt><trkpt lat="42.1338717" lon="13.3100167"><ele>1039.0</ele><time>2026-05-02T14:36:50.082Z</time></trkpt><trkpt lat="42.1339983" lon="13.3099867"><ele>1036.0</ele><time>2026-05-02T14:36:52.083Z</time></trkpt><trkpt lat="42.1340867" lon="13.309925"><ele>1033.0</ele><time>2026-05-02T14:36:54.083Z</time></trkpt><trkpt lat="42.1341317" lon="13.3098517"><ele>1030.0</ele><time>2026-05-02T14:36:55.083Z</time></trkpt><trkpt lat="42.1341583" lon="13.3097683"><ele>1027.0</ele><time>2026-05-02T14:36:56.083Z</time></trkpt><trkpt lat="42.1341633" lon="13.30968"><ele>1023.9999999999999</ele><time>2026-05-02T14:36:57.082Z</time></trkpt><trkpt lat="42.1341633" lon="13.3095333"><ele>1021.0</ele><time>2026-05-02T14:36:59.082Z</time></trkpt><trkpt lat="42.1342283" lon="13.3093717"><ele>1020.3333333333333</ele><time>2026-05-02T14:37:01.082Z</time></trkpt><trkpt lat="42.1342717" lon="13.3092767"><ele>1019.6666666666666</ele><time>2026-05-02T14:37:02.082Z</time></trkpt><trkpt lat="42.1343167" lon="13.3091833"><ele>1019.0</ele><time>2026-05-02T14:37:03.082Z</time></trkpt><trkpt lat="42.1343717" lon="13.3090917"><ele>1018.3333333333333</ele><time>2026-05-02T14:37:04.082Z</time></trkpt><trkpt lat="42.1344283" lon="13.309005"><ele>1017.6666666666666</ele><time>2026-05-02T14:37:05.083Z</time></trkpt><trkpt lat="42.1344917" lon="13.3089233"><ele>1017.0</ele><time>2026-05-02T14:37:06.082Z</time></trkpt><trkpt lat="42.1345517" lon="13.3088483"><ele>1017.0</ele><time>2026-05-02T14:37:07.083Z</time></trkpt><trkpt lat="42.1346083" lon="13.3087733"><ele>1017.0</ele><time>2026-05-02T14:37:08.082Z</time></trkpt><trkpt lat="42.1346967" lon="13.3086917"><ele>1017.0</ele><time>2026-05-02T14:37:10.082Z</time></trkpt><trkpt lat="42.13472" lon="13.308605"><ele>1017.0</ele><time>2026-05-02T14:37:12.083Z</time></trkpt><trkpt lat="42.1347183" lon="13.3084767"><ele>1017.0</ele><time>2026-05-02T14:37:14.082Z</time></trkpt><trkpt lat="42.1347317" lon="13.30838"><ele>1017.0</ele><time>2026-05-02T14:37:15.083Z</time></trkpt><trkpt lat="42.13474" lon="13.3082367"><ele>1017.0</ele><time>2026-05-02T14:37:16.083Z</time></trkpt><trkpt lat="42.13474" lon="13.308085"><ele>1017.0</ele><time>2026-05-02T14:37:17.083Z</time></trkpt><trkpt lat="42.1347467" lon="13.3079383"><ele>1017.0</ele><time>2026-05-02T14:37:18.083Z</time></trkpt><trkpt lat="42.1347683" lon="13.307805"><ele>1017.0</ele><time>2026-05-02T14:37:19.082Z</time></trkpt><trkpt lat="42.1348017" lon="13.3077133"><ele>1017.0</ele><time>2026-05-02T14:37:20.082Z</time></trkpt><trkpt lat="42.1348383" lon="13.307635"><ele>1015.0</ele><time>2026-05-02T14:37:21.082Z</time></trkpt><trkpt lat="42.134865" lon="13.3075567"><ele>1013.0</ele><time>2026-05-02T14:37:22.082Z</time></trkpt><trkpt lat="42.1348467" lon="13.3074167"><ele>1011.0</ele><time>2026-05-02T14:37:24.082Z</time></trkpt><trkpt lat="42.134785" lon="13.307325"><ele>1009.0</ele><time>2026-05-02T14:37:25.083Z</time></trkpt><trkpt lat="42.1347133" lon="13.3072033"><ele>1007.0</ele><time>2026-05-02T14:37:26.082Z</time></trkpt><trkpt lat="42.1346483" lon="13.30708"><ele>1004.0</ele><time>2026-05-02T14:37:27.083Z</time></trkpt><trkpt lat="42.1346017" lon="13.3069767"><ele>1001.0</ele><time>2026-05-02T14:37:28.083Z</time></trkpt><trkpt lat="42.134575" lon="13.306875"><ele>998.0</ele><time>2026-05-02T14:37:29.082Z</time></trkpt><trkpt lat="42.1345633" lon="13.3067533"><ele>995.0</ele><time>2026-05-02T14:37:30.082Z</time></trkpt><trkpt lat="42.1345533" lon="13.3066067"><ele>992.0</ele><time>2026-05-02T14:37:31.083Z</time></trkpt><trkpt lat="42.134545" lon="13.3064583"><ele>989.4000000000001</ele><time>2026-05-02T14:37:32.083Z</time></trkpt><trkpt lat="42.13455" lon="13.306315"><ele>986.8000000000001</ele><time>2026-05-02T14:37:33.082Z</time></trkpt><trkpt lat="42.13455" lon="13.3061967"><ele>984.2</ele><time>2026-05-02T14:37:34.083Z</time></trkpt><trkpt lat="42.134535" lon="13.3061117"><ele>981.6</ele><time>2026-05-02T14:37:35.082Z</time></trkpt><trkpt lat="42.1344717" lon="13.3060383"><ele>979.0</ele><time>2026-05-02T14:37:37.082Z</time></trkpt><trkpt lat="42.134415" lon="13.3059"><ele>979.0</ele><time>2026-05-02T14:37:39.082Z</time></trkpt><trkpt lat="42.134405" lon="13.3057683"><ele>979.0</ele><time>2026-05-02T14:37:40.083Z</time></trkpt><trkpt lat="42.1343917" lon="13.3056133"><ele>979.0</ele><time>2026-05-02T14:37:41.083Z</time></trkpt><trkpt lat="42.13438" lon="13.30544"><ele>979.0</ele><time>2026-05-02T14:37:42.082Z</time></trkpt><trkpt lat="42.1343583" lon="13.3052617"><ele>977.2</ele><time>2026-05-02T14:37:43.083Z</time></trkpt><trkpt lat="42.1343233" lon="13.3050933"><ele>975.4000000000001</ele><time>2026-05-02T14:37:44.083Z</time></trkpt><trkpt lat="42.1342917" lon="13.3049483"><ele>973.6</ele><time>2026-05-02T14:37:45.083Z</time></trkpt><trkpt lat="42.134265" lon="13.3048317"><ele>971.8</ele><time>2026-05-02T14:37:46.082Z</time></trkpt><trkpt lat="42.134245" lon="13.304725"><ele>970.0</ele><time>2026-05-02T14:37:47.083Z</time></trkpt><trkpt lat="42.1342433" lon="13.3046083"><ele>968.0</ele><time>2026-05-02T14:37:48.082Z</time></trkpt><trkpt lat="42.13425" lon="13.3044767"><ele>966.0</ele><time>2026-05-02T14:37:49.082Z</time></trkpt><trkpt lat="42.1342383" lon="13.3043133"><ele>964.0</ele><time>2026-05-02T14:37:50.082Z</time></trkpt><trkpt lat="42.134225" lon="13.3041333"><ele>962.0</ele><time>2026-05-02T14:37:51.082Z</time></trkpt><trkpt lat="42.1341967" lon="13.303945"><ele>961.6</ele><time>2026-05-02T14:37:52.083Z</time></trkpt><trkpt lat="42.1341667" lon="13.30377"><ele>961.2</ele><time>2026-05-02T14:37:53.082Z</time></trkpt><trkpt lat="42.134145" lon="13.3036317"><ele>960.8</ele><time>2026-05-02T14:37:54.082Z</time></trkpt><trkpt lat="42.1341483" lon="13.3035083"><ele>960.4</ele><time>2026-05-02T14:37:55.083Z</time></trkpt><trkpt lat="42.134175" lon="13.3033817"><ele>960.0</ele><time>2026-05-02T14:37:56.083Z</time></trkpt><trkpt lat="42.13422" lon="13.3032433"><ele>960.0</ele><time>2026-05-02T14:37:57.083Z</time></trkpt><trkpt lat="42.1342767" lon="13.30311"><ele>960.0</ele><time>2026-05-02T14:37:58.082Z</time></trkpt><trkpt lat="42.1343217" lon="13.3030183"><ele>960.0</ele><time>2026-05-02T14:37:59.083Z</time></trkpt><trkpt lat="42.1343833" lon="13.3028817"><ele>960.0</ele><time>2026-05-02T14:38:00.082Z</time></trkpt><trkpt lat="42.1344333" lon="13.3027733"><ele>960.0</ele><time>2026-05-02T14:38:01.082Z</time></trkpt><trkpt lat="42.1344667" lon="13.302685"><ele>960.8333333333334</ele><time>2026-05-02T14:38:02.083Z</time></trkpt><trkpt lat="42.1345217" lon="13.302525"><ele>961.6666666666667</ele><time>2026-05-02T14:38:04.082Z</time></trkpt><trkpt lat="42.13455" lon="13.3024383"><ele>962.5</ele><time>2026-05-02T14:38:05.083Z</time></trkpt><trkpt lat="42.1345717" lon="13.3023567"><ele>963.3333333333334</ele><time>2026-05-02T14:38:06.083Z</time></trkpt><trkpt lat="42.1345767" lon="13.3022233"><ele>964.1666666666667</ele><time>2026-05-02T14:38:08.083Z</time></trkpt><trkpt lat="42.1345967" lon="13.3021167"><ele>965.0</ele><time>2026-05-02T14:38:11.082Z</time></trkpt><trkpt lat="42.1346467" lon="13.3020533"><ele>966.0000000000001</ele><time>2026-05-02T14:38:12.082Z</time></trkpt><trkpt lat="42.1347033" lon="13.3019767"><ele>967.0</ele><time>2026-05-02T14:38:13.082Z</time></trkpt><trkpt lat="42.13474" lon="13.3018967"><ele>968.0</ele><time>2026-05-02T14:38:14.083Z</time></trkpt><trkpt lat="42.1347683" lon="13.3017967"><ele>969.0</ele><time>2026-05-02T14:38:15.082Z</time></trkpt><trkpt lat="42.1348" lon="13.3016883"><ele>970.0000000000001</ele><time>2026-05-02T14:38:16.082Z</time></trkpt><trkpt lat="42.1348533" lon="13.3015933"><ele>971.0</ele><time>2026-05-02T14:38:17.083Z</time></trkpt><trkpt lat="42.13493" lon="13.3014933"><ele>964.5</ele><time>2026-05-02T14:38:18.082Z</time></trkpt><trkpt lat="42.1350217" lon="13.301395"><ele>958.0</ele><time>2026-05-02T14:38:19.083Z</time></trkpt><trkpt lat="42.1351217" lon="13.3012833"><ele>951.5</ele><time>2026-05-02T14:38:20.083Z</time></trkpt><trkpt lat="42.1352083" lon="13.3011717"><ele>945.0</ele><time>2026-05-02T14:38:21.083Z</time></trkpt><trkpt lat="42.135275" lon="13.301065"><ele>945.0</ele><time>2026-05-02T14:38:22.082Z</time></trkpt><trkpt lat="42.135335" lon="13.300985"><ele>945.0</ele><time>2026-05-02T14:38:23.083Z</time></trkpt><trkpt lat="42.1353883" lon="13.3009283"><ele>945.0</ele><time>2026-05-02T14:38:24.082Z</time></trkpt><trkpt lat="42.1354583" lon="13.3008867"><ele>945.0</ele><time>2026-05-02T14:38:25.083Z</time></trkpt><trkpt lat="42.1355367" lon="13.3008517"><ele>945.0</ele><time>2026-05-02T14:38:26.082Z</time></trkpt><trkpt lat="42.1356017" lon="13.3008233"><ele>945.0</ele><time>2026-05-02T14:38:27.082Z</time></trkpt><trkpt lat="42.1356933" lon="13.3007167"><ele>944.8</ele><time>2026-05-02T14:38:29.083Z</time></trkpt><trkpt lat="42.1358" lon="13.300655"><ele>944.6</ele><time>2026-05-02T14:38:31.083Z</time></trkpt><trkpt lat="42.1358767" lon="13.30066"><ele>944.4000000000001</ele><time>2026-05-02T14:38:32.083Z</time></trkpt><trkpt lat="42.1359617" lon="13.300655"><ele>944.2</ele><time>2026-05-02T14:38:33.082Z</time></trkpt><trkpt lat="42.1360517" lon="13.3006333"><ele>944.0</ele><time>2026-05-02T14:38:34.083Z</time></trkpt><trkpt lat="42.1361467" lon="13.3005883"><ele>942.0000000000001</ele><time>2026-05-02T14:38:35.082Z</time></trkpt><trkpt lat="42.1362317" lon="13.3005217"><ele>940.0</ele><time>2026-05-02T14:38:36.082Z</time></trkpt><trkpt lat="42.1363033" lon="13.3004467"><ele>938.0</ele><time>2026-05-02T14:38:37.083Z</time></trkpt><trkpt lat="42.1363517" lon="13.30038"><ele>936.0</ele><time>2026-05-02T14:38:38.082Z</time></trkpt><trkpt lat="42.1363967" lon="13.3003117"><ele>934.0000000000001</ele><time>2026-05-02T14:38:39.083Z</time></trkpt><trkpt lat="42.1364367" lon="13.3002267"><ele>932.0</ele><time>2026-05-02T14:38:40.082Z</time></trkpt><trkpt lat="42.1364883" lon="13.3001333"><ele>932.0</ele><time>2026-05-02T14:38:41.083Z</time></trkpt><trkpt lat="42.1365533" lon="13.3000183"><ele>932.0</ele><time>2026-05-02T14:38:42.082Z</time></trkpt><trkpt lat="42.1366317" lon="13.2998817"><ele>932.0</ele><time>2026-05-02T14:38:43.083Z</time></trkpt><trkpt lat="42.1367" lon="13.2997483"><ele>932.0</ele><time>2026-05-02T14:38:44.083Z</time></trkpt><trkpt lat="42.1367467" lon="13.2996167"><ele>932.0</ele><time>2026-05-02T14:38:45.083Z</time></trkpt><trkpt lat="42.1367733" lon="13.29948"><ele>932.0</ele><time>2026-05-02T14:38:46.082Z</time></trkpt><trkpt lat="42.1368" lon="13.2993217"><ele>932.0</ele><time>2026-05-02T14:38:47.082Z</time></trkpt><trkpt lat="42.13682" lon="13.2991517"><ele>932.0</ele><time>2026-05-02T14:38:48.082Z</time></trkpt><trkpt lat="42.13685" lon="13.298955"><ele>931.0</ele><time>2026-05-02T14:38:49.082Z</time></trkpt><trkpt lat="42.136885" lon="13.29875"><ele>930.0</ele><time>2026-05-02T14:38:50.083Z</time></trkpt><trkpt lat="42.136925" lon="13.2985467"><ele>929.0</ele><time>2026-05-02T14:38:51.082Z</time></trkpt><trkpt lat="42.1369683" lon="13.2983717"><ele>928.0</ele><time>2026-05-02T14:38:52.083Z</time></trkpt><trkpt lat="42.1369917" lon="13.29824"><ele>927.9999999999999</ele><time>2026-05-02T14:38:53.082Z</time></trkpt><trkpt lat="42.13699" lon="13.298145"><ele>928.0</ele><time>2026-05-02T14:38:54.082Z</time></trkpt><trkpt lat="42.1369633" lon="13.2980483"><ele>928.0</ele><time>2026-05-02T14:38:56.082Z</time></trkpt><trkpt lat="42.137065" lon="13.2980067"><ele>928.0</ele><time>2026-05-02T14:38:59.082Z</time></trkpt><trkpt lat="42.1371283" lon="13.29802"><ele>927.9999999999999</ele><time>2026-05-02T14:39:00.083Z</time></trkpt><trkpt lat="42.1372017" lon="13.2980467"><ele>928.0</ele><time>2026-05-02T14:39:01.082Z</time></trkpt><trkpt lat="42.13728" lon="13.2980567"><ele>927.4999999999999</ele><time>2026-05-02T14:39:02.083Z</time></trkpt><trkpt lat="42.137355" lon="13.298065"><ele>927.0</ele><time>2026-05-02T14:39:03.083Z</time></trkpt><trkpt lat="42.1374183" lon="13.298065"><ele>926.5</ele><time>2026-05-02T14:39:04.083Z</time></trkpt><trkpt lat="42.1375017" lon="13.2980467"><ele>926.0</ele><time>2026-05-02T14:39:06.083Z</time></trkpt><trkpt lat="42.1374867" lon="13.2979417"><ele>925.4999999999999</ele><time>2026-05-02T14:39:10.083Z</time></trkpt><trkpt lat="42.1373967" lon="13.2979367"><ele>925.0</ele><time>2026-05-02T14:39:13.082Z</time></trkpt><trkpt lat="42.1372967" lon="13.298"><ele>925.4999999999999</ele><time>2026-05-02T14:39:15.082Z</time></trkpt><trkpt lat="42.1372233" lon="13.2980317"><ele>926.0</ele><time>2026-05-02T14:39:16.082Z</time></trkpt><trkpt lat="42.137135" lon="13.2980533"><ele>926.5</ele><time>2026-05-02T14:39:17.083Z</time></trkpt><trkpt lat="42.1370417" lon="13.2980717"><ele>927.0</ele><time>2026-05-02T14:39:18.082Z</time></trkpt><trkpt lat="42.13697" lon="13.2980967"><ele>927.4999999999999</ele><time>2026-05-02T14:39:19.083Z</time></trkpt><trkpt lat="42.136905" lon="13.29812"><ele>928.0</ele><time>2026-05-02T14:39:20.083Z</time></trkpt><trkpt lat="42.1368417" lon="13.29813"><ele>928.0</ele><time>2026-05-02T14:39:21.082Z</time></trkpt><trkpt lat="42.13677" lon="13.2981267"><ele>928.0</ele><time>2026-05-02T14:39:22.083Z</time></trkpt><trkpt lat="42.1367" lon="13.2981133"><ele>928.0</ele><time>2026-05-02T14:39:23.082Z</time></trkpt><trkpt lat="42.1365967" lon="13.2980333"><ele>928.0</ele><time>2026-05-02T14:39:25.082Z</time></trkpt><trkpt lat="42.1365483" lon="13.2979117"><ele>928.0</ele><time>2026-05-02T14:39:27.082Z</time></trkpt><trkpt lat="42.1365567" lon="13.2977667"><ele>928.0</ele><time>2026-05-02T14:39:29.083Z</time></trkpt><trkpt lat="42.1366267" lon="13.29763"><ele>928.0</ele><time>2026-05-02T14:39:31.083Z</time></trkpt><trkpt lat="42.1366683" lon="13.2975317"><ele>928.0</ele><time>2026-05-02T14:39:32.082Z</time></trkpt><trkpt lat="42.1367033" lon="13.297435"><ele>928.0</ele><time>2026-05-02T14:39:33.083Z</time></trkpt><trkpt lat="42.136715" lon="13.2973233"><ele>928.0</ele><time>2026-05-02T14:39:34.083Z</time></trkpt><trkpt lat="42.1367167" lon="13.2971867"><ele>928.0</ele><time>2026-05-02T14:39:35.082Z</time></trkpt><trkpt lat="42.1367183" lon="13.29703"><ele>928.0</ele><time>2026-05-02T14:39:36.082Z</time></trkpt><trkpt lat="42.1367067" lon="13.2968617"><ele>928.0</ele><time>2026-05-02T14:39:37.082Z</time></trkpt><trkpt lat="42.136725" lon="13.296685"><ele>928.0</ele><time>2026-05-02T14:39:38.082Z</time></trkpt><trkpt lat="42.1367383" lon="13.2965033"><ele>926.75</ele><time>2026-05-02T14:39:39.082Z</time></trkpt><trkpt lat="42.136725" lon="13.29634"><ele>925.5</ele><time>2026-05-02T14:39:40.082Z</time></trkpt><trkpt lat="42.1367033" lon="13.2961733"><ele>924.25</ele><time>2026-05-02T14:39:41.082Z</time></trkpt><trkpt lat="42.1366883" lon="13.2959817"><ele>923.0</ele><time>2026-05-02T14:39:42.082Z</time></trkpt><trkpt lat="42.1366683" lon="13.2958017"><ele>923.0</ele><time>2026-05-02T14:39:43.083Z</time></trkpt><trkpt lat="42.1366617" lon="13.2956417"><ele>923.0</ele><time>2026-05-02T14:39:44.082Z</time></trkpt><trkpt lat="42.136675" lon="13.2954883"><ele>923.0</ele><time>2026-05-02T14:39:45.083Z</time></trkpt><trkpt lat="42.1366817" lon="13.2953067"><ele>923.0</ele><time>2026-05-02T14:39:46.083Z</time></trkpt><trkpt lat="42.1366667" lon="13.2951133"><ele>921.75</ele><time>2026-05-02T14:39:47.082Z</time></trkpt><trkpt lat="42.13663" lon="13.2949217"><ele>920.5</ele><time>2026-05-02T14:39:48.082Z</time></trkpt><trkpt lat="42.136595" lon="13.2947367"><ele>919.25</ele><time>2026-05-02T14:39:49.083Z</time></trkpt><trkpt lat="42.1365667" lon="13.2945583"><ele>918.0</ele><time>2026-05-02T14:39:50.083Z</time></trkpt><trkpt lat="42.1365383" lon="13.2943883"><ele>916.2</ele><time>2026-05-02T14:39:51.083Z</time></trkpt><trkpt lat="42.1365117" lon="13.2942433"><ele>914.4</ele><time>2026-05-02T14:39:52.083Z</time></trkpt><trkpt lat="42.136495" lon="13.2941217"><ele>912.6000000000001</ele><time>2026-05-02T14:39:53.082Z</time></trkpt><trkpt lat="42.1364967" lon="13.2939983"><ele>910.8000000000001</ele><time>2026-05-02T14:39:54.083Z</time></trkpt><trkpt lat="42.136505" lon="13.2939033"><ele>909.0</ele><time>2026-05-02T14:39:55.082Z</time></trkpt><trkpt lat="42.136465" lon="13.29376"><ele>909.0</ele><time>2026-05-02T14:39:57.082Z</time></trkpt><trkpt lat="42.1364183" lon="13.293685"><ele>909.0</ele><time>2026-05-02T14:39:58.083Z</time></trkpt><trkpt lat="42.1363767" lon="13.29361"><ele>909.0</ele><time>2026-05-02T14:39:59.082Z</time></trkpt><trkpt lat="42.1363417" lon="13.2935183"><ele>909.0</ele><time>2026-05-02T14:40:00.082Z</time></trkpt><trkpt lat="42.13634" lon="13.2934083"><ele>909.0</ele><time>2026-05-02T14:40:01.083Z</time></trkpt><trkpt lat="42.136335" lon="13.2932917"><ele>909.0</ele><time>2026-05-02T14:40:02.082Z</time></trkpt><trkpt lat="42.1363067" lon="13.2931683"><ele>908.5</ele><time>2026-05-02T14:40:03.083Z</time></trkpt><trkpt lat="42.136265" lon="13.2930317"><ele>908.0</ele><time>2026-05-02T14:40:04.082Z</time></trkpt><trkpt lat="42.1362333" lon="13.29288"><ele>907.5</ele><time>2026-05-02T14:40:05.082Z</time></trkpt><trkpt lat="42.1362167" lon="13.292725"><ele>907.0</ele><time>2026-05-02T14:40:06.082Z</time></trkpt><trkpt lat="42.1362217" lon="13.29256"><ele>907.0</ele><time>2026-05-02T14:40:07.082Z</time></trkpt><trkpt lat="42.1362367" lon="13.29238"><ele>907.0</ele><time>2026-05-02T14:40:08.082Z</time></trkpt><trkpt lat="42.13626" lon="13.292195"><ele>907.0</ele><time>2026-05-02T14:40:09.082Z</time></trkpt><trkpt lat="42.1362833" lon="13.29202"><ele>907.0</ele><time>2026-05-02T14:40:10.082Z</time></trkpt><trkpt lat="42.1363017" lon="13.2918483"><ele>905.2</ele><time>2026-05-02T14:40:11.082Z</time></trkpt><trkpt lat="42.1363117" lon="13.291705"><ele>903.4000000000001</ele><time>2026-05-02T14:40:12.083Z</time></trkpt><trkpt lat="42.1363067" lon="13.2915967"><ele>901.5999999999999</ele><time>2026-05-02T14:40:13.082Z</time></trkpt><trkpt lat="42.1363067" lon="13.2915117"><ele>899.8</ele><time>2026-05-02T14:40:14.082Z</time></trkpt><trkpt lat="42.13638" lon="13.29138"><ele>898.0</ele><time>2026-05-02T14:40:16.082Z</time></trkpt><trkpt lat="42.1364367" lon="13.2912967"><ele>896.9999999999999</ele><time>2026-05-02T14:40:17.083Z</time></trkpt><trkpt lat="42.1364883" lon="13.2911867"><ele>896.0</ele><time>2026-05-02T14:40:18.083Z</time></trkpt><trkpt lat="42.1365183" lon="13.2910583"><ele>895.0</ele><time>2026-05-02T14:40:19.082Z</time></trkpt><trkpt lat="42.13654" lon="13.2909333"><ele>894.0</ele><time>2026-05-02T14:40:20.082Z</time></trkpt><trkpt lat="42.1365783" lon="13.290835"><ele>892.9999999999999</ele><time>2026-05-02T14:40:21.082Z</time></trkpt><trkpt lat="42.1366217" lon="13.29077"><ele>892.0</ele><time>2026-05-02T14:40:22.083Z</time></trkpt><trkpt lat="42.1367683" lon="13.2907267"><ele>892.0</ele><time>2026-05-02T14:40:24.082Z</time></trkpt><trkpt lat="42.136875" lon="13.2907183"><ele>892.0</ele><time>2026-05-02T14:40:25.082Z</time></trkpt><trkpt lat="42.1369917" lon="13.2907167"><ele>892.0</ele><time>2026-05-02T14:40:26.082Z</time></trkpt><trkpt lat="42.1370867" lon="13.2907167"><ele>892.0</ele><time>2026-05-02T14:40:27.082Z</time></trkpt><trkpt lat="42.1371617" lon="13.2907"><ele>892.0</ele><time>2026-05-02T14:40:28.082Z</time></trkpt><trkpt lat="42.1372233" lon="13.2906217"><ele>889.4999999999999</ele><time>2026-05-02T14:40:30.083Z</time></trkpt><trkpt lat="42.1371483" lon="13.290505"><ele>887.0</ele><time>2026-05-02T14:40:32.083Z</time></trkpt><trkpt lat="42.1370633" lon="13.29047"><ele>884.5</ele><time>2026-05-02T14:40:33.083Z</time></trkpt><trkpt lat="42.1369783" lon="13.290435"><ele>882.0</ele><time>2026-05-02T14:40:34.082Z</time></trkpt><trkpt lat="42.1369083" lon="13.2904"><ele>879.4999999999999</ele><time>2026-05-02T14:40:35.082Z</time></trkpt><trkpt lat="42.1368517" lon="13.29035"><ele>877.0</ele><time>2026-05-02T14:40:36.082Z</time></trkpt><trkpt lat="42.1368483" lon="13.2902233"><ele>877.0</ele><time>2026-05-02T14:40:38.083Z</time></trkpt><trkpt lat="42.1368933" lon="13.29013"><ele>877.0</ele><time>2026-05-02T14:40:39.082Z</time></trkpt><trkpt lat="42.1369683" lon="13.290035"><ele>877.0</ele><time>2026-05-02T14:40:40.083Z</time></trkpt><trkpt lat="42.1370517" lon="13.2899317"><ele>877.0</ele><time>2026-05-02T14:40:41.082Z</time></trkpt><trkpt lat="42.1371217" lon="13.28982"><ele>877.0</ele><time>2026-05-02T14:40:42.083Z</time></trkpt><trkpt lat="42.1371583" lon="13.2896883"><ele>874.2</ele><time>2026-05-02T14:40:43.082Z</time></trkpt><trkpt lat="42.1371783" lon="13.2895633"><ele>871.4000000000001</ele><time>2026-05-02T14:40:44.083Z</time></trkpt><trkpt lat="42.1371867" lon="13.289455"><ele>868.5999999999999</ele><time>2026-05-02T14:40:45.082Z</time></trkpt><trkpt lat="42.1371283" lon="13.2893"><ele>865.8</ele><time>2026-05-02T14:40:47.082Z</time></trkpt><trkpt lat="42.13709" lon="13.2892167"><ele>863.0</ele><time>2026-05-02T14:40:48.083Z</time></trkpt><trkpt lat="42.1370917" lon="13.2890783"><ele>863.0</ele><time>2026-05-02T14:40:50.083Z</time></trkpt><trkpt lat="42.1371767" lon="13.2889833"><ele>863.0</ele><time>2026-05-02T14:40:52.082Z</time></trkpt><trkpt lat="42.1372217" lon="13.288855"><ele>863.0</ele><time>2026-05-02T14:40:54.083Z</time></trkpt><trkpt lat="42.1372017" lon="13.2887567"><ele>863.0</ele><time>2026-05-02T14:40:55.082Z</time></trkpt><trkpt lat="42.13716" lon="13.288625"><ele>863.0</ele><time>2026-05-02T14:40:56.083Z</time></trkpt><trkpt lat="42.1371083" lon="13.2884683"><ele>861.4</ele><time>2026-05-02T14:40:57.083Z</time></trkpt><trkpt lat="42.1370617" lon="13.288305"><ele>859.8</ele><time>2026-05-02T14:40:58.083Z</time></trkpt><trkpt lat="42.1370383" lon="13.288165"><ele>858.2</ele><time>2026-05-02T14:40:59.082Z</time></trkpt><trkpt lat="42.1370433" lon="13.2880717"><ele>856.6</ele><time>2026-05-02T14:41:00.083Z</time></trkpt><trkpt lat="42.13711" lon="13.2880017"><ele>855.0</ele><time>2026-05-02T14:41:02.083Z</time></trkpt><trkpt lat="42.1371817" lon="13.2880767"><ele>855.0</ele><time>2026-05-02T14:41:04.082Z</time></trkpt><trkpt lat="42.1372233" lon="13.288145"><ele>855.0</ele><time>2026-05-02T14:41:05.082Z</time></trkpt><trkpt lat="42.13732" lon="13.288255"><ele>855.0</ele><time>2026-05-02T14:41:07.083Z</time></trkpt><trkpt lat="42.137395" lon="13.2883133"><ele>855.0</ele><time>2026-05-02T14:41:08.082Z</time></trkpt><trkpt lat="42.1374883" lon="13.2883817"><ele>855.0</ele><time>2026-05-02T14:41:09.083Z</time></trkpt><trkpt lat="42.1375883" lon="13.288455"><ele>855.4</ele><time>2026-05-02T14:41:10.083Z</time></trkpt><trkpt lat="42.1376817" lon="13.2885283"><ele>855.8</ele><time>2026-05-02T14:41:11.083Z</time></trkpt><trkpt lat="42.1377533" lon="13.2885633"><ele>856.2</ele><time>2026-05-02T14:41:12.082Z</time></trkpt><trkpt lat="42.1378667" lon="13.2885317"><ele>856.6</ele><time>2026-05-02T14:41:14.083Z</time></trkpt><trkpt lat="42.1379083" lon="13.28846"><ele>857.0</ele><time>2026-05-02T14:41:15.083Z</time></trkpt><trkpt lat="42.13793" lon="13.2883517"><ele>857.0</ele><time>2026-05-02T14:41:16.082Z</time></trkpt><trkpt lat="42.1379267" lon="13.2882033"><ele>857.0</ele><time>2026-05-02T14:41:17.082Z</time></trkpt><trkpt lat="42.1378867" lon="13.28799"><ele>857.0</ele><time>2026-05-02T14:41:18.082Z</time></trkpt><trkpt lat="42.13783" lon="13.287755"><ele>854.3333333333334</ele><time>2026-05-02T14:41:19.082Z</time></trkpt><trkpt lat="42.1377683" lon="13.2875017"><ele>851.6666666666667</ele><time>2026-05-02T14:41:20.082Z</time></trkpt><trkpt lat="42.13773" lon="13.287275"><ele>849.0</ele><time>2026-05-02T14:41:21.083Z</time></trkpt><trkpt lat="42.137705" lon="13.2870783"><ele>847.4000000000001</ele><time>2026-05-02T14:41:22.083Z</time></trkpt><trkpt lat="42.1377067" lon="13.2869167"><ele>845.8</ele><time>2026-05-02T14:41:23.082Z</time></trkpt><trkpt lat="42.1377" lon="13.28679"><ele>844.2</ele><time>2026-05-02T14:41:24.082Z</time></trkpt><trkpt lat="42.13769" lon="13.286655"><ele>842.5999999999999</ele><time>2026-05-02T14:41:25.083Z</time></trkpt><trkpt lat="42.1376817" lon="13.2864883"><ele>841.0</ele><time>2026-05-02T14:41:26.083Z</time></trkpt><trkpt lat="42.1376667" lon="13.2863183"><ele>840.6666666666666</ele><time>2026-05-02T14:41:27.083Z</time></trkpt><trkpt lat="42.137645" lon="13.2861717"><ele>840.3333333333333</ele><time>2026-05-02T14:41:28.082Z</time></trkpt><trkpt lat="42.1376233" lon="13.2860567"><ele>840.0</ele><time>2026-05-02T14:41:29.083Z</time></trkpt><trkpt lat="42.1376" lon="13.2859583"><ele>839.6666666666667</ele><time>2026-05-02T14:41:30.082Z</time></trkpt><trkpt lat="42.1375933" lon="13.28583"><ele>839.3333333333334</ele><time>2026-05-02T14:41:32.083Z</time></trkpt><trkpt lat="42.1376217" lon="13.285745"><ele>839.0</ele><time>2026-05-02T14:41:34.083Z</time></trkpt><trkpt lat="42.137725" lon="13.2857"><ele>839.0</ele><time>2026-05-02T14:41:36.082Z</time></trkpt><trkpt lat="42.13781" lon="13.2857133"><ele>839.0</ele><time>2026-05-02T14:41:37.082Z</time></trkpt><trkpt lat="42.1379233" lon="13.2857333"><ele>839.0</ele><time>2026-05-02T14:41:38.082Z</time></trkpt><trkpt lat="42.13804" lon="13.2857633"><ele>839.0</ele><time>2026-05-02T14:41:39.082Z</time></trkpt><trkpt lat="42.138145" lon="13.285795"><ele>839.0</ele><time>2026-05-02T14:41:40.083Z</time></trkpt><trkpt lat="42.13823" lon="13.2858367"><ele>839.1666666666667</ele><time>2026-05-02T14:41:41.082Z</time></trkpt><trkpt lat="42.138295" lon="13.2858767"><ele>839.3333333333334</ele><time>2026-05-02T14:41:42.081Z</time></trkpt><trkpt lat="42.1383617" lon="13.2859233"><ele>839.5</ele><time>2026-05-02T14:41:44.082Z</time></trkpt><trkpt lat="42.13845" lon="13.28591"><ele>839.6666666666667</ele><time>2026-05-02T14:41:46.081Z</time></trkpt><trkpt lat="42.13852" lon="13.2859083"><ele>839.8333333333334</ele><time>2026-05-02T14:41:47.082Z</time></trkpt><trkpt lat="42.138615" lon="13.2858917"><ele>840.0</ele><time>2026-05-02T14:41:48.081Z</time></trkpt><trkpt lat="42.138715" lon="13.2858833"><ele>840.0</ele><time>2026-05-02T14:41:49.081Z</time></trkpt><trkpt lat="42.1388083" lon="13.2858783"><ele>840.0</ele><time>2026-05-02T14:41:50.082Z</time></trkpt><trkpt lat="42.1388967" lon="13.2858883"><ele>840.0</ele><time>2026-05-02T14:41:51.081Z</time></trkpt><trkpt lat="42.1389733" lon="13.28592"><ele>840.0</ele><time>2026-05-02T14:41:52.082Z</time></trkpt><trkpt lat="42.1390583" lon="13.28594"><ele>840.0</ele><time>2026-05-02T14:41:53.081Z</time></trkpt><trkpt lat="42.139155" lon="13.28594"><ele>840.0</ele><time>2026-05-02T14:41:54.082Z</time></trkpt><trkpt lat="42.13928" lon="13.2859233"><ele>839.25</ele><time>2026-05-02T14:41:55.081Z</time></trkpt><trkpt lat="42.139435" lon="13.285915"><ele>838.5</ele><time>2026-05-02T14:41:56.081Z</time></trkpt><trkpt lat="42.139575" lon="13.2859117"><ele>837.75</ele><time>2026-05-02T14:41:57.081Z</time></trkpt><trkpt lat="42.13971" lon="13.2858983"><ele>837.0</ele><time>2026-05-02T14:41:58.082Z</time></trkpt><trkpt lat="42.1398533" lon="13.2858917"><ele>834.5</ele><time>2026-05-02T14:41:59.082Z</time></trkpt><trkpt lat="42.139995" lon="13.285895"><ele>832.0</ele><time>2026-05-02T14:42:00.081Z</time></trkpt><trkpt lat="42.1401283" lon="13.2859167"><ele>829.5</ele><time>2026-05-02T14:42:01.081Z</time></trkpt><trkpt lat="42.1402533" lon="13.2859433"><ele>827.0</ele><time>2026-05-02T14:42:02.082Z</time></trkpt><trkpt lat="42.1403717" lon="13.285955"><ele>827.0</ele><time>2026-05-02T14:42:03.082Z</time></trkpt><trkpt lat="42.1404783" lon="13.285985"><ele>827.0</ele><time>2026-05-02T14:42:04.081Z</time></trkpt><trkpt lat="42.1405783" lon="13.2860067"><ele>827.0</ele><time>2026-05-02T14:42:05.082Z</time></trkpt><trkpt lat="42.1406683" lon="13.28601"><ele>827.0</ele><time>2026-05-02T14:42:06.082Z</time></trkpt><trkpt lat="42.1407667" lon="13.2859983"><ele>827.0</ele><time>2026-05-02T14:42:07.082Z</time></trkpt><trkpt lat="42.14086" lon="13.285985"><ele>825.6666666666667</ele><time>2026-05-02T14:42:08.081Z</time></trkpt><trkpt lat="42.140935" lon="13.2859767"><ele>824.3333333333334</ele><time>2026-05-02T14:42:09.081Z</time></trkpt><trkpt lat="42.1410033" lon="13.28601"><ele>823.0</ele><time>2026-05-02T14:42:10.082Z</time></trkpt><trkpt lat="42.1410767" lon="13.286055"><ele>821.6666666666667</ele><time>2026-05-02T14:42:11.081Z</time></trkpt><trkpt lat="42.14116" lon="13.2860983"><ele>820.3333333333334</ele><time>2026-05-02T14:42:12.081Z</time></trkpt><trkpt lat="42.14124" lon="13.2861133"><ele>819.0</ele><time>2026-05-02T14:42:13.082Z</time></trkpt><trkpt lat="42.1413283" lon="13.2860933"><ele>819.0</ele><time>2026-05-02T14:42:14.082Z</time></trkpt><trkpt lat="42.1414283" lon="13.2860483"><ele>819.0</ele><time>2026-05-02T14:42:15.082Z</time></trkpt><trkpt lat="42.1415417" lon="13.2860083"><ele>819.0</ele><time>2026-05-02T14:42:16.082Z</time></trkpt><trkpt lat="42.1416683" lon="13.2859833"><ele>819.0</ele><time>2026-05-02T14:42:17.082Z</time></trkpt><trkpt lat="42.1418" lon="13.2859817"><ele>815.0</ele><time>2026-05-02T14:42:18.081Z</time></trkpt><trkpt lat="42.141925" lon="13.28599"><ele>811.0</ele><time>2026-05-02T14:42:19.081Z</time></trkpt><trkpt lat="42.14204" lon="13.2859867"><ele>807.0</ele><time>2026-05-02T14:42:20.082Z</time></trkpt><trkpt lat="42.1421417" lon="13.285985"><ele>803.0</ele><time>2026-05-02T14:42:21.081Z</time></trkpt><trkpt lat="42.142225" lon="13.285985"><ele>799.0</ele><time>2026-05-02T14:42:22.081Z</time></trkpt><trkpt lat="42.1423" lon="13.2859583"><ele>799.0</ele><time>2026-05-02T14:42:23.082Z</time></trkpt><trkpt lat="42.1423667" lon="13.2859333"><ele>799.0</ele><time>2026-05-02T14:42:24.081Z</time></trkpt><trkpt lat="42.1424767" lon="13.2859467"><ele>799.0</ele><time>2026-05-02T14:42:26.081Z</time></trkpt><trkpt lat="42.1425583" lon="13.286095"><ele>799.0</ele><time>2026-05-02T14:42:28.082Z</time></trkpt><trkpt lat="42.14261" lon="13.2861833"><ele>799.0</ele><time>2026-05-02T14:42:29.081Z</time></trkpt><trkpt lat="42.1426683" lon="13.2862567"><ele>798.6666666666666</ele><time>2026-05-02T14:42:30.081Z</time></trkpt><trkpt lat="42.1427333" lon="13.2863167"><ele>798.3333333333333</ele><time>2026-05-02T14:42:31.082Z</time></trkpt><trkpt lat="42.1428067" lon="13.28637"><ele>798.0</ele><time>2026-05-02T14:42:32.081Z</time></trkpt><trkpt lat="42.1428867" lon="13.2864183"><ele>797.6666666666667</ele><time>2026-05-02T14:42:33.081Z</time></trkpt><trkpt lat="42.1429583" lon="13.2864917"><ele>797.3333333333334</ele><time>2026-05-02T14:42:34.082Z</time></trkpt><trkpt lat="42.1430217" lon="13.28658"><ele>797.0</ele><time>2026-05-02T14:42:35.082Z</time></trkpt><trkpt lat="42.14309" lon="13.286705"><ele>797.0</ele><time>2026-05-02T14:42:36.081Z</time></trkpt><trkpt lat="42.1431567" lon="13.2868417"><ele>797.0</ele><time>2026-05-02T14:42:37.082Z</time></trkpt><trkpt lat="42.1432067" lon="13.2869717"><ele>797.0</ele><time>2026-05-02T14:42:38.082Z</time></trkpt><trkpt lat="42.1432383" lon="13.2870983"><ele>797.0</ele><time>2026-05-02T14:42:39.081Z</time></trkpt><trkpt lat="42.1432567" lon="13.2872217"><ele>797.0</ele><time>2026-05-02T14:42:40.082Z</time></trkpt><trkpt lat="42.1432617" lon="13.2873567"><ele>794.0</ele><time>2026-05-02T14:42:41.081Z</time></trkpt><trkpt lat="42.14326" lon="13.2875"><ele>791.0</ele><time>2026-05-02T14:42:42.082Z</time></trkpt><trkpt lat="42.1432683" lon="13.2876183"><ele>788.0</ele><time>2026-05-02T14:42:43.081Z</time></trkpt><trkpt lat="42.14332" lon="13.2877517"><ele>785.0</ele><time>2026-05-02T14:42:45.081Z</time></trkpt><trkpt lat="42.1434367" lon="13.2877983"><ele>782.0</ele><time>2026-05-02T14:42:47.082Z</time></trkpt><trkpt lat="42.1435117" lon="13.2878317"><ele>782.0000000000001</ele><time>2026-05-02T14:42:48.081Z</time></trkpt><trkpt lat="42.14358" lon="13.2878583"><ele>782.0</ele><time>2026-05-02T14:42:49.082Z</time></trkpt><trkpt lat="42.1436867" lon="13.2878417"><ele>782.0</ele><time>2026-05-02T14:42:51.081Z</time></trkpt><trkpt lat="42.1437383" lon="13.287775"><ele>782.0</ele><time>2026-05-02T14:42:52.081Z</time></trkpt><trkpt lat="42.143795" lon="13.28768"><ele>782.0000000000001</ele><time>2026-05-02T14:42:53.081Z</time></trkpt><trkpt lat="42.1438583" lon="13.2875967"><ele>782.0</ele><time>2026-05-02T14:42:54.082Z</time></trkpt><trkpt lat="42.143925" lon="13.28752"><ele>782.0000000000001</ele><time>2026-05-02T14:42:55.081Z</time></trkpt><trkpt lat="42.144" lon="13.2874483"><ele>782.0</ele><time>2026-05-02T14:42:56.082Z</time></trkpt><trkpt lat="42.14408" lon="13.2873967"><ele>782.0</ele><time>2026-05-02T14:42:57.082Z</time></trkpt><trkpt lat="42.14416" lon="13.2873767"><ele>782.0</ele><time>2026-05-02T14:42:58.082Z</time></trkpt><trkpt lat="42.1442483" lon="13.2873717"><ele>782.0000000000001</ele><time>2026-05-02T14:42:59.081Z</time></trkpt><trkpt lat="42.144345" lon="13.287375"><ele>782.0</ele><time>2026-05-02T14:43:00.081Z</time></trkpt><trkpt lat="42.1444467" lon="13.2873783"><ele>783.2</ele><time>2026-05-02T14:43:01.082Z</time></trkpt><trkpt lat="42.1445533" lon="13.2873633"><ele>784.4000000000001</ele><time>2026-05-02T14:43:02.082Z</time></trkpt><trkpt lat="42.1446617" lon="13.2873517"><ele>785.5999999999999</ele><time>2026-05-02T14:43:03.082Z</time></trkpt><trkpt lat="42.1447583" lon="13.28735"><ele>786.8</ele><time>2026-05-02T14:43:04.082Z</time></trkpt><trkpt lat="42.14483" lon="13.2873667"><ele>788.0</ele><time>2026-05-02T14:43:05.082Z</time></trkpt><trkpt lat="42.1448917" lon="13.2874017"><ele>789.5999999999999</ele><time>2026-05-02T14:43:06.082Z</time></trkpt><trkpt lat="42.1449717" lon="13.2874833"><ele>791.1999999999999</ele><time>2026-05-02T14:43:08.081Z</time></trkpt><trkpt lat="42.1450367" lon="13.2875933"><ele>792.8</ele><time>2026-05-02T14:43:10.081Z</time></trkpt><trkpt lat="42.1450667" lon="13.28773"><ele>794.4</ele><time>2026-05-02T14:43:12.082Z</time></trkpt><trkpt lat="42.1450633" lon="13.2878317"><ele>796.0</ele><time>2026-05-02T14:43:13.082Z</time></trkpt><trkpt lat="42.1450467" lon="13.2879567"><ele>796.25</ele><time>2026-05-02T14:43:14.082Z</time></trkpt><trkpt lat="42.1450267" lon="13.2880983"><ele>796.5</ele><time>2026-05-02T14:43:15.081Z</time></trkpt><trkpt lat="42.1450033" lon="13.288275"><ele>796.75</ele><time>2026-05-02T14:43:16.082Z</time></trkpt><trkpt lat="42.1449817" lon="13.2884617"><ele>797.0</ele><time>2026-05-02T14:43:17.082Z</time></trkpt><trkpt lat="42.1449617" lon="13.2886567"><ele>797.0</ele><time>2026-05-02T14:43:18.081Z</time></trkpt><trkpt lat="42.1449533" lon="13.288835"><ele>797.0</ele><time>2026-05-02T14:43:19.081Z</time></trkpt><trkpt lat="42.1449483" lon="13.2890067"><ele>797.0</ele><time>2026-05-02T14:43:20.081Z</time></trkpt><trkpt lat="42.1449517" lon="13.2891733"><ele>797.0</ele><time>2026-05-02T14:43:21.081Z</time></trkpt><trkpt lat="42.1449533" lon="13.2893467"><ele>797.25</ele><time>2026-05-02T14:43:22.082Z</time></trkpt><trkpt lat="42.144965" lon="13.2895067"><ele>797.5</ele><time>2026-05-02T14:43:23.082Z</time></trkpt><trkpt lat="42.144985" lon="13.2896667"><ele>797.75</ele><time>2026-05-02T14:43:24.081Z</time></trkpt><trkpt lat="42.145025" lon="13.2898133"><ele>798.0</ele><time>2026-05-02T14:43:25.081Z</time></trkpt><trkpt lat="42.145085" lon="13.289955"><ele>798.0</ele><time>2026-05-02T14:43:26.082Z</time></trkpt><trkpt lat="42.1451567" lon="13.2900967"><ele>798.0</ele><time>2026-05-02T14:43:27.081Z</time></trkpt><trkpt lat="42.1452333" lon="13.2902383"><ele>798.0</ele><time>2026-05-02T14:43:28.081Z</time></trkpt><trkpt lat="42.1453067" lon="13.29037"><ele>798.0</ele><time>2026-05-02T14:43:29.082Z</time></trkpt><trkpt lat="42.1453933" lon="13.290485"><ele>798.0</ele><time>2026-05-02T14:43:30.082Z</time></trkpt><trkpt lat="42.145485" lon="13.2905883"><ele>798.0</ele><time>2026-05-02T14:43:31.081Z</time></trkpt><trkpt lat="42.1455717" lon="13.2906767"><ele>798.0</ele><time>2026-05-02T14:43:32.081Z</time></trkpt><trkpt lat="42.1456483" lon="13.290755"><ele>798.0</ele><time>2026-05-02T14:43:33.081Z</time></trkpt><trkpt lat="42.14572" lon="13.2908067"><ele>798.0</ele><time>2026-05-02T14:43:34.082Z</time></trkpt><trkpt lat="42.1457983" lon="13.290865"><ele>796.3333333333334</ele><time>2026-05-02T14:43:35.082Z</time></trkpt><trkpt lat="42.14586" lon="13.2909317"><ele>794.6666666666667</ele><time>2026-05-02T14:43:36.081Z</time></trkpt><trkpt lat="42.1459183" lon="13.2909967"><ele>793.0</ele><time>2026-05-02T14:43:37.082Z</time></trkpt><trkpt lat="42.1459717" lon="13.2910483"><ele>791.3333333333334</ele><time>2026-05-02T14:43:38.082Z</time></trkpt><trkpt lat="42.1460433" lon="13.2911383"><ele>789.6666666666667</ele><time>2026-05-02T14:43:40.082Z</time></trkpt><trkpt lat="42.1460917" lon="13.2911967"><ele>788.0</ele><time>2026-05-02T14:43:42.082Z</time></trkpt><trkpt lat="42.14614" lon="13.2912717"><ele>788.0000000000001</ele><time>2026-05-02T14:43:44.081Z</time></trkpt><trkpt lat="42.14623" lon="13.2913783"><ele>788.0</ele><time>2026-05-02T14:43:46.081Z</time></trkpt><trkpt lat="42.1462783" lon="13.291435"><ele>788.0</ele><time>2026-05-02T14:43:47.082Z</time></trkpt><trkpt lat="42.146325" lon="13.291495"><ele>788.0</ele><time>2026-05-02T14:43:48.082Z</time></trkpt><trkpt lat="42.1463783" lon="13.291545"><ele>788.0000000000001</ele><time>2026-05-02T14:43:49.081Z</time></trkpt><trkpt lat="42.146465" lon="13.2916533"><ele>788.0</ele><time>2026-05-02T14:43:51.082Z</time></trkpt><trkpt lat="42.1465467" lon="13.291755"><ele>786.4</ele><time>2026-05-02T14:43:53.081Z</time></trkpt><trkpt lat="42.1466167" lon="13.2918433"><ele>784.8</ele><time>2026-05-02T14:43:55.081Z</time></trkpt><trkpt lat="42.1466983" lon="13.2918917"><ele>783.2</ele><time>2026-05-02T14:43:57.082Z</time></trkpt><trkpt lat="42.1467833" lon="13.291855"><ele>781.6</ele><time>2026-05-02T14:43:59.082Z</time></trkpt><trkpt lat="42.1468733" lon="13.2917617"><ele>780.0</ele><time>2026-05-02T14:44:01.081Z</time></trkpt><trkpt lat="42.1469267" lon="13.29171"><ele>780.0</ele><time>2026-05-02T14:44:02.081Z</time></trkpt><trkpt lat="42.1469783" lon="13.291655"><ele>780.0</ele><time>2026-05-02T14:44:03.082Z</time></trkpt><trkpt lat="42.14708" lon="13.2915717"><ele>780.0</ele><time>2026-05-02T14:44:05.082Z</time></trkpt><trkpt lat="42.147165" lon="13.2915333"><ele>780.0</ele><time>2026-05-02T14:44:07.081Z</time></trkpt><trkpt lat="42.1472617" lon="13.2915167"><ele>780.0</ele><time>2026-05-02T14:44:09.082Z</time></trkpt><trkpt lat="42.1473383" lon="13.291525"><ele>780.0</ele><time>2026-05-02T14:44:11.081Z</time></trkpt><trkpt lat="42.147405" lon="13.2915533"><ele>777.1666666666666</ele><time>2026-05-02T14:44:13.082Z</time></trkpt><trkpt lat="42.147475" lon="13.2916017"><ele>774.3333333333334</ele><time>2026-05-02T14:44:15.082Z</time></trkpt><trkpt lat="42.147565" lon="13.2916233"><ele>771.5</ele><time>2026-05-02T14:44:18.081Z</time></trkpt><trkpt lat="42.14758" lon="13.2914883"><ele>768.6666666666667</ele><time>2026-05-02T14:44:21.082Z</time></trkpt><trkpt lat="42.14754" lon="13.2913933"><ele>765.8333333333334</ele><time>2026-05-02T14:44:22.082Z</time></trkpt><trkpt lat="42.1474917" lon="13.291285"><ele>763.0</ele><time>2026-05-02T14:44:23.082Z</time></trkpt><trkpt lat="42.1474483" lon="13.2911917"><ele>760.5999999999999</ele><time>2026-05-02T14:44:24.082Z</time></trkpt><trkpt lat="42.1474217" lon="13.2911017"><ele>758.1999999999999</ele><time>2026-05-02T14:44:25.082Z</time></trkpt><trkpt lat="42.1474483" lon="13.2909467"><ele>755.8</ele><time>2026-05-02T14:44:27.081Z</time></trkpt><trkpt lat="42.1474833" lon="13.2908633"><ele>753.4</ele><time>2026-05-02T14:44:28.082Z</time></trkpt><trkpt lat="42.1475433" lon="13.29075"><ele>751.0</ele><time>2026-05-02T14:44:29.081Z</time></trkpt><trkpt lat="42.147615" lon="13.2906133"><ele>751.5</ele><time>2026-05-02T14:44:30.081Z</time></trkpt><trkpt lat="42.1476983" lon="13.2905"><ele>752.0</ele><time>2026-05-02T14:44:31.081Z</time></trkpt><trkpt lat="42.1477783" lon="13.2904017"><ele>752.5</ele><time>2026-05-02T14:44:32.082Z</time></trkpt><trkpt lat="42.1478667" lon="13.2903167"><ele>753.0</ele><time>2026-05-02T14:44:33.082Z</time></trkpt><trkpt lat="42.1479783" lon="13.2902433"><ele>753.0</ele><time>2026-05-02T14:44:34.081Z</time></trkpt><trkpt lat="42.1481083" lon="13.29017"><ele>753.0</ele><time>2026-05-02T14:44:35.081Z</time></trkpt><trkpt lat="42.1482417" lon="13.2900867"><ele>753.0</ele><time>2026-05-02T14:44:36.081Z</time></trkpt><trkpt lat="42.14839" lon="13.2900017"><ele>753.0</ele><time>2026-05-02T14:44:37.081Z</time></trkpt><trkpt lat="42.14852" lon="13.2899067"><ele>749.5</ele><time>2026-05-02T14:44:38.082Z</time></trkpt><trkpt lat="42.1486433" lon="13.2898017"><ele>746.0</ele><time>2026-05-02T14:44:39.082Z</time></trkpt><trkpt lat="42.1487667" lon="13.2897067"><ele>742.5</ele><time>2026-05-02T14:44:40.082Z</time></trkpt><trkpt lat="42.148875" lon="13.2896167"><ele>739.0</ele><time>2026-05-02T14:44:41.081Z</time></trkpt><trkpt lat="42.14897" lon="13.289515"><ele>739.25</ele><time>2026-05-02T14:44:42.082Z</time></trkpt><trkpt lat="42.1490567" lon="13.2893983"><ele>739.5</ele><time>2026-05-02T14:44:43.081Z</time></trkpt><trkpt lat="42.1491467" lon="13.2892717"><ele>739.75</ele><time>2026-05-02T14:44:44.081Z</time></trkpt><trkpt lat="42.1492167" lon="13.28916"><ele>740.0</ele><time>2026-05-02T14:44:45.082Z</time></trkpt><trkpt lat="42.1492883" lon="13.2890567"><ele>740.0</ele><time>2026-05-02T14:44:46.082Z</time></trkpt><trkpt lat="42.1493583" lon="13.2889617"><ele>740.0</ele><time>2026-05-02T14:44:47.081Z</time></trkpt><trkpt lat="42.1494333" lon="13.2888867"><ele>740.0</ele><time>2026-05-02T14:44:48.081Z</time></trkpt><trkpt lat="42.1495133" lon="13.288805"><ele>740.0</ele><time>2026-05-02T14:44:49.081Z</time></trkpt><trkpt lat="42.1495983" lon="13.288715"><ele>740.0</ele><time>2026-05-02T14:44:50.081Z</time></trkpt><trkpt lat="42.1496967" lon="13.2885983"><ele>740.75</ele><time>2026-05-02T14:44:51.081Z</time></trkpt><trkpt lat="42.1497883" lon="13.2884783"><ele>741.5</ele><time>2026-05-02T14:44:52.081Z</time></trkpt><trkpt lat="42.149885" lon="13.2883483"><ele>742.25</ele><time>2026-05-02T14:44:53.082Z</time></trkpt><trkpt lat="42.1499683" lon="13.28821"><ele>743.0</ele><time>2026-05-02T14:44:54.081Z</time></trkpt><trkpt lat="42.15006" lon="13.2880567"><ele>740.5</ele><time>2026-05-02T14:44:55.081Z</time></trkpt><trkpt lat="42.150135" lon="13.28792"><ele>738.0</ele><time>2026-05-02T14:44:56.082Z</time></trkpt><trkpt lat="42.1501967" lon="13.2877867"><ele>735.5</ele><time>2026-05-02T14:44:57.081Z</time></trkpt><trkpt lat="42.1502583" lon="13.28766"><ele>733.0</ele><time>2026-05-02T14:44:58.082Z</time></trkpt><trkpt lat="42.1503267" lon="13.2875267"><ele>733.0</ele><time>2026-05-02T14:44:59.082Z</time></trkpt><trkpt lat="42.1503883" lon="13.2873967"><ele>733.0</ele><time>2026-05-02T14:45:00.082Z</time></trkpt><trkpt lat="42.15046" lon="13.2872583"><ele>733.0</ele><time>2026-05-02T14:45:01.082Z</time></trkpt><trkpt lat="42.150535" lon="13.2871333"><ele>733.0</ele><time>2026-05-02T14:45:02.081Z</time></trkpt><trkpt lat="42.1506033" lon="13.2870367"><ele>732.8333333333334</ele><time>2026-05-02T14:45:03.082Z</time></trkpt><trkpt lat="42.1506733" lon="13.2869633"><ele>732.6666666666667</ele><time>2026-05-02T14:45:04.082Z</time></trkpt><trkpt lat="42.15073" lon="13.28691"><ele>732.5</ele><time>2026-05-02T14:45:05.081Z</time></trkpt><trkpt lat="42.1508067" lon="13.286865"><ele>732.3333333333334</ele><time>2026-05-02T14:45:07.081Z</time></trkpt><trkpt lat="42.1508733" lon="13.286815"><ele>732.1666666666666</ele><time>2026-05-02T14:45:08.081Z</time></trkpt><trkpt lat="42.15094" lon="13.286735"><ele>732.0</ele><time>2026-05-02T14:45:09.081Z</time></trkpt><trkpt lat="42.15102" lon="13.28665"><ele>731.5</ele><time>2026-05-02T14:45:10.081Z</time></trkpt><trkpt lat="42.151095" lon="13.2865467"><ele>731.0</ele><time>2026-05-02T14:45:11.082Z</time></trkpt><trkpt lat="42.1511717" lon="13.2864417"><ele>730.5</ele><time>2026-05-02T14:45:12.081Z</time></trkpt><trkpt lat="42.1512517" lon="13.2863183"><ele>730.0</ele><time>2026-05-02T14:45:13.081Z</time></trkpt><trkpt lat="42.1513417" lon="13.2861683"><ele>729.5</ele><time>2026-05-02T14:45:14.082Z</time></trkpt><trkpt lat="42.1514417" lon="13.28603"><ele>729.0</ele><time>2026-05-02T14:45:15.081Z</time></trkpt><trkpt lat="42.1515233" lon="13.2859067"><ele>728.5</ele><time>2026-05-02T14:45:16.082Z</time></trkpt><trkpt lat="42.1516117" lon="13.2857983"><ele>728.0</ele><time>2026-05-02T14:45:17.082Z</time></trkpt><trkpt lat="42.1517133" lon="13.2857117"><ele>727.5</ele><time>2026-05-02T14:45:18.082Z</time></trkpt><trkpt lat="42.1518033" lon="13.285615"><ele>727.0</ele><time>2026-05-02T14:45:19.082Z</time></trkpt><trkpt lat="42.1519" lon="13.2855133"><ele>726.5</ele><time>2026-05-02T14:45:20.082Z</time></trkpt><trkpt lat="42.152015" lon="13.2854"><ele>726.0</ele><time>2026-05-02T14:45:21.081Z</time></trkpt><trkpt lat="42.1521183" lon="13.2852733"><ele>726.0</ele><time>2026-05-02T14:45:22.081Z</time></trkpt><trkpt lat="42.152235" lon="13.28514"><ele>726.0</ele><time>2026-05-02T14:45:23.082Z</time></trkpt><trkpt lat="42.152355" lon="13.2850083"><ele>726.0</ele><time>2026-05-02T14:45:24.081Z</time></trkpt><trkpt lat="42.1524733" lon="13.2848883"><ele>726.0</ele><time>2026-05-02T14:45:25.081Z</time></trkpt><trkpt lat="42.1525917" lon="13.2847683"><ele>726.0</ele><time>2026-05-02T14:45:26.082Z</time></trkpt><trkpt lat="42.1527067" lon="13.2846383"><ele>726.0</ele><time>2026-05-02T14:45:27.081Z</time></trkpt><trkpt lat="42.1528233" lon="13.2845"><ele>725.3333333333334</ele><time>2026-05-02T14:45:28.081Z</time></trkpt><trkpt lat="42.152945" lon="13.2843467"><ele>724.6666666666667</ele><time>2026-05-02T14:45:29.082Z</time></trkpt><trkpt lat="42.15305" lon="13.28419"><ele>724.0</ele><time>2026-05-02T14:45:30.082Z</time></trkpt><trkpt lat="42.1531517" lon="13.284035"><ele>725.0</ele><time>2026-05-02T14:45:31.082Z</time></trkpt><trkpt lat="42.15325" lon="13.2838783"><ele>726.0</ele><time>2026-05-02T14:45:32.082Z</time></trkpt><trkpt lat="42.1533433" lon="13.28372"><ele>727.0</ele><time>2026-05-02T14:45:33.081Z</time></trkpt><trkpt lat="42.1534367" lon="13.283565"><ele>727.0</ele><time>2026-05-02T14:45:34.081Z</time></trkpt><trkpt lat="42.1535267" lon="13.28341"><ele>727.0</ele><time>2026-05-02T14:45:35.081Z</time></trkpt><trkpt lat="42.1536117" lon="13.2832617"><ele>727.0</ele><time>2026-05-02T14:45:36.081Z</time></trkpt><trkpt lat="42.1537117" lon="13.2831083"><ele>727.0</ele><time>2026-05-02T14:45:37.081Z</time></trkpt><trkpt lat="42.153825" lon="13.2829517"><ele>727.0</ele><time>2026-05-02T14:45:38.082Z</time></trkpt><trkpt lat="42.1539317" lon="13.28281"><ele>727.0</ele><time>2026-05-02T14:45:39.081Z</time></trkpt><trkpt lat="42.154045" lon="13.2826633"><ele>727.0</ele><time>2026-05-02T14:45:40.081Z</time></trkpt><trkpt lat="42.1541533" lon="13.2825133"><ele>727.3333333333334</ele><time>2026-05-02T14:45:41.082Z</time></trkpt><trkpt lat="42.15427" lon="13.28236"><ele>727.6666666666666</ele><time>2026-05-02T14:45:42.082Z</time></trkpt><trkpt lat="42.1543817" lon="13.2822067"><ele>728.0</ele><time>2026-05-02T14:45:43.082Z</time></trkpt><trkpt lat="42.1544983" lon="13.2820683"><ele>728.3333333333333</ele><time>2026-05-02T14:45:44.081Z</time></trkpt><trkpt lat="42.1546283" lon="13.2819533"><ele>728.6666666666666</ele><time>2026-05-02T14:45:45.082Z</time></trkpt><trkpt lat="42.1547583" lon="13.2818567"><ele>729.0</ele><time>2026-05-02T14:45:46.081Z</time></trkpt><trkpt lat="42.1548983" lon="13.2817683"><ele>730.0</ele><time>2026-05-02T14:45:47.081Z</time></trkpt><trkpt lat="42.1550383" lon="13.2816833"><ele>731.0</ele><time>2026-05-02T14:45:48.081Z</time></trkpt><trkpt lat="42.1551867" lon="13.28159"><ele>732.0</ele><time>2026-05-02T14:45:49.081Z</time></trkpt><trkpt lat="42.1553317" lon="13.2814717"><ele>731.3333333333334</ele><time>2026-05-02T14:45:50.082Z</time></trkpt><trkpt lat="42.1554783" lon="13.281335"><ele>730.6666666666667</ele><time>2026-05-02T14:45:51.082Z</time></trkpt><trkpt lat="42.1556217" lon="13.28119"><ele>730.0</ele><time>2026-05-02T14:45:52.082Z</time></trkpt><trkpt lat="42.1557617" lon="13.281055"><ele>731.3333333333334</ele><time>2026-05-02T14:45:53.081Z</time></trkpt><trkpt lat="42.1559167" lon="13.2809183"><ele>732.6666666666666</ele><time>2026-05-02T14:45:54.081Z</time></trkpt><trkpt lat="42.1560733" lon="13.2807883"><ele>734.0</ele><time>2026-05-02T14:45:55.081Z</time></trkpt><trkpt lat="42.1562367" lon="13.2806483"><ele>734.3333333333333</ele><time>2026-05-02T14:45:56.081Z</time></trkpt><trkpt lat="42.1564017" lon="13.2805083"><ele>734.6666666666666</ele><time>2026-05-02T14:45:57.081Z</time></trkpt><trkpt lat="42.156555" lon="13.28037"><ele>735.0</ele><time>2026-05-02T14:45:58.082Z</time></trkpt><trkpt lat="42.1566883" lon="13.2802517"><ele>736.0</ele><time>2026-05-02T14:45:59.081Z</time></trkpt><trkpt lat="42.1568183" lon="13.2801483"><ele>737.0</ele><time>2026-05-02T14:46:00.081Z</time></trkpt><trkpt lat="42.15695" lon="13.28004"><ele>738.0</ele><time>2026-05-02T14:46:01.082Z</time></trkpt><trkpt lat="42.1571017" lon="13.2799433"><ele>738.0</ele><time>2026-05-02T14:46:02.082Z</time></trkpt><trkpt lat="42.1572617" lon="13.279855"><ele>738.0</ele><time>2026-05-02T14:46:03.082Z</time></trkpt><trkpt lat="42.1574367" lon="13.2797733"><ele>738.0</ele><time>2026-05-02T14:46:04.082Z</time></trkpt><trkpt lat="42.15762" lon="13.2797"><ele>738.3333333333334</ele><time>2026-05-02T14:46:05.082Z</time></trkpt><trkpt lat="42.1578017" lon="13.2796367"><ele>738.6666666666667</ele><time>2026-05-02T14:46:06.081Z</time></trkpt><trkpt lat="42.1579933" lon="13.2795867"><ele>739.0</ele><time>2026-05-02T14:46:07.081Z</time></trkpt><trkpt lat="42.15818" lon="13.2795483"><ele>740.3333333333334</ele><time>2026-05-02T14:46:08.081Z</time></trkpt><trkpt lat="42.1583633" lon="13.279515"><ele>741.6666666666666</ele><time>2026-05-02T14:46:09.082Z</time></trkpt><trkpt lat="42.158555" lon="13.27948"><ele>743.0</ele><time>2026-05-02T14:46:10.082Z</time></trkpt><trkpt lat="42.1587567" lon="13.2794517"><ele>743.0</ele><time>2026-05-02T14:46:11.081Z</time></trkpt><trkpt lat="42.15896" lon="13.2794133"><ele>743.0</ele><time>2026-05-02T14:46:12.082Z</time></trkpt><trkpt lat="42.1591517" lon="13.2793667"><ele>743.0</ele><time>2026-05-02T14:46:13.081Z</time></trkpt><trkpt lat="42.1593433" lon="13.279315"><ele>744.6666666666666</ele><time>2026-05-02T14:46:14.081Z</time></trkpt><trkpt lat="42.1595217" lon="13.2792667"><ele>746.3333333333334</ele><time>2026-05-02T14:46:15.081Z</time></trkpt><trkpt lat="42.1596933" lon="13.2792233"><ele>748.0</ele><time>2026-05-02T14:46:16.082Z</time></trkpt><trkpt lat="42.15987" lon="13.2791833"><ele>749.0</ele><time>2026-05-02T14:46:17.082Z</time></trkpt><trkpt lat="42.1600483" lon="13.2791417"><ele>750.0</ele><time>2026-05-02T14:46:18.082Z</time></trkpt><trkpt lat="42.160235" lon="13.2790933"><ele>751.0</ele><time>2026-05-02T14:46:19.081Z</time></trkpt><trkpt lat="42.1604267" lon="13.2790383"><ele>751.0</ele><time>2026-05-02T14:46:20.082Z</time></trkpt><trkpt lat="42.1606183" lon="13.27897"><ele>751.0</ele><time>2026-05-02T14:46:21.081Z</time></trkpt><trkpt lat="42.1608083" lon="13.2789017"><ele>751.0</ele><time>2026-05-02T14:46:22.081Z</time></trkpt><trkpt lat="42.160995" lon="13.2788383"><ele>752.0</ele><time>2026-05-02T14:46:23.081Z</time></trkpt><trkpt lat="42.16118" lon="13.2787833"><ele>753.0</ele><time>2026-05-02T14:46:24.082Z</time></trkpt><trkpt lat="42.1613783" lon="13.27873"><ele>754.0</ele><time>2026-05-02T14:46:25.081Z</time></trkpt><trkpt lat="42.1615783" lon="13.2786683"><ele>755.0</ele><time>2026-05-02T14:46:26.082Z</time></trkpt><trkpt lat="42.161775" lon="13.278605"><ele>756.0</ele><time>2026-05-02T14:46:27.081Z</time></trkpt><trkpt lat="42.1619767" lon="13.2785383"><ele>757.0</ele><time>2026-05-02T14:46:28.081Z</time></trkpt><trkpt lat="42.1621767" lon="13.2784733"><ele>758.3333333333334</ele><time>2026-05-02T14:46:29.081Z</time></trkpt><trkpt lat="42.1623783" lon="13.278395"><ele>759.6666666666666</ele><time>2026-05-02T14:46:30.082Z</time></trkpt><trkpt lat="42.16258" lon="13.2783283"><ele>761.0</ele><time>2026-05-02T14:46:31.081Z</time></trkpt><trkpt lat="42.1627783" lon="13.2782567"><ele>761.0</ele><time>2026-05-02T14:46:32.081Z</time></trkpt><trkpt lat="42.1629667" lon="13.2781967"><ele>761.0</ele><time>2026-05-02T14:46:33.081Z</time></trkpt><trkpt lat="42.1631583" lon="13.27814"><ele>761.0</ele><time>2026-05-02T14:46:34.081Z</time></trkpt><trkpt lat="42.1633317" lon="13.2780867"><ele>762.3333333333333</ele><time>2026-05-02T14:46:35.081Z</time></trkpt><trkpt lat="42.1634883" lon="13.2780217"><ele>763.6666666666666</ele><time>2026-05-02T14:46:36.081Z</time></trkpt><trkpt lat="42.1636267" lon="13.2779433"><ele>765.0</ele><time>2026-05-02T14:46:37.082Z</time></trkpt><trkpt lat="42.1637683" lon="13.277855"><ele>765.0</ele><time>2026-05-02T14:46:38.081Z</time></trkpt><trkpt lat="42.16391" lon="13.2777417"><ele>765.0</ele><time>2026-05-02T14:46:39.082Z</time></trkpt><trkpt lat="42.1640317" lon="13.2776283"><ele>765.0</ele><time>2026-05-02T14:46:40.081Z</time></trkpt><trkpt lat="42.1641467" lon="13.2775483"><ele>765.0</ele><time>2026-05-02T14:46:41.081Z</time></trkpt><trkpt lat="42.1642567" lon="13.2775"><ele>765.0</ele><time>2026-05-02T14:46:42.081Z</time></trkpt><trkpt lat="42.1643767" lon="13.2774817"><ele>765.0</ele><time>2026-05-02T14:46:43.081Z</time></trkpt><trkpt lat="42.1645217" lon="13.277475"><ele>765.0</ele><time>2026-05-02T14:46:44.081Z</time></trkpt><trkpt lat="42.164685" lon="13.2774717"><ele>765.0</ele><time>2026-05-02T14:46:45.082Z</time></trkpt><trkpt lat="42.1648517" lon="13.27747"><ele>764.3333333333334</ele><time>2026-05-02T14:46:46.081Z</time></trkpt><trkpt lat="42.1650183" lon="13.2774617"><ele>763.6666666666667</ele><time>2026-05-02T14:46:47.081Z</time></trkpt><trkpt lat="42.1651817" lon="13.2774617"><ele>763.0</ele><time>2026-05-02T14:46:48.082Z</time></trkpt><trkpt lat="42.16534" lon="13.2774633"><ele>763.0</ele><time>2026-05-02T14:46:49.082Z</time></trkpt><trkpt lat="42.1655033" lon="13.2774567"><ele>763.0</ele><time>2026-05-02T14:46:50.082Z</time></trkpt><trkpt lat="42.16566" lon="13.2774517"><ele>763.0</ele><time>2026-05-02T14:46:51.082Z</time></trkpt><trkpt lat="42.1658217" lon="13.277435"><ele>762.3333333333334</ele><time>2026-05-02T14:46:52.082Z</time></trkpt><trkpt lat="42.16598" lon="13.27741"><ele>761.6666666666666</ele><time>2026-05-02T14:46:53.082Z</time></trkpt><trkpt lat="42.1661533" lon="13.2773467"><ele>761.0</ele><time>2026-05-02T14:46:54.081Z</time></trkpt><trkpt lat="42.16633" lon="13.2772633"><ele>760.6666666666666</ele><time>2026-05-02T14:46:55.081Z</time></trkpt><trkpt lat="42.1665033" lon="13.2771717"><ele>760.3333333333334</ele><time>2026-05-02T14:46:56.082Z</time></trkpt><trkpt lat="42.16666" lon="13.2770883"><ele>760.0</ele><time>2026-05-02T14:46:57.081Z</time></trkpt><trkpt lat="42.1667917" lon="13.2770217"><ele>761.5</ele><time>2026-05-02T14:46:58.082Z</time></trkpt><trkpt lat="42.1669033" lon="13.27697"><ele>763.0</ele><time>2026-05-02T14:46:59.081Z</time></trkpt><trkpt lat="42.1670167" lon="13.2769417"><ele>764.5</ele><time>2026-05-02T14:47:00.082Z</time></trkpt><trkpt lat="42.16714" lon="13.2769233"><ele>766.0</ele><time>2026-05-02T14:47:01.082Z</time></trkpt><trkpt lat="42.1672733" lon="13.2769117"><ele>767.8333333333334</ele><time>2026-05-02T14:47:02.082Z</time></trkpt><trkpt lat="42.1673733" lon="13.2768983"><ele>769.6666666666667</ele><time>2026-05-02T14:47:03.081Z</time></trkpt><trkpt lat="42.16744" lon="13.2768867"><ele>771.5</ele><time>2026-05-02T14:47:04.082Z</time></trkpt><trkpt lat="42.1675333" lon="13.2768333"><ele>773.3333333333334</ele><time>2026-05-02T14:47:06.081Z</time></trkpt><trkpt lat="42.1675817" lon="13.2767767"><ele>775.1666666666666</ele><time>2026-05-02T14:47:07.081Z</time></trkpt><trkpt lat="42.1676367" lon="13.2767"><ele>777.0</ele><time>2026-05-02T14:47:08.082Z</time></trkpt><trkpt lat="42.1676883" lon="13.2766133"><ele>777.0</ele><time>2026-05-02T14:47:09.081Z</time></trkpt><trkpt lat="42.1676967" lon="13.276475"><ele>777.0</ele><time>2026-05-02T14:47:10.081Z</time></trkpt><trkpt lat="42.1677317" lon="13.2763567"><ele>777.0</ele><time>2026-05-02T14:47:11.081Z</time></trkpt><trkpt lat="42.167775" lon="13.2762617"><ele>777.0</ele><time>2026-05-02T14:47:12.082Z</time></trkpt><trkpt lat="42.1678267" lon="13.2762117"><ele>777.0</ele><time>2026-05-02T14:47:13.081Z</time></trkpt><trkpt lat="42.1679467" lon="13.2762233"><ele>778.0</ele><time>2026-05-02T14:47:15.081Z</time></trkpt><trkpt lat="42.1680367" lon="13.27626"><ele>779.0</ele><time>2026-05-02T14:47:16.081Z</time></trkpt><trkpt lat="42.16813" lon="13.2762967"><ele>780.0</ele><time>2026-05-02T14:47:17.082Z</time></trkpt><trkpt lat="42.1682317" lon="13.2763067"><ele>781.0</ele><time>2026-05-02T14:47:18.082Z</time></trkpt><trkpt lat="42.1683383" lon="13.276295"><ele>782.0</ele><time>2026-05-02T14:47:19.081Z</time></trkpt><trkpt lat="42.168455" lon="13.2762683"><ele>782.0</ele><time>2026-05-02T14:47:20.081Z</time></trkpt><trkpt lat="42.16858" lon="13.2762333"><ele>782.0</ele><time>2026-05-02T14:47:21.081Z</time></trkpt><trkpt lat="42.1687183" lon="13.27619"><ele>782.0</ele><time>2026-05-02T14:47:22.081Z</time></trkpt><trkpt lat="42.16887" lon="13.2761517"><ele>782.0</ele><time>2026-05-02T14:47:23.081Z</time></trkpt><trkpt lat="42.1690217" lon="13.2761"><ele>784.3333333333334</ele><time>2026-05-02T14:47:24.081Z</time></trkpt><trkpt lat="42.16917" lon="13.2760483"><ele>786.6666666666667</ele><time>2026-05-02T14:47:25.081Z</time></trkpt><trkpt lat="42.169325" lon="13.2760033"><ele>789.0</ele><time>2026-05-02T14:47:26.081Z</time></trkpt><trkpt lat="42.1694717" lon="13.27596"><ele>789.0</ele><time>2026-05-02T14:47:27.081Z</time></trkpt><trkpt lat="42.16961" lon="13.27592"><ele>789.0</ele><time>2026-05-02T14:47:28.082Z</time></trkpt><trkpt lat="42.1697533" lon="13.2758767"><ele>789.0</ele><time>2026-05-02T14:47:29.082Z</time></trkpt><trkpt lat="42.1698967" lon="13.2758333"><ele>789.0</ele><time>2026-05-02T14:47:30.081Z</time></trkpt><trkpt lat="42.1700433" lon="13.2757817"><ele>790.25</ele><time>2026-05-02T14:47:31.081Z</time></trkpt><trkpt lat="42.1701867" lon="13.2757533"><ele>791.5</ele><time>2026-05-02T14:47:32.082Z</time></trkpt><trkpt lat="42.1703317" lon="13.27572"><ele>792.75</ele><time>2026-05-02T14:47:33.081Z</time></trkpt><trkpt lat="42.1704567" lon="13.2757017"><ele>794.0</ele><time>2026-05-02T14:47:34.081Z</time></trkpt><trkpt lat="42.1705517" lon="13.2756883"><ele>794.0000000000001</ele><time>2026-05-02T14:47:35.082Z</time></trkpt><trkpt lat="42.1706383" lon="13.2756833"><ele>794.0</ele><time>2026-05-02T14:47:36.082Z</time></trkpt><trkpt lat="42.1707117" lon="13.2756817"><ele>794.0</ele><time>2026-05-02T14:47:37.082Z</time></trkpt><trkpt lat="42.170805" lon="13.2756767"><ele>794.0</ele><time>2026-05-02T14:47:39.082Z</time></trkpt><trkpt lat="42.17092" lon="13.2756467"><ele>794.0000000000001</ele><time>2026-05-02T14:47:42.081Z</time></trkpt><trkpt lat="42.17099" lon="13.2756267"><ele>794.0</ele><time>2026-05-02T14:47:43.082Z</time></trkpt><trkpt lat="42.1710783" lon="13.2756233"><ele>795.5</ele><time>2026-05-02T14:47:44.081Z</time></trkpt><trkpt lat="42.1711833" lon="13.275635"><ele>797.0</ele><time>2026-05-02T14:47:45.082Z</time></trkpt><trkpt lat="42.171305" lon="13.2756533"><ele>798.5</ele><time>2026-05-02T14:47:46.082Z</time></trkpt><trkpt lat="42.1714233" lon="13.2756867"><ele>800.0</ele><time>2026-05-02T14:47:47.082Z</time></trkpt><trkpt lat="42.1715633" lon="13.275745"><ele>800.25</ele><time>2026-05-02T14:47:48.082Z</time></trkpt><trkpt lat="42.1716967" lon="13.27582"><ele>800.5</ele><time>2026-05-02T14:47:49.081Z</time></trkpt><trkpt lat="42.171835" lon="13.2758933"><ele>800.75</ele><time>2026-05-02T14:47:50.081Z</time></trkpt><trkpt lat="42.1719717" lon="13.27596"><ele>801.0</ele><time>2026-05-02T14:47:51.081Z</time></trkpt><trkpt lat="42.1720967" lon="13.2760133"><ele>801.0</ele><time>2026-05-02T14:47:52.082Z</time></trkpt><trkpt lat="42.1722117" lon="13.2760667"><ele>801.0</ele><time>2026-05-02T14:47:53.081Z</time></trkpt><trkpt lat="42.172315" lon="13.2761083"><ele>801.0</ele><time>2026-05-02T14:47:54.082Z</time></trkpt><trkpt lat="42.172415" lon="13.2761467"><ele>801.0</ele><time>2026-05-02T14:47:55.081Z</time></trkpt><trkpt lat="42.172525" lon="13.2761933"><ele>801.0</ele><time>2026-05-02T14:47:56.081Z</time></trkpt><trkpt lat="42.172625" lon="13.2762467"><ele>801.1999999999999</ele><time>2026-05-02T14:47:57.082Z</time></trkpt><trkpt lat="42.1727283" lon="13.27628"><ele>801.4</ele><time>2026-05-02T14:47:58.082Z</time></trkpt><trkpt lat="42.172835" lon="13.2763167"><ele>801.6</ele><time>2026-05-02T14:47:59.082Z</time></trkpt><trkpt lat="42.1729467" lon="13.27635"><ele>801.8</ele><time>2026-05-02T14:48:00.081Z</time></trkpt><trkpt lat="42.1730567" lon="13.2763667"><ele>802.0</ele><time>2026-05-02T14:48:01.082Z</time></trkpt><trkpt lat="42.1731517" lon="13.276375"><ele>804.0</ele><time>2026-05-02T14:48:02.081Z</time></trkpt><trkpt lat="42.1732383" lon="13.27635"><ele>806.0</ele><time>2026-05-02T14:48:03.081Z</time></trkpt><trkpt lat="42.1733333" lon="13.276305"><ele>808.0</ele><time>2026-05-02T14:48:04.081Z</time></trkpt><trkpt lat="42.173425" lon="13.2762533"><ele>810.0</ele><time>2026-05-02T14:48:05.082Z</time></trkpt><trkpt lat="42.1735217" lon="13.2762167"><ele>812.0</ele><time>2026-05-02T14:48:06.081Z</time></trkpt><trkpt lat="42.1736167" lon="13.27619"><ele>812.0</ele><time>2026-05-02T14:48:07.082Z</time></trkpt><trkpt lat="42.1737183" lon="13.2761633"><ele>812.0</ele><time>2026-05-02T14:48:08.082Z</time></trkpt><trkpt lat="42.1738217" lon="13.2761383"><ele>812.0</ele><time>2026-05-02T14:48:09.082Z</time></trkpt><trkpt lat="42.17392" lon="13.2761133"><ele>812.0</ele><time>2026-05-02T14:48:10.082Z</time></trkpt><trkpt lat="42.174005" lon="13.2760983"><ele>812.0</ele><time>2026-05-02T14:48:11.081Z</time></trkpt><trkpt lat="42.1740683" lon="13.276105"><ele>814.75</ele><time>2026-05-02T14:48:12.081Z</time></trkpt><trkpt lat="42.1741867" lon="13.276175"><ele>817.5</ele><time>2026-05-02T14:48:14.082Z</time></trkpt><trkpt lat="42.174265" lon="13.2762433"><ele>820.25</ele><time>2026-05-02T14:48:15.081Z</time></trkpt><trkpt lat="42.1743583" lon="13.276325"><ele>823.0</ele><time>2026-05-02T14:48:16.082Z</time></trkpt><trkpt lat="42.17447" lon="13.27642"><ele>823.5</ele><time>2026-05-02T14:48:17.082Z</time></trkpt><trkpt lat="42.1745883" lon="13.2765167"><ele>824.0</ele><time>2026-05-02T14:48:18.081Z</time></trkpt><trkpt lat="42.1747167" lon="13.2765917"><ele>824.5</ele><time>2026-05-02T14:48:19.082Z</time></trkpt><trkpt lat="42.1748517" lon="13.2766117"><ele>825.0</ele><time>2026-05-02T14:48:20.081Z</time></trkpt><trkpt lat="42.1749867" lon="13.2765733"><ele>826.3333333333333</ele><time>2026-05-02T14:48:21.081Z</time></trkpt><trkpt lat="42.1751117" lon="13.27649"><ele>827.6666666666666</ele><time>2026-05-02T14:48:22.082Z</time></trkpt><trkpt lat="42.1752217" lon="13.276355"><ele>829.0</ele><time>2026-05-02T14:48:23.082Z</time></trkpt><trkpt lat="42.1753167" lon="13.2761783"><ele>829.3333333333333</ele><time>2026-05-02T14:48:24.082Z</time></trkpt><trkpt lat="42.1753933" lon="13.275975"><ele>829.6666666666667</ele><time>2026-05-02T14:48:25.081Z</time></trkpt><trkpt lat="42.17547" lon="13.2757917"><ele>830.0</ele><time>2026-05-02T14:48:26.081Z</time></trkpt><trkpt lat="42.1755533" lon="13.2756383"><ele>830.0</ele><time>2026-05-02T14:48:27.082Z</time></trkpt><trkpt lat="42.1756283" lon="13.2755183"><ele>830.0</ele><time>2026-05-02T14:48:28.081Z</time></trkpt><trkpt lat="42.1757183" lon="13.2754267"><ele>830.0</ele><time>2026-05-02T14:48:29.081Z</time></trkpt><trkpt lat="42.1758433" lon="13.2753583"><ele>830.0</ele><time>2026-05-02T14:48:30.082Z</time></trkpt><trkpt lat="42.1759967" lon="13.2753017"><ele>830.0</ele><time>2026-05-02T14:48:31.082Z</time></trkpt><trkpt lat="42.1761583" lon="13.2752533"><ele>830.0</ele><time>2026-05-02T14:48:32.081Z</time></trkpt><trkpt lat="42.17632" lon="13.27522"><ele>830.0</ele><time>2026-05-02T14:48:33.081Z</time></trkpt><trkpt lat="42.1764783" lon="13.2751817"><ele>828.0</ele><time>2026-05-02T14:48:34.081Z</time></trkpt><trkpt lat="42.1766333" lon="13.27514"><ele>826.0</ele><time>2026-05-02T14:48:35.081Z</time></trkpt><trkpt lat="42.1767717" lon="13.2750933"><ele>824.0</ele><time>2026-05-02T14:48:36.081Z</time></trkpt><trkpt lat="42.1768983" lon="13.27506"><ele>822.0</ele><time>2026-05-02T14:48:37.081Z</time></trkpt><trkpt lat="42.1770067" lon="13.275025"><ele>822.0</ele><time>2026-05-02T14:48:38.081Z</time></trkpt><trkpt lat="42.1770933" lon="13.275"><ele>822.0</ele><time>2026-05-02T14:48:39.082Z</time></trkpt><trkpt lat="42.1771667" lon="13.274985"><ele>822.0</ele><time>2026-05-02T14:48:40.081Z</time></trkpt><trkpt lat="42.1772833" lon="13.2749983"><ele>822.0</ele><time>2026-05-02T14:48:42.082Z</time></trkpt><trkpt lat="42.177375" lon="13.2750483"><ele>822.0</ele><time>2026-05-02T14:48:44.082Z</time></trkpt><trkpt lat="42.1775017" lon="13.275075"><ele>821.6</ele><time>2026-05-02T14:48:46.081Z</time></trkpt><trkpt lat="42.17756" lon="13.2751767"><ele>821.2</ele><time>2026-05-02T14:48:48.082Z</time></trkpt><trkpt lat="42.1775583" lon="13.2753517"><ele>820.8</ele><time>2026-05-02T14:48:50.081Z</time></trkpt><trkpt lat="42.1775483" lon="13.2754783"><ele>820.4</ele><time>2026-05-02T14:48:51.082Z</time></trkpt><trkpt lat="42.17755" lon="13.27561"><ele>820.0</ele><time>2026-05-02T14:48:52.081Z</time></trkpt><trkpt lat="42.1775767" lon="13.275755"><ele>820.0</ele><time>2026-05-02T14:48:53.082Z</time></trkpt><trkpt lat="42.1776117" lon="13.2759017"><ele>820.0</ele><time>2026-05-02T14:48:54.081Z</time></trkpt><trkpt lat="42.1776383" lon="13.2760467"><ele>820.0</ele><time>2026-05-02T14:48:55.081Z</time></trkpt><trkpt lat="42.1776567" lon="13.2761717"><ele>820.0</ele><time>2026-05-02T14:48:56.082Z</time></trkpt><trkpt lat="42.1776683" lon="13.276295"><ele>820.0</ele><time>2026-05-02T14:48:57.081Z</time></trkpt><trkpt lat="42.17767" lon="13.276415"><ele>820.4</ele><time>2026-05-02T14:48:58.082Z</time></trkpt><trkpt lat="42.17766" lon="13.2765367"><ele>820.8</ele><time>2026-05-02T14:48:59.081Z</time></trkpt><trkpt lat="42.1776467" lon="13.2766733"><ele>821.2</ele><time>2026-05-02T14:49:00.081Z</time></trkpt><trkpt lat="42.1776233" lon="13.2768083"><ele>821.6</ele><time>2026-05-02T14:49:01.081Z</time></trkpt><trkpt lat="42.1776083" lon="13.27696"><ele>822.0</ele><time>2026-05-02T14:49:02.082Z</time></trkpt><trkpt lat="42.1776" lon="13.2771067"><ele>822.0</ele><time>2026-05-02T14:49:03.081Z</time></trkpt><trkpt lat="42.1775917" lon="13.2772483"><ele>822.0</ele><time>2026-05-02T14:49:04.082Z</time></trkpt><trkpt lat="42.177585" lon="13.2774067"><ele>822.0</ele><time>2026-05-02T14:49:05.082Z</time></trkpt><trkpt lat="42.1775733" lon="13.2775583"><ele>822.0</ele><time>2026-05-02T14:49:06.081Z</time></trkpt><trkpt lat="42.17756" lon="13.2777133"><ele>822.4000000000001</ele><time>2026-05-02T14:49:07.082Z</time></trkpt><trkpt lat="42.1775333" lon="13.2778717"><ele>822.8000000000001</ele><time>2026-05-02T14:49:08.082Z</time></trkpt><trkpt lat="42.177505" lon="13.2780233"><ele>823.2</ele><time>2026-05-02T14:49:09.081Z</time></trkpt><trkpt lat="42.1774717" lon="13.2781433"><ele>823.6</ele><time>2026-05-02T14:49:10.082Z</time></trkpt><trkpt lat="42.1774183" lon="13.2782517"><ele>824.0</ele><time>2026-05-02T14:49:11.081Z</time></trkpt><trkpt lat="42.1773483" lon="13.2783567"><ele>825.8000000000001</ele><time>2026-05-02T14:49:12.081Z</time></trkpt><trkpt lat="42.1772617" lon="13.278465"><ele>827.6</ele><time>2026-05-02T14:49:13.082Z</time></trkpt><trkpt lat="42.1772017" lon="13.2785767"><ele>829.4</ele><time>2026-05-02T14:49:14.081Z</time></trkpt><trkpt lat="42.1771467" lon="13.2786917"><ele>831.2</ele><time>2026-05-02T14:49:15.081Z</time></trkpt><trkpt lat="42.177085" lon="13.2788017"><ele>833.0</ele><time>2026-05-02T14:49:16.081Z</time></trkpt><trkpt lat="42.17702" lon="13.2788833"><ele>833.3333333333334</ele><time>2026-05-02T14:49:17.082Z</time></trkpt><trkpt lat="42.1769683" lon="13.2789383"><ele>833.6666666666667</ele><time>2026-05-02T14:49:18.081Z</time></trkpt><trkpt lat="42.1769283" lon="13.2790067"><ele>834.0</ele><time>2026-05-02T14:49:20.082Z</time></trkpt><trkpt lat="42.1769583" lon="13.2791083"><ele>834.3333333333333</ele><time>2026-05-02T14:49:22.081Z</time></trkpt><trkpt lat="42.1769933" lon="13.2791883"><ele>834.6666666666666</ele><time>2026-05-02T14:49:23.082Z</time></trkpt><trkpt lat="42.17703" lon="13.27928"><ele>835.0</ele><time>2026-05-02T14:49:24.082Z</time></trkpt><trkpt lat="42.1770617" lon="13.2793983"><ele>835.0</ele><time>2026-05-02T14:49:25.081Z</time></trkpt><trkpt lat="42.1771" lon="13.279535"><ele>835.0</ele><time>2026-05-02T14:49:26.082Z</time></trkpt><trkpt lat="42.1771433" lon="13.2796667"><ele>835.0</ele><time>2026-05-02T14:49:27.082Z</time></trkpt><trkpt lat="42.177215" lon="13.2797933"><ele>835.0</ele><time>2026-05-02T14:49:28.082Z</time></trkpt><trkpt lat="42.1773117" lon="13.27994"><ele>835.3333333333333</ele><time>2026-05-02T14:49:29.081Z</time></trkpt><trkpt lat="42.177405" lon="13.2800933"><ele>835.6666666666667</ele><time>2026-05-02T14:49:30.082Z</time></trkpt><trkpt lat="42.1774967" lon="13.2802633"><ele>836.0</ele><time>2026-05-02T14:49:31.082Z</time></trkpt><trkpt lat="42.1775817" lon="13.28043"><ele>837.0</ele><time>2026-05-02T14:49:32.082Z</time></trkpt><trkpt lat="42.177675" lon="13.2806"><ele>838.0</ele><time>2026-05-02T14:49:33.081Z</time></trkpt><trkpt lat="42.1777717" lon="13.2807817"><ele>839.0</ele><time>2026-05-02T14:49:34.081Z</time></trkpt><trkpt lat="42.1778667" lon="13.280955"><ele>839.0</ele><time>2026-05-02T14:49:35.081Z</time></trkpt><trkpt lat="42.1779483" lon="13.28111"><ele>839.0</ele><time>2026-05-02T14:49:36.081Z</time></trkpt><trkpt lat="42.178005" lon="13.28124"><ele>839.0</ele><time>2026-05-02T14:49:37.081Z</time></trkpt><trkpt lat="42.178055" lon="13.281345"><ele>839.0</ele><time>2026-05-02T14:49:38.081Z</time></trkpt><trkpt lat="42.17812" lon="13.2814483"><ele>839.0</ele><time>2026-05-02T14:49:39.08Z</time></trkpt><trkpt lat="42.17819" lon="13.2815383"><ele>839.4000000000001</ele><time>2026-05-02T14:49:40.081Z</time></trkpt><trkpt lat="42.17828" lon="13.281615"><ele>839.8</ele><time>2026-05-02T14:49:41.08Z</time></trkpt><trkpt lat="42.1783767" lon="13.2816933"><ele>840.2</ele><time>2026-05-02T14:49:42.08Z</time></trkpt><trkpt lat="42.1784667" lon="13.28175"><ele>840.5999999999999</ele><time>2026-05-02T14:49:43.08Z</time></trkpt><trkpt lat="42.1785517" lon="13.2817917"><ele>841.0</ele><time>2026-05-02T14:49:44.081Z</time></trkpt><trkpt lat="42.1786367" lon="13.2818067"><ele>840.9999999999999</ele><time>2026-05-02T14:49:45.081Z</time></trkpt><trkpt lat="42.1787083" lon="13.2817833"><ele>841.0</ele><time>2026-05-02T14:49:46.08Z</time></trkpt><trkpt lat="42.178785" lon="13.28174"><ele>841.0</ele><time>2026-05-02T14:49:47.081Z</time></trkpt><trkpt lat="42.17886" lon="13.2816817"><ele>841.0</ele><time>2026-05-02T14:49:48.08Z</time></trkpt><trkpt lat="42.1789417" lon="13.2816217"><ele>840.9999999999999</ele><time>2026-05-02T14:49:49.08Z</time></trkpt><trkpt lat="42.1790233" lon="13.2815617"><ele>841.0</ele><time>2026-05-02T14:49:50.08Z</time></trkpt><trkpt lat="42.1790917" lon="13.2815367"><ele>839.5999999999999</ele><time>2026-05-02T14:49:51.081Z</time></trkpt><trkpt lat="42.1791867" lon="13.281575"><ele>838.2</ele><time>2026-05-02T14:49:53.081Z</time></trkpt><trkpt lat="42.179235" lon="13.2817167"><ele>836.8</ele><time>2026-05-02T14:49:55.08Z</time></trkpt><trkpt lat="42.1793133" lon="13.2818233"><ele>835.4000000000001</ele><time>2026-05-02T14:49:57.08Z</time></trkpt><trkpt lat="42.179385" lon="13.2817867"><ele>834.0</ele><time>2026-05-02T14:49:59.081Z</time></trkpt><trkpt lat="42.17945" lon="13.2816133"><ele>834.0</ele><time>2026-05-02T14:50:01.081Z</time></trkpt><trkpt lat="42.179495" lon="13.2815033"><ele>834.0</ele><time>2026-05-02T14:50:02.08Z</time></trkpt><trkpt lat="42.17956" lon="13.2813767"><ele>834.0</ele><time>2026-05-02T14:50:03.08Z</time></trkpt><trkpt lat="42.1796317" lon="13.2812433"><ele>834.0</ele><time>2026-05-02T14:50:04.08Z</time></trkpt><trkpt lat="42.1797083" lon="13.28108"><ele>832.6666666666667</ele><time>2026-05-02T14:50:05.08Z</time></trkpt><trkpt lat="42.179785" lon="13.2808917"><ele>831.3333333333334</ele><time>2026-05-02T14:50:06.08Z</time></trkpt><trkpt lat="42.1798767" lon="13.2806983"><ele>830.0</ele><time>2026-05-02T14:50:07.08Z</time></trkpt><trkpt lat="42.1799767" lon="13.2805033"><ele>828.3333333333334</ele><time>2026-05-02T14:50:08.081Z</time></trkpt><trkpt lat="42.1800917" lon="13.2803083"><ele>826.6666666666667</ele><time>2026-05-02T14:50:09.08Z</time></trkpt><trkpt lat="42.180225" lon="13.2801283"><ele>825.0</ele><time>2026-05-02T14:50:10.081Z</time></trkpt><trkpt lat="42.180365" lon="13.2799583"><ele>825.0</ele><time>2026-05-02T14:50:11.081Z</time></trkpt><trkpt lat="42.1805033" lon="13.2798167"><ele>825.0</ele><time>2026-05-02T14:50:12.081Z</time></trkpt><trkpt lat="42.1806133" lon="13.2796833"><ele>825.0</ele><time>2026-05-02T14:50:13.081Z</time></trkpt><trkpt lat="42.180685" lon="13.2795633"><ele>825.0</ele><time>2026-05-02T14:50:14.08Z</time></trkpt><trkpt lat="42.1807167" lon="13.279445"><ele>824.2</ele><time>2026-05-02T14:50:15.08Z</time></trkpt><trkpt lat="42.1807117" lon="13.27934"><ele>823.4</ele><time>2026-05-02T14:50:16.081Z</time></trkpt><trkpt lat="42.1806817" lon="13.2792267"><ele>822.5999999999999</ele><time>2026-05-02T14:50:17.08Z</time></trkpt><trkpt lat="42.180645" lon="13.2790817"><ele>821.8</ele><time>2026-05-02T14:50:18.08Z</time></trkpt><trkpt lat="42.1806083" lon="13.2789017"><ele>821.0</ele><time>2026-05-02T14:50:19.081Z</time></trkpt><trkpt lat="42.1805933" lon="13.2787083"><ele>820.3333333333334</ele><time>2026-05-02T14:50:20.08Z</time></trkpt><trkpt lat="42.1806133" lon="13.2784983"><ele>819.6666666666667</ele><time>2026-05-02T14:50:21.081Z</time></trkpt><trkpt lat="42.1806417" lon="13.2782733"><ele>819.0</ele><time>2026-05-02T14:50:22.08Z</time></trkpt><trkpt lat="42.18067" lon="13.2780283"><ele>817.6666666666667</ele><time>2026-05-02T14:50:23.081Z</time></trkpt><trkpt lat="42.1807" lon="13.27778"><ele>816.3333333333334</ele><time>2026-05-02T14:50:24.081Z</time></trkpt><trkpt lat="42.1807367" lon="13.2775217"><ele>815.0</ele><time>2026-05-02T14:50:25.08Z</time></trkpt><trkpt lat="42.1807767" lon="13.2772533"><ele>814.3333333333334</ele><time>2026-05-02T14:50:26.08Z</time></trkpt><trkpt lat="42.1808183" lon="13.276985"><ele>813.6666666666667</ele><time>2026-05-02T14:50:27.08Z</time></trkpt><trkpt lat="42.1808633" lon="13.2767233"><ele>813.0</ele><time>2026-05-02T14:50:28.081Z</time></trkpt><trkpt lat="42.1809033" lon="13.2764667"><ele>812.3333333333333</ele><time>2026-05-02T14:50:29.08Z</time></trkpt><trkpt lat="42.1809383" lon="13.2762167"><ele>811.6666666666666</ele><time>2026-05-02T14:50:30.08Z</time></trkpt><trkpt lat="42.1809817" lon="13.27597"><ele>811.0</ele><time>2026-05-02T14:50:31.08Z</time></trkpt><trkpt lat="42.1810267" lon="13.2757217"><ele>810.3333333333333</ele><time>2026-05-02T14:50:32.081Z</time></trkpt><trkpt lat="42.1810767" lon="13.2754767"><ele>809.6666666666667</ele><time>2026-05-02T14:50:33.081Z</time></trkpt><trkpt lat="42.1811267" lon="13.2752483"><ele>809.0</ele><time>2026-05-02T14:50:34.081Z</time></trkpt><trkpt lat="42.1811683" lon="13.2750333"><ele>809.0</ele><time>2026-05-02T14:50:35.08Z</time></trkpt><trkpt lat="42.1812083" lon="13.2748317"><ele>809.0</ele><time>2026-05-02T14:50:36.081Z</time></trkpt><trkpt lat="42.1812417" lon="13.27465"><ele>809.0</ele><time>2026-05-02T14:50:37.08Z</time></trkpt><trkpt lat="42.1812783" lon="13.2744783"><ele>809.0</ele><time>2026-05-02T14:50:38.081Z</time></trkpt><trkpt lat="42.1813167" lon="13.2743367"><ele>808.2</ele><time>2026-05-02T14:50:39.081Z</time></trkpt><trkpt lat="42.1813517" lon="13.2742083"><ele>807.4000000000001</ele><time>2026-05-02T14:50:40.081Z</time></trkpt><trkpt lat="42.1813783" lon="13.2740967"><ele>806.6</ele><time>2026-05-02T14:50:41.08Z</time></trkpt><trkpt lat="42.1814167" lon="13.2739483"><ele>805.8</ele><time>2026-05-02T14:50:43.081Z</time></trkpt><trkpt lat="42.181435" lon="13.2738367"><ele>805.0</ele><time>2026-05-02T14:50:49.08Z</time></trkpt><trkpt lat="42.1814833" lon="13.273715"><ele>804.6</ele><time>2026-05-02T14:50:51.08Z</time></trkpt><trkpt lat="42.18153" lon="13.2736517"><ele>804.2</ele><time>2026-05-02T14:50:52.081Z</time></trkpt><trkpt lat="42.181605" lon="13.27359"><ele>803.8</ele><time>2026-05-02T14:50:53.08Z</time></trkpt><trkpt lat="42.1816967" lon="13.27351"><ele>803.4</ele><time>2026-05-02T14:50:54.081Z</time></trkpt><trkpt lat="42.1817867" lon="13.2734083"><ele>803.0</ele><time>2026-05-02T14:50:55.081Z</time></trkpt><trkpt lat="42.181875" lon="13.2732817"><ele>803.0</ele><time>2026-05-02T14:50:56.081Z</time></trkpt><trkpt lat="42.18196" lon="13.2731467"><ele>803.0</ele><time>2026-05-02T14:50:57.081Z</time></trkpt><trkpt lat="42.1820367" lon="13.2730183"><ele>803.0</ele><time>2026-05-02T14:50:58.08Z</time></trkpt><trkpt lat="42.182105" lon="13.2729033"><ele>803.0</ele><time>2026-05-02T14:50:59.081Z</time></trkpt><trkpt lat="42.1821917" lon="13.27279"><ele>802.75</ele><time>2026-05-02T14:51:00.08Z</time></trkpt><trkpt lat="42.1823033" lon="13.2726733"><ele>802.5</ele><time>2026-05-02T14:51:01.08Z</time></trkpt><trkpt lat="42.18242" lon="13.2725633"><ele>802.25</ele><time>2026-05-02T14:51:02.081Z</time></trkpt><trkpt lat="42.1825317" lon="13.2724367"><ele>802.0</ele><time>2026-05-02T14:51:03.081Z</time></trkpt><trkpt lat="42.18264" lon="13.272295"><ele>802.0</ele><time>2026-05-02T14:51:04.08Z</time></trkpt><trkpt lat="42.1827533" lon="13.27214"><ele>802.0</ele><time>2026-05-02T14:51:05.081Z</time></trkpt><trkpt lat="42.1828517" lon="13.2719817"><ele>802.0</ele><time>2026-05-02T14:51:06.08Z</time></trkpt><trkpt lat="42.1829417" lon="13.2718367"><ele>802.0</ele><time>2026-05-02T14:51:07.081Z</time></trkpt><trkpt lat="42.1830233" lon="13.2716883"><ele>802.0</ele><time>2026-05-02T14:51:08.08Z</time></trkpt><trkpt lat="42.1830917" lon="13.27154"><ele>802.0</ele><time>2026-05-02T14:51:09.08Z</time></trkpt><trkpt lat="42.18315" lon="13.2713817"><ele>802.0</ele><time>2026-05-02T14:51:10.08Z</time></trkpt><trkpt lat="42.1832117" lon="13.2712333"><ele>801.6</ele><time>2026-05-02T14:51:11.08Z</time></trkpt><trkpt lat="42.1832883" lon="13.2711"><ele>801.2</ele><time>2026-05-02T14:51:12.081Z</time></trkpt><trkpt lat="42.183365" lon="13.2710117"><ele>800.8</ele><time>2026-05-02T14:51:13.081Z</time></trkpt><trkpt lat="42.1834433" lon="13.2709517"><ele>800.4</ele><time>2026-05-02T14:51:14.08Z</time></trkpt><trkpt lat="42.1835283" lon="13.2709183"><ele>800.0</ele><time>2026-05-02T14:51:15.08Z</time></trkpt><trkpt lat="42.1836267" lon="13.27091"><ele>800.0</ele><time>2026-05-02T14:51:16.081Z</time></trkpt><trkpt lat="42.1837367" lon="13.2709167"><ele>800.0</ele><time>2026-05-02T14:51:17.08Z</time></trkpt><trkpt lat="42.1838633" lon="13.2709267"><ele>800.0</ele><time>2026-05-02T14:51:18.081Z</time></trkpt><trkpt lat="42.1839983" lon="13.2709133"><ele>800.0</ele><time>2026-05-02T14:51:19.08Z</time></trkpt><trkpt lat="42.184145" lon="13.2708917"><ele>800.0</ele><time>2026-05-02T14:51:20.081Z</time></trkpt><trkpt lat="42.18428" lon="13.270865"><ele>800.0</ele><time>2026-05-02T14:51:21.08Z</time></trkpt><trkpt lat="42.1843933" lon="13.2708167"><ele>800.0</ele><time>2026-05-02T14:51:22.08Z</time></trkpt><trkpt lat="42.184485" lon="13.2707533"><ele>800.0</ele><time>2026-05-02T14:51:23.081Z</time></trkpt><trkpt lat="42.1845767" lon="13.2706733"><ele>799.5</ele><time>2026-05-02T14:51:24.081Z</time></trkpt><trkpt lat="42.1846683" lon="13.2706017"><ele>799.0</ele><time>2026-05-02T14:51:25.081Z</time></trkpt><trkpt lat="42.1847667" lon="13.2705067"><ele>798.5</ele><time>2026-05-02T14:51:26.081Z</time></trkpt><trkpt lat="42.18487" lon="13.270405"><ele>798.0</ele><time>2026-05-02T14:51:27.08Z</time></trkpt><trkpt lat="42.184975" lon="13.2703"><ele>799.0</ele><time>2026-05-02T14:51:28.08Z</time></trkpt><trkpt lat="42.1850917" lon="13.2701867"><ele>800.0</ele><time>2026-05-02T14:51:29.081Z</time></trkpt><trkpt lat="42.1852183" lon="13.2700767"><ele>801.0</ele><time>2026-05-02T14:51:30.081Z</time></trkpt><trkpt lat="42.1853417" lon="13.2699717"><ele>802.0</ele><time>2026-05-02T14:51:31.081Z</time></trkpt><trkpt lat="42.1854833" lon="13.2698767"><ele>802.0</ele><time>2026-05-02T14:51:32.08Z</time></trkpt><trkpt lat="42.185625" lon="13.2697817"><ele>802.0</ele><time>2026-05-02T14:51:33.081Z</time></trkpt><trkpt lat="42.1857767" lon="13.2696767"><ele>802.0</ele><time>2026-05-02T14:51:34.08Z</time></trkpt><trkpt lat="42.1859317" lon="13.2695767"><ele>802.3333333333333</ele><time>2026-05-02T14:51:35.08Z</time></trkpt><trkpt lat="42.1860917" lon="13.2694683"><ele>802.6666666666667</ele><time>2026-05-02T14:51:36.08Z</time></trkpt><trkpt lat="42.186245" lon="13.2693667"><ele>803.0</ele><time>2026-05-02T14:51:37.08Z</time></trkpt><trkpt lat="42.186405" lon="13.2692683"><ele>803.0</ele><time>2026-05-02T14:51:38.08Z</time></trkpt><trkpt lat="42.1865567" lon="13.2691817"><ele>803.0</ele><time>2026-05-02T14:51:39.08Z</time></trkpt><trkpt lat="42.1866967" lon="13.2690967"><ele>803.0</ele><time>2026-05-02T14:51:40.081Z</time></trkpt><trkpt lat="42.18683" lon="13.268995"><ele>802.6666666666667</ele><time>2026-05-02T14:51:41.081Z</time></trkpt><trkpt lat="42.18696" lon="13.268885"><ele>802.3333333333333</ele><time>2026-05-02T14:51:42.081Z</time></trkpt><trkpt lat="42.1870883" lon="13.2687683"><ele>802.0</ele><time>2026-05-02T14:51:43.08Z</time></trkpt><trkpt lat="42.1872283" lon="13.2686433"><ele>802.0</ele><time>2026-05-02T14:51:44.08Z</time></trkpt><trkpt lat="42.1873733" lon="13.2685283"><ele>802.0</ele><time>2026-05-02T14:51:45.081Z</time></trkpt><trkpt lat="42.1875183" lon="13.2684117"><ele>802.0</ele><time>2026-05-02T14:51:46.08Z</time></trkpt><trkpt lat="42.1876517" lon="13.2683067"><ele>802.0</ele><time>2026-05-02T14:51:47.08Z</time></trkpt><trkpt lat="42.1877883" lon="13.2682033"><ele>802.0</ele><time>2026-05-02T14:51:48.08Z</time></trkpt><trkpt lat="42.18791" lon="13.2681017"><ele>802.0</ele><time>2026-05-02T14:51:49.08Z</time></trkpt><trkpt lat="42.1880167" lon="13.2680183"><ele>802.0</ele><time>2026-05-02T14:51:50.08Z</time></trkpt><trkpt lat="42.188105" lon="13.2679467"><ele>802.6</ele><time>2026-05-02T14:51:51.081Z</time></trkpt><trkpt lat="42.1881767" lon="13.2679067"><ele>803.2</ele><time>2026-05-02T14:51:52.08Z</time></trkpt><trkpt lat="42.1882533" lon="13.267875"><ele>803.8</ele><time>2026-05-02T14:51:53.081Z</time></trkpt><trkpt lat="42.1883483" lon="13.267845"><ele>804.4</ele><time>2026-05-02T14:51:54.081Z</time></trkpt><trkpt lat="42.18846" lon="13.26781"><ele>805.0</ele><time>2026-05-02T14:51:55.08Z</time></trkpt><trkpt lat="42.1885817" lon="13.2677633"><ele>805.0</ele><time>2026-05-02T14:51:56.081Z</time></trkpt><trkpt lat="42.188715" lon="13.2677017"><ele>805.0</ele><time>2026-05-02T14:51:57.081Z</time></trkpt><trkpt lat="42.1888383" lon="13.2676233"><ele>805.0</ele><time>2026-05-02T14:51:58.081Z</time></trkpt><trkpt lat="42.1889517" lon="13.26753"><ele>805.0</ele><time>2026-05-02T14:51:59.081Z</time></trkpt><trkpt lat="42.1890717" lon="13.2674517"><ele>805.25</ele><time>2026-05-02T14:52:00.08Z</time></trkpt><trkpt lat="42.1891967" lon="13.267365"><ele>805.5</ele><time>2026-05-02T14:52:01.08Z</time></trkpt><trkpt lat="42.189325" lon="13.2672683"><ele>805.75</ele><time>2026-05-02T14:52:02.081Z</time></trkpt><trkpt lat="42.1894533" lon="13.267155"><ele>806.0</ele><time>2026-05-02T14:52:03.081Z</time></trkpt><trkpt lat="42.18958" lon="13.2670333"><ele>805.3333333333334</ele><time>2026-05-02T14:52:04.08Z</time></trkpt><trkpt lat="42.1897167" lon="13.2669033"><ele>804.6666666666667</ele><time>2026-05-02T14:52:05.081Z</time></trkpt><trkpt lat="42.1898617" lon="13.26677"><ele>804.0</ele><time>2026-05-02T14:52:06.08Z</time></trkpt><trkpt lat="42.190005" lon="13.2666533"><ele>804.5</ele><time>2026-05-02T14:52:07.081Z</time></trkpt><trkpt lat="42.19014" lon="13.2665683"><ele>805.0</ele><time>2026-05-02T14:52:08.08Z</time></trkpt><trkpt lat="42.1902583" lon="13.2664883"><ele>805.5</ele><time>2026-05-02T14:52:09.08Z</time></trkpt><trkpt lat="42.19036" lon="13.266405"><ele>806.0</ele><time>2026-05-02T14:52:10.081Z</time></trkpt><trkpt lat="42.1904517" lon="13.2662983"><ele>806.0</ele><time>2026-05-02T14:52:11.081Z</time></trkpt><trkpt lat="42.1905583" lon="13.2661867"><ele>806.0</ele><time>2026-05-02T14:52:12.081Z</time></trkpt><trkpt lat="42.1906767" lon="13.26606"><ele>806.0</ele><time>2026-05-02T14:52:13.08Z</time></trkpt><trkpt lat="42.1907967" lon="13.26593"><ele>806.0</ele><time>2026-05-02T14:52:14.08Z</time></trkpt><trkpt lat="42.19092" lon="13.26577"><ele>806.3333333333334</ele><time>2026-05-02T14:52:15.08Z</time></trkpt><trkpt lat="42.19104" lon="13.2656033"><ele>806.6666666666667</ele><time>2026-05-02T14:52:16.08Z</time></trkpt><trkpt lat="42.1911633" lon="13.265455"><ele>807.0</ele><time>2026-05-02T14:52:17.081Z</time></trkpt><trkpt lat="42.19127" lon="13.265325"><ele>807.0</ele><time>2026-05-02T14:52:18.08Z</time></trkpt><trkpt lat="42.1913617" lon="13.2652"><ele>807.0</ele><time>2026-05-02T14:52:19.081Z</time></trkpt><trkpt lat="42.1914517" lon="13.2650617"><ele>807.0</ele><time>2026-05-02T14:52:20.08Z</time></trkpt><trkpt lat="42.1915467" lon="13.2648967"><ele>807.0</ele><time>2026-05-02T14:52:21.081Z</time></trkpt><trkpt lat="42.1916417" lon="13.2647567"><ele>807.5</ele><time>2026-05-02T14:52:22.081Z</time></trkpt><trkpt lat="42.1917367" lon="13.26466"><ele>808.0</ele><time>2026-05-02T14:52:23.08Z</time></trkpt><trkpt lat="42.1918317" lon="13.2645833"><ele>808.5</ele><time>2026-05-02T14:52:24.081Z</time></trkpt><trkpt lat="42.1919433" lon="13.2645083"><ele>809.0</ele><time>2026-05-02T14:52:25.08Z</time></trkpt><trkpt lat="42.1920617" lon="13.2644317"><ele>809.0</ele><time>2026-05-02T14:52:26.08Z</time></trkpt><trkpt lat="42.1921933" lon="13.264355"><ele>809.0</ele><time>2026-05-02T14:52:27.081Z</time></trkpt><trkpt lat="42.19233" lon="13.2642917"><ele>809.0</ele><time>2026-05-02T14:52:28.08Z</time></trkpt><trkpt lat="42.1924567" lon="13.26423"><ele>809.0</ele><time>2026-05-02T14:52:29.081Z</time></trkpt><trkpt lat="42.192585" lon="13.264155"><ele>810.0</ele><time>2026-05-02T14:52:30.081Z</time></trkpt><trkpt lat="42.1927067" lon="13.2640783"><ele>811.0</ele><time>2026-05-02T14:52:31.08Z</time></trkpt><trkpt lat="42.1928333" lon="13.264"><ele>812.0</ele><time>2026-05-02T14:52:32.081Z</time></trkpt><trkpt lat="42.1929667" lon="13.2639283"><ele>813.0</ele><time>2026-05-02T14:52:33.08Z</time></trkpt><trkpt lat="42.1931183" lon="13.263845"><ele>813.3333333333333</ele><time>2026-05-02T14:52:34.08Z</time></trkpt><trkpt lat="42.1932583" lon="13.2637517"><ele>813.6666666666666</ele><time>2026-05-02T14:52:35.08Z</time></trkpt><trkpt lat="42.193405" lon="13.2636317"><ele>814.0</ele><time>2026-05-02T14:52:36.08Z</time></trkpt><trkpt lat="42.193545" lon="13.263505"><ele>814.0</ele><time>2026-05-02T14:52:37.08Z</time></trkpt><trkpt lat="42.1936883" lon="13.26339"><ele>814.0</ele><time>2026-05-02T14:52:38.081Z</time></trkpt><trkpt lat="42.193825" lon="13.2632783"><ele>814.0</ele><time>2026-05-02T14:52:39.081Z</time></trkpt><trkpt lat="42.1939567" lon="13.263185"><ele>814.2</ele><time>2026-05-02T14:52:40.08Z</time></trkpt><trkpt lat="42.194075" lon="13.2631133"><ele>814.4000000000001</ele><time>2026-05-02T14:52:41.08Z</time></trkpt><trkpt lat="42.194175" lon="13.2630517"><ele>814.6</ele><time>2026-05-02T14:52:42.081Z</time></trkpt><trkpt lat="42.1942667" lon="13.263"><ele>814.8</ele><time>2026-05-02T14:52:43.081Z</time></trkpt><trkpt lat="42.194355" lon="13.2629683"><ele>815.0</ele><time>2026-05-02T14:52:44.08Z</time></trkpt><trkpt lat="42.194445" lon="13.2629667"><ele>815.0</ele><time>2026-05-02T14:52:45.081Z</time></trkpt><trkpt lat="42.194545" lon="13.2629467"><ele>815.0</ele><time>2026-05-02T14:52:46.081Z</time></trkpt><trkpt lat="42.1946533" lon="13.2629133"><ele>815.0</ele><time>2026-05-02T14:52:47.081Z</time></trkpt><trkpt lat="42.194765" lon="13.2628667"><ele>815.0</ele><time>2026-05-02T14:52:48.08Z</time></trkpt><trkpt lat="42.1948683" lon="13.2628317"><ele>815.0</ele><time>2026-05-02T14:52:49.08Z</time></trkpt><trkpt lat="42.1949633" lon="13.2628183"><ele>815.0000000000001</ele><time>2026-05-02T14:52:50.081Z</time></trkpt><trkpt lat="42.1950483" lon="13.2628433"><ele>815.0</ele><time>2026-05-02T14:52:51.08Z</time></trkpt><trkpt lat="42.195135" lon="13.2628733"><ele>815.0</ele><time>2026-05-02T14:52:52.08Z</time></trkpt><trkpt lat="42.195225" lon="13.2629117"><ele>815.0</ele><time>2026-05-02T14:52:53.08Z</time></trkpt><trkpt lat="42.1953117" lon="13.26295"><ele>815.0000000000001</ele><time>2026-05-02T14:52:54.081Z</time></trkpt><trkpt lat="42.1953783" lon="13.2629817"><ele>815.0</ele><time>2026-05-02T14:52:55.081Z</time></trkpt><trkpt lat="42.1954917" lon="13.2629367"><ele>815.0</ele><time>2026-05-02T14:52:57.08Z</time></trkpt><trkpt lat="42.195535" lon="13.2628717"><ele>815.0</ele><time>2026-05-02T14:52:58.08Z</time></trkpt><trkpt lat="42.1955867" lon="13.26276"><ele>815.0</ele><time>2026-05-02T14:52:59.081Z</time></trkpt><trkpt lat="42.1956417" lon="13.2626133"><ele>815.0</ele><time>2026-05-02T14:53:00.08Z</time></trkpt><trkpt lat="42.1957" lon="13.2624367"><ele>815.0</ele><time>2026-05-02T14:53:01.08Z</time></trkpt><trkpt lat="42.195765" lon="13.2622467"><ele>815.0</ele><time>2026-05-02T14:53:02.08Z</time></trkpt><trkpt lat="42.1958383" lon="13.2620583"><ele>815.0</ele><time>2026-05-02T14:53:03.08Z</time></trkpt><trkpt lat="42.195905" lon="13.2618767"><ele>815.0</ele><time>2026-05-02T14:53:04.081Z</time></trkpt><trkpt lat="42.1959667" lon="13.2616833"><ele>815.0</ele><time>2026-05-02T14:53:05.08Z</time></trkpt><trkpt lat="42.1960217" lon="13.2614983"><ele>815.0</ele><time>2026-05-02T14:53:06.08Z</time></trkpt><trkpt lat="42.1960733" lon="13.2613433"><ele>815.0</ele><time>2026-05-02T14:53:07.08Z</time></trkpt><trkpt lat="42.1961217" lon="13.2611917"><ele>815.0</ele><time>2026-05-02T14:53:08.08Z</time></trkpt><trkpt lat="42.1961517" lon="13.2610567"><ele>814.8</ele><time>2026-05-02T14:53:09.081Z</time></trkpt><trkpt lat="42.1961817" lon="13.2609033"><ele>814.6</ele><time>2026-05-02T14:53:10.08Z</time></trkpt><trkpt lat="42.1962067" lon="13.26075"><ele>814.4000000000001</ele><time>2026-05-02T14:53:11.08Z</time></trkpt><trkpt lat="42.1962383" lon="13.2606117"><ele>814.2</ele><time>2026-05-02T14:53:12.081Z</time></trkpt><trkpt lat="42.19628" lon="13.2605033"><ele>814.0</ele><time>2026-05-02T14:53:13.08Z</time></trkpt><trkpt lat="42.1963317" lon="13.26043"><ele>813.4999999999999</ele><time>2026-05-02T14:53:14.08Z</time></trkpt><trkpt lat="42.1963867" lon="13.260375"><ele>813.0</ele><time>2026-05-02T14:53:15.08Z</time></trkpt><trkpt lat="42.19646" lon="13.2603433"><ele>812.5</ele><time>2026-05-02T14:53:16.081Z</time></trkpt><trkpt lat="42.1965467" lon="13.2603233"><ele>812.0</ele><time>2026-05-02T14:53:17.08Z</time></trkpt><trkpt lat="42.196635" lon="13.26032"><ele>811.4999999999999</ele><time>2026-05-02T14:53:18.08Z</time></trkpt><trkpt lat="42.1967233" lon="13.26033"><ele>811.0</ele><time>2026-05-02T14:53:19.081Z</time></trkpt><trkpt lat="42.196815" lon="13.2603283"><ele>811.0</ele><time>2026-05-02T14:53:20.08Z</time></trkpt><trkpt lat="42.1969067" lon="13.260305"><ele>811.0</ele><time>2026-05-02T14:53:21.08Z</time></trkpt><trkpt lat="42.1970017" lon="13.26028"><ele>811.0</ele><time>2026-05-02T14:53:22.08Z</time></trkpt><trkpt lat="42.197115" lon="13.2602383"><ele>811.0</ele><time>2026-05-02T14:53:23.08Z</time></trkpt><trkpt lat="42.19724" lon="13.260195"><ele>811.0</ele><time>2026-05-02T14:53:24.08Z</time></trkpt><trkpt lat="42.1973717" lon="13.2601333"><ele>811.0</ele><time>2026-05-02T14:53:25.081Z</time></trkpt><trkpt lat="42.197505" lon="13.260055"><ele>811.0</ele><time>2026-05-02T14:53:26.081Z</time></trkpt><trkpt lat="42.197635" lon="13.259955"><ele>811.0</ele><time>2026-05-02T14:53:27.08Z</time></trkpt><trkpt lat="42.1977667" lon="13.259835"><ele>810.0</ele><time>2026-05-02T14:53:28.08Z</time></trkpt><trkpt lat="42.1978967" lon="13.2597083"><ele>809.0</ele><time>2026-05-02T14:53:29.08Z</time></trkpt><trkpt lat="42.1980267" lon="13.2595817"><ele>808.0</ele><time>2026-05-02T14:53:30.08Z</time></trkpt><trkpt lat="42.19814" lon="13.2594867"><ele>809.0</ele><time>2026-05-02T14:53:31.08Z</time></trkpt><trkpt lat="42.1982233" lon="13.2594233"><ele>810.0</ele><time>2026-05-02T14:53:32.081Z</time></trkpt><trkpt lat="42.1982883" lon="13.25939"><ele>811.0</ele><time>2026-05-02T14:53:33.08Z</time></trkpt><trkpt lat="42.198405" lon="13.25938"><ele>812.0</ele><time>2026-05-02T14:53:35.081Z</time></trkpt><trkpt lat="42.198535" lon="13.2594017"><ele>813.0</ele><time>2026-05-02T14:53:37.081Z</time></trkpt><trkpt lat="42.1986133" lon="13.25939"><ele>813.0</ele><time>2026-05-02T14:53:38.081Z</time></trkpt><trkpt lat="42.19871" lon="13.25935"><ele>813.0</ele><time>2026-05-02T14:53:39.08Z</time></trkpt><trkpt lat="42.19882" lon="13.2592967"><ele>813.0</ele><time>2026-05-02T14:53:40.081Z</time></trkpt><trkpt lat="42.1989317" lon="13.2592233"><ele>813.0</ele><time>2026-05-02T14:53:41.08Z</time></trkpt><trkpt lat="42.1990567" lon="13.2591467"><ele>813.75</ele><time>2026-05-02T14:53:42.081Z</time></trkpt><trkpt lat="42.19918" lon="13.259065"><ele>814.5</ele><time>2026-05-02T14:53:43.08Z</time></trkpt><trkpt lat="42.1992933" lon="13.2589983"><ele>815.25</ele><time>2026-05-02T14:53:44.08Z</time></trkpt><trkpt lat="42.1993883" lon="13.2589767"><ele>816.0</ele><time>2026-05-02T14:53:45.081Z</time></trkpt><trkpt lat="42.1994817" lon="13.2589883"><ele>816.0</ele><time>2026-05-02T14:53:46.08Z</time></trkpt><trkpt lat="42.19956" lon="13.2590133"><ele>816.0</ele><time>2026-05-02T14:53:47.081Z</time></trkpt><trkpt lat="42.199635" lon="13.2590467"><ele>816.0</ele><time>2026-05-02T14:53:48.081Z</time></trkpt><trkpt lat="42.19971" lon="13.2590917"><ele>816.0</ele><time>2026-05-02T14:53:49.081Z</time></trkpt><trkpt lat="42.1997717" lon="13.259145"><ele>816.0</ele><time>2026-05-02T14:53:50.08Z</time></trkpt><trkpt lat="42.1998233" lon="13.2591967"><ele>816.0</ele><time>2026-05-02T14:53:51.08Z</time></trkpt><trkpt lat="42.1999083" lon="13.259295"><ele>816.5999999999999</ele><time>2026-05-02T14:53:53.081Z</time></trkpt><trkpt lat="42.1999933" lon="13.2592833"><ele>817.2</ele><time>2026-05-02T14:53:56.08Z</time></trkpt><trkpt lat="42.1999683" lon="13.2591533"><ele>817.8</ele><time>2026-05-02T14:53:58.081Z</time></trkpt><trkpt lat="42.19993" lon="13.25905"><ele>818.4000000000001</ele><time>2026-05-02T14:53:59.08Z</time></trkpt><trkpt lat="42.1998817" lon="13.258915"><ele>819.0</ele><time>2026-05-02T14:54:00.08Z</time></trkpt><trkpt lat="42.1998367" lon="13.25877"><ele>818.0</ele><time>2026-05-02T14:54:01.08Z</time></trkpt><trkpt lat="42.1997817" lon="13.2586117"><ele>817.0</ele><time>2026-05-02T14:54:02.081Z</time></trkpt><trkpt lat="42.1997267" lon="13.25844"><ele>816.0</ele><time>2026-05-02T14:54:03.08Z</time></trkpt><trkpt lat="42.1996767" lon="13.2582817"><ele>815.0</ele><time>2026-05-02T14:54:04.08Z</time></trkpt><trkpt lat="42.1996383" lon="13.258145"><ele>815.4</ele><time>2026-05-02T14:54:05.081Z</time></trkpt><trkpt lat="42.1996083" lon="13.2580167"><ele>815.8</ele><time>2026-05-02T14:54:06.081Z</time></trkpt><trkpt lat="42.1995933" lon="13.2579083"><ele>816.2</ele><time>2026-05-02T14:54:07.08Z</time></trkpt><trkpt lat="42.1995983" lon="13.257795"><ele>816.6</ele><time>2026-05-02T14:54:08.08Z</time></trkpt><trkpt lat="42.1996133" lon="13.2576783"><ele>817.0</ele><time>2026-05-02T14:54:09.081Z</time></trkpt><trkpt lat="42.199645" lon="13.25755"><ele>816.9999999999999</ele><time>2026-05-02T14:54:10.08Z</time></trkpt><trkpt lat="42.19968" lon="13.25744"><ele>817.0</ele><time>2026-05-02T14:54:11.081Z</time></trkpt><trkpt lat="42.1997083" lon="13.25734"><ele>817.0</ele><time>2026-05-02T14:54:12.081Z</time></trkpt><trkpt lat="42.1997517" lon="13.257265"><ele>817.0</ele><time>2026-05-02T14:54:13.08Z</time></trkpt><trkpt lat="42.19984" lon="13.257205"><ele>816.9999999999999</ele><time>2026-05-02T14:54:15.081Z</time></trkpt><trkpt lat="42.19982" lon="13.2570967"><ele>817.0</ele><time>2026-05-02T14:54:29.08Z</time></trkpt><trkpt lat="42.1997783" lon="13.2570167"><ele>818.0</ele><time>2026-05-02T14:54:30.081Z</time></trkpt><trkpt lat="42.199725" lon="13.2569267"><ele>819.0</ele><time>2026-05-02T14:54:31.08Z</time></trkpt><trkpt lat="42.1996767" lon="13.2568467"><ele>820.0</ele><time>2026-05-02T14:54:32.08Z</time></trkpt><trkpt lat="42.199645" lon="13.2567217"><ele>821.0</ele><time>2026-05-02T14:54:34.08Z</time></trkpt><trkpt lat="42.1997117" lon="13.2566683"><ele>822.0</ele><time>2026-05-02T14:54:36.081Z</time></trkpt><trkpt lat="42.1998383" lon="13.25675"><ele>825.0</ele><time>2026-05-02T14:54:38.081Z</time></trkpt><trkpt lat="42.1999117" lon="13.25682"><ele>828.0</ele><time>2026-05-02T14:54:39.081Z</time></trkpt><trkpt lat="42.1999967" lon="13.256875"><ele>831.0</ele><time>2026-05-02T14:54:40.08Z</time></trkpt><trkpt lat="42.2000817" lon="13.2569067"><ele>834.0</ele><time>2026-05-02T14:54:41.08Z</time></trkpt><trkpt lat="42.2001667" lon="13.2569217"><ele>837.0</ele><time>2026-05-02T14:54:42.08Z</time></trkpt><trkpt lat="42.2002667" lon="13.2569467"><ele>837.0</ele><time>2026-05-02T14:54:43.081Z</time></trkpt><trkpt lat="42.200365" lon="13.2569617"><ele>837.0</ele><time>2026-05-02T14:54:44.081Z</time></trkpt><trkpt lat="42.2004583" lon="13.256985"><ele>837.0</ele><time>2026-05-02T14:54:45.081Z</time></trkpt><trkpt lat="42.2005567" lon="13.2569967"><ele>837.0</ele><time>2026-05-02T14:54:46.081Z</time></trkpt><trkpt lat="42.20065" lon="13.2570083"><ele>837.0</ele><time>2026-05-02T14:54:47.08Z</time></trkpt><trkpt lat="42.2007433" lon="13.2570167"><ele>839.6666666666666</ele><time>2026-05-02T14:54:48.08Z</time></trkpt><trkpt lat="42.20083" lon="13.2570283"><ele>842.3333333333333</ele><time>2026-05-02T14:54:49.081Z</time></trkpt><trkpt lat="42.2009217" lon="13.2570633"><ele>845.0</ele><time>2026-05-02T14:54:51.081Z</time></trkpt><trkpt lat="42.2009217" lon="13.256965"><ele>847.6666666666666</ele><time>2026-05-02T14:54:56.08Z</time></trkpt><trkpt lat="42.2009067" lon="13.2568683"><ele>850.3333333333333</ele><time>2026-05-02T14:54:59.081Z</time></trkpt><trkpt lat="42.2009983" lon="13.2568383"><ele>853.0</ele><time>2026-05-02T14:55:01.08Z</time></trkpt><trkpt lat="42.2010683" lon="13.2568383"><ele>852.9999999999999</ele><time>2026-05-02T14:55:02.081Z</time></trkpt><trkpt lat="42.201145" lon="13.2568383"><ele>853.0</ele><time>2026-05-02T14:55:03.081Z</time></trkpt><trkpt lat="42.2012283" lon="13.2568417"><ele>853.0</ele><time>2026-05-02T14:55:04.08Z</time></trkpt><trkpt lat="42.2013067" lon="13.2568383"><ele>853.0</ele><time>2026-05-02T14:55:05.081Z</time></trkpt><trkpt lat="42.2013783" lon="13.25683"><ele>852.9999999999999</ele><time>2026-05-02T14:55:06.081Z</time></trkpt><trkpt lat="42.201445" lon="13.2568217"><ele>853.0</ele><time>2026-05-02T14:55:07.081Z</time></trkpt><trkpt lat="42.2015633" lon="13.256805"><ele>856.4</ele><time>2026-05-02T14:55:09.081Z</time></trkpt><trkpt lat="42.2016817" lon="13.2568033"><ele>859.8</ele><time>2026-05-02T14:55:11.08Z</time></trkpt><trkpt lat="42.20176" lon="13.256805"><ele>863.2</ele><time>2026-05-02T14:55:12.081Z</time></trkpt><trkpt lat="42.201845" lon="13.2568133"><ele>866.6</ele><time>2026-05-02T14:55:13.081Z</time></trkpt><trkpt lat="42.2019283" lon="13.2568283"><ele>870.0</ele><time>2026-05-02T14:55:14.081Z</time></trkpt><trkpt lat="42.2020233" lon="13.2568217"><ele>870.0</ele><time>2026-05-02T14:55:15.081Z</time></trkpt><trkpt lat="42.202125" lon="13.256805"><ele>870.0</ele><time>2026-05-02T14:55:16.08Z</time></trkpt><trkpt lat="42.202225" lon="13.2568067"><ele>870.0</ele><time>2026-05-02T14:55:17.08Z</time></trkpt><trkpt lat="42.2023183" lon="13.2567933"><ele>870.0</ele><time>2026-05-02T14:55:18.081Z</time></trkpt><trkpt lat="42.20239" lon="13.2567683"><ele>870.0</ele><time>2026-05-02T14:55:19.081Z</time></trkpt><trkpt lat="42.2024583" lon="13.256725"><ele>870.0</ele><time>2026-05-02T14:55:20.08Z</time></trkpt><trkpt lat="42.2025717" lon="13.256685"><ele>871.1666666666666</ele><time>2026-05-02T14:55:22.081Z</time></trkpt><trkpt lat="42.20264" lon="13.256665"><ele>872.3333333333333</ele><time>2026-05-02T14:55:23.081Z</time></trkpt><trkpt lat="42.2027383" lon="13.2566583"><ele>873.5</ele><time>2026-05-02T14:55:25.081Z</time></trkpt><trkpt lat="42.2028183" lon="13.256585"><ele>874.6666666666666</ele><time>2026-05-02T14:55:27.08Z</time></trkpt><trkpt lat="42.20286" lon="13.25652"><ele>875.8333333333333</ele><time>2026-05-02T14:55:28.081Z</time></trkpt><trkpt lat="42.2029083" lon="13.25644"><ele>877.0</ele><time>2026-05-02T14:55:29.08Z</time></trkpt><trkpt lat="42.2029583" lon="13.2563517"><ele>877.9999999999999</ele><time>2026-05-02T14:55:30.08Z</time></trkpt><trkpt lat="42.2030017" lon="13.256265"><ele>879.0</ele><time>2026-05-02T14:55:31.08Z</time></trkpt><trkpt lat="42.203045" lon="13.256175"><ele>880.0</ele><time>2026-05-02T14:55:32.081Z</time></trkpt><trkpt lat="42.2030767" lon="13.2560967"><ele>881.0</ele><time>2026-05-02T14:55:33.081Z</time></trkpt><trkpt lat="42.2031167" lon="13.2560217"><ele>881.9999999999999</ele><time>2026-05-02T14:55:34.081Z</time></trkpt><trkpt lat="42.2031633" lon="13.255935"><ele>883.0</ele><time>2026-05-02T14:55:35.08Z</time></trkpt><trkpt lat="42.20322" lon="13.2558533"><ele>883.0</ele><time>2026-05-02T14:55:36.081Z</time></trkpt><trkpt lat="42.2032683" lon="13.2557767"><ele>883.0</ele><time>2026-05-02T14:55:37.081Z</time></trkpt><trkpt lat="42.20334" lon="13.2556467"><ele>883.0</ele><time>2026-05-02T14:55:39.08Z</time></trkpt><trkpt lat="42.20335" lon="13.2555033"><ele>883.0</ele><time>2026-05-02T14:55:41.08Z</time></trkpt><trkpt lat="42.20331" lon="13.2553417"><ele>883.0</ele><time>2026-05-02T14:55:43.08Z</time></trkpt><trkpt lat="42.20329" lon="13.2552233"><ele>884.8333333333333</ele><time>2026-05-02T14:55:44.081Z</time></trkpt><trkpt lat="42.203275" lon="13.2551033"><ele>886.6666666666666</ele><time>2026-05-02T14:55:45.08Z</time></trkpt><trkpt lat="42.2032717" lon="13.2550033"><ele>888.5</ele><time>2026-05-02T14:55:46.081Z</time></trkpt><trkpt lat="42.2032917" lon="13.254885"><ele>890.3333333333333</ele><time>2026-05-02T14:55:48.081Z</time></trkpt><trkpt lat="42.2033717" lon="13.2548917"><ele>892.1666666666666</ele><time>2026-05-02T14:55:52.081Z</time></trkpt><trkpt lat="42.2034167" lon="13.254965"><ele>894.0</ele><time>2026-05-02T14:55:54.08Z</time></trkpt><trkpt lat="42.203475" lon="13.2550317"><ele>894.0</ele><time>2026-05-02T14:55:56.081Z</time></trkpt><trkpt lat="42.2035317" lon="13.255075"><ele>894.0000000000001</ele><time>2026-05-02T14:55:57.08Z</time></trkpt><trkpt lat="42.2036033" lon="13.255135"><ele>894.0000000000001</ele><time>2026-05-02T14:55:58.08Z</time></trkpt><trkpt lat="42.2036967" lon="13.2552083"><ele>894.0</ele><time>2026-05-02T14:55:59.08Z</time></trkpt><trkpt lat="42.2037883" lon="13.25529"><ele>894.0</ele><time>2026-05-02T14:56:00.08Z</time></trkpt><trkpt lat="42.2038883" lon="13.2553967"><ele>894.0</ele><time>2026-05-02T14:56:01.081Z</time></trkpt><trkpt lat="42.2039883" lon="13.2555117"><ele>894.0</ele><time>2026-05-02T14:56:02.08Z</time></trkpt><trkpt lat="42.2040917" lon="13.2556533"><ele>894.0</ele><time>2026-05-02T14:56:03.081Z</time></trkpt><trkpt lat="42.204195" lon="13.2557983"><ele>894.0</ele><time>2026-05-02T14:56:04.081Z</time></trkpt><trkpt lat="42.2043217" lon="13.255915"><ele>896.0</ele><time>2026-05-02T14:56:05.081Z</time></trkpt><trkpt lat="42.2044667" lon="13.2560217"><ele>898.0</ele><time>2026-05-02T14:56:06.08Z</time></trkpt><trkpt lat="42.2046283" lon="13.2561317"><ele>900.0</ele><time>2026-05-02T14:56:07.081Z</time></trkpt><trkpt lat="42.2047767" lon="13.2562417"><ele>903.3333333333333</ele><time>2026-05-02T14:56:08.08Z</time></trkpt><trkpt lat="42.2049033" lon="13.2563617"><ele>906.6666666666666</ele><time>2026-05-02T14:56:09.081Z</time></trkpt><trkpt lat="42.2050167" lon="13.2564917"><ele>910.0</ele><time>2026-05-02T14:56:10.08Z</time></trkpt><trkpt lat="42.2051117" lon="13.2566483"><ele>910.0</ele><time>2026-05-02T14:56:11.08Z</time></trkpt><trkpt lat="42.2052" lon="13.2568317"><ele>910.0</ele><time>2026-05-02T14:56:12.081Z</time></trkpt><trkpt lat="42.2052883" lon="13.2570283"><ele>910.0</ele><time>2026-05-02T14:56:13.081Z</time></trkpt><trkpt lat="42.2053717" lon="13.257225"><ele>907.0</ele><time>2026-05-02T14:56:14.081Z</time></trkpt><trkpt lat="42.2054417" lon="13.2574217"><ele>904.0</ele><time>2026-05-02T14:56:15.081Z</time></trkpt><trkpt lat="42.2055017" lon="13.2576033"><ele>901.0</ele><time>2026-05-02T14:56:16.081Z</time></trkpt><trkpt lat="42.2055617" lon="13.25774"><ele>898.0</ele><time>2026-05-02T14:56:17.081Z</time></trkpt><trkpt lat="42.2056233" lon="13.2578283"><ele>901.8</ele><time>2026-05-02T14:56:18.081Z</time></trkpt><trkpt lat="42.2057167" lon="13.2578933"><ele>905.5999999999999</ele><time>2026-05-02T14:56:20.081Z</time></trkpt><trkpt lat="42.2058567" lon="13.25793"><ele>909.4000000000001</ele><time>2026-05-02T14:56:22.08Z</time></trkpt><trkpt lat="42.2059433" lon="13.2579733"><ele>913.2</ele><time>2026-05-02T14:56:23.081Z</time></trkpt><trkpt lat="42.2060367" lon="13.2580433"><ele>917.0</ele><time>2026-05-02T14:56:24.08Z</time></trkpt><trkpt lat="42.2061267" lon="13.2581333"><ele>917.0</ele><time>2026-05-02T14:56:25.08Z</time></trkpt><trkpt lat="42.2061833" lon="13.25824"><ele>917.0</ele><time>2026-05-02T14:56:26.081Z</time></trkpt><trkpt lat="42.2062033" lon="13.258355"><ele>917.0</ele><time>2026-05-02T14:56:27.081Z</time></trkpt><trkpt lat="42.2061983" lon="13.258505"><ele>917.0</ele><time>2026-05-02T14:56:28.08Z</time></trkpt><trkpt lat="42.2061983" lon="13.2586617"><ele>917.0</ele><time>2026-05-02T14:56:29.08Z</time></trkpt><trkpt lat="42.206185" lon="13.25884"><ele>915.5</ele><time>2026-05-02T14:56:30.08Z</time></trkpt><trkpt lat="42.206175" lon="13.259035"><ele>914.0</ele><time>2026-05-02T14:56:31.081Z</time></trkpt><trkpt lat="42.2061617" lon="13.2592233"><ele>912.5</ele><time>2026-05-02T14:56:32.08Z</time></trkpt><trkpt lat="42.2061667" lon="13.2594117"><ele>911.0</ele><time>2026-05-02T14:56:33.081Z</time></trkpt><trkpt lat="42.206185" lon="13.2595667"><ele>911.0</ele><time>2026-05-02T14:56:34.081Z</time></trkpt><trkpt lat="42.2062117" lon="13.259705"><ele>911.0</ele><time>2026-05-02T14:56:35.08Z</time></trkpt><trkpt lat="42.2062717" lon="13.2598267"><ele>911.0</ele><time>2026-05-02T14:56:36.08Z</time></trkpt><trkpt lat="42.2063533" lon="13.2599483"><ele>911.0</ele><time>2026-05-02T14:56:37.08Z</time></trkpt><trkpt lat="42.20645" lon="13.2600767"><ele>921.6666666666667</ele><time>2026-05-02T14:56:38.081Z</time></trkpt><trkpt lat="42.206555" lon="13.2602267"><ele>932.3333333333333</ele><time>2026-05-02T14:56:39.081Z</time></trkpt><trkpt lat="42.2066667" lon="13.260395"><ele>943.0</ele><time>2026-05-02T14:56:40.081Z</time></trkpt><trkpt lat="42.2067883" lon="13.2605733"><ele>937.3333333333333</ele><time>2026-05-02T14:56:41.08Z</time></trkpt><trkpt lat="42.2069033" lon="13.2607483"><ele>931.6666666666667</ele><time>2026-05-02T14:56:42.08Z</time></trkpt><trkpt lat="42.207005" lon="13.2609233"><ele>926.0</ele><time>2026-05-02T14:56:43.08Z</time></trkpt><trkpt lat="42.2070967" lon="13.2610933"><ele>926.0</ele><time>2026-05-02T14:56:44.081Z</time></trkpt><trkpt lat="42.20718" lon="13.2612583"><ele>926.0</ele><time>2026-05-02T14:56:45.08Z</time></trkpt><trkpt lat="42.2072683" lon="13.2614267"><ele>926.0</ele><time>2026-05-02T14:56:46.081Z</time></trkpt><trkpt lat="42.207355" lon="13.2615917"><ele>929.4</ele><time>2026-05-02T14:56:47.081Z</time></trkpt><trkpt lat="42.20745" lon="13.2617317"><ele>932.8</ele><time>2026-05-02T14:56:48.081Z</time></trkpt><trkpt lat="42.2075483" lon="13.2618267"><ele>936.1999999999999</ele><time>2026-05-02T14:56:49.08Z</time></trkpt><trkpt lat="42.207635" lon="13.261875"><ele>939.5999999999999</ele><time>2026-05-02T14:56:50.08Z</time></trkpt><trkpt lat="42.2077083" lon="13.2618917"><ele>943.0</ele><time>2026-05-02T14:56:51.08Z</time></trkpt><trkpt lat="42.2077717" lon="13.26186"><ele>942.9999999999999</ele><time>2026-05-02T14:56:52.08Z</time></trkpt><trkpt lat="42.207835" lon="13.2617883"><ele>943.0</ele><time>2026-05-02T14:56:53.08Z</time></trkpt><trkpt lat="42.207885" lon="13.2617083"><ele>943.0</ele><time>2026-05-02T14:56:54.08Z</time></trkpt><trkpt lat="42.20791" lon="13.26163"><ele>943.0</ele><time>2026-05-02T14:56:55.081Z</time></trkpt><trkpt lat="42.2078383" lon="13.261565"><ele>942.9999999999999</ele><time>2026-05-02T14:56:58.08Z</time></trkpt><trkpt lat="42.20772" lon="13.2616067"><ele>943.0</ele><time>2026-05-02T14:57:00.079Z</time></trkpt><trkpt lat="42.2076233" lon="13.2615033"><ele>947.4</ele><time>2026-05-02T14:57:02.08Z</time></trkpt><trkpt lat="42.2075883" lon="13.2613967"><ele>951.8</ele><time>2026-05-02T14:57:03.079Z</time></trkpt><trkpt lat="42.20755" lon="13.2612683"><ele>956.2</ele><time>2026-05-02T14:57:04.08Z</time></trkpt><trkpt lat="42.2075017" lon="13.2611267"><ele>960.6</ele><time>2026-05-02T14:57:05.08Z</time></trkpt><trkpt lat="42.2074433" lon="13.2609767"><ele>965.0</ele><time>2026-05-02T14:57:06.079Z</time></trkpt><trkpt lat="42.2073767" lon="13.260815"><ele>959.5</ele><time>2026-05-02T14:57:07.08Z</time></trkpt><trkpt lat="42.2073017" lon="13.2606367"><ele>954.0</ele><time>2026-05-02T14:57:08.08Z</time></trkpt><trkpt lat="42.20723" lon="13.260465"><ele>948.5</ele><time>2026-05-02T14:57:09.079Z</time></trkpt><trkpt lat="42.2071567" lon="13.2602917"><ele>943.0</ele><time>2026-05-02T14:57:10.079Z</time></trkpt><trkpt lat="42.2070967" lon="13.260115"><ele>943.0</ele><time>2026-05-02T14:57:11.08Z</time></trkpt><trkpt lat="42.2070367" lon="13.2599317"><ele>943.0</ele><time>2026-05-02T14:57:12.08Z</time></trkpt><trkpt lat="42.20698" lon="13.259745"><ele>943.0</ele><time>2026-05-02T14:57:13.08Z</time></trkpt><trkpt lat="42.2069367" lon="13.2596033"><ele>943.0</ele><time>2026-05-02T14:57:14.08Z</time></trkpt><trkpt lat="42.20692" lon="13.2594683"><ele>944.5999999999999</ele><time>2026-05-02T14:57:15.079Z</time></trkpt><trkpt lat="42.20693" lon="13.2593517"><ele>946.1999999999999</ele><time>2026-05-02T14:57:16.08Z</time></trkpt><trkpt lat="42.20697" lon="13.25923"><ele>947.8</ele><time>2026-05-02T14:57:17.079Z</time></trkpt><trkpt lat="42.20703" lon="13.2590967"><ele>949.4</ele><time>2026-05-02T14:57:18.08Z</time></trkpt><trkpt lat="42.2070917" lon="13.2589517"><ele>951.0</ele><time>2026-05-02T14:57:19.079Z</time></trkpt><trkpt lat="42.207155" lon="13.2587833"><ele>951.0</ele><time>2026-05-02T14:57:20.08Z</time></trkpt><trkpt lat="42.2072083" lon="13.2585983"><ele>951.0</ele><time>2026-05-02T14:57:21.08Z</time></trkpt><trkpt lat="42.2072483" lon="13.2583967"><ele>951.0</ele><time>2026-05-02T14:57:22.079Z</time></trkpt><trkpt lat="42.2072767" lon="13.2581783"><ele>954.75</ele><time>2026-05-02T14:57:23.08Z</time></trkpt><trkpt lat="42.2073" lon="13.257975"><ele>958.5</ele><time>2026-05-02T14:57:24.08Z</time></trkpt><trkpt lat="42.2072933" lon="13.2578017"><ele>962.25</ele><time>2026-05-02T14:57:25.079Z</time></trkpt><trkpt lat="42.2072583" lon="13.2576433"><ele>966.0</ele><time>2026-05-02T14:57:26.079Z</time></trkpt><trkpt lat="42.2071917" lon="13.2575033"><ele>966.0</ele><time>2026-05-02T14:57:27.079Z</time></trkpt><trkpt lat="42.2071033" lon="13.2573833"><ele>966.0</ele><time>2026-05-02T14:57:28.079Z</time></trkpt><trkpt lat="42.2069967" lon="13.2572467"><ele>966.0</ele><time>2026-05-02T14:57:29.079Z</time></trkpt><trkpt lat="42.2068783" lon="13.2570967"><ele>966.0</ele><time>2026-05-02T14:57:30.08Z</time></trkpt><trkpt lat="42.206775" lon="13.2569517"><ele>971.25</ele><time>2026-05-02T14:57:31.08Z</time></trkpt><trkpt lat="42.2066967" lon="13.2568167"><ele>976.5</ele><time>2026-05-02T14:57:32.079Z</time></trkpt><trkpt lat="42.2066383" lon="13.2566867"><ele>981.75</ele><time>2026-05-02T14:57:33.079Z</time></trkpt><trkpt lat="42.2065817" lon="13.2565367"><ele>987.0</ele><time>2026-05-02T14:57:34.079Z</time></trkpt><trkpt lat="42.2065283" lon="13.2563633"><ele>979.0</ele><time>2026-05-02T14:57:35.08Z</time></trkpt><trkpt lat="42.2064933" lon="13.2561667"><ele>971.0</ele><time>2026-05-02T14:57:36.079Z</time></trkpt><trkpt lat="42.2064583" lon="13.25596"><ele>963.0</ele><time>2026-05-02T14:57:37.079Z</time></trkpt><trkpt lat="42.2064433" lon="13.25574"><ele>966.0</ele><time>2026-05-02T14:57:38.08Z</time></trkpt><trkpt lat="42.20645" lon="13.2555433"><ele>969.0</ele><time>2026-05-02T14:57:39.079Z</time></trkpt><trkpt lat="42.20646" lon="13.2553517"><ele>972.0</ele><time>2026-05-02T14:57:40.079Z</time></trkpt><trkpt lat="42.206475" lon="13.255185"><ele>975.0</ele><time>2026-05-02T14:57:41.08Z</time></trkpt><trkpt lat="42.2064783" lon="13.2550367"><ele>975.0</ele><time>2026-05-02T14:57:42.079Z</time></trkpt><trkpt lat="42.2064733" lon="13.25488"><ele>975.0</ele><time>2026-05-02T14:57:43.079Z</time></trkpt><trkpt lat="42.20646" lon="13.2547083"><ele>975.0</ele><time>2026-05-02T14:57:44.08Z</time></trkpt><trkpt lat="42.2064383" lon="13.2545317"><ele>975.0</ele><time>2026-05-02T14:57:45.079Z</time></trkpt><trkpt lat="42.2064117" lon="13.254345"><ele>974.75</ele><time>2026-05-02T14:57:46.08Z</time></trkpt><trkpt lat="42.206405" lon="13.2541617"><ele>974.5</ele><time>2026-05-02T14:57:47.079Z</time></trkpt><trkpt lat="42.206415" lon="13.25399"><ele>974.25</ele><time>2026-05-02T14:57:48.079Z</time></trkpt><trkpt lat="42.2064467" lon="13.25382"><ele>974.0</ele><time>2026-05-02T14:57:49.08Z</time></trkpt><trkpt lat="42.2064917" lon="13.253645"><ele>983.6666666666667</ele><time>2026-05-02T14:57:50.079Z</time></trkpt><trkpt lat="42.2065517" lon="13.25346"><ele>993.3333333333333</ele><time>2026-05-02T14:57:51.08Z</time></trkpt><trkpt lat="42.206625" lon="13.2532817"><ele>1003.0</ele><time>2026-05-02T14:57:52.08Z</time></trkpt><trkpt lat="42.2066933" lon="13.2530867"><ele>1003.0</ele><time>2026-05-02T14:57:53.079Z</time></trkpt><trkpt lat="42.2067467" lon="13.2529067"><ele>1003.0</ele><time>2026-05-02T14:57:54.08Z</time></trkpt><trkpt lat="42.2067917" lon="13.2527583"><ele>1003.0</ele><time>2026-05-02T14:57:55.079Z</time></trkpt><trkpt lat="42.2068333" lon="13.2526717"><ele>1003.0</ele><time>2026-05-02T14:57:56.08Z</time></trkpt><trkpt lat="42.206885" lon="13.2527583"><ele>1003.0</ele><time>2026-05-02T14:58:00.079Z</time></trkpt><trkpt lat="42.2068633" lon="13.2529183"><ele>1003.0</ele><time>2026-05-02T14:58:02.08Z</time></trkpt><trkpt lat="42.20685" lon="13.253015"><ele>1003.0</ele><time>2026-05-02T14:58:03.079Z</time></trkpt><trkpt lat="42.20684" lon="13.25313"><ele>1003.0</ele><time>2026-05-02T14:58:04.079Z</time></trkpt><trkpt lat="42.2068283" lon="13.253255"><ele>1003.0</ele><time>2026-05-02T14:58:05.079Z</time></trkpt><trkpt lat="42.2068267" lon="13.253395"><ele>1003.0</ele><time>2026-05-02T14:58:06.08Z</time></trkpt><trkpt lat="42.20684" lon="13.2535467"><ele>1004.0</ele><time>2026-05-02T14:58:07.079Z</time></trkpt><trkpt lat="42.2068533" lon="13.253695"><ele>1005.0</ele><time>2026-05-02T14:58:08.08Z</time></trkpt><trkpt lat="42.2068733" lon="13.2538233"><ele>1006.0</ele><time>2026-05-02T14:58:09.079Z</time></trkpt><trkpt lat="42.2068983" lon="13.2539333"><ele>1007.0</ele><time>2026-05-02T14:58:10.08Z</time></trkpt><trkpt lat="42.20693" lon="13.2540217"><ele>1008.0</ele><time>2026-05-02T14:58:11.079Z</time></trkpt><trkpt lat="42.2069717" lon="13.2541233"><ele>1007.5999999999999</ele><time>2026-05-02T14:58:12.079Z</time></trkpt><trkpt lat="42.2070183" lon="13.2542417"><ele>1007.1999999999999</ele><time>2026-05-02T14:58:13.079Z</time></trkpt><trkpt lat="42.2070633" lon="13.2543783"><ele>1006.8</ele><time>2026-05-02T14:58:14.079Z</time></trkpt><trkpt lat="42.2070933" lon="13.2545267"><ele>1006.4</ele><time>2026-05-02T14:58:15.08Z</time></trkpt><trkpt lat="42.2071267" lon="13.25468"><ele>1006.0</ele><time>2026-05-02T14:58:16.08Z</time></trkpt><trkpt lat="42.207165" lon="13.2548383"><ele>1006.0</ele><time>2026-05-02T14:58:17.079Z</time></trkpt><trkpt lat="42.20721" lon="13.2550067"><ele>1006.0</ele><time>2026-05-02T14:58:18.079Z</time></trkpt><trkpt lat="42.2072483" lon="13.255175"><ele>1006.0</ele><time>2026-05-02T14:58:19.079Z</time></trkpt><trkpt lat="42.2072767" lon="13.2553567"><ele>1006.0</ele><time>2026-05-02T14:58:20.079Z</time></trkpt><trkpt lat="42.2073033" lon="13.2555483"><ele>1013.75</ele><time>2026-05-02T14:58:21.079Z</time></trkpt><trkpt lat="42.207345" lon="13.2557367"><ele>1021.5</ele><time>2026-05-02T14:58:22.08Z</time></trkpt><trkpt lat="42.20739" lon="13.255915"><ele>1029.25</ele><time>2026-05-02T14:58:23.08Z</time></trkpt><trkpt lat="42.20744" lon="13.25608"><ele>1037.0</ele><time>2026-05-02T14:58:24.079Z</time></trkpt><trkpt lat="42.2074883" lon="13.256215"><ele>1037.0</ele><time>2026-05-02T14:58:25.08Z</time></trkpt><trkpt lat="42.2075533" lon="13.2563283"><ele>1037.0</ele><time>2026-05-02T14:58:26.079Z</time></trkpt><trkpt lat="42.2076217" lon="13.256425"><ele>1037.0</ele><time>2026-05-02T14:58:27.079Z</time></trkpt><trkpt lat="42.207715" lon="13.2565167"><ele>1037.0</ele><time>2026-05-02T14:58:28.08Z</time></trkpt><trkpt lat="42.2078117" lon="13.25662"><ele>1037.0</ele><time>2026-05-02T14:58:29.08Z</time></trkpt><trkpt lat="42.2079033" lon="13.25673"><ele>1039.25</ele><time>2026-05-02T14:58:30.079Z</time></trkpt><trkpt lat="42.2080017" lon="13.2568533"><ele>1041.5</ele><time>2026-05-02T14:58:31.079Z</time></trkpt><trkpt lat="42.20809" lon="13.2569783"><ele>1043.75</ele><time>2026-05-02T14:58:32.08Z</time></trkpt><trkpt lat="42.2081683" lon="13.25713"><ele>1046.0</ele><time>2026-05-02T14:58:33.08Z</time></trkpt><trkpt lat="42.2082417" lon="13.2572883"><ele>1046.0</ele><time>2026-05-02T14:58:34.079Z</time></trkpt><trkpt lat="42.2083083" lon="13.2574467"><ele>1046.0</ele><time>2026-05-02T14:58:35.08Z</time></trkpt><trkpt lat="42.2083567" lon="13.2575983"><ele>1046.0</ele><time>2026-05-02T14:58:36.08Z</time></trkpt><trkpt lat="42.2083967" lon="13.25777"><ele>1046.0</ele><time>2026-05-02T14:58:37.079Z</time></trkpt><trkpt lat="42.208415" lon="13.25796"><ele>1043.6666666666667</ele><time>2026-05-02T14:58:38.079Z</time></trkpt><trkpt lat="42.2084217" lon="13.2581517"><ele>1041.3333333333333</ele><time>2026-05-02T14:58:39.079Z</time></trkpt><trkpt lat="42.2084467" lon="13.2583567"><ele>1039.0</ele><time>2026-05-02T14:58:40.079Z</time></trkpt><trkpt lat="42.2084783" lon="13.25856"><ele>1039.0</ele><time>2026-05-02T14:58:41.079Z</time></trkpt><trkpt lat="42.2085133" lon="13.2587267"><ele>1039.0</ele><time>2026-05-02T14:58:42.079Z</time></trkpt><trkpt lat="42.2085517" lon="13.25886"><ele>1039.0</ele><time>2026-05-02T14:58:43.079Z</time></trkpt><trkpt lat="42.2085833" lon="13.25896"><ele>1039.0</ele><time>2026-05-02T14:58:44.079Z</time></trkpt><trkpt lat="42.208685" lon="13.259045"><ele>1039.0</ele><time>2026-05-02T14:58:46.08Z</time></trkpt><trkpt lat="42.2087583" lon="13.2590733"><ele>1037.6000000000001</ele><time>2026-05-02T14:58:47.08Z</time></trkpt><trkpt lat="42.2088467" lon="13.2590933"><ele>1036.2</ele><time>2026-05-02T14:58:48.079Z</time></trkpt><trkpt lat="42.2089433" lon="13.25913"><ele>1034.8000000000002</ele><time>2026-05-02T14:58:49.079Z</time></trkpt><trkpt lat="42.2090617" lon="13.2591417"><ele>1033.4</ele><time>2026-05-02T14:58:50.079Z</time></trkpt><trkpt lat="42.20918" lon="13.25916"><ele>1032.0</ele><time>2026-05-02T14:58:51.079Z</time></trkpt><trkpt lat="42.2092983" lon="13.2591917"><ele>1039.0</ele><time>2026-05-02T14:58:52.08Z</time></trkpt><trkpt lat="42.2094233" lon="13.25922"><ele>1046.0</ele><time>2026-05-02T14:58:53.079Z</time></trkpt><trkpt lat="42.20955" lon="13.25925"><ele>1053.0</ele><time>2026-05-02T14:58:54.079Z</time></trkpt><trkpt lat="42.2096767" lon="13.259285"><ele>1060.0</ele><time>2026-05-02T14:58:55.079Z</time></trkpt><trkpt lat="42.2098067" lon="13.25933"><ele>1066.25</ele><time>2026-05-02T14:58:56.079Z</time></trkpt><trkpt lat="42.2099383" lon="13.2593983"><ele>1072.5</ele><time>2026-05-02T14:58:57.079Z</time></trkpt><trkpt lat="42.2100617" lon="13.2594883"><ele>1078.75</ele><time>2026-05-02T14:58:58.08Z</time></trkpt><trkpt lat="42.21019" lon="13.259585"><ele>1085.0</ele><time>2026-05-02T14:58:59.079Z</time></trkpt><trkpt lat="42.2103033" lon="13.2596967"><ele>1087.0</ele><time>2026-05-02T14:59:00.079Z</time></trkpt><trkpt lat="42.2104117" lon="13.259815"><ele>1089.0</ele><time>2026-05-02T14:59:01.08Z</time></trkpt><trkpt lat="42.2105117" lon="13.2599317"><ele>1091.0</ele><time>2026-05-02T14:59:02.079Z</time></trkpt><trkpt lat="42.2106083" lon="13.260075"><ele>1093.0</ele><time>2026-05-02T14:59:03.08Z</time></trkpt><trkpt lat="42.2106917" lon="13.26022"><ele>1093.0</ele><time>2026-05-02T14:59:04.08Z</time></trkpt><trkpt lat="42.2107833" lon="13.2603833"><ele>1093.0</ele><time>2026-05-02T14:59:05.08Z</time></trkpt><trkpt lat="42.2108733" lon="13.2605183"><ele>1093.0</ele><time>2026-05-02T14:59:06.08Z</time></trkpt><trkpt lat="42.2109583" lon="13.2606133"><ele>1093.0</ele><time>2026-05-02T14:59:07.08Z</time></trkpt><trkpt lat="42.2110367" lon="13.26069"><ele>1086.5</ele><time>2026-05-02T14:59:08.079Z</time></trkpt><trkpt lat="42.2111217" lon="13.260765"><ele>1080.0</ele><time>2026-05-02T14:59:09.08Z</time></trkpt><trkpt lat="42.2112233" lon="13.26083"><ele>1073.5</ele><time>2026-05-02T14:59:10.08Z</time></trkpt><trkpt lat="42.2113367" lon="13.260885"><ele>1067.0</ele><time>2026-05-02T14:59:11.08Z</time></trkpt><trkpt lat="42.211455" lon="13.260925"><ele>1073.8</ele><time>2026-05-02T14:59:12.079Z</time></trkpt><trkpt lat="42.2115783" lon="13.2609583"><ele>1080.6</ele><time>2026-05-02T14:59:13.079Z</time></trkpt><trkpt lat="42.2116817" lon="13.2609967"><ele>1087.3999999999999</ele><time>2026-05-02T14:59:14.079Z</time></trkpt><trkpt lat="42.211785" lon="13.261055"><ele>1094.2</ele><time>2026-05-02T14:59:15.08Z</time></trkpt><trkpt lat="42.2118733" lon="13.2611283"><ele>1101.0</ele><time>2026-05-02T14:59:16.079Z</time></trkpt><trkpt lat="42.211965" lon="13.2611917"><ele>1101.0</ele><time>2026-05-02T14:59:17.079Z</time></trkpt><trkpt lat="42.2120367" lon="13.261235"><ele>1101.0</ele><time>2026-05-02T14:59:18.079Z</time></trkpt><trkpt lat="42.212115" lon="13.2612583"><ele>1101.0</ele><time>2026-05-02T14:59:19.079Z</time></trkpt><trkpt lat="42.2122" lon="13.2612683"><ele>1101.0</ele><time>2026-05-02T14:59:20.079Z</time></trkpt><trkpt lat="42.2123" lon="13.261265"><ele>1101.0</ele><time>2026-05-02T14:59:21.079Z</time></trkpt><trkpt lat="42.2123983" lon="13.261255"><ele>1101.0</ele><time>2026-05-02T14:59:22.08Z</time></trkpt><trkpt lat="42.2124867" lon="13.261245"><ele>1100.6666666666667</ele><time>2026-05-02T14:59:23.079Z</time></trkpt><trkpt lat="42.2125633" lon="13.26127"><ele>1100.3333333333333</ele><time>2026-05-02T14:59:24.079Z</time></trkpt><trkpt lat="42.2126217" lon="13.261325"><ele>1100.0</ele><time>2026-05-02T14:59:25.079Z</time></trkpt><trkpt lat="42.2126817" lon="13.26141"><ele>1099.6666666666665</ele><time>2026-05-02T14:59:26.079Z</time></trkpt><trkpt lat="42.2127267" lon="13.2615217"><ele>1099.3333333333333</ele><time>2026-05-02T14:59:27.08Z</time></trkpt><trkpt lat="42.21277" lon="13.2616517"><ele>1099.0</ele><time>2026-05-02T14:59:28.08Z</time></trkpt><trkpt lat="42.2128217" lon="13.2617617"><ele>1099.0</ele><time>2026-05-02T14:59:29.08Z</time></trkpt><trkpt lat="42.2128933" lon="13.2618567"><ele>1099.0</ele><time>2026-05-02T14:59:30.079Z</time></trkpt><trkpt lat="42.21297" lon="13.2619533"><ele>1099.0</ele><time>2026-05-02T14:59:31.079Z</time></trkpt><trkpt lat="42.2130617" lon="13.26206"><ele>1099.0</ele><time>2026-05-02T14:59:32.079Z</time></trkpt><trkpt lat="42.2131517" lon="13.262185"><ele>1101.0</ele><time>2026-05-02T14:59:33.079Z</time></trkpt><trkpt lat="42.2132567" lon="13.2623117"><ele>1103.0</ele><time>2026-05-02T14:59:34.079Z</time></trkpt><trkpt lat="42.21336" lon="13.2624367"><ele>1105.0</ele><time>2026-05-02T14:59:35.08Z</time></trkpt><trkpt lat="42.21347" lon="13.2625617"><ele>1107.0</ele><time>2026-05-02T14:59:36.079Z</time></trkpt><trkpt lat="42.2135933" lon="13.26269"><ele>1107.0</ele><time>2026-05-02T14:59:37.08Z</time></trkpt><trkpt lat="42.213695" lon="13.2628067"><ele>1107.0</ele><time>2026-05-02T14:59:38.079Z</time></trkpt><trkpt lat="42.2137917" lon="13.2629033"><ele>1107.0</ele><time>2026-05-02T14:59:39.08Z</time></trkpt><trkpt lat="42.2138883" lon="13.26297"><ele>1107.0</ele><time>2026-05-02T14:59:40.08Z</time></trkpt><trkpt lat="42.2139967" lon="13.2630267"><ele>1108.25</ele><time>2026-05-02T14:59:41.08Z</time></trkpt><trkpt lat="42.21411" lon="13.26307"><ele>1109.5</ele><time>2026-05-02T14:59:42.079Z</time></trkpt><trkpt lat="42.2142283" lon="13.2631033"><ele>1110.75</ele><time>2026-05-02T14:59:43.079Z</time></trkpt><trkpt lat="42.2143517" lon="13.2631267"><ele>1112.0</ele><time>2026-05-02T14:59:44.08Z</time></trkpt><trkpt lat="42.2144717" lon="13.263135"><ele>1112.0</ele><time>2026-05-02T14:59:45.079Z</time></trkpt><trkpt lat="42.2145967" lon="13.263125"><ele>1112.0</ele><time>2026-05-02T14:59:46.08Z</time></trkpt><trkpt lat="42.2147283" lon="13.263105"><ele>1112.0</ele><time>2026-05-02T14:59:47.08Z</time></trkpt><trkpt lat="42.2148383" lon="13.263095"><ele>1112.0</ele><time>2026-05-02T14:59:48.08Z</time></trkpt><trkpt lat="42.2149467" lon="13.263105"><ele>1109.2</ele><time>2026-05-02T14:59:49.079Z</time></trkpt><trkpt lat="42.215055" lon="13.263125"><ele>1106.4</ele><time>2026-05-02T14:59:50.079Z</time></trkpt><trkpt lat="42.2151483" lon="13.2631717"><ele>1103.6</ele><time>2026-05-02T14:59:51.079Z</time></trkpt><trkpt lat="42.2152417" lon="13.26324"><ele>1100.8</ele><time>2026-05-02T14:59:52.079Z</time></trkpt><trkpt lat="42.2153333" lon="13.2633217"><ele>1098.0</ele><time>2026-05-02T14:59:53.079Z</time></trkpt><trkpt lat="42.2154183" lon="13.2634067"><ele>1098.0</ele><time>2026-05-02T14:59:54.079Z</time></trkpt><trkpt lat="42.2154933" lon="13.2634867"><ele>1098.0</ele><time>2026-05-02T14:59:55.079Z</time></trkpt><trkpt lat="42.2155383" lon="13.2635667"><ele>1098.0</ele><time>2026-05-02T14:59:56.079Z</time></trkpt><trkpt lat="42.215565" lon="13.263645"><ele>1098.0</ele><time>2026-05-02T14:59:57.079Z</time></trkpt><trkpt lat="42.2155367" lon="13.2637967"><ele>1098.0</ele><time>2026-05-02T14:59:59.079Z</time></trkpt><trkpt lat="42.21548" lon="13.26386"><ele>1098.0</ele><time>2026-05-02T15:00:00.08Z</time></trkpt><trkpt lat="42.2154333" lon="13.26393"><ele>1098.0</ele><time>2026-05-02T15:00:01.079Z</time></trkpt><trkpt lat="42.2153967" lon="13.2640233"><ele>1098.0</ele><time>2026-05-02T15:00:03.08Z</time></trkpt><trkpt lat="42.21548" lon="13.264125"><ele>1098.0</ele><time>2026-05-02T15:00:05.08Z</time></trkpt><trkpt lat="42.2155517" lon="13.2641833"><ele>1098.0</ele><time>2026-05-02T15:00:06.08Z</time></trkpt><trkpt lat="42.2156417" lon="13.2642317"><ele>1098.0</ele><time>2026-05-02T15:00:07.079Z</time></trkpt><trkpt lat="42.2157583" lon="13.264255"><ele>1100.5</ele><time>2026-05-02T15:00:08.08Z</time></trkpt><trkpt lat="42.2158683" lon="13.2642567"><ele>1103.0</ele><time>2026-05-02T15:00:09.079Z</time></trkpt><trkpt lat="42.2159583" lon="13.2642817"><ele>1105.5</ele><time>2026-05-02T15:00:10.079Z</time></trkpt><trkpt lat="42.2160383" lon="13.26432"><ele>1108.0</ele><time>2026-05-02T15:00:11.08Z</time></trkpt><trkpt lat="42.2160917" lon="13.2643817"><ele>1110.5</ele><time>2026-05-02T15:00:12.079Z</time></trkpt><trkpt lat="42.2161133" lon="13.2644767"><ele>1113.0</ele><time>2026-05-02T15:00:13.08Z</time></trkpt><trkpt lat="42.2161233" lon="13.2645867"><ele>1113.0</ele><time>2026-05-02T15:00:14.079Z</time></trkpt><trkpt lat="42.2161217" lon="13.264705"><ele>1113.0</ele><time>2026-05-02T15:00:15.079Z</time></trkpt><trkpt lat="42.21611" lon="13.2648317"><ele>1113.0</ele><time>2026-05-02T15:00:16.079Z</time></trkpt><trkpt lat="42.2160933" lon="13.2649517"><ele>1113.0</ele><time>2026-05-02T15:00:17.079Z</time></trkpt><trkpt lat="42.216095" lon="13.26505"><ele>1113.0</ele><time>2026-05-02T15:00:18.08Z</time></trkpt><trkpt lat="42.21612" lon="13.2651633"><ele>1113.0</ele><time>2026-05-02T15:00:19.08Z</time></trkpt><trkpt lat="42.21616" lon="13.2652617"><ele>1114.75</ele><time>2026-05-02T15:00:20.08Z</time></trkpt><trkpt lat="42.2162317" lon="13.265375"><ele>1116.5</ele><time>2026-05-02T15:00:21.079Z</time></trkpt><trkpt lat="42.2163067" lon="13.2654833"><ele>1118.25</ele><time>2026-05-02T15:00:22.079Z</time></trkpt><trkpt lat="42.21639" lon="13.2655917"><ele>1120.0</ele><time>2026-05-02T15:00:23.079Z</time></trkpt><trkpt lat="42.2164883" lon="13.2656917"><ele>1120.0</ele><time>2026-05-02T15:00:24.08Z</time></trkpt><trkpt lat="42.2165967" lon="13.2657817"><ele>1120.0</ele><time>2026-05-02T15:00:25.079Z</time></trkpt><trkpt lat="42.216725" lon="13.2658567"><ele>1120.0</ele><time>2026-05-02T15:00:26.08Z</time></trkpt><trkpt lat="42.216865" lon="13.2659083"><ele>1120.0</ele><time>2026-05-02T15:00:27.079Z</time></trkpt><trkpt lat="42.21704" lon="13.2659433"><ele>1120.0</ele><time>2026-05-02T15:00:28.079Z</time></trkpt><trkpt lat="42.21719" lon="13.2659883"><ele>1120.0</ele><time>2026-05-02T15:00:29.08Z</time></trkpt><trkpt lat="42.2173217" lon="13.266"><ele>1120.0</ele><time>2026-05-02T15:00:30.08Z</time></trkpt><trkpt lat="42.2174567" lon="13.266005"><ele>1120.0</ele><time>2026-05-02T15:00:31.08Z</time></trkpt><trkpt lat="42.2175517" lon="13.266005"><ele>1118.3333333333333</ele><time>2026-05-02T15:00:32.08Z</time></trkpt><trkpt lat="42.21763" lon="13.2660183"><ele>1116.6666666666665</ele><time>2026-05-02T15:00:33.079Z</time></trkpt><trkpt lat="42.2176933" lon="13.266055"><ele>1115.0</ele><time>2026-05-02T15:00:34.079Z</time></trkpt><trkpt lat="42.2177533" lon="13.2661083"><ele>1113.3333333333333</ele><time>2026-05-02T15:00:35.079Z</time></trkpt><trkpt lat="42.2178267" lon="13.26616"><ele>1111.6666666666667</ele><time>2026-05-02T15:00:36.08Z</time></trkpt><trkpt lat="42.2179017" lon="13.2662083"><ele>1110.0</ele><time>2026-05-02T15:00:37.08Z</time></trkpt><trkpt lat="42.2180133" lon="13.2662017"><ele>1110.0000000000002</ele><time>2026-05-02T15:00:39.08Z</time></trkpt><trkpt lat="42.218065" lon="13.2661517"><ele>1110.0</ele><time>2026-05-02T15:00:40.079Z</time></trkpt><trkpt lat="42.218105" lon="13.26607"><ele>1110.0</ele><time>2026-05-02T15:00:41.079Z</time></trkpt><trkpt lat="42.218145" lon="13.265995"><ele>1110.0</ele><time>2026-05-02T15:00:42.08Z</time></trkpt><trkpt lat="42.21819" lon="13.26593"><ele>1110.0</ele><time>2026-05-02T15:00:43.08Z</time></trkpt><trkpt lat="42.2182483" lon="13.2658883"><ele>1110.0000000000002</ele><time>2026-05-02T15:00:44.079Z</time></trkpt><trkpt lat="42.2183233" lon="13.2658583"><ele>1110.0</ele><time>2026-05-02T15:00:45.08Z</time></trkpt><trkpt lat="42.2184183" lon="13.26586"><ele>1110.6</ele><time>2026-05-02T15:00:46.079Z</time></trkpt><trkpt lat="42.2185083" lon="13.2658467"><ele>1111.2</ele><time>2026-05-02T15:00:47.079Z</time></trkpt><trkpt lat="42.2185967" lon="13.2658083"><ele>1111.8</ele><time>2026-05-02T15:00:48.079Z</time></trkpt><trkpt lat="42.218685" lon="13.2657467"><ele>1112.4</ele><time>2026-05-02T15:00:49.079Z</time></trkpt><trkpt lat="42.218785" lon="13.2656967"><ele>1113.0</ele><time>2026-05-02T15:00:50.08Z</time></trkpt><trkpt lat="42.2188933" lon="13.26566"><ele>1113.6</ele><time>2026-05-02T15:00:51.079Z</time></trkpt><trkpt lat="42.218995" lon="13.2656133"><ele>1114.1999999999998</ele><time>2026-05-02T15:00:52.08Z</time></trkpt><trkpt lat="42.21908" lon="13.26557"><ele>1114.8</ele><time>2026-05-02T15:00:53.08Z</time></trkpt><trkpt lat="42.2191617" lon="13.2655133"><ele>1115.3999999999999</ele><time>2026-05-02T15:00:54.08Z</time></trkpt><trkpt lat="42.2192467" lon="13.2654417"><ele>1116.0</ele><time>2026-05-02T15:00:55.08Z</time></trkpt><trkpt lat="42.219325" lon="13.26536"><ele>1116.0</ele><time>2026-05-02T15:00:56.079Z</time></trkpt><trkpt lat="42.2194067" lon="13.2652767"><ele>1116.0</ele><time>2026-05-02T15:00:57.079Z</time></trkpt><trkpt lat="42.2194933" lon="13.2651967"><ele>1116.0</ele><time>2026-05-02T15:00:58.08Z</time></trkpt><trkpt lat="42.219585" lon="13.26512"><ele>1116.0</ele><time>2026-05-02T15:00:59.079Z</time></trkpt><trkpt lat="42.21967" lon="13.2650417"><ele>1116.0</ele><time>2026-05-02T15:01:00.08Z</time></trkpt><trkpt lat="42.2197317" lon="13.2649633"><ele>1116.0</ele><time>2026-05-02T15:01:01.079Z</time></trkpt><trkpt lat="42.21979" lon="13.2648867"><ele>1116.0</ele><time>2026-05-02T15:01:02.079Z</time></trkpt><trkpt lat="42.2198333" lon="13.2648017"><ele>1116.0</ele><time>2026-05-02T15:01:03.08Z</time></trkpt><trkpt lat="42.21988" lon="13.2647083"><ele>1116.0</ele><time>2026-05-02T15:01:04.079Z</time></trkpt><trkpt lat="42.2199333" lon="13.2646167"><ele>1116.0</ele><time>2026-05-02T15:01:05.08Z</time></trkpt><trkpt lat="42.2199983" lon="13.2645283"><ele>1116.0</ele><time>2026-05-02T15:01:06.079Z</time></trkpt><trkpt lat="42.2200583" lon="13.2644667"><ele>1117.75</ele><time>2026-05-02T15:01:07.079Z</time></trkpt><trkpt lat="42.2201533" lon="13.2644317"><ele>1119.5</ele><time>2026-05-02T15:01:09.079Z</time></trkpt><trkpt lat="42.220235" lon="13.2645383"><ele>1121.25</ele><time>2026-05-02T15:01:11.079Z</time></trkpt><trkpt lat="42.220325" lon="13.26466"><ele>1123.0</ele><time>2026-05-02T15:01:13.079Z</time></trkpt><trkpt lat="42.2204433" lon="13.264715"><ele>1123.0</ele><time>2026-05-02T15:01:15.08Z</time></trkpt><trkpt lat="42.2205083" lon="13.2647217"><ele>1123.0</ele><time>2026-05-02T15:01:16.079Z</time></trkpt><trkpt lat="42.220585" lon="13.2647283"><ele>1123.0</ele><time>2026-05-02T15:01:17.08Z</time></trkpt><trkpt lat="42.2206733" lon="13.2647283"><ele>1123.0</ele><time>2026-05-02T15:01:18.079Z</time></trkpt><trkpt lat="42.220765" lon="13.264745"><ele>1123.0</ele><time>2026-05-02T15:01:19.08Z</time></trkpt><trkpt lat="42.22086" lon="13.2647667"><ele>1123.0</ele><time>2026-05-02T15:01:20.08Z</time></trkpt><trkpt lat="42.220945" lon="13.2648017"><ele>1124.2</ele><time>2026-05-02T15:01:21.08Z</time></trkpt><trkpt lat="42.2210417" lon="13.2648483"><ele>1125.4</ele><time>2026-05-02T15:01:22.08Z</time></trkpt><trkpt lat="42.2211433" lon="13.2649083"><ele>1126.6000000000001</ele><time>2026-05-02T15:01:23.079Z</time></trkpt><trkpt lat="42.2212383" lon="13.2650033"><ele>1127.8</ele><time>2026-05-02T15:01:24.08Z</time></trkpt><trkpt lat="42.2213217" lon="13.26509"><ele>1129.0</ele><time>2026-05-02T15:01:25.08Z</time></trkpt><trkpt lat="42.2213883" lon="13.2651533"><ele>1128.0</ele><time>2026-05-02T15:01:26.079Z</time></trkpt><trkpt lat="42.2214833" lon="13.265195"><ele>1127.0</ele><time>2026-05-02T15:01:28.079Z</time></trkpt><trkpt lat="42.2215667" lon="13.2650933"><ele>1126.0</ele><time>2026-05-02T15:01:30.079Z</time></trkpt><trkpt lat="42.2216367" lon="13.26501"><ele>1125.0</ele><time>2026-05-02T15:01:31.079Z</time></trkpt><trkpt lat="42.221725" lon="13.264915"><ele>1124.0</ele><time>2026-05-02T15:01:32.08Z</time></trkpt><trkpt lat="42.221815" lon="13.2648167"><ele>1120.8</ele><time>2026-05-02T15:01:33.08Z</time></trkpt><trkpt lat="42.2219017" lon="13.2647267"><ele>1117.6000000000001</ele><time>2026-05-02T15:01:34.08Z</time></trkpt><trkpt lat="42.2219683" lon="13.2646567"><ele>1114.4</ele><time>2026-05-02T15:01:35.08Z</time></trkpt><trkpt lat="42.2220233" lon="13.2646017"><ele>1111.2</ele><time>2026-05-02T15:01:36.08Z</time></trkpt><trkpt lat="42.2221" lon="13.2645367"><ele>1108.0</ele><time>2026-05-02T15:01:38.079Z</time></trkpt><trkpt lat="42.2221967" lon="13.2644733"><ele>1108.0</ele><time>2026-05-02T15:01:40.079Z</time></trkpt><trkpt lat="42.2222717" lon="13.2644267"><ele>1108.0</ele><time>2026-05-02T15:01:41.08Z</time></trkpt><trkpt lat="42.2223517" lon="13.26436"><ele>1108.0</ele><time>2026-05-02T15:01:42.08Z</time></trkpt><trkpt lat="42.222435" lon="13.26427"><ele>1108.0</ele><time>2026-05-02T15:01:43.08Z</time></trkpt><trkpt lat="42.2225283" lon="13.2641667"><ele>1108.0</ele><time>2026-05-02T15:01:44.079Z</time></trkpt><trkpt lat="42.22261" lon="13.2640933"><ele>1110.0</ele><time>2026-05-02T15:01:45.08Z</time></trkpt><trkpt lat="42.2227" lon="13.2640367"><ele>1112.0</ele><time>2026-05-02T15:01:46.08Z</time></trkpt><trkpt lat="42.2228033" lon="13.2639883"><ele>1114.0</ele><time>2026-05-02T15:01:47.079Z</time></trkpt><trkpt lat="42.2229017" lon="13.2639233"><ele>1116.0</ele><time>2026-05-02T15:01:48.079Z</time></trkpt><trkpt lat="42.2230033" lon="13.26385"><ele>1118.0</ele><time>2026-05-02T15:01:49.079Z</time></trkpt><trkpt lat="42.223105" lon="13.2637667"><ele>1119.8</ele><time>2026-05-02T15:01:50.079Z</time></trkpt><trkpt lat="42.2232133" lon="13.263685"><ele>1121.6</ele><time>2026-05-02T15:01:51.08Z</time></trkpt><trkpt lat="42.2233133" lon="13.2636"><ele>1123.4</ele><time>2026-05-02T15:01:52.079Z</time></trkpt><trkpt lat="42.2234067" lon="13.26351"><ele>1125.2</ele><time>2026-05-02T15:01:53.079Z</time></trkpt><trkpt lat="42.223475" lon="13.2634267"><ele>1127.0</ele><time>2026-05-02T15:01:54.08Z</time></trkpt><trkpt lat="42.22354" lon="13.263375"><ele>1127.0</ele><time>2026-05-02T15:01:55.08Z</time></trkpt><trkpt lat="42.2236033" lon="13.2633567"><ele>1127.0</ele><time>2026-05-02T15:01:56.08Z</time></trkpt><trkpt lat="42.2236717" lon="13.263365"><ele>1127.0</ele><time>2026-05-02T15:01:57.079Z</time></trkpt><trkpt lat="42.2237383" lon="13.263375"><ele>1127.0</ele><time>2026-05-02T15:01:58.079Z</time></trkpt><trkpt lat="42.2238117" lon="13.2633917"><ele>1127.0</ele><time>2026-05-02T15:01:59.079Z</time></trkpt><trkpt lat="42.2239017" lon="13.2634067"><ele>1127.0</ele><time>2026-05-02T15:02:00.08Z</time></trkpt><trkpt lat="42.2239967" lon="13.263425"><ele>1129.5</ele><time>2026-05-02T15:02:01.079Z</time></trkpt><trkpt lat="42.2240983" lon="13.2634417"><ele>1132.0</ele><time>2026-05-02T15:02:02.079Z</time></trkpt><trkpt lat="42.2242067" lon="13.2634367"><ele>1134.5</ele><time>2026-05-02T15:02:03.08Z</time></trkpt><trkpt lat="42.22433" lon="13.2634267"><ele>1137.0</ele><time>2026-05-02T15:02:04.08Z</time></trkpt><trkpt lat="42.224455" lon="13.26342"><ele>1137.0</ele><time>2026-05-02T15:02:05.079Z</time></trkpt><trkpt lat="42.22457" lon="13.263425"><ele>1137.0</ele><time>2026-05-02T15:02:06.079Z</time></trkpt><trkpt lat="42.2246817" lon="13.263425"><ele>1137.0</ele><time>2026-05-02T15:02:07.079Z</time></trkpt><trkpt lat="42.224795" lon="13.26341"><ele>1137.0</ele><time>2026-05-02T15:02:08.079Z</time></trkpt><trkpt lat="42.2249183" lon="13.2633817"><ele>1139.0</ele><time>2026-05-02T15:02:09.08Z</time></trkpt><trkpt lat="42.2250417" lon="13.2633333"><ele>1141.0</ele><time>2026-05-02T15:02:10.079Z</time></trkpt><trkpt lat="42.2251517" lon="13.263305"><ele>1143.0</ele><time>2026-05-02T15:02:11.08Z</time></trkpt><trkpt lat="42.22526" lon="13.2633033"><ele>1145.0</ele><time>2026-05-02T15:02:12.079Z</time></trkpt><trkpt lat="42.2253683" lon="13.2633167"><ele>1145.0</ele><time>2026-05-02T15:02:13.08Z</time></trkpt><trkpt lat="42.22548" lon="13.2633083"><ele>1145.0</ele><time>2026-05-02T15:02:14.079Z</time></trkpt><trkpt lat="42.2255933" lon="13.2632783"><ele>1145.0</ele><time>2026-05-02T15:02:15.079Z</time></trkpt><trkpt lat="42.2257133" lon="13.2632283"><ele>1145.0</ele><time>2026-05-02T15:02:16.08Z</time></trkpt><trkpt lat="42.2258233" lon="13.2631917"><ele>1146.4</ele><time>2026-05-02T15:02:17.079Z</time></trkpt><trkpt lat="42.22594" lon="13.2631633"><ele>1147.8</ele><time>2026-05-02T15:02:18.08Z</time></trkpt><trkpt lat="42.2260567" lon="13.26315"><ele>1149.2</ele><time>2026-05-02T15:02:19.08Z</time></trkpt><trkpt lat="42.2261567" lon="13.263145"><ele>1150.6</ele><time>2026-05-02T15:02:20.079Z</time></trkpt><trkpt lat="42.2262517" lon="13.2631517"><ele>1152.0</ele><time>2026-05-02T15:02:21.08Z</time></trkpt><trkpt lat="42.226345" lon="13.2631683"><ele>1152.0</ele><time>2026-05-02T15:02:22.08Z</time></trkpt><trkpt lat="42.2264367" lon="13.2632017"><ele>1152.0</ele><time>2026-05-02T15:02:23.079Z</time></trkpt><trkpt lat="42.2265267" lon="13.263265"><ele>1152.0</ele><time>2026-05-02T15:02:24.08Z</time></trkpt><trkpt lat="42.2266" lon="13.2633483"><ele>1152.0</ele><time>2026-05-02T15:02:25.08Z</time></trkpt><trkpt lat="42.2266583" lon="13.26346"><ele>1152.0</ele><time>2026-05-02T15:02:26.08Z</time></trkpt><trkpt lat="42.2267117" lon="13.2636033"><ele>1152.0</ele><time>2026-05-02T15:02:27.08Z</time></trkpt><trkpt lat="42.226755" lon="13.2637683"><ele>1152.0</ele><time>2026-05-02T15:02:28.079Z</time></trkpt><trkpt lat="42.226795" lon="13.26392"><ele>1152.0</ele><time>2026-05-02T15:02:29.08Z</time></trkpt><trkpt lat="42.2268383" lon="13.264045"><ele>1152.0</ele><time>2026-05-02T15:02:30.08Z</time></trkpt><trkpt lat="42.226885" lon="13.2641467"><ele>1152.0</ele><time>2026-05-02T15:02:31.08Z</time></trkpt><trkpt lat="42.2269283" lon="13.2642333"><ele>1153.4285714285716</ele><time>2026-05-02T15:02:32.08Z</time></trkpt><trkpt lat="42.2269717" lon="13.26431"><ele>1154.857142857143</ele><time>2026-05-02T15:02:33.08Z</time></trkpt><trkpt lat="42.2270117" lon="13.2643933"><ele>1156.2857142857142</ele><time>2026-05-02T15:02:34.079Z</time></trkpt><trkpt lat="42.2270583" lon="13.2644733"><ele>1157.7142857142858</ele><time>2026-05-02T15:02:35.079Z</time></trkpt><trkpt lat="42.2271167" lon="13.2645383"><ele>1159.142857142857</ele><time>2026-05-02T15:02:36.08Z</time></trkpt><trkpt lat="42.2271833" lon="13.2645967"><ele>1160.5714285714287</ele><time>2026-05-02T15:02:37.079Z</time></trkpt><trkpt lat="42.22725" lon="13.264625"><ele>1162.0</ele><time>2026-05-02T15:02:38.079Z</time></trkpt><trkpt lat="42.2273267" lon="13.2646367"><ele>1162.0</ele><time>2026-05-02T15:02:39.08Z</time></trkpt><trkpt lat="42.22741" lon="13.26462"><ele>1162.0</ele><time>2026-05-02T15:02:40.079Z</time></trkpt><trkpt lat="42.2274983" lon="13.2645867"><ele>1162.0</ele><time>2026-05-02T15:02:41.08Z</time></trkpt><trkpt lat="42.227615" lon="13.2645383"><ele>1162.0</ele><time>2026-05-02T15:02:42.08Z</time></trkpt><trkpt lat="42.2277517" lon="13.2644983"><ele>1162.0</ele><time>2026-05-02T15:02:43.079Z</time></trkpt><trkpt lat="42.2279033" lon="13.2644433"><ele>1162.0</ele><time>2026-05-02T15:02:44.08Z</time></trkpt><trkpt lat="42.2280533" lon="13.26437"><ele>1162.0</ele><time>2026-05-02T15:02:45.08Z</time></trkpt><trkpt lat="42.2281817" lon="13.2642967"><ele>1162.0</ele><time>2026-05-02T15:02:46.08Z</time></trkpt><trkpt lat="42.2282867" lon="13.2642233"><ele>1162.0</ele><time>2026-05-02T15:02:47.08Z</time></trkpt><trkpt lat="42.228365" lon="13.2641433"><ele>1162.2</ele><time>2026-05-02T15:02:48.079Z</time></trkpt><trkpt lat="42.228435" lon="13.2640483"><ele>1162.4</ele><time>2026-05-02T15:02:49.079Z</time></trkpt><trkpt lat="42.2285017" lon="13.2639467"><ele>1162.6</ele><time>2026-05-02T15:02:50.08Z</time></trkpt><trkpt lat="42.2285833" lon="13.2638483"><ele>1162.8</ele><time>2026-05-02T15:02:51.08Z</time></trkpt><trkpt lat="42.2286617" lon="13.2637483"><ele>1163.0</ele><time>2026-05-02T15:02:52.08Z</time></trkpt><trkpt lat="42.228755" lon="13.2636417"><ele>1163.0</ele><time>2026-05-02T15:02:53.08Z</time></trkpt><trkpt lat="42.22884" lon="13.2635367"><ele>1163.0</ele><time>2026-05-02T15:02:54.08Z</time></trkpt><trkpt lat="42.22894" lon="13.2634367"><ele>1163.0</ele><time>2026-05-02T15:02:55.079Z</time></trkpt><trkpt lat="42.2290467" lon="13.26334"><ele>1163.0</ele><time>2026-05-02T15:02:56.079Z</time></trkpt><trkpt lat="42.2291417" lon="13.2632633"><ele>1165.8333333333335</ele><time>2026-05-02T15:02:57.08Z</time></trkpt><trkpt lat="42.2292233" lon="13.2631917"><ele>1168.6666666666667</ele><time>2026-05-02T15:02:58.08Z</time></trkpt><trkpt lat="42.2292967" lon="13.2631167"><ele>1171.5</ele><time>2026-05-02T15:02:59.079Z</time></trkpt><trkpt lat="42.22936" lon="13.2630433"><ele>1174.3333333333333</ele><time>2026-05-02T15:03:00.08Z</time></trkpt><trkpt lat="42.2294183" lon="13.2629767"><ele>1177.1666666666665</ele><time>2026-05-02T15:03:01.079Z</time></trkpt><trkpt lat="42.2294533" lon="13.262905"><ele>1180.0</ele><time>2026-05-02T15:03:02.08Z</time></trkpt><trkpt lat="42.2294617" lon="13.2627417"><ele>1180.0</ele><time>2026-05-02T15:03:04.079Z</time></trkpt><trkpt lat="42.229435" lon="13.2626267"><ele>1180.0</ele><time>2026-05-02T15:03:05.08Z</time></trkpt><trkpt lat="42.2293983" lon="13.2625"><ele>1180.0</ele><time>2026-05-02T15:03:06.08Z</time></trkpt><trkpt lat="42.229365" lon="13.2623817"><ele>1180.0</ele><time>2026-05-02T15:03:07.08Z</time></trkpt><trkpt lat="42.229345" lon="13.2622783"><ele>1180.0</ele><time>2026-05-02T15:03:08.08Z</time></trkpt><trkpt lat="42.2293817" lon="13.2621217"><ele>1179.6</ele><time>2026-05-02T15:03:10.08Z</time></trkpt><trkpt lat="42.2294267" lon="13.262055"><ele>1179.2</ele><time>2026-05-02T15:03:11.08Z</time></trkpt><trkpt lat="42.2294883" lon="13.2619683"><ele>1178.8</ele><time>2026-05-02T15:03:12.08Z</time></trkpt><trkpt lat="42.229555" lon="13.2618667"><ele>1178.4</ele><time>2026-05-02T15:03:13.079Z</time></trkpt><trkpt lat="42.22962" lon="13.2617333"><ele>1178.0</ele><time>2026-05-02T15:03:14.079Z</time></trkpt><trkpt lat="42.2296767" lon="13.2616017"><ele>1178.0</ele><time>2026-05-02T15:03:15.079Z</time></trkpt><trkpt lat="42.2297083" lon="13.261495"><ele>1178.0</ele><time>2026-05-02T15:03:16.079Z</time></trkpt><trkpt lat="42.22972" lon="13.2614067"><ele>1178.0</ele><time>2026-05-02T15:03:17.079Z</time></trkpt><trkpt lat="42.229715" lon="13.2612667"><ele>1178.0</ele><time>2026-05-02T15:03:19.079Z</time></trkpt><trkpt lat="42.22969" lon="13.26117"><ele>1178.0</ele><time>2026-05-02T15:03:20.08Z</time></trkpt><trkpt lat="42.229675" lon="13.2610667"><ele>1178.0</ele><time>2026-05-02T15:03:21.079Z</time></trkpt><trkpt lat="42.2296917" lon="13.26096"><ele>1177.3333333333335</ele><time>2026-05-02T15:03:22.08Z</time></trkpt><trkpt lat="42.2297333" lon="13.2608633"><ele>1176.6666666666667</ele><time>2026-05-02T15:03:23.079Z</time></trkpt><trkpt lat="42.2297833" lon="13.26079"><ele>1176.0</ele><time>2026-05-02T15:03:24.08Z</time></trkpt><trkpt lat="42.229845" lon="13.26075"><ele>1175.3333333333333</ele><time>2026-05-02T15:03:25.079Z</time></trkpt><trkpt lat="42.229925" lon="13.2607267"><ele>1174.6666666666665</ele><time>2026-05-02T15:03:26.079Z</time></trkpt><trkpt lat="42.2300167" lon="13.2607283"><ele>1174.0</ele><time>2026-05-02T15:03:27.079Z</time></trkpt><trkpt lat="42.2301267" lon="13.2607683"><ele>1177.8333333333333</ele><time>2026-05-02T15:03:28.079Z</time></trkpt><trkpt lat="42.23023" lon="13.2608133"><ele>1181.6666666666665</ele><time>2026-05-02T15:03:29.08Z</time></trkpt><trkpt lat="42.2303217" lon="13.260855"><ele>1185.5</ele><time>2026-05-02T15:03:30.079Z</time></trkpt><trkpt lat="42.2304017" lon="13.2608833"><ele>1189.3333333333333</ele><time>2026-05-02T15:03:31.079Z</time></trkpt><trkpt lat="42.230465" lon="13.26089"><ele>1193.1666666666667</ele><time>2026-05-02T15:03:32.08Z</time></trkpt><trkpt lat="42.2305333" lon="13.2608567"><ele>1197.0</ele><time>2026-05-02T15:03:33.08Z</time></trkpt><trkpt lat="42.2306133" lon="13.2607867"><ele>1195.25</ele><time>2026-05-02T15:03:34.08Z</time></trkpt><trkpt lat="42.2307" lon="13.2606517"><ele>1193.5</ele><time>2026-05-02T15:03:35.08Z</time></trkpt><trkpt lat="42.230785" lon="13.2605333"><ele>1191.75</ele><time>2026-05-02T15:03:36.08Z</time></trkpt><trkpt lat="42.2308733" lon="13.2604367"><ele>1190.0</ele><time>2026-05-02T15:03:37.08Z</time></trkpt><trkpt lat="42.2309767" lon="13.2603817"><ele>1190.0</ele><time>2026-05-02T15:03:38.079Z</time></trkpt><trkpt lat="42.2310867" lon="13.2603633"><ele>1190.0</ele><time>2026-05-02T15:03:39.079Z</time></trkpt><trkpt lat="42.231205" lon="13.2603517"><ele>1190.0</ele><time>2026-05-02T15:03:40.079Z</time></trkpt><trkpt lat="42.23133" lon="13.2603483"><ele>1190.0</ele><time>2026-05-02T15:03:41.079Z</time></trkpt><trkpt lat="42.2314333" lon="13.26036"><ele>1191.6</ele><time>2026-05-02T15:03:42.079Z</time></trkpt><trkpt lat="42.2315133" lon="13.2603917"><ele>1193.2</ele><time>2026-05-02T15:03:43.08Z</time></trkpt><trkpt lat="42.2315983" lon="13.260435"><ele>1194.8</ele><time>2026-05-02T15:03:44.08Z</time></trkpt><trkpt lat="42.2316933" lon="13.260495"><ele>1196.4</ele><time>2026-05-02T15:03:45.08Z</time></trkpt><trkpt lat="42.23181" lon="13.26057"><ele>1198.0</ele><time>2026-05-02T15:03:46.079Z</time></trkpt><trkpt lat="42.2319183" lon="13.2606317"><ele>1199.25</ele><time>2026-05-02T15:03:47.08Z</time></trkpt><trkpt lat="42.2320367" lon="13.26071"><ele>1200.5</ele><time>2026-05-02T15:03:48.08Z</time></trkpt><trkpt lat="42.232155" lon="13.2607817"><ele>1201.75</ele><time>2026-05-02T15:03:49.079Z</time></trkpt><trkpt lat="42.2322683" lon="13.260865"><ele>1203.0</ele><time>2026-05-02T15:03:50.079Z</time></trkpt><trkpt lat="42.2323717" lon="13.2609733"><ele>1203.0</ele><time>2026-05-02T15:03:51.079Z</time></trkpt><trkpt lat="42.2324767" lon="13.2610633"><ele>1203.0</ele><time>2026-05-02T15:03:52.08Z</time></trkpt><trkpt lat="42.2325883" lon="13.26113"><ele>1203.0</ele><time>2026-05-02T15:03:53.079Z</time></trkpt><trkpt lat="42.2326933" lon="13.2612"><ele>1203.0</ele><time>2026-05-02T15:03:54.079Z</time></trkpt><trkpt lat="42.2327933" lon="13.2612817"><ele>1203.0</ele><time>2026-05-02T15:03:55.079Z</time></trkpt><trkpt lat="42.23287" lon="13.2613633"><ele>1203.0</ele><time>2026-05-02T15:03:56.079Z</time></trkpt><trkpt lat="42.2329433" lon="13.2614383"><ele>1203.0</ele><time>2026-05-02T15:03:57.08Z</time></trkpt><trkpt lat="42.233015" lon="13.2615167"><ele>1203.0</ele><time>2026-05-02T15:03:58.079Z</time></trkpt><trkpt lat="42.2330783" lon="13.2616133"><ele>1203.0</ele><time>2026-05-02T15:03:59.079Z</time></trkpt><trkpt lat="42.2331483" lon="13.26169"><ele>1203.6</ele><time>2026-05-02T15:04:00.08Z</time></trkpt><trkpt lat="42.2332333" lon="13.261755"><ele>1204.1999999999998</ele><time>2026-05-02T15:04:01.079Z</time></trkpt><trkpt lat="42.2332967" lon="13.2617967"><ele>1204.8</ele><time>2026-05-02T15:04:02.079Z</time></trkpt><trkpt lat="42.2333917" lon="13.26185"><ele>1205.3999999999999</ele><time>2026-05-02T15:04:03.079Z</time></trkpt><trkpt lat="42.2334967" lon="13.26188"><ele>1206.0</ele><time>2026-05-02T15:04:04.08Z</time></trkpt><trkpt lat="42.233595" lon="13.2619183"><ele>1206.0</ele><time>2026-05-02T15:04:05.079Z</time></trkpt><trkpt lat="42.2336883" lon="13.261965"><ele>1206.0</ele><time>2026-05-02T15:04:06.08Z</time></trkpt><trkpt lat="42.233785" lon="13.26204"><ele>1206.0</ele><time>2026-05-02T15:04:07.079Z</time></trkpt><trkpt lat="42.2338733" lon="13.2620867"><ele>1206.0</ele><time>2026-05-02T15:04:08.08Z</time></trkpt><trkpt lat="42.2339433" lon="13.2621083"><ele>1206.0</ele><time>2026-05-02T15:04:09.079Z</time></trkpt><trkpt lat="42.2340133" lon="13.2620983"><ele>1206.0</ele><time>2026-05-02T15:04:10.079Z</time></trkpt><trkpt lat="42.234085" lon="13.2620667"><ele>1205.0</ele><time>2026-05-02T15:04:11.079Z</time></trkpt><trkpt lat="42.23416" lon="13.26203"><ele>1204.0</ele><time>2026-05-02T15:04:12.08Z</time></trkpt><trkpt lat="42.2342483" lon="13.2619883"><ele>1203.0</ele><time>2026-05-02T15:04:13.079Z</time></trkpt><trkpt lat="42.2343467" lon="13.26195"><ele>1202.0</ele><time>2026-05-02T15:04:14.079Z</time></trkpt><trkpt lat="42.2344567" lon="13.2618983"><ele>1201.0</ele><time>2026-05-02T15:04:15.079Z</time></trkpt><trkpt lat="42.2346067" lon="13.2618067"><ele>1201.0</ele><time>2026-05-02T15:04:16.08Z</time></trkpt><trkpt lat="42.23475" lon="13.26173"><ele>1201.0</ele><time>2026-05-02T15:04:17.079Z</time></trkpt><trkpt lat="42.23487" lon="13.2616683"><ele>1201.0</ele><time>2026-05-02T15:04:18.08Z</time></trkpt><trkpt lat="42.234985" lon="13.2616083"><ele>1201.0</ele><time>2026-05-02T15:04:19.08Z</time></trkpt><trkpt lat="42.2350883" lon="13.2615567"><ele>1201.6666666666665</ele><time>2026-05-02T15:04:20.08Z</time></trkpt><trkpt lat="42.2351833" lon="13.261525"><ele>1202.3333333333333</ele><time>2026-05-02T15:04:21.079Z</time></trkpt><trkpt lat="42.235275" lon="13.2614967"><ele>1203.0</ele><time>2026-05-02T15:04:22.079Z</time></trkpt><trkpt lat="42.2353533" lon="13.26146"><ele>1203.6666666666667</ele><time>2026-05-02T15:04:23.08Z</time></trkpt><trkpt lat="42.2354167" lon="13.2614183"><ele>1204.3333333333335</ele><time>2026-05-02T15:04:24.08Z</time></trkpt><trkpt lat="42.2354883" lon="13.26135"><ele>1205.0</ele><time>2026-05-02T15:04:25.079Z</time></trkpt><trkpt lat="42.2355617" lon="13.261275"><ele>1209.5</ele><time>2026-05-02T15:04:26.08Z</time></trkpt><trkpt lat="42.2356383" lon="13.2611933"><ele>1214.0</ele><time>2026-05-02T15:04:27.079Z</time></trkpt><trkpt lat="42.2357333" lon="13.2611117"><ele>1218.5</ele><time>2026-05-02T15:04:28.08Z</time></trkpt><trkpt lat="42.235835" lon="13.2610283"><ele>1223.0</ele><time>2026-05-02T15:04:29.079Z</time></trkpt><trkpt lat="42.2359483" lon="13.26096"><ele>1223.0</ele><time>2026-05-02T15:04:30.079Z</time></trkpt><trkpt lat="42.2360567" lon="13.260925"><ele>1223.0</ele><time>2026-05-02T15:04:31.08Z</time></trkpt><trkpt lat="42.2361683" lon="13.2608933"><ele>1223.0</ele><time>2026-05-02T15:04:32.08Z</time></trkpt><trkpt lat="42.236275" lon="13.2608633"><ele>1223.0</ele><time>2026-05-02T15:04:33.08Z</time></trkpt><trkpt lat="42.2363867" lon="13.2608317"><ele>1223.0</ele><time>2026-05-02T15:04:34.08Z</time></trkpt><trkpt lat="42.2365017" lon="13.26079"><ele>1224.0</ele><time>2026-05-02T15:04:35.08Z</time></trkpt><trkpt lat="42.2366167" lon="13.26074"><ele>1225.0</ele><time>2026-05-02T15:04:36.079Z</time></trkpt><trkpt lat="42.2367417" lon="13.2606617"><ele>1226.0</ele><time>2026-05-02T15:04:37.079Z</time></trkpt><trkpt lat="42.23686" lon="13.260595"><ele>1227.0</ele><time>2026-05-02T15:04:38.079Z</time></trkpt><trkpt lat="42.23696" lon="13.26055"><ele>1226.8</ele><time>2026-05-02T15:04:39.079Z</time></trkpt><trkpt lat="42.2370533" lon="13.26054"><ele>1226.6</ele><time>2026-05-02T15:04:40.079Z</time></trkpt><trkpt lat="42.2371533" lon="13.2605583"><ele>1226.3999999999999</ele><time>2026-05-02T15:04:41.079Z</time></trkpt><trkpt lat="42.2372617" lon="13.260595"><ele>1226.2</ele><time>2026-05-02T15:04:42.079Z</time></trkpt><trkpt lat="42.2373733" lon="13.26063"><ele>1226.0</ele><time>2026-05-02T15:04:43.079Z</time></trkpt><trkpt lat="42.2374983" lon="13.2606383"><ele>1226.0</ele><time>2026-05-02T15:04:44.08Z</time></trkpt><trkpt lat="42.2376283" lon="13.2606267"><ele>1226.0</ele><time>2026-05-02T15:04:45.079Z</time></trkpt><trkpt lat="42.2377483" lon="13.2606"><ele>1226.0</ele><time>2026-05-02T15:04:46.079Z</time></trkpt><trkpt lat="42.2378817" lon="13.26058"><ele>1226.0</ele><time>2026-05-02T15:04:47.08Z</time></trkpt><trkpt lat="42.238005" lon="13.2605367"><ele>1224.75</ele><time>2026-05-02T15:04:48.079Z</time></trkpt><trkpt lat="42.2381283" lon="13.2604883"><ele>1223.5</ele><time>2026-05-02T15:04:49.08Z</time></trkpt><trkpt lat="42.2382467" lon="13.260465"><ele>1222.25</ele><time>2026-05-02T15:04:50.079Z</time></trkpt><trkpt lat="42.238365" lon="13.2604417"><ele>1221.0</ele><time>2026-05-02T15:04:51.079Z</time></trkpt><trkpt lat="42.2384817" lon="13.2603917"><ele>1221.0</ele><time>2026-05-02T15:04:52.079Z</time></trkpt><trkpt lat="42.2385683" lon="13.2603317"><ele>1221.0</ele><time>2026-05-02T15:04:53.08Z</time></trkpt><trkpt lat="42.2386383" lon="13.2602667"><ele>1221.0</ele><time>2026-05-02T15:04:54.08Z</time></trkpt><trkpt lat="42.2387083" lon="13.2601983"><ele>1221.0</ele><time>2026-05-02T15:04:55.079Z</time></trkpt><trkpt lat="42.2387733" lon="13.2601567"><ele>1221.0</ele><time>2026-05-02T15:04:56.08Z</time></trkpt><trkpt lat="42.2388433" lon="13.260135"><ele>1221.0</ele><time>2026-05-02T15:04:57.08Z</time></trkpt><trkpt lat="42.2389233" lon="13.26014"><ele>1220.0</ele><time>2026-05-02T15:04:58.08Z</time></trkpt><trkpt lat="42.2389967" lon="13.26018"><ele>1219.0</ele><time>2026-05-02T15:04:59.079Z</time></trkpt><trkpt lat="42.2390683" lon="13.2602533"><ele>1218.0</ele><time>2026-05-02T15:05:00.079Z</time></trkpt><trkpt lat="42.239145" lon="13.2603433"><ele>1217.0</ele><time>2026-05-02T15:05:01.079Z</time></trkpt><trkpt lat="42.2392333" lon="13.2604283"><ele>1216.0</ele><time>2026-05-02T15:05:02.079Z</time></trkpt><trkpt lat="42.239335" lon="13.260515"><ele>1216.0</ele><time>2026-05-02T15:05:03.08Z</time></trkpt><trkpt lat="42.2394367" lon="13.260585"><ele>1216.0</ele><time>2026-05-02T15:05:04.079Z</time></trkpt><trkpt lat="42.2395383" lon="13.2606517"><ele>1216.0</ele><time>2026-05-02T15:05:05.079Z</time></trkpt><trkpt lat="42.2396367" lon="13.26072"><ele>1216.0</ele><time>2026-05-02T15:05:06.08Z</time></trkpt><trkpt lat="42.239745" lon="13.2607583"><ele>1218.6</ele><time>2026-05-02T15:05:07.079Z</time></trkpt><trkpt lat="42.2398517" lon="13.2607717"><ele>1221.1999999999998</ele><time>2026-05-02T15:05:08.079Z</time></trkpt><trkpt lat="42.2399567" lon="13.260755"><ele>1223.8000000000002</ele><time>2026-05-02T15:05:09.079Z</time></trkpt><trkpt lat="42.2400617" lon="13.2607333"><ele>1226.4</ele><time>2026-05-02T15:05:10.08Z</time></trkpt><trkpt lat="42.240175" lon="13.2606917"><ele>1229.0</ele><time>2026-05-02T15:05:11.08Z</time></trkpt><trkpt lat="42.2402867" lon="13.2606417"><ele>1226.5</ele><time>2026-05-02T15:05:12.079Z</time></trkpt><trkpt lat="42.240415" lon="13.2605883"><ele>1224.0</ele><time>2026-05-02T15:05:13.079Z</time></trkpt><trkpt lat="42.2405433" lon="13.2605533"><ele>1221.5</ele><time>2026-05-02T15:05:14.08Z</time></trkpt><trkpt lat="42.240655" lon="13.2605167"><ele>1219.0</ele><time>2026-05-02T15:05:15.079Z</time></trkpt><trkpt lat="42.240745" lon="13.2604933"><ele>1219.0</ele><time>2026-05-02T15:05:16.079Z</time></trkpt><trkpt lat="42.240835" lon="13.2604617"><ele>1219.0</ele><time>2026-05-02T15:05:17.08Z</time></trkpt><trkpt lat="42.2409217" lon="13.26043"><ele>1219.0</ele><time>2026-05-02T15:05:18.079Z</time></trkpt><trkpt lat="42.2410167" lon="13.260405"><ele>1219.0</ele><time>2026-05-02T15:05:19.08Z</time></trkpt><trkpt lat="42.2411183" lon="13.2603633"><ele>1219.0</ele><time>2026-05-02T15:05:20.079Z</time></trkpt><trkpt lat="42.24121" lon="13.2603"><ele>1219.0</ele><time>2026-05-02T15:05:21.079Z</time></trkpt><trkpt lat="42.24128" lon="13.2602233"><ele>1219.0</ele><time>2026-05-02T15:05:22.08Z</time></trkpt><trkpt lat="42.2413433" lon="13.2601383"><ele>1219.0</ele><time>2026-05-02T15:05:23.079Z</time></trkpt><trkpt lat="42.2414017" lon="13.2600483"><ele>1219.0</ele><time>2026-05-02T15:05:24.079Z</time></trkpt><trkpt lat="42.24146" lon="13.2599817"><ele>1219.0</ele><time>2026-05-02T15:05:25.079Z</time></trkpt><trkpt lat="42.2415767" lon="13.2599517"><ele>1221.3333333333333</ele><time>2026-05-02T15:05:27.08Z</time></trkpt><trkpt lat="42.241655" lon="13.2599583"><ele>1223.6666666666665</ele><time>2026-05-02T15:05:28.079Z</time></trkpt><trkpt lat="42.241745" lon="13.2599633"><ele>1226.0</ele><time>2026-05-02T15:05:29.079Z</time></trkpt><trkpt lat="42.241835" lon="13.2599717"><ele>1228.3333333333333</ele><time>2026-05-02T15:05:30.079Z</time></trkpt><trkpt lat="42.2419167" lon="13.25995"><ele>1230.6666666666667</ele><time>2026-05-02T15:05:31.08Z</time></trkpt><trkpt lat="42.242" lon="13.2599083"><ele>1233.0</ele><time>2026-05-02T15:05:32.079Z</time></trkpt><trkpt lat="42.2420833" lon="13.259865"><ele>1233.0</ele><time>2026-05-02T15:05:33.08Z</time></trkpt><trkpt lat="42.24219" lon="13.2598333"><ele>1233.0</ele><time>2026-05-02T15:05:34.079Z</time></trkpt><trkpt lat="42.2423083" lon="13.259795"><ele>1233.0</ele><time>2026-05-02T15:05:35.079Z</time></trkpt><trkpt lat="42.2424183" lon="13.25976"><ele>1233.0</ele><time>2026-05-02T15:05:36.08Z</time></trkpt><trkpt lat="42.2425233" lon="13.25971"><ele>1231.5</ele><time>2026-05-02T15:05:37.079Z</time></trkpt><trkpt lat="42.2426233" lon="13.25968"><ele>1230.0</ele><time>2026-05-02T15:05:38.08Z</time></trkpt><trkpt lat="42.2427317" lon="13.2596533"><ele>1228.5</ele><time>2026-05-02T15:05:39.079Z</time></trkpt><trkpt lat="42.2428517" lon="13.2596383"><ele>1227.0</ele><time>2026-05-02T15:05:40.079Z</time></trkpt><trkpt lat="42.2429717" lon="13.2596183"><ele>1227.0</ele><time>2026-05-02T15:05:41.079Z</time></trkpt><trkpt lat="42.2430767" lon="13.2595767"><ele>1227.0</ele><time>2026-05-02T15:05:42.079Z</time></trkpt><trkpt lat="42.2431633" lon="13.2595217"><ele>1227.0</ele><time>2026-05-02T15:05:43.08Z</time></trkpt><trkpt lat="42.2432483" lon="13.2594433"><ele>1227.0</ele><time>2026-05-02T15:05:44.079Z</time></trkpt><trkpt lat="42.2433317" lon="13.2593583"><ele>1227.0</ele><time>2026-05-02T15:05:45.079Z</time></trkpt><trkpt lat="42.2433967" lon="13.259285"><ele>1228.8</ele><time>2026-05-02T15:05:46.08Z</time></trkpt><trkpt lat="42.24347" lon="13.2592117"><ele>1230.6</ele><time>2026-05-02T15:05:47.079Z</time></trkpt><trkpt lat="42.24355" lon="13.25914"><ele>1232.3999999999999</ele><time>2026-05-02T15:05:48.08Z</time></trkpt><trkpt lat="42.243635" lon="13.2590683"><ele>1234.2</ele><time>2026-05-02T15:05:49.079Z</time></trkpt><trkpt lat="42.2437367" lon="13.2590033"><ele>1236.0</ele><time>2026-05-02T15:05:50.08Z</time></trkpt><trkpt lat="42.2438367" lon="13.258945"><ele>1236.0</ele><time>2026-05-02T15:05:51.08Z</time></trkpt><trkpt lat="42.2439167" lon="13.2588633"><ele>1236.0</ele><time>2026-05-02T15:05:52.079Z</time></trkpt><trkpt lat="42.24398" lon="13.25877"><ele>1236.0</ele><time>2026-05-02T15:05:53.078Z</time></trkpt><trkpt lat="42.2440483" lon="13.2586717"><ele>1236.0</ele><time>2026-05-02T15:05:54.079Z</time></trkpt><trkpt lat="42.24412" lon="13.2585933"><ele>1236.0</ele><time>2026-05-02T15:05:55.078Z</time></trkpt><trkpt lat="42.2441967" lon="13.25854"><ele>1239.0</ele><time>2026-05-02T15:05:56.078Z</time></trkpt><trkpt lat="42.2442717" lon="13.2585133"><ele>1242.0</ele><time>2026-05-02T15:05:57.078Z</time></trkpt><trkpt lat="42.2443567" lon="13.2585033"><ele>1245.0</ele><time>2026-05-02T15:05:58.078Z</time></trkpt><trkpt lat="42.2444467" lon="13.2584983"><ele>1248.0</ele><time>2026-05-02T15:05:59.079Z</time></trkpt><trkpt lat="42.244545" lon="13.2585217"><ele>1251.0</ele><time>2026-05-02T15:06:00.078Z</time></trkpt><trkpt lat="42.2446417" lon="13.2585667"><ele>1251.0</ele><time>2026-05-02T15:06:01.078Z</time></trkpt><trkpt lat="42.2447333" lon="13.25863"><ele>1251.0</ele><time>2026-05-02T15:06:02.079Z</time></trkpt><trkpt lat="42.2448233" lon="13.25869"><ele>1251.0</ele><time>2026-05-02T15:06:03.079Z</time></trkpt><trkpt lat="42.24491" lon="13.2587683"><ele>1251.0</ele><time>2026-05-02T15:06:04.078Z</time></trkpt><trkpt lat="42.2450083" lon="13.25886"><ele>1251.0</ele><time>2026-05-02T15:06:05.078Z</time></trkpt><trkpt lat="42.2451" lon="13.25896"><ele>1252.0</ele><time>2026-05-02T15:06:06.079Z</time></trkpt><trkpt lat="42.245205" lon="13.25906"><ele>1253.0</ele><time>2026-05-02T15:06:07.079Z</time></trkpt><trkpt lat="42.24532" lon="13.2591367"><ele>1254.0</ele><time>2026-05-02T15:06:08.078Z</time></trkpt><trkpt lat="42.24544" lon="13.2591933"><ele>1255.0</ele><time>2026-05-02T15:06:09.079Z</time></trkpt><trkpt lat="42.2455717" lon="13.2592433"><ele>1254.75</ele><time>2026-05-02T15:06:10.079Z</time></trkpt><trkpt lat="42.2457" lon="13.2592883"><ele>1254.5</ele><time>2026-05-02T15:06:11.079Z</time></trkpt><trkpt lat="42.245815" lon="13.2593267"><ele>1254.25</ele><time>2026-05-02T15:06:12.079Z</time></trkpt><trkpt lat="42.2459267" lon="13.2593683"><ele>1254.0</ele><time>2026-05-02T15:06:13.078Z</time></trkpt><trkpt lat="42.2460317" lon="13.2594133"><ele>1254.0</ele><time>2026-05-02T15:06:14.078Z</time></trkpt><trkpt lat="42.2461317" lon="13.2594633"><ele>1254.0</ele><time>2026-05-02T15:06:15.078Z</time></trkpt><trkpt lat="42.2462117" lon="13.2595267"><ele>1254.0</ele><time>2026-05-02T15:06:16.079Z</time></trkpt><trkpt lat="42.24626" lon="13.2596033"><ele>1254.0</ele><time>2026-05-02T15:06:17.079Z</time></trkpt><trkpt lat="42.2462867" lon="13.2596883"><ele>1254.0</ele><time>2026-05-02T15:06:18.078Z</time></trkpt><trkpt lat="42.2462933" lon="13.2597767"><ele>1254.0</ele><time>2026-05-02T15:06:19.078Z</time></trkpt><trkpt lat="42.24628" lon="13.259885"><ele>1257.6000000000001</ele><time>2026-05-02T15:06:20.078Z</time></trkpt><trkpt lat="42.2462717" lon="13.2599917"><ele>1261.2</ele><time>2026-05-02T15:06:21.078Z</time></trkpt><trkpt lat="42.246315" lon="13.2601167"><ele>1264.8000000000002</ele><time>2026-05-02T15:06:23.079Z</time></trkpt><trkpt lat="42.246425" lon="13.2601617"><ele>1268.4</ele><time>2026-05-02T15:06:25.078Z</time></trkpt><trkpt lat="42.2465067" lon="13.2601633"><ele>1272.0</ele><time>2026-05-02T15:06:26.078Z</time></trkpt><trkpt lat="42.2465967" lon="13.2601183"><ele>1271.0</ele><time>2026-05-02T15:06:27.078Z</time></trkpt><trkpt lat="42.246705" lon="13.260055"><ele>1270.0</ele><time>2026-05-02T15:06:28.078Z</time></trkpt><trkpt lat="42.2468033" lon="13.259955"><ele>1269.0</ele><time>2026-05-02T15:06:29.078Z</time></trkpt><trkpt lat="42.2468767" lon="13.25985"><ele>1268.0</ele><time>2026-05-02T15:06:30.078Z</time></trkpt><trkpt lat="42.2469283" lon="13.2597767"><ele>1267.0</ele><time>2026-05-02T15:06:31.079Z</time></trkpt><trkpt lat="42.2470083" lon="13.25971"><ele>1267.0</ele><time>2026-05-02T15:06:33.078Z</time></trkpt><trkpt lat="42.2470867" lon="13.2597533"><ele>1267.0</ele><time>2026-05-02T15:06:35.078Z</time></trkpt><trkpt lat="42.24711" lon="13.2599083"><ele>1267.0</ele><time>2026-05-02T15:06:37.078Z</time></trkpt><trkpt lat="42.247095" lon="13.260025"><ele>1267.0</ele><time>2026-05-02T15:06:38.078Z</time></trkpt><trkpt lat="42.2470783" lon="13.2601467"><ele>1267.0</ele><time>2026-05-02T15:06:39.079Z</time></trkpt><trkpt lat="42.2470767" lon="13.2602367"><ele>1267.0</ele><time>2026-05-02T15:06:40.079Z</time></trkpt><trkpt lat="42.2471033" lon="13.260325"><ele>1269.75</ele><time>2026-05-02T15:06:42.079Z</time></trkpt><trkpt lat="42.2471817" lon="13.260315"><ele>1272.5</ele><time>2026-05-02T15:06:45.078Z</time></trkpt><trkpt lat="42.2472617" lon="13.2601317"><ele>1275.25</ele><time>2026-05-02T15:06:47.078Z</time></trkpt><trkpt lat="42.2472917" lon="13.2599717"><ele>1278.0</ele><time>2026-05-02T15:06:48.079Z</time></trkpt><trkpt lat="42.2473233" lon="13.259805"><ele>1279.6</ele><time>2026-05-02T15:06:49.078Z</time></trkpt><trkpt lat="42.2473683" lon="13.2596533"><ele>1281.1999999999998</ele><time>2026-05-02T15:06:50.079Z</time></trkpt><trkpt lat="42.24743" lon="13.259535"><ele>1282.8</ele><time>2026-05-02T15:06:51.079Z</time></trkpt><trkpt lat="42.247495" lon="13.2594333"><ele>1284.3999999999999</ele><time>2026-05-02T15:06:52.078Z</time></trkpt><trkpt lat="42.2475867" lon="13.2593533"><ele>1286.0</ele><time>2026-05-02T15:06:53.079Z</time></trkpt><trkpt lat="42.2476667" lon="13.2592733"><ele>1286.0</ele><time>2026-05-02T15:06:54.079Z</time></trkpt><trkpt lat="42.2477217" lon="13.25919"><ele>1286.0</ele><time>2026-05-02T15:06:55.079Z</time></trkpt><trkpt lat="42.247765" lon="13.259105"><ele>1286.0</ele><time>2026-05-02T15:06:56.078Z</time></trkpt><trkpt lat="42.2478217" lon="13.2590217"><ele>1286.0</ele><time>2026-05-02T15:06:57.078Z</time></trkpt><trkpt lat="42.2478917" lon="13.2589517"><ele>1286.0</ele><time>2026-05-02T15:06:58.078Z</time></trkpt><trkpt lat="42.2479767" lon="13.2588667"><ele>1286.0</ele><time>2026-05-02T15:06:59.078Z</time></trkpt><trkpt lat="42.2480533" lon="13.2587633"><ele>1283.6</ele><time>2026-05-02T15:07:00.078Z</time></trkpt><trkpt lat="42.2481033" lon="13.25864"><ele>1281.1999999999998</ele><time>2026-05-02T15:07:01.079Z</time></trkpt><trkpt lat="42.2481483" lon="13.2585083"><ele>1278.8000000000002</ele><time>2026-05-02T15:07:02.079Z</time></trkpt><trkpt lat="42.24819" lon="13.2583883"><ele>1276.4</ele><time>2026-05-02T15:07:03.079Z</time></trkpt><trkpt lat="42.2482283" lon="13.2582783"><ele>1274.0</ele><time>2026-05-02T15:07:04.079Z</time></trkpt><trkpt lat="42.24828" lon="13.258165"><ele>1276.0</ele><time>2026-05-02T15:07:05.079Z</time></trkpt><trkpt lat="42.248345" lon="13.2580483"><ele>1278.0</ele><time>2026-05-02T15:07:06.078Z</time></trkpt><trkpt lat="42.2484133" lon="13.2579367"><ele>1280.0</ele><time>2026-05-02T15:07:07.078Z</time></trkpt><trkpt lat="42.248465" lon="13.2578317"><ele>1282.0</ele><time>2026-05-02T15:07:08.079Z</time></trkpt><trkpt lat="42.248505" lon="13.25772"><ele>1284.0</ele><time>2026-05-02T15:07:09.079Z</time></trkpt><trkpt lat="42.2485417" lon="13.2576033"><ele>1284.0</ele><time>2026-05-02T15:07:10.079Z</time></trkpt><trkpt lat="42.2485783" lon="13.2574933"><ele>1284.0</ele><time>2026-05-02T15:07:11.079Z</time></trkpt><trkpt lat="42.2486317" lon="13.2573767"><ele>1284.0</ele><time>2026-05-02T15:07:12.078Z</time></trkpt><trkpt lat="42.248695" lon="13.2572617"><ele>1284.0</ele><time>2026-05-02T15:07:13.079Z</time></trkpt><trkpt lat="42.2487633" lon="13.2571667"><ele>1284.0</ele><time>2026-05-02T15:07:14.078Z</time></trkpt><trkpt lat="42.24884" lon="13.257085"><ele>1285.4</ele><time>2026-05-02T15:07:15.079Z</time></trkpt><trkpt lat="42.2489267" lon="13.25703"><ele>1286.8000000000002</ele><time>2026-05-02T15:07:16.078Z</time></trkpt><trkpt lat="42.249025" lon="13.2569667"><ele>1288.1999999999998</ele><time>2026-05-02T15:07:17.078Z</time></trkpt><trkpt lat="42.2491283" lon="13.2569133"><ele>1289.6</ele><time>2026-05-02T15:07:18.079Z</time></trkpt><trkpt lat="42.2492433" lon="13.2568617"><ele>1291.0</ele><time>2026-05-02T15:07:19.079Z</time></trkpt><trkpt lat="42.2493617" lon="13.2568383"><ele>1291.0</ele><time>2026-05-02T15:07:20.078Z</time></trkpt><trkpt lat="42.24947" lon="13.2568283"><ele>1291.0</ele><time>2026-05-02T15:07:21.078Z</time></trkpt><trkpt lat="42.2495883" lon="13.2568217"><ele>1291.0</ele><time>2026-05-02T15:07:22.078Z</time></trkpt><trkpt lat="42.249685" lon="13.2568217"><ele>1291.0</ele><time>2026-05-02T15:07:23.079Z</time></trkpt><trkpt lat="42.2497667" lon="13.256825"><ele>1291.0</ele><time>2026-05-02T15:07:24.078Z</time></trkpt><trkpt lat="42.2498383" lon="13.25682"><ele>1291.6</ele><time>2026-05-02T15:07:25.078Z</time></trkpt><trkpt lat="42.249905" lon="13.256805"><ele>1292.1999999999998</ele><time>2026-05-02T15:07:26.079Z</time></trkpt><trkpt lat="42.2499767" lon="13.2567733"><ele>1292.8000000000002</ele><time>2026-05-02T15:07:27.078Z</time></trkpt><trkpt lat="42.250065" lon="13.256715"><ele>1293.4</ele><time>2026-05-02T15:07:28.078Z</time></trkpt><trkpt lat="42.25017" lon="13.2566417"><ele>1294.0</ele><time>2026-05-02T15:07:29.079Z</time></trkpt><trkpt lat="42.2502783" lon="13.2565633"><ele>1294.0</ele><time>2026-05-02T15:07:30.078Z</time></trkpt><trkpt lat="42.2503817" lon="13.2564867"><ele>1294.0</ele><time>2026-05-02T15:07:31.078Z</time></trkpt><trkpt lat="42.250465" lon="13.2564433"><ele>1294.0</ele><time>2026-05-02T15:07:32.079Z</time></trkpt><trkpt lat="42.2505267" lon="13.2564067"><ele>1294.0</ele><time>2026-05-02T15:07:33.078Z</time></trkpt><trkpt lat="42.2506083" lon="13.2563767"><ele>1294.0</ele><time>2026-05-02T15:07:34.078Z</time></trkpt><trkpt lat="42.2506983" lon="13.2563717"><ele>1294.0</ele><time>2026-05-02T15:07:35.078Z</time></trkpt><trkpt lat="42.25081" lon="13.2563567"><ele>1294.2</ele><time>2026-05-02T15:07:36.079Z</time></trkpt><trkpt lat="42.250925" lon="13.25635"><ele>1294.4</ele><time>2026-05-02T15:07:37.079Z</time></trkpt><trkpt lat="42.2510383" lon="13.2563483"><ele>1294.6</ele><time>2026-05-02T15:07:38.078Z</time></trkpt><trkpt lat="42.2511467" lon="13.2563667"><ele>1294.8</ele><time>2026-05-02T15:07:39.079Z</time></trkpt><trkpt lat="42.2512383" lon="13.2564067"><ele>1295.0</ele><time>2026-05-02T15:07:40.078Z</time></trkpt><trkpt lat="42.25133" lon="13.25646"><ele>1295.0</ele><time>2026-05-02T15:07:41.079Z</time></trkpt><trkpt lat="42.2514283" lon="13.2565117"><ele>1295.0</ele><time>2026-05-02T15:07:42.079Z</time></trkpt><trkpt lat="42.25153" lon="13.25657"><ele>1295.0</ele><time>2026-05-02T15:07:43.079Z</time></trkpt><trkpt lat="42.2516183" lon="13.2566167"><ele>1295.0</ele><time>2026-05-02T15:07:44.078Z</time></trkpt><trkpt lat="42.2516867" lon="13.2566517"><ele>1295.0</ele><time>2026-05-02T15:07:45.078Z</time></trkpt><trkpt lat="42.251775" lon="13.2566817"><ele>1295.6</ele><time>2026-05-02T15:07:47.079Z</time></trkpt><trkpt lat="42.2518583" lon="13.2566133"><ele>1296.2</ele><time>2026-05-02T15:07:50.078Z</time></trkpt><trkpt lat="42.2519433" lon="13.2564933"><ele>1296.8000000000002</ele><time>2026-05-02T15:07:52.079Z</time></trkpt><trkpt lat="42.2519967" lon="13.2563917"><ele>1297.4</ele><time>2026-05-02T15:07:53.079Z</time></trkpt><trkpt lat="42.2520533" lon="13.25626"><ele>1298.0</ele><time>2026-05-02T15:07:54.078Z</time></trkpt><trkpt lat="42.2521183" lon="13.2561183"><ele>1298.75</ele><time>2026-05-02T15:07:55.078Z</time></trkpt><trkpt lat="42.2522017" lon="13.2559717"><ele>1299.5</ele><time>2026-05-02T15:07:56.079Z</time></trkpt><trkpt lat="42.2522883" lon="13.2558233"><ele>1300.25</ele><time>2026-05-02T15:07:57.079Z</time></trkpt><trkpt lat="42.252375" lon="13.2556767"><ele>1301.0</ele><time>2026-05-02T15:07:58.078Z</time></trkpt><trkpt lat="42.252455" lon="13.2555533"><ele>1297.75</ele><time>2026-05-02T15:07:59.078Z</time></trkpt><trkpt lat="42.2525283" lon="13.255455"><ele>1294.5</ele><time>2026-05-02T15:08:00.078Z</time></trkpt><trkpt lat="42.2526133" lon="13.2553633"><ele>1291.25</ele><time>2026-05-02T15:08:01.079Z</time></trkpt><trkpt lat="42.2527183" lon="13.255265"><ele>1288.0</ele><time>2026-05-02T15:08:02.079Z</time></trkpt><trkpt lat="42.252825" lon="13.2551867"><ele>1288.0</ele><time>2026-05-02T15:08:03.078Z</time></trkpt><trkpt lat="42.25293" lon="13.2551283"><ele>1288.0</ele><time>2026-05-02T15:08:04.079Z</time></trkpt><trkpt lat="42.253035" lon="13.2550867"><ele>1288.0</ele><time>2026-05-02T15:08:05.078Z</time></trkpt><trkpt lat="42.2531467" lon="13.2550483"><ele>1288.0</ele><time>2026-05-02T15:08:06.079Z</time></trkpt><trkpt lat="42.2532717" lon="13.2550067"><ele>1289.5</ele><time>2026-05-02T15:08:07.078Z</time></trkpt><trkpt lat="42.2533833" lon="13.25496"><ele>1291.0</ele><time>2026-05-02T15:08:08.079Z</time></trkpt><trkpt lat="42.25349" lon="13.2549083"><ele>1292.5</ele><time>2026-05-02T15:08:09.078Z</time></trkpt><trkpt lat="42.2536" lon="13.2548483"><ele>1294.0</ele><time>2026-05-02T15:08:10.079Z</time></trkpt><trkpt lat="42.2537133" lon="13.2547683"><ele>1291.5</ele><time>2026-05-02T15:08:11.078Z</time></trkpt><trkpt lat="42.25383" lon="13.2547"><ele>1289.0</ele><time>2026-05-02T15:08:12.079Z</time></trkpt><trkpt lat="42.2539517" lon="13.25463"><ele>1286.5</ele><time>2026-05-02T15:08:13.079Z</time></trkpt><trkpt lat="42.2540817" lon="13.254555"><ele>1284.0</ele><time>2026-05-02T15:08:14.079Z</time></trkpt><trkpt lat="42.2542183" lon="13.2544817"><ele>1284.0</ele><time>2026-05-02T15:08:15.078Z</time></trkpt><trkpt lat="42.25435" lon="13.2543983"><ele>1284.0</ele><time>2026-05-02T15:08:16.078Z</time></trkpt><trkpt lat="42.2544933" lon="13.2543067"><ele>1284.0</ele><time>2026-05-02T15:08:17.078Z</time></trkpt><trkpt lat="42.2546283" lon="13.25422"><ele>1284.0</ele><time>2026-05-02T15:08:18.078Z</time></trkpt><trkpt lat="42.2547533" lon="13.2541517"><ele>1284.0</ele><time>2026-05-02T15:08:19.079Z</time></trkpt><trkpt lat="42.2548783" lon="13.2540833"><ele>1284.0</ele><time>2026-05-02T15:08:20.078Z</time></trkpt><trkpt lat="42.2550117" lon="13.2540267"><ele>1284.0</ele><time>2026-05-02T15:08:21.078Z</time></trkpt><trkpt lat="42.2551333" lon="13.2539683"><ele>1281.75</ele><time>2026-05-02T15:08:22.078Z</time></trkpt><trkpt lat="42.25527" lon="13.2539067"><ele>1279.5</ele><time>2026-05-02T15:08:23.078Z</time></trkpt><trkpt lat="42.255395" lon="13.2538333"><ele>1277.25</ele><time>2026-05-02T15:08:24.079Z</time></trkpt><trkpt lat="42.2555083" lon="13.25375"><ele>1275.0</ele><time>2026-05-02T15:08:25.078Z</time></trkpt><trkpt lat="42.255615" lon="13.2536533"><ele>1277.4</ele><time>2026-05-02T15:08:26.078Z</time></trkpt><trkpt lat="42.255705" lon="13.25356"><ele>1279.8</ele><time>2026-05-02T15:08:27.078Z</time></trkpt><trkpt lat="42.25577" lon="13.2534683"><ele>1282.1999999999998</ele><time>2026-05-02T15:08:28.078Z</time></trkpt><trkpt lat="42.25581" lon="13.25334"><ele>1284.6</ele><time>2026-05-02T15:08:29.079Z</time></trkpt><trkpt lat="42.2558333" lon="13.2531883"><ele>1287.0</ele><time>2026-05-02T15:08:30.079Z</time></trkpt><trkpt lat="42.25584" lon="13.25303"><ele>1287.0</ele><time>2026-05-02T15:08:31.079Z</time></trkpt><trkpt lat="42.2558467" lon="13.2528633"><ele>1287.0</ele><time>2026-05-02T15:08:32.078Z</time></trkpt><trkpt lat="42.2558667" lon="13.2526867"><ele>1287.0</ele><time>2026-05-02T15:08:33.078Z</time></trkpt><trkpt lat="42.2559" lon="13.2525067"><ele>1287.0</ele><time>2026-05-02T15:08:34.078Z</time></trkpt><trkpt lat="42.2559467" lon="13.25235"><ele>1286.1999999999998</ele><time>2026-05-02T15:08:35.079Z</time></trkpt><trkpt lat="42.2560017" lon="13.25222"><ele>1285.4</ele><time>2026-05-02T15:08:36.079Z</time></trkpt><trkpt lat="42.2560667" lon="13.2521267"><ele>1284.6</ele><time>2026-05-02T15:08:37.079Z</time></trkpt><trkpt lat="42.25614" lon="13.252055"><ele>1283.8000000000002</ele><time>2026-05-02T15:08:38.079Z</time></trkpt><trkpt lat="42.256215" lon="13.251985"><ele>1283.0</ele><time>2026-05-02T15:08:39.078Z</time></trkpt><trkpt lat="42.2562817" lon="13.2519183"><ele>1283.0</ele><time>2026-05-02T15:08:40.079Z</time></trkpt><trkpt lat="42.2563567" lon="13.251835"><ele>1283.0</ele><time>2026-05-02T15:08:41.079Z</time></trkpt><trkpt lat="42.25643" lon="13.2517567"><ele>1283.0</ele><time>2026-05-02T15:08:42.079Z</time></trkpt><trkpt lat="42.2565033" lon="13.2516867"><ele>1283.0</ele><time>2026-05-02T15:08:43.079Z</time></trkpt><trkpt lat="42.2565733" lon="13.2516383"><ele>1283.0</ele><time>2026-05-02T15:08:44.078Z</time></trkpt><trkpt lat="42.2566533" lon="13.2516"><ele>1283.0</ele><time>2026-05-02T15:08:45.078Z</time></trkpt><trkpt lat="42.2567433" lon="13.25157"><ele>1285.8000000000002</ele><time>2026-05-02T15:08:46.079Z</time></trkpt><trkpt lat="42.25684" lon="13.2515333"><ele>1288.6</ele><time>2026-05-02T15:08:47.079Z</time></trkpt><trkpt lat="42.2569417" lon="13.2515117"><ele>1291.4</ele><time>2026-05-02T15:08:48.078Z</time></trkpt><trkpt lat="42.257015" lon="13.2515083"><ele>1294.1999999999998</ele><time>2026-05-02T15:08:49.078Z</time></trkpt><trkpt lat="42.2570867" lon="13.2515717"><ele>1297.0</ele><time>2026-05-02T15:08:51.078Z</time></trkpt><trkpt lat="42.2571217" lon="13.25173"><ele>1297.0</ele><time>2026-05-02T15:08:53.078Z</time></trkpt><trkpt lat="42.2571433" lon="13.2518633"><ele>1297.0</ele><time>2026-05-02T15:08:54.079Z</time></trkpt><trkpt lat="42.2571617" lon="13.2520017"><ele>1297.0</ele><time>2026-05-02T15:08:55.078Z</time></trkpt><trkpt lat="42.2571817" lon="13.25216"><ele>1297.0</ele><time>2026-05-02T15:08:56.078Z</time></trkpt><trkpt lat="42.2571867" lon="13.2523067"><ele>1297.0</ele><time>2026-05-02T15:08:57.079Z</time></trkpt><trkpt lat="42.2571933" lon="13.2524367"><ele>1297.8333333333333</ele><time>2026-05-02T15:08:58.078Z</time></trkpt><trkpt lat="42.2572033" lon="13.252545"><ele>1298.6666666666665</ele><time>2026-05-02T15:08:59.079Z</time></trkpt><trkpt lat="42.257225" lon="13.252625"><ele>1299.5</ele><time>2026-05-02T15:09:00.079Z</time></trkpt><trkpt lat="42.2572883" lon="13.2527"><ele>1300.3333333333333</ele><time>2026-05-02T15:09:02.078Z</time></trkpt><trkpt lat="42.2574" lon="13.2526383"><ele>1301.1666666666667</ele><time>2026-05-02T15:09:04.078Z</time></trkpt><trkpt lat="42.2574667" lon="13.252585"><ele>1302.0</ele><time>2026-05-02T15:09:05.079Z</time></trkpt><trkpt lat="42.2575383" lon="13.25255"><ele>1299.6</ele><time>2026-05-02T15:09:06.079Z</time></trkpt><trkpt lat="42.25761" lon="13.2525383"><ele>1297.1999999999998</ele><time>2026-05-02T15:09:07.078Z</time></trkpt><trkpt lat="42.2576967" lon="13.2525367"><ele>1294.8</ele><time>2026-05-02T15:09:08.078Z</time></trkpt><trkpt lat="42.257795" lon="13.25254"><ele>1292.4</ele><time>2026-05-02T15:09:09.078Z</time></trkpt><trkpt lat="42.2579017" lon="13.252535"><ele>1290.0</ele><time>2026-05-02T15:09:10.079Z</time></trkpt><trkpt lat="42.2580267" lon="13.2525067"><ele>1290.0</ele><time>2026-05-02T15:09:11.078Z</time></trkpt><trkpt lat="42.2581483" lon="13.2524733"><ele>1290.0</ele><time>2026-05-02T15:09:12.079Z</time></trkpt><trkpt lat="42.25828" lon="13.2524167"><ele>1290.0</ele><time>2026-05-02T15:09:13.078Z</time></trkpt><trkpt lat="42.2583983" lon="13.2523417"><ele>1290.0</ele><time>2026-05-02T15:09:14.078Z</time></trkpt><trkpt lat="42.2584883" lon="13.2522667"><ele>1287.4</ele><time>2026-05-02T15:09:15.079Z</time></trkpt><trkpt lat="42.258565" lon="13.252165"><ele>1284.8</ele><time>2026-05-02T15:09:16.078Z</time></trkpt><trkpt lat="42.25862" lon="13.25205"><ele>1282.2</ele><time>2026-05-02T15:09:17.078Z</time></trkpt><trkpt lat="42.2586633" lon="13.2519333"><ele>1279.6</ele><time>2026-05-02T15:09:18.079Z</time></trkpt><trkpt lat="42.2587167" lon="13.2518233"><ele>1277.0</ele><time>2026-05-02T15:09:19.078Z</time></trkpt><trkpt lat="42.2587917" lon="13.251715"><ele>1277.0</ele><time>2026-05-02T15:09:20.078Z</time></trkpt><trkpt lat="42.2588733" lon="13.2516167"><ele>1277.0</ele><time>2026-05-02T15:09:21.079Z</time></trkpt><trkpt lat="42.258965" lon="13.251505"><ele>1277.0</ele><time>2026-05-02T15:09:22.079Z</time></trkpt><trkpt lat="42.259055" lon="13.2514267"><ele>1277.0</ele><time>2026-05-02T15:09:23.079Z</time></trkpt><trkpt lat="42.2591533" lon="13.25137"><ele>1277.0</ele><time>2026-05-02T15:09:24.078Z</time></trkpt><trkpt lat="42.25925" lon="13.2513317"><ele>1275.2</ele><time>2026-05-02T15:09:25.079Z</time></trkpt><trkpt lat="42.259345" lon="13.2513033"><ele>1273.4</ele><time>2026-05-02T15:09:26.079Z</time></trkpt><trkpt lat="42.2594367" lon="13.25125"><ele>1271.6</ele><time>2026-05-02T15:09:27.078Z</time></trkpt><trkpt lat="42.2595283" lon="13.2511833"><ele>1269.8</ele><time>2026-05-02T15:09:28.079Z</time></trkpt><trkpt lat="42.25961" lon="13.2511033"><ele>1268.0</ele><time>2026-05-02T15:09:29.078Z</time></trkpt><trkpt lat="42.259665" lon="13.2510083"><ele>1268.0</ele><time>2026-05-02T15:09:30.078Z</time></trkpt><trkpt lat="42.259725" lon="13.2508717"><ele>1268.0</ele><time>2026-05-02T15:09:31.078Z</time></trkpt><trkpt lat="42.259785" lon="13.2507017"><ele>1268.0</ele><time>2026-05-02T15:09:32.078Z</time></trkpt><trkpt lat="42.2598483" lon="13.2505083"><ele>1268.0</ele><time>2026-05-02T15:09:33.079Z</time></trkpt><trkpt lat="42.2598933" lon="13.2503233"><ele>1269.0</ele><time>2026-05-02T15:09:34.078Z</time></trkpt><trkpt lat="42.2599183" lon="13.2501567"><ele>1270.0</ele><time>2026-05-02T15:09:35.078Z</time></trkpt><trkpt lat="42.2599283" lon="13.249995"><ele>1271.0</ele><time>2026-05-02T15:09:36.078Z</time></trkpt><trkpt lat="42.2599367" lon="13.249835"><ele>1272.0</ele><time>2026-05-02T15:09:37.079Z</time></trkpt><trkpt lat="42.2599683" lon="13.2496783"><ele>1270.0</ele><time>2026-05-02T15:09:38.079Z</time></trkpt><trkpt lat="42.2600067" lon="13.24952"><ele>1268.0</ele><time>2026-05-02T15:09:39.078Z</time></trkpt><trkpt lat="42.26005" lon="13.2493517"><ele>1266.0</ele><time>2026-05-02T15:09:40.078Z</time></trkpt><trkpt lat="42.2600833" lon="13.2491833"><ele>1264.0</ele><time>2026-05-02T15:09:41.079Z</time></trkpt><trkpt lat="42.260125" lon="13.2489983"><ele>1262.3333333333333</ele><time>2026-05-02T15:09:42.078Z</time></trkpt><trkpt lat="42.26016" lon="13.2487983"><ele>1260.6666666666667</ele><time>2026-05-02T15:09:43.078Z</time></trkpt><trkpt lat="42.26019" lon="13.2485883"><ele>1259.0</ele><time>2026-05-02T15:09:44.078Z</time></trkpt><trkpt lat="42.2602133" lon="13.2483817"><ele>1259.0</ele><time>2026-05-02T15:09:45.078Z</time></trkpt><trkpt lat="42.260245" lon="13.248175"><ele>1259.0</ele><time>2026-05-02T15:09:46.078Z</time></trkpt><trkpt lat="42.2602817" lon="13.2479867"><ele>1259.0</ele><time>2026-05-02T15:09:47.079Z</time></trkpt><trkpt lat="42.260305" lon="13.2478133"><ele>1259.0</ele><time>2026-05-02T15:09:48.079Z</time></trkpt><trkpt lat="42.2603283" lon="13.2476517"><ele>1257.8</ele><time>2026-05-02T15:09:49.079Z</time></trkpt><trkpt lat="42.2603533" lon="13.24751"><ele>1256.6000000000001</ele><time>2026-05-02T15:09:50.079Z</time></trkpt><trkpt lat="42.260375" lon="13.247385"><ele>1255.4</ele><time>2026-05-02T15:09:51.079Z</time></trkpt><trkpt lat="42.2604183" lon="13.2472883"><ele>1254.2</ele><time>2026-05-02T15:09:52.078Z</time></trkpt><trkpt lat="42.2604717" lon="13.2472017"><ele>1253.0</ele><time>2026-05-02T15:09:53.079Z</time></trkpt><trkpt lat="42.260535" lon="13.2471167"><ele>1253.0</ele><time>2026-05-02T15:09:54.078Z</time></trkpt><trkpt lat="42.2606083" lon="13.24702"><ele>1253.0</ele><time>2026-05-02T15:09:55.078Z</time></trkpt><trkpt lat="42.26069" lon="13.2469033"><ele>1253.0</ele><time>2026-05-02T15:09:56.078Z</time></trkpt><trkpt lat="42.2607767" lon="13.246775"><ele>1253.0</ele><time>2026-05-02T15:09:57.078Z</time></trkpt><trkpt lat="42.2608567" lon="13.24661"><ele>1252.3333333333335</ele><time>2026-05-02T15:09:58.079Z</time></trkpt><trkpt lat="42.2609383" lon="13.2464317"><ele>1251.6666666666667</ele><time>2026-05-02T15:09:59.078Z</time></trkpt><trkpt lat="42.2610317" lon="13.2462433"><ele>1251.0</ele><time>2026-05-02T15:10:00.078Z</time></trkpt><trkpt lat="42.2611283" lon="13.2460417"><ele>1251.0</ele><time>2026-05-02T15:10:01.079Z</time></trkpt><trkpt lat="42.2612283" lon="13.245855"><ele>1251.0</ele><time>2026-05-02T15:10:02.078Z</time></trkpt><trkpt lat="42.26133" lon="13.245665"><ele>1251.0</ele><time>2026-05-02T15:10:03.078Z</time></trkpt><trkpt lat="42.26143" lon="13.245485"><ele>1252.0</ele><time>2026-05-02T15:10:04.078Z</time></trkpt><trkpt lat="42.2615183" lon="13.2453017"><ele>1253.0</ele><time>2026-05-02T15:10:05.079Z</time></trkpt><trkpt lat="42.2615917" lon="13.245135"><ele>1254.0</ele><time>2026-05-02T15:10:06.078Z</time></trkpt><trkpt lat="42.2616583" lon="13.2449783"><ele>1255.0</ele><time>2026-05-02T15:10:07.079Z</time></trkpt><trkpt lat="42.26172" lon="13.2448233"><ele>1254.5</ele><time>2026-05-02T15:10:08.078Z</time></trkpt><trkpt lat="42.26176" lon="13.2446683"><ele>1254.0</ele><time>2026-05-02T15:10:09.078Z</time></trkpt><trkpt lat="42.2617867" lon="13.244505"><ele>1253.5</ele><time>2026-05-02T15:10:10.078Z</time></trkpt><trkpt lat="42.2617883" lon="13.2443517"><ele>1253.0</ele><time>2026-05-02T15:10:11.079Z</time></trkpt><trkpt lat="42.261765" lon="13.2441933"><ele>1253.0</ele><time>2026-05-02T15:10:12.079Z</time></trkpt><trkpt lat="42.2617183" lon="13.2440333"><ele>1253.0</ele><time>2026-05-02T15:10:13.079Z</time></trkpt><trkpt lat="42.2616417" lon="13.243885"><ele>1253.0</ele><time>2026-05-02T15:10:14.078Z</time></trkpt><trkpt lat="42.2615367" lon="13.2437483"><ele>1253.0</ele><time>2026-05-02T15:10:15.078Z</time></trkpt><trkpt lat="42.2614217" lon="13.2436183"><ele>1253.0</ele><time>2026-05-02T15:10:16.078Z</time></trkpt><trkpt lat="42.2612967" lon="13.243515"><ele>1253.0</ele><time>2026-05-02T15:10:17.078Z</time></trkpt><trkpt lat="42.2611683" lon="13.2434"><ele>1253.0</ele><time>2026-05-02T15:10:18.078Z</time></trkpt><trkpt lat="42.2610533" lon="13.24331"><ele>1253.0</ele><time>2026-05-02T15:10:19.079Z</time></trkpt><trkpt lat="42.2609567" lon="13.2432117"><ele>1253.0</ele><time>2026-05-02T15:10:20.078Z</time></trkpt><trkpt lat="42.2608817" lon="13.2431083"><ele>1253.0</ele><time>2026-05-02T15:10:21.079Z</time></trkpt><trkpt lat="42.2608233" lon="13.2429967"><ele>1253.0</ele><time>2026-05-02T15:10:22.078Z</time></trkpt><trkpt lat="42.2607983" lon="13.2428467"><ele>1253.0</ele><time>2026-05-02T15:10:23.078Z</time></trkpt><trkpt lat="42.2607817" lon="13.24266"><ele>1253.0</ele><time>2026-05-02T15:10:24.078Z</time></trkpt><trkpt lat="42.2607617" lon="13.24247"><ele>1253.0</ele><time>2026-05-02T15:10:25.079Z</time></trkpt><trkpt lat="42.2607283" lon="13.2422683"><ele>1253.0</ele><time>2026-05-02T15:10:26.078Z</time></trkpt><trkpt lat="42.2606767" lon="13.2420967"><ele>1253.0</ele><time>2026-05-02T15:10:27.078Z</time></trkpt><trkpt lat="42.26063" lon="13.2419317"><ele>1249.0</ele><time>2026-05-02T15:10:28.079Z</time></trkpt><trkpt lat="42.2605967" lon="13.241765"><ele>1245.0</ele><time>2026-05-02T15:10:29.078Z</time></trkpt><trkpt lat="42.26058" lon="13.2415833"><ele>1241.0</ele><time>2026-05-02T15:10:30.079Z</time></trkpt><trkpt lat="42.2605833" lon="13.2413883"><ele>1237.0</ele><time>2026-05-02T15:10:31.078Z</time></trkpt><trkpt lat="42.2606033" lon="13.2412117"><ele>1238.2</ele><time>2026-05-02T15:10:32.078Z</time></trkpt><trkpt lat="42.2606333" lon="13.2410733"><ele>1239.4</ele><time>2026-05-02T15:10:33.079Z</time></trkpt><trkpt lat="42.2606733" lon="13.2409717"><ele>1240.6</ele><time>2026-05-02T15:10:34.078Z</time></trkpt><trkpt lat="42.2607267" lon="13.2408917"><ele>1241.8</ele><time>2026-05-02T15:10:35.079Z</time></trkpt><trkpt lat="42.2607967" lon="13.2408233"><ele>1243.0</ele><time>2026-05-02T15:10:36.078Z</time></trkpt><trkpt lat="42.2608833" lon="13.2407583"><ele>1243.0</ele><time>2026-05-02T15:10:37.078Z</time></trkpt><trkpt lat="42.26099" lon="13.240705"><ele>1243.0</ele><time>2026-05-02T15:10:38.079Z</time></trkpt><trkpt lat="42.2611017" lon="13.2406433"><ele>1243.0</ele><time>2026-05-02T15:10:39.078Z</time></trkpt><trkpt lat="42.26121" lon="13.2405667"><ele>1243.0</ele><time>2026-05-02T15:10:40.078Z</time></trkpt><trkpt lat="42.2613167" lon="13.2405"><ele>1241.6</ele><time>2026-05-02T15:10:41.078Z</time></trkpt><trkpt lat="42.2614267" lon="13.2404233"><ele>1240.1999999999998</ele><time>2026-05-02T15:10:42.079Z</time></trkpt><trkpt lat="42.2615267" lon="13.2403517"><ele>1238.8</ele><time>2026-05-02T15:10:43.079Z</time></trkpt><trkpt lat="42.26161" lon="13.2402717"><ele>1237.3999999999999</ele><time>2026-05-02T15:10:44.079Z</time></trkpt><trkpt lat="42.2616867" lon="13.24018"><ele>1236.0</ele><time>2026-05-02T15:10:45.078Z</time></trkpt><trkpt lat="42.2617733" lon="13.2400933"><ele>1236.0</ele><time>2026-05-02T15:10:46.079Z</time></trkpt><trkpt lat="42.2618683" lon="13.24001"><ele>1236.0</ele><time>2026-05-02T15:10:47.079Z</time></trkpt><trkpt lat="42.2619733" lon="13.239935"><ele>1236.0</ele><time>2026-05-02T15:10:48.079Z</time></trkpt><trkpt lat="42.2620883" lon="13.2398833"><ele>1236.0</ele><time>2026-05-02T15:10:49.078Z</time></trkpt><trkpt lat="42.2621967" lon="13.2398383"><ele>1231.0</ele><time>2026-05-02T15:10:50.078Z</time></trkpt><trkpt lat="42.26231" lon="13.2397983"><ele>1226.0</ele><time>2026-05-02T15:10:51.078Z</time></trkpt><trkpt lat="42.2624333" lon="13.2397817"><ele>1221.0</ele><time>2026-05-02T15:10:52.078Z</time></trkpt><trkpt lat="42.2625783" lon="13.2397583"><ele>1216.0</ele><time>2026-05-02T15:10:53.078Z</time></trkpt><trkpt lat="42.2627233" lon="13.2397383"><ele>1216.0</ele><time>2026-05-02T15:10:54.078Z</time></trkpt><trkpt lat="42.262855" lon="13.2397267"><ele>1216.0</ele><time>2026-05-02T15:10:55.078Z</time></trkpt><trkpt lat="42.262965" lon="13.2397133"><ele>1216.0</ele><time>2026-05-02T15:10:56.078Z</time></trkpt><trkpt lat="42.26306" lon="13.239675"><ele>1216.0</ele><time>2026-05-02T15:10:57.078Z</time></trkpt><trkpt lat="42.2631367" lon="13.2396283"><ele>1216.0</ele><time>2026-05-02T15:10:58.078Z</time></trkpt><trkpt lat="42.26319" lon="13.239555"><ele>1215.8</ele><time>2026-05-02T15:10:59.078Z</time></trkpt><trkpt lat="42.263235" lon="13.239455"><ele>1215.6</ele><time>2026-05-02T15:11:00.078Z</time></trkpt><trkpt lat="42.2632633" lon="13.2393383"><ele>1215.4</ele><time>2026-05-02T15:11:01.078Z</time></trkpt><trkpt lat="42.2632867" lon="13.2391967"><ele>1215.2</ele><time>2026-05-02T15:11:02.078Z</time></trkpt><trkpt lat="42.26329" lon="13.2390083"><ele>1215.0</ele><time>2026-05-02T15:11:03.078Z</time></trkpt><trkpt lat="42.2632983" lon="13.2388267"><ele>1215.0</ele><time>2026-05-02T15:11:04.079Z</time></trkpt><trkpt lat="42.2633" lon="13.238665"><ele>1215.0</ele><time>2026-05-02T15:11:05.078Z</time></trkpt><trkpt lat="42.2633083" lon="13.2385383"><ele>1215.0</ele><time>2026-05-02T15:11:06.078Z</time></trkpt><trkpt lat="42.2633367" lon="13.2384167"><ele>1215.0</ele><time>2026-05-02T15:11:07.079Z</time></trkpt><trkpt lat="42.2633967" lon="13.2382917"><ele>1215.0</ele><time>2026-05-02T15:11:08.078Z</time></trkpt><trkpt lat="42.2634683" lon="13.2381583"><ele>1213.6</ele><time>2026-05-02T15:11:09.079Z</time></trkpt><trkpt lat="42.263545" lon="13.238035"><ele>1212.2</ele><time>2026-05-02T15:11:10.079Z</time></trkpt><trkpt lat="42.2636067" lon="13.23792"><ele>1210.8</ele><time>2026-05-02T15:11:11.078Z</time></trkpt><trkpt lat="42.2636683" lon="13.2378367"><ele>1209.4</ele><time>2026-05-02T15:11:12.079Z</time></trkpt><trkpt lat="42.2637217" lon="13.2377733"><ele>1208.0</ele><time>2026-05-02T15:11:13.079Z</time></trkpt><trkpt lat="42.2637883" lon="13.2377117"><ele>1208.0</ele><time>2026-05-02T15:11:14.079Z</time></trkpt><trkpt lat="42.2638717" lon="13.2376617"><ele>1208.0</ele><time>2026-05-02T15:11:15.078Z</time></trkpt><trkpt lat="42.263975" lon="13.2376067"><ele>1208.0</ele><time>2026-05-02T15:11:16.079Z</time></trkpt><trkpt lat="42.2640967" lon="13.2375283"><ele>1208.0</ele><time>2026-05-02T15:11:17.079Z</time></trkpt><trkpt lat="42.2642283" lon="13.23746"><ele>1208.8</ele><time>2026-05-02T15:11:18.079Z</time></trkpt><trkpt lat="42.264355" lon="13.2374"><ele>1209.6</ele><time>2026-05-02T15:11:19.078Z</time></trkpt><trkpt lat="42.2644617" lon="13.2373733"><ele>1210.4</ele><time>2026-05-02T15:11:20.079Z</time></trkpt><trkpt lat="42.264555" lon="13.2373867"><ele>1211.2</ele><time>2026-05-02T15:11:21.079Z</time></trkpt><trkpt lat="42.26464" lon="13.2374233"><ele>1212.0</ele><time>2026-05-02T15:11:22.079Z</time></trkpt><trkpt lat="42.2647217" lon="13.2374933"><ele>1212.75</ele><time>2026-05-02T15:11:23.079Z</time></trkpt><trkpt lat="42.2647983" lon="13.237595"><ele>1213.5</ele><time>2026-05-02T15:11:24.079Z</time></trkpt><trkpt lat="42.2648867" lon="13.2377167"><ele>1214.25</ele><time>2026-05-02T15:11:25.079Z</time></trkpt><trkpt lat="42.264995" lon="13.23783"><ele>1215.0</ele><time>2026-05-02T15:11:26.078Z</time></trkpt><trkpt lat="42.265105" lon="13.2379417"><ele>1215.0</ele><time>2026-05-02T15:11:27.078Z</time></trkpt><trkpt lat="42.26521" lon="13.2380533"><ele>1215.0</ele><time>2026-05-02T15:11:28.078Z</time></trkpt><trkpt lat="42.2652933" lon="13.238185"><ele>1215.0</ele><time>2026-05-02T15:11:29.078Z</time></trkpt><trkpt lat="42.2653683" lon="13.238355"><ele>1215.0</ele><time>2026-05-02T15:11:30.078Z</time></trkpt><trkpt lat="42.265445" lon="13.2385383"><ele>1213.0</ele><time>2026-05-02T15:11:31.078Z</time></trkpt><trkpt lat="42.265525" lon="13.23871"><ele>1211.0</ele><time>2026-05-02T15:11:32.078Z</time></trkpt><trkpt lat="42.2656083" lon="13.2388583"><ele>1209.0</ele><time>2026-05-02T15:11:33.079Z</time></trkpt><trkpt lat="42.2656767" lon="13.238995"><ele>1207.0</ele><time>2026-05-02T15:11:34.079Z</time></trkpt><trkpt lat="42.2657283" lon="13.2391217"><ele>1206.2</ele><time>2026-05-02T15:11:35.078Z</time></trkpt><trkpt lat="42.26576" lon="13.239245"><ele>1205.4</ele><time>2026-05-02T15:11:36.079Z</time></trkpt><trkpt lat="42.265795" lon="13.2393717"><ele>1204.6</ele><time>2026-05-02T15:11:37.078Z</time></trkpt><trkpt lat="42.2658417" lon="13.2394983"><ele>1203.8</ele><time>2026-05-02T15:11:38.078Z</time></trkpt><trkpt lat="42.2659" lon="13.2396317"><ele>1203.0</ele><time>2026-05-02T15:11:39.078Z</time></trkpt><trkpt lat="42.265975" lon="13.2397633"><ele>1201.0</ele><time>2026-05-02T15:11:40.078Z</time></trkpt><trkpt lat="42.2660683" lon="13.2399067"><ele>1199.0</ele><time>2026-05-02T15:11:41.079Z</time></trkpt><trkpt lat="42.2661533" lon="13.240025"><ele>1197.0</ele><time>2026-05-02T15:11:42.079Z</time></trkpt><trkpt lat="42.26623" lon="13.240135"><ele>1195.0</ele><time>2026-05-02T15:11:43.078Z</time></trkpt><trkpt lat="42.2663117" lon="13.2402417"><ele>1196.0</ele><time>2026-05-02T15:11:44.078Z</time></trkpt><trkpt lat="42.2665917" lon="13.2405017"><ele>1197.0</ele><time>2026-05-02T15:11:47.078Z</time></trkpt><trkpt lat="42.2666983" lon="13.2405667"><ele>1197.0</ele><time>2026-05-02T15:11:48.078Z</time></trkpt><trkpt lat="42.26681" lon="13.2406317"><ele>1197.0</ele><time>2026-05-02T15:11:49.079Z</time></trkpt><trkpt lat="42.266935" lon="13.2406967"><ele>1197.0</ele><time>2026-05-02T15:11:50.079Z</time></trkpt><trkpt lat="42.267065" lon="13.24076"><ele>1197.0</ele><time>2026-05-02T15:11:51.079Z</time></trkpt><trkpt lat="42.267195" lon="13.2408"><ele>1192.6666666666667</ele><time>2026-05-02T15:11:52.078Z</time></trkpt><trkpt lat="42.2673267" lon="13.2408433"><ele>1188.3333333333335</ele><time>2026-05-02T15:11:53.078Z</time></trkpt><trkpt lat="42.2675717" lon="13.2409217"><ele>1184.0</ele><time>2026-05-02T15:11:55.078Z</time></trkpt><trkpt lat="42.2676733" lon="13.2409717"><ele>1184.0</ele><time>2026-05-02T15:11:56.079Z</time></trkpt><trkpt lat="42.2677567" lon="13.2410417"><ele>1184.0</ele><time>2026-05-02T15:11:57.078Z</time></trkpt><trkpt lat="42.2678333" lon="13.241105"><ele>1184.0</ele><time>2026-05-02T15:11:58.078Z</time></trkpt><trkpt lat="42.2678983" lon="13.24119"><ele>1184.0</ele><time>2026-05-02T15:11:59.079Z</time></trkpt><trkpt lat="42.26794" lon="13.2412783"><ele>1184.0</ele><time>2026-05-02T15:12:00.079Z</time></trkpt><trkpt lat="42.2679617" lon="13.2413767"><ele>1184.0</ele><time>2026-05-02T15:12:01.078Z</time></trkpt><trkpt lat="42.2679633" lon="13.241765"><ele>1182.0</ele><time>2026-05-02T15:12:04.078Z</time></trkpt><trkpt lat="42.267955" lon="13.241895"><ele>1180.0</ele><time>2026-05-02T15:12:05.079Z</time></trkpt><trkpt lat="42.2683133" lon="13.2429617"><ele>1179.75</ele><time>2026-05-02T15:13:29.097Z</time></trkpt><trkpt lat="42.2684017" lon="13.243"><ele>1179.5</ele><time>2026-05-02T15:13:30.097Z</time></trkpt><trkpt lat="42.2685083" lon="13.2430133"><ele>1179.25</ele><time>2026-05-02T15:13:31.097Z</time></trkpt><trkpt lat="42.2686333" lon="13.2430133"><ele>1179.0</ele><time>2026-05-02T15:13:32.097Z</time></trkpt><trkpt lat="42.268765" lon="13.2430167"><ele>1179.0</ele><time>2026-05-02T15:13:33.098Z</time></trkpt><trkpt lat="42.2688933" lon="13.243045"><ele>1179.0</ele><time>2026-05-02T15:13:34.097Z</time></trkpt><trkpt lat="42.2690383" lon="13.2431067"><ele>1179.0</ele><time>2026-05-02T15:13:35.097Z</time></trkpt><trkpt lat="42.26917" lon="13.243175"><ele>1179.0</ele><time>2026-05-02T15:13:36.098Z</time></trkpt><trkpt lat="42.269285" lon="13.2432433"><ele>1181.0</ele><time>2026-05-02T15:13:37.097Z</time></trkpt><trkpt lat="42.2693933" lon="13.24328"><ele>1183.0</ele><time>2026-05-02T15:13:38.097Z</time></trkpt><trkpt lat="42.269515" lon="13.2433183"><ele>1185.0</ele><time>2026-05-02T15:13:39.098Z</time></trkpt><trkpt lat="42.2696367" lon="13.24336"><ele>1187.0</ele><time>2026-05-02T15:13:40.097Z</time></trkpt><trkpt lat="42.26976" lon="13.2433733"><ele>1188.5</ele><time>2026-05-02T15:13:41.097Z</time></trkpt><trkpt lat="42.2698667" lon="13.2433533"><ele>1190.0</ele><time>2026-05-02T15:13:42.098Z</time></trkpt><trkpt lat="42.2699867" lon="13.2433183"><ele>1191.5</ele><time>2026-05-02T15:13:43.097Z</time></trkpt><trkpt lat="42.2701" lon="13.243265"><ele>1193.0</ele><time>2026-05-02T15:13:44.098Z</time></trkpt><trkpt lat="42.2702" lon="13.2431717"><ele>1193.5</ele><time>2026-05-02T15:13:45.097Z</time></trkpt><trkpt lat="42.2702983" lon="13.24304"><ele>1194.0</ele><time>2026-05-02T15:13:46.097Z</time></trkpt><trkpt lat="42.2704133" lon="13.2429183"><ele>1194.5</ele><time>2026-05-02T15:13:47.098Z</time></trkpt><trkpt lat="42.2705433" lon="13.2427933"><ele>1195.0</ele><time>2026-05-02T15:13:48.097Z</time></trkpt><trkpt lat="42.2706833" lon="13.2427017"><ele>1193.3333333333333</ele><time>2026-05-02T15:13:49.098Z</time></trkpt><trkpt lat="42.270835" lon="13.2425933"><ele>1191.6666666666667</ele><time>2026-05-02T15:13:50.097Z</time></trkpt><trkpt lat="42.271" lon="13.2424933"><ele>1190.0</ele><time>2026-05-02T15:13:51.097Z</time></trkpt><trkpt lat="42.2711683" lon="13.2423833"><ele>1189.0</ele><time>2026-05-02T15:13:52.098Z</time></trkpt><trkpt lat="42.2713283" lon="13.2422783"><ele>1188.0</ele><time>2026-05-02T15:13:53.097Z</time></trkpt><trkpt lat="42.2714633" lon="13.2421833"><ele>1187.0</ele><time>2026-05-02T15:13:54.098Z</time></trkpt><trkpt lat="42.2716017" lon="13.2420833"><ele>1187.0</ele><time>2026-05-02T15:13:55.097Z</time></trkpt><trkpt lat="42.2717217" lon="13.2419517"><ele>1187.0</ele><time>2026-05-02T15:13:56.097Z</time></trkpt><trkpt lat="42.2718267" lon="13.241815"><ele>1187.0</ele><time>2026-05-02T15:13:57.098Z</time></trkpt><trkpt lat="42.271935" lon="13.2416867"><ele>1187.0</ele><time>2026-05-02T15:13:58.098Z</time></trkpt><trkpt lat="42.27204" lon="13.241585"><ele>1187.0</ele><time>2026-05-02T15:13:59.097Z</time></trkpt><trkpt lat="42.2721467" lon="13.24152"><ele>1187.0</ele><time>2026-05-02T15:14:00.097Z</time></trkpt><trkpt lat="42.2722517" lon="13.2414917"><ele>1187.0</ele><time>2026-05-02T15:14:01.098Z</time></trkpt><trkpt lat="42.2723833" lon="13.2414817"><ele>1187.0</ele><time>2026-05-02T15:14:02.097Z</time></trkpt><trkpt lat="42.2725217" lon="13.24151"><ele>1185.3333333333335</ele><time>2026-05-02T15:14:03.098Z</time></trkpt><trkpt lat="42.2726683" lon="13.2415533"><ele>1183.6666666666667</ele><time>2026-05-02T15:14:04.098Z</time></trkpt><trkpt lat="42.272825" lon="13.2415867"><ele>1182.0</ele><time>2026-05-02T15:14:05.097Z</time></trkpt><trkpt lat="42.2729733" lon="13.24162"><ele>1181.25</ele><time>2026-05-02T15:14:06.097Z</time></trkpt><trkpt lat="42.27312" lon="13.2416467"><ele>1180.5</ele><time>2026-05-02T15:14:07.098Z</time></trkpt><trkpt lat="42.2732683" lon="13.24166"><ele>1179.75</ele><time>2026-05-02T15:14:08.097Z</time></trkpt><trkpt lat="42.273395" lon="13.2416817"><ele>1179.0</ele><time>2026-05-02T15:14:09.097Z</time></trkpt><trkpt lat="42.273495" lon="13.2417033"><ele>1179.0</ele><time>2026-05-02T15:14:10.098Z</time></trkpt><trkpt lat="42.2735883" lon="13.2417683"><ele>1179.0</ele><time>2026-05-02T15:14:11.097Z</time></trkpt><trkpt lat="42.2736783" lon="13.2418583"><ele>1179.0</ele><time>2026-05-02T15:14:12.097Z</time></trkpt><trkpt lat="42.273765" lon="13.2419533"><ele>1179.0</ele><time>2026-05-02T15:14:13.098Z</time></trkpt><trkpt lat="42.2738533" lon="13.2420533"><ele>1179.0</ele><time>2026-05-02T15:14:14.098Z</time></trkpt><trkpt lat="42.2739367" lon="13.24214"><ele>1179.5</ele><time>2026-05-02T15:14:15.097Z</time></trkpt><trkpt lat="42.2740167" lon="13.2422083"><ele>1180.0</ele><time>2026-05-02T15:14:16.098Z</time></trkpt><trkpt lat="42.27409" lon="13.2422733"><ele>1180.5</ele><time>2026-05-02T15:14:17.098Z</time></trkpt><trkpt lat="42.274155" lon="13.242345"><ele>1181.0</ele><time>2026-05-02T15:14:18.097Z</time></trkpt><trkpt lat="42.274215" lon="13.24243"><ele>1181.5</ele><time>2026-05-02T15:14:19.097Z</time></trkpt><trkpt lat="42.2742467" lon="13.2425317"><ele>1182.0</ele><time>2026-05-02T15:14:20.098Z</time></trkpt><trkpt lat="42.2742717" lon="13.2426283"><ele>1183.2</ele><time>2026-05-02T15:14:21.097Z</time></trkpt><trkpt lat="42.2742733" lon="13.2427333"><ele>1184.4</ele><time>2026-05-02T15:14:22.097Z</time></trkpt><trkpt lat="42.274275" lon="13.2428317"><ele>1185.6</ele><time>2026-05-02T15:14:23.097Z</time></trkpt><trkpt lat="42.27429" lon="13.24303"><ele>1186.8</ele><time>2026-05-02T15:14:25.098Z</time></trkpt><trkpt lat="42.2743233" lon="13.2431367"><ele>1188.0</ele><time>2026-05-02T15:14:26.097Z</time></trkpt><trkpt lat="42.274375" lon="13.2432417"><ele>1188.0</ele><time>2026-05-02T15:14:27.097Z</time></trkpt><trkpt lat="42.27445" lon="13.243335"><ele>1188.0</ele><time>2026-05-02T15:14:28.098Z</time></trkpt><trkpt lat="42.2745467" lon="13.2434283"><ele>1188.0</ele><time>2026-05-02T15:14:29.098Z</time></trkpt><trkpt lat="42.27466" lon="13.2435067"><ele>1188.0</ele><time>2026-05-02T15:14:30.098Z</time></trkpt><trkpt lat="42.2747717" lon="13.243585"><ele>1193.0</ele><time>2026-05-02T15:14:31.098Z</time></trkpt><trkpt lat="42.2748917" lon="13.2436733"><ele>1198.0</ele><time>2026-05-02T15:14:32.097Z</time></trkpt><trkpt lat="42.275025" lon="13.2437717"><ele>1203.0</ele><time>2026-05-02T15:14:33.097Z</time></trkpt><trkpt lat="42.2751633" lon="13.243885"><ele>1202.0</ele><time>2026-05-02T15:14:34.098Z</time></trkpt><trkpt lat="42.275305" lon="13.2439967"><ele>1201.0</ele><time>2026-05-02T15:14:35.097Z</time></trkpt><trkpt lat="42.275445" lon="13.2440983"><ele>1200.0</ele><time>2026-05-02T15:14:36.098Z</time></trkpt><trkpt lat="42.2755683" lon="13.24419"><ele>1202.25</ele><time>2026-05-02T15:14:37.098Z</time></trkpt><trkpt lat="42.2756733" lon="13.2442783"><ele>1204.5</ele><time>2026-05-02T15:14:38.098Z</time></trkpt><trkpt lat="42.2757883" lon="13.244365"><ele>1206.75</ele><time>2026-05-02T15:14:39.097Z</time></trkpt><trkpt lat="42.2759017" lon="13.2444317"><ele>1209.0</ele><time>2026-05-02T15:14:40.097Z</time></trkpt><trkpt lat="42.2760167" lon="13.2444867"><ele>1209.0</ele><time>2026-05-02T15:14:41.097Z</time></trkpt><trkpt lat="42.2761233" lon="13.244515"><ele>1209.0</ele><time>2026-05-02T15:14:42.097Z</time></trkpt><trkpt lat="42.2762167" lon="13.244545"><ele>1209.0</ele><time>2026-05-02T15:14:43.098Z</time></trkpt><trkpt lat="42.2762883" lon="13.24458"><ele>1209.0</ele><time>2026-05-02T15:14:44.097Z</time></trkpt><trkpt lat="42.2763683" lon="13.2446317"><ele>1209.0</ele><time>2026-05-02T15:14:45.097Z</time></trkpt><trkpt lat="42.276455" lon="13.2447133"><ele>1209.8</ele><time>2026-05-02T15:14:46.098Z</time></trkpt><trkpt lat="42.2765467" lon="13.2448133"><ele>1210.6000000000001</ele><time>2026-05-02T15:14:47.097Z</time></trkpt><trkpt lat="42.2766383" lon="13.2449167"><ele>1211.4</ele><time>2026-05-02T15:14:48.098Z</time></trkpt><trkpt lat="42.2767133" lon="13.245"><ele>1212.2</ele><time>2026-05-02T15:14:49.097Z</time></trkpt><trkpt lat="42.2767867" lon="13.2450617"><ele>1213.0</ele><time>2026-05-02T15:14:50.098Z</time></trkpt><trkpt lat="42.2768633" lon="13.2451067"><ele>1213.0</ele><time>2026-05-02T15:14:51.097Z</time></trkpt><trkpt lat="42.2769683" lon="13.245175"><ele>1213.0</ele><time>2026-05-02T15:14:52.097Z</time></trkpt><trkpt lat="42.277075" lon="13.2452383"><ele>1213.0</ele><time>2026-05-02T15:14:53.098Z</time></trkpt><trkpt lat="42.2771733" lon="13.2452917"><ele>1213.0</ele><time>2026-05-02T15:14:54.098Z</time></trkpt><trkpt lat="42.2772567" lon="13.2453533"><ele>1213.0</ele><time>2026-05-02T15:14:55.098Z</time></trkpt><trkpt lat="42.2773133" lon="13.2454283"><ele>1211.6666666666665</ele><time>2026-05-02T15:14:56.097Z</time></trkpt><trkpt lat="42.2773667" lon="13.2455167"><ele>1210.3333333333333</ele><time>2026-05-02T15:14:57.098Z</time></trkpt><trkpt lat="42.2774133" lon="13.2456033"><ele>1209.0</ele><time>2026-05-02T15:14:58.098Z</time></trkpt><trkpt lat="42.277475" lon="13.2457017"><ele>1207.6666666666667</ele><time>2026-05-02T15:14:59.097Z</time></trkpt><trkpt lat="42.2775267" lon="13.2457767"><ele>1206.3333333333335</ele><time>2026-05-02T15:15:00.097Z</time></trkpt><trkpt lat="42.27759" lon="13.24582"><ele>1205.0</ele><time>2026-05-02T15:15:01.098Z</time></trkpt><trkpt lat="42.277665" lon="13.24585"><ele>1205.0</ele><time>2026-05-02T15:15:02.098Z</time></trkpt><trkpt lat="42.277775" lon="13.245885"><ele>1205.0</ele><time>2026-05-02T15:15:03.098Z</time></trkpt><trkpt lat="42.277915" lon="13.245905"><ele>1205.0</ele><time>2026-05-02T15:15:04.098Z</time></trkpt><trkpt lat="42.2780783" lon="13.2459183"><ele>1205.0</ele><time>2026-05-02T15:15:05.098Z</time></trkpt><trkpt lat="42.278235" lon="13.2459117"><ele>1202.0</ele><time>2026-05-02T15:15:06.097Z</time></trkpt><trkpt lat="42.2783817" lon="13.245895"><ele>1199.0</ele><time>2026-05-02T15:15:07.098Z</time></trkpt><trkpt lat="42.2785267" lon="13.2458533"><ele>1196.0</ele><time>2026-05-02T15:15:08.098Z</time></trkpt><trkpt lat="42.2786683" lon="13.2457983"><ele>1193.0</ele><time>2026-05-02T15:15:09.098Z</time></trkpt><trkpt lat="42.2788083" lon="13.245735"><ele>1192.5</ele><time>2026-05-02T15:15:10.097Z</time></trkpt><trkpt lat="42.27895" lon="13.2456783"><ele>1192.0</ele><time>2026-05-02T15:15:11.098Z</time></trkpt><trkpt lat="42.279095" lon="13.2456317"><ele>1191.5</ele><time>2026-05-02T15:15:12.097Z</time></trkpt><trkpt lat="42.2792367" lon="13.2455867"><ele>1191.0</ele><time>2026-05-02T15:15:13.097Z</time></trkpt><trkpt lat="42.2793917" lon="13.2455467"><ele>1191.3333333333333</ele><time>2026-05-02T15:15:14.098Z</time></trkpt><trkpt lat="42.2795517" lon="13.2454867"><ele>1191.6666666666665</ele><time>2026-05-02T15:15:15.098Z</time></trkpt><trkpt lat="42.279705" lon="13.2454183"><ele>1192.0</ele><time>2026-05-02T15:15:16.097Z</time></trkpt><trkpt lat="42.2798483" lon="13.2453517"><ele>1192.0</ele><time>2026-05-02T15:15:17.097Z</time></trkpt><trkpt lat="42.27998" lon="13.2452683"><ele>1192.0</ele><time>2026-05-02T15:15:18.097Z</time></trkpt><trkpt lat="42.280115" lon="13.2451717"><ele>1192.0</ele><time>2026-05-02T15:15:19.097Z</time></trkpt><trkpt lat="42.28023" lon="13.245065"><ele>1192.0</ele><time>2026-05-02T15:15:20.098Z</time></trkpt><trkpt lat="42.2803333" lon="13.244965"><ele>1192.0</ele><time>2026-05-02T15:15:21.097Z</time></trkpt><trkpt lat="42.2804367" lon="13.2448783"><ele>1192.0</ele><time>2026-05-02T15:15:22.097Z</time></trkpt><trkpt lat="42.2805367" lon="13.2448117"><ele>1192.0</ele><time>2026-05-02T15:15:23.098Z</time></trkpt><trkpt lat="42.2806483" lon="13.244755"><ele>1192.0</ele><time>2026-05-02T15:15:24.098Z</time></trkpt><trkpt lat="42.2807567" lon="13.2446967"><ele>1192.75</ele><time>2026-05-02T15:15:25.097Z</time></trkpt><trkpt lat="42.28088" lon="13.2446517"><ele>1193.5</ele><time>2026-05-02T15:15:26.097Z</time></trkpt><trkpt lat="42.2810133" lon="13.2445883"><ele>1194.25</ele><time>2026-05-02T15:15:27.098Z</time></trkpt><trkpt lat="42.2811333" lon="13.2445417"><ele>1195.0</ele><time>2026-05-02T15:15:28.098Z</time></trkpt><trkpt lat="42.2812417" lon="13.24451"><ele>1195.0</ele><time>2026-05-02T15:15:29.098Z</time></trkpt><trkpt lat="42.2813417" lon="13.2444967"><ele>1195.0</ele><time>2026-05-02T15:15:30.098Z</time></trkpt><trkpt lat="42.2814317" lon="13.244505"><ele>1195.0</ele><time>2026-05-02T15:15:31.097Z</time></trkpt><trkpt lat="42.281515" lon="13.2445217"><ele>1195.0</ele><time>2026-05-02T15:15:32.097Z</time></trkpt><trkpt lat="42.2815933" lon="13.2445433"><ele>1195.0</ele><time>2026-05-02T15:15:33.098Z</time></trkpt><trkpt lat="42.28168" lon="13.2445733"><ele>1195.0</ele><time>2026-05-02T15:15:34.097Z</time></trkpt><trkpt lat="42.281765" lon="13.2446033"><ele>1193.4</ele><time>2026-05-02T15:15:35.097Z</time></trkpt><trkpt lat="42.28185" lon="13.244635"><ele>1191.8</ele><time>2026-05-02T15:15:36.098Z</time></trkpt><trkpt lat="42.2819483" lon="13.2446617"><ele>1190.2</ele><time>2026-05-02T15:15:37.097Z</time></trkpt><trkpt lat="42.2820467" lon="13.2446783"><ele>1188.6</ele><time>2026-05-02T15:15:38.098Z</time></trkpt><trkpt lat="42.282135" lon="13.244675"><ele>1187.0</ele><time>2026-05-02T15:15:39.098Z</time></trkpt><trkpt lat="42.2822117" lon="13.2446417"><ele>1186.0</ele><time>2026-05-02T15:15:40.097Z</time></trkpt><trkpt lat="42.282265" lon="13.2445933"><ele>1185.0</ele><time>2026-05-02T15:15:41.097Z</time></trkpt><trkpt lat="42.2823033" lon="13.244525"><ele>1184.0</ele><time>2026-05-02T15:15:42.097Z</time></trkpt><trkpt lat="42.2823317" lon="13.2444267"><ele>1183.0</ele><time>2026-05-02T15:15:43.098Z</time></trkpt><trkpt lat="42.2823533" lon="13.24431"><ele>1182.0</ele><time>2026-05-02T15:15:44.098Z</time></trkpt><trkpt lat="42.2823983" lon="13.24417"><ele>1181.0</ele><time>2026-05-02T15:15:45.097Z</time></trkpt><trkpt lat="42.2824683" lon="13.2440283"><ele>1182.5</ele><time>2026-05-02T15:15:46.097Z</time></trkpt><trkpt lat="42.2825583" lon="13.2439017"><ele>1184.0</ele><time>2026-05-02T15:15:47.097Z</time></trkpt><trkpt lat="42.2826633" lon="13.2437817"><ele>1185.5</ele><time>2026-05-02T15:15:48.098Z</time></trkpt><trkpt lat="42.2827633" lon="13.2436583"><ele>1187.0</ele><time>2026-05-02T15:15:49.098Z</time></trkpt><trkpt lat="42.2828433" lon="13.2435467"><ele>1187.0</ele><time>2026-05-02T15:15:50.098Z</time></trkpt><trkpt lat="42.2829083" lon="13.24342"><ele>1187.0</ele><time>2026-05-02T15:15:51.097Z</time></trkpt><trkpt lat="42.28296" lon="13.243295"><ele>1187.0</ele><time>2026-05-02T15:15:52.097Z</time></trkpt><trkpt lat="42.2829817" lon="13.24317"><ele>1187.0</ele><time>2026-05-02T15:15:53.097Z</time></trkpt><trkpt lat="42.2829917" lon="13.2430417"><ele>1187.0</ele><time>2026-05-02T15:15:54.098Z</time></trkpt><trkpt lat="42.282985" lon="13.2429067"><ele>1185.75</ele><time>2026-05-02T15:15:55.097Z</time></trkpt><trkpt lat="42.2829567" lon="13.24276"><ele>1184.5</ele><time>2026-05-02T15:15:56.098Z</time></trkpt><trkpt lat="42.2829167" lon="13.2425967"><ele>1183.25</ele><time>2026-05-02T15:15:57.098Z</time></trkpt><trkpt lat="42.2828783" lon="13.2424117"><ele>1182.0</ele><time>2026-05-02T15:15:58.098Z</time></trkpt><trkpt lat="42.28285" lon="13.2422483"><ele>1181.0</ele><time>2026-05-02T15:15:59.097Z</time></trkpt><trkpt lat="42.282835" lon="13.2421133"><ele>1180.0</ele><time>2026-05-02T15:16:00.097Z</time></trkpt><trkpt lat="42.2828233" lon="13.24199"><ele>1179.0</ele><time>2026-05-02T15:16:01.098Z</time></trkpt><trkpt lat="42.2828317" lon="13.2418883"><ele>1178.0</ele><time>2026-05-02T15:16:02.098Z</time></trkpt><trkpt lat="42.282915" lon="13.2417967"><ele>1177.0</ele><time>2026-05-02T15:16:04.097Z</time></trkpt><trkpt lat="42.2829917" lon="13.2417817"><ele>1177.0</ele><time>2026-05-02T15:16:05.097Z</time></trkpt><trkpt lat="42.2830783" lon="13.2417833"><ele>1177.0</ele><time>2026-05-02T15:16:06.096Z</time></trkpt><trkpt lat="42.2831767" lon="13.2418033"><ele>1177.0</ele><time>2026-05-02T15:16:07.096Z</time></trkpt><trkpt lat="42.283285" lon="13.241835"><ele>1177.0</ele><time>2026-05-02T15:16:08.096Z</time></trkpt><trkpt lat="42.2834033" lon="13.2418617"><ele>1177.0</ele><time>2026-05-02T15:16:09.097Z</time></trkpt><trkpt lat="42.283525" lon="13.24188"><ele>1178.6</ele><time>2026-05-02T15:16:10.097Z</time></trkpt><trkpt lat="42.2836367" lon="13.24188"><ele>1180.2</ele><time>2026-05-02T15:16:11.096Z</time></trkpt><trkpt lat="42.2837417" lon="13.241865"><ele>1181.8</ele><time>2026-05-02T15:16:12.096Z</time></trkpt><trkpt lat="42.2838433" lon="13.2418217"><ele>1183.4</ele><time>2026-05-02T15:16:13.097Z</time></trkpt><trkpt lat="42.28392" lon="13.2417717"><ele>1185.0</ele><time>2026-05-02T15:16:14.097Z</time></trkpt><trkpt lat="42.2839917" lon="13.2417033"><ele>1186.0</ele><time>2026-05-02T15:16:15.096Z</time></trkpt><trkpt lat="42.2840717" lon="13.2416383"><ele>1187.0</ele><time>2026-05-02T15:16:16.097Z</time></trkpt><trkpt lat="42.2841667" lon="13.241565"><ele>1188.0</ele><time>2026-05-02T15:16:17.097Z</time></trkpt><trkpt lat="42.28427" lon="13.2414883"><ele>1189.0</ele><time>2026-05-02T15:16:18.096Z</time></trkpt><trkpt lat="42.2843883" lon="13.2413967"><ele>1193.3333333333333</ele><time>2026-05-02T15:16:19.096Z</time></trkpt><trkpt lat="42.2845133" lon="13.24129"><ele>1197.6666666666667</ele><time>2026-05-02T15:16:20.097Z</time></trkpt><trkpt lat="42.2846383" lon="13.24117"><ele>1202.0</ele><time>2026-05-02T15:16:21.096Z</time></trkpt><trkpt lat="42.2847583" lon="13.2410333"><ele>1198.3333333333335</ele><time>2026-05-02T15:16:22.097Z</time></trkpt><trkpt lat="42.284875" lon="13.2408733"><ele>1194.6666666666667</ele><time>2026-05-02T15:16:23.097Z</time></trkpt><trkpt lat="42.284995" lon="13.2407117"><ele>1191.0</ele><time>2026-05-02T15:16:24.096Z</time></trkpt><trkpt lat="42.2851283" lon="13.2405633"><ele>1196.6666666666667</ele><time>2026-05-02T15:16:25.097Z</time></trkpt><trkpt lat="42.2852767" lon="13.2404317"><ele>1202.3333333333335</ele><time>2026-05-02T15:16:26.097Z</time></trkpt><trkpt lat="42.2854367" lon="13.2403167"><ele>1208.0</ele><time>2026-05-02T15:16:27.096Z</time></trkpt><trkpt lat="42.28561" lon="13.2402067"><ele>1208.0</ele><time>2026-05-02T15:16:28.096Z</time></trkpt><trkpt lat="42.2857767" lon="13.2401017"><ele>1208.0</ele><time>2026-05-02T15:16:29.096Z</time></trkpt><trkpt lat="42.2859517" lon="13.2400017"><ele>1208.0</ele><time>2026-05-02T15:16:30.097Z</time></trkpt><trkpt lat="42.2861133" lon="13.2398967"><ele>1208.0</ele><time>2026-05-02T15:16:31.097Z</time></trkpt><trkpt lat="42.2862683" lon="13.23981"><ele>1208.0</ele><time>2026-05-02T15:16:32.097Z</time></trkpt><trkpt lat="42.28641" lon="13.2397433"><ele>1208.0</ele><time>2026-05-02T15:16:33.097Z</time></trkpt><trkpt lat="42.28654" lon="13.239695"><ele>1213.25</ele><time>2026-05-02T15:16:34.096Z</time></trkpt><trkpt lat="42.2866617" lon="13.2396483"><ele>1218.5</ele><time>2026-05-02T15:16:35.096Z</time></trkpt><trkpt lat="42.2867783" lon="13.2396233"><ele>1223.75</ele><time>2026-05-02T15:16:36.096Z</time></trkpt><trkpt lat="42.2868983" lon="13.239645"><ele>1229.0</ele><time>2026-05-02T15:16:37.096Z</time></trkpt><trkpt lat="42.2870267" lon="13.23967"><ele>1229.0</ele><time>2026-05-02T15:16:38.096Z</time></trkpt><trkpt lat="42.2871583" lon="13.2396667"><ele>1229.0</ele><time>2026-05-02T15:16:39.096Z</time></trkpt><trkpt lat="42.2872983" lon="13.2396367"><ele>1229.0</ele><time>2026-05-02T15:16:40.096Z</time></trkpt><trkpt lat="42.2874317" lon="13.2396317"><ele>1229.0</ele><time>2026-05-02T15:16:41.096Z</time></trkpt><trkpt lat="42.2875517" lon="13.2396717"><ele>1227.75</ele><time>2026-05-02T15:16:42.097Z</time></trkpt><trkpt lat="42.2876567" lon="13.2397517"><ele>1226.5</ele><time>2026-05-02T15:16:43.097Z</time></trkpt><trkpt lat="42.2877567" lon="13.23983"><ele>1225.25</ele><time>2026-05-02T15:16:44.097Z</time></trkpt><trkpt lat="42.28786" lon="13.2398583"><ele>1224.0</ele><time>2026-05-02T15:16:45.097Z</time></trkpt><trkpt lat="42.2879717" lon="13.2398467"><ele>1226.0</ele><time>2026-05-02T15:16:46.096Z</time></trkpt><trkpt lat="42.2881" lon="13.239785"><ele>1228.0</ele><time>2026-05-02T15:16:47.096Z</time></trkpt><trkpt lat="42.2882383" lon="13.2396917"><ele>1230.0</ele><time>2026-05-02T15:16:48.097Z</time></trkpt><trkpt lat="42.288395" lon="13.2395983"><ele>1230.0</ele><time>2026-05-02T15:16:49.097Z</time></trkpt><trkpt lat="42.288565" lon="13.2395167"><ele>1230.0</ele><time>2026-05-02T15:16:50.097Z</time></trkpt><trkpt lat="42.288745" lon="13.2394367"><ele>1230.0</ele><time>2026-05-02T15:16:51.097Z</time></trkpt><trkpt lat="42.2889333" lon="13.239375"><ele>1229.3333333333333</ele><time>2026-05-02T15:16:52.096Z</time></trkpt><trkpt lat="42.2891117" lon="13.2393233"><ele>1228.6666666666665</ele><time>2026-05-02T15:16:53.096Z</time></trkpt><trkpt lat="42.28928" lon="13.2392967"><ele>1228.0</ele><time>2026-05-02T15:16:54.096Z</time></trkpt><trkpt lat="42.2894517" lon="13.2393067"><ele>1228.0</ele><time>2026-05-02T15:16:55.096Z</time></trkpt><trkpt lat="42.2896083" lon="13.239315"><ele>1228.0</ele><time>2026-05-02T15:16:56.096Z</time></trkpt><trkpt lat="42.2897617" lon="13.2392867"><ele>1228.0</ele><time>2026-05-02T15:16:57.097Z</time></trkpt><trkpt lat="42.2899183" lon="13.2392217"><ele>1229.0</ele><time>2026-05-02T15:16:58.097Z</time></trkpt><trkpt lat="42.2900683" lon="13.23917"><ele>1230.0</ele><time>2026-05-02T15:16:59.097Z</time></trkpt><trkpt lat="42.290215" lon="13.2391717"><ele>1231.0</ele><time>2026-05-02T15:17:00.097Z</time></trkpt><trkpt lat="42.2903533" lon="13.2392133"><ele>1232.0</ele><time>2026-05-02T15:17:01.097Z</time></trkpt><trkpt lat="42.2904917" lon="13.2392517"><ele>1232.25</ele><time>2026-05-02T15:17:02.096Z</time></trkpt><trkpt lat="42.2906283" lon="13.23927"><ele>1232.5</ele><time>2026-05-02T15:17:03.096Z</time></trkpt><trkpt lat="42.2907717" lon="13.2392433"><ele>1232.75</ele><time>2026-05-02T15:17:04.096Z</time></trkpt><trkpt lat="42.2909183" lon="13.2391767"><ele>1233.0</ele><time>2026-05-02T15:17:05.096Z</time></trkpt><trkpt lat="42.2910683" lon="13.2390883"><ele>1233.0</ele><time>2026-05-02T15:17:06.096Z</time></trkpt><trkpt lat="42.291225" lon="13.239"><ele>1233.0</ele><time>2026-05-02T15:17:07.097Z</time></trkpt><trkpt lat="42.2913983" lon="13.2389433"><ele>1233.0</ele><time>2026-05-02T15:17:08.097Z</time></trkpt><trkpt lat="42.29159" lon="13.2388917"><ele>1243.3333333333333</ele><time>2026-05-02T15:17:09.096Z</time></trkpt><trkpt lat="42.29178" lon="13.2388433"><ele>1253.6666666666665</ele><time>2026-05-02T15:17:10.096Z</time></trkpt><trkpt lat="42.2919817" lon="13.2387817"><ele>1264.0</ele><time>2026-05-02T15:17:11.096Z</time></trkpt><trkpt lat="42.2921833" lon="13.238725"><ele>1262.3333333333333</ele><time>2026-05-02T15:17:12.096Z</time></trkpt><trkpt lat="42.2923883" lon="13.238675"><ele>1260.6666666666667</ele><time>2026-05-02T15:17:13.097Z</time></trkpt><trkpt lat="42.2925933" lon="13.238645"><ele>1259.0</ele><time>2026-05-02T15:17:14.097Z</time></trkpt><trkpt lat="42.2927933" lon="13.2385933"><ele>1259.0</ele><time>2026-05-02T15:17:15.097Z</time></trkpt><trkpt lat="42.2929733" lon="13.238515"><ele>1259.0</ele><time>2026-05-02T15:17:16.097Z</time></trkpt><trkpt lat="42.293155" lon="13.23841"><ele>1259.0</ele><time>2026-05-02T15:17:17.097Z</time></trkpt><trkpt lat="42.293345" lon="13.2382817"><ele>1262.0</ele><time>2026-05-02T15:17:18.097Z</time></trkpt><trkpt lat="42.2935417" lon="13.2381583"><ele>1265.0</ele><time>2026-05-02T15:17:19.097Z</time></trkpt><trkpt lat="42.2937283" lon="13.23804"><ele>1268.0</ele><time>2026-05-02T15:17:20.097Z</time></trkpt><trkpt lat="42.2939283" lon="13.2379283"><ele>1268.0</ele><time>2026-05-02T15:17:21.097Z</time></trkpt><trkpt lat="42.2941233" lon="13.2378083"><ele>1268.0</ele><time>2026-05-02T15:17:22.097Z</time></trkpt><trkpt lat="42.29432" lon="13.237675"><ele>1268.0</ele><time>2026-05-02T15:17:23.096Z</time></trkpt><trkpt lat="42.29451" lon="13.237555"><ele>1268.0</ele><time>2026-05-02T15:17:24.097Z</time></trkpt><trkpt lat="42.2947033" lon="13.2374717"><ele>1268.0</ele><time>2026-05-02T15:17:25.096Z</time></trkpt><trkpt lat="42.2948967" lon="13.23739"><ele>1268.0</ele><time>2026-05-02T15:17:26.097Z</time></trkpt><trkpt lat="42.2951033" lon="13.2373417"><ele>1277.0</ele><time>2026-05-02T15:17:27.097Z</time></trkpt><trkpt lat="42.2953033" lon="13.2373017"><ele>1286.0</ele><time>2026-05-02T15:17:28.097Z</time></trkpt><trkpt lat="42.2955083" lon="13.2372667"><ele>1295.0</ele><time>2026-05-02T15:17:29.097Z</time></trkpt><trkpt lat="42.2957017" lon="13.23723"><ele>1295.0</ele><time>2026-05-02T15:17:30.097Z</time></trkpt><trkpt lat="42.2958817" lon="13.2371917"><ele>1295.0</ele><time>2026-05-02T15:17:31.097Z</time></trkpt><trkpt lat="42.2960617" lon="13.23716"><ele>1295.0</ele><time>2026-05-02T15:17:32.097Z</time></trkpt><trkpt lat="42.296235" lon="13.2371367"><ele>1295.0</ele><time>2026-05-02T15:17:33.097Z</time></trkpt><trkpt lat="42.2964" lon="13.2371217"><ele>1295.0</ele><time>2026-05-02T15:17:34.096Z</time></trkpt><trkpt lat="42.29656" lon="13.237115"><ele>1295.0</ele><time>2026-05-02T15:17:35.096Z</time></trkpt><trkpt lat="42.2967167" lon="13.23711"><ele>1292.3333333333335</ele><time>2026-05-02T15:17:36.097Z</time></trkpt><trkpt lat="42.29687" lon="13.237115"><ele>1289.6666666666667</ele><time>2026-05-02T15:17:37.096Z</time></trkpt><trkpt lat="42.2970383" lon="13.2371483"><ele>1287.0</ele><time>2026-05-02T15:17:38.096Z</time></trkpt><trkpt lat="42.2972217" lon="13.23717"><ele>1289.3333333333333</ele><time>2026-05-02T15:17:39.097Z</time></trkpt><trkpt lat="42.2974083" lon="13.2372"><ele>1291.6666666666665</ele><time>2026-05-02T15:17:40.096Z</time></trkpt><trkpt lat="42.2975883" lon="13.23726"><ele>1294.0</ele><time>2026-05-02T15:17:41.096Z</time></trkpt><trkpt lat="42.2977417" lon="13.237325"><ele>1289.75</ele><time>2026-05-02T15:17:42.096Z</time></trkpt><trkpt lat="42.29788" lon="13.237395"><ele>1285.5</ele><time>2026-05-02T15:17:43.096Z</time></trkpt><trkpt lat="42.298005" lon="13.23745"><ele>1281.25</ele><time>2026-05-02T15:17:44.096Z</time></trkpt><trkpt lat="42.2981133" lon="13.2375033"><ele>1277.0</ele><time>2026-05-02T15:17:45.096Z</time></trkpt><trkpt lat="42.2982" lon="13.2375583"><ele>1277.0</ele><time>2026-05-02T15:17:46.096Z</time></trkpt><trkpt lat="42.29827" lon="13.2376117"><ele>1277.0</ele><time>2026-05-02T15:17:47.097Z</time></trkpt><trkpt lat="42.298335" lon="13.2376733"><ele>1277.0</ele><time>2026-05-02T15:17:48.096Z</time></trkpt><trkpt lat="42.2983983" lon="13.2377517"><ele>1277.0</ele><time>2026-05-02T15:17:49.097Z</time></trkpt><trkpt lat="42.2984817" lon="13.2378267"><ele>1277.0</ele><time>2026-05-02T15:17:50.097Z</time></trkpt><trkpt lat="42.2985767" lon="13.2379033"><ele>1277.0</ele><time>2026-05-02T15:17:51.097Z</time></trkpt><trkpt lat="42.29868" lon="13.23796"><ele>1277.0</ele><time>2026-05-02T15:17:52.097Z</time></trkpt><trkpt lat="42.2988017" lon="13.2379767"><ele>1277.0</ele><time>2026-05-02T15:17:53.096Z</time></trkpt><trkpt lat="42.298925" lon="13.2379567"><ele>1277.0</ele><time>2026-05-02T15:17:54.097Z</time></trkpt><trkpt lat="42.2990633" lon="13.2378967"><ele>1277.75</ele><time>2026-05-02T15:17:55.096Z</time></trkpt><trkpt lat="42.299195" lon="13.2378433"><ele>1278.5</ele><time>2026-05-02T15:17:56.097Z</time></trkpt><trkpt lat="42.29933" lon="13.2378017"><ele>1279.25</ele><time>2026-05-02T15:17:57.096Z</time></trkpt><trkpt lat="42.2994767" lon="13.2377783"><ele>1280.0</ele><time>2026-05-02T15:17:58.096Z</time></trkpt><trkpt lat="42.2996283" lon="13.2378017"><ele>1278.6666666666667</ele><time>2026-05-02T15:17:59.097Z</time></trkpt><trkpt lat="42.2997867" lon="13.2378617"><ele>1277.3333333333333</ele><time>2026-05-02T15:18:00.097Z</time></trkpt><trkpt lat="42.2999433" lon="13.2379133"><ele>1276.0</ele><time>2026-05-02T15:18:01.096Z</time></trkpt><trkpt lat="42.3001033" lon="13.23794"><ele>1276.0</ele><time>2026-05-02T15:18:02.097Z</time></trkpt><trkpt lat="42.3002683" lon="13.2379367"><ele>1276.0</ele><time>2026-05-02T15:18:03.096Z</time></trkpt><trkpt lat="42.3004317" lon="13.237895"><ele>1276.0</ele><time>2026-05-02T15:18:04.097Z</time></trkpt><trkpt lat="42.3005983" lon="13.2378233"><ele>1276.3333333333333</ele><time>2026-05-02T15:18:05.096Z</time></trkpt><trkpt lat="42.3007617" lon="13.237755"><ele>1276.6666666666667</ele><time>2026-05-02T15:18:06.096Z</time></trkpt><trkpt lat="42.300935" lon="13.2377167"><ele>1277.0</ele><time>2026-05-02T15:18:07.097Z</time></trkpt><trkpt lat="42.301115" lon="13.2377133"><ele>1277.0</ele><time>2026-05-02T15:18:08.097Z</time></trkpt><trkpt lat="42.3012967" lon="13.2377283"><ele>1277.0</ele><time>2026-05-02T15:18:09.096Z</time></trkpt><trkpt lat="42.3014817" lon="13.2377317"><ele>1277.0</ele><time>2026-05-02T15:18:10.096Z</time></trkpt><trkpt lat="42.301665" lon="13.2377383"><ele>1275.3333333333335</ele><time>2026-05-02T15:18:11.096Z</time></trkpt><trkpt lat="42.3018517" lon="13.2377283"><ele>1273.6666666666667</ele><time>2026-05-02T15:18:12.097Z</time></trkpt><trkpt lat="42.302035" lon="13.2377167"><ele>1272.0</ele><time>2026-05-02T15:18:13.097Z</time></trkpt><trkpt lat="42.30222" lon="13.2376983"><ele>1272.3333333333333</ele><time>2026-05-02T15:18:14.096Z</time></trkpt><trkpt lat="42.3023983" lon="13.23768"><ele>1272.6666666666665</ele><time>2026-05-02T15:18:15.096Z</time></trkpt><trkpt lat="42.3025733" lon="13.2376733"><ele>1273.0</ele><time>2026-05-02T15:18:16.096Z</time></trkpt><trkpt lat="42.3027433" lon="13.2377133"><ele>1273.0</ele><time>2026-05-02T15:18:17.097Z</time></trkpt><trkpt lat="42.3029167" lon="13.23777"><ele>1273.0</ele><time>2026-05-02T15:18:18.097Z</time></trkpt><trkpt lat="42.3030883" lon="13.2378383"><ele>1273.0</ele><time>2026-05-02T15:18:19.097Z</time></trkpt><trkpt lat="42.3032467" lon="13.2379167"><ele>1273.25</ele><time>2026-05-02T15:18:20.097Z</time></trkpt><trkpt lat="42.3033983" lon="13.2380033"><ele>1273.5</ele><time>2026-05-02T15:18:21.097Z</time></trkpt><trkpt lat="42.3035267" lon="13.2380967"><ele>1273.75</ele><time>2026-05-02T15:18:22.096Z</time></trkpt><trkpt lat="42.3036283" lon="13.2382233"><ele>1274.0</ele><time>2026-05-02T15:18:23.097Z</time></trkpt><trkpt lat="42.3037083" lon="13.23836"><ele>1274.75</ele><time>2026-05-02T15:18:24.096Z</time></trkpt><trkpt lat="42.3037833" lon="13.2384933"><ele>1275.5</ele><time>2026-05-02T15:18:25.097Z</time></trkpt><trkpt lat="42.303885" lon="13.238605"><ele>1276.25</ele><time>2026-05-02T15:18:26.097Z</time></trkpt><trkpt lat="42.304005" lon="13.2387"><ele>1277.0</ele><time>2026-05-02T15:18:27.096Z</time></trkpt><trkpt lat="42.3041183" lon="13.238755"><ele>1277.0</ele><time>2026-05-02T15:18:28.096Z</time></trkpt><trkpt lat="42.30421" lon="13.238785"><ele>1277.0</ele><time>2026-05-02T15:18:29.097Z</time></trkpt><trkpt lat="42.3042817" lon="13.2388033"><ele>1277.0</ele><time>2026-05-02T15:18:30.096Z</time></trkpt><trkpt lat="42.3043817" lon="13.2388233"><ele>1277.0</ele><time>2026-05-02T15:18:32.096Z</time></trkpt><trkpt lat="42.304315" lon="13.23879"><ele>1277.0</ele><time>2026-05-02T15:18:37.097Z</time></trkpt><trkpt lat="42.3042333" lon="13.23878"><ele>1277.0</ele><time>2026-05-02T15:18:38.097Z</time></trkpt><trkpt lat="42.3041267" lon="13.2387533"><ele>1277.0</ele><time>2026-05-02T15:18:39.096Z</time></trkpt><trkpt lat="42.304015" lon="13.2386983"><ele>1277.0</ele><time>2026-05-02T15:18:40.097Z</time></trkpt><trkpt lat="42.3039033" lon="13.2386117"><ele>1277.0</ele><time>2026-05-02T15:18:41.097Z</time></trkpt><trkpt lat="42.303795" lon="13.2384883"><ele>1277.0</ele><time>2026-05-02T15:18:42.097Z</time></trkpt><trkpt lat="42.3037033" lon="13.2383417"><ele>1276.25</ele><time>2026-05-02T15:18:43.097Z</time></trkpt><trkpt lat="42.3036033" lon="13.2381983"><ele>1275.5</ele><time>2026-05-02T15:18:44.097Z</time></trkpt><trkpt lat="42.3034867" lon="13.2380717"><ele>1274.75</ele><time>2026-05-02T15:18:45.097Z</time></trkpt><trkpt lat="42.3033617" lon="13.237975"><ele>1274.0</ele><time>2026-05-02T15:18:46.097Z</time></trkpt><trkpt lat="42.3032167" lon="13.2379033"><ele>1273.75</ele><time>2026-05-02T15:18:47.096Z</time></trkpt><trkpt lat="42.3030683" lon="13.237835"><ele>1273.5</ele><time>2026-05-02T15:18:48.097Z</time></trkpt><trkpt lat="42.302925" lon="13.2377733"><ele>1273.25</ele><time>2026-05-02T15:18:49.096Z</time></trkpt><trkpt lat="42.3027967" lon="13.2377217"><ele>1273.0</ele><time>2026-05-02T15:18:50.097Z</time></trkpt><trkpt lat="42.3026833" lon="13.23768"><ele>1273.0</ele><time>2026-05-02T15:18:51.097Z</time></trkpt><trkpt lat="42.3025833" lon="13.2376467"><ele>1273.0</ele><time>2026-05-02T15:18:52.097Z</time></trkpt><trkpt lat="42.3024917" lon="13.2376367"><ele>1273.0</ele><time>2026-05-02T15:18:53.096Z</time></trkpt><trkpt lat="42.302415" lon="13.2376383"><ele>1273.0</ele><time>2026-05-02T15:18:54.097Z</time></trkpt><trkpt lat="42.30235" lon="13.2376417"><ele>1273.0</ele><time>2026-05-02T15:18:55.096Z</time></trkpt><trkpt lat="42.30225" lon="13.2376633"><ele>1273.0</ele><time>2026-05-02T15:18:57.096Z</time></trkpt><trkpt lat="42.3022033" lon="13.2377233"><ele>1273.0</ele><time>2026-05-02T15:18:59.097Z</time></trkpt><trkpt lat="42.3022433" lon="13.23779"><ele>1273.0</ele><time>2026-05-02T15:19:02.096Z</time></trkpt><trkpt lat="42.3023467" lon="13.2378583"><ele>1273.0</ele><time>2026-05-02T15:19:08.096Z</time></trkpt><trkpt lat="42.3024" lon="13.23791"><ele>1273.0</ele><time>2026-05-02T15:19:09.096Z</time></trkpt><trkpt lat="42.3024417" lon="13.23798"><ele>1273.0</ele><time>2026-05-02T15:19:10.097Z</time></trkpt><trkpt lat="42.3024717" lon="13.23806"><ele>1273.0</ele><time>2026-05-02T15:19:11.097Z</time></trkpt><trkpt lat="42.3024983" lon="13.2381467"><ele>1273.0</ele><time>2026-05-02T15:19:12.096Z</time></trkpt><trkpt lat="42.3025183" lon="13.2382317"><ele>1272.0</ele><time>2026-05-02T15:19:13.097Z</time></trkpt><trkpt lat="42.3025517" lon="13.23831"><ele>1271.0</ele><time>2026-05-02T15:19:14.097Z</time></trkpt><trkpt lat="42.3025933" lon="13.2383883"><ele>1270.0</ele><time>2026-05-02T15:19:15.096Z</time></trkpt><trkpt lat="42.3026467" lon="13.238455"><ele>1269.0</ele><time>2026-05-02T15:19:16.096Z</time></trkpt><trkpt lat="42.3027183" lon="13.2385283"><ele>1268.0</ele><time>2026-05-02T15:19:17.097Z</time></trkpt><trkpt lat="42.302805" lon="13.238605"><ele>1267.0</ele><time>2026-05-02T15:19:18.096Z</time></trkpt><trkpt lat="42.3029083" lon="13.238675"><ele>1267.0</ele><time>2026-05-02T15:19:19.097Z</time></trkpt><trkpt lat="42.3030133" lon="13.2387283"><ele>1267.0</ele><time>2026-05-02T15:19:20.096Z</time></trkpt><trkpt lat="42.3031117" lon="13.2387917"><ele>1267.0</ele><time>2026-05-02T15:19:21.096Z</time></trkpt><trkpt lat="42.3032033" lon="13.2388533"><ele>1267.0</ele><time>2026-05-02T15:19:22.097Z</time></trkpt><trkpt lat="42.3032817" lon="13.2389367"><ele>1267.0</ele><time>2026-05-02T15:19:23.096Z</time></trkpt><trkpt lat="42.3033717" lon="13.2390267"><ele>1269.0</ele><time>2026-05-02T15:19:24.096Z</time></trkpt><trkpt lat="42.3034617" lon="13.2391217"><ele>1271.0</ele><time>2026-05-02T15:19:25.096Z</time></trkpt><trkpt lat="42.3035417" lon="13.2392217"><ele>1273.0</ele><time>2026-05-02T15:19:26.096Z</time></trkpt><trkpt lat="42.303625" lon="13.2393"><ele>1275.0</ele><time>2026-05-02T15:19:27.097Z</time></trkpt><trkpt lat="42.3037167" lon="13.239385"><ele>1277.0</ele><time>2026-05-02T15:19:28.096Z</time></trkpt><trkpt lat="42.3038" lon="13.2394683"><ele>1277.0</ele><time>2026-05-02T15:19:29.096Z</time></trkpt><trkpt lat="42.3038667" lon="13.2395583"><ele>1277.0</ele><time>2026-05-02T15:19:30.097Z</time></trkpt><trkpt lat="42.3039067" lon="13.2396517"><ele>1277.0</ele><time>2026-05-02T15:19:31.097Z</time></trkpt><trkpt lat="42.3039317" lon="13.2397683"><ele>1277.0</ele><time>2026-05-02T15:19:32.096Z</time></trkpt><trkpt lat="42.30394" lon="13.239915"><ele>1277.0</ele><time>2026-05-02T15:19:33.096Z</time></trkpt><trkpt lat="42.30396" lon="13.240075"><ele>1277.25</ele><time>2026-05-02T15:19:34.096Z</time></trkpt><trkpt lat="42.303985" lon="13.24025"><ele>1277.5</ele><time>2026-05-02T15:19:35.097Z</time></trkpt><trkpt lat="42.3040233" lon="13.240425"><ele>1277.75</ele><time>2026-05-02T15:19:36.096Z</time></trkpt><trkpt lat="42.3040617" lon="13.240605"><ele>1278.0</ele><time>2026-05-02T15:19:37.096Z</time></trkpt><trkpt lat="42.304085" lon="13.2407933"><ele>1278.0</ele><time>2026-05-02T15:19:38.096Z</time></trkpt><trkpt lat="42.3040967" lon="13.240965"><ele>1278.0</ele><time>2026-05-02T15:19:39.097Z</time></trkpt><trkpt lat="42.3041033" lon="13.241115"><ele>1278.0</ele><time>2026-05-02T15:19:40.097Z</time></trkpt><trkpt lat="42.3041" lon="13.2412433"><ele>1278.0</ele><time>2026-05-02T15:19:41.096Z</time></trkpt><trkpt lat="42.3040767" lon="13.2413683"><ele>1278.0</ele><time>2026-05-02T15:19:42.097Z</time></trkpt><trkpt lat="42.3040383" lon="13.2414883"><ele>1278.4</ele><time>2026-05-02T15:19:43.096Z</time></trkpt><trkpt lat="42.30401" lon="13.2415983"><ele>1278.8</ele><time>2026-05-02T15:19:44.097Z</time></trkpt><trkpt lat="42.3039733" lon="13.2417133"><ele>1279.2</ele><time>2026-05-02T15:19:45.097Z</time></trkpt><trkpt lat="42.3039367" lon="13.241825"><ele>1279.6</ele><time>2026-05-02T15:19:46.096Z</time></trkpt><trkpt lat="42.3038833" lon="13.24195"><ele>1280.0</ele><time>2026-05-02T15:19:47.096Z</time></trkpt><trkpt lat="42.303815" lon="13.2420833"><ele>1284.5</ele><time>2026-05-02T15:19:48.096Z</time></trkpt><trkpt lat="42.3037517" lon="13.2422183"><ele>1289.0</ele><time>2026-05-02T15:19:49.097Z</time></trkpt><trkpt lat="42.3036883" lon="13.2423767"><ele>1293.5</ele><time>2026-05-02T15:19:50.097Z</time></trkpt><trkpt lat="42.3036467" lon="13.2425383"><ele>1298.0</ele><time>2026-05-02T15:19:51.096Z</time></trkpt><trkpt lat="42.3036117" lon="13.2427033"><ele>1298.0</ele><time>2026-05-02T15:19:52.097Z</time></trkpt><trkpt lat="42.30359" lon="13.2428633"><ele>1298.0</ele><time>2026-05-02T15:19:53.096Z</time></trkpt><trkpt lat="42.3035767" lon="13.2430117"><ele>1298.0</ele><time>2026-05-02T15:19:54.097Z</time></trkpt><trkpt lat="42.3035783" lon="13.243145"><ele>1298.0</ele><time>2026-05-02T15:19:55.096Z</time></trkpt><trkpt lat="42.30357" lon="13.2432817"><ele>1298.0</ele><time>2026-05-02T15:19:56.096Z</time></trkpt><trkpt lat="42.3035617" lon="13.2434367"><ele>1298.0</ele><time>2026-05-02T15:19:57.097Z</time></trkpt><trkpt lat="42.30357" lon="13.243575"><ele>1298.0</ele><time>2026-05-02T15:19:58.097Z</time></trkpt><trkpt lat="42.3035767" lon="13.2436917"><ele>1298.0</ele><time>2026-05-02T15:19:59.096Z</time></trkpt><trkpt lat="42.3035933" lon="13.2438067"><ele>1298.0</ele><time>2026-05-02T15:20:00.097Z</time></trkpt><trkpt lat="42.303605" lon="13.24393"><ele>1298.0</ele><time>2026-05-02T15:20:01.097Z</time></trkpt><trkpt lat="42.3036083" lon="13.2440717"><ele>1299.5</ele><time>2026-05-02T15:20:02.096Z</time></trkpt><trkpt lat="42.3036" lon="13.2442133"><ele>1301.0</ele><time>2026-05-02T15:20:03.097Z</time></trkpt><trkpt lat="42.3035733" lon="13.244365"><ele>1302.5</ele><time>2026-05-02T15:20:04.097Z</time></trkpt><trkpt lat="42.3035333" lon="13.2445133"><ele>1304.0</ele><time>2026-05-02T15:20:05.097Z</time></trkpt><trkpt lat="42.3034783" lon="13.24465"><ele>1304.0</ele><time>2026-05-02T15:20:06.096Z</time></trkpt><trkpt lat="42.3034167" lon="13.24479"><ele>1304.0</ele><time>2026-05-02T15:20:07.096Z</time></trkpt><trkpt lat="42.303355" lon="13.2449317"><ele>1304.0</ele><time>2026-05-02T15:20:08.097Z</time></trkpt><trkpt lat="42.303295" lon="13.2450683"><ele>1304.0</ele><time>2026-05-02T15:20:09.096Z</time></trkpt><trkpt lat="42.3032367" lon="13.2451917"><ele>1305.0</ele><time>2026-05-02T15:20:10.097Z</time></trkpt><trkpt lat="42.3031933" lon="13.2453083"><ele>1306.0</ele><time>2026-05-02T15:20:11.097Z</time></trkpt><trkpt lat="42.303175" lon="13.2454333"><ele>1307.0</ele><time>2026-05-02T15:20:12.096Z</time></trkpt><trkpt lat="42.30316" lon="13.2455483"><ele>1308.0</ele><time>2026-05-02T15:20:13.096Z</time></trkpt><trkpt lat="42.3031417" lon="13.2456683"><ele>1309.0</ele><time>2026-05-02T15:20:14.097Z</time></trkpt><trkpt lat="42.30311" lon="13.2457833"><ele>1310.1666666666665</ele><time>2026-05-02T15:20:15.096Z</time></trkpt><trkpt lat="42.303065" lon="13.2458833"><ele>1311.3333333333333</ele><time>2026-05-02T15:20:16.097Z</time></trkpt><trkpt lat="42.30302" lon="13.2459817"><ele>1312.5</ele><time>2026-05-02T15:20:17.097Z</time></trkpt><trkpt lat="42.3029867" lon="13.2460717"><ele>1313.6666666666667</ele><time>2026-05-02T15:20:18.097Z</time></trkpt><trkpt lat="42.30297" lon="13.24616"><ele>1314.8333333333335</ele><time>2026-05-02T15:20:19.096Z</time></trkpt><trkpt lat="42.3029483" lon="13.246245"><ele>1316.0</ele><time>2026-05-02T15:20:20.096Z</time></trkpt><trkpt lat="42.302885" lon="13.246385"><ele>1316.0</ele><time>2026-05-02T15:20:22.097Z</time></trkpt><trkpt lat="42.3028433" lon="13.2464583"><ele>1316.0</ele><time>2026-05-02T15:20:23.096Z</time></trkpt><trkpt lat="42.3027933" lon="13.2465483"><ele>1316.0</ele><time>2026-05-02T15:20:24.097Z</time></trkpt><trkpt lat="42.3027467" lon="13.2466633"><ele>1316.0</ele><time>2026-05-02T15:20:25.097Z</time></trkpt><trkpt lat="42.3027" lon="13.2467817"><ele>1316.0</ele><time>2026-05-02T15:20:26.096Z</time></trkpt><trkpt lat="42.3026483" lon="13.2469083"><ele>1317.8</ele><time>2026-05-02T15:20:27.096Z</time></trkpt><trkpt lat="42.3025867" lon="13.24703"><ele>1319.6</ele><time>2026-05-02T15:20:28.097Z</time></trkpt><trkpt lat="42.3025183" lon="13.2471367"><ele>1321.4</ele><time>2026-05-02T15:20:29.096Z</time></trkpt><trkpt lat="42.3024611" lon="13.2472351"><ele>1323.2</ele><time>2026-05-02T15:20:30.096Z</time></trkpt><trkpt lat="42.302406" lon="13.2473298"><ele>1325.0</ele><time>2026-05-02T15:20:31.097Z</time></trkpt><trkpt lat="42.3023527" lon="13.2474345"><ele>1328.2</ele><time>2026-05-02T15:20:32.096Z</time></trkpt><trkpt lat="42.3022969" lon="13.2475425"><ele>1331.4</ele><time>2026-05-02T15:20:33.097Z</time></trkpt><trkpt lat="42.3022305" lon="13.2476503"><ele>1334.6</ele><time>2026-05-02T15:20:34.096Z</time></trkpt><trkpt lat="42.3021518" lon="13.2477559"><ele>1337.8</ele><time>2026-05-02T15:20:35.096Z</time></trkpt><trkpt lat="42.302076" lon="13.2478778"><ele>1341.0</ele><time>2026-05-02T15:20:36.097Z</time></trkpt><trkpt lat="42.3019961" lon="13.2480107"><ele>1343.0</ele><time>2026-05-02T15:20:37.097Z</time></trkpt><trkpt lat="42.3019246" lon="13.2481267"><ele>1345.0</ele><time>2026-05-02T15:20:38.096Z</time></trkpt><trkpt lat="42.3018586" lon="13.2482294"><ele>1347.0</ele><time>2026-05-02T15:20:39.096Z</time></trkpt><trkpt lat="42.301803" lon="13.2483219"><ele>1349.0</ele><time>2026-05-02T15:20:40.097Z</time></trkpt><trkpt lat="42.3017533" lon="13.2484055"><ele>1351.0</ele><time>2026-05-02T15:20:41.097Z</time></trkpt><trkpt lat="42.3017097" lon="13.2484841"><ele>1351.0</ele><time>2026-05-02T15:20:42.096Z</time></trkpt><trkpt lat="42.3016603" lon="13.2485828"><ele>1351.0</ele><time>2026-05-02T15:20:44.096Z</time></trkpt><trkpt lat="42.3016238" lon="13.248658"><ele>1351.0</ele><time>2026-05-02T15:20:46.096Z</time></trkpt><trkpt lat="42.3015812" lon="13.2487687"><ele>1351.0</ele><time>2026-05-02T15:20:48.096Z</time></trkpt><trkpt lat="42.3015625" lon="13.2488674"><ele>1351.0</ele><time>2026-05-02T15:20:49.097Z</time></trkpt><trkpt lat="42.3015472" lon="13.2489983"><ele>1351.0</ele><time>2026-05-02T15:20:50.097Z</time></trkpt><trkpt lat="42.3015221" lon="13.2491485"><ele>1352.75</ele><time>2026-05-02T15:20:51.096Z</time></trkpt><trkpt lat="42.301488" lon="13.2493084"><ele>1354.5</ele><time>2026-05-02T15:20:52.097Z</time></trkpt><trkpt lat="42.3014513" lon="13.2494853"><ele>1356.25</ele><time>2026-05-02T15:20:53.096Z</time></trkpt><trkpt lat="42.3014285" lon="13.2496809"><ele>1358.0</ele><time>2026-05-02T15:20:54.096Z</time></trkpt><trkpt lat="42.3014236" lon="13.2498844"><ele>1358.0</ele><time>2026-05-02T15:20:55.096Z</time></trkpt><trkpt lat="42.3014357" lon="13.2500872"><ele>1358.0</ele><time>2026-05-02T15:20:56.097Z</time></trkpt><trkpt lat="42.3014611" lon="13.2502682"><ele>1358.0</ele><time>2026-05-02T15:20:57.097Z</time></trkpt><trkpt lat="42.301498" lon="13.2504421"><ele>1358.0</ele><time>2026-05-02T15:20:58.097Z</time></trkpt><trkpt lat="42.3015595" lon="13.2506123"><ele>1354.25</ele><time>2026-05-02T15:20:59.097Z</time></trkpt><trkpt lat="42.3016345" lon="13.2507871"><ele>1350.5</ele><time>2026-05-02T15:21:00.096Z</time></trkpt><trkpt lat="42.3017125" lon="13.2509628"><ele>1346.75</ele><time>2026-05-02T15:21:01.097Z</time></trkpt><trkpt lat="42.3017819" lon="13.2511286"><ele>1343.0</ele><time>2026-05-02T15:21:02.096Z</time></trkpt><trkpt lat="42.3018551" lon="13.25128"><ele>1343.0</ele><time>2026-05-02T15:21:03.096Z</time></trkpt><trkpt lat="42.3019344" lon="13.25142"><ele>1343.0</ele><time>2026-05-02T15:21:04.096Z</time></trkpt><trkpt lat="42.3020314" lon="13.2515522"><ele>1343.0</ele><time>2026-05-02T15:21:05.097Z</time></trkpt><trkpt lat="42.3021544" lon="13.2516792"><ele>1343.0</ele><time>2026-05-02T15:21:06.097Z</time></trkpt><trkpt lat="42.3022905" lon="13.2517864"><ele>1343.3333333333335</ele><time>2026-05-02T15:21:07.097Z</time></trkpt><trkpt lat="42.3024362" lon="13.2518622"><ele>1343.6666666666667</ele><time>2026-05-02T15:21:08.097Z</time></trkpt><trkpt lat="42.3025793" lon="13.2518918"><ele>1344.0</ele><time>2026-05-02T15:21:09.096Z</time></trkpt><trkpt lat="42.30273" lon="13.2518567"><ele>1344.0</ele><time>2026-05-02T15:21:10.097Z</time></trkpt><trkpt lat="42.3028917" lon="13.2518367"><ele>1344.0</ele><time>2026-05-02T15:21:11.096Z</time></trkpt><trkpt lat="42.3030667" lon="13.2518267"><ele>1344.0</ele><time>2026-05-02T15:21:12.097Z</time></trkpt><trkpt lat="42.303235" lon="13.25183"><ele>1345.5</ele><time>2026-05-02T15:21:13.097Z</time></trkpt><trkpt lat="42.3033917" lon="13.2518383"><ele>1347.0</ele><time>2026-05-02T15:21:14.096Z</time></trkpt><trkpt lat="42.303535" lon="13.25185"><ele>1348.5</ele><time>2026-05-02T15:21:15.096Z</time></trkpt><trkpt lat="42.303665" lon="13.251895"><ele>1350.0</ele><time>2026-05-02T15:21:16.096Z</time></trkpt><trkpt lat="42.3037883" lon="13.25196"><ele>1350.0</ele><time>2026-05-02T15:21:17.097Z</time></trkpt><trkpt lat="42.30391" lon="13.25205"><ele>1350.0</ele><time>2026-05-02T15:21:18.097Z</time></trkpt><trkpt lat="42.3040133" lon="13.2521733"><ele>1350.0</ele><time>2026-05-02T15:21:19.097Z</time></trkpt><trkpt lat="42.3040867" lon="13.2523333"><ele>1350.0</ele><time>2026-05-02T15:21:20.097Z</time></trkpt><trkpt lat="42.3041517" lon="13.2525283"><ele>1346.3333333333333</ele><time>2026-05-02T15:21:21.097Z</time></trkpt><trkpt lat="42.30421" lon="13.2527383"><ele>1342.6666666666665</ele><time>2026-05-02T15:21:22.097Z</time></trkpt><trkpt lat="42.30427" lon="13.252955"><ele>1339.0</ele><time>2026-05-02T15:21:23.097Z</time></trkpt><trkpt lat="42.304335" lon="13.2531867"><ele>1331.0</ele><time>2026-05-02T15:21:24.097Z</time></trkpt><trkpt lat="42.3043983" lon="13.2534117"><ele>1323.0</ele><time>2026-05-02T15:21:25.096Z</time></trkpt><trkpt lat="42.304465" lon="13.2536267"><ele>1315.0</ele><time>2026-05-02T15:21:26.096Z</time></trkpt><trkpt lat="42.304535" lon="13.2538433"><ele>1320.3333333333333</ele><time>2026-05-02T15:21:27.097Z</time></trkpt><trkpt lat="42.3046217" lon="13.2540567"><ele>1325.6666666666667</ele><time>2026-05-02T15:21:28.097Z</time></trkpt><trkpt lat="42.3046983" lon="13.2542483"><ele>1331.0</ele><time>2026-05-02T15:21:29.097Z</time></trkpt><trkpt lat="42.30476" lon="13.2544183"><ele>1331.0</ele><time>2026-05-02T15:21:30.097Z</time></trkpt><trkpt lat="42.304825" lon="13.2545333"><ele>1331.0</ele><time>2026-05-02T15:21:31.097Z</time></trkpt><trkpt lat="42.3048933" lon="13.2546"><ele>1331.0</ele><time>2026-05-02T15:21:32.097Z</time></trkpt><trkpt lat="42.304965" lon="13.2546233"><ele>1331.0</ele><time>2026-05-02T15:21:33.097Z</time></trkpt><trkpt lat="42.3050533" lon="13.2546167"><ele>1331.0</ele><time>2026-05-02T15:21:34.096Z</time></trkpt><trkpt lat="42.30516" lon="13.2545833"><ele>1331.0</ele><time>2026-05-02T15:21:35.096Z</time></trkpt><trkpt lat="42.3052833" lon="13.254535"><ele>1331.0</ele><time>2026-05-02T15:21:36.096Z</time></trkpt><trkpt lat="42.3054267" lon="13.254465"><ele>1331.0</ele><time>2026-05-02T15:21:37.097Z</time></trkpt><trkpt lat="42.3055817" lon="13.2543783"><ele>1331.0</ele><time>2026-05-02T15:21:38.096Z</time></trkpt><trkpt lat="42.3057367" lon="13.2542667"><ele>1328.3333333333335</ele><time>2026-05-02T15:21:39.097Z</time></trkpt><trkpt lat="42.3058967" lon="13.254175"><ele>1325.6666666666667</ele><time>2026-05-02T15:21:40.097Z</time></trkpt><trkpt lat="42.3060583" lon="13.2541067"><ele>1323.0</ele><time>2026-05-02T15:21:41.097Z</time></trkpt><trkpt lat="42.3062333" lon="13.254035"><ele>1318.0</ele><time>2026-05-02T15:21:42.096Z</time></trkpt><trkpt lat="42.3064183" lon="13.2539767"><ele>1313.0</ele><time>2026-05-02T15:21:43.097Z</time></trkpt><trkpt lat="42.306615" lon="13.2539083"><ele>1308.0</ele><time>2026-05-02T15:21:44.096Z</time></trkpt><trkpt lat="42.3068117" lon="13.25385"><ele>1317.3333333333333</ele><time>2026-05-02T15:21:45.097Z</time></trkpt><trkpt lat="42.30701" lon="13.2537967"><ele>1326.6666666666665</ele><time>2026-05-02T15:21:46.097Z</time></trkpt><trkpt lat="42.3071867" lon="13.2537433"><ele>1336.0</ele><time>2026-05-02T15:21:47.096Z</time></trkpt><trkpt lat="42.3073633" lon="13.2537033"><ele>1336.0</ele><time>2026-05-02T15:21:48.096Z</time></trkpt><trkpt lat="42.3075417" lon="13.2536783"><ele>1336.0</ele><time>2026-05-02T15:21:49.096Z</time></trkpt><trkpt lat="42.30774" lon="13.253695"><ele>1336.0</ele><time>2026-05-02T15:21:50.096Z</time></trkpt><trkpt lat="42.3079483" lon="13.2537333"><ele>1332.6666666666665</ele><time>2026-05-02T15:21:51.097Z</time></trkpt><trkpt lat="42.3081633" lon="13.2537667"><ele>1329.3333333333333</ele><time>2026-05-02T15:21:52.097Z</time></trkpt><trkpt lat="42.3083867" lon="13.2538167"><ele>1326.0</ele><time>2026-05-02T15:21:53.096Z</time></trkpt><trkpt lat="42.3086017" lon="13.2538717"><ele>1326.0</ele><time>2026-05-02T15:21:54.096Z</time></trkpt><trkpt lat="42.3087967" lon="13.2539417"><ele>1326.0</ele><time>2026-05-02T15:21:55.097Z</time></trkpt><trkpt lat="42.3089667" lon="13.2540117"><ele>1326.0</ele><time>2026-05-02T15:21:56.096Z</time></trkpt><trkpt lat="42.3091233" lon="13.25405"><ele>1325.25</ele><time>2026-05-02T15:21:57.096Z</time></trkpt><trkpt lat="42.3092583" lon="13.2540683"><ele>1324.5</ele><time>2026-05-02T15:21:58.096Z</time></trkpt><trkpt lat="42.3093833" lon="13.25403"><ele>1323.75</ele><time>2026-05-02T15:21:59.097Z</time></trkpt><trkpt lat="42.3095133" lon="13.2539467"><ele>1323.0</ele><time>2026-05-02T15:22:00.096Z</time></trkpt><trkpt lat="42.309655" lon="13.253835"><ele>1317.6666666666667</ele><time>2026-05-02T15:22:01.097Z</time></trkpt><trkpt lat="42.309805" lon="13.2537117"><ele>1312.3333333333335</ele><time>2026-05-02T15:22:02.096Z</time></trkpt><trkpt lat="42.3099733" lon="13.2535783"><ele>1307.0</ele><time>2026-05-02T15:22:03.097Z</time></trkpt><trkpt lat="42.31015" lon="13.2534367"><ele>1307.0</ele><time>2026-05-02T15:22:04.096Z</time></trkpt><trkpt lat="42.31033" lon="13.2532983"><ele>1307.0</ele><time>2026-05-02T15:22:05.097Z</time></trkpt><trkpt lat="42.3105017" lon="13.25317"><ele>1307.0</ele><time>2026-05-02T15:22:06.096Z</time></trkpt><trkpt lat="42.31066" lon="13.2530617"><ele>1309.6666666666667</ele><time>2026-05-02T15:22:07.096Z</time></trkpt><trkpt lat="42.3108167" lon="13.2529817"><ele>1312.3333333333333</ele><time>2026-05-02T15:22:08.096Z</time></trkpt><trkpt lat="42.31099" lon="13.2529333"><ele>1315.0</ele><time>2026-05-02T15:22:09.097Z</time></trkpt><trkpt lat="42.3111733" lon="13.2529017"><ele>1315.0</ele><time>2026-05-02T15:22:10.097Z</time></trkpt><trkpt lat="42.3113683" lon="13.2528767"><ele>1315.0</ele><time>2026-05-02T15:22:11.097Z</time></trkpt><trkpt lat="42.3115517" lon="13.2528433"><ele>1315.0</ele><time>2026-05-02T15:22:12.096Z</time></trkpt><trkpt lat="42.3117183" lon="13.25282"><ele>1312.5</ele><time>2026-05-02T15:22:13.096Z</time></trkpt><trkpt lat="42.311875" lon="13.2528283"><ele>1310.0</ele><time>2026-05-02T15:22:14.097Z</time></trkpt><trkpt lat="42.312025" lon="13.252855"><ele>1307.5</ele><time>2026-05-02T15:22:15.096Z</time></trkpt><trkpt lat="42.312155" lon="13.2528933"><ele>1305.0</ele><time>2026-05-02T15:22:16.097Z</time></trkpt><trkpt lat="42.312265" lon="13.2529017"><ele>1301.25</ele><time>2026-05-02T15:22:17.097Z</time></trkpt><trkpt lat="42.3123767" lon="13.252865"><ele>1297.5</ele><time>2026-05-02T15:22:18.097Z</time></trkpt><trkpt lat="42.3124867" lon="13.2527683"><ele>1293.75</ele><time>2026-05-02T15:22:19.097Z</time></trkpt><trkpt lat="42.3125983" lon="13.2526617"><ele>1290.0</ele><time>2026-05-02T15:22:20.096Z</time></trkpt><trkpt lat="42.3127117" lon="13.252575"><ele>1290.0</ele><time>2026-05-02T15:22:21.097Z</time></trkpt><trkpt lat="42.3128067" lon="13.2524733"><ele>1290.0</ele><time>2026-05-02T15:22:22.096Z</time></trkpt><trkpt lat="42.3128817" lon="13.2523533"><ele>1290.0</ele><time>2026-05-02T15:22:23.097Z</time></trkpt><trkpt lat="42.312935" lon="13.2521867"><ele>1290.0</ele><time>2026-05-02T15:22:24.097Z</time></trkpt><trkpt lat="42.3130033" lon="13.2520267"><ele>1288.5</ele><time>2026-05-02T15:22:25.096Z</time></trkpt><trkpt lat="42.3131017" lon="13.2519117"><ele>1287.0</ele><time>2026-05-02T15:22:26.096Z</time></trkpt><trkpt lat="42.3132133" lon="13.25183"><ele>1285.5</ele><time>2026-05-02T15:22:27.097Z</time></trkpt><trkpt lat="42.3133217" lon="13.2517967"><ele>1284.0</ele><time>2026-05-02T15:22:28.096Z</time></trkpt><trkpt lat="42.31343" lon="13.2517333"><ele>1284.0</ele><time>2026-05-02T15:22:29.096Z</time></trkpt><trkpt lat="42.3135267" lon="13.25162"><ele>1284.0</ele><time>2026-05-02T15:22:30.096Z</time></trkpt><trkpt lat="42.3136217" lon="13.2514883"><ele>1284.0</ele><time>2026-05-02T15:22:31.097Z</time></trkpt><trkpt lat="42.31372" lon="13.251395"><ele>1284.0</ele><time>2026-05-02T15:22:32.096Z</time></trkpt><trkpt lat="42.3138267" lon="13.2513333"><ele>1287.0</ele><time>2026-05-02T15:22:33.097Z</time></trkpt><trkpt lat="42.3139567" lon="13.2512883"><ele>1290.0</ele><time>2026-05-02T15:22:34.097Z</time></trkpt><trkpt lat="42.3140933" lon="13.2512333"><ele>1293.0</ele><time>2026-05-02T15:22:35.096Z</time></trkpt><trkpt lat="42.3142283" lon="13.2511667"><ele>1296.0</ele><time>2026-05-02T15:22:36.097Z</time></trkpt><trkpt lat="42.31435" lon="13.25113"><ele>1296.0</ele><time>2026-05-02T15:22:37.096Z</time></trkpt><trkpt lat="42.3144583" lon="13.2511167"><ele>1296.0</ele><time>2026-05-02T15:22:38.097Z</time></trkpt><trkpt lat="42.3145717" lon="13.251155"><ele>1296.0</ele><time>2026-05-02T15:22:39.097Z</time></trkpt><trkpt lat="42.31468" lon="13.251245"><ele>1296.0</ele><time>2026-05-02T15:22:40.097Z</time></trkpt><trkpt lat="42.3147983" lon="13.2513717"><ele>1288.3333333333333</ele><time>2026-05-02T15:22:41.097Z</time></trkpt><trkpt lat="42.3149217" lon="13.25151"><ele>1280.6666666666665</ele><time>2026-05-02T15:22:42.096Z</time></trkpt><trkpt lat="42.3150483" lon="13.251655"><ele>1273.0</ele><time>2026-05-02T15:22:43.096Z</time></trkpt><trkpt lat="42.3151667" lon="13.2518"><ele>1273.0</ele><time>2026-05-02T15:22:44.097Z</time></trkpt><trkpt lat="42.315265" lon="13.2519417"><ele>1273.0</ele><time>2026-05-02T15:22:45.097Z</time></trkpt><trkpt lat="42.3153433" lon="13.25206"><ele>1273.0</ele><time>2026-05-02T15:22:46.097Z</time></trkpt><trkpt lat="42.3154367" lon="13.2521517"><ele>1273.0</ele><time>2026-05-02T15:22:47.096Z</time></trkpt><trkpt lat="42.3155467" lon="13.2522"><ele>1278.5</ele><time>2026-05-02T15:22:48.097Z</time></trkpt><trkpt lat="42.3156683" lon="13.2522233"><ele>1284.0</ele><time>2026-05-02T15:22:49.097Z</time></trkpt><trkpt lat="42.3158033" lon="13.2522183"><ele>1289.5</ele><time>2026-05-02T15:22:50.096Z</time></trkpt><trkpt lat="42.3159517" lon="13.2521867"><ele>1295.0</ele><time>2026-05-02T15:22:51.097Z</time></trkpt><trkpt lat="42.316105" lon="13.2521383"><ele>1295.0</ele><time>2026-05-02T15:22:52.096Z</time></trkpt><trkpt lat="42.316245" lon="13.2520867"><ele>1295.0</ele><time>2026-05-02T15:22:53.096Z</time></trkpt><trkpt lat="42.3163683" lon="13.25205"><ele>1295.0</ele><time>2026-05-02T15:22:54.096Z</time></trkpt><trkpt lat="42.3164617" lon="13.2520333"><ele>1295.0</ele><time>2026-05-02T15:22:55.097Z</time></trkpt><trkpt lat="42.316545" lon="13.2520633"><ele>1294.2</ele><time>2026-05-02T15:22:56.096Z</time></trkpt><trkpt lat="42.3166067" lon="13.25213"><ele>1293.4</ele><time>2026-05-02T15:22:57.096Z</time></trkpt><trkpt lat="42.3166517" lon="13.252225"><ele>1292.6</ele><time>2026-05-02T15:22:58.097Z</time></trkpt><trkpt lat="42.3166617" lon="13.2523417"><ele>1291.8</ele><time>2026-05-02T15:22:59.096Z</time></trkpt><trkpt lat="42.3166483" lon="13.252475"><ele>1291.0</ele><time>2026-05-02T15:23:00.096Z</time></trkpt><trkpt lat="42.3166033" lon="13.2526033"><ele>1288.1666666666665</ele><time>2026-05-02T15:23:01.096Z</time></trkpt><trkpt lat="42.3165367" lon="13.2527217"><ele>1285.3333333333333</ele><time>2026-05-02T15:23:02.096Z</time></trkpt><trkpt lat="42.316465" lon="13.2528383"><ele>1282.5</ele><time>2026-05-02T15:23:03.097Z</time></trkpt><trkpt lat="42.3164283" lon="13.25294"><ele>1279.6666666666667</ele><time>2026-05-02T15:23:04.097Z</time></trkpt><trkpt lat="42.316425" lon="13.2530317"><ele>1276.8333333333335</ele><time>2026-05-02T15:23:05.096Z</time></trkpt><trkpt lat="42.3164633" lon="13.253105"><ele>1274.0</ele><time>2026-05-02T15:23:06.097Z</time></trkpt><trkpt lat="42.3165283" lon="13.2531383"><ele>1274.0</ele><time>2026-05-02T15:23:07.096Z</time></trkpt><trkpt lat="42.316615" lon="13.2531233"><ele>1274.0</ele><time>2026-05-02T15:23:08.097Z</time></trkpt><trkpt lat="42.316735" lon="13.25307"><ele>1274.0</ele><time>2026-05-02T15:23:09.096Z</time></trkpt><trkpt lat="42.3168867" lon="13.2530067"><ele>1274.0</ele><time>2026-05-02T15:23:10.097Z</time></trkpt><trkpt lat="42.3170483" lon="13.2529433"><ele>1274.0</ele><time>2026-05-02T15:23:11.097Z</time></trkpt><trkpt lat="42.31721" lon="13.2528767"><ele>1274.0</ele><time>2026-05-02T15:23:12.096Z</time></trkpt><trkpt lat="42.31738" lon="13.252805"><ele>1274.0</ele><time>2026-05-02T15:23:13.096Z</time></trkpt><trkpt lat="42.3175583" lon="13.2527417"><ele>1274.6666666666667</ele><time>2026-05-02T15:23:14.096Z</time></trkpt><trkpt lat="42.317745" lon="13.2526767"><ele>1275.3333333333333</ele><time>2026-05-02T15:23:15.096Z</time></trkpt><trkpt lat="42.317945" lon="13.25263"><ele>1276.0</ele><time>2026-05-02T15:23:16.097Z</time></trkpt><trkpt lat="42.3181417" lon="13.252595"><ele>1274.0</ele><time>2026-05-02T15:23:17.097Z</time></trkpt><trkpt lat="42.3183433" lon="13.2525717"><ele>1272.0</ele><time>2026-05-02T15:23:18.097Z</time></trkpt><trkpt lat="42.3185317" lon="13.2525617"><ele>1270.0</ele><time>2026-05-02T15:23:19.097Z</time></trkpt><trkpt lat="42.3187117" lon="13.2525383"><ele>1270.0</ele><time>2026-05-02T15:23:20.097Z</time></trkpt><trkpt lat="42.3188933" lon="13.2525083"><ele>1270.0</ele><time>2026-05-02T15:23:21.096Z</time></trkpt><trkpt lat="42.319065" lon="13.252475"><ele>1270.0</ele><time>2026-05-02T15:23:22.097Z</time></trkpt><trkpt lat="42.3192317" lon="13.25244"><ele>1268.3333333333333</ele><time>2026-05-02T15:23:23.096Z</time></trkpt><trkpt lat="42.3193967" lon="13.2524083"><ele>1266.6666666666667</ele><time>2026-05-02T15:23:24.096Z</time></trkpt><trkpt lat="42.3195517" lon="13.25238"><ele>1265.0</ele><time>2026-05-02T15:23:25.096Z</time></trkpt><trkpt lat="42.3196933" lon="13.2523333"><ele>1269.0</ele><time>2026-05-02T15:23:26.096Z</time></trkpt><trkpt lat="42.3198133" lon="13.2522517"><ele>1273.0</ele><time>2026-05-02T15:23:27.096Z</time></trkpt><trkpt lat="42.3199217" lon="13.2521183"><ele>1277.0</ele><time>2026-05-02T15:23:28.096Z</time></trkpt><trkpt lat="42.3200233" lon="13.2519533"><ele>1281.0</ele><time>2026-05-02T15:23:29.096Z</time></trkpt><trkpt lat="42.3201333" lon="13.2517567"><ele>1281.0</ele><time>2026-05-02T15:23:30.097Z</time></trkpt><trkpt lat="42.32023" lon="13.2515617"><ele>1281.0</ele><time>2026-05-02T15:23:31.097Z</time></trkpt><trkpt lat="42.320315" lon="13.2513767"><ele>1281.0</ele><time>2026-05-02T15:23:32.096Z</time></trkpt><trkpt lat="42.3203817" lon="13.251195"><ele>1284.0</ele><time>2026-05-02T15:23:33.096Z</time></trkpt><trkpt lat="42.32042" lon="13.250995"><ele>1287.0</ele><time>2026-05-02T15:23:34.096Z</time></trkpt><trkpt lat="42.3204367" lon="13.25083"><ele>1290.0</ele><time>2026-05-02T15:23:35.096Z</time></trkpt><trkpt lat="42.3204733" lon="13.2506667"><ele>1293.0</ele><time>2026-05-02T15:23:36.096Z</time></trkpt><trkpt lat="42.3205183" lon="13.2505467"><ele>1289.2</ele><time>2026-05-02T15:23:37.096Z</time></trkpt><trkpt lat="42.32059" lon="13.2504517"><ele>1285.4</ele><time>2026-05-02T15:23:38.097Z</time></trkpt><trkpt lat="42.3206917" lon="13.25039"><ele>1281.6000000000001</ele><time>2026-05-02T15:23:39.096Z</time></trkpt><trkpt lat="42.3208083" lon="13.2503767"><ele>1277.8000000000002</ele><time>2026-05-02T15:23:40.097Z</time></trkpt><trkpt lat="42.3209283" lon="13.2503867"><ele>1274.0</ele><time>2026-05-02T15:23:41.096Z</time></trkpt><trkpt lat="42.321055" lon="13.25042"><ele>1274.0</ele><time>2026-05-02T15:23:42.096Z</time></trkpt><trkpt lat="42.32119" lon="13.2504867"><ele>1274.0</ele><time>2026-05-02T15:23:43.096Z</time></trkpt><trkpt lat="42.32133" lon="13.2505683"><ele>1274.0</ele><time>2026-05-02T15:23:44.097Z</time></trkpt><trkpt lat="42.32148" lon="13.250655"><ele>1267.75</ele><time>2026-05-02T15:23:45.096Z</time></trkpt><trkpt lat="42.3216217" lon="13.2507417"><ele>1261.5</ele><time>2026-05-02T15:23:46.096Z</time></trkpt><trkpt lat="42.3217583" lon="13.2508267"><ele>1255.25</ele><time>2026-05-02T15:23:47.097Z</time></trkpt><trkpt lat="42.3218767" lon="13.2509133"><ele>1249.0</ele><time>2026-05-02T15:23:48.096Z</time></trkpt><trkpt lat="42.321975" lon="13.25101"><ele>1249.0</ele><time>2026-05-02T15:23:49.096Z</time></trkpt><trkpt lat="42.3220367" lon="13.2511083"><ele>1249.0</ele><time>2026-05-02T15:23:50.096Z</time></trkpt><trkpt lat="42.3220683" lon="13.2511883"><ele>1249.0</ele><time>2026-05-02T15:23:51.096Z</time></trkpt><trkpt lat="42.322015" lon="13.25133"><ele>1249.0</ele><time>2026-05-02T15:23:53.097Z</time></trkpt><trkpt lat="42.32194" lon="13.2513667"><ele>1249.0</ele><time>2026-05-02T15:23:54.096Z</time></trkpt><trkpt lat="42.3218383" lon="13.2513667"><ele>1249.0</ele><time>2026-05-02T15:23:55.097Z</time></trkpt><trkpt lat="42.3217033" lon="13.251325"><ele>1249.0</ele><time>2026-05-02T15:23:56.096Z</time></trkpt><trkpt lat="42.3215717" lon="13.2512383"><ele>1249.0</ele><time>2026-05-02T15:23:57.097Z</time></trkpt><trkpt lat="42.3214583" lon="13.251135"><ele>1249.0</ele><time>2026-05-02T15:23:58.097Z</time></trkpt><trkpt lat="42.3213517" lon="13.250995"><ele>1249.5</ele><time>2026-05-02T15:23:59.097Z</time></trkpt><trkpt lat="42.321245" lon="13.2508533"><ele>1250.0</ele><time>2026-05-02T15:24:00.096Z</time></trkpt><trkpt lat="42.3211417" lon="13.2507517"><ele>1250.5</ele><time>2026-05-02T15:24:01.096Z</time></trkpt><trkpt lat="42.3210383" lon="13.2506867"><ele>1251.0</ele><time>2026-05-02T15:24:02.097Z</time></trkpt><trkpt lat="42.3209483" lon="13.2506483"><ele>1251.0</ele><time>2026-05-02T15:24:03.096Z</time></trkpt><trkpt lat="42.32087" lon="13.2506383"><ele>1251.0</ele><time>2026-05-02T15:24:04.097Z</time></trkpt><trkpt lat="42.320805" lon="13.2506583"><ele>1251.0</ele><time>2026-05-02T15:24:05.096Z</time></trkpt><trkpt lat="42.3207217" lon="13.2507717"><ele>1251.0</ele><time>2026-05-02T15:24:07.096Z</time></trkpt><trkpt lat="42.3206917" lon="13.250875"><ele>1251.0</ele><time>2026-05-02T15:24:08.096Z</time></trkpt><trkpt lat="42.3206617" lon="13.2510017"><ele>1251.0</ele><time>2026-05-02T15:24:09.096Z</time></trkpt><trkpt lat="42.3206217" lon="13.251155"><ele>1261.0</ele><time>2026-05-02T15:24:10.097Z</time></trkpt><trkpt lat="42.3205583" lon="13.2513433"><ele>1271.0</ele><time>2026-05-02T15:24:11.097Z</time></trkpt><trkpt lat="42.3204833" lon="13.2515533"><ele>1281.0</ele><time>2026-05-02T15:24:12.097Z</time></trkpt><trkpt lat="42.3204033" lon="13.2517683"><ele>1281.0</ele><time>2026-05-02T15:24:13.096Z</time></trkpt><trkpt lat="42.3203183" lon="13.2519817"><ele>1281.0</ele><time>2026-05-02T15:24:14.097Z</time></trkpt><trkpt lat="42.320225" lon="13.2521817"><ele>1281.0</ele><time>2026-05-02T15:24:15.097Z</time></trkpt><trkpt lat="42.3201367" lon="13.252365"><ele>1272.75</ele><time>2026-05-02T15:24:16.096Z</time></trkpt><trkpt lat="42.3200583" lon="13.2525317"><ele>1264.5</ele><time>2026-05-02T15:24:17.097Z</time></trkpt><trkpt lat="42.3199783" lon="13.2526767"><ele>1256.25</ele><time>2026-05-02T15:24:18.097Z</time></trkpt><trkpt lat="42.319875" lon="13.2528017"><ele>1248.0</ele><time>2026-05-02T15:24:19.096Z</time></trkpt><trkpt lat="42.3197617" lon="13.2529083"><ele>1253.6666666666667</ele><time>2026-05-02T15:24:20.096Z</time></trkpt><trkpt lat="42.31961" lon="13.25298"><ele>1259.3333333333335</ele><time>2026-05-02T15:24:21.096Z</time></trkpt><trkpt lat="42.3194317" lon="13.253025"><ele>1265.0</ele><time>2026-05-02T15:24:22.097Z</time></trkpt><trkpt lat="42.31925" lon="13.2530717"><ele>1254.6666666666667</ele><time>2026-05-02T15:24:23.097Z</time></trkpt><trkpt lat="42.3190567" lon="13.2531417"><ele>1244.3333333333333</ele><time>2026-05-02T15:24:24.097Z</time></trkpt><trkpt lat="42.318855" lon="13.2532383"><ele>1234.0</ele><time>2026-05-02T15:24:25.096Z</time></trkpt><trkpt lat="42.31866" lon="13.2532983"><ele>1234.0</ele><time>2026-05-02T15:24:26.096Z</time></trkpt><trkpt lat="42.3184383" lon="13.2533417"><ele>1234.0</ele><time>2026-05-02T15:24:27.096Z</time></trkpt><trkpt lat="42.3182033" lon="13.2533967"><ele>1238.0</ele><time>2026-05-02T15:24:28.097Z</time></trkpt><trkpt lat="42.3179633" lon="13.253465"><ele>1242.0</ele><time>2026-05-02T15:24:29.097Z</time></trkpt><trkpt lat="42.3177217" lon="13.2535583"><ele>1242.0</ele><time>2026-05-02T15:24:30.097Z</time></trkpt><trkpt lat="42.3174883" lon="13.2536633"><ele>1242.0</ele><time>2026-05-02T15:24:31.096Z</time></trkpt><trkpt lat="42.317275" lon="13.253755"><ele>1245.3333333333333</ele><time>2026-05-02T15:24:32.097Z</time></trkpt><trkpt lat="42.3170667" lon="13.2538533"><ele>1248.6666666666665</ele><time>2026-05-02T15:24:33.096Z</time></trkpt><trkpt lat="42.3168717" lon="13.2539483"><ele>1252.0</ele><time>2026-05-02T15:24:34.096Z</time></trkpt><trkpt lat="42.316695" lon="13.2540417"><ele>1241.5</ele><time>2026-05-02T15:24:35.096Z</time></trkpt><trkpt lat="42.3165383" lon="13.2541267"><ele>1231.0</ele><time>2026-05-02T15:24:36.097Z</time></trkpt><trkpt lat="42.3164017" lon="13.2541817"><ele>1220.5</ele><time>2026-05-02T15:24:37.096Z</time></trkpt><trkpt lat="42.3162783" lon="13.2542083"><ele>1210.0</ele><time>2026-05-02T15:24:38.096Z</time></trkpt><trkpt lat="42.3161617" lon="13.25418"><ele>1208.3333333333333</ele><time>2026-05-02T15:24:39.096Z</time></trkpt><trkpt lat="42.3160267" lon="13.2541017"><ele>1206.6666666666667</ele><time>2026-05-02T15:24:40.097Z</time></trkpt><trkpt lat="42.3158883" lon="13.2540283"><ele>1205.0</ele><time>2026-05-02T15:24:41.097Z</time></trkpt><trkpt lat="42.315735" lon="13.2539567"><ele>1205.75</ele><time>2026-05-02T15:24:42.096Z</time></trkpt><trkpt lat="42.3156" lon="13.2539033"><ele>1206.5</ele><time>2026-05-02T15:24:43.097Z</time></trkpt><trkpt lat="42.3154817" lon="13.2538433"><ele>1207.25</ele><time>2026-05-02T15:24:44.096Z</time></trkpt><trkpt lat="42.3153883" lon="13.2537267"><ele>1208.0</ele><time>2026-05-02T15:24:45.097Z</time></trkpt><trkpt lat="42.3153083" lon="13.2535767"><ele>1208.0</ele><time>2026-05-02T15:24:46.096Z</time></trkpt><trkpt lat="42.31522" lon="13.2534383"><ele>1208.0</ele><time>2026-05-02T15:24:47.096Z</time></trkpt><trkpt lat="42.3151267" lon="13.2533467"><ele>1208.0</ele><time>2026-05-02T15:24:48.096Z</time></trkpt><trkpt lat="42.3150083" lon="13.25329"><ele>1208.0</ele><time>2026-05-02T15:24:49.097Z</time></trkpt><trkpt lat="42.3148833" lon="13.2532233"><ele>1208.0</ele><time>2026-05-02T15:24:50.096Z</time></trkpt><trkpt lat="42.3147717" lon="13.2531317"><ele>1208.0</ele><time>2026-05-02T15:24:51.097Z</time></trkpt><trkpt lat="42.3146733" lon="13.2530417"><ele>1208.0</ele><time>2026-05-02T15:24:52.097Z</time></trkpt><trkpt lat="42.3145767" lon="13.252985"><ele>1208.0</ele><time>2026-05-02T15:24:53.097Z</time></trkpt><trkpt lat="42.3144683" lon="13.2529717"><ele>1207.0</ele><time>2026-05-02T15:24:54.096Z</time></trkpt><trkpt lat="42.3143417" lon="13.2530117"><ele>1206.0</ele><time>2026-05-02T15:24:55.096Z</time></trkpt><trkpt lat="42.3142133" lon="13.2530833"><ele>1205.0</ele><time>2026-05-02T15:24:56.096Z</time></trkpt><trkpt lat="42.3140967" lon="13.2531767"><ele>1204.0</ele><time>2026-05-02T15:24:57.096Z</time></trkpt><trkpt lat="42.314" lon="13.2533083"><ele>1204.0</ele><time>2026-05-02T15:24:58.097Z</time></trkpt><trkpt lat="42.3139183" lon="13.253475"><ele>1204.0</ele><time>2026-05-02T15:24:59.097Z</time></trkpt><trkpt lat="42.313835" lon="13.2536467"><ele>1204.0</ele><time>2026-05-02T15:25:00.096Z</time></trkpt><trkpt lat="42.3137383" lon="13.2538333"><ele>1211.6666666666665</ele><time>2026-05-02T15:25:01.097Z</time></trkpt><trkpt lat="42.31366" lon="13.2540167"><ele>1219.3333333333333</ele><time>2026-05-02T15:25:02.097Z</time></trkpt><trkpt lat="42.3136083" lon="13.2541983"><ele>1227.0</ele><time>2026-05-02T15:25:03.096Z</time></trkpt><trkpt lat="42.31357" lon="13.2544083"><ele>1227.0</ele><time>2026-05-02T15:25:04.096Z</time></trkpt><trkpt lat="42.313545" lon="13.2546317"><ele>1227.0</ele><time>2026-05-02T15:25:05.097Z</time></trkpt><trkpt lat="42.3135117" lon="13.2548467"><ele>1227.0</ele><time>2026-05-02T15:25:06.096Z</time></trkpt><trkpt lat="42.3134617" lon="13.2550383"><ele>1226.2</ele><time>2026-05-02T15:25:07.096Z</time></trkpt><trkpt lat="42.3134017" lon="13.2551917"><ele>1225.4</ele><time>2026-05-02T15:25:08.096Z</time></trkpt><trkpt lat="42.31333" lon="13.255295"><ele>1224.6</ele><time>2026-05-02T15:25:09.097Z</time></trkpt><trkpt lat="42.313245" lon="13.2553633"><ele>1223.8</ele><time>2026-05-02T15:25:10.096Z</time></trkpt><trkpt lat="42.3131467" lon="13.25537"><ele>1223.0</ele><time>2026-05-02T15:25:11.096Z</time></trkpt><trkpt lat="42.3130217" lon="13.2553317"><ele>1223.0</ele><time>2026-05-02T15:25:12.097Z</time></trkpt><trkpt lat="42.3128817" lon="13.25527"><ele>1223.0</ele><time>2026-05-02T15:25:13.096Z</time></trkpt><trkpt lat="42.3127417" lon="13.255205"><ele>1223.0</ele><time>2026-05-02T15:25:14.096Z</time></trkpt><trkpt lat="42.31262" lon="13.2551683"><ele>1223.0</ele><time>2026-05-02T15:25:15.096Z</time></trkpt><trkpt lat="42.3125" lon="13.2551767"><ele>1223.0</ele><time>2026-05-02T15:25:16.096Z</time></trkpt><trkpt lat="42.3124017" lon="13.2552267"><ele>1223.0</ele><time>2026-05-02T15:25:17.096Z</time></trkpt><trkpt lat="42.3123167" lon="13.2553233"><ele>1223.0</ele><time>2026-05-02T15:25:18.097Z</time></trkpt><trkpt lat="42.3122533" lon="13.25544"><ele>1223.0</ele><time>2026-05-02T15:25:19.097Z</time></trkpt><trkpt lat="42.3122233" lon="13.2555867"><ele>1223.0</ele><time>2026-05-02T15:25:20.096Z</time></trkpt><trkpt lat="42.3122233" lon="13.2557583"><ele>1222.0</ele><time>2026-05-02T15:25:21.096Z</time></trkpt><trkpt lat="42.3122383" lon="13.25594"><ele>1221.0</ele><time>2026-05-02T15:25:22.096Z</time></trkpt><trkpt lat="42.3122567" lon="13.2561017"><ele>1220.0</ele><time>2026-05-02T15:25:23.096Z</time></trkpt><trkpt lat="42.3122617" lon="13.2562467"><ele>1219.0</ele><time>2026-05-02T15:25:24.097Z</time></trkpt><trkpt lat="42.3122333" lon="13.256385"><ele>1212.5</ele><time>2026-05-02T15:25:25.097Z</time></trkpt><trkpt lat="42.312165" lon="13.2564933"><ele>1206.0</ele><time>2026-05-02T15:25:26.097Z</time></trkpt><trkpt lat="42.3120783" lon="13.2566067"><ele>1199.5</ele><time>2026-05-02T15:25:27.096Z</time></trkpt><trkpt lat="42.3119717" lon="13.2566833"><ele>1193.0</ele><time>2026-05-02T15:25:28.097Z</time></trkpt><trkpt lat="42.3118633" lon="13.2567133"><ele>1193.0</ele><time>2026-05-02T15:25:29.096Z</time></trkpt><trkpt lat="42.3117517" lon="13.2567"><ele>1193.0</ele><time>2026-05-02T15:25:30.096Z</time></trkpt><trkpt lat="42.31163" lon="13.2566367"><ele>1193.0</ele><time>2026-05-02T15:25:31.097Z</time></trkpt><trkpt lat="42.31152" lon="13.2565717"><ele>1193.0</ele><time>2026-05-02T15:25:32.096Z</time></trkpt><trkpt lat="42.31141" lon="13.2565283"><ele>1197.25</ele><time>2026-05-02T15:25:33.096Z</time></trkpt><trkpt lat="42.311305" lon="13.256545"><ele>1201.5</ele><time>2026-05-02T15:25:34.096Z</time></trkpt><trkpt lat="42.3112033" lon="13.2565983"><ele>1205.75</ele><time>2026-05-02T15:25:35.096Z</time></trkpt><trkpt lat="42.3111117" lon="13.2566967"><ele>1210.0</ele><time>2026-05-02T15:25:36.096Z</time></trkpt><trkpt lat="42.311035" lon="13.2568517"><ele>1210.0</ele><time>2026-05-02T15:25:37.097Z</time></trkpt><trkpt lat="42.31096" lon="13.2570317"><ele>1210.0</ele><time>2026-05-02T15:25:38.097Z</time></trkpt><trkpt lat="42.3109" lon="13.2572383"><ele>1210.0</ele><time>2026-05-02T15:25:39.097Z</time></trkpt><trkpt lat="42.3108333" lon="13.2574333"><ele>1209.25</ele><time>2026-05-02T15:25:40.096Z</time></trkpt><trkpt lat="42.31076" lon="13.257605"><ele>1208.5</ele><time>2026-05-02T15:25:41.097Z</time></trkpt><trkpt lat="42.3106717" lon="13.2577633"><ele>1207.75</ele><time>2026-05-02T15:25:42.097Z</time></trkpt><trkpt lat="42.31055" lon="13.257895"><ele>1207.0</ele><time>2026-05-02T15:25:43.096Z</time></trkpt><trkpt lat="42.31044" lon="13.2579833"><ele>1207.0</ele><time>2026-05-02T15:25:44.097Z</time></trkpt><trkpt lat="42.3103067" lon="13.2580067"><ele>1207.0</ele><time>2026-05-02T15:25:45.097Z</time></trkpt><trkpt lat="42.3101567" lon="13.2580183"><ele>1207.0</ele><time>2026-05-02T15:25:46.097Z</time></trkpt><trkpt lat="42.310015" lon="13.258045"><ele>1207.0</ele><time>2026-05-02T15:25:47.097Z</time></trkpt><trkpt lat="42.3099017" lon="13.2581117"><ele>1204.5</ele><time>2026-05-02T15:25:48.097Z</time></trkpt><trkpt lat="42.3098067" lon="13.2582367"><ele>1202.0</ele><time>2026-05-02T15:25:49.097Z</time></trkpt><trkpt lat="42.30973" lon="13.2583883"><ele>1199.5</ele><time>2026-05-02T15:25:50.096Z</time></trkpt><trkpt lat="42.3096533" lon="13.2585433"><ele>1197.0</ele><time>2026-05-02T15:25:51.097Z</time></trkpt><trkpt lat="42.3095583" lon="13.25871"><ele>1197.0</ele><time>2026-05-02T15:25:52.096Z</time></trkpt><trkpt lat="42.3094433" lon="13.258855"><ele>1197.0</ele><time>2026-05-02T15:25:53.096Z</time></trkpt><trkpt lat="42.3093183" lon="13.2589867"><ele>1197.0</ele><time>2026-05-02T15:25:54.096Z</time></trkpt><trkpt lat="42.3091933" lon="13.259085"><ele>1190.6666666666667</ele><time>2026-05-02T15:25:55.096Z</time></trkpt><trkpt lat="42.3090583" lon="13.2591433"><ele>1184.3333333333335</ele><time>2026-05-02T15:25:56.097Z</time></trkpt><trkpt lat="42.3089033" lon="13.259205"><ele>1178.0</ele><time>2026-05-02T15:25:57.097Z</time></trkpt><trkpt lat="42.30875" lon="13.2592733"><ele>1178.0</ele><time>2026-05-02T15:25:58.096Z</time></trkpt><trkpt lat="42.3085833" lon="13.2593683"><ele>1178.0</ele><time>2026-05-02T15:25:59.096Z</time></trkpt><trkpt lat="42.3084167" lon="13.25948"><ele>1178.0</ele><time>2026-05-02T15:26:00.096Z</time></trkpt><trkpt lat="42.3082567" lon="13.2596033"><ele>1178.0</ele><time>2026-05-02T15:26:01.096Z</time></trkpt><trkpt lat="42.3081133" lon="13.2597183"><ele>1178.0</ele><time>2026-05-02T15:26:02.096Z</time></trkpt><trkpt lat="42.3079783" lon="13.2598183"><ele>1178.0</ele><time>2026-05-02T15:26:03.096Z</time></trkpt><trkpt lat="42.3078433" lon="13.2599017"><ele>1172.5</ele><time>2026-05-02T15:26:04.097Z</time></trkpt><trkpt lat="42.3077283" lon="13.25996"><ele>1167.0</ele><time>2026-05-02T15:26:05.096Z</time></trkpt><trkpt lat="42.3076033" lon="13.259985"><ele>1161.5</ele><time>2026-05-02T15:26:06.096Z</time></trkpt><trkpt lat="42.3074833" lon="13.25999"><ele>1156.0</ele><time>2026-05-02T15:26:07.096Z</time></trkpt><trkpt lat="42.307375" lon="13.259965"><ele>1156.0</ele><time>2026-05-02T15:26:08.097Z</time></trkpt><trkpt lat="42.3072767" lon="13.25989"><ele>1156.0</ele><time>2026-05-02T15:26:09.097Z</time></trkpt><trkpt lat="42.307185" lon="13.2597717"><ele>1156.0</ele><time>2026-05-02T15:26:10.096Z</time></trkpt><trkpt lat="42.307095" lon="13.25963"><ele>1156.0</ele><time>2026-05-02T15:26:11.097Z</time></trkpt><trkpt lat="42.3070033" lon="13.2594783"><ele>1155.75</ele><time>2026-05-02T15:26:12.097Z</time></trkpt><trkpt lat="42.30692" lon="13.2593333"><ele>1155.5</ele><time>2026-05-02T15:26:13.097Z</time></trkpt><trkpt lat="42.3068533" lon="13.2591733"><ele>1155.25</ele><time>2026-05-02T15:26:14.097Z</time></trkpt><trkpt lat="42.3067967" lon="13.2589817"><ele>1155.0</ele><time>2026-05-02T15:26:15.096Z</time></trkpt><trkpt lat="42.3067433" lon="13.2587967"><ele>1155.0</ele><time>2026-05-02T15:26:16.096Z</time></trkpt><trkpt lat="42.3066833" lon="13.2586283"><ele>1155.0</ele><time>2026-05-02T15:26:17.096Z</time></trkpt><trkpt lat="42.3066283" lon="13.258475"><ele>1155.0</ele><time>2026-05-02T15:26:18.097Z</time></trkpt><trkpt lat="42.3065583" lon="13.2583317"><ele>1155.0</ele><time>2026-05-02T15:26:19.096Z</time></trkpt><trkpt lat="42.306485" lon="13.2581917"><ele>1157.0</ele><time>2026-05-02T15:26:20.097Z</time></trkpt><trkpt lat="42.3063983" lon="13.258055"><ele>1159.0</ele><time>2026-05-02T15:26:21.097Z</time></trkpt><trkpt lat="42.306285" lon="13.257945"><ele>1161.0</ele><time>2026-05-02T15:26:22.097Z</time></trkpt><trkpt lat="42.3061583" lon="13.2578533"><ele>1163.0</ele><time>2026-05-02T15:26:23.097Z</time></trkpt><trkpt lat="42.3060033" lon="13.2578067"><ele>1163.0</ele><time>2026-05-02T15:26:24.096Z</time></trkpt><trkpt lat="42.3058283" lon="13.2577933"><ele>1163.0</ele><time>2026-05-02T15:26:25.096Z</time></trkpt><trkpt lat="42.3056417" lon="13.2578317"><ele>1163.0</ele><time>2026-05-02T15:26:26.097Z</time></trkpt><trkpt lat="42.30546" lon="13.257885"><ele>1161.3333333333335</ele><time>2026-05-02T15:26:27.096Z</time></trkpt><trkpt lat="42.3052917" lon="13.2579267"><ele>1159.6666666666667</ele><time>2026-05-02T15:26:28.097Z</time></trkpt><trkpt lat="42.3051317" lon="13.2579367"><ele>1158.0</ele><time>2026-05-02T15:26:29.097Z</time></trkpt><trkpt lat="42.3049717" lon="13.2579167"><ele>1158.0</ele><time>2026-05-02T15:26:30.097Z</time></trkpt><trkpt lat="42.3048083" lon="13.2579033"><ele>1158.0</ele><time>2026-05-02T15:26:31.096Z</time></trkpt><trkpt lat="42.304635" lon="13.2579083"><ele>1158.0</ele><time>2026-05-02T15:26:32.097Z</time></trkpt><trkpt lat="42.3044617" lon="13.2579433"><ele>1160.0</ele><time>2026-05-02T15:26:33.097Z</time></trkpt><trkpt lat="42.3042833" lon="13.2580017"><ele>1162.0</ele><time>2026-05-02T15:26:34.096Z</time></trkpt><trkpt lat="42.30408" lon="13.2580717"><ele>1164.0</ele><time>2026-05-02T15:26:35.097Z</time></trkpt><trkpt lat="42.303885" lon="13.2581567"><ele>1152.3333333333333</ele><time>2026-05-02T15:26:36.096Z</time></trkpt><trkpt lat="42.3037067" lon="13.25821"><ele>1140.6666666666665</ele><time>2026-05-02T15:26:37.097Z</time></trkpt><trkpt lat="42.3035517" lon="13.2582667"><ele>1129.0</ele><time>2026-05-02T15:26:38.096Z</time></trkpt><trkpt lat="42.3034183" lon="13.2583167"><ele>1129.0</ele><time>2026-05-02T15:26:39.096Z</time></trkpt><trkpt lat="42.303295" lon="13.2583483"><ele>1129.0</ele><time>2026-05-02T15:26:40.096Z</time></trkpt><trkpt lat="42.3031883" lon="13.25834"><ele>1129.0</ele><time>2026-05-02T15:26:41.096Z</time></trkpt><trkpt lat="42.30308" lon="13.2582883"><ele>1129.0</ele><time>2026-05-02T15:26:42.097Z</time></trkpt><trkpt lat="42.3029733" lon="13.258195"><ele>1130.3333333333333</ele><time>2026-05-02T15:26:43.096Z</time></trkpt><trkpt lat="42.30287" lon="13.2580583"><ele>1131.6666666666667</ele><time>2026-05-02T15:26:44.097Z</time></trkpt><trkpt lat="42.302755" lon="13.2578983"><ele>1133.0</ele><time>2026-05-02T15:26:45.097Z</time></trkpt><trkpt lat="42.3026317" lon="13.257745"><ele>1133.0</ele><time>2026-05-02T15:26:46.097Z</time></trkpt><trkpt lat="42.302515" lon="13.2575967"><ele>1133.0</ele><time>2026-05-02T15:26:47.097Z</time></trkpt><trkpt lat="42.3023833" lon="13.2574433"><ele>1133.0</ele><time>2026-05-02T15:26:48.097Z</time></trkpt><trkpt lat="42.302245" lon="13.257305"><ele>1132.0</ele><time>2026-05-02T15:26:49.097Z</time></trkpt><trkpt lat="42.3020883" lon="13.2571817"><ele>1131.0</ele><time>2026-05-02T15:26:50.096Z</time></trkpt><trkpt lat="42.3019317" lon="13.257075"><ele>1130.0</ele><time>2026-05-02T15:26:51.096Z</time></trkpt><trkpt lat="42.301795" lon="13.256975"><ele>1130.0</ele><time>2026-05-02T15:26:52.096Z</time></trkpt><trkpt lat="42.301675" lon="13.2568967"><ele>1130.0</ele><time>2026-05-02T15:26:53.096Z</time></trkpt><trkpt lat="42.301565" lon="13.2568433"><ele>1130.0</ele><time>2026-05-02T15:26:54.096Z</time></trkpt><trkpt lat="42.3014617" lon="13.2568333"><ele>1130.0</ele><time>2026-05-02T15:26:55.096Z</time></trkpt><trkpt lat="42.3013733" lon="13.256875"><ele>1130.0</ele><time>2026-05-02T15:26:56.096Z</time></trkpt><trkpt lat="42.3012917" lon="13.2569517"><ele>1135.25</ele><time>2026-05-02T15:26:57.097Z</time></trkpt><trkpt lat="42.30123" lon="13.25706"><ele>1140.5</ele><time>2026-05-02T15:26:58.096Z</time></trkpt><trkpt lat="42.301185" lon="13.2572133"><ele>1145.75</ele><time>2026-05-02T15:26:59.096Z</time></trkpt><trkpt lat="42.3011433" lon="13.2574083"><ele>1151.0</ele><time>2026-05-02T15:27:00.096Z</time></trkpt><trkpt lat="42.3011017" lon="13.2576267"><ele>1151.0</ele><time>2026-05-02T15:27:01.096Z</time></trkpt><trkpt lat="42.3010667" lon="13.2578717"><ele>1151.0</ele><time>2026-05-02T15:27:02.097Z</time></trkpt><trkpt lat="42.3010333" lon="13.2581267"><ele>1151.0</ele><time>2026-05-02T15:27:03.096Z</time></trkpt><trkpt lat="42.30101" lon="13.2583983"><ele>1147.0</ele><time>2026-05-02T15:27:04.096Z</time></trkpt><trkpt lat="42.300975" lon="13.2586633"><ele>1143.0</ele><time>2026-05-02T15:27:05.096Z</time></trkpt><trkpt lat="42.3009483" lon="13.258935"><ele>1139.0</ele><time>2026-05-02T15:27:06.096Z</time></trkpt><trkpt lat="42.3009533" lon="13.259205"><ele>1137.6666666666667</ele><time>2026-05-02T15:27:07.096Z</time></trkpt><trkpt lat="42.3009633" lon="13.259465"><ele>1136.3333333333333</ele><time>2026-05-02T15:27:08.096Z</time></trkpt><trkpt lat="42.3009883" lon="13.25971"><ele>1135.0</ele><time>2026-05-02T15:27:09.097Z</time></trkpt><trkpt lat="42.3010167" lon="13.2599383"><ele>1134.0</ele><time>2026-05-02T15:27:10.097Z</time></trkpt><trkpt lat="42.3010567" lon="13.2601567"><ele>1133.0</ele><time>2026-05-02T15:27:11.097Z</time></trkpt><trkpt lat="42.301095" lon="13.2603583"><ele>1132.0</ele><time>2026-05-02T15:27:12.097Z</time></trkpt><trkpt lat="42.3011283" lon="13.2605467"><ele>1129.4</ele><time>2026-05-02T15:27:13.096Z</time></trkpt><trkpt lat="42.3011533" lon="13.260715"><ele>1126.8000000000002</ele><time>2026-05-02T15:27:14.096Z</time></trkpt><trkpt lat="42.30115" lon="13.2608617"><ele>1124.2</ele><time>2026-05-02T15:27:15.097Z</time></trkpt><trkpt lat="42.3011517" lon="13.260985"><ele>1121.6000000000001</ele><time>2026-05-02T15:27:16.096Z</time></trkpt><trkpt lat="42.3011217" lon="13.261105"><ele>1119.0</ele><time>2026-05-02T15:27:17.096Z</time></trkpt><trkpt lat="42.301045" lon="13.2611967"><ele>1119.0</ele><time>2026-05-02T15:27:18.097Z</time></trkpt><trkpt lat="42.300945" lon="13.2612867"><ele>1119.0</ele><time>2026-05-02T15:27:19.097Z</time></trkpt><trkpt lat="42.3008233" lon="13.2613767"><ele>1119.0</ele><time>2026-05-02T15:27:20.097Z</time></trkpt><trkpt lat="42.3006867" lon="13.2614417"><ele>1119.0</ele><time>2026-05-02T15:27:21.096Z</time></trkpt><trkpt lat="42.3005483" lon="13.2614967"><ele>1117.25</ele><time>2026-05-02T15:27:22.096Z</time></trkpt><trkpt lat="42.30043" lon="13.2615633"><ele>1115.5</ele><time>2026-05-02T15:27:23.096Z</time></trkpt><trkpt lat="42.3003367" lon="13.2616617"><ele>1113.75</ele><time>2026-05-02T15:27:24.096Z</time></trkpt><trkpt lat="42.3002667" lon="13.2617917"><ele>1112.0</ele><time>2026-05-02T15:27:25.096Z</time></trkpt><trkpt lat="42.3002" lon="13.2619583"><ele>1112.0</ele><time>2026-05-02T15:27:26.097Z</time></trkpt><trkpt lat="42.3001533" lon="13.2621067"><ele>1112.0</ele><time>2026-05-02T15:27:27.096Z</time></trkpt><trkpt lat="42.3000883" lon="13.2622283"><ele>1112.0</ele><time>2026-05-02T15:27:28.096Z</time></trkpt><trkpt lat="42.299995" lon="13.2623233"><ele>1112.0</ele><time>2026-05-02T15:27:29.097Z</time></trkpt><trkpt lat="42.2998767" lon="13.2623933"><ele>1107.0</ele><time>2026-05-02T15:27:30.097Z</time></trkpt><trkpt lat="42.2997517" lon="13.2624733"><ele>1102.0</ele><time>2026-05-02T15:27:31.097Z</time></trkpt><trkpt lat="42.2996467" lon="13.262575"><ele>1097.0</ele><time>2026-05-02T15:27:32.096Z</time></trkpt><trkpt lat="42.2995417" lon="13.2626583"><ele>1092.0</ele><time>2026-05-02T15:27:33.096Z</time></trkpt><trkpt lat="42.2994483" lon="13.262695"><ele>1093.2</ele><time>2026-05-02T15:27:34.096Z</time></trkpt><trkpt lat="42.299365" lon="13.26269"><ele>1094.4</ele><time>2026-05-02T15:27:35.096Z</time></trkpt><trkpt lat="42.2992783" lon="13.262625"><ele>1095.6</ele><time>2026-05-02T15:27:36.096Z</time></trkpt><trkpt lat="42.2991983" lon="13.2624983"><ele>1096.8</ele><time>2026-05-02T15:27:37.097Z</time></trkpt><trkpt lat="42.29913" lon="13.26233"><ele>1098.0</ele><time>2026-05-02T15:27:38.096Z</time></trkpt><trkpt lat="42.2990817" lon="13.2621283"><ele>1098.0</ele><time>2026-05-02T15:27:39.096Z</time></trkpt><trkpt lat="42.2990433" lon="13.2619383"><ele>1098.0</ele><time>2026-05-02T15:27:40.096Z</time></trkpt><trkpt lat="42.2990067" lon="13.2617867"><ele>1098.0</ele><time>2026-05-02T15:27:41.097Z</time></trkpt><trkpt lat="42.2989633" lon="13.26166"><ele>1098.0</ele><time>2026-05-02T15:27:42.096Z</time></trkpt><trkpt lat="42.2989033" lon="13.2615617"><ele>1097.8333333333333</ele><time>2026-05-02T15:27:43.096Z</time></trkpt><trkpt lat="42.29884" lon="13.2615117"><ele>1097.6666666666667</ele><time>2026-05-02T15:27:44.096Z</time></trkpt><trkpt lat="42.298765" lon="13.2615083"><ele>1097.5</ele><time>2026-05-02T15:27:45.096Z</time></trkpt><trkpt lat="42.2986833" lon="13.2615417"><ele>1097.3333333333335</ele><time>2026-05-02T15:27:46.096Z</time></trkpt><trkpt lat="42.29861" lon="13.2616233"><ele>1097.1666666666667</ele><time>2026-05-02T15:27:47.096Z</time></trkpt><trkpt lat="42.2985283" lon="13.261735"><ele>1097.0</ele><time>2026-05-02T15:27:48.096Z</time></trkpt><trkpt lat="42.2984083" lon="13.26186"><ele>1097.0</ele><time>2026-05-02T15:27:49.096Z</time></trkpt><trkpt lat="42.298275" lon="13.2619417"><ele>1097.0</ele><time>2026-05-02T15:27:50.097Z</time></trkpt><trkpt lat="42.29814" lon="13.26201"><ele>1097.0</ele><time>2026-05-02T15:27:51.097Z</time></trkpt><trkpt lat="42.29803" lon="13.26206"><ele>1097.0</ele><time>2026-05-02T15:27:52.096Z</time></trkpt><trkpt lat="42.2979383" lon="13.2621383"><ele>1096.5</ele><time>2026-05-02T15:27:53.097Z</time></trkpt><trkpt lat="42.2978817" lon="13.2622417"><ele>1096.0</ele><time>2026-05-02T15:27:54.096Z</time></trkpt><trkpt lat="42.2978467" lon="13.2623767"><ele>1095.5</ele><time>2026-05-02T15:27:55.096Z</time></trkpt><trkpt lat="42.2978367" lon="13.2625417"><ele>1095.0</ele><time>2026-05-02T15:27:56.097Z</time></trkpt><trkpt lat="42.2978467" lon="13.2627333"><ele>1095.0</ele><time>2026-05-02T15:27:57.096Z</time></trkpt><trkpt lat="42.2978283" lon="13.262925"><ele>1095.0</ele><time>2026-05-02T15:27:58.096Z</time></trkpt><trkpt lat="42.29777" lon="13.2630817"><ele>1095.0</ele><time>2026-05-02T15:27:59.096Z</time></trkpt><trkpt lat="42.2976967" lon="13.2632067"><ele>1095.0</ele><time>2026-05-02T15:28:00.097Z</time></trkpt><trkpt lat="42.2976033" lon="13.2632667"><ele>1093.0</ele><time>2026-05-02T15:28:01.097Z</time></trkpt><trkpt lat="42.2974733" lon="13.2632817"><ele>1091.0</ele><time>2026-05-02T15:28:02.096Z</time></trkpt><trkpt lat="42.29732" lon="13.26326"><ele>1089.0</ele><time>2026-05-02T15:28:03.096Z</time></trkpt><trkpt lat="42.2971833" lon="13.2632117"><ele>1087.0</ele><time>2026-05-02T15:28:04.096Z</time></trkpt><trkpt lat="42.29706" lon="13.2631967"><ele>1087.0</ele><time>2026-05-02T15:28:05.097Z</time></trkpt><trkpt lat="42.2969567" lon="13.2632483"><ele>1087.0</ele><time>2026-05-02T15:28:06.096Z</time></trkpt><trkpt lat="42.2968633" lon="13.263355"><ele>1087.0</ele><time>2026-05-02T15:28:07.096Z</time></trkpt><trkpt lat="42.2967817" lon="13.2634767"><ele>1087.0</ele><time>2026-05-02T15:28:08.096Z</time></trkpt><trkpt lat="42.2967367" lon="13.2636383"><ele>1087.0</ele><time>2026-05-02T15:28:09.096Z</time></trkpt><trkpt lat="42.2967333" lon="13.2638067"><ele>1087.0</ele><time>2026-05-02T15:28:10.096Z</time></trkpt><trkpt lat="42.2967433" lon="13.26396"><ele>1087.0</ele><time>2026-05-02T15:28:11.097Z</time></trkpt><trkpt lat="42.2967483" lon="13.2640983"><ele>1087.0</ele><time>2026-05-02T15:28:12.096Z</time></trkpt><trkpt lat="42.296715" lon="13.264235"><ele>1087.0</ele><time>2026-05-02T15:28:13.097Z</time></trkpt><trkpt lat="42.2966417" lon="13.2643517"><ele>1083.0</ele><time>2026-05-02T15:28:14.096Z</time></trkpt><trkpt lat="42.2965467" lon="13.2644817"><ele>1079.0</ele><time>2026-05-02T15:28:15.096Z</time></trkpt><trkpt lat="42.296475" lon="13.2646183"><ele>1075.0</ele><time>2026-05-02T15:28:16.096Z</time></trkpt><trkpt lat="42.2964467" lon="13.2647717"><ele>1071.0</ele><time>2026-05-02T15:28:17.097Z</time></trkpt><trkpt lat="42.2964417" lon="13.26491"><ele>1068.5</ele><time>2026-05-02T15:28:18.096Z</time></trkpt><trkpt lat="42.29645" lon="13.2650333"><ele>1066.0</ele><time>2026-05-02T15:28:19.096Z</time></trkpt><trkpt lat="42.2964483" lon="13.2651433"><ele>1063.5</ele><time>2026-05-02T15:28:20.097Z</time></trkpt><trkpt lat="42.2964483" lon="13.2652417"><ele>1061.0</ele><time>2026-05-02T15:28:21.097Z</time></trkpt><trkpt lat="42.2964517" lon="13.2653433"><ele>1058.5</ele><time>2026-05-02T15:28:22.097Z</time></trkpt><trkpt lat="42.29644" lon="13.265465"><ele>1056.0</ele><time>2026-05-02T15:28:23.097Z</time></trkpt><trkpt lat="42.2964117" lon="13.2656033"><ele>1054.0</ele><time>2026-05-02T15:28:24.097Z</time></trkpt><trkpt lat="42.2963733" lon="13.2657583"><ele>1052.0</ele><time>2026-05-02T15:28:25.097Z</time></trkpt><trkpt lat="42.2963317" lon="13.2658983"><ele>1050.0</ele><time>2026-05-02T15:28:26.096Z</time></trkpt><trkpt lat="42.2963067" lon="13.2660083"><ele>1048.0</ele><time>2026-05-02T15:28:27.096Z</time></trkpt><trkpt lat="42.2963217" lon="13.2661483"><ele>1046.0</ele><time>2026-05-02T15:28:29.097Z</time></trkpt><trkpt lat="42.2964217" lon="13.2661733"><ele>1046.0</ele><time>2026-05-02T15:28:31.097Z</time></trkpt><trkpt lat="42.2965117" lon="13.2661217"><ele>1046.0</ele><time>2026-05-02T15:28:32.096Z</time></trkpt><trkpt lat="42.2966317" lon="13.2660483"><ele>1046.0</ele><time>2026-05-02T15:28:33.097Z</time></trkpt><trkpt lat="42.2967567" lon="13.265985"><ele>1046.0</ele><time>2026-05-02T15:28:34.096Z</time></trkpt><trkpt lat="42.2968617" lon="13.265955"><ele>1046.0</ele><time>2026-05-02T15:28:35.097Z</time></trkpt><trkpt lat="42.2969517" lon="13.2659533"><ele>1046.0</ele><time>2026-05-02T15:28:36.096Z</time></trkpt><trkpt lat="42.29704" lon="13.265995"><ele>1046.0</ele><time>2026-05-02T15:28:37.097Z</time></trkpt><trkpt lat="42.2971117" lon="13.2660717"><ele>1046.0</ele><time>2026-05-02T15:28:38.096Z</time></trkpt><trkpt lat="42.29717" lon="13.26617"><ele>1046.0</ele><time>2026-05-02T15:28:39.096Z</time></trkpt><trkpt lat="42.2971983" lon="13.26627"><ele>1046.0</ele><time>2026-05-02T15:28:40.097Z</time></trkpt><trkpt lat="42.2971867" lon="13.266365"><ele>1046.0</ele><time>2026-05-02T15:28:41.097Z</time></trkpt><trkpt lat="42.297135" lon="13.266425"><ele>1046.0</ele><time>2026-05-02T15:28:42.097Z</time></trkpt><trkpt lat="42.2970483" lon="13.2664617"><ele>1046.0</ele><time>2026-05-02T15:28:43.096Z</time></trkpt><trkpt lat="42.2969583" lon="13.266495"><ele>1046.0</ele><time>2026-05-02T15:28:44.096Z</time></trkpt><trkpt lat="42.2968667" lon="13.26657"><ele>1046.0</ele><time>2026-05-02T15:28:45.097Z</time></trkpt><trkpt lat="42.2967783" lon="13.26668"><ele>1041.0</ele><time>2026-05-02T15:28:46.096Z</time></trkpt><trkpt lat="42.2967033" lon="13.2668367"><ele>1036.0</ele><time>2026-05-02T15:28:47.096Z</time></trkpt><trkpt lat="42.2966217" lon="13.2670267"><ele>1031.0</ele><time>2026-05-02T15:28:48.097Z</time></trkpt><trkpt lat="42.2965433" lon="13.26724"><ele>1034.6666666666667</ele><time>2026-05-02T15:28:49.096Z</time></trkpt><trkpt lat="42.2964667" lon="13.26745"><ele>1038.3333333333333</ele><time>2026-05-02T15:28:50.097Z</time></trkpt><trkpt lat="42.2964083" lon="13.2676667"><ele>1042.0</ele><time>2026-05-02T15:28:51.097Z</time></trkpt><trkpt lat="42.2963683" lon="13.2678767"><ele>1042.0</ele><time>2026-05-02T15:28:52.097Z</time></trkpt><trkpt lat="42.296335" lon="13.2680833"><ele>1042.0</ele><time>2026-05-02T15:28:53.096Z</time></trkpt><trkpt lat="42.29631" lon="13.2682967"><ele>1042.0</ele><time>2026-05-02T15:28:54.097Z</time></trkpt><trkpt lat="42.2962817" lon="13.2684933"><ele>1036.25</ele><time>2026-05-02T15:28:55.096Z</time></trkpt><trkpt lat="42.2962367" lon="13.2686817"><ele>1030.5</ele><time>2026-05-02T15:28:56.097Z</time></trkpt><trkpt lat="42.2961767" lon="13.268875"><ele>1024.75</ele><time>2026-05-02T15:28:57.096Z</time></trkpt><trkpt lat="42.2961183" lon="13.269045"><ele>1019.0</ele><time>2026-05-02T15:28:58.096Z</time></trkpt><trkpt lat="42.2960533" lon="13.269185"><ele>1015.6</ele><time>2026-05-02T15:28:59.096Z</time></trkpt><trkpt lat="42.2959967" lon="13.2693083"><ele>1012.2</ele><time>2026-05-02T15:29:00.097Z</time></trkpt><trkpt lat="42.29596" lon="13.26941"><ele>1008.8000000000001</ele><time>2026-05-02T15:29:01.097Z</time></trkpt><trkpt lat="42.2959467" lon="13.2695583"><ele>1005.4000000000001</ele><time>2026-05-02T15:29:03.097Z</time></trkpt><trkpt lat="42.2960467" lon="13.26959"><ele>1002.0</ele><time>2026-05-02T15:29:05.096Z</time></trkpt><trkpt lat="42.2961333" lon="13.2695333"><ele>1002.0</ele><time>2026-05-02T15:29:06.097Z</time></trkpt><trkpt lat="42.29624" lon="13.2694483"><ele>1002.0</ele><time>2026-05-02T15:29:07.096Z</time></trkpt><trkpt lat="42.2963733" lon="13.2693483"><ele>1002.0</ele><time>2026-05-02T15:29:08.096Z</time></trkpt><trkpt lat="42.296495" lon="13.269275"><ele>1002.0</ele><time>2026-05-02T15:29:09.096Z</time></trkpt><trkpt lat="42.2965967" lon="13.26922"><ele>998.3333333333334</ele><time>2026-05-02T15:29:10.097Z</time></trkpt><trkpt lat="42.29669" lon="13.269195"><ele>994.6666666666667</ele><time>2026-05-02T15:29:11.097Z</time></trkpt><trkpt lat="42.296765" lon="13.2691933"><ele>991.0</ele><time>2026-05-02T15:29:12.096Z</time></trkpt><trkpt lat="42.296835" lon="13.2692333"><ele>987.3333333333334</ele><time>2026-05-02T15:29:13.097Z</time></trkpt><trkpt lat="42.296895" lon="13.2693233"><ele>983.6666666666667</ele><time>2026-05-02T15:29:14.096Z</time></trkpt><trkpt lat="42.2969383" lon="13.26944"><ele>980.0</ele><time>2026-05-02T15:29:15.096Z</time></trkpt><trkpt lat="42.296955" lon="13.2695867"><ele>980.0</ele><time>2026-05-02T15:29:16.096Z</time></trkpt><trkpt lat="42.2969733" lon="13.2697233"><ele>980.0</ele><time>2026-05-02T15:29:17.097Z</time></trkpt><trkpt lat="42.29699" lon="13.2698717"><ele>980.0</ele><time>2026-05-02T15:29:18.097Z</time></trkpt><trkpt lat="42.296995" lon="13.27004"><ele>980.0</ele><time>2026-05-02T15:29:19.097Z</time></trkpt><trkpt lat="42.2970083" lon="13.2702383"><ele>978.3333333333334</ele><time>2026-05-02T15:29:20.097Z</time></trkpt><trkpt lat="42.2970417" lon="13.2704567"><ele>976.6666666666667</ele><time>2026-05-02T15:29:21.096Z</time></trkpt><trkpt lat="42.2970883" lon="13.2706967"><ele>975.0</ele><time>2026-05-02T15:29:22.096Z</time></trkpt><trkpt lat="42.29715" lon="13.27091"><ele>971.3333333333333</ele><time>2026-05-02T15:29:23.097Z</time></trkpt><trkpt lat="42.297215" lon="13.2710933"><ele>967.6666666666666</ele><time>2026-05-02T15:29:24.096Z</time></trkpt><trkpt lat="42.2972933" lon="13.2712833"><ele>964.0</ele><time>2026-05-02T15:29:25.096Z</time></trkpt><trkpt lat="42.297375" lon="13.2714483"><ele>960.0</ele><time>2026-05-02T15:29:26.096Z</time></trkpt><trkpt lat="42.2974783" lon="13.271595"><ele>956.0</ele><time>2026-05-02T15:29:27.097Z</time></trkpt><trkpt lat="42.2975817" lon="13.271725"><ele>952.0</ele><time>2026-05-02T15:29:28.097Z</time></trkpt><trkpt lat="42.297675" lon="13.2718283"><ele>948.0</ele><time>2026-05-02T15:29:29.097Z</time></trkpt><trkpt lat="42.29776" lon="13.2719083"><ele>948.0</ele><time>2026-05-02T15:29:30.097Z</time></trkpt><trkpt lat="42.2978317" lon="13.2719433"><ele>948.0</ele><time>2026-05-02T15:29:31.096Z</time></trkpt><trkpt lat="42.2978967" lon="13.2719417"><ele>948.0</ele><time>2026-05-02T15:29:32.096Z</time></trkpt><trkpt lat="42.2979517" lon="13.2718967"><ele>948.0</ele><time>2026-05-02T15:29:33.096Z</time></trkpt><trkpt lat="42.2980017" lon="13.2718133"><ele>948.0</ele><time>2026-05-02T15:29:34.097Z</time></trkpt><trkpt lat="42.298055" lon="13.27169"><ele>948.0</ele><time>2026-05-02T15:29:35.096Z</time></trkpt><trkpt lat="42.2981" lon="13.2715483"><ele>945.0</ele><time>2026-05-02T15:29:36.097Z</time></trkpt><trkpt lat="42.2981383" lon="13.271435"><ele>942.0</ele><time>2026-05-02T15:29:37.096Z</time></trkpt><trkpt lat="42.2981817" lon="13.271355"><ele>939.0</ele><time>2026-05-02T15:29:38.096Z</time></trkpt><trkpt lat="42.2982367" lon="13.27131"><ele>936.0</ele><time>2026-05-02T15:29:39.097Z</time></trkpt><trkpt lat="42.2983033" lon="13.27132"><ele>933.0</ele><time>2026-05-02T15:29:40.097Z</time></trkpt><trkpt lat="42.2983817" lon="13.2713717"><ele>930.0</ele><time>2026-05-02T15:29:41.097Z</time></trkpt><trkpt lat="42.2984583" lon="13.27147"><ele>930.0</ele><time>2026-05-02T15:29:42.097Z</time></trkpt><trkpt lat="42.2985117" lon="13.2715683"><ele>930.0</ele><time>2026-05-02T15:29:43.096Z</time></trkpt><trkpt lat="42.298555" lon="13.2716433"><ele>930.0</ele><time>2026-05-02T15:29:44.096Z</time></trkpt><trkpt lat="42.29861" lon="13.2717433"><ele>930.0</ele><time>2026-05-02T15:29:46.096Z</time></trkpt><trkpt lat="42.2986483" lon="13.2718333"><ele>930.0</ele><time>2026-05-02T15:29:53.097Z</time></trkpt><trkpt lat="42.29868" lon="13.2719267"><ele>930.0</ele><time>2026-05-02T15:29:55.096Z</time></trkpt><trkpt lat="42.2986433" lon="13.27182"><ele>930.0</ele><time>2026-05-02T15:30:09.096Z</time></trkpt><trkpt lat="42.2985983" lon="13.2717167"><ele>930.0</ele><time>2026-05-02T15:30:10.097Z</time></trkpt><trkpt lat="42.2985383" lon="13.2716033"><ele>930.0</ele><time>2026-05-02T15:30:11.096Z</time></trkpt><trkpt lat="42.2984567" lon="13.2714783"><ele>930.0</ele><time>2026-05-02T15:30:12.096Z</time></trkpt><trkpt lat="42.2983767" lon="13.27138"><ele>930.0</ele><time>2026-05-02T15:30:13.096Z</time></trkpt><trkpt lat="42.29831" lon="13.2713233"><ele>930.0</ele><time>2026-05-02T15:30:14.096Z</time></trkpt><trkpt lat="42.2982117" lon="13.2713233"><ele>930.0</ele><time>2026-05-02T15:30:16.097Z</time></trkpt><trkpt lat="42.2981667" lon="13.27139"><ele>930.0</ele><time>2026-05-02T15:30:17.097Z</time></trkpt><trkpt lat="42.2981233" lon="13.27148"><ele>930.0</ele><time>2026-05-02T15:30:18.097Z</time></trkpt><trkpt lat="42.2980717" lon="13.2715833"><ele>930.0</ele><time>2026-05-02T15:30:19.097Z</time></trkpt><trkpt lat="42.2980283" lon="13.2716983"><ele>930.0</ele><time>2026-05-02T15:30:20.096Z</time></trkpt><trkpt lat="42.29798" lon="13.271815"><ele>933.0</ele><time>2026-05-02T15:30:21.097Z</time></trkpt><trkpt lat="42.29793" lon="13.2719083"><ele>936.0</ele><time>2026-05-02T15:30:22.097Z</time></trkpt><trkpt lat="42.29787" lon="13.2719367"><ele>939.0</ele><time>2026-05-02T15:30:23.096Z</time></trkpt><trkpt lat="42.2977933" lon="13.271925"><ele>942.0</ele><time>2026-05-02T15:30:24.096Z</time></trkpt><trkpt lat="42.2977183" lon="13.2718633"><ele>945.0</ele><time>2026-05-02T15:30:25.096Z</time></trkpt><trkpt lat="42.2976433" lon="13.27177"><ele>948.0</ele><time>2026-05-02T15:30:26.096Z</time></trkpt><trkpt lat="42.297555" lon="13.2716617"><ele>948.0</ele><time>2026-05-02T15:30:27.096Z</time></trkpt><trkpt lat="42.2974567" lon="13.2715417"><ele>948.0</ele><time>2026-05-02T15:30:28.097Z</time></trkpt><trkpt lat="42.29738" lon="13.2714317"><ele>948.0</ele><time>2026-05-02T15:30:29.097Z</time></trkpt><trkpt lat="42.2973233" lon="13.271345"><ele>948.0</ele><time>2026-05-02T15:30:30.097Z</time></trkpt><trkpt lat="42.297265" lon="13.2712183"><ele>948.0</ele><time>2026-05-02T15:30:32.097Z</time></trkpt><trkpt lat="42.29722" lon="13.2710917"><ele>950.6666666666666</ele><time>2026-05-02T15:30:34.096Z</time></trkpt><trkpt lat="42.2971683" lon="13.2710367"><ele>953.3333333333333</ele><time>2026-05-02T15:30:37.096Z</time></trkpt><trkpt lat="42.297165" lon="13.2711517"><ele>956.0</ele><time>2026-05-02T15:30:40.096Z</time></trkpt><trkpt lat="42.2971467" lon="13.2712933"><ele>958.6666666666666</ele><time>2026-05-02T15:30:42.097Z</time></trkpt><trkpt lat="42.2971233" lon="13.2713817"><ele>961.3333333333333</ele><time>2026-05-02T15:30:44.097Z</time></trkpt><trkpt lat="42.297155" lon="13.2712433"><ele>964.0</ele><time>2026-05-02T15:31:04.096Z</time></trkpt><trkpt lat="42.2971617" lon="13.2711567"><ele>963.9999999999999</ele><time>2026-05-02T15:31:06.097Z</time></trkpt><trkpt lat="42.2971667" lon="13.27107"><ele>964.0</ele><time>2026-05-02T15:31:20.096Z</time></trkpt><trkpt lat="42.2971417" lon="13.27094"><ele>964.0</ele><time>2026-05-02T15:31:57.097Z</time></trkpt><trkpt lat="42.2971117" lon="13.2707983"><ele>964.0</ele><time>2026-05-02T15:31:59.097Z</time></trkpt><trkpt lat="42.2970567" lon="13.2708767"><ele>963.9999999999999</ele><time>2026-05-02T15:32:04.096Z</time></trkpt><trkpt lat="42.2970717" lon="13.2709983"><ele>964.0</ele><time>2026-05-02T15:32:06.096Z</time></trkpt><trkpt lat="42.2970783" lon="13.271115"><ele>963.9999999999999</ele><time>2026-05-02T15:32:08.097Z</time></trkpt><trkpt lat="42.2970483" lon="13.27124"><ele>964.0</ele><time>2026-05-02T15:32:10.097Z</time></trkpt><trkpt lat="42.29699" lon="13.271365"><ele>964.0</ele><time>2026-05-02T15:32:12.097Z</time></trkpt><trkpt lat="42.2969433" lon="13.27143"><ele>964.0</ele><time>2026-05-02T15:32:13.096Z</time></trkpt><trkpt lat="42.2968967" lon="13.2714967"><ele>963.9999999999999</ele><time>2026-05-02T15:32:14.096Z</time></trkpt><trkpt lat="42.2968483" lon="13.271555"><ele>964.0</ele><time>2026-05-02T15:32:15.096Z</time></trkpt><trkpt lat="42.2967833" lon="13.2716717"><ele>963.3333333333333</ele><time>2026-05-02T15:32:17.096Z</time></trkpt><trkpt lat="42.2967517" lon="13.2717533"><ele>962.6666666666666</ele><time>2026-05-02T15:32:18.097Z</time></trkpt><trkpt lat="42.2967233" lon="13.2718633"><ele>962.0</ele><time>2026-05-02T15:32:19.096Z</time></trkpt><trkpt lat="42.2967083" lon="13.2719917"><ele>961.3333333333333</ele><time>2026-05-02T15:32:20.097Z</time></trkpt><trkpt lat="42.2966867" lon="13.272125"><ele>960.6666666666666</ele><time>2026-05-02T15:32:21.097Z</time></trkpt><trkpt lat="42.2966683" lon="13.27225"><ele>960.0</ele><time>2026-05-02T15:32:22.097Z</time></trkpt><trkpt lat="42.2966483" lon="13.2723567"><ele>959.0</ele><time>2026-05-02T15:32:23.096Z</time></trkpt><trkpt lat="42.2966233" lon="13.2725"><ele>958.0</ele><time>2026-05-02T15:32:25.096Z</time></trkpt><trkpt lat="42.2966683" lon="13.2726383"><ele>957.0</ele><time>2026-05-02T15:32:27.097Z</time></trkpt><trkpt lat="42.2967067" lon="13.272735"><ele>956.0</ele><time>2026-05-02T15:32:28.096Z</time></trkpt><trkpt lat="42.2967333" lon="13.2728433"><ele>955.0</ele><time>2026-05-02T15:32:29.096Z</time></trkpt><trkpt lat="42.2967567" lon="13.2729283"><ele>954.9999999999999</ele><time>2026-05-02T15:32:30.096Z</time></trkpt><trkpt lat="42.2967733" lon="13.27307"><ele>955.0</ele><time>2026-05-02T15:32:32.097Z</time></trkpt><trkpt lat="42.2967667" lon="13.273155"><ele>955.0</ele><time>2026-05-02T15:32:34.097Z</time></trkpt><trkpt lat="42.2967533" lon="13.2732433"><ele>955.0</ele><time>2026-05-02T15:32:43.096Z</time></trkpt><trkpt lat="42.2967383" lon="13.27334"><ele>954.9999999999999</ele><time>2026-05-02T15:32:46.097Z</time></trkpt><trkpt lat="42.296735" lon="13.2734517"><ele>955.0</ele><time>2026-05-02T15:32:50.097Z</time></trkpt><trkpt lat="42.2967167" lon="13.273545"><ele>954.4</ele><time>2026-05-02T15:32:52.096Z</time></trkpt><trkpt lat="42.2966883" lon="13.273645"><ele>953.8</ele><time>2026-05-02T15:32:54.097Z</time></trkpt><trkpt lat="42.29662" lon="13.27374"><ele>953.2</ele><time>2026-05-02T15:32:56.097Z</time></trkpt><trkpt lat="42.2965333" lon="13.27386"><ele>952.6</ele><time>2026-05-02T15:32:58.097Z</time></trkpt><trkpt lat="42.2964567" lon="13.2739733"><ele>952.0</ele><time>2026-05-02T15:33:00.097Z</time></trkpt><trkpt lat="42.29641" lon="13.2740467"><ele>954.6666666666666</ele><time>2026-05-02T15:33:01.097Z</time></trkpt><trkpt lat="42.296365" lon="13.2741333"><ele>957.3333333333333</ele><time>2026-05-02T15:33:02.097Z</time></trkpt><trkpt lat="42.2963183" lon="13.2742333"><ele>960.0</ele><time>2026-05-02T15:33:03.097Z</time></trkpt><trkpt lat="42.2962767" lon="13.2743283"><ele>962.6666666666667</ele><time>2026-05-02T15:33:04.097Z</time></trkpt><trkpt lat="42.2962333" lon="13.2744433"><ele>965.3333333333334</ele><time>2026-05-02T15:33:05.097Z</time></trkpt><trkpt lat="42.2962" lon="13.2745567"><ele>968.0</ele><time>2026-05-02T15:33:06.096Z</time></trkpt><trkpt lat="42.296165" lon="13.274675"><ele>965.0000000000001</ele><time>2026-05-02T15:33:07.096Z</time></trkpt><trkpt lat="42.2961283" lon="13.274795"><ele>962.0</ele><time>2026-05-02T15:33:08.097Z</time></trkpt><trkpt lat="42.29609" lon="13.2749067"><ele>959.0</ele><time>2026-05-02T15:33:09.096Z</time></trkpt><trkpt lat="42.296065" lon="13.2750067"><ele>956.0</ele><time>2026-05-02T15:33:10.096Z</time></trkpt><trkpt lat="42.296035" lon="13.2751067"><ele>953.0000000000001</ele><time>2026-05-02T15:33:11.096Z</time></trkpt><trkpt lat="42.296" lon="13.2751933"><ele>950.0</ele><time>2026-05-02T15:33:12.096Z</time></trkpt><trkpt lat="42.29596" lon="13.2752633"><ele>950.0</ele><time>2026-05-02T15:33:13.096Z</time></trkpt><trkpt lat="42.295915" lon="13.2753317"><ele>950.0</ele><time>2026-05-02T15:33:14.096Z</time></trkpt><trkpt lat="42.29584" lon="13.2754567"><ele>950.0</ele><time>2026-05-02T15:33:16.097Z</time></trkpt><trkpt lat="42.2957917" lon="13.275595"><ele>950.0</ele><time>2026-05-02T15:33:18.096Z</time></trkpt><trkpt lat="42.2957383" lon="13.2757"><ele>950.0</ele><time>2026-05-02T15:33:20.096Z</time></trkpt><trkpt lat="42.2956417" lon="13.275805"><ele>948.4</ele><time>2026-05-02T15:33:22.096Z</time></trkpt><trkpt lat="42.29559" lon="13.2758633"><ele>946.8</ele><time>2026-05-02T15:33:23.097Z</time></trkpt><trkpt lat="42.2955" lon="13.27599"><ele>945.2</ele><time>2026-05-02T15:33:25.096Z</time></trkpt><trkpt lat="42.2954517" lon="13.2761267"><ele>943.6</ele><time>2026-05-02T15:33:27.097Z</time></trkpt><trkpt lat="42.2954133" lon="13.2762417"><ele>942.0</ele><time>2026-05-02T15:33:29.096Z</time></trkpt><trkpt lat="42.2953617" lon="13.276375"><ele>940.6666666666666</ele><time>2026-05-02T15:33:31.097Z</time></trkpt><trkpt lat="42.2953233" lon="13.276505"><ele>939.3333333333333</ele><time>2026-05-02T15:33:33.096Z</time></trkpt><trkpt lat="42.2952933" lon="13.2766017"><ele>938.0</ele><time>2026-05-02T15:33:35.097Z</time></trkpt><trkpt lat="42.2952517" lon="13.2766783"><ele>936.6666666666666</ele><time>2026-05-02T15:33:37.097Z</time></trkpt><trkpt lat="42.2952083" lon="13.276785"><ele>935.3333333333333</ele><time>2026-05-02T15:33:40.096Z</time></trkpt><trkpt lat="42.2951833" lon="13.2768667"><ele>934.0</ele><time>2026-05-02T15:33:42.096Z</time></trkpt><trkpt lat="42.2951583" lon="13.27696"><ele>933.9999999999999</ele><time>2026-05-02T15:33:44.097Z</time></trkpt><trkpt lat="42.295135" lon="13.27707"><ele>934.0</ele><time>2026-05-02T15:33:46.096Z</time></trkpt><trkpt lat="42.2951133" lon="13.27718"><ele>934.0</ele><time>2026-05-02T15:33:48.097Z</time></trkpt><trkpt lat="42.295085" lon="13.2772667"><ele>934.0</ele><time>2026-05-02T15:33:50.097Z</time></trkpt><trkpt lat="42.295045" lon="13.277385"><ele>933.9999999999999</ele><time>2026-05-02T15:33:52.097Z</time></trkpt><trkpt lat="42.2950117" lon="13.2775267"><ele>934.0</ele><time>2026-05-02T15:33:54.096Z</time></trkpt><trkpt lat="42.2949917" lon="13.27762"><ele>931.8000000000001</ele><time>2026-05-02T15:33:55.096Z</time></trkpt><trkpt lat="42.2949683" lon="13.2777683"><ele>929.6000000000001</ele><time>2026-05-02T15:33:57.096Z</time></trkpt><trkpt lat="42.2949467" lon="13.27794"><ele>927.4</ele><time>2026-05-02T15:33:59.096Z</time></trkpt><trkpt lat="42.2949533" lon="13.2780617"><ele>925.2</ele><time>2026-05-02T15:34:00.096Z</time></trkpt><trkpt lat="42.29497" lon="13.2781917"><ele>923.0</ele><time>2026-05-02T15:34:01.097Z</time></trkpt><trkpt lat="42.2949967" lon="13.2783017"><ele>920.8333333333334</ele><time>2026-05-02T15:34:02.097Z</time></trkpt><trkpt lat="42.29502" lon="13.2783967"><ele>918.6666666666667</ele><time>2026-05-02T15:34:03.097Z</time></trkpt><trkpt lat="42.2950567" lon="13.2785167"><ele>916.5</ele><time>2026-05-02T15:34:05.097Z</time></trkpt><trkpt lat="42.29511" lon="13.27861"><ele>914.3333333333333</ele><time>2026-05-02T15:34:08.097Z</time></trkpt><trkpt lat="42.2951683" lon="13.2786867"><ele>912.1666666666666</ele><time>2026-05-02T15:34:10.097Z</time></trkpt><trkpt lat="42.2952117" lon="13.278775"><ele>910.0</ele><time>2026-05-02T15:34:12.097Z</time></trkpt><trkpt lat="42.295215" lon="13.2788733"><ele>907.4999999999999</ele><time>2026-05-02T15:34:14.096Z</time></trkpt><trkpt lat="42.29519" lon="13.2790233"><ele>905.0</ele><time>2026-05-02T15:34:16.097Z</time></trkpt><trkpt lat="42.29516" lon="13.279105"><ele>902.5</ele><time>2026-05-02T15:34:17.096Z</time></trkpt><trkpt lat="42.2951267" lon="13.2792017"><ele>900.0</ele><time>2026-05-02T15:34:18.096Z</time></trkpt><trkpt lat="42.29509" lon="13.27931"><ele>897.4999999999999</ele><time>2026-05-02T15:34:19.096Z</time></trkpt><trkpt lat="42.29506" lon="13.2794133"><ele>895.0</ele><time>2026-05-02T15:34:20.096Z</time></trkpt><trkpt lat="42.2950417" lon="13.2795167"><ele>895.0</ele><time>2026-05-02T15:34:21.097Z</time></trkpt><trkpt lat="42.29504" lon="13.2796117"><ele>895.0</ele><time>2026-05-02T15:34:22.097Z</time></trkpt><trkpt lat="42.2950633" lon="13.2797033"><ele>895.0</ele><time>2026-05-02T15:34:23.096Z</time></trkpt><trkpt lat="42.295095" lon="13.2797917"><ele>895.0</ele><time>2026-05-02T15:34:24.096Z</time></trkpt><trkpt lat="42.2951333" lon="13.2798767"><ele>895.0</ele><time>2026-05-02T15:34:25.097Z</time></trkpt><trkpt lat="42.2951833" lon="13.279955"><ele>895.0</ele><time>2026-05-02T15:34:26.097Z</time></trkpt><trkpt lat="42.2952333" lon="13.2800217"><ele>895.0</ele><time>2026-05-02T15:34:27.096Z</time></trkpt><trkpt lat="42.2952817" lon="13.280105"><ele>895.1666666666666</ele><time>2026-05-02T15:34:28.096Z</time></trkpt><trkpt lat="42.2953367" lon="13.28018"><ele>895.3333333333333</ele><time>2026-05-02T15:34:29.096Z</time></trkpt><trkpt lat="42.2953833" lon="13.2802467"><ele>895.5</ele><time>2026-05-02T15:34:30.096Z</time></trkpt><trkpt lat="42.2954783" lon="13.28035"><ele>895.6666666666667</ele><time>2026-05-02T15:34:32.097Z</time></trkpt><trkpt lat="42.2955333" lon="13.2803933"><ele>895.8333333333334</ele><time>2026-05-02T15:34:33.096Z</time></trkpt><trkpt lat="42.2955933" lon="13.2804433"><ele>896.0</ele><time>2026-05-02T15:34:34.097Z</time></trkpt><trkpt lat="42.29565" lon="13.28049"><ele>891.4</ele><time>2026-05-02T15:34:35.097Z</time></trkpt><trkpt lat="42.2957033" lon="13.28055"><ele>886.8</ele><time>2026-05-02T15:34:36.097Z</time></trkpt><trkpt lat="42.2957517" lon="13.2806083"><ele>882.1999999999999</ele><time>2026-05-02T15:34:37.097Z</time></trkpt><trkpt lat="42.295845" lon="13.280705"><ele>877.5999999999999</ele><time>2026-05-02T15:34:39.097Z</time></trkpt><trkpt lat="42.29595" lon="13.2807817"><ele>873.0</ele><time>2026-05-02T15:34:41.097Z</time></trkpt><trkpt lat="42.296045" lon="13.2808567"><ele>873.0</ele><time>2026-05-02T15:34:43.096Z</time></trkpt><trkpt lat="42.2961267" lon="13.2809783"><ele>873.0</ele><time>2026-05-02T15:34:45.097Z</time></trkpt><trkpt lat="42.2961817" lon="13.28106"><ele>873.0</ele><time>2026-05-02T15:34:46.096Z</time></trkpt><trkpt lat="42.2962517" lon="13.281145"><ele>873.0</ele><time>2026-05-02T15:34:47.097Z</time></trkpt><trkpt lat="42.296325" lon="13.2812467"><ele>873.0</ele><time>2026-05-02T15:34:48.097Z</time></trkpt><trkpt lat="42.296405" lon="13.2813567"><ele>869.5999999999999</ele><time>2026-05-02T15:34:49.097Z</time></trkpt><trkpt lat="42.296485" lon="13.2814617"><ele>866.1999999999999</ele><time>2026-05-02T15:34:50.097Z</time></trkpt><trkpt lat="42.2965533" lon="13.281545"><ele>862.8</ele><time>2026-05-02T15:34:51.096Z</time></trkpt><trkpt lat="42.2966217" lon="13.2816067"><ele>859.4</ele><time>2026-05-02T15:34:52.095Z</time></trkpt><trkpt lat="42.29671" lon="13.28164"><ele>856.0</ele><time>2026-05-02T15:34:53.096Z</time></trkpt><trkpt lat="42.29681" lon="13.2816817"><ele>855.9999999999999</ele><time>2026-05-02T15:34:54.096Z</time></trkpt><trkpt lat="42.296915" lon="13.2817283"><ele>856.0</ele><time>2026-05-02T15:34:55.095Z</time></trkpt><trkpt lat="42.2969967" lon="13.2817633"><ele>856.0</ele><time>2026-05-02T15:34:56.095Z</time></trkpt><trkpt lat="42.2970667" lon="13.28179"><ele>856.0</ele><time>2026-05-02T15:34:57.095Z</time></trkpt><trkpt lat="42.2971383" lon="13.2818167"><ele>855.9999999999999</ele><time>2026-05-02T15:34:58.096Z</time></trkpt><trkpt lat="42.2972117" lon="13.28183"><ele>856.0</ele><time>2026-05-02T15:34:59.096Z</time></trkpt><trkpt lat="42.2972867" lon="13.28183"><ele>855.1666666666666</ele><time>2026-05-02T15:35:00.095Z</time></trkpt><trkpt lat="42.2973733" lon="13.2818167"><ele>854.3333333333333</ele><time>2026-05-02T15:35:01.095Z</time></trkpt><trkpt lat="42.2974667" lon="13.2817883"><ele>853.5</ele><time>2026-05-02T15:35:02.096Z</time></trkpt><trkpt lat="42.297555" lon="13.2817633"><ele>852.6666666666667</ele><time>2026-05-02T15:35:03.096Z</time></trkpt><trkpt lat="42.297635" lon="13.28174"><ele>851.8333333333334</ele><time>2026-05-02T15:35:04.095Z</time></trkpt><trkpt lat="42.2977117" lon="13.2817183"><ele>851.0</ele><time>2026-05-02T15:35:05.096Z</time></trkpt><trkpt lat="42.2977983" lon="13.281675"><ele>851.0</ele><time>2026-05-02T15:35:06.095Z</time></trkpt><trkpt lat="42.29789" lon="13.2816217"><ele>851.0</ele><time>2026-05-02T15:35:07.096Z</time></trkpt><trkpt lat="42.2979767" lon="13.28156"><ele>851.0</ele><time>2026-05-02T15:35:08.095Z</time></trkpt><trkpt lat="42.2980617" lon="13.2815"><ele>851.0</ele><time>2026-05-02T15:35:09.095Z</time></trkpt><trkpt lat="42.29814" lon="13.2814533"><ele>851.0</ele><time>2026-05-02T15:35:10.096Z</time></trkpt><trkpt lat="42.29823" lon="13.2814167"><ele>848.5</ele><time>2026-05-02T15:35:11.096Z</time></trkpt><trkpt lat="42.29834" lon="13.2813867"><ele>846.0</ele><time>2026-05-02T15:35:12.095Z</time></trkpt><trkpt lat="42.2984633" lon="13.28136"><ele>843.5</ele><time>2026-05-02T15:35:13.095Z</time></trkpt><trkpt lat="42.29858" lon="13.2813117"><ele>841.0</ele><time>2026-05-02T15:35:14.095Z</time></trkpt><trkpt lat="42.2986733" lon="13.28127"><ele>840.9999999999999</ele><time>2026-05-02T15:35:15.096Z</time></trkpt><trkpt lat="42.2987417" lon="13.281255"><ele>841.0</ele><time>2026-05-02T15:35:16.096Z</time></trkpt><trkpt lat="42.2988083" lon="13.28125"><ele>841.0</ele><time>2026-05-02T15:35:17.096Z</time></trkpt><trkpt lat="42.2988833" lon="13.281285"><ele>841.0</ele><time>2026-05-02T15:35:18.095Z</time></trkpt><trkpt lat="42.29896" lon="13.2813467"><ele>840.9999999999999</ele><time>2026-05-02T15:35:19.096Z</time></trkpt><trkpt lat="42.2990367" lon="13.2814267"><ele>841.0</ele><time>2026-05-02T15:35:20.095Z</time></trkpt><trkpt lat="42.2991017" lon="13.281495"><ele>842.8333333333333</ele><time>2026-05-02T15:35:21.096Z</time></trkpt><trkpt lat="42.2991617" lon="13.2815583"><ele>844.6666666666666</ele><time>2026-05-02T15:35:22.096Z</time></trkpt><trkpt lat="42.2992333" lon="13.2816117"><ele>846.5</ele><time>2026-05-02T15:35:23.096Z</time></trkpt><trkpt lat="42.2993167" lon="13.2816533"><ele>848.3333333333333</ele><time>2026-05-02T15:35:24.095Z</time></trkpt><trkpt lat="42.2993917" lon="13.28169"><ele>850.1666666666666</ele><time>2026-05-02T15:35:25.096Z</time></trkpt><trkpt lat="42.2994683" lon="13.2817483"><ele>852.0</ele><time>2026-05-02T15:35:26.096Z</time></trkpt><trkpt lat="42.2995483" lon="13.2818383"><ele>852.0</ele><time>2026-05-02T15:35:28.095Z</time></trkpt><trkpt lat="42.29961" lon="13.2819283"><ele>852.0</ele><time>2026-05-02T15:35:30.096Z</time></trkpt><trkpt lat="42.2996733" lon="13.2820183"><ele>852.0</ele><time>2026-05-02T15:35:32.095Z</time></trkpt><trkpt lat="42.299745" lon="13.2821317"><ele>852.0</ele><time>2026-05-02T15:35:34.095Z</time></trkpt><trkpt lat="42.2998017" lon="13.2822367"><ele>852.0</ele><time>2026-05-02T15:35:36.096Z</time></trkpt><trkpt lat="42.2998433" lon="13.282345"><ele>849.8</ele><time>2026-05-02T15:35:38.096Z</time></trkpt><trkpt lat="42.2999083" lon="13.2824717"><ele>847.6</ele><time>2026-05-02T15:35:40.096Z</time></trkpt><trkpt lat="42.29999" lon="13.2825983"><ele>845.4</ele><time>2026-05-02T15:35:42.096Z</time></trkpt><trkpt lat="42.30004" lon="13.2826833"><ele>843.1999999999999</ele><time>2026-05-02T15:35:43.096Z</time></trkpt><trkpt lat="42.3000833" lon="13.282755"><ele>841.0</ele><time>2026-05-02T15:35:44.096Z</time></trkpt><trkpt lat="42.3001267" lon="13.2828333"><ele>840.9999999999999</ele><time>2026-05-02T15:35:45.096Z</time></trkpt><trkpt lat="42.3001767" lon="13.2829083"><ele>841.0</ele><time>2026-05-02T15:35:46.095Z</time></trkpt><trkpt lat="42.3002233" lon="13.282995"><ele>841.0</ele><time>2026-05-02T15:35:47.095Z</time></trkpt><trkpt lat="42.3002683" lon="13.28308"><ele>841.0</ele><time>2026-05-02T15:35:48.095Z</time></trkpt><trkpt lat="42.3003067" lon="13.2831533"><ele>840.9999999999999</ele><time>2026-05-02T15:35:49.096Z</time></trkpt><trkpt lat="42.3003567" lon="13.2832917"><ele>841.0</ele><time>2026-05-02T15:35:51.095Z</time></trkpt><trkpt lat="42.3003567" lon="13.2833883"><ele>839.0</ele><time>2026-05-02T15:35:54.096Z</time></trkpt><trkpt lat="42.300245" lon="13.2834467"><ele>837.0</ele><time>2026-05-02T15:35:58.095Z</time></trkpt><trkpt lat="42.3001633" lon="13.283455"><ele>835.0</ele><time>2026-05-02T15:35:59.095Z</time></trkpt><trkpt lat="42.3000733" lon="13.283465"><ele>833.0</ele><time>2026-05-02T15:36:00.096Z</time></trkpt><trkpt lat="42.2999667" lon="13.2834933"><ele>831.0</ele><time>2026-05-02T15:36:01.095Z</time></trkpt><trkpt lat="42.2998517" lon="13.2835417"><ele>831.6666666666667</ele><time>2026-05-02T15:36:02.095Z</time></trkpt><trkpt lat="42.299725" lon="13.283615"><ele>832.3333333333334</ele><time>2026-05-02T15:36:03.096Z</time></trkpt><trkpt lat="42.2995817" lon="13.28371"><ele>833.0</ele><time>2026-05-02T15:36:04.096Z</time></trkpt><trkpt lat="42.2994317" lon="13.283835"><ele>829.75</ele><time>2026-05-02T15:36:05.096Z</time></trkpt><trkpt lat="42.2992883" lon="13.2839433"><ele>826.5</ele><time>2026-05-02T15:36:06.096Z</time></trkpt><trkpt lat="42.2991583" lon="13.2840417"><ele>823.25</ele><time>2026-05-02T15:36:07.095Z</time></trkpt><trkpt lat="42.2990317" lon="13.2840767"><ele>820.0</ele><time>2026-05-02T15:36:08.096Z</time></trkpt><trkpt lat="42.298915" lon="13.2840667"><ele>819.25</ele><time>2026-05-02T15:36:09.096Z</time></trkpt><trkpt lat="42.2988" lon="13.2840183"><ele>818.5</ele><time>2026-05-02T15:36:10.096Z</time></trkpt><trkpt lat="42.2986817" lon="13.2839417"><ele>817.75</ele><time>2026-05-02T15:36:11.095Z</time></trkpt><trkpt lat="42.29857" lon="13.2838617"><ele>817.0</ele><time>2026-05-02T15:36:12.095Z</time></trkpt><trkpt lat="42.2984567" lon="13.2838033"><ele>820.0</ele><time>2026-05-02T15:36:13.095Z</time></trkpt><trkpt lat="42.2983433" lon="13.2837767"><ele>823.0</ele><time>2026-05-02T15:36:14.095Z</time></trkpt><trkpt lat="42.2982233" lon="13.2838017"><ele>826.0</ele><time>2026-05-02T15:36:15.096Z</time></trkpt><trkpt lat="42.298105" lon="13.2838617"><ele>829.0</ele><time>2026-05-02T15:36:16.095Z</time></trkpt><trkpt lat="42.2979983" lon="13.28393"><ele>828.1666666666666</ele><time>2026-05-02T15:36:17.096Z</time></trkpt><trkpt lat="42.2979117" lon="13.283995"><ele>827.3333333333333</ele><time>2026-05-02T15:36:18.096Z</time></trkpt><trkpt lat="42.2978483" lon="13.2840433"><ele>826.5</ele><time>2026-05-02T15:36:19.095Z</time></trkpt><trkpt lat="42.297795" lon="13.2841367"><ele>825.6666666666667</ele><time>2026-05-02T15:36:21.095Z</time></trkpt><trkpt lat="42.2978517" lon="13.2842"><ele>824.8333333333334</ele><time>2026-05-02T15:36:23.096Z</time></trkpt><trkpt lat="42.2979183" lon="13.28422"><ele>824.0</ele><time>2026-05-02T15:36:24.095Z</time></trkpt><trkpt lat="42.29802" lon="13.2842183"><ele>822.25</ele><time>2026-05-02T15:36:25.096Z</time></trkpt><trkpt lat="42.2981333" lon="13.2842317"><ele>820.5</ele><time>2026-05-02T15:36:26.096Z</time></trkpt><trkpt lat="42.2982617" lon="13.2842467"><ele>818.75</ele><time>2026-05-02T15:36:27.096Z</time></trkpt><trkpt lat="42.2983917" lon="13.2842783"><ele>817.0</ele><time>2026-05-02T15:36:28.095Z</time></trkpt><trkpt lat="42.298515" lon="13.2843083"><ele>817.0</ele><time>2026-05-02T15:36:29.095Z</time></trkpt><trkpt lat="42.2986217" lon="13.284365"><ele>817.0</ele><time>2026-05-02T15:36:30.095Z</time></trkpt><trkpt lat="42.298715" lon="13.2844233"><ele>817.0</ele><time>2026-05-02T15:36:31.096Z</time></trkpt><trkpt lat="42.2988017" lon="13.2845017"><ele>817.0</ele><time>2026-05-02T15:36:32.095Z</time></trkpt><trkpt lat="42.2988833" lon="13.2846017"><ele>817.0</ele><time>2026-05-02T15:36:33.096Z</time></trkpt><trkpt lat="42.2989633" lon="13.28473"><ele>815.5</ele><time>2026-05-02T15:36:34.096Z</time></trkpt><trkpt lat="42.2990467" lon="13.2848733"><ele>814.0</ele><time>2026-05-02T15:36:35.095Z</time></trkpt><trkpt lat="42.299125" lon="13.285015"><ele>812.5</ele><time>2026-05-02T15:36:36.095Z</time></trkpt><trkpt lat="42.2991867" lon="13.28515"><ele>811.0</ele><time>2026-05-02T15:36:37.096Z</time></trkpt><trkpt lat="42.29924" lon="13.2852783"><ele>811.0</ele><time>2026-05-02T15:36:38.096Z</time></trkpt><trkpt lat="42.2992933" lon="13.2854183"><ele>811.0</ele><time>2026-05-02T15:36:39.096Z</time></trkpt><trkpt lat="42.299335" lon="13.2855717"><ele>811.0</ele><time>2026-05-02T15:36:40.095Z</time></trkpt><trkpt lat="42.2993683" lon="13.2857233"><ele>811.0</ele><time>2026-05-02T15:36:41.095Z</time></trkpt><trkpt lat="42.2994033" lon="13.2858933"><ele>809.75</ele><time>2026-05-02T15:36:42.095Z</time></trkpt><trkpt lat="42.2994217" lon="13.2860833"><ele>808.5</ele><time>2026-05-02T15:36:43.095Z</time></trkpt><trkpt lat="42.29944" lon="13.2862867"><ele>807.25</ele><time>2026-05-02T15:36:44.096Z</time></trkpt><trkpt lat="42.29945" lon="13.2864917"><ele>806.0</ele><time>2026-05-02T15:36:45.096Z</time></trkpt><trkpt lat="42.2994517" lon="13.2866817"><ele>804.5</ele><time>2026-05-02T15:36:46.095Z</time></trkpt><trkpt lat="42.29946" lon="13.2868667"><ele>803.0</ele><time>2026-05-02T15:36:47.095Z</time></trkpt><trkpt lat="42.299475" lon="13.287025"><ele>801.5</ele><time>2026-05-02T15:36:48.096Z</time></trkpt><trkpt lat="42.2994883" lon="13.2871833"><ele>800.0</ele><time>2026-05-02T15:36:49.095Z</time></trkpt><trkpt lat="42.2995183" lon="13.2873317"><ele>800.4</ele><time>2026-05-02T15:36:50.095Z</time></trkpt><trkpt lat="42.299565" lon="13.2874667"><ele>800.8</ele><time>2026-05-02T15:36:51.096Z</time></trkpt><trkpt lat="42.29963" lon="13.2875967"><ele>801.2</ele><time>2026-05-02T15:36:52.095Z</time></trkpt><trkpt lat="42.2997067" lon="13.287705"><ele>801.6</ele><time>2026-05-02T15:36:53.096Z</time></trkpt><trkpt lat="42.299795" lon="13.2877783"><ele>802.0</ele><time>2026-05-02T15:36:54.095Z</time></trkpt><trkpt lat="42.2998967" lon="13.2878133"><ele>802.0</ele><time>2026-05-02T15:36:55.096Z</time></trkpt><trkpt lat="42.3000083" lon="13.2878067"><ele>802.0</ele><time>2026-05-02T15:36:56.096Z</time></trkpt><trkpt lat="42.300125" lon="13.2877817"><ele>802.0</ele><time>2026-05-02T15:36:57.096Z</time></trkpt><trkpt lat="42.300245" lon="13.2877517"><ele>802.0</ele><time>2026-05-02T15:36:58.095Z</time></trkpt><trkpt lat="42.30038" lon="13.28773"><ele>802.0</ele><time>2026-05-02T15:36:59.096Z</time></trkpt><trkpt lat="42.3005067" lon="13.287725"><ele>802.0</ele><time>2026-05-02T15:37:00.095Z</time></trkpt><trkpt lat="42.3006283" lon="13.2877283"><ele>802.0</ele><time>2026-05-02T15:37:01.096Z</time></trkpt><trkpt lat="42.3007683" lon="13.287715"><ele>802.0</ele><time>2026-05-02T15:37:02.095Z</time></trkpt><trkpt lat="42.3009" lon="13.287705"><ele>800.75</ele><time>2026-05-02T15:37:03.095Z</time></trkpt><trkpt lat="42.3010267" lon="13.2877"><ele>799.5</ele><time>2026-05-02T15:37:04.095Z</time></trkpt><trkpt lat="42.3011483" lon="13.2876667"><ele>798.25</ele><time>2026-05-02T15:37:05.095Z</time></trkpt><trkpt lat="42.3012667" lon="13.287615"><ele>797.0</ele><time>2026-05-02T15:37:06.096Z</time></trkpt><trkpt lat="42.30139" lon="13.2875483"><ele>793.0</ele><time>2026-05-02T15:37:07.096Z</time></trkpt><trkpt lat="42.3015217" lon="13.2874633"><ele>789.0</ele><time>2026-05-02T15:37:08.096Z</time></trkpt><trkpt lat="42.30166" lon="13.28738"><ele>785.0</ele><time>2026-05-02T15:37:09.095Z</time></trkpt><trkpt lat="42.301785" lon="13.2873417"><ele>781.0</ele><time>2026-05-02T15:37:10.095Z</time></trkpt><trkpt lat="42.3019183" lon="13.2873233"><ele>781.0</ele><time>2026-05-02T15:37:11.095Z</time></trkpt><trkpt lat="42.3020583" lon="13.28733"><ele>781.0</ele><time>2026-05-02T15:37:12.096Z</time></trkpt><trkpt lat="42.3022167" lon="13.2873633"><ele>781.0</ele><time>2026-05-02T15:37:13.096Z</time></trkpt><trkpt lat="42.3023767" lon="13.2874083"><ele>780.3333333333333</ele><time>2026-05-02T15:37:14.095Z</time></trkpt><trkpt lat="42.30254" lon="13.2874533"><ele>779.6666666666667</ele><time>2026-05-02T15:37:15.095Z</time></trkpt><trkpt lat="42.3027033" lon="13.2875"><ele>779.0</ele><time>2026-05-02T15:37:16.095Z</time></trkpt><trkpt lat="42.3028633" lon="13.2875283"><ele>779.0</ele><time>2026-05-02T15:37:17.095Z</time></trkpt><trkpt lat="42.3030167" lon="13.2875583"><ele>779.0</ele><time>2026-05-02T15:37:18.096Z</time></trkpt><trkpt lat="42.30316" lon="13.2875933"><ele>779.0</ele><time>2026-05-02T15:37:19.095Z</time></trkpt><trkpt lat="42.3032883" lon="13.2876167"><ele>779.0</ele><time>2026-05-02T15:37:20.096Z</time></trkpt><trkpt lat="42.3033983" lon="13.2876417"><ele>778.5000000000001</ele><time>2026-05-02T15:37:21.095Z</time></trkpt><trkpt lat="42.3034767" lon="13.2876667"><ele>778.0</ele><time>2026-05-02T15:37:22.095Z</time></trkpt><trkpt lat="42.3035767" lon="13.2876717"><ele>777.5</ele><time>2026-05-02T15:37:24.095Z</time></trkpt><trkpt lat="42.3034883" lon="13.28762"><ele>777.0</ele><time>2026-05-02T15:37:28.096Z</time></trkpt><trkpt lat="42.30341" lon="13.287615"><ele>776.5000000000001</ele><time>2026-05-02T15:37:29.096Z</time></trkpt><trkpt lat="42.3033283" lon="13.2876083"><ele>776.0</ele><time>2026-05-02T15:37:30.095Z</time></trkpt><trkpt lat="42.3032333" lon="13.28759"><ele>776.0</ele><time>2026-05-02T15:37:31.095Z</time></trkpt><trkpt lat="42.30312" lon="13.28757"><ele>776.0</ele><time>2026-05-02T15:37:32.095Z</time></trkpt><trkpt lat="42.302995" lon="13.28755"><ele>776.0</ele><time>2026-05-02T15:37:33.095Z</time></trkpt><trkpt lat="42.3028683" lon="13.28753"><ele>776.0</ele><time>2026-05-02T15:37:34.096Z</time></trkpt><trkpt lat="42.3027333" lon="13.287505"><ele>776.75</ele><time>2026-05-02T15:37:35.095Z</time></trkpt><trkpt lat="42.30259" lon="13.2874717"><ele>777.5</ele><time>2026-05-02T15:37:36.096Z</time></trkpt><trkpt lat="42.3024483" lon="13.2874367"><ele>778.25</ele><time>2026-05-02T15:37:37.095Z</time></trkpt><trkpt lat="42.3023233" lon="13.2873983"><ele>779.0</ele><time>2026-05-02T15:37:38.096Z</time></trkpt><trkpt lat="42.30223" lon="13.2873683"><ele>779.3333333333334</ele><time>2026-05-02T15:37:39.095Z</time></trkpt><trkpt lat="42.3021567" lon="13.287355"><ele>779.6666666666667</ele><time>2026-05-02T15:37:40.095Z</time></trkpt><trkpt lat="42.3020983" lon="13.2873933"><ele>780.0</ele><time>2026-05-02T15:37:42.096Z</time></trkpt><trkpt lat="42.3020967" lon="13.2875"><ele>780.3333333333333</ele><time>2026-05-02T15:37:44.095Z</time></trkpt><trkpt lat="42.3020817" lon="13.2876667"><ele>780.6666666666666</ele><time>2026-05-02T15:37:46.096Z</time></trkpt><trkpt lat="42.302075" lon="13.2877783"><ele>781.0</ele><time>2026-05-02T15:37:47.096Z</time></trkpt><trkpt lat="42.3020717" lon="13.28792"><ele>779.0</ele><time>2026-05-02T15:37:48.096Z</time></trkpt><trkpt lat="42.3020783" lon="13.2881"><ele>777.0</ele><time>2026-05-02T15:37:49.096Z</time></trkpt><trkpt lat="42.30208" lon="13.288275"><ele>775.0</ele><time>2026-05-02T15:37:50.096Z</time></trkpt><trkpt lat="42.3020833" lon="13.2884217"><ele>773.0</ele><time>2026-05-02T15:37:51.095Z</time></trkpt><trkpt lat="42.3020767" lon="13.28857"><ele>773.0000000000001</ele><time>2026-05-02T15:37:52.095Z</time></trkpt><trkpt lat="42.3020683" lon="13.288675"><ele>773.0</ele><time>2026-05-02T15:37:53.096Z</time></trkpt><trkpt lat="42.30209" lon="13.2888083"><ele>773.0</ele><time>2026-05-02T15:37:55.096Z</time></trkpt><trkpt lat="42.30218" lon="13.2889067"><ele>773.0</ele><time>2026-05-02T15:37:57.096Z</time></trkpt><trkpt lat="42.30224" lon="13.28895"><ele>773.0000000000001</ele><time>2026-05-02T15:37:58.096Z</time></trkpt><trkpt lat="42.3023033" lon="13.288985"><ele>773.0</ele><time>2026-05-02T15:37:59.096Z</time></trkpt><trkpt lat="42.3023683" lon="13.2890067"><ele>774.2</ele><time>2026-05-02T15:38:00.096Z</time></trkpt><trkpt lat="42.3024367" lon="13.28902"><ele>775.4</ele><time>2026-05-02T15:38:01.096Z</time></trkpt><trkpt lat="42.3025133" lon="13.2890217"><ele>776.6</ele><time>2026-05-02T15:38:02.096Z</time></trkpt><trkpt lat="42.302605" lon="13.2890233"><ele>777.8000000000001</ele><time>2026-05-02T15:38:03.096Z</time></trkpt><trkpt lat="42.30272" lon="13.2890217"><ele>779.0</ele><time>2026-05-02T15:38:04.095Z</time></trkpt><trkpt lat="42.3028667" lon="13.289005"><ele>779.0</ele><time>2026-05-02T15:38:05.096Z</time></trkpt><trkpt lat="42.30303" lon="13.28898"><ele>779.0</ele><time>2026-05-02T15:38:06.096Z</time></trkpt><trkpt lat="42.303185" lon="13.2889317"><ele>779.0</ele><time>2026-05-02T15:38:07.095Z</time></trkpt><trkpt lat="42.303325" lon="13.2888733"><ele>776.5</ele><time>2026-05-02T15:38:08.095Z</time></trkpt><trkpt lat="42.3034467" lon="13.2888117"><ele>774.0</ele><time>2026-05-02T15:38:09.096Z</time></trkpt><trkpt lat="42.3035633" lon="13.28877"><ele>771.5</ele><time>2026-05-02T15:38:10.095Z</time></trkpt><trkpt lat="42.303685" lon="13.2887333"><ele>769.0</ele><time>2026-05-02T15:38:11.096Z</time></trkpt><trkpt lat="42.30381" lon="13.2887267"><ele>769.0</ele><time>2026-05-02T15:38:12.095Z</time></trkpt><trkpt lat="42.30394" lon="13.2887233"><ele>769.0</ele><time>2026-05-02T15:38:13.095Z</time></trkpt><trkpt lat="42.304075" lon="13.2887067"><ele>769.0</ele><time>2026-05-02T15:38:14.095Z</time></trkpt><trkpt lat="42.3042167" lon="13.2886767"><ele>769.0</ele><time>2026-05-02T15:38:15.095Z</time></trkpt><trkpt lat="42.304355" lon="13.2886267"><ele>769.0</ele><time>2026-05-02T15:38:16.096Z</time></trkpt><trkpt lat="42.304505" lon="13.28857"><ele>769.0</ele><time>2026-05-02T15:38:17.096Z</time></trkpt><trkpt lat="42.3046533" lon="13.2885083"><ele>769.0</ele><time>2026-05-02T15:38:18.095Z</time></trkpt><trkpt lat="42.304785" lon="13.2884517"><ele>769.0</ele><time>2026-05-02T15:38:19.095Z</time></trkpt><trkpt lat="42.3048983" lon="13.288405"><ele>768.8000000000001</ele><time>2026-05-02T15:38:20.096Z</time></trkpt><trkpt lat="42.3049967" lon="13.2883633"><ele>768.6</ele><time>2026-05-02T15:38:21.095Z</time></trkpt><trkpt lat="42.3050883" lon="13.2883433"><ele>768.4</ele><time>2026-05-02T15:38:22.095Z</time></trkpt><trkpt lat="42.3051733" lon="13.28834"><ele>768.2</ele><time>2026-05-02T15:38:23.096Z</time></trkpt><trkpt lat="42.3052617" lon="13.2883417"><ele>768.0</ele><time>2026-05-02T15:38:24.096Z</time></trkpt><trkpt lat="42.3053583" lon="13.288345"><ele>768.0</ele><time>2026-05-02T15:38:25.095Z</time></trkpt><trkpt lat="42.3054783" lon="13.2883567"><ele>768.0</ele><time>2026-05-02T15:38:26.095Z</time></trkpt><trkpt lat="42.3055983" lon="13.28836"><ele>768.0</ele><time>2026-05-02T15:38:27.096Z</time></trkpt><trkpt lat="42.3057067" lon="13.2883517"><ele>768.0</ele><time>2026-05-02T15:38:28.095Z</time></trkpt><trkpt lat="42.30581" lon="13.288325"><ele>767.75</ele><time>2026-05-02T15:38:29.095Z</time></trkpt><trkpt lat="42.305905" lon="13.2882783"><ele>767.5</ele><time>2026-05-02T15:38:30.095Z</time></trkpt><trkpt lat="42.3060083" lon="13.28823"><ele>767.25</ele><time>2026-05-02T15:38:31.095Z</time></trkpt><trkpt lat="42.3061183" lon="13.2881683"><ele>767.0</ele><time>2026-05-02T15:38:32.095Z</time></trkpt><trkpt lat="42.3062317" lon="13.2881067"><ele>766.5</ele><time>2026-05-02T15:38:33.095Z</time></trkpt><trkpt lat="42.3063517" lon="13.2880333"><ele>766.0</ele><time>2026-05-02T15:38:34.096Z</time></trkpt><trkpt lat="42.3064733" lon="13.28796"><ele>765.5</ele><time>2026-05-02T15:38:35.095Z</time></trkpt><trkpt lat="42.306575" lon="13.287915"><ele>765.0</ele><time>2026-05-02T15:38:36.095Z</time></trkpt><trkpt lat="42.30666" lon="13.287875"><ele>765.0</ele><time>2026-05-02T15:38:37.095Z</time></trkpt><trkpt lat="42.30673" lon="13.28785"><ele>765.0</ele><time>2026-05-02T15:38:38.096Z</time></trkpt><trkpt lat="42.306825" lon="13.2878467"><ele>765.0</ele><time>2026-05-02T15:38:40.096Z</time></trkpt><trkpt lat="42.30691" lon="13.2878433"><ele>765.0</ele><time>2026-05-02T15:38:42.095Z</time></trkpt><trkpt lat="42.3070333" lon="13.28774"><ele>765.0</ele><time>2026-05-02T15:38:44.096Z</time></trkpt><trkpt lat="42.307115" lon="13.287615"><ele>765.0</ele><time>2026-05-02T15:38:45.096Z</time></trkpt><trkpt lat="42.3072167" lon="13.2874717"><ele>765.0</ele><time>2026-05-02T15:38:46.095Z</time></trkpt><trkpt lat="42.3073283" lon="13.287315"><ele>765.0</ele><time>2026-05-02T15:38:47.095Z</time></trkpt><trkpt lat="42.30745" lon="13.2871433"><ele>764.3333333333334</ele><time>2026-05-02T15:38:48.096Z</time></trkpt><trkpt lat="42.30758" lon="13.2869733"><ele>763.6666666666667</ele><time>2026-05-02T15:38:49.096Z</time></trkpt><trkpt lat="42.3077017" lon="13.2868233"><ele>763.0</ele><time>2026-05-02T15:38:50.095Z</time></trkpt><trkpt lat="42.3078233" lon="13.2867"><ele>763.0</ele><time>2026-05-02T15:38:51.095Z</time></trkpt><trkpt lat="42.3079383" lon="13.2866117"><ele>763.0</ele><time>2026-05-02T15:38:52.095Z</time></trkpt><trkpt lat="42.3080383" lon="13.286545"><ele>763.0</ele><time>2026-05-02T15:38:53.095Z</time></trkpt><trkpt lat="42.30813" lon="13.286495"><ele>763.0</ele><time>2026-05-02T15:38:54.096Z</time></trkpt><trkpt lat="42.30821" lon="13.2864583"><ele>763.0</ele><time>2026-05-02T15:38:55.096Z</time></trkpt><trkpt lat="42.3082917" lon="13.286415"><ele>761.8</ele><time>2026-05-02T15:38:57.095Z</time></trkpt><trkpt lat="42.3083383" lon="13.2863467"><ele>760.5999999999999</ele><time>2026-05-02T15:39:10.096Z</time></trkpt><trkpt lat="42.30842" lon="13.2862967"><ele>759.4000000000001</ele><time>2026-05-02T15:39:11.096Z</time></trkpt><trkpt lat="42.3085267" lon="13.2862333"><ele>758.2</ele><time>2026-05-02T15:39:12.095Z</time></trkpt><trkpt lat="42.3086667" lon="13.28615"><ele>757.0</ele><time>2026-05-02T15:39:13.095Z</time></trkpt><trkpt lat="42.3087983" lon="13.2860683"><ele>757.0</ele><time>2026-05-02T15:39:14.095Z</time></trkpt><trkpt lat="42.3089167" lon="13.2860067"><ele>757.0</ele><time>2026-05-02T15:39:15.096Z</time></trkpt><trkpt lat="42.3090233" lon="13.2859633"><ele>757.0</ele><time>2026-05-02T15:39:16.096Z</time></trkpt><trkpt lat="42.309135" lon="13.2859283"><ele>757.0</ele><time>2026-05-02T15:39:17.096Z</time></trkpt><trkpt lat="42.3092567" lon="13.2859183"><ele>757.0</ele><time>2026-05-02T15:39:18.095Z</time></trkpt><trkpt lat="42.3093717" lon="13.2859083"><ele>757.0</ele><time>2026-05-02T15:39:19.095Z</time></trkpt><trkpt lat="42.3094733" lon="13.285895"><ele>757.0</ele><time>2026-05-02T15:39:20.095Z</time></trkpt><trkpt lat="42.30956" lon="13.285885"><ele>757.0</ele><time>2026-05-02T15:39:21.095Z</time></trkpt><trkpt lat="42.309635" lon="13.285885"><ele>757.0</ele><time>2026-05-02T15:39:22.096Z</time></trkpt><trkpt lat="42.3096983" lon="13.2859367"><ele>757.0</ele><time>2026-05-02T15:39:24.096Z</time></trkpt><trkpt lat="42.3096017" lon="13.286005"><ele>757.0</ele><time>2026-05-02T15:39:27.096Z</time></trkpt><trkpt lat="42.309515" lon="13.2860117"><ele>757.0</ele><time>2026-05-02T15:39:28.095Z</time></trkpt><trkpt lat="42.3094083" lon="13.2860183"><ele>757.0</ele><time>2026-05-02T15:39:29.095Z</time></trkpt><trkpt lat="42.3093017" lon="13.2860233"><ele>757.0</ele><time>2026-05-02T15:39:30.095Z</time></trkpt><trkpt lat="42.3092133" lon="13.2860317"><ele>757.0</ele><time>2026-05-02T15:39:31.095Z</time></trkpt><trkpt lat="42.3091267" lon="13.2860617"><ele>757.0</ele><time>2026-05-02T15:39:32.095Z</time></trkpt><trkpt lat="42.3090333" lon="13.2860967"><ele>757.0</ele><time>2026-05-02T15:39:33.095Z</time></trkpt><trkpt lat="42.3089383" lon="13.28615"><ele>757.0</ele><time>2026-05-02T15:39:34.095Z</time></trkpt><trkpt lat="42.3088333" lon="13.2861967"><ele>757.0</ele><time>2026-05-02T15:39:35.096Z</time></trkpt><trkpt lat="42.30872" lon="13.2862533"><ele>757.0</ele><time>2026-05-02T15:39:36.095Z</time></trkpt><trkpt lat="42.3086167" lon="13.286315"><ele>757.0</ele><time>2026-05-02T15:39:37.096Z</time></trkpt><trkpt lat="42.3085367" lon="13.28637"><ele>757.0</ele><time>2026-05-02T15:39:38.095Z</time></trkpt><trkpt lat="42.3084767" lon="13.2864267"><ele>757.0</ele><time>2026-05-02T15:39:39.096Z</time></trkpt><trkpt lat="42.3084467" lon="13.2865617"><ele>757.0</ele><time>2026-05-02T15:39:41.096Z</time></trkpt><trkpt lat="42.30852" lon="13.2866367"><ele>759.5</ele><time>2026-05-02T15:39:43.096Z</time></trkpt><trkpt lat="42.3086067" lon="13.286635"><ele>762.0</ele><time>2026-05-02T15:39:44.096Z</time></trkpt><trkpt lat="42.3087267" lon="13.2866117"><ele>764.5</ele><time>2026-05-02T15:39:45.095Z</time></trkpt><trkpt lat="42.3088567" lon="13.2865867"><ele>767.0</ele><time>2026-05-02T15:39:46.095Z</time></trkpt><trkpt lat="42.30901" lon="13.286575"><ele>769.0</ele><time>2026-05-02T15:39:47.095Z</time></trkpt><trkpt lat="42.30918" lon="13.2865683"><ele>771.0</ele><time>2026-05-02T15:39:48.095Z</time></trkpt><trkpt lat="42.3093667" lon="13.2865617"><ele>773.0</ele><time>2026-05-02T15:39:49.095Z</time></trkpt><trkpt lat="42.3095433" lon="13.286545"><ele>773.0</ele><time>2026-05-02T15:39:50.096Z</time></trkpt><trkpt lat="42.3097217" lon="13.2865333"><ele>773.0</ele><time>2026-05-02T15:39:51.095Z</time></trkpt><trkpt lat="42.309905" lon="13.2865067"><ele>773.0</ele><time>2026-05-02T15:39:52.095Z</time></trkpt><trkpt lat="42.3100833" lon="13.2864817"><ele>773.0</ele><time>2026-05-02T15:39:53.095Z</time></trkpt><trkpt lat="42.3102717" lon="13.2864533"><ele>773.0</ele><time>2026-05-02T15:39:54.096Z</time></trkpt><trkpt lat="42.3104433" lon="13.2864117"><ele>773.0</ele><time>2026-05-02T15:39:55.096Z</time></trkpt><trkpt lat="42.3106033" lon="13.28637"><ele>773.0</ele><time>2026-05-02T15:39:56.096Z</time></trkpt><trkpt lat="42.310755" lon="13.2863517"><ele>773.0</ele><time>2026-05-02T15:39:57.095Z</time></trkpt><trkpt lat="42.3109167" lon="13.286365"><ele>773.0</ele><time>2026-05-02T15:39:58.096Z</time></trkpt><trkpt lat="42.3110717" lon="13.2863683"><ele>773.0</ele><time>2026-05-02T15:39:59.096Z</time></trkpt><trkpt lat="42.31121" lon="13.28635"><ele>773.0</ele><time>2026-05-02T15:40:00.095Z</time></trkpt><trkpt lat="42.3113383" lon="13.2862883"><ele>773.0</ele><time>2026-05-02T15:40:01.095Z</time></trkpt><trkpt lat="42.3114417" lon="13.2861917"><ele>773.0</ele><time>2026-05-02T15:40:02.095Z</time></trkpt><trkpt lat="42.3115267" lon="13.2861017"><ele>775.4</ele><time>2026-05-02T15:40:03.096Z</time></trkpt><trkpt lat="42.3116" lon="13.2860533"><ele>777.8</ele><time>2026-05-02T15:40:04.096Z</time></trkpt><trkpt lat="42.3116633" lon="13.2860633"><ele>780.2</ele><time>2026-05-02T15:40:05.095Z</time></trkpt><trkpt lat="42.3116833" lon="13.28618"><ele>782.6</ele><time>2026-05-02T15:40:07.096Z</time></trkpt><trkpt lat="42.3116417" lon="13.2862833"><ele>785.0</ele><time>2026-05-02T15:40:08.095Z</time></trkpt><trkpt lat="42.31157" lon="13.2864317"><ele>787.0</ele><time>2026-05-02T15:40:09.095Z</time></trkpt><trkpt lat="42.3114817" lon="13.28661"><ele>789.0</ele><time>2026-05-02T15:40:10.095Z</time></trkpt><trkpt lat="42.31139" lon="13.2867933"><ele>791.0</ele><time>2026-05-02T15:40:11.096Z</time></trkpt><trkpt lat="42.3113017" lon="13.286975"><ele>791.0</ele><time>2026-05-02T15:40:12.096Z</time></trkpt><trkpt lat="42.311215" lon="13.2871483"><ele>791.0</ele><time>2026-05-02T15:40:13.096Z</time></trkpt><trkpt lat="42.311115" lon="13.2873017"><ele>791.0</ele><time>2026-05-02T15:40:14.096Z</time></trkpt><trkpt lat="42.310995" lon="13.28746"><ele>792.6666666666667</ele><time>2026-05-02T15:40:15.096Z</time></trkpt><trkpt lat="42.3108633" lon="13.287615"><ele>794.3333333333333</ele><time>2026-05-02T15:40:16.096Z</time></trkpt><trkpt lat="42.3107267" lon="13.28776"><ele>796.0</ele><time>2026-05-02T15:40:17.095Z</time></trkpt><trkpt lat="42.3105733" lon="13.287915"><ele>796.0</ele><time>2026-05-02T15:40:18.096Z</time></trkpt><trkpt lat="42.3104133" lon="13.2880867"><ele>796.0</ele><time>2026-05-02T15:40:19.095Z</time></trkpt><trkpt lat="42.3102567" lon="13.288255"><ele>796.0</ele><time>2026-05-02T15:40:20.095Z</time></trkpt><trkpt lat="42.3101167" lon="13.2884083"><ele>796.6666666666666</ele><time>2026-05-02T15:40:21.095Z</time></trkpt><trkpt lat="42.3099933" lon="13.28855"><ele>797.3333333333333</ele><time>2026-05-02T15:40:22.096Z</time></trkpt><trkpt lat="42.3098767" lon="13.2886767"><ele>798.0</ele><time>2026-05-02T15:40:23.096Z</time></trkpt><trkpt lat="42.3097583" lon="13.2888"><ele>798.0</ele><time>2026-05-02T15:40:24.095Z</time></trkpt><trkpt lat="42.3096417" lon="13.288925"><ele>798.0</ele><time>2026-05-02T15:40:25.096Z</time></trkpt><trkpt lat="42.3095417" lon="13.2890383"><ele>798.0</ele><time>2026-05-02T15:40:26.095Z</time></trkpt><trkpt lat="42.3094583" lon="13.2891383"><ele>798.0</ele><time>2026-05-02T15:40:27.095Z</time></trkpt><trkpt lat="42.30938" lon="13.2892233"><ele>798.0</ele><time>2026-05-02T15:40:28.096Z</time></trkpt><trkpt lat="42.3093117" lon="13.2893067"><ele>798.0</ele><time>2026-05-02T15:40:29.096Z</time></trkpt><trkpt lat="42.3092517" lon="13.2893783"><ele>798.0</ele><time>2026-05-02T15:40:30.095Z</time></trkpt><trkpt lat="42.30919" lon="13.2894433"><ele>798.0</ele><time>2026-05-02T15:40:31.096Z</time></trkpt><trkpt lat="42.3091217" lon="13.2895217"><ele>798.0</ele><time>2026-05-02T15:40:32.096Z</time></trkpt><trkpt lat="42.309035" lon="13.2896133"><ele>798.0</ele><time>2026-05-02T15:40:33.096Z</time></trkpt><trkpt lat="42.3089417" lon="13.2897117"><ele>798.0</ele><time>2026-05-02T15:40:34.096Z</time></trkpt><trkpt lat="42.308865" lon="13.289805"><ele>798.0</ele><time>2026-05-02T15:40:35.096Z</time></trkpt><trkpt lat="42.3088083" lon="13.28988"><ele>798.0</ele><time>2026-05-02T15:40:36.096Z</time></trkpt><trkpt lat="42.30878" lon="13.290015"><ele>798.0</ele><time>2026-05-02T15:40:38.095Z</time></trkpt><trkpt lat="42.3088433" lon="13.2901733"><ele>798.8</ele><time>2026-05-02T15:40:40.095Z</time></trkpt><trkpt lat="42.3089067" lon="13.29028"><ele>799.5999999999999</ele><time>2026-05-02T15:40:41.096Z</time></trkpt><trkpt lat="42.30898" lon="13.2904017"><ele>800.4000000000001</ele><time>2026-05-02T15:40:42.095Z</time></trkpt><trkpt lat="42.3090467" lon="13.2905083"><ele>801.2</ele><time>2026-05-02T15:40:43.095Z</time></trkpt><trkpt lat="42.3091" lon="13.2905967"><ele>802.0</ele><time>2026-05-02T15:40:44.096Z</time></trkpt><trkpt lat="42.309135" lon="13.2906733"><ele>801.9999999999999</ele><time>2026-05-02T15:40:45.096Z</time></trkpt><trkpt lat="42.30917" lon="13.2908117"><ele>802.0</ele><time>2026-05-02T15:40:47.095Z</time></trkpt><trkpt lat="42.3091567" lon="13.2909117"><ele>802.0</ele><time>2026-05-02T15:40:48.096Z</time></trkpt><trkpt lat="42.3091617" lon="13.2910083"><ele>802.0</ele><time>2026-05-02T15:40:49.096Z</time></trkpt><trkpt lat="42.3091967" lon="13.29112"><ele>801.9999999999999</ele><time>2026-05-02T15:40:50.095Z</time></trkpt><trkpt lat="42.3092283" lon="13.2912333"><ele>802.0</ele><time>2026-05-02T15:40:51.096Z</time></trkpt><trkpt lat="42.3092567" lon="13.2913517"><ele>801.6</ele><time>2026-05-02T15:40:52.096Z</time></trkpt><trkpt lat="42.3092933" lon="13.291485"><ele>801.2</ele><time>2026-05-02T15:40:53.096Z</time></trkpt><trkpt lat="42.30932" lon="13.29161"><ele>800.8</ele><time>2026-05-02T15:40:54.096Z</time></trkpt><trkpt lat="42.3093467" lon="13.29174"><ele>800.4</ele><time>2026-05-02T15:40:55.095Z</time></trkpt><trkpt lat="42.3093783" lon="13.2918617"><ele>800.0</ele><time>2026-05-02T15:40:56.096Z</time></trkpt><trkpt lat="42.3093883" lon="13.2919833"><ele>800.0000000000001</ele><time>2026-05-02T15:40:57.096Z</time></trkpt><trkpt lat="42.3093983" lon="13.2921"><ele>800.0</ele><time>2026-05-02T15:40:58.096Z</time></trkpt><trkpt lat="42.3094017" lon="13.29221"><ele>800.0</ele><time>2026-05-02T15:40:59.096Z</time></trkpt><trkpt lat="42.3094117" lon="13.2923167"><ele>800.0</ele><time>2026-05-02T15:41:00.095Z</time></trkpt><trkpt lat="42.3094317" lon="13.2924333"><ele>800.0000000000001</ele><time>2026-05-02T15:41:01.096Z</time></trkpt><trkpt lat="42.3094567" lon="13.29255"><ele>800.0</ele><time>2026-05-02T15:41:02.095Z</time></trkpt><trkpt lat="42.309495" lon="13.2926817"><ele>799.5</ele><time>2026-05-02T15:41:03.095Z</time></trkpt><trkpt lat="42.3095267" lon="13.292835"><ele>799.0</ele><time>2026-05-02T15:41:04.096Z</time></trkpt><trkpt lat="42.3095467" lon="13.2930083"><ele>798.5</ele><time>2026-05-02T15:41:05.095Z</time></trkpt><trkpt lat="42.3095567" lon="13.2931817"><ele>798.0</ele><time>2026-05-02T15:41:06.096Z</time></trkpt><trkpt lat="42.3095683" lon="13.2933233"><ele>797.1666666666666</ele><time>2026-05-02T15:41:07.096Z</time></trkpt><trkpt lat="42.3095767" lon="13.293445"><ele>796.3333333333333</ele><time>2026-05-02T15:41:08.096Z</time></trkpt><trkpt lat="42.3095817" lon="13.2935433"><ele>795.5</ele><time>2026-05-02T15:41:09.096Z</time></trkpt><trkpt lat="42.3096267" lon="13.2936633"><ele>794.6666666666666</ele><time>2026-05-02T15:41:11.095Z</time></trkpt><trkpt lat="42.3097183" lon="13.2936733"><ele>793.8333333333333</ele><time>2026-05-02T15:41:13.096Z</time></trkpt><trkpt lat="42.309785" lon="13.293645"><ele>793.0</ele><time>2026-05-02T15:41:14.095Z</time></trkpt><trkpt lat="42.3098583" lon="13.2936033"><ele>790.8</ele><time>2026-05-02T15:41:15.096Z</time></trkpt><trkpt lat="42.3099317" lon="13.2935867"><ele>788.5999999999999</ele><time>2026-05-02T15:41:16.096Z</time></trkpt><trkpt lat="42.3100383" lon="13.2936367"><ele>786.4000000000001</ele><time>2026-05-02T15:41:18.095Z</time></trkpt><trkpt lat="42.3100917" lon="13.2937883"><ele>784.2</ele><time>2026-05-02T15:41:20.096Z</time></trkpt><trkpt lat="42.310095" lon="13.293875"><ele>782.0</ele><time>2026-05-02T15:41:21.095Z</time></trkpt><trkpt lat="42.3100383" lon="13.2940067"><ele>782.2</ele><time>2026-05-02T15:41:23.095Z</time></trkpt><trkpt lat="42.3099783" lon="13.2940617"><ele>782.4000000000001</ele><time>2026-05-02T15:41:24.096Z</time></trkpt><trkpt lat="42.3099" lon="13.2941083"><ele>782.5999999999999</ele><time>2026-05-02T15:41:25.095Z</time></trkpt><trkpt lat="42.3098033" lon="13.294155"><ele>782.8</ele><time>2026-05-02T15:41:26.096Z</time></trkpt><trkpt lat="42.3096933" lon="13.29419"><ele>783.0</ele><time>2026-05-02T15:41:27.096Z</time></trkpt><trkpt lat="42.30961" lon="13.29421"><ele>783.0</ele><time>2026-05-02T15:41:28.096Z</time></trkpt><trkpt lat="42.3095067" lon="13.2942417"><ele>783.0</ele><time>2026-05-02T15:41:30.095Z</time></trkpt><trkpt lat="42.3094567" lon="13.2943183"><ele>783.0</ele><time>2026-05-02T15:41:32.095Z</time></trkpt><trkpt lat="42.3094317" lon="13.2944133"><ele>783.0</ele><time>2026-05-02T15:41:35.096Z</time></trkpt><trkpt lat="42.3094483" lon="13.29452"><ele>783.0</ele><time>2026-05-02T15:41:38.096Z</time></trkpt><trkpt lat="42.3094567" lon="13.294605"><ele>783.0</ele><time>2026-05-02T15:41:40.095Z</time></trkpt><trkpt lat="42.309465" lon="13.2946983"><ele>782.1666666666666</ele><time>2026-05-02T15:41:42.096Z</time></trkpt><trkpt lat="42.3094683" lon="13.2947883"><ele>781.3333333333333</ele><time>2026-05-02T15:41:44.095Z</time></trkpt><trkpt lat="42.3094717" lon="13.2948833"><ele>780.5</ele><time>2026-05-02T15:41:46.095Z</time></trkpt><trkpt lat="42.309445" lon="13.295015"><ele>779.6666666666666</ele><time>2026-05-02T15:41:48.095Z</time></trkpt><trkpt lat="42.3094083" lon="13.2951067"><ele>778.8333333333333</ele><time>2026-05-02T15:41:49.096Z</time></trkpt><trkpt lat="42.30937" lon="13.2952167"><ele>778.0</ele><time>2026-05-02T15:41:50.095Z</time></trkpt><trkpt lat="42.3093333" lon="13.2953417"><ele>778.0</ele><time>2026-05-02T15:41:51.096Z</time></trkpt><trkpt lat="42.30929" lon="13.2954733"><ele>778.0</ele><time>2026-05-02T15:41:52.096Z</time></trkpt><trkpt lat="42.30924" lon="13.29562"><ele>778.0</ele><time>2026-05-02T15:41:53.095Z</time></trkpt><trkpt lat="42.309185" lon="13.2957583"><ele>778.0</ele><time>2026-05-02T15:41:54.095Z</time></trkpt><trkpt lat="42.30912" lon="13.2958833"><ele>778.75</ele><time>2026-05-02T15:41:55.095Z</time></trkpt><trkpt lat="42.309045" lon="13.2960083"><ele>779.5</ele><time>2026-05-02T15:41:56.096Z</time></trkpt><trkpt lat="42.3089717" lon="13.2961383"><ele>780.25</ele><time>2026-05-02T15:41:57.095Z</time></trkpt><trkpt lat="42.3089033" lon="13.296275"><ele>781.0</ele><time>2026-05-02T15:41:58.095Z</time></trkpt><trkpt lat="42.3088367" lon="13.2964083"><ele>779.25</ele><time>2026-05-02T15:41:59.095Z</time></trkpt><trkpt lat="42.3087733" lon="13.296555"><ele>777.5</ele><time>2026-05-02T15:42:00.095Z</time></trkpt><trkpt lat="42.3087267" lon="13.29671"><ele>775.75</ele><time>2026-05-02T15:42:01.095Z</time></trkpt><trkpt lat="42.3086817" lon="13.2968717"><ele>774.0</ele><time>2026-05-02T15:42:02.096Z</time></trkpt><trkpt lat="42.3086183" lon="13.29703"><ele>774.0</ele><time>2026-05-02T15:42:03.095Z</time></trkpt><trkpt lat="42.3085533" lon="13.2971583"><ele>774.0</ele><time>2026-05-02T15:42:04.096Z</time></trkpt><trkpt lat="42.3084817" lon="13.2972767"><ele>774.0</ele><time>2026-05-02T15:42:05.096Z</time></trkpt><trkpt lat="42.3084083" lon="13.2973767"><ele>774.0</ele><time>2026-05-02T15:42:06.095Z</time></trkpt><trkpt lat="42.3083583" lon="13.2974917"><ele>774.0</ele><time>2026-05-02T15:42:07.096Z</time></trkpt><trkpt lat="42.3083367" lon="13.2976133"><ele>773.5</ele><time>2026-05-02T15:42:08.095Z</time></trkpt><trkpt lat="42.3083283" lon="13.2977217"><ele>773.0</ele><time>2026-05-02T15:42:09.095Z</time></trkpt><trkpt lat="42.30833" lon="13.2978567"><ele>772.5</ele><time>2026-05-02T15:42:10.096Z</time></trkpt><trkpt lat="42.30834" lon="13.2979917"><ele>772.0</ele><time>2026-05-02T15:42:11.095Z</time></trkpt><trkpt lat="42.3083517" lon="13.2981017"><ele>771.5</ele><time>2026-05-02T15:42:12.095Z</time></trkpt><trkpt lat="42.308365" lon="13.2982133"><ele>771.0</ele><time>2026-05-02T15:42:13.096Z</time></trkpt><trkpt lat="42.30837" lon="13.2982983"><ele>770.4</ele><time>2026-05-02T15:42:14.096Z</time></trkpt><trkpt lat="42.308305" lon="13.2984333"><ele>769.8</ele><time>2026-05-02T15:42:16.096Z</time></trkpt><trkpt lat="42.3082283" lon="13.2985033"><ele>769.1999999999999</ele><time>2026-05-02T15:42:17.095Z</time></trkpt><trkpt lat="42.3081433" lon="13.2985583"><ele>768.5999999999999</ele><time>2026-05-02T15:42:18.095Z</time></trkpt><trkpt lat="42.30806" lon="13.2986083"><ele>768.0</ele><time>2026-05-02T15:42:19.095Z</time></trkpt><trkpt lat="42.3079667" lon="13.2986333"><ele>769.4</ele><time>2026-05-02T15:42:20.095Z</time></trkpt><trkpt lat="42.3078517" lon="13.298645"><ele>770.8</ele><time>2026-05-02T15:42:21.095Z</time></trkpt><trkpt lat="42.3077533" lon="13.2986567"><ele>772.2</ele><time>2026-05-02T15:42:22.095Z</time></trkpt><trkpt lat="42.30766" lon="13.2986917"><ele>773.6</ele><time>2026-05-02T15:42:23.095Z</time></trkpt><trkpt lat="42.307575" lon="13.2987517"><ele>775.0</ele><time>2026-05-02T15:42:24.095Z</time></trkpt><trkpt lat="42.3075167" lon="13.298835"><ele>775.2</ele><time>2026-05-02T15:42:25.095Z</time></trkpt><trkpt lat="42.3074833" lon="13.2989483"><ele>775.4</ele><time>2026-05-02T15:42:26.095Z</time></trkpt><trkpt lat="42.30745" lon="13.2990817"><ele>775.5999999999999</ele><time>2026-05-02T15:42:27.095Z</time></trkpt><trkpt lat="42.3074117" lon="13.2992"><ele>775.8</ele><time>2026-05-02T15:42:28.096Z</time></trkpt><trkpt lat="42.3073633" lon="13.2992917"><ele>776.0</ele><time>2026-05-02T15:42:29.095Z</time></trkpt><trkpt lat="42.307235" lon="13.2993517"><ele>776.0</ele><time>2026-05-02T15:42:31.095Z</time></trkpt><trkpt lat="42.307145" lon="13.2993367"><ele>776.0</ele><time>2026-05-02T15:42:32.096Z</time></trkpt><trkpt lat="42.3070483" lon="13.29931"><ele>776.0</ele><time>2026-05-02T15:42:33.095Z</time></trkpt><trkpt lat="42.3069683" lon="13.2992983"><ele>776.0</ele><time>2026-05-02T15:42:34.095Z</time></trkpt><trkpt lat="42.3068767" lon="13.299355"><ele>776.0</ele><time>2026-05-02T15:42:36.095Z</time></trkpt><trkpt lat="42.3067867" lon="13.29946"><ele>776.0000000000001</ele><time>2026-05-02T15:42:38.096Z</time></trkpt><trkpt lat="42.3066933" lon="13.299485"><ele>776.0</ele><time>2026-05-02T15:42:40.096Z</time></trkpt><trkpt lat="42.3066117" lon="13.2995167"><ele>776.0</ele><time>2026-05-02T15:42:42.096Z</time></trkpt><trkpt lat="42.306545" lon="13.2996267"><ele>776.0</ele><time>2026-05-02T15:42:44.096Z</time></trkpt><trkpt lat="42.3065067" lon="13.2997033"><ele>776.0000000000001</ele><time>2026-05-02T15:42:45.095Z</time></trkpt><trkpt lat="42.30645" lon="13.2997733"><ele>776.0</ele><time>2026-05-02T15:42:46.095Z</time></trkpt><trkpt lat="42.30639" lon="13.2998183"><ele>776.1999999999999</ele><time>2026-05-02T15:42:47.096Z</time></trkpt><trkpt lat="42.3062817" lon="13.2999"><ele>776.4</ele><time>2026-05-02T15:42:49.095Z</time></trkpt><trkpt lat="42.306225" lon="13.2999517"><ele>776.6</ele><time>2026-05-02T15:42:50.095Z</time></trkpt><trkpt lat="42.3061633" lon="13.2999967"><ele>776.8</ele><time>2026-05-02T15:42:51.096Z</time></trkpt><trkpt lat="42.30608" lon="13.3000317"><ele>777.0</ele><time>2026-05-02T15:42:53.095Z</time></trkpt><trkpt lat="42.3059717" lon="13.3000183"><ele>777.0</ele><time>2026-05-02T15:42:55.095Z</time></trkpt><trkpt lat="42.3058583" lon="13.3000517"><ele>777.0</ele><time>2026-05-02T15:42:57.096Z</time></trkpt><trkpt lat="42.3057917" lon="13.3000983"><ele>777.0</ele><time>2026-05-02T15:42:58.096Z</time></trkpt><trkpt lat="42.3057033" lon="13.300165"><ele>777.0</ele><time>2026-05-02T15:42:59.096Z</time></trkpt><trkpt lat="42.305615" lon="13.30024"><ele>777.0</ele><time>2026-05-02T15:43:00.095Z</time></trkpt><trkpt lat="42.3055483" lon="13.3003117"><ele>777.4000000000001</ele><time>2026-05-02T15:43:01.095Z</time></trkpt><trkpt lat="42.3054783" lon="13.3003917"><ele>777.8000000000001</ele><time>2026-05-02T15:43:02.096Z</time></trkpt><trkpt lat="42.3054167" lon="13.300445"><ele>778.2</ele><time>2026-05-02T15:43:03.095Z</time></trkpt><trkpt lat="42.3052933" lon="13.3004783"><ele>778.6</ele><time>2026-05-02T15:43:05.096Z</time></trkpt><trkpt lat="42.3051717" lon="13.3005417"><ele>779.0</ele><time>2026-05-02T15:43:07.096Z</time></trkpt><trkpt lat="42.3051117" lon="13.3006033"><ele>779.0</ele><time>2026-05-02T15:43:08.096Z</time></trkpt><trkpt lat="42.3050383" lon="13.300675"><ele>779.0</ele><time>2026-05-02T15:43:09.095Z</time></trkpt><trkpt lat="42.3049367" lon="13.3007533"><ele>779.0</ele><time>2026-05-02T15:43:10.096Z</time></trkpt><trkpt lat="42.30483" lon="13.3008167"><ele>779.0</ele><time>2026-05-02T15:43:11.095Z</time></trkpt><trkpt lat="42.3047233" lon="13.3008733"><ele>779.0</ele><time>2026-05-02T15:43:12.095Z</time></trkpt><trkpt lat="42.304625" lon="13.300915"><ele>779.1666666666667</ele><time>2026-05-02T15:43:13.096Z</time></trkpt><trkpt lat="42.304555" lon="13.30093"><ele>779.3333333333334</ele><time>2026-05-02T15:43:14.095Z</time></trkpt><trkpt lat="42.3044917" lon="13.30095"><ele>779.5</ele><time>2026-05-02T15:43:15.095Z</time></trkpt><trkpt lat="42.3044267" lon="13.3009417"><ele>779.6666666666667</ele><time>2026-05-02T15:43:16.095Z</time></trkpt><trkpt lat="42.30435" lon="13.300925"><ele>779.8333333333334</ele><time>2026-05-02T15:43:17.095Z</time></trkpt><trkpt lat="42.3042783" lon="13.3009317"><ele>780.0</ele><time>2026-05-02T15:43:18.096Z</time></trkpt><trkpt lat="42.3041717" lon="13.3010117"><ele>780.0</ele><time>2026-05-02T15:43:20.096Z</time></trkpt><trkpt lat="42.3041217" lon="13.30109"><ele>780.0</ele><time>2026-05-02T15:43:21.096Z</time></trkpt><trkpt lat="42.30405" lon="13.301195"><ele>780.0</ele><time>2026-05-02T15:43:22.095Z</time></trkpt><trkpt lat="42.30397" lon="13.3013017"><ele>780.0</ele><time>2026-05-02T15:43:23.095Z</time></trkpt><trkpt lat="42.303885" lon="13.301385"><ele>780.0</ele><time>2026-05-02T15:43:24.096Z</time></trkpt><trkpt lat="42.3038067" lon="13.3014583"><ele>780.8333333333334</ele><time>2026-05-02T15:43:25.095Z</time></trkpt><trkpt lat="42.3036817" lon="13.30147"><ele>781.6666666666667</ele><time>2026-05-02T15:43:27.096Z</time></trkpt><trkpt lat="42.3036217" lon="13.3014317"><ele>782.5</ele><time>2026-05-02T15:43:28.095Z</time></trkpt><trkpt lat="42.3035533" lon="13.30143"><ele>783.3333333333334</ele><time>2026-05-02T15:43:29.095Z</time></trkpt><trkpt lat="42.3034883" lon="13.3014633"><ele>784.1666666666667</ele><time>2026-05-02T15:43:30.095Z</time></trkpt><trkpt lat="42.30341" lon="13.30151"><ele>785.0</ele><time>2026-05-02T15:43:31.095Z</time></trkpt><trkpt lat="42.30333" lon="13.3015583"><ele>785.0000000000001</ele><time>2026-05-02T15:43:32.096Z</time></trkpt><trkpt lat="42.3032633" lon="13.301585"><ele>785.0</ele><time>2026-05-02T15:43:33.095Z</time></trkpt><trkpt lat="42.3031483" lon="13.3015683"><ele>785.0</ele><time>2026-05-02T15:43:35.096Z</time></trkpt><trkpt lat="42.3030717" lon="13.3015617"><ele>785.0</ele><time>2026-05-02T15:43:36.096Z</time></trkpt><trkpt lat="42.3029817" lon="13.3015717"><ele>785.0000000000001</ele><time>2026-05-02T15:43:37.096Z</time></trkpt><trkpt lat="42.30289" lon="13.3015967"><ele>785.0</ele><time>2026-05-02T15:43:38.095Z</time></trkpt><trkpt lat="42.3028167" lon="13.3016217"><ele>785.3333333333334</ele><time>2026-05-02T15:43:39.095Z</time></trkpt><trkpt lat="42.3027417" lon="13.30164"><ele>785.6666666666667</ele><time>2026-05-02T15:43:40.096Z</time></trkpt><trkpt lat="42.3026567" lon="13.30166"><ele>786.0</ele><time>2026-05-02T15:43:41.095Z</time></trkpt><trkpt lat="42.302585" lon="13.3016633"><ele>786.3333333333333</ele><time>2026-05-02T15:43:42.095Z</time></trkpt><trkpt lat="42.3025083" lon="13.3016533"><ele>786.6666666666666</ele><time>2026-05-02T15:43:43.096Z</time></trkpt><trkpt lat="42.302445" lon="13.301635"><ele>787.0</ele><time>2026-05-02T15:43:44.096Z</time></trkpt><trkpt lat="42.3023317" lon="13.301665"><ele>786.9999999999999</ele><time>2026-05-02T15:43:46.095Z</time></trkpt><trkpt lat="42.302275" lon="13.3017217"><ele>787.0</ele><time>2026-05-02T15:43:47.095Z</time></trkpt><trkpt lat="42.3021933" lon="13.301775"><ele>787.0</ele><time>2026-05-02T15:43:48.096Z</time></trkpt><trkpt lat="42.30212" lon="13.3018133"><ele>787.0</ele><time>2026-05-02T15:43:49.096Z</time></trkpt><trkpt lat="42.3020567" lon="13.30184"><ele>786.9999999999999</ele><time>2026-05-02T15:43:50.096Z</time></trkpt><trkpt lat="42.3019767" lon="13.30189"><ele>787.0</ele><time>2026-05-02T15:43:52.095Z</time></trkpt><trkpt lat="42.3019233" lon="13.30199"><ele>787.0</ele><time>2026-05-02T15:43:54.095Z</time></trkpt><trkpt lat="42.3018683" lon="13.3021383"><ele>787.0</ele><time>2026-05-02T15:43:56.096Z</time></trkpt><trkpt lat="42.3018383" lon="13.3022167"><ele>787.0</ele><time>2026-05-02T15:43:57.095Z</time></trkpt><trkpt lat="42.3017933" lon="13.3022933"><ele>787.0</ele><time>2026-05-02T15:43:59.095Z</time></trkpt><trkpt lat="42.301885" lon="13.3023017"><ele>787.0</ele><time>2026-05-02T15:44:04.095Z</time></trkpt><trkpt lat="42.3019767" lon="13.3023833"><ele>787.9999999999999</ele><time>2026-05-02T15:44:06.096Z</time></trkpt><trkpt lat="42.3020483" lon="13.30252"><ele>789.0</ele><time>2026-05-02T15:44:08.096Z</time></trkpt><trkpt lat="42.3021083" lon="13.3025917"><ele>790.0</ele><time>2026-05-02T15:44:09.095Z</time></trkpt><trkpt lat="42.3021667" lon="13.302655"><ele>791.0</ele><time>2026-05-02T15:44:10.096Z</time></trkpt><trkpt lat="42.3022417" lon="13.3026983"><ele>791.9999999999999</ele><time>2026-05-02T15:44:11.096Z</time></trkpt><trkpt lat="42.3023283" lon="13.3027267"><ele>793.0</ele><time>2026-05-02T15:44:12.096Z</time></trkpt><trkpt lat="42.3024233" lon="13.302765"><ele>793.0</ele><time>2026-05-02T15:44:13.095Z</time></trkpt><trkpt lat="42.3025233" lon="13.3028033"><ele>793.0</ele><time>2026-05-02T15:44:14.095Z</time></trkpt><trkpt lat="42.3026433" lon="13.3028467"><ele>793.0</ele><time>2026-05-02T15:44:15.096Z</time></trkpt><trkpt lat="42.302765" lon="13.3028883"><ele>793.0</ele><time>2026-05-02T15:44:16.096Z</time></trkpt><trkpt lat="42.3028983" lon="13.3028917"><ele>793.0</ele><time>2026-05-02T15:44:17.096Z</time></trkpt><trkpt lat="42.30303" lon="13.3028633"><ele>793.0</ele><time>2026-05-02T15:44:18.095Z</time></trkpt><trkpt lat="42.3031717" lon="13.302835"><ele>793.0</ele><time>2026-05-02T15:44:19.096Z</time></trkpt><trkpt lat="42.3033217" lon="13.302795"><ele>793.0</ele><time>2026-05-02T15:44:20.095Z</time></trkpt><trkpt lat="42.30347" lon="13.3027533"><ele>793.0</ele><time>2026-05-02T15:44:21.095Z</time></trkpt><trkpt lat="42.30363" lon="13.30272"><ele>793.0</ele><time>2026-05-02T15:44:22.095Z</time></trkpt><trkpt lat="42.303795" lon="13.3027167"><ele>793.0</ele><time>2026-05-02T15:44:23.095Z</time></trkpt><trkpt lat="42.30396" lon="13.302735"><ele>794.3333333333333</ele><time>2026-05-02T15:44:24.096Z</time></trkpt><trkpt lat="42.304125" lon="13.30276"><ele>795.6666666666667</ele><time>2026-05-02T15:44:25.096Z</time></trkpt><trkpt lat="42.30428" lon="13.3027867"><ele>797.0</ele><time>2026-05-02T15:44:26.095Z</time></trkpt><trkpt lat="42.304425" lon="13.3028033"><ele>797.0</ele><time>2026-05-02T15:44:27.095Z</time></trkpt><trkpt lat="42.3045667" lon="13.3027983"><ele>797.0</ele><time>2026-05-02T15:44:28.096Z</time></trkpt><trkpt lat="42.3047133" lon="13.302755"><ele>797.0</ele><time>2026-05-02T15:44:29.095Z</time></trkpt><trkpt lat="42.3048717" lon="13.3026767"><ele>799.3333333333334</ele><time>2026-05-02T15:44:30.096Z</time></trkpt><trkpt lat="42.3050383" lon="13.302615"><ele>801.6666666666667</ele><time>2026-05-02T15:44:31.096Z</time></trkpt><trkpt lat="42.3052067" lon="13.3025567"><ele>804.0</ele><time>2026-05-02T15:44:32.095Z</time></trkpt><trkpt lat="42.3053717" lon="13.302505"><ele>804.0</ele><time>2026-05-02T15:44:33.096Z</time></trkpt><trkpt lat="42.3055433" lon="13.3024467"><ele>804.0</ele><time>2026-05-02T15:44:34.095Z</time></trkpt><trkpt lat="42.3057183" lon="13.302405"><ele>804.0</ele><time>2026-05-02T15:44:35.095Z</time></trkpt><trkpt lat="42.3059117" lon="13.3023533"><ele>804.6666666666667</ele><time>2026-05-02T15:44:36.095Z</time></trkpt><trkpt lat="42.3061133" lon="13.3022983"><ele>805.3333333333334</ele><time>2026-05-02T15:44:37.096Z</time></trkpt><trkpt lat="42.3063167" lon="13.3022183"><ele>806.0</ele><time>2026-05-02T15:44:38.096Z</time></trkpt><trkpt lat="42.3065283" lon="13.3021283"><ele>801.5</ele><time>2026-05-02T15:44:39.096Z</time></trkpt><trkpt lat="42.3067433" lon="13.3020333"><ele>797.0</ele><time>2026-05-02T15:44:40.095Z</time></trkpt><trkpt lat="42.3069633" lon="13.3019483"><ele>797.0</ele><time>2026-05-02T15:44:41.095Z</time></trkpt><trkpt lat="42.3071883" lon="13.3018717"><ele>797.0</ele><time>2026-05-02T15:44:42.096Z</time></trkpt><trkpt lat="42.3074133" lon="13.301815"><ele>798.0</ele><time>2026-05-02T15:44:43.096Z</time></trkpt><trkpt lat="42.3076183" lon="13.3017483"><ele>799.0</ele><time>2026-05-02T15:44:44.096Z</time></trkpt><trkpt lat="42.30781" lon="13.3016817"><ele>800.0</ele><time>2026-05-02T15:44:45.095Z</time></trkpt><trkpt lat="42.30798" lon="13.3015883"><ele>799.0</ele><time>2026-05-02T15:44:46.096Z</time></trkpt><trkpt lat="42.3081267" lon="13.3014717"><ele>798.0</ele><time>2026-05-02T15:44:47.096Z</time></trkpt><trkpt lat="42.3082567" lon="13.3013333"><ele>797.0</ele><time>2026-05-02T15:44:48.096Z</time></trkpt><trkpt lat="42.308385" lon="13.3011667"><ele>797.0</ele><time>2026-05-02T15:44:49.095Z</time></trkpt><trkpt lat="42.30851" lon="13.3009967"><ele>797.0</ele><time>2026-05-02T15:44:50.096Z</time></trkpt><trkpt lat="42.3086333" lon="13.3008633"><ele>797.0</ele><time>2026-05-02T15:44:51.095Z</time></trkpt><trkpt lat="42.308755" lon="13.3007383"><ele>797.0</ele><time>2026-05-02T15:44:52.096Z</time></trkpt><trkpt lat="42.3088883" lon="13.300615"><ele>797.0</ele><time>2026-05-02T15:44:53.095Z</time></trkpt><trkpt lat="42.3090333" lon="13.3005083"><ele>797.0</ele><time>2026-05-02T15:44:54.095Z</time></trkpt><trkpt lat="42.3091917" lon="13.3004233"><ele>796.3333333333334</ele><time>2026-05-02T15:44:55.096Z</time></trkpt><trkpt lat="42.3093583" lon="13.3003467"><ele>795.6666666666667</ele><time>2026-05-02T15:44:56.096Z</time></trkpt><trkpt lat="42.30952" lon="13.30031"><ele>795.0</ele><time>2026-05-02T15:44:57.095Z</time></trkpt><trkpt lat="42.3096817" lon="13.3002583"><ele>798.25</ele><time>2026-05-02T15:44:58.096Z</time></trkpt><trkpt lat="42.3098333" lon="13.3002"><ele>801.5</ele><time>2026-05-02T15:44:59.096Z</time></trkpt><trkpt lat="42.309955" lon="13.3001417"><ele>804.75</ele><time>2026-05-02T15:45:00.095Z</time></trkpt><trkpt lat="42.3100583" lon="13.3000633"><ele>808.0</ele><time>2026-05-02T15:45:01.096Z</time></trkpt><trkpt lat="42.310135" lon="13.2999783"><ele>807.9999999999999</ele><time>2026-05-02T15:45:02.095Z</time></trkpt><trkpt lat="42.3101883" lon="13.2999033"><ele>808.0</ele><time>2026-05-02T15:45:03.095Z</time></trkpt><trkpt lat="42.3102433" lon="13.2998467"><ele>808.0</ele><time>2026-05-02T15:45:05.095Z</time></trkpt><trkpt lat="42.310305" lon="13.299915"><ele>808.0</ele><time>2026-05-02T15:45:09.096Z</time></trkpt><trkpt lat="42.3103717" lon="13.3000467"><ele>807.9999999999999</ele><time>2026-05-02T15:45:11.096Z</time></trkpt><trkpt lat="42.3104217" lon="13.3001317"><ele>808.0</ele><time>2026-05-02T15:45:12.096Z</time></trkpt><trkpt lat="42.3104733" lon="13.3002283"><ele>807.9999999999999</ele><time>2026-05-02T15:45:13.095Z</time></trkpt><trkpt lat="42.3105267" lon="13.300325"><ele>808.0</ele><time>2026-05-02T15:45:14.096Z</time></trkpt><trkpt lat="42.3105733" lon="13.3004167"><ele>808.0</ele><time>2026-05-02T15:45:15.095Z</time></trkpt><trkpt lat="42.310615" lon="13.300495"><ele>808.0</ele><time>2026-05-02T15:45:16.096Z</time></trkpt><trkpt lat="42.31065" lon="13.3005667"><ele>807.9999999999999</ele><time>2026-05-02T15:45:17.095Z</time></trkpt><trkpt lat="42.3106917" lon="13.3006333"><ele>808.0</ele><time>2026-05-02T15:45:18.095Z</time></trkpt><trkpt lat="42.3107967" lon="13.300725"><ele>824.0</ele><time>2026-05-02T15:45:20.095Z</time></trkpt><trkpt lat="42.3108533" lon="13.3007817"><ele>824.0</ele><time>2026-05-02T15:45:21.095Z</time></trkpt></trkseg><trkseg><trkpt lat="42.353795" lon="13.4023217"><ele>735.0</ele><time>2026-05-03T07:03:31.561Z</time></trkpt><trkpt lat="42.35375" lon="13.402255"><ele>735.0</ele><time>2026-05-03T07:04:14.56Z</time></trkpt><trkpt lat="42.35373" lon="13.4021633"><ele>735.0</ele><time>2026-05-03T07:05:22.561Z</time></trkpt><trkpt lat="42.3537167" lon="13.4020467"><ele>735.0</ele><time>2026-05-03T07:05:25.561Z</time></trkpt><trkpt lat="42.35371" lon="13.4019383"><ele>735.0</ele><time>2026-05-03T07:05:27.56Z</time></trkpt><trkpt lat="42.35373" lon="13.4018433"><ele>735.0</ele><time>2026-05-03T07:05:29.56Z</time></trkpt><trkpt lat="42.3537817" lon="13.401745"><ele>734.8333333333334</ele><time>2026-05-03T07:05:31.561Z</time></trkpt><trkpt lat="42.3538267" lon="13.4016817"><ele>734.6666666666666</ele><time>2026-05-03T07:05:33.561Z</time></trkpt><trkpt lat="42.3538833" lon="13.40164"><ele>734.5</ele><time>2026-05-03T07:05:35.561Z</time></trkpt><trkpt lat="42.3539567" lon="13.40165"><ele>734.3333333333333</ele><time>2026-05-03T07:05:37.56Z</time></trkpt><trkpt lat="42.354035" lon="13.40171"><ele>734.1666666666666</ele><time>2026-05-03T07:05:39.561Z</time></trkpt><trkpt lat="42.3541167" lon="13.4017883"><ele>734.0</ele><time>2026-05-03T07:05:41.561Z</time></trkpt><trkpt lat="42.3542233" lon="13.4018917"><ele>733.4000000000001</ele><time>2026-05-03T07:05:43.561Z</time></trkpt><trkpt lat="42.3542783" lon="13.4019717"><ele>732.8</ele><time>2026-05-03T07:05:44.56Z</time></trkpt><trkpt lat="42.35435" lon="13.402065"><ele>732.2</ele><time>2026-05-03T07:05:45.561Z</time></trkpt><trkpt lat="42.3544383" lon="13.4021733"><ele>731.5999999999999</ele><time>2026-05-03T07:05:46.561Z</time></trkpt><trkpt lat="42.3545317" lon="13.40229"><ele>731.0</ele><time>2026-05-03T07:05:47.561Z</time></trkpt><trkpt lat="42.354625" lon="13.402405"><ele>727.25</ele><time>2026-05-03T07:05:48.561Z</time></trkpt><trkpt lat="42.3547183" lon="13.40252"><ele>723.5</ele><time>2026-05-03T07:05:49.561Z</time></trkpt><trkpt lat="42.3548133" lon="13.4026317"><ele>719.75</ele><time>2026-05-03T07:05:50.56Z</time></trkpt><trkpt lat="42.35491" lon="13.4027417"><ele>716.0</ele><time>2026-05-03T07:05:51.561Z</time></trkpt><trkpt lat="42.3550067" lon="13.40285"><ele>716.0</ele><time>2026-05-03T07:05:52.561Z</time></trkpt><trkpt lat="42.355095" lon="13.4029683"><ele>716.0</ele><time>2026-05-03T07:05:53.561Z</time></trkpt><trkpt lat="42.3551583" lon="13.403095"><ele>716.0</ele><time>2026-05-03T07:05:54.561Z</time></trkpt><trkpt lat="42.3552217" lon="13.403215"><ele>716.0</ele><time>2026-05-03T07:05:55.561Z</time></trkpt><trkpt lat="42.355265" lon="13.4033333"><ele>716.0</ele><time>2026-05-03T07:05:56.561Z</time></trkpt><trkpt lat="42.355305" lon="13.4034483"><ele>717.4</ele><time>2026-05-03T07:05:57.56Z</time></trkpt><trkpt lat="42.3553333" lon="13.40356"><ele>718.8</ele><time>2026-05-03T07:05:58.561Z</time></trkpt><trkpt lat="42.3553533" lon="13.40368"><ele>720.1999999999999</ele><time>2026-05-03T07:05:59.561Z</time></trkpt><trkpt lat="42.3553783" lon="13.4037983"><ele>721.5999999999999</ele><time>2026-05-03T07:06:00.561Z</time></trkpt><trkpt lat="42.3554033" lon="13.40392"><ele>723.0</ele><time>2026-05-03T07:06:01.561Z</time></trkpt><trkpt lat="42.3554333" lon="13.4040417"><ele>724.4</ele><time>2026-05-03T07:06:02.561Z</time></trkpt><trkpt lat="42.355465" lon="13.404175"><ele>725.8</ele><time>2026-05-03T07:06:03.561Z</time></trkpt><trkpt lat="42.3554933" lon="13.40431"><ele>727.2</ele><time>2026-05-03T07:06:04.561Z</time></trkpt><trkpt lat="42.3555267" lon="13.4044483"><ele>728.6</ele><time>2026-05-03T07:06:05.56Z</time></trkpt><trkpt lat="42.3555583" lon="13.4045883"><ele>730.0</ele><time>2026-05-03T07:06:06.561Z</time></trkpt><trkpt lat="42.3555817" lon="13.40474"><ele>726.2</ele><time>2026-05-03T07:06:07.561Z</time></trkpt><trkpt lat="42.3556083" lon="13.4048883"><ele>722.4</ele><time>2026-05-03T07:06:08.561Z</time></trkpt><trkpt lat="42.3556367" lon="13.4050283"><ele>718.5999999999999</ele><time>2026-05-03T07:06:09.561Z</time></trkpt><trkpt lat="42.3556617" lon="13.40517"><ele>714.8</ele><time>2026-05-03T07:06:10.56Z</time></trkpt><trkpt lat="42.3556833" lon="13.4053"><ele>711.0</ele><time>2026-05-03T07:06:11.561Z</time></trkpt><trkpt lat="42.355705" lon="13.4054233"><ele>711.1666666666666</ele><time>2026-05-03T07:06:12.56Z</time></trkpt><trkpt lat="42.3557267" lon="13.4055333"><ele>711.3333333333334</ele><time>2026-05-03T07:06:13.559Z</time></trkpt><trkpt lat="42.3557467" lon="13.4056267"><ele>711.5</ele><time>2026-05-03T07:06:14.56Z</time></trkpt><trkpt lat="42.355755" lon="13.4057183"><ele>711.6666666666667</ele><time>2026-05-03T07:06:15.559Z</time></trkpt><trkpt lat="42.35576" lon="13.4058117"><ele>711.8333333333334</ele><time>2026-05-03T07:06:16.56Z</time></trkpt><trkpt lat="42.3557667" lon="13.40592"><ele>712.0</ele><time>2026-05-03T07:06:17.56Z</time></trkpt><trkpt lat="42.3557767" lon="13.4060417"><ele>712.0</ele><time>2026-05-03T07:06:18.56Z</time></trkpt><trkpt lat="42.3557917" lon="13.4061767"><ele>712.0</ele><time>2026-05-03T07:06:19.56Z</time></trkpt><trkpt lat="42.3557917" lon="13.4063167"><ele>712.0</ele><time>2026-05-03T07:06:20.56Z</time></trkpt><trkpt lat="42.3557733" lon="13.4064467"><ele>712.0</ele><time>2026-05-03T07:06:21.559Z</time></trkpt><trkpt lat="42.355725" lon="13.4065667"><ele>712.0</ele><time>2026-05-03T07:06:22.559Z</time></trkpt><trkpt lat="42.3556717" lon="13.4066733"><ele>712.0</ele><time>2026-05-03T07:06:23.559Z</time></trkpt><trkpt lat="42.3556017" lon="13.4067617"><ele>712.0</ele><time>2026-05-03T07:06:24.559Z</time></trkpt><trkpt lat="42.3555283" lon="13.4068283"><ele>712.0</ele><time>2026-05-03T07:06:25.56Z</time></trkpt><trkpt lat="42.3554483" lon="13.40689"><ele>712.0</ele><time>2026-05-03T07:06:26.56Z</time></trkpt><trkpt lat="42.3553717" lon="13.406955"><ele>712.0</ele><time>2026-05-03T07:06:27.56Z</time></trkpt><trkpt lat="42.3553033" lon="13.40705"><ele>712.0</ele><time>2026-05-03T07:06:28.56Z</time></trkpt><trkpt lat="42.3552433" lon="13.40717"><ele>712.0</ele><time>2026-05-03T07:06:29.56Z</time></trkpt><trkpt lat="42.35518" lon="13.4073017"><ele>712.0</ele><time>2026-05-03T07:06:30.56Z</time></trkpt><trkpt lat="42.35511" lon="13.4074383"><ele>712.0</ele><time>2026-05-03T07:06:31.559Z</time></trkpt><trkpt lat="42.3550317" lon="13.4075883"><ele>712.0</ele><time>2026-05-03T07:06:32.56Z</time></trkpt><trkpt lat="42.3549517" lon="13.4077433"><ele>712.0</ele><time>2026-05-03T07:06:33.56Z</time></trkpt><trkpt lat="42.354865" lon="13.4079017"><ele>712.0</ele><time>2026-05-03T07:06:34.559Z</time></trkpt><trkpt lat="42.3547817" lon="13.40807"><ele>712.0</ele><time>2026-05-03T07:06:35.56Z</time></trkpt><trkpt lat="42.3547017" lon="13.408255"><ele>710.3333333333334</ele><time>2026-05-03T07:06:36.56Z</time></trkpt><trkpt lat="42.3546183" lon="13.4084333"><ele>708.6666666666666</ele><time>2026-05-03T07:06:37.56Z</time></trkpt><trkpt lat="42.3545233" lon="13.4086167"><ele>707.0</ele><time>2026-05-03T07:06:38.559Z</time></trkpt><trkpt lat="42.35442" lon="13.408795"><ele>709.3333333333333</ele><time>2026-05-03T07:06:39.559Z</time></trkpt><trkpt lat="42.35432" lon="13.4089617"><ele>711.6666666666666</ele><time>2026-05-03T07:06:40.56Z</time></trkpt><trkpt lat="42.3542183" lon="13.409115"><ele>714.0</ele><time>2026-05-03T07:06:41.56Z</time></trkpt><trkpt lat="42.3541233" lon="13.409255"><ele>714.0</ele><time>2026-05-03T07:06:42.559Z</time></trkpt><trkpt lat="42.3540183" lon="13.4094067"><ele>714.0</ele><time>2026-05-03T07:06:43.56Z</time></trkpt><trkpt lat="42.3539117" lon="13.4095683"><ele>714.0</ele><time>2026-05-03T07:06:44.56Z</time></trkpt><trkpt lat="42.353795" lon="13.4097267"><ele>713.6666666666666</ele><time>2026-05-03T07:06:45.559Z</time></trkpt><trkpt lat="42.3536833" lon="13.40987"><ele>713.3333333333333</ele><time>2026-05-03T07:06:46.559Z</time></trkpt><trkpt lat="42.35357" lon="13.41002"><ele>713.0</ele><time>2026-05-03T07:06:47.559Z</time></trkpt><trkpt lat="42.3534633" lon="13.4101717"><ele>713.0</ele><time>2026-05-03T07:06:48.56Z</time></trkpt><trkpt lat="42.3533567" lon="13.4103233"><ele>713.0</ele><time>2026-05-03T07:06:49.559Z</time></trkpt><trkpt lat="42.3532467" lon="13.41048"><ele>713.0</ele><time>2026-05-03T07:06:50.559Z</time></trkpt><trkpt lat="42.3531317" lon="13.4106517"><ele>713.3333333333333</ele><time>2026-05-03T07:06:51.56Z</time></trkpt><trkpt lat="42.3530167" lon="13.4108283"><ele>713.6666666666666</ele><time>2026-05-03T07:06:52.56Z</time></trkpt><trkpt lat="42.352905" lon="13.4109933"><ele>714.0</ele><time>2026-05-03T07:06:53.559Z</time></trkpt><trkpt lat="42.3527983" lon="13.4111533"><ele>714.6666666666666</ele><time>2026-05-03T07:06:54.56Z</time></trkpt><trkpt lat="42.3526933" lon="13.411325"><ele>715.3333333333333</ele><time>2026-05-03T07:06:55.56Z</time></trkpt><trkpt lat="42.3525817" lon="13.4115017"><ele>716.0</ele><time>2026-05-03T07:06:56.56Z</time></trkpt><trkpt lat="42.35248" lon="13.4116517"><ele>716.0</ele><time>2026-05-03T07:06:57.56Z</time></trkpt><trkpt lat="42.3523867" lon="13.4117917"><ele>716.0</ele><time>2026-05-03T07:06:58.56Z</time></trkpt><trkpt lat="42.3523067" lon="13.4119183"><ele>716.0</ele><time>2026-05-03T07:06:59.56Z</time></trkpt><trkpt lat="42.35224" lon="13.4120317"><ele>716.0</ele><time>2026-05-03T07:07:00.56Z</time></trkpt><trkpt lat="42.3521617" lon="13.4121633"><ele>715.8</ele><time>2026-05-03T07:07:01.56Z</time></trkpt><trkpt lat="42.35209" lon="13.4122883"><ele>715.5999999999999</ele><time>2026-05-03T07:07:02.559Z</time></trkpt><trkpt lat="42.3520267" lon="13.4124083"><ele>715.4</ele><time>2026-05-03T07:07:03.56Z</time></trkpt><trkpt lat="42.3519933" lon="13.4125117"><ele>715.2</ele><time>2026-05-03T07:07:04.56Z</time></trkpt><trkpt lat="42.35198" lon="13.4126267"><ele>715.0</ele><time>2026-05-03T07:07:05.56Z</time></trkpt><trkpt lat="42.35199" lon="13.4127583"><ele>715.0</ele><time>2026-05-03T07:07:06.559Z</time></trkpt><trkpt lat="42.3520267" lon="13.412905"><ele>715.0</ele><time>2026-05-03T07:07:07.559Z</time></trkpt><trkpt lat="42.3520667" lon="13.413065"><ele>715.0</ele><time>2026-05-03T07:07:08.56Z</time></trkpt><trkpt lat="42.3521183" lon="13.4132283"><ele>715.0</ele><time>2026-05-03T07:07:09.56Z</time></trkpt><trkpt lat="42.35219" lon="13.413395"><ele>716.25</ele><time>2026-05-03T07:07:10.56Z</time></trkpt><trkpt lat="42.3522567" lon="13.4135667"><ele>717.5</ele><time>2026-05-03T07:07:11.56Z</time></trkpt><trkpt lat="42.35233" lon="13.4137367"><ele>718.75</ele><time>2026-05-03T07:07:12.56Z</time></trkpt><trkpt lat="42.3523933" lon="13.4139033"><ele>720.0</ele><time>2026-05-03T07:07:13.559Z</time></trkpt><trkpt lat="42.3524383" lon="13.414065"><ele>720.0</ele><time>2026-05-03T07:07:14.56Z</time></trkpt><trkpt lat="42.3524633" lon="13.41424"><ele>720.0</ele><time>2026-05-03T07:07:15.559Z</time></trkpt><trkpt lat="42.3524667" lon="13.4144167"><ele>720.0</ele><time>2026-05-03T07:07:16.559Z</time></trkpt><trkpt lat="42.3524483" lon="13.4146033"><ele>720.0</ele><time>2026-05-03T07:07:17.56Z</time></trkpt><trkpt lat="42.3524183" lon="13.4147867"><ele>720.25</ele><time>2026-05-03T07:07:18.56Z</time></trkpt><trkpt lat="42.3523717" lon="13.4149683"><ele>720.5</ele><time>2026-05-03T07:07:19.56Z</time></trkpt><trkpt lat="42.3523083" lon="13.415155"><ele>720.75</ele><time>2026-05-03T07:07:20.56Z</time></trkpt><trkpt lat="42.35224" lon="13.4153233"><ele>721.0</ele><time>2026-05-03T07:07:21.56Z</time></trkpt><trkpt lat="42.3521667" lon="13.4154833"><ele>721.75</ele><time>2026-05-03T07:07:22.559Z</time></trkpt><trkpt lat="42.3520833" lon="13.4156433"><ele>722.5</ele><time>2026-05-03T07:07:23.559Z</time></trkpt><trkpt lat="42.3519933" lon="13.415805"><ele>723.25</ele><time>2026-05-03T07:07:24.559Z</time></trkpt><trkpt lat="42.3519083" lon="13.4159633"><ele>724.0</ele><time>2026-05-03T07:07:25.56Z</time></trkpt><trkpt lat="42.3518267" lon="13.4161317"><ele>724.0</ele><time>2026-05-03T07:07:26.56Z</time></trkpt><trkpt lat="42.351765" lon="13.4163083"><ele>724.0</ele><time>2026-05-03T07:07:27.56Z</time></trkpt><trkpt lat="42.35172" lon="13.4165083"><ele>724.0</ele><time>2026-05-03T07:07:28.559Z</time></trkpt><trkpt lat="42.351695" lon="13.4167033"><ele>724.0</ele><time>2026-05-03T07:07:29.559Z</time></trkpt><trkpt lat="42.351675" lon="13.4169"><ele>724.75</ele><time>2026-05-03T07:07:30.56Z</time></trkpt><trkpt lat="42.3516567" lon="13.4170967"><ele>725.5</ele><time>2026-05-03T07:07:31.56Z</time></trkpt><trkpt lat="42.3516417" lon="13.4172983"><ele>726.25</ele><time>2026-05-03T07:07:32.56Z</time></trkpt><trkpt lat="42.3516383" lon="13.4175"><ele>727.0</ele><time>2026-05-03T07:07:33.56Z</time></trkpt><trkpt lat="42.351635" lon="13.4177033"><ele>727.75</ele><time>2026-05-03T07:07:34.56Z</time></trkpt><trkpt lat="42.3516367" lon="13.4178883"><ele>728.5</ele><time>2026-05-03T07:07:35.559Z</time></trkpt><trkpt lat="42.3516467" lon="13.4180567"><ele>729.25</ele><time>2026-05-03T07:07:36.56Z</time></trkpt><trkpt lat="42.3516683" lon="13.418195"><ele>730.0</ele><time>2026-05-03T07:07:37.559Z</time></trkpt><trkpt lat="42.3517133" lon="13.4183233"><ele>730.0</ele><time>2026-05-03T07:07:38.56Z</time></trkpt><trkpt lat="42.3517767" lon="13.4184433"><ele>730.0</ele><time>2026-05-03T07:07:39.56Z</time></trkpt><trkpt lat="42.3518467" lon="13.4185667"><ele>730.0</ele><time>2026-05-03T07:07:40.559Z</time></trkpt><trkpt lat="42.3519" lon="13.4186783"><ele>730.0</ele><time>2026-05-03T07:07:41.56Z</time></trkpt><trkpt lat="42.3519383" lon="13.418785"><ele>730.0</ele><time>2026-05-03T07:07:42.559Z</time></trkpt><trkpt lat="42.3519583" lon="13.4188767"><ele>730.1666666666667</ele><time>2026-05-03T07:07:43.559Z</time></trkpt><trkpt lat="42.35194" lon="13.4189667"><ele>730.3333333333334</ele><time>2026-05-03T07:07:44.559Z</time></trkpt><trkpt lat="42.3519117" lon="13.4190717"><ele>730.5</ele><time>2026-05-03T07:07:45.559Z</time></trkpt><trkpt lat="42.3518867" lon="13.41918"><ele>730.6666666666666</ele><time>2026-05-03T07:07:46.56Z</time></trkpt><trkpt lat="42.351885" lon="13.4192833"><ele>730.8333333333333</ele><time>2026-05-03T07:07:47.56Z</time></trkpt><trkpt lat="42.3519183" lon="13.4193683"><ele>731.0</ele><time>2026-05-03T07:07:48.56Z</time></trkpt><trkpt lat="42.3519717" lon="13.419455"><ele>731.0</ele><time>2026-05-03T07:07:49.56Z</time></trkpt><trkpt lat="42.3520283" lon="13.4195483"><ele>731.0</ele><time>2026-05-03T07:07:50.559Z</time></trkpt><trkpt lat="42.352075" lon="13.4196417"><ele>731.0</ele><time>2026-05-03T07:07:51.559Z</time></trkpt><trkpt lat="42.3521217" lon="13.4197333"><ele>731.0</ele><time>2026-05-03T07:07:52.56Z</time></trkpt><trkpt lat="42.3521583" lon="13.4198183"><ele>731.0</ele><time>2026-05-03T07:07:53.56Z</time></trkpt><trkpt lat="42.3521817" lon="13.41992"><ele>731.0</ele><time>2026-05-03T07:07:54.559Z</time></trkpt><trkpt lat="42.35219" lon="13.42004"><ele>731.4</ele><time>2026-05-03T07:07:55.56Z</time></trkpt><trkpt lat="42.3521883" lon="13.4201717"><ele>731.8</ele><time>2026-05-03T07:07:56.56Z</time></trkpt><trkpt lat="42.35219" lon="13.4203117"><ele>732.1999999999999</ele><time>2026-05-03T07:07:57.559Z</time></trkpt><trkpt lat="42.352195" lon="13.4204617"><ele>732.5999999999999</ele><time>2026-05-03T07:07:58.56Z</time></trkpt><trkpt lat="42.3522067" lon="13.420615"><ele>733.0</ele><time>2026-05-03T07:07:59.56Z</time></trkpt><trkpt lat="42.352235" lon="13.4207633"><ele>735.0</ele><time>2026-05-03T07:08:00.56Z</time></trkpt><trkpt lat="42.35227" lon="13.4209117"><ele>737.0</ele><time>2026-05-03T07:08:01.56Z</time></trkpt><trkpt lat="42.3523083" lon="13.421065"><ele>739.0</ele><time>2026-05-03T07:08:02.56Z</time></trkpt><trkpt lat="42.3523467" lon="13.42122"><ele>741.0</ele><time>2026-05-03T07:08:03.559Z</time></trkpt><trkpt lat="42.3523833" lon="13.4213783"><ele>741.5999999999999</ele><time>2026-05-03T07:08:04.56Z</time></trkpt><trkpt lat="42.3524033" lon="13.4215267"><ele>742.2</ele><time>2026-05-03T07:08:05.559Z</time></trkpt><trkpt lat="42.3524033" lon="13.4216617"><ele>742.8</ele><time>2026-05-03T07:08:06.56Z</time></trkpt><trkpt lat="42.352395" lon="13.4217983"><ele>743.4000000000001</ele><time>2026-05-03T07:08:07.56Z</time></trkpt><trkpt lat="42.35238" lon="13.4219367"><ele>744.0</ele><time>2026-05-03T07:08:08.56Z</time></trkpt><trkpt lat="42.352365" lon="13.42208"><ele>742.25</ele><time>2026-05-03T07:08:09.56Z</time></trkpt><trkpt lat="42.3523517" lon="13.42224"><ele>740.5</ele><time>2026-05-03T07:08:10.56Z</time></trkpt><trkpt lat="42.3523567" lon="13.42241"><ele>738.75</ele><time>2026-05-03T07:08:11.559Z</time></trkpt><trkpt lat="42.35237" lon="13.422605"><ele>737.0</ele><time>2026-05-03T07:08:12.56Z</time></trkpt><trkpt lat="42.3523883" lon="13.4228033"><ele>734.5</ele><time>2026-05-03T07:08:13.559Z</time></trkpt><trkpt lat="42.35241" lon="13.422985"><ele>732.0</ele><time>2026-05-03T07:08:14.56Z</time></trkpt><trkpt lat="42.3524233" lon="13.4231667"><ele>729.5</ele><time>2026-05-03T07:08:15.56Z</time></trkpt><trkpt lat="42.3524383" lon="13.4233467"><ele>727.0</ele><time>2026-05-03T07:08:16.56Z</time></trkpt><trkpt lat="42.3524383" lon="13.4235233"><ele>727.0</ele><time>2026-05-03T07:08:17.56Z</time></trkpt><trkpt lat="42.3524217" lon="13.4237133"><ele>727.0</ele><time>2026-05-03T07:08:18.56Z</time></trkpt><trkpt lat="42.3523967" lon="13.4238967"><ele>727.0</ele><time>2026-05-03T07:08:19.56Z</time></trkpt><trkpt lat="42.35236" lon="13.4240867"><ele>727.0</ele><time>2026-05-03T07:08:20.559Z</time></trkpt><trkpt lat="42.3523233" lon="13.424275"><ele>725.5</ele><time>2026-05-03T07:08:21.56Z</time></trkpt><trkpt lat="42.35229" lon="13.424445"><ele>724.0</ele><time>2026-05-03T07:08:22.56Z</time></trkpt><trkpt lat="42.3522567" lon="13.4245983"><ele>722.5</ele><time>2026-05-03T07:08:23.559Z</time></trkpt><trkpt lat="42.3522233" lon="13.4247467"><ele>721.0</ele><time>2026-05-03T07:08:24.56Z</time></trkpt><trkpt lat="42.3521867" lon="13.4248933"><ele>719.25</ele><time>2026-05-03T07:08:25.56Z</time></trkpt><trkpt lat="42.35214" lon="13.4250367"><ele>717.5</ele><time>2026-05-03T07:08:26.56Z</time></trkpt><trkpt lat="42.35208" lon="13.4251717"><ele>715.75</ele><time>2026-05-03T07:08:27.56Z</time></trkpt><trkpt lat="42.352015" lon="13.42531"><ele>714.0</ele><time>2026-05-03T07:08:28.56Z</time></trkpt><trkpt lat="42.3519483" lon="13.42545"><ele>714.6666666666666</ele><time>2026-05-03T07:08:29.56Z</time></trkpt><trkpt lat="42.35189" lon="13.4255533"><ele>715.3333333333334</ele><time>2026-05-03T07:08:30.559Z</time></trkpt><trkpt lat="42.3518383" lon="13.4256417"><ele>716.0</ele><time>2026-05-03T07:08:31.559Z</time></trkpt><trkpt lat="42.3517917" lon="13.4257267"><ele>716.6666666666667</ele><time>2026-05-03T07:08:32.56Z</time></trkpt><trkpt lat="42.351745" lon="13.4258233"><ele>717.3333333333334</ele><time>2026-05-03T07:08:33.56Z</time></trkpt><trkpt lat="42.3516983" lon="13.42593"><ele>718.0</ele><time>2026-05-03T07:08:34.56Z</time></trkpt><trkpt lat="42.35165" lon="13.4260367"><ele>718.0</ele><time>2026-05-03T07:08:35.559Z</time></trkpt><trkpt lat="42.3516033" lon="13.426135"><ele>718.0</ele><time>2026-05-03T07:08:36.56Z</time></trkpt><trkpt lat="42.3515633" lon="13.426235"><ele>718.0</ele><time>2026-05-03T07:08:37.56Z</time></trkpt><trkpt lat="42.3515283" lon="13.4263383"><ele>718.0</ele><time>2026-05-03T07:08:38.559Z</time></trkpt><trkpt lat="42.351495" lon="13.4264483"><ele>718.0</ele><time>2026-05-03T07:08:39.56Z</time></trkpt><trkpt lat="42.35146" lon="13.4265683"><ele>718.0</ele><time>2026-05-03T07:08:40.559Z</time></trkpt><trkpt lat="42.3514267" lon="13.4266867"><ele>719.8333333333334</ele><time>2026-05-03T07:08:41.559Z</time></trkpt><trkpt lat="42.3513983" lon="13.4268017"><ele>721.6666666666667</ele><time>2026-05-03T07:08:42.559Z</time></trkpt><trkpt lat="42.3513817" lon="13.4269233"><ele>723.5</ele><time>2026-05-03T07:08:43.56Z</time></trkpt><trkpt lat="42.3513667" lon="13.4270417"><ele>725.3333333333334</ele><time>2026-05-03T07:08:44.56Z</time></trkpt><trkpt lat="42.3513533" lon="13.42715"><ele>727.1666666666666</ele><time>2026-05-03T07:08:45.56Z</time></trkpt><trkpt lat="42.3513417" lon="13.4272683"><ele>729.0</ele><time>2026-05-03T07:08:46.56Z</time></trkpt><trkpt lat="42.351325" lon="13.42738"><ele>730.0</ele><time>2026-05-03T07:08:47.56Z</time></trkpt><trkpt lat="42.3513017" lon="13.4274833"><ele>731.0</ele><time>2026-05-03T07:08:48.559Z</time></trkpt><trkpt lat="42.3512683" lon="13.4275883"><ele>732.0</ele><time>2026-05-03T07:08:49.56Z</time></trkpt><trkpt lat="42.351225" lon="13.427675"><ele>733.0</ele><time>2026-05-03T07:08:50.559Z</time></trkpt><trkpt lat="42.3511667" lon="13.4277783"><ele>734.0</ele><time>2026-05-03T07:08:52.559Z</time></trkpt><trkpt lat="42.3511183" lon="13.4278417"><ele>735.0</ele><time>2026-05-03T07:08:54.56Z</time></trkpt><trkpt lat="42.3510717" lon="13.42793"><ele>734.2</ele><time>2026-05-03T07:08:56.56Z</time></trkpt><trkpt lat="42.3510467" lon="13.428085"><ele>733.4</ele><time>2026-05-03T07:08:58.56Z</time></trkpt><trkpt lat="42.35111" lon="13.428185"><ele>732.5999999999999</ele><time>2026-05-03T07:09:01.56Z</time></trkpt><trkpt lat="42.3512217" lon="13.4282467"><ele>731.8</ele><time>2026-05-03T07:09:03.559Z</time></trkpt><trkpt lat="42.3512967" lon="13.42828"><ele>731.0</ele><time>2026-05-03T07:09:04.559Z</time></trkpt><trkpt lat="42.3513733" lon="13.4283133"><ele>732.6666666666666</ele><time>2026-05-03T07:09:05.56Z</time></trkpt><trkpt lat="42.351455" lon="13.42835"><ele>734.3333333333333</ele><time>2026-05-03T07:09:06.559Z</time></trkpt><trkpt lat="42.351535" lon="13.42839"><ele>736.0</ele><time>2026-05-03T07:09:07.56Z</time></trkpt><trkpt lat="42.3516083" lon="13.4284367"><ele>737.6666666666666</ele><time>2026-05-03T07:09:08.56Z</time></trkpt><trkpt lat="42.3516683" lon="13.4285"><ele>739.3333333333334</ele><time>2026-05-03T07:09:09.559Z</time></trkpt><trkpt lat="42.35172" lon="13.4285883"><ele>741.0</ele><time>2026-05-03T07:09:10.56Z</time></trkpt><trkpt lat="42.3517717" lon="13.4286883"><ele>741.0</ele><time>2026-05-03T07:09:11.56Z</time></trkpt><trkpt lat="42.3518183" lon="13.4287833"><ele>741.0</ele><time>2026-05-03T07:09:12.559Z</time></trkpt><trkpt lat="42.3518617" lon="13.4288733"><ele>741.0</ele><time>2026-05-03T07:09:13.559Z</time></trkpt><trkpt lat="42.351885" lon="13.4289667"><ele>741.0</ele><time>2026-05-03T07:09:14.56Z</time></trkpt><trkpt lat="42.35189" lon="13.42906"><ele>741.0</ele><time>2026-05-03T07:09:15.56Z</time></trkpt><trkpt lat="42.35188" lon="13.429145"><ele>741.0</ele><time>2026-05-03T07:09:16.56Z</time></trkpt><trkpt lat="42.3518483" lon="13.4292333"><ele>741.0</ele><time>2026-05-03T07:09:17.56Z</time></trkpt><trkpt lat="42.3518133" lon="13.4293417"><ele>741.1999999999999</ele><time>2026-05-03T07:09:18.56Z</time></trkpt><trkpt lat="42.3517733" lon="13.4294567"><ele>741.4</ele><time>2026-05-03T07:09:19.559Z</time></trkpt><trkpt lat="42.3517167" lon="13.429585"><ele>741.6</ele><time>2026-05-03T07:09:20.56Z</time></trkpt><trkpt lat="42.351655" lon="13.429715"><ele>741.8</ele><time>2026-05-03T07:09:21.56Z</time></trkpt><trkpt lat="42.3515917" lon="13.42984"><ele>742.0</ele><time>2026-05-03T07:09:22.56Z</time></trkpt><trkpt lat="42.3515267" lon="13.4299433"><ele>742.3333333333334</ele><time>2026-05-03T07:09:23.56Z</time></trkpt><trkpt lat="42.35146" lon="13.4300217"><ele>742.6666666666667</ele><time>2026-05-03T07:09:24.56Z</time></trkpt><trkpt lat="42.3513933" lon="13.4300717"><ele>743.0</ele><time>2026-05-03T07:09:25.559Z</time></trkpt><trkpt lat="42.3513283" lon="13.4300833"><ele>743.3333333333334</ele><time>2026-05-03T07:09:26.559Z</time></trkpt><trkpt lat="42.3512567" lon="13.4300717"><ele>743.6666666666666</ele><time>2026-05-03T07:09:27.559Z</time></trkpt><trkpt lat="42.351185" lon="13.4300467"><ele>744.0</ele><time>2026-05-03T07:09:28.559Z</time></trkpt><trkpt lat="42.3511083" lon="13.4300083"><ele>742.0</ele><time>2026-05-03T07:09:29.559Z</time></trkpt><trkpt lat="42.35102" lon="13.42998"><ele>740.0</ele><time>2026-05-03T07:09:30.559Z</time></trkpt><trkpt lat="42.35093" lon="13.42996"><ele>738.0</ele><time>2026-05-03T07:09:31.56Z</time></trkpt><trkpt lat="42.3508467" lon="13.4299533"><ele>736.0</ele><time>2026-05-03T07:09:32.56Z</time></trkpt><trkpt lat="42.3507683" lon="13.4299617"><ele>734.0</ele><time>2026-05-03T07:09:33.559Z</time></trkpt><trkpt lat="42.3506933" lon="13.429995"><ele>732.0</ele><time>2026-05-03T07:09:34.56Z</time></trkpt><trkpt lat="42.3506283" lon="13.430035"><ele>732.0</ele><time>2026-05-03T07:09:35.559Z</time></trkpt><trkpt lat="42.350575" lon="13.430095"><ele>732.0</ele><time>2026-05-03T07:09:36.56Z</time></trkpt><trkpt lat="42.350525" lon="13.43017"><ele>732.0</ele><time>2026-05-03T07:09:37.56Z</time></trkpt><trkpt lat="42.3504633" lon="13.4302583"><ele>732.0</ele><time>2026-05-03T07:09:38.56Z</time></trkpt><trkpt lat="42.3503983" lon="13.4303567"><ele>732.0</ele><time>2026-05-03T07:09:39.56Z</time></trkpt><trkpt lat="42.3503267" lon="13.4304667"><ele>732.0</ele><time>2026-05-03T07:09:40.56Z</time></trkpt><trkpt lat="42.35025" lon="13.4305867"><ele>731.2</ele><time>2026-05-03T07:09:41.559Z</time></trkpt><trkpt lat="42.3501667" lon="13.4307083"><ele>730.4000000000001</ele><time>2026-05-03T07:09:42.559Z</time></trkpt><trkpt lat="42.350095" lon="13.430815"><ele>729.5999999999999</ele><time>2026-05-03T07:09:43.559Z</time></trkpt><trkpt lat="42.3500267" lon="13.4308917"><ele>728.8</ele><time>2026-05-03T07:09:44.559Z</time></trkpt><trkpt lat="42.3499517" lon="13.4309567"><ele>728.0</ele><time>2026-05-03T07:09:45.559Z</time></trkpt><trkpt lat="42.3498683" lon="13.431005"><ele>728.0</ele><time>2026-05-03T07:09:46.56Z</time></trkpt><trkpt lat="42.3497733" lon="13.4310383"><ele>728.0</ele><time>2026-05-03T07:09:47.559Z</time></trkpt><trkpt lat="42.3496733" lon="13.4310533"><ele>728.0</ele><time>2026-05-03T07:09:48.56Z</time></trkpt><trkpt lat="42.3495717" lon="13.4310517"><ele>728.0</ele><time>2026-05-03T07:09:49.56Z</time></trkpt><trkpt lat="42.34946" lon="13.4310217"><ele>728.0</ele><time>2026-05-03T07:09:50.56Z</time></trkpt><trkpt lat="42.3493567" lon="13.4310083"><ele>726.25</ele><time>2026-05-03T07:09:51.56Z</time></trkpt><trkpt lat="42.3492517" lon="13.4310117"><ele>724.5</ele><time>2026-05-03T07:09:52.559Z</time></trkpt><trkpt lat="42.349145" lon="13.431045"><ele>722.75</ele><time>2026-05-03T07:09:53.559Z</time></trkpt><trkpt lat="42.349035" lon="13.431095"><ele>721.0</ele><time>2026-05-03T07:09:54.559Z</time></trkpt><trkpt lat="42.348925" lon="13.4311583"><ele>721.0</ele><time>2026-05-03T07:09:55.56Z</time></trkpt><trkpt lat="42.3488117" lon="13.43123"><ele>721.0</ele><time>2026-05-03T07:09:56.56Z</time></trkpt><trkpt lat="42.3487017" lon="13.4312983"><ele>721.0</ele><time>2026-05-03T07:09:57.56Z</time></trkpt><trkpt lat="42.3486067" lon="13.431375"><ele>721.0</ele><time>2026-05-03T07:09:58.56Z</time></trkpt><trkpt lat="42.3485067" lon="13.4314467"><ele>721.0</ele><time>2026-05-03T07:09:59.559Z</time></trkpt><trkpt lat="42.3484" lon="13.4315117"><ele>721.0</ele><time>2026-05-03T07:10:00.56Z</time></trkpt><trkpt lat="42.348285" lon="13.4315667"><ele>721.0</ele><time>2026-05-03T07:10:01.56Z</time></trkpt><trkpt lat="42.3481567" lon="13.4316117"><ele>721.0</ele><time>2026-05-03T07:10:02.56Z</time></trkpt><trkpt lat="42.348035" lon="13.4316633"><ele>718.5</ele><time>2026-05-03T07:10:03.56Z</time></trkpt><trkpt lat="42.347915" lon="13.431715"><ele>716.0</ele><time>2026-05-03T07:10:04.56Z</time></trkpt><trkpt lat="42.3477967" lon="13.4317833"><ele>713.5</ele><time>2026-05-03T07:10:05.56Z</time></trkpt><trkpt lat="42.3476867" lon="13.4318517"><ele>711.0</ele><time>2026-05-03T07:10:06.56Z</time></trkpt><trkpt lat="42.34758" lon="13.43192"><ele>711.0</ele><time>2026-05-03T07:10:07.56Z</time></trkpt><trkpt lat="42.3474717" lon="13.4319783"><ele>711.0</ele><time>2026-05-03T07:10:08.56Z</time></trkpt><trkpt lat="42.3473567" lon="13.4320383"><ele>711.0</ele><time>2026-05-03T07:10:09.559Z</time></trkpt><trkpt lat="42.3472417" lon="13.4321083"><ele>711.0</ele><time>2026-05-03T07:10:10.56Z</time></trkpt><trkpt lat="42.3471267" lon="13.4321717"><ele>711.5</ele><time>2026-05-03T07:10:11.559Z</time></trkpt><trkpt lat="42.3470133" lon="13.4322333"><ele>712.0</ele><time>2026-05-03T07:10:12.56Z</time></trkpt><trkpt lat="42.3469017" lon="13.4323033"><ele>712.5</ele><time>2026-05-03T07:10:13.559Z</time></trkpt><trkpt lat="42.3468033" lon="13.4323767"><ele>713.0</ele><time>2026-05-03T07:10:14.559Z</time></trkpt><trkpt lat="42.3467033" lon="13.432465"><ele>713.0</ele><time>2026-05-03T07:10:15.56Z</time></trkpt><trkpt lat="42.3466083" lon="13.4325583"><ele>713.0</ele><time>2026-05-03T07:10:16.56Z</time></trkpt><trkpt lat="42.3465083" lon="13.4326533"><ele>713.0</ele><time>2026-05-03T07:10:17.56Z</time></trkpt><trkpt lat="42.34641" lon="13.4327483"><ele>713.0</ele><time>2026-05-03T07:10:18.56Z</time></trkpt><trkpt lat="42.346315" lon="13.4328333"><ele>713.2</ele><time>2026-05-03T07:10:19.56Z</time></trkpt><trkpt lat="42.3462167" lon="13.4329083"><ele>713.4</ele><time>2026-05-03T07:10:20.56Z</time></trkpt><trkpt lat="42.346115" lon="13.43298"><ele>713.6</ele><time>2026-05-03T07:10:21.559Z</time></trkpt><trkpt lat="42.3460217" lon="13.4330467"><ele>713.8000000000001</ele><time>2026-05-03T07:10:22.559Z</time></trkpt><trkpt lat="42.34594" lon="13.4331117"><ele>714.0</ele><time>2026-05-03T07:10:23.56Z</time></trkpt><trkpt lat="42.3458783" lon="13.43316"><ele>714.0</ele><time>2026-05-03T07:10:24.56Z</time></trkpt><trkpt lat="42.3457733" lon="13.4332217"><ele>714.0</ele><time>2026-05-03T07:10:26.559Z</time></trkpt><trkpt lat="42.3456733" lon="13.4333167"><ele>714.0</ele><time>2026-05-03T07:10:28.558Z</time></trkpt><trkpt lat="42.3456117" lon="13.4333667"><ele>714.0</ele><time>2026-05-03T07:10:29.559Z</time></trkpt><trkpt lat="42.3455367" lon="13.4334117"><ele>714.0</ele><time>2026-05-03T07:10:30.558Z</time></trkpt><trkpt lat="42.3454667" lon="13.43346"><ele>712.6</ele><time>2026-05-03T07:10:31.559Z</time></trkpt><trkpt lat="42.3454033" lon="13.43352"><ele>711.2</ele><time>2026-05-03T07:10:32.558Z</time></trkpt><trkpt lat="42.3453467" lon="13.4335933"><ele>709.8000000000001</ele><time>2026-05-03T07:10:33.558Z</time></trkpt><trkpt lat="42.345275" lon="13.4336817"><ele>708.4000000000001</ele><time>2026-05-03T07:10:34.559Z</time></trkpt><trkpt lat="42.3452" lon="13.4337967"><ele>707.0</ele><time>2026-05-03T07:10:35.559Z</time></trkpt><trkpt lat="42.345125" lon="13.43392"><ele>707.0</ele><time>2026-05-03T07:10:36.559Z</time></trkpt><trkpt lat="42.3450583" lon="13.4340633"><ele>707.0</ele><time>2026-05-03T07:10:37.558Z</time></trkpt><trkpt lat="42.34498" lon="13.4342133"><ele>707.0</ele><time>2026-05-03T07:10:38.559Z</time></trkpt><trkpt lat="42.3449133" lon="13.4343583"><ele>707.0</ele><time>2026-05-03T07:10:39.558Z</time></trkpt><trkpt lat="42.3448433" lon="13.434515"><ele>708.75</ele><time>2026-05-03T07:10:40.559Z</time></trkpt><trkpt lat="42.34478" lon="13.4346583"><ele>710.5</ele><time>2026-05-03T07:10:41.559Z</time></trkpt><trkpt lat="42.3447233" lon="13.4347917"><ele>712.25</ele><time>2026-05-03T07:10:42.559Z</time></trkpt><trkpt lat="42.3446717" lon="13.4349233"><ele>714.0</ele><time>2026-05-03T07:10:43.559Z</time></trkpt><trkpt lat="42.344615" lon="13.4350717"><ele>710.6</ele><time>2026-05-03T07:10:44.559Z</time></trkpt><trkpt lat="42.34456" lon="13.4352067"><ele>707.2</ele><time>2026-05-03T07:10:45.558Z</time></trkpt><trkpt lat="42.3445" lon="13.4353433"><ele>703.8000000000001</ele><time>2026-05-03T07:10:46.559Z</time></trkpt><trkpt lat="42.3444517" lon="13.43548"><ele>700.4000000000001</ele><time>2026-05-03T07:10:47.559Z</time></trkpt><trkpt lat="42.344405" lon="13.4356033"><ele>697.0</ele><time>2026-05-03T07:10:48.558Z</time></trkpt><trkpt lat="42.3443617" lon="13.435705"><ele>697.0</ele><time>2026-05-03T07:10:49.559Z</time></trkpt><trkpt lat="42.34432" lon="13.4358133"><ele>697.0</ele><time>2026-05-03T07:10:50.559Z</time></trkpt><trkpt lat="42.3442867" lon="13.435915"><ele>697.0</ele><time>2026-05-03T07:10:51.559Z</time></trkpt><trkpt lat="42.3442667" lon="13.4360133"><ele>697.0</ele><time>2026-05-03T07:10:52.559Z</time></trkpt><trkpt lat="42.344255" lon="13.4361333"><ele>697.0</ele><time>2026-05-03T07:10:53.558Z</time></trkpt><trkpt lat="42.34424" lon="13.4362617"><ele>697.0</ele><time>2026-05-03T07:10:54.559Z</time></trkpt><trkpt lat="42.3442233" lon="13.4363883"><ele>696.8333333333334</ele><time>2026-05-03T07:10:55.559Z</time></trkpt><trkpt lat="42.3442183" lon="13.436515"><ele>696.6666666666667</ele><time>2026-05-03T07:10:56.558Z</time></trkpt><trkpt lat="42.3442133" lon="13.4366267"><ele>696.5</ele><time>2026-05-03T07:10:57.558Z</time></trkpt><trkpt lat="42.3442117" lon="13.436725"><ele>696.3333333333334</ele><time>2026-05-03T07:10:58.559Z</time></trkpt><trkpt lat="42.3442017" lon="13.4368317"><ele>696.1666666666666</ele><time>2026-05-03T07:10:59.559Z</time></trkpt><trkpt lat="42.3441867" lon="13.4369417"><ele>696.0</ele><time>2026-05-03T07:11:00.559Z</time></trkpt><trkpt lat="42.34416" lon="13.4370617"><ele>697.1666666666666</ele><time>2026-05-03T07:11:01.559Z</time></trkpt><trkpt lat="42.34412" lon="13.4371633"><ele>698.3333333333334</ele><time>2026-05-03T07:11:02.559Z</time></trkpt><trkpt lat="42.34409" lon="13.437255"><ele>699.5</ele><time>2026-05-03T07:11:03.559Z</time></trkpt><trkpt lat="42.3440717" lon="13.4373467"><ele>700.6666666666667</ele><time>2026-05-03T07:11:04.559Z</time></trkpt><trkpt lat="42.34405" lon="13.43746"><ele>701.8333333333334</ele><time>2026-05-03T07:11:05.559Z</time></trkpt><trkpt lat="42.3440367" lon="13.4375833"><ele>703.0</ele><time>2026-05-03T07:11:06.559Z</time></trkpt><trkpt lat="42.344015" lon="13.4377083"><ele>703.0</ele><time>2026-05-03T07:11:07.558Z</time></trkpt><trkpt lat="42.3439917" lon="13.4378417"><ele>703.0</ele><time>2026-05-03T07:11:08.559Z</time></trkpt><trkpt lat="42.34398" lon="13.437985"><ele>703.0</ele><time>2026-05-03T07:11:09.559Z</time></trkpt><trkpt lat="42.3439583" lon="13.4381233"><ele>703.0</ele><time>2026-05-03T07:11:10.558Z</time></trkpt><trkpt lat="42.3439383" lon="13.4382683"><ele>703.0</ele><time>2026-05-03T07:11:11.558Z</time></trkpt><trkpt lat="42.3439167" lon="13.4383983"><ele>701.8333333333334</ele><time>2026-05-03T07:11:12.558Z</time></trkpt><trkpt lat="42.343905" lon="13.4385083"><ele>700.6666666666667</ele><time>2026-05-03T07:11:13.559Z</time></trkpt><trkpt lat="42.3438883" lon="13.4386017"><ele>699.5</ele><time>2026-05-03T07:11:14.558Z</time></trkpt><trkpt lat="42.34386" lon="13.438695"><ele>698.3333333333334</ele><time>2026-05-03T07:11:15.558Z</time></trkpt><trkpt lat="42.34382" lon="13.4387933"><ele>697.1666666666666</ele><time>2026-05-03T07:11:16.558Z</time></trkpt><trkpt lat="42.3437633" lon="13.43889"><ele>696.0</ele><time>2026-05-03T07:11:17.558Z</time></trkpt><trkpt lat="42.3437083" lon="13.4389583"><ele>696.0</ele><time>2026-05-03T07:11:18.559Z</time></trkpt><trkpt lat="42.343645" lon="13.4390117"><ele>696.0</ele><time>2026-05-03T07:11:19.558Z</time></trkpt><trkpt lat="42.3435717" lon="13.4390767"><ele>696.0</ele><time>2026-05-03T07:11:20.558Z</time></trkpt><trkpt lat="42.343505" lon="13.43914"><ele>696.0</ele><time>2026-05-03T07:11:21.558Z</time></trkpt><trkpt lat="42.343435" lon="13.4392233"><ele>696.0</ele><time>2026-05-03T07:11:22.559Z</time></trkpt><trkpt lat="42.3433633" lon="13.4393133"><ele>696.0</ele><time>2026-05-03T07:11:23.558Z</time></trkpt><trkpt lat="42.3432933" lon="13.43939"><ele>696.0</ele><time>2026-05-03T07:11:24.559Z</time></trkpt><trkpt lat="42.343235" lon="13.4394633"><ele>696.0</ele><time>2026-05-03T07:11:25.558Z</time></trkpt><trkpt lat="42.3431867" lon="13.43953"><ele>696.0</ele><time>2026-05-03T07:11:26.558Z</time></trkpt><trkpt lat="42.3430983" lon="13.4396617"><ele>696.0</ele><time>2026-05-03T07:11:28.559Z</time></trkpt><trkpt lat="42.3430317" lon="13.439735"><ele>696.0</ele><time>2026-05-03T07:11:29.559Z</time></trkpt><trkpt lat="42.3429567" lon="13.4398017"><ele>695.6666666666666</ele><time>2026-05-03T07:11:30.559Z</time></trkpt><trkpt lat="42.3428867" lon="13.4398467"><ele>695.3333333333334</ele><time>2026-05-03T07:11:31.559Z</time></trkpt><trkpt lat="42.3428067" lon="13.4398767"><ele>695.0</ele><time>2026-05-03T07:11:32.558Z</time></trkpt><trkpt lat="42.3427267" lon="13.43989"><ele>694.6666666666667</ele><time>2026-05-03T07:11:33.559Z</time></trkpt><trkpt lat="42.3426467" lon="13.4398817"><ele>694.3333333333334</ele><time>2026-05-03T07:11:34.558Z</time></trkpt><trkpt lat="42.3425667" lon="13.4398717"><ele>694.0</ele><time>2026-05-03T07:11:35.559Z</time></trkpt><trkpt lat="42.3424867" lon="13.4398567"><ele>694.0</ele><time>2026-05-03T07:11:36.559Z</time></trkpt><trkpt lat="42.34241" lon="13.439855"><ele>694.0</ele><time>2026-05-03T07:11:37.559Z</time></trkpt><trkpt lat="42.3423383" lon="13.439875"><ele>694.0</ele><time>2026-05-03T07:11:38.558Z</time></trkpt><trkpt lat="42.342275" lon="13.4399133"><ele>694.0</ele><time>2026-05-03T07:11:39.559Z</time></trkpt><trkpt lat="42.3422117" lon="13.4399717"><ele>694.0</ele><time>2026-05-03T07:11:40.559Z</time></trkpt><trkpt lat="42.342145" lon="13.4400167"><ele>694.0</ele><time>2026-05-03T07:11:41.558Z</time></trkpt><trkpt lat="42.3420783" lon="13.4400467"><ele>694.0</ele><time>2026-05-03T07:11:42.559Z</time></trkpt><trkpt lat="42.3420083" lon="13.4400633"><ele>692.5714285714286</ele><time>2026-05-03T07:11:43.558Z</time></trkpt><trkpt lat="42.341935" lon="13.44009"><ele>691.1428571428571</ele><time>2026-05-03T07:11:44.558Z</time></trkpt><trkpt lat="42.3418683" lon="13.44012"><ele>689.7142857142857</ele><time>2026-05-03T07:11:45.559Z</time></trkpt><trkpt lat="42.3418067" lon="13.44014"><ele>688.2857142857142</ele><time>2026-05-03T07:11:46.559Z</time></trkpt><trkpt lat="42.3417367" lon="13.4401633"><ele>686.8571428571429</ele><time>2026-05-03T07:11:47.559Z</time></trkpt><trkpt lat="42.34166" lon="13.4401883"><ele>685.4285714285713</ele><time>2026-05-03T07:11:48.559Z</time></trkpt><trkpt lat="42.3415817" lon="13.4402067"><ele>684.0</ele><time>2026-05-03T07:11:49.558Z</time></trkpt><trkpt lat="42.3414983" lon="13.44021"><ele>684.0</ele><time>2026-05-03T07:11:50.559Z</time></trkpt><trkpt lat="42.3414183" lon="13.4402017"><ele>684.0</ele><time>2026-05-03T07:11:51.559Z</time></trkpt><trkpt lat="42.3413417" lon="13.44019"><ele>684.0</ele><time>2026-05-03T07:11:52.559Z</time></trkpt><trkpt lat="42.341275" lon="13.4401767"><ele>684.0</ele><time>2026-05-03T07:11:53.559Z</time></trkpt><trkpt lat="42.3412083" lon="13.4401683"><ele>684.0</ele><time>2026-05-03T07:11:54.558Z</time></trkpt><trkpt lat="42.3411033" lon="13.4402"><ele>684.0</ele><time>2026-05-03T07:11:56.559Z</time></trkpt><trkpt lat="42.3409883" lon="13.4402617"><ele>682.4285714285713</ele><time>2026-05-03T07:11:58.559Z</time></trkpt><trkpt lat="42.3409267" lon="13.4402933"><ele>680.8571428571429</ele><time>2026-05-03T07:11:59.559Z</time></trkpt><trkpt lat="42.34086" lon="13.4403383"><ele>679.2857142857142</ele><time>2026-05-03T07:12:00.559Z</time></trkpt><trkpt lat="42.3407883" lon="13.4403783"><ele>677.7142857142857</ele><time>2026-05-03T07:12:01.558Z</time></trkpt><trkpt lat="42.34072" lon="13.4404083"><ele>676.1428571428571</ele><time>2026-05-03T07:12:02.558Z</time></trkpt><trkpt lat="42.340655" lon="13.44044"><ele>674.5714285714286</ele><time>2026-05-03T07:12:03.558Z</time></trkpt><trkpt lat="42.3405817" lon="13.4404617"><ele>673.0</ele><time>2026-05-03T07:12:04.559Z</time></trkpt><trkpt lat="42.3405183" lon="13.4404967"><ele>671.0</ele><time>2026-05-03T07:12:05.559Z</time></trkpt><trkpt lat="42.3404633" lon="13.4405433"><ele>669.0</ele><time>2026-05-03T07:12:06.559Z</time></trkpt><trkpt lat="42.34041" lon="13.440605"><ele>667.0</ele><time>2026-05-03T07:12:07.559Z</time></trkpt><trkpt lat="42.3403717" lon="13.440675"><ele>665.0</ele><time>2026-05-03T07:12:08.559Z</time></trkpt><trkpt lat="42.3403333" lon="13.44083"><ele>663.0</ele><time>2026-05-03T07:12:10.558Z</time></trkpt><trkpt lat="42.3403083" lon="13.4409133"><ele>661.0</ele><time>2026-05-03T07:12:11.559Z</time></trkpt><trkpt lat="42.34027" lon="13.441065"><ele>661.0</ele><time>2026-05-03T07:12:13.558Z</time></trkpt><trkpt lat="42.3402533" lon="13.4412367"><ele>661.0</ele><time>2026-05-03T07:12:15.559Z</time></trkpt><trkpt lat="42.3402383" lon="13.4413233"><ele>661.0</ele><time>2026-05-03T07:12:16.558Z</time></trkpt><trkpt lat="42.34022" lon="13.4414117"><ele>661.0</ele><time>2026-05-03T07:12:17.558Z</time></trkpt><trkpt lat="42.34019" lon="13.4415567"><ele>661.0</ele><time>2026-05-03T07:12:19.558Z</time></trkpt><trkpt lat="42.3401583" lon="13.4417"><ele>660.0</ele><time>2026-05-03T07:12:21.559Z</time></trkpt><trkpt lat="42.3401333" lon="13.4417983"><ele>659.0</ele><time>2026-05-03T07:12:22.559Z</time></trkpt><trkpt lat="42.3401083" lon="13.4419"><ele>658.0</ele><time>2026-05-03T07:12:23.558Z</time></trkpt><trkpt lat="42.340065" lon="13.44205"><ele>657.0</ele><time>2026-05-03T07:12:24.559Z</time></trkpt><trkpt lat="42.3400183" lon="13.4421867"><ele>656.0</ele><time>2026-05-03T07:12:25.559Z</time></trkpt><trkpt lat="42.3399783" lon="13.44232"><ele>655.0</ele><time>2026-05-03T07:12:26.558Z</time></trkpt><trkpt lat="42.3399417" lon="13.44245"><ele>654.0</ele><time>2026-05-03T07:12:27.559Z</time></trkpt><trkpt lat="42.3399133" lon="13.4425683"><ele>653.0</ele><time>2026-05-03T07:12:28.559Z</time></trkpt><trkpt lat="42.3398933" lon="13.44268"><ele>652.0</ele><time>2026-05-03T07:12:29.559Z</time></trkpt><trkpt lat="42.3398767" lon="13.4427733"><ele>651.0</ele><time>2026-05-03T07:12:30.559Z</time></trkpt><trkpt lat="42.33986" lon="13.4428633"><ele>650.0</ele><time>2026-05-03T07:12:31.559Z</time></trkpt><trkpt lat="42.339835" lon="13.4429567"><ele>650.5</ele><time>2026-05-03T07:12:32.559Z</time></trkpt><trkpt lat="42.3398067" lon="13.44304"><ele>651.0</ele><time>2026-05-03T07:12:33.559Z</time></trkpt><trkpt lat="42.3397683" lon="13.443145"><ele>651.5</ele><time>2026-05-03T07:12:34.559Z</time></trkpt><trkpt lat="42.3397233" lon="13.4432533"><ele>652.0</ele><time>2026-05-03T07:12:35.559Z</time></trkpt><trkpt lat="42.3396817" lon="13.4433367"><ele>652.5</ele><time>2026-05-03T07:12:36.559Z</time></trkpt><trkpt lat="42.3396317" lon="13.4433933"><ele>653.0</ele><time>2026-05-03T07:12:37.559Z</time></trkpt><trkpt lat="42.3395767" lon="13.4434567"><ele>653.0</ele><time>2026-05-03T07:12:38.558Z</time></trkpt><trkpt lat="42.3395117" lon="13.4435233"><ele>653.0</ele><time>2026-05-03T07:12:39.558Z</time></trkpt><trkpt lat="42.3394383" lon="13.443595"><ele>653.0</ele><time>2026-05-03T07:12:40.558Z</time></trkpt><trkpt lat="42.3393667" lon="13.4436733"><ele>653.0</ele><time>2026-05-03T07:12:41.558Z</time></trkpt><trkpt lat="42.3393017" lon="13.4437467"><ele>653.0</ele><time>2026-05-03T07:12:42.558Z</time></trkpt><trkpt lat="42.3392383" lon="13.4438233"><ele>653.0</ele><time>2026-05-03T07:12:43.558Z</time></trkpt><trkpt lat="42.3391817" lon="13.4438917"><ele>653.0</ele><time>2026-05-03T07:12:44.559Z</time></trkpt><trkpt lat="42.3391083" lon="13.44401"><ele>653.0</ele><time>2026-05-03T07:12:46.559Z</time></trkpt><trkpt lat="42.339055" lon="13.4441167"><ele>653.0</ele><time>2026-05-03T07:12:48.558Z</time></trkpt><trkpt lat="42.3390233" lon="13.4442517"><ele>653.0</ele><time>2026-05-03T07:12:50.559Z</time></trkpt><trkpt lat="42.3390117" lon="13.44434"><ele>653.0</ele><time>2026-05-03T07:12:51.559Z</time></trkpt><trkpt lat="42.3390117" lon="13.444435"><ele>653.0</ele><time>2026-05-03T07:12:52.559Z</time></trkpt><trkpt lat="42.3390133" lon="13.44453"><ele>653.0</ele><time>2026-05-03T07:12:53.558Z</time></trkpt><trkpt lat="42.33902" lon="13.444615"><ele>653.0</ele><time>2026-05-03T07:12:54.559Z</time></trkpt><trkpt lat="42.3390133" lon="13.4447567"><ele>653.0</ele><time>2026-05-03T07:12:56.559Z</time></trkpt><trkpt lat="42.3389983" lon="13.4449417"><ele>653.0</ele><time>2026-05-03T07:12:58.558Z</time></trkpt><trkpt lat="42.3389867" lon="13.44506"><ele>652.8</ele><time>2026-05-03T07:12:59.558Z</time></trkpt><trkpt lat="42.338965" lon="13.4451933"><ele>652.5999999999999</ele><time>2026-05-03T07:13:00.559Z</time></trkpt><trkpt lat="42.33894" lon="13.4453383"><ele>652.4000000000001</ele><time>2026-05-03T07:13:01.559Z</time></trkpt><trkpt lat="42.3389183" lon="13.44549"><ele>652.2</ele><time>2026-05-03T07:13:02.558Z</time></trkpt><trkpt lat="42.3388967" lon="13.4456267"><ele>652.0</ele><time>2026-05-03T07:13:03.558Z</time></trkpt><trkpt lat="42.33887" lon="13.4457467"><ele>649.6</ele><time>2026-05-03T07:13:04.559Z</time></trkpt><trkpt lat="42.3388367" lon="13.4458617"><ele>647.2</ele><time>2026-05-03T07:13:05.559Z</time></trkpt><trkpt lat="42.338795" lon="13.4459817"><ele>644.8</ele><time>2026-05-03T07:13:06.559Z</time></trkpt><trkpt lat="42.3387467" lon="13.4460883"><ele>642.4</ele><time>2026-05-03T07:13:07.559Z</time></trkpt><trkpt lat="42.3386917" lon="13.4461983"><ele>640.0</ele><time>2026-05-03T07:13:08.558Z</time></trkpt><trkpt lat="42.3386517" lon="13.4463133"><ele>640.0</ele><time>2026-05-03T07:13:09.559Z</time></trkpt><trkpt lat="42.3386067" lon="13.4464583"><ele>640.0</ele><time>2026-05-03T07:13:10.559Z</time></trkpt><trkpt lat="42.3385533" lon="13.4466067"><ele>640.0</ele><time>2026-05-03T07:13:11.558Z</time></trkpt><trkpt lat="42.3385" lon="13.44678"><ele>640.0</ele><time>2026-05-03T07:13:12.558Z</time></trkpt><trkpt lat="42.3384467" lon="13.4469633"><ele>640.3333333333334</ele><time>2026-05-03T07:13:13.559Z</time></trkpt><trkpt lat="42.33838" lon="13.44717"><ele>640.6666666666666</ele><time>2026-05-03T07:13:14.558Z</time></trkpt><trkpt lat="42.3383267" lon="13.4473667"><ele>641.0</ele><time>2026-05-03T07:13:15.558Z</time></trkpt><trkpt lat="42.3382733" lon="13.4475517"><ele>641.0</ele><time>2026-05-03T07:13:16.559Z</time></trkpt><trkpt lat="42.33822" lon="13.4477433"><ele>641.0</ele><time>2026-05-03T07:13:17.558Z</time></trkpt><trkpt lat="42.338165" lon="13.44793"><ele>641.0</ele><time>2026-05-03T07:13:18.558Z</time></trkpt><trkpt lat="42.3381133" lon="13.4481067"><ele>641.0</ele><time>2026-05-03T07:13:19.558Z</time></trkpt><trkpt lat="42.3380567" lon="13.4482867"><ele>635.6666666666666</ele><time>2026-05-03T07:13:20.559Z</time></trkpt><trkpt lat="42.3380067" lon="13.4484717"><ele>630.3333333333334</ele><time>2026-05-03T07:13:21.559Z</time></trkpt><trkpt lat="42.3379417" lon="13.4486617"><ele>625.0</ele><time>2026-05-03T07:13:22.559Z</time></trkpt><trkpt lat="42.3378967" lon="13.448855"><ele>625.0</ele><time>2026-05-03T07:13:23.559Z</time></trkpt><trkpt lat="42.337845" lon="13.4490433"><ele>625.0</ele><time>2026-05-03T07:13:24.559Z</time></trkpt><trkpt lat="42.3378067" lon="13.4492267"><ele>625.0</ele><time>2026-05-03T07:13:25.559Z</time></trkpt><trkpt lat="42.3377833" lon="13.4493967"><ele>625.0</ele><time>2026-05-03T07:13:26.558Z</time></trkpt><trkpt lat="42.3377733" lon="13.44957"><ele>624.75</ele><time>2026-05-03T07:13:27.559Z</time></trkpt><trkpt lat="42.337775" lon="13.4497467"><ele>624.5</ele><time>2026-05-03T07:13:28.558Z</time></trkpt><trkpt lat="42.3377933" lon="13.4499317"><ele>624.25</ele><time>2026-05-03T07:13:29.559Z</time></trkpt><trkpt lat="42.3378133" lon="13.4501267"><ele>624.0</ele><time>2026-05-03T07:13:30.559Z</time></trkpt><trkpt lat="42.33783" lon="13.450325"><ele>623.5</ele><time>2026-05-03T07:13:31.558Z</time></trkpt><trkpt lat="42.3378433" lon="13.45053"><ele>623.0</ele><time>2026-05-03T07:13:32.559Z</time></trkpt><trkpt lat="42.3378533" lon="13.45073"><ele>622.5</ele><time>2026-05-03T07:13:33.558Z</time></trkpt><trkpt lat="42.337865" lon="13.450925"><ele>622.0</ele><time>2026-05-03T07:13:34.558Z</time></trkpt><trkpt lat="42.3378683" lon="13.4511083"><ele>622.0</ele><time>2026-05-03T07:13:35.558Z</time></trkpt><trkpt lat="42.3378817" lon="13.4512833"><ele>622.0</ele><time>2026-05-03T07:13:36.558Z</time></trkpt><trkpt lat="42.3378933" lon="13.4514533"><ele>622.0</ele><time>2026-05-03T07:13:37.559Z</time></trkpt><trkpt lat="42.3379017" lon="13.4516183"><ele>622.0</ele><time>2026-05-03T07:13:38.558Z</time></trkpt><trkpt lat="42.3379117" lon="13.4517733"><ele>621.6</ele><time>2026-05-03T07:13:39.559Z</time></trkpt><trkpt lat="42.337915" lon="13.4519083"><ele>621.2</ele><time>2026-05-03T07:13:40.558Z</time></trkpt><trkpt lat="42.3379233" lon="13.45204"><ele>620.8</ele><time>2026-05-03T07:13:41.559Z</time></trkpt><trkpt lat="42.3379333" lon="13.4521683"><ele>620.4</ele><time>2026-05-03T07:13:42.559Z</time></trkpt><trkpt lat="42.3379383" lon="13.4522867"><ele>620.0</ele><time>2026-05-03T07:13:43.559Z</time></trkpt><trkpt lat="42.337945" lon="13.4524"><ele>619.3333333333333</ele><time>2026-05-03T07:13:44.558Z</time></trkpt><trkpt lat="42.3379517" lon="13.4525083"><ele>618.6666666666666</ele><time>2026-05-03T07:13:45.559Z</time></trkpt><trkpt lat="42.337955" lon="13.4526017"><ele>618.0</ele><time>2026-05-03T07:13:46.559Z</time></trkpt><trkpt lat="42.3379567" lon="13.4527483"><ele>617.3333333333334</ele><time>2026-05-03T07:13:48.559Z</time></trkpt><trkpt lat="42.3379833" lon="13.4528467"><ele>616.6666666666667</ele><time>2026-05-03T07:13:50.559Z</time></trkpt><trkpt lat="42.3380467" lon="13.4529533"><ele>616.0</ele><time>2026-05-03T07:13:52.558Z</time></trkpt><trkpt lat="42.3380983" lon="13.4530917"><ele>619.0</ele><time>2026-05-03T07:13:54.559Z</time></trkpt><trkpt lat="42.3381233" lon="13.4532717"><ele>622.0</ele><time>2026-05-03T07:13:56.559Z</time></trkpt><trkpt lat="42.3381383" lon="13.453365"><ele>625.0</ele><time>2026-05-03T07:13:57.558Z</time></trkpt><trkpt lat="42.3381667" lon="13.45345"><ele>628.0</ele><time>2026-05-03T07:13:58.558Z</time></trkpt><trkpt lat="42.3381817" lon="13.4536117"><ele>631.0</ele><time>2026-05-03T07:14:00.559Z</time></trkpt><trkpt lat="42.3381933" lon="13.4537067"><ele>630.2</ele><time>2026-05-03T07:14:01.559Z</time></trkpt><trkpt lat="42.3381917" lon="13.453825"><ele>629.4000000000001</ele><time>2026-05-03T07:14:02.558Z</time></trkpt><trkpt lat="42.33819" lon="13.45396"><ele>628.6</ele><time>2026-05-03T07:14:03.558Z</time></trkpt><trkpt lat="42.3381767" lon="13.4540883"><ele>627.8000000000001</ele><time>2026-05-03T07:14:04.559Z</time></trkpt><trkpt lat="42.33815" lon="13.4542067"><ele>627.0</ele><time>2026-05-03T07:14:05.559Z</time></trkpt><trkpt lat="42.33813" lon="13.4543167"><ele>627.0</ele><time>2026-05-03T07:14:06.559Z</time></trkpt><trkpt lat="42.3381133" lon="13.4544183"><ele>627.0</ele><time>2026-05-03T07:14:07.559Z</time></trkpt><trkpt lat="42.338105" lon="13.4545233"><ele>627.0</ele><time>2026-05-03T07:14:08.559Z</time></trkpt><trkpt lat="42.3381117" lon="13.4546183"><ele>627.0</ele><time>2026-05-03T07:14:09.558Z</time></trkpt><trkpt lat="42.3381167" lon="13.45472"><ele>627.0</ele><time>2026-05-03T07:14:10.559Z</time></trkpt><trkpt lat="42.338125" lon="13.4548417"><ele>627.0</ele><time>2026-05-03T07:14:11.559Z</time></trkpt><trkpt lat="42.338135" lon="13.4549583"><ele>626.0</ele><time>2026-05-03T07:14:12.559Z</time></trkpt><trkpt lat="42.3381583" lon="13.455065"><ele>625.0</ele><time>2026-05-03T07:14:13.559Z</time></trkpt><trkpt lat="42.338185" lon="13.4551633"><ele>624.0</ele><time>2026-05-03T07:14:14.559Z</time></trkpt><trkpt lat="42.3382117" lon="13.4552567"><ele>623.0</ele><time>2026-05-03T07:14:15.559Z</time></trkpt><trkpt lat="42.33824" lon="13.4553417"><ele>622.0</ele><time>2026-05-03T07:14:16.559Z</time></trkpt><trkpt lat="42.3382433" lon="13.4554583"><ele>621.0</ele><time>2026-05-03T07:14:18.558Z</time></trkpt><trkpt lat="42.338155" lon="13.4554983"><ele>618.3333333333334</ele><time>2026-05-03T07:14:20.559Z</time></trkpt><trkpt lat="42.3380783" lon="13.455495"><ele>615.6666666666666</ele><time>2026-05-03T07:14:22.558Z</time></trkpt><trkpt lat="42.338155" lon="13.4555617"><ele>613.0</ele><time>2026-05-03T07:14:28.559Z</time></trkpt><trkpt lat="42.338225" lon="13.455585"><ele>610.3333333333333</ele><time>2026-05-03T07:14:29.558Z</time></trkpt><trkpt lat="42.3383" lon="13.4556133"><ele>607.6666666666666</ele><time>2026-05-03T07:14:30.559Z</time></trkpt><trkpt lat="42.33838" lon="13.4556467"><ele>605.0</ele><time>2026-05-03T07:14:31.558Z</time></trkpt><trkpt lat="42.3384717" lon="13.4556767"><ele>605.0</ele><time>2026-05-03T07:14:32.558Z</time></trkpt><trkpt lat="42.338575" lon="13.4557167"><ele>605.0</ele><time>2026-05-03T07:14:33.559Z</time></trkpt><trkpt lat="42.3387" lon="13.4557517"><ele>605.0</ele><time>2026-05-03T07:14:34.559Z</time></trkpt><trkpt lat="42.3388217" lon="13.455815"><ele>605.0</ele><time>2026-05-03T07:14:35.559Z</time></trkpt><trkpt lat="42.3389517" lon="13.4558767"><ele>606.25</ele><time>2026-05-03T07:14:36.558Z</time></trkpt><trkpt lat="42.339085" lon="13.4559283"><ele>607.5</ele><time>2026-05-03T07:14:37.559Z</time></trkpt><trkpt lat="42.339205" lon="13.4559783"><ele>608.75</ele><time>2026-05-03T07:14:38.559Z</time></trkpt><trkpt lat="42.3393167" lon="13.4559917"><ele>610.0</ele><time>2026-05-03T07:14:39.559Z</time></trkpt><trkpt lat="42.3394183" lon="13.4560033"><ele>610.0</ele><time>2026-05-03T07:14:40.559Z</time></trkpt><trkpt lat="42.3395133" lon="13.456"><ele>610.0</ele><time>2026-05-03T07:14:41.558Z</time></trkpt><trkpt lat="42.3395867" lon="13.4560217"><ele>610.0</ele><time>2026-05-03T07:14:42.559Z</time></trkpt><trkpt lat="42.3396917" lon="13.4561167"><ele>610.0</ele><time>2026-05-03T07:14:44.558Z</time></trkpt><trkpt lat="42.339725" lon="13.4562"><ele>610.0</ele><time>2026-05-03T07:14:45.558Z</time></trkpt><trkpt lat="42.33975" lon="13.4562933"><ele>610.0</ele><time>2026-05-03T07:14:46.559Z</time></trkpt><trkpt lat="42.3397683" lon="13.4564483"><ele>608.2</ele><time>2026-05-03T07:14:48.559Z</time></trkpt><trkpt lat="42.3397717" lon="13.4565517"><ele>606.4</ele><time>2026-05-03T07:14:50.559Z</time></trkpt><trkpt lat="42.3398117" lon="13.4566417"><ele>604.6</ele><time>2026-05-03T07:14:53.559Z</time></trkpt><trkpt lat="42.339925" lon="13.4566683"><ele>602.8</ele><time>2026-05-03T07:14:55.558Z</time></trkpt><trkpt lat="42.3400167" lon="13.4566883"><ele>601.0</ele><time>2026-05-03T07:14:56.558Z</time></trkpt><trkpt lat="42.34012" lon="13.4567217"><ele>601.0</ele><time>2026-05-03T07:14:57.559Z</time></trkpt><trkpt lat="42.3402333" lon="13.4567583"><ele>601.0</ele><time>2026-05-03T07:14:58.559Z</time></trkpt><trkpt lat="42.3403583" lon="13.4568017"><ele>601.0</ele><time>2026-05-03T07:14:59.559Z</time></trkpt><trkpt lat="42.3404867" lon="13.4568583"><ele>601.0</ele><time>2026-05-03T07:15:00.559Z</time></trkpt><trkpt lat="42.3406217" lon="13.456915"><ele>600.75</ele><time>2026-05-03T07:15:01.559Z</time></trkpt><trkpt lat="42.3407583" lon="13.4569667"><ele>600.5</ele><time>2026-05-03T07:15:02.559Z</time></trkpt><trkpt lat="42.3409" lon="13.45703"><ele>600.25</ele><time>2026-05-03T07:15:03.559Z</time></trkpt><trkpt lat="42.341035" lon="13.4571"><ele>600.0</ele><time>2026-05-03T07:15:04.559Z</time></trkpt><trkpt lat="42.3411633" lon="13.457185"><ele>600.3333333333334</ele><time>2026-05-03T07:15:05.559Z</time></trkpt><trkpt lat="42.341285" lon="13.457285"><ele>600.6666666666667</ele><time>2026-05-03T07:15:06.558Z</time></trkpt><trkpt lat="42.34141" lon="13.4574"><ele>601.0</ele><time>2026-05-03T07:15:07.559Z</time></trkpt><trkpt lat="42.3415283" lon="13.45754"><ele>601.0</ele><time>2026-05-03T07:15:08.559Z</time></trkpt><trkpt lat="42.341645" lon="13.45769"><ele>601.0</ele><time>2026-05-03T07:15:09.558Z</time></trkpt><trkpt lat="42.3417583" lon="13.4578417"><ele>601.0</ele><time>2026-05-03T07:15:10.558Z</time></trkpt><trkpt lat="42.3418733" lon="13.4579917"><ele>601.0</ele><time>2026-05-03T07:15:11.559Z</time></trkpt><trkpt lat="42.3419867" lon="13.4581333"><ele>601.0</ele><time>2026-05-03T07:15:12.559Z</time></trkpt><trkpt lat="42.3420967" lon="13.4582733"><ele>601.0</ele><time>2026-05-03T07:15:13.559Z</time></trkpt><trkpt lat="42.3422033" lon="13.4584183"><ele>601.0</ele><time>2026-05-03T07:15:14.558Z</time></trkpt><trkpt lat="42.3423167" lon="13.45857"><ele>601.0</ele><time>2026-05-03T07:15:15.558Z</time></trkpt><trkpt lat="42.3424267" lon="13.458725"><ele>601.0</ele><time>2026-05-03T07:15:16.559Z</time></trkpt><trkpt lat="42.342535" lon="13.4588733"><ele>601.0</ele><time>2026-05-03T07:15:17.559Z</time></trkpt><trkpt lat="42.3426433" lon="13.4590167"><ele>601.0</ele><time>2026-05-03T07:15:18.558Z</time></trkpt><trkpt lat="42.3427533" lon="13.459155"><ele>601.0</ele><time>2026-05-03T07:15:19.558Z</time></trkpt><trkpt lat="42.342865" lon="13.4592983"><ele>601.0</ele><time>2026-05-03T07:15:20.559Z</time></trkpt><trkpt lat="42.3429683" lon="13.459445"><ele>601.0</ele><time>2026-05-03T07:15:21.559Z</time></trkpt><trkpt lat="42.3430717" lon="13.45958"><ele>601.0</ele><time>2026-05-03T07:15:22.559Z</time></trkpt><trkpt lat="42.3431733" lon="13.45972"><ele>601.0</ele><time>2026-05-03T07:15:23.558Z</time></trkpt><trkpt lat="42.3432767" lon="13.4598633"><ele>602.25</ele><time>2026-05-03T07:15:24.558Z</time></trkpt><trkpt lat="42.3433783" lon="13.4600017"><ele>603.5</ele><time>2026-05-03T07:15:25.559Z</time></trkpt><trkpt lat="42.3434883" lon="13.46013"><ele>604.75</ele><time>2026-05-03T07:15:26.559Z</time></trkpt><trkpt lat="42.3435917" lon="13.4602667"><ele>606.0</ele><time>2026-05-03T07:15:27.559Z</time></trkpt><trkpt lat="42.3437" lon="13.4604017"><ele>606.25</ele><time>2026-05-03T07:15:28.559Z</time></trkpt><trkpt lat="42.343805" lon="13.4605467"><ele>606.5</ele><time>2026-05-03T07:15:29.559Z</time></trkpt><trkpt lat="42.3439133" lon="13.4606783"><ele>606.75</ele><time>2026-05-03T07:15:30.558Z</time></trkpt><trkpt lat="42.3440133" lon="13.460815"><ele>607.0</ele><time>2026-05-03T07:15:31.559Z</time></trkpt><trkpt lat="42.3441183" lon="13.46094"><ele>607.5</ele><time>2026-05-03T07:15:32.559Z</time></trkpt><trkpt lat="42.3442267" lon="13.461065"><ele>608.0</ele><time>2026-05-03T07:15:33.559Z</time></trkpt><trkpt lat="42.3443283" lon="13.461205"><ele>608.5</ele><time>2026-05-03T07:15:34.558Z</time></trkpt><trkpt lat="42.344445" lon="13.461335"><ele>609.0</ele><time>2026-05-03T07:15:35.558Z</time></trkpt><trkpt lat="42.3445583" lon="13.46147"><ele>609.0</ele><time>2026-05-03T07:15:36.559Z</time></trkpt><trkpt lat="42.34467" lon="13.461605"><ele>609.0</ele><time>2026-05-03T07:15:37.559Z</time></trkpt><trkpt lat="42.344785" lon="13.4617317"><ele>609.0</ele><time>2026-05-03T07:15:38.559Z</time></trkpt><trkpt lat="42.3449033" lon="13.4618517"><ele>609.0</ele><time>2026-05-03T07:15:39.559Z</time></trkpt><trkpt lat="42.3450183" lon="13.4619817"><ele>609.75</ele><time>2026-05-03T07:15:40.558Z</time></trkpt><trkpt lat="42.345135" lon="13.4620883"><ele>610.5</ele><time>2026-05-03T07:15:41.559Z</time></trkpt><trkpt lat="42.345245" lon="13.4621833"><ele>611.25</ele><time>2026-05-03T07:15:42.559Z</time></trkpt><trkpt lat="42.3453483" lon="13.4622783"><ele>612.0</ele><time>2026-05-03T07:15:43.558Z</time></trkpt><trkpt lat="42.3454333" lon="13.46237"><ele>612.0</ele><time>2026-05-03T07:15:44.558Z</time></trkpt><trkpt lat="42.345505" lon="13.4624333"><ele>612.0</ele><time>2026-05-03T07:15:45.559Z</time></trkpt><trkpt lat="42.3455717" lon="13.4624867"><ele>612.0</ele><time>2026-05-03T07:15:46.559Z</time></trkpt><trkpt lat="42.34563" lon="13.46257"><ele>612.0</ele><time>2026-05-03T07:15:48.559Z</time></trkpt><trkpt lat="42.34557" lon="13.46271"><ele>612.0</ele><time>2026-05-03T07:15:51.558Z</time></trkpt><trkpt lat="42.34552" lon="13.4627733"><ele>612.0</ele><time>2026-05-03T07:15:52.559Z</time></trkpt><trkpt lat="42.3454617" lon="13.462845"><ele>612.0</ele><time>2026-05-03T07:15:53.559Z</time></trkpt><trkpt lat="42.3453967" lon="13.462935"><ele>612.0</ele><time>2026-05-03T07:15:54.559Z</time></trkpt><trkpt lat="42.3453317" lon="13.4630433"><ele>612.0</ele><time>2026-05-03T07:15:55.559Z</time></trkpt><trkpt lat="42.3452683" lon="13.463155"><ele>612.0</ele><time>2026-05-03T07:15:56.559Z</time></trkpt><trkpt lat="42.3452017" lon="13.4632867"><ele>612.0</ele><time>2026-05-03T07:15:57.559Z</time></trkpt><trkpt lat="42.3451333" lon="13.4634183"><ele>612.5</ele><time>2026-05-03T07:15:58.559Z</time></trkpt><trkpt lat="42.345065" lon="13.463555"><ele>613.0</ele><time>2026-05-03T07:15:59.558Z</time></trkpt><trkpt lat="42.3450117" lon="13.4637133"><ele>613.5</ele><time>2026-05-03T07:16:00.559Z</time></trkpt><trkpt lat="42.3449667" lon="13.46388"><ele>614.0</ele><time>2026-05-03T07:16:01.559Z</time></trkpt><trkpt lat="42.3449317" lon="13.464045"><ele>614.25</ele><time>2026-05-03T07:16:02.559Z</time></trkpt><trkpt lat="42.3448983" lon="13.4642067"><ele>614.5</ele><time>2026-05-03T07:16:03.559Z</time></trkpt><trkpt lat="42.3448583" lon="13.4643617"><ele>614.75</ele><time>2026-05-03T07:16:04.559Z</time></trkpt><trkpt lat="42.3448117" lon="13.4645167"><ele>615.0</ele><time>2026-05-03T07:16:05.559Z</time></trkpt><trkpt lat="42.34478" lon="13.46467"><ele>615.0</ele><time>2026-05-03T07:16:06.558Z</time></trkpt><trkpt lat="42.34474" lon="13.4648217"><ele>615.0</ele><time>2026-05-03T07:16:07.558Z</time></trkpt><trkpt lat="42.3446983" lon="13.46498"><ele>615.0</ele><time>2026-05-03T07:16:08.559Z</time></trkpt><trkpt lat="42.3446583" lon="13.4651233"><ele>615.0</ele><time>2026-05-03T07:16:09.559Z</time></trkpt><trkpt lat="42.3446317" lon="13.4652683"><ele>614.8</ele><time>2026-05-03T07:16:10.558Z</time></trkpt><trkpt lat="42.3445967" lon="13.4654167"><ele>614.6</ele><time>2026-05-03T07:16:11.559Z</time></trkpt><trkpt lat="42.3445467" lon="13.46556"><ele>614.4</ele><time>2026-05-03T07:16:12.559Z</time></trkpt><trkpt lat="42.3445017" lon="13.4656883"><ele>614.2</ele><time>2026-05-03T07:16:13.558Z</time></trkpt><trkpt lat="42.3444617" lon="13.465795"><ele>614.0</ele><time>2026-05-03T07:16:14.559Z</time></trkpt><trkpt lat="42.3444367" lon="13.46588"><ele>614.0</ele><time>2026-05-03T07:16:15.559Z</time></trkpt><trkpt lat="42.3444083" lon="13.4659867"><ele>614.0</ele><time>2026-05-03T07:16:17.558Z</time></trkpt><trkpt lat="42.3444483" lon="13.46606"><ele>614.0</ele><time>2026-05-03T07:16:19.558Z</time></trkpt><trkpt lat="42.34455" lon="13.4661217"><ele>614.0</ele><time>2026-05-03T07:16:21.559Z</time></trkpt><trkpt lat="42.3446333" lon="13.4661583"><ele>614.0</ele><time>2026-05-03T07:16:22.558Z</time></trkpt><trkpt lat="42.3447267" lon="13.4661883"><ele>614.0</ele><time>2026-05-03T07:16:23.558Z</time></trkpt><trkpt lat="42.344825" lon="13.4662167"><ele>614.2</ele><time>2026-05-03T07:16:24.559Z</time></trkpt><trkpt lat="42.344925" lon="13.46624"><ele>614.4</ele><time>2026-05-03T07:16:25.558Z</time></trkpt><trkpt lat="42.3450283" lon="13.4662567"><ele>614.6</ele><time>2026-05-03T07:16:26.558Z</time></trkpt><trkpt lat="42.3451417" lon="13.46626"><ele>614.8</ele><time>2026-05-03T07:16:27.558Z</time></trkpt><trkpt lat="42.34526" lon="13.4662517"><ele>615.0</ele><time>2026-05-03T07:16:28.559Z</time></trkpt><trkpt lat="42.3453633" lon="13.4662483"><ele>615.0</ele><time>2026-05-03T07:16:29.559Z</time></trkpt><trkpt lat="42.3454617" lon="13.4662483"><ele>615.0</ele><time>2026-05-03T07:16:30.559Z</time></trkpt><trkpt lat="42.3455583" lon="13.4662733"><ele>615.0</ele><time>2026-05-03T07:16:31.558Z</time></trkpt><trkpt lat="42.3456517" lon="13.4663217"><ele>615.0</ele><time>2026-05-03T07:16:32.558Z</time></trkpt><trkpt lat="42.3457517" lon="13.4663817"><ele>615.0</ele><time>2026-05-03T07:16:33.559Z</time></trkpt><trkpt lat="42.3458467" lon="13.4664633"><ele>615.8</ele><time>2026-05-03T07:16:34.558Z</time></trkpt><trkpt lat="42.3459467" lon="13.4665267"><ele>616.6</ele><time>2026-05-03T07:16:35.559Z</time></trkpt><trkpt lat="42.3460467" lon="13.466595"><ele>617.4</ele><time>2026-05-03T07:16:36.559Z</time></trkpt><trkpt lat="42.3461383" lon="13.4666517"><ele>618.2</ele><time>2026-05-03T07:16:37.559Z</time></trkpt><trkpt lat="42.3462233" lon="13.4667017"><ele>619.0</ele><time>2026-05-03T07:16:38.558Z</time></trkpt><trkpt lat="42.346295" lon="13.466765"><ele>619.0</ele><time>2026-05-03T07:16:39.559Z</time></trkpt><trkpt lat="42.34635" lon="13.4668317"><ele>619.0</ele><time>2026-05-03T07:16:40.559Z</time></trkpt><trkpt lat="42.3464067" lon="13.4668983"><ele>619.0</ele><time>2026-05-03T07:16:41.559Z</time></trkpt><trkpt lat="42.3464667" lon="13.4669883"><ele>619.0</ele><time>2026-05-03T07:16:42.558Z</time></trkpt><trkpt lat="42.3465283" lon="13.46709"><ele>619.0</ele><time>2026-05-03T07:16:43.558Z</time></trkpt><trkpt lat="42.3466017" lon="13.4672083"><ele>619.5</ele><time>2026-05-03T07:16:44.559Z</time></trkpt><trkpt lat="42.3466833" lon="13.4673333"><ele>620.0</ele><time>2026-05-03T07:16:45.559Z</time></trkpt><trkpt lat="42.346755" lon="13.4674717"><ele>620.5</ele><time>2026-05-03T07:16:46.558Z</time></trkpt><trkpt lat="42.3468267" lon="13.4675967"><ele>621.0</ele><time>2026-05-03T07:16:47.559Z</time></trkpt><trkpt lat="42.3468867" lon="13.4676967"><ele>621.0</ele><time>2026-05-03T07:16:48.558Z</time></trkpt><trkpt lat="42.34695" lon="13.4677733"><ele>621.0</ele><time>2026-05-03T07:16:49.559Z</time></trkpt><trkpt lat="42.3470167" lon="13.4678217"><ele>621.0</ele><time>2026-05-03T07:16:50.558Z</time></trkpt><trkpt lat="42.3471317" lon="13.467855"><ele>621.0</ele><time>2026-05-03T07:16:52.559Z</time></trkpt><trkpt lat="42.3472067" lon="13.46784"><ele>621.0</ele><time>2026-05-03T07:16:53.558Z</time></trkpt><trkpt lat="42.3472867" lon="13.467815"><ele>621.0</ele><time>2026-05-03T07:16:54.559Z</time></trkpt><trkpt lat="42.34737" lon="13.4678017"><ele>621.4</ele><time>2026-05-03T07:16:55.559Z</time></trkpt><trkpt lat="42.3474567" lon="13.4678"><ele>621.8</ele><time>2026-05-03T07:16:56.559Z</time></trkpt><trkpt lat="42.3475467" lon="13.46782"><ele>622.1999999999999</ele><time>2026-05-03T07:16:57.559Z</time></trkpt><trkpt lat="42.34763" lon="13.46785"><ele>622.6</ele><time>2026-05-03T07:16:58.558Z</time></trkpt><trkpt lat="42.34772" lon="13.4678933"><ele>623.0</ele><time>2026-05-03T07:16:59.559Z</time></trkpt><trkpt lat="42.3478217" lon="13.4679383"><ele>623.1999999999999</ele><time>2026-05-03T07:17:00.559Z</time></trkpt><trkpt lat="42.3479217" lon="13.467975"><ele>623.4</ele><time>2026-05-03T07:17:01.559Z</time></trkpt><trkpt lat="42.3480317" lon="13.4680117"><ele>623.5999999999999</ele><time>2026-05-03T07:17:02.558Z</time></trkpt><trkpt lat="42.3481433" lon="13.4680467"><ele>623.8</ele><time>2026-05-03T07:17:03.559Z</time></trkpt><trkpt lat="42.3482533" lon="13.46808"><ele>624.0</ele><time>2026-05-03T07:17:04.558Z</time></trkpt><trkpt lat="42.3483683" lon="13.4681133"><ele>624.2</ele><time>2026-05-03T07:17:05.559Z</time></trkpt><trkpt lat="42.3484817" lon="13.4681617"><ele>624.4</ele><time>2026-05-03T07:17:06.559Z</time></trkpt><trkpt lat="42.3485867" lon="13.4682233"><ele>624.6</ele><time>2026-05-03T07:17:07.559Z</time></trkpt><trkpt lat="42.3486833" lon="13.4682783"><ele>624.8</ele><time>2026-05-03T07:17:08.558Z</time></trkpt><trkpt lat="42.34877" lon="13.4683167"><ele>625.0</ele><time>2026-05-03T07:17:09.559Z</time></trkpt><trkpt lat="42.348865" lon="13.4683567"><ele>625.6</ele><time>2026-05-03T07:17:10.558Z</time></trkpt><trkpt lat="42.3489683" lon="13.468385"><ele>626.2</ele><time>2026-05-03T07:17:11.559Z</time></trkpt><trkpt lat="42.349075" lon="13.4684033"><ele>626.8</ele><time>2026-05-03T07:17:12.559Z</time></trkpt><trkpt lat="42.3491767" lon="13.4684217"><ele>627.4</ele><time>2026-05-03T07:17:13.559Z</time></trkpt><trkpt lat="42.3492783" lon="13.4684367"><ele>628.0</ele><time>2026-05-03T07:17:14.558Z</time></trkpt><trkpt lat="42.3493733" lon="13.46845"><ele>628.0</ele><time>2026-05-03T07:17:15.558Z</time></trkpt><trkpt lat="42.34947" lon="13.4684533"><ele>628.0</ele><time>2026-05-03T07:17:16.559Z</time></trkpt><trkpt lat="42.3495683" lon="13.468465"><ele>628.0</ele><time>2026-05-03T07:17:17.558Z</time></trkpt><trkpt lat="42.34967" lon="13.46847"><ele>628.0</ele><time>2026-05-03T07:17:18.559Z</time></trkpt><trkpt lat="42.3497767" lon="13.4684583"><ele>628.0</ele><time>2026-05-03T07:17:19.558Z</time></trkpt><trkpt lat="42.3498883" lon="13.4684633"><ele>628.1999999999999</ele><time>2026-05-03T07:17:20.559Z</time></trkpt><trkpt lat="42.35" lon="13.4684783"><ele>628.4</ele><time>2026-05-03T07:17:21.558Z</time></trkpt><trkpt lat="42.3501067" lon="13.4685133"><ele>628.5999999999999</ele><time>2026-05-03T07:17:22.559Z</time></trkpt><trkpt lat="42.3502017" lon="13.4685817"><ele>628.8</ele><time>2026-05-03T07:17:23.559Z</time></trkpt><trkpt lat="42.350295" lon="13.4686683"><ele>629.0</ele><time>2026-05-03T07:17:24.559Z</time></trkpt><trkpt lat="42.350395" lon="13.4687633"><ele>629.0</ele><time>2026-05-03T07:17:25.558Z</time></trkpt><trkpt lat="42.3504917" lon="13.4688583"><ele>629.0</ele><time>2026-05-03T07:17:26.559Z</time></trkpt><trkpt lat="42.350595" lon="13.4689317"><ele>629.0</ele><time>2026-05-03T07:17:27.559Z</time></trkpt><trkpt lat="42.3506983" lon="13.4689833"><ele>629.0</ele><time>2026-05-03T07:17:28.559Z</time></trkpt><trkpt lat="42.3508117" lon="13.4690133"><ele>629.4</ele><time>2026-05-03T07:17:29.559Z</time></trkpt><trkpt lat="42.35092" lon="13.4690217"><ele>629.8</ele><time>2026-05-03T07:17:30.559Z</time></trkpt><trkpt lat="42.3510233" lon="13.46903"><ele>630.2</ele><time>2026-05-03T07:17:31.559Z</time></trkpt><trkpt lat="42.3511183" lon="13.4690033"><ele>630.6</ele><time>2026-05-03T07:17:32.558Z</time></trkpt><trkpt lat="42.3512117" lon="13.468965"><ele>631.0</ele><time>2026-05-03T07:17:33.559Z</time></trkpt><trkpt lat="42.3512967" lon="13.46892"><ele>631.0</ele><time>2026-05-03T07:17:34.559Z</time></trkpt><trkpt lat="42.35136" lon="13.4688733"><ele>631.0</ele><time>2026-05-03T07:17:35.558Z</time></trkpt><trkpt lat="42.3514467" lon="13.468765"><ele>631.0</ele><time>2026-05-03T07:17:37.558Z</time></trkpt><trkpt lat="42.351535" lon="13.46867"><ele>631.0</ele><time>2026-05-03T07:17:39.558Z</time></trkpt><trkpt lat="42.351625" lon="13.4686467"><ele>631.0</ele><time>2026-05-03T07:17:41.558Z</time></trkpt><trkpt lat="42.3517283" lon="13.4687183"><ele>632.0</ele><time>2026-05-03T07:17:43.559Z</time></trkpt><trkpt lat="42.3517967" lon="13.468795"><ele>633.0</ele><time>2026-05-03T07:17:44.558Z</time></trkpt><trkpt lat="42.351875" lon="13.4688817"><ele>634.0</ele><time>2026-05-03T07:17:45.559Z</time></trkpt><trkpt lat="42.3519583" lon="13.4689817"><ele>635.0</ele><time>2026-05-03T07:17:46.558Z</time></trkpt><trkpt lat="42.3520367" lon="13.4690967"><ele>636.0</ele><time>2026-05-03T07:17:47.558Z</time></trkpt><trkpt lat="42.3521317" lon="13.4692083"><ele>636.25</ele><time>2026-05-03T07:17:48.559Z</time></trkpt><trkpt lat="42.3522267" lon="13.4693267"><ele>636.5</ele><time>2026-05-03T07:17:49.558Z</time></trkpt><trkpt lat="42.3523233" lon="13.4694417"><ele>636.75</ele><time>2026-05-03T07:17:50.558Z</time></trkpt><trkpt lat="42.3524167" lon="13.4695483"><ele>637.0</ele><time>2026-05-03T07:17:51.559Z</time></trkpt><trkpt lat="42.352515" lon="13.4696533"><ele>637.5</ele><time>2026-05-03T07:17:52.559Z</time></trkpt><trkpt lat="42.35261" lon="13.4697667"><ele>638.0</ele><time>2026-05-03T07:17:53.559Z</time></trkpt><trkpt lat="42.3527033" lon="13.4698683"><ele>638.5</ele><time>2026-05-03T07:17:54.558Z</time></trkpt><trkpt lat="42.35279" lon="13.469975"><ele>639.0</ele><time>2026-05-03T07:17:55.559Z</time></trkpt><trkpt lat="42.35288" lon="13.4700833"><ele>639.0</ele><time>2026-05-03T07:17:56.558Z</time></trkpt><trkpt lat="42.3529567" lon="13.4702083"><ele>639.0</ele><time>2026-05-03T07:17:57.559Z</time></trkpt><trkpt lat="42.3530367" lon="13.470325"><ele>639.0</ele><time>2026-05-03T07:17:58.558Z</time></trkpt><trkpt lat="42.3531133" lon="13.47045"><ele>639.0</ele><time>2026-05-03T07:17:59.559Z</time></trkpt><trkpt lat="42.3531917" lon="13.47057"><ele>639.6</ele><time>2026-05-03T07:18:00.558Z</time></trkpt><trkpt lat="42.3532583" lon="13.4706883"><ele>640.2</ele><time>2026-05-03T07:18:01.558Z</time></trkpt><trkpt lat="42.353315" lon="13.470805"><ele>640.8000000000001</ele><time>2026-05-03T07:18:02.558Z</time></trkpt><trkpt lat="42.353355" lon="13.4709167"><ele>641.4</ele><time>2026-05-03T07:18:03.558Z</time></trkpt><trkpt lat="42.3533967" lon="13.4710317"><ele>642.0</ele><time>2026-05-03T07:18:04.558Z</time></trkpt><trkpt lat="42.3534367" lon="13.47112"><ele>642.0</ele><time>2026-05-03T07:18:05.559Z</time></trkpt><trkpt lat="42.353485" lon="13.471195"><ele>642.0</ele><time>2026-05-03T07:18:06.558Z</time></trkpt><trkpt lat="42.3535683" lon="13.4713"><ele>642.0</ele><time>2026-05-03T07:18:08.559Z</time></trkpt><trkpt lat="42.3536367" lon="13.4713683"><ele>642.0</ele><time>2026-05-03T07:18:10.559Z</time></trkpt><trkpt lat="42.35369" lon="13.4714217"><ele>642.0</ele><time>2026-05-03T07:18:13.559Z</time></trkpt><trkpt lat="42.3537417" lon="13.4714717"><ele>642.0</ele><time>2026-05-03T07:18:16.558Z</time></trkpt><trkpt lat="42.35384" lon="13.471495"><ele>642.3333333333334</ele><time>2026-05-03T07:18:22.559Z</time></trkpt><trkpt lat="42.3539067" lon="13.4714917"><ele>642.6666666666666</ele><time>2026-05-03T07:18:23.559Z</time></trkpt><trkpt lat="42.353985" lon="13.47148"><ele>643.0</ele><time>2026-05-03T07:18:24.559Z</time></trkpt><trkpt lat="42.3540717" lon="13.4714667"><ele>643.3333333333333</ele><time>2026-05-03T07:18:25.559Z</time></trkpt><trkpt lat="42.3541817" lon="13.4714417"><ele>643.6666666666666</ele><time>2026-05-03T07:18:26.558Z</time></trkpt><trkpt lat="42.3542833" lon="13.4714167"><ele>644.0</ele><time>2026-05-03T07:18:27.559Z</time></trkpt><trkpt lat="42.3543717" lon="13.4714033"><ele>644.0</ele><time>2026-05-03T07:18:28.559Z</time></trkpt><trkpt lat="42.3544533" lon="13.471415"><ele>644.0</ele><time>2026-05-03T07:18:29.559Z</time></trkpt><trkpt lat="42.3545367" lon="13.471455"><ele>644.0</ele><time>2026-05-03T07:18:30.558Z</time></trkpt><trkpt lat="42.3546167" lon="13.4715167"><ele>644.0</ele><time>2026-05-03T07:18:31.558Z</time></trkpt><trkpt lat="42.3546967" lon="13.4716033"><ele>644.0</ele><time>2026-05-03T07:18:32.559Z</time></trkpt><trkpt lat="42.354785" lon="13.4717067"><ele>644.75</ele><time>2026-05-03T07:18:33.559Z</time></trkpt><trkpt lat="42.354875" lon="13.4718217"><ele>645.5</ele><time>2026-05-03T07:18:34.558Z</time></trkpt><trkpt lat="42.3549633" lon="13.471935"><ele>646.25</ele><time>2026-05-03T07:18:35.558Z</time></trkpt><trkpt lat="42.3550583" lon="13.4720633"><ele>647.0</ele><time>2026-05-03T07:18:36.559Z</time></trkpt><trkpt lat="42.35515" lon="13.47218"><ele>647.0</ele><time>2026-05-03T07:18:37.558Z</time></trkpt><trkpt lat="42.3552283" lon="13.4722917"><ele>647.0</ele><time>2026-05-03T07:18:38.559Z</time></trkpt><trkpt lat="42.3553067" lon="13.472385"><ele>647.0</ele><time>2026-05-03T07:18:39.558Z</time></trkpt><trkpt lat="42.355385" lon="13.4724783"><ele>647.0</ele><time>2026-05-03T07:18:40.558Z</time></trkpt><trkpt lat="42.3554633" lon="13.472565"><ele>647.0</ele><time>2026-05-03T07:18:41.559Z</time></trkpt><trkpt lat="42.355535" lon="13.472655"><ele>647.4000000000001</ele><time>2026-05-03T07:18:42.558Z</time></trkpt><trkpt lat="42.35561" lon="13.47274"><ele>647.8000000000001</ele><time>2026-05-03T07:18:43.558Z</time></trkpt><trkpt lat="42.3556883" lon="13.4728233"><ele>648.2</ele><time>2026-05-03T07:18:44.559Z</time></trkpt><trkpt lat="42.3557783" lon="13.4729033"><ele>648.6</ele><time>2026-05-03T07:18:45.558Z</time></trkpt><trkpt lat="42.3558633" lon="13.473"><ele>649.0</ele><time>2026-05-03T07:18:46.558Z</time></trkpt><trkpt lat="42.3559483" lon="13.47309"><ele>649.1666666666667</ele><time>2026-05-03T07:18:47.559Z</time></trkpt><trkpt lat="42.3560217" lon="13.4731867"><ele>649.3333333333334</ele><time>2026-05-03T07:18:48.559Z</time></trkpt><trkpt lat="42.3561067" lon="13.4732683"><ele>649.5</ele><time>2026-05-03T07:18:49.559Z</time></trkpt><trkpt lat="42.3561783" lon="13.4733317"><ele>649.6666666666666</ele><time>2026-05-03T07:18:50.558Z</time></trkpt><trkpt lat="42.35624" lon="13.473385"><ele>649.8333333333333</ele><time>2026-05-03T07:18:51.559Z</time></trkpt><trkpt lat="42.3563033" lon="13.4734267"><ele>650.0</ele><time>2026-05-03T07:18:52.559Z</time></trkpt><trkpt lat="42.35637" lon="13.47346"><ele>650.6</ele><time>2026-05-03T07:18:53.559Z</time></trkpt><trkpt lat="42.35649" lon="13.4735283"><ele>651.2</ele><time>2026-05-03T07:18:55.558Z</time></trkpt><trkpt lat="42.35655" lon="13.4735817"><ele>651.8</ele><time>2026-05-03T07:18:56.559Z</time></trkpt><trkpt lat="42.3566" lon="13.4736583"><ele>652.4</ele><time>2026-05-03T07:18:57.558Z</time></trkpt><trkpt lat="42.3566417" lon="13.47376"><ele>653.0</ele><time>2026-05-03T07:18:58.558Z</time></trkpt><trkpt lat="42.35668" lon="13.4738767"><ele>653.5999999999999</ele><time>2026-05-03T07:18:59.557Z</time></trkpt><trkpt lat="42.356715" lon="13.47401"><ele>654.1999999999999</ele><time>2026-05-03T07:19:00.558Z</time></trkpt><trkpt lat="42.35675" lon="13.4741417"><ele>654.8</ele><time>2026-05-03T07:19:01.558Z</time></trkpt><trkpt lat="42.3567883" lon="13.4742733"><ele>655.4</ele><time>2026-05-03T07:19:02.557Z</time></trkpt><trkpt lat="42.3568367" lon="13.4743967"><ele>656.0</ele><time>2026-05-03T07:19:03.557Z</time></trkpt><trkpt lat="42.35688" lon="13.4745267"><ele>657.8</ele><time>2026-05-03T07:19:04.557Z</time></trkpt><trkpt lat="42.3569267" lon="13.4746517"><ele>659.5999999999999</ele><time>2026-05-03T07:19:05.558Z</time></trkpt><trkpt lat="42.3569817" lon="13.4747717"><ele>661.4</ele><time>2026-05-03T07:19:06.558Z</time></trkpt><trkpt lat="42.3570283" lon="13.474895"><ele>663.2</ele><time>2026-05-03T07:19:07.557Z</time></trkpt><trkpt lat="42.3570733" lon="13.4750183"><ele>665.0</ele><time>2026-05-03T07:19:08.557Z</time></trkpt><trkpt lat="42.3571067" lon="13.475145"><ele>665.0</ele><time>2026-05-03T07:19:09.557Z</time></trkpt><trkpt lat="42.357135" lon="13.475265"><ele>665.0</ele><time>2026-05-03T07:19:10.558Z</time></trkpt><trkpt lat="42.3571617" lon="13.4753867"><ele>665.0</ele><time>2026-05-03T07:19:11.557Z</time></trkpt><trkpt lat="42.3571967" lon="13.4754817"><ele>665.0</ele><time>2026-05-03T07:19:12.558Z</time></trkpt><trkpt lat="42.3572117" lon="13.47559"><ele>665.0</ele><time>2026-05-03T07:19:13.558Z</time></trkpt><trkpt lat="42.3572217" lon="13.475705"><ele>665.0</ele><time>2026-05-03T07:19:14.557Z</time></trkpt><trkpt lat="42.35724" lon="13.475805"><ele>666.8333333333333</ele><time>2026-05-03T07:19:15.557Z</time></trkpt><trkpt lat="42.3572483" lon="13.47592"><ele>668.6666666666666</ele><time>2026-05-03T07:19:16.558Z</time></trkpt><trkpt lat="42.3572533" lon="13.4760317"><ele>670.5</ele><time>2026-05-03T07:19:17.557Z</time></trkpt><trkpt lat="42.3572533" lon="13.476145"><ele>672.3333333333334</ele><time>2026-05-03T07:19:18.558Z</time></trkpt><trkpt lat="42.35725" lon="13.476265"><ele>674.1666666666667</ele><time>2026-05-03T07:19:19.558Z</time></trkpt><trkpt lat="42.3572417" lon="13.4763867"><ele>676.0</ele><time>2026-05-03T07:19:20.557Z</time></trkpt><trkpt lat="42.3572517" lon="13.476525"><ele>677.4</ele><time>2026-05-03T07:19:21.558Z</time></trkpt><trkpt lat="42.3572483" lon="13.4766717"><ele>678.8</ele><time>2026-05-03T07:19:22.558Z</time></trkpt><trkpt lat="42.3572483" lon="13.4768233"><ele>680.1999999999999</ele><time>2026-05-03T07:19:23.558Z</time></trkpt><trkpt lat="42.3572533" lon="13.4769667"><ele>681.5999999999999</ele><time>2026-05-03T07:19:24.558Z</time></trkpt><trkpt lat="42.3572567" lon="13.47709"><ele>683.0</ele><time>2026-05-03T07:19:25.557Z</time></trkpt><trkpt lat="42.3572717" lon="13.4771817"><ele>684.0</ele><time>2026-05-03T07:19:26.558Z</time></trkpt><trkpt lat="42.3572883" lon="13.47727"><ele>685.0</ele><time>2026-05-03T07:19:27.558Z</time></trkpt><trkpt lat="42.3573083" lon="13.4773533"><ele>686.0</ele><time>2026-05-03T07:19:28.558Z</time></trkpt><trkpt lat="42.35732" lon="13.477455"><ele>687.0</ele><time>2026-05-03T07:19:29.558Z</time></trkpt><trkpt lat="42.357325" lon="13.4775683"><ele>688.0</ele><time>2026-05-03T07:19:30.558Z</time></trkpt><trkpt lat="42.3573367" lon="13.477685"><ele>689.0</ele><time>2026-05-03T07:19:31.558Z</time></trkpt><trkpt lat="42.3573517" lon="13.4778"><ele>689.0</ele><time>2026-05-03T07:19:32.557Z</time></trkpt><trkpt lat="42.3573717" lon="13.4779233"><ele>689.0</ele><time>2026-05-03T07:19:33.557Z</time></trkpt><trkpt lat="42.357395" lon="13.4780433"><ele>689.0</ele><time>2026-05-03T07:19:34.558Z</time></trkpt><trkpt lat="42.3574233" lon="13.4781633"><ele>689.0</ele><time>2026-05-03T07:19:35.558Z</time></trkpt><trkpt lat="42.3574467" lon="13.4782783"><ele>689.0</ele><time>2026-05-03T07:19:36.558Z</time></trkpt><trkpt lat="42.3574767" lon="13.478375"><ele>689.0</ele><time>2026-05-03T07:19:37.558Z</time></trkpt><trkpt lat="42.3575033" lon="13.4784767"><ele>690.3333333333333</ele><time>2026-05-03T07:19:38.557Z</time></trkpt><trkpt lat="42.3575317" lon="13.47858"><ele>691.6666666666666</ele><time>2026-05-03T07:19:39.557Z</time></trkpt><trkpt lat="42.357555" lon="13.47868"><ele>693.0</ele><time>2026-05-03T07:19:40.558Z</time></trkpt><trkpt lat="42.3575783" lon="13.4787767"><ele>694.3333333333334</ele><time>2026-05-03T07:19:41.558Z</time></trkpt><trkpt lat="42.3575933" lon="13.4788817"><ele>695.6666666666667</ele><time>2026-05-03T07:19:42.557Z</time></trkpt><trkpt lat="42.35761" lon="13.4789817"><ele>697.0</ele><time>2026-05-03T07:19:43.558Z</time></trkpt><trkpt lat="42.3576267" lon="13.4790817"><ele>698.5</ele><time>2026-05-03T07:19:44.558Z</time></trkpt><trkpt lat="42.35763" lon="13.4791833"><ele>700.0</ele><time>2026-05-03T07:19:45.558Z</time></trkpt><trkpt lat="42.3576367" lon="13.4792883"><ele>701.5</ele><time>2026-05-03T07:19:46.557Z</time></trkpt><trkpt lat="42.3576433" lon="13.4794033"><ele>703.0</ele><time>2026-05-03T07:19:47.558Z</time></trkpt><trkpt lat="42.3576583" lon="13.479515"><ele>704.5</ele><time>2026-05-03T07:19:48.558Z</time></trkpt><trkpt lat="42.357675" lon="13.47963"><ele>706.0</ele><time>2026-05-03T07:19:49.558Z</time></trkpt><trkpt lat="42.3576867" lon="13.479745"><ele>707.5</ele><time>2026-05-03T07:19:50.558Z</time></trkpt><trkpt lat="42.3577083" lon="13.4798567"><ele>709.0</ele><time>2026-05-03T07:19:51.558Z</time></trkpt><trkpt lat="42.3577283" lon="13.4799733"><ele>710.5</ele><time>2026-05-03T07:19:52.558Z</time></trkpt><trkpt lat="42.3577433" lon="13.4800917"><ele>712.0</ele><time>2026-05-03T07:19:53.558Z</time></trkpt><trkpt lat="42.35775" lon="13.48021"><ele>713.5</ele><time>2026-05-03T07:19:54.558Z</time></trkpt><trkpt lat="42.3577433" lon="13.480335"><ele>715.0</ele><time>2026-05-03T07:19:55.557Z</time></trkpt><trkpt lat="42.35772" lon="13.4804567"><ele>716.6</ele><time>2026-05-03T07:19:56.558Z</time></trkpt><trkpt lat="42.3576967" lon="13.4805783"><ele>718.2</ele><time>2026-05-03T07:19:57.558Z</time></trkpt><trkpt lat="42.35768" lon="13.4807"><ele>719.8</ele><time>2026-05-03T07:19:58.558Z</time></trkpt><trkpt lat="42.35768" lon="13.4808"><ele>721.4</ele><time>2026-05-03T07:19:59.557Z</time></trkpt><trkpt lat="42.3577117" lon="13.4809233"><ele>723.0</ele><time>2026-05-03T07:20:01.558Z</time></trkpt><trkpt lat="42.35774" lon="13.481085"><ele>723.0</ele><time>2026-05-03T07:20:03.558Z</time></trkpt><trkpt lat="42.357735" lon="13.4811767"><ele>723.0</ele><time>2026-05-03T07:20:04.557Z</time></trkpt><trkpt lat="42.357735" lon="13.4812917"><ele>723.0</ele><time>2026-05-03T07:20:05.558Z</time></trkpt><trkpt lat="42.3577283" lon="13.4814267"><ele>723.0</ele><time>2026-05-03T07:20:06.557Z</time></trkpt><trkpt lat="42.3577117" lon="13.48156"><ele>723.0</ele><time>2026-05-03T07:20:07.557Z</time></trkpt><trkpt lat="42.3576983" lon="13.4816867"><ele>723.0</ele><time>2026-05-03T07:20:08.557Z</time></trkpt><trkpt lat="42.3576867" lon="13.48179"><ele>725.0</ele><time>2026-05-03T07:20:09.558Z</time></trkpt><trkpt lat="42.35765" lon="13.4819467"><ele>727.0</ele><time>2026-05-03T07:20:11.558Z</time></trkpt><trkpt lat="42.3576017" lon="13.4821183"><ele>729.0</ele><time>2026-05-03T07:20:13.557Z</time></trkpt><trkpt lat="42.35758" lon="13.48221"><ele>731.0</ele><time>2026-05-03T07:20:14.558Z</time></trkpt><trkpt lat="42.3575583" lon="13.482305"><ele>733.0</ele><time>2026-05-03T07:20:15.557Z</time></trkpt><trkpt lat="42.3575417" lon="13.4824017"><ele>734.6666666666667</ele><time>2026-05-03T07:20:16.558Z</time></trkpt><trkpt lat="42.3575383" lon="13.48249"><ele>736.3333333333334</ele><time>2026-05-03T07:20:17.558Z</time></trkpt><trkpt lat="42.3575417" lon="13.48258"><ele>738.0</ele><time>2026-05-03T07:20:18.557Z</time></trkpt><trkpt lat="42.3575433" lon="13.4826867"><ele>739.6666666666666</ele><time>2026-05-03T07:20:19.558Z</time></trkpt><trkpt lat="42.357555" lon="13.482805"><ele>741.3333333333333</ele><time>2026-05-03T07:20:20.558Z</time></trkpt><trkpt lat="42.3575617" lon="13.4829383"><ele>743.0</ele><time>2026-05-03T07:20:21.558Z</time></trkpt><trkpt lat="42.3575733" lon="13.4830833"><ele>744.1666666666666</ele><time>2026-05-03T07:20:22.558Z</time></trkpt><trkpt lat="42.3575883" lon="13.4832233"><ele>745.3333333333333</ele><time>2026-05-03T07:20:23.557Z</time></trkpt><trkpt lat="42.357605" lon="13.4833467"><ele>746.5</ele><time>2026-05-03T07:20:24.558Z</time></trkpt><trkpt lat="42.3576183" lon="13.48346"><ele>747.6666666666666</ele><time>2026-05-03T07:20:25.558Z</time></trkpt><trkpt lat="42.3576367" lon="13.4835767"><ele>748.8333333333334</ele><time>2026-05-03T07:20:26.558Z</time></trkpt><trkpt lat="42.3576483" lon="13.4836767"><ele>750.0</ele><time>2026-05-03T07:20:27.558Z</time></trkpt><trkpt lat="42.3576683" lon="13.48377"><ele>750.8</ele><time>2026-05-03T07:20:28.558Z</time></trkpt><trkpt lat="42.3576867" lon="13.48387"><ele>751.6</ele><time>2026-05-03T07:20:29.558Z</time></trkpt><trkpt lat="42.3577083" lon="13.4839783"><ele>752.4000000000001</ele><time>2026-05-03T07:20:30.557Z</time></trkpt><trkpt lat="42.35772" lon="13.4841017"><ele>753.2</ele><time>2026-05-03T07:20:31.558Z</time></trkpt><trkpt lat="42.3577417" lon="13.4842333"><ele>754.0</ele><time>2026-05-03T07:20:32.558Z</time></trkpt><trkpt lat="42.3577617" lon="13.4843683"><ele>754.0</ele><time>2026-05-03T07:20:33.558Z</time></trkpt><trkpt lat="42.3577633" lon="13.484515"><ele>754.0</ele><time>2026-05-03T07:20:34.557Z</time></trkpt><trkpt lat="42.3577567" lon="13.48466"><ele>754.0</ele><time>2026-05-03T07:20:35.558Z</time></trkpt><trkpt lat="42.3577483" lon="13.4847983"><ele>754.0</ele><time>2026-05-03T07:20:36.558Z</time></trkpt><trkpt lat="42.3577367" lon="13.4849333"><ele>754.0</ele><time>2026-05-03T07:20:37.558Z</time></trkpt><trkpt lat="42.35772" lon="13.4850783"><ele>754.5</ele><time>2026-05-03T07:20:38.558Z</time></trkpt><trkpt lat="42.35771" lon="13.4852117"><ele>755.0</ele><time>2026-05-03T07:20:39.558Z</time></trkpt><trkpt lat="42.3576967" lon="13.4853467"><ele>755.5</ele><time>2026-05-03T07:20:40.557Z</time></trkpt><trkpt lat="42.3576817" lon="13.4854683"><ele>756.0</ele><time>2026-05-03T07:20:41.558Z</time></trkpt><trkpt lat="42.3576733" lon="13.485575"><ele>756.5</ele><time>2026-05-03T07:20:42.558Z</time></trkpt><trkpt lat="42.35767" lon="13.485665"><ele>757.0</ele><time>2026-05-03T07:20:43.558Z</time></trkpt><trkpt lat="42.35768" lon="13.4858317"><ele>757.0</ele><time>2026-05-03T07:20:45.558Z</time></trkpt><trkpt lat="42.357705" lon="13.4859267"><ele>757.0</ele><time>2026-05-03T07:20:46.558Z</time></trkpt><trkpt lat="42.357735" lon="13.4860317"><ele>757.0</ele><time>2026-05-03T07:20:47.557Z</time></trkpt><trkpt lat="42.3577767" lon="13.48614"><ele>757.0</ele><time>2026-05-03T07:20:48.558Z</time></trkpt><trkpt lat="42.3578167" lon="13.4862417"><ele>757.0</ele><time>2026-05-03T07:20:49.558Z</time></trkpt><trkpt lat="42.3578583" lon="13.4863467"><ele>757.0</ele><time>2026-05-03T07:20:50.558Z</time></trkpt><trkpt lat="42.357905" lon="13.4864517"><ele>756.0</ele><time>2026-05-03T07:20:51.558Z</time></trkpt><trkpt lat="42.3579533" lon="13.4865417"><ele>755.0</ele><time>2026-05-03T07:20:52.557Z</time></trkpt><trkpt lat="42.3580083" lon="13.4866117"><ele>754.0</ele><time>2026-05-03T07:20:53.558Z</time></trkpt><trkpt lat="42.3580783" lon="13.4866933"><ele>753.0</ele><time>2026-05-03T07:20:54.558Z</time></trkpt><trkpt lat="42.3581517" lon="13.4867917"><ele>752.0</ele><time>2026-05-03T07:20:55.557Z</time></trkpt><trkpt lat="42.3582317" lon="13.4868817"><ele>754.2</ele><time>2026-05-03T07:20:56.558Z</time></trkpt><trkpt lat="42.3583083" lon="13.4869633"><ele>756.4000000000001</ele><time>2026-05-03T07:20:57.557Z</time></trkpt><trkpt lat="42.3583817" lon="13.4870517"><ele>758.5999999999999</ele><time>2026-05-03T07:20:58.558Z</time></trkpt><trkpt lat="42.35844" lon="13.4871267"><ele>760.8</ele><time>2026-05-03T07:20:59.558Z</time></trkpt><trkpt lat="42.3585017" lon="13.487205"><ele>763.0</ele><time>2026-05-03T07:21:00.557Z</time></trkpt><trkpt lat="42.3585683" lon="13.48729"><ele>763.0</ele><time>2026-05-03T07:21:01.558Z</time></trkpt><trkpt lat="42.3586283" lon="13.4873617"><ele>763.0</ele><time>2026-05-03T07:21:02.557Z</time></trkpt><trkpt lat="42.3586833" lon="13.4874417"><ele>763.0</ele><time>2026-05-03T07:21:03.558Z</time></trkpt><trkpt lat="42.35873" lon="13.48753"><ele>763.0</ele><time>2026-05-03T07:21:04.557Z</time></trkpt><trkpt lat="42.3587783" lon="13.4876383"><ele>763.0</ele><time>2026-05-03T07:21:05.558Z</time></trkpt><trkpt lat="42.3588317" lon="13.48775"><ele>763.0</ele><time>2026-05-03T07:21:06.558Z</time></trkpt><trkpt lat="42.3588867" lon="13.4878483"><ele>765.8333333333334</ele><time>2026-05-03T07:21:07.558Z</time></trkpt><trkpt lat="42.3589333" lon="13.4879267"><ele>768.6666666666667</ele><time>2026-05-03T07:21:08.558Z</time></trkpt><trkpt lat="42.358995" lon="13.4880233"><ele>771.5</ele><time>2026-05-03T07:21:10.558Z</time></trkpt><trkpt lat="42.3590633" lon="13.4880933"><ele>774.3333333333334</ele><time>2026-05-03T07:21:12.558Z</time></trkpt><trkpt lat="42.35911" lon="13.4881533"><ele>777.1666666666666</ele><time>2026-05-03T07:21:13.558Z</time></trkpt><trkpt lat="42.3591633" lon="13.4882233"><ele>780.0</ele><time>2026-05-03T07:21:14.558Z</time></trkpt><trkpt lat="42.35921" lon="13.4883033"><ele>780.0</ele><time>2026-05-03T07:21:15.558Z</time></trkpt><trkpt lat="42.3592617" lon="13.48837"><ele>780.0</ele><time>2026-05-03T07:21:16.558Z</time></trkpt><trkpt lat="42.3593483" lon="13.4884783"><ele>780.0</ele><time>2026-05-03T07:21:18.557Z</time></trkpt><trkpt lat="42.3593917" lon="13.4885467"><ele>780.0</ele><time>2026-05-03T07:21:19.558Z</time></trkpt><trkpt lat="42.3594383" lon="13.4886333"><ele>780.0</ele><time>2026-05-03T07:21:20.557Z</time></trkpt><trkpt lat="42.35949" lon="13.4887267"><ele>780.0</ele><time>2026-05-03T07:21:21.558Z</time></trkpt><trkpt lat="42.3595367" lon="13.4888183"><ele>781.0</ele><time>2026-05-03T07:21:22.558Z</time></trkpt><trkpt lat="42.359585" lon="13.488915"><ele>782.0</ele><time>2026-05-03T07:21:23.558Z</time></trkpt><trkpt lat="42.3596317" lon="13.489"><ele>783.0</ele><time>2026-05-03T07:21:24.557Z</time></trkpt><trkpt lat="42.3596817" lon="13.4890667"><ele>784.0</ele><time>2026-05-03T07:21:25.557Z</time></trkpt><trkpt lat="42.3597367" lon="13.489145"><ele>785.0</ele><time>2026-05-03T07:21:26.557Z</time></trkpt><trkpt lat="42.359785" lon="13.4892017"><ele>786.0</ele><time>2026-05-03T07:21:27.557Z</time></trkpt><trkpt lat="42.3598383" lon="13.48925"><ele>787.0</ele><time>2026-05-03T07:21:28.557Z</time></trkpt><trkpt lat="42.3599" lon="13.4892883"><ele>787.7142857142857</ele><time>2026-05-03T07:21:29.557Z</time></trkpt><trkpt lat="42.3599617" lon="13.4893333"><ele>788.4285714285713</ele><time>2026-05-03T07:21:30.557Z</time></trkpt><trkpt lat="42.3600383" lon="13.489385"><ele>789.1428571428571</ele><time>2026-05-03T07:21:31.558Z</time></trkpt><trkpt lat="42.3600983" lon="13.48943"><ele>789.8571428571429</ele><time>2026-05-03T07:21:32.558Z</time></trkpt><trkpt lat="42.360155" lon="13.4894783"><ele>790.5714285714286</ele><time>2026-05-03T07:21:33.557Z</time></trkpt><trkpt lat="42.3602067" lon="13.4895333"><ele>791.2857142857143</ele><time>2026-05-03T07:21:34.557Z</time></trkpt><trkpt lat="42.3602567" lon="13.4895917"><ele>792.0</ele><time>2026-05-03T07:21:35.558Z</time></trkpt><trkpt lat="42.36031" lon="13.489655"><ele>792.8333333333334</ele><time>2026-05-03T07:21:36.558Z</time></trkpt><trkpt lat="42.3603683" lon="13.4897167"><ele>793.6666666666667</ele><time>2026-05-03T07:21:37.558Z</time></trkpt><trkpt lat="42.3604317" lon="13.4897717"><ele>794.5</ele><time>2026-05-03T07:21:38.558Z</time></trkpt><trkpt lat="42.3605067" lon="13.48983"><ele>795.3333333333334</ele><time>2026-05-03T07:21:39.558Z</time></trkpt><trkpt lat="42.36058" lon="13.489885"><ele>796.1666666666667</ele><time>2026-05-03T07:21:40.557Z</time></trkpt><trkpt lat="42.3606417" lon="13.4899367"><ele>797.0</ele><time>2026-05-03T07:21:41.558Z</time></trkpt><trkpt lat="42.3607417" lon="13.490025"><ele>797.5000000000001</ele><time>2026-05-03T07:21:43.558Z</time></trkpt><trkpt lat="42.360795" lon="13.49008"><ele>798.0</ele><time>2026-05-03T07:21:44.558Z</time></trkpt><trkpt lat="42.3608583" lon="13.4901367"><ele>798.5</ele><time>2026-05-03T07:21:45.557Z</time></trkpt><trkpt lat="42.36093" lon="13.4901933"><ele>799.0</ele><time>2026-05-03T07:21:46.558Z</time></trkpt><trkpt lat="42.3610067" lon="13.49024"><ele>799.5000000000001</ele><time>2026-05-03T07:21:47.558Z</time></trkpt><trkpt lat="42.3610817" lon="13.4902883"><ele>800.0</ele><time>2026-05-03T07:21:48.558Z</time></trkpt><trkpt lat="42.3611583" lon="13.49035"><ele>800.0</ele><time>2026-05-03T07:21:49.558Z</time></trkpt><trkpt lat="42.3612383" lon="13.49042"><ele>800.0</ele><time>2026-05-03T07:21:50.558Z</time></trkpt><trkpt lat="42.3613117" lon="13.490495"><ele>800.0</ele><time>2026-05-03T07:21:51.558Z</time></trkpt><trkpt lat="42.361385" lon="13.4905767"><ele>800.0</ele><time>2026-05-03T07:21:52.558Z</time></trkpt><trkpt lat="42.361465" lon="13.490645"><ele>800.0</ele><time>2026-05-03T07:21:53.558Z</time></trkpt><trkpt lat="42.3615417" lon="13.4907"><ele>802.0000000000001</ele><time>2026-05-03T07:21:54.558Z</time></trkpt><trkpt lat="42.3616083" lon="13.490745"><ele>804.0</ele><time>2026-05-03T07:21:55.558Z</time></trkpt><trkpt lat="42.3616767" lon="13.490795"><ele>806.0</ele><time>2026-05-03T07:21:56.557Z</time></trkpt><trkpt lat="42.3617483" lon="13.490845"><ele>808.0</ele><time>2026-05-03T07:21:57.558Z</time></trkpt><trkpt lat="42.3618317" lon="13.4908833"><ele>810.0000000000001</ele><time>2026-05-03T07:21:58.557Z</time></trkpt><trkpt lat="42.3618983" lon="13.4909317"><ele>812.0</ele><time>2026-05-03T07:21:59.558Z</time></trkpt><trkpt lat="42.36195" lon="13.490985"><ele>812.0000000000001</ele><time>2026-05-03T07:22:00.558Z</time></trkpt><trkpt lat="42.361995" lon="13.4910633"><ele>812.0</ele><time>2026-05-03T07:22:01.558Z</time></trkpt><trkpt lat="42.3620433" lon="13.491155"><ele>812.0</ele><time>2026-05-03T07:22:02.557Z</time></trkpt><trkpt lat="42.362105" lon="13.4912483"><ele>812.0</ele><time>2026-05-03T07:22:03.557Z</time></trkpt><trkpt lat="42.3621667" lon="13.49134"><ele>812.0000000000001</ele><time>2026-05-03T07:22:04.557Z</time></trkpt><trkpt lat="42.3622283" lon="13.4914217"><ele>812.0</ele><time>2026-05-03T07:22:05.557Z</time></trkpt><trkpt lat="42.3623" lon="13.4914983"><ele>813.1666666666667</ele><time>2026-05-03T07:22:06.558Z</time></trkpt><trkpt lat="42.3623633" lon="13.4915733"><ele>814.3333333333334</ele><time>2026-05-03T07:22:07.557Z</time></trkpt><trkpt lat="42.3624167" lon="13.491645"><ele>815.5</ele><time>2026-05-03T07:22:08.558Z</time></trkpt><trkpt lat="42.3624717" lon="13.491725"><ele>816.6666666666667</ele><time>2026-05-03T07:22:09.557Z</time></trkpt><trkpt lat="42.3625183" lon="13.4918167"><ele>817.8333333333334</ele><time>2026-05-03T07:22:10.558Z</time></trkpt><trkpt lat="42.362555" lon="13.4919033"><ele>819.0</ele><time>2026-05-03T07:22:11.557Z</time></trkpt><trkpt lat="42.3625917" lon="13.4920017"><ele>820.5</ele><time>2026-05-03T07:22:12.558Z</time></trkpt><trkpt lat="42.3626233" lon="13.4921033"><ele>822.0</ele><time>2026-05-03T07:22:13.557Z</time></trkpt><trkpt lat="42.3626467" lon="13.4922083"><ele>823.5</ele><time>2026-05-03T07:22:14.557Z</time></trkpt><trkpt lat="42.362675" lon="13.49229"><ele>825.0</ele><time>2026-05-03T07:22:15.558Z</time></trkpt><trkpt lat="42.3626917" lon="13.4923917"><ele>826.5</ele><time>2026-05-03T07:22:16.558Z</time></trkpt><trkpt lat="42.362715" lon="13.4924833"><ele>828.0</ele><time>2026-05-03T07:22:17.557Z</time></trkpt><trkpt lat="42.3627367" lon="13.4925783"><ele>828.0</ele><time>2026-05-03T07:22:18.558Z</time></trkpt><trkpt lat="42.3627617" lon="13.4926717"><ele>828.0</ele><time>2026-05-03T07:22:19.558Z</time></trkpt><trkpt lat="42.3627867" lon="13.4927617"><ele>828.0</ele><time>2026-05-03T07:22:20.557Z</time></trkpt><trkpt lat="42.3628083" lon="13.4928533"><ele>828.0</ele><time>2026-05-03T07:22:21.557Z</time></trkpt><trkpt lat="42.3628067" lon="13.493"><ele>828.0</ele><time>2026-05-03T07:22:23.558Z</time></trkpt><trkpt lat="42.3627917" lon="13.4931583"><ele>828.0</ele><time>2026-05-03T07:22:25.557Z</time></trkpt><trkpt lat="42.3627983" lon="13.4932483"><ele>830.6666666666666</ele><time>2026-05-03T07:22:26.557Z</time></trkpt><trkpt lat="42.36281" lon="13.493345"><ele>833.3333333333333</ele><time>2026-05-03T07:22:27.558Z</time></trkpt><trkpt lat="42.3628233" lon="13.4934333"><ele>836.0</ele><time>2026-05-03T07:22:28.557Z</time></trkpt><trkpt lat="42.3628567" lon="13.493515"><ele>838.6666666666666</ele><time>2026-05-03T07:22:29.557Z</time></trkpt><trkpt lat="42.3628967" lon="13.4935867"><ele>841.3333333333333</ele><time>2026-05-03T07:22:30.557Z</time></trkpt><trkpt lat="42.3629533" lon="13.4937333"><ele>844.0</ele><time>2026-05-03T07:22:32.558Z</time></trkpt><trkpt lat="42.3629667" lon="13.4938233"><ele>846.1666666666666</ele><time>2026-05-03T07:22:33.557Z</time></trkpt><trkpt lat="42.3629683" lon="13.4939283"><ele>848.3333333333333</ele><time>2026-05-03T07:22:34.557Z</time></trkpt><trkpt lat="42.3629667" lon="13.4940417"><ele>850.5</ele><time>2026-05-03T07:22:35.557Z</time></trkpt><trkpt lat="42.3629683" lon="13.4941483"><ele>852.6666666666667</ele><time>2026-05-03T07:22:36.558Z</time></trkpt><trkpt lat="42.3629683" lon="13.49427"><ele>854.8333333333334</ele><time>2026-05-03T07:22:37.557Z</time></trkpt><trkpt lat="42.3629767" lon="13.4943867"><ele>857.0</ele><time>2026-05-03T07:22:38.558Z</time></trkpt><trkpt lat="42.3629833" lon="13.49448"><ele>857.0000000000001</ele><time>2026-05-03T07:22:39.558Z</time></trkpt><trkpt lat="42.3629867" lon="13.4945683"><ele>857.0</ele><time>2026-05-03T07:22:40.558Z</time></trkpt><trkpt lat="42.3629683" lon="13.494735"><ele>857.0</ele><time>2026-05-03T07:22:42.557Z</time></trkpt><trkpt lat="42.362955" lon="13.49483"><ele>857.0</ele><time>2026-05-03T07:22:43.558Z</time></trkpt><trkpt lat="42.362945" lon="13.49493"><ele>857.0000000000001</ele><time>2026-05-03T07:22:44.558Z</time></trkpt><trkpt lat="42.362935" lon="13.4950417"><ele>857.0</ele><time>2026-05-03T07:22:45.558Z</time></trkpt><trkpt lat="42.3629233" lon="13.4951533"><ele>858.0000000000001</ele><time>2026-05-03T07:22:46.558Z</time></trkpt><trkpt lat="42.3629133" lon="13.49526"><ele>859.0</ele><time>2026-05-03T07:22:47.558Z</time></trkpt><trkpt lat="42.3629033" lon="13.4953567"><ele>860.0</ele><time>2026-05-03T07:22:48.557Z</time></trkpt><trkpt lat="42.362895" lon="13.4954467"><ele>861.0</ele><time>2026-05-03T07:22:49.558Z</time></trkpt><trkpt lat="42.3628833" lon="13.4956033"><ele>862.0000000000001</ele><time>2026-05-03T07:22:51.558Z</time></trkpt><trkpt lat="42.36287" lon="13.4956867"><ele>863.0</ele><time>2026-05-03T07:22:52.557Z</time></trkpt><trkpt lat="42.36287" lon="13.4957883"><ele>863.4</ele><time>2026-05-03T07:22:53.557Z</time></trkpt><trkpt lat="42.3628633" lon="13.4959017"><ele>863.8</ele><time>2026-05-03T07:22:54.558Z</time></trkpt><trkpt lat="42.36285" lon="13.4960283"><ele>864.2</ele><time>2026-05-03T07:22:55.558Z</time></trkpt><trkpt lat="42.362835" lon="13.4961617"><ele>864.6</ele><time>2026-05-03T07:22:56.558Z</time></trkpt><trkpt lat="42.3628167" lon="13.4962933"><ele>865.0</ele><time>2026-05-03T07:22:57.557Z</time></trkpt><trkpt lat="42.3628183" lon="13.4964117"><ele>865.9999999999999</ele><time>2026-05-03T07:22:58.558Z</time></trkpt><trkpt lat="42.362815" lon="13.49652"><ele>867.0</ele><time>2026-05-03T07:22:59.557Z</time></trkpt><trkpt lat="42.3628267" lon="13.4966167"><ele>868.0</ele><time>2026-05-03T07:23:00.558Z</time></trkpt><trkpt lat="42.3628417" lon="13.4967117"><ele>869.0</ele><time>2026-05-03T07:23:01.557Z</time></trkpt><trkpt lat="42.3628583" lon="13.4968067"><ele>869.9999999999999</ele><time>2026-05-03T07:23:02.557Z</time></trkpt><trkpt lat="42.36288" lon="13.4969067"><ele>871.0</ele><time>2026-05-03T07:23:03.557Z</time></trkpt><trkpt lat="42.3629" lon="13.4970133"><ele>871.6666666666666</ele><time>2026-05-03T07:23:04.558Z</time></trkpt><trkpt lat="42.3629033" lon="13.497105"><ele>872.3333333333333</ele><time>2026-05-03T07:23:05.557Z</time></trkpt><trkpt lat="42.3628933" lon="13.4972"><ele>873.0</ele><time>2026-05-03T07:23:06.558Z</time></trkpt><trkpt lat="42.3628817" lon="13.4972917"><ele>873.6666666666667</ele><time>2026-05-03T07:23:07.558Z</time></trkpt><trkpt lat="42.3628767" lon="13.49745"><ele>874.3333333333334</ele><time>2026-05-03T07:23:09.558Z</time></trkpt><trkpt lat="42.3628833" lon="13.4975367"><ele>875.0</ele><time>2026-05-03T07:23:10.558Z</time></trkpt><trkpt lat="42.3629017" lon="13.49762"><ele>875.0000000000001</ele><time>2026-05-03T07:23:11.557Z</time></trkpt><trkpt lat="42.3629367" lon="13.4977117"><ele>875.0</ele><time>2026-05-03T07:23:12.557Z</time></trkpt><trkpt lat="42.3629783" lon="13.4977867"><ele>875.0</ele><time>2026-05-03T07:23:13.558Z</time></trkpt><trkpt lat="42.3630283" lon="13.4978617"><ele>875.0</ele><time>2026-05-03T07:23:14.558Z</time></trkpt><trkpt lat="42.3630683" lon="13.49793"><ele>875.0000000000001</ele><time>2026-05-03T07:23:15.557Z</time></trkpt><trkpt lat="42.36314" lon="13.4980283"><ele>875.0</ele><time>2026-05-03T07:23:17.558Z</time></trkpt><trkpt lat="42.363225" lon="13.4981"><ele>878.0000000000001</ele><time>2026-05-03T07:23:19.557Z</time></trkpt><trkpt lat="42.36333" lon="13.4981867"><ele>881.0</ele><time>2026-05-03T07:23:21.558Z</time></trkpt><trkpt lat="42.3633833" lon="13.4982483"><ele>884.0</ele><time>2026-05-03T07:23:22.557Z</time></trkpt><trkpt lat="42.3634433" lon="13.4982983"><ele>887.0</ele><time>2026-05-03T07:23:23.557Z</time></trkpt><trkpt lat="42.3634983" lon="13.4983483"><ele>890.0000000000001</ele><time>2026-05-03T07:23:24.558Z</time></trkpt><trkpt lat="42.3635467" lon="13.4984083"><ele>893.0</ele><time>2026-05-03T07:23:25.558Z</time></trkpt><trkpt lat="42.363605" lon="13.4985233"><ele>893.0</ele><time>2026-05-03T07:23:27.558Z</time></trkpt><trkpt lat="42.3636367" lon="13.4986467"><ele>893.0</ele><time>2026-05-03T07:23:29.558Z</time></trkpt><trkpt lat="42.3636783" lon="13.4987817"><ele>893.0</ele><time>2026-05-03T07:23:31.558Z</time></trkpt><trkpt lat="42.36371" lon="13.49888"><ele>893.0</ele><time>2026-05-03T07:23:33.558Z</time></trkpt><trkpt lat="42.3637599" lon="13.4989806"><ele>893.0</ele><time>2026-05-03T07:23:35.558Z</time></trkpt><trkpt lat="42.36383" lon="13.4990361"><ele>895.1666666666667</ele><time>2026-05-03T07:23:37.558Z</time></trkpt><trkpt lat="42.3638841" lon="13.4991199"><ele>897.3333333333334</ele><time>2026-05-03T07:23:40.56Z</time></trkpt><trkpt lat="42.3639665" lon="13.4992223"><ele>899.5</ele><time>2026-05-03T07:23:42.552Z</time></trkpt><trkpt lat="42.3639986" lon="13.4993174"><ele>901.6666666666667</ele><time>2026-05-03T07:23:43.557Z</time></trkpt><trkpt lat="42.3640478" lon="13.4994021"><ele>903.8333333333334</ele><time>2026-05-03T07:23:44.558Z</time></trkpt><trkpt lat="42.3640998" lon="13.4994776"><ele>906.0</ele><time>2026-05-03T07:23:45.558Z</time></trkpt><trkpt lat="42.364144" lon="13.4995434"><ele>906.4</ele><time>2026-05-03T07:23:46.557Z</time></trkpt><trkpt lat="42.3642243" lon="13.4996768"><ele>906.8</ele><time>2026-05-03T07:23:48.557Z</time></trkpt><trkpt lat="42.3642751" lon="13.4997616"><ele>907.1999999999999</ele><time>2026-05-03T07:23:49.558Z</time></trkpt><trkpt lat="42.3643288" lon="13.4998577"><ele>907.5999999999999</ele><time>2026-05-03T07:23:50.558Z</time></trkpt><trkpt lat="42.3643819" lon="13.4999684"><ele>908.0</ele><time>2026-05-03T07:23:51.558Z</time></trkpt><trkpt lat="42.3644275" lon="13.5000737"><ele>908.0000000000001</ele><time>2026-05-03T07:23:52.558Z</time></trkpt><trkpt lat="42.3644701" lon="13.5001613"><ele>908.0</ele><time>2026-05-03T07:23:53.558Z</time></trkpt><trkpt lat="42.3645131" lon="13.5002474"><ele>908.0</ele><time>2026-05-03T07:23:54.557Z</time></trkpt><trkpt lat="42.3645581" lon="13.5003471"><ele>908.0</ele><time>2026-05-03T07:23:55.557Z</time></trkpt><trkpt lat="42.3645945" lon="13.5004451"><ele>908.0000000000001</ele><time>2026-05-03T07:23:56.558Z</time></trkpt><trkpt lat="42.3646495" lon="13.5005704"><ele>908.0</ele><time>2026-05-03T07:23:58.558Z</time></trkpt><trkpt lat="42.3646909" lon="13.5006721"><ele>910.4</ele><time>2026-05-03T07:24:00.557Z</time></trkpt><trkpt lat="42.3647314" lon="13.5007999"><ele>912.8</ele><time>2026-05-03T07:24:02.558Z</time></trkpt><trkpt lat="42.3647799" lon="13.5009381"><ele>915.2</ele><time>2026-05-03T07:24:04.557Z</time></trkpt><trkpt lat="42.364833" lon="13.5010777"><ele>917.6</ele><time>2026-05-03T07:24:06.558Z</time></trkpt><trkpt lat="42.3648688" lon="13.5012054"><ele>920.0</ele><time>2026-05-03T07:24:08.557Z</time></trkpt><trkpt lat="42.3648964" lon="13.5013534"><ele>921.4</ele><time>2026-05-03T07:24:10.558Z</time></trkpt><trkpt lat="42.3649191" lon="13.5015109"><ele>922.8</ele><time>2026-05-03T07:24:12.557Z</time></trkpt><trkpt lat="42.3649538" lon="13.5016609"><ele>924.2</ele><time>2026-05-03T07:24:14.558Z</time></trkpt><trkpt lat="42.3649755" lon="13.5017461"><ele>925.6</ele><time>2026-05-03T07:24:15.558Z</time></trkpt><trkpt lat="42.3649977" lon="13.5018265"><ele>927.0</ele><time>2026-05-03T07:24:16.558Z</time></trkpt><trkpt lat="42.3650494" lon="13.5019794"><ele>927.0</ele><time>2026-05-03T07:24:18.557Z</time></trkpt><trkpt lat="42.3650766" lon="13.5020625"><ele>927.0</ele><time>2026-05-03T07:24:19.558Z</time></trkpt><trkpt lat="42.3651036" lon="13.5021501"><ele>927.0</ele><time>2026-05-03T07:24:20.557Z</time></trkpt><trkpt lat="42.3651288" lon="13.5022426"><ele>927.0</ele><time>2026-05-03T07:24:21.557Z</time></trkpt><trkpt lat="42.3651479" lon="13.5023322"><ele>927.0</ele><time>2026-05-03T07:24:22.558Z</time></trkpt><trkpt lat="42.365168" lon="13.5024741"><ele>927.0</ele><time>2026-05-03T07:24:24.557Z</time></trkpt><trkpt lat="42.3652051" lon="13.5026152"><ele>928.0</ele><time>2026-05-03T07:24:26.558Z</time></trkpt><trkpt lat="42.3652547" lon="13.502781"><ele>929.0</ele><time>2026-05-03T07:24:28.558Z</time></trkpt><trkpt lat="42.3652795" lon="13.5028768"><ele>930.0</ele><time>2026-05-03T07:24:29.557Z</time></trkpt><trkpt lat="42.3653098" lon="13.5029686"><ele>931.0</ele><time>2026-05-03T07:24:30.558Z</time></trkpt><trkpt lat="42.3653467" lon="13.5030503"><ele>932.0</ele><time>2026-05-03T07:24:31.558Z</time></trkpt><trkpt lat="42.3653855" lon="13.5031262"><ele>933.0</ele><time>2026-05-03T07:24:32.557Z</time></trkpt><trkpt lat="42.3654333" lon="13.5032053"><ele>934.3333333333334</ele><time>2026-05-03T07:24:33.558Z</time></trkpt><trkpt lat="42.365487" lon="13.5032941"><ele>935.6666666666667</ele><time>2026-05-03T07:24:34.558Z</time></trkpt><trkpt lat="42.3655409" lon="13.503387"><ele>937.0</ele><time>2026-05-03T07:24:35.557Z</time></trkpt><trkpt lat="42.3655877" lon="13.5034766"><ele>938.3333333333334</ele><time>2026-05-03T07:24:36.557Z</time></trkpt><trkpt lat="42.365631" lon="13.5035682"><ele>939.6666666666667</ele><time>2026-05-03T07:24:37.558Z</time></trkpt><trkpt lat="42.3656735" lon="13.5036564"><ele>941.0</ele><time>2026-05-03T07:24:38.557Z</time></trkpt><trkpt lat="42.3657061" lon="13.5037349"><ele>941.8</ele><time>2026-05-03T07:24:39.558Z</time></trkpt><trkpt lat="42.3657494" lon="13.503905"><ele>942.5999999999999</ele><time>2026-05-03T07:24:41.557Z</time></trkpt><trkpt lat="42.3657756" lon="13.5040092"><ele>943.4</ele><time>2026-05-03T07:24:42.558Z</time></trkpt><trkpt lat="42.3657998" lon="13.5041039"><ele>944.2</ele><time>2026-05-03T07:24:43.557Z</time></trkpt><trkpt lat="42.3658244" lon="13.5042551"><ele>945.0</ele><time>2026-05-03T07:24:45.558Z</time></trkpt><trkpt lat="42.3658302" lon="13.5044202"><ele>945.0</ele><time>2026-05-03T07:24:47.557Z</time></trkpt><trkpt lat="42.3658277" lon="13.5045248"><ele>945.0</ele><time>2026-05-03T07:24:48.558Z</time></trkpt><trkpt lat="42.3658163" lon="13.5046309"><ele>945.0</ele><time>2026-05-03T07:24:49.558Z</time></trkpt><trkpt lat="42.3658087" lon="13.5047255"><ele>945.0</ele><time>2026-05-03T07:24:50.558Z</time></trkpt><trkpt lat="42.3658026" lon="13.5048163"><ele>945.0</ele><time>2026-05-03T07:24:51.557Z</time></trkpt><trkpt lat="42.3658101" lon="13.5049114"><ele>945.0</ele><time>2026-05-03T07:24:52.557Z</time></trkpt><trkpt lat="42.36583" lon="13.5050083"><ele>945.0</ele><time>2026-05-03T07:24:53.558Z</time></trkpt><trkpt lat="42.3658567" lon="13.5051083"><ele>945.1666666666666</ele><time>2026-05-03T07:24:54.558Z</time></trkpt><trkpt lat="42.3658783" lon="13.5052"><ele>945.3333333333333</ele><time>2026-05-03T07:24:55.558Z</time></trkpt><trkpt lat="42.3659" lon="13.505305"><ele>945.5</ele><time>2026-05-03T07:24:56.558Z</time></trkpt><trkpt lat="42.36592" lon="13.5054233"><ele>945.6666666666666</ele><time>2026-05-03T07:24:57.558Z</time></trkpt><trkpt lat="42.3659417" lon="13.50554"><ele>945.8333333333333</ele><time>2026-05-03T07:24:58.558Z</time></trkpt><trkpt lat="42.3659583" lon="13.5056433"><ele>946.0</ele><time>2026-05-03T07:24:59.558Z</time></trkpt><trkpt lat="42.365965" lon="13.50573"><ele>946.1666666666666</ele><time>2026-05-03T07:25:00.558Z</time></trkpt><trkpt lat="42.365975" lon="13.505815"><ele>946.3333333333333</ele><time>2026-05-03T07:25:01.558Z</time></trkpt><trkpt lat="42.3659817" lon="13.5059"><ele>946.5</ele><time>2026-05-03T07:25:02.558Z</time></trkpt><trkpt lat="42.3659917" lon="13.5060583"><ele>946.6666666666667</ele><time>2026-05-03T07:25:04.557Z</time></trkpt><trkpt lat="42.365995" lon="13.5062017"><ele>946.8333333333334</ele><time>2026-05-03T07:25:06.558Z</time></trkpt><trkpt lat="42.3660033" lon="13.5062983"><ele>947.0</ele><time>2026-05-03T07:25:07.557Z</time></trkpt><trkpt lat="42.366025" lon="13.5063967"><ele>947.4000000000001</ele><time>2026-05-03T07:25:08.558Z</time></trkpt><trkpt lat="42.3660517" lon="13.5064767"><ele>947.8000000000001</ele><time>2026-05-03T07:25:09.557Z</time></trkpt><trkpt lat="42.3661183" lon="13.5065783"><ele>948.2</ele><time>2026-05-03T07:25:11.558Z</time></trkpt><trkpt lat="42.3661667" lon="13.506705"><ele>948.6</ele><time>2026-05-03T07:25:13.558Z</time></trkpt><trkpt lat="42.36625" lon="13.5068367"><ele>949.0</ele><time>2026-05-03T07:25:15.558Z</time></trkpt><trkpt lat="42.366305" lon="13.5069017"><ele>948.9999999999999</ele><time>2026-05-03T07:25:16.558Z</time></trkpt><trkpt lat="42.3663533" lon="13.5069583"><ele>949.0</ele><time>2026-05-03T07:25:17.558Z</time></trkpt><trkpt lat="42.36643" lon="13.507045"><ele>949.0</ele><time>2026-05-03T07:25:19.558Z</time></trkpt><trkpt lat="42.3665" lon="13.507155"><ele>949.0</ele><time>2026-05-03T07:25:21.558Z</time></trkpt><trkpt lat="42.3665333" lon="13.5072283"><ele>948.9999999999999</ele><time>2026-05-03T07:25:22.558Z</time></trkpt><trkpt lat="42.3665783" lon="13.50732"><ele>949.0</ele><time>2026-05-03T07:25:23.558Z</time></trkpt><trkpt lat="42.3666317" lon="13.5074017"><ele>951.2</ele><time>2026-05-03T07:25:24.558Z</time></trkpt><trkpt lat="42.366705" lon="13.5075017"><ele>953.4000000000001</ele><time>2026-05-03T07:25:26.558Z</time></trkpt><trkpt lat="42.3667667" lon="13.5075967"><ele>955.6</ele><time>2026-05-03T07:25:28.558Z</time></trkpt><trkpt lat="42.3668067" lon="13.50775"><ele>957.8</ele><time>2026-05-03T07:25:30.558Z</time></trkpt><trkpt lat="42.3668367" lon="13.5078383"><ele>960.0</ele><time>2026-05-03T07:25:32.558Z</time></trkpt><trkpt lat="42.3667783" lon="13.5078017"><ele>960.0</ele><time>2026-05-03T07:25:52.557Z</time></trkpt><trkpt lat="42.3666983" lon="13.50784"><ele>960.0</ele><time>2026-05-03T07:25:55.558Z</time></trkpt><trkpt lat="42.3666417" lon="13.5078867"><ele>960.0</ele><time>2026-05-03T07:25:57.558Z</time></trkpt><trkpt lat="42.3665567" lon="13.50796"><ele>960.0</ele><time>2026-05-03T07:25:59.558Z</time></trkpt><trkpt lat="42.36648" lon="13.5080017"><ele>960.0</ele><time>2026-05-03T07:26:01.558Z</time></trkpt><trkpt lat="42.3664017" lon="13.5080433"><ele>960.0</ele><time>2026-05-03T07:26:05.557Z</time></trkpt><trkpt lat="42.3663217" lon="13.50808"><ele>958.8333333333334</ele><time>2026-05-03T07:26:07.557Z</time></trkpt><trkpt lat="42.366235" lon="13.5080933"><ele>957.6666666666667</ele><time>2026-05-03T07:26:18.557Z</time></trkpt><trkpt lat="42.366165" lon="13.508105"><ele>956.5</ele><time>2026-05-03T07:26:20.558Z</time></trkpt><trkpt lat="42.3660883" lon="13.5081467"><ele>955.3333333333334</ele><time>2026-05-03T07:26:22.558Z</time></trkpt><trkpt lat="42.36602" lon="13.5082217"><ele>954.1666666666667</ele><time>2026-05-03T07:26:24.558Z</time></trkpt><trkpt lat="42.3659483" lon="13.5083517"><ele>953.0</ele><time>2026-05-03T07:26:26.558Z</time></trkpt><trkpt lat="42.36591" lon="13.5084333"><ele>953.0</ele><time>2026-05-03T07:26:27.558Z</time></trkpt><trkpt lat="42.3658333" lon="13.5085417"><ele>953.0</ele><time>2026-05-03T07:26:29.558Z</time></trkpt><trkpt lat="42.3657783" lon="13.508615"><ele>953.0</ele><time>2026-05-03T07:26:31.558Z</time></trkpt><trkpt lat="42.36575" lon="13.5087417"><ele>953.0</ele><time>2026-05-03T07:26:33.558Z</time></trkpt><trkpt lat="42.36573" lon="13.508865"><ele>953.0</ele><time>2026-05-03T07:26:34.558Z</time></trkpt><trkpt lat="42.365695" lon="13.50899"><ele>953.8</ele><time>2026-05-03T07:26:35.558Z</time></trkpt><trkpt lat="42.3656567" lon="13.5090783"><ele>954.5999999999999</ele><time>2026-05-03T07:26:36.557Z</time></trkpt><trkpt lat="42.365605" lon="13.5091967"><ele>955.4000000000001</ele><time>2026-05-03T07:26:38.558Z</time></trkpt><trkpt lat="42.3655867" lon="13.509325"><ele>956.2</ele><time>2026-05-03T07:26:40.557Z</time></trkpt><trkpt lat="42.36559" lon="13.509495"><ele>957.0</ele><time>2026-05-03T07:26:42.557Z</time></trkpt><trkpt lat="42.3656283" lon="13.5096133"><ele>957.0</ele><time>2026-05-03T07:26:44.558Z</time></trkpt><trkpt lat="42.3657067" lon="13.509715"><ele>957.0</ele><time>2026-05-03T07:26:46.558Z</time></trkpt><trkpt lat="42.3658283" lon="13.5098017"><ele>957.0</ele><time>2026-05-03T07:26:48.558Z</time></trkpt><trkpt lat="42.365895" lon="13.5098467"><ele>957.0</ele><time>2026-05-03T07:26:49.558Z</time></trkpt><trkpt lat="42.365965" lon="13.5098767"><ele>957.0</ele><time>2026-05-03T07:26:50.557Z</time></trkpt><trkpt lat="42.3660317" lon="13.5099083"><ele>957.0</ele><time>2026-05-03T07:26:51.557Z</time></trkpt><trkpt lat="42.3660833" lon="13.510025"><ele>957.0</ele><time>2026-05-03T07:26:53.558Z</time></trkpt><trkpt lat="42.3660417" lon="13.510195"><ele>957.0</ele><time>2026-05-03T07:26:55.558Z</time></trkpt><trkpt lat="42.36601" lon="13.51033"><ele>957.0</ele><time>2026-05-03T07:26:56.558Z</time></trkpt><trkpt lat="42.365965" lon="13.5104517"><ele>957.0</ele><time>2026-05-03T07:26:57.558Z</time></trkpt><trkpt lat="42.3659117" lon="13.510545"><ele>956.8333333333334</ele><time>2026-05-03T07:26:58.558Z</time></trkpt><trkpt lat="42.365855" lon="13.5106067"><ele>956.6666666666667</ele><time>2026-05-03T07:26:59.558Z</time></trkpt><trkpt lat="42.365785" lon="13.5106633"><ele>956.5</ele><time>2026-05-03T07:27:00.558Z</time></trkpt><trkpt lat="42.3657233" lon="13.510735"><ele>956.3333333333334</ele><time>2026-05-03T07:27:01.558Z</time></trkpt><trkpt lat="42.3656683" lon="13.510835"><ele>956.1666666666667</ele><time>2026-05-03T07:27:02.558Z</time></trkpt><trkpt lat="42.3656167" lon="13.5109483"><ele>956.0</ele><time>2026-05-03T07:27:03.558Z</time></trkpt><trkpt lat="42.3655883" lon="13.511055"><ele>956.0000000000001</ele><time>2026-05-03T07:27:04.557Z</time></trkpt><trkpt lat="42.3655667" lon="13.511155"><ele>956.0</ele><time>2026-05-03T07:27:05.558Z</time></trkpt><trkpt lat="42.3655533" lon="13.51126"><ele>956.0</ele><time>2026-05-03T07:27:06.558Z</time></trkpt><trkpt lat="42.36553" lon="13.5113617"><ele>956.0</ele><time>2026-05-03T07:27:07.557Z</time></trkpt><trkpt lat="42.365495" lon="13.5114733"><ele>956.0000000000001</ele><time>2026-05-03T07:27:08.558Z</time></trkpt><trkpt lat="42.3654583" lon="13.5116017"><ele>956.0</ele><time>2026-05-03T07:27:09.558Z</time></trkpt><trkpt lat="42.3654233" lon="13.5117317"><ele>956.1999999999999</ele><time>2026-05-03T07:27:10.558Z</time></trkpt><trkpt lat="42.3653983" lon="13.5118367"><ele>956.3999999999999</ele><time>2026-05-03T07:27:11.558Z</time></trkpt><trkpt lat="42.3653783" lon="13.51192"><ele>956.6</ele><time>2026-05-03T07:27:12.558Z</time></trkpt><trkpt lat="42.3653633" lon="13.5120833"><ele>956.8</ele><time>2026-05-03T07:27:14.558Z</time></trkpt><trkpt lat="42.3653667" lon="13.5122167"><ele>957.0</ele><time>2026-05-03T07:27:16.557Z</time></trkpt><trkpt lat="42.365375" lon="13.5123433"><ele>957.0</ele><time>2026-05-03T07:27:18.558Z</time></trkpt><trkpt lat="42.36543" lon="13.5125217"><ele>957.0</ele><time>2026-05-03T07:27:20.557Z</time></trkpt><trkpt lat="42.3654617" lon="13.512635"><ele>957.0</ele><time>2026-05-03T07:27:21.558Z</time></trkpt><trkpt lat="42.365485" lon="13.5127683"><ele>957.0</ele><time>2026-05-03T07:27:22.558Z</time></trkpt><trkpt lat="42.3655033" lon="13.5129"><ele>957.0</ele><time>2026-05-03T07:27:23.557Z</time></trkpt><trkpt lat="42.3655117" lon="13.5130417"><ele>959.1666666666666</ele><time>2026-05-03T07:27:24.558Z</time></trkpt><trkpt lat="42.3655233" lon="13.5131617"><ele>961.3333333333333</ele><time>2026-05-03T07:27:25.558Z</time></trkpt><trkpt lat="42.3655283" lon="13.5132667"><ele>963.5</ele><time>2026-05-03T07:27:27.557Z</time></trkpt><trkpt lat="42.3654567" lon="13.5132117"><ele>965.6666666666666</ele><time>2026-05-03T07:27:34.558Z</time></trkpt><trkpt lat="42.3654017" lon="13.5131667"><ele>967.8333333333333</ele><time>2026-05-03T07:27:35.558Z</time></trkpt><trkpt lat="42.365345" lon="13.513095"><ele>970.0</ele><time>2026-05-03T07:27:36.558Z</time></trkpt><trkpt lat="42.3652817" lon="13.5129967"><ele>967.4</ele><time>2026-05-03T07:27:37.558Z</time></trkpt><trkpt lat="42.3652083" lon="13.5128933"><ele>964.8</ele><time>2026-05-03T07:27:38.557Z</time></trkpt><trkpt lat="42.3651333" lon="13.5127817"><ele>962.2</ele><time>2026-05-03T07:27:39.557Z</time></trkpt><trkpt lat="42.365065" lon="13.5126817"><ele>959.6</ele><time>2026-05-03T07:27:40.558Z</time></trkpt><trkpt lat="42.3650033" lon="13.512585"><ele>957.0</ele><time>2026-05-03T07:27:41.558Z</time></trkpt><trkpt lat="42.3649533" lon="13.5124967"><ele>957.0</ele><time>2026-05-03T07:27:42.558Z</time></trkpt><trkpt lat="42.3648917" lon="13.5123983"><ele>957.0</ele><time>2026-05-03T07:27:43.558Z</time></trkpt><trkpt lat="42.3648367" lon="13.5123117"><ele>957.0</ele><time>2026-05-03T07:27:44.557Z</time></trkpt><trkpt lat="42.3647783" lon="13.5122183"><ele>957.0</ele><time>2026-05-03T07:27:45.558Z</time></trkpt><trkpt lat="42.3647167" lon="13.5121283"><ele>957.0</ele><time>2026-05-03T07:27:46.557Z</time></trkpt><trkpt lat="42.3646317" lon="13.5120433"><ele>954.8</ele><time>2026-05-03T07:27:47.558Z</time></trkpt><trkpt lat="42.3645383" lon="13.5119433"><ele>952.6</ele><time>2026-05-03T07:27:48.558Z</time></trkpt><trkpt lat="42.36445" lon="13.51184"><ele>950.3999999999999</ele><time>2026-05-03T07:27:49.557Z</time></trkpt><trkpt lat="42.3643733" lon="13.511755"><ele>948.1999999999999</ele><time>2026-05-03T07:27:50.558Z</time></trkpt><trkpt lat="42.3643067" lon="13.5116767"><ele>946.0</ele><time>2026-05-03T07:27:51.557Z</time></trkpt><trkpt lat="42.3642483" lon="13.5116083"><ele>945.9999999999999</ele><time>2026-05-03T07:27:52.558Z</time></trkpt><trkpt lat="42.364195" lon="13.5115517"><ele>946.0</ele><time>2026-05-03T07:27:53.558Z</time></trkpt><trkpt lat="42.3641433" lon="13.5115017"><ele>946.0</ele><time>2026-05-03T07:27:54.558Z</time></trkpt><trkpt lat="42.3640817" lon="13.5114583"><ele>946.0</ele><time>2026-05-03T07:27:55.557Z</time></trkpt><trkpt lat="42.3640033" lon="13.51142"><ele>945.9999999999999</ele><time>2026-05-03T07:27:56.558Z</time></trkpt><trkpt lat="42.36392" lon="13.51139"><ele>946.0</ele><time>2026-05-03T07:27:57.558Z</time></trkpt><trkpt lat="42.363835" lon="13.5113617"><ele>946.1666666666666</ele><time>2026-05-03T07:27:58.558Z</time></trkpt><trkpt lat="42.3637483" lon="13.5113433"><ele>946.3333333333333</ele><time>2026-05-03T07:27:59.557Z</time></trkpt><trkpt lat="42.3636733" lon="13.51132"><ele>946.5</ele><time>2026-05-03T07:28:00.558Z</time></trkpt><trkpt lat="42.3636017" lon="13.5112967"><ele>946.6666666666667</ele><time>2026-05-03T07:28:01.557Z</time></trkpt><trkpt lat="42.3635283" lon="13.5112717"><ele>946.8333333333334</ele><time>2026-05-03T07:28:02.558Z</time></trkpt><trkpt lat="42.3634533" lon="13.5112567"><ele>947.0</ele><time>2026-05-03T07:28:03.558Z</time></trkpt><trkpt lat="42.3633767" lon="13.5112417"><ele>946.1428571428571</ele><time>2026-05-03T07:28:04.558Z</time></trkpt><trkpt lat="42.3632967" lon="13.5112333"><ele>945.2857142857142</ele><time>2026-05-03T07:28:05.558Z</time></trkpt><trkpt lat="42.3632267" lon="13.5112083"><ele>944.4285714285713</ele><time>2026-05-03T07:28:06.558Z</time></trkpt><trkpt lat="42.363165" lon="13.511165"><ele>943.5714285714284</ele><time>2026-05-03T07:28:07.558Z</time></trkpt><trkpt lat="42.3631183" lon="13.5110983"><ele>942.7142857142857</ele><time>2026-05-03T07:28:08.557Z</time></trkpt><trkpt lat="42.3630667" lon="13.5110167"><ele>941.8571428571427</ele><time>2026-05-03T07:28:09.557Z</time></trkpt><trkpt lat="42.3630133" lon="13.5109417"><ele>940.9999999999999</ele><time>2026-05-03T07:28:10.558Z</time></trkpt><trkpt lat="42.3629517" lon="13.5108733"><ele>939.5000000000001</ele><time>2026-05-03T07:28:11.558Z</time></trkpt><trkpt lat="42.36289" lon="13.5107867"><ele>938.0</ele><time>2026-05-03T07:28:12.558Z</time></trkpt><trkpt lat="42.3628117" lon="13.5106867"><ele>936.5</ele><time>2026-05-03T07:28:13.558Z</time></trkpt><trkpt lat="42.3627417" lon="13.5106"><ele>935.0</ele><time>2026-05-03T07:28:14.558Z</time></trkpt><trkpt lat="42.3626667" lon="13.5105417"><ele>933.5000000000001</ele><time>2026-05-03T07:28:15.558Z</time></trkpt><trkpt lat="42.3625983" lon="13.5105133"><ele>932.0</ele><time>2026-05-03T07:28:16.557Z</time></trkpt><trkpt lat="42.3625317" lon="13.510505"><ele>932.0000000000001</ele><time>2026-05-03T07:28:17.558Z</time></trkpt><trkpt lat="42.3624517" lon="13.5105083"><ele>932.0</ele><time>2026-05-03T07:28:18.558Z</time></trkpt><trkpt lat="42.362365" lon="13.51052"><ele>932.0</ele><time>2026-05-03T07:28:19.558Z</time></trkpt><trkpt lat="42.3622783" lon="13.5105383"><ele>932.0</ele><time>2026-05-03T07:28:20.558Z</time></trkpt><trkpt lat="42.3621917" lon="13.5105717"><ele>932.0000000000001</ele><time>2026-05-03T07:28:21.557Z</time></trkpt><trkpt lat="42.362125" lon="13.510605"><ele>932.0</ele><time>2026-05-03T07:28:22.557Z</time></trkpt><trkpt lat="42.3620517" lon="13.5106217"><ele>930.6666666666667</ele><time>2026-05-03T07:28:23.558Z</time></trkpt><trkpt lat="42.3619667" lon="13.5106283"><ele>929.3333333333334</ele><time>2026-05-03T07:28:24.557Z</time></trkpt><trkpt lat="42.36188" lon="13.5106417"><ele>928.0</ele><time>2026-05-03T07:28:25.557Z</time></trkpt><trkpt lat="42.3617933" lon="13.5106667"><ele>926.6666666666667</ele><time>2026-05-03T07:28:26.558Z</time></trkpt><trkpt lat="42.36171" lon="13.5106917"><ele>925.3333333333334</ele><time>2026-05-03T07:28:27.558Z</time></trkpt><trkpt lat="42.3616167" lon="13.5107017"><ele>924.0</ele><time>2026-05-03T07:28:28.558Z</time></trkpt><trkpt lat="42.3615133" lon="13.5107017"><ele>924.0</ele><time>2026-05-03T07:28:29.557Z</time></trkpt><trkpt lat="42.3614167" lon="13.5106967"><ele>924.0000000000001</ele><time>2026-05-03T07:28:30.558Z</time></trkpt><trkpt lat="42.361335" lon="13.51068"><ele>924.0000000000001</ele><time>2026-05-03T07:28:31.558Z</time></trkpt><trkpt lat="42.3612467" lon="13.5106533"><ele>924.0</ele><time>2026-05-03T07:28:32.557Z</time></trkpt><trkpt lat="42.3611567" lon="13.51061"><ele>924.0</ele><time>2026-05-03T07:28:33.558Z</time></trkpt><trkpt lat="42.361065" lon="13.5105733"><ele>923.1666666666666</ele><time>2026-05-03T07:28:34.557Z</time></trkpt><trkpt lat="42.3609733" lon="13.5105533"><ele>922.3333333333333</ele><time>2026-05-03T07:28:35.558Z</time></trkpt><trkpt lat="42.3608933" lon="13.510535"><ele>921.5</ele><time>2026-05-03T07:28:36.557Z</time></trkpt><trkpt lat="42.3608233" lon="13.5105017"><ele>920.6666666666666</ele><time>2026-05-03T07:28:37.558Z</time></trkpt><trkpt lat="42.36076" lon="13.5104617"><ele>919.8333333333333</ele><time>2026-05-03T07:28:38.557Z</time></trkpt><trkpt lat="42.360655" lon="13.51038"><ele>919.0</ele><time>2026-05-03T07:28:40.558Z</time></trkpt><trkpt lat="42.3606017" lon="13.5103217"><ele>918.8000000000001</ele><time>2026-05-03T07:28:41.557Z</time></trkpt><trkpt lat="42.36055" lon="13.5102667"><ele>918.6000000000001</ele><time>2026-05-03T07:28:42.558Z</time></trkpt><trkpt lat="42.3604567" lon="13.5102033"><ele>918.4</ele><time>2026-05-03T07:28:44.558Z</time></trkpt><trkpt lat="42.3603517" lon="13.51011"><ele>918.2</ele><time>2026-05-03T07:28:46.557Z</time></trkpt><trkpt lat="42.3602983" lon="13.5100433"><ele>918.0</ele><time>2026-05-03T07:28:47.558Z</time></trkpt><trkpt lat="42.3602367" lon="13.5099617"><ele>916.0</ele><time>2026-05-03T07:28:48.558Z</time></trkpt><trkpt lat="42.360165" lon="13.5098767"><ele>914.0</ele><time>2026-05-03T07:28:49.557Z</time></trkpt><trkpt lat="42.3600967" lon="13.5098"><ele>912.0</ele><time>2026-05-03T07:28:50.557Z</time></trkpt><trkpt lat="42.3600367" lon="13.5097383"><ele>910.0</ele><time>2026-05-03T07:28:51.558Z</time></trkpt><trkpt lat="42.359985" lon="13.5096767"><ele>908.0</ele><time>2026-05-03T07:28:52.557Z</time></trkpt><trkpt lat="42.35995" lon="13.50959"><ele>906.0</ele><time>2026-05-03T07:28:53.558Z</time></trkpt><trkpt lat="42.3599233" lon="13.509485"><ele>905.75</ele><time>2026-05-03T07:28:54.557Z</time></trkpt><trkpt lat="42.3598983" lon="13.50935"><ele>905.5</ele><time>2026-05-03T07:28:55.558Z</time></trkpt><trkpt lat="42.3598583" lon="13.5091983"><ele>905.25</ele><time>2026-05-03T07:28:56.557Z</time></trkpt><trkpt lat="42.3598167" lon="13.509045"><ele>905.0</ele><time>2026-05-03T07:28:57.558Z</time></trkpt><trkpt lat="42.35979" lon="13.5088783"><ele>905.25</ele><time>2026-05-03T07:28:58.558Z</time></trkpt><trkpt lat="42.3597617" lon="13.5087017"><ele>905.5</ele><time>2026-05-03T07:28:59.558Z</time></trkpt><trkpt lat="42.3597317" lon="13.5085383"><ele>905.75</ele><time>2026-05-03T07:29:00.557Z</time></trkpt><trkpt lat="42.3596967" lon="13.508365"><ele>906.0</ele><time>2026-05-03T07:29:01.558Z</time></trkpt><trkpt lat="42.3596733" lon="13.5081983"><ele>903.0</ele><time>2026-05-03T07:29:02.558Z</time></trkpt><trkpt lat="42.3596483" lon="13.5080333"><ele>900.0</ele><time>2026-05-03T07:29:03.558Z</time></trkpt><trkpt lat="42.359615" lon="13.5078733"><ele>897.0</ele><time>2026-05-03T07:29:04.557Z</time></trkpt><trkpt lat="42.3595883" lon="13.5077267"><ele>894.0</ele><time>2026-05-03T07:29:05.558Z</time></trkpt><trkpt lat="42.3595667" lon="13.507595"><ele>892.8333333333334</ele><time>2026-05-03T07:29:06.558Z</time></trkpt><trkpt lat="42.359565" lon="13.50748"><ele>891.6666666666667</ele><time>2026-05-03T07:29:07.558Z</time></trkpt><trkpt lat="42.35956" lon="13.50735"><ele>890.5</ele><time>2026-05-03T07:29:08.558Z</time></trkpt><trkpt lat="42.3595433" lon="13.5072367"><ele>889.3333333333334</ele><time>2026-05-03T07:29:09.558Z</time></trkpt><trkpt lat="42.359515" lon="13.50713"><ele>888.1666666666667</ele><time>2026-05-03T07:29:10.558Z</time></trkpt><trkpt lat="42.3594933" lon="13.5070333"><ele>887.0</ele><time>2026-05-03T07:29:11.558Z</time></trkpt><trkpt lat="42.3594933" lon="13.50694"><ele>886.0000000000001</ele><time>2026-05-03T07:29:12.558Z</time></trkpt><trkpt lat="42.3594933" lon="13.5068167"><ele>885.0</ele><time>2026-05-03T07:29:13.558Z</time></trkpt><trkpt lat="42.3594917" lon="13.5066833"><ele>884.0</ele><time>2026-05-03T07:29:14.557Z</time></trkpt><trkpt lat="42.35947" lon="13.5065617"><ele>883.0</ele><time>2026-05-03T07:29:15.558Z</time></trkpt><trkpt lat="42.3594383" lon="13.5064467"><ele>882.0000000000001</ele><time>2026-05-03T07:29:16.558Z</time></trkpt><trkpt lat="42.3594083" lon="13.5063633"><ele>881.0</ele><time>2026-05-03T07:29:17.558Z</time></trkpt><trkpt lat="42.3593417" lon="13.5062767"><ele>881.0</ele><time>2026-05-03T07:29:19.558Z</time></trkpt><trkpt lat="42.3592317" lon="13.5062933"><ele>881.0</ele><time>2026-05-03T07:29:21.558Z</time></trkpt><trkpt lat="42.3591333" lon="13.5063017"><ele>881.0</ele><time>2026-05-03T07:29:22.557Z</time></trkpt><trkpt lat="42.359025" lon="13.50626"><ele>881.0</ele><time>2026-05-03T07:29:23.558Z</time></trkpt><trkpt lat="42.3589033" lon="13.506155"><ele>884.3333333333334</ele><time>2026-05-03T07:29:24.558Z</time></trkpt><trkpt lat="42.358795" lon="13.505995"><ele>887.6666666666667</ele><time>2026-05-03T07:29:25.558Z</time></trkpt><trkpt lat="42.35869" lon="13.50582"><ele>891.0</ele><time>2026-05-03T07:29:26.558Z</time></trkpt><trkpt lat="42.3585917" lon="13.5056233"><ele>891.0</ele><time>2026-05-03T07:29:27.558Z</time></trkpt><trkpt lat="42.35847" lon="13.5054183"><ele>891.0</ele><time>2026-05-03T07:29:28.557Z</time></trkpt><trkpt lat="42.3583483" lon="13.5052133"><ele>891.0</ele><time>2026-05-03T07:29:29.557Z</time></trkpt><trkpt lat="42.358225" lon="13.5050417"><ele>893.6666666666667</ele><time>2026-05-03T07:29:30.558Z</time></trkpt><trkpt lat="42.3580917" lon="13.504905"><ele>896.3333333333334</ele><time>2026-05-03T07:29:31.558Z</time></trkpt><trkpt lat="42.3579533" lon="13.5047883"><ele>899.0</ele><time>2026-05-03T07:29:32.557Z</time></trkpt><trkpt lat="42.3578083" lon="13.504685"><ele>899.0</ele><time>2026-05-03T07:29:33.558Z</time></trkpt><trkpt lat="42.3576717" lon="13.5045983"><ele>899.0</ele><time>2026-05-03T07:29:34.557Z</time></trkpt><trkpt lat="42.357535" lon="13.5045317"><ele>899.0</ele><time>2026-05-03T07:29:35.558Z</time></trkpt><trkpt lat="42.3573883" lon="13.50449"><ele>899.0</ele><time>2026-05-03T07:29:36.558Z</time></trkpt><trkpt lat="42.3572483" lon="13.50448"><ele>898.75</ele><time>2026-05-03T07:29:37.557Z</time></trkpt><trkpt lat="42.3571083" lon="13.50449"><ele>898.5</ele><time>2026-05-03T07:29:38.558Z</time></trkpt><trkpt lat="42.3569717" lon="13.5045367"><ele>898.25</ele><time>2026-05-03T07:29:39.558Z</time></trkpt><trkpt lat="42.3568433" lon="13.5046"><ele>898.0</ele><time>2026-05-03T07:29:40.558Z</time></trkpt><trkpt lat="42.3567333" lon="13.5046933"><ele>898.0</ele><time>2026-05-03T07:29:41.558Z</time></trkpt><trkpt lat="42.3566417" lon="13.5048083"><ele>898.0</ele><time>2026-05-03T07:29:42.557Z</time></trkpt><trkpt lat="42.3565683" lon="13.50496"><ele>898.0</ele><time>2026-05-03T07:29:43.558Z</time></trkpt><trkpt lat="42.3565083" lon="13.505125"><ele>898.0</ele><time>2026-05-03T07:29:44.558Z</time></trkpt><trkpt lat="42.3564667" lon="13.5052683"><ele>898.0</ele><time>2026-05-03T07:29:45.558Z</time></trkpt><trkpt lat="42.35644" lon="13.50537"><ele>898.0</ele><time>2026-05-03T07:29:46.558Z</time></trkpt><trkpt lat="42.3564283" lon="13.50549"><ele>898.0</ele><time>2026-05-03T07:29:48.557Z</time></trkpt><trkpt lat="42.3564867" lon="13.505595"><ele>898.0</ele><time>2026-05-03T07:29:50.558Z</time></trkpt><trkpt lat="42.3565517" lon="13.5057117"><ele>898.0</ele><time>2026-05-03T07:29:52.558Z</time></trkpt><trkpt lat="42.356645" lon="13.50582"><ele>899.7142857142857</ele><time>2026-05-03T07:29:54.557Z</time></trkpt><trkpt lat="42.3566983" lon="13.5058667"><ele>901.4285714285713</ele><time>2026-05-03T07:29:55.557Z</time></trkpt><trkpt lat="42.3567667" lon="13.5059117"><ele>903.1428571428571</ele><time>2026-05-03T07:29:56.558Z</time></trkpt><trkpt lat="42.35683" lon="13.5059517"><ele>904.8571428571429</ele><time>2026-05-03T07:29:57.558Z</time></trkpt><trkpt lat="42.3568917" lon="13.5060167"><ele>906.5714285714286</ele><time>2026-05-03T07:29:58.557Z</time></trkpt><trkpt lat="42.3569383" lon="13.5060867"><ele>908.2857142857142</ele><time>2026-05-03T07:29:59.558Z</time></trkpt><trkpt lat="42.3569767" lon="13.5061683"><ele>910.0</ele><time>2026-05-03T07:30:00.558Z</time></trkpt><trkpt lat="42.3570033" lon="13.5062717"><ele>911.6666666666666</ele><time>2026-05-03T07:30:01.558Z</time></trkpt><trkpt lat="42.3570133" lon="13.5063917"><ele>913.3333333333333</ele><time>2026-05-03T07:30:02.558Z</time></trkpt><trkpt lat="42.3570083" lon="13.5065033"><ele>915.0</ele><time>2026-05-03T07:30:03.558Z</time></trkpt><trkpt lat="42.357" lon="13.5066"><ele>916.6666666666667</ele><time>2026-05-03T07:30:04.558Z</time></trkpt><trkpt lat="42.3570117" lon="13.5067083"><ele>918.3333333333334</ele><time>2026-05-03T07:30:06.558Z</time></trkpt><trkpt lat="42.3571133" lon="13.50676"><ele>920.0</ele><time>2026-05-03T07:30:08.558Z</time></trkpt><trkpt lat="42.35724" lon="13.5067067"><ele>921.0</ele><time>2026-05-03T07:30:10.557Z</time></trkpt><trkpt lat="42.3573133" lon="13.5066533"><ele>922.0</ele><time>2026-05-03T07:30:11.558Z</time></trkpt><trkpt lat="42.357375" lon="13.5066183"><ele>923.0</ele><time>2026-05-03T07:30:12.558Z</time></trkpt><trkpt lat="42.35745" lon="13.50666"><ele>924.0</ele><time>2026-05-03T07:30:14.558Z</time></trkpt><trkpt lat="42.357495" lon="13.506815"><ele>925.0</ele><time>2026-05-03T07:30:16.558Z</time></trkpt><trkpt lat="42.3575183" lon="13.50694"><ele>926.0</ele><time>2026-05-03T07:30:17.558Z</time></trkpt><trkpt lat="42.35753" lon="13.50708"><ele>927.0</ele><time>2026-05-03T07:30:18.557Z</time></trkpt><trkpt lat="42.3575433" lon="13.50723"><ele>928.0</ele><time>2026-05-03T07:30:19.557Z</time></trkpt><trkpt lat="42.35755" lon="13.507375"><ele>929.0</ele><time>2026-05-03T07:30:20.558Z</time></trkpt><trkpt lat="42.3575433" lon="13.507525"><ele>930.0</ele><time>2026-05-03T07:30:21.557Z</time></trkpt><trkpt lat="42.3575267" lon="13.5076733"><ele>930.0</ele><time>2026-05-03T07:30:22.558Z</time></trkpt><trkpt lat="42.3575217" lon="13.507825"><ele>930.0</ele><time>2026-05-03T07:30:23.558Z</time></trkpt><trkpt lat="42.3575317" lon="13.50798"><ele>930.0</ele><time>2026-05-03T07:30:24.558Z</time></trkpt><trkpt lat="42.357545" lon="13.50813"><ele>930.0</ele><time>2026-05-03T07:30:25.558Z</time></trkpt><trkpt lat="42.3575533" lon="13.5082633"><ele>930.0</ele><time>2026-05-03T07:30:26.558Z</time></trkpt><trkpt lat="42.3575483" lon="13.5083833"><ele>931.3333333333334</ele><time>2026-05-03T07:30:27.558Z</time></trkpt><trkpt lat="42.3575333" lon="13.5085017"><ele>932.6666666666667</ele><time>2026-05-03T07:30:28.558Z</time></trkpt><trkpt lat="42.3575183" lon="13.508615"><ele>934.0</ele><time>2026-05-03T07:30:29.558Z</time></trkpt><trkpt lat="42.35751" lon="13.5087217"><ele>935.3333333333334</ele><time>2026-05-03T07:30:30.558Z</time></trkpt><trkpt lat="42.3574933" lon="13.5088317"><ele>936.6666666666667</ele><time>2026-05-03T07:30:31.558Z</time></trkpt><trkpt lat="42.3574917" lon="13.5089617"><ele>938.0</ele><time>2026-05-03T07:30:33.558Z</time></trkpt><trkpt lat="42.3575667" lon="13.5090733"><ele>941.75</ele><time>2026-05-03T07:30:35.557Z</time></trkpt><trkpt lat="42.35763" lon="13.5091583"><ele>945.5</ele><time>2026-05-03T07:30:36.558Z</time></trkpt><trkpt lat="42.3577033" lon="13.50926"><ele>949.25</ele><time>2026-05-03T07:30:37.558Z</time></trkpt><trkpt lat="42.3577833" lon="13.5094017"><ele>953.0</ele><time>2026-05-03T07:30:38.557Z</time></trkpt><trkpt lat="42.3578483" lon="13.5095717"><ele>955.75</ele><time>2026-05-03T07:30:39.558Z</time></trkpt><trkpt lat="42.357905" lon="13.5097683"><ele>958.5</ele><time>2026-05-03T07:30:40.558Z</time></trkpt><trkpt lat="42.3579517" lon="13.5099667"><ele>961.25</ele><time>2026-05-03T07:30:41.558Z</time></trkpt><trkpt lat="42.3579767" lon="13.5101367"><ele>964.0</ele><time>2026-05-03T07:30:42.558Z</time></trkpt><trkpt lat="42.3579733" lon="13.5102833"><ele>963.9999999999999</ele><time>2026-05-03T07:30:43.558Z</time></trkpt><trkpt lat="42.357955" lon="13.5104017"><ele>964.0</ele><time>2026-05-03T07:30:44.557Z</time></trkpt><trkpt lat="42.3579167" lon="13.5104867"><ele>964.0</ele><time>2026-05-03T07:30:45.558Z</time></trkpt><trkpt lat="42.3578" lon="13.5105733"><ele>964.0</ele><time>2026-05-03T07:30:47.557Z</time></trkpt><trkpt lat="42.35772" lon="13.5105867"><ele>963.9999999999999</ele><time>2026-05-03T07:30:48.558Z</time></trkpt><trkpt lat="42.35765" lon="13.51059"><ele>964.0</ele><time>2026-05-03T07:30:49.557Z</time></trkpt><trkpt lat="42.3575717" lon="13.510615"><ele>964.5</ele><time>2026-05-03T07:30:51.558Z</time></trkpt><trkpt lat="42.3575817" lon="13.5107417"><ele>965.0</ele><time>2026-05-03T07:30:53.558Z</time></trkpt><trkpt lat="42.3576367" lon="13.510855"><ele>965.5</ele><time>2026-05-03T07:30:54.558Z</time></trkpt><trkpt lat="42.35771" lon="13.5110167"><ele>966.0</ele><time>2026-05-03T07:30:55.557Z</time></trkpt><trkpt lat="42.3577917" lon="13.5112067"><ele>966.0</ele><time>2026-05-03T07:30:56.558Z</time></trkpt><trkpt lat="42.3578633" lon="13.511415"><ele>966.0</ele><time>2026-05-03T07:30:57.557Z</time></trkpt><trkpt lat="42.357945" lon="13.5116283"><ele>966.0</ele><time>2026-05-03T07:30:58.558Z</time></trkpt><trkpt lat="42.35803" lon="13.511855"><ele>967.0</ele><time>2026-05-03T07:30:59.557Z</time></trkpt><trkpt lat="42.3581167" lon="13.5120917"><ele>968.0</ele><time>2026-05-03T07:31:00.558Z</time></trkpt><trkpt lat="42.3581883" lon="13.512325"><ele>969.0</ele><time>2026-05-03T07:31:01.558Z</time></trkpt><trkpt lat="42.3582617" lon="13.5125517"><ele>969.0</ele><time>2026-05-03T07:31:02.558Z</time></trkpt><trkpt lat="42.358345" lon="13.5127533"><ele>969.0</ele><time>2026-05-03T07:31:03.557Z</time></trkpt><trkpt lat="42.358415" lon="13.5129233"><ele>969.0</ele><time>2026-05-03T07:31:04.557Z</time></trkpt><trkpt lat="42.3584817" lon="13.5130733"><ele>969.0</ele><time>2026-05-03T07:31:05.557Z</time></trkpt><trkpt lat="42.3585367" lon="13.5132217"><ele>969.4000000000001</ele><time>2026-05-03T07:31:06.558Z</time></trkpt><trkpt lat="42.3585883" lon="13.5133567"><ele>969.8000000000001</ele><time>2026-05-03T07:31:07.557Z</time></trkpt><trkpt lat="42.3586267" lon="13.5134667"><ele>970.1999999999999</ele><time>2026-05-03T07:31:08.557Z</time></trkpt><trkpt lat="42.3586633" lon="13.51356"><ele>970.5999999999999</ele><time>2026-05-03T07:31:09.558Z</time></trkpt><trkpt lat="42.3586817" lon="13.5136417"><ele>971.0</ele><time>2026-05-03T07:31:10.557Z</time></trkpt><trkpt lat="42.3586733" lon="13.51379"><ele>971.1999999999999</ele><time>2026-05-03T07:31:12.557Z</time></trkpt><trkpt lat="42.358695" lon="13.5139567"><ele>971.3999999999999</ele><time>2026-05-03T07:31:14.557Z</time></trkpt><trkpt lat="42.3587383" lon="13.5140683"><ele>971.6</ele><time>2026-05-03T07:31:15.557Z</time></trkpt><trkpt lat="42.35879" lon="13.514185"><ele>971.8</ele><time>2026-05-03T07:31:16.558Z</time></trkpt><trkpt lat="42.3588417" lon="13.5142833"><ele>972.0</ele><time>2026-05-03T07:31:17.558Z</time></trkpt><trkpt lat="42.358895" lon="13.5143783"><ele>974.0</ele><time>2026-05-03T07:31:18.557Z</time></trkpt><trkpt lat="42.358945" lon="13.5144883"><ele>976.0</ele><time>2026-05-03T07:31:19.558Z</time></trkpt><trkpt lat="42.3589967" lon="13.5146167"><ele>978.0</ele><time>2026-05-03T07:31:20.558Z</time></trkpt><trkpt lat="42.3590533" lon="13.51475"><ele>980.0</ele><time>2026-05-03T07:31:21.558Z</time></trkpt><trkpt lat="42.3591033" lon="13.5148867"><ele>982.0</ele><time>2026-05-03T07:31:22.558Z</time></trkpt><trkpt lat="42.3591517" lon="13.5150267"><ele>982.4999999999999</ele><time>2026-05-03T07:31:23.557Z</time></trkpt><trkpt lat="42.35919" lon="13.5151583"><ele>983.0</ele><time>2026-05-03T07:31:24.557Z</time></trkpt><trkpt lat="42.3592117" lon="13.51528"><ele>983.5</ele><time>2026-05-03T07:31:25.558Z</time></trkpt><trkpt lat="42.359225" lon="13.5153883"><ele>984.0</ele><time>2026-05-03T07:31:26.557Z</time></trkpt><trkpt lat="42.3592167" lon="13.51549"><ele>984.4999999999999</ele><time>2026-05-03T07:31:27.558Z</time></trkpt><trkpt lat="42.3591967" lon="13.5155983"><ele>985.0</ele><time>2026-05-03T07:31:28.558Z</time></trkpt><trkpt lat="42.3591583" lon="13.5157183"><ele>986.0</ele><time>2026-05-03T07:31:29.558Z</time></trkpt><trkpt lat="42.3591183" lon="13.51586"><ele>987.0</ele><time>2026-05-03T07:31:30.558Z</time></trkpt><trkpt lat="42.3590783" lon="13.5160083"><ele>988.0</ele><time>2026-05-03T07:31:31.558Z</time></trkpt><trkpt lat="42.3590583" lon="13.516135"><ele>989.0</ele><time>2026-05-03T07:31:32.558Z</time></trkpt><trkpt lat="42.359055" lon="13.51627"><ele>990.0</ele><time>2026-05-03T07:31:33.557Z</time></trkpt><trkpt lat="42.35905" lon="13.516435"><ele>992.25</ele><time>2026-05-03T07:31:34.558Z</time></trkpt><trkpt lat="42.35903" lon="13.5166067"><ele>994.5</ele><time>2026-05-03T07:31:35.557Z</time></trkpt><trkpt lat="42.3589883" lon="13.5167617"><ele>996.75</ele><time>2026-05-03T07:31:36.557Z</time></trkpt><trkpt lat="42.358925" lon="13.51693"><ele>999.0</ele><time>2026-05-03T07:31:37.557Z</time></trkpt><trkpt lat="42.3588533" lon="13.5170917"><ele>999.0</ele><time>2026-05-03T07:31:38.557Z</time></trkpt><trkpt lat="42.3587767" lon="13.5172517"><ele>999.0</ele><time>2026-05-03T07:31:39.556Z</time></trkpt><trkpt lat="42.3587117" lon="13.5174033"><ele>999.0</ele><time>2026-05-03T07:31:40.557Z</time></trkpt><trkpt lat="42.3586533" lon="13.5175217"><ele>999.0</ele><time>2026-05-03T07:31:41.557Z</time></trkpt><trkpt lat="42.3586117" lon="13.5176167"><ele>999.0</ele><time>2026-05-03T07:31:42.557Z</time></trkpt><trkpt lat="42.3586033" lon="13.517715"><ele>999.0000000000001</ele><time>2026-05-03T07:31:44.556Z</time></trkpt><trkpt lat="42.3587033" lon="13.51765"><ele>999.0000000000001</ele><time>2026-05-03T07:31:47.557Z</time></trkpt><trkpt lat="42.3587633" lon="13.5175583"><ele>999.0</ele><time>2026-05-03T07:31:48.557Z</time></trkpt><trkpt lat="42.3588417" lon="13.5174517"><ele>999.0</ele><time>2026-05-03T07:31:49.557Z</time></trkpt><trkpt lat="42.3589283" lon="13.5173433"><ele>1000.2</ele><time>2026-05-03T07:31:50.556Z</time></trkpt><trkpt lat="42.3590167" lon="13.5172333"><ele>1001.4000000000001</ele><time>2026-05-03T07:31:51.557Z</time></trkpt><trkpt lat="42.35909" lon="13.5171333"><ele>1002.6</ele><time>2026-05-03T07:31:52.557Z</time></trkpt><trkpt lat="42.3591633" lon="13.5170417"><ele>1003.8</ele><time>2026-05-03T07:31:53.557Z</time></trkpt><trkpt lat="42.3592233" lon="13.51694"><ele>1005.0</ele><time>2026-05-03T07:31:54.557Z</time></trkpt><trkpt lat="42.3592917" lon="13.5168417"><ele>1005.0</ele><time>2026-05-03T07:31:55.556Z</time></trkpt><trkpt lat="42.3593667" lon="13.5167467"><ele>1005.0</ele><time>2026-05-03T07:31:56.557Z</time></trkpt><trkpt lat="42.3594483" lon="13.5166683"><ele>1005.0</ele><time>2026-05-03T07:31:57.557Z</time></trkpt><trkpt lat="42.3595333" lon="13.5166217"><ele>1005.0</ele><time>2026-05-03T07:31:58.557Z</time></trkpt><trkpt lat="42.3596183" lon="13.5165817"><ele>1005.0</ele><time>2026-05-03T07:31:59.557Z</time></trkpt><trkpt lat="42.3597133" lon="13.5165533"><ele>1008.4</ele><time>2026-05-03T07:32:00.556Z</time></trkpt><trkpt lat="42.3598133" lon="13.5165267"><ele>1011.8</ele><time>2026-05-03T07:32:01.556Z</time></trkpt><trkpt lat="42.3599167" lon="13.516505"><ele>1015.2</ele><time>2026-05-03T07:32:02.556Z</time></trkpt><trkpt lat="42.3600233" lon="13.51648"><ele>1018.6</ele><time>2026-05-03T07:32:03.557Z</time></trkpt><trkpt lat="42.36013" lon="13.5164633"><ele>1022.0</ele><time>2026-05-03T07:32:04.556Z</time></trkpt><trkpt lat="42.36024" lon="13.5164433"><ele>1022.0</ele><time>2026-05-03T07:32:05.556Z</time></trkpt><trkpt lat="42.3603633" lon="13.516435"><ele>1022.0</ele><time>2026-05-03T07:32:06.557Z</time></trkpt><trkpt lat="42.3604933" lon="13.5164467"><ele>1022.0</ele><time>2026-05-03T07:32:07.556Z</time></trkpt><trkpt lat="42.36061" lon="13.5164717"><ele>1022.0</ele><time>2026-05-03T07:32:08.557Z</time></trkpt><trkpt lat="42.36072" lon="13.516515"><ele>1024.25</ele><time>2026-05-03T07:32:09.557Z</time></trkpt><trkpt lat="42.3608333" lon="13.5165517"><ele>1026.5</ele><time>2026-05-03T07:32:10.557Z</time></trkpt><trkpt lat="42.3609483" lon="13.5165783"><ele>1028.75</ele><time>2026-05-03T07:32:11.557Z</time></trkpt><trkpt lat="42.3610667" lon="13.516595"><ele>1031.0</ele><time>2026-05-03T07:32:12.557Z</time></trkpt><trkpt lat="42.3611883" lon="13.5166067"><ele>1031.0</ele><time>2026-05-03T07:32:13.557Z</time></trkpt><trkpt lat="42.361305" lon="13.5165983"><ele>1031.0</ele><time>2026-05-03T07:32:14.557Z</time></trkpt><trkpt lat="42.3614267" lon="13.5165883"><ele>1031.0</ele><time>2026-05-03T07:32:15.557Z</time></trkpt><trkpt lat="42.361555" lon="13.51658"><ele>1031.0</ele><time>2026-05-03T07:32:16.557Z</time></trkpt><trkpt lat="42.361675" lon="13.516575"><ele>1032.2</ele><time>2026-05-03T07:32:17.556Z</time></trkpt><trkpt lat="42.361785" lon="13.51657"><ele>1033.3999999999999</ele><time>2026-05-03T07:32:18.556Z</time></trkpt><trkpt lat="42.3618983" lon="13.5165883"><ele>1034.6</ele><time>2026-05-03T07:32:19.556Z</time></trkpt><trkpt lat="42.3620117" lon="13.5165833"><ele>1035.8</ele><time>2026-05-03T07:32:20.557Z</time></trkpt><trkpt lat="42.3621083" lon="13.5165683"><ele>1037.0</ele><time>2026-05-03T07:32:21.556Z</time></trkpt><trkpt lat="42.3622" lon="13.5165683"><ele>1038.0</ele><time>2026-05-03T07:32:22.557Z</time></trkpt><trkpt lat="42.3623" lon="13.51657"><ele>1039.0</ele><time>2026-05-03T07:32:23.557Z</time></trkpt><trkpt lat="42.362395" lon="13.516585"><ele>1040.0</ele><time>2026-05-03T07:32:24.557Z</time></trkpt><trkpt lat="42.3624917" lon="13.5165967"><ele>1041.0</ele><time>2026-05-03T07:32:25.557Z</time></trkpt><trkpt lat="42.3625983" lon="13.51662"><ele>1042.0</ele><time>2026-05-03T07:32:26.556Z</time></trkpt><trkpt lat="42.3627017" lon="13.5166383"><ele>1042.0</ele><time>2026-05-03T07:32:27.557Z</time></trkpt><trkpt lat="42.362805" lon="13.5166617"><ele>1042.0</ele><time>2026-05-03T07:32:28.557Z</time></trkpt><trkpt lat="42.3629017" lon="13.5166917"><ele>1042.0</ele><time>2026-05-03T07:32:29.556Z</time></trkpt><trkpt lat="42.3629874" lon="13.5167326"><ele>1042.0</ele><time>2026-05-03T07:32:30.557Z</time></trkpt><trkpt lat="42.3630709" lon="13.5167801"><ele>1042.0</ele><time>2026-05-03T07:32:31.557Z</time></trkpt><trkpt lat="42.3631585" lon="13.5168352"><ele>1042.0</ele><time>2026-05-03T07:32:32.557Z</time></trkpt><trkpt lat="42.3632477" lon="13.5169033"><ele>1042.0</ele><time>2026-05-03T07:32:33.557Z</time></trkpt><trkpt lat="42.3633468" lon="13.5169818"><ele>1042.0</ele><time>2026-05-03T07:32:34.557Z</time></trkpt><trkpt lat="42.3634562" lon="13.5170624"><ele>1042.0</ele><time>2026-05-03T07:32:35.557Z</time></trkpt><trkpt lat="42.3635779" lon="13.5171361"><ele>1044.8</ele><time>2026-05-03T07:32:36.557Z</time></trkpt><trkpt lat="42.3636998" lon="13.5172052"><ele>1047.6</ele><time>2026-05-03T07:32:37.557Z</time></trkpt><trkpt lat="42.3638125" lon="13.5172646"><ele>1050.3999999999999</ele><time>2026-05-03T07:32:38.557Z</time></trkpt><trkpt lat="42.3639097" lon="13.5172927"><ele>1053.2</ele><time>2026-05-03T07:32:39.557Z</time></trkpt><trkpt lat="42.3639999" lon="13.5173048"><ele>1056.0</ele><time>2026-05-03T07:32:40.556Z</time></trkpt><trkpt lat="42.3640977" lon="13.5173126"><ele>1056.0</ele><time>2026-05-03T07:32:41.557Z</time></trkpt><trkpt lat="42.3642065" lon="13.517328"><ele>1056.0</ele><time>2026-05-03T07:32:42.557Z</time></trkpt><trkpt lat="42.3643244" lon="13.5173514"><ele>1056.0</ele><time>2026-05-03T07:32:43.557Z</time></trkpt><trkpt lat="42.3644428" lon="13.517378"><ele>1056.0</ele><time>2026-05-03T07:32:44.557Z</time></trkpt><trkpt lat="42.364556" lon="13.5174024"><ele>1056.0</ele><time>2026-05-03T07:32:45.557Z</time></trkpt><trkpt lat="42.3646681" lon="13.5174432"><ele>1056.0</ele><time>2026-05-03T07:32:46.557Z</time></trkpt><trkpt lat="42.3647828" lon="13.5174856"><ele>1056.0</ele><time>2026-05-03T07:32:47.556Z</time></trkpt><trkpt lat="42.3649021" lon="13.517543"><ele>1056.0</ele><time>2026-05-03T07:32:48.557Z</time></trkpt><trkpt lat="42.365027" lon="13.5176002"><ele>1057.0</ele><time>2026-05-03T07:32:49.557Z</time></trkpt><trkpt lat="42.3651336" lon="13.5176469"><ele>1058.0</ele><time>2026-05-03T07:32:50.556Z</time></trkpt><trkpt lat="42.3652325" lon="13.5176994"><ele>1059.0</ele><time>2026-05-03T07:32:51.557Z</time></trkpt><trkpt lat="42.3653358" lon="13.5177656"><ele>1060.0</ele><time>2026-05-03T07:32:52.557Z</time></trkpt><trkpt lat="42.3654397" lon="13.5178419"><ele>1061.8</ele><time>2026-05-03T07:32:53.557Z</time></trkpt><trkpt lat="42.3655545" lon="13.5179192"><ele>1063.6</ele><time>2026-05-03T07:32:54.557Z</time></trkpt><trkpt lat="42.3656644" lon="13.5179854"><ele>1065.4</ele><time>2026-05-03T07:32:55.556Z</time></trkpt><trkpt lat="42.3657448" lon="13.5180298"><ele>1067.2</ele><time>2026-05-03T07:32:56.557Z</time></trkpt><trkpt lat="42.3658051" lon="13.5180783"><ele>1069.0</ele><time>2026-05-03T07:32:57.557Z</time></trkpt><trkpt lat="42.3658325" lon="13.5181969"><ele>1069.0</ele><time>2026-05-03T07:32:59.556Z</time></trkpt><trkpt lat="42.3657527" lon="13.518282"><ele>1069.0</ele><time>2026-05-03T07:33:01.556Z</time></trkpt><trkpt lat="42.3656779" lon="13.518265"><ele>1069.0</ele><time>2026-05-03T07:33:02.556Z</time></trkpt><trkpt lat="42.3655727" lon="13.5182196"><ele>1069.0</ele><time>2026-05-03T07:33:03.557Z</time></trkpt><trkpt lat="42.3654457" lon="13.5181651"><ele>1069.0</ele><time>2026-05-03T07:33:04.557Z</time></trkpt><trkpt lat="42.3653186" lon="13.5181232"><ele>1071.0</ele><time>2026-05-03T07:33:05.557Z</time></trkpt><trkpt lat="42.3651896" lon="13.5181231"><ele>1073.0</ele><time>2026-05-03T07:33:06.556Z</time></trkpt><trkpt lat="42.3650591" lon="13.5181444"><ele>1075.0</ele><time>2026-05-03T07:33:07.557Z</time></trkpt><trkpt lat="42.3649201" lon="13.5181736"><ele>1077.0</ele><time>2026-05-03T07:33:08.557Z</time></trkpt><trkpt lat="42.3648024" lon="13.518196"><ele>1077.0</ele><time>2026-05-03T07:33:09.557Z</time></trkpt><trkpt lat="42.364712" lon="13.5182091"><ele>1077.0</ele><time>2026-05-03T07:33:10.557Z</time></trkpt><trkpt lat="42.3646292" lon="13.5182749"><ele>1077.0</ele><time>2026-05-03T07:33:12.557Z</time></trkpt><trkpt lat="42.3646282" lon="13.5183836"><ele>1077.0</ele><time>2026-05-03T07:33:14.557Z</time></trkpt><trkpt lat="42.3647592" lon="13.5184527"><ele>1077.0</ele><time>2026-05-03T07:33:16.557Z</time></trkpt><trkpt lat="42.3648755" lon="13.5184541"><ele>1077.0</ele><time>2026-05-03T07:33:17.557Z</time></trkpt><trkpt lat="42.3650016" lon="13.5184711"><ele>1077.0</ele><time>2026-05-03T07:33:18.557Z</time></trkpt><trkpt lat="42.3651247" lon="13.5185077"><ele>1077.0</ele><time>2026-05-03T07:33:19.557Z</time></trkpt><trkpt lat="42.3652405" lon="13.5185723"><ele>1077.0</ele><time>2026-05-03T07:33:20.556Z</time></trkpt><trkpt lat="42.365347" lon="13.518677"><ele>1079.0</ele><time>2026-05-03T07:33:21.556Z</time></trkpt><trkpt lat="42.365447" lon="13.518798"><ele>1081.0</ele><time>2026-05-03T07:33:22.556Z</time></trkpt><trkpt lat="42.3655435" lon="13.5189093"><ele>1083.0</ele><time>2026-05-03T07:33:23.557Z</time></trkpt><trkpt lat="42.3656391" lon="13.5190119"><ele>1085.0</ele><time>2026-05-03T07:33:24.557Z</time></trkpt><trkpt lat="42.3657188" lon="13.5191058"><ele>1085.0</ele><time>2026-05-03T07:33:25.556Z</time></trkpt><trkpt lat="42.3657798" lon="13.5191981"><ele>1085.0</ele><time>2026-05-03T07:33:26.557Z</time></trkpt><trkpt lat="42.3658175" lon="13.5192942"><ele>1085.0</ele><time>2026-05-03T07:33:27.557Z</time></trkpt><trkpt lat="42.3658378" lon="13.5194045"><ele>1085.0</ele><time>2026-05-03T07:33:28.557Z</time></trkpt><trkpt lat="42.365839" lon="13.5195371"><ele>1085.0</ele><time>2026-05-03T07:33:29.557Z</time></trkpt><trkpt lat="42.3658314" lon="13.519679"><ele>1087.75</ele><time>2026-05-03T07:33:30.556Z</time></trkpt><trkpt lat="42.3658248" lon="13.5198364"><ele>1090.5</ele><time>2026-05-03T07:33:31.557Z</time></trkpt><trkpt lat="42.3658142" lon="13.5200018"><ele>1093.25</ele><time>2026-05-03T07:33:32.557Z</time></trkpt><trkpt lat="42.3658055" lon="13.5201666"><ele>1096.0</ele><time>2026-05-03T07:33:33.556Z</time></trkpt><trkpt lat="42.3658044" lon="13.5203235"><ele>1096.75</ele><time>2026-05-03T07:33:34.557Z</time></trkpt><trkpt lat="42.3658165" lon="13.5204746"><ele>1097.5</ele><time>2026-05-03T07:33:35.556Z</time></trkpt><trkpt lat="42.3658412" lon="13.5206328"><ele>1098.25</ele><time>2026-05-03T07:33:36.556Z</time></trkpt><trkpt lat="42.3658684" lon="13.5207967"><ele>1099.0</ele><time>2026-05-03T07:33:37.557Z</time></trkpt><trkpt lat="42.365883" lon="13.5209545"><ele>1099.0</ele><time>2026-05-03T07:33:38.556Z</time></trkpt><trkpt lat="42.3658832" lon="13.5211095"><ele>1099.0</ele><time>2026-05-03T07:33:39.557Z</time></trkpt><trkpt lat="42.3658712" lon="13.5212697"><ele>1099.0</ele><time>2026-05-03T07:33:40.557Z</time></trkpt><trkpt lat="42.3658564" lon="13.5214483"><ele>1099.0</ele><time>2026-05-03T07:33:41.556Z</time></trkpt><trkpt lat="42.3658311" lon="13.5216143"><ele>1099.4</ele><time>2026-05-03T07:33:42.557Z</time></trkpt><trkpt lat="42.3658015" lon="13.5217587"><ele>1099.8000000000002</ele><time>2026-05-03T07:33:43.557Z</time></trkpt><trkpt lat="42.3657678" lon="13.5218936"><ele>1100.1999999999998</ele><time>2026-05-03T07:33:44.557Z</time></trkpt><trkpt lat="42.3657515" lon="13.5220151"><ele>1100.6</ele><time>2026-05-03T07:33:45.556Z</time></trkpt><trkpt lat="42.3657507" lon="13.5221368"><ele>1101.0</ele><time>2026-05-03T07:33:46.557Z</time></trkpt><trkpt lat="42.3657535" lon="13.522255"><ele>1102.3999999999999</ele><time>2026-05-03T07:33:47.557Z</time></trkpt><trkpt lat="42.3657446" lon="13.5223608"><ele>1103.8</ele><time>2026-05-03T07:33:48.557Z</time></trkpt><trkpt lat="42.3657124" lon="13.5224582"><ele>1105.1999999999998</ele><time>2026-05-03T07:33:49.557Z</time></trkpt><trkpt lat="42.3656614" lon="13.5225409"><ele>1106.6</ele><time>2026-05-03T07:33:50.557Z</time></trkpt><trkpt lat="42.365589" lon="13.5226337"><ele>1108.0</ele><time>2026-05-03T07:33:51.557Z</time></trkpt><trkpt lat="42.3655099" lon="13.522748"><ele>1108.25</ele><time>2026-05-03T07:33:52.557Z</time></trkpt><trkpt lat="42.3654363" lon="13.522872"><ele>1108.5</ele><time>2026-05-03T07:33:53.556Z</time></trkpt><trkpt lat="42.365358" lon="13.5230076"><ele>1108.75</ele><time>2026-05-03T07:33:54.557Z</time></trkpt><trkpt lat="42.3652733" lon="13.5231414"><ele>1109.0</ele><time>2026-05-03T07:33:55.557Z</time></trkpt><trkpt lat="42.3651832" lon="13.5232681"><ele>1110.25</ele><time>2026-05-03T07:33:56.556Z</time></trkpt><trkpt lat="42.3650918" lon="13.5233966"><ele>1111.5</ele><time>2026-05-03T07:33:57.557Z</time></trkpt><trkpt lat="42.3650014" lon="13.5235197"><ele>1112.75</ele><time>2026-05-03T07:33:58.556Z</time></trkpt><trkpt lat="42.3649109" lon="13.5236392"><ele>1114.0</ele><time>2026-05-03T07:33:59.556Z</time></trkpt><trkpt lat="42.3648219" lon="13.5237608"><ele>1116.0</ele><time>2026-05-03T07:34:00.556Z</time></trkpt><trkpt lat="42.3647442" lon="13.5238882"><ele>1118.0</ele><time>2026-05-03T07:34:01.556Z</time></trkpt><trkpt lat="42.3646755" lon="13.5240258"><ele>1120.0</ele><time>2026-05-03T07:34:02.557Z</time></trkpt><trkpt lat="42.3646179" lon="13.5241708"><ele>1122.0</ele><time>2026-05-03T07:34:03.557Z</time></trkpt><trkpt lat="42.3645732" lon="13.5243302"><ele>1122.0</ele><time>2026-05-03T07:34:04.556Z</time></trkpt><trkpt lat="42.3645369" lon="13.5245008"><ele>1122.0</ele><time>2026-05-03T07:34:05.557Z</time></trkpt><trkpt lat="42.3645054" lon="13.5246776"><ele>1122.0</ele><time>2026-05-03T07:34:06.557Z</time></trkpt><trkpt lat="42.3644865" lon="13.5248523"><ele>1122.0</ele><time>2026-05-03T07:34:07.557Z</time></trkpt><trkpt lat="42.3644818" lon="13.5250023"><ele>1122.25</ele><time>2026-05-03T07:34:08.557Z</time></trkpt><trkpt lat="42.3645032" lon="13.5251511"><ele>1122.5</ele><time>2026-05-03T07:34:09.557Z</time></trkpt><trkpt lat="42.3645369" lon="13.5253253"><ele>1122.75</ele><time>2026-05-03T07:34:10.556Z</time></trkpt><trkpt lat="42.3645695" lon="13.5255297"><ele>1123.0</ele><time>2026-05-03T07:34:11.557Z</time></trkpt><trkpt lat="42.3645895" lon="13.5257444"><ele>1123.25</ele><time>2026-05-03T07:34:12.556Z</time></trkpt><trkpt lat="42.3645915" lon="13.5259612"><ele>1123.5</ele><time>2026-05-03T07:34:13.557Z</time></trkpt><trkpt lat="42.3645846" lon="13.5261614"><ele>1123.75</ele><time>2026-05-03T07:34:14.557Z</time></trkpt><trkpt lat="42.36456" lon="13.5263414"><ele>1124.0</ele><time>2026-05-03T07:34:15.556Z</time></trkpt><trkpt lat="42.3645376" lon="13.5265126"><ele>1124.5</ele><time>2026-05-03T07:34:16.556Z</time></trkpt><trkpt lat="42.3645264" lon="13.5266745"><ele>1125.0</ele><time>2026-05-03T07:34:17.557Z</time></trkpt><trkpt lat="42.3645284" lon="13.5268292"><ele>1125.5</ele><time>2026-05-03T07:34:18.556Z</time></trkpt><trkpt lat="42.3645414" lon="13.5269876"><ele>1126.0</ele><time>2026-05-03T07:34:19.557Z</time></trkpt><trkpt lat="42.3645605" lon="13.5271587"><ele>1127.5</ele><time>2026-05-03T07:34:20.556Z</time></trkpt><trkpt lat="42.3645816" lon="13.5273311"><ele>1129.0</ele><time>2026-05-03T07:34:21.557Z</time></trkpt><trkpt lat="42.3646066" lon="13.5274972"><ele>1130.5</ele><time>2026-05-03T07:34:22.557Z</time></trkpt><trkpt lat="42.3646215" lon="13.5276528"><ele>1132.0</ele><time>2026-05-03T07:34:23.557Z</time></trkpt><trkpt lat="42.3646223" lon="13.5278219"><ele>1133.5</ele><time>2026-05-03T07:34:24.557Z</time></trkpt><trkpt lat="42.3646067" lon="13.5279996"><ele>1135.0</ele><time>2026-05-03T07:34:25.557Z</time></trkpt><trkpt lat="42.3645837" lon="13.5281842"><ele>1136.5</ele><time>2026-05-03T07:34:26.557Z</time></trkpt><trkpt lat="42.364556" lon="13.5283821"><ele>1138.0</ele><time>2026-05-03T07:34:27.557Z</time></trkpt><trkpt lat="42.3645338" lon="13.5285711"><ele>1140.5</ele><time>2026-05-03T07:34:28.557Z</time></trkpt><trkpt lat="42.3645243" lon="13.5287429"><ele>1143.0</ele><time>2026-05-03T07:34:29.557Z</time></trkpt><trkpt lat="42.3645274" lon="13.5289086"><ele>1145.5</ele><time>2026-05-03T07:34:30.556Z</time></trkpt><trkpt lat="42.364539" lon="13.5290724"><ele>1148.0</ele><time>2026-05-03T07:34:31.557Z</time></trkpt><trkpt lat="42.3645485" lon="13.5292136"><ele>1148.0</ele><time>2026-05-03T07:34:32.557Z</time></trkpt><trkpt lat="42.3645611" lon="13.5293246"><ele>1148.0</ele><time>2026-05-03T07:34:33.556Z</time></trkpt><trkpt lat="42.3645827" lon="13.5294054"><ele>1148.0</ele><time>2026-05-03T07:34:34.557Z</time></trkpt><trkpt lat="42.3646772" lon="13.52946"><ele>1148.0</ele><time>2026-05-03T07:34:36.557Z</time></trkpt><trkpt lat="42.364738" lon="13.5294146"><ele>1148.0</ele><time>2026-05-03T07:34:37.556Z</time></trkpt><trkpt lat="42.3647962" lon="13.5293253"><ele>1148.0</ele><time>2026-05-03T07:34:38.557Z</time></trkpt><trkpt lat="42.3648459" lon="13.5291981"><ele>1150.0</ele><time>2026-05-03T07:34:39.557Z</time></trkpt><trkpt lat="42.3649145" lon="13.5290516"><ele>1152.0</ele><time>2026-05-03T07:34:40.556Z</time></trkpt><trkpt lat="42.3650002" lon="13.5289358"><ele>1154.0</ele><time>2026-05-03T07:34:41.557Z</time></trkpt><trkpt lat="42.365102" lon="13.5288411"><ele>1156.0</ele><time>2026-05-03T07:34:42.557Z</time></trkpt><trkpt lat="42.3652185" lon="13.5287511"><ele>1156.0</ele><time>2026-05-03T07:34:43.557Z</time></trkpt><trkpt lat="42.365331" lon="13.5286789"><ele>1156.0</ele><time>2026-05-03T07:34:44.557Z</time></trkpt><trkpt lat="42.3654165" lon="13.5286239"><ele>1156.0</ele><time>2026-05-03T07:34:45.557Z</time></trkpt><trkpt lat="42.3655184" lon="13.5286049"><ele>1156.0</ele><time>2026-05-03T07:34:47.557Z</time></trkpt><trkpt lat="42.3655484" lon="13.5287216"><ele>1156.0</ele><time>2026-05-03T07:34:49.556Z</time></trkpt><trkpt lat="42.3654864" lon="13.5288273"><ele>1156.0</ele><time>2026-05-03T07:34:51.557Z</time></trkpt><trkpt lat="42.3654187" lon="13.5288679"><ele>1156.0</ele><time>2026-05-03T07:34:52.557Z</time></trkpt><trkpt lat="42.365337" lon="13.5289235"><ele>1156.0</ele><time>2026-05-03T07:34:53.557Z</time></trkpt><trkpt lat="42.3652498" lon="13.5290082"><ele>1156.0</ele><time>2026-05-03T07:34:54.557Z</time></trkpt><trkpt lat="42.3651734" lon="13.529119"><ele>1156.0</ele><time>2026-05-03T07:34:55.556Z</time></trkpt><trkpt lat="42.3651183" lon="13.5292517"><ele>1156.0</ele><time>2026-05-03T07:34:56.557Z</time></trkpt><trkpt lat="42.365085" lon="13.529385"><ele>1156.0</ele><time>2026-05-03T07:34:57.557Z</time></trkpt><trkpt lat="42.365075" lon="13.5295283"><ele>1156.0</ele><time>2026-05-03T07:34:58.557Z</time></trkpt><trkpt lat="42.3650783" lon="13.529655"><ele>1156.0</ele><time>2026-05-03T07:34:59.557Z</time></trkpt><trkpt lat="42.3651117" lon="13.5297683"><ele>1156.0</ele><time>2026-05-03T07:35:00.557Z</time></trkpt><trkpt lat="42.3651717" lon="13.52987"><ele>1157.25</ele><time>2026-05-03T07:35:01.557Z</time></trkpt><trkpt lat="42.3652517" lon="13.5299783"><ele>1158.5</ele><time>2026-05-03T07:35:02.556Z</time></trkpt><trkpt lat="42.36535" lon="13.5300917"><ele>1159.75</ele><time>2026-05-03T07:35:03.557Z</time></trkpt><trkpt lat="42.3654533" lon="13.5302083"><ele>1161.0</ele><time>2026-05-03T07:35:04.557Z</time></trkpt><trkpt lat="42.3655267" lon="13.5303283"><ele>1164.0</ele><time>2026-05-03T07:35:05.557Z</time></trkpt><trkpt lat="42.3655783" lon="13.5304567"><ele>1167.0</ele><time>2026-05-03T07:35:06.557Z</time></trkpt><trkpt lat="42.3656133" lon="13.5306"><ele>1170.0</ele><time>2026-05-03T07:35:07.557Z</time></trkpt><trkpt lat="42.365635" lon="13.5307533"><ele>1173.0</ele><time>2026-05-03T07:35:08.557Z</time></trkpt><trkpt lat="42.36565" lon="13.5309133"><ele>1173.0</ele><time>2026-05-03T07:35:09.557Z</time></trkpt><trkpt lat="42.3656783" lon="13.531075"><ele>1173.0</ele><time>2026-05-03T07:35:10.557Z</time></trkpt><trkpt lat="42.3657283" lon="13.53123"><ele>1173.0</ele><time>2026-05-03T07:35:11.556Z</time></trkpt><trkpt lat="42.3657983" lon="13.5313817"><ele>1173.0</ele><time>2026-05-03T07:35:12.557Z</time></trkpt><trkpt lat="42.36587" lon="13.5315433"><ele>1174.25</ele><time>2026-05-03T07:35:13.557Z</time></trkpt><trkpt lat="42.365935" lon="13.5317133"><ele>1175.5</ele><time>2026-05-03T07:35:14.557Z</time></trkpt><trkpt lat="42.3659767" lon="13.5318733"><ele>1176.75</ele><time>2026-05-03T07:35:15.556Z</time></trkpt><trkpt lat="42.3660017" lon="13.53201"><ele>1178.0</ele><time>2026-05-03T07:35:16.557Z</time></trkpt><trkpt lat="42.3660083" lon="13.5321483"><ele>1178.2</ele><time>2026-05-03T07:35:17.556Z</time></trkpt><trkpt lat="42.3660033" lon="13.5322883"><ele>1178.4</ele><time>2026-05-03T07:35:18.556Z</time></trkpt><trkpt lat="42.3659783" lon="13.5324117"><ele>1178.6000000000001</ele><time>2026-05-03T07:35:19.557Z</time></trkpt><trkpt lat="42.3659383" lon="13.5325283"><ele>1178.8</ele><time>2026-05-03T07:35:20.556Z</time></trkpt><trkpt lat="42.3658667" lon="13.5326517"><ele>1179.0</ele><time>2026-05-03T07:35:21.556Z</time></trkpt><trkpt lat="42.36578" lon="13.5327767"><ele>1179.0</ele><time>2026-05-03T07:35:22.556Z</time></trkpt><trkpt lat="42.3656817" lon="13.532885"><ele>1179.0</ele><time>2026-05-03T07:35:23.557Z</time></trkpt><trkpt lat="42.36557" lon="13.532975"><ele>1179.0</ele><time>2026-05-03T07:35:24.556Z</time></trkpt><trkpt lat="42.3654433" lon="13.5330617"><ele>1179.0</ele><time>2026-05-03T07:35:25.557Z</time></trkpt><trkpt lat="42.3653433" lon="13.5331467"><ele>1185.0</ele><time>2026-05-03T07:35:26.557Z</time></trkpt><trkpt lat="42.3652667" lon="13.5332483"><ele>1191.0</ele><time>2026-05-03T07:35:27.556Z</time></trkpt><trkpt lat="42.3651917" lon="13.5333833"><ele>1197.0</ele><time>2026-05-03T07:35:28.557Z</time></trkpt><trkpt lat="42.3651217" lon="13.5335383"><ele>1203.0</ele><time>2026-05-03T07:35:29.557Z</time></trkpt><trkpt lat="42.365075" lon="13.5336883"><ele>1204.25</ele><time>2026-05-03T07:35:30.557Z</time></trkpt><trkpt lat="42.3650467" lon="13.5338483"><ele>1205.5</ele><time>2026-05-03T07:35:31.557Z</time></trkpt><trkpt lat="42.36503" lon="13.5340317"><ele>1206.75</ele><time>2026-05-03T07:35:32.557Z</time></trkpt><trkpt lat="42.3650083" lon="13.53423"><ele>1208.0</ele><time>2026-05-03T07:35:33.557Z</time></trkpt><trkpt lat="42.3649833" lon="13.5344433"><ele>1209.6666666666667</ele><time>2026-05-03T07:35:34.556Z</time></trkpt><trkpt lat="42.364975" lon="13.534665"><ele>1211.3333333333333</ele><time>2026-05-03T07:35:35.557Z</time></trkpt><trkpt lat="42.3649717" lon="13.534885"><ele>1213.0</ele><time>2026-05-03T07:35:36.557Z</time></trkpt><trkpt lat="42.3649533" lon="13.5350767"><ele>1213.0</ele><time>2026-05-03T07:35:37.556Z</time></trkpt><trkpt lat="42.364935" lon="13.5352467"><ele>1213.0</ele><time>2026-05-03T07:35:38.557Z</time></trkpt><trkpt lat="42.3649133" lon="13.53541"><ele>1213.0</ele><time>2026-05-03T07:35:39.556Z</time></trkpt><trkpt lat="42.3648867" lon="13.5355833"><ele>1213.0</ele><time>2026-05-03T07:35:40.557Z</time></trkpt><trkpt lat="42.3648467" lon="13.5357717"><ele>1213.3333333333333</ele><time>2026-05-03T07:35:41.557Z</time></trkpt><trkpt lat="42.3647983" lon="13.535975"><ele>1213.6666666666667</ele><time>2026-05-03T07:35:42.557Z</time></trkpt><trkpt lat="42.3647483" lon="13.5361733"><ele>1214.0</ele><time>2026-05-03T07:35:43.557Z</time></trkpt><trkpt lat="42.3647083" lon="13.5363667"><ele>1214.5</ele><time>2026-05-03T07:35:44.556Z</time></trkpt><trkpt lat="42.3646767" lon="13.5365533"><ele>1215.0</ele><time>2026-05-03T07:35:45.557Z</time></trkpt><trkpt lat="42.364645" lon="13.53673"><ele>1215.5</ele><time>2026-05-03T07:35:46.557Z</time></trkpt><trkpt lat="42.3645933" lon="13.5368917"><ele>1216.0</ele><time>2026-05-03T07:35:47.557Z</time></trkpt><trkpt lat="42.3645283" lon="13.5370517"><ele>1216.75</ele><time>2026-05-03T07:35:48.557Z</time></trkpt><trkpt lat="42.3644517" lon="13.537205"><ele>1217.5</ele><time>2026-05-03T07:35:49.556Z</time></trkpt><trkpt lat="42.36437" lon="13.5373683"><ele>1218.25</ele><time>2026-05-03T07:35:50.557Z</time></trkpt><trkpt lat="42.364275" lon="13.5375417"><ele>1219.0</ele><time>2026-05-03T07:35:51.557Z</time></trkpt><trkpt lat="42.3641733" lon="13.53774"><ele>1220.25</ele><time>2026-05-03T07:35:52.557Z</time></trkpt><trkpt lat="42.3640867" lon="13.5379283"><ele>1221.5</ele><time>2026-05-03T07:35:53.556Z</time></trkpt><trkpt lat="42.3640033" lon="13.538085"><ele>1222.75</ele><time>2026-05-03T07:35:54.556Z</time></trkpt><trkpt lat="42.3639133" lon="13.5382033"><ele>1224.0</ele><time>2026-05-03T07:35:55.557Z</time></trkpt><trkpt lat="42.3638167" lon="13.5383183"><ele>1224.0</ele><time>2026-05-03T07:35:56.557Z</time></trkpt><trkpt lat="42.3637033" lon="13.5384533"><ele>1224.0</ele><time>2026-05-03T07:35:57.556Z</time></trkpt><trkpt lat="42.3635767" lon="13.5386133"><ele>1224.0</ele><time>2026-05-03T07:35:58.557Z</time></trkpt><trkpt lat="42.3634383" lon="13.5387933"><ele>1225.3333333333333</ele><time>2026-05-03T07:35:59.557Z</time></trkpt><trkpt lat="42.36329" lon="13.5389833"><ele>1226.6666666666665</ele><time>2026-05-03T07:36:00.556Z</time></trkpt><trkpt lat="42.3631483" lon="13.5391883"><ele>1228.0</ele><time>2026-05-03T07:36:01.557Z</time></trkpt><trkpt lat="42.3630133" lon="13.5393717"><ele>1227.3333333333333</ele><time>2026-05-03T07:36:02.556Z</time></trkpt><trkpt lat="42.3628867" lon="13.5395567"><ele>1226.6666666666667</ele><time>2026-05-03T07:36:03.557Z</time></trkpt><trkpt lat="42.3627574" lon="13.5397349"><ele>1226.0</ele><time>2026-05-03T07:36:04.557Z</time></trkpt><trkpt lat="42.3626425" lon="13.5399018"><ele>1226.0</ele><time>2026-05-03T07:36:05.557Z</time></trkpt><trkpt lat="42.3625484" lon="13.5400706"><ele>1226.0</ele><time>2026-05-03T07:36:06.557Z</time></trkpt><trkpt lat="42.3624683" lon="13.540259"><ele>1226.0</ele><time>2026-05-03T07:36:07.557Z</time></trkpt><trkpt lat="42.362398" lon="13.5404724"><ele>1227.3333333333335</ele><time>2026-05-03T07:36:08.557Z</time></trkpt><trkpt lat="42.3623322" lon="13.5407094"><ele>1228.6666666666667</ele><time>2026-05-03T07:36:09.556Z</time></trkpt><trkpt lat="42.3622703" lon="13.5409501"><ele>1230.0</ele><time>2026-05-03T07:36:10.556Z</time></trkpt><trkpt lat="42.3622072" lon="13.5411968"><ele>1230.0</ele><time>2026-05-03T07:36:11.557Z</time></trkpt><trkpt lat="42.3621398" lon="13.54145"><ele>1230.0</ele><time>2026-05-03T07:36:12.557Z</time></trkpt><trkpt lat="42.3620683" lon="13.5417196"><ele>1230.0</ele><time>2026-05-03T07:36:13.557Z</time></trkpt><trkpt lat="42.361998" lon="13.5419827"><ele>1230.0</ele><time>2026-05-03T07:36:14.557Z</time></trkpt><trkpt lat="42.3619316" lon="13.5422209"><ele>1230.0</ele><time>2026-05-03T07:36:15.557Z</time></trkpt><trkpt lat="42.3618716" lon="13.5424308"><ele>1230.0</ele><time>2026-05-03T07:36:16.557Z</time></trkpt><trkpt lat="42.3618175" lon="13.5426067"><ele>1230.0</ele><time>2026-05-03T07:36:17.557Z</time></trkpt><trkpt lat="42.3617796" lon="13.5427876"><ele>1230.0</ele><time>2026-05-03T07:36:18.556Z</time></trkpt><trkpt lat="42.361764" lon="13.5429918"><ele>1230.0</ele><time>2026-05-03T07:36:19.557Z</time></trkpt><trkpt lat="42.3617689" lon="13.5432083"><ele>1230.0</ele><time>2026-05-03T07:36:20.557Z</time></trkpt><trkpt lat="42.3617593" lon="13.5434142"><ele>1230.0</ele><time>2026-05-03T07:36:21.557Z</time></trkpt><trkpt lat="42.3617366" lon="13.5436142"><ele>1230.0</ele><time>2026-05-03T07:36:22.556Z</time></trkpt><trkpt lat="42.3616997" lon="13.5438139"><ele>1231.0</ele><time>2026-05-03T07:36:23.557Z</time></trkpt><trkpt lat="42.3616495" lon="13.5440184"><ele>1232.0</ele><time>2026-05-03T07:36:24.556Z</time></trkpt><trkpt lat="42.3616024" lon="13.5442372"><ele>1233.0</ele><time>2026-05-03T07:36:25.557Z</time></trkpt><trkpt lat="42.3615654" lon="13.5444459"><ele>1233.75</ele><time>2026-05-03T07:36:26.557Z</time></trkpt><trkpt lat="42.3615398" lon="13.5446281"><ele>1234.5</ele><time>2026-05-03T07:36:27.556Z</time></trkpt><trkpt lat="42.3615292" lon="13.5447884"><ele>1235.25</ele><time>2026-05-03T07:36:28.557Z</time></trkpt><trkpt lat="42.3615285" lon="13.5449417"><ele>1236.0</ele><time>2026-05-03T07:36:29.556Z</time></trkpt><trkpt lat="42.3615377" lon="13.5451065"><ele>1236.0</ele><time>2026-05-03T07:36:30.556Z</time></trkpt><trkpt lat="42.3615385" lon="13.545281"><ele>1236.0</ele><time>2026-05-03T07:36:31.557Z</time></trkpt><trkpt lat="42.3615337" lon="13.5454701"><ele>1236.0</ele><time>2026-05-03T07:36:32.557Z</time></trkpt><trkpt lat="42.361515" lon="13.5456508"><ele>1236.0</ele><time>2026-05-03T07:36:33.556Z</time></trkpt><trkpt lat="42.361498" lon="13.5458086"><ele>1235.8</ele><time>2026-05-03T07:36:34.557Z</time></trkpt><trkpt lat="42.3614989" lon="13.5459435"><ele>1235.6</ele><time>2026-05-03T07:36:35.556Z</time></trkpt><trkpt lat="42.361523" lon="13.5460638"><ele>1235.4</ele><time>2026-05-03T07:36:36.556Z</time></trkpt><trkpt lat="42.3615517" lon="13.5461767"><ele>1235.2</ele><time>2026-05-03T07:36:37.556Z</time></trkpt><trkpt lat="42.3615667" lon="13.5462883"><ele>1235.0</ele><time>2026-05-03T07:36:38.556Z</time></trkpt><trkpt lat="42.3615617" lon="13.5464183"><ele>1234.8</ele><time>2026-05-03T07:36:39.557Z</time></trkpt><trkpt lat="42.3615317" lon="13.5465633"><ele>1234.6</ele><time>2026-05-03T07:36:40.556Z</time></trkpt><trkpt lat="42.361485" lon="13.5466917"><ele>1234.4</ele><time>2026-05-03T07:36:41.557Z</time></trkpt><trkpt lat="42.36142" lon="13.5468033"><ele>1234.2</ele><time>2026-05-03T07:36:42.556Z</time></trkpt><trkpt lat="42.3613533" lon="13.54691"><ele>1234.0</ele><time>2026-05-03T07:36:43.557Z</time></trkpt><trkpt lat="42.3612933" lon="13.5470383"><ele>1231.75</ele><time>2026-05-03T07:36:44.557Z</time></trkpt><trkpt lat="42.3612367" lon="13.5472033"><ele>1229.5</ele><time>2026-05-03T07:36:45.556Z</time></trkpt><trkpt lat="42.36117" lon="13.5473833"><ele>1227.25</ele><time>2026-05-03T07:36:46.557Z</time></trkpt><trkpt lat="42.3611033" lon="13.5475517"><ele>1225.0</ele><time>2026-05-03T07:36:47.556Z</time></trkpt><trkpt lat="42.3610417" lon="13.5477067"><ele>1225.0</ele><time>2026-05-03T07:36:48.556Z</time></trkpt><trkpt lat="42.3609817" lon="13.5478367"><ele>1225.0</ele><time>2026-05-03T07:36:49.557Z</time></trkpt><trkpt lat="42.360915" lon="13.54795"><ele>1225.0</ele><time>2026-05-03T07:36:50.557Z</time></trkpt><trkpt lat="42.3608317" lon="13.54805"><ele>1225.0</ele><time>2026-05-03T07:36:51.556Z</time></trkpt><trkpt lat="42.3607617" lon="13.54816"><ele>1225.0</ele><time>2026-05-03T07:36:52.557Z</time></trkpt><trkpt lat="42.3607" lon="13.548305"><ele>1225.0</ele><time>2026-05-03T07:36:53.557Z</time></trkpt><trkpt lat="42.3606467" lon="13.5484667"><ele>1225.0</ele><time>2026-05-03T07:36:54.557Z</time></trkpt><trkpt lat="42.3606033" lon="13.548645"><ele>1225.0</ele><time>2026-05-03T07:36:55.557Z</time></trkpt><trkpt lat="42.360565" lon="13.5488417"><ele>1225.0</ele><time>2026-05-03T07:36:56.557Z</time></trkpt><trkpt lat="42.36054" lon="13.5490283"><ele>1223.6</ele><time>2026-05-03T07:36:57.557Z</time></trkpt><trkpt lat="42.360515" lon="13.5491883"><ele>1222.2</ele><time>2026-05-03T07:36:58.556Z</time></trkpt><trkpt lat="42.360495" lon="13.5493233"><ele>1220.8</ele><time>2026-05-03T07:36:59.557Z</time></trkpt><trkpt lat="42.360465" lon="13.5494367"><ele>1219.4</ele><time>2026-05-03T07:37:00.557Z</time></trkpt><trkpt lat="42.360425" lon="13.5495617"><ele>1218.0</ele><time>2026-05-03T07:37:01.557Z</time></trkpt><trkpt lat="42.3603983" lon="13.549715"><ele>1217.0</ele><time>2026-05-03T07:37:02.557Z</time></trkpt><trkpt lat="42.3603733" lon="13.5498917"><ele>1216.0</ele><time>2026-05-03T07:37:03.557Z</time></trkpt><trkpt lat="42.360345" lon="13.550095"><ele>1215.0</ele><time>2026-05-03T07:37:04.557Z</time></trkpt><trkpt lat="42.3603117" lon="13.5503167"><ele>1214.3333333333333</ele><time>2026-05-03T07:37:05.557Z</time></trkpt><trkpt lat="42.360275" lon="13.550555"><ele>1213.6666666666665</ele><time>2026-05-03T07:37:06.557Z</time></trkpt><trkpt lat="42.3602267" lon="13.5507967"><ele>1213.0</ele><time>2026-05-03T07:37:07.556Z</time></trkpt><trkpt lat="42.36017" lon="13.5510233"><ele>1212.75</ele><time>2026-05-03T07:37:08.556Z</time></trkpt><trkpt lat="42.3601233" lon="13.5512233"><ele>1212.5</ele><time>2026-05-03T07:37:09.556Z</time></trkpt><trkpt lat="42.360085" lon="13.55141"><ele>1212.25</ele><time>2026-05-03T07:37:10.557Z</time></trkpt><trkpt lat="42.3600583" lon="13.551585"><ele>1212.0</ele><time>2026-05-03T07:37:11.557Z</time></trkpt><trkpt lat="42.3600133" lon="13.5517517"><ele>1212.0</ele><time>2026-05-03T07:37:12.557Z</time></trkpt><trkpt lat="42.359965" lon="13.551895"><ele>1212.0</ele><time>2026-05-03T07:37:13.557Z</time></trkpt><trkpt lat="42.359925" lon="13.55202"><ele>1212.0</ele><time>2026-05-03T07:37:14.557Z</time></trkpt><trkpt lat="42.359885" lon="13.5521417"><ele>1212.0</ele><time>2026-05-03T07:37:15.557Z</time></trkpt><trkpt lat="42.3598417" lon="13.552255"><ele>1212.0</ele><time>2026-05-03T07:37:16.557Z</time></trkpt><trkpt lat="42.3597933" lon="13.5523583"><ele>1211.857142857143</ele><time>2026-05-03T07:37:17.557Z</time></trkpt><trkpt lat="42.35975" lon="13.552445"><ele>1211.7142857142858</ele><time>2026-05-03T07:37:18.556Z</time></trkpt><trkpt lat="42.3597017" lon="13.552535"><ele>1211.5714285714284</ele><time>2026-05-03T07:37:19.557Z</time></trkpt><trkpt lat="42.3596583" lon="13.5526167"><ele>1211.4285714285716</ele><time>2026-05-03T07:37:20.557Z</time></trkpt><trkpt lat="42.3596117" lon="13.5527017"><ele>1211.2857142857142</ele><time>2026-05-03T07:37:21.557Z</time></trkpt><trkpt lat="42.3595717" lon="13.5527767"><ele>1211.142857142857</ele><time>2026-05-03T07:37:22.556Z</time></trkpt><trkpt lat="42.3595367" lon="13.5528517"><ele>1211.0</ele><time>2026-05-03T07:37:23.556Z</time></trkpt><trkpt lat="42.3594983" lon="13.5529317"><ele>1211.0</ele><time>2026-05-03T07:37:24.557Z</time></trkpt><trkpt lat="42.35945" lon="13.5530333"><ele>1211.0</ele><time>2026-05-03T07:37:25.557Z</time></trkpt><trkpt lat="42.35939" lon="13.553165"><ele>1211.0</ele><time>2026-05-03T07:37:26.556Z</time></trkpt><trkpt lat="42.35932" lon="13.5533333"><ele>1211.0</ele><time>2026-05-03T07:37:27.557Z</time></trkpt><trkpt lat="42.359265" lon="13.55354"><ele>1211.3333333333335</ele><time>2026-05-03T07:37:28.557Z</time></trkpt><trkpt lat="42.359215" lon="13.5537467"><ele>1211.6666666666667</ele><time>2026-05-03T07:37:29.557Z</time></trkpt><trkpt lat="42.359145" lon="13.5539383"><ele>1212.0</ele><time>2026-05-03T07:37:30.557Z</time></trkpt><trkpt lat="42.3590633" lon="13.554145"><ele>1212.0</ele><time>2026-05-03T07:37:31.556Z</time></trkpt><trkpt lat="42.3589783" lon="13.5543333"><ele>1212.0</ele><time>2026-05-03T07:37:32.557Z</time></trkpt><trkpt lat="42.3589" lon="13.5545233"><ele>1212.0</ele><time>2026-05-03T07:37:33.557Z</time></trkpt><trkpt lat="42.3588167" lon="13.5547033"><ele>1215.3333333333333</ele><time>2026-05-03T07:37:34.556Z</time></trkpt><trkpt lat="42.35875" lon="13.55488"><ele>1218.6666666666665</ele><time>2026-05-03T07:37:35.557Z</time></trkpt><trkpt lat="42.3586883" lon="13.5550683"><ele>1222.0</ele><time>2026-05-03T07:37:36.557Z</time></trkpt><trkpt lat="42.3586317" lon="13.5552633"><ele>1220.75</ele><time>2026-05-03T07:37:37.556Z</time></trkpt><trkpt lat="42.3585717" lon="13.5554517"><ele>1219.5</ele><time>2026-05-03T07:37:38.557Z</time></trkpt><trkpt lat="42.3585217" lon="13.5556267"><ele>1218.25</ele><time>2026-05-03T07:37:39.557Z</time></trkpt><trkpt lat="42.3584767" lon="13.555785"><ele>1217.0</ele><time>2026-05-03T07:37:40.557Z</time></trkpt><trkpt lat="42.3584417" lon="13.5559367"><ele>1217.0</ele><time>2026-05-03T07:37:41.556Z</time></trkpt><trkpt lat="42.3584267" lon="13.5561"><ele>1217.0</ele><time>2026-05-03T07:37:42.557Z</time></trkpt><trkpt lat="42.3584333" lon="13.5562883"><ele>1217.0</ele><time>2026-05-03T07:37:43.557Z</time></trkpt><trkpt lat="42.3584467" lon="13.5564717"><ele>1217.0</ele><time>2026-05-03T07:37:44.557Z</time></trkpt><trkpt lat="42.3584683" lon="13.5566433"><ele>1215.8</ele><time>2026-05-03T07:37:45.557Z</time></trkpt><trkpt lat="42.358485" lon="13.5567967"><ele>1214.6</ele><time>2026-05-03T07:37:46.557Z</time></trkpt><trkpt lat="42.3585033" lon="13.55693"><ele>1213.3999999999999</ele><time>2026-05-03T07:37:47.557Z</time></trkpt><trkpt lat="42.3585383" lon="13.5570583"><ele>1212.2</ele><time>2026-05-03T07:37:48.556Z</time></trkpt><trkpt lat="42.3585967" lon="13.5571917"><ele>1211.0</ele><time>2026-05-03T07:37:49.556Z</time></trkpt><trkpt lat="42.358665" lon="13.557345"><ele>1211.0</ele><time>2026-05-03T07:37:50.557Z</time></trkpt><trkpt lat="42.3587333" lon="13.5574983"><ele>1211.0</ele><time>2026-05-03T07:37:51.557Z</time></trkpt><trkpt lat="42.3587767" lon="13.557645"><ele>1211.0</ele><time>2026-05-03T07:37:52.557Z</time></trkpt><trkpt lat="42.358795" lon="13.5578017"><ele>1211.0</ele><time>2026-05-03T07:37:53.557Z</time></trkpt><trkpt lat="42.3587967" lon="13.5579767"><ele>1210.75</ele><time>2026-05-03T07:37:54.557Z</time></trkpt><trkpt lat="42.3588" lon="13.5581633"><ele>1210.5</ele><time>2026-05-03T07:37:55.557Z</time></trkpt><trkpt lat="42.3588183" lon="13.5583483"><ele>1210.25</ele><time>2026-05-03T07:37:56.557Z</time></trkpt><trkpt lat="42.3588617" lon="13.5585467"><ele>1210.0</ele><time>2026-05-03T07:37:57.557Z</time></trkpt><trkpt lat="42.3589083" lon="13.5587483"><ele>1208.0</ele><time>2026-05-03T07:37:58.556Z</time></trkpt><trkpt lat="42.35895" lon="13.5589483"><ele>1206.0</ele><time>2026-05-03T07:37:59.557Z</time></trkpt><trkpt lat="42.3589883" lon="13.559125"><ele>1204.0</ele><time>2026-05-03T07:38:00.557Z</time></trkpt><trkpt lat="42.35901" lon="13.5592817"><ele>1202.0</ele><time>2026-05-03T07:38:01.557Z</time></trkpt><trkpt lat="42.3590117" lon="13.5594283"><ele>1202.0</ele><time>2026-05-03T07:38:02.556Z</time></trkpt><trkpt lat="42.3589967" lon="13.5595867"><ele>1202.0</ele><time>2026-05-03T07:38:03.557Z</time></trkpt><trkpt lat="42.3589667" lon="13.559765"><ele>1202.0</ele><time>2026-05-03T07:38:04.557Z</time></trkpt><trkpt lat="42.35894" lon="13.5599733"><ele>1202.0</ele><time>2026-05-03T07:38:05.557Z</time></trkpt><trkpt lat="42.35892" lon="13.5601967"><ele>1201.6666666666667</ele><time>2026-05-03T07:38:06.556Z</time></trkpt><trkpt lat="42.3589083" lon="13.560435"><ele>1201.3333333333333</ele><time>2026-05-03T07:38:07.556Z</time></trkpt><trkpt lat="42.3589017" lon="13.5606733"><ele>1201.0</ele><time>2026-05-03T07:38:08.556Z</time></trkpt><trkpt lat="42.3589" lon="13.5609217"><ele>1201.0</ele><time>2026-05-03T07:38:09.557Z</time></trkpt><trkpt lat="42.358895" lon="13.56117"><ele>1201.0</ele><time>2026-05-03T07:38:10.556Z</time></trkpt><trkpt lat="42.358895" lon="13.561415"><ele>1201.0</ele><time>2026-05-03T07:38:11.556Z</time></trkpt><trkpt lat="42.3588867" lon="13.5616667"><ele>1200.3333333333333</ele><time>2026-05-03T07:38:12.557Z</time></trkpt><trkpt lat="42.3588783" lon="13.56189"><ele>1199.6666666666667</ele><time>2026-05-03T07:38:13.557Z</time></trkpt><trkpt lat="42.3588783" lon="13.56211"><ele>1199.0</ele><time>2026-05-03T07:38:14.556Z</time></trkpt><trkpt lat="42.3588667" lon="13.5623367"><ele>1198.6666666666667</ele><time>2026-05-03T07:38:15.557Z</time></trkpt><trkpt lat="42.3588683" lon="13.5625783"><ele>1198.3333333333333</ele><time>2026-05-03T07:38:16.556Z</time></trkpt><trkpt lat="42.35888" lon="13.5628233"><ele>1198.0</ele><time>2026-05-03T07:38:17.557Z</time></trkpt><trkpt lat="42.3589017" lon="13.5630667"><ele>1196.0</ele><time>2026-05-03T07:38:18.556Z</time></trkpt><trkpt lat="42.3589317" lon="13.5632833"><ele>1194.0</ele><time>2026-05-03T07:38:19.557Z</time></trkpt><trkpt lat="42.3589633" lon="13.5634717"><ele>1192.0</ele><time>2026-05-03T07:38:20.557Z</time></trkpt><trkpt lat="42.3589833" lon="13.5636317"><ele>1190.0</ele><time>2026-05-03T07:38:21.556Z</time></trkpt><trkpt lat="42.3589867" lon="13.5637717"><ele>1189.2</ele><time>2026-05-03T07:38:22.557Z</time></trkpt><trkpt lat="42.3589767" lon="13.5639167"><ele>1188.4</ele><time>2026-05-03T07:38:23.557Z</time></trkpt><trkpt lat="42.3589683" lon="13.5640783"><ele>1187.6</ele><time>2026-05-03T07:38:24.557Z</time></trkpt><trkpt lat="42.358975" lon="13.5642217"><ele>1186.8</ele><time>2026-05-03T07:38:25.557Z</time></trkpt><trkpt lat="42.3589933" lon="13.56435"><ele>1186.0</ele><time>2026-05-03T07:38:26.556Z</time></trkpt><trkpt lat="42.359005" lon="13.5644583"><ele>1186.9999999999998</ele><time>2026-05-03T07:38:27.556Z</time></trkpt><trkpt lat="42.3590067" lon="13.5645483"><ele>1188.0</ele><time>2026-05-03T07:38:28.557Z</time></trkpt><trkpt lat="42.3589883" lon="13.564685"><ele>1189.0</ele><time>2026-05-03T07:38:30.557Z</time></trkpt><trkpt lat="42.3589617" lon="13.5647683"><ele>1190.0</ele><time>2026-05-03T07:38:32.556Z</time></trkpt><trkpt lat="42.3589367" lon="13.5648483"><ele>1191.0</ele><time>2026-05-03T07:39:44.557Z</time></trkpt><trkpt lat="42.3589033" lon="13.56493"><ele>1191.9999999999998</ele><time>2026-05-03T07:42:22.556Z</time></trkpt><trkpt lat="42.35889" lon="13.5650133"><ele>1193.0</ele><time>2026-05-03T07:42:23.557Z</time></trkpt><trkpt lat="42.3588717" lon="13.5651183"><ele>1193.5</ele><time>2026-05-03T07:42:24.557Z</time></trkpt><trkpt lat="42.3588533" lon="13.5652467"><ele>1194.0</ele><time>2026-05-03T07:42:25.557Z</time></trkpt><trkpt lat="42.3588367" lon="13.5653867"><ele>1194.5</ele><time>2026-05-03T07:42:26.556Z</time></trkpt><trkpt lat="42.3588233" lon="13.565545"><ele>1195.0</ele><time>2026-05-03T07:42:27.557Z</time></trkpt><trkpt lat="42.3588133" lon="13.565725"><ele>1194.0</ele><time>2026-05-03T07:42:28.556Z</time></trkpt><trkpt lat="42.3588067" lon="13.5659033"><ele>1193.0</ele><time>2026-05-03T07:42:29.557Z</time></trkpt><trkpt lat="42.3588" lon="13.56608"><ele>1192.0</ele><time>2026-05-03T07:42:30.557Z</time></trkpt><trkpt lat="42.3588033" lon="13.5662733"><ele>1191.0</ele><time>2026-05-03T07:42:31.557Z</time></trkpt><trkpt lat="42.3588067" lon="13.566465"><ele>1191.0</ele><time>2026-05-03T07:42:32.557Z</time></trkpt><trkpt lat="42.35881" lon="13.5666367"><ele>1191.0</ele><time>2026-05-03T07:42:33.557Z</time></trkpt><trkpt lat="42.3588167" lon="13.5668183"><ele>1191.0</ele><time>2026-05-03T07:42:34.556Z</time></trkpt><trkpt lat="42.35882" lon="13.5670017"><ele>1191.0</ele><time>2026-05-03T07:42:35.557Z</time></trkpt><trkpt lat="42.3588167" lon="13.567205"><ele>1191.0</ele><time>2026-05-03T07:42:36.557Z</time></trkpt><trkpt lat="42.3588117" lon="13.5674217"><ele>1191.0</ele><time>2026-05-03T07:42:37.557Z</time></trkpt><trkpt lat="42.3587967" lon="13.5676467"><ele>1191.0</ele><time>2026-05-03T07:42:38.557Z</time></trkpt><trkpt lat="42.358775" lon="13.5678767"><ele>1191.0</ele><time>2026-05-03T07:42:39.556Z</time></trkpt><trkpt lat="42.358755" lon="13.568115"><ele>1191.0</ele><time>2026-05-03T07:42:40.556Z</time></trkpt><trkpt lat="42.3587383" lon="13.5683183"><ele>1191.0</ele><time>2026-05-03T07:42:41.556Z</time></trkpt><trkpt lat="42.3587083" lon="13.56851"><ele>1189.25</ele><time>2026-05-03T07:42:42.557Z</time></trkpt><trkpt lat="42.358675" lon="13.5687033"><ele>1187.5</ele><time>2026-05-03T07:42:43.557Z</time></trkpt><trkpt lat="42.3586383" lon="13.56889"><ele>1185.75</ele><time>2026-05-03T07:42:44.557Z</time></trkpt><trkpt lat="42.3585817" lon="13.5690633"><ele>1184.0</ele><time>2026-05-03T07:42:45.557Z</time></trkpt><trkpt lat="42.3585017" lon="13.5692317"><ele>1184.0</ele><time>2026-05-03T07:42:46.557Z</time></trkpt><trkpt lat="42.3584" lon="13.56941"><ele>1184.0</ele><time>2026-05-03T07:42:47.557Z</time></trkpt><trkpt lat="42.3582883" lon="13.569595"><ele>1184.0</ele><time>2026-05-03T07:42:48.557Z</time></trkpt><trkpt lat="42.3581683" lon="13.5697817"><ele>1187.0</ele><time>2026-05-03T07:42:49.557Z</time></trkpt><trkpt lat="42.3580667" lon="13.5699667"><ele>1190.0</ele><time>2026-05-03T07:42:50.556Z</time></trkpt><trkpt lat="42.3579617" lon="13.5701533"><ele>1193.0</ele><time>2026-05-03T07:42:51.557Z</time></trkpt><trkpt lat="42.3578583" lon="13.570335"><ele>1190.6666666666667</ele><time>2026-05-03T07:42:52.557Z</time></trkpt><trkpt lat="42.3577617" lon="13.5705417"><ele>1188.3333333333333</ele><time>2026-05-03T07:42:53.556Z</time></trkpt><trkpt lat="42.3576617" lon="13.5707533"><ele>1186.0</ele><time>2026-05-03T07:42:54.557Z</time></trkpt><trkpt lat="42.3575633" lon="13.5709683"><ele>1186.0</ele><time>2026-05-03T07:42:55.556Z</time></trkpt><trkpt lat="42.3574567" lon="13.57117"><ele>1186.0</ele><time>2026-05-03T07:42:56.557Z</time></trkpt><trkpt lat="42.3573483" lon="13.5713833"><ele>1186.0</ele><time>2026-05-03T07:42:57.557Z</time></trkpt><trkpt lat="42.3572383" lon="13.5715917"><ele>1186.0</ele><time>2026-05-03T07:42:58.557Z</time></trkpt><trkpt lat="42.3571217" lon="13.5717933"><ele>1186.0</ele><time>2026-05-03T07:42:59.556Z</time></trkpt><trkpt lat="42.3570067" lon="13.5719933"><ele>1186.0</ele><time>2026-05-03T07:43:00.557Z</time></trkpt><trkpt lat="42.3568917" lon="13.57218"><ele>1186.0</ele><time>2026-05-03T07:43:01.557Z</time></trkpt><trkpt lat="42.35678" lon="13.5723283"><ele>1186.0</ele><time>2026-05-03T07:43:02.557Z</time></trkpt><trkpt lat="42.3566733" lon="13.5724433"><ele>1186.0</ele><time>2026-05-03T07:43:03.557Z</time></trkpt><trkpt lat="42.3565717" lon="13.5724983"><ele>1186.0</ele><time>2026-05-03T07:43:04.556Z</time></trkpt><trkpt lat="42.3564683" lon="13.5725117"><ele>1185.0</ele><time>2026-05-03T07:43:05.557Z</time></trkpt><trkpt lat="42.3563583" lon="13.572495"><ele>1184.0</ele><time>2026-05-03T07:43:06.557Z</time></trkpt><trkpt lat="42.3562433" lon="13.57246"><ele>1183.0</ele><time>2026-05-03T07:43:07.557Z</time></trkpt><trkpt lat="42.356105" lon="13.572435"><ele>1182.0</ele><time>2026-05-03T07:43:08.556Z</time></trkpt><trkpt lat="42.3559633" lon="13.5724383"><ele>1182.0</ele><time>2026-05-03T07:43:09.557Z</time></trkpt><trkpt lat="42.355815" lon="13.5724817"><ele>1182.0</ele><time>2026-05-03T07:43:10.557Z</time></trkpt><trkpt lat="42.3556617" lon="13.57254"><ele>1182.0</ele><time>2026-05-03T07:43:11.557Z</time></trkpt><trkpt lat="42.355495" lon="13.5726233"><ele>1180.0</ele><time>2026-05-03T07:43:12.557Z</time></trkpt><trkpt lat="42.3553283" lon="13.5727167"><ele>1178.0</ele><time>2026-05-03T07:43:13.557Z</time></trkpt><trkpt lat="42.3551617" lon="13.5728133"><ele>1176.0</ele><time>2026-05-03T07:43:14.556Z</time></trkpt><trkpt lat="42.354995" lon="13.572905"><ele>1176.0</ele><time>2026-05-03T07:43:15.557Z</time></trkpt><trkpt lat="42.354835" lon="13.57298"><ele>1176.0</ele><time>2026-05-03T07:43:16.557Z</time></trkpt><trkpt lat="42.3546767" lon="13.5730583"><ele>1176.0</ele><time>2026-05-03T07:43:17.556Z</time></trkpt><trkpt lat="42.354535" lon="13.5731383"><ele>1175.75</ele><time>2026-05-03T07:43:18.557Z</time></trkpt><trkpt lat="42.3544017" lon="13.57321"><ele>1175.5</ele><time>2026-05-03T07:43:19.556Z</time></trkpt><trkpt lat="42.354265" lon="13.5732817"><ele>1175.25</ele><time>2026-05-03T07:43:20.557Z</time></trkpt><trkpt lat="42.354155" lon="13.5733383"><ele>1175.0</ele><time>2026-05-03T07:43:21.557Z</time></trkpt><trkpt lat="42.3540683" lon="13.5733967"><ele>1175.0</ele><time>2026-05-03T07:43:22.557Z</time></trkpt><trkpt lat="42.3539883" lon="13.5734667"><ele>1175.0</ele><time>2026-05-03T07:43:23.556Z</time></trkpt><trkpt lat="42.3539033" lon="13.5735317"><ele>1175.0</ele><time>2026-05-03T07:43:24.556Z</time></trkpt><trkpt lat="42.3538183" lon="13.5735967"><ele>1175.0</ele><time>2026-05-03T07:43:25.557Z</time></trkpt><trkpt lat="42.3537333" lon="13.57365"><ele>1175.0</ele><time>2026-05-03T07:43:26.556Z</time></trkpt><trkpt lat="42.3536583" lon="13.5736967"><ele>1173.4285714285713</ele><time>2026-05-03T07:43:27.557Z</time></trkpt><trkpt lat="42.35359" lon="13.57375"><ele>1171.857142857143</ele><time>2026-05-03T07:43:28.556Z</time></trkpt><trkpt lat="42.353525" lon="13.5737883"><ele>1170.2857142857142</ele><time>2026-05-03T07:43:29.556Z</time></trkpt><trkpt lat="42.3534617" lon="13.5738283"><ele>1168.7142857142858</ele><time>2026-05-03T07:43:30.556Z</time></trkpt><trkpt lat="42.3533983" lon="13.573865"><ele>1167.142857142857</ele><time>2026-05-03T07:43:31.557Z</time></trkpt><trkpt lat="42.353335" lon="13.5738983"><ele>1165.5714285714284</ele><time>2026-05-03T07:43:32.557Z</time></trkpt><trkpt lat="42.3532683" lon="13.5739333"><ele>1164.0</ele><time>2026-05-03T07:43:33.557Z</time></trkpt><trkpt lat="42.3531633" lon="13.5740017"><ele>1164.0</ele><time>2026-05-03T07:43:35.556Z</time></trkpt><trkpt lat="42.3530867" lon="13.574055"><ele>1164.0</ele><time>2026-05-03T07:43:37.557Z</time></trkpt><trkpt lat="42.3530167" lon="13.5741183"><ele>1164.0</ele><time>2026-05-03T07:43:39.556Z</time></trkpt><trkpt lat="42.352915" lon="13.5741917"><ele>1164.0</ele><time>2026-05-03T07:43:41.556Z</time></trkpt><trkpt lat="42.3528517" lon="13.5742317"><ele>1164.0</ele><time>2026-05-03T07:43:42.557Z</time></trkpt><trkpt lat="42.3527683" lon="13.574245"><ele>1164.0</ele><time>2026-05-03T07:43:43.557Z</time></trkpt><trkpt lat="42.3526733" lon="13.5742333"><ele>1162.5</ele><time>2026-05-03T07:43:44.557Z</time></trkpt><trkpt lat="42.35258" lon="13.5742133"><ele>1161.0</ele><time>2026-05-03T07:43:45.557Z</time></trkpt><trkpt lat="42.3524717" lon="13.5741617"><ele>1159.5</ele><time>2026-05-03T07:43:46.557Z</time></trkpt><trkpt lat="42.3523517" lon="13.574085"><ele>1158.0</ele><time>2026-05-03T07:43:47.557Z</time></trkpt><trkpt lat="42.352225" lon="13.574"><ele>1156.3333333333333</ele><time>2026-05-03T07:43:48.557Z</time></trkpt><trkpt lat="42.3520933" lon="13.5739"><ele>1154.6666666666665</ele><time>2026-05-03T07:43:49.557Z</time></trkpt><trkpt lat="42.3519533" lon="13.5737933"><ele>1153.0</ele><time>2026-05-03T07:43:50.557Z</time></trkpt><trkpt lat="42.3518067" lon="13.5736833"><ele>1153.0</ele><time>2026-05-03T07:43:51.556Z</time></trkpt><trkpt lat="42.3516583" lon="13.5735733"><ele>1153.0</ele><time>2026-05-03T07:43:52.556Z</time></trkpt><trkpt lat="42.3515117" lon="13.5734583"><ele>1153.0</ele><time>2026-05-03T07:43:53.556Z</time></trkpt><trkpt lat="42.3513767" lon="13.573335"><ele>1151.0</ele><time>2026-05-03T07:43:54.557Z</time></trkpt><trkpt lat="42.3512467" lon="13.5731933"><ele>1149.0</ele><time>2026-05-03T07:43:55.557Z</time></trkpt><trkpt lat="42.3511317" lon="13.5730267"><ele>1147.0</ele><time>2026-05-03T07:43:56.557Z</time></trkpt><trkpt lat="42.35103" lon="13.5728733"><ele>1147.5</ele><time>2026-05-03T07:43:57.557Z</time></trkpt><trkpt lat="42.3509367" lon="13.5727267"><ele>1148.0</ele><time>2026-05-03T07:43:58.556Z</time></trkpt><trkpt lat="42.3508433" lon="13.5726017"><ele>1148.5</ele><time>2026-05-03T07:43:59.557Z</time></trkpt><trkpt lat="42.3507367" lon="13.57249"><ele>1149.0</ele><time>2026-05-03T07:44:00.557Z</time></trkpt><trkpt lat="42.35061" lon="13.57239"><ele>1180.0</ele><time>2026-05-03T07:44:01.557Z</time></trkpt><trkpt lat="42.3538183" lon="13.5735967"><ele>1180.0</ele><time>2026-05-03T07:43:25.557Z</time></trkpt><trkpt lat="42.3537333" lon="13.57365"><ele>1180.0</ele><time>2026-05-03T07:43:26.556Z</time></trkpt><trkpt lat="42.3536583" lon="13.5736967"><ele>1180.0</ele><time>2026-05-03T07:43:27.557Z</time></trkpt><trkpt lat="42.35359" lon="13.57375"><ele>1180.0</ele><time>2026-05-03T07:43:28.556Z</time></trkpt><trkpt lat="42.353525" lon="13.5737883"><ele>1180.0</ele><time>2026-05-03T07:43:29.556Z</time></trkpt><trkpt lat="42.3534617" lon="13.5738283"><ele>1180.0</ele><time>2026-05-03T07:43:30.556Z</time></trkpt><trkpt lat="42.3533983" lon="13.573865"><ele>1177.3333333333333</ele><time>2026-05-03T07:43:31.557Z</time></trkpt><trkpt lat="42.353335" lon="13.5738983"><ele>1174.6666666666665</ele><time>2026-05-03T07:43:32.557Z</time></trkpt><trkpt lat="42.3532683" lon="13.5739333"><ele>1172.0</ele><time>2026-05-03T07:43:33.557Z</time></trkpt><trkpt lat="42.3531633" lon="13.5740017"><ele>1169.3333333333333</ele><time>2026-05-03T07:43:35.556Z</time></trkpt><trkpt lat="42.3530867" lon="13.574055"><ele>1166.6666666666667</ele><time>2026-05-03T07:43:37.557Z</time></trkpt><trkpt lat="42.3530167" lon="13.5741183"><ele>1164.0</ele><time>2026-05-03T07:43:39.556Z</time></trkpt><trkpt lat="42.352915" lon="13.5741917"><ele>1162.8</ele><time>2026-05-03T07:43:41.556Z</time></trkpt><trkpt lat="42.3528517" lon="13.5742317"><ele>1161.6000000000001</ele><time>2026-05-03T07:43:42.557Z</time></trkpt><trkpt lat="42.3527683" lon="13.574245"><ele>1160.4</ele><time>2026-05-03T07:43:43.557Z</time></trkpt><trkpt lat="42.3526733" lon="13.5742333"><ele>1159.2</ele><time>2026-05-03T07:43:44.557Z</time></trkpt><trkpt lat="42.35258" lon="13.5742133"><ele>1158.0</ele><time>2026-05-03T07:43:45.557Z</time></trkpt><trkpt lat="42.3524717" lon="13.5741617"><ele>1158.0</ele><time>2026-05-03T07:43:46.557Z</time></trkpt><trkpt lat="42.3523517" lon="13.574085"><ele>1158.0</ele><time>2026-05-03T07:43:47.557Z</time></trkpt><trkpt lat="42.352225" lon="13.574"><ele>1158.0</ele><time>2026-05-03T07:43:48.557Z</time></trkpt><trkpt lat="42.3520933" lon="13.5739"><ele>1158.0</ele><time>2026-05-03T07:43:49.557Z</time></trkpt><trkpt lat="42.3519533" lon="13.5737933"><ele>1156.3333333333333</ele><time>2026-05-03T07:43:50.557Z</time></trkpt><trkpt lat="42.3518067" lon="13.5736833"><ele>1154.6666666666665</ele><time>2026-05-03T07:43:51.556Z</time></trkpt><trkpt lat="42.3516583" lon="13.5735733"><ele>1153.0</ele><time>2026-05-03T07:43:52.556Z</time></trkpt><trkpt lat="42.3515117" lon="13.5734583"><ele>1153.0</ele><time>2026-05-03T07:43:53.556Z</time></trkpt><trkpt lat="42.3513767" lon="13.573335"><ele>1153.0</ele><time>2026-05-03T07:43:54.557Z</time></trkpt><trkpt lat="42.3512467" lon="13.5731933"><ele>1153.0</ele><time>2026-05-03T07:43:55.557Z</time></trkpt><trkpt lat="42.3511317" lon="13.5730267"><ele>1152.0</ele><time>2026-05-03T07:43:56.557Z</time></trkpt><trkpt lat="42.35103" lon="13.5728733"><ele>1151.0</ele><time>2026-05-03T07:43:57.557Z</time></trkpt><trkpt lat="42.3509367" lon="13.5727267"><ele>1150.0</ele><time>2026-05-03T07:43:58.556Z</time></trkpt><trkpt lat="42.3508433" lon="13.5726017"><ele>1149.0</ele><time>2026-05-03T07:43:59.557Z</time></trkpt><trkpt lat="42.3507367" lon="13.57249"><ele>1149.0</ele><time>2026-05-03T07:44:00.557Z</time></trkpt><trkpt lat="42.35061" lon="13.57239"><ele>1149.0</ele><time>2026-05-03T07:44:01.557Z</time></trkpt><trkpt lat="42.3504783" lon="13.5723033"><ele>1149.0</ele><time>2026-05-03T07:44:02.556Z</time></trkpt><trkpt lat="42.3503417" lon="13.5722033"><ele>1149.0</ele><time>2026-05-03T07:44:03.557Z</time></trkpt><trkpt lat="42.350195" lon="13.57208"><ele>1147.3333333333333</ele><time>2026-05-03T07:44:04.557Z</time></trkpt><trkpt lat="42.350045" lon="13.5719533"><ele>1145.6666666666665</ele><time>2026-05-03T07:44:05.556Z</time></trkpt><trkpt lat="42.3499067" lon="13.57184"><ele>1144.0</ele><time>2026-05-03T07:44:06.557Z</time></trkpt><trkpt lat="42.349785" lon="13.5717317"><ele>1140.5</ele><time>2026-05-03T07:44:07.556Z</time></trkpt><trkpt lat="42.3496817" lon="13.5716083"><ele>1137.0</ele><time>2026-05-03T07:44:08.557Z</time></trkpt><trkpt lat="42.349585" lon="13.57149"><ele>1133.5</ele><time>2026-05-03T07:44:09.557Z</time></trkpt><trkpt lat="42.3494733" lon="13.571385"><ele>1130.0</ele><time>2026-05-03T07:44:10.556Z</time></trkpt><trkpt lat="42.3493583" lon="13.57132"><ele>1130.0</ele><time>2026-05-03T07:44:11.557Z</time></trkpt><trkpt lat="42.3492267" lon="13.5712767"><ele>1130.0</ele><time>2026-05-03T07:44:12.556Z</time></trkpt><trkpt lat="42.3490883" lon="13.5712483"><ele>1130.0</ele><time>2026-05-03T07:44:13.556Z</time></trkpt><trkpt lat="42.3489283" lon="13.5711917"><ele>1130.0</ele><time>2026-05-03T07:44:14.557Z</time></trkpt><trkpt lat="42.3487783" lon="13.571145"><ele>1129.6666666666667</ele><time>2026-05-03T07:44:15.557Z</time></trkpt><trkpt lat="42.3486333" lon="13.5710733"><ele>1129.3333333333333</ele><time>2026-05-03T07:44:16.557Z</time></trkpt><trkpt lat="42.3484833" lon="13.5709833"><ele>1129.0</ele><time>2026-05-03T07:44:17.556Z</time></trkpt><trkpt lat="42.34835" lon="13.57089"><ele>1129.0</ele><time>2026-05-03T07:44:18.557Z</time></trkpt><trkpt lat="42.3482383" lon="13.5708017"><ele>1129.0</ele><time>2026-05-03T07:44:19.557Z</time></trkpt><trkpt lat="42.3481533" lon="13.570705"><ele>1129.0</ele><time>2026-05-03T07:44:20.557Z</time></trkpt><trkpt lat="42.3481017" lon="13.5705967"><ele>1129.0</ele><time>2026-05-03T07:44:21.556Z</time></trkpt><trkpt lat="42.3480583" lon="13.5705017"><ele>1129.0</ele><time>2026-05-03T07:44:22.556Z</time></trkpt><trkpt lat="42.348025" lon="13.5704133"><ele>1127.6666666666665</ele><time>2026-05-03T07:44:23.557Z</time></trkpt><trkpt lat="42.3479833" lon="13.57032"><ele>1126.3333333333333</ele><time>2026-05-03T07:44:24.557Z</time></trkpt><trkpt lat="42.3479383" lon="13.5702317"><ele>1125.0</ele><time>2026-05-03T07:44:25.556Z</time></trkpt><trkpt lat="42.3478833" lon="13.5701483"><ele>1123.6666666666667</ele><time>2026-05-03T07:44:26.557Z</time></trkpt><trkpt lat="42.347825" lon="13.5700667"><ele>1122.3333333333335</ele><time>2026-05-03T07:44:27.556Z</time></trkpt><trkpt lat="42.347755" lon="13.5699867"><ele>1121.0</ele><time>2026-05-03T07:44:28.556Z</time></trkpt><trkpt lat="42.3476783" lon="13.569895"><ele>1121.0</ele><time>2026-05-03T07:44:29.556Z</time></trkpt><trkpt lat="42.3476083" lon="13.5698217"><ele>1121.0</ele><time>2026-05-03T07:44:30.556Z</time></trkpt><trkpt lat="42.3475367" lon="13.5697633"><ele>1121.0</ele><time>2026-05-03T07:44:31.556Z</time></trkpt><trkpt lat="42.3474633" lon="13.5697267"><ele>1121.0</ele><time>2026-05-03T07:44:32.556Z</time></trkpt><trkpt lat="42.3473867" lon="13.5697083"><ele>1121.0</ele><time>2026-05-03T07:44:33.557Z</time></trkpt><trkpt lat="42.3472983" lon="13.5697133"><ele>1121.0</ele><time>2026-05-03T07:44:34.556Z</time></trkpt><trkpt lat="42.3471983" lon="13.56974"><ele>1120.5</ele><time>2026-05-03T07:44:35.556Z</time></trkpt><trkpt lat="42.3470767" lon="13.569785"><ele>1120.0</ele><time>2026-05-03T07:44:36.556Z</time></trkpt><trkpt lat="42.3469617" lon="13.56984"><ele>1119.5</ele><time>2026-05-03T07:44:37.557Z</time></trkpt><trkpt lat="42.346845" lon="13.5698667"><ele>1119.0</ele><time>2026-05-03T07:44:38.556Z</time></trkpt><trkpt lat="42.3467167" lon="13.5698767"><ele>1119.0</ele><time>2026-05-03T07:44:39.557Z</time></trkpt><trkpt lat="42.3465867" lon="13.5698917"><ele>1119.0</ele><time>2026-05-03T07:44:40.556Z</time></trkpt><trkpt lat="42.346465" lon="13.5699067"><ele>1119.0</ele><time>2026-05-03T07:44:41.557Z</time></trkpt><trkpt lat="42.346355" lon="13.5699383"><ele>1119.0</ele><time>2026-05-03T07:44:42.556Z</time></trkpt><trkpt lat="42.3462617" lon="13.57001"><ele>1118.0</ele><time>2026-05-03T07:44:43.557Z</time></trkpt><trkpt lat="42.3461633" lon="13.5700967"><ele>1117.0</ele><time>2026-05-03T07:44:44.557Z</time></trkpt><trkpt lat="42.3460633" lon="13.57021"><ele>1116.0</ele><time>2026-05-03T07:44:45.556Z</time></trkpt><trkpt lat="42.3459667" lon="13.5703217"><ele>1115.0</ele><time>2026-05-03T07:44:46.557Z</time></trkpt><trkpt lat="42.3458883" lon="13.5704217"><ele>1115.0</ele><time>2026-05-03T07:44:47.557Z</time></trkpt><trkpt lat="42.3458317" lon="13.570535"><ele>1115.0</ele><time>2026-05-03T07:44:48.557Z</time></trkpt><trkpt lat="42.345795" lon="13.5706683"><ele>1115.0</ele><time>2026-05-03T07:44:49.557Z</time></trkpt><trkpt lat="42.3457717" lon="13.5708183"><ele>1115.0</ele><time>2026-05-03T07:44:50.557Z</time></trkpt><trkpt lat="42.3457367" lon="13.5709767"><ele>1115.0</ele><time>2026-05-03T07:44:51.557Z</time></trkpt><trkpt lat="42.3456817" lon="13.5710983"><ele>1116.2</ele><time>2026-05-03T07:44:52.557Z</time></trkpt><trkpt lat="42.3456067" lon="13.5712"><ele>1117.4</ele><time>2026-05-03T07:44:53.557Z</time></trkpt><trkpt lat="42.3455267" lon="13.571275"><ele>1118.6</ele><time>2026-05-03T07:44:54.556Z</time></trkpt><trkpt lat="42.3454283" lon="13.5713567"><ele>1119.8</ele><time>2026-05-03T07:44:55.557Z</time></trkpt><trkpt lat="42.34534" lon="13.5714417"><ele>1121.0</ele><time>2026-05-03T07:44:56.556Z</time></trkpt><trkpt lat="42.3452667" lon="13.571525"><ele>1118.3999999999999</ele><time>2026-05-03T07:44:57.557Z</time></trkpt><trkpt lat="42.3452067" lon="13.5716133"><ele>1115.8</ele><time>2026-05-03T07:44:58.556Z</time></trkpt><trkpt lat="42.3451617" lon="13.5717217"><ele>1113.1999999999998</ele><time>2026-05-03T07:44:59.557Z</time></trkpt><trkpt lat="42.3451183" lon="13.5718533"><ele>1110.6</ele><time>2026-05-03T07:45:00.556Z</time></trkpt><trkpt lat="42.3450783" lon="13.5719983"><ele>1108.0</ele><time>2026-05-03T07:45:01.556Z</time></trkpt><trkpt lat="42.3450317" lon="13.57214"><ele>1108.0</ele><time>2026-05-03T07:45:02.557Z</time></trkpt><trkpt lat="42.34498" lon="13.5722783"><ele>1108.0</ele><time>2026-05-03T07:45:03.557Z</time></trkpt><trkpt lat="42.3449167" lon="13.5724"><ele>1108.0</ele><time>2026-05-03T07:45:04.557Z</time></trkpt><trkpt lat="42.3448467" lon="13.572515"><ele>1108.0</ele><time>2026-05-03T07:45:05.556Z</time></trkpt><trkpt lat="42.3447617" lon="13.5726333"><ele>1107.5</ele><time>2026-05-03T07:45:06.557Z</time></trkpt><trkpt lat="42.34467" lon="13.572745"><ele>1107.0</ele><time>2026-05-03T07:45:07.557Z</time></trkpt><trkpt lat="42.3445717" lon="13.5728617"><ele>1106.5</ele><time>2026-05-03T07:45:08.557Z</time></trkpt><trkpt lat="42.34447" lon="13.572985"><ele>1106.0</ele><time>2026-05-03T07:45:09.557Z</time></trkpt><trkpt lat="42.3443633" lon="13.5731033"><ele>1106.0</ele><time>2026-05-03T07:45:10.557Z</time></trkpt><trkpt lat="42.3442533" lon="13.57323"><ele>1106.0</ele><time>2026-05-03T07:45:11.557Z</time></trkpt><trkpt lat="42.34414" lon="13.5733717"><ele>1106.0</ele><time>2026-05-03T07:45:12.557Z</time></trkpt><trkpt lat="42.3440233" lon="13.5735117"><ele>1106.0</ele><time>2026-05-03T07:45:13.556Z</time></trkpt><trkpt lat="42.3438983" lon="13.5736467"><ele>1106.0</ele><time>2026-05-03T07:45:14.556Z</time></trkpt><trkpt lat="42.343775" lon="13.5738"><ele>1106.0</ele><time>2026-05-03T07:45:15.556Z</time></trkpt><trkpt lat="42.343655" lon="13.5739633"><ele>1104.3333333333335</ele><time>2026-05-03T07:45:16.557Z</time></trkpt><trkpt lat="42.3435483" lon="13.57413"><ele>1102.6666666666667</ele><time>2026-05-03T07:45:17.557Z</time></trkpt><trkpt lat="42.3434383" lon="13.5742983"><ele>1101.0</ele><time>2026-05-03T07:45:18.557Z</time></trkpt><trkpt lat="42.343325" lon="13.5744683"><ele>1101.3333333333333</ele><time>2026-05-03T07:45:19.557Z</time></trkpt><trkpt lat="42.3432167" lon="13.5746233"><ele>1101.6666666666665</ele><time>2026-05-03T07:45:20.557Z</time></trkpt><trkpt lat="42.3430983" lon="13.5747717"><ele>1102.0</ele><time>2026-05-03T07:45:21.557Z</time></trkpt><trkpt lat="42.3429683" lon="13.5749067"><ele>1102.0</ele><time>2026-05-03T07:45:22.557Z</time></trkpt><trkpt lat="42.3428533" lon="13.5750283"><ele>1102.0</ele><time>2026-05-03T07:45:23.557Z</time></trkpt><trkpt lat="42.3427383" lon="13.575155"><ele>1102.0</ele><time>2026-05-03T07:45:24.556Z</time></trkpt><trkpt lat="42.3426367" lon="13.575275"><ele>1102.0</ele><time>2026-05-03T07:45:25.557Z</time></trkpt><trkpt lat="42.3425417" lon="13.57539"><ele>1102.2</ele><time>2026-05-03T07:45:26.557Z</time></trkpt><trkpt lat="42.342465" lon="13.5755067"><ele>1102.4</ele><time>2026-05-03T07:45:27.556Z</time></trkpt><trkpt lat="42.342395" lon="13.5756167"><ele>1102.6</ele><time>2026-05-03T07:45:28.557Z</time></trkpt><trkpt lat="42.3423233" lon="13.5757317"><ele>1102.8</ele><time>2026-05-03T07:45:29.556Z</time></trkpt><trkpt lat="42.3422483" lon="13.5758467"><ele>1103.0</ele><time>2026-05-03T07:45:30.557Z</time></trkpt><trkpt lat="42.3421667" lon="13.5759783"><ele>1101.75</ele><time>2026-05-03T07:45:31.556Z</time></trkpt><trkpt lat="42.34208" lon="13.5761083"><ele>1100.5</ele><time>2026-05-03T07:45:32.556Z</time></trkpt><trkpt lat="42.341995" lon="13.57624"><ele>1099.25</ele><time>2026-05-03T07:45:33.556Z</time></trkpt><trkpt lat="42.3419067" lon="13.5763767"><ele>1098.0</ele><time>2026-05-03T07:45:34.557Z</time></trkpt><trkpt lat="42.3418117" lon="13.5765083"><ele>1098.0</ele><time>2026-05-03T07:45:35.557Z</time></trkpt><trkpt lat="42.34172" lon="13.576645"><ele>1098.0</ele><time>2026-05-03T07:45:36.556Z</time></trkpt><trkpt lat="42.341625" lon="13.5767883"><ele>1098.0</ele><time>2026-05-03T07:45:37.556Z</time></trkpt><trkpt lat="42.34153" lon="13.57693"><ele>1098.0</ele><time>2026-05-03T07:45:38.557Z</time></trkpt><trkpt lat="42.341435" lon="13.5770667"><ele>1097.5</ele><time>2026-05-03T07:45:39.557Z</time></trkpt><trkpt lat="42.3413417" lon="13.5772"><ele>1097.0</ele><time>2026-05-03T07:45:40.557Z</time></trkpt><trkpt lat="42.34125" lon="13.5773217"><ele>1096.5</ele><time>2026-05-03T07:45:41.557Z</time></trkpt><trkpt lat="42.3411717" lon="13.5774367"><ele>1096.0</ele><time>2026-05-03T07:45:42.557Z</time></trkpt><trkpt lat="42.341095" lon="13.577545"><ele>1096.0</ele><time>2026-05-03T07:45:43.557Z</time></trkpt><trkpt lat="42.341025" lon="13.5776383"><ele>1096.0</ele><time>2026-05-03T07:45:44.557Z</time></trkpt><trkpt lat="42.3409633" lon="13.5777333"><ele>1096.0</ele><time>2026-05-03T07:45:45.557Z</time></trkpt><trkpt lat="42.3409033" lon="13.5778267"><ele>1096.0</ele><time>2026-05-03T07:45:46.557Z</time></trkpt><trkpt lat="42.340845" lon="13.5779217"><ele>1096.0</ele><time>2026-05-03T07:45:47.557Z</time></trkpt><trkpt lat="42.3407833" lon="13.578015"><ele>1096.8</ele><time>2026-05-03T07:45:48.556Z</time></trkpt><trkpt lat="42.3407167" lon="13.578105"><ele>1097.6</ele><time>2026-05-03T07:45:49.556Z</time></trkpt><trkpt lat="42.3406533" lon="13.5782"><ele>1098.4</ele><time>2026-05-03T07:45:50.556Z</time></trkpt><trkpt lat="42.3405883" lon="13.57829"><ele>1099.2</ele><time>2026-05-03T07:45:51.557Z</time></trkpt><trkpt lat="42.340525" lon="13.5783767"><ele>1100.0</ele><time>2026-05-03T07:45:52.557Z</time></trkpt><trkpt lat="42.340465" lon="13.57846"><ele>1098.6666666666667</ele><time>2026-05-03T07:45:53.556Z</time></trkpt><trkpt lat="42.3404033" lon="13.5785383"><ele>1097.3333333333335</ele><time>2026-05-03T07:45:54.556Z</time></trkpt><trkpt lat="42.340345" lon="13.578615"><ele>1096.0</ele><time>2026-05-03T07:45:55.557Z</time></trkpt><trkpt lat="42.3402867" lon="13.5786933"><ele>1094.6666666666667</ele><time>2026-05-03T07:45:56.557Z</time></trkpt><trkpt lat="42.3402317" lon="13.57877"><ele>1093.3333333333333</ele><time>2026-05-03T07:45:57.556Z</time></trkpt><trkpt lat="42.3401767" lon="13.5788417"><ele>1092.0</ele><time>2026-05-03T07:45:58.556Z</time></trkpt><trkpt lat="42.3400967" lon="13.57895"><ele>1092.0</ele><time>2026-05-03T07:46:00.556Z</time></trkpt><trkpt lat="42.3400283" lon="13.57905"><ele>1092.0</ele><time>2026-05-03T07:46:02.557Z</time></trkpt><trkpt lat="42.3399567" lon="13.5791383"><ele>1092.0</ele><time>2026-05-03T07:46:04.557Z</time></trkpt><trkpt lat="42.3398983" lon="13.5792217"><ele>1092.0</ele><time>2026-05-03T07:46:06.557Z</time></trkpt><trkpt lat="42.33984" lon="13.5792967"><ele>1092.0</ele><time>2026-05-03T07:46:08.556Z</time></trkpt><trkpt lat="42.3397733" lon="13.5793917"><ele>1092.0</ele><time>2026-05-03T07:46:10.556Z</time></trkpt><trkpt lat="42.3397283" lon="13.579455"><ele>1092.0</ele><time>2026-05-03T07:46:11.556Z</time></trkpt><trkpt lat="42.3396833" lon="13.5795267"><ele>1092.0</ele><time>2026-05-03T07:46:12.557Z</time></trkpt><trkpt lat="42.3396417" lon="13.5795933"><ele>1092.0</ele><time>2026-05-03T07:46:13.557Z</time></trkpt><trkpt lat="42.339595" lon="13.5796767"><ele>1092.0</ele><time>2026-05-03T07:46:14.556Z</time></trkpt><trkpt lat="42.3395417" lon="13.57977"><ele>1092.0</ele><time>2026-05-03T07:46:15.557Z</time></trkpt><trkpt lat="42.3394867" lon="13.5798683"><ele>1091.6666666666667</ele><time>2026-05-03T07:46:16.557Z</time></trkpt><trkpt lat="42.3394333" lon="13.5799583"><ele>1091.3333333333333</ele><time>2026-05-03T07:46:17.557Z</time></trkpt><trkpt lat="42.3393783" lon="13.5800433"><ele>1091.0</ele><time>2026-05-03T07:46:18.557Z</time></trkpt><trkpt lat="42.3393167" lon="13.58013"><ele>1090.6666666666665</ele><time>2026-05-03T07:46:19.557Z</time></trkpt><trkpt lat="42.3392483" lon="13.580215"><ele>1090.3333333333333</ele><time>2026-05-03T07:46:20.557Z</time></trkpt><trkpt lat="42.3391817" lon="13.5802917"><ele>1090.0</ele><time>2026-05-03T07:46:21.556Z</time></trkpt><trkpt lat="42.33911" lon="13.58037"><ele>1090.0</ele><time>2026-05-03T07:46:22.557Z</time></trkpt><trkpt lat="42.3390333" lon="13.5804467"><ele>1090.0</ele><time>2026-05-03T07:46:23.556Z</time></trkpt><trkpt lat="42.338955" lon="13.5805217"><ele>1090.0</ele><time>2026-05-03T07:46:24.557Z</time></trkpt><trkpt lat="42.3388817" lon="13.5805933"><ele>1090.0</ele><time>2026-05-03T07:46:25.557Z</time></trkpt><trkpt lat="42.3388133" lon="13.5806633"><ele>1090.0</ele><time>2026-05-03T07:46:26.557Z</time></trkpt><trkpt lat="42.3387533" lon="13.580715"><ele>1090.0</ele><time>2026-05-03T07:46:27.557Z</time></trkpt><trkpt lat="42.3386783" lon="13.5807567"><ele>1089.8</ele><time>2026-05-03T07:46:28.557Z</time></trkpt><trkpt lat="42.3386017" lon="13.58078"><ele>1089.6</ele><time>2026-05-03T07:46:29.557Z</time></trkpt><trkpt lat="42.33852" lon="13.5807767"><ele>1089.4</ele><time>2026-05-03T07:46:30.556Z</time></trkpt><trkpt lat="42.3384417" lon="13.5807433"><ele>1089.2</ele><time>2026-05-03T07:46:31.556Z</time></trkpt><trkpt lat="42.3383483" lon="13.580685"><ele>1089.0</ele><time>2026-05-03T07:46:32.557Z</time></trkpt><trkpt lat="42.33826" lon="13.58059"><ele>1089.0</ele><time>2026-05-03T07:46:33.556Z</time></trkpt><trkpt lat="42.3381717" lon="13.5804817"><ele>1089.0</ele><time>2026-05-03T07:46:34.557Z</time></trkpt><trkpt lat="42.33809" lon="13.5803767"><ele>1089.0</ele><time>2026-05-03T07:46:35.556Z</time></trkpt><trkpt lat="42.3380267" lon="13.5802783"><ele>1089.0</ele><time>2026-05-03T07:46:36.557Z</time></trkpt><trkpt lat="42.3379717" lon="13.5801833"><ele>1089.0</ele><time>2026-05-03T07:46:37.557Z</time></trkpt><trkpt lat="42.3379267" lon="13.580105"><ele>1089.8333333333333</ele><time>2026-05-03T07:46:38.557Z</time></trkpt><trkpt lat="42.337865" lon="13.5799983"><ele>1090.6666666666667</ele><time>2026-05-03T07:46:40.557Z</time></trkpt><trkpt lat="42.337795" lon="13.5799817"><ele>1091.5</ele><time>2026-05-03T07:46:43.556Z</time></trkpt><trkpt lat="42.3378033" lon="13.5801017"><ele>1092.3333333333335</ele><time>2026-05-03T07:46:45.556Z</time></trkpt><trkpt lat="42.33783" lon="13.5801917"><ele>1093.1666666666667</ele><time>2026-05-03T07:46:46.557Z</time></trkpt><trkpt lat="42.3378617" lon="13.580305"><ele>1094.0</ele><time>2026-05-03T07:46:47.556Z</time></trkpt><trkpt lat="42.3378867" lon="13.5804467"><ele>1095.5</ele><time>2026-05-03T07:46:48.557Z</time></trkpt><trkpt lat="42.3378867" lon="13.5805883"><ele>1097.0</ele><time>2026-05-03T07:46:49.556Z</time></trkpt><trkpt lat="42.3378633" lon="13.580735"><ele>1098.5</ele><time>2026-05-03T07:46:50.556Z</time></trkpt><trkpt lat="42.3378167" lon="13.5808817"><ele>1100.0</ele><time>2026-05-03T07:46:51.557Z</time></trkpt><trkpt lat="42.3377517" lon="13.5810217"><ele>1100.0</ele><time>2026-05-03T07:46:52.556Z</time></trkpt><trkpt lat="42.3376833" lon="13.58117"><ele>1100.0</ele><time>2026-05-03T07:46:53.556Z</time></trkpt><trkpt lat="42.3376167" lon="13.581325"><ele>1100.0</ele><time>2026-05-03T07:46:54.556Z</time></trkpt><trkpt lat="42.33756" lon="13.5815033"><ele>1100.0</ele><time>2026-05-03T07:46:55.556Z</time></trkpt><trkpt lat="42.3375167" lon="13.5816933"><ele>1100.25</ele><time>2026-05-03T07:46:56.556Z</time></trkpt><trkpt lat="42.3374967" lon="13.58188"><ele>1100.5</ele><time>2026-05-03T07:46:57.556Z</time></trkpt><trkpt lat="42.3375067" lon="13.5820717"><ele>1100.75</ele><time>2026-05-03T07:46:58.555Z</time></trkpt><trkpt lat="42.3375333" lon="13.582255"><ele>1101.0</ele><time>2026-05-03T07:46:59.556Z</time></trkpt><trkpt lat="42.33756" lon="13.5824067"><ele>1101.0</ele><time>2026-05-03T07:47:00.556Z</time></trkpt><trkpt lat="42.337575" lon="13.5825267"><ele>1101.0</ele><time>2026-05-03T07:47:01.556Z</time></trkpt><trkpt lat="42.3375883" lon="13.5826217"><ele>1101.0</ele><time>2026-05-03T07:47:02.556Z</time></trkpt><trkpt lat="42.337625" lon="13.5827283"><ele>1101.0</ele><time>2026-05-03T07:47:04.555Z</time></trkpt><trkpt lat="42.337685" lon="13.5827583"><ele>1101.0</ele><time>2026-05-03T07:47:06.556Z</time></trkpt><trkpt lat="42.3377567" lon="13.5827967"><ele>1101.0</ele><time>2026-05-03T07:47:09.555Z</time></trkpt><trkpt lat="42.3378117" lon="13.5829033"><ele>1100.8333333333333</ele><time>2026-05-03T07:47:12.556Z</time></trkpt><trkpt lat="42.3377983" lon="13.583005"><ele>1100.6666666666667</ele><time>2026-05-03T07:47:14.556Z</time></trkpt><trkpt lat="42.3377383" lon="13.583095"><ele>1100.5</ele><time>2026-05-03T07:47:16.556Z</time></trkpt><trkpt lat="42.33763" lon="13.58316"><ele>1100.3333333333335</ele><time>2026-05-03T07:47:19.555Z</time></trkpt><trkpt lat="42.337565" lon="13.5831933"><ele>1100.1666666666667</ele><time>2026-05-03T07:47:20.556Z</time></trkpt><trkpt lat="42.3374967" lon="13.5832417"><ele>1100.0</ele><time>2026-05-03T07:47:21.555Z</time></trkpt><trkpt lat="42.33742" lon="13.5832883"><ele>1100.0</ele><time>2026-05-03T07:47:22.555Z</time></trkpt><trkpt lat="42.3373417" lon="13.5833417"><ele>1100.0</ele><time>2026-05-03T07:47:23.556Z</time></trkpt><trkpt lat="42.3372783" lon="13.5833917"><ele>1100.0</ele><time>2026-05-03T07:47:24.555Z</time></trkpt><trkpt lat="42.33719" lon="13.5834783"><ele>1100.0</ele><time>2026-05-03T07:47:26.556Z</time></trkpt><trkpt lat="42.3371583" lon="13.5835567"><ele>1100.0</ele><time>2026-05-03T07:47:29.556Z</time></trkpt><trkpt lat="42.3372167" lon="13.5836217"><ele>1100.0</ele><time>2026-05-03T07:47:31.556Z</time></trkpt><trkpt lat="42.3372417" lon="13.5837283"><ele>1097.5</ele><time>2026-05-03T07:47:34.556Z</time></trkpt><trkpt lat="42.3371867" lon="13.5838683"><ele>1095.0</ele><time>2026-05-03T07:47:36.556Z</time></trkpt><trkpt lat="42.3371583" lon="13.583945"><ele>1092.5</ele><time>2026-05-03T07:47:37.556Z</time></trkpt><trkpt lat="42.337115" lon="13.584025"><ele>1090.0</ele><time>2026-05-03T07:47:39.556Z</time></trkpt><trkpt lat="42.3370617" lon="13.5841017"><ele>1087.5</ele><time>2026-05-03T07:47:41.556Z</time></trkpt><trkpt lat="42.336995" lon="13.58417"><ele>1085.0</ele><time>2026-05-03T07:47:43.556Z</time></trkpt><trkpt lat="42.3369367" lon="13.58427"><ele>1085.0</ele><time>2026-05-03T07:47:46.556Z</time></trkpt><trkpt lat="42.3368683" lon="13.5843883"><ele>1085.0</ele><time>2026-05-03T07:47:48.556Z</time></trkpt><trkpt lat="42.3367817" lon="13.5844817"><ele>1085.0</ele><time>2026-05-03T07:47:50.556Z</time></trkpt><trkpt lat="42.3367183" lon="13.5845717"><ele>1085.0</ele><time>2026-05-03T07:47:52.556Z</time></trkpt><trkpt lat="42.336665" lon="13.5846717"><ele>1085.0</ele><time>2026-05-03T07:47:55.556Z</time></trkpt><trkpt lat="42.3365967" lon="13.5847167"><ele>1084.4</ele><time>2026-05-03T07:47:57.556Z</time></trkpt><trkpt lat="42.3365533" lon="13.584785"><ele>1083.8</ele><time>2026-05-03T07:47:59.555Z</time></trkpt><trkpt lat="42.336525" lon="13.58488"><ele>1083.2</ele><time>2026-05-03T07:48:01.556Z</time></trkpt><trkpt lat="42.3364733" lon="13.5850267"><ele>1082.6</ele><time>2026-05-03T07:48:03.556Z</time></trkpt><trkpt lat="42.336445" lon="13.5851167"><ele>1082.0</ele><time>2026-05-03T07:48:04.556Z</time></trkpt><trkpt lat="42.3363967" lon="13.5852583"><ele>1079.857142857143</ele><time>2026-05-03T07:48:06.555Z</time></trkpt><trkpt lat="42.336365" lon="13.5853683"><ele>1077.7142857142858</ele><time>2026-05-03T07:48:08.555Z</time></trkpt><trkpt lat="42.3363367" lon="13.585455"><ele>1075.5714285714284</ele><time>2026-05-03T07:48:10.556Z</time></trkpt><trkpt lat="42.3363033" lon="13.5855283"><ele>1073.4285714285716</ele><time>2026-05-03T07:48:12.556Z</time></trkpt><trkpt lat="42.3362817" lon="13.5856117"><ele>1071.2857142857142</ele><time>2026-05-03T07:48:15.556Z</time></trkpt><trkpt lat="42.3362533" lon="13.5856917"><ele>1069.142857142857</ele><time>2026-05-03T07:48:18.556Z</time></trkpt><trkpt lat="42.336185" lon="13.5857633"><ele>1067.0</ele><time>2026-05-03T07:48:20.555Z</time></trkpt><trkpt lat="42.3361017" lon="13.585835"><ele>1067.0</ele><time>2026-05-03T07:48:22.555Z</time></trkpt><trkpt lat="42.3360237" lon="13.585903"><ele>1067.0</ele><time>2026-05-03T07:48:24.555Z</time></trkpt><trkpt lat="42.3359161" lon="13.5859873"><ele>1067.0</ele><time>2026-05-03T07:48:26.555Z</time></trkpt><trkpt lat="42.3358364" lon="13.5860501"><ele>1067.0</ele><time>2026-05-03T07:48:27.556Z</time></trkpt><trkpt lat="42.3357493" lon="13.5861424"><ele>1067.0</ele><time>2026-05-03T07:48:28.555Z</time></trkpt><trkpt lat="42.3356653" lon="13.5862254"><ele>1068.6</ele><time>2026-05-03T07:48:29.556Z</time></trkpt><trkpt lat="42.3355896" lon="13.5862767"><ele>1070.2</ele><time>2026-05-03T07:48:30.556Z</time></trkpt><trkpt lat="42.3355118" lon="13.5863272"><ele>1071.8</ele><time>2026-05-03T07:48:31.556Z</time></trkpt><trkpt lat="42.3354196" lon="13.5863747"><ele>1073.4</ele><time>2026-05-03T07:48:32.555Z</time></trkpt><trkpt lat="42.3353108" lon="13.5864213"><ele>1075.0</ele><time>2026-05-03T07:48:33.556Z</time></trkpt><trkpt lat="42.3352089" lon="13.5864724"><ele>1072.3333333333333</ele><time>2026-05-03T07:48:34.556Z</time></trkpt><trkpt lat="42.3351172" lon="13.5865204"><ele>1069.6666666666665</ele><time>2026-05-03T07:48:35.556Z</time></trkpt><trkpt lat="42.3350307" lon="13.586572"><ele>1067.0</ele><time>2026-05-03T07:48:36.555Z</time></trkpt><trkpt lat="42.3349484" lon="13.5866211"><ele>1064.3333333333333</ele><time>2026-05-03T07:48:37.555Z</time></trkpt><trkpt lat="42.3348747" lon="13.5866637"><ele>1061.6666666666667</ele><time>2026-05-03T07:48:38.556Z</time></trkpt><trkpt lat="42.3348074" lon="13.5866996"><ele>1059.0</ele><time>2026-05-03T07:48:39.556Z</time></trkpt><trkpt lat="42.3347336" lon="13.5867252"><ele>1056.6666666666667</ele><time>2026-05-03T07:48:40.556Z</time></trkpt><trkpt lat="42.3346612" lon="13.5867297"><ele>1054.3333333333333</ele><time>2026-05-03T07:48:41.555Z</time></trkpt><trkpt lat="42.3345758" lon="13.5867183"><ele>1052.0</ele><time>2026-05-03T07:48:42.555Z</time></trkpt><trkpt lat="42.3344865" lon="13.5867051"><ele>1049.6666666666665</ele><time>2026-05-03T07:48:43.556Z</time></trkpt><trkpt lat="42.3343943" lon="13.5867121"><ele>1047.3333333333333</ele><time>2026-05-03T07:48:44.556Z</time></trkpt><trkpt lat="42.3343101" lon="13.5867315"><ele>1045.0</ele><time>2026-05-03T07:48:45.556Z</time></trkpt><trkpt lat="42.3342311" lon="13.5867547"><ele>1045.0</ele><time>2026-05-03T07:48:46.556Z</time></trkpt><trkpt lat="42.3341586" lon="13.5867783"><ele>1045.0</ele><time>2026-05-03T07:48:47.556Z</time></trkpt><trkpt lat="42.334089" lon="13.586783"><ele>1045.0</ele><time>2026-05-03T07:48:48.555Z</time></trkpt><trkpt lat="42.3340129" lon="13.5867592"><ele>1045.0</ele><time>2026-05-03T07:48:49.555Z</time></trkpt><trkpt lat="42.3339398" lon="13.5867335"><ele>1045.0</ele><time>2026-05-03T07:48:50.556Z</time></trkpt><trkpt lat="42.3338719" lon="13.5867286"><ele>1045.0</ele><time>2026-05-03T07:48:51.556Z</time></trkpt><trkpt lat="42.3338051" lon="13.586738"><ele>1045.0</ele><time>2026-05-03T07:48:52.556Z</time></trkpt><trkpt lat="42.3337393" lon="13.5867373"><ele>1043.1666666666665</ele><time>2026-05-03T07:48:53.555Z</time></trkpt><trkpt lat="42.3336541" lon="13.5867331"><ele>1041.3333333333333</ele><time>2026-05-03T07:48:54.555Z</time></trkpt><trkpt lat="42.3335615" lon="13.5867192"><ele>1039.5</ele><time>2026-05-03T07:48:55.555Z</time></trkpt><trkpt lat="42.3334796" lon="13.5867083"><ele>1037.6666666666667</ele><time>2026-05-03T07:48:56.555Z</time></trkpt><trkpt lat="42.3334042" lon="13.5867101"><ele>1035.8333333333335</ele><time>2026-05-03T07:48:57.556Z</time></trkpt><trkpt lat="42.333325" lon="13.5867312"><ele>1034.0</ele><time>2026-05-03T07:48:58.556Z</time></trkpt><trkpt lat="42.3332535" lon="13.5867658"><ele>1034.0</ele><time>2026-05-03T07:48:59.555Z</time></trkpt><trkpt lat="42.3331917" lon="13.5867967"><ele>1034.0</ele><time>2026-05-03T07:49:00.556Z</time></trkpt><trkpt lat="42.3331283" lon="13.5868217"><ele>1034.0</ele><time>2026-05-03T07:49:01.556Z</time></trkpt><trkpt lat="42.3330267" lon="13.5868467"><ele>1034.0</ele><time>2026-05-03T07:49:03.556Z</time></trkpt><trkpt lat="42.3329517" lon="13.586875"><ele>1034.0</ele><time>2026-05-03T07:49:07.556Z</time></trkpt><trkpt lat="42.33288" lon="13.586895"><ele>1034.0</ele><time>2026-05-03T07:49:09.556Z</time></trkpt><trkpt lat="42.332785" lon="13.5869317"><ele>1032.6666666666667</ele><time>2026-05-03T07:49:11.556Z</time></trkpt><trkpt lat="42.3327133" lon="13.5869617"><ele>1031.3333333333335</ele><time>2026-05-03T07:49:13.556Z</time></trkpt><trkpt lat="42.3326567" lon="13.587"><ele>1030.0</ele><time>2026-05-03T07:49:17.556Z</time></trkpt><trkpt lat="42.33257" lon="13.5870267"><ele>1028.6666666666667</ele><time>2026-05-03T07:49:20.555Z</time></trkpt><trkpt lat="42.3324967" lon="13.58705"><ele>1027.3333333333333</ele><time>2026-05-03T07:49:22.555Z</time></trkpt><trkpt lat="42.3324283" lon="13.587125"><ele>1026.0</ele><time>2026-05-03T07:49:27.556Z</time></trkpt><trkpt lat="42.332355" lon="13.5871917"><ele>1026.0</ele><time>2026-05-03T07:49:29.556Z</time></trkpt><trkpt lat="42.3322883" lon="13.5872433"><ele>1026.0</ele><time>2026-05-03T07:49:31.556Z</time></trkpt><trkpt lat="42.3321767" lon="13.5873067"><ele>1026.0</ele><time>2026-05-03T07:49:33.556Z</time></trkpt><trkpt lat="42.3321167" lon="13.5873467"><ele>1026.0</ele><time>2026-05-03T07:49:34.556Z</time></trkpt><trkpt lat="42.3320267" lon="13.5873767"><ele>1026.0</ele><time>2026-05-03T07:49:36.556Z</time></trkpt><trkpt lat="42.3319633" lon="13.587315"><ele>1026.0</ele><time>2026-05-03T07:49:38.556Z</time></trkpt><trkpt lat="42.3319383" lon="13.5872217"><ele>1023.6666666666666</ele><time>2026-05-03T07:49:39.556Z</time></trkpt><trkpt lat="42.3319183" lon="13.5871133"><ele>1021.3333333333333</ele><time>2026-05-03T07:49:40.555Z</time></trkpt><trkpt lat="42.3318767" lon="13.5870083"><ele>1019.0</ele><time>2026-05-03T07:49:42.556Z</time></trkpt><trkpt lat="42.3318183" lon="13.5870717"><ele>1016.6666666666666</ele><time>2026-05-03T07:49:44.556Z</time></trkpt><trkpt lat="42.3317733" lon="13.5871567"><ele>1014.3333333333333</ele><time>2026-05-03T07:49:45.556Z</time></trkpt><trkpt lat="42.3317117" lon="13.587285"><ele>1012.0</ele><time>2026-05-03T07:49:46.556Z</time></trkpt><trkpt lat="42.33164" lon="13.5874517"><ele>1012.0</ele><time>2026-05-03T07:49:47.555Z</time></trkpt><trkpt lat="42.33155" lon="13.587645"><ele>1012.0</ele><time>2026-05-03T07:49:48.556Z</time></trkpt><trkpt lat="42.33145" lon="13.5878583"><ele>1012.0</ele><time>2026-05-03T07:49:49.556Z</time></trkpt><trkpt lat="42.3313517" lon="13.588105"><ele>1005.5</ele><time>2026-05-03T07:49:50.555Z</time></trkpt><trkpt lat="42.3312467" lon="13.5883783"><ele>999.0</ele><time>2026-05-03T07:49:51.556Z</time></trkpt><trkpt lat="42.33115" lon="13.58868"><ele>999.0</ele><time>2026-05-03T07:49:52.556Z</time></trkpt><trkpt lat="42.3310583" lon="13.58897"><ele>999.0</ele><time>2026-05-03T07:49:53.556Z</time></trkpt><trkpt lat="42.3309817" lon="13.5892267"><ele>999.0</ele><time>2026-05-03T07:49:54.556Z</time></trkpt><trkpt lat="42.3309033" lon="13.58944"><ele>999.25</ele><time>2026-05-03T07:49:55.556Z</time></trkpt><trkpt lat="42.330825" lon="13.589615"><ele>999.5</ele><time>2026-05-03T07:49:56.555Z</time></trkpt><trkpt lat="42.330735" lon="13.58976"><ele>999.75</ele><time>2026-05-03T07:49:57.556Z</time></trkpt><trkpt lat="42.33063" lon="13.5898717"><ele>1000.0</ele><time>2026-05-03T07:49:58.556Z</time></trkpt><trkpt lat="42.3304983" lon="13.58997"><ele>998.0</ele><time>2026-05-03T07:49:59.556Z</time></trkpt><trkpt lat="42.3303583" lon="13.590045"><ele>996.0</ele><time>2026-05-03T07:50:00.555Z</time></trkpt><trkpt lat="42.33022" lon="13.5900983"><ele>994.0</ele><time>2026-05-03T07:50:01.556Z</time></trkpt><trkpt lat="42.3301033" lon="13.5901367"><ele>992.0</ele><time>2026-05-03T07:50:02.555Z</time></trkpt><trkpt lat="42.329995" lon="13.5901767"><ele>992.0</ele><time>2026-05-03T07:50:03.556Z</time></trkpt><trkpt lat="42.3299067" lon="13.5902233"><ele>992.0</ele><time>2026-05-03T07:50:04.556Z</time></trkpt><trkpt lat="42.3298217" lon="13.5903083"><ele>992.0</ele><time>2026-05-03T07:50:05.556Z</time></trkpt><trkpt lat="42.3297567" lon="13.5904017"><ele>992.0</ele><time>2026-05-03T07:50:06.556Z</time></trkpt><trkpt lat="42.3297" lon="13.5904767"><ele>992.0</ele><time>2026-05-03T07:50:07.555Z</time></trkpt><trkpt lat="42.3296567" lon="13.59058"><ele>991.0</ele><time>2026-05-03T07:50:09.556Z</time></trkpt><trkpt lat="42.3297067" lon="13.590665"><ele>990.0</ele><time>2026-05-03T07:50:11.555Z</time></trkpt><trkpt lat="42.3297783" lon="13.5907067"><ele>989.0</ele><time>2026-05-03T07:50:12.556Z</time></trkpt><trkpt lat="42.3298717" lon="13.5907567"><ele>988.0</ele><time>2026-05-03T07:50:13.556Z</time></trkpt><trkpt lat="42.3299883" lon="13.590825"><ele>987.0</ele><time>2026-05-03T07:50:14.555Z</time></trkpt><trkpt lat="42.330115" lon="13.5909033"><ele>989.5</ele><time>2026-05-03T07:50:15.556Z</time></trkpt><trkpt lat="42.3302267" lon="13.5909883"><ele>992.0</ele><time>2026-05-03T07:50:16.556Z</time></trkpt><trkpt lat="42.3303217" lon="13.591075"><ele>994.5</ele><time>2026-05-03T07:50:17.555Z</time></trkpt><trkpt lat="42.330415" lon="13.59117"><ele>997.0</ele><time>2026-05-03T07:50:18.555Z</time></trkpt><trkpt lat="42.3305083" lon="13.5912633"><ele>1001.0</ele><time>2026-05-03T07:50:19.555Z</time></trkpt><trkpt lat="42.3306033" lon="13.5913583"><ele>1005.0</ele><time>2026-05-03T07:50:20.555Z</time></trkpt><trkpt lat="42.3307017" lon="13.591455"><ele>1009.0</ele><time>2026-05-03T07:50:21.556Z</time></trkpt><trkpt lat="42.3307983" lon="13.5915433"><ele>1013.0</ele><time>2026-05-03T07:50:22.556Z</time></trkpt><trkpt lat="42.3309" lon="13.5916483"><ele>1013.0</ele><time>2026-05-03T07:50:23.555Z</time></trkpt><trkpt lat="42.331" lon="13.5917683"><ele>1013.0</ele><time>2026-05-03T07:50:24.555Z</time></trkpt><trkpt lat="42.3311" lon="13.5918983"><ele>1013.0</ele><time>2026-05-03T07:50:25.556Z</time></trkpt><trkpt lat="42.331195" lon="13.5920383"><ele>1013.0</ele><time>2026-05-03T07:50:26.555Z</time></trkpt><trkpt lat="42.3312817" lon="13.5921917"><ele>1014.5</ele><time>2026-05-03T07:50:27.556Z</time></trkpt><trkpt lat="42.3313583" lon="13.5923467"><ele>1016.0</ele><time>2026-05-03T07:50:28.556Z</time></trkpt><trkpt lat="42.33143" lon="13.5924883"><ele>1017.5</ele><time>2026-05-03T07:50:29.555Z</time></trkpt><trkpt lat="42.3314983" lon="13.5926283"><ele>1019.0</ele><time>2026-05-03T07:50:30.556Z</time></trkpt><trkpt lat="42.33157" lon="13.592765"><ele>1021.8000000000001</ele><time>2026-05-03T07:50:31.556Z</time></trkpt><trkpt lat="42.3316367" lon="13.5928883"><ele>1024.6000000000001</ele><time>2026-05-03T07:50:32.555Z</time></trkpt><trkpt lat="42.3316883" lon="13.5929933"><ele>1027.4</ele><time>2026-05-03T07:50:33.555Z</time></trkpt><trkpt lat="42.331745" lon="13.5931067"><ele>1030.2</ele><time>2026-05-03T07:50:35.555Z</time></trkpt><trkpt lat="42.3318033" lon="13.593225"><ele>1033.0</ele><time>2026-05-03T07:50:37.556Z</time></trkpt><trkpt lat="42.3318483" lon="13.593305"><ele>1033.0</ele><time>2026-05-03T07:50:38.556Z</time></trkpt><trkpt lat="42.331895" lon="13.5934"><ele>1033.0</ele><time>2026-05-03T07:50:39.556Z</time></trkpt><trkpt lat="42.3319467" lon="13.593495"><ele>1033.0</ele><time>2026-05-03T07:50:40.556Z</time></trkpt><trkpt lat="42.33199" lon="13.5935833"><ele>1033.0</ele><time>2026-05-03T07:50:41.555Z</time></trkpt><trkpt lat="42.3320283" lon="13.5936633"><ele>1033.0</ele><time>2026-05-03T07:50:42.556Z</time></trkpt><trkpt lat="42.3320633" lon="13.5937433"><ele>1033.0</ele><time>2026-05-03T07:50:43.556Z</time></trkpt><trkpt lat="42.33209" lon="13.5938317"><ele>1034.8</ele><time>2026-05-03T07:50:44.555Z</time></trkpt><trkpt lat="42.3320783" lon="13.5939467"><ele>1036.6</ele><time>2026-05-03T07:50:46.555Z</time></trkpt><trkpt lat="42.331995" lon="13.59409"><ele>1038.4</ele><time>2026-05-03T07:50:48.556Z</time></trkpt><trkpt lat="42.331945" lon="13.5942033"><ele>1040.2</ele><time>2026-05-03T07:50:49.555Z</time></trkpt><trkpt lat="42.33188" lon="13.5943267"><ele>1042.0</ele><time>2026-05-03T07:50:50.556Z</time></trkpt><trkpt lat="42.3318167" lon="13.5944317"><ele>1041.3333333333333</ele><time>2026-05-03T07:50:51.555Z</time></trkpt><trkpt lat="42.3317633" lon="13.5945117"><ele>1040.6666666666665</ele><time>2026-05-03T07:50:52.556Z</time></trkpt><trkpt lat="42.3316783" lon="13.594635"><ele>1040.0</ele><time>2026-05-03T07:50:54.556Z</time></trkpt><trkpt lat="42.3316417" lon="13.5947333"><ele>1039.3333333333333</ele><time>2026-05-03T07:50:55.556Z</time></trkpt><trkpt lat="42.3316183" lon="13.5948217"><ele>1038.6666666666667</ele><time>2026-05-03T07:50:56.556Z</time></trkpt><trkpt lat="42.33165" lon="13.5949333"><ele>1038.0</ele><time>2026-05-03T07:50:58.556Z</time></trkpt><trkpt lat="42.331775" lon="13.5949783"><ele>1038.0</ele><time>2026-05-03T07:51:00.556Z</time></trkpt><trkpt lat="42.331835" lon="13.5950183"><ele>1038.0</ele><time>2026-05-03T07:51:01.556Z</time></trkpt><trkpt lat="42.3318717" lon="13.595105"><ele>1038.0</ele><time>2026-05-03T07:51:02.555Z</time></trkpt><trkpt lat="42.3318983" lon="13.595235"><ele>1038.0</ele><time>2026-05-03T07:51:03.556Z</time></trkpt><trkpt lat="42.3319083" lon="13.5953967"><ele>1038.0</ele><time>2026-05-03T07:51:04.555Z</time></trkpt><trkpt lat="42.33192" lon="13.5955567"><ele>1037.4</ele><time>2026-05-03T07:51:05.556Z</time></trkpt><trkpt lat="42.3319283" lon="13.595675"><ele>1036.8</ele><time>2026-05-03T07:51:06.556Z</time></trkpt><trkpt lat="42.3319167" lon="13.5957667"><ele>1036.2</ele><time>2026-05-03T07:51:07.556Z</time></trkpt><trkpt lat="42.33188" lon="13.595865"><ele>1035.6</ele><time>2026-05-03T07:51:08.556Z</time></trkpt><trkpt lat="42.3318167" lon="13.5959617"><ele>1035.0</ele><time>2026-05-03T07:51:09.555Z</time></trkpt><trkpt lat="42.3317367" lon="13.59608"><ele>1035.3333333333333</ele><time>2026-05-03T07:51:10.556Z</time></trkpt><trkpt lat="42.3316633" lon="13.5961817"><ele>1035.6666666666667</ele><time>2026-05-03T07:51:11.556Z</time></trkpt><trkpt lat="42.3316017" lon="13.5962367"><ele>1036.0</ele><time>2026-05-03T07:51:12.555Z</time></trkpt><trkpt lat="42.3315383" lon="13.5962433"><ele>1036.3333333333335</ele><time>2026-05-03T07:51:13.556Z</time></trkpt><trkpt lat="42.3314567" lon="13.5962117"><ele>1036.6666666666667</ele><time>2026-05-03T07:51:14.556Z</time></trkpt><trkpt lat="42.33136" lon="13.5961767"><ele>1037.0</ele><time>2026-05-03T07:51:15.555Z</time></trkpt><trkpt lat="42.33127" lon="13.596175"><ele>1035.0</ele><time>2026-05-03T07:51:16.555Z</time></trkpt><trkpt lat="42.3311717" lon="13.5961917"><ele>1033.0</ele><time>2026-05-03T07:51:17.556Z</time></trkpt><trkpt lat="42.3310617" lon="13.5962383"><ele>1031.0</ele><time>2026-05-03T07:51:18.556Z</time></trkpt><trkpt lat="42.3309683" lon="13.5963033"><ele>1029.0</ele><time>2026-05-03T07:51:19.556Z</time></trkpt><trkpt lat="42.3308967" lon="13.5963933"><ele>1027.0</ele><time>2026-05-03T07:51:20.556Z</time></trkpt><trkpt lat="42.330835" lon="13.5965133"><ele>1027.0</ele><time>2026-05-03T07:51:21.556Z</time></trkpt><trkpt lat="42.33077" lon="13.59665"><ele>1027.0</ele><time>2026-05-03T07:51:22.556Z</time></trkpt><trkpt lat="42.33073" lon="13.5967633"><ele>1027.0</ele><time>2026-05-03T07:51:23.555Z</time></trkpt><trkpt lat="42.3307067" lon="13.5968817"><ele>1027.0</ele><time>2026-05-03T07:51:24.555Z</time></trkpt><trkpt lat="42.3306883" lon="13.5970183"><ele>1027.0</ele><time>2026-05-03T07:51:25.556Z</time></trkpt><trkpt lat="42.3306717" lon="13.5971517"><ele>1027.2</ele><time>2026-05-03T07:51:26.556Z</time></trkpt><trkpt lat="42.3306533" lon="13.5972833"><ele>1027.4</ele><time>2026-05-03T07:51:27.556Z</time></trkpt><trkpt lat="42.3306167" lon="13.597395"><ele>1027.6</ele><time>2026-05-03T07:51:28.556Z</time></trkpt><trkpt lat="42.3305583" lon="13.59748"><ele>1027.8</ele><time>2026-05-03T07:51:29.556Z</time></trkpt><trkpt lat="42.3304733" lon="13.597575"><ele>1028.0</ele><time>2026-05-03T07:51:30.556Z</time></trkpt><trkpt lat="42.3303667" lon="13.5976867"><ele>1027.0</ele><time>2026-05-03T07:51:31.555Z</time></trkpt><trkpt lat="42.3302583" lon="13.5978167"><ele>1026.0</ele><time>2026-05-03T07:51:32.555Z</time></trkpt><trkpt lat="42.330165" lon="13.5979267"><ele>1025.0</ele><time>2026-05-03T07:51:33.556Z</time></trkpt><trkpt lat="42.330075" lon="13.5979883"><ele>1024.0</ele><time>2026-05-03T07:51:34.556Z</time></trkpt><trkpt lat="42.32997" lon="13.5980233"><ele>1024.0</ele><time>2026-05-03T07:51:35.556Z</time></trkpt><trkpt lat="42.3298667" lon="13.5980633"><ele>1024.0</ele><time>2026-05-03T07:51:36.556Z</time></trkpt><trkpt lat="42.3297783" lon="13.5981283"><ele>1024.0</ele><time>2026-05-03T07:51:37.556Z</time></trkpt><trkpt lat="42.3296667" lon="13.598225"><ele>1024.0</ele><time>2026-05-03T07:51:38.556Z</time></trkpt><trkpt lat="42.329555" lon="13.5983283"><ele>1024.4</ele><time>2026-05-03T07:51:39.555Z</time></trkpt><trkpt lat="42.3294617" lon="13.59843"><ele>1024.8000000000002</ele><time>2026-05-03T07:51:40.556Z</time></trkpt><trkpt lat="42.3293733" lon="13.5985333"><ele>1025.1999999999998</ele><time>2026-05-03T07:51:41.556Z</time></trkpt><trkpt lat="42.32929" lon="13.5986067"><ele>1025.6</ele><time>2026-05-03T07:51:42.555Z</time></trkpt><trkpt lat="42.3292" lon="13.59864"><ele>1026.0</ele><time>2026-05-03T07:51:43.555Z</time></trkpt><trkpt lat="42.3291233" lon="13.5986733"><ele>1026.0</ele><time>2026-05-03T07:51:44.555Z</time></trkpt><trkpt lat="42.329055" lon="13.5987333"><ele>1026.0</ele><time>2026-05-03T07:51:45.555Z</time></trkpt><trkpt lat="42.3289767" lon="13.598825"><ele>1026.0</ele><time>2026-05-03T07:51:46.556Z</time></trkpt><trkpt lat="42.328895" lon="13.5989383"><ele>1026.0</ele><time>2026-05-03T07:51:47.556Z</time></trkpt><trkpt lat="42.3288" lon="13.599075"><ele>1026.0</ele><time>2026-05-03T07:51:48.556Z</time></trkpt><trkpt lat="42.328715" lon="13.5992167"><ele>1024.75</ele><time>2026-05-03T07:51:49.555Z</time></trkpt><trkpt lat="42.3286367" lon="13.5993583"><ele>1023.5</ele><time>2026-05-03T07:51:50.556Z</time></trkpt><trkpt lat="42.32857" lon="13.59948"><ele>1022.25</ele><time>2026-05-03T07:51:51.555Z</time></trkpt><trkpt lat="42.3285033" lon="13.5995683"><ele>1021.0</ele><time>2026-05-03T07:51:52.555Z</time></trkpt><trkpt lat="42.3284133" lon="13.5996683"><ele>1021.0</ele><time>2026-05-03T07:51:53.555Z</time></trkpt><trkpt lat="42.3283167" lon="13.5997667"><ele>1020.9999999999999</ele><time>2026-05-03T07:51:54.555Z</time></trkpt><trkpt lat="42.328235" lon="13.5998517"><ele>1020.9999999999999</ele><time>2026-05-03T07:51:55.555Z</time></trkpt><trkpt lat="42.3281567" lon="13.5999483"><ele>1021.0</ele><time>2026-05-03T07:51:56.556Z</time></trkpt><trkpt lat="42.328085" lon="13.6000483"><ele>1021.0</ele><time>2026-05-03T07:51:57.556Z</time></trkpt><trkpt lat="42.328035" lon="13.6001683"><ele>1020.5</ele><time>2026-05-03T07:51:58.556Z</time></trkpt><trkpt lat="42.3279683" lon="13.600305"><ele>1020.0</ele><time>2026-05-03T07:51:59.556Z</time></trkpt><trkpt lat="42.3278783" lon="13.60043"><ele>1019.5</ele><time>2026-05-03T07:52:00.556Z</time></trkpt><trkpt lat="42.3277867" lon="13.600545"><ele>1019.0</ele><time>2026-05-03T07:52:01.556Z</time></trkpt><trkpt lat="42.327695" lon="13.600665"><ele>1018.75</ele><time>2026-05-03T07:52:02.555Z</time></trkpt><trkpt lat="42.3276117" lon="13.6008033"><ele>1018.5</ele><time>2026-05-03T07:52:03.556Z</time></trkpt><trkpt lat="42.32754" lon="13.6009433"><ele>1018.25</ele><time>2026-05-03T07:52:04.556Z</time></trkpt><trkpt lat="42.32747" lon="13.601095"><ele>1018.0</ele><time>2026-05-03T07:52:05.555Z</time></trkpt><trkpt lat="42.32739" lon="13.6012483"><ele>1017.75</ele><time>2026-05-03T07:52:06.556Z</time></trkpt><trkpt lat="42.3273133" lon="13.6013867"><ele>1017.5</ele><time>2026-05-03T07:52:07.555Z</time></trkpt><trkpt lat="42.327245" lon="13.6015117"><ele>1017.25</ele><time>2026-05-03T07:52:08.556Z</time></trkpt><trkpt lat="42.3271817" lon="13.6016633"><ele>1017.0</ele><time>2026-05-03T07:52:09.555Z</time></trkpt><trkpt lat="42.3271083" lon="13.6018183"><ele>1017.0</ele><time>2026-05-03T07:52:10.555Z</time></trkpt><trkpt lat="42.32704" lon="13.6019583"><ele>1017.0</ele><time>2026-05-03T07:52:11.556Z</time></trkpt><trkpt lat="42.3269917" lon="13.6020917"><ele>1017.0</ele><time>2026-05-03T07:52:12.556Z</time></trkpt><trkpt lat="42.3269483" lon="13.602245"><ele>1017.0</ele><time>2026-05-03T07:52:13.555Z</time></trkpt><trkpt lat="42.3269117" lon="13.6024067"><ele>1017.0</ele><time>2026-05-03T07:52:14.555Z</time></trkpt><trkpt lat="42.3268767" lon="13.602585"><ele>1017.0</ele><time>2026-05-03T07:52:15.556Z</time></trkpt><trkpt lat="42.326835" lon="13.6027483"><ele>1017.0</ele><time>2026-05-03T07:52:16.555Z</time></trkpt><trkpt lat="42.3267683" lon="13.6028967"><ele>1017.0</ele><time>2026-05-03T07:52:17.556Z</time></trkpt><trkpt lat="42.3266917" lon="13.6030333"><ele>1017.0</ele><time>2026-05-03T07:52:18.555Z</time></trkpt><trkpt lat="42.32661" lon="13.6031767"><ele>1017.0</ele><time>2026-05-03T07:52:19.555Z</time></trkpt><trkpt lat="42.3265117" lon="13.6033117"><ele>1017.0</ele><time>2026-05-03T07:52:20.556Z</time></trkpt><trkpt lat="42.3264083" lon="13.6034383"><ele>1017.0</ele><time>2026-05-03T07:52:21.556Z</time></trkpt><trkpt lat="42.3263117" lon="13.6035617"><ele>1015.75</ele><time>2026-05-03T07:52:22.556Z</time></trkpt><trkpt lat="42.32623" lon="13.6036617"><ele>1014.5</ele><time>2026-05-03T07:52:23.555Z</time></trkpt><trkpt lat="42.326145" lon="13.60378"><ele>1013.25</ele><time>2026-05-03T07:52:24.556Z</time></trkpt><trkpt lat="42.326055" lon="13.603895"><ele>1012.0</ele><time>2026-05-03T07:52:25.555Z</time></trkpt><trkpt lat="42.3259717" lon="13.604005"><ele>1012.0</ele><time>2026-05-03T07:52:26.556Z</time></trkpt><trkpt lat="42.3258933" lon="13.6041317"><ele>1012.0</ele><time>2026-05-03T07:52:27.556Z</time></trkpt><trkpt lat="42.3258383" lon="13.6042517"><ele>1012.0</ele><time>2026-05-03T07:52:28.556Z</time></trkpt><trkpt lat="42.3258" lon="13.6043667"><ele>1012.0</ele><time>2026-05-03T07:52:29.556Z</time></trkpt><trkpt lat="42.3257383" lon="13.60447"><ele>1012.0</ele><time>2026-05-03T07:52:30.556Z</time></trkpt><trkpt lat="42.3256617" lon="13.60456"><ele>1011.75</ele><time>2026-05-03T07:52:31.556Z</time></trkpt><trkpt lat="42.3255817" lon="13.6046633"><ele>1011.5</ele><time>2026-05-03T07:52:32.555Z</time></trkpt><trkpt lat="42.3255133" lon="13.6047983"><ele>1011.25</ele><time>2026-05-03T07:52:33.556Z</time></trkpt><trkpt lat="42.3254467" lon="13.60493"><ele>1011.0</ele><time>2026-05-03T07:52:34.555Z</time></trkpt><trkpt lat="42.3253733" lon="13.6050667"><ele>1011.0</ele><time>2026-05-03T07:52:35.555Z</time></trkpt><trkpt lat="42.3252983" lon="13.6051867"><ele>1011.0</ele><time>2026-05-03T07:52:36.555Z</time></trkpt><trkpt lat="42.3252317" lon="13.6053083"><ele>1011.0</ele><time>2026-05-03T07:52:37.556Z</time></trkpt><trkpt lat="42.32517" lon="13.6054617"><ele>1011.0</ele><time>2026-05-03T07:52:38.556Z</time></trkpt><trkpt lat="42.3251133" lon="13.6056233"><ele>1009.8</ele><time>2026-05-03T07:52:39.556Z</time></trkpt><trkpt lat="42.3250683" lon="13.6057833"><ele>1008.5999999999999</ele><time>2026-05-03T07:52:40.555Z</time></trkpt><trkpt lat="42.3250217" lon="13.6059283"><ele>1007.4</ele><time>2026-05-03T07:52:41.556Z</time></trkpt><trkpt lat="42.3250083" lon="13.6060467"><ele>1006.2</ele><time>2026-05-03T07:52:42.556Z</time></trkpt><trkpt lat="42.3249983" lon="13.6061617"><ele>1005.0</ele><time>2026-05-03T07:52:43.555Z</time></trkpt><trkpt lat="42.3249933" lon="13.6062567"><ele>1005.0</ele><time>2026-05-03T07:52:44.556Z</time></trkpt><trkpt lat="42.324925" lon="13.606395"><ele>1005.0</ele><time>2026-05-03T07:52:46.555Z</time></trkpt><trkpt lat="42.3248433" lon="13.6064683"><ele>1005.0</ele><time>2026-05-03T07:52:47.556Z</time></trkpt><trkpt lat="42.3247667" lon="13.606545"><ele>1005.0</ele><time>2026-05-03T07:52:48.555Z</time></trkpt><trkpt lat="42.3247017" lon="13.6066233"><ele>1005.0</ele><time>2026-05-03T07:52:49.555Z</time></trkpt><trkpt lat="42.3246367" lon="13.6067033"><ele>1004.3333333333334</ele><time>2026-05-03T07:52:50.555Z</time></trkpt><trkpt lat="42.3245683" lon="13.6067667"><ele>1003.6666666666667</ele><time>2026-05-03T07:52:51.556Z</time></trkpt><trkpt lat="42.32449" lon="13.6068083"><ele>1003.0</ele><time>2026-05-03T07:52:52.556Z</time></trkpt><trkpt lat="42.324405" lon="13.6068783"><ele>1002.3333333333334</ele><time>2026-05-03T07:52:53.555Z</time></trkpt><trkpt lat="42.3243233" lon="13.6069467"><ele>1001.6666666666667</ele><time>2026-05-03T07:52:54.556Z</time></trkpt><trkpt lat="42.3242583" lon="13.60699"><ele>1001.0</ele><time>2026-05-03T07:52:55.556Z</time></trkpt><trkpt lat="42.3242033" lon="13.6070567"><ele>999.0</ele><time>2026-05-03T07:52:56.556Z</time></trkpt><trkpt lat="42.32414" lon="13.60715"><ele>996.9999999999999</ele><time>2026-05-03T07:52:57.556Z</time></trkpt><trkpt lat="42.324065" lon="13.6072683"><ele>994.9999999999999</ele><time>2026-05-03T07:52:58.556Z</time></trkpt><trkpt lat="42.3239933" lon="13.60738"><ele>993.0</ele><time>2026-05-03T07:52:59.555Z</time></trkpt><trkpt lat="42.3239317" lon="13.607475"><ele>991.0</ele><time>2026-05-03T07:53:00.556Z</time></trkpt><trkpt lat="42.3238917" lon="13.6075667"><ele>990.5999999999999</ele><time>2026-05-03T07:53:01.556Z</time></trkpt><trkpt lat="42.3238683" lon="13.60767"><ele>990.1999999999999</ele><time>2026-05-03T07:53:02.556Z</time></trkpt><trkpt lat="42.3238433" lon="13.6077767"><ele>989.8000000000001</ele><time>2026-05-03T07:53:03.556Z</time></trkpt><trkpt lat="42.3238033" lon="13.6078867"><ele>989.4000000000001</ele><time>2026-05-03T07:53:04.556Z</time></trkpt><trkpt lat="42.3237583" lon="13.6080067"><ele>989.0</ele><time>2026-05-03T07:53:05.555Z</time></trkpt><trkpt lat="42.3237083" lon="13.60813"><ele>989.0</ele><time>2026-05-03T07:53:06.556Z</time></trkpt><trkpt lat="42.3236467" lon="13.6082483"><ele>989.0000000000001</ele><time>2026-05-03T07:53:07.556Z</time></trkpt><trkpt lat="42.3236" lon="13.608355"><ele>989.0000000000001</ele><time>2026-05-03T07:53:08.556Z</time></trkpt><trkpt lat="42.3235617" lon="13.60845"><ele>989.0</ele><time>2026-05-03T07:53:09.556Z</time></trkpt><trkpt lat="42.3235283" lon="13.6085567"><ele>989.0</ele><time>2026-05-03T07:53:10.556Z</time></trkpt><trkpt lat="42.3234883" lon="13.6086833"><ele>985.75</ele><time>2026-05-03T07:53:11.555Z</time></trkpt><trkpt lat="42.323435" lon="13.60883"><ele>982.5</ele><time>2026-05-03T07:53:12.556Z</time></trkpt><trkpt lat="42.3233567" lon="13.6089833"><ele>979.25</ele><time>2026-05-03T07:53:13.556Z</time></trkpt><trkpt lat="42.3232667" lon="13.609135"><ele>976.0</ele><time>2026-05-03T07:53:14.556Z</time></trkpt><trkpt lat="42.3231967" lon="13.6092867"><ele>976.0</ele><time>2026-05-03T07:53:15.555Z</time></trkpt><trkpt lat="42.3231317" lon="13.6094533"><ele>976.0</ele><time>2026-05-03T07:53:16.556Z</time></trkpt><trkpt lat="42.3230683" lon="13.6095933"><ele>976.0</ele><time>2026-05-03T07:53:17.555Z</time></trkpt><trkpt lat="42.322995" lon="13.6097217"><ele>976.0</ele><time>2026-05-03T07:53:18.556Z</time></trkpt><trkpt lat="42.3229133" lon="13.6098717"><ele>976.0</ele><time>2026-05-03T07:53:19.555Z</time></trkpt><trkpt lat="42.322825" lon="13.6100267"><ele>976.0</ele><time>2026-05-03T07:53:20.555Z</time></trkpt><trkpt lat="42.3227483" lon="13.6101583"><ele>976.0</ele><time>2026-05-03T07:53:21.555Z</time></trkpt><trkpt lat="42.32268" lon="13.6102767"><ele>976.0</ele><time>2026-05-03T07:53:22.556Z</time></trkpt><trkpt lat="42.322635" lon="13.6104117"><ele>973.8</ele><time>2026-05-03T07:53:23.556Z</time></trkpt><trkpt lat="42.3225883" lon="13.6105417"><ele>971.5999999999999</ele><time>2026-05-03T07:53:24.556Z</time></trkpt><trkpt lat="42.3225283" lon="13.610665"><ele>969.4</ele><time>2026-05-03T07:53:25.556Z</time></trkpt><trkpt lat="42.3224517" lon="13.6107733"><ele>967.2</ele><time>2026-05-03T07:53:26.556Z</time></trkpt><trkpt lat="42.322365" lon="13.6108833"><ele>965.0</ele><time>2026-05-03T07:53:27.556Z</time></trkpt><trkpt lat="42.3222717" lon="13.6110067"><ele>965.5000000000001</ele><time>2026-05-03T07:53:28.556Z</time></trkpt><trkpt lat="42.3221833" lon="13.611115"><ele>966.0</ele><time>2026-05-03T07:53:29.556Z</time></trkpt><trkpt lat="42.32211" lon="13.6112033"><ele>966.5</ele><time>2026-05-03T07:53:30.556Z</time></trkpt><trkpt lat="42.3220433" lon="13.6112767"><ele>967.0</ele><time>2026-05-03T07:53:31.556Z</time></trkpt><trkpt lat="42.32198" lon="13.6113217"><ele>967.5000000000001</ele><time>2026-05-03T07:53:32.555Z</time></trkpt><trkpt lat="42.3219183" lon="13.6113567"><ele>968.0</ele><time>2026-05-03T07:53:33.556Z</time></trkpt><trkpt lat="42.3218667" lon="13.6114133"><ele>965.5999999999999</ele><time>2026-05-03T07:53:34.556Z</time></trkpt><trkpt lat="42.3218033" lon="13.6115083"><ele>963.1999999999999</ele><time>2026-05-03T07:53:35.556Z</time></trkpt><trkpt lat="42.32173" lon="13.611635"><ele>960.8</ele><time>2026-05-03T07:53:36.555Z</time></trkpt><trkpt lat="42.3216733" lon="13.6117567"><ele>958.4</ele><time>2026-05-03T07:53:37.556Z</time></trkpt><trkpt lat="42.3216283" lon="13.61187"><ele>956.0</ele><time>2026-05-03T07:53:38.556Z</time></trkpt><trkpt lat="42.3215933" lon="13.6120033"><ele>955.0</ele><time>2026-05-03T07:53:39.556Z</time></trkpt><trkpt lat="42.3215533" lon="13.612155"><ele>953.9999999999999</ele><time>2026-05-03T07:53:40.555Z</time></trkpt><trkpt lat="42.3215083" lon="13.6123017"><ele>952.9999999999999</ele><time>2026-05-03T07:53:41.555Z</time></trkpt><trkpt lat="42.321465" lon="13.6124"><ele>952.0</ele><time>2026-05-03T07:53:42.556Z</time></trkpt><trkpt lat="42.3214083" lon="13.612505"><ele>951.0</ele><time>2026-05-03T07:53:43.556Z</time></trkpt><trkpt lat="42.3213417" lon="13.6126067"><ele>949.75</ele><time>2026-05-03T07:53:44.555Z</time></trkpt><trkpt lat="42.3212783" lon="13.6127167"><ele>948.5</ele><time>2026-05-03T07:53:45.556Z</time></trkpt><trkpt lat="42.3212117" lon="13.61285"><ele>947.25</ele><time>2026-05-03T07:53:46.556Z</time></trkpt><trkpt lat="42.3211267" lon="13.613005"><ele>946.0</ele><time>2026-05-03T07:53:47.556Z</time></trkpt><trkpt lat="42.3210233" lon="13.6131483"><ele>946.0</ele><time>2026-05-03T07:53:48.556Z</time></trkpt><trkpt lat="42.320925" lon="13.6132767"><ele>945.9999999999999</ele><time>2026-05-03T07:53:49.555Z</time></trkpt><trkpt lat="42.3208383" lon="13.61336"><ele>945.9999999999999</ele><time>2026-05-03T07:53:50.555Z</time></trkpt><trkpt lat="42.3207783" lon="13.6134067"><ele>946.0</ele><time>2026-05-03T07:53:51.555Z</time></trkpt><trkpt lat="42.3206783" lon="13.61339"><ele>946.0</ele><time>2026-05-03T07:53:53.556Z</time></trkpt><trkpt lat="42.3206183" lon="13.6133183"><ele>947.0</ele><time>2026-05-03T07:53:54.555Z</time></trkpt><trkpt lat="42.3205567" lon="13.6132017"><ele>947.9999999999999</ele><time>2026-05-03T07:53:55.556Z</time></trkpt><trkpt lat="42.3205083" lon="13.6130733"><ele>948.9999999999999</ele><time>2026-05-03T07:53:56.556Z</time></trkpt><trkpt lat="42.3204683" lon="13.6129667"><ele>950.0</ele><time>2026-05-03T07:53:57.555Z</time></trkpt><trkpt lat="42.3204317" lon="13.61287"><ele>951.0</ele><time>2026-05-03T07:53:59.556Z</time></trkpt><trkpt lat="42.3203883" lon="13.6130167"><ele>951.0</ele><time>2026-05-03T07:54:07.555Z</time></trkpt><trkpt lat="42.3203833" lon="13.613105"><ele>951.0</ele><time>2026-05-03T07:54:08.556Z</time></trkpt><trkpt lat="42.32041" lon="13.6132317"><ele>951.0</ele><time>2026-05-03T07:54:10.556Z</time></trkpt><trkpt lat="42.32043" lon="13.6133183"><ele>951.0</ele><time>2026-05-03T07:54:12.555Z</time></trkpt><trkpt lat="42.320375" lon="13.61345"><ele>951.0</ele><time>2026-05-03T07:54:14.556Z</time></trkpt><trkpt lat="42.32032" lon="13.6135533"><ele>951.0</ele><time>2026-05-03T07:54:15.555Z</time></trkpt><trkpt lat="42.3202617" lon="13.6136883"><ele>950.5999999999999</ele><time>2026-05-03T07:54:16.556Z</time></trkpt><trkpt lat="42.320215" lon="13.6138183"><ele>950.1999999999999</ele><time>2026-05-03T07:54:17.556Z</time></trkpt><trkpt lat="42.3201883" lon="13.6139517"><ele>949.8000000000001</ele><time>2026-05-03T07:54:18.555Z</time></trkpt><trkpt lat="42.3201567" lon="13.6141067"><ele>949.4000000000001</ele><time>2026-05-03T07:54:19.555Z</time></trkpt><trkpt lat="42.3201" lon="13.6142383"><ele>949.0</ele><time>2026-05-03T07:54:20.556Z</time></trkpt><trkpt lat="42.3200383" lon="13.6143433"><ele>949.0</ele><time>2026-05-03T07:54:21.556Z</time></trkpt><trkpt lat="42.3199767" lon="13.6144167"><ele>949.0000000000001</ele><time>2026-05-03T07:54:22.556Z</time></trkpt><trkpt lat="42.3199183" lon="13.6145017"><ele>949.0000000000001</ele><time>2026-05-03T07:54:23.555Z</time></trkpt><trkpt lat="42.3198633" lon="13.6146017"><ele>949.0</ele><time>2026-05-03T07:54:24.556Z</time></trkpt><trkpt lat="42.3198033" lon="13.61472"><ele>949.0</ele><time>2026-05-03T07:54:25.555Z</time></trkpt><trkpt lat="42.3197417" lon="13.61485"><ele>950.5</ele><time>2026-05-03T07:54:26.556Z</time></trkpt><trkpt lat="42.31967" lon="13.6149783"><ele>952.0</ele><time>2026-05-03T07:54:27.555Z</time></trkpt><trkpt lat="42.3195983" lon="13.6151233"><ele>953.5</ele><time>2026-05-03T07:54:28.556Z</time></trkpt><trkpt lat="42.31954" lon="13.61526"><ele>955.0</ele><time>2026-05-03T07:54:29.556Z</time></trkpt><trkpt lat="42.3194867" lon="13.6153667"><ele>955.0</ele><time>2026-05-03T07:54:30.556Z</time></trkpt><trkpt lat="42.31942" lon="13.61546"><ele>955.0</ele><time>2026-05-03T07:54:31.556Z</time></trkpt><trkpt lat="42.3193517" lon="13.6155533"><ele>955.0</ele><time>2026-05-03T07:54:32.555Z</time></trkpt><trkpt lat="42.31929" lon="13.6156383"><ele>955.0</ele><time>2026-05-03T07:54:33.556Z</time></trkpt><trkpt lat="42.319235" lon="13.6157283"><ele>955.0</ele><time>2026-05-03T07:54:34.556Z</time></trkpt><trkpt lat="42.319185" lon="13.6158183"><ele>954.9999999999999</ele><time>2026-05-03T07:54:35.556Z</time></trkpt><trkpt lat="42.3191617" lon="13.615905"><ele>955.0</ele><time>2026-05-03T07:54:36.556Z</time></trkpt><trkpt lat="42.31912" lon="13.61606"><ele>955.0</ele><time>2026-05-03T07:54:38.556Z</time></trkpt><trkpt lat="42.3190933" lon="13.61615"><ele>955.0</ele><time>2026-05-03T07:54:39.556Z</time></trkpt><trkpt lat="42.3190583" lon="13.61624"><ele>954.9999999999999</ele><time>2026-05-03T07:54:40.556Z</time></trkpt><trkpt lat="42.3190167" lon="13.6163333"><ele>955.0</ele><time>2026-05-03T07:54:41.555Z</time></trkpt><trkpt lat="42.3189667" lon="13.6164283"><ele>954.8333333333333</ele><time>2026-05-03T07:54:42.555Z</time></trkpt><trkpt lat="42.3189083" lon="13.6165183"><ele>954.6666666666666</ele><time>2026-05-03T07:54:43.555Z</time></trkpt><trkpt lat="42.3188433" lon="13.6166167"><ele>954.5</ele><time>2026-05-03T07:54:44.555Z</time></trkpt><trkpt lat="42.3187617" lon="13.6167033"><ele>954.3333333333333</ele><time>2026-05-03T07:54:45.556Z</time></trkpt><trkpt lat="42.3186917" lon="13.6167667"><ele>954.1666666666666</ele><time>2026-05-03T07:54:46.555Z</time></trkpt><trkpt lat="42.3186367" lon="13.6168183"><ele>954.0</ele><time>2026-05-03T07:54:47.555Z</time></trkpt><trkpt lat="42.3185967" lon="13.6168867"><ele>955.0</ele><time>2026-05-03T07:54:48.556Z</time></trkpt><trkpt lat="42.318545" lon="13.616975"><ele>956.0000000000001</ele><time>2026-05-03T07:54:49.556Z</time></trkpt><trkpt lat="42.31848" lon="13.6170583"><ele>957.0000000000001</ele><time>2026-05-03T07:54:50.556Z</time></trkpt><trkpt lat="42.318405" lon="13.6171417"><ele>958.0</ele><time>2026-05-03T07:54:51.555Z</time></trkpt><trkpt lat="42.3183167" lon="13.6172033"><ele>959.0</ele><time>2026-05-03T07:54:52.556Z</time></trkpt><trkpt lat="42.3182267" lon="13.6172767"><ele>959.0</ele><time>2026-05-03T07:54:53.556Z</time></trkpt><trkpt lat="42.31814" lon="13.6173633"><ele>959.0000000000001</ele><time>2026-05-03T07:54:54.556Z</time></trkpt><trkpt lat="42.3180517" lon="13.6174317"><ele>959.0000000000001</ele><time>2026-05-03T07:54:55.555Z</time></trkpt><trkpt lat="42.3179483" lon="13.6175067"><ele>959.0</ele><time>2026-05-03T07:54:56.555Z</time></trkpt><trkpt lat="42.3178533" lon="13.6176"><ele>959.0</ele><time>2026-05-03T07:54:57.555Z</time></trkpt><trkpt lat="42.3177483" lon="13.6176933"><ele>959.6</ele><time>2026-05-03T07:54:58.556Z</time></trkpt><trkpt lat="42.31764" lon="13.617795"><ele>960.2</ele><time>2026-05-03T07:54:59.556Z</time></trkpt><trkpt lat="42.3175533" lon="13.6178833"><ele>960.8000000000001</ele><time>2026-05-03T07:55:00.555Z</time></trkpt><trkpt lat="42.3174833" lon="13.6179683"><ele>961.4000000000001</ele><time>2026-05-03T07:55:01.556Z</time></trkpt><trkpt lat="42.31741" lon="13.61804"><ele>962.0</ele><time>2026-05-03T07:55:02.555Z</time></trkpt><trkpt lat="42.3173167" lon="13.6181283"><ele>966.0</ele><time>2026-05-03T07:55:03.556Z</time></trkpt><trkpt lat="42.31721" lon="13.61824"><ele>970.0</ele><time>2026-05-03T07:55:04.556Z</time></trkpt><trkpt lat="42.3170917" lon="13.6183517"><ele>974.0</ele><time>2026-05-03T07:55:05.555Z</time></trkpt><trkpt lat="42.316995" lon="13.618455"><ele>978.0</ele><time>2026-05-03T07:55:06.556Z</time></trkpt><trkpt lat="42.31691" lon="13.6185583"><ele>978.0</ele><time>2026-05-03T07:55:07.556Z</time></trkpt><trkpt lat="42.31682" lon="13.6186383"><ele>978.0</ele><time>2026-05-03T07:55:08.556Z</time></trkpt><trkpt lat="42.3167333" lon="13.6187"><ele>978.0</ele><time>2026-05-03T07:55:09.555Z</time></trkpt><trkpt lat="42.316655" lon="13.6187617"><ele>978.0</ele><time>2026-05-03T07:55:10.556Z</time></trkpt><trkpt lat="42.3165833" lon="13.6188367"><ele>978.0</ele><time>2026-05-03T07:55:11.556Z</time></trkpt><trkpt lat="42.3165083" lon="13.6188983"><ele>978.6666666666666</ele><time>2026-05-03T07:55:12.556Z</time></trkpt><trkpt lat="42.3164383" lon="13.618965"><ele>979.3333333333333</ele><time>2026-05-03T07:55:13.556Z</time></trkpt><trkpt lat="42.316365" lon="13.6190383"><ele>980.0</ele><time>2026-05-03T07:55:14.556Z</time></trkpt><trkpt lat="42.3163117" lon="13.6191183"><ele>980.6666666666666</ele><time>2026-05-03T07:55:15.556Z</time></trkpt><trkpt lat="42.3162733" lon="13.6191967"><ele>981.3333333333333</ele><time>2026-05-03T07:55:16.556Z</time></trkpt><trkpt lat="42.316245" lon="13.6192933"><ele>982.0</ele><time>2026-05-03T07:55:17.556Z</time></trkpt><trkpt lat="42.3162317" lon="13.6194"><ele>981.4999999999999</ele><time>2026-05-03T07:55:18.556Z</time></trkpt><trkpt lat="42.3162167" lon="13.6194983"><ele>981.0</ele><time>2026-05-03T07:55:19.556Z</time></trkpt><trkpt lat="42.31621" lon="13.619605"><ele>980.5</ele><time>2026-05-03T07:55:20.556Z</time></trkpt><trkpt lat="42.3161983" lon="13.6196983"><ele>980.0</ele><time>2026-05-03T07:55:21.556Z</time></trkpt><trkpt lat="42.31615" lon="13.6198133"><ele>979.4999999999999</ele><time>2026-05-03T07:55:23.556Z</time></trkpt><trkpt lat="42.3160367" lon="13.6198733"><ele>979.0</ele><time>2026-05-03T07:55:25.555Z</time></trkpt><trkpt lat="42.31598" lon="13.619935"><ele>979.0</ele><time>2026-05-03T07:55:26.556Z</time></trkpt><trkpt lat="42.3159083" lon="13.620015"><ele>979.0000000000001</ele><time>2026-05-03T07:55:27.555Z</time></trkpt><trkpt lat="42.31583" lon="13.62011"><ele>979.0000000000001</ele><time>2026-05-03T07:55:28.556Z</time></trkpt><trkpt lat="42.3157483" lon="13.620245"><ele>979.0</ele><time>2026-05-03T07:55:29.556Z</time></trkpt><trkpt lat="42.31568" lon="13.62037"><ele>979.0</ele><time>2026-05-03T07:55:30.556Z</time></trkpt><trkpt lat="42.3156133" lon="13.620435"><ele>979.1666666666666</ele><time>2026-05-03T07:55:31.555Z</time></trkpt><trkpt lat="42.3155433" lon="13.6204467"><ele>979.3333333333333</ele><time>2026-05-03T07:55:32.555Z</time></trkpt><trkpt lat="42.3154433" lon="13.62046"><ele>979.5</ele><time>2026-05-03T07:55:34.556Z</time></trkpt><trkpt lat="42.3153867" lon="13.6205217"><ele>979.6666666666667</ele><time>2026-05-03T07:55:35.556Z</time></trkpt><trkpt lat="42.3153233" lon="13.6206217"><ele>979.8333333333334</ele><time>2026-05-03T07:55:36.556Z</time></trkpt><trkpt lat="42.315265" lon="13.6207067"><ele>980.0</ele><time>2026-05-03T07:55:37.556Z</time></trkpt><trkpt lat="42.3152017" lon="13.62079"><ele>980.0</ele><time>2026-05-03T07:55:38.556Z</time></trkpt><trkpt lat="42.3151133" lon="13.62089"><ele>980.0</ele><time>2026-05-03T07:55:39.556Z</time></trkpt><trkpt lat="42.3149983" lon="13.6209817"><ele>980.0</ele><time>2026-05-03T07:55:40.556Z</time></trkpt><trkpt lat="42.3148667" lon="13.62106"><ele>980.0</ele><time>2026-05-03T07:55:41.556Z</time></trkpt><trkpt lat="42.314735" lon="13.6211233"><ele>980.2</ele><time>2026-05-03T07:55:42.555Z</time></trkpt><trkpt lat="42.3146267" lon="13.62119"><ele>980.4</ele><time>2026-05-03T07:55:43.555Z</time></trkpt><trkpt lat="42.314535" lon="13.6212483"><ele>980.5999999999999</ele><time>2026-05-03T07:55:44.556Z</time></trkpt><trkpt lat="42.3144567" lon="13.62131"><ele>980.8</ele><time>2026-05-03T07:55:45.556Z</time></trkpt><trkpt lat="42.314375" lon="13.621385"><ele>981.0</ele><time>2026-05-03T07:55:46.556Z</time></trkpt><trkpt lat="42.3142883" lon="13.62147"><ele>981.0</ele><time>2026-05-03T07:55:47.556Z</time></trkpt><trkpt lat="42.3141883" lon="13.6215567"><ele>980.9999999999999</ele><time>2026-05-03T07:55:48.556Z</time></trkpt><trkpt lat="42.3140917" lon="13.6216333"><ele>980.9999999999999</ele><time>2026-05-03T07:55:49.556Z</time></trkpt><trkpt lat="42.3140233" lon="13.6217017"><ele>981.0</ele><time>2026-05-03T07:55:50.556Z</time></trkpt><trkpt lat="42.313935" lon="13.6217717"><ele>981.0</ele><time>2026-05-03T07:55:52.556Z</time></trkpt><trkpt lat="42.3138583" lon="13.6217267"><ele>983.0</ele><time>2026-05-03T07:55:54.555Z</time></trkpt><trkpt lat="42.3137467" lon="13.6216917"><ele>985.0</ele><time>2026-05-03T07:55:56.556Z</time></trkpt><trkpt lat="42.3136783" lon="13.62171"><ele>987.0</ele><time>2026-05-03T07:55:57.556Z</time></trkpt><trkpt lat="42.313625" lon="13.6217617"><ele>989.0</ele><time>2026-05-03T07:55:58.556Z</time></trkpt><trkpt lat="42.3135633" lon="13.6218183"><ele>991.0</ele><time>2026-05-03T07:55:59.556Z</time></trkpt><trkpt lat="42.3134933" lon="13.6218767"><ele>993.0</ele><time>2026-05-03T07:56:00.556Z</time></trkpt><trkpt lat="42.313415" lon="13.6219417"><ele>991.0</ele><time>2026-05-03T07:56:01.556Z</time></trkpt><trkpt lat="42.3133467" lon="13.6220167"><ele>989.0</ele><time>2026-05-03T07:56:02.556Z</time></trkpt><trkpt lat="42.31329" lon="13.6220983"><ele>987.0</ele><time>2026-05-03T07:56:03.556Z</time></trkpt><trkpt lat="42.3132283" lon="13.6221867"><ele>985.0</ele><time>2026-05-03T07:56:04.556Z</time></trkpt><trkpt lat="42.31316" lon="13.6222933"><ele>983.0</ele><time>2026-05-03T07:56:05.556Z</time></trkpt><trkpt lat="42.3130917" lon="13.6224017"><ele>984.5999999999999</ele><time>2026-05-03T07:56:06.555Z</time></trkpt><trkpt lat="42.3130183" lon="13.6224933"><ele>986.1999999999999</ele><time>2026-05-03T07:56:07.556Z</time></trkpt><trkpt lat="42.312945" lon="13.622585"><ele>987.8</ele><time>2026-05-03T07:56:08.556Z</time></trkpt><trkpt lat="42.3128833" lon="13.6226717"><ele>989.4</ele><time>2026-05-03T07:56:09.556Z</time></trkpt><trkpt lat="42.3128333" lon="13.62277"><ele>991.0</ele><time>2026-05-03T07:56:10.556Z</time></trkpt><trkpt lat="42.3127783" lon="13.622865"><ele>990.9999999999999</ele><time>2026-05-03T07:56:11.556Z</time></trkpt><trkpt lat="42.3127283" lon="13.6229417"><ele>991.0</ele><time>2026-05-03T07:56:12.555Z</time></trkpt><trkpt lat="42.3126833" lon="13.6230383"><ele>991.0</ele><time>2026-05-03T07:56:13.556Z</time></trkpt><trkpt lat="42.3126417" lon="13.62313"><ele>991.0</ele><time>2026-05-03T07:56:14.556Z</time></trkpt><trkpt lat="42.3126083" lon="13.623215"><ele>990.9999999999999</ele><time>2026-05-03T07:56:15.556Z</time></trkpt><trkpt lat="42.3125367" lon="13.6232983"><ele>991.0</ele><time>2026-05-03T07:56:16.555Z</time></trkpt><trkpt lat="42.31248" lon="13.62336"><ele>990.9999999999999</ele><time>2026-05-03T07:56:17.556Z</time></trkpt><trkpt lat="42.3124017" lon="13.62348"><ele>991.0</ele><time>2026-05-03T07:56:19.556Z</time></trkpt><trkpt lat="42.3123667" lon="13.6235617"><ele>991.0</ele><time>2026-05-03T07:56:20.556Z</time></trkpt><trkpt lat="42.3123217" lon="13.6236483"><ele>991.0</ele><time>2026-05-03T07:56:21.555Z</time></trkpt><trkpt lat="42.3122667" lon="13.6237433"><ele>990.9999999999999</ele><time>2026-05-03T07:56:22.555Z</time></trkpt><trkpt lat="42.312215" lon="13.62384"><ele>991.0</ele><time>2026-05-03T07:56:23.555Z</time></trkpt><trkpt lat="42.31217" lon="13.623935"><ele>991.5999999999999</ele><time>2026-05-03T07:56:24.556Z</time></trkpt><trkpt lat="42.3121283" lon="13.6240267"><ele>992.1999999999999</ele><time>2026-05-03T07:56:25.556Z</time></trkpt><trkpt lat="42.3120667" lon="13.6241367"><ele>992.8000000000001</ele><time>2026-05-03T07:56:26.556Z</time></trkpt><trkpt lat="42.3120083" lon="13.6242517"><ele>993.4000000000001</ele><time>2026-05-03T07:56:27.556Z</time></trkpt><trkpt lat="42.3119483" lon="13.624365"><ele>994.0</ele><time>2026-05-03T07:56:28.556Z</time></trkpt><trkpt lat="42.3118867" lon="13.62449"><ele>994.0</ele><time>2026-05-03T07:56:29.555Z</time></trkpt><trkpt lat="42.3118267" lon="13.624605"><ele>994.0000000000001</ele><time>2026-05-03T07:56:30.555Z</time></trkpt><trkpt lat="42.31177" lon="13.6247083"><ele>994.0000000000001</ele><time>2026-05-03T07:56:31.555Z</time></trkpt><trkpt lat="42.3117133" lon="13.6247983"><ele>994.0</ele><time>2026-05-03T07:56:32.556Z</time></trkpt><trkpt lat="42.3116433" lon="13.624875"><ele>994.0</ele><time>2026-05-03T07:56:33.556Z</time></trkpt><trkpt lat="42.311565" lon="13.6249583"><ele>994.0</ele><time>2026-05-03T07:56:34.556Z</time></trkpt><trkpt lat="42.311495" lon="13.6250567"><ele>994.0000000000001</ele><time>2026-05-03T07:56:35.555Z</time></trkpt><trkpt lat="42.311435" lon="13.62517"><ele>994.0000000000001</ele><time>2026-05-03T07:56:36.556Z</time></trkpt><trkpt lat="42.3113633" lon="13.6252967"><ele>994.0</ele><time>2026-05-03T07:56:37.556Z</time></trkpt><trkpt lat="42.3112933" lon="13.625435"><ele>994.0</ele><time>2026-05-03T07:56:38.556Z</time></trkpt><trkpt lat="42.3112283" lon="13.6255717"><ele>998.5</ele><time>2026-05-03T07:56:39.555Z</time></trkpt><trkpt lat="42.3111617" lon="13.625695"><ele>1003.0</ele><time>2026-05-03T07:56:40.555Z</time></trkpt><trkpt lat="42.3110967" lon="13.6258217"><ele>1007.5</ele><time>2026-05-03T07:56:41.555Z</time></trkpt><trkpt lat="42.3110217" lon="13.6259483"><ele>1012.0</ele><time>2026-05-03T07:56:42.555Z</time></trkpt><trkpt lat="42.3109533" lon="13.6260833"><ele>1010.0</ele><time>2026-05-03T07:56:43.555Z</time></trkpt><trkpt lat="42.3108917" lon="13.6262233"><ele>1008.0</ele><time>2026-05-03T07:56:44.556Z</time></trkpt><trkpt lat="42.3108367" lon="13.626345"><ele>1006.0</ele><time>2026-05-03T07:56:45.556Z</time></trkpt><trkpt lat="42.31078" lon="13.626455"><ele>1004.0</ele><time>2026-05-03T07:56:46.556Z</time></trkpt><trkpt lat="42.310715" lon="13.6265683"><ele>1002.0</ele><time>2026-05-03T07:56:47.556Z</time></trkpt><trkpt lat="42.31066" lon="13.6266767"><ele>1002.0</ele><time>2026-05-03T07:56:48.555Z</time></trkpt><trkpt lat="42.310575" lon="13.6267983"><ele>1002.0</ele><time>2026-05-03T07:56:49.555Z</time></trkpt><trkpt lat="42.3105067" lon="13.6269183"><ele>1002.0</ele><time>2026-05-03T07:56:50.556Z</time></trkpt><trkpt lat="42.3104483" lon="13.6270533"><ele>1002.0</ele><time>2026-05-03T07:56:51.556Z</time></trkpt><trkpt lat="42.3103867" lon="13.6271883"><ele>1003.0</ele><time>2026-05-03T07:56:52.556Z</time></trkpt><trkpt lat="42.3103333" lon="13.6273167"><ele>1004.0</ele><time>2026-05-03T07:56:53.555Z</time></trkpt><trkpt lat="42.31028" lon="13.6274433"><ele>1005.0</ele><time>2026-05-03T07:56:54.555Z</time></trkpt><trkpt lat="42.310225" lon="13.6275533"><ele>1006.0</ele><time>2026-05-03T07:56:55.556Z</time></trkpt><trkpt lat="42.3101717" lon="13.62763"><ele>1007.0</ele><time>2026-05-03T07:56:56.556Z</time></trkpt><trkpt lat="42.3101217" lon="13.62769"><ele>1007.0</ele><time>2026-05-03T07:56:57.556Z</time></trkpt><trkpt lat="42.31007" lon="13.6277533"><ele>1007.0</ele><time>2026-05-03T07:56:58.556Z</time></trkpt><trkpt lat="42.310035" lon="13.6278367"><ele>1007.0</ele><time>2026-05-03T07:56:59.556Z</time></trkpt><trkpt lat="42.3099867" lon="13.6279533"><ele>1007.0</ele><time>2026-05-03T07:57:00.555Z</time></trkpt><trkpt lat="42.3099267" lon="13.628085"><ele>1007.0</ele><time>2026-05-03T07:57:01.555Z</time></trkpt><trkpt lat="42.3098683" lon="13.6282233"><ele>1008.5</ele><time>2026-05-03T07:57:02.556Z</time></trkpt><trkpt lat="42.3098033" lon="13.6283567"><ele>1010.0</ele><time>2026-05-03T07:57:03.555Z</time></trkpt><trkpt lat="42.3097317" lon="13.6284917"><ele>1011.5</ele><time>2026-05-03T07:57:04.556Z</time></trkpt><trkpt lat="42.3096783" lon="13.62862"><ele>1013.0</ele><time>2026-05-03T07:57:05.556Z</time></trkpt><trkpt lat="42.3096217" lon="13.6287333"><ele>1013.0</ele><time>2026-05-03T07:57:06.556Z</time></trkpt><trkpt lat="42.3095717" lon="13.6288333"><ele>1013.0</ele><time>2026-05-03T07:57:07.556Z</time></trkpt><trkpt lat="42.3095167" lon="13.62894"><ele>1013.0</ele><time>2026-05-03T07:57:08.556Z</time></trkpt><trkpt lat="42.3094767" lon="13.6290633"><ele>1013.0</ele><time>2026-05-03T07:57:09.555Z</time></trkpt><trkpt lat="42.3094383" lon="13.62917"><ele>1013.0</ele><time>2026-05-03T07:57:10.556Z</time></trkpt><trkpt lat="42.30939" lon="13.6292567"><ele>1013.0</ele><time>2026-05-03T07:57:11.555Z</time></trkpt><trkpt lat="42.3093183" lon="13.62936"><ele>1013.0</ele><time>2026-05-03T07:57:12.555Z</time></trkpt><trkpt lat="42.30926" lon="13.629455"><ele>1013.0</ele><time>2026-05-03T07:57:13.556Z</time></trkpt><trkpt lat="42.30919" lon="13.62955"><ele>1013.0</ele><time>2026-05-03T07:57:14.556Z</time></trkpt><trkpt lat="42.309115" lon="13.6296667"><ele>1013.0</ele><time>2026-05-03T07:57:15.556Z</time></trkpt><trkpt lat="42.3090417" lon="13.6297967"><ele>1012.4</ele><time>2026-05-03T07:57:16.556Z</time></trkpt><trkpt lat="42.308975" lon="13.6298867"><ele>1011.8</ele><time>2026-05-03T07:57:17.556Z</time></trkpt><trkpt lat="42.30893" lon="13.6299733"><ele>1011.2</ele><time>2026-05-03T07:57:18.556Z</time></trkpt><trkpt lat="42.3089133" lon="13.6300683"><ele>1010.6</ele><time>2026-05-03T07:57:19.556Z</time></trkpt><trkpt lat="42.3088933" lon="13.6301867"><ele>1010.0</ele><time>2026-05-03T07:57:20.556Z</time></trkpt><trkpt lat="42.3088667" lon="13.630345"><ele>1009.8</ele><time>2026-05-03T07:57:21.556Z</time></trkpt><trkpt lat="42.308835" lon="13.6304867"><ele>1009.6</ele><time>2026-05-03T07:57:22.556Z</time></trkpt><trkpt lat="42.3088267" lon="13.6306133"><ele>1009.4000000000001</ele><time>2026-05-03T07:57:23.556Z</time></trkpt><trkpt lat="42.3088367" lon="13.63073"><ele>1009.2</ele><time>2026-05-03T07:57:24.556Z</time></trkpt><trkpt lat="42.3088433" lon="13.630855"><ele>1009.0</ele><time>2026-05-03T07:57:25.556Z</time></trkpt><trkpt lat="42.3088767" lon="13.630985"><ele>1009.0</ele><time>2026-05-03T07:57:26.556Z</time></trkpt><trkpt lat="42.3089083" lon="13.6310917"><ele>1009.0000000000001</ele><time>2026-05-03T07:57:27.555Z</time></trkpt><trkpt lat="42.308935" lon="13.6312383"><ele>1009.0000000000001</ele><time>2026-05-03T07:57:29.556Z</time></trkpt><trkpt lat="42.3089083" lon="13.631375"><ele>1009.0</ele><time>2026-05-03T07:57:31.556Z</time></trkpt><trkpt lat="42.30888" lon="13.63146"><ele>1009.0</ele><time>2026-05-03T07:57:32.556Z</time></trkpt><trkpt lat="42.3088317" lon="13.6315917"><ele>1007.0</ele><time>2026-05-03T07:57:33.556Z</time></trkpt><trkpt lat="42.3087983" lon="13.63173"><ele>1005.0000000000001</ele><time>2026-05-03T07:57:34.556Z</time></trkpt><trkpt lat="42.308765" lon="13.63187"><ele>1003.0000000000001</ele><time>2026-05-03T07:57:35.556Z</time></trkpt><trkpt lat="42.3087217" lon="13.6319967"><ele>1001.0</ele><time>2026-05-03T07:57:36.556Z</time></trkpt><trkpt lat="42.30868" lon="13.6321333"><ele>999.0</ele><time>2026-05-03T07:57:37.556Z</time></trkpt><trkpt lat="42.3086283" lon="13.6322483"><ele>998.5</ele><time>2026-05-03T07:57:38.556Z</time></trkpt><trkpt lat="42.308565" lon="13.632375"><ele>998.0</ele><time>2026-05-03T07:57:39.556Z</time></trkpt><trkpt lat="42.30851" lon="13.6325033"><ele>997.5</ele><time>2026-05-03T07:57:40.556Z</time></trkpt><trkpt lat="42.3084467" lon="13.63263"><ele>997.0</ele><time>2026-05-03T07:57:41.556Z</time></trkpt><trkpt lat="42.30838" lon="13.63276"><ele>997.4000000000001</ele><time>2026-05-03T07:57:42.556Z</time></trkpt><trkpt lat="42.3083167" lon="13.63289"><ele>997.8000000000001</ele><time>2026-05-03T07:57:43.555Z</time></trkpt><trkpt lat="42.308255" lon="13.6330117"><ele>998.2</ele><time>2026-05-03T07:57:44.555Z</time></trkpt><trkpt lat="42.3082067" lon="13.63312"><ele>998.6</ele><time>2026-05-03T07:57:45.555Z</time></trkpt><trkpt lat="42.3081567" lon="13.6332267"><ele>999.0</ele><time>2026-05-03T07:57:46.556Z</time></trkpt><trkpt lat="42.308105" lon="13.63333"><ele>997.3333333333334</ele><time>2026-05-03T07:57:47.556Z</time></trkpt><trkpt lat="42.3080533" lon="13.633435"><ele>995.6666666666667</ele><time>2026-05-03T07:57:48.556Z</time></trkpt><trkpt lat="42.3080033" lon="13.6335383"><ele>994.0</ele><time>2026-05-03T07:57:49.555Z</time></trkpt><trkpt lat="42.307965" lon="13.6336283"><ele>992.3333333333334</ele><time>2026-05-03T07:57:50.555Z</time></trkpt><trkpt lat="42.3079267" lon="13.6337133"><ele>990.6666666666667</ele><time>2026-05-03T07:57:51.556Z</time></trkpt><trkpt lat="42.3078867" lon="13.6337817"><ele>989.0</ele><time>2026-05-03T07:57:52.555Z</time></trkpt><trkpt lat="42.3078283" lon="13.6338517"><ele>988.8333333333334</ele><time>2026-05-03T07:57:53.556Z</time></trkpt><trkpt lat="42.30777" lon="13.6338917"><ele>988.6666666666667</ele><time>2026-05-03T07:57:54.556Z</time></trkpt><trkpt lat="42.3077083" lon="13.63395"><ele>988.5</ele><time>2026-05-03T07:57:55.555Z</time></trkpt><trkpt lat="42.307645" lon="13.634015"><ele>988.3333333333333</ele><time>2026-05-03T07:57:56.555Z</time></trkpt><trkpt lat="42.3075833" lon="13.63408"><ele>988.1666666666666</ele><time>2026-05-03T07:57:57.556Z</time></trkpt><trkpt lat="42.3075167" lon="13.63418"><ele>988.0</ele><time>2026-05-03T07:57:58.556Z</time></trkpt><trkpt lat="42.30742" lon="13.634315"><ele>988.0</ele><time>2026-05-03T07:57:59.556Z</time></trkpt><trkpt lat="42.3073117" lon="13.634465"><ele>988.0</ele><time>2026-05-03T07:58:00.556Z</time></trkpt><trkpt lat="42.3071933" lon="13.634625"><ele>988.0</ele><time>2026-05-03T07:58:01.555Z</time></trkpt><trkpt lat="42.3070767" lon="13.6347983"><ele>987.0</ele><time>2026-05-03T07:58:02.556Z</time></trkpt><trkpt lat="42.306965" lon="13.6349917"><ele>986.0</ele><time>2026-05-03T07:58:03.556Z</time></trkpt><trkpt lat="42.306875" lon="13.6351817"><ele>985.0</ele><time>2026-05-03T07:58:04.556Z</time></trkpt><trkpt lat="42.3067817" lon="13.635365"><ele>984.0</ele><time>2026-05-03T07:58:05.556Z</time></trkpt><trkpt lat="42.3067033" lon="13.63555"><ele>983.0</ele><time>2026-05-03T07:58:06.555Z</time></trkpt><trkpt lat="42.3066283" lon="13.635685"><ele>982.0</ele><time>2026-05-03T07:58:07.556Z</time></trkpt><trkpt lat="42.3065633" lon="13.6358233"><ele>981.0</ele><time>2026-05-03T07:58:08.555Z</time></trkpt><trkpt lat="42.3064917" lon="13.6359767"><ele>981.0</ele><time>2026-05-03T07:58:09.556Z</time></trkpt><trkpt lat="42.3064217" lon="13.6361283"><ele>981.0</ele><time>2026-05-03T07:58:10.556Z</time></trkpt><trkpt lat="42.3063533" lon="13.6362933"><ele>981.0</ele><time>2026-05-03T07:58:11.556Z</time></trkpt><trkpt lat="42.3063" lon="13.6364333"><ele>981.0</ele><time>2026-05-03T07:58:12.556Z</time></trkpt><trkpt lat="42.3062467" lon="13.6365883"><ele>980.25</ele><time>2026-05-03T07:58:13.556Z</time></trkpt><trkpt lat="42.3061933" lon="13.6367383"><ele>979.5</ele><time>2026-05-03T07:58:14.556Z</time></trkpt><trkpt lat="42.3061433" lon="13.636895"><ele>978.75</ele><time>2026-05-03T07:58:15.555Z</time></trkpt><trkpt lat="42.3060983" lon="13.6370533"><ele>978.0</ele><time>2026-05-03T07:58:16.556Z</time></trkpt><trkpt lat="42.306055" lon="13.6372"><ele>977.0</ele><time>2026-05-03T07:58:17.556Z</time></trkpt><trkpt lat="42.3060117" lon="13.6373483"><ele>976.0</ele><time>2026-05-03T07:58:18.556Z</time></trkpt><trkpt lat="42.30597" lon="13.6374817"><ele>975.0</ele><time>2026-05-03T07:58:19.556Z</time></trkpt><trkpt lat="42.3059333" lon="13.6376167"><ele>974.0</ele><time>2026-05-03T07:58:20.556Z</time></trkpt><trkpt lat="42.3058983" lon="13.6377533"><ele>973.0</ele><time>2026-05-03T07:58:21.556Z</time></trkpt><trkpt lat="42.305865" lon="13.63787"><ele>972.2</ele><time>2026-05-03T07:58:22.556Z</time></trkpt><trkpt lat="42.305835" lon="13.6379983"><ele>971.4</ele><time>2026-05-03T07:58:23.555Z</time></trkpt><trkpt lat="42.3058167" lon="13.638135"><ele>970.6000000000001</ele><time>2026-05-03T07:58:24.555Z</time></trkpt><trkpt lat="42.3058033" lon="13.6382633"><ele>969.8000000000001</ele><time>2026-05-03T07:58:25.556Z</time></trkpt><trkpt lat="42.3057867" lon="13.638375"><ele>969.0</ele><time>2026-05-03T07:58:26.556Z</time></trkpt><trkpt lat="42.3057667" lon="13.638475"><ele>969.0</ele><time>2026-05-03T07:58:27.556Z</time></trkpt><trkpt lat="42.3057283" lon="13.6385617"><ele>969.0</ele><time>2026-05-03T07:58:28.555Z</time></trkpt><trkpt lat="42.3056933" lon="13.6386483"><ele>969.0</ele><time>2026-05-03T07:58:29.555Z</time></trkpt><trkpt lat="42.3056633" lon="13.6387417"><ele>969.0</ele><time>2026-05-03T07:58:30.554Z</time></trkpt><trkpt lat="42.30564" lon="13.6388383"><ele>969.0</ele><time>2026-05-03T07:58:31.554Z</time></trkpt><trkpt lat="42.3056217" lon="13.638945"><ele>969.0</ele><time>2026-05-03T07:58:32.555Z</time></trkpt><trkpt lat="42.3055983" lon="13.6390433"><ele>968.8000000000001</ele><time>2026-05-03T07:58:33.555Z</time></trkpt><trkpt lat="42.3055567" lon="13.6391583"><ele>968.6000000000001</ele><time>2026-05-03T07:58:34.555Z</time></trkpt><trkpt lat="42.3055167" lon="13.63926"><ele>968.4</ele><time>2026-05-03T07:58:35.555Z</time></trkpt><trkpt lat="42.3054717" lon="13.63937"><ele>968.2</ele><time>2026-05-03T07:58:36.554Z</time></trkpt><trkpt lat="42.3054233" lon="13.6394767"><ele>968.0</ele><time>2026-05-03T07:58:37.555Z</time></trkpt><trkpt lat="42.30538" lon="13.6395883"><ele>965.2</ele><time>2026-05-03T07:58:38.555Z</time></trkpt><trkpt lat="42.30534" lon="13.639725"><ele>962.4</ele><time>2026-05-03T07:58:39.555Z</time></trkpt><trkpt lat="42.305305" lon="13.6398683"><ele>959.6000000000001</ele><time>2026-05-03T07:58:40.555Z</time></trkpt><trkpt lat="42.30527" lon="13.64001"><ele>956.8000000000001</ele><time>2026-05-03T07:58:41.554Z</time></trkpt><trkpt lat="42.305235" lon="13.6401467"><ele>954.0</ele><time>2026-05-03T07:58:42.555Z</time></trkpt><trkpt lat="42.3052033" lon="13.6402767"><ele>951.6</ele><time>2026-05-03T07:58:43.555Z</time></trkpt><trkpt lat="42.3051667" lon="13.6404017"><ele>949.2</ele><time>2026-05-03T07:58:44.554Z</time></trkpt><trkpt lat="42.3051267" lon="13.6405217"><ele>946.8000000000001</ele><time>2026-05-03T07:58:45.555Z</time></trkpt><trkpt lat="42.3050833" lon="13.640625"><ele>944.4000000000001</ele><time>2026-05-03T07:58:46.555Z</time></trkpt><trkpt lat="42.30503" lon="13.6407317"><ele>942.0</ele><time>2026-05-03T07:58:47.554Z</time></trkpt><trkpt lat="42.3049817" lon="13.6408283"><ele>942.0</ele><time>2026-05-03T07:58:48.554Z</time></trkpt><trkpt lat="42.3049533" lon="13.6409267"><ele>942.0</ele><time>2026-05-03T07:58:49.554Z</time></trkpt><trkpt lat="42.30494" lon="13.641035"><ele>942.0</ele><time>2026-05-03T07:58:50.554Z</time></trkpt><trkpt lat="42.304935" lon="13.641165"><ele>942.0</ele><time>2026-05-03T07:58:51.554Z</time></trkpt><trkpt lat="42.30493" lon="13.6412967"><ele>942.0</ele><time>2026-05-03T07:58:52.555Z</time></trkpt><trkpt lat="42.3049033" lon="13.6414183"><ele>942.0</ele><time>2026-05-03T07:58:53.554Z</time></trkpt><trkpt lat="42.3048667" lon="13.6415467"><ele>940.8333333333334</ele><time>2026-05-03T07:58:54.554Z</time></trkpt><trkpt lat="42.3048417" lon="13.641665"><ele>939.6666666666667</ele><time>2026-05-03T07:58:55.554Z</time></trkpt><trkpt lat="42.3048233" lon="13.6417767"><ele>938.5</ele><time>2026-05-03T07:58:56.555Z</time></trkpt><trkpt lat="42.3048033" lon="13.641875"><ele>937.3333333333334</ele><time>2026-05-03T07:58:57.555Z</time></trkpt><trkpt lat="42.30478" lon="13.6419717"><ele>936.1666666666667</ele><time>2026-05-03T07:58:58.554Z</time></trkpt><trkpt lat="42.3047467" lon="13.6420483"><ele>935.0</ele><time>2026-05-03T07:58:59.554Z</time></trkpt><trkpt lat="42.30469" lon="13.6421183"><ele>931.6</ele><time>2026-05-03T07:59:00.554Z</time></trkpt><trkpt lat="42.304635" lon="13.6421817"><ele>928.2</ele><time>2026-05-03T07:59:01.555Z</time></trkpt><trkpt lat="42.3045717" lon="13.6422533"><ele>924.8</ele><time>2026-05-03T07:59:02.554Z</time></trkpt><trkpt lat="42.3044917" lon="13.642345"><ele>921.4</ele><time>2026-05-03T07:59:03.555Z</time></trkpt><trkpt lat="42.30441" lon="13.6424517"><ele>918.0</ele><time>2026-05-03T07:59:04.555Z</time></trkpt><trkpt lat="42.304335" lon="13.64255"><ele>918.0</ele><time>2026-05-03T07:59:05.554Z</time></trkpt><trkpt lat="42.30427" lon="13.6426417"><ele>918.0</ele><time>2026-05-03T07:59:06.554Z</time></trkpt><trkpt lat="42.3042083" lon="13.6427133"><ele>918.0</ele><time>2026-05-03T07:59:07.554Z</time></trkpt><trkpt lat="42.3041583" lon="13.6427717"><ele>918.0</ele><time>2026-05-03T07:59:08.554Z</time></trkpt><trkpt lat="42.3040667" lon="13.6428383"><ele>918.0</ele><time>2026-05-03T07:59:10.555Z</time></trkpt><trkpt lat="42.3040033" lon="13.64287"><ele>918.0</ele><time>2026-05-03T07:59:12.555Z</time></trkpt><trkpt lat="42.30389" lon="13.6429083"><ele>915.8</ele><time>2026-05-03T07:59:14.555Z</time></trkpt><trkpt lat="42.303805" lon="13.642935"><ele>913.5999999999999</ele><time>2026-05-03T07:59:15.554Z</time></trkpt><trkpt lat="42.30371" lon="13.6429683"><ele>911.4000000000001</ele><time>2026-05-03T07:59:16.555Z</time></trkpt><trkpt lat="42.303615" lon="13.6429983"><ele>909.2</ele><time>2026-05-03T07:59:17.554Z</time></trkpt><trkpt lat="42.30353" lon="13.6430183"><ele>907.0</ele><time>2026-05-03T07:59:18.555Z</time></trkpt><trkpt lat="42.3034483" lon="13.643045"><ele>906.9999999999999</ele><time>2026-05-03T07:59:19.555Z</time></trkpt><trkpt lat="42.3033617" lon="13.6430817"><ele>907.0</ele><time>2026-05-03T07:59:20.555Z</time></trkpt><trkpt lat="42.3032733" lon="13.64311"><ele>907.0</ele><time>2026-05-03T07:59:21.555Z</time></trkpt><trkpt lat="42.3031817" lon="13.643145"><ele>907.0</ele><time>2026-05-03T07:59:22.555Z</time></trkpt><trkpt lat="42.3030933" lon="13.6431733"><ele>906.9999999999999</ele><time>2026-05-03T07:59:23.555Z</time></trkpt><trkpt lat="42.30302" lon="13.64319"><ele>907.0</ele><time>2026-05-03T07:59:24.555Z</time></trkpt><trkpt lat="42.3029433" lon="13.6431967"><ele>904.3333333333333</ele><time>2026-05-03T07:59:25.554Z</time></trkpt><trkpt lat="42.3028667" lon="13.6431967"><ele>901.6666666666666</ele><time>2026-05-03T07:59:26.555Z</time></trkpt><trkpt lat="42.30278" lon="13.6431883"><ele>899.0</ele><time>2026-05-03T07:59:27.554Z</time></trkpt><trkpt lat="42.3026867" lon="13.6431717"><ele>896.3333333333333</ele><time>2026-05-03T07:59:28.554Z</time></trkpt><trkpt lat="42.3025917" lon="13.64314"><ele>893.6666666666666</ele><time>2026-05-03T07:59:29.555Z</time></trkpt><trkpt lat="42.3025067" lon="13.6431017"><ele>891.0</ele><time>2026-05-03T07:59:30.555Z</time></trkpt><trkpt lat="42.3024283" lon="13.6430783"><ele>891.0</ele><time>2026-05-03T07:59:31.555Z</time></trkpt><trkpt lat="42.3023583" lon="13.6430717"><ele>891.0</ele><time>2026-05-03T07:59:32.555Z</time></trkpt><trkpt lat="42.3022867" lon="13.6430867"><ele>891.0</ele><time>2026-05-03T07:59:33.555Z</time></trkpt><trkpt lat="42.3022067" lon="13.6431217"><ele>891.0</ele><time>2026-05-03T07:59:34.554Z</time></trkpt><trkpt lat="42.30213" lon="13.6431767"><ele>891.0</ele><time>2026-05-03T07:59:35.555Z</time></trkpt><trkpt lat="42.30205" lon="13.6432317"><ele>891.0</ele><time>2026-05-03T07:59:36.555Z</time></trkpt><trkpt lat="42.3019617" lon="13.6432717"><ele>888.5</ele><time>2026-05-03T07:59:37.554Z</time></trkpt><trkpt lat="42.3018567" lon="13.6433067"><ele>886.0</ele><time>2026-05-03T07:59:38.555Z</time></trkpt><trkpt lat="42.3017467" lon="13.6433217"><ele>883.5</ele><time>2026-05-03T07:59:39.555Z</time></trkpt><trkpt lat="42.3016183" lon="13.6433517"><ele>881.0</ele><time>2026-05-03T07:59:40.554Z</time></trkpt><trkpt lat="42.3014833" lon="13.643395"><ele>879.25</ele><time>2026-05-03T07:59:41.555Z</time></trkpt><trkpt lat="42.3013567" lon="13.64345"><ele>877.5</ele><time>2026-05-03T07:59:42.555Z</time></trkpt><trkpt lat="42.3012467" lon="13.643505"><ele>875.75</ele><time>2026-05-03T07:59:43.555Z</time></trkpt><trkpt lat="42.30114" lon="13.6435483"><ele>874.0</ele><time>2026-05-03T07:59:44.555Z</time></trkpt><trkpt lat="42.301025" lon="13.64359"><ele>873.25</ele><time>2026-05-03T07:59:45.555Z</time></trkpt><trkpt lat="42.3008933" lon="13.6436367"><ele>872.5</ele><time>2026-05-03T07:59:46.555Z</time></trkpt><trkpt lat="42.30078" lon="13.6436883"><ele>871.75</ele><time>2026-05-03T07:59:47.554Z</time></trkpt><trkpt lat="42.3006783" lon="13.643725"><ele>871.0</ele><time>2026-05-03T07:59:48.555Z</time></trkpt><trkpt lat="42.3005867" lon="13.6437767"><ele>869.8</ele><time>2026-05-03T07:59:49.555Z</time></trkpt><trkpt lat="42.3004933" lon="13.6438117"><ele>868.5999999999999</ele><time>2026-05-03T07:59:50.555Z</time></trkpt><trkpt lat="42.300385" lon="13.6438367"><ele>867.4</ele><time>2026-05-03T07:59:51.555Z</time></trkpt><trkpt lat="42.3002717" lon="13.6438533"><ele>866.2</ele><time>2026-05-03T07:59:52.555Z</time></trkpt><trkpt lat="42.3001583" lon="13.6438833"><ele>865.0</ele><time>2026-05-03T07:59:53.554Z</time></trkpt><trkpt lat="42.300055" lon="13.6438883"><ele>864.9999999999999</ele><time>2026-05-03T07:59:54.554Z</time></trkpt><trkpt lat="42.2999533" lon="13.6438817"><ele>865.0</ele><time>2026-05-03T07:59:55.555Z</time></trkpt><trkpt lat="42.299865" lon="13.64387"><ele>865.0</ele><time>2026-05-03T07:59:56.554Z</time></trkpt><trkpt lat="42.299785" lon="13.643855"><ele>865.0</ele><time>2026-05-03T07:59:57.555Z</time></trkpt><trkpt lat="42.2997167" lon="13.6438183"><ele>864.9999999999999</ele><time>2026-05-03T07:59:58.555Z</time></trkpt><trkpt lat="42.2996417" lon="13.6437667"><ele>865.0</ele><time>2026-05-03T07:59:59.555Z</time></trkpt><trkpt lat="42.2995467" lon="13.6436883"><ele>862.0</ele><time>2026-05-03T08:00:00.555Z</time></trkpt><trkpt lat="42.2994367" lon="13.6435917"><ele>859.0</ele><time>2026-05-03T08:00:01.554Z</time></trkpt><trkpt lat="42.2993117" lon="13.6434767"><ele>856.0</ele><time>2026-05-03T08:00:02.555Z</time></trkpt><trkpt lat="42.2991733" lon="13.643345"><ele>856.0</ele><time>2026-05-03T08:00:03.554Z</time></trkpt><trkpt lat="42.2990317" lon="13.643225"><ele>856.0</ele><time>2026-05-03T08:00:04.555Z</time></trkpt><trkpt lat="42.2989067" lon="13.6431"><ele>856.0</ele><time>2026-05-03T08:00:05.555Z</time></trkpt><trkpt lat="42.2987917" lon="13.6429867"><ele>853.6666666666666</ele><time>2026-05-03T08:00:06.555Z</time></trkpt><trkpt lat="42.2986867" lon="13.64286"><ele>851.3333333333333</ele><time>2026-05-03T08:00:07.554Z</time></trkpt><trkpt lat="42.2985767" lon="13.6427083"><ele>849.0</ele><time>2026-05-03T08:00:08.554Z</time></trkpt><trkpt lat="42.2984667" lon="13.642535"><ele>847.0</ele><time>2026-05-03T08:00:09.555Z</time></trkpt><trkpt lat="42.2983517" lon="13.6423433"><ele>845.0</ele><time>2026-05-03T08:00:10.555Z</time></trkpt><trkpt lat="42.2982367" lon="13.6421717"><ele>843.0</ele><time>2026-05-03T08:00:11.555Z</time></trkpt><trkpt lat="42.2981283" lon="13.64201"><ele>840.5999999999999</ele><time>2026-05-03T08:00:12.555Z</time></trkpt><trkpt lat="42.2980233" lon="13.6418717"><ele>838.1999999999999</ele><time>2026-05-03T08:00:13.555Z</time></trkpt><trkpt lat="42.29794" lon="13.6417583"><ele>835.8</ele><time>2026-05-03T08:00:14.555Z</time></trkpt><trkpt lat="42.2978783" lon="13.64166"><ele>833.4</ele><time>2026-05-03T08:00:15.555Z</time></trkpt><trkpt lat="42.2978233" lon="13.64159"><ele>831.0</ele><time>2026-05-03T08:00:16.555Z</time></trkpt><trkpt lat="42.2977317" lon="13.6415533"><ele>831.0</ele><time>2026-05-03T08:00:18.555Z</time></trkpt><trkpt lat="42.2976067" lon="13.64159"><ele>831.0</ele><time>2026-05-03T08:00:20.555Z</time></trkpt><trkpt lat="42.2975117" lon="13.6416083"><ele>831.0</ele><time>2026-05-03T08:00:21.555Z</time></trkpt><trkpt lat="42.29739" lon="13.6416117"><ele>831.0</ele><time>2026-05-03T08:00:22.555Z</time></trkpt><trkpt lat="42.297265" lon="13.6416083"><ele>828.75</ele><time>2026-05-03T08:00:23.555Z</time></trkpt><trkpt lat="42.2971483" lon="13.6415883"><ele>826.5</ele><time>2026-05-03T08:00:24.554Z</time></trkpt><trkpt lat="42.2970217" lon="13.641555"><ele>824.25</ele><time>2026-05-03T08:00:25.555Z</time></trkpt><trkpt lat="42.2969117" lon="13.6415283"><ele>822.0</ele><time>2026-05-03T08:00:26.555Z</time></trkpt><trkpt lat="42.2968183" lon="13.6415083"><ele>822.0</ele><time>2026-05-03T08:00:27.555Z</time></trkpt><trkpt lat="42.29673" lon="13.641505"><ele>822.0</ele><time>2026-05-03T08:00:28.554Z</time></trkpt><trkpt lat="42.296645" lon="13.641515"><ele>822.0</ele><time>2026-05-03T08:00:29.554Z</time></trkpt><trkpt lat="42.296545" lon="13.6415383"><ele>822.0</ele><time>2026-05-03T08:00:30.555Z</time></trkpt><trkpt lat="42.2964283" lon="13.64154"><ele>822.0</ele><time>2026-05-03T08:00:31.555Z</time></trkpt><trkpt lat="42.2963067" lon="13.6415183"><ele>820.2</ele><time>2026-05-03T08:00:32.555Z</time></trkpt><trkpt lat="42.2961883" lon="13.6415"><ele>818.4000000000001</ele><time>2026-05-03T08:00:33.555Z</time></trkpt><trkpt lat="42.29609" lon="13.6414733"><ele>816.5999999999999</ele><time>2026-05-03T08:00:34.554Z</time></trkpt><trkpt lat="42.296" lon="13.6414367"><ele>814.8</ele><time>2026-05-03T08:00:35.555Z</time></trkpt><trkpt lat="42.29591" lon="13.6413833"><ele>813.0</ele><time>2026-05-03T08:00:36.554Z</time></trkpt><trkpt lat="42.2958" lon="13.6413283"><ele>813.0</ele><time>2026-05-03T08:00:37.554Z</time></trkpt><trkpt lat="42.2956717" lon="13.641295"><ele>813.0</ele><time>2026-05-03T08:00:38.555Z</time></trkpt><trkpt lat="42.29553" lon="13.6412783"><ele>813.0</ele><time>2026-05-03T08:00:39.555Z</time></trkpt><trkpt lat="42.2954033" lon="13.6412667"><ele>813.0</ele><time>2026-05-03T08:00:40.554Z</time></trkpt><trkpt lat="42.2952783" lon="13.6412517"><ele>810.75</ele><time>2026-05-03T08:00:41.555Z</time></trkpt><trkpt lat="42.29515" lon="13.641245"><ele>808.5</ele><time>2026-05-03T08:00:42.555Z</time></trkpt><trkpt lat="42.295035" lon="13.641235"><ele>806.25</ele><time>2026-05-03T08:00:43.554Z</time></trkpt><trkpt lat="42.2949233" lon="13.6412383"><ele>804.0</ele><time>2026-05-03T08:00:44.554Z</time></trkpt><trkpt lat="42.2948167" lon="13.64123"><ele>802.8000000000001</ele><time>2026-05-03T08:00:45.555Z</time></trkpt><trkpt lat="42.2947117" lon="13.6412067"><ele>801.6</ele><time>2026-05-03T08:00:46.555Z</time></trkpt><trkpt lat="42.2946233" lon="13.6411667"><ele>800.4</ele><time>2026-05-03T08:00:47.554Z</time></trkpt><trkpt lat="42.2945483" lon="13.64112"><ele>799.2</ele><time>2026-05-03T08:00:48.554Z</time></trkpt><trkpt lat="42.2944517" lon="13.64107"><ele>798.0</ele><time>2026-05-03T08:00:50.555Z</time></trkpt><trkpt lat="42.2943517" lon="13.6410983"><ele>798.0</ele><time>2026-05-03T08:00:53.555Z</time></trkpt><trkpt lat="42.29424" lon="13.6412233"><ele>798.0</ele><time>2026-05-03T08:00:55.555Z</time></trkpt><trkpt lat="42.2941667" lon="13.6413067"><ele>798.0</ele><time>2026-05-03T08:00:56.555Z</time></trkpt><trkpt lat="42.294085" lon="13.641395"><ele>798.0</ele><time>2026-05-03T08:00:57.554Z</time></trkpt><trkpt lat="42.293995" lon="13.641495"><ele>798.0</ele><time>2026-05-03T08:00:58.555Z</time></trkpt><trkpt lat="42.2938933" lon="13.6416267"><ele>798.0</ele><time>2026-05-03T08:00:59.555Z</time></trkpt><trkpt lat="42.2937967" lon="13.6417767"><ele>798.0</ele><time>2026-05-03T08:01:00.555Z</time></trkpt><trkpt lat="42.29372" lon="13.641955"><ele>798.0</ele><time>2026-05-03T08:01:01.555Z</time></trkpt><trkpt lat="42.2936567" lon="13.6421133"><ele>798.0</ele><time>2026-05-03T08:01:02.555Z</time></trkpt><trkpt lat="42.2935883" lon="13.64224"><ele>798.0</ele><time>2026-05-03T08:01:03.554Z</time></trkpt><trkpt lat="42.2934983" lon="13.6423283"><ele>798.0</ele><time>2026-05-03T08:01:04.554Z</time></trkpt><trkpt lat="42.2933817" lon="13.6424067"><ele>798.0</ele><time>2026-05-03T08:01:05.554Z</time></trkpt><trkpt lat="42.2932433" lon="13.64249"><ele>798.0</ele><time>2026-05-03T08:01:06.554Z</time></trkpt><trkpt lat="42.293095" lon="13.6425783"><ele>798.0</ele><time>2026-05-03T08:01:07.554Z</time></trkpt><trkpt lat="42.2929367" lon="13.6426683"><ele>798.0</ele><time>2026-05-03T08:01:08.555Z</time></trkpt><trkpt lat="42.2927733" lon="13.6427533"><ele>797.6666666666667</ele><time>2026-05-03T08:01:09.555Z</time></trkpt><trkpt lat="42.2926033" lon="13.6428367"><ele>797.3333333333334</ele><time>2026-05-03T08:01:10.554Z</time></trkpt><trkpt lat="42.2924317" lon="13.6429217"><ele>797.0</ele><time>2026-05-03T08:01:11.555Z</time></trkpt><trkpt lat="42.292285" lon="13.64299"><ele>796.3333333333334</ele><time>2026-05-03T08:01:12.555Z</time></trkpt><trkpt lat="42.29213" lon="13.64305"><ele>795.6666666666667</ele><time>2026-05-03T08:01:13.555Z</time></trkpt><trkpt lat="42.2919783" lon="13.6431083"><ele>795.0</ele><time>2026-05-03T08:01:14.554Z</time></trkpt><trkpt lat="42.2918283" lon="13.643155"><ele>795.0</ele><time>2026-05-03T08:01:15.555Z</time></trkpt><trkpt lat="42.291685" lon="13.64318"><ele>795.0</ele><time>2026-05-03T08:01:16.555Z</time></trkpt><trkpt lat="42.291555" lon="13.6431683"><ele>795.0</ele><time>2026-05-03T08:01:17.555Z</time></trkpt><trkpt lat="42.29144" lon="13.64314"><ele>795.0</ele><time>2026-05-03T08:01:18.554Z</time></trkpt><trkpt lat="42.2913283" lon="13.64309"><ele>794.0</ele><time>2026-05-03T08:01:19.555Z</time></trkpt><trkpt lat="42.2912083" lon="13.6430583"><ele>793.0</ele><time>2026-05-03T08:01:20.554Z</time></trkpt><trkpt lat="42.29107" lon="13.6430633"><ele>792.0</ele><time>2026-05-03T08:01:21.555Z</time></trkpt><trkpt lat="42.29092" lon="13.6431033"><ele>791.0</ele><time>2026-05-03T08:01:22.554Z</time></trkpt><trkpt lat="42.2907533" lon="13.64315"><ele>789.3333333333334</ele><time>2026-05-03T08:01:23.555Z</time></trkpt><trkpt lat="42.290575" lon="13.6431833"><ele>787.6666666666667</ele><time>2026-05-03T08:01:24.555Z</time></trkpt><trkpt lat="42.2903783" lon="13.64321"><ele>786.0</ele><time>2026-05-03T08:01:25.554Z</time></trkpt><trkpt lat="42.29019" lon="13.6432267"><ele>786.0</ele><time>2026-05-03T08:01:26.555Z</time></trkpt><trkpt lat="42.2900367" lon="13.6432433"><ele>786.0</ele><time>2026-05-03T08:01:27.555Z</time></trkpt><trkpt lat="42.2899183" lon="13.643265"><ele>786.0</ele><time>2026-05-03T08:01:28.555Z</time></trkpt><trkpt lat="42.28982" lon="13.643305"><ele>786.0</ele><time>2026-05-03T08:01:29.555Z</time></trkpt><trkpt lat="42.2897467" lon="13.643365"><ele>787.0</ele><time>2026-05-03T08:01:30.555Z</time></trkpt><trkpt lat="42.2896967" lon="13.64344"><ele>788.0</ele><time>2026-05-03T08:01:31.555Z</time></trkpt><trkpt lat="42.28967" lon="13.64353"><ele>789.0</ele><time>2026-05-03T08:01:32.555Z</time></trkpt><trkpt lat="42.2896767" lon="13.6436483"><ele>790.0</ele><time>2026-05-03T08:01:33.555Z</time></trkpt><trkpt lat="42.289715" lon="13.6438017"><ele>791.0</ele><time>2026-05-03T08:01:34.555Z</time></trkpt><trkpt lat="42.28977" lon="13.6439933"><ele>791.0</ele><time>2026-05-03T08:01:35.555Z</time></trkpt><trkpt lat="42.2898183" lon="13.6442117"><ele>791.0</ele><time>2026-05-03T08:01:36.555Z</time></trkpt><trkpt lat="42.2898483" lon="13.6444217"><ele>791.0</ele><time>2026-05-03T08:01:37.554Z</time></trkpt><trkpt lat="42.2898767" lon="13.644625"><ele>792.3333333333334</ele><time>2026-05-03T08:01:38.555Z</time></trkpt><trkpt lat="42.28991" lon="13.6448083"><ele>793.6666666666667</ele><time>2026-05-03T08:01:39.555Z</time></trkpt><trkpt lat="42.2899633" lon="13.6450083"><ele>795.0</ele><time>2026-05-03T08:01:40.555Z</time></trkpt><trkpt lat="42.290025" lon="13.6452117"><ele>795.25</ele><time>2026-05-03T08:01:41.555Z</time></trkpt><trkpt lat="42.2900717" lon="13.6454067"><ele>795.5</ele><time>2026-05-03T08:01:42.555Z</time></trkpt><trkpt lat="42.2901033" lon="13.645585"><ele>795.75</ele><time>2026-05-03T08:01:43.554Z</time></trkpt><trkpt lat="42.29011" lon="13.6457667"><ele>796.0</ele><time>2026-05-03T08:01:44.555Z</time></trkpt><trkpt lat="42.2900983" lon="13.6459733"><ele>798.0</ele><time>2026-05-03T08:01:45.554Z</time></trkpt><trkpt lat="42.29007" lon="13.6461817"><ele>800.0</ele><time>2026-05-03T08:01:46.555Z</time></trkpt><trkpt lat="42.29001" lon="13.6463833"><ele>802.0</ele><time>2026-05-03T08:01:47.555Z</time></trkpt><trkpt lat="42.2899167" lon="13.6465733"><ele>802.0</ele><time>2026-05-03T08:01:48.555Z</time></trkpt><trkpt lat="42.289805" lon="13.6467667"><ele>802.0</ele><time>2026-05-03T08:01:49.555Z</time></trkpt><trkpt lat="42.28971" lon="13.6469683"><ele>802.0</ele><time>2026-05-03T08:01:50.555Z</time></trkpt><trkpt lat="42.2896317" lon="13.6471667"><ele>800.5</ele><time>2026-05-03T08:01:51.554Z</time></trkpt><trkpt lat="42.2895817" lon="13.6473467"><ele>799.0</ele><time>2026-05-03T08:01:52.554Z</time></trkpt><trkpt lat="42.2895483" lon="13.6475283"><ele>797.5</ele><time>2026-05-03T08:01:53.554Z</time></trkpt><trkpt lat="42.2895" lon="13.6476983"><ele>796.0</ele><time>2026-05-03T08:01:54.555Z</time></trkpt><trkpt lat="42.2894167" lon="13.6478533"><ele>796.0</ele><time>2026-05-03T08:01:55.555Z</time></trkpt><trkpt lat="42.2893217" lon="13.648005"><ele>796.0</ele><time>2026-05-03T08:01:56.554Z</time></trkpt><trkpt lat="42.2892083" lon="13.6481733"><ele>796.0</ele><time>2026-05-03T08:01:57.555Z</time></trkpt><trkpt lat="42.2890817" lon="13.648355"><ele>796.0</ele><time>2026-05-03T08:01:58.555Z</time></trkpt><trkpt lat="42.2889383" lon="13.6485433"><ele>796.0</ele><time>2026-05-03T08:01:59.555Z</time></trkpt><trkpt lat="42.2887767" lon="13.6487333"><ele>796.0</ele><time>2026-05-03T08:02:00.555Z</time></trkpt><trkpt lat="42.2885983" lon="13.648915"><ele>793.3333333333333</ele><time>2026-05-03T08:02:01.555Z</time></trkpt><trkpt lat="42.2884233" lon="13.64908"><ele>790.6666666666667</ele><time>2026-05-03T08:02:02.554Z</time></trkpt><trkpt lat="42.288265" lon="13.649235"><ele>788.0</ele><time>2026-05-03T08:02:03.555Z</time></trkpt><trkpt lat="42.2881267" lon="13.6493883"><ele>785.3333333333334</ele><time>2026-05-03T08:02:04.555Z</time></trkpt><trkpt lat="42.288015" lon="13.64953"><ele>782.6666666666667</ele><time>2026-05-03T08:02:05.555Z</time></trkpt><trkpt lat="42.2879033" lon="13.6497"><ele>780.0</ele><time>2026-05-03T08:02:06.555Z</time></trkpt><trkpt lat="42.28781" lon="13.6499"><ele>780.0</ele><time>2026-05-03T08:02:07.555Z</time></trkpt><trkpt lat="42.2877217" lon="13.6501183"><ele>780.0</ele><time>2026-05-03T08:02:08.555Z</time></trkpt><trkpt lat="42.287645" lon="13.6503467"><ele>780.0</ele><time>2026-05-03T08:02:09.554Z</time></trkpt><trkpt lat="42.2875767" lon="13.6505717"><ele>781.6666666666667</ele><time>2026-05-03T08:02:10.555Z</time></trkpt><trkpt lat="42.2875283" lon="13.6508067"><ele>783.3333333333334</ele><time>2026-05-03T08:02:11.554Z</time></trkpt><trkpt lat="42.2875" lon="13.651045"><ele>785.0</ele><time>2026-05-03T08:02:12.555Z</time></trkpt><trkpt lat="42.2874817" lon="13.6512667"><ele>786.0</ele><time>2026-05-03T08:02:13.554Z</time></trkpt><trkpt lat="42.287485" lon="13.65149"><ele>787.0</ele><time>2026-05-03T08:02:14.555Z</time></trkpt><trkpt lat="42.2875133" lon="13.6517067"><ele>788.0</ele><time>2026-05-03T08:02:15.555Z</time></trkpt><trkpt lat="42.2875333" lon="13.6518917"><ele>789.25</ele><time>2026-05-03T08:02:16.555Z</time></trkpt><trkpt lat="42.2875283" lon="13.6520583"><ele>790.5</ele><time>2026-05-03T08:02:17.555Z</time></trkpt><trkpt lat="42.28749" lon="13.6522083"><ele>791.75</ele><time>2026-05-03T08:02:18.554Z</time></trkpt><trkpt lat="42.287415" lon="13.6523533"><ele>793.0</ele><time>2026-05-03T08:02:19.554Z</time></trkpt><trkpt lat="42.287325" lon="13.6525"><ele>788.6666666666666</ele><time>2026-05-03T08:02:20.554Z</time></trkpt><trkpt lat="42.2872267" lon="13.6526733"><ele>784.3333333333333</ele><time>2026-05-03T08:02:21.555Z</time></trkpt><trkpt lat="42.287145" lon="13.65286"><ele>780.0</ele><time>2026-05-03T08:02:22.554Z</time></trkpt><trkpt lat="42.287095" lon="13.6530717"><ele>780.0</ele><time>2026-05-03T08:02:23.555Z</time></trkpt><trkpt lat="42.2870683" lon="13.653285"><ele>780.0</ele><time>2026-05-03T08:02:24.555Z</time></trkpt><trkpt lat="42.2870467" lon="13.6534833"><ele>780.0</ele><time>2026-05-03T08:02:25.554Z</time></trkpt><trkpt lat="42.28702" lon="13.6536783"><ele>781.75</ele><time>2026-05-03T08:02:26.555Z</time></trkpt><trkpt lat="42.286975" lon="13.653855"><ele>783.5</ele><time>2026-05-03T08:02:27.555Z</time></trkpt><trkpt lat="42.286925" lon="13.6540117"><ele>785.25</ele><time>2026-05-03T08:02:28.555Z</time></trkpt><trkpt lat="42.286875" lon="13.654135"><ele>787.0</ele><time>2026-05-03T08:02:29.554Z</time></trkpt><trkpt lat="42.2868267" lon="13.6542317"><ele>787.0</ele><time>2026-05-03T08:02:30.554Z</time></trkpt><trkpt lat="42.28678" lon="13.6543"><ele>787.0</ele><time>2026-05-03T08:02:31.555Z</time></trkpt><trkpt lat="42.2867" lon="13.65441"><ele>787.0</ele><time>2026-05-03T08:02:33.555Z</time></trkpt><trkpt lat="42.2866383" lon="13.6544917"><ele>787.0</ele><time>2026-05-03T08:02:34.555Z</time></trkpt><trkpt lat="42.2865683" lon="13.6545867"><ele>787.0</ele><time>2026-05-03T08:02:35.555Z</time></trkpt><trkpt lat="42.2864867" lon="13.654695"><ele>786.1666666666666</ele><time>2026-05-03T08:02:36.555Z</time></trkpt><trkpt lat="42.2864117" lon="13.6548117"><ele>785.3333333333333</ele><time>2026-05-03T08:02:37.554Z</time></trkpt><trkpt lat="42.2863367" lon="13.6549067"><ele>784.5</ele><time>2026-05-03T08:02:38.555Z</time></trkpt><trkpt lat="42.2862817" lon="13.6549917"><ele>783.6666666666667</ele><time>2026-05-03T08:02:39.555Z</time></trkpt><trkpt lat="42.28624" lon="13.65506"><ele>782.8333333333334</ele><time>2026-05-03T08:02:40.555Z</time></trkpt><trkpt lat="42.2862" lon="13.6551283"><ele>782.0</ele><time>2026-05-03T08:02:42.555Z</time></trkpt><trkpt lat="42.2861867" lon="13.65525"><ele>782.1666666666667</ele><time>2026-05-03T08:02:47.554Z</time></trkpt><trkpt lat="42.2861783" lon="13.655335"><ele>782.3333333333334</ele><time>2026-05-03T08:02:48.554Z</time></trkpt><trkpt lat="42.2861633" lon="13.6554383"><ele>782.5</ele><time>2026-05-03T08:02:49.555Z</time></trkpt><trkpt lat="42.286135" lon="13.6555467"><ele>782.6666666666667</ele><time>2026-05-03T08:02:50.555Z</time></trkpt><trkpt lat="42.2861117" lon="13.6556733"><ele>782.8333333333334</ele><time>2026-05-03T08:02:51.554Z</time></trkpt><trkpt lat="42.286085" lon="13.6558"><ele>783.0</ele><time>2026-05-03T08:02:52.554Z</time></trkpt><trkpt lat="42.28607" lon="13.6559183"><ele>783.0</ele><time>2026-05-03T08:02:53.554Z</time></trkpt><trkpt lat="42.286065" lon="13.656035"><ele>783.0</ele><time>2026-05-03T08:02:54.555Z</time></trkpt><trkpt lat="42.2860617" lon="13.6561533"><ele>783.0</ele><time>2026-05-03T08:02:55.555Z</time></trkpt><trkpt lat="42.2860583" lon="13.6562717"><ele>783.0</ele><time>2026-05-03T08:02:56.554Z</time></trkpt><trkpt lat="42.2860583" lon="13.656395"><ele>783.0</ele><time>2026-05-03T08:02:57.554Z</time></trkpt><trkpt lat="42.2860533" lon="13.656515"><ele>783.0</ele><time>2026-05-03T08:02:58.554Z</time></trkpt><trkpt lat="42.286055" lon="13.6566283"><ele>783.6666666666666</ele><time>2026-05-03T08:02:59.555Z</time></trkpt><trkpt lat="42.2860517" lon="13.65673"><ele>784.3333333333333</ele><time>2026-05-03T08:03:00.554Z</time></trkpt><trkpt lat="42.286045" lon="13.6568167"><ele>785.0</ele><time>2026-05-03T08:03:01.555Z</time></trkpt><trkpt lat="42.2860117" lon="13.6569533"><ele>785.6666666666666</ele><time>2026-05-03T08:03:03.555Z</time></trkpt><trkpt lat="42.2859733" lon="13.6570267"><ele>786.3333333333333</ele><time>2026-05-03T08:03:04.555Z</time></trkpt><trkpt lat="42.285925" lon="13.6571117"><ele>787.0</ele><time>2026-05-03T08:03:05.555Z</time></trkpt><trkpt lat="42.28587" lon="13.6571967"><ele>785.6666666666666</ele><time>2026-05-03T08:03:06.554Z</time></trkpt><trkpt lat="42.2858183" lon="13.6572967"><ele>784.3333333333333</ele><time>2026-05-03T08:03:07.555Z</time></trkpt><trkpt lat="42.2857567" lon="13.6573967"><ele>783.0</ele><time>2026-05-03T08:03:08.555Z</time></trkpt><trkpt lat="42.2857" lon="13.6574883"><ele>781.6666666666667</ele><time>2026-05-03T08:03:09.554Z</time></trkpt><trkpt lat="42.2856517" lon="13.65757"><ele>780.3333333333334</ele><time>2026-05-03T08:03:10.555Z</time></trkpt><trkpt lat="42.2856033" lon="13.6576467"><ele>779.0</ele><time>2026-05-03T08:03:11.555Z</time></trkpt><trkpt lat="42.2855617" lon="13.6577217"><ele>780.6666666666667</ele><time>2026-05-03T08:03:12.555Z</time></trkpt><trkpt lat="42.2855133" lon="13.6578017"><ele>782.3333333333334</ele><time>2026-05-03T08:03:13.554Z</time></trkpt><trkpt lat="42.285465" lon="13.6578833"><ele>784.0</ele><time>2026-05-03T08:03:14.555Z</time></trkpt><trkpt lat="42.28542" lon="13.65796"><ele>785.6666666666667</ele><time>2026-05-03T08:03:15.555Z</time></trkpt><trkpt lat="42.2853717" lon="13.6580383"><ele>787.3333333333334</ele><time>2026-05-03T08:03:16.554Z</time></trkpt><trkpt lat="42.2853383" lon="13.6581167"><ele>789.0</ele><time>2026-05-03T08:03:17.555Z</time></trkpt><trkpt lat="42.2852917" lon="13.65825"><ele>789.0</ele><time>2026-05-03T08:03:19.555Z</time></trkpt><trkpt lat="42.2852067" lon="13.6583817"><ele>789.0</ele><time>2026-05-03T08:03:21.554Z</time></trkpt><trkpt lat="42.28516" lon="13.6584517"><ele>789.0</ele><time>2026-05-03T08:03:22.555Z</time></trkpt><trkpt lat="42.2851267" lon="13.6585317"><ele>789.0</ele><time>2026-05-03T08:03:23.554Z</time></trkpt><trkpt lat="42.2850917" lon="13.658635"><ele>789.0</ele><time>2026-05-03T08:03:24.555Z</time></trkpt><trkpt lat="42.2850583" lon="13.65874"><ele>789.0</ele><time>2026-05-03T08:03:25.554Z</time></trkpt><trkpt lat="42.2850317" lon="13.65885"><ele>790.5</ele><time>2026-05-03T08:03:26.555Z</time></trkpt><trkpt lat="42.2850083" lon="13.6589583"><ele>792.0</ele><time>2026-05-03T08:03:27.555Z</time></trkpt><trkpt lat="42.28498" lon="13.659065"><ele>793.5</ele><time>2026-05-03T08:03:28.555Z</time></trkpt><trkpt lat="42.284945" lon="13.6591633"><ele>795.0</ele><time>2026-05-03T08:03:29.555Z</time></trkpt><trkpt lat="42.2848967" lon="13.6592567"><ele>796.5</ele><time>2026-05-03T08:03:30.555Z</time></trkpt><trkpt lat="42.2848317" lon="13.6593467"><ele>798.0</ele><time>2026-05-03T08:03:31.554Z</time></trkpt><trkpt lat="42.284765" lon="13.6594333"><ele>797.5</ele><time>2026-05-03T08:03:32.555Z</time></trkpt><trkpt lat="42.2847017" lon="13.659525"><ele>797.0</ele><time>2026-05-03T08:03:33.555Z</time></trkpt><trkpt lat="42.28465" lon="13.6596083"><ele>796.5</ele><time>2026-05-03T08:03:34.555Z</time></trkpt><trkpt lat="42.2846133" lon="13.65968"><ele>796.0</ele><time>2026-05-03T08:03:35.555Z</time></trkpt><trkpt lat="42.2845733" lon="13.65978"><ele>795.5</ele><time>2026-05-03T08:03:37.554Z</time></trkpt><trkpt lat="42.2846583" lon="13.6597983"><ele>795.0</ele><time>2026-05-03T08:03:47.555Z</time></trkpt><trkpt lat="42.2847483" lon="13.6597683"><ele>795.0</ele><time>2026-05-03T08:03:49.555Z</time></trkpt><trkpt lat="42.2848067" lon="13.6597333"><ele>795.0</ele><time>2026-05-03T08:03:50.555Z</time></trkpt><trkpt lat="42.2848783" lon="13.6597217"><ele>795.0</ele><time>2026-05-03T08:03:52.555Z</time></trkpt><trkpt lat="42.2848733" lon="13.65982"><ele>795.0</ele><time>2026-05-03T08:03:54.555Z</time></trkpt><trkpt lat="42.284835" lon="13.6599117"><ele>795.0</ele><time>2026-05-03T08:03:55.555Z</time></trkpt><trkpt lat="42.28478" lon="13.6600117"><ele>795.0</ele><time>2026-05-03T08:03:56.555Z</time></trkpt><trkpt lat="42.284695" lon="13.6601117"><ele>795.0</ele><time>2026-05-03T08:03:57.554Z</time></trkpt><trkpt lat="42.284605" lon="13.66021"><ele>795.0</ele><time>2026-05-03T08:03:58.555Z</time></trkpt><trkpt lat="42.284495" lon="13.6603333"><ele>795.0</ele><time>2026-05-03T08:03:59.554Z</time></trkpt><trkpt lat="42.2843733" lon="13.6604483"><ele>795.0</ele><time>2026-05-03T08:04:00.555Z</time></trkpt><trkpt lat="42.2842483" lon="13.6605833"><ele>802.0</ele><time>2026-05-03T08:04:01.555Z</time></trkpt><trkpt lat="42.2841283" lon="13.66073"><ele>809.0</ele><time>2026-05-03T08:04:02.554Z</time></trkpt><trkpt lat="42.2840233" lon="13.6609067"><ele>816.0</ele><time>2026-05-03T08:04:03.554Z</time></trkpt><trkpt lat="42.2839333" lon="13.66111"><ele>814.3333333333333</ele><time>2026-05-03T08:04:04.555Z</time></trkpt><trkpt lat="42.2838533" lon="13.66131"><ele>812.6666666666666</ele><time>2026-05-03T08:04:05.555Z</time></trkpt><trkpt lat="42.283785" lon="13.6615117"><ele>811.0</ele><time>2026-05-03T08:04:06.555Z</time></trkpt><trkpt lat="42.2837133" lon="13.6617283"><ele>811.0</ele><time>2026-05-03T08:04:07.555Z</time></trkpt><trkpt lat="42.2836417" lon="13.6619483"><ele>811.0</ele><time>2026-05-03T08:04:08.555Z</time></trkpt><trkpt lat="42.283575" lon="13.6621733"><ele>811.0</ele><time>2026-05-03T08:04:09.554Z</time></trkpt><trkpt lat="42.2835017" lon="13.6623783"><ele>815.75</ele><time>2026-05-03T08:04:10.555Z</time></trkpt><trkpt lat="42.2834367" lon="13.6625667"><ele>820.5</ele><time>2026-05-03T08:04:11.555Z</time></trkpt><trkpt lat="42.2833733" lon="13.6627283"><ele>825.25</ele><time>2026-05-03T08:04:12.555Z</time></trkpt><trkpt lat="42.2833133" lon="13.6628883"><ele>830.0</ele><time>2026-05-03T08:04:13.555Z</time></trkpt><trkpt lat="42.2832467" lon="13.6630417"><ele>829.5</ele><time>2026-05-03T08:04:14.555Z</time></trkpt><trkpt lat="42.2831883" lon="13.66319"><ele>829.0</ele><time>2026-05-03T08:04:15.555Z</time></trkpt><trkpt lat="42.2831283" lon="13.6633367"><ele>828.5</ele><time>2026-05-03T08:04:16.554Z</time></trkpt><trkpt lat="42.2830617" lon="13.66348"><ele>828.0</ele><time>2026-05-03T08:04:17.554Z</time></trkpt><trkpt lat="42.2830017" lon="13.6636217"><ele>828.0</ele><time>2026-05-03T08:04:18.554Z</time></trkpt><trkpt lat="42.2829417" lon="13.6637617"><ele>828.0</ele><time>2026-05-03T08:04:19.555Z</time></trkpt><trkpt lat="42.2828783" lon="13.663905"><ele>828.0</ele><time>2026-05-03T08:04:20.555Z</time></trkpt><trkpt lat="42.28282" lon="13.6640367"><ele>828.0</ele><time>2026-05-03T08:04:21.554Z</time></trkpt><trkpt lat="42.2827633" lon="13.6641683"><ele>828.0</ele><time>2026-05-03T08:04:22.554Z</time></trkpt><trkpt lat="42.2827067" lon="13.6642983"><ele>828.0</ele><time>2026-05-03T08:04:23.555Z</time></trkpt><trkpt lat="42.2826533" lon="13.66443"><ele>828.0</ele><time>2026-05-03T08:04:24.555Z</time></trkpt><trkpt lat="42.2826017" lon="13.6645683"><ele>828.0</ele><time>2026-05-03T08:04:25.554Z</time></trkpt><trkpt lat="42.28254" lon="13.66471"><ele>831.75</ele><time>2026-05-03T08:04:26.555Z</time></trkpt><trkpt lat="42.2824833" lon="13.6648533"><ele>835.5</ele><time>2026-05-03T08:04:27.554Z</time></trkpt><trkpt lat="42.2824183" lon="13.6649983"><ele>839.25</ele><time>2026-05-03T08:04:28.555Z</time></trkpt><trkpt lat="42.282355" lon="13.6651483"><ele>843.0</ele><time>2026-05-03T08:04:29.555Z</time></trkpt><trkpt lat="42.2822767" lon="13.6653167"><ele>837.6666666666667</ele><time>2026-05-03T08:04:30.554Z</time></trkpt><trkpt lat="42.2821933" lon="13.6654967"><ele>832.3333333333334</ele><time>2026-05-03T08:04:31.555Z</time></trkpt><trkpt lat="42.2821133" lon="13.6656783"><ele>827.0</ele><time>2026-05-03T08:04:32.555Z</time></trkpt><trkpt lat="42.2820283" lon="13.6658817"><ele>827.0</ele><time>2026-05-03T08:04:33.555Z</time></trkpt><trkpt lat="42.2819467" lon="13.6660883"><ele>827.0</ele><time>2026-05-03T08:04:34.555Z</time></trkpt><trkpt lat="42.2818617" lon="13.66629"><ele>827.0</ele><time>2026-05-03T08:04:35.554Z</time></trkpt><trkpt lat="42.2817783" lon="13.6664917"><ele>830.75</ele><time>2026-05-03T08:04:36.555Z</time></trkpt><trkpt lat="42.2817017" lon="13.6666667"><ele>834.5</ele><time>2026-05-03T08:04:37.555Z</time></trkpt><trkpt lat="42.2816267" lon="13.6668267"><ele>838.25</ele><time>2026-05-03T08:04:38.555Z</time></trkpt><trkpt lat="42.2815417" lon="13.666995"><ele>842.0</ele><time>2026-05-03T08:04:39.554Z</time></trkpt><trkpt lat="42.2814567" lon="13.6671683"><ele>838.3333333333334</ele><time>2026-05-03T08:04:40.555Z</time></trkpt><trkpt lat="42.2813817" lon="13.6673733"><ele>834.6666666666667</ele><time>2026-05-03T08:04:41.554Z</time></trkpt><trkpt lat="42.28129" lon="13.6675783"><ele>831.0</ele><time>2026-05-03T08:04:42.555Z</time></trkpt><trkpt lat="42.2812033" lon="13.6677683"><ele>835.0</ele><time>2026-05-03T08:04:43.555Z</time></trkpt><trkpt lat="42.28111" lon="13.6679717"><ele>839.0</ele><time>2026-05-03T08:04:44.555Z</time></trkpt><trkpt lat="42.281025" lon="13.6681617"><ele>843.0</ele><time>2026-05-03T08:04:45.555Z</time></trkpt><trkpt lat="42.2809367" lon="13.6683233"><ele>843.0</ele><time>2026-05-03T08:04:46.554Z</time></trkpt><trkpt lat="42.2808383" lon="13.6685017"><ele>843.0</ele><time>2026-05-03T08:04:47.555Z</time></trkpt><trkpt lat="42.280735" lon="13.6686817"><ele>843.0</ele><time>2026-05-03T08:04:48.554Z</time></trkpt><trkpt lat="42.2806233" lon="13.6688633"><ele>840.3333333333333</ele><time>2026-05-03T08:04:49.555Z</time></trkpt><trkpt lat="42.2805017" lon="13.6690383"><ele>837.6666666666666</ele><time>2026-05-03T08:04:50.555Z</time></trkpt><trkpt lat="42.2803767" lon="13.66921"><ele>835.0</ele><time>2026-05-03T08:04:51.554Z</time></trkpt><trkpt lat="42.280255" lon="13.6693833"><ele>840.3333333333333</ele><time>2026-05-03T08:04:52.555Z</time></trkpt><trkpt lat="42.28014" lon="13.6695517"><ele>845.6666666666667</ele><time>2026-05-03T08:04:53.555Z</time></trkpt><trkpt lat="42.2800133" lon="13.6697367"><ele>851.0</ele><time>2026-05-03T08:04:54.555Z</time></trkpt><trkpt lat="42.2798967" lon="13.6699233"><ele>851.0</ele><time>2026-05-03T08:04:55.555Z</time></trkpt><trkpt lat="42.2797783" lon="13.6701067"><ele>851.0</ele><time>2026-05-03T08:04:56.555Z</time></trkpt><trkpt lat="42.2796683" lon="13.6702867"><ele>851.0</ele><time>2026-05-03T08:04:57.554Z</time></trkpt><trkpt lat="42.279555" lon="13.67046"><ele>848.3333333333334</ele><time>2026-05-03T08:04:58.554Z</time></trkpt><trkpt lat="42.2794333" lon="13.6706383"><ele>845.6666666666667</ele><time>2026-05-03T08:04:59.555Z</time></trkpt><trkpt lat="42.279305" lon="13.6708283"><ele>843.0</ele><time>2026-05-03T08:05:00.555Z</time></trkpt><trkpt lat="42.2791717" lon="13.67102"><ele>841.0</ele><time>2026-05-03T08:05:01.555Z</time></trkpt><trkpt lat="42.27904" lon="13.67121"><ele>839.0</ele><time>2026-05-03T08:05:02.555Z</time></trkpt><trkpt lat="42.27891" lon="13.671385"><ele>837.0</ele><time>2026-05-03T08:05:03.555Z</time></trkpt><trkpt lat="42.278795" lon="13.6715517"><ele>837.0</ele><time>2026-05-03T08:05:04.555Z</time></trkpt><trkpt lat="42.2786833" lon="13.6717183"><ele>837.0</ele><time>2026-05-03T08:05:05.555Z</time></trkpt><trkpt lat="42.2785683" lon="13.6718983"><ele>837.0</ele><time>2026-05-03T08:05:06.554Z</time></trkpt><trkpt lat="42.278455" lon="13.6720717"><ele>842.0</ele><time>2026-05-03T08:05:07.555Z</time></trkpt><trkpt lat="42.2783383" lon="13.6722517"><ele>847.0</ele><time>2026-05-03T08:05:08.555Z</time></trkpt><trkpt lat="42.2782217" lon="13.6724367"><ele>852.0</ele><time>2026-05-03T08:05:09.554Z</time></trkpt><trkpt lat="42.2781017" lon="13.6726117"><ele>848.3333333333333</ele><time>2026-05-03T08:05:10.555Z</time></trkpt><trkpt lat="42.2779767" lon="13.6727867"><ele>844.6666666666666</ele><time>2026-05-03T08:05:11.555Z</time></trkpt><trkpt lat="42.2778467" lon="13.6729817"><ele>841.0</ele><time>2026-05-03T08:05:12.555Z</time></trkpt><trkpt lat="42.27772" lon="13.67317"><ele>841.0</ele><time>2026-05-03T08:05:13.555Z</time></trkpt><trkpt lat="42.2775917" lon="13.6733567"><ele>841.0</ele><time>2026-05-03T08:05:14.555Z</time></trkpt><trkpt lat="42.2774633" lon="13.6735533"><ele>841.0</ele><time>2026-05-03T08:05:15.554Z</time></trkpt><trkpt lat="42.2773233" lon="13.6737383"><ele>840.3333333333333</ele><time>2026-05-03T08:05:16.554Z</time></trkpt><trkpt lat="42.277195" lon="13.6739267"><ele>839.6666666666667</ele><time>2026-05-03T08:05:17.554Z</time></trkpt><trkpt lat="42.27707" lon="13.6741033"><ele>839.0</ele><time>2026-05-03T08:05:18.555Z</time></trkpt><trkpt lat="42.2769467" lon="13.6742933"><ele>843.3333333333334</ele><time>2026-05-03T08:05:19.554Z</time></trkpt><trkpt lat="42.276835" lon="13.6744733"><ele>847.6666666666667</ele><time>2026-05-03T08:05:20.555Z</time></trkpt><trkpt lat="42.276715" lon="13.67464"><ele>852.0</ele><time>2026-05-03T08:05:21.554Z</time></trkpt><trkpt lat="42.2766017" lon="13.674805"><ele>852.0</ele><time>2026-05-03T08:05:22.554Z</time></trkpt><trkpt lat="42.2764783" lon="13.6749567"><ele>852.0</ele><time>2026-05-03T08:05:23.555Z</time></trkpt><trkpt lat="42.2763617" lon="13.6751133"><ele>852.0</ele><time>2026-05-03T08:05:24.554Z</time></trkpt><trkpt lat="42.2762283" lon="13.6752833"><ele>850.6666666666667</ele><time>2026-05-03T08:05:25.554Z</time></trkpt><trkpt lat="42.276095" lon="13.6754533"><ele>849.3333333333334</ele><time>2026-05-03T08:05:26.555Z</time></trkpt><trkpt lat="42.2759633" lon="13.6756317"><ele>848.0</ele><time>2026-05-03T08:05:27.555Z</time></trkpt><trkpt lat="42.275835" lon="13.6758033"><ele>848.0</ele><time>2026-05-03T08:05:28.555Z</time></trkpt><trkpt lat="42.27571" lon="13.67598"><ele>848.0</ele><time>2026-05-03T08:05:29.555Z</time></trkpt><trkpt lat="42.2755867" lon="13.6761633"><ele>848.0</ele><time>2026-05-03T08:05:30.555Z</time></trkpt><trkpt lat="42.2754617" lon="13.6763317"><ele>847.3333333333334</ele><time>2026-05-03T08:05:31.555Z</time></trkpt><trkpt lat="42.2753317" lon="13.67651"><ele>846.6666666666667</ele><time>2026-05-03T08:05:32.555Z</time></trkpt><trkpt lat="42.2752" lon="13.6766817"><ele>846.0</ele><time>2026-05-03T08:05:33.554Z</time></trkpt><trkpt lat="42.2750733" lon="13.676855"><ele>847.0</ele><time>2026-05-03T08:05:34.555Z</time></trkpt><trkpt lat="42.27494" lon="13.677035"><ele>848.0</ele><time>2026-05-03T08:05:35.555Z</time></trkpt><trkpt lat="42.274815" lon="13.6772067"><ele>849.0</ele><time>2026-05-03T08:05:36.554Z</time></trkpt><trkpt lat="42.274695" lon="13.677365"><ele>849.0</ele><time>2026-05-03T08:05:37.555Z</time></trkpt><trkpt lat="42.27458" lon="13.67752"><ele>849.0</ele><time>2026-05-03T08:05:38.555Z</time></trkpt><trkpt lat="42.2744517" lon="13.6776733"><ele>849.0</ele><time>2026-05-03T08:05:39.554Z</time></trkpt><trkpt lat="42.2743333" lon="13.677835"><ele>855.3333333333333</ele><time>2026-05-03T08:05:40.554Z</time></trkpt><trkpt lat="42.2742083" lon="13.6779867"><ele>861.6666666666666</ele><time>2026-05-03T08:05:41.555Z</time></trkpt><trkpt lat="42.27408" lon="13.678155"><ele>868.0</ele><time>2026-05-03T08:05:42.554Z</time></trkpt><trkpt lat="42.2739467" lon="13.678325"><ele>867.0</ele><time>2026-05-03T08:05:43.555Z</time></trkpt><trkpt lat="42.2738317" lon="13.6784867"><ele>866.0</ele><time>2026-05-03T08:05:44.554Z</time></trkpt><trkpt lat="42.2737117" lon="13.678645"><ele>865.0</ele><time>2026-05-03T08:05:45.555Z</time></trkpt><trkpt lat="42.2735967" lon="13.6788233"><ele>865.0</ele><time>2026-05-03T08:05:46.555Z</time></trkpt><trkpt lat="42.27347" lon="13.6789917"><ele>865.0</ele><time>2026-05-03T08:05:47.555Z</time></trkpt><trkpt lat="42.2733567" lon="13.6791717"><ele>865.0</ele><time>2026-05-03T08:05:48.555Z</time></trkpt><trkpt lat="42.27325" lon="13.67934"><ele>868.0</ele><time>2026-05-03T08:05:49.555Z</time></trkpt><trkpt lat="42.273185" lon="13.6794967"><ele>871.0</ele><time>2026-05-03T08:05:50.555Z</time></trkpt><trkpt lat="42.2731183" lon="13.67967"><ele>874.0</ele><time>2026-05-03T08:05:51.555Z</time></trkpt><trkpt lat="42.273055" lon="13.6798467"><ele>877.0</ele><time>2026-05-03T08:05:52.554Z</time></trkpt><trkpt lat="42.27299" lon="13.6800417"><ele>872.3333333333333</ele><time>2026-05-03T08:05:53.555Z</time></trkpt><trkpt lat="42.2729267" lon="13.680255"><ele>867.6666666666667</ele><time>2026-05-03T08:05:54.555Z</time></trkpt><trkpt lat="42.2728533" lon="13.68047"><ele>863.0</ele><time>2026-05-03T08:05:55.554Z</time></trkpt><trkpt lat="42.2727717" lon="13.6806883"><ele>863.0</ele><time>2026-05-03T08:05:56.555Z</time></trkpt><trkpt lat="42.2726883" lon="13.6809133"><ele>863.0</ele><time>2026-05-03T08:05:57.554Z</time></trkpt><trkpt lat="42.2726133" lon="13.6811233"><ele>863.0</ele><time>2026-05-03T08:05:58.554Z</time></trkpt><trkpt lat="42.2725167" lon="13.68136"><ele>863.0</ele><time>2026-05-03T08:05:59.555Z</time></trkpt><trkpt lat="42.27243" lon="13.6815883"><ele>863.0</ele><time>2026-05-03T08:06:00.555Z</time></trkpt><trkpt lat="42.272345" lon="13.6818133"><ele>863.0</ele><time>2026-05-03T08:06:01.554Z</time></trkpt><trkpt lat="42.2722583" lon="13.6820317"><ele>863.0</ele><time>2026-05-03T08:06:02.555Z</time></trkpt><trkpt lat="42.27218" lon="13.682245"><ele>863.0</ele><time>2026-05-03T08:06:03.555Z</time></trkpt><trkpt lat="42.2720983" lon="13.682445"><ele>863.0</ele><time>2026-05-03T08:06:04.555Z</time></trkpt><trkpt lat="42.2720117" lon="13.682655"><ele>866.0</ele><time>2026-05-03T08:06:05.555Z</time></trkpt><trkpt lat="42.2719333" lon="13.6828617"><ele>869.0</ele><time>2026-05-03T08:06:06.554Z</time></trkpt><trkpt lat="42.2718583" lon="13.6830667"><ele>872.0</ele><time>2026-05-03T08:06:07.555Z</time></trkpt><trkpt lat="42.27179" lon="13.683265"><ele>872.0</ele><time>2026-05-03T08:06:08.555Z</time></trkpt><trkpt lat="42.2717233" lon="13.6834783"><ele>872.0</ele><time>2026-05-03T08:06:09.554Z</time></trkpt><trkpt lat="42.27166" lon="13.6836767"><ele>872.0</ele><time>2026-05-03T08:06:10.554Z</time></trkpt><trkpt lat="42.27161" lon="13.6838533"><ele>871.0</ele><time>2026-05-03T08:06:11.554Z</time></trkpt><trkpt lat="42.2715567" lon="13.6840167"><ele>870.0</ele><time>2026-05-03T08:06:12.554Z</time></trkpt><trkpt lat="42.2714983" lon="13.6841833"><ele>869.0</ele><time>2026-05-03T08:06:13.555Z</time></trkpt><trkpt lat="42.2714217" lon="13.6843317"><ele>868.0</ele><time>2026-05-03T08:06:14.555Z</time></trkpt><trkpt lat="42.27134" lon="13.6844633"><ele>872.5</ele><time>2026-05-03T08:06:15.555Z</time></trkpt><trkpt lat="42.27125" lon="13.6845967"><ele>877.0</ele><time>2026-05-03T08:06:16.554Z</time></trkpt><trkpt lat="42.2711517" lon="13.6847383"><ele>881.5</ele><time>2026-05-03T08:06:17.555Z</time></trkpt><trkpt lat="42.2710633" lon="13.6848917"><ele>886.0</ele><time>2026-05-03T08:06:18.555Z</time></trkpt><trkpt lat="42.2709817" lon="13.6850367"><ele>886.0</ele><time>2026-05-03T08:06:19.555Z</time></trkpt><trkpt lat="42.2709101" lon="13.6851675"><ele>885.9999999999999</ele><time>2026-05-03T08:06:20.555Z</time></trkpt><trkpt lat="42.2708476" lon="13.6852854"><ele>885.9999999999999</ele><time>2026-05-03T08:06:21.554Z</time></trkpt><trkpt lat="42.2707982" lon="13.6854096"><ele>886.0</ele><time>2026-05-03T08:06:22.555Z</time></trkpt><trkpt lat="42.2707496" lon="13.685534"><ele>886.0</ele><time>2026-05-03T08:06:23.555Z</time></trkpt><trkpt lat="42.2707049" lon="13.6856604"><ele>885.5999999999999</ele><time>2026-05-03T08:06:24.555Z</time></trkpt><trkpt lat="42.2706587" lon="13.6857901"><ele>885.1999999999999</ele><time>2026-05-03T08:06:25.555Z</time></trkpt><trkpt lat="42.2706154" lon="13.6859206"><ele>884.8000000000001</ele><time>2026-05-03T08:06:26.555Z</time></trkpt><trkpt lat="42.2705884" lon="13.686044"><ele>884.4000000000001</ele><time>2026-05-03T08:06:27.555Z</time></trkpt><trkpt lat="42.2705804" lon="13.6861764"><ele>884.0</ele><time>2026-05-03T08:06:28.555Z</time></trkpt><trkpt lat="42.2705851" lon="13.6863198"><ele>892.25</ele><time>2026-05-03T08:06:29.555Z</time></trkpt><trkpt lat="42.270611" lon="13.6864742"><ele>900.5</ele><time>2026-05-03T08:06:30.555Z</time></trkpt><trkpt lat="42.2706426" lon="13.6866252"><ele>908.75</ele><time>2026-05-03T08:06:31.554Z</time></trkpt><trkpt lat="42.2706823" lon="13.6867699"><ele>917.0</ele><time>2026-05-03T08:06:32.555Z</time></trkpt><trkpt lat="42.2707288" lon="13.6869243"><ele>918.75</ele><time>2026-05-03T08:06:33.554Z</time></trkpt><trkpt lat="42.2707604" lon="13.6870854"><ele>920.5</ele><time>2026-05-03T08:06:34.554Z</time></trkpt><trkpt lat="42.2707797" lon="13.6872493"><ele>922.25</ele><time>2026-05-03T08:06:35.554Z</time></trkpt><trkpt lat="42.2707853" lon="13.687407"><ele>924.0</ele><time>2026-05-03T08:06:36.554Z</time></trkpt><trkpt lat="42.2707787" lon="13.6875689"><ele>924.0</ele><time>2026-05-03T08:06:37.555Z</time></trkpt><trkpt lat="42.270765" lon="13.6877298"><ele>924.0000000000001</ele><time>2026-05-03T08:06:38.554Z</time></trkpt><trkpt lat="42.2707528" lon="13.6878736"><ele>924.0000000000001</ele><time>2026-05-03T08:06:39.555Z</time></trkpt><trkpt lat="42.2707518" lon="13.6879966"><ele>924.0</ele><time>2026-05-03T08:06:40.555Z</time></trkpt><trkpt lat="42.2707613" lon="13.6881014"><ele>924.0</ele><time>2026-05-03T08:06:41.555Z</time></trkpt><trkpt lat="42.2708282" lon="13.6882116"><ele>924.0</ele><time>2026-05-03T08:06:43.554Z</time></trkpt><trkpt lat="42.2709308" lon="13.6881866"><ele>924.0000000000001</ele><time>2026-05-03T08:06:45.555Z</time></trkpt><trkpt lat="42.2709752" lon="13.6881107"><ele>924.0000000000001</ele><time>2026-05-03T08:06:46.555Z</time></trkpt><trkpt lat="42.271014" lon="13.6879842"><ele>924.0</ele><time>2026-05-03T08:06:47.555Z</time></trkpt><trkpt lat="42.2710406" lon="13.6878096"><ele>924.0</ele><time>2026-05-03T08:06:48.555Z</time></trkpt><trkpt lat="42.2710724" lon="13.6875993"><ele>924.0</ele><time>2026-05-03T08:06:49.555Z</time></trkpt><trkpt lat="42.2711161" lon="13.6873764"><ele>924.0</ele><time>2026-05-03T08:06:50.555Z</time></trkpt><trkpt lat="42.271166" lon="13.6871744"><ele>924.0</ele><time>2026-05-03T08:06:51.554Z</time></trkpt><trkpt lat="42.2712137" lon="13.6870195"><ele>922.6</ele><time>2026-05-03T08:06:52.555Z</time></trkpt><trkpt lat="42.2712672" lon="13.6869041"><ele>921.2</ele><time>2026-05-03T08:06:53.554Z</time></trkpt><trkpt lat="42.2713238" lon="13.686826"><ele>919.8000000000001</ele><time>2026-05-03T08:06:54.554Z</time></trkpt><trkpt lat="42.2714117" lon="13.686794"><ele>918.4000000000001</ele><time>2026-05-03T08:06:56.555Z</time></trkpt><trkpt lat="42.2714635" lon="13.6868598"><ele>917.0</ele><time>2026-05-03T08:06:58.555Z</time></trkpt><trkpt lat="42.2714494" lon="13.6870165"><ele>918.1666666666667</ele><time>2026-05-03T08:07:00.555Z</time></trkpt><trkpt lat="42.2714157" lon="13.6871122"><ele>919.3333333333334</ele><time>2026-05-03T08:07:01.555Z</time></trkpt><trkpt lat="42.2713812" lon="13.6872111"><ele>920.5</ele><time>2026-05-03T08:07:02.554Z</time></trkpt><trkpt lat="42.2713595" lon="13.6873207"><ele>921.6666666666667</ele><time>2026-05-03T08:07:03.555Z</time></trkpt><trkpt lat="42.2713474" lon="13.6874384"><ele>922.8333333333334</ele><time>2026-05-03T08:07:04.554Z</time></trkpt><trkpt lat="42.2713414" lon="13.6875629"><ele>924.0</ele><time>2026-05-03T08:07:05.555Z</time></trkpt><trkpt lat="42.2713504" lon="13.6877058"><ele>923.2</ele><time>2026-05-03T08:07:06.555Z</time></trkpt><trkpt lat="42.2713783" lon="13.687854"><ele>922.4000000000001</ele><time>2026-05-03T08:07:07.555Z</time></trkpt><trkpt lat="42.2714331" lon="13.687988"><ele>921.6</ele><time>2026-05-03T08:07:08.555Z</time></trkpt><trkpt lat="42.2715054" lon="13.6881042"><ele>920.8</ele><time>2026-05-03T08:07:09.555Z</time></trkpt><trkpt lat="42.2715903" lon="13.6881933"><ele>920.0</ele><time>2026-05-03T08:07:10.554Z</time></trkpt><trkpt lat="42.2716732" lon="13.6882537"><ele>924.4</ele><time>2026-05-03T08:07:11.555Z</time></trkpt><trkpt lat="42.2717649" lon="13.6882977"><ele>928.8</ele><time>2026-05-03T08:07:12.555Z</time></trkpt><trkpt lat="42.2718646" lon="13.6883372"><ele>933.2</ele><time>2026-05-03T08:07:13.554Z</time></trkpt><trkpt lat="42.2719781" lon="13.6883748"><ele>937.6</ele><time>2026-05-03T08:07:14.555Z</time></trkpt><trkpt lat="42.2720906" lon="13.6884205"><ele>942.0</ele><time>2026-05-03T08:07:15.555Z</time></trkpt><trkpt lat="42.2721968" lon="13.6884615"><ele>940.8</ele><time>2026-05-03T08:07:16.555Z</time></trkpt><trkpt lat="42.2722953" lon="13.6885006"><ele>939.6</ele><time>2026-05-03T08:07:17.555Z</time></trkpt><trkpt lat="42.2723968" lon="13.6885553"><ele>938.3999999999999</ele><time>2026-05-03T08:07:18.555Z</time></trkpt><trkpt lat="42.2725007" lon="13.6886223"><ele>937.1999999999999</ele><time>2026-05-03T08:07:19.555Z</time></trkpt><trkpt lat="42.2726017" lon="13.6886958"><ele>936.0</ele><time>2026-05-03T08:07:20.555Z</time></trkpt><trkpt lat="42.2727091" lon="13.6887764"><ele>936.0</ele><time>2026-05-03T08:07:21.554Z</time></trkpt><trkpt lat="42.2728278" lon="13.6888833"><ele>936.0</ele><time>2026-05-03T08:07:22.554Z</time></trkpt><trkpt lat="42.2729429" lon="13.6889908"><ele>936.0</ele><time>2026-05-03T08:07:23.554Z</time></trkpt><trkpt lat="42.2730453" lon="13.6890896"><ele>936.0</ele><time>2026-05-03T08:07:24.554Z</time></trkpt><trkpt lat="42.2731282" lon="13.6891783"><ele>936.1999999999999</ele><time>2026-05-03T08:07:25.554Z</time></trkpt><trkpt lat="42.273203" lon="13.6892643"><ele>936.3999999999999</ele><time>2026-05-03T08:07:26.554Z</time></trkpt><trkpt lat="42.2732694" lon="13.6893363"><ele>936.6</ele><time>2026-05-03T08:07:27.555Z</time></trkpt><trkpt lat="42.2733404" lon="13.6894091"><ele>936.8</ele><time>2026-05-03T08:07:28.554Z</time></trkpt><trkpt lat="42.2734224" lon="13.6894665"><ele>937.0</ele><time>2026-05-03T08:07:29.555Z</time></trkpt><trkpt lat="42.273511" lon="13.6895023"><ele>937.0</ele><time>2026-05-03T08:07:30.555Z</time></trkpt><trkpt lat="42.273618" lon="13.6895141"><ele>937.0</ele><time>2026-05-03T08:07:31.555Z</time></trkpt><trkpt lat="42.2737273" lon="13.6894966"><ele>937.0</ele><time>2026-05-03T08:07:32.555Z</time></trkpt><trkpt lat="42.2738292" lon="13.6894628"><ele>937.0</ele><time>2026-05-03T08:07:33.555Z</time></trkpt><trkpt lat="42.2739259" lon="13.6894118"><ele>937.0</ele><time>2026-05-03T08:07:34.554Z</time></trkpt><trkpt lat="42.2740203" lon="13.6893403"><ele>942.5</ele><time>2026-05-03T08:07:35.554Z</time></trkpt><trkpt lat="42.2741161" lon="13.6892426"><ele>948.0</ele><time>2026-05-03T08:07:36.554Z</time></trkpt><trkpt lat="42.274214" lon="13.6891334"><ele>953.5</ele><time>2026-05-03T08:07:37.554Z</time></trkpt><trkpt lat="42.2743192" lon="13.6890336"><ele>959.0</ele><time>2026-05-03T08:07:38.555Z</time></trkpt><trkpt lat="42.2744228" lon="13.688942"><ele>959.0</ele><time>2026-05-03T08:07:39.555Z</time></trkpt><trkpt lat="42.2745263" lon="13.688868"><ele>959.0</ele><time>2026-05-03T08:07:40.555Z</time></trkpt><trkpt lat="42.2746297" lon="13.6888017"><ele>959.0</ele><time>2026-05-03T08:07:41.554Z</time></trkpt><trkpt lat="42.2747351" lon="13.6887491"><ele>959.0</ele><time>2026-05-03T08:07:42.554Z</time></trkpt><trkpt lat="42.2748485" lon="13.6887004"><ele>958.5</ele><time>2026-05-03T08:07:43.555Z</time></trkpt><trkpt lat="42.2749624" lon="13.6886399"><ele>958.0</ele><time>2026-05-03T08:07:44.554Z</time></trkpt><trkpt lat="42.2750777" lon="13.6885755"><ele>957.5</ele><time>2026-05-03T08:07:45.554Z</time></trkpt><trkpt lat="42.2751989" lon="13.6885065"><ele>957.0</ele><time>2026-05-03T08:07:46.555Z</time></trkpt><trkpt lat="42.2753226" lon="13.6884369"><ele>958.25</ele><time>2026-05-03T08:07:47.555Z</time></trkpt><trkpt lat="42.2754493" lon="13.688379"><ele>959.5</ele><time>2026-05-03T08:07:48.555Z</time></trkpt><trkpt lat="42.2755746" lon="13.6883248"><ele>960.75</ele><time>2026-05-03T08:07:49.555Z</time></trkpt><trkpt lat="42.2757015" lon="13.6882681"><ele>962.0</ele><time>2026-05-03T08:07:50.555Z</time></trkpt><trkpt lat="42.2758226" lon="13.6882143"><ele>962.0</ele><time>2026-05-03T08:07:51.555Z</time></trkpt><trkpt lat="42.2759383" lon="13.6881461"><ele>962.0</ele><time>2026-05-03T08:07:52.554Z</time></trkpt><trkpt lat="42.2760477" lon="13.6880578"><ele>962.0</ele><time>2026-05-03T08:07:53.555Z</time></trkpt><trkpt lat="42.2761641" lon="13.6879569"><ele>962.0</ele><time>2026-05-03T08:07:54.555Z</time></trkpt><trkpt lat="42.2763039" lon="13.6878502"><ele>964.3333333333334</ele><time>2026-05-03T08:07:55.555Z</time></trkpt><trkpt lat="42.276453" lon="13.687737"><ele>966.6666666666667</ele><time>2026-05-03T08:07:56.555Z</time></trkpt><trkpt lat="42.2766114" lon="13.6876118"><ele>969.0</ele><time>2026-05-03T08:07:57.554Z</time></trkpt><trkpt lat="42.2767834" lon="13.687483"><ele>969.0</ele><time>2026-05-03T08:07:58.554Z</time></trkpt><trkpt lat="42.276965" lon="13.6873583"><ele>969.0</ele><time>2026-05-03T08:07:59.555Z</time></trkpt><trkpt lat="42.2771355" lon="13.6872537"><ele>969.0</ele><time>2026-05-03T08:08:00.555Z</time></trkpt><trkpt lat="42.2772956" lon="13.687161"><ele>967.75</ele><time>2026-05-03T08:08:01.555Z</time></trkpt><trkpt lat="42.2774304" lon="13.6870691"><ele>966.5</ele><time>2026-05-03T08:08:02.555Z</time></trkpt><trkpt lat="42.2775328" lon="13.6869814"><ele>965.25</ele><time>2026-05-03T08:08:03.554Z</time></trkpt><trkpt lat="42.2776038" lon="13.6869057"><ele>964.0</ele><time>2026-05-03T08:08:04.554Z</time></trkpt><trkpt lat="42.2776991" lon="13.6868387"><ele>964.0</ele><time>2026-05-03T08:08:06.555Z</time></trkpt><trkpt lat="42.2777415" lon="13.6869071"><ele>964.0000000000001</ele><time>2026-05-03T08:08:08.555Z</time></trkpt><trkpt lat="42.2777382" lon="13.6870045"><ele>964.0</ele><time>2026-05-03T08:08:09.555Z</time></trkpt><trkpt lat="42.2777357" lon="13.6871149"><ele>964.0</ele><time>2026-05-03T08:08:10.555Z</time></trkpt><trkpt lat="42.2777435" lon="13.6872219"><ele>964.0000000000001</ele><time>2026-05-03T08:08:11.554Z</time></trkpt><trkpt lat="42.2777511" lon="13.687324"><ele>964.0</ele><time>2026-05-03T08:08:12.555Z</time></trkpt><trkpt lat="42.2777398" lon="13.6874094"><ele>964.0</ele><time>2026-05-03T08:08:13.555Z</time></trkpt><trkpt lat="42.2777045" lon="13.6875001"><ele>964.0</ele><time>2026-05-03T08:08:14.555Z</time></trkpt><trkpt lat="42.2776722" lon="13.6875968"><ele>964.0000000000001</ele><time>2026-05-03T08:08:15.555Z</time></trkpt><trkpt lat="42.2776397" lon="13.6877119"><ele>964.0000000000001</ele><time>2026-05-03T08:08:16.555Z</time></trkpt><trkpt lat="42.2776" lon="13.6878317"><ele>964.0</ele><time>2026-05-03T08:08:17.555Z</time></trkpt><trkpt lat="42.2775558" lon="13.6879487"><ele>964.0</ele><time>2026-05-03T08:08:18.555Z</time></trkpt><trkpt lat="42.2774992" lon="13.6880536"><ele>963.0</ele><time>2026-05-03T08:08:19.555Z</time></trkpt><trkpt lat="42.2774451" lon="13.6881483"><ele>962.0000000000001</ele><time>2026-05-03T08:08:20.555Z</time></trkpt><trkpt lat="42.2774079" lon="13.68823"><ele>961.0000000000001</ele><time>2026-05-03T08:08:21.555Z</time></trkpt><trkpt lat="42.2774108" lon="13.6883443"><ele>960.0</ele><time>2026-05-03T08:08:23.555Z</time></trkpt><trkpt lat="42.2775436" lon="13.6884013"><ele>959.0</ele><time>2026-05-03T08:08:25.554Z</time></trkpt><trkpt lat="42.2776462" lon="13.6884048"><ele>959.0</ele><time>2026-05-03T08:08:26.554Z</time></trkpt><trkpt lat="42.2777433" lon="13.688412"><ele>959.0000000000001</ele><time>2026-05-03T08:08:27.555Z</time></trkpt><trkpt lat="42.2778389" lon="13.6884446"><ele>959.0000000000001</ele><time>2026-05-03T08:08:28.555Z</time></trkpt><trkpt lat="42.2779388" lon="13.6884925"><ele>959.0</ele><time>2026-05-03T08:08:29.555Z</time></trkpt><trkpt lat="42.2780364" lon="13.6885387"><ele>959.0</ele><time>2026-05-03T08:08:30.555Z</time></trkpt><trkpt lat="42.2781343" lon="13.688579"><ele>958.2</ele><time>2026-05-03T08:08:31.555Z</time></trkpt><trkpt lat="42.2782354" lon="13.6886202"><ele>957.4000000000001</ele><time>2026-05-03T08:08:32.555Z</time></trkpt><trkpt lat="42.278333" lon="13.6886801"><ele>956.6</ele><time>2026-05-03T08:08:33.555Z</time></trkpt><trkpt lat="42.278427" lon="13.6887474"><ele>955.8</ele><time>2026-05-03T08:08:34.554Z</time></trkpt><trkpt lat="42.2785233" lon="13.6888483"><ele>955.0</ele><time>2026-05-03T08:08:35.555Z</time></trkpt><trkpt lat="42.2786217" lon="13.688965"><ele>955.0</ele><time>2026-05-03T08:08:36.555Z</time></trkpt><trkpt lat="42.2787233" lon="13.6891067"><ele>955.0</ele><time>2026-05-03T08:08:37.555Z</time></trkpt><trkpt lat="42.278825" lon="13.6892383"><ele>955.0</ele><time>2026-05-03T08:08:38.555Z</time></trkpt><trkpt lat="42.27892" lon="13.68937"><ele>955.0</ele><time>2026-05-03T08:08:39.555Z</time></trkpt><trkpt lat="42.27902" lon="13.6894983"><ele>955.8</ele><time>2026-05-03T08:08:40.554Z</time></trkpt><trkpt lat="42.27912" lon="13.689635"><ele>956.6</ele><time>2026-05-03T08:08:41.555Z</time></trkpt><trkpt lat="42.2791933" lon="13.6897317"><ele>957.4000000000001</ele><time>2026-05-03T08:08:42.554Z</time></trkpt><trkpt lat="42.2792717" lon="13.6897983"><ele>958.2</ele><time>2026-05-03T08:08:43.555Z</time></trkpt><trkpt lat="42.2793383" lon="13.689835"><ele>959.0</ele><time>2026-05-03T08:08:44.555Z</time></trkpt><trkpt lat="42.2794183" lon="13.68985"><ele>959.0000000000001</ele><time>2026-05-03T08:08:45.554Z</time></trkpt><trkpt lat="42.2795017" lon="13.6898667"><ele>959.0</ele><time>2026-05-03T08:08:46.555Z</time></trkpt><trkpt lat="42.2795717" lon="13.6898917"><ele>959.0</ele><time>2026-05-03T08:08:47.555Z</time></trkpt><trkpt lat="42.2796317" lon="13.6899467"><ele>959.0</ele><time>2026-05-03T08:08:48.555Z</time></trkpt><trkpt lat="42.2796917" lon="13.6900483"><ele>959.0000000000001</ele><time>2026-05-03T08:08:49.555Z</time></trkpt><trkpt lat="42.2797467" lon="13.6901517"><ele>959.0</ele><time>2026-05-03T08:08:50.555Z</time></trkpt><trkpt lat="42.27981" lon="13.6902183"><ele>959.5000000000001</ele><time>2026-05-03T08:08:51.555Z</time></trkpt><trkpt lat="42.2798783" lon="13.690255"><ele>960.0</ele><time>2026-05-03T08:08:52.555Z</time></trkpt><trkpt lat="42.279945" lon="13.690285"><ele>960.5</ele><time>2026-05-03T08:08:53.554Z</time></trkpt><trkpt lat="42.2800233" lon="13.6903017"><ele>961.0</ele><time>2026-05-03T08:08:54.555Z</time></trkpt><trkpt lat="42.2801133" lon="13.6903033"><ele>961.5000000000001</ele><time>2026-05-03T08:08:55.555Z</time></trkpt><trkpt lat="42.2802167" lon="13.6903167"><ele>962.0</ele><time>2026-05-03T08:08:56.555Z</time></trkpt><trkpt lat="42.2803083" lon="13.690355"><ele>962.0</ele><time>2026-05-03T08:08:57.555Z</time></trkpt><trkpt lat="42.28038" lon="13.690425"><ele>962.0</ele><time>2026-05-03T08:08:58.554Z</time></trkpt><trkpt lat="42.2804417" lon="13.6905283"><ele>962.0</ele><time>2026-05-03T08:08:59.555Z</time></trkpt><trkpt lat="42.2805" lon="13.6906517"><ele>962.0</ele><time>2026-05-03T08:09:00.554Z</time></trkpt><trkpt lat="42.280535" lon="13.6907833"><ele>962.0</ele><time>2026-05-03T08:09:01.555Z</time></trkpt><trkpt lat="42.2805467" lon="13.6909317"><ele>962.0</ele><time>2026-05-03T08:09:02.555Z</time></trkpt><trkpt lat="42.2805433" lon="13.691075"><ele>962.0</ele><time>2026-05-03T08:09:03.555Z</time></trkpt><trkpt lat="42.280525" lon="13.6912333"><ele>962.0</ele><time>2026-05-03T08:09:04.555Z</time></trkpt><trkpt lat="42.2805067" lon="13.6913983"><ele>962.0</ele><time>2026-05-03T08:09:05.555Z</time></trkpt><trkpt lat="42.280475" lon="13.69155"><ele>962.75</ele><time>2026-05-03T08:09:06.555Z</time></trkpt><trkpt lat="42.2804383" lon="13.69168"><ele>963.5</ele><time>2026-05-03T08:09:07.554Z</time></trkpt><trkpt lat="42.2803933" lon="13.6918183"><ele>964.25</ele><time>2026-05-03T08:09:08.554Z</time></trkpt><trkpt lat="42.28034" lon="13.69197"><ele>965.0</ele><time>2026-05-03T08:09:09.554Z</time></trkpt><trkpt lat="42.2802883" lon="13.692145"><ele>968.25</ele><time>2026-05-03T08:09:10.554Z</time></trkpt><trkpt lat="42.2802267" lon="13.69233"><ele>971.5</ele><time>2026-05-03T08:09:11.555Z</time></trkpt><trkpt lat="42.2801633" lon="13.6925067"><ele>974.75</ele><time>2026-05-03T08:09:12.555Z</time></trkpt><trkpt lat="42.2801067" lon="13.69266"><ele>978.0</ele><time>2026-05-03T08:09:13.555Z</time></trkpt><trkpt lat="42.280065" lon="13.6927833"><ele>979.2</ele><time>2026-05-03T08:09:14.554Z</time></trkpt><trkpt lat="42.2800367" lon="13.6928733"><ele>980.4</ele><time>2026-05-03T08:09:15.554Z</time></trkpt><trkpt lat="42.2800267" lon="13.69299"><ele>981.6000000000001</ele><time>2026-05-03T08:09:16.555Z</time></trkpt><trkpt lat="42.280035" lon="13.693115"><ele>982.8000000000001</ele><time>2026-05-03T08:09:17.554Z</time></trkpt><trkpt lat="42.280045" lon="13.6932433"><ele>984.0</ele><time>2026-05-03T08:09:18.555Z</time></trkpt><trkpt lat="42.280055" lon="13.6933867"><ele>984.0</ele><time>2026-05-03T08:09:19.555Z</time></trkpt><trkpt lat="42.2800583" lon="13.6935467"><ele>984.0</ele><time>2026-05-03T08:09:20.554Z</time></trkpt><trkpt lat="42.280055" lon="13.6937567"><ele>984.0</ele><time>2026-05-03T08:09:21.555Z</time></trkpt><trkpt lat="42.2800667" lon="13.693985"><ele>984.0</ele><time>2026-05-03T08:09:22.554Z</time></trkpt><trkpt lat="42.2800617" lon="13.69418"><ele>983.5</ele><time>2026-05-03T08:09:23.555Z</time></trkpt><trkpt lat="42.2800567" lon="13.6943867"><ele>983.0</ele><time>2026-05-03T08:09:24.554Z</time></trkpt><trkpt lat="42.2800517" lon="13.69457"><ele>982.5</ele><time>2026-05-03T08:09:25.555Z</time></trkpt><trkpt lat="42.2800267" lon="13.69472"><ele>982.0</ele><time>2026-05-03T08:09:26.555Z</time></trkpt><trkpt lat="42.2799967" lon="13.694865"><ele>981.0</ele><time>2026-05-03T08:09:27.555Z</time></trkpt><trkpt lat="42.2799867" lon="13.6949967"><ele>980.0</ele><time>2026-05-03T08:09:28.555Z</time></trkpt><trkpt lat="42.2799983" lon="13.69511"><ele>979.0</ele><time>2026-05-03T08:09:29.555Z</time></trkpt><trkpt lat="42.2800233" lon="13.6952367"><ele>978.0</ele><time>2026-05-03T08:09:30.554Z</time></trkpt><trkpt lat="42.280065" lon="13.6953583"><ele>977.0</ele><time>2026-05-03T08:09:31.554Z</time></trkpt><trkpt lat="42.280115" lon="13.6954583"><ele>975.8333333333334</ele><time>2026-05-03T08:09:32.555Z</time></trkpt><trkpt lat="42.280175" lon="13.6955367"><ele>974.6666666666667</ele><time>2026-05-03T08:09:33.554Z</time></trkpt><trkpt lat="42.2802483" lon="13.6956067"><ele>973.5</ele><time>2026-05-03T08:09:34.554Z</time></trkpt><trkpt lat="42.2803333" lon="13.695675"><ele>972.3333333333333</ele><time>2026-05-03T08:09:35.555Z</time></trkpt><trkpt lat="42.2804083" lon="13.6957333"><ele>971.1666666666666</ele><time>2026-05-03T08:09:36.554Z</time></trkpt><trkpt lat="42.2804767" lon="13.6957933"><ele>970.0</ele><time>2026-05-03T08:09:37.554Z</time></trkpt><trkpt lat="42.2805517" lon="13.69585"><ele>972.6666666666666</ele><time>2026-05-03T08:09:38.555Z</time></trkpt><trkpt lat="42.2806317" lon="13.69591"><ele>975.3333333333333</ele><time>2026-05-03T08:09:39.555Z</time></trkpt><trkpt lat="42.2806967" lon="13.6959417"><ele>978.0</ele><time>2026-05-03T08:09:40.555Z</time></trkpt><trkpt lat="42.2807717" lon="13.6959567"><ele>980.6666666666667</ele><time>2026-05-03T08:09:41.554Z</time></trkpt><trkpt lat="42.2808483" lon="13.6959383"><ele>983.3333333333334</ele><time>2026-05-03T08:09:42.554Z</time></trkpt><trkpt lat="42.2809367" lon="13.695905"><ele>986.0</ele><time>2026-05-03T08:09:43.555Z</time></trkpt><trkpt lat="42.2810433" lon="13.6958517"><ele>986.0</ele><time>2026-05-03T08:09:44.555Z</time></trkpt><trkpt lat="42.2811433" lon="13.6957933"><ele>985.9999999999999</ele><time>2026-05-03T08:09:45.555Z</time></trkpt><trkpt lat="42.28124" lon="13.6957367"><ele>985.9999999999999</ele><time>2026-05-03T08:09:46.554Z</time></trkpt><trkpt lat="42.2813117" lon="13.6957067"><ele>986.0</ele><time>2026-05-03T08:09:47.554Z</time></trkpt><trkpt lat="42.281405" lon="13.6958"><ele>986.0</ele><time>2026-05-03T08:09:49.555Z</time></trkpt><trkpt lat="42.2814483" lon="13.6959083"><ele>986.5</ele><time>2026-05-03T08:09:50.555Z</time></trkpt><trkpt lat="42.2814933" lon="13.6960467"><ele>987.0</ele><time>2026-05-03T08:09:51.555Z</time></trkpt><trkpt lat="42.2815517" lon="13.6962067"><ele>987.5</ele><time>2026-05-03T08:09:52.554Z</time></trkpt><trkpt lat="42.2816233" lon="13.6963583"><ele>988.0</ele><time>2026-05-03T08:09:53.555Z</time></trkpt><trkpt lat="42.2817017" lon="13.6964767"><ele>988.4</ele><time>2026-05-03T08:09:54.555Z</time></trkpt><trkpt lat="42.2817883" lon="13.6965667"><ele>988.8</ele><time>2026-05-03T08:09:55.555Z</time></trkpt><trkpt lat="42.2818583" lon="13.6966533"><ele>989.2</ele><time>2026-05-03T08:09:56.554Z</time></trkpt><trkpt lat="42.2819267" lon="13.6967383"><ele>989.6</ele><time>2026-05-03T08:09:57.554Z</time></trkpt><trkpt lat="42.2819867" lon="13.6968167"><ele>990.0</ele><time>2026-05-03T08:09:58.555Z</time></trkpt><trkpt lat="42.2820417" lon="13.6968733"><ele>990.0</ele><time>2026-05-03T08:09:59.554Z</time></trkpt><trkpt lat="42.282095" lon="13.6968033"><ele>990.0</ele><time>2026-05-03T08:10:02.555Z</time></trkpt><trkpt lat="42.2820567" lon="13.6966283"><ele>990.0</ele><time>2026-05-03T08:10:04.554Z</time></trkpt><trkpt lat="42.282045" lon="13.6965283"><ele>990.0</ele><time>2026-05-03T08:10:05.555Z</time></trkpt><trkpt lat="42.2820533" lon="13.6964283"><ele>990.0</ele><time>2026-05-03T08:10:06.554Z</time></trkpt><trkpt lat="42.28209" lon="13.696335"><ele>990.0</ele><time>2026-05-03T08:10:07.554Z</time></trkpt><trkpt lat="42.2821483" lon="13.696245"><ele>990.0</ele><time>2026-05-03T08:10:08.554Z</time></trkpt><trkpt lat="42.2822" lon="13.6961517"><ele>990.0</ele><time>2026-05-03T08:10:09.555Z</time></trkpt><trkpt lat="42.2822433" lon="13.6960467"><ele>990.0</ele><time>2026-05-03T08:10:10.555Z</time></trkpt><trkpt lat="42.2822783" lon="13.6959017"><ele>990.0</ele><time>2026-05-03T08:10:11.554Z</time></trkpt><trkpt lat="42.2822883" lon="13.6957433"><ele>990.0</ele><time>2026-05-03T08:10:12.555Z</time></trkpt><trkpt lat="42.2822933" lon="13.695575"><ele>984.5</ele><time>2026-05-03T08:10:13.555Z</time></trkpt><trkpt lat="42.2822967" lon="13.69538"><ele>979.0</ele><time>2026-05-03T08:10:14.555Z</time></trkpt><trkpt lat="42.28231" lon="13.69517"><ele>973.5</ele><time>2026-05-03T08:10:15.555Z</time></trkpt><trkpt lat="42.282325" lon="13.69497"><ele>968.0</ele><time>2026-05-03T08:10:16.555Z</time></trkpt><trkpt lat="42.28233" lon="13.694795"><ele>967.25</ele><time>2026-05-03T08:10:17.555Z</time></trkpt><trkpt lat="42.2823133" lon="13.6946233"><ele>966.5</ele><time>2026-05-03T08:10:18.555Z</time></trkpt><trkpt lat="42.2822767" lon="13.69446"><ele>965.75</ele><time>2026-05-03T08:10:19.554Z</time></trkpt><trkpt lat="42.2822417" lon="13.6942967"><ele>965.0</ele><time>2026-05-03T08:10:20.555Z</time></trkpt><trkpt lat="42.2822233" lon="13.694145"><ele>963.0</ele><time>2026-05-03T08:10:21.554Z</time></trkpt><trkpt lat="42.282225" lon="13.6939917"><ele>961.0</ele><time>2026-05-03T08:10:22.555Z</time></trkpt><trkpt lat="42.2822467" lon="13.6938467"><ele>959.0</ele><time>2026-05-03T08:10:23.553Z</time></trkpt><trkpt lat="42.2822817" lon="13.6937033"><ele>957.0</ele><time>2026-05-03T08:10:24.553Z</time></trkpt><trkpt lat="42.2823167" lon="13.6935517"><ele>955.75</ele><time>2026-05-03T08:10:25.554Z</time></trkpt><trkpt lat="42.2823483" lon="13.6933817"><ele>954.5</ele><time>2026-05-03T08:10:26.553Z</time></trkpt><trkpt lat="42.282375" lon="13.6932017"><ele>953.25</ele><time>2026-05-03T08:10:27.554Z</time></trkpt><trkpt lat="42.2824033" lon="13.6930267"><ele>952.0</ele><time>2026-05-03T08:10:28.553Z</time></trkpt><trkpt lat="42.2824433" lon="13.6928483"><ele>953.5</ele><time>2026-05-03T08:10:29.553Z</time></trkpt><trkpt lat="42.2824917" lon="13.6926633"><ele>955.0</ele><time>2026-05-03T08:10:30.553Z</time></trkpt><trkpt lat="42.2825567" lon="13.69249"><ele>956.5</ele><time>2026-05-03T08:10:31.554Z</time></trkpt><trkpt lat="42.2826017" lon="13.6923283"><ele>958.0</ele><time>2026-05-03T08:10:32.554Z</time></trkpt><trkpt lat="42.2826617" lon="13.6921767"><ele>958.0</ele><time>2026-05-03T08:10:33.553Z</time></trkpt><trkpt lat="42.2827433" lon="13.6920383"><ele>958.0</ele><time>2026-05-03T08:10:34.554Z</time></trkpt><trkpt lat="42.2828183" lon="13.6919117"><ele>958.0</ele><time>2026-05-03T08:10:35.554Z</time></trkpt><trkpt lat="42.2828817" lon="13.6917833"><ele>958.0</ele><time>2026-05-03T08:10:36.554Z</time></trkpt><trkpt lat="42.2829483" lon="13.6916783"><ele>963.3333333333333</ele><time>2026-05-03T08:10:37.554Z</time></trkpt><trkpt lat="42.2830517" lon="13.6915667"><ele>968.6666666666667</ele><time>2026-05-03T08:10:38.554Z</time></trkpt><trkpt lat="42.283175" lon="13.69147"><ele>974.0</ele><time>2026-05-03T08:10:39.554Z</time></trkpt><trkpt lat="42.28334" lon="13.6913883"><ele>962.3333333333334</ele><time>2026-05-03T08:10:40.554Z</time></trkpt><trkpt lat="42.2835133" lon="13.6913067"><ele>950.6666666666667</ele><time>2026-05-03T08:10:41.554Z</time></trkpt><trkpt lat="42.2836617" lon="13.6911983"><ele>939.0</ele><time>2026-05-03T08:10:42.554Z</time></trkpt><trkpt lat="42.2838133" lon="13.6910917"><ele>939.8000000000001</ele><time>2026-05-03T08:10:43.553Z</time></trkpt><trkpt lat="42.28394" lon="13.6910167"><ele>940.6000000000001</ele><time>2026-05-03T08:10:44.553Z</time></trkpt><trkpt lat="42.2840483" lon="13.690955"><ele>941.4</ele><time>2026-05-03T08:10:45.553Z</time></trkpt><trkpt lat="42.2841483" lon="13.6909117"><ele>942.2</ele><time>2026-05-03T08:10:46.554Z</time></trkpt><trkpt lat="42.284235" lon="13.69091"><ele>943.0</ele><time>2026-05-03T08:10:47.554Z</time></trkpt><trkpt lat="42.284335" lon="13.6909383"><ele>943.0</ele><time>2026-05-03T08:10:48.554Z</time></trkpt><trkpt lat="42.2844483" lon="13.69099"><ele>943.0</ele><time>2026-05-03T08:10:49.554Z</time></trkpt><trkpt lat="42.2845783" lon="13.691045"><ele>943.0</ele><time>2026-05-03T08:10:50.554Z</time></trkpt><trkpt lat="42.284715" lon="13.6910967"><ele>943.0</ele><time>2026-05-03T08:10:51.554Z</time></trkpt><trkpt lat="42.2848583" lon="13.6911433"><ele>934.5</ele><time>2026-05-03T08:10:52.554Z</time></trkpt><trkpt lat="42.285005" lon="13.691195"><ele>926.0</ele><time>2026-05-03T08:10:53.554Z</time></trkpt><trkpt lat="42.28515" lon="13.6912367"><ele>917.5</ele><time>2026-05-03T08:10:54.554Z</time></trkpt><trkpt lat="42.2852833" lon="13.6912667"><ele>909.0</ele><time>2026-05-03T08:10:55.554Z</time></trkpt><trkpt lat="42.2854033" lon="13.6912767"><ele>909.0</ele><time>2026-05-03T08:10:56.554Z</time></trkpt><trkpt lat="42.2855267" lon="13.6912683"><ele>909.0</ele><time>2026-05-03T08:10:57.553Z</time></trkpt><trkpt lat="42.285655" lon="13.6912517"><ele>909.0</ele><time>2026-05-03T08:10:58.554Z</time></trkpt><trkpt lat="42.2857933" lon="13.6912367"><ele>909.0</ele><time>2026-05-03T08:10:59.553Z</time></trkpt><trkpt lat="42.2859467" lon="13.6911983"><ele>909.6666666666667</ele><time>2026-05-03T08:11:00.553Z</time></trkpt><trkpt lat="42.28612" lon="13.69114"><ele>910.3333333333334</ele><time>2026-05-03T08:11:01.554Z</time></trkpt><trkpt lat="42.2863017" lon="13.6910883"><ele>911.0</ele><time>2026-05-03T08:11:02.553Z</time></trkpt><trkpt lat="42.28648" lon="13.691065"><ele>920.3333333333334</ele><time>2026-05-03T08:11:03.553Z</time></trkpt><trkpt lat="42.2866633" lon="13.6910117"><ele>929.6666666666667</ele><time>2026-05-03T08:11:04.554Z</time></trkpt><trkpt lat="42.286835" lon="13.6909633"><ele>939.0</ele><time>2026-05-03T08:11:05.554Z</time></trkpt><trkpt lat="42.2869883" lon="13.6909133"><ele>939.0</ele><time>2026-05-03T08:11:06.554Z</time></trkpt><trkpt lat="42.287135" lon="13.690865"><ele>939.0</ele><time>2026-05-03T08:11:07.553Z</time></trkpt><trkpt lat="42.2872667" lon="13.6908083"><ele>939.0</ele><time>2026-05-03T08:11:08.554Z</time></trkpt><trkpt lat="42.287385" lon="13.690755"><ele>939.0</ele><time>2026-05-03T08:11:09.554Z</time></trkpt><trkpt lat="42.28751" lon="13.690705"><ele>935.0</ele><time>2026-05-03T08:11:10.554Z</time></trkpt><trkpt lat="42.2876367" lon="13.6906683"><ele>931.0</ele><time>2026-05-03T08:11:11.554Z</time></trkpt><trkpt lat="42.2877583" lon="13.6906283"><ele>927.0</ele><time>2026-05-03T08:11:12.554Z</time></trkpt><trkpt lat="42.2878733" lon="13.6905867"><ele>923.0</ele><time>2026-05-03T08:11:13.554Z</time></trkpt><trkpt lat="42.2879933" lon="13.6905317"><ele>919.5999999999999</ele><time>2026-05-03T08:11:14.553Z</time></trkpt><trkpt lat="42.2881083" lon="13.6904733"><ele>916.1999999999999</ele><time>2026-05-03T08:11:15.554Z</time></trkpt><trkpt lat="42.28822" lon="13.6904133"><ele>912.8</ele><time>2026-05-03T08:11:16.554Z</time></trkpt><trkpt lat="42.2883217" lon="13.6903717"><ele>909.4</ele><time>2026-05-03T08:11:17.554Z</time></trkpt><trkpt lat="42.28842" lon="13.690355"><ele>906.0</ele><time>2026-05-03T08:11:18.553Z</time></trkpt><trkpt lat="42.2885117" lon="13.69035"><ele>906.0</ele><time>2026-05-03T08:11:19.553Z</time></trkpt><trkpt lat="42.2885983" lon="13.6903633"><ele>905.9999999999999</ele><time>2026-05-03T08:11:20.554Z</time></trkpt><trkpt lat="42.288695" lon="13.6904"><ele>905.9999999999999</ele><time>2026-05-03T08:11:21.553Z</time></trkpt><trkpt lat="42.2887967" lon="13.6904433"><ele>906.0</ele><time>2026-05-03T08:11:22.553Z</time></trkpt><trkpt lat="42.2888967" lon="13.6904867"><ele>906.0</ele><time>2026-05-03T08:11:23.554Z</time></trkpt><trkpt lat="42.288995" lon="13.69053"><ele>905.0</ele><time>2026-05-03T08:11:24.554Z</time></trkpt><trkpt lat="42.2890967" lon="13.6905483"><ele>903.9999999999999</ele><time>2026-05-03T08:11:25.554Z</time></trkpt><trkpt lat="42.2892033" lon="13.6905333"><ele>902.9999999999999</ele><time>2026-05-03T08:11:26.553Z</time></trkpt><trkpt lat="42.2893167" lon="13.690515"><ele>902.0</ele><time>2026-05-03T08:11:27.554Z</time></trkpt><trkpt lat="42.2894283" lon="13.6904917"><ele>901.0</ele><time>2026-05-03T08:11:28.554Z</time></trkpt><trkpt lat="42.289555" lon="13.6905"><ele>901.0</ele><time>2026-05-03T08:11:29.554Z</time></trkpt><trkpt lat="42.2896867" lon="13.6905333"><ele>901.0</ele><time>2026-05-03T08:11:30.553Z</time></trkpt><trkpt lat="42.28981" lon="13.6905683"><ele>901.0</ele><time>2026-05-03T08:11:31.554Z</time></trkpt><trkpt lat="42.2899083" lon="13.6906117"><ele>901.0</ele><time>2026-05-03T08:11:32.554Z</time></trkpt><trkpt lat="42.290005" lon="13.6906417"><ele>900.1999999999999</ele><time>2026-05-03T08:11:33.554Z</time></trkpt><trkpt lat="42.290115" lon="13.6906517"><ele>899.3999999999999</ele><time>2026-05-03T08:11:34.553Z</time></trkpt><trkpt lat="42.2902233" lon="13.69064"><ele>898.6</ele><time>2026-05-03T08:11:35.553Z</time></trkpt><trkpt lat="42.29033" lon="13.6906083"><ele>897.8</ele><time>2026-05-03T08:11:36.553Z</time></trkpt><trkpt lat="42.29043" lon="13.6905833"><ele>897.0</ele><time>2026-05-03T08:11:37.554Z</time></trkpt><trkpt lat="42.2905383" lon="13.69054"><ele>894.5</ele><time>2026-05-03T08:11:38.554Z</time></trkpt><trkpt lat="42.29066" lon="13.6905217"><ele>892.0</ele><time>2026-05-03T08:11:39.554Z</time></trkpt><trkpt lat="42.2907733" lon="13.69053"><ele>889.5</ele><time>2026-05-03T08:11:40.554Z</time></trkpt><trkpt lat="42.2908883" lon="13.6905283"><ele>887.0</ele><time>2026-05-03T08:11:41.554Z</time></trkpt><trkpt lat="42.2910067" lon="13.69053"><ele>887.0</ele><time>2026-05-03T08:11:42.554Z</time></trkpt><trkpt lat="42.29112" lon="13.6904983"><ele>887.0</ele><time>2026-05-03T08:11:43.554Z</time></trkpt><trkpt lat="42.29124" lon="13.690445"><ele>887.0</ele><time>2026-05-03T08:11:44.553Z</time></trkpt><trkpt lat="42.2913467" lon="13.6903467"><ele>887.0</ele><time>2026-05-03T08:11:45.554Z</time></trkpt><trkpt lat="42.29145" lon="13.69023"><ele>884.5</ele><time>2026-05-03T08:11:46.554Z</time></trkpt><trkpt lat="42.2915433" lon="13.6901167"><ele>882.0</ele><time>2026-05-03T08:11:47.554Z</time></trkpt><trkpt lat="42.291635" lon="13.6900033"><ele>879.5</ele><time>2026-05-03T08:11:48.553Z</time></trkpt><trkpt lat="42.291715" lon="13.689915"><ele>877.0</ele><time>2026-05-03T08:11:49.554Z</time></trkpt><trkpt lat="42.2918067" lon="13.6898583"><ele>877.0</ele><time>2026-05-03T08:11:50.554Z</time></trkpt><trkpt lat="42.2919083" lon="13.6898067"><ele>877.0</ele><time>2026-05-03T08:11:51.554Z</time></trkpt><trkpt lat="42.2920067" lon="13.6897417"><ele>877.0</ele><time>2026-05-03T08:11:52.554Z</time></trkpt><trkpt lat="42.29209" lon="13.6896733"><ele>877.0</ele><time>2026-05-03T08:11:53.553Z</time></trkpt><trkpt lat="42.292175" lon="13.68957"><ele>877.0</ele><time>2026-05-03T08:11:54.554Z</time></trkpt><trkpt lat="42.292265" lon="13.6894367"><ele>875.0</ele><time>2026-05-03T08:11:55.554Z</time></trkpt><trkpt lat="42.2923667" lon="13.6892933"><ele>873.0</ele><time>2026-05-03T08:11:56.554Z</time></trkpt><trkpt lat="42.2924633" lon="13.6891433"><ele>871.0</ele><time>2026-05-03T08:11:57.554Z</time></trkpt><trkpt lat="42.2925683" lon="13.689005"><ele>869.0</ele><time>2026-05-03T08:11:58.554Z</time></trkpt><trkpt lat="42.2926733" lon="13.6888833"><ele>869.0</ele><time>2026-05-03T08:11:59.554Z</time></trkpt><trkpt lat="42.2927783" lon="13.6887833"><ele>869.0</ele><time>2026-05-03T08:12:00.553Z</time></trkpt><trkpt lat="42.2928867" lon="13.6887183"><ele>869.0</ele><time>2026-05-03T08:12:01.554Z</time></trkpt><trkpt lat="42.2930033" lon="13.6886617"><ele>869.0</ele><time>2026-05-03T08:12:02.553Z</time></trkpt><trkpt lat="42.2931167" lon="13.6886"><ele>869.0000000000001</ele><time>2026-05-03T08:12:03.554Z</time></trkpt><trkpt lat="42.2932217" lon="13.688555"><ele>869.0</ele><time>2026-05-03T08:12:04.554Z</time></trkpt><trkpt lat="42.2933133" lon="13.6885383"><ele>869.0</ele><time>2026-05-03T08:12:05.554Z</time></trkpt><trkpt lat="42.293385" lon="13.6885467"><ele>869.0</ele><time>2026-05-03T08:12:06.554Z</time></trkpt><trkpt lat="42.2934483" lon="13.6885967"><ele>869.0000000000001</ele><time>2026-05-03T08:12:08.554Z</time></trkpt><trkpt lat="42.2934083" lon="13.6886833"><ele>869.0</ele><time>2026-05-03T08:12:10.553Z</time></trkpt><trkpt lat="42.2933367" lon="13.688755"><ele>869.0</ele><time>2026-05-03T08:12:11.554Z</time></trkpt><trkpt lat="42.293245" lon="13.68886"><ele>869.0</ele><time>2026-05-03T08:12:12.554Z</time></trkpt><trkpt lat="42.29315" lon="13.689"><ele>869.0</ele><time>2026-05-03T08:12:13.554Z</time></trkpt><trkpt lat="42.293055" lon="13.6891633"><ele>869.0</ele><time>2026-05-03T08:12:14.554Z</time></trkpt><trkpt lat="42.29296" lon="13.689325"><ele>866.5</ele><time>2026-05-03T08:12:15.554Z</time></trkpt><trkpt lat="42.2928833" lon="13.6894817"><ele>864.0</ele><time>2026-05-03T08:12:16.554Z</time></trkpt><trkpt lat="42.2928183" lon="13.6896267"><ele>861.5</ele><time>2026-05-03T08:12:17.554Z</time></trkpt><trkpt lat="42.29276" lon="13.6897683"><ele>859.0</ele><time>2026-05-03T08:12:18.553Z</time></trkpt><trkpt lat="42.2926967" lon="13.6899217"><ele>859.0</ele><time>2026-05-03T08:12:19.553Z</time></trkpt><trkpt lat="42.2926283" lon="13.6901"><ele>859.0</ele><time>2026-05-03T08:12:20.554Z</time></trkpt><trkpt lat="42.2925667" lon="13.6902683"><ele>859.0</ele><time>2026-05-03T08:12:21.554Z</time></trkpt><trkpt lat="42.292515" lon="13.69042"><ele>859.0</ele><time>2026-05-03T08:12:22.554Z</time></trkpt><trkpt lat="42.2924883" lon="13.6905383"><ele>859.3333333333333</ele><time>2026-05-03T08:12:23.554Z</time></trkpt><trkpt lat="42.2924817" lon="13.69065"><ele>859.6666666666666</ele><time>2026-05-03T08:12:24.554Z</time></trkpt><trkpt lat="42.2924783" lon="13.6907467"><ele>860.0</ele><time>2026-05-03T08:12:25.554Z</time></trkpt><trkpt lat="42.2924683" lon="13.6908433"><ele>860.3333333333333</ele><time>2026-05-03T08:12:26.553Z</time></trkpt><trkpt lat="42.292455" lon="13.6909617"><ele>860.6666666666666</ele><time>2026-05-03T08:12:27.554Z</time></trkpt><trkpt lat="42.29244" lon="13.6910833"><ele>861.0</ele><time>2026-05-03T08:12:28.554Z</time></trkpt><trkpt lat="42.2924133" lon="13.691225"><ele>861.0</ele><time>2026-05-03T08:12:29.553Z</time></trkpt><trkpt lat="42.29237" lon="13.6913733"><ele>861.0</ele><time>2026-05-03T08:12:30.554Z</time></trkpt><trkpt lat="42.2923083" lon="13.691525"><ele>861.0</ele><time>2026-05-03T08:12:31.553Z</time></trkpt><trkpt lat="42.2922367" lon="13.69168"><ele>861.0</ele><time>2026-05-03T08:12:32.554Z</time></trkpt><trkpt lat="42.29215" lon="13.6918333"><ele>861.3333333333333</ele><time>2026-05-03T08:12:33.554Z</time></trkpt><trkpt lat="42.29204" lon="13.6919717"><ele>861.6666666666666</ele><time>2026-05-03T08:12:34.554Z</time></trkpt><trkpt lat="42.2919083" lon="13.69212"><ele>862.0</ele><time>2026-05-03T08:12:35.553Z</time></trkpt><trkpt lat="42.2917833" lon="13.6922483"><ele>862.0</ele><time>2026-05-03T08:12:36.554Z</time></trkpt><trkpt lat="42.2916567" lon="13.69237"><ele>862.0</ele><time>2026-05-03T08:12:37.554Z</time></trkpt><trkpt lat="42.29152" lon="13.6925083"><ele>862.0</ele><time>2026-05-03T08:12:38.554Z</time></trkpt><trkpt lat="42.2913883" lon="13.6926533"><ele>862.0</ele><time>2026-05-03T08:12:39.553Z</time></trkpt><trkpt lat="42.291285" lon="13.692795"><ele>862.0</ele><time>2026-05-03T08:12:40.553Z</time></trkpt><trkpt lat="42.291205" lon="13.6929267"><ele>862.0</ele><time>2026-05-03T08:12:41.554Z</time></trkpt><trkpt lat="42.2911333" lon="13.6930533"><ele>862.0</ele><time>2026-05-03T08:12:42.554Z</time></trkpt><trkpt lat="42.29106" lon="13.69318"><ele>861.9999999999999</ele><time>2026-05-03T08:12:43.554Z</time></trkpt><trkpt lat="42.2909767" lon="13.6932983"><ele>862.0</ele><time>2026-05-03T08:12:44.553Z</time></trkpt><trkpt lat="42.2909033" lon="13.69339"><ele>862.0</ele><time>2026-05-03T08:12:45.554Z</time></trkpt><trkpt lat="42.290835" lon="13.6934633"><ele>862.0</ele><time>2026-05-03T08:12:46.554Z</time></trkpt><trkpt lat="42.2907833" lon="13.6935183"><ele>861.9999999999999</ele><time>2026-05-03T08:12:47.553Z</time></trkpt><trkpt lat="42.2907233" lon="13.69358"><ele>862.0</ele><time>2026-05-03T08:12:49.553Z</time></trkpt><trkpt lat="42.290655" lon="13.693635"><ele>862.0</ele><time>2026-05-03T08:12:52.554Z</time></trkpt><trkpt lat="42.2907567" lon="13.69355"><ele>862.0</ele><time>2026-05-03T08:12:59.554Z</time></trkpt><trkpt lat="42.290815" lon="13.6934833"><ele>862.0</ele><time>2026-05-03T08:13:00.553Z</time></trkpt><trkpt lat="42.29088" lon="13.6934083"><ele>862.0</ele><time>2026-05-03T08:13:01.553Z</time></trkpt><trkpt lat="42.2909417" lon="13.6933283"><ele>862.0</ele><time>2026-05-03T08:13:02.554Z</time></trkpt><trkpt lat="42.291005" lon="13.6932417"><ele>862.0</ele><time>2026-05-03T08:13:03.554Z</time></trkpt><trkpt lat="42.2910567" lon="13.6931667"><ele>862.0</ele><time>2026-05-03T08:13:04.553Z</time></trkpt><trkpt lat="42.29112" lon="13.6930467"><ele>862.0</ele><time>2026-05-03T08:13:06.553Z</time></trkpt><trkpt lat="42.291035" lon="13.6929717"><ele>862.0</ele><time>2026-05-03T08:13:10.554Z</time></trkpt><trkpt lat="42.2909633" lon="13.6929917"><ele>862.0</ele><time>2026-05-03T08:13:11.554Z</time></trkpt><trkpt lat="42.2908733" lon="13.6930367"><ele>862.0</ele><time>2026-05-03T08:13:12.553Z</time></trkpt><trkpt lat="42.2907817" lon="13.6930833"><ele>862.0</ele><time>2026-05-03T08:13:13.554Z</time></trkpt><trkpt lat="42.2906783" lon="13.6931167"><ele>862.0</ele><time>2026-05-03T08:13:14.554Z</time></trkpt><trkpt lat="42.29058" lon="13.6931283"><ele>862.0</ele><time>2026-05-03T08:13:15.554Z</time></trkpt><trkpt lat="42.2904883" lon="13.693155"><ele>862.0</ele><time>2026-05-03T08:13:16.554Z</time></trkpt><trkpt lat="42.2903917" lon="13.69321"><ele>860.0</ele><time>2026-05-03T08:13:17.553Z</time></trkpt><trkpt lat="42.29027" lon="13.6932983"><ele>858.0</ele><time>2026-05-03T08:13:18.554Z</time></trkpt><trkpt lat="42.2901467" lon="13.6933933"><ele>856.0</ele><time>2026-05-03T08:13:19.554Z</time></trkpt><trkpt lat="42.2900333" lon="13.6934733"><ele>854.0</ele><time>2026-05-03T08:13:20.553Z</time></trkpt><trkpt lat="42.2899267" lon="13.6935617"><ele>853.6</ele><time>2026-05-03T08:13:21.554Z</time></trkpt><trkpt lat="42.289825" lon="13.6936417"><ele>853.2</ele><time>2026-05-03T08:13:22.553Z</time></trkpt><trkpt lat="42.2897367" lon="13.6937167"><ele>852.8000000000001</ele><time>2026-05-03T08:13:23.554Z</time></trkpt><trkpt lat="42.28966" lon="13.693795"><ele>852.4000000000001</ele><time>2026-05-03T08:13:24.554Z</time></trkpt><trkpt lat="42.2895967" lon="13.6938867"><ele>852.0</ele><time>2026-05-03T08:13:25.553Z</time></trkpt><trkpt lat="42.2895317" lon="13.6940133"><ele>847.6666666666667</ele><time>2026-05-03T08:13:26.554Z</time></trkpt><trkpt lat="42.289465" lon="13.69417"><ele>843.3333333333334</ele><time>2026-05-03T08:13:27.554Z</time></trkpt><trkpt lat="42.2893883" lon="13.6943567"><ele>839.0</ele><time>2026-05-03T08:13:28.554Z</time></trkpt><trkpt lat="42.289305" lon="13.6945533"><ele>837.3333333333334</ele><time>2026-05-03T08:13:29.554Z</time></trkpt><trkpt lat="42.28922" lon="13.6947433"><ele>835.6666666666667</ele><time>2026-05-03T08:13:30.554Z</time></trkpt><trkpt lat="42.2891383" lon="13.69492"><ele>834.0</ele><time>2026-05-03T08:13:31.553Z</time></trkpt><trkpt lat="42.2890583" lon="13.6950817"><ele>834.0</ele><time>2026-05-03T08:13:32.554Z</time></trkpt><trkpt lat="42.2889767" lon="13.6952283"><ele>834.0</ele><time>2026-05-03T08:13:33.554Z</time></trkpt><trkpt lat="42.2889067" lon="13.6953633"><ele>834.0</ele><time>2026-05-03T08:13:34.554Z</time></trkpt><trkpt lat="42.2888467" lon="13.6955017"><ele>834.0</ele><time>2026-05-03T08:13:35.553Z</time></trkpt><trkpt lat="42.2887883" lon="13.6956517"><ele>831.0</ele><time>2026-05-03T08:13:36.554Z</time></trkpt><trkpt lat="42.288725" lon="13.6957867"><ele>828.0</ele><time>2026-05-03T08:13:37.553Z</time></trkpt><trkpt lat="42.288655" lon="13.6958933"><ele>825.0</ele><time>2026-05-03T08:13:38.554Z</time></trkpt><trkpt lat="42.2885817" lon="13.69596"><ele>822.0</ele><time>2026-05-03T08:13:39.554Z</time></trkpt><trkpt lat="42.2885" lon="13.6959933"><ele>819.0</ele><time>2026-05-03T08:13:40.553Z</time></trkpt><trkpt lat="42.2884233" lon="13.696015"><ele>819.0</ele><time>2026-05-03T08:13:41.553Z</time></trkpt><trkpt lat="42.288345" lon="13.6960567"><ele>819.0</ele><time>2026-05-03T08:13:42.554Z</time></trkpt><trkpt lat="42.2882617" lon="13.6961267"><ele>819.0</ele><time>2026-05-03T08:13:43.553Z</time></trkpt><trkpt lat="42.2881783" lon="13.69621"><ele>819.0</ele><time>2026-05-03T08:13:44.554Z</time></trkpt><trkpt lat="42.2880883" lon="13.6963117"><ele>819.0</ele><time>2026-05-03T08:13:45.554Z</time></trkpt><trkpt lat="42.288005" lon="13.696415"><ele>815.8000000000001</ele><time>2026-05-03T08:13:46.554Z</time></trkpt><trkpt lat="42.2879233" lon="13.6965133"><ele>812.6</ele><time>2026-05-03T08:13:47.554Z</time></trkpt><trkpt lat="42.2878667" lon="13.6965983"><ele>809.4</ele><time>2026-05-03T08:13:48.554Z</time></trkpt><trkpt lat="42.2877967" lon="13.6966783"><ele>806.2</ele><time>2026-05-03T08:13:49.554Z</time></trkpt><trkpt lat="42.28771" lon="13.69676"><ele>803.0</ele><time>2026-05-03T08:13:50.554Z</time></trkpt><trkpt lat="42.2876433" lon="13.696845"><ele>802.4</ele><time>2026-05-03T08:13:51.553Z</time></trkpt><trkpt lat="42.2876033" lon="13.6969383"><ele>801.8</ele><time>2026-05-03T08:13:52.553Z</time></trkpt><trkpt lat="42.2875767" lon="13.69705"><ele>801.2</ele><time>2026-05-03T08:13:53.554Z</time></trkpt><trkpt lat="42.2875733" lon="13.6972017"><ele>800.6</ele><time>2026-05-03T08:13:54.553Z</time></trkpt><trkpt lat="42.287565" lon="13.6973583"><ele>800.0</ele><time>2026-05-03T08:13:55.553Z</time></trkpt><trkpt lat="42.2875317" lon="13.6974983"><ele>800.0</ele><time>2026-05-03T08:13:56.554Z</time></trkpt><trkpt lat="42.2874667" lon="13.6976433"><ele>800.0</ele><time>2026-05-03T08:13:57.554Z</time></trkpt><trkpt lat="42.287395" lon="13.6978"><ele>800.0</ele><time>2026-05-03T08:13:58.553Z</time></trkpt><trkpt lat="42.2873333" lon="13.6979783"><ele>800.0</ele><time>2026-05-03T08:13:59.554Z</time></trkpt><trkpt lat="42.287305" lon="13.6981367"><ele>799.8</ele><time>2026-05-03T08:14:00.553Z</time></trkpt><trkpt lat="42.287275" lon="13.6982617"><ele>799.6</ele><time>2026-05-03T08:14:01.554Z</time></trkpt><trkpt lat="42.2872567" lon="13.6983583"><ele>799.4000000000001</ele><time>2026-05-03T08:14:02.553Z</time></trkpt><trkpt lat="42.2872117" lon="13.6984783"><ele>799.2</ele><time>2026-05-03T08:14:04.554Z</time></trkpt><trkpt lat="42.2871783" lon="13.6985633"><ele>799.0</ele><time>2026-05-03T08:14:06.553Z</time></trkpt><trkpt lat="42.2871317" lon="13.6987167"><ele>798.9999999999999</ele><time>2026-05-03T08:14:08.553Z</time></trkpt><trkpt lat="42.2871033" lon="13.6988183"><ele>799.0</ele><time>2026-05-03T08:14:11.554Z</time></trkpt><trkpt lat="42.2870917" lon="13.6986867"><ele>799.0</ele><time>2026-05-03T08:14:15.554Z</time></trkpt><trkpt lat="42.2871433" lon="13.6985933"><ele>799.0</ele><time>2026-05-03T08:14:17.553Z</time></trkpt><trkpt lat="42.2872267" lon="13.6984983"><ele>798.9999999999999</ele><time>2026-05-03T08:14:19.554Z</time></trkpt><trkpt lat="42.2872967" lon="13.6984967"><ele>799.0</ele><time>2026-05-03T08:14:21.554Z</time></trkpt><trkpt lat="42.287325" lon="13.6986167"><ele>798.4000000000001</ele><time>2026-05-03T08:14:23.553Z</time></trkpt><trkpt lat="42.28732" lon="13.6987233"><ele>797.8</ele><time>2026-05-03T08:14:24.553Z</time></trkpt><trkpt lat="42.2873033" lon="13.6988683"><ele>797.2</ele><time>2026-05-03T08:14:25.554Z</time></trkpt><trkpt lat="42.287265" lon="13.6990317"><ele>796.5999999999999</ele><time>2026-05-03T08:14:26.553Z</time></trkpt><trkpt lat="42.2872333" lon="13.69917"><ele>796.0</ele><time>2026-05-03T08:14:27.554Z</time></trkpt><trkpt lat="42.287225" lon="13.6992917"><ele>795.5714285714286</ele><time>2026-05-03T08:14:28.554Z</time></trkpt><trkpt lat="42.2872417" lon="13.6993883"><ele>795.1428571428571</ele><time>2026-05-03T08:14:29.554Z</time></trkpt><trkpt lat="42.28728" lon="13.6994783"><ele>794.7142857142858</ele><time>2026-05-03T08:14:30.554Z</time></trkpt><trkpt lat="42.2873367" lon="13.6995717"><ele>794.2857142857142</ele><time>2026-05-03T08:14:31.554Z</time></trkpt><trkpt lat="42.2873833" lon="13.6996467"><ele>793.8571428571429</ele><time>2026-05-03T08:14:32.553Z</time></trkpt><trkpt lat="42.287405" lon="13.69973"><ele>793.4285714285714</ele><time>2026-05-03T08:14:33.554Z</time></trkpt><trkpt lat="42.287405" lon="13.6998267"><ele>793.0</ele><time>2026-05-03T08:14:34.553Z</time></trkpt><trkpt lat="42.287395" lon="13.699945"><ele>793.0</ele><time>2026-05-03T08:14:35.553Z</time></trkpt><trkpt lat="42.28738" lon="13.70007"><ele>793.0</ele><time>2026-05-03T08:14:36.554Z</time></trkpt><trkpt lat="42.28736" lon="13.700175"><ele>793.0</ele><time>2026-05-03T08:14:37.554Z</time></trkpt><trkpt lat="42.2873217" lon="13.7002767"><ele>793.0</ele><time>2026-05-03T08:14:38.554Z</time></trkpt><trkpt lat="42.2872717" lon="13.7003867"><ele>793.0</ele><time>2026-05-03T08:14:39.554Z</time></trkpt><trkpt lat="42.2872117" lon="13.700535"><ele>790.5</ele><time>2026-05-03T08:14:40.553Z</time></trkpt><trkpt lat="42.2871567" lon="13.7006883"><ele>788.0</ele><time>2026-05-03T08:14:41.554Z</time></trkpt><trkpt lat="42.2871267" lon="13.7008367"><ele>785.5</ele><time>2026-05-03T08:14:42.554Z</time></trkpt><trkpt lat="42.287115" lon="13.7009717"><ele>783.0</ele><time>2026-05-03T08:14:43.554Z</time></trkpt><trkpt lat="42.2871233" lon="13.70112"><ele>783.0</ele><time>2026-05-03T08:14:44.554Z</time></trkpt><trkpt lat="42.2871267" lon="13.7012983"><ele>783.0</ele><time>2026-05-03T08:14:45.554Z</time></trkpt><trkpt lat="42.2871183" lon="13.7014767"><ele>783.0</ele><time>2026-05-03T08:14:46.554Z</time></trkpt><trkpt lat="42.2870867" lon="13.701645"><ele>783.0</ele><time>2026-05-03T08:14:47.554Z</time></trkpt><trkpt lat="42.2870367" lon="13.7018017"><ele>782.6666666666667</ele><time>2026-05-03T08:14:48.554Z</time></trkpt><trkpt lat="42.2869733" lon="13.7019683"><ele>782.3333333333334</ele><time>2026-05-03T08:14:49.553Z</time></trkpt><trkpt lat="42.2868933" lon="13.7021717"><ele>782.0</ele><time>2026-05-03T08:14:50.553Z</time></trkpt><trkpt lat="42.2868083" lon="13.702385"><ele>782.0</ele><time>2026-05-03T08:14:51.553Z</time></trkpt><trkpt lat="42.2867333" lon="13.7026033"><ele>782.0</ele><time>2026-05-03T08:14:52.554Z</time></trkpt><trkpt lat="42.28665" lon="13.70282"><ele>782.0</ele><time>2026-05-03T08:14:53.553Z</time></trkpt><trkpt lat="42.2865617" lon="13.7030183"><ele>783.3333333333334</ele><time>2026-05-03T08:14:54.554Z</time></trkpt><trkpt lat="42.2864833" lon="13.7032067"><ele>784.6666666666667</ele><time>2026-05-03T08:14:55.554Z</time></trkpt><trkpt lat="42.2864167" lon="13.7033967"><ele>786.0</ele><time>2026-05-03T08:14:56.553Z</time></trkpt><trkpt lat="42.28636" lon="13.703575"><ele>784.3333333333334</ele><time>2026-05-03T08:14:57.553Z</time></trkpt><trkpt lat="42.2863167" lon="13.7037267"><ele>782.6666666666667</ele><time>2026-05-03T08:14:58.554Z</time></trkpt><trkpt lat="42.2862683" lon="13.7038417"><ele>781.0</ele><time>2026-05-03T08:14:59.554Z</time></trkpt><trkpt lat="42.2862183" lon="13.7038967"><ele>779.3333333333334</ele><time>2026-05-03T08:15:00.554Z</time></trkpt><trkpt lat="42.2861483" lon="13.70391"><ele>777.6666666666667</ele><time>2026-05-03T08:15:01.554Z</time></trkpt><trkpt lat="42.2860567" lon="13.7038783"><ele>776.0</ele><time>2026-05-03T08:15:02.553Z</time></trkpt><trkpt lat="42.2859383" lon="13.703825"><ele>776.0</ele><time>2026-05-03T08:15:03.554Z</time></trkpt><trkpt lat="42.2858133" lon="13.7037783"><ele>776.0</ele><time>2026-05-03T08:15:04.554Z</time></trkpt><trkpt lat="42.2856933" lon="13.7037467"><ele>776.0</ele><time>2026-05-03T08:15:05.554Z</time></trkpt><trkpt lat="42.2856067" lon="13.70375"><ele>776.0</ele><time>2026-05-03T08:15:06.553Z</time></trkpt><trkpt lat="42.28554" lon="13.7037817"><ele>776.0</ele><time>2026-05-03T08:15:07.554Z</time></trkpt><trkpt lat="42.2854617" lon="13.70387"><ele>779.5</ele><time>2026-05-03T08:15:08.554Z</time></trkpt><trkpt lat="42.285385" lon="13.7039983"><ele>783.0</ele><time>2026-05-03T08:15:09.553Z</time></trkpt><trkpt lat="42.2853017" lon="13.7041667"><ele>786.5</ele><time>2026-05-03T08:15:10.553Z</time></trkpt><trkpt lat="42.2852283" lon="13.7043183"><ele>790.0</ele><time>2026-05-03T08:15:11.554Z</time></trkpt><trkpt lat="42.2851667" lon="13.70448"><ele>790.0</ele><time>2026-05-03T08:15:12.553Z</time></trkpt><trkpt lat="42.2851183" lon="13.7046417"><ele>790.0</ele><time>2026-05-03T08:15:13.553Z</time></trkpt><trkpt lat="42.2850717" lon="13.7048033"><ele>790.0</ele><time>2026-05-03T08:15:14.554Z</time></trkpt><trkpt lat="42.28503" lon="13.704995"><ele>790.0</ele><time>2026-05-03T08:15:15.554Z</time></trkpt><trkpt lat="42.28499" lon="13.70521"><ele>788.75</ele><time>2026-05-03T08:15:16.554Z</time></trkpt><trkpt lat="42.2849417" lon="13.7053983"><ele>787.5</ele><time>2026-05-03T08:15:17.554Z</time></trkpt><trkpt lat="42.2848733" lon="13.7055667"><ele>786.25</ele><time>2026-05-03T08:15:18.554Z</time></trkpt><trkpt lat="42.284815" lon="13.7057417"><ele>785.0</ele><time>2026-05-03T08:15:19.554Z</time></trkpt><trkpt lat="42.284765" lon="13.7059167"><ele>791.0</ele><time>2026-05-03T08:15:20.554Z</time></trkpt><trkpt lat="42.284735" lon="13.7060867"><ele>797.0</ele><time>2026-05-03T08:15:21.553Z</time></trkpt><trkpt lat="42.2846817" lon="13.7062583"><ele>803.0</ele><time>2026-05-03T08:15:22.554Z</time></trkpt><trkpt lat="42.28461" lon="13.7064117"><ele>809.0</ele><time>2026-05-03T08:15:23.554Z</time></trkpt><trkpt lat="42.284535" lon="13.7065533"><ele>809.0</ele><time>2026-05-03T08:15:24.554Z</time></trkpt><trkpt lat="42.2844483" lon="13.7066883"><ele>809.0</ele><time>2026-05-03T08:15:25.554Z</time></trkpt><trkpt lat="42.2843583" lon="13.7068067"><ele>809.0</ele><time>2026-05-03T08:15:26.554Z</time></trkpt><trkpt lat="42.2842583" lon="13.7069267"><ele>809.0</ele><time>2026-05-03T08:15:27.554Z</time></trkpt><trkpt lat="42.2841683" lon="13.7070483"><ele>808.0</ele><time>2026-05-03T08:15:28.553Z</time></trkpt><trkpt lat="42.28407" lon="13.7071683"><ele>807.0</ele><time>2026-05-03T08:15:29.554Z</time></trkpt><trkpt lat="42.2839567" lon="13.707305"><ele>806.0</ele><time>2026-05-03T08:15:30.554Z</time></trkpt><trkpt lat="42.28385" lon="13.70745"><ele>805.0</ele><time>2026-05-03T08:15:31.554Z</time></trkpt><trkpt lat="42.283745" lon="13.7076183"><ele>808.25</ele><time>2026-05-03T08:15:32.553Z</time></trkpt><trkpt lat="42.2836433" lon="13.7078017"><ele>811.5</ele><time>2026-05-03T08:15:33.553Z</time></trkpt><trkpt lat="42.28356" lon="13.707965"><ele>814.75</ele><time>2026-05-03T08:15:34.553Z</time></trkpt><trkpt lat="42.2834867" lon="13.7081067"><ele>818.0</ele><time>2026-05-03T08:15:35.554Z</time></trkpt><trkpt lat="42.2834017" lon="13.7082317"><ele>818.0</ele><time>2026-05-03T08:15:36.554Z</time></trkpt><trkpt lat="42.2833133" lon="13.7083567"><ele>818.0</ele><time>2026-05-03T08:15:37.553Z</time></trkpt><trkpt lat="42.2832117" lon="13.7084833"><ele>818.0</ele><time>2026-05-03T08:15:38.554Z</time></trkpt><trkpt lat="42.2831067" lon="13.708615"><ele>818.0</ele><time>2026-05-03T08:15:39.553Z</time></trkpt><trkpt lat="42.2830083" lon="13.7087167"><ele>818.5999999999999</ele><time>2026-05-03T08:15:40.554Z</time></trkpt><trkpt lat="42.2829233" lon="13.70878"><ele>819.1999999999999</ele><time>2026-05-03T08:15:41.554Z</time></trkpt><trkpt lat="42.2828333" lon="13.70883"><ele>819.8</ele><time>2026-05-03T08:15:42.554Z</time></trkpt><trkpt lat="42.28273" lon="13.7088717"><ele>820.4</ele><time>2026-05-03T08:15:43.554Z</time></trkpt><trkpt lat="42.282615" lon="13.7089283"><ele>821.0</ele><time>2026-05-03T08:15:44.554Z</time></trkpt><trkpt lat="42.2824883" lon="13.7090067"><ele>821.0</ele><time>2026-05-03T08:15:45.553Z</time></trkpt><trkpt lat="42.2823617" lon="13.7091"><ele>821.0</ele><time>2026-05-03T08:15:46.553Z</time></trkpt><trkpt lat="42.2822317" lon="13.7091983"><ele>821.0</ele><time>2026-05-03T08:15:47.554Z</time></trkpt><trkpt lat="42.2821117" lon="13.7092817"><ele>821.0</ele><time>2026-05-03T08:15:48.554Z</time></trkpt><trkpt lat="42.281995" lon="13.709355"><ele>821.25</ele><time>2026-05-03T08:15:49.554Z</time></trkpt><trkpt lat="42.2818883" lon="13.7094217"><ele>821.5</ele><time>2026-05-03T08:15:50.554Z</time></trkpt><trkpt lat="42.281785" lon="13.7094883"><ele>821.75</ele><time>2026-05-03T08:15:51.553Z</time></trkpt><trkpt lat="42.2816717" lon="13.709555"><ele>822.0</ele><time>2026-05-03T08:15:52.554Z</time></trkpt><trkpt lat="42.28156" lon="13.709635"><ele>822.0</ele><time>2026-05-03T08:15:53.554Z</time></trkpt><trkpt lat="42.2814583" lon="13.7097233"><ele>822.0</ele><time>2026-05-03T08:15:54.553Z</time></trkpt><trkpt lat="42.2813667" lon="13.7098"><ele>822.0</ele><time>2026-05-03T08:15:55.554Z</time></trkpt><trkpt lat="42.2812567" lon="13.7098667"><ele>822.0</ele><time>2026-05-03T08:15:56.554Z</time></trkpt><trkpt lat="42.281135" lon="13.70992"><ele>827.25</ele><time>2026-05-03T08:15:57.554Z</time></trkpt><trkpt lat="42.28101" lon="13.70996"><ele>832.5</ele><time>2026-05-03T08:15:58.553Z</time></trkpt><trkpt lat="42.28089" lon="13.7100033"><ele>837.75</ele><time>2026-05-03T08:15:59.554Z</time></trkpt><trkpt lat="42.2807967" lon="13.7100517"><ele>843.0</ele><time>2026-05-03T08:16:00.553Z</time></trkpt><trkpt lat="42.2806983" lon="13.7100833"><ele>845.75</ele><time>2026-05-03T08:16:01.554Z</time></trkpt><trkpt lat="42.2805933" lon="13.7100967"><ele>848.5</ele><time>2026-05-03T08:16:02.553Z</time></trkpt><trkpt lat="42.280475" lon="13.7101217"><ele>851.25</ele><time>2026-05-03T08:16:03.554Z</time></trkpt><trkpt lat="42.2803533" lon="13.7101283"><ele>854.0</ele><time>2026-05-03T08:16:04.554Z</time></trkpt><trkpt lat="42.28024" lon="13.710125"><ele>854.0</ele><time>2026-05-03T08:16:05.553Z</time></trkpt><trkpt lat="42.2801333" lon="13.7101283"><ele>854.0000000000001</ele><time>2026-05-03T08:16:06.553Z</time></trkpt><trkpt lat="42.280025" lon="13.7101517"><ele>854.0000000000001</ele><time>2026-05-03T08:16:07.554Z</time></trkpt><trkpt lat="42.2799067" lon="13.7101583"><ele>854.0</ele><time>2026-05-03T08:16:08.553Z</time></trkpt><trkpt lat="42.2797929" lon="13.7101672"><ele>854.0</ele><time>2026-05-03T08:16:09.553Z</time></trkpt><trkpt lat="42.2796793" lon="13.7101757"><ele>855.75</ele><time>2026-05-03T08:16:10.554Z</time></trkpt><trkpt lat="42.2795555" lon="13.710188"><ele>857.5</ele><time>2026-05-03T08:16:11.553Z</time></trkpt><trkpt lat="42.279419" lon="13.7101808"><ele>859.25</ele><time>2026-05-03T08:16:12.553Z</time></trkpt><trkpt lat="42.2792941" lon="13.7101747"><ele>861.0</ele><time>2026-05-03T08:16:13.553Z</time></trkpt><trkpt lat="42.2792058" lon="13.7101543"><ele>861.0</ele><time>2026-05-03T08:16:14.553Z</time></trkpt><trkpt lat="42.2791325" lon="13.7101206"><ele>860.9999999999999</ele><time>2026-05-03T08:16:15.554Z</time></trkpt><trkpt lat="42.2790442" lon="13.7100772"><ele>860.9999999999999</ele><time>2026-05-03T08:16:16.554Z</time></trkpt><trkpt lat="42.2789347" lon="13.7100624"><ele>861.0</ele><time>2026-05-03T08:16:17.553Z</time></trkpt><trkpt lat="42.2788007" lon="13.7100785"><ele>861.0</ele><time>2026-05-03T08:16:18.554Z</time></trkpt><trkpt lat="42.2786553" lon="13.7101046"><ele>864.25</ele><time>2026-05-03T08:16:19.553Z</time></trkpt><trkpt lat="42.2785135" lon="13.7101188"><ele>867.5</ele><time>2026-05-03T08:16:20.554Z</time></trkpt><trkpt lat="42.2783763" lon="13.7101402"><ele>870.75</ele><time>2026-05-03T08:16:21.554Z</time></trkpt><trkpt lat="42.2782491" lon="13.7101781"><ele>874.0</ele><time>2026-05-03T08:16:22.553Z</time></trkpt><trkpt lat="42.27812" lon="13.7102266"><ele>875.2</ele><time>2026-05-03T08:16:23.554Z</time></trkpt><trkpt lat="42.277997" lon="13.7102731"><ele>876.4000000000001</ele><time>2026-05-03T08:16:24.554Z</time></trkpt><trkpt lat="42.2778891" lon="13.7102951"><ele>877.6</ele><time>2026-05-03T08:16:25.554Z</time></trkpt><trkpt lat="42.2777982" lon="13.7103027"><ele>878.8</ele><time>2026-05-03T08:16:26.554Z</time></trkpt><trkpt lat="42.2777244" lon="13.7103081"><ele>880.0</ele><time>2026-05-03T08:16:27.554Z</time></trkpt><trkpt lat="42.2776577" lon="13.7103184"><ele>879.9999999999999</ele><time>2026-05-03T08:16:28.554Z</time></trkpt><trkpt lat="42.2775721" lon="13.7103296"><ele>880.0</ele><time>2026-05-03T08:16:29.553Z</time></trkpt><trkpt lat="42.2774803" lon="13.7103564"><ele>880.0</ele><time>2026-05-03T08:16:30.554Z</time></trkpt><trkpt lat="42.277398" lon="13.7104045"><ele>880.0</ele><time>2026-05-03T08:16:31.554Z</time></trkpt><trkpt lat="42.2773345" lon="13.7104741"><ele>879.9999999999999</ele><time>2026-05-03T08:16:32.553Z</time></trkpt><trkpt lat="42.2772731" lon="13.7105491"><ele>880.0</ele><time>2026-05-03T08:16:33.554Z</time></trkpt><trkpt lat="42.2771925" lon="13.7106009"><ele>879.0</ele><time>2026-05-03T08:16:34.553Z</time></trkpt><trkpt lat="42.2770918" lon="13.7106367"><ele>878.0</ele><time>2026-05-03T08:16:35.554Z</time></trkpt><trkpt lat="42.2769813" lon="13.7106555"><ele>877.0</ele><time>2026-05-03T08:16:36.554Z</time></trkpt><trkpt lat="42.2768768" lon="13.7106914"><ele>876.0</ele><time>2026-05-03T08:16:37.553Z</time></trkpt><trkpt lat="42.2767743" lon="13.710735"><ele>875.0</ele><time>2026-05-03T08:16:38.554Z</time></trkpt><trkpt lat="42.276682" lon="13.7107643"><ele>875.0000000000001</ele><time>2026-05-03T08:16:39.554Z</time></trkpt><trkpt lat="42.2765946" lon="13.7107629"><ele>875.0</ele><time>2026-05-03T08:16:40.554Z</time></trkpt><trkpt lat="42.2765092" lon="13.7107279"><ele>875.0</ele><time>2026-05-03T08:16:41.554Z</time></trkpt><trkpt lat="42.2764233" lon="13.7106883"><ele>875.0</ele><time>2026-05-03T08:16:42.554Z</time></trkpt><trkpt lat="42.27634" lon="13.71067"><ele>875.0000000000001</ele><time>2026-05-03T08:16:43.553Z</time></trkpt><trkpt lat="42.27627" lon="13.710655"><ele>875.0</ele><time>2026-05-03T08:16:44.554Z</time></trkpt><trkpt lat="42.2761983" lon="13.7106717"><ele>873.4</ele><time>2026-05-03T08:16:45.553Z</time></trkpt><trkpt lat="42.27614" lon="13.71073"><ele>871.8</ele><time>2026-05-03T08:16:46.554Z</time></trkpt><trkpt lat="42.2760617" lon="13.7107983"><ele>870.2</ele><time>2026-05-03T08:16:47.554Z</time></trkpt><trkpt lat="42.275965" lon="13.7108917"><ele>868.6</ele><time>2026-05-03T08:16:48.554Z</time></trkpt><trkpt lat="42.2758567" lon="13.7109667"><ele>867.0</ele><time>2026-05-03T08:16:49.554Z</time></trkpt><trkpt lat="42.275735" lon="13.7110233"><ele>867.0</ele><time>2026-05-03T08:16:50.554Z</time></trkpt><trkpt lat="42.27563" lon="13.7110633"><ele>867.0</ele><time>2026-05-03T08:16:51.553Z</time></trkpt><trkpt lat="42.2755233" lon="13.7111217"><ele>867.0</ele><time>2026-05-03T08:16:52.554Z</time></trkpt><trkpt lat="42.27541" lon="13.7111917"><ele>867.0</ele><time>2026-05-03T08:16:53.554Z</time></trkpt><trkpt lat="42.2753017" lon="13.7112533"><ele>868.5</ele><time>2026-05-03T08:16:54.554Z</time></trkpt><trkpt lat="42.2751967" lon="13.71132"><ele>870.0</ele><time>2026-05-03T08:16:55.554Z</time></trkpt><trkpt lat="42.27509" lon="13.7114167"><ele>871.5</ele><time>2026-05-03T08:16:56.553Z</time></trkpt><trkpt lat="42.2749817" lon="13.7115467"><ele>873.0</ele><time>2026-05-03T08:16:57.554Z</time></trkpt><trkpt lat="42.2748733" lon="13.7116783"><ele>873.0</ele><time>2026-05-03T08:16:58.554Z</time></trkpt><trkpt lat="42.2747817" lon="13.7117883"><ele>873.0</ele><time>2026-05-03T08:16:59.554Z</time></trkpt><trkpt lat="42.2747083" lon="13.7118733"><ele>873.0</ele><time>2026-05-03T08:17:00.553Z</time></trkpt><trkpt lat="42.27463" lon="13.7119467"><ele>873.0</ele><time>2026-05-03T08:17:01.553Z</time></trkpt><trkpt lat="42.2745233" lon="13.7120383"><ele>873.0</ele><time>2026-05-03T08:17:02.554Z</time></trkpt><trkpt lat="42.2744167" lon="13.7121267"><ele>873.2</ele><time>2026-05-03T08:17:03.553Z</time></trkpt><trkpt lat="42.27433" lon="13.7121883"><ele>873.4</ele><time>2026-05-03T08:17:04.554Z</time></trkpt><trkpt lat="42.2742683" lon="13.71222"><ele>873.6000000000001</ele><time>2026-05-03T08:17:05.554Z</time></trkpt><trkpt lat="42.2741733" lon="13.7122067"><ele>873.8000000000001</ele><time>2026-05-03T08:17:07.553Z</time></trkpt><trkpt lat="42.2740933" lon="13.7122417"><ele>874.0</ele><time>2026-05-03T08:17:09.554Z</time></trkpt><trkpt lat="42.2740033" lon="13.712385"><ele>873.9999999999999</ele><time>2026-05-03T08:17:11.554Z</time></trkpt><trkpt lat="42.27395" lon="13.7124733"><ele>874.0</ele><time>2026-05-03T08:17:12.554Z</time></trkpt><trkpt lat="42.2738867" lon="13.712525"><ele>874.0</ele><time>2026-05-03T08:17:14.553Z</time></trkpt><trkpt lat="42.2738483" lon="13.7124117"><ele>874.0</ele><time>2026-05-03T08:17:16.553Z</time></trkpt><trkpt lat="42.2738383" lon="13.7123067"><ele>873.9999999999999</ele><time>2026-05-03T08:17:17.554Z</time></trkpt><trkpt lat="42.2738283" lon="13.712175"><ele>874.0</ele><time>2026-05-03T08:17:18.554Z</time></trkpt><trkpt lat="42.2738067" lon="13.71202"><ele>875.5</ele><time>2026-05-03T08:17:19.554Z</time></trkpt><trkpt lat="42.2737633" lon="13.71186"><ele>877.0</ele><time>2026-05-03T08:17:20.554Z</time></trkpt><trkpt lat="42.273715" lon="13.7117017"><ele>878.5</ele><time>2026-05-03T08:17:21.554Z</time></trkpt><trkpt lat="42.2736617" lon="13.711545"><ele>880.0</ele><time>2026-05-03T08:17:22.554Z</time></trkpt><trkpt lat="42.27361" lon="13.711395"><ele>880.0</ele><time>2026-05-03T08:17:23.553Z</time></trkpt><trkpt lat="42.273565" lon="13.7112683"><ele>880.0</ele><time>2026-05-03T08:17:24.554Z</time></trkpt><trkpt lat="42.2735217" lon="13.71117"><ele>880.0</ele><time>2026-05-03T08:17:25.554Z</time></trkpt><trkpt lat="42.2734733" lon="13.7110717"><ele>880.0</ele><time>2026-05-03T08:17:26.554Z</time></trkpt><trkpt lat="42.2734183" lon="13.7109533"><ele>880.0</ele><time>2026-05-03T08:17:27.554Z</time></trkpt><trkpt lat="42.273355" lon="13.710815"><ele>880.4999999999999</ele><time>2026-05-03T08:17:28.554Z</time></trkpt><trkpt lat="42.273295" lon="13.7106817"><ele>881.0</ele><time>2026-05-03T08:17:29.554Z</time></trkpt><trkpt lat="42.2732433" lon="13.7105733"><ele>881.5</ele><time>2026-05-03T08:17:30.553Z</time></trkpt><trkpt lat="42.2731883" lon="13.710485"><ele>882.0</ele><time>2026-05-03T08:17:31.554Z</time></trkpt><trkpt lat="42.27314" lon="13.7104283"><ele>882.4999999999999</ele><time>2026-05-03T08:17:32.554Z</time></trkpt><trkpt lat="42.273085" lon="13.7103817"><ele>883.0</ele><time>2026-05-03T08:17:33.554Z</time></trkpt><trkpt lat="42.273015" lon="13.7103583"><ele>883.0</ele><time>2026-05-03T08:17:34.554Z</time></trkpt><trkpt lat="42.2729367" lon="13.71035"><ele>883.0</ele><time>2026-05-03T08:17:35.554Z</time></trkpt><trkpt lat="42.2728417" lon="13.71036"><ele>883.0</ele><time>2026-05-03T08:17:36.554Z</time></trkpt><trkpt lat="42.27273" lon="13.7103833"><ele>883.0</ele><time>2026-05-03T08:17:37.554Z</time></trkpt><trkpt lat="42.2726133" lon="13.710395"><ele>883.0</ele><time>2026-05-03T08:17:38.554Z</time></trkpt><trkpt lat="42.2725167" lon="13.71041"><ele>882.9999999999999</ele><time>2026-05-03T08:17:39.554Z</time></trkpt><trkpt lat="42.2724483" lon="13.7103983"><ele>883.0</ele><time>2026-05-03T08:17:40.553Z</time></trkpt><trkpt lat="42.272385" lon="13.7103067"><ele>883.0</ele><time>2026-05-03T08:17:42.553Z</time></trkpt><trkpt lat="42.27236" lon="13.7102233"><ele>883.0</ele><time>2026-05-03T08:17:43.554Z</time></trkpt><trkpt lat="42.2723283" lon="13.7101417"><ele>882.9999999999999</ele><time>2026-05-03T08:17:44.554Z</time></trkpt><trkpt lat="42.2722467" lon="13.7100567"><ele>883.0</ele><time>2026-05-03T08:17:46.553Z</time></trkpt><trkpt lat="42.2721783" lon="13.710035"><ele>882.2</ele><time>2026-05-03T08:17:47.554Z</time></trkpt><trkpt lat="42.2720633" lon="13.7099567"><ele>881.4</ele><time>2026-05-03T08:17:49.554Z</time></trkpt><trkpt lat="42.2720067" lon="13.7098883"><ele>880.6000000000001</ele><time>2026-05-03T08:17:50.553Z</time></trkpt><trkpt lat="42.27194" lon="13.7097933"><ele>879.8000000000001</ele><time>2026-05-03T08:17:51.553Z</time></trkpt><trkpt lat="42.271875" lon="13.7096867"><ele>879.0</ele><time>2026-05-03T08:17:52.553Z</time></trkpt><trkpt lat="42.2718167" lon="13.7095817"><ele>879.0</ele><time>2026-05-03T08:17:53.553Z</time></trkpt><trkpt lat="42.2717733" lon="13.7094617"><ele>879.0000000000001</ele><time>2026-05-03T08:17:54.554Z</time></trkpt><trkpt lat="42.271745" lon="13.7093217"><ele>879.0000000000001</ele><time>2026-05-03T08:17:55.554Z</time></trkpt><trkpt lat="42.2717267" lon="13.7091817"><ele>879.0</ele><time>2026-05-03T08:17:56.554Z</time></trkpt><trkpt lat="42.2717" lon="13.7090483"><ele>879.0</ele><time>2026-05-03T08:17:57.554Z</time></trkpt><trkpt lat="42.271675" lon="13.7089333"><ele>878.8000000000001</ele><time>2026-05-03T08:17:58.554Z</time></trkpt><trkpt lat="42.27165" lon="13.7088"><ele>878.6000000000001</ele><time>2026-05-03T08:17:59.553Z</time></trkpt><trkpt lat="42.2716233" lon="13.7086533"><ele>878.4</ele><time>2026-05-03T08:18:00.554Z</time></trkpt><trkpt lat="42.27161" lon="13.7085233"><ele>878.2</ele><time>2026-05-03T08:18:01.554Z</time></trkpt><trkpt lat="42.2716" lon="13.7083767"><ele>878.0</ele><time>2026-05-03T08:18:02.554Z</time></trkpt><trkpt lat="42.2715933" lon="13.7082083"><ele>877.25</ele><time>2026-05-03T08:18:03.554Z</time></trkpt><trkpt lat="42.27159" lon="13.708035"><ele>876.5</ele><time>2026-05-03T08:18:04.554Z</time></trkpt><trkpt lat="42.2715783" lon="13.7078717"><ele>875.75</ele><time>2026-05-03T08:18:05.553Z</time></trkpt><trkpt lat="42.271565" lon="13.707725"><ele>875.0</ele><time>2026-05-03T08:18:06.554Z</time></trkpt><trkpt lat="42.2715583" lon="13.707585"><ele>874.0</ele><time>2026-05-03T08:18:07.553Z</time></trkpt><trkpt lat="42.271565" lon="13.70746"><ele>873.0</ele><time>2026-05-03T08:18:08.554Z</time></trkpt><trkpt lat="42.27159" lon="13.707335"><ele>872.0</ele><time>2026-05-03T08:18:09.554Z</time></trkpt><trkpt lat="42.2716133" lon="13.7071983"><ele>871.0</ele><time>2026-05-03T08:18:10.553Z</time></trkpt><trkpt lat="42.2716367" lon="13.7070767"><ele>870.0</ele><time>2026-05-03T08:18:11.554Z</time></trkpt><trkpt lat="42.271645" lon="13.7069283"><ele>868.2</ele><time>2026-05-03T08:18:12.554Z</time></trkpt><trkpt lat="42.2716617" lon="13.70679"><ele>866.4</ele><time>2026-05-03T08:18:13.554Z</time></trkpt><trkpt lat="42.2716783" lon="13.70664"><ele>864.5999999999999</ele><time>2026-05-03T08:18:14.554Z</time></trkpt><trkpt lat="42.271695" lon="13.7065017"><ele>862.8</ele><time>2026-05-03T08:18:15.553Z</time></trkpt><trkpt lat="42.2717083" lon="13.70636"><ele>861.0</ele><time>2026-05-03T08:18:16.554Z</time></trkpt><trkpt lat="42.271715" lon="13.7062167"><ele>859.5999999999999</ele><time>2026-05-03T08:18:17.554Z</time></trkpt><trkpt lat="42.2717133" lon="13.70607"><ele>858.1999999999999</ele><time>2026-05-03T08:18:18.554Z</time></trkpt><trkpt lat="42.271715" lon="13.7059367"><ele>856.8000000000001</ele><time>2026-05-03T08:18:19.554Z</time></trkpt><trkpt lat="42.2717117" lon="13.705795"><ele>855.4000000000001</ele><time>2026-05-03T08:18:20.553Z</time></trkpt><trkpt lat="42.2717033" lon="13.7056583"><ele>854.0</ele><time>2026-05-03T08:18:21.554Z</time></trkpt><trkpt lat="42.2716833" lon="13.7055117"><ele>854.0000000000001</ele><time>2026-05-03T08:18:22.553Z</time></trkpt><trkpt lat="42.271655" lon="13.7053833"><ele>854.0</ele><time>2026-05-03T08:18:23.554Z</time></trkpt><trkpt lat="42.2716183" lon="13.7052717"><ele>854.0</ele><time>2026-05-03T08:18:24.554Z</time></trkpt><trkpt lat="42.27158" lon="13.7051883"><ele>854.0</ele><time>2026-05-03T08:18:25.554Z</time></trkpt><trkpt lat="42.2715333" lon="13.7051267"><ele>854.0000000000001</ele><time>2026-05-03T08:18:26.554Z</time></trkpt><trkpt lat="42.2714583" lon="13.7050833"><ele>854.0</ele><time>2026-05-03T08:18:27.554Z</time></trkpt><trkpt lat="42.2713733" lon="13.7050333"><ele>852.5714285714286</ele><time>2026-05-03T08:18:28.554Z</time></trkpt><trkpt lat="42.2713117" lon="13.70498"><ele>851.1428571428571</ele><time>2026-05-03T08:18:29.553Z</time></trkpt><trkpt lat="42.271255" lon="13.7049333"><ele>849.7142857142858</ele><time>2026-05-03T08:18:30.554Z</time></trkpt><trkpt lat="42.2712" lon="13.7048833"><ele>848.2857142857142</ele><time>2026-05-03T08:18:31.554Z</time></trkpt><trkpt lat="42.27115" lon="13.7048133"><ele>846.8571428571429</ele><time>2026-05-03T08:18:32.554Z</time></trkpt><trkpt lat="42.271105" lon="13.70473"><ele>845.4285714285714</ele><time>2026-05-03T08:18:33.553Z</time></trkpt><trkpt lat="42.271055" lon="13.7046517"><ele>844.0</ele><time>2026-05-03T08:18:34.554Z</time></trkpt><trkpt lat="42.2710083" lon="13.7045667"><ele>844.0</ele><time>2026-05-03T08:18:35.553Z</time></trkpt><trkpt lat="42.2709567" lon="13.7044567"><ele>844.0</ele><time>2026-05-03T08:18:36.554Z</time></trkpt><trkpt lat="42.2709017" lon="13.7043133"><ele>844.0</ele><time>2026-05-03T08:18:37.554Z</time></trkpt><trkpt lat="42.2708567" lon="13.7041983"><ele>844.0</ele><time>2026-05-03T08:18:38.553Z</time></trkpt><trkpt lat="42.2708117" lon="13.7041117"><ele>844.0</ele><time>2026-05-03T08:18:39.554Z</time></trkpt><trkpt lat="42.2707617" lon="13.7040517"><ele>843.0</ele><time>2026-05-03T08:18:40.553Z</time></trkpt><trkpt lat="42.270705" lon="13.7040083"><ele>842.0</ele><time>2026-05-03T08:18:41.553Z</time></trkpt><trkpt lat="42.2706367" lon="13.7039867"><ele>841.0</ele><time>2026-05-03T08:18:42.554Z</time></trkpt><trkpt lat="42.2705717" lon="13.703965"><ele>840.0</ele><time>2026-05-03T08:18:43.554Z</time></trkpt><trkpt lat="42.27051" lon="13.703935"><ele>839.0</ele><time>2026-05-03T08:18:44.554Z</time></trkpt><trkpt lat="42.2704433" lon="13.7039267"><ele>838.0</ele><time>2026-05-03T08:18:45.554Z</time></trkpt><trkpt lat="42.2703567" lon="13.7039317"><ele>837.0</ele><time>2026-05-03T08:18:46.553Z</time></trkpt><trkpt lat="42.2702383" lon="13.7039367"><ele>836.6666666666666</ele><time>2026-05-03T08:18:47.554Z</time></trkpt><trkpt lat="42.2701217" lon="13.7039417"><ele>836.3333333333333</ele><time>2026-05-03T08:18:48.554Z</time></trkpt><trkpt lat="42.27004" lon="13.7039283"><ele>836.0</ele><time>2026-05-03T08:18:49.553Z</time></trkpt><trkpt lat="42.269985" lon="13.703875"><ele>835.6666666666666</ele><time>2026-05-03T08:18:50.554Z</time></trkpt><trkpt lat="42.2699467" lon="13.703795"><ele>835.3333333333333</ele><time>2026-05-03T08:18:51.554Z</time></trkpt><trkpt lat="42.2698917" lon="13.7037217"><ele>835.0</ele><time>2026-05-03T08:18:52.554Z</time></trkpt><trkpt lat="42.2698033" lon="13.703645"><ele>834.25</ele><time>2026-05-03T08:18:53.554Z</time></trkpt><trkpt lat="42.2696933" lon="13.703585"><ele>833.5</ele><time>2026-05-03T08:18:54.554Z</time></trkpt><trkpt lat="42.269575" lon="13.7035333"><ele>832.75</ele><time>2026-05-03T08:18:55.553Z</time></trkpt><trkpt lat="42.2694517" lon="13.703495"><ele>832.0</ele><time>2026-05-03T08:18:56.554Z</time></trkpt><trkpt lat="42.2693267" lon="13.7034583"><ele>830.6</ele><time>2026-05-03T08:18:57.554Z</time></trkpt><trkpt lat="42.2692217" lon="13.7034067"><ele>829.2</ele><time>2026-05-03T08:18:58.554Z</time></trkpt><trkpt lat="42.2691217" lon="13.7033433"><ele>827.8</ele><time>2026-05-03T08:18:59.554Z</time></trkpt><trkpt lat="42.2690267" lon="13.703275"><ele>826.4</ele><time>2026-05-03T08:19:00.553Z</time></trkpt><trkpt lat="42.2689383" lon="13.7032167"><ele>825.0</ele><time>2026-05-03T08:19:01.553Z</time></trkpt><trkpt lat="42.2688533" lon="13.7031733"><ele>823.6666666666666</ele><time>2026-05-03T08:19:02.554Z</time></trkpt><trkpt lat="42.2687717" lon="13.7031383"><ele>822.3333333333333</ele><time>2026-05-03T08:19:03.554Z</time></trkpt><trkpt lat="42.2686783" lon="13.7031217"><ele>821.0</ele><time>2026-05-03T08:19:04.554Z</time></trkpt><trkpt lat="42.2686017" lon="13.703125"><ele>819.6666666666666</ele><time>2026-05-03T08:19:05.553Z</time></trkpt><trkpt lat="42.2685317" lon="13.7031217"><ele>818.3333333333333</ele><time>2026-05-03T08:19:06.554Z</time></trkpt><trkpt lat="42.2684467" lon="13.703125"><ele>817.0</ele><time>2026-05-03T08:19:08.554Z</time></trkpt><trkpt lat="42.2684017" lon="13.7031917"><ele>816.9999999999999</ele><time>2026-05-03T08:19:10.553Z</time></trkpt><trkpt lat="42.2683783" lon="13.7032733"><ele>817.0</ele><time>2026-05-03T08:19:11.553Z</time></trkpt><trkpt lat="42.2683617" lon="13.7033567"><ele>817.0</ele><time>2026-05-03T08:19:12.554Z</time></trkpt><trkpt lat="42.2683533" lon="13.7034517"><ele>817.0</ele><time>2026-05-03T08:19:13.554Z</time></trkpt><trkpt lat="42.26834" lon="13.7035567"><ele>817.0</ele><time>2026-05-03T08:19:14.553Z</time></trkpt><trkpt lat="42.2683183" lon="13.7036567"><ele>816.9999999999999</ele><time>2026-05-03T08:19:15.554Z</time></trkpt><trkpt lat="42.2682917" lon="13.7037383"><ele>817.0</ele><time>2026-05-03T08:19:16.554Z</time></trkpt><trkpt lat="42.2682567" lon="13.7038267"><ele>816.9999999999999</ele><time>2026-05-03T08:19:17.553Z</time></trkpt><trkpt lat="42.268215" lon="13.7039383"><ele>817.0</ele><time>2026-05-03T08:19:18.554Z</time></trkpt><trkpt lat="42.26817" lon="13.7040483"><ele>817.0</ele><time>2026-05-03T08:19:19.553Z</time></trkpt><trkpt lat="42.2681333" lon="13.7041483"><ele>817.0</ele><time>2026-05-03T08:19:20.554Z</time></trkpt><trkpt lat="42.2681017" lon="13.7042517"><ele>816.9999999999999</ele><time>2026-05-03T08:19:21.554Z</time></trkpt><trkpt lat="42.268075" lon="13.7043733"><ele>817.0</ele><time>2026-05-03T08:19:22.553Z</time></trkpt><trkpt lat="42.2680417" lon="13.7044967"><ele>817.0</ele><time>2026-05-03T08:19:23.554Z</time></trkpt><trkpt lat="42.2680133" lon="13.7045917"><ele>817.0</ele><time>2026-05-03T08:19:24.554Z</time></trkpt><trkpt lat="42.2679767" lon="13.7047117"><ele>817.0</ele><time>2026-05-03T08:19:26.554Z</time></trkpt><trkpt lat="42.267915" lon="13.7046333"><ele>817.0</ele><time>2026-05-03T08:19:30.553Z</time></trkpt><trkpt lat="42.2678883" lon="13.7044433"><ele>817.0</ele><time>2026-05-03T08:19:32.554Z</time></trkpt><trkpt lat="42.2678617" lon="13.70432"><ele>817.0</ele><time>2026-05-03T08:19:33.553Z</time></trkpt><trkpt lat="42.2678367" lon="13.7042267"><ele>817.0</ele><time>2026-05-03T08:19:34.553Z</time></trkpt><trkpt lat="42.267735" lon="13.7041367"><ele>817.0</ele><time>2026-05-03T08:19:36.554Z</time></trkpt><trkpt lat="42.2676417" lon="13.7041133"><ele>817.0</ele><time>2026-05-03T08:19:37.554Z</time></trkpt><trkpt lat="42.2675533" lon="13.7040733"><ele>817.0</ele><time>2026-05-03T08:19:38.553Z</time></trkpt><trkpt lat="42.2674667" lon="13.70401"><ele>817.0</ele><time>2026-05-03T08:19:39.553Z</time></trkpt><trkpt lat="42.26739" lon="13.7039233"><ele>817.0</ele><time>2026-05-03T08:19:40.554Z</time></trkpt><trkpt lat="42.2673" lon="13.703815"><ele>817.0</ele><time>2026-05-03T08:19:41.553Z</time></trkpt><trkpt lat="42.2671967" lon="13.7036967"><ele>817.0</ele><time>2026-05-03T08:19:42.554Z</time></trkpt><trkpt lat="42.267085" lon="13.7035583"><ele>815.75</ele><time>2026-05-03T08:19:43.553Z</time></trkpt><trkpt lat="42.2669733" lon="13.703415"><ele>814.5</ele><time>2026-05-03T08:19:44.554Z</time></trkpt><trkpt lat="42.266875" lon="13.7032917"><ele>813.25</ele><time>2026-05-03T08:19:45.554Z</time></trkpt><trkpt lat="42.2667967" lon="13.7031633"><ele>812.0</ele><time>2026-05-03T08:19:46.554Z</time></trkpt><trkpt lat="42.2667367" lon="13.703055"><ele>812.0</ele><time>2026-05-03T08:19:47.554Z</time></trkpt><trkpt lat="42.26669" lon="13.7029733"><ele>812.0</ele><time>2026-05-03T08:19:48.554Z</time></trkpt><trkpt lat="42.2666017" lon="13.70291"><ele>812.0</ele><time>2026-05-03T08:19:50.554Z</time></trkpt><trkpt lat="42.266535" lon="13.70293"><ele>812.0</ele><time>2026-05-03T08:19:51.554Z</time></trkpt><trkpt lat="42.26644" lon="13.7029867"><ele>812.0</ele><time>2026-05-03T08:19:52.554Z</time></trkpt><trkpt lat="42.26632" lon="13.703065"><ele>810.5</ele><time>2026-05-03T08:19:53.554Z</time></trkpt><trkpt lat="42.266185" lon="13.70317"><ele>809.0</ele><time>2026-05-03T08:19:54.554Z</time></trkpt><trkpt lat="42.2660467" lon="13.7032783"><ele>807.5</ele><time>2026-05-03T08:19:55.553Z</time></trkpt><trkpt lat="42.2659267" lon="13.7033467"><ele>806.0</ele><time>2026-05-03T08:19:56.553Z</time></trkpt><trkpt lat="42.2658133" lon="13.7033983"><ele>806.0</ele><time>2026-05-03T08:19:57.554Z</time></trkpt><trkpt lat="42.265685" lon="13.7034217"><ele>806.0</ele><time>2026-05-03T08:19:58.554Z</time></trkpt><trkpt lat="42.2655333" lon="13.7034333"><ele>806.0</ele><time>2026-05-03T08:19:59.553Z</time></trkpt><trkpt lat="42.2653617" lon="13.703445"><ele>805.6666666666667</ele><time>2026-05-03T08:20:00.554Z</time></trkpt><trkpt lat="42.2651883" lon="13.7034517"><ele>805.3333333333333</ele><time>2026-05-03T08:20:01.553Z</time></trkpt><trkpt lat="42.26503" lon="13.70346"><ele>805.0</ele><time>2026-05-03T08:20:02.554Z</time></trkpt><trkpt lat="42.2648867" lon="13.703455"><ele>805.6666666666666</ele><time>2026-05-03T08:20:03.554Z</time></trkpt><trkpt lat="42.2647283" lon="13.7034433"><ele>806.3333333333333</ele><time>2026-05-03T08:20:04.553Z</time></trkpt><trkpt lat="42.26457" lon="13.703395"><ele>807.0</ele><time>2026-05-03T08:20:05.554Z</time></trkpt><trkpt lat="42.26443" lon="13.7033333"><ele>807.0</ele><time>2026-05-03T08:20:06.553Z</time></trkpt><trkpt lat="42.2643033" lon="13.7032583"><ele>807.0</ele><time>2026-05-03T08:20:07.553Z</time></trkpt><trkpt lat="42.264195" lon="13.70318"><ele>807.0</ele><time>2026-05-03T08:20:08.554Z</time></trkpt><trkpt lat="42.2641" lon="13.70309"><ele>807.0</ele><time>2026-05-03T08:20:09.553Z</time></trkpt><trkpt lat="42.2640183" lon="13.7030083"><ele>807.0</ele><time>2026-05-03T08:20:10.554Z</time></trkpt><trkpt lat="42.26396" lon="13.7029033"><ele>807.0</ele><time>2026-05-03T08:20:11.554Z</time></trkpt><trkpt lat="42.2639083" lon="13.7027767"><ele>807.0</ele><time>2026-05-03T08:20:12.554Z</time></trkpt><trkpt lat="42.2638483" lon="13.7026117"><ele>807.0</ele><time>2026-05-03T08:20:13.554Z</time></trkpt><trkpt lat="42.2637883" lon="13.7024333"><ele>806.5</ele><time>2026-05-03T08:20:14.553Z</time></trkpt><trkpt lat="42.2637333" lon="13.7022767"><ele>806.0</ele><time>2026-05-03T08:20:15.554Z</time></trkpt><trkpt lat="42.2636883" lon="13.7021483"><ele>805.5</ele><time>2026-05-03T08:20:16.554Z</time></trkpt><trkpt lat="42.2636333" lon="13.7020283"><ele>805.0</ele><time>2026-05-03T08:20:17.554Z</time></trkpt><trkpt lat="42.2635533" lon="13.7019083"><ele>804.6</ele><time>2026-05-03T08:20:18.553Z</time></trkpt><trkpt lat="42.2634667" lon="13.7017867"><ele>804.2</ele><time>2026-05-03T08:20:19.553Z</time></trkpt><trkpt lat="42.2634" lon="13.701695"><ele>803.8</ele><time>2026-05-03T08:20:20.554Z</time></trkpt><trkpt lat="42.2633417" lon="13.701645"><ele>803.4</ele><time>2026-05-03T08:20:21.553Z</time></trkpt><trkpt lat="42.2632717" lon="13.7016233"><ele>803.0</ele><time>2026-05-03T08:20:22.553Z</time></trkpt><trkpt lat="42.263175" lon="13.701635"><ele>804.25</ele><time>2026-05-03T08:20:23.554Z</time></trkpt><trkpt lat="42.263055" lon="13.7016583"><ele>805.5</ele><time>2026-05-03T08:20:24.554Z</time></trkpt><trkpt lat="42.2629317" lon="13.70171"><ele>806.75</ele><time>2026-05-03T08:20:25.553Z</time></trkpt><trkpt lat="42.2628017" lon="13.7018"><ele>808.0</ele><time>2026-05-03T08:20:26.554Z</time></trkpt><trkpt lat="42.2626683" lon="13.7019167"><ele>808.0</ele><time>2026-05-03T08:20:27.554Z</time></trkpt><trkpt lat="42.2625467" lon="13.7020217"><ele>808.0</ele><time>2026-05-03T08:20:28.554Z</time></trkpt><trkpt lat="42.2624117" lon="13.7021183"><ele>808.0</ele><time>2026-05-03T08:20:29.553Z</time></trkpt><trkpt lat="42.2622717" lon="13.7022033"><ele>816.3333333333333</ele><time>2026-05-03T08:20:30.554Z</time></trkpt><trkpt lat="42.2621317" lon="13.7022967"><ele>824.6666666666667</ele><time>2026-05-03T08:20:31.554Z</time></trkpt><trkpt lat="42.2620083" lon="13.7024017"><ele>833.0</ele><time>2026-05-03T08:20:32.553Z</time></trkpt><trkpt lat="42.2618883" lon="13.7025233"><ele>833.0</ele><time>2026-05-03T08:20:33.553Z</time></trkpt><trkpt lat="42.2617633" lon="13.7026467"><ele>833.0</ele><time>2026-05-03T08:20:34.553Z</time></trkpt><trkpt lat="42.261635" lon="13.7027633"><ele>833.0</ele><time>2026-05-03T08:20:35.553Z</time></trkpt><trkpt lat="42.261495" lon="13.702865"><ele>832.0</ele><time>2026-05-03T08:20:36.554Z</time></trkpt><trkpt lat="42.2613483" lon="13.7029633"><ele>831.0</ele><time>2026-05-03T08:20:37.554Z</time></trkpt><trkpt lat="42.2612033" lon="13.7030733"><ele>830.0</ele><time>2026-05-03T08:20:38.553Z</time></trkpt><trkpt lat="42.2610567" lon="13.703165"><ele>830.0</ele><time>2026-05-03T08:20:39.554Z</time></trkpt><trkpt lat="42.2608983" lon="13.7032567"><ele>830.0</ele><time>2026-05-03T08:20:40.553Z</time></trkpt><trkpt lat="42.260745" lon="13.703335"><ele>830.0</ele><time>2026-05-03T08:20:41.553Z</time></trkpt><trkpt lat="42.2605867" lon="13.7033883"><ele>830.0</ele><time>2026-05-03T08:20:42.554Z</time></trkpt><trkpt lat="42.2604367" lon="13.703425"><ele>830.0</ele><time>2026-05-03T08:20:43.554Z</time></trkpt><trkpt lat="42.2603067" lon="13.7034433"><ele>830.0</ele><time>2026-05-03T08:20:44.554Z</time></trkpt><trkpt lat="42.2601833" lon="13.7034617"><ele>830.0</ele><time>2026-05-03T08:20:45.554Z</time></trkpt><trkpt lat="42.2600783" lon="13.7034833"><ele>830.0000000000001</ele><time>2026-05-03T08:20:46.553Z</time></trkpt><trkpt lat="42.2600083" lon="13.7034883"><ele>830.0</ele><time>2026-05-03T08:20:47.553Z</time></trkpt><trkpt lat="42.25992" lon="13.703405"><ele>830.0</ele><time>2026-05-03T08:20:49.554Z</time></trkpt><trkpt lat="42.259895" lon="13.7033133"><ele>830.0</ele><time>2026-05-03T08:20:50.554Z</time></trkpt><trkpt lat="42.2598883" lon="13.7032167"><ele>830.0000000000001</ele><time>2026-05-03T08:20:51.554Z</time></trkpt><trkpt lat="42.2598833" lon="13.7030567"><ele>830.0</ele><time>2026-05-03T08:20:53.553Z</time></trkpt><trkpt lat="42.2598767" lon="13.7029217"><ele>830.0000000000001</ele><time>2026-05-03T08:20:55.554Z</time></trkpt><trkpt lat="42.25987" lon="13.70276"><ele>830.0</ele><time>2026-05-03T08:20:57.554Z</time></trkpt><trkpt lat="42.259865" lon="13.7026667"><ele>830.0</ele><time>2026-05-03T08:20:58.554Z</time></trkpt><trkpt lat="42.25986" lon="13.7025683"><ele>830.0</ele><time>2026-05-03T08:20:59.554Z</time></trkpt><trkpt lat="42.2598533" lon="13.70247"><ele>830.0000000000001</ele><time>2026-05-03T08:21:00.554Z</time></trkpt><trkpt lat="42.2598517" lon="13.7023667"><ele>830.0</ele><time>2026-05-03T08:21:01.554Z</time></trkpt><trkpt lat="42.259845" lon="13.7022583"><ele>831.1666666666667</ele><time>2026-05-03T08:21:02.554Z</time></trkpt><trkpt lat="42.2598517" lon="13.7021483"><ele>832.3333333333334</ele><time>2026-05-03T08:21:03.553Z</time></trkpt><trkpt lat="42.259865" lon="13.702055"><ele>833.5</ele><time>2026-05-03T08:21:04.553Z</time></trkpt><trkpt lat="42.2598867" lon="13.7019267"><ele>834.6666666666667</ele><time>2026-05-03T08:21:06.554Z</time></trkpt><trkpt lat="42.2598983" lon="13.7018"><ele>835.8333333333334</ele><time>2026-05-03T08:21:08.554Z</time></trkpt><trkpt lat="42.25989" lon="13.7016617"><ele>837.0</ele><time>2026-05-03T08:21:10.554Z</time></trkpt><trkpt lat="42.2598567" lon="13.70152"><ele>836.0</ele><time>2026-05-03T08:21:12.553Z</time></trkpt><trkpt lat="42.2597767" lon="13.7014133"><ele>835.0</ele><time>2026-05-03T08:21:14.553Z</time></trkpt><trkpt lat="42.2597117" lon="13.7013683"><ele>834.0</ele><time>2026-05-03T08:21:15.553Z</time></trkpt><trkpt lat="42.2596517" lon="13.7013217"><ele>833.0</ele><time>2026-05-03T08:21:16.553Z</time></trkpt><trkpt lat="42.2595617" lon="13.701265"><ele>832.0</ele><time>2026-05-03T08:21:18.553Z</time></trkpt><trkpt lat="42.2594833" lon="13.701215"><ele>831.0</ele><time>2026-05-03T08:21:20.553Z</time></trkpt><trkpt lat="42.259365" lon="13.701145"><ele>831.0</ele><time>2026-05-03T08:21:22.554Z</time></trkpt><trkpt lat="42.2592917" lon="13.7010917"><ele>831.0</ele><time>2026-05-03T08:21:23.554Z</time></trkpt><trkpt lat="42.2592067" lon="13.7010283"><ele>831.0</ele><time>2026-05-03T08:21:24.554Z</time></trkpt><trkpt lat="42.2590983" lon="13.70096"><ele>831.0</ele><time>2026-05-03T08:21:25.554Z</time></trkpt><trkpt lat="42.258975" lon="13.7008683"><ele>831.0</ele><time>2026-05-03T08:21:26.554Z</time></trkpt><trkpt lat="42.2588367" lon="13.7007933"><ele>837.6666666666667</ele><time>2026-05-03T08:21:27.554Z</time></trkpt><trkpt lat="42.2586933" lon="13.7007117"><ele>844.3333333333334</ele><time>2026-05-03T08:21:28.554Z</time></trkpt><trkpt lat="42.2585317" lon="13.7006267"><ele>851.0</ele><time>2026-05-03T08:21:29.553Z</time></trkpt><trkpt lat="42.2583683" lon="13.7005717"><ele>851.0</ele><time>2026-05-03T08:21:30.554Z</time></trkpt><trkpt lat="42.2582067" lon="13.7005267"><ele>851.0</ele><time>2026-05-03T08:21:31.554Z</time></trkpt><trkpt lat="42.2580467" lon="13.700495"><ele>851.0</ele><time>2026-05-03T08:21:32.553Z</time></trkpt><trkpt lat="42.2578967" lon="13.7004867"><ele>853.0</ele><time>2026-05-03T08:21:33.554Z</time></trkpt><trkpt lat="42.2577617" lon="13.700505"><ele>855.0</ele><time>2026-05-03T08:21:34.553Z</time></trkpt><trkpt lat="42.2576333" lon="13.70056"><ele>857.0</ele><time>2026-05-03T08:21:35.554Z</time></trkpt><trkpt lat="42.2574933" lon="13.7006433"><ele>859.0</ele><time>2026-05-03T08:21:36.553Z</time></trkpt><trkpt lat="42.257365" lon="13.70072"><ele>860.4999999999999</ele><time>2026-05-03T08:21:37.554Z</time></trkpt><trkpt lat="42.2572683" lon="13.70078"><ele>862.0</ele><time>2026-05-03T08:21:38.554Z</time></trkpt><trkpt lat="42.257205" lon="13.7008033"><ele>863.5</ele><time>2026-05-03T08:21:39.554Z</time></trkpt><trkpt lat="42.2571383" lon="13.7007367"><ele>865.0</ele><time>2026-05-03T08:21:41.554Z</time></trkpt><trkpt lat="42.2571283" lon="13.7006417"><ele>866.4999999999999</ele><time>2026-05-03T08:21:42.553Z</time></trkpt><trkpt lat="42.2571267" lon="13.70053"><ele>868.0</ele><time>2026-05-03T08:21:43.554Z</time></trkpt><trkpt lat="42.257105" lon="13.700385"><ele>868.0</ele><time>2026-05-03T08:21:44.553Z</time></trkpt><trkpt lat="42.25707" lon="13.700255"><ele>868.0</ele><time>2026-05-03T08:21:45.553Z</time></trkpt><trkpt lat="42.2570367" lon="13.700165"><ele>868.0</ele><time>2026-05-03T08:21:46.553Z</time></trkpt><trkpt lat="42.256895" lon="13.7001367"><ele>868.0</ele><time>2026-05-03T08:21:48.553Z</time></trkpt><trkpt lat="42.2567767" lon="13.7001883"><ele>868.0</ele><time>2026-05-03T08:21:49.552Z</time></trkpt><trkpt lat="42.2566317" lon="13.70026"><ele>868.0</ele><time>2026-05-03T08:21:50.552Z</time></trkpt><trkpt lat="42.25647" lon="13.700345"><ele>868.0</ele><time>2026-05-03T08:21:51.553Z</time></trkpt><trkpt lat="42.2563167" lon="13.70043"><ele>868.0</ele><time>2026-05-03T08:21:52.553Z</time></trkpt><trkpt lat="42.2561967" lon="13.70052"><ele>864.8</ele><time>2026-05-03T08:21:53.552Z</time></trkpt><trkpt lat="42.2560883" lon="13.7005983"><ele>861.5999999999999</ele><time>2026-05-03T08:21:54.553Z</time></trkpt><trkpt lat="42.2560033" lon="13.7006617"><ele>858.4000000000001</ele><time>2026-05-03T08:21:55.553Z</time></trkpt><trkpt lat="42.2559233" lon="13.7007133"><ele>855.2</ele><time>2026-05-03T08:21:56.553Z</time></trkpt><trkpt lat="42.255855" lon="13.7007583"><ele>852.0</ele><time>2026-05-03T08:21:57.553Z</time></trkpt><trkpt lat="42.255785" lon="13.7008117"><ele>852.0</ele><time>2026-05-03T08:21:58.553Z</time></trkpt><trkpt lat="42.2556983" lon="13.7008717"><ele>852.0</ele><time>2026-05-03T08:21:59.553Z</time></trkpt><trkpt lat="42.255595" lon="13.70094"><ele>852.0</ele><time>2026-05-03T08:22:00.553Z</time></trkpt><trkpt lat="42.255475" lon="13.7010217"><ele>852.0</ele><time>2026-05-03T08:22:01.552Z</time></trkpt><trkpt lat="42.2553533" lon="13.701095"><ele>854.25</ele><time>2026-05-03T08:22:02.553Z</time></trkpt><trkpt lat="42.25524" lon="13.7011517"><ele>856.5</ele><time>2026-05-03T08:22:03.553Z</time></trkpt><trkpt lat="42.2551017" lon="13.7012033"><ele>858.75</ele><time>2026-05-03T08:22:04.553Z</time></trkpt><trkpt lat="42.2549567" lon="13.7012417"><ele>861.0</ele><time>2026-05-03T08:22:05.552Z</time></trkpt><trkpt lat="42.25481" lon="13.7012783"><ele>858.25</ele><time>2026-05-03T08:22:06.553Z</time></trkpt><trkpt lat="42.2546667" lon="13.7013"><ele>855.5</ele><time>2026-05-03T08:22:07.552Z</time></trkpt><trkpt lat="42.2545283" lon="13.70131"><ele>852.75</ele><time>2026-05-03T08:22:08.553Z</time></trkpt><trkpt lat="42.2543817" lon="13.70131"><ele>850.0</ele><time>2026-05-03T08:22:09.553Z</time></trkpt><trkpt lat="42.254235" lon="13.7013"><ele>850.0</ele><time>2026-05-03T08:22:10.553Z</time></trkpt><trkpt lat="42.254105" lon="13.7012933"><ele>850.0</ele><time>2026-05-03T08:22:11.553Z</time></trkpt><trkpt lat="42.2539917" lon="13.7012867"><ele>850.0</ele><time>2026-05-03T08:22:12.553Z</time></trkpt><trkpt lat="42.2538917" lon="13.7012917"><ele>850.0</ele><time>2026-05-03T08:22:13.553Z</time></trkpt><trkpt lat="42.2538" lon="13.7013183"><ele>850.0</ele><time>2026-05-03T08:22:14.553Z</time></trkpt><trkpt lat="42.2536967" lon="13.7013717"><ele>845.0</ele><time>2026-05-03T08:22:15.553Z</time></trkpt><trkpt lat="42.253585" lon="13.7014333"><ele>840.0</ele><time>2026-05-03T08:22:16.552Z</time></trkpt><trkpt lat="42.2534683" lon="13.7014817"><ele>835.0</ele><time>2026-05-03T08:22:17.553Z</time></trkpt><trkpt lat="42.2533517" lon="13.7015517"><ele>830.0</ele><time>2026-05-03T08:22:18.552Z</time></trkpt><trkpt lat="42.2532467" lon="13.7016533"><ele>830.0</ele><time>2026-05-03T08:22:19.553Z</time></trkpt><trkpt lat="42.2531267" lon="13.701775"><ele>830.0</ele><time>2026-05-03T08:22:20.553Z</time></trkpt><trkpt lat="42.2529967" lon="13.7019017"><ele>830.0</ele><time>2026-05-03T08:22:21.553Z</time></trkpt><trkpt lat="42.2528583" lon="13.7020317"><ele>827.6666666666667</ele><time>2026-05-03T08:22:22.553Z</time></trkpt><trkpt lat="42.2526983" lon="13.7021667"><ele>825.3333333333333</ele><time>2026-05-03T08:22:23.553Z</time></trkpt><trkpt lat="42.252555" lon="13.702305"><ele>823.0</ele><time>2026-05-03T08:22:24.552Z</time></trkpt><trkpt lat="42.252425" lon="13.7024317"><ele>823.0</ele><time>2026-05-03T08:22:25.553Z</time></trkpt><trkpt lat="42.25229" lon="13.70255"><ele>823.0</ele><time>2026-05-03T08:22:26.553Z</time></trkpt><trkpt lat="42.2521617" lon="13.7026683"><ele>823.0</ele><time>2026-05-03T08:22:27.552Z</time></trkpt><trkpt lat="42.25205" lon="13.70277"><ele>822.5</ele><time>2026-05-03T08:22:28.553Z</time></trkpt><trkpt lat="42.251935" lon="13.7028517"><ele>822.0</ele><time>2026-05-03T08:22:29.553Z</time></trkpt><trkpt lat="42.2518233" lon="13.7029117"><ele>821.5</ele><time>2026-05-03T08:22:30.553Z</time></trkpt><trkpt lat="42.2517" lon="13.7029467"><ele>821.0</ele><time>2026-05-03T08:22:31.552Z</time></trkpt><trkpt lat="42.2515567" lon="13.7029767"><ele>819.0</ele><time>2026-05-03T08:22:32.552Z</time></trkpt><trkpt lat="42.2514267" lon="13.7029967"><ele>817.0</ele><time>2026-05-03T08:22:33.553Z</time></trkpt><trkpt lat="42.2513083" lon="13.703005"><ele>815.0</ele><time>2026-05-03T08:22:34.553Z</time></trkpt><trkpt lat="42.251195" lon="13.70301"><ele>813.0</ele><time>2026-05-03T08:22:35.553Z</time></trkpt><trkpt lat="42.251095" lon="13.7030233"><ele>813.0</ele><time>2026-05-03T08:22:36.552Z</time></trkpt><trkpt lat="42.2509933" lon="13.70307"><ele>813.0</ele><time>2026-05-03T08:22:37.553Z</time></trkpt><trkpt lat="42.2508667" lon="13.7031383"><ele>813.0</ele><time>2026-05-03T08:22:38.553Z</time></trkpt><trkpt lat="42.250735" lon="13.7032417"><ele>813.0</ele><time>2026-05-03T08:22:39.553Z</time></trkpt><trkpt lat="42.2506067" lon="13.70336"><ele>811.75</ele><time>2026-05-03T08:22:40.553Z</time></trkpt><trkpt lat="42.2504783" lon="13.703465"><ele>810.5</ele><time>2026-05-03T08:22:41.553Z</time></trkpt><trkpt lat="42.2503683" lon="13.7035833"><ele>809.25</ele><time>2026-05-03T08:22:42.553Z</time></trkpt><trkpt lat="42.2502667" lon="13.70372"><ele>808.0</ele><time>2026-05-03T08:22:43.553Z</time></trkpt><trkpt lat="42.25016" lon="13.7038633"><ele>808.0</ele><time>2026-05-03T08:22:44.553Z</time></trkpt><trkpt lat="42.2500633" lon="13.70398"><ele>808.0</ele><time>2026-05-03T08:22:45.553Z</time></trkpt><trkpt lat="42.2499583" lon="13.70406"><ele>808.0</ele><time>2026-05-03T08:22:46.552Z</time></trkpt><trkpt lat="42.24988" lon="13.704115"><ele>808.0</ele><time>2026-05-03T08:22:47.553Z</time></trkpt><trkpt lat="42.24982" lon="13.7041583"><ele>808.0</ele><time>2026-05-03T08:22:48.552Z</time></trkpt><trkpt lat="42.249735" lon="13.7042167"><ele>807.9999999999999</ele><time>2026-05-03T08:22:50.552Z</time></trkpt><trkpt lat="42.249845" lon="13.7041433"><ele>808.0</ele><time>2026-05-03T08:23:04.552Z</time></trkpt><trkpt lat="42.2499083" lon="13.7041183"><ele>808.0</ele><time>2026-05-03T08:23:05.552Z</time></trkpt><trkpt lat="42.24998" lon="13.704165"><ele>808.0</ele><time>2026-05-03T08:23:07.553Z</time></trkpt><trkpt lat="42.249985" lon="13.7042933"><ele>807.9999999999999</ele><time>2026-05-03T08:23:09.553Z</time></trkpt><trkpt lat="42.2499533" lon="13.7043783"><ele>808.0</ele><time>2026-05-03T08:23:10.553Z</time></trkpt><trkpt lat="42.2499067" lon="13.70448"><ele>807.8</ele><time>2026-05-03T08:23:11.552Z</time></trkpt><trkpt lat="42.2498683" lon="13.7045983"><ele>807.5999999999999</ele><time>2026-05-03T08:23:12.552Z</time></trkpt><trkpt lat="42.2498317" lon="13.7047317"><ele>807.4000000000001</ele><time>2026-05-03T08:23:13.553Z</time></trkpt><trkpt lat="42.249795" lon="13.7048733"><ele>807.2</ele><time>2026-05-03T08:23:14.553Z</time></trkpt><trkpt lat="42.2497533" lon="13.70502"><ele>807.0</ele><time>2026-05-03T08:23:15.553Z</time></trkpt><trkpt lat="42.2497133" lon="13.7051533"><ele>811.0</ele><time>2026-05-03T08:23:16.553Z</time></trkpt><trkpt lat="42.2496483" lon="13.7052733"><ele>815.0</ele><time>2026-05-03T08:23:17.553Z</time></trkpt><trkpt lat="42.24956" lon="13.705375"><ele>819.0</ele><time>2026-05-03T08:23:18.553Z</time></trkpt><trkpt lat="42.2494483" lon="13.70548"><ele>823.0</ele><time>2026-05-03T08:23:19.552Z</time></trkpt><trkpt lat="42.249345" lon="13.7055733"><ele>823.0</ele><time>2026-05-03T08:23:20.553Z</time></trkpt><trkpt lat="42.2492356" lon="13.7056589"><ele>823.0</ele><time>2026-05-03T08:23:21.553Z</time></trkpt><trkpt lat="42.2491245" lon="13.7057351"><ele>823.0</ele><time>2026-05-03T08:23:22.552Z</time></trkpt><trkpt lat="42.2490181" lon="13.7058229"><ele>823.0</ele><time>2026-05-03T08:23:23.553Z</time></trkpt><trkpt lat="42.2489088" lon="13.7059304"><ele>822.0</ele><time>2026-05-03T08:23:24.553Z</time></trkpt><trkpt lat="42.2487927" lon="13.7060391"><ele>821.0</ele><time>2026-05-03T08:23:25.553Z</time></trkpt><trkpt lat="42.2486764" lon="13.7061457"><ele>820.0</ele><time>2026-05-03T08:23:26.553Z</time></trkpt><trkpt lat="42.2485713" lon="13.7062429"><ele>819.0</ele><time>2026-05-03T08:23:27.553Z</time></trkpt><trkpt lat="42.248484" lon="13.7063169"><ele>821.1666666666666</ele><time>2026-05-03T08:23:28.553Z</time></trkpt><trkpt lat="42.2484161" lon="13.7063889"><ele>823.3333333333333</ele><time>2026-05-03T08:23:29.553Z</time></trkpt><trkpt lat="42.2483575" lon="13.7064631"><ele>825.5</ele><time>2026-05-03T08:23:30.553Z</time></trkpt><trkpt lat="42.2483131" lon="13.70655"><ele>827.6666666666666</ele><time>2026-05-03T08:23:31.553Z</time></trkpt><trkpt lat="42.2482787" lon="13.7066585"><ele>829.8333333333333</ele><time>2026-05-03T08:23:32.553Z</time></trkpt><trkpt lat="42.2482529" lon="13.7067717"><ele>832.0</ele><time>2026-05-03T08:23:33.553Z</time></trkpt><trkpt lat="42.2482474" lon="13.706883"><ele>832.0</ele><time>2026-05-03T08:23:34.553Z</time></trkpt><trkpt lat="42.2482635" lon="13.7069996"><ele>832.0</ele><time>2026-05-03T08:23:35.552Z</time></trkpt><trkpt lat="42.248283" lon="13.7071209"><ele>832.0</ele><time>2026-05-03T08:23:36.552Z</time></trkpt><trkpt lat="42.2482905" lon="13.707239"><ele>832.0</ele><time>2026-05-03T08:23:37.553Z</time></trkpt><trkpt lat="42.2482814" lon="13.7073603"><ele>832.0</ele><time>2026-05-03T08:23:38.552Z</time></trkpt><trkpt lat="42.2482611" lon="13.7074992"><ele>832.0</ele><time>2026-05-03T08:23:39.552Z</time></trkpt><trkpt lat="42.2482259" lon="13.7076462"><ele>832.0</ele><time>2026-05-03T08:23:40.553Z</time></trkpt><trkpt lat="42.2481896" lon="13.7077793"><ele>832.0</ele><time>2026-05-03T08:23:41.553Z</time></trkpt><trkpt lat="42.2481486" lon="13.7078986"><ele>832.0</ele><time>2026-05-03T08:23:42.552Z</time></trkpt><trkpt lat="42.2481075" lon="13.7080017"><ele>832.0</ele><time>2026-05-03T08:23:43.552Z</time></trkpt><trkpt lat="42.2480711" lon="13.708095"><ele>829.2</ele><time>2026-05-03T08:23:44.553Z</time></trkpt><trkpt lat="42.2480304" lon="13.7081752"><ele>826.4000000000001</ele><time>2026-05-03T08:23:45.553Z</time></trkpt><trkpt lat="42.2479731" lon="13.7082431"><ele>823.5999999999999</ele><time>2026-05-03T08:23:46.552Z</time></trkpt><trkpt lat="42.2478979" lon="13.7083104"><ele>820.8</ele><time>2026-05-03T08:23:47.553Z</time></trkpt><trkpt lat="42.2478027" lon="13.7083823"><ele>818.0</ele><time>2026-05-03T08:23:48.552Z</time></trkpt><trkpt lat="42.2476988" lon="13.7084671"><ele>818.0</ele><time>2026-05-03T08:23:49.552Z</time></trkpt><trkpt lat="42.2476063" lon="13.7085487"><ele>818.0</ele><time>2026-05-03T08:23:50.553Z</time></trkpt><trkpt lat="42.2475316" lon="13.7086131"><ele>818.0</ele><time>2026-05-03T08:23:51.553Z</time></trkpt><trkpt lat="42.2474409" lon="13.7086659"><ele>818.0</ele><time>2026-05-03T08:23:53.553Z</time></trkpt><trkpt lat="42.2473867" lon="13.708615"><ele>818.0</ele><time>2026-05-03T08:23:56.553Z</time></trkpt><trkpt lat="42.2473283" lon="13.7085217"><ele>815.2</ele><time>2026-05-03T08:23:58.552Z</time></trkpt><trkpt lat="42.2472817" lon="13.7084267"><ele>812.4</ele><time>2026-05-03T08:24:00.553Z</time></trkpt><trkpt lat="42.2472383" lon="13.7082733"><ele>809.6</ele><time>2026-05-03T08:24:02.553Z</time></trkpt><trkpt lat="42.2472233" lon="13.7081817"><ele>806.8000000000001</ele><time>2026-05-03T08:24:03.553Z</time></trkpt><trkpt lat="42.2472133" lon="13.708065"><ele>804.0</ele><time>2026-05-03T08:24:04.553Z</time></trkpt><trkpt lat="42.2471983" lon="13.7079217"><ele>804.0</ele><time>2026-05-03T08:24:05.553Z</time></trkpt><trkpt lat="42.2471883" lon="13.7077617"><ele>804.0</ele><time>2026-05-03T08:24:06.553Z</time></trkpt><trkpt lat="42.24718" lon="13.7076117"><ele>804.0</ele><time>2026-05-03T08:24:07.553Z</time></trkpt><trkpt lat="42.2471733" lon="13.7074833"><ele>804.0</ele><time>2026-05-03T08:24:08.552Z</time></trkpt><trkpt lat="42.2471617" lon="13.7073617"><ele>804.0</ele><time>2026-05-03T08:24:09.553Z</time></trkpt><trkpt lat="42.24715" lon="13.70727"><ele>804.4000000000001</ele><time>2026-05-03T08:24:10.552Z</time></trkpt><trkpt lat="42.247105" lon="13.7071633"><ele>804.8</ele><time>2026-05-03T08:24:12.553Z</time></trkpt><trkpt lat="42.2470233" lon="13.7071333"><ele>805.2</ele><time>2026-05-03T08:24:14.552Z</time></trkpt><trkpt lat="42.2468883" lon="13.7071367"><ele>805.5999999999999</ele><time>2026-05-03T08:24:16.552Z</time></trkpt><trkpt lat="42.2468033" lon="13.7071433"><ele>806.0</ele><time>2026-05-03T08:24:17.553Z</time></trkpt><trkpt lat="42.24674" lon="13.707135"><ele>806.0000000000001</ele><time>2026-05-03T08:24:18.552Z</time></trkpt><trkpt lat="42.2466767" lon="13.707105"><ele>806.0</ele><time>2026-05-03T08:24:20.553Z</time></trkpt><trkpt lat="42.24668" lon="13.7069767"><ele>806.0</ele><time>2026-05-03T08:24:26.552Z</time></trkpt><trkpt lat="42.2466883" lon="13.7068667"><ele>806.0</ele><time>2026-05-03T08:24:27.552Z</time></trkpt><trkpt lat="42.2466967" lon="13.7067317"><ele>806.0000000000001</ele><time>2026-05-03T08:24:29.553Z</time></trkpt><trkpt lat="42.2466433" lon="13.706675"><ele>806.0</ele><time>2026-05-03T08:24:31.553Z</time></trkpt><trkpt lat="42.2465717" lon="13.706635"><ele>806.0000000000001</ele><time>2026-05-03T08:24:33.553Z</time></trkpt><trkpt lat="42.2465117" lon="13.70673"><ele>806.0</ele><time>2026-05-03T08:24:36.553Z</time></trkpt><trkpt lat="42.2464833" lon="13.7068183"><ele>806.0</ele><time>2026-05-03T08:24:37.553Z</time></trkpt><trkpt lat="42.246465" lon="13.7069117"><ele>806.0</ele><time>2026-05-03T08:24:38.553Z</time></trkpt><trkpt lat="42.24645" lon="13.70704"><ele>806.0000000000001</ele><time>2026-05-03T08:24:40.553Z</time></trkpt><trkpt lat="42.2463617" lon="13.7070633"><ele>806.0</ele><time>2026-05-03T08:24:43.552Z</time></trkpt><trkpt lat="42.2462717" lon="13.70704"><ele>803.8333333333334</ele><time>2026-05-03T08:24:45.552Z</time></trkpt><trkpt lat="42.2462017" lon="13.7070267"><ele>801.6666666666667</ele><time>2026-05-03T08:24:47.553Z</time></trkpt><trkpt lat="42.2461467" lon="13.707085"><ele>799.5</ele><time>2026-05-03T08:24:52.553Z</time></trkpt><trkpt lat="42.2461633" lon="13.707265"><ele>797.3333333333333</ele><time>2026-05-03T08:24:54.553Z</time></trkpt><trkpt lat="42.246155" lon="13.70737"><ele>795.1666666666666</ele><time>2026-05-03T08:24:55.552Z</time></trkpt><trkpt lat="42.24615" lon="13.70749"><ele>793.0</ele><time>2026-05-03T08:24:56.553Z</time></trkpt><trkpt lat="42.2461417" lon="13.70764"><ele>792.25</ele><time>2026-05-03T08:24:57.553Z</time></trkpt><trkpt lat="42.2461233" lon="13.7078067"><ele>791.5</ele><time>2026-05-03T08:24:58.552Z</time></trkpt><trkpt lat="42.2461217" lon="13.707975"><ele>790.75</ele><time>2026-05-03T08:24:59.553Z</time></trkpt><trkpt lat="42.2460983" lon="13.7081433"><ele>790.0</ele><time>2026-05-03T08:25:00.552Z</time></trkpt><trkpt lat="42.24608" lon="13.70833"><ele>790.0</ele><time>2026-05-03T08:25:01.553Z</time></trkpt><trkpt lat="42.2460583" lon="13.7085233"><ele>790.0</ele><time>2026-05-03T08:25:02.553Z</time></trkpt><trkpt lat="42.2460383" lon="13.7087033"><ele>790.0</ele><time>2026-05-03T08:25:03.552Z</time></trkpt><trkpt lat="42.2460283" lon="13.7088717"><ele>790.0</ele><time>2026-05-03T08:25:04.552Z</time></trkpt><trkpt lat="42.2460217" lon="13.7090333"><ele>789.0</ele><time>2026-05-03T08:25:05.553Z</time></trkpt><trkpt lat="42.2460267" lon="13.7092033"><ele>788.0</ele><time>2026-05-03T08:25:06.553Z</time></trkpt><trkpt lat="42.246055" lon="13.7093733"><ele>787.0</ele><time>2026-05-03T08:25:07.553Z</time></trkpt><trkpt lat="42.2461017" lon="13.709515"><ele>786.0</ele><time>2026-05-03T08:25:08.552Z</time></trkpt><trkpt lat="42.246155" lon="13.7096167"><ele>785.8</ele><time>2026-05-03T08:25:09.553Z</time></trkpt><trkpt lat="42.24621" lon="13.709705"><ele>785.5999999999999</ele><time>2026-05-03T08:25:10.553Z</time></trkpt><trkpt lat="42.2462833" lon="13.709815"><ele>785.4</ele><time>2026-05-03T08:25:11.553Z</time></trkpt><trkpt lat="42.2463683" lon="13.709905"><ele>785.2</ele><time>2026-05-03T08:25:12.553Z</time></trkpt><trkpt lat="42.2464733" lon="13.7099833"><ele>785.0</ele><time>2026-05-03T08:25:13.552Z</time></trkpt><trkpt lat="42.2465817" lon="13.7100633"><ele>785.75</ele><time>2026-05-03T08:25:14.553Z</time></trkpt><trkpt lat="42.246685" lon="13.7101083"><ele>786.5</ele><time>2026-05-03T08:25:15.552Z</time></trkpt><trkpt lat="42.2467983" lon="13.7101233"><ele>787.25</ele><time>2026-05-03T08:25:16.553Z</time></trkpt><trkpt lat="42.2469267" lon="13.7101033"><ele>788.0</ele><time>2026-05-03T08:25:17.552Z</time></trkpt><trkpt lat="42.2470783" lon="13.7100583"><ele>788.0</ele><time>2026-05-03T08:25:18.552Z</time></trkpt><trkpt lat="42.2472467" lon="13.7099983"><ele>788.0</ele><time>2026-05-03T08:25:19.552Z</time></trkpt><trkpt lat="42.2474233" lon="13.7099467"><ele>788.0</ele><time>2026-05-03T08:25:20.553Z</time></trkpt><trkpt lat="42.24759" lon="13.7099067"><ele>786.75</ele><time>2026-05-03T08:25:21.553Z</time></trkpt><trkpt lat="42.24774" lon="13.7098817"><ele>785.5</ele><time>2026-05-03T08:25:22.553Z</time></trkpt><trkpt lat="42.24788" lon="13.7098883"><ele>784.25</ele><time>2026-05-03T08:25:23.552Z</time></trkpt><trkpt lat="42.2479967" lon="13.7099283"><ele>783.0</ele><time>2026-05-03T08:25:24.553Z</time></trkpt><trkpt lat="42.2480817" lon="13.71001"><ele>783.5999999999999</ele><time>2026-05-03T08:25:25.552Z</time></trkpt><trkpt lat="42.2481367" lon="13.7101217"><ele>784.1999999999999</ele><time>2026-05-03T08:25:26.553Z</time></trkpt><trkpt lat="42.2481633" lon="13.710235"><ele>784.8</ele><time>2026-05-03T08:25:27.553Z</time></trkpt><trkpt lat="42.248165" lon="13.7103517"><ele>785.4</ele><time>2026-05-03T08:25:28.553Z</time></trkpt><trkpt lat="42.2481433" lon="13.7104833"><ele>786.0</ele><time>2026-05-03T08:25:29.552Z</time></trkpt><trkpt lat="42.2481017" lon="13.710635"><ele>779.6666666666666</ele><time>2026-05-03T08:25:30.552Z</time></trkpt><trkpt lat="42.2480467" lon="13.7108233"><ele>773.3333333333333</ele><time>2026-05-03T08:25:31.553Z</time></trkpt><trkpt lat="42.2479867" lon="13.7110233"><ele>767.0</ele><time>2026-05-03T08:25:32.553Z</time></trkpt><trkpt lat="42.2479167" lon="13.7112467"><ele>766.0</ele><time>2026-05-03T08:25:33.553Z</time></trkpt><trkpt lat="42.2478483" lon="13.7114683"><ele>765.0</ele><time>2026-05-03T08:25:34.553Z</time></trkpt><trkpt lat="42.2477867" lon="13.7116683"><ele>764.0</ele><time>2026-05-03T08:25:35.553Z</time></trkpt><trkpt lat="42.2477433" lon="13.7118433"><ele>764.75</ele><time>2026-05-03T08:25:36.553Z</time></trkpt><trkpt lat="42.2477267" lon="13.712"><ele>765.5</ele><time>2026-05-03T08:25:37.553Z</time></trkpt><trkpt lat="42.2477283" lon="13.712165"><ele>766.25</ele><time>2026-05-03T08:25:38.553Z</time></trkpt><trkpt lat="42.2477317" lon="13.7123483"><ele>767.0</ele><time>2026-05-03T08:25:39.553Z</time></trkpt><trkpt lat="42.2477233" lon="13.7125467"><ele>767.0</ele><time>2026-05-03T08:25:40.552Z</time></trkpt><trkpt lat="42.2477167" lon="13.712735"><ele>767.0</ele><time>2026-05-03T08:25:41.552Z</time></trkpt><trkpt lat="42.2477083" lon="13.7129367"><ele>767.0</ele><time>2026-05-03T08:25:42.553Z</time></trkpt><trkpt lat="42.247685" lon="13.7131333"><ele>767.0</ele><time>2026-05-03T08:25:43.553Z</time></trkpt><trkpt lat="42.2476583" lon="13.71335"><ele>767.3333333333333</ele><time>2026-05-03T08:25:44.552Z</time></trkpt><trkpt lat="42.2476417" lon="13.7135617"><ele>767.6666666666666</ele><time>2026-05-03T08:25:45.553Z</time></trkpt><trkpt lat="42.2476433" lon="13.7137617"><ele>768.0</ele><time>2026-05-03T08:25:46.553Z</time></trkpt><trkpt lat="42.2476617" lon="13.7139567"><ele>767.3333333333334</ele><time>2026-05-03T08:25:47.553Z</time></trkpt><trkpt lat="42.2476933" lon="13.7141567"><ele>766.6666666666667</ele><time>2026-05-03T08:25:48.553Z</time></trkpt><trkpt lat="42.2477417" lon="13.7143617"><ele>766.0</ele><time>2026-05-03T08:25:49.552Z</time></trkpt><trkpt lat="42.2478083" lon="13.7145717"><ele>763.3333333333334</ele><time>2026-05-03T08:25:50.553Z</time></trkpt><trkpt lat="42.2478733" lon="13.7147667"><ele>760.6666666666666</ele><time>2026-05-03T08:25:51.553Z</time></trkpt><trkpt lat="42.2479583" lon="13.7149667"><ele>758.0</ele><time>2026-05-03T08:25:52.552Z</time></trkpt><trkpt lat="42.2480467" lon="13.71515"><ele>756.0</ele><time>2026-05-03T08:25:53.553Z</time></trkpt><trkpt lat="42.2481233" lon="13.7152933"><ele>754.0</ele><time>2026-05-03T08:25:54.553Z</time></trkpt><trkpt lat="42.2481983" lon="13.715405"><ele>752.0</ele><time>2026-05-03T08:25:55.553Z</time></trkpt><trkpt lat="42.2482867" lon="13.7155033"><ele>750.0</ele><time>2026-05-03T08:25:56.553Z</time></trkpt><trkpt lat="42.2483967" lon="13.7156067"><ele>756.0</ele><time>2026-05-03T08:25:57.552Z</time></trkpt><trkpt lat="42.2485267" lon="13.7157333"><ele>762.0</ele><time>2026-05-03T08:25:58.552Z</time></trkpt><trkpt lat="42.2486567" lon="13.7158633"><ele>768.0</ele><time>2026-05-03T08:25:59.553Z</time></trkpt><trkpt lat="42.248795" lon="13.715995"><ele>767.25</ele><time>2026-05-03T08:26:00.553Z</time></trkpt><trkpt lat="42.2489317" lon="13.7161067"><ele>766.5</ele><time>2026-05-03T08:26:01.553Z</time></trkpt><trkpt lat="42.24907" lon="13.716215"><ele>765.75</ele><time>2026-05-03T08:26:02.552Z</time></trkpt><trkpt lat="42.2491767" lon="13.7163"><ele>765.0</ele><time>2026-05-03T08:26:03.552Z</time></trkpt><trkpt lat="42.2492767" lon="13.7163817"><ele>765.0</ele><time>2026-05-03T08:26:04.553Z</time></trkpt><trkpt lat="42.2493417" lon="13.71647"><ele>765.0</ele><time>2026-05-03T08:26:05.553Z</time></trkpt><trkpt lat="42.24939" lon="13.7165783"><ele>765.0</ele><time>2026-05-03T08:26:06.552Z</time></trkpt><trkpt lat="42.24942" lon="13.7167183"><ele>765.0</ele><time>2026-05-03T08:26:07.552Z</time></trkpt><trkpt lat="42.24945" lon="13.716885"><ele>765.0</ele><time>2026-05-03T08:26:08.553Z</time></trkpt><trkpt lat="42.2495067" lon="13.7170317"><ele>764.0</ele><time>2026-05-03T08:26:09.553Z</time></trkpt><trkpt lat="42.249595" lon="13.7171667"><ele>763.0</ele><time>2026-05-03T08:26:10.553Z</time></trkpt><trkpt lat="42.2497083" lon="13.71729"><ele>762.0</ele><time>2026-05-03T08:26:11.553Z</time></trkpt><trkpt lat="42.2498033" lon="13.7174083"><ele>761.0</ele><time>2026-05-03T08:26:12.552Z</time></trkpt><trkpt lat="42.249875" lon="13.7175433"><ele>764.0</ele><time>2026-05-03T08:26:13.553Z</time></trkpt><trkpt lat="42.2499317" lon="13.7176983"><ele>767.0</ele><time>2026-05-03T08:26:14.552Z</time></trkpt><trkpt lat="42.2499883" lon="13.71787"><ele>770.0</ele><time>2026-05-03T08:26:15.553Z</time></trkpt><trkpt lat="42.2500617" lon="13.71802"><ele>773.0</ele><time>2026-05-03T08:26:16.553Z</time></trkpt><trkpt lat="42.2501583" lon="13.7181767"><ele>773.0</ele><time>2026-05-03T08:26:17.552Z</time></trkpt><trkpt lat="42.250265" lon="13.7183383"><ele>773.0</ele><time>2026-05-03T08:26:18.553Z</time></trkpt><trkpt lat="42.2503783" lon="13.7184817"><ele>773.0</ele><time>2026-05-03T08:26:19.552Z</time></trkpt><trkpt lat="42.2504867" lon="13.718605"><ele>773.0</ele><time>2026-05-03T08:26:20.552Z</time></trkpt><trkpt lat="42.2505867" lon="13.7186967"><ele>773.0</ele><time>2026-05-03T08:26:21.553Z</time></trkpt><trkpt lat="42.250695" lon="13.7187667"><ele>773.0</ele><time>2026-05-03T08:26:22.553Z</time></trkpt><trkpt lat="42.2508283" lon="13.7188217"><ele>773.0</ele><time>2026-05-03T08:26:23.553Z</time></trkpt><trkpt lat="42.2509717" lon="13.7188817"><ele>773.0</ele><time>2026-05-03T08:26:24.553Z</time></trkpt><trkpt lat="42.2511017" lon="13.71896"><ele>773.0</ele><time>2026-05-03T08:26:25.553Z</time></trkpt><trkpt lat="42.2512183" lon="13.719055"><ele>773.0</ele><time>2026-05-03T08:26:26.552Z</time></trkpt><trkpt lat="42.251315" lon="13.7191733"><ele>773.0</ele><time>2026-05-03T08:26:27.553Z</time></trkpt><trkpt lat="42.2514083" lon="13.7193067"><ele>774.75</ele><time>2026-05-03T08:26:28.552Z</time></trkpt><trkpt lat="42.251505" lon="13.7194383"><ele>776.5</ele><time>2026-05-03T08:26:29.553Z</time></trkpt><trkpt lat="42.251615" lon="13.719565"><ele>778.25</ele><time>2026-05-03T08:26:30.552Z</time></trkpt><trkpt lat="42.2517483" lon="13.7196867"><ele>780.0</ele><time>2026-05-03T08:26:31.553Z</time></trkpt><trkpt lat="42.2518867" lon="13.7198083"><ele>780.0</ele><time>2026-05-03T08:26:32.552Z</time></trkpt><trkpt lat="42.25203" lon="13.719935"><ele>780.0</ele><time>2026-05-03T08:26:33.552Z</time></trkpt><trkpt lat="42.2521717" lon="13.7200617"><ele>780.0</ele><time>2026-05-03T08:26:34.553Z</time></trkpt><trkpt lat="42.25231" lon="13.7201967"><ele>779.0</ele><time>2026-05-03T08:26:35.552Z</time></trkpt><trkpt lat="42.2524383" lon="13.7203233"><ele>778.0</ele><time>2026-05-03T08:26:36.553Z</time></trkpt><trkpt lat="42.252565" lon="13.72045"><ele>777.0</ele><time>2026-05-03T08:26:37.552Z</time></trkpt><trkpt lat="42.2527033" lon="13.7205583"><ele>777.0</ele><time>2026-05-03T08:26:38.553Z</time></trkpt><trkpt lat="42.252855" lon="13.7206517"><ele>777.0</ele><time>2026-05-03T08:26:39.553Z</time></trkpt><trkpt lat="42.2530067" lon="13.7207417"><ele>777.0</ele><time>2026-05-03T08:26:40.552Z</time></trkpt><trkpt lat="42.2531533" lon="13.720815"><ele>777.6</ele><time>2026-05-03T08:26:41.552Z</time></trkpt><trkpt lat="42.25328" lon="13.7208683"><ele>778.2</ele><time>2026-05-03T08:26:42.552Z</time></trkpt><trkpt lat="42.2533883" lon="13.72091"><ele>778.8</ele><time>2026-05-03T08:26:43.553Z</time></trkpt><trkpt lat="42.253485" lon="13.7209533"><ele>779.4</ele><time>2026-05-03T08:26:44.553Z</time></trkpt><trkpt lat="42.2535633" lon="13.7209933"><ele>780.0</ele><time>2026-05-03T08:26:45.553Z</time></trkpt><trkpt lat="42.2536183" lon="13.7210733"><ele>780.0</ele><time>2026-05-03T08:26:46.553Z</time></trkpt><trkpt lat="42.2536667" lon="13.72119"><ele>780.0</ele><time>2026-05-03T08:26:47.553Z</time></trkpt><trkpt lat="42.2537" lon="13.7213267"><ele>780.0</ele><time>2026-05-03T08:26:48.552Z</time></trkpt><trkpt lat="42.25372" lon="13.7214567"><ele>780.0</ele><time>2026-05-03T08:26:49.553Z</time></trkpt><trkpt lat="42.25371" lon="13.72156"><ele>780.0</ele><time>2026-05-03T08:26:50.552Z</time></trkpt><trkpt lat="42.2536717" lon="13.7216617"><ele>780.0</ele><time>2026-05-03T08:26:51.553Z</time></trkpt><trkpt lat="42.2536083" lon="13.72178"><ele>780.0</ele><time>2026-05-03T08:26:52.552Z</time></trkpt><trkpt lat="42.2535233" lon="13.72192"><ele>780.0</ele><time>2026-05-03T08:26:53.553Z</time></trkpt><trkpt lat="42.25345" lon="13.7220833"><ele>780.0</ele><time>2026-05-03T08:26:54.553Z</time></trkpt><trkpt lat="42.2534033" lon="13.7222233"><ele>781.0</ele><time>2026-05-03T08:26:55.553Z</time></trkpt><trkpt lat="42.25339" lon="13.7223267"><ele>782.0</ele><time>2026-05-03T08:26:56.553Z</time></trkpt><trkpt lat="42.2534083" lon="13.72243"><ele>783.0</ele><time>2026-05-03T08:26:57.552Z</time></trkpt><trkpt lat="42.2534433" lon="13.72255"><ele>784.0</ele><time>2026-05-03T08:26:58.552Z</time></trkpt><trkpt lat="42.2534833" lon="13.722685"><ele>785.0</ele><time>2026-05-03T08:26:59.553Z</time></trkpt><trkpt lat="42.253525" lon="13.7228367"><ele>786.25</ele><time>2026-05-03T08:27:00.553Z</time></trkpt><trkpt lat="42.2535767" lon="13.722975"><ele>787.5</ele><time>2026-05-03T08:27:01.552Z</time></trkpt><trkpt lat="42.2536383" lon="13.7231133"><ele>788.75</ele><time>2026-05-03T08:27:02.553Z</time></trkpt><trkpt lat="42.2536967" lon="13.72325"><ele>790.0</ele><time>2026-05-03T08:27:03.553Z</time></trkpt><trkpt lat="42.25375" lon="13.7233983"><ele>790.0</ele><time>2026-05-03T08:27:04.553Z</time></trkpt><trkpt lat="42.2538017" lon="13.7235467"><ele>790.0</ele><time>2026-05-03T08:27:05.553Z</time></trkpt><trkpt lat="42.25384" lon="13.7237017"><ele>790.0</ele><time>2026-05-03T08:27:06.553Z</time></trkpt><trkpt lat="42.2538817" lon="13.7238383"><ele>790.0</ele><time>2026-05-03T08:27:07.553Z</time></trkpt><trkpt lat="42.25392" lon="13.7239517"><ele>790.0</ele><time>2026-05-03T08:27:08.553Z</time></trkpt><trkpt lat="42.2539667" lon="13.7240483"><ele>788.9999999999999</ele><time>2026-05-03T08:27:09.553Z</time></trkpt><trkpt lat="42.254025" lon="13.7241183"><ele>788.0</ele><time>2026-05-03T08:27:10.553Z</time></trkpt><trkpt lat="42.2540917" lon="13.7241683"><ele>787.0</ele><time>2026-05-03T08:27:11.553Z</time></trkpt><trkpt lat="42.2541633" lon="13.724195"><ele>786.0</ele><time>2026-05-03T08:27:12.553Z</time></trkpt><trkpt lat="42.254245" lon="13.7242267"><ele>784.9999999999999</ele><time>2026-05-03T08:27:13.553Z</time></trkpt><trkpt lat="42.254345" lon="13.7242733"><ele>784.0</ele><time>2026-05-03T08:27:14.553Z</time></trkpt><trkpt lat="42.2544617" lon="13.7243367"><ele>779.75</ele><time>2026-05-03T08:27:15.553Z</time></trkpt><trkpt lat="42.2545767" lon="13.7244"><ele>775.5</ele><time>2026-05-03T08:27:16.553Z</time></trkpt><trkpt lat="42.254695" lon="13.7244633"><ele>771.25</ele><time>2026-05-03T08:27:17.552Z</time></trkpt><trkpt lat="42.25481" lon="13.72452"><ele>767.0</ele><time>2026-05-03T08:27:18.553Z</time></trkpt><trkpt lat="42.2549117" lon="13.724575"><ele>766.8</ele><time>2026-05-03T08:27:19.552Z</time></trkpt><trkpt lat="42.2550017" lon="13.724615"><ele>766.6</ele><time>2026-05-03T08:27:20.552Z</time></trkpt><trkpt lat="42.2550933" lon="13.7246467"><ele>766.4</ele><time>2026-05-03T08:27:21.552Z</time></trkpt><trkpt lat="42.2551767" lon="13.7246917"><ele>766.1999999999999</ele><time>2026-05-03T08:27:22.553Z</time></trkpt><trkpt lat="42.2552567" lon="13.72477"><ele>766.0</ele><time>2026-05-03T08:27:23.553Z</time></trkpt><trkpt lat="42.255315" lon="13.72489"><ele>766.0</ele><time>2026-05-03T08:27:24.553Z</time></trkpt><trkpt lat="42.255355" lon="13.7250433"><ele>766.0</ele><time>2026-05-03T08:27:25.553Z</time></trkpt><trkpt lat="42.2553883" lon="13.7252217"><ele>766.0</ele><time>2026-05-03T08:27:26.553Z</time></trkpt><trkpt lat="42.255435" lon="13.7254233"><ele>766.0</ele><time>2026-05-03T08:27:27.553Z</time></trkpt><trkpt lat="42.2554867" lon="13.72563"><ele>765.75</ele><time>2026-05-03T08:27:28.552Z</time></trkpt><trkpt lat="42.2555383" lon="13.7258217"><ele>765.5</ele><time>2026-05-03T08:27:29.553Z</time></trkpt><trkpt lat="42.2556017" lon="13.7260017"><ele>765.25</ele><time>2026-05-03T08:27:30.553Z</time></trkpt><trkpt lat="42.2556667" lon="13.7261733"><ele>765.0</ele><time>2026-05-03T08:27:31.553Z</time></trkpt><trkpt lat="42.2557133" lon="13.726325"><ele>765.0</ele><time>2026-05-03T08:27:32.552Z</time></trkpt><trkpt lat="42.2557333" lon="13.726445"><ele>765.0</ele><time>2026-05-03T08:27:33.553Z</time></trkpt><trkpt lat="42.2557267" lon="13.726545"><ele>765.0</ele><time>2026-05-03T08:27:34.553Z</time></trkpt><trkpt lat="42.255695" lon="13.72664"><ele>765.0</ele><time>2026-05-03T08:27:35.553Z</time></trkpt><trkpt lat="42.2556283" lon="13.7267267"><ele>765.0</ele><time>2026-05-03T08:27:36.553Z</time></trkpt><trkpt lat="42.255555" lon="13.7268033"><ele>765.0</ele><time>2026-05-03T08:27:37.553Z</time></trkpt><trkpt lat="42.2555033" lon="13.7268767"><ele>762.3333333333334</ele><time>2026-05-03T08:27:38.553Z</time></trkpt><trkpt lat="42.2554833" lon="13.7269617"><ele>759.6666666666666</ele><time>2026-05-03T08:27:39.552Z</time></trkpt><trkpt lat="42.2554767" lon="13.7270767"><ele>757.0</ele><time>2026-05-03T08:27:40.553Z</time></trkpt><trkpt lat="42.2554617" lon="13.72723"><ele>754.3333333333333</ele><time>2026-05-03T08:27:41.553Z</time></trkpt><trkpt lat="42.2554517" lon="13.727365"><ele>751.6666666666666</ele><time>2026-05-03T08:27:42.553Z</time></trkpt><trkpt lat="42.25546" lon="13.7274733"><ele>749.0</ele><time>2026-05-03T08:27:43.552Z</time></trkpt><trkpt lat="42.2555133" lon="13.7275833"><ele>750.0</ele><time>2026-05-03T08:27:45.553Z</time></trkpt><trkpt lat="42.255665" lon="13.727565"><ele>751.0</ele><time>2026-05-03T08:27:47.552Z</time></trkpt><trkpt lat="42.2557633" lon="13.7275567"><ele>752.0</ele><time>2026-05-03T08:27:48.553Z</time></trkpt><trkpt lat="42.2558633" lon="13.727565"><ele>753.0</ele><time>2026-05-03T08:27:49.553Z</time></trkpt><trkpt lat="42.255955" lon="13.7276"><ele>754.0</ele><time>2026-05-03T08:27:50.553Z</time></trkpt><trkpt lat="42.2560467" lon="13.7276467"><ele>754.0</ele><time>2026-05-03T08:27:51.552Z</time></trkpt><trkpt lat="42.2561417" lon="13.7277267"><ele>754.0</ele><time>2026-05-03T08:27:52.552Z</time></trkpt><trkpt lat="42.2562433" lon="13.7278217"><ele>754.0</ele><time>2026-05-03T08:27:53.552Z</time></trkpt><trkpt lat="42.2563617" lon="13.7279183"><ele>754.0</ele><time>2026-05-03T08:27:54.552Z</time></trkpt><trkpt lat="42.2564667" lon="13.728005"><ele>748.75</ele><time>2026-05-03T08:27:55.553Z</time></trkpt><trkpt lat="42.2565933" lon="13.728105"><ele>743.5</ele><time>2026-05-03T08:27:56.553Z</time></trkpt><trkpt lat="42.2567033" lon="13.7281817"><ele>738.25</ele><time>2026-05-03T08:27:57.553Z</time></trkpt><trkpt lat="42.25679" lon="13.7282817"><ele>733.0</ele><time>2026-05-03T08:27:58.553Z</time></trkpt><trkpt lat="42.2568717" lon="13.7283817"><ele>733.0</ele><time>2026-05-03T08:27:59.553Z</time></trkpt><trkpt lat="42.25695" lon="13.7284683"><ele>733.0</ele><time>2026-05-03T08:28:00.553Z</time></trkpt><trkpt lat="42.257025" lon="13.7285617"><ele>733.0</ele><time>2026-05-03T08:28:01.552Z</time></trkpt><trkpt lat="42.257105" lon="13.7286433"><ele>733.0</ele><time>2026-05-03T08:28:02.552Z</time></trkpt><trkpt lat="42.2571667" lon="13.7287217"><ele>733.0</ele><time>2026-05-03T08:28:03.553Z</time></trkpt><trkpt lat="42.25722" lon="13.728815"><ele>730.6666666666667</ele><time>2026-05-03T08:28:04.553Z</time></trkpt><trkpt lat="42.25726" lon="13.7289117"><ele>728.3333333333334</ele><time>2026-05-03T08:28:05.553Z</time></trkpt><trkpt lat="42.2572983" lon="13.729025"><ele>726.0</ele><time>2026-05-03T08:28:06.553Z</time></trkpt><trkpt lat="42.2573283" lon="13.7291217"><ele>723.6666666666666</ele><time>2026-05-03T08:28:07.552Z</time></trkpt><trkpt lat="42.2573583" lon="13.7292117"><ele>721.3333333333333</ele><time>2026-05-03T08:28:08.553Z</time></trkpt><trkpt lat="42.2573983" lon="13.72929"><ele>719.0</ele><time>2026-05-03T08:28:09.553Z</time></trkpt><trkpt lat="42.2574533" lon="13.7293717"><ele>710.5</ele><time>2026-05-03T08:28:10.553Z</time></trkpt><trkpt lat="42.25757" lon="13.7294717"><ele>702.0</ele><time>2026-05-03T08:28:12.552Z</time></trkpt><trkpt lat="42.257655" lon="13.7294933"><ele>693.5</ele><time>2026-05-03T08:28:13.552Z</time></trkpt><trkpt lat="42.2577617" lon="13.72952"><ele>685.0</ele><time>2026-05-03T08:28:14.553Z</time></trkpt><trkpt lat="42.2578783" lon="13.7295483"><ele>685.0</ele><time>2026-05-03T08:28:15.553Z</time></trkpt><trkpt lat="42.2579933" lon="13.7295733"><ele>685.0</ele><time>2026-05-03T08:28:16.553Z</time></trkpt><trkpt lat="42.2580967" lon="13.7296"><ele>685.0</ele><time>2026-05-03T08:28:17.553Z</time></trkpt><trkpt lat="42.2582033" lon="13.72963"><ele>685.0</ele><time>2026-05-03T08:28:18.553Z</time></trkpt><trkpt lat="42.2582933" lon="13.7296683"><ele>685.0</ele><time>2026-05-03T08:28:19.552Z</time></trkpt><trkpt lat="42.2583717" lon="13.7297217"><ele>686.5</ele><time>2026-05-03T08:28:20.553Z</time></trkpt><trkpt lat="42.2584633" lon="13.7297867"><ele>688.0</ele><time>2026-05-03T08:28:21.552Z</time></trkpt><trkpt lat="42.2585717" lon="13.729855"><ele>689.5</ele><time>2026-05-03T08:28:22.553Z</time></trkpt><trkpt lat="42.2586783" lon="13.72992"><ele>691.0</ele><time>2026-05-03T08:28:23.553Z</time></trkpt><trkpt lat="42.2587833" lon="13.7299767"><ele>691.0</ele><time>2026-05-03T08:28:24.553Z</time></trkpt><trkpt lat="42.2589033" lon="13.7300367"><ele>691.0</ele><time>2026-05-03T08:28:25.553Z</time></trkpt><trkpt lat="42.259025" lon="13.7300917"><ele>691.0</ele><time>2026-05-03T08:28:26.553Z</time></trkpt><trkpt lat="42.259145" lon="13.7301517"><ele>691.0</ele><time>2026-05-03T08:28:27.553Z</time></trkpt><trkpt lat="42.2592717" lon="13.73021"><ele>684.0</ele><time>2026-05-03T08:28:28.553Z</time></trkpt><trkpt lat="42.2593867" lon="13.7302633"><ele>677.0</ele><time>2026-05-03T08:28:29.553Z</time></trkpt><trkpt lat="42.2594983" lon="13.73031"><ele>670.0</ele><time>2026-05-03T08:28:30.553Z</time></trkpt><trkpt lat="42.2596" lon="13.7303633"><ele>663.0</ele><time>2026-05-03T08:28:31.552Z</time></trkpt><trkpt lat="42.2596983" lon="13.7304133"><ele>664.4</ele><time>2026-05-03T08:28:32.553Z</time></trkpt><trkpt lat="42.259795" lon="13.7304567"><ele>665.8</ele><time>2026-05-03T08:28:33.552Z</time></trkpt><trkpt lat="42.2598983" lon="13.7305033"><ele>667.2</ele><time>2026-05-03T08:28:34.553Z</time></trkpt><trkpt lat="42.2599983" lon="13.73056"><ele>668.6</ele><time>2026-05-03T08:28:35.553Z</time></trkpt><trkpt lat="42.2600883" lon="13.73061"><ele>670.0</ele><time>2026-05-03T08:28:36.553Z</time></trkpt><trkpt lat="42.2601733" lon="13.7306633"><ele>670.0</ele><time>2026-05-03T08:28:37.553Z</time></trkpt><trkpt lat="42.26025" lon="13.730715"><ele>670.0</ele><time>2026-05-03T08:28:38.553Z</time></trkpt><trkpt lat="42.2603317" lon="13.7307783"><ele>670.0</ele><time>2026-05-03T08:28:39.553Z</time></trkpt><trkpt lat="42.2604333" lon="13.7308517"><ele>670.0</ele><time>2026-05-03T08:28:40.553Z</time></trkpt><trkpt lat="42.2605317" lon="13.73093"><ele>670.0</ele><time>2026-05-03T08:28:41.553Z</time></trkpt><trkpt lat="42.2606167" lon="13.7310017"><ele>666.4</ele><time>2026-05-03T08:28:42.553Z</time></trkpt><trkpt lat="42.260695" lon="13.7310817"><ele>662.8</ele><time>2026-05-03T08:28:43.553Z</time></trkpt><trkpt lat="42.26078" lon="13.731165"><ele>659.2</ele><time>2026-05-03T08:28:44.553Z</time></trkpt><trkpt lat="42.2608533" lon="13.73125"><ele>655.6</ele><time>2026-05-03T08:28:45.552Z</time></trkpt><trkpt lat="42.2609033" lon="13.7313417"><ele>652.0</ele><time>2026-05-03T08:28:46.553Z</time></trkpt><trkpt lat="42.2609433" lon="13.7314417"><ele>652.0</ele><time>2026-05-03T08:28:47.553Z</time></trkpt><trkpt lat="42.2609767" lon="13.7315433"><ele>652.0</ele><time>2026-05-03T08:28:48.553Z</time></trkpt><trkpt lat="42.2610183" lon="13.731645"><ele>652.0</ele><time>2026-05-03T08:28:49.553Z</time></trkpt><trkpt lat="42.2610617" lon="13.73174"><ele>652.0</ele><time>2026-05-03T08:28:50.553Z</time></trkpt><trkpt lat="42.2611117" lon="13.7318317"><ele>652.0</ele><time>2026-05-03T08:28:51.553Z</time></trkpt><trkpt lat="42.2611667" lon="13.7319033"><ele>652.0</ele><time>2026-05-03T08:28:52.552Z</time></trkpt><trkpt lat="42.2612283" lon="13.7319467"><ele>651.5714285714286</ele><time>2026-05-03T08:28:53.553Z</time></trkpt><trkpt lat="42.2612967" lon="13.7319633"><ele>651.1428571428571</ele><time>2026-05-03T08:28:54.552Z</time></trkpt><trkpt lat="42.2613683" lon="13.7319733"><ele>650.7142857142857</ele><time>2026-05-03T08:28:55.553Z</time></trkpt><trkpt lat="42.2614417" lon="13.731985"><ele>650.2857142857142</ele><time>2026-05-03T08:28:56.553Z</time></trkpt><trkpt lat="42.2615033" lon="13.7320233"><ele>649.8571428571429</ele><time>2026-05-03T08:28:57.553Z</time></trkpt><trkpt lat="42.261555" lon="13.7320733"><ele>649.4285714285713</ele><time>2026-05-03T08:28:58.553Z</time></trkpt><trkpt lat="42.2615917" lon="13.732145"><ele>649.0</ele><time>2026-05-03T08:28:59.552Z</time></trkpt><trkpt lat="42.2616133" lon="13.7322317"><ele>649.0</ele><time>2026-05-03T08:29:00.553Z</time></trkpt><trkpt lat="42.2616217" lon="13.7324183"><ele>649.0</ele><time>2026-05-03T08:29:02.553Z</time></trkpt><trkpt lat="42.26161" lon="13.732525"><ele>649.0</ele><time>2026-05-03T08:29:03.553Z</time></trkpt><trkpt lat="42.2616017" lon="13.7326417"><ele>649.0</ele><time>2026-05-03T08:29:04.553Z</time></trkpt><trkpt lat="42.261595" lon="13.7327483"><ele>649.0</ele><time>2026-05-03T08:29:05.553Z</time></trkpt><trkpt lat="42.2616017" lon="13.7328617"><ele>646.0</ele><time>2026-05-03T08:29:06.553Z</time></trkpt><trkpt lat="42.26162" lon="13.7329967"><ele>643.0</ele><time>2026-05-03T08:29:07.552Z</time></trkpt><trkpt lat="42.2616417" lon="13.7331533"><ele>640.0</ele><time>2026-05-03T08:29:08.553Z</time></trkpt><trkpt lat="42.2616583" lon="13.7332967"><ele>637.0</ele><time>2026-05-03T08:29:09.553Z</time></trkpt><trkpt lat="42.2616883" lon="13.7334417"><ele>634.0</ele><time>2026-05-03T08:29:10.553Z</time></trkpt><trkpt lat="42.2617233" lon="13.7335967"><ele>632.8</ele><time>2026-05-03T08:29:11.553Z</time></trkpt><trkpt lat="42.2617433" lon="13.7337383"><ele>631.5999999999999</ele><time>2026-05-03T08:29:12.552Z</time></trkpt><trkpt lat="42.2617567" lon="13.7338767"><ele>630.4</ele><time>2026-05-03T08:29:13.553Z</time></trkpt><trkpt lat="42.2617617" lon="13.734015"><ele>629.1999999999999</ele><time>2026-05-03T08:29:14.552Z</time></trkpt><trkpt lat="42.2617567" lon="13.7341517"><ele>628.0</ele><time>2026-05-03T08:29:15.552Z</time></trkpt><trkpt lat="42.2617367" lon="13.73427"><ele>628.0</ele><time>2026-05-03T08:29:16.553Z</time></trkpt><trkpt lat="42.2617083" lon="13.7343783"><ele>628.0</ele><time>2026-05-03T08:29:17.553Z</time></trkpt><trkpt lat="42.26167" lon="13.7344983"><ele>628.0</ele><time>2026-05-03T08:29:18.553Z</time></trkpt><trkpt lat="42.2616133" lon="13.73463"><ele>628.0</ele><time>2026-05-03T08:29:19.553Z</time></trkpt><trkpt lat="42.2615583" lon="13.73475"><ele>628.0</ele><time>2026-05-03T08:29:20.553Z</time></trkpt><trkpt lat="42.2614817" lon="13.7348583"><ele>624.5</ele><time>2026-05-03T08:29:21.553Z</time></trkpt><trkpt lat="42.261405" lon="13.734955"><ele>621.0</ele><time>2026-05-03T08:29:22.552Z</time></trkpt><trkpt lat="42.2613367" lon="13.73504"><ele>617.5</ele><time>2026-05-03T08:29:23.553Z</time></trkpt><trkpt lat="42.2612717" lon="13.7351283"><ele>614.0</ele><time>2026-05-03T08:29:24.553Z</time></trkpt><trkpt lat="42.2612217" lon="13.7352133"><ele>610.5</ele><time>2026-05-03T08:29:25.553Z</time></trkpt><trkpt lat="42.2611883" lon="13.7352967"><ele>607.0</ele><time>2026-05-03T08:29:26.553Z</time></trkpt><trkpt lat="42.2611583" lon="13.7353917"><ele>606.4</ele><time>2026-05-03T08:29:27.552Z</time></trkpt><trkpt lat="42.2611333" lon="13.7355017"><ele>605.8000000000001</ele><time>2026-05-03T08:29:28.553Z</time></trkpt><trkpt lat="42.2611017" lon="13.7356217"><ele>605.2</ele><time>2026-05-03T08:29:29.552Z</time></trkpt><trkpt lat="42.261075" lon="13.735755"><ele>604.6</ele><time>2026-05-03T08:29:30.552Z</time></trkpt><trkpt lat="42.2610533" lon="13.73588"><ele>604.0</ele><time>2026-05-03T08:29:31.553Z</time></trkpt><trkpt lat="42.2610367" lon="13.7359917"><ele>602.6666666666667</ele><time>2026-05-03T08:29:32.553Z</time></trkpt><trkpt lat="42.2610217" lon="13.7360933"><ele>601.3333333333334</ele><time>2026-05-03T08:29:33.553Z</time></trkpt><trkpt lat="42.2610033" lon="13.73619"><ele>600.0</ele><time>2026-05-03T08:29:34.553Z</time></trkpt><trkpt lat="42.2609817" lon="13.7362717"><ele>598.6666666666666</ele><time>2026-05-03T08:29:35.552Z</time></trkpt><trkpt lat="42.2609733" lon="13.7363817"><ele>597.3333333333333</ele><time>2026-05-03T08:29:37.552Z</time></trkpt><trkpt lat="42.2610333" lon="13.73647"><ele>596.0</ele><time>2026-05-03T08:29:39.552Z</time></trkpt><trkpt lat="42.2610967" lon="13.7365317"><ele>596.0</ele><time>2026-05-03T08:29:40.553Z</time></trkpt><trkpt lat="42.2611717" lon="13.7366"><ele>596.0</ele><time>2026-05-03T08:29:41.553Z</time></trkpt><trkpt lat="42.2612417" lon="13.7366733"><ele>596.0</ele><time>2026-05-03T08:29:42.553Z</time></trkpt><trkpt lat="42.261315" lon="13.736755"><ele>596.0</ele><time>2026-05-03T08:29:43.553Z</time></trkpt><trkpt lat="42.2613867" lon="13.7368317"><ele>596.0</ele><time>2026-05-03T08:29:44.553Z</time></trkpt><trkpt lat="42.2614517" lon="13.7368917"><ele>596.0</ele><time>2026-05-03T08:29:45.553Z</time></trkpt><trkpt lat="42.2615217" lon="13.7369367"><ele>593.0</ele><time>2026-05-03T08:29:46.552Z</time></trkpt><trkpt lat="42.2615967" lon="13.7369733"><ele>590.0</ele><time>2026-05-03T08:29:47.552Z</time></trkpt><trkpt lat="42.2616867" lon="13.737"><ele>587.0</ele><time>2026-05-03T08:29:48.553Z</time></trkpt><trkpt lat="42.2617767" lon="13.737025"><ele>584.0</ele><time>2026-05-03T08:29:49.552Z</time></trkpt><trkpt lat="42.2618733" lon="13.73706"><ele>581.0</ele><time>2026-05-03T08:29:50.552Z</time></trkpt><trkpt lat="42.261965" lon="13.7370917"><ele>581.0</ele><time>2026-05-03T08:29:51.552Z</time></trkpt><trkpt lat="42.2620517" lon="13.7371367"><ele>581.0</ele><time>2026-05-03T08:29:52.552Z</time></trkpt><trkpt lat="42.262135" lon="13.7371983"><ele>581.0</ele><time>2026-05-03T08:29:53.552Z</time></trkpt><trkpt lat="42.2622183" lon="13.7372717"><ele>581.0</ele><time>2026-05-03T08:29:54.551Z</time></trkpt><trkpt lat="42.26231" lon="13.7373433"><ele>581.0</ele><time>2026-05-03T08:29:55.552Z</time></trkpt><trkpt lat="42.262405" lon="13.737405"><ele>581.8333333333333</ele><time>2026-05-03T08:29:56.552Z</time></trkpt><trkpt lat="42.2624817" lon="13.737465"><ele>582.6666666666666</ele><time>2026-05-03T08:29:57.552Z</time></trkpt><trkpt lat="42.2625517" lon="13.73751"><ele>583.5</ele><time>2026-05-03T08:29:58.551Z</time></trkpt><trkpt lat="42.26262" lon="13.7375367"><ele>584.3333333333334</ele><time>2026-05-03T08:29:59.551Z</time></trkpt><trkpt lat="42.262705" lon="13.737555"><ele>585.1666666666667</ele><time>2026-05-03T08:30:00.552Z</time></trkpt><trkpt lat="42.2628017" lon="13.73757"><ele>586.0</ele><time>2026-05-03T08:30:01.552Z</time></trkpt><trkpt lat="42.2629083" lon="13.73759"><ele>586.0</ele><time>2026-05-03T08:30:02.552Z</time></trkpt><trkpt lat="42.26302" lon="13.7376217"><ele>586.0</ele><time>2026-05-03T08:30:03.552Z</time></trkpt><trkpt lat="42.2631283" lon="13.7376483"><ele>586.0</ele><time>2026-05-03T08:30:04.552Z</time></trkpt><trkpt lat="42.263215" lon="13.7376717"><ele>586.0</ele><time>2026-05-03T08:30:05.552Z</time></trkpt><trkpt lat="42.2632867" lon="13.7376867"><ele>586.0</ele><time>2026-05-03T08:30:06.552Z</time></trkpt><trkpt lat="42.2633967" lon="13.7377117"><ele>586.5</ele><time>2026-05-03T08:30:08.552Z</time></trkpt><trkpt lat="42.2634667" lon="13.7377283"><ele>587.0</ele><time>2026-05-03T08:30:10.552Z</time></trkpt><trkpt lat="42.2635433" lon="13.737705"><ele>587.5</ele><time>2026-05-03T08:30:18.551Z</time></trkpt><trkpt lat="42.2636567" lon="13.7376533"><ele>588.0</ele><time>2026-05-03T08:30:20.552Z</time></trkpt><trkpt lat="42.263725" lon="13.7376333"><ele>588.5</ele><time>2026-05-03T08:30:21.552Z</time></trkpt><trkpt lat="42.2638067" lon="13.73761"><ele>589.0</ele><time>2026-05-03T08:30:22.552Z</time></trkpt><trkpt lat="42.26389" lon="13.73758"><ele>588.4</ele><time>2026-05-03T08:30:23.552Z</time></trkpt><trkpt lat="42.2639833" lon="13.7375367"><ele>587.8</ele><time>2026-05-03T08:30:24.552Z</time></trkpt><trkpt lat="42.26409" lon="13.7375083"><ele>587.2</ele><time>2026-05-03T08:30:25.552Z</time></trkpt><trkpt lat="42.2641967" lon="13.7375017"><ele>586.6</ele><time>2026-05-03T08:30:26.552Z</time></trkpt><trkpt lat="42.264315" lon="13.73751"><ele>586.0</ele><time>2026-05-03T08:30:27.552Z</time></trkpt><trkpt lat="42.264425" lon="13.7374983"><ele>586.0</ele><time>2026-05-03T08:30:28.551Z</time></trkpt><trkpt lat="42.2645217" lon="13.73748"><ele>586.0</ele><time>2026-05-03T08:30:29.552Z</time></trkpt><trkpt lat="42.2646067" lon="13.73744"><ele>586.0</ele><time>2026-05-03T08:30:30.552Z</time></trkpt><trkpt lat="42.2646783" lon="13.7374017"><ele>586.0</ele><time>2026-05-03T08:30:31.552Z</time></trkpt><trkpt lat="42.26476" lon="13.73737"><ele>586.0</ele><time>2026-05-03T08:30:32.552Z</time></trkpt><trkpt lat="42.2648383" lon="13.737355"><ele>586.0</ele><time>2026-05-03T08:30:33.551Z</time></trkpt><trkpt lat="42.2649117" lon="13.7373567"><ele>585.3333333333334</ele><time>2026-05-03T08:30:34.552Z</time></trkpt><trkpt lat="42.2649867" lon="13.7373717"><ele>584.6666666666667</ele><time>2026-05-03T08:30:35.551Z</time></trkpt><trkpt lat="42.26506" lon="13.737405"><ele>584.0</ele><time>2026-05-03T08:30:36.552Z</time></trkpt><trkpt lat="42.2651283" lon="13.7374333"><ele>583.3333333333334</ele><time>2026-05-03T08:30:37.551Z</time></trkpt><trkpt lat="42.2652517" lon="13.73742"><ele>582.6666666666666</ele><time>2026-05-03T08:30:39.552Z</time></trkpt><trkpt lat="42.2653267" lon="13.7373933"><ele>582.0</ele><time>2026-05-03T08:30:40.552Z</time></trkpt><trkpt lat="42.26542" lon="13.7373633"><ele>582.0</ele><time>2026-05-03T08:30:41.552Z</time></trkpt><trkpt lat="42.2655167" lon="13.7373483"><ele>582.0</ele><time>2026-05-03T08:30:42.551Z</time></trkpt><trkpt lat="42.2656117" lon="13.7373467"><ele>582.0</ele><time>2026-05-03T08:30:43.552Z</time></trkpt><trkpt lat="42.2657033" lon="13.7373433"><ele>582.0</ele><time>2026-05-03T08:30:44.552Z</time></trkpt><trkpt lat="42.2657833" lon="13.737345"><ele>582.0</ele><time>2026-05-03T08:30:45.551Z</time></trkpt><trkpt lat="42.26587" lon="13.737335"><ele>582.1666666666666</ele><time>2026-05-03T08:30:46.551Z</time></trkpt><trkpt lat="42.26595" lon="13.7373283"><ele>582.3333333333334</ele><time>2026-05-03T08:30:47.552Z</time></trkpt><trkpt lat="42.2660233" lon="13.737335"><ele>582.5</ele><time>2026-05-03T08:30:48.552Z</time></trkpt><trkpt lat="42.2661117" lon="13.737345"><ele>582.6666666666667</ele><time>2026-05-03T08:30:49.551Z</time></trkpt><trkpt lat="42.26621" lon="13.7373383"><ele>582.8333333333334</ele><time>2026-05-03T08:30:50.552Z</time></trkpt><trkpt lat="42.2662983" lon="13.737305"><ele>583.0</ele><time>2026-05-03T08:30:51.552Z</time></trkpt><trkpt lat="42.2663967" lon="13.7372633"><ele>582.0</ele><time>2026-05-03T08:30:52.552Z</time></trkpt><trkpt lat="42.2664917" lon="13.7372067"><ele>581.0</ele><time>2026-05-03T08:30:53.552Z</time></trkpt><trkpt lat="42.2665967" lon="13.7371467"><ele>580.0</ele><time>2026-05-03T08:30:54.551Z</time></trkpt><trkpt lat="42.2666983" lon="13.737085"><ele>579.0</ele><time>2026-05-03T08:30:55.552Z</time></trkpt><trkpt lat="42.2667983" lon="13.7370283"><ele>578.0</ele><time>2026-05-03T08:30:56.552Z</time></trkpt><trkpt lat="42.2669067" lon="13.736965"><ele>578.0</ele><time>2026-05-03T08:30:57.552Z</time></trkpt><trkpt lat="42.2670183" lon="13.7369167"><ele>578.0</ele><time>2026-05-03T08:30:58.552Z</time></trkpt><trkpt lat="42.26713" lon="13.73688"><ele>578.0</ele><time>2026-05-03T08:30:59.551Z</time></trkpt><trkpt lat="42.2672383" lon="13.7368467"><ele>578.0</ele><time>2026-05-03T08:31:00.552Z</time></trkpt><trkpt lat="42.2673417" lon="13.73681"><ele>581.6666666666666</ele><time>2026-05-03T08:31:01.552Z</time></trkpt><trkpt lat="42.2674333" lon="13.73677"><ele>585.3333333333333</ele><time>2026-05-03T08:31:02.552Z</time></trkpt><trkpt lat="42.2675183" lon="13.7367267"><ele>589.0</ele><time>2026-05-03T08:31:03.551Z</time></trkpt><trkpt lat="42.2675917" lon="13.73672"><ele>592.6666666666666</ele><time>2026-05-03T08:31:04.552Z</time></trkpt><trkpt lat="42.2676767" lon="13.73674"><ele>596.3333333333334</ele><time>2026-05-03T08:31:05.552Z</time></trkpt><trkpt lat="42.2677617" lon="13.7367433"><ele>600.0</ele><time>2026-05-03T08:31:06.552Z</time></trkpt><trkpt lat="42.2678367" lon="13.736725"><ele>600.0</ele><time>2026-05-03T08:31:07.551Z</time></trkpt><trkpt lat="42.2679083" lon="13.73669"><ele>600.0</ele><time>2026-05-03T08:31:08.552Z</time></trkpt><trkpt lat="42.26798" lon="13.7366467"><ele>600.0</ele><time>2026-05-03T08:31:09.552Z</time></trkpt><trkpt lat="42.26806" lon="13.7366017"><ele>600.0</ele><time>2026-05-03T08:31:10.552Z</time></trkpt><trkpt lat="42.26815" lon="13.736565"><ele>600.0</ele><time>2026-05-03T08:31:11.552Z</time></trkpt><trkpt lat="42.2682567" lon="13.7365033"><ele>598.6</ele><time>2026-05-03T08:31:12.551Z</time></trkpt><trkpt lat="42.26837" lon="13.736435"><ele>597.2</ele><time>2026-05-03T08:31:13.552Z</time></trkpt><trkpt lat="42.2684817" lon="13.7363667"><ele>595.8</ele><time>2026-05-03T08:31:14.552Z</time></trkpt><trkpt lat="42.2685783" lon="13.7363133"><ele>594.4</ele><time>2026-05-03T08:31:15.552Z</time></trkpt><trkpt lat="42.26866" lon="13.7362667"><ele>593.0</ele><time>2026-05-03T08:31:16.552Z</time></trkpt><trkpt lat="42.2687367" lon="13.7362317"><ele>593.0</ele><time>2026-05-03T08:31:17.551Z</time></trkpt><trkpt lat="42.2688167" lon="13.7362067"><ele>593.0</ele><time>2026-05-03T08:31:18.552Z</time></trkpt><trkpt lat="42.268885" lon="13.7361767"><ele>593.0</ele><time>2026-05-03T08:31:19.552Z</time></trkpt><trkpt lat="42.2689567" lon="13.736145"><ele>593.0</ele><time>2026-05-03T08:31:20.552Z</time></trkpt><trkpt lat="42.2690417" lon="13.7360917"><ele>593.0</ele><time>2026-05-03T08:31:21.552Z</time></trkpt><trkpt lat="42.2691333" lon="13.7360417"><ele>593.0</ele><time>2026-05-03T08:31:22.551Z</time></trkpt><trkpt lat="42.269225" lon="13.7360083"><ele>595.1666666666666</ele><time>2026-05-03T08:31:23.552Z</time></trkpt><trkpt lat="42.2693067" lon="13.7359917"><ele>597.3333333333333</ele><time>2026-05-03T08:31:24.552Z</time></trkpt><trkpt lat="42.2693883" lon="13.7360017"><ele>599.5</ele><time>2026-05-03T08:31:25.551Z</time></trkpt><trkpt lat="42.269465" lon="13.73602"><ele>601.6666666666666</ele><time>2026-05-03T08:31:26.552Z</time></trkpt><trkpt lat="42.2695317" lon="13.7360417"><ele>603.8333333333334</ele><time>2026-05-03T08:31:27.552Z</time></trkpt><trkpt lat="42.2696233" lon="13.73602"><ele>606.0</ele><time>2026-05-03T08:31:29.552Z</time></trkpt><trkpt lat="42.2697317" lon="13.73594"><ele>603.4</ele><time>2026-05-03T08:31:31.551Z</time></trkpt><trkpt lat="42.2697983" lon="13.73589"><ele>600.8</ele><time>2026-05-03T08:31:32.552Z</time></trkpt><trkpt lat="42.2698683" lon="13.735835"><ele>598.1999999999999</ele><time>2026-05-03T08:31:33.551Z</time></trkpt><trkpt lat="42.26995" lon="13.7357617"><ele>595.6</ele><time>2026-05-03T08:31:34.551Z</time></trkpt><trkpt lat="42.2700517" lon="13.7356833"><ele>593.0</ele><time>2026-05-03T08:31:35.551Z</time></trkpt><trkpt lat="42.2701567" lon="13.7355883"><ele>593.0</ele><time>2026-05-03T08:31:36.552Z</time></trkpt><trkpt lat="42.2702483" lon="13.7355"><ele>593.0</ele><time>2026-05-03T08:31:37.551Z</time></trkpt><trkpt lat="42.2703383" lon="13.7354167"><ele>593.0</ele><time>2026-05-03T08:31:38.551Z</time></trkpt><trkpt lat="42.2704233" lon="13.7353383"><ele>593.0</ele><time>2026-05-03T08:31:39.552Z</time></trkpt><trkpt lat="42.2705133" lon="13.7352567"><ele>593.0</ele><time>2026-05-03T08:31:40.551Z</time></trkpt><trkpt lat="42.2706083" lon="13.735185"><ele>595.25</ele><time>2026-05-03T08:31:41.551Z</time></trkpt><trkpt lat="42.2707" lon="13.7351117"><ele>597.5</ele><time>2026-05-03T08:31:42.552Z</time></trkpt><trkpt lat="42.2707983" lon="13.7350383"><ele>599.75</ele><time>2026-05-03T08:31:43.551Z</time></trkpt><trkpt lat="42.27091" lon="13.7349583"><ele>602.0</ele><time>2026-05-03T08:31:44.552Z</time></trkpt><trkpt lat="42.271025" lon="13.7348817"><ele>602.0</ele><time>2026-05-03T08:31:45.552Z</time></trkpt><trkpt lat="42.2711317" lon="13.7348133"><ele>602.0</ele><time>2026-05-03T08:31:46.551Z</time></trkpt><trkpt lat="42.2712283" lon="13.734765"><ele>602.0</ele><time>2026-05-03T08:31:47.552Z</time></trkpt><trkpt lat="42.2713333" lon="13.73472"><ele>602.0</ele><time>2026-05-03T08:31:48.552Z</time></trkpt><trkpt lat="42.27145" lon="13.7346767"><ele>598.8000000000001</ele><time>2026-05-03T08:31:49.552Z</time></trkpt><trkpt lat="42.27156" lon="13.73463"><ele>595.6</ele><time>2026-05-03T08:31:50.552Z</time></trkpt><trkpt lat="42.271665" lon="13.734585"><ele>592.4000000000001</ele><time>2026-05-03T08:31:51.552Z</time></trkpt><trkpt lat="42.271765" lon="13.734535"><ele>589.2</ele><time>2026-05-03T08:31:52.551Z</time></trkpt><trkpt lat="42.2718683" lon="13.7345083"><ele>586.0</ele><time>2026-05-03T08:31:53.552Z</time></trkpt><trkpt lat="42.2719617" lon="13.7344933"><ele>586.0</ele><time>2026-05-03T08:31:54.551Z</time></trkpt><trkpt lat="42.2720517" lon="13.7344817"><ele>586.0</ele><time>2026-05-03T08:31:55.552Z</time></trkpt><trkpt lat="42.2721317" lon="13.7344717"><ele>586.0</ele><time>2026-05-03T08:31:56.552Z</time></trkpt><trkpt lat="42.2722133" lon="13.7344667"><ele>586.0</ele><time>2026-05-03T08:31:57.552Z</time></trkpt><trkpt lat="42.2722933" lon="13.7344567"><ele>586.0</ele><time>2026-05-03T08:31:58.551Z</time></trkpt><trkpt lat="42.272375" lon="13.7344333"><ele>586.0</ele><time>2026-05-03T08:31:59.552Z</time></trkpt><trkpt lat="42.27245" lon="13.7343983"><ele>586.5</ele><time>2026-05-03T08:32:00.551Z</time></trkpt><trkpt lat="42.272525" lon="13.73435"><ele>587.0</ele><time>2026-05-03T08:32:01.551Z</time></trkpt><trkpt lat="42.272605" lon="13.7343017"><ele>587.5</ele><time>2026-05-03T08:32:02.552Z</time></trkpt><trkpt lat="42.272675" lon="13.734265"><ele>588.0</ele><time>2026-05-03T08:32:03.551Z</time></trkpt><trkpt lat="42.2727333" lon="13.73423"><ele>588.5</ele><time>2026-05-03T08:32:04.552Z</time></trkpt><trkpt lat="42.2728133" lon="13.7341933"><ele>589.0</ele><time>2026-05-03T08:32:06.551Z</time></trkpt><trkpt lat="42.2727783" lon="13.734305"><ele>589.0</ele><time>2026-05-03T08:32:12.552Z</time></trkpt><trkpt lat="42.2727183" lon="13.7343583"><ele>589.0</ele><time>2026-05-03T08:32:13.552Z</time></trkpt><trkpt lat="42.2726383" lon="13.73444"><ele>589.0</ele><time>2026-05-03T08:32:15.552Z</time></trkpt><trkpt lat="42.2725417" lon="13.73456"><ele>589.0</ele><time>2026-05-03T08:36:55.55Z</time></trkpt><trkpt lat="42.2724883" lon="13.7346117"><ele>589.0</ele><time>2026-05-03T08:36:56.55Z</time></trkpt><trkpt lat="42.2724367" lon="13.7346667"><ele>589.0</ele><time>2026-05-03T08:36:57.55Z</time></trkpt><trkpt lat="42.2723333" lon="13.734765"><ele>588.4</ele><time>2026-05-03T08:36:59.551Z</time></trkpt><trkpt lat="42.2722133" lon="13.7348367"><ele>587.8</ele><time>2026-05-03T08:37:01.55Z</time></trkpt><trkpt lat="42.2721483" lon="13.7348667"><ele>587.2</ele><time>2026-05-03T08:37:02.55Z</time></trkpt><trkpt lat="42.2720783" lon="13.7349017"><ele>586.6</ele><time>2026-05-03T08:37:03.55Z</time></trkpt><trkpt lat="42.2719967" lon="13.7349467"><ele>586.0</ele><time>2026-05-03T08:37:04.551Z</time></trkpt><trkpt lat="42.2719117" lon="13.7350033"><ele>586.0</ele><time>2026-05-03T08:37:05.551Z</time></trkpt><trkpt lat="42.27184" lon="13.7350667"><ele>586.0</ele><time>2026-05-03T08:37:06.551Z</time></trkpt><trkpt lat="42.2717733" lon="13.7351183"><ele>586.0</ele><time>2026-05-03T08:37:07.55Z</time></trkpt><trkpt lat="42.2717" lon="13.7351717"><ele>586.0</ele><time>2026-05-03T08:37:08.55Z</time></trkpt><trkpt lat="42.2716217" lon="13.7352283"><ele>586.0</ele><time>2026-05-03T08:37:09.55Z</time></trkpt><trkpt lat="42.2715283" lon="13.7353033"><ele>586.0</ele><time>2026-05-03T08:37:10.55Z</time></trkpt><trkpt lat="42.2714283" lon="13.735395"><ele>583.75</ele><time>2026-05-03T08:37:11.551Z</time></trkpt><trkpt lat="42.2713217" lon="13.73548"><ele>581.5</ele><time>2026-05-03T08:37:12.551Z</time></trkpt><trkpt lat="42.2712183" lon="13.7355583"><ele>579.25</ele><time>2026-05-03T08:37:13.551Z</time></trkpt><trkpt lat="42.2711217" lon="13.735625"><ele>577.0</ele><time>2026-05-03T08:37:14.551Z</time></trkpt><trkpt lat="42.2710333" lon="13.7356933"><ele>577.0</ele><time>2026-05-03T08:37:15.551Z</time></trkpt><trkpt lat="42.2709617" lon="13.735765"><ele>577.0</ele><time>2026-05-03T08:37:16.55Z</time></trkpt><trkpt lat="42.2708933" lon="13.735845"><ele>577.0</ele><time>2026-05-03T08:37:17.551Z</time></trkpt><trkpt lat="42.2708183" lon="13.7359183"><ele>577.0</ele><time>2026-05-03T08:37:18.551Z</time></trkpt><trkpt lat="42.27073" lon="13.7360067"><ele>577.0</ele><time>2026-05-03T08:37:19.55Z</time></trkpt><trkpt lat="42.2706217" lon="13.7361117"><ele>576.25</ele><time>2026-05-03T08:37:20.551Z</time></trkpt><trkpt lat="42.2705133" lon="13.736205"><ele>575.5</ele><time>2026-05-03T08:37:21.551Z</time></trkpt><trkpt lat="42.27041" lon="13.736295"><ele>574.75</ele><time>2026-05-03T08:37:22.55Z</time></trkpt><trkpt lat="42.2703" lon="13.73639"><ele>574.0</ele><time>2026-05-03T08:37:23.551Z</time></trkpt><trkpt lat="42.2701917" lon="13.7364983"><ele>574.0</ele><time>2026-05-03T08:37:24.551Z</time></trkpt><trkpt lat="42.2700867" lon="13.7366017"><ele>574.0</ele><time>2026-05-03T08:37:25.55Z</time></trkpt><trkpt lat="42.269995" lon="13.7366983"><ele>574.0</ele><time>2026-05-03T08:37:26.55Z</time></trkpt><trkpt lat="42.2699167" lon="13.7367883"><ele>574.0</ele><time>2026-05-03T08:37:27.551Z</time></trkpt><trkpt lat="42.2698283" lon="13.7368767"><ele>570.6</ele><time>2026-05-03T08:37:28.551Z</time></trkpt><trkpt lat="42.2697383" lon="13.7369567"><ele>567.2</ele><time>2026-05-03T08:37:29.55Z</time></trkpt><trkpt lat="42.26965" lon="13.7370233"><ele>563.8000000000001</ele><time>2026-05-03T08:37:30.551Z</time></trkpt><trkpt lat="42.26955" lon="13.7370833"><ele>560.4</ele><time>2026-05-03T08:37:31.551Z</time></trkpt><trkpt lat="42.2694467" lon="13.7371383"><ele>557.0</ele><time>2026-05-03T08:37:32.551Z</time></trkpt><trkpt lat="42.2693417" lon="13.7371867"><ele>557.0</ele><time>2026-05-03T08:37:33.551Z</time></trkpt><trkpt lat="42.2692433" lon="13.7372367"><ele>557.0</ele><time>2026-05-03T08:37:34.551Z</time></trkpt><trkpt lat="42.2691483" lon="13.7372817"><ele>557.0</ele><time>2026-05-03T08:37:35.551Z</time></trkpt><trkpt lat="42.2690667" lon="13.73731"><ele>557.0</ele><time>2026-05-03T08:37:36.551Z</time></trkpt><trkpt lat="42.2689817" lon="13.7373217"><ele>557.0</ele><time>2026-05-03T08:37:37.551Z</time></trkpt><trkpt lat="42.268875" lon="13.737335"><ele>558.25</ele><time>2026-05-03T08:37:38.551Z</time></trkpt><trkpt lat="42.26875" lon="13.7373617"><ele>559.5</ele><time>2026-05-03T08:37:39.55Z</time></trkpt><trkpt lat="42.2686283" lon="13.7373817"><ele>560.75</ele><time>2026-05-03T08:37:40.551Z</time></trkpt><trkpt lat="42.268505" lon="13.7374133"><ele>562.0</ele><time>2026-05-03T08:37:41.55Z</time></trkpt><trkpt lat="42.2683783" lon="13.737445"><ele>562.0</ele><time>2026-05-03T08:37:42.55Z</time></trkpt><trkpt lat="42.26826" lon="13.73748"><ele>562.0</ele><time>2026-05-03T08:37:43.551Z</time></trkpt><trkpt lat="42.2681517" lon="13.7375117"><ele>562.0</ele><time>2026-05-03T08:37:44.55Z</time></trkpt><trkpt lat="42.2680367" lon="13.7375567"><ele>562.0</ele><time>2026-05-03T08:37:45.55Z</time></trkpt><trkpt lat="42.267925" lon="13.7375967"><ele>563.5</ele><time>2026-05-03T08:37:46.55Z</time></trkpt><trkpt lat="42.2678283" lon="13.7376267"><ele>565.0</ele><time>2026-05-03T08:37:47.551Z</time></trkpt><trkpt lat="42.2677417" lon="13.7376367"><ele>566.5</ele><time>2026-05-03T08:37:48.551Z</time></trkpt><trkpt lat="42.2676667" lon="13.7376333"><ele>568.0</ele><time>2026-05-03T08:37:49.551Z</time></trkpt><trkpt lat="42.2675967" lon="13.73765"><ele>569.5</ele><time>2026-05-03T08:37:50.551Z</time></trkpt><trkpt lat="42.267525" lon="13.73769"><ele>571.0</ele><time>2026-05-03T08:37:51.55Z</time></trkpt><trkpt lat="42.2674583" lon="13.7377633"><ele>567.0</ele><time>2026-05-03T08:37:52.55Z</time></trkpt><trkpt lat="42.2673933" lon="13.73784"><ele>563.0</ele><time>2026-05-03T08:37:53.55Z</time></trkpt><trkpt lat="42.2673283" lon="13.7379"><ele>559.0</ele><time>2026-05-03T08:37:54.55Z</time></trkpt><trkpt lat="42.2672583" lon="13.7379517"><ele>555.0</ele><time>2026-05-03T08:37:55.551Z</time></trkpt><trkpt lat="42.267195" lon="13.73799"><ele>551.0</ele><time>2026-05-03T08:37:56.551Z</time></trkpt><trkpt lat="42.2670983" lon="13.7380433"><ele>547.0</ele><time>2026-05-03T08:37:58.551Z</time></trkpt><trkpt lat="42.2670367" lon="13.7380683"><ele>547.0</ele><time>2026-05-03T08:38:01.551Z</time></trkpt><trkpt lat="42.2670283" lon="13.738165"><ele>547.0</ele><time>2026-05-03T08:38:06.551Z</time></trkpt><trkpt lat="42.2671467" lon="13.738195"><ele>547.0</ele><time>2026-05-03T08:38:08.55Z</time></trkpt><trkpt lat="42.2672583" lon="13.7382017"><ele>547.0</ele><time>2026-05-03T08:38:09.551Z</time></trkpt><trkpt lat="42.2674083" lon="13.7382017"><ele>545.6666666666667</ele><time>2026-05-03T08:38:10.551Z</time></trkpt><trkpt lat="42.26758" lon="13.7382067"><ele>544.3333333333334</ele><time>2026-05-03T08:38:11.551Z</time></trkpt><trkpt lat="42.26776" lon="13.7382133"><ele>543.0</ele><time>2026-05-03T08:38:12.551Z</time></trkpt><trkpt lat="42.26795" lon="13.7382267"><ele>541.75</ele><time>2026-05-03T08:38:13.551Z</time></trkpt><trkpt lat="42.26812" lon="13.738235"><ele>540.5</ele><time>2026-05-03T08:38:14.551Z</time></trkpt><trkpt lat="42.268255" lon="13.7382433"><ele>539.25</ele><time>2026-05-03T08:38:15.55Z</time></trkpt><trkpt lat="42.268365" lon="13.7382533"><ele>538.0</ele><time>2026-05-03T08:38:16.551Z</time></trkpt><trkpt lat="42.2684617" lon="13.7382733"><ele>538.0</ele><time>2026-05-03T08:38:17.55Z</time></trkpt><trkpt lat="42.2685517" lon="13.7382967"><ele>538.0</ele><time>2026-05-03T08:38:18.551Z</time></trkpt><trkpt lat="42.26864" lon="13.7383217"><ele>538.0</ele><time>2026-05-03T08:38:19.55Z</time></trkpt><trkpt lat="42.2687267" lon="13.7383533"><ele>538.0</ele><time>2026-05-03T08:38:20.55Z</time></trkpt><trkpt lat="42.26883" lon="13.7383917"><ele>538.0</ele><time>2026-05-03T08:38:21.55Z</time></trkpt><trkpt lat="42.2689333" lon="13.7384317"><ele>538.3333333333334</ele><time>2026-05-03T08:38:22.55Z</time></trkpt><trkpt lat="42.2690367" lon="13.7384717"><ele>538.6666666666667</ele><time>2026-05-03T08:38:23.551Z</time></trkpt><trkpt lat="42.26913" lon="13.7385283"><ele>539.0</ele><time>2026-05-03T08:38:24.55Z</time></trkpt><trkpt lat="42.26921" lon="13.7385783"><ele>539.3333333333334</ele><time>2026-05-03T08:38:25.551Z</time></trkpt><trkpt lat="42.269275" lon="13.7386283"><ele>539.6666666666666</ele><time>2026-05-03T08:38:26.55Z</time></trkpt><trkpt lat="42.26933" lon="13.7386717"><ele>540.0</ele><time>2026-05-03T08:38:27.551Z</time></trkpt><trkpt lat="42.269405" lon="13.7387767"><ele>537.2</ele><time>2026-05-03T08:38:29.55Z</time></trkpt><trkpt lat="42.2694183" lon="13.7389417"><ele>534.4</ele><time>2026-05-03T08:38:31.551Z</time></trkpt><trkpt lat="42.2694067" lon="13.7390367"><ele>531.6</ele><time>2026-05-03T08:38:32.551Z</time></trkpt><trkpt lat="42.2693767" lon="13.739155"><ele>528.8</ele><time>2026-05-03T08:38:33.55Z</time></trkpt><trkpt lat="42.269355" lon="13.7392783"><ele>526.0</ele><time>2026-05-03T08:38:34.551Z</time></trkpt><trkpt lat="42.2693367" lon="13.739415"><ele>524.4</ele><time>2026-05-03T08:38:35.551Z</time></trkpt><trkpt lat="42.269305" lon="13.7395583"><ele>522.8</ele><time>2026-05-03T08:38:36.551Z</time></trkpt><trkpt lat="42.2692667" lon="13.7396917"><ele>521.1999999999999</ele><time>2026-05-03T08:38:37.55Z</time></trkpt><trkpt lat="42.2692383" lon="13.7398117"><ele>519.6</ele><time>2026-05-03T08:38:38.551Z</time></trkpt><trkpt lat="42.26922" lon="13.739925"><ele>518.0</ele><time>2026-05-03T08:38:39.551Z</time></trkpt><trkpt lat="42.2692033" lon="13.740035"><ele>518.0</ele><time>2026-05-03T08:38:40.55Z</time></trkpt><trkpt lat="42.2691967" lon="13.7401283"><ele>518.0</ele><time>2026-05-03T08:38:41.551Z</time></trkpt><trkpt lat="42.2691333" lon="13.7402633"><ele>518.0</ele><time>2026-05-03T08:38:43.55Z</time></trkpt><trkpt lat="42.26907" lon="13.74033"><ele>518.0</ele><time>2026-05-03T08:38:44.551Z</time></trkpt><trkpt lat="42.268995" lon="13.7404017"><ele>518.0</ele><time>2026-05-03T08:38:45.551Z</time></trkpt><trkpt lat="42.2689167" lon="13.7404633"><ele>515.1666666666666</ele><time>2026-05-03T08:38:46.55Z</time></trkpt><trkpt lat="42.26884" lon="13.74051"><ele>512.3333333333333</ele><time>2026-05-03T08:38:47.551Z</time></trkpt><trkpt lat="42.2687717" lon="13.74055"><ele>509.5</ele><time>2026-05-03T08:38:48.55Z</time></trkpt><trkpt lat="42.2687033" lon="13.740575"><ele>506.66666666666663</ele><time>2026-05-03T08:38:49.551Z</time></trkpt><trkpt lat="42.2686017" lon="13.740555"><ele>503.8333333333333</ele><time>2026-05-03T08:38:51.551Z</time></trkpt><trkpt lat="42.268545" lon="13.7404183"><ele>501.0</ele><time>2026-05-03T08:38:53.55Z</time></trkpt><trkpt lat="42.26853" lon="13.74031"><ele>501.0</ele><time>2026-05-03T08:38:54.551Z</time></trkpt><trkpt lat="42.268525" lon="13.74021"><ele>501.0</ele><time>2026-05-03T08:38:55.551Z</time></trkpt><trkpt lat="42.26851" lon="13.7401167"><ele>501.0</ele><time>2026-05-03T08:38:56.551Z</time></trkpt><trkpt lat="42.2684467" lon="13.74003"><ele>501.0</ele><time>2026-05-03T08:38:58.551Z</time></trkpt><trkpt lat="42.2683517" lon="13.7400967"><ele>501.0</ele><time>2026-05-03T08:39:00.55Z</time></trkpt><trkpt lat="42.2683083" lon="13.7401683"><ele>501.0</ele><time>2026-05-03T08:39:01.55Z</time></trkpt><trkpt lat="42.2682567" lon="13.7402567"><ele>501.0</ele><time>2026-05-03T08:39:02.551Z</time></trkpt><trkpt lat="42.2682033" lon="13.7403183"><ele>501.0</ele><time>2026-05-03T08:39:03.551Z</time></trkpt><trkpt lat="42.2681333" lon="13.7403667"><ele>501.0</ele><time>2026-05-03T08:39:04.551Z</time></trkpt><trkpt lat="42.268035" lon="13.7404033"><ele>501.0</ele><time>2026-05-03T08:39:05.551Z</time></trkpt><trkpt lat="42.2679283" lon="13.7404417"><ele>501.0</ele><time>2026-05-03T08:39:06.551Z</time></trkpt><trkpt lat="42.26784" lon="13.7404767"><ele>499.6666666666667</ele><time>2026-05-03T08:39:07.551Z</time></trkpt><trkpt lat="42.2677583" lon="13.74049"><ele>498.33333333333337</ele><time>2026-05-03T08:39:08.551Z</time></trkpt><trkpt lat="42.267685" lon="13.740485"><ele>497.0</ele><time>2026-05-03T08:39:09.551Z</time></trkpt><trkpt lat="42.2676033" lon="13.7404583"><ele>495.6666666666667</ele><time>2026-05-03T08:39:10.551Z</time></trkpt><trkpt lat="42.2675233" lon="13.7404267"><ele>494.33333333333337</ele><time>2026-05-03T08:39:11.551Z</time></trkpt><trkpt lat="42.2674467" lon="13.74038"><ele>493.0</ele><time>2026-05-03T08:39:12.551Z</time></trkpt><trkpt lat="42.2673517" lon="13.74031"><ele>491.83333333333337</ele><time>2026-05-03T08:39:13.551Z</time></trkpt><trkpt lat="42.2672617" lon="13.7402483"><ele>490.6666666666667</ele><time>2026-05-03T08:39:14.551Z</time></trkpt><trkpt lat="42.2671683" lon="13.740205"><ele>489.5</ele><time>2026-05-03T08:39:15.55Z</time></trkpt><trkpt lat="42.2670833" lon="13.7401933"><ele>488.33333333333337</ele><time>2026-05-03T08:39:16.551Z</time></trkpt><trkpt lat="42.267005" lon="13.7401917"><ele>487.1666666666667</ele><time>2026-05-03T08:39:17.55Z</time></trkpt><trkpt lat="42.26693" lon="13.7401767"><ele>486.0</ele><time>2026-05-03T08:39:18.551Z</time></trkpt><trkpt lat="42.2668433" lon="13.740155"><ele>486.20000000000005</ele><time>2026-05-03T08:39:19.551Z</time></trkpt><trkpt lat="42.2667467" lon="13.7401517"><ele>486.40000000000003</ele><time>2026-05-03T08:39:20.55Z</time></trkpt><trkpt lat="42.2666467" lon="13.7401617"><ele>486.6</ele><time>2026-05-03T08:39:21.551Z</time></trkpt><trkpt lat="42.266535" lon="13.7401783"><ele>486.8</ele><time>2026-05-03T08:39:22.55Z</time></trkpt><trkpt lat="42.2664267" lon="13.7402167"><ele>487.0</ele><time>2026-05-03T08:39:23.551Z</time></trkpt><trkpt lat="42.2663267" lon="13.740255"><ele>487.0</ele><time>2026-05-03T08:39:24.55Z</time></trkpt><trkpt lat="42.26625" lon="13.7402883"><ele>487.00000000000006</ele><time>2026-05-03T08:39:25.55Z</time></trkpt><trkpt lat="42.2661817" lon="13.7403483"><ele>487.00000000000006</ele><time>2026-05-03T08:39:26.551Z</time></trkpt><trkpt lat="42.2661117" lon="13.7404333"><ele>487.0</ele><time>2026-05-03T08:39:27.551Z</time></trkpt><trkpt lat="42.266035" lon="13.740535"><ele>487.0</ele><time>2026-05-03T08:39:28.551Z</time></trkpt><trkpt lat="42.2659633" lon="13.7406217"><ele>487.0</ele><time>2026-05-03T08:39:29.551Z</time></trkpt><trkpt lat="42.2658883" lon="13.7407067"><ele>487.00000000000006</ele><time>2026-05-03T08:39:30.551Z</time></trkpt><trkpt lat="42.265815" lon="13.740795"><ele>487.00000000000006</ele><time>2026-05-03T08:39:31.551Z</time></trkpt><trkpt lat="42.2657433" lon="13.7408617"><ele>487.0</ele><time>2026-05-03T08:39:32.55Z</time></trkpt><trkpt lat="42.2656717" lon="13.7409183"><ele>487.0</ele><time>2026-05-03T08:39:33.55Z</time></trkpt><trkpt lat="42.2655767" lon="13.740965"><ele>487.0</ele><time>2026-05-03T08:39:34.55Z</time></trkpt><trkpt lat="42.26548" lon="13.7409867"><ele>487.00000000000006</ele><time>2026-05-03T08:39:35.551Z</time></trkpt><trkpt lat="42.2653867" lon="13.7409983"><ele>487.00000000000006</ele><time>2026-05-03T08:39:36.551Z</time></trkpt><trkpt lat="42.2652817" lon="13.7410017"><ele>487.0</ele><time>2026-05-03T08:39:37.55Z</time></trkpt><trkpt lat="42.26518" lon="13.7409933"><ele>487.0</ele><time>2026-05-03T08:39:38.551Z</time></trkpt><trkpt lat="42.2650717" lon="13.7409733"><ele>487.0</ele><time>2026-05-03T08:39:39.551Z</time></trkpt><trkpt lat="42.2649583" lon="13.7409533"><ele>487.0</ele><time>2026-05-03T08:39:40.55Z</time></trkpt><trkpt lat="42.26484" lon="13.740955"><ele>487.0</ele><time>2026-05-03T08:39:41.551Z</time></trkpt><trkpt lat="42.2647233" lon="13.7409883"><ele>487.0</ele><time>2026-05-03T08:39:42.551Z</time></trkpt><trkpt lat="42.2645983" lon="13.741055"><ele>483.75</ele><time>2026-05-03T08:39:43.551Z</time></trkpt><trkpt lat="42.2644867" lon="13.7411233"><ele>480.5</ele><time>2026-05-03T08:39:44.551Z</time></trkpt><trkpt lat="42.264375" lon="13.7411717"><ele>477.25</ele><time>2026-05-03T08:39:45.55Z</time></trkpt><trkpt lat="42.2642567" lon="13.7412067"><ele>474.0</ele><time>2026-05-03T08:39:46.551Z</time></trkpt><trkpt lat="42.2641433" lon="13.7412267"><ele>474.0</ele><time>2026-05-03T08:39:47.551Z</time></trkpt><trkpt lat="42.2640233" lon="13.7412233"><ele>474.0</ele><time>2026-05-03T08:39:48.55Z</time></trkpt><trkpt lat="42.26389" lon="13.7412183"><ele>474.0</ele><time>2026-05-03T08:39:49.551Z</time></trkpt><trkpt lat="42.2637683" lon="13.7412183"><ele>474.0</ele><time>2026-05-03T08:39:50.551Z</time></trkpt><trkpt lat="42.26366" lon="13.7412267"><ele>474.0</ele><time>2026-05-03T08:39:51.55Z</time></trkpt><trkpt lat="42.26358" lon="13.7412433"><ele>474.0</ele><time>2026-05-03T08:39:52.551Z</time></trkpt><trkpt lat="42.263475" lon="13.74132"><ele>474.0</ele><time>2026-05-03T08:39:54.551Z</time></trkpt><trkpt lat="42.2633983" lon="13.7414583"><ele>474.0</ele><time>2026-05-03T08:39:56.551Z</time></trkpt><trkpt lat="42.26336" lon="13.74153"><ele>474.0</ele><time>2026-05-03T08:39:57.55Z</time></trkpt><trkpt lat="42.2633167" lon="13.7416667"><ele>474.0</ele><time>2026-05-03T08:39:59.551Z</time></trkpt><trkpt lat="42.263205" lon="13.7417583"><ele>474.0</ele><time>2026-05-03T08:40:01.551Z</time></trkpt><trkpt lat="42.2631483" lon="13.7418"><ele>474.0</ele><time>2026-05-03T08:40:02.55Z</time></trkpt><trkpt lat="42.26313" lon="13.74194"><ele>474.0</ele><time>2026-05-03T08:40:04.551Z</time></trkpt><trkpt lat="42.26315" lon="13.74204"><ele>474.0</ele><time>2026-05-03T08:40:05.55Z</time></trkpt><trkpt lat="42.263125" lon="13.742155"><ele>472.0</ele><time>2026-05-03T08:40:07.551Z</time></trkpt><trkpt lat="42.2630367" lon="13.74223"><ele>470.0</ele><time>2026-05-03T08:40:09.55Z</time></trkpt><trkpt lat="42.2630067" lon="13.742385"><ele>468.0</ele><time>2026-05-03T08:40:11.551Z</time></trkpt><trkpt lat="42.2630217" lon="13.7424933"><ele>466.0</ele><time>2026-05-03T08:40:12.55Z</time></trkpt><trkpt lat="42.2630333" lon="13.7425933"><ele>464.0</ele><time>2026-05-03T08:40:13.551Z</time></trkpt><trkpt lat="42.262995" lon="13.7427167"><ele>462.6</ele><time>2026-05-03T08:40:15.551Z</time></trkpt><trkpt lat="42.2628767" lon="13.74279"><ele>461.2</ele><time>2026-05-03T08:40:17.551Z</time></trkpt><trkpt lat="42.2627933" lon="13.742835"><ele>459.80000000000007</ele><time>2026-05-03T08:40:18.55Z</time></trkpt><trkpt lat="42.2627067" lon="13.7428967"><ele>458.40000000000003</ele><time>2026-05-03T08:40:19.551Z</time></trkpt><trkpt lat="42.2626217" lon="13.7429683"><ele>457.0</ele><time>2026-05-03T08:40:20.55Z</time></trkpt><trkpt lat="42.2625433" lon="13.743035"><ele>457.00000000000006</ele><time>2026-05-03T08:40:21.551Z</time></trkpt><trkpt lat="42.262465" lon="13.7430717"><ele>457.0</ele><time>2026-05-03T08:40:22.551Z</time></trkpt><trkpt lat="42.2623883" lon="13.7430983"><ele>457.0</ele><time>2026-05-03T08:40:23.55Z</time></trkpt><trkpt lat="42.2623133" lon="13.743135"><ele>457.0</ele><time>2026-05-03T08:40:24.551Z</time></trkpt><trkpt lat="42.2622483" lon="13.7432067"><ele>457.00000000000006</ele><time>2026-05-03T08:40:25.551Z</time></trkpt><trkpt lat="42.2621933" lon="13.7433233"><ele>457.0</ele><time>2026-05-03T08:40:26.551Z</time></trkpt><trkpt lat="42.2621583" lon="13.74346"><ele>457.0</ele><time>2026-05-03T08:40:27.551Z</time></trkpt><trkpt lat="42.26212" lon="13.7435683"><ele>457.00000000000006</ele><time>2026-05-03T08:40:28.551Z</time></trkpt><trkpt lat="42.262085" lon="13.74369"><ele>457.00000000000006</ele><time>2026-05-03T08:40:30.551Z</time></trkpt><trkpt lat="42.2621567" lon="13.74383"><ele>457.0</ele><time>2026-05-03T08:40:32.551Z</time></trkpt><trkpt lat="42.2622267" lon="13.7439117"><ele>457.0</ele><time>2026-05-03T08:40:33.55Z</time></trkpt><trkpt lat="42.2623" lon="13.743965"><ele>456.0</ele><time>2026-05-03T08:40:34.55Z</time></trkpt><trkpt lat="42.2623867" lon="13.7439833"><ele>455.0</ele><time>2026-05-03T08:40:35.55Z</time></trkpt><trkpt lat="42.2625" lon="13.743975"><ele>454.0</ele><time>2026-05-03T08:40:36.551Z</time></trkpt><trkpt lat="42.26263" lon="13.743955"><ele>453.0</ele><time>2026-05-03T08:40:37.55Z</time></trkpt><trkpt lat="42.26278" lon="13.7439317"><ele>453.0</ele><time>2026-05-03T08:40:38.551Z</time></trkpt><trkpt lat="42.2629367" lon="13.743915"><ele>453.0</ele><time>2026-05-03T08:40:39.551Z</time></trkpt><trkpt lat="42.263105" lon="13.7439033"><ele>453.0</ele><time>2026-05-03T08:40:40.551Z</time></trkpt><trkpt lat="42.2632683" lon="13.7438983"><ele>452.0</ele><time>2026-05-03T08:40:41.551Z</time></trkpt><trkpt lat="42.2634267" lon="13.743905"><ele>451.0</ele><time>2026-05-03T08:40:42.551Z</time></trkpt><trkpt lat="42.2635733" lon="13.74393"><ele>450.0</ele><time>2026-05-03T08:40:43.551Z</time></trkpt><trkpt lat="42.2637267" lon="13.7439567"><ele>450.0</ele><time>2026-05-03T08:40:44.551Z</time></trkpt><trkpt lat="42.2638733" lon="13.7439833"><ele>450.0</ele><time>2026-05-03T08:40:45.55Z</time></trkpt><trkpt lat="42.264025" lon="13.7440133"><ele>450.0</ele><time>2026-05-03T08:40:46.551Z</time></trkpt><trkpt lat="42.26417" lon="13.7440433"><ele>450.0</ele><time>2026-05-03T08:40:47.55Z</time></trkpt><trkpt lat="42.2643033" lon="13.7440667"><ele>449.5</ele><time>2026-05-03T08:40:48.551Z</time></trkpt><trkpt lat="42.264425" lon="13.7440833"><ele>449.0</ele><time>2026-05-03T08:40:49.551Z</time></trkpt><trkpt lat="42.2645417" lon="13.7440733"><ele>448.5</ele><time>2026-05-03T08:40:50.551Z</time></trkpt><trkpt lat="42.2646517" lon="13.7440417"><ele>448.0</ele><time>2026-05-03T08:40:51.551Z</time></trkpt><trkpt lat="42.2647633" lon="13.7439833"><ele>448.0</ele><time>2026-05-03T08:40:52.55Z</time></trkpt><trkpt lat="42.2648683" lon="13.743905"><ele>448.0</ele><time>2026-05-03T08:40:53.55Z</time></trkpt><trkpt lat="42.26497" lon="13.7438067"><ele>448.0</ele><time>2026-05-03T08:40:54.551Z</time></trkpt><trkpt lat="42.2650783" lon="13.74372"><ele>448.0</ele><time>2026-05-03T08:40:55.551Z</time></trkpt><trkpt lat="42.2651917" lon="13.743645"><ele>448.0</ele><time>2026-05-03T08:40:56.55Z</time></trkpt><trkpt lat="42.26531" lon="13.7435783"><ele>448.0</ele><time>2026-05-03T08:40:57.55Z</time></trkpt><trkpt lat="42.2654383" lon="13.743525"><ele>448.0</ele><time>2026-05-03T08:40:58.55Z</time></trkpt><trkpt lat="42.2655567" lon="13.7434983"><ele>448.0</ele><time>2026-05-03T08:40:59.549Z</time></trkpt><trkpt lat="42.2656917" lon="13.74349"><ele>448.0</ele><time>2026-05-03T08:41:00.55Z</time></trkpt><trkpt lat="42.265835" lon="13.7434917"><ele>448.0</ele><time>2026-05-03T08:41:01.55Z</time></trkpt><trkpt lat="42.2659817" lon="13.74348"><ele>448.0</ele><time>2026-05-03T08:41:02.55Z</time></trkpt><trkpt lat="42.2661217" lon="13.7434833"><ele>448.0</ele><time>2026-05-03T08:41:03.55Z</time></trkpt><trkpt lat="42.2662533" lon="13.743505"><ele>448.0</ele><time>2026-05-03T08:41:04.55Z</time></trkpt><trkpt lat="42.2663983" lon="13.7435417"><ele>448.0</ele><time>2026-05-03T08:41:05.549Z</time></trkpt><trkpt lat="42.2665367" lon="13.7435717"><ele>448.0</ele><time>2026-05-03T08:41:06.549Z</time></trkpt><trkpt lat="42.2666617" lon="13.74358"><ele>448.0</ele><time>2026-05-03T08:41:07.55Z</time></trkpt><trkpt lat="42.26678" lon="13.7435733"><ele>447.5</ele><time>2026-05-03T08:41:08.55Z</time></trkpt><trkpt lat="42.2668867" lon="13.7435517"><ele>447.0</ele><time>2026-05-03T08:41:09.55Z</time></trkpt><trkpt lat="42.2669967" lon="13.7435067"><ele>446.5</ele><time>2026-05-03T08:41:10.549Z</time></trkpt><trkpt lat="42.26711" lon="13.7434633"><ele>446.0</ele><time>2026-05-03T08:41:11.55Z</time></trkpt><trkpt lat="42.267215" lon="13.74342"><ele>444.6</ele><time>2026-05-03T08:41:12.55Z</time></trkpt><trkpt lat="42.2673217" lon="13.7433883"><ele>443.20000000000005</ele><time>2026-05-03T08:41:13.55Z</time></trkpt><trkpt lat="42.26743" lon="13.74337"><ele>441.79999999999995</ele><time>2026-05-03T08:41:14.55Z</time></trkpt><trkpt lat="42.2675233" lon="13.7433567"><ele>440.4</ele><time>2026-05-03T08:41:15.549Z</time></trkpt><trkpt lat="42.267615" lon="13.7433567"><ele>439.0</ele><time>2026-05-03T08:41:16.55Z</time></trkpt><trkpt lat="42.2677133" lon="13.7433783"><ele>439.0</ele><time>2026-05-03T08:41:17.55Z</time></trkpt><trkpt lat="42.2678267" lon="13.743425"><ele>439.0</ele><time>2026-05-03T08:41:18.55Z</time></trkpt><trkpt lat="42.2679417" lon="13.7434933"><ele>439.0</ele><time>2026-05-03T08:41:19.549Z</time></trkpt><trkpt lat="42.2680667" lon="13.74357"><ele>439.0</ele><time>2026-05-03T08:41:20.55Z</time></trkpt><trkpt lat="42.2681733" lon="13.7436433"><ele>440.0</ele><time>2026-05-03T08:41:21.549Z</time></trkpt><trkpt lat="42.268275" lon="13.743695"><ele>441.0</ele><time>2026-05-03T08:41:22.55Z</time></trkpt><trkpt lat="42.2683767" lon="13.74373"><ele>442.0</ele><time>2026-05-03T08:41:23.549Z</time></trkpt><trkpt lat="42.2684867" lon="13.74375"><ele>443.0</ele><time>2026-05-03T08:41:24.55Z</time></trkpt><trkpt lat="42.2685967" lon="13.7437733"><ele>444.0</ele><time>2026-05-03T08:41:25.55Z</time></trkpt><trkpt lat="42.2686867" lon="13.7437767"><ele>444.0</ele><time>2026-05-03T08:41:26.55Z</time></trkpt><trkpt lat="42.26876" lon="13.7437533"><ele>444.0</ele><time>2026-05-03T08:41:27.55Z</time></trkpt><trkpt lat="42.268835" lon="13.7436967"><ele>444.0</ele><time>2026-05-03T08:41:28.55Z</time></trkpt><trkpt lat="42.26891" lon="13.7436167"><ele>444.0</ele><time>2026-05-03T08:41:29.549Z</time></trkpt><trkpt lat="42.2689767" lon="13.7435333"><ele>444.0</ele><time>2026-05-03T08:41:30.55Z</time></trkpt><trkpt lat="42.2690183" lon="13.7434583"><ele>444.0</ele><time>2026-05-03T08:41:31.55Z</time></trkpt><trkpt lat="42.2690517" lon="13.7433683"><ele>442.5</ele><time>2026-05-03T08:41:32.55Z</time></trkpt><trkpt lat="42.2691" lon="13.7432867"><ele>441.0</ele><time>2026-05-03T08:41:33.55Z</time></trkpt><trkpt lat="42.2691517" lon="13.7432267"><ele>439.5</ele><time>2026-05-03T08:41:34.55Z</time></trkpt><trkpt lat="42.2692233" lon="13.7432"><ele>438.0</ele><time>2026-05-03T08:41:35.55Z</time></trkpt><trkpt lat="42.2693117" lon="13.7431883"><ele>436.5</ele><time>2026-05-03T08:41:36.55Z</time></trkpt><trkpt lat="42.2694183" lon="13.7431933"><ele>435.0</ele><time>2026-05-03T08:41:37.55Z</time></trkpt><trkpt lat="42.2695317" lon="13.7432167"><ele>435.0</ele><time>2026-05-03T08:41:38.55Z</time></trkpt><trkpt lat="42.2696483" lon="13.743265"><ele>435.0</ele><time>2026-05-03T08:41:39.549Z</time></trkpt><trkpt lat="42.2697717" lon="13.7433367"><ele>435.0</ele><time>2026-05-03T08:41:40.549Z</time></trkpt><trkpt lat="42.26989" lon="13.7434283"><ele>435.0</ele><time>2026-05-03T08:41:41.549Z</time></trkpt><trkpt lat="42.2699967" lon="13.74352"><ele>433.25</ele><time>2026-05-03T08:41:42.55Z</time></trkpt><trkpt lat="42.2701033" lon="13.7436083"><ele>431.5</ele><time>2026-05-03T08:41:43.549Z</time></trkpt><trkpt lat="42.2702183" lon="13.7436917"><ele>429.75</ele><time>2026-05-03T08:41:44.55Z</time></trkpt><trkpt lat="42.270325" lon="13.7437583"><ele>428.0</ele><time>2026-05-03T08:41:45.55Z</time></trkpt><trkpt lat="42.2704183" lon="13.7438183"><ele>428.0</ele><time>2026-05-03T08:41:46.549Z</time></trkpt><trkpt lat="42.27051" lon="13.74386"><ele>427.99999999999994</ele><time>2026-05-03T08:41:47.55Z</time></trkpt><trkpt lat="42.27061" lon="13.7438883"><ele>427.99999999999994</ele><time>2026-05-03T08:41:48.55Z</time></trkpt><trkpt lat="42.2707183" lon="13.7439283"><ele>428.0</ele><time>2026-05-03T08:41:49.55Z</time></trkpt><trkpt lat="42.2708083" lon="13.7439867"><ele>428.0</ele><time>2026-05-03T08:41:50.55Z</time></trkpt><trkpt lat="42.2708733" lon="13.7440533"><ele>427.79999999999995</ele><time>2026-05-03T08:41:51.55Z</time></trkpt><trkpt lat="42.27092" lon="13.744205"><ele>427.59999999999997</ele><time>2026-05-03T08:41:53.55Z</time></trkpt><trkpt lat="42.2709317" lon="13.7443083"><ele>427.40000000000003</ele><time>2026-05-03T08:41:54.55Z</time></trkpt><trkpt lat="42.2709483" lon="13.7444283"><ele>427.20000000000005</ele><time>2026-05-03T08:41:55.549Z</time></trkpt><trkpt lat="42.270995" lon="13.7445617"><ele>427.0</ele><time>2026-05-03T08:41:56.55Z</time></trkpt><trkpt lat="42.27106" lon="13.7447167"><ele>426.25</ele><time>2026-05-03T08:41:57.55Z</time></trkpt><trkpt lat="42.2711283" lon="13.7448583"><ele>425.5</ele><time>2026-05-03T08:41:58.549Z</time></trkpt><trkpt lat="42.2711983" lon="13.7449867"><ele>424.75</ele><time>2026-05-03T08:41:59.55Z</time></trkpt><trkpt lat="42.2712633" lon="13.7451183"><ele>424.0</ele><time>2026-05-03T08:42:00.55Z</time></trkpt><trkpt lat="42.27133" lon="13.7452533"><ele>422.79999999999995</ele><time>2026-05-03T08:42:01.549Z</time></trkpt><trkpt lat="42.271385" lon="13.7453967"><ele>421.59999999999997</ele><time>2026-05-03T08:42:02.549Z</time></trkpt><trkpt lat="42.271435" lon="13.7455317"><ele>420.4</ele><time>2026-05-03T08:42:03.55Z</time></trkpt><trkpt lat="42.2714617" lon="13.745665"><ele>419.2</ele><time>2026-05-03T08:42:04.55Z</time></trkpt><trkpt lat="42.271475" lon="13.7458017"><ele>418.0</ele><time>2026-05-03T08:42:05.55Z</time></trkpt><trkpt lat="42.2714883" lon="13.745945"><ele>419.25</ele><time>2026-05-03T08:42:06.549Z</time></trkpt><trkpt lat="42.2715083" lon="13.746095"><ele>420.5</ele><time>2026-05-03T08:42:07.549Z</time></trkpt><trkpt lat="42.2715467" lon="13.7462517"><ele>421.75</ele><time>2026-05-03T08:42:08.55Z</time></trkpt><trkpt lat="42.27159" lon="13.746415"><ele>423.0</ele><time>2026-05-03T08:42:09.55Z</time></trkpt><trkpt lat="42.2716567" lon="13.746575"><ele>423.0</ele><time>2026-05-03T08:42:10.549Z</time></trkpt><trkpt lat="42.271735" lon="13.7467317"><ele>423.0</ele><time>2026-05-03T08:42:11.549Z</time></trkpt><trkpt lat="42.2718133" lon="13.746885"><ele>423.0</ele><time>2026-05-03T08:42:12.55Z</time></trkpt><trkpt lat="42.2719017" lon="13.7470433"><ele>423.0</ele><time>2026-05-03T08:42:13.549Z</time></trkpt><trkpt lat="42.2719833" lon="13.747205"><ele>423.75</ele><time>2026-05-03T08:42:14.549Z</time></trkpt><trkpt lat="42.2720617" lon="13.7473633"><ele>424.5</ele><time>2026-05-03T08:42:15.55Z</time></trkpt><trkpt lat="42.2721417" lon="13.747515"><ele>425.25</ele><time>2026-05-03T08:42:16.55Z</time></trkpt><trkpt lat="42.27222" lon="13.7476483"><ele>426.0</ele><time>2026-05-03T08:42:17.55Z</time></trkpt><trkpt lat="42.2723017" lon="13.7477583"><ele>426.0</ele><time>2026-05-03T08:42:18.55Z</time></trkpt><trkpt lat="42.2723767" lon="13.74784"><ele>426.0</ele><time>2026-05-03T08:42:19.55Z</time></trkpt><trkpt lat="42.2724717" lon="13.7479233"><ele>426.0</ele><time>2026-05-03T08:42:20.55Z</time></trkpt><trkpt lat="42.272585" lon="13.7480133"><ele>426.0</ele><time>2026-05-03T08:42:21.55Z</time></trkpt><trkpt lat="42.2726983" lon="13.74812"><ele>426.0</ele><time>2026-05-03T08:42:22.55Z</time></trkpt><trkpt lat="42.2728033" lon="13.7482517"><ele>426.0</ele><time>2026-05-03T08:42:23.55Z</time></trkpt><trkpt lat="42.2729" lon="13.7483783"><ele>426.0</ele><time>2026-05-03T08:42:24.55Z</time></trkpt><trkpt lat="42.2730017" lon="13.74853"><ele>426.0</ele><time>2026-05-03T08:42:25.549Z</time></trkpt><trkpt lat="42.2731167" lon="13.7486817"><ele>423.66666666666663</ele><time>2026-05-03T08:42:26.549Z</time></trkpt><trkpt lat="42.27324" lon="13.7488367"><ele>421.3333333333333</ele><time>2026-05-03T08:42:27.55Z</time></trkpt><trkpt lat="42.2733617" lon="13.7489767"><ele>419.0</ele><time>2026-05-03T08:42:28.55Z</time></trkpt><trkpt lat="42.2734733" lon="13.7490983"><ele>419.0</ele><time>2026-05-03T08:42:29.55Z</time></trkpt><trkpt lat="42.273585" lon="13.749205"><ele>419.0</ele><time>2026-05-03T08:42:30.55Z</time></trkpt><trkpt lat="42.2737" lon="13.7492833"><ele>419.0</ele><time>2026-05-03T08:42:31.549Z</time></trkpt><trkpt lat="42.2738167" lon="13.7493567"><ele>419.0</ele><time>2026-05-03T08:42:32.549Z</time></trkpt><trkpt lat="42.273895" lon="13.7494183"><ele>419.0</ele><time>2026-05-03T08:42:33.55Z</time></trkpt><trkpt lat="42.2739433" lon="13.7494867"><ele>419.0</ele><time>2026-05-03T08:42:34.55Z</time></trkpt><trkpt lat="42.2739617" lon="13.7495767"><ele>419.0</ele><time>2026-05-03T08:42:35.55Z</time></trkpt><trkpt lat="42.2739467" lon="13.7496917"><ele>419.0</ele><time>2026-05-03T08:42:36.549Z</time></trkpt><trkpt lat="42.273915" lon="13.7498317"><ele>419.0</ele><time>2026-05-03T08:42:37.549Z</time></trkpt><trkpt lat="42.2738583" lon="13.7499733"><ele>419.0</ele><time>2026-05-03T08:42:38.549Z</time></trkpt><trkpt lat="42.2737917" lon="13.7501333"><ele>419.0</ele><time>2026-05-03T08:42:39.55Z</time></trkpt><trkpt lat="42.27373" lon="13.750295"><ele>419.0</ele><time>2026-05-03T08:42:40.549Z</time></trkpt><trkpt lat="42.27368" lon="13.7504217"><ele>419.0</ele><time>2026-05-03T08:42:41.549Z</time></trkpt><trkpt lat="42.2736433" lon="13.7505217"><ele>419.0</ele><time>2026-05-03T08:42:42.549Z</time></trkpt><trkpt lat="42.2736283" lon="13.7506067"><ele>419.0</ele><time>2026-05-03T08:42:43.55Z</time></trkpt><trkpt lat="42.2736317" lon="13.7507083"><ele>419.0</ele><time>2026-05-03T08:42:44.55Z</time></trkpt><trkpt lat="42.273655" lon="13.7508267"><ele>419.0</ele><time>2026-05-03T08:42:45.549Z</time></trkpt><trkpt lat="42.273705" lon="13.75096"><ele>419.0</ele><time>2026-05-03T08:42:46.549Z</time></trkpt><trkpt lat="42.2737733" lon="13.7510917"><ele>418.6</ele><time>2026-05-03T08:42:47.549Z</time></trkpt><trkpt lat="42.273845" lon="13.75118"><ele>418.2</ele><time>2026-05-03T08:42:48.549Z</time></trkpt><trkpt lat="42.273915" lon="13.751215"><ele>417.8</ele><time>2026-05-03T08:42:49.549Z</time></trkpt><trkpt lat="42.2739917" lon="13.751215"><ele>417.40000000000003</ele><time>2026-05-03T08:42:50.55Z</time></trkpt><trkpt lat="42.2740883" lon="13.7511767"><ele>417.0</ele><time>2026-05-03T08:42:51.55Z</time></trkpt><trkpt lat="42.2742167" lon="13.7511067"><ele>416.75</ele><time>2026-05-03T08:42:52.549Z</time></trkpt><trkpt lat="42.274365" lon="13.7510417"><ele>416.5</ele><time>2026-05-03T08:42:53.55Z</time></trkpt><trkpt lat="42.2745117" lon="13.7509917"><ele>416.25</ele><time>2026-05-03T08:42:54.55Z</time></trkpt><trkpt lat="42.27464" lon="13.7509633"><ele>416.0</ele><time>2026-05-03T08:42:55.549Z</time></trkpt><trkpt lat="42.2747717" lon="13.7509417"><ele>415.0</ele><time>2026-05-03T08:42:56.55Z</time></trkpt><trkpt lat="42.2749067" lon="13.7509367"><ele>414.0</ele><time>2026-05-03T08:42:57.55Z</time></trkpt><trkpt lat="42.2750383" lon="13.75094"><ele>413.0</ele><time>2026-05-03T08:42:58.549Z</time></trkpt><trkpt lat="42.2751833" lon="13.7509433"><ele>412.0</ele><time>2026-05-03T08:42:59.55Z</time></trkpt><trkpt lat="42.275335" lon="13.750955"><ele>412.0</ele><time>2026-05-03T08:43:00.55Z</time></trkpt><trkpt lat="42.2754833" lon="13.7509683"><ele>412.0</ele><time>2026-05-03T08:43:01.55Z</time></trkpt><trkpt lat="42.275625" lon="13.7509833"><ele>412.0</ele><time>2026-05-03T08:43:02.55Z</time></trkpt><trkpt lat="42.275765" lon="13.7509933"><ele>412.0</ele><time>2026-05-03T08:43:03.549Z</time></trkpt><trkpt lat="42.275895" lon="13.7510133"><ele>410.25</ele><time>2026-05-03T08:43:04.549Z</time></trkpt><trkpt lat="42.27601" lon="13.7510433"><ele>408.5</ele><time>2026-05-03T08:43:05.55Z</time></trkpt><trkpt lat="42.27612" lon="13.7510867"><ele>406.75</ele><time>2026-05-03T08:43:06.55Z</time></trkpt><trkpt lat="42.2762017" lon="13.75117"><ele>405.0</ele><time>2026-05-03T08:43:07.549Z</time></trkpt><trkpt lat="42.2762767" lon="13.7512983"><ele>405.0</ele><time>2026-05-03T08:43:08.55Z</time></trkpt><trkpt lat="42.2763617" lon="13.7514167"><ele>405.0</ele><time>2026-05-03T08:43:09.549Z</time></trkpt><trkpt lat="42.276445" lon="13.7515067"><ele>405.0</ele><time>2026-05-03T08:43:10.55Z</time></trkpt><trkpt lat="42.2765383" lon="13.7515733"><ele>405.0</ele><time>2026-05-03T08:43:11.549Z</time></trkpt><trkpt lat="42.2766433" lon="13.7516233"><ele>405.0</ele><time>2026-05-03T08:43:12.55Z</time></trkpt><trkpt lat="42.2767633" lon="13.75167"><ele>404.25</ele><time>2026-05-03T08:43:13.55Z</time></trkpt><trkpt lat="42.2768917" lon="13.75171"><ele>403.5</ele><time>2026-05-03T08:43:14.55Z</time></trkpt><trkpt lat="42.2770233" lon="13.7517483"><ele>402.75</ele><time>2026-05-03T08:43:15.55Z</time></trkpt><trkpt lat="42.27715" lon="13.75178"><ele>402.0</ele><time>2026-05-03T08:43:16.549Z</time></trkpt><trkpt lat="42.2772517" lon="13.7518033"><ele>401.8333333333333</ele><time>2026-05-03T08:43:17.55Z</time></trkpt><trkpt lat="42.2773483" lon="13.75182"><ele>401.66666666666663</ele><time>2026-05-03T08:43:18.55Z</time></trkpt><trkpt lat="42.2774267" lon="13.7518467"><ele>401.5</ele><time>2026-05-03T08:43:19.55Z</time></trkpt><trkpt lat="42.2774933" lon="13.7518833"><ele>401.3333333333333</ele><time>2026-05-03T08:43:20.55Z</time></trkpt><trkpt lat="42.277555" lon="13.7519183"><ele>401.16666666666663</ele><time>2026-05-03T08:43:21.55Z</time></trkpt><trkpt lat="42.2776283" lon="13.7519617"><ele>401.0</ele><time>2026-05-03T08:43:22.549Z</time></trkpt><trkpt lat="42.2777267" lon="13.7519967"><ele>401.25</ele><time>2026-05-03T08:43:23.55Z</time></trkpt><trkpt lat="42.27785" lon="13.7520367"><ele>401.5</ele><time>2026-05-03T08:43:24.549Z</time></trkpt><trkpt lat="42.2779833" lon="13.7520817"><ele>401.75</ele><time>2026-05-03T08:43:25.55Z</time></trkpt><trkpt lat="42.27812" lon="13.7521217"><ele>402.0</ele><time>2026-05-03T08:43:26.55Z</time></trkpt><trkpt lat="42.2782567" lon="13.75215"><ele>402.0</ele><time>2026-05-03T08:43:27.55Z</time></trkpt><trkpt lat="42.27841" lon="13.7521633"><ele>402.0</ele><time>2026-05-03T08:43:28.55Z</time></trkpt><trkpt lat="42.278575" lon="13.7521733"><ele>402.0</ele><time>2026-05-03T08:43:29.55Z</time></trkpt><trkpt lat="42.27874" lon="13.7521833"><ele>402.0</ele><time>2026-05-03T08:43:30.55Z</time></trkpt><trkpt lat="42.2789067" lon="13.7521883"><ele>402.0</ele><time>2026-05-03T08:43:31.549Z</time></trkpt><trkpt lat="42.2790783" lon="13.7521817"><ele>402.0</ele><time>2026-05-03T08:43:32.549Z</time></trkpt><trkpt lat="42.2792483" lon="13.7521767"><ele>400.66666666666663</ele><time>2026-05-03T08:43:33.55Z</time></trkpt><trkpt lat="42.279415" lon="13.75217"><ele>399.3333333333333</ele><time>2026-05-03T08:43:34.549Z</time></trkpt><trkpt lat="42.2795883" lon="13.75217"><ele>398.0</ele><time>2026-05-03T08:43:35.549Z</time></trkpt><trkpt lat="42.279765" lon="13.7521667"><ele>395.66666666666663</ele><time>2026-05-03T08:43:36.549Z</time></trkpt><trkpt lat="42.2799317" lon="13.7521633"><ele>393.33333333333337</ele><time>2026-05-03T08:43:37.55Z</time></trkpt><trkpt lat="42.2800967" lon="13.7521633"><ele>391.0</ele><time>2026-05-03T08:43:38.549Z</time></trkpt><trkpt lat="42.280245" lon="13.7521833"><ele>391.0</ele><time>2026-05-03T08:43:39.55Z</time></trkpt><trkpt lat="42.2803817" lon="13.7522183"><ele>391.0</ele><time>2026-05-03T08:43:40.55Z</time></trkpt><trkpt lat="42.2805167" lon="13.75227"><ele>391.0</ele><time>2026-05-03T08:43:41.549Z</time></trkpt><trkpt lat="42.28065" lon="13.7523317"><ele>391.0</ele><time>2026-05-03T08:43:42.55Z</time></trkpt><trkpt lat="42.2807767" lon="13.7524067"><ele>390.5</ele><time>2026-05-03T08:43:43.55Z</time></trkpt><trkpt lat="42.280905" lon="13.7525017"><ele>390.0</ele><time>2026-05-03T08:43:44.55Z</time></trkpt><trkpt lat="42.28103" lon="13.7526183"><ele>389.5</ele><time>2026-05-03T08:43:45.549Z</time></trkpt><trkpt lat="42.28115" lon="13.7527333"><ele>389.0</ele><time>2026-05-03T08:43:46.55Z</time></trkpt><trkpt lat="42.2812783" lon="13.7528567"><ele>389.0</ele><time>2026-05-03T08:43:47.55Z</time></trkpt><trkpt lat="42.2814067" lon="13.7529933"><ele>389.0</ele><time>2026-05-03T08:43:48.55Z</time></trkpt><trkpt lat="42.2815283" lon="13.7531317"><ele>389.0</ele><time>2026-05-03T08:43:49.55Z</time></trkpt><trkpt lat="42.2816483" lon="13.7532683"><ele>389.0</ele><time>2026-05-03T08:43:50.55Z</time></trkpt><trkpt lat="42.281765" lon="13.7534067"><ele>389.0</ele><time>2026-05-03T08:43:51.55Z</time></trkpt><trkpt lat="42.28188" lon="13.7535383"><ele>389.0</ele><time>2026-05-03T08:43:52.55Z</time></trkpt><trkpt lat="42.2820083" lon="13.7536633"><ele>389.66666666666663</ele><time>2026-05-03T08:43:53.55Z</time></trkpt><trkpt lat="42.2821417" lon="13.7537783"><ele>390.33333333333337</ele><time>2026-05-03T08:43:54.55Z</time></trkpt><trkpt lat="42.2822867" lon="13.7538817"><ele>391.0</ele><time>2026-05-03T08:43:55.55Z</time></trkpt><trkpt lat="42.2824417" lon="13.7539817"><ele>391.0</ele><time>2026-05-03T08:43:56.549Z</time></trkpt><trkpt lat="42.2825933" lon="13.7540733"><ele>391.0</ele><time>2026-05-03T08:43:57.55Z</time></trkpt><trkpt lat="42.2827483" lon="13.7541733"><ele>391.0</ele><time>2026-05-03T08:43:58.55Z</time></trkpt><trkpt lat="42.2828967" lon="13.7542617"><ele>391.0</ele><time>2026-05-03T08:43:59.549Z</time></trkpt><trkpt lat="42.2830333" lon="13.7543383"><ele>391.0</ele><time>2026-05-03T08:44:00.55Z</time></trkpt><trkpt lat="42.2831517" lon="13.7544067"><ele>391.0</ele><time>2026-05-03T08:44:01.55Z</time></trkpt><trkpt lat="42.2832583" lon="13.7544617"><ele>391.0</ele><time>2026-05-03T08:44:02.549Z</time></trkpt><trkpt lat="42.283355" lon="13.7545067"><ele>390.33333333333337</ele><time>2026-05-03T08:44:03.549Z</time></trkpt><trkpt lat="42.2834317" lon="13.754535"><ele>389.6666666666667</ele><time>2026-05-03T08:44:04.55Z</time></trkpt><trkpt lat="42.2835" lon="13.75455"><ele>389.0</ele><time>2026-05-03T08:44:05.55Z</time></trkpt><trkpt lat="42.2835867" lon="13.754525"><ele>388.33333333333337</ele><time>2026-05-03T08:44:07.55Z</time></trkpt><trkpt lat="42.2836" lon="13.7544183"><ele>387.6666666666667</ele><time>2026-05-03T08:44:09.55Z</time></trkpt><trkpt lat="42.2835867" lon="13.7542983"><ele>387.0</ele><time>2026-05-03T08:44:10.549Z</time></trkpt><trkpt lat="42.28356" lon="13.7541333"><ele>386.33333333333337</ele><time>2026-05-03T08:44:11.549Z</time></trkpt><trkpt lat="42.283515" lon="13.75392"><ele>385.6666666666667</ele><time>2026-05-03T08:44:12.55Z</time></trkpt><trkpt lat="42.2834683" lon="13.7536867"><ele>385.0</ele><time>2026-05-03T08:44:13.55Z</time></trkpt><trkpt lat="42.2834317" lon="13.75345"><ele>385.0</ele><time>2026-05-03T08:44:14.55Z</time></trkpt><trkpt lat="42.2834" lon="13.7531933"><ele>385.0</ele><time>2026-05-03T08:44:15.55Z</time></trkpt><trkpt lat="42.2833867" lon="13.75293"><ele>385.0</ele><time>2026-05-03T08:44:16.55Z</time></trkpt><trkpt lat="42.2833833" lon="13.7526867"><ele>385.2</ele><time>2026-05-03T08:44:17.55Z</time></trkpt><trkpt lat="42.2833767" lon="13.7524833"><ele>385.4</ele><time>2026-05-03T08:44:18.55Z</time></trkpt><trkpt lat="42.283375" lon="13.7523417"><ele>385.6</ele><time>2026-05-03T08:44:19.549Z</time></trkpt><trkpt lat="42.2833967" lon="13.7522517"><ele>385.8</ele><time>2026-05-03T08:44:20.549Z</time></trkpt><trkpt lat="42.2834483" lon="13.7522017"><ele>386.0</ele><time>2026-05-03T08:44:21.55Z</time></trkpt><trkpt lat="42.2835267" lon="13.7521867"><ele>386.0</ele><time>2026-05-03T08:44:22.55Z</time></trkpt><trkpt lat="42.2836317" lon="13.7521983"><ele>386.0</ele><time>2026-05-03T08:44:23.549Z</time></trkpt><trkpt lat="42.28376" lon="13.752235"><ele>386.0</ele><time>2026-05-03T08:44:24.55Z</time></trkpt><trkpt lat="42.2839" lon="13.7522733"><ele>386.0</ele><time>2026-05-03T08:44:25.55Z</time></trkpt><trkpt lat="42.28404" lon="13.752305"><ele>385.3333333333333</ele><time>2026-05-03T08:44:26.55Z</time></trkpt><trkpt lat="42.2841933" lon="13.7523483"><ele>384.66666666666663</ele><time>2026-05-03T08:44:27.549Z</time></trkpt><trkpt lat="42.284345" lon="13.7524083"><ele>384.0</ele><time>2026-05-03T08:44:28.55Z</time></trkpt><trkpt lat="42.28452" lon="13.7524683"><ele>384.0</ele><time>2026-05-03T08:44:29.549Z</time></trkpt><trkpt lat="42.28469" lon="13.7525333"><ele>384.0</ele><time>2026-05-03T08:44:30.549Z</time></trkpt><trkpt lat="42.284845" lon="13.7525933"><ele>384.0</ele><time>2026-05-03T08:44:31.55Z</time></trkpt><trkpt lat="42.2849933" lon="13.7526667"><ele>383.5</ele><time>2026-05-03T08:44:32.549Z</time></trkpt><trkpt lat="42.2851367" lon="13.7527417"><ele>383.0</ele><time>2026-05-03T08:44:33.55Z</time></trkpt><trkpt lat="42.2852683" lon="13.7528067"><ele>382.5</ele><time>2026-05-03T08:44:34.55Z</time></trkpt><trkpt lat="42.285405" lon="13.752865"><ele>382.0</ele><time>2026-05-03T08:44:35.549Z</time></trkpt><trkpt lat="42.2855317" lon="13.7529217"><ele>381.5</ele><time>2026-05-03T08:44:36.55Z</time></trkpt><trkpt lat="42.285665" lon="13.7529683"><ele>381.0</ele><time>2026-05-03T08:44:37.549Z</time></trkpt><trkpt lat="42.2857917" lon="13.7530133"><ele>380.5</ele><time>2026-05-03T08:44:38.55Z</time></trkpt><trkpt lat="42.285905" lon="13.7530483"><ele>380.0</ele><time>2026-05-03T08:44:39.549Z</time></trkpt><trkpt lat="42.28599" lon="13.7530783"><ele>380.0</ele><time>2026-05-03T08:44:40.55Z</time></trkpt><trkpt lat="42.286055" lon="13.7531017"><ele>380.0</ele><time>2026-05-03T08:44:41.549Z</time></trkpt><trkpt lat="42.286135" lon="13.7531283"><ele>380.0</ele><time>2026-05-03T08:44:43.55Z</time></trkpt><trkpt lat="42.2862283" lon="13.7531433"><ele>380.0</ele><time>2026-05-03T08:44:46.55Z</time></trkpt><trkpt lat="42.2862983" lon="13.7531517"><ele>380.0</ele><time>2026-05-03T08:44:47.55Z</time></trkpt><trkpt lat="42.28639" lon="13.7531767"><ele>380.0</ele><time>2026-05-03T08:44:48.55Z</time></trkpt><trkpt lat="42.2865083" lon="13.7532117"><ele>379.5</ele><time>2026-05-03T08:44:49.55Z</time></trkpt><trkpt lat="42.286635" lon="13.7532517"><ele>379.0</ele><time>2026-05-03T08:44:50.55Z</time></trkpt><trkpt lat="42.2867733" lon="13.753285"><ele>378.5</ele><time>2026-05-03T08:44:51.549Z</time></trkpt><trkpt lat="42.2869183" lon="13.7533217"><ele>378.0</ele><time>2026-05-03T08:44:52.549Z</time></trkpt><trkpt lat="42.2870717" lon="13.7533783"><ele>378.0</ele><time>2026-05-03T08:44:53.549Z</time></trkpt><trkpt lat="42.2872333" lon="13.7534617"><ele>378.0</ele><time>2026-05-03T08:44:54.55Z</time></trkpt><trkpt lat="42.2873867" lon="13.7535467"><ele>378.0</ele><time>2026-05-03T08:44:55.55Z</time></trkpt><trkpt lat="42.2875183" lon="13.753625"><ele>377.5</ele><time>2026-05-03T08:44:56.549Z</time></trkpt><trkpt lat="42.287615" lon="13.753695"><ele>377.0</ele><time>2026-05-03T08:44:57.549Z</time></trkpt><trkpt lat="42.2877017" lon="13.7537517"><ele>376.5</ele><time>2026-05-03T08:44:58.55Z</time></trkpt><trkpt lat="42.287775" lon="13.7537783"><ele>376.0</ele><time>2026-05-03T08:44:59.55Z</time></trkpt><trkpt lat="42.287845" lon="13.75376"><ele>375.5</ele><time>2026-05-03T08:45:00.549Z</time></trkpt><trkpt lat="42.2879117" lon="13.7537033"><ele>375.0</ele><time>2026-05-03T08:45:01.55Z</time></trkpt><trkpt lat="42.2879883" lon="13.753615"><ele>375.0</ele><time>2026-05-03T08:45:02.55Z</time></trkpt><trkpt lat="42.2880633" lon="13.7534867"><ele>375.0</ele><time>2026-05-03T08:45:03.55Z</time></trkpt><trkpt lat="42.2881467" lon="13.7533583"><ele>375.0</ele><time>2026-05-03T08:45:04.549Z</time></trkpt><trkpt lat="42.28824" lon="13.7532333"><ele>375.0</ele><time>2026-05-03T08:45:05.55Z</time></trkpt><trkpt lat="42.2883333" lon="13.753105"><ele>374.75</ele><time>2026-05-03T08:45:06.55Z</time></trkpt><trkpt lat="42.2884217" lon="13.7529633"><ele>374.5</ele><time>2026-05-03T08:45:07.549Z</time></trkpt><trkpt lat="42.288515" lon="13.752815"><ele>374.25</ele><time>2026-05-03T08:45:08.55Z</time></trkpt><trkpt lat="42.2886133" lon="13.7526617"><ele>374.0</ele><time>2026-05-03T08:45:09.549Z</time></trkpt><trkpt lat="42.2887117" lon="13.752495"><ele>374.75</ele><time>2026-05-03T08:45:10.549Z</time></trkpt><trkpt lat="42.2888" lon="13.7523283"><ele>375.5</ele><time>2026-05-03T08:45:11.55Z</time></trkpt><trkpt lat="42.28888" lon="13.752165"><ele>376.25</ele><time>2026-05-03T08:45:12.55Z</time></trkpt><trkpt lat="42.2889567" lon="13.7519917"><ele>377.0</ele><time>2026-05-03T08:45:13.549Z</time></trkpt><trkpt lat="42.2890333" lon="13.7518267"><ele>378.25</ele><time>2026-05-03T08:45:14.549Z</time></trkpt><trkpt lat="42.2891033" lon="13.7516767"><ele>379.5</ele><time>2026-05-03T08:45:15.55Z</time></trkpt><trkpt lat="42.2891667" lon="13.7515283"><ele>380.75</ele><time>2026-05-03T08:45:16.55Z</time></trkpt><trkpt lat="42.289225" lon="13.7513767"><ele>382.0</ele><time>2026-05-03T08:45:17.549Z</time></trkpt><trkpt lat="42.2892883" lon="13.7512167"><ele>382.0</ele><time>2026-05-03T08:45:18.549Z</time></trkpt><trkpt lat="42.2893617" lon="13.7510483"><ele>382.0</ele><time>2026-05-03T08:45:19.549Z</time></trkpt><trkpt lat="42.2894283" lon="13.7508683"><ele>382.0</ele><time>2026-05-03T08:45:20.55Z</time></trkpt><trkpt lat="42.28949" lon="13.750695"><ele>382.0</ele><time>2026-05-03T08:45:21.55Z</time></trkpt><trkpt lat="42.289565" lon="13.750535"><ele>382.0</ele><time>2026-05-03T08:45:22.55Z</time></trkpt><trkpt lat="42.2896583" lon="13.7503767"><ele>382.0</ele><time>2026-05-03T08:45:23.549Z</time></trkpt><trkpt lat="42.2897583" lon="13.7502167"><ele>382.0</ele><time>2026-05-03T08:45:24.549Z</time></trkpt><trkpt lat="42.28986" lon="13.7500383"><ele>381.66666666666663</ele><time>2026-05-03T08:45:25.549Z</time></trkpt><trkpt lat="42.2899567" lon="13.749845"><ele>381.3333333333333</ele><time>2026-05-03T08:45:26.55Z</time></trkpt><trkpt lat="42.290045" lon="13.74965"><ele>381.0</ele><time>2026-05-03T08:45:27.55Z</time></trkpt><trkpt lat="42.290125" lon="13.7494567"><ele>382.0</ele><time>2026-05-03T08:45:28.55Z</time></trkpt><trkpt lat="42.2902033" lon="13.749285"><ele>383.0</ele><time>2026-05-03T08:45:29.55Z</time></trkpt><trkpt lat="42.2903" lon="13.7491117"><ele>384.0</ele><time>2026-05-03T08:45:30.55Z</time></trkpt><trkpt lat="42.2904017" lon="13.748945"><ele>384.0</ele><time>2026-05-03T08:45:31.55Z</time></trkpt><trkpt lat="42.2905167" lon="13.74877"><ele>384.0</ele><time>2026-05-03T08:45:32.549Z</time></trkpt><trkpt lat="42.2906267" lon="13.74859"><ele>384.0</ele><time>2026-05-03T08:45:33.55Z</time></trkpt><trkpt lat="42.2907383" lon="13.748415"><ele>383.3333333333333</ele><time>2026-05-03T08:45:34.55Z</time></trkpt><trkpt lat="42.29084" lon="13.7482383"><ele>382.66666666666663</ele><time>2026-05-03T08:45:35.549Z</time></trkpt><trkpt lat="42.2909467" lon="13.7480533"><ele>382.0</ele><time>2026-05-03T08:45:36.549Z</time></trkpt><trkpt lat="42.2910483" lon="13.7478567"><ele>382.66666666666663</ele><time>2026-05-03T08:45:37.55Z</time></trkpt><trkpt lat="42.291155" lon="13.747675"><ele>383.3333333333333</ele><time>2026-05-03T08:45:38.55Z</time></trkpt><trkpt lat="42.291255" lon="13.7474983"><ele>384.0</ele><time>2026-05-03T08:45:39.55Z</time></trkpt><trkpt lat="42.29134" lon="13.7473367"><ele>384.25</ele><time>2026-05-03T08:45:40.55Z</time></trkpt><trkpt lat="42.291425" lon="13.7471883"><ele>384.5</ele><time>2026-05-03T08:45:41.549Z</time></trkpt><trkpt lat="42.2915083" lon="13.747065"><ele>384.75</ele><time>2026-05-03T08:45:42.55Z</time></trkpt><trkpt lat="42.2915867" lon="13.7469417"><ele>385.0</ele><time>2026-05-03T08:45:43.55Z</time></trkpt><trkpt lat="42.2916567" lon="13.7468033"><ele>385.4</ele><time>2026-05-03T08:45:44.55Z</time></trkpt><trkpt lat="42.29172" lon="13.7466817"><ele>385.8</ele><time>2026-05-03T08:45:45.549Z</time></trkpt><trkpt lat="42.29178" lon="13.7466017"><ele>386.20000000000005</ele><time>2026-05-03T08:45:46.549Z</time></trkpt><trkpt lat="42.2918383" lon="13.7465583"><ele>386.6</ele><time>2026-05-03T08:45:47.55Z</time></trkpt><trkpt lat="42.2919533" lon="13.7466017"><ele>387.0</ele><time>2026-05-03T08:45:49.549Z</time></trkpt><trkpt lat="42.2920233" lon="13.74668"><ele>387.0</ele><time>2026-05-03T08:45:50.55Z</time></trkpt><trkpt lat="42.292125" lon="13.7467717"><ele>387.0</ele><time>2026-05-03T08:45:51.549Z</time></trkpt><trkpt lat="42.2922517" lon="13.74687"><ele>387.0</ele><time>2026-05-03T08:45:52.549Z</time></trkpt><trkpt lat="42.29239" lon="13.7469633"><ele>387.0</ele><time>2026-05-03T08:45:53.55Z</time></trkpt><trkpt lat="42.2925217" lon="13.747045"><ele>385.75</ele><time>2026-05-03T08:45:54.55Z</time></trkpt><trkpt lat="42.29263" lon="13.747115"><ele>384.5</ele><time>2026-05-03T08:45:55.55Z</time></trkpt><trkpt lat="42.2927267" lon="13.7471733"><ele>383.25</ele><time>2026-05-03T08:45:56.55Z</time></trkpt><trkpt lat="42.2928333" lon="13.7472283"><ele>382.0</ele><time>2026-05-03T08:45:57.549Z</time></trkpt><trkpt lat="42.2929567" lon="13.7472767"><ele>382.0</ele><time>2026-05-03T08:45:58.55Z</time></trkpt><trkpt lat="42.2930783" lon="13.7473317"><ele>382.0</ele><time>2026-05-03T08:45:59.55Z</time></trkpt><trkpt lat="42.2931967" lon="13.7473917"><ele>382.0</ele><time>2026-05-03T08:46:00.55Z</time></trkpt><trkpt lat="42.293315" lon="13.74747"><ele>382.0</ele><time>2026-05-03T08:46:01.55Z</time></trkpt><trkpt lat="42.2934367" lon="13.74755"><ele>382.0</ele><time>2026-05-03T08:46:02.55Z</time></trkpt><trkpt lat="42.2935583" lon="13.7476283"><ele>382.0</ele><time>2026-05-03T08:46:03.55Z</time></trkpt><trkpt lat="42.2936833" lon="13.747705"><ele>382.0</ele><time>2026-05-03T08:46:04.55Z</time></trkpt><trkpt lat="42.2938233" lon="13.7477867"><ele>382.0</ele><time>2026-05-03T08:46:05.55Z</time></trkpt><trkpt lat="42.2939717" lon="13.7478617"><ele>383.66666666666663</ele><time>2026-05-03T08:46:06.549Z</time></trkpt><trkpt lat="42.2941233" lon="13.7479333"><ele>385.3333333333333</ele><time>2026-05-03T08:46:07.55Z</time></trkpt><trkpt lat="42.2942733" lon="13.7480117"><ele>387.0</ele><time>2026-05-03T08:46:08.55Z</time></trkpt><trkpt lat="42.2944233" lon="13.7481"><ele>387.0</ele><time>2026-05-03T08:46:09.549Z</time></trkpt><trkpt lat="42.29456" lon="13.7481833"><ele>387.0</ele><time>2026-05-03T08:46:10.55Z</time></trkpt><trkpt lat="42.294695" lon="13.74826"><ele>387.0</ele><time>2026-05-03T08:46:11.549Z</time></trkpt><trkpt lat="42.2948167" lon="13.748335"><ele>387.0</ele><time>2026-05-03T08:46:12.548Z</time></trkpt><trkpt lat="42.29493" lon="13.7484083"><ele>388.6</ele><time>2026-05-03T08:46:13.549Z</time></trkpt><trkpt lat="42.2950283" lon="13.748465"><ele>390.20000000000005</ele><time>2026-05-03T08:46:14.548Z</time></trkpt><trkpt lat="42.2950917" lon="13.7485167"><ele>391.8</ele><time>2026-05-03T08:46:15.549Z</time></trkpt><trkpt lat="42.2951433" lon="13.7485767"><ele>393.4</ele><time>2026-05-03T08:46:17.549Z</time></trkpt><trkpt lat="42.2952083" lon="13.7486783"><ele>395.0</ele><time>2026-05-03T08:46:21.548Z</time></trkpt><trkpt lat="42.2953333" lon="13.74874"><ele>395.4</ele><time>2026-05-03T08:46:23.549Z</time></trkpt><trkpt lat="42.29542" lon="13.7487833"><ele>395.8</ele><time>2026-05-03T08:46:24.549Z</time></trkpt><trkpt lat="42.2955233" lon="13.7488233"><ele>396.20000000000005</ele><time>2026-05-03T08:46:25.549Z</time></trkpt><trkpt lat="42.29563" lon="13.7488767"><ele>396.6</ele><time>2026-05-03T08:46:26.548Z</time></trkpt><trkpt lat="42.295745" lon="13.74893"><ele>397.0</ele><time>2026-05-03T08:46:27.549Z</time></trkpt><trkpt lat="42.295855" lon="13.748995"><ele>400.0</ele><time>2026-05-03T08:46:28.549Z</time></trkpt><trkpt lat="42.29595" lon="13.749085"><ele>403.0</ele><time>2026-05-03T08:46:29.548Z</time></trkpt><trkpt lat="42.2960417" lon="13.749205"><ele>406.0</ele><time>2026-05-03T08:46:30.549Z</time></trkpt><trkpt lat="42.2961367" lon="13.7493433"><ele>409.0</ele><time>2026-05-03T08:46:31.549Z</time></trkpt><trkpt lat="42.2962367" lon="13.7494617"><ele>411.5</ele><time>2026-05-03T08:46:32.549Z</time></trkpt><trkpt lat="42.296345" lon="13.74955"><ele>414.0</ele><time>2026-05-03T08:46:33.549Z</time></trkpt><trkpt lat="42.2964733" lon="13.7496283"><ele>416.5</ele><time>2026-05-03T08:46:34.549Z</time></trkpt><trkpt lat="42.2966033" lon="13.7497133"><ele>419.0</ele><time>2026-05-03T08:46:35.549Z</time></trkpt><trkpt lat="42.2967233" lon="13.749825"><ele>420.25</ele><time>2026-05-03T08:46:36.549Z</time></trkpt><trkpt lat="42.296825" lon="13.7499317"><ele>421.5</ele><time>2026-05-03T08:46:37.549Z</time></trkpt><trkpt lat="42.2969117" lon="13.7500433"><ele>422.75</ele><time>2026-05-03T08:46:38.548Z</time></trkpt><trkpt lat="42.29698" lon="13.7501483"><ele>424.0</ele><time>2026-05-03T08:46:39.549Z</time></trkpt><trkpt lat="42.2970667" lon="13.750235"><ele>424.2</ele><time>2026-05-03T08:46:40.549Z</time></trkpt><trkpt lat="42.2971683" lon="13.75031"><ele>424.4</ele><time>2026-05-03T08:46:41.548Z</time></trkpt><trkpt lat="42.29727" lon="13.7503667"><ele>424.6</ele><time>2026-05-03T08:46:42.549Z</time></trkpt><trkpt lat="42.29735" lon="13.75041"><ele>424.8</ele><time>2026-05-03T08:46:43.548Z</time></trkpt><trkpt lat="42.2974117" lon="13.75044"><ele>425.0</ele><time>2026-05-03T08:46:44.548Z</time></trkpt><trkpt lat="42.2974867" lon="13.750435"><ele>425.0</ele><time>2026-05-03T08:46:46.549Z</time></trkpt><trkpt lat="42.29755" lon="13.750305"><ele>425.0</ele><time>2026-05-03T08:46:48.548Z</time></trkpt><trkpt lat="42.297595" lon="13.750205"><ele>425.0</ele><time>2026-05-03T08:46:49.548Z</time></trkpt><trkpt lat="42.2976567" lon="13.750125"><ele>425.0</ele><time>2026-05-03T08:46:50.548Z</time></trkpt><trkpt lat="42.2977417" lon="13.7500667"><ele>425.0</ele><time>2026-05-03T08:46:51.548Z</time></trkpt><trkpt lat="42.2978533" lon="13.7500233"><ele>425.75</ele><time>2026-05-03T08:46:52.549Z</time></trkpt><trkpt lat="42.2979783" lon="13.7499983"><ele>426.5</ele><time>2026-05-03T08:46:53.548Z</time></trkpt><trkpt lat="42.2981183" lon="13.74999"><ele>427.25</ele><time>2026-05-03T08:46:54.549Z</time></trkpt><trkpt lat="42.298255" lon="13.7499983"><ele>428.0</ele><time>2026-05-03T08:46:55.549Z</time></trkpt><trkpt lat="42.2983817" lon="13.750005"><ele>428.5</ele><time>2026-05-03T08:46:56.549Z</time></trkpt><trkpt lat="42.2985" lon="13.7500067"><ele>429.0</ele><time>2026-05-03T08:46:57.549Z</time></trkpt><trkpt lat="42.2986333" lon="13.749985"><ele>429.5</ele><time>2026-05-03T08:46:58.549Z</time></trkpt><trkpt lat="42.2987633" lon="13.74996"><ele>430.0</ele><time>2026-05-03T08:46:59.549Z</time></trkpt><trkpt lat="42.2989067" lon="13.7499283"><ele>429.0</ele><time>2026-05-03T08:47:00.548Z</time></trkpt><trkpt lat="42.2990617" lon="13.7498933"><ele>428.0</ele><time>2026-05-03T08:47:01.549Z</time></trkpt><trkpt lat="42.299225" lon="13.7498617"><ele>427.0</ele><time>2026-05-03T08:47:02.549Z</time></trkpt><trkpt lat="42.2993833" lon="13.7498417"><ele>427.0</ele><time>2026-05-03T08:47:03.549Z</time></trkpt><trkpt lat="42.299515" lon="13.7498317"><ele>427.0</ele><time>2026-05-03T08:47:04.549Z</time></trkpt><trkpt lat="42.2996183" lon="13.7498067"><ele>427.0</ele><time>2026-05-03T08:47:05.548Z</time></trkpt><trkpt lat="42.2997217" lon="13.74976"><ele>427.0</ele><time>2026-05-03T08:47:06.548Z</time></trkpt><trkpt lat="42.2998417" lon="13.7497017"><ele>425.6666666666667</ele><time>2026-05-03T08:47:07.549Z</time></trkpt><trkpt lat="42.2999833" lon="13.74964"><ele>424.33333333333337</ele><time>2026-05-03T08:47:08.548Z</time></trkpt><trkpt lat="42.3001433" lon="13.7495817"><ele>423.0</ele><time>2026-05-03T08:47:09.549Z</time></trkpt><trkpt lat="42.3003017" lon="13.7495317"><ele>423.0</ele><time>2026-05-03T08:47:10.549Z</time></trkpt><trkpt lat="42.3004433" lon="13.7494817"><ele>423.0</ele><time>2026-05-03T08:47:11.548Z</time></trkpt><trkpt lat="42.3005983" lon="13.749435"><ele>423.0</ele><time>2026-05-03T08:47:12.549Z</time></trkpt><trkpt lat="42.3007633" lon="13.7493967"><ele>429.66666666666663</ele><time>2026-05-03T08:47:13.549Z</time></trkpt><trkpt lat="42.3009367" lon="13.749355"><ele>436.3333333333333</ele><time>2026-05-03T08:47:14.549Z</time></trkpt><trkpt lat="42.3010833" lon="13.74931"><ele>443.0</ele><time>2026-05-03T08:47:15.549Z</time></trkpt><trkpt lat="42.301215" lon="13.74926"><ele>443.0</ele><time>2026-05-03T08:47:16.549Z</time></trkpt><trkpt lat="42.3013233" lon="13.7491933"><ele>442.99999999999994</ele><time>2026-05-03T08:47:17.549Z</time></trkpt><trkpt lat="42.3014033" lon="13.7491167"><ele>442.99999999999994</ele><time>2026-05-03T08:47:18.548Z</time></trkpt><trkpt lat="42.301465" lon="13.7490217"><ele>443.0</ele><time>2026-05-03T08:47:19.548Z</time></trkpt><trkpt lat="42.301525" lon="13.74891"><ele>443.0</ele><time>2026-05-03T08:47:20.548Z</time></trkpt><trkpt lat="42.301595" lon="13.74877"><ele>440.0</ele><time>2026-05-03T08:47:21.549Z</time></trkpt><trkpt lat="42.3016867" lon="13.74864"><ele>437.0</ele><time>2026-05-03T08:47:22.549Z</time></trkpt><trkpt lat="42.30178" lon="13.74852"><ele>434.0</ele><time>2026-05-03T08:47:23.549Z</time></trkpt><trkpt lat="42.301875" lon="13.7484117"><ele>431.0</ele><time>2026-05-03T08:47:24.548Z</time></trkpt><trkpt lat="42.3019717" lon="13.7483333"><ele>435.75</ele><time>2026-05-03T08:47:25.549Z</time></trkpt><trkpt lat="42.3020817" lon="13.7482583"><ele>440.5</ele><time>2026-05-03T08:47:26.549Z</time></trkpt><trkpt lat="42.3021867" lon="13.7481783"><ele>445.25</ele><time>2026-05-03T08:47:27.549Z</time></trkpt><trkpt lat="42.3023017" lon="13.7480917"><ele>450.0</ele><time>2026-05-03T08:47:28.549Z</time></trkpt><trkpt lat="42.3024317" lon="13.748"><ele>450.0</ele><time>2026-05-03T08:47:29.549Z</time></trkpt><trkpt lat="42.3025567" lon="13.7479267"><ele>450.0</ele><time>2026-05-03T08:47:30.548Z</time></trkpt><trkpt lat="42.30268" lon="13.747875"><ele>450.0</ele><time>2026-05-03T08:47:31.549Z</time></trkpt><trkpt lat="42.3028067" lon="13.747845"><ele>450.0</ele><time>2026-05-03T08:47:32.548Z</time></trkpt><trkpt lat="42.3029433" lon="13.747855"><ele>451.5</ele><time>2026-05-03T08:47:33.549Z</time></trkpt><trkpt lat="42.30309" lon="13.7478683"><ele>453.0</ele><time>2026-05-03T08:47:34.549Z</time></trkpt><trkpt lat="42.30323" lon="13.7478967"><ele>454.5</ele><time>2026-05-03T08:47:35.549Z</time></trkpt><trkpt lat="42.3033583" lon="13.7479267"><ele>456.0</ele><time>2026-05-03T08:47:36.549Z</time></trkpt><trkpt lat="42.3034967" lon="13.7479633"><ele>456.0</ele><time>2026-05-03T08:47:37.549Z</time></trkpt><trkpt lat="42.3036467" lon="13.7479933"><ele>456.0</ele><time>2026-05-03T08:47:38.548Z</time></trkpt><trkpt lat="42.3037867" lon="13.7480217"><ele>456.0</ele><time>2026-05-03T08:47:39.549Z</time></trkpt><trkpt lat="42.3039117" lon="13.7480533"><ele>456.0</ele><time>2026-05-03T08:47:40.548Z</time></trkpt><trkpt lat="42.30403" lon="13.7480883"><ele>460.0</ele><time>2026-05-03T08:47:41.549Z</time></trkpt><trkpt lat="42.3041433" lon="13.7481367"><ele>464.0</ele><time>2026-05-03T08:47:42.548Z</time></trkpt><trkpt lat="42.304275" lon="13.7482033"><ele>468.0</ele><time>2026-05-03T08:47:43.548Z</time></trkpt><trkpt lat="42.30441" lon="13.7482833"><ele>472.0</ele><time>2026-05-03T08:47:44.549Z</time></trkpt><trkpt lat="42.30453" lon="13.74833"><ele>472.0</ele><time>2026-05-03T08:47:45.549Z</time></trkpt><trkpt lat="42.3046467" lon="13.7483633"><ele>472.00000000000006</ele><time>2026-05-03T08:47:46.549Z</time></trkpt><trkpt lat="42.3047533" lon="13.7483667"><ele>472.00000000000006</ele><time>2026-05-03T08:47:47.549Z</time></trkpt><trkpt lat="42.3048633" lon="13.7483533"><ele>472.0</ele><time>2026-05-03T08:47:48.549Z</time></trkpt><trkpt lat="42.3049683" lon="13.74834"><ele>472.0</ele><time>2026-05-03T08:47:49.549Z</time></trkpt><trkpt lat="42.3050617" lon="13.7483317"><ele>474.50000000000006</ele><time>2026-05-03T08:47:50.548Z</time></trkpt><trkpt lat="42.3051317" lon="13.748355"><ele>477.0</ele><time>2026-05-03T08:47:51.549Z</time></trkpt><trkpt lat="42.305195" lon="13.7483983"><ele>479.5</ele><time>2026-05-03T08:47:52.548Z</time></trkpt><trkpt lat="42.3052683" lon="13.748445"><ele>482.0</ele><time>2026-05-03T08:47:53.549Z</time></trkpt><trkpt lat="42.3053633" lon="13.7484683"><ele>484.50000000000006</ele><time>2026-05-03T08:47:54.549Z</time></trkpt><trkpt lat="42.30545" lon="13.74848"><ele>487.0</ele><time>2026-05-03T08:47:55.549Z</time></trkpt><trkpt lat="42.3055267" lon="13.7484783"><ele>488.5</ele><time>2026-05-03T08:47:56.549Z</time></trkpt><trkpt lat="42.3056217" lon="13.7484667"><ele>490.0</ele><time>2026-05-03T08:47:57.549Z</time></trkpt><trkpt lat="42.3057233" lon="13.7484367"><ele>491.5</ele><time>2026-05-03T08:47:58.549Z</time></trkpt><trkpt lat="42.305845" lon="13.74838"><ele>493.0</ele><time>2026-05-03T08:47:59.548Z</time></trkpt><trkpt lat="42.3059667" lon="13.748315"><ele>493.0</ele><time>2026-05-03T08:48:00.549Z</time></trkpt><trkpt lat="42.3060933" lon="13.7482517"><ele>493.0</ele><time>2026-05-03T08:48:01.549Z</time></trkpt><trkpt lat="42.306205" lon="13.74821"><ele>493.0</ele><time>2026-05-03T08:48:02.548Z</time></trkpt><trkpt lat="42.3063033" lon="13.7481683"><ele>493.0</ele><time>2026-05-03T08:48:03.549Z</time></trkpt><trkpt lat="42.306405" lon="13.7481267"><ele>492.25</ele><time>2026-05-03T08:48:04.549Z</time></trkpt><trkpt lat="42.3065217" lon="13.7480717"><ele>491.5</ele><time>2026-05-03T08:48:05.549Z</time></trkpt><trkpt lat="42.3066483" lon="13.7480117"><ele>490.75</ele><time>2026-05-03T08:48:06.548Z</time></trkpt><trkpt lat="42.30676" lon="13.747965"><ele>490.0</ele><time>2026-05-03T08:48:07.548Z</time></trkpt><trkpt lat="42.3068633" lon="13.7479383"><ele>490.0</ele><time>2026-05-03T08:48:08.549Z</time></trkpt><trkpt lat="42.306975" lon="13.7479183"><ele>490.0</ele><time>2026-05-03T08:48:09.548Z</time></trkpt><trkpt lat="42.3070767" lon="13.7479083"><ele>490.0</ele><time>2026-05-03T08:48:10.549Z</time></trkpt><trkpt lat="42.3071733" lon="13.7479033"><ele>490.0</ele><time>2026-05-03T08:48:11.548Z</time></trkpt><trkpt lat="42.307285" lon="13.747905"><ele>490.0</ele><time>2026-05-03T08:48:12.549Z</time></trkpt><trkpt lat="42.3074017" lon="13.7479083"><ele>489.0</ele><time>2026-05-03T08:48:13.549Z</time></trkpt><trkpt lat="42.30752" lon="13.7479033"><ele>488.0</ele><time>2026-05-03T08:48:14.549Z</time></trkpt><trkpt lat="42.307645" lon="13.7478933"><ele>487.0</ele><time>2026-05-03T08:48:15.549Z</time></trkpt><trkpt lat="42.3077767" lon="13.747885"><ele>486.0</ele><time>2026-05-03T08:48:16.548Z</time></trkpt><trkpt lat="42.3079017" lon="13.7478767"><ele>486.0</ele><time>2026-05-03T08:48:17.548Z</time></trkpt><trkpt lat="42.30802" lon="13.7478667"><ele>486.0</ele><time>2026-05-03T08:48:18.549Z</time></trkpt><trkpt lat="42.3081317" lon="13.7478583"><ele>486.0</ele><time>2026-05-03T08:48:19.548Z</time></trkpt><trkpt lat="42.3082267" lon="13.747845"><ele>486.0</ele><time>2026-05-03T08:48:20.548Z</time></trkpt><trkpt lat="42.3083217" lon="13.7478167"><ele>486.0</ele><time>2026-05-03T08:48:21.549Z</time></trkpt><trkpt lat="42.308425" lon="13.7477917"><ele>486.25</ele><time>2026-05-03T08:48:22.548Z</time></trkpt><trkpt lat="42.3085433" lon="13.7477817"><ele>486.5</ele><time>2026-05-03T08:48:23.549Z</time></trkpt><trkpt lat="42.3086733" lon="13.747775"><ele>486.75</ele><time>2026-05-03T08:48:24.549Z</time></trkpt><trkpt lat="42.3087917" lon="13.74776"><ele>487.0</ele><time>2026-05-03T08:48:25.549Z</time></trkpt><trkpt lat="42.308875" lon="13.7477383"><ele>488.6</ele><time>2026-05-03T08:48:26.549Z</time></trkpt><trkpt lat="42.3089667" lon="13.7476583"><ele>490.20000000000005</ele><time>2026-05-03T08:48:28.549Z</time></trkpt><trkpt lat="42.3089867" lon="13.7475717"><ele>491.8</ele><time>2026-05-03T08:48:29.549Z</time></trkpt><trkpt lat="42.3089967" lon="13.74745"><ele>493.4</ele><time>2026-05-03T08:48:30.549Z</time></trkpt><trkpt lat="42.3090283" lon="13.7473283"><ele>495.0</ele><time>2026-05-03T08:48:31.549Z</time></trkpt><trkpt lat="42.3090783" lon="13.7471933"><ele>495.0</ele><time>2026-05-03T08:48:32.549Z</time></trkpt><trkpt lat="42.3091567" lon="13.7470433"><ele>495.0</ele><time>2026-05-03T08:48:33.549Z</time></trkpt><trkpt lat="42.3092483" lon="13.7468817"><ele>495.0</ele><time>2026-05-03T08:48:34.549Z</time></trkpt><trkpt lat="42.3093483" lon="13.7467333"><ele>495.0</ele><time>2026-05-03T08:48:35.549Z</time></trkpt><trkpt lat="42.3094417" lon="13.7465917"><ele>499.2</ele><time>2026-05-03T08:48:36.549Z</time></trkpt><trkpt lat="42.30952" lon="13.7464933"><ele>503.4</ele><time>2026-05-03T08:48:37.549Z</time></trkpt><trkpt lat="42.30959" lon="13.746435"><ele>507.6</ele><time>2026-05-03T08:48:38.549Z</time></trkpt><trkpt lat="42.3097017" lon="13.7464117"><ele>511.8</ele><time>2026-05-03T08:48:40.549Z</time></trkpt><trkpt lat="42.30977" lon="13.7464533"><ele>516.0</ele><time>2026-05-03T08:48:41.548Z</time></trkpt><trkpt lat="42.3098683" lon="13.7465467"><ele>516.0</ele><time>2026-05-03T08:48:42.548Z</time></trkpt><trkpt lat="42.3099733" lon="13.7466417"><ele>516.0</ele><time>2026-05-03T08:48:43.549Z</time></trkpt><trkpt lat="42.3100733" lon="13.7467233"><ele>516.0</ele><time>2026-05-03T08:48:44.549Z</time></trkpt><trkpt lat="42.310185" lon="13.746805"><ele>516.0</ele><time>2026-05-03T08:48:45.549Z</time></trkpt><trkpt lat="42.3103083" lon="13.7468717"><ele>509.0</ele><time>2026-05-03T08:48:46.549Z</time></trkpt><trkpt lat="42.3104417" lon="13.746945"><ele>502.0</ele><time>2026-05-03T08:48:47.549Z</time></trkpt><trkpt lat="42.310585" lon="13.74702"><ele>495.0</ele><time>2026-05-03T08:48:48.549Z</time></trkpt><trkpt lat="42.31073" lon="13.747095"><ele>495.0</ele><time>2026-05-03T08:48:49.548Z</time></trkpt><trkpt lat="42.3108717" lon="13.7471633"><ele>495.0</ele><time>2026-05-03T08:48:50.549Z</time></trkpt><trkpt lat="42.31101" lon="13.74723"><ele>495.0</ele><time>2026-05-03T08:48:51.549Z</time></trkpt><trkpt lat="42.3111467" lon="13.7473017"><ele>495.0</ele><time>2026-05-03T08:48:52.549Z</time></trkpt><trkpt lat="42.3112833" lon="13.7473733"><ele>497.5</ele><time>2026-05-03T08:48:53.549Z</time></trkpt><trkpt lat="42.3114183" lon="13.74744"><ele>500.0</ele><time>2026-05-03T08:48:54.549Z</time></trkpt><trkpt lat="42.3115417" lon="13.7475067"><ele>502.5</ele><time>2026-05-03T08:48:55.549Z</time></trkpt><trkpt lat="42.311665" lon="13.74757"><ele>505.0</ele><time>2026-05-03T08:48:56.548Z</time></trkpt><trkpt lat="42.3117817" lon="13.7476317"><ele>505.0</ele><time>2026-05-03T08:48:57.549Z</time></trkpt><trkpt lat="42.3119033" lon="13.7476933"><ele>505.0</ele><time>2026-05-03T08:48:58.549Z</time></trkpt><trkpt lat="42.312025" lon="13.7477617"><ele>505.0</ele><time>2026-05-03T08:48:59.548Z</time></trkpt><trkpt lat="42.3121617" lon="13.74783"><ele>505.0</ele><time>2026-05-03T08:49:00.549Z</time></trkpt><trkpt lat="42.3123033" lon="13.74789"><ele>497.25</ele><time>2026-05-03T08:49:01.549Z</time></trkpt><trkpt lat="42.3124333" lon="13.7479533"><ele>489.5</ele><time>2026-05-03T08:49:02.549Z</time></trkpt><trkpt lat="42.3125667" lon="13.748015"><ele>481.75</ele><time>2026-05-03T08:49:03.548Z</time></trkpt><trkpt lat="42.312695" lon="13.7480817"><ele>474.0</ele><time>2026-05-03T08:49:04.549Z</time></trkpt><trkpt lat="42.312835" lon="13.7481633"><ele>474.0</ele><time>2026-05-03T08:49:05.549Z</time></trkpt><trkpt lat="42.3129867" lon="13.748245"><ele>474.0</ele><time>2026-05-03T08:49:06.548Z</time></trkpt><trkpt lat="42.3131183" lon="13.7483167"><ele>474.0</ele><time>2026-05-03T08:49:07.548Z</time></trkpt><trkpt lat="42.3132583" lon="13.7483817"><ele>473.5</ele><time>2026-05-03T08:49:08.549Z</time></trkpt><trkpt lat="42.3133883" lon="13.7484433"><ele>473.0</ele><time>2026-05-03T08:49:09.549Z</time></trkpt><trkpt lat="42.3135017" lon="13.7485017"><ele>472.5</ele><time>2026-05-03T08:49:10.549Z</time></trkpt><trkpt lat="42.3136083" lon="13.7485467"><ele>472.0</ele><time>2026-05-03T08:49:11.549Z</time></trkpt><trkpt lat="42.3137" lon="13.7485817"><ele>466.25</ele><time>2026-05-03T08:49:12.548Z</time></trkpt><trkpt lat="42.3137867" lon="13.7485967"><ele>460.5</ele><time>2026-05-03T08:49:13.548Z</time></trkpt><trkpt lat="42.3139" lon="13.7485917"><ele>454.75</ele><time>2026-05-03T08:49:14.549Z</time></trkpt><trkpt lat="42.3140317" lon="13.748585"><ele>449.0</ele><time>2026-05-03T08:49:15.549Z</time></trkpt><trkpt lat="42.31418" lon="13.7485867"><ele>449.0</ele><time>2026-05-03T08:49:16.548Z</time></trkpt><trkpt lat="42.3143483" lon="13.74859"><ele>449.0</ele><time>2026-05-03T08:49:17.549Z</time></trkpt><trkpt lat="42.3145117" lon="13.7485933"><ele>449.0</ele><time>2026-05-03T08:49:18.549Z</time></trkpt><trkpt lat="42.314655" lon="13.7485983"><ele>448.66666666666663</ele><time>2026-05-03T08:49:19.549Z</time></trkpt><trkpt lat="42.3147967" lon="13.7486033"><ele>448.33333333333337</ele><time>2026-05-03T08:49:20.548Z</time></trkpt><trkpt lat="42.31495" lon="13.7486083"><ele>448.0</ele><time>2026-05-03T08:49:21.549Z</time></trkpt><trkpt lat="42.3151083" lon="13.74862"><ele>448.0</ele><time>2026-05-03T08:49:22.549Z</time></trkpt><trkpt lat="42.3152617" lon="13.74862"><ele>448.0</ele><time>2026-05-03T08:49:23.549Z</time></trkpt><trkpt lat="42.3154" lon="13.748625"><ele>448.0</ele><time>2026-05-03T08:49:24.549Z</time></trkpt><trkpt lat="42.3155367" lon="13.7486133"><ele>448.0</ele><time>2026-05-03T08:49:25.549Z</time></trkpt><trkpt lat="42.3156733" lon="13.7486017"><ele>448.75</ele><time>2026-05-03T08:49:26.549Z</time></trkpt><trkpt lat="42.315815" lon="13.748595"><ele>449.5</ele><time>2026-05-03T08:49:27.549Z</time></trkpt><trkpt lat="42.3159517" lon="13.7486117"><ele>450.25</ele><time>2026-05-03T08:49:28.549Z</time></trkpt><trkpt lat="42.316085" lon="13.7486267"><ele>451.0</ele><time>2026-05-03T08:49:29.549Z</time></trkpt><trkpt lat="42.3162017" lon="13.74864"><ele>451.0</ele><time>2026-05-03T08:49:30.548Z</time></trkpt><trkpt lat="42.316305" lon="13.74866"><ele>451.0</ele><time>2026-05-03T08:49:31.548Z</time></trkpt><trkpt lat="42.3163983" lon="13.748695"><ele>451.0</ele><time>2026-05-03T08:49:32.549Z</time></trkpt><trkpt lat="42.3164833" lon="13.74874"><ele>451.0</ele><time>2026-05-03T08:49:33.549Z</time></trkpt><trkpt lat="42.31656" lon="13.7488033"><ele>451.0</ele><time>2026-05-03T08:49:34.549Z</time></trkpt><trkpt lat="42.3166383" lon="13.7488867"><ele>452.20000000000005</ele><time>2026-05-03T08:49:35.548Z</time></trkpt><trkpt lat="42.3167117" lon="13.7489767"><ele>453.40000000000003</ele><time>2026-05-03T08:49:36.549Z</time></trkpt><trkpt lat="42.3167767" lon="13.7490667"><ele>454.6</ele><time>2026-05-03T08:49:37.548Z</time></trkpt><trkpt lat="42.3168517" lon="13.7491567"><ele>455.8</ele><time>2026-05-03T08:49:38.549Z</time></trkpt><trkpt lat="42.3169283" lon="13.7492433"><ele>457.0</ele><time>2026-05-03T08:49:39.548Z</time></trkpt><trkpt lat="42.31699" lon="13.7493117"><ele>457.0</ele><time>2026-05-03T08:49:40.549Z</time></trkpt><trkpt lat="42.317055" lon="13.74937"><ele>457.00000000000006</ele><time>2026-05-03T08:49:41.549Z</time></trkpt><trkpt lat="42.3171333" lon="13.7494317"><ele>457.00000000000006</ele><time>2026-05-03T08:49:42.549Z</time></trkpt><trkpt lat="42.3172233" lon="13.7495017"><ele>457.0</ele><time>2026-05-03T08:49:43.549Z</time></trkpt><trkpt lat="42.3173283" lon="13.7495783"><ele>457.0</ele><time>2026-05-03T08:49:44.549Z</time></trkpt><trkpt lat="42.31744" lon="13.7496667"><ele>456.33333333333337</ele><time>2026-05-03T08:49:45.549Z</time></trkpt><trkpt lat="42.31753" lon="13.7497267"><ele>455.6666666666667</ele><time>2026-05-03T08:49:46.548Z</time></trkpt><trkpt lat="42.3176017" lon="13.7497567"><ele>455.0</ele><time>2026-05-03T08:49:47.549Z</time></trkpt><trkpt lat="42.3176633" lon="13.74978"><ele>454.33333333333337</ele><time>2026-05-03T08:49:48.549Z</time></trkpt><trkpt lat="42.3177733" lon="13.749885"><ele>453.6666666666667</ele><time>2026-05-03T08:49:50.549Z</time></trkpt><trkpt lat="42.3178333" lon="13.7499433"><ele>453.0</ele><time>2026-05-03T08:49:51.549Z</time></trkpt><trkpt lat="42.3179267" lon="13.7500033"><ele>453.0</ele><time>2026-05-03T08:49:52.549Z</time></trkpt><trkpt lat="42.3180233" lon="13.7500733"><ele>452.99999999999994</ele><time>2026-05-03T08:49:53.549Z</time></trkpt><trkpt lat="42.3181017" lon="13.75013"><ele>452.99999999999994</ele><time>2026-05-03T08:49:54.548Z</time></trkpt><trkpt lat="42.318185" lon="13.750205"><ele>453.0</ele><time>2026-05-03T08:49:56.549Z</time></trkpt><trkpt lat="42.3181717" lon="13.7503083"><ele>453.0</ele><time>2026-05-03T08:49:58.549Z</time></trkpt><trkpt lat="42.3180717" lon="13.7504833"><ele>450.5</ele><time>2026-05-03T08:50:00.549Z</time></trkpt><trkpt lat="42.3179967" lon="13.7506117"><ele>448.0</ele><time>2026-05-03T08:50:01.549Z</time></trkpt><trkpt lat="42.31792" lon="13.7507567"><ele>445.5</ele><time>2026-05-03T08:50:02.549Z</time></trkpt><trkpt lat="42.3178567" lon="13.75089"><ele>443.0</ele><time>2026-05-03T08:50:03.548Z</time></trkpt><trkpt lat="42.3178" lon="13.7510133"><ele>441.99999999999994</ele><time>2026-05-03T08:50:04.549Z</time></trkpt><trkpt lat="42.3177483" lon="13.75113"><ele>441.0</ele><time>2026-05-03T08:50:05.548Z</time></trkpt><trkpt lat="42.31771" lon="13.75124"><ele>440.0</ele><time>2026-05-03T08:50:06.548Z</time></trkpt><trkpt lat="42.3176833" lon="13.75133"><ele>439.0</ele><time>2026-05-03T08:50:07.549Z</time></trkpt><trkpt lat="42.3176517" lon="13.7514417"><ele>437.99999999999994</ele><time>2026-05-03T08:50:09.549Z</time></trkpt><trkpt lat="42.3176883" lon="13.7515483"><ele>437.0</ele><time>2026-05-03T08:50:14.549Z</time></trkpt><trkpt lat="42.317755" lon="13.7515617"><ele>437.0</ele><time>2026-05-03T08:50:15.549Z</time></trkpt><trkpt lat="42.3178467" lon="13.7515517"><ele>437.0</ele><time>2026-05-03T08:50:16.549Z</time></trkpt><trkpt lat="42.3179583" lon="13.75152"><ele>437.0</ele><time>2026-05-03T08:50:17.549Z</time></trkpt><trkpt lat="42.3180833" lon="13.751465"><ele>437.0</ele><time>2026-05-03T08:50:18.549Z</time></trkpt><trkpt lat="42.3182067" lon="13.7513983"><ele>437.6</ele><time>2026-05-03T08:50:19.549Z</time></trkpt><trkpt lat="42.3183217" lon="13.7513433"><ele>438.20000000000005</ele><time>2026-05-03T08:50:20.549Z</time></trkpt><trkpt lat="42.3184167" lon="13.7513133"><ele>438.8</ele><time>2026-05-03T08:50:21.549Z</time></trkpt><trkpt lat="42.3184967" lon="13.7512967"><ele>439.4</ele><time>2026-05-03T08:50:22.548Z</time></trkpt><trkpt lat="42.3185767" lon="13.7512933"><ele>440.0</ele><time>2026-05-03T08:50:23.549Z</time></trkpt><trkpt lat="42.3186633" lon="13.7513033"><ele>439.99999999999994</ele><time>2026-05-03T08:50:24.549Z</time></trkpt><trkpt lat="42.318755" lon="13.7513167"><ele>440.0</ele><time>2026-05-03T08:50:25.548Z</time></trkpt><trkpt lat="42.3188567" lon="13.7513267"><ele>440.0</ele><time>2026-05-03T08:50:26.548Z</time></trkpt><trkpt lat="42.3189517" lon="13.7513417"><ele>440.0</ele><time>2026-05-03T08:50:27.549Z</time></trkpt><trkpt lat="42.3190333" lon="13.7513567"><ele>439.99999999999994</ele><time>2026-05-03T08:50:28.549Z</time></trkpt><trkpt lat="42.3191" lon="13.7513667"><ele>440.0</ele><time>2026-05-03T08:50:29.549Z</time></trkpt><trkpt lat="42.31919" lon="13.7514417"><ele>441.2</ele><time>2026-05-03T08:50:31.549Z</time></trkpt><trkpt lat="42.3192167" lon="13.7515217"><ele>442.4</ele><time>2026-05-03T08:50:32.549Z</time></trkpt><trkpt lat="42.3192483" lon="13.75162"><ele>443.6</ele><time>2026-05-03T08:50:33.549Z</time></trkpt><trkpt lat="42.3192883" lon="13.7517367"><ele>444.8</ele><time>2026-05-03T08:50:34.548Z</time></trkpt><trkpt lat="42.3193367" lon="13.7518767"><ele>446.0</ele><time>2026-05-03T08:50:35.549Z</time></trkpt><trkpt lat="42.3194033" lon="13.7520133"><ele>442.75</ele><time>2026-05-03T08:50:36.549Z</time></trkpt><trkpt lat="42.3194717" lon="13.7521467"><ele>439.5</ele><time>2026-05-03T08:50:37.549Z</time></trkpt><trkpt lat="42.3195283" lon="13.7522733"><ele>436.25</ele><time>2026-05-03T08:50:38.549Z</time></trkpt><trkpt lat="42.3195767" lon="13.7524167"><ele>433.0</ele><time>2026-05-03T08:50:39.549Z</time></trkpt><trkpt lat="42.3196217" lon="13.752565"><ele>433.0</ele><time>2026-05-03T08:50:40.549Z</time></trkpt><trkpt lat="42.31966" lon="13.7527033"><ele>433.0</ele><time>2026-05-03T08:50:41.548Z</time></trkpt><trkpt lat="42.3196933" lon="13.752845"><ele>433.0</ele><time>2026-05-03T08:50:42.549Z</time></trkpt><trkpt lat="42.3197333" lon="13.7530017"><ele>433.0</ele><time>2026-05-03T08:50:43.549Z</time></trkpt><trkpt lat="42.3197867" lon="13.75318"><ele>432.5</ele><time>2026-05-03T08:50:44.549Z</time></trkpt><trkpt lat="42.3198333" lon="13.753355"><ele>432.0</ele><time>2026-05-03T08:50:45.549Z</time></trkpt><trkpt lat="42.31988" lon="13.7535233"><ele>431.5</ele><time>2026-05-03T08:50:46.549Z</time></trkpt><trkpt lat="42.31992" lon="13.75368"><ele>431.0</ele><time>2026-05-03T08:50:47.549Z</time></trkpt><trkpt lat="42.3199567" lon="13.7538383"><ele>431.0</ele><time>2026-05-03T08:50:48.549Z</time></trkpt><trkpt lat="42.3199983" lon="13.753985"><ele>431.0</ele><time>2026-05-03T08:50:49.549Z</time></trkpt><trkpt lat="42.3200383" lon="13.7541183"><ele>431.0</ele><time>2026-05-03T08:50:50.549Z</time></trkpt><trkpt lat="42.32008" lon="13.7542383"><ele>431.0</ele><time>2026-05-03T08:50:51.548Z</time></trkpt><trkpt lat="42.32014" lon="13.7543633"><ele>431.0</ele><time>2026-05-03T08:50:52.549Z</time></trkpt><trkpt lat="42.3202067" lon="13.754495"><ele>430.5</ele><time>2026-05-03T08:50:53.549Z</time></trkpt><trkpt lat="42.3202767" lon="13.7546367"><ele>430.0</ele><time>2026-05-03T08:50:54.549Z</time></trkpt><trkpt lat="42.3203317" lon="13.75479"><ele>429.5</ele><time>2026-05-03T08:50:55.549Z</time></trkpt><trkpt lat="42.3203867" lon="13.75493"><ele>429.0</ele><time>2026-05-03T08:50:56.549Z</time></trkpt><trkpt lat="42.3204217" lon="13.7550617"><ele>429.0</ele><time>2026-05-03T08:50:57.548Z</time></trkpt><trkpt lat="42.3204533" lon="13.755175"><ele>429.0</ele><time>2026-05-03T08:50:58.549Z</time></trkpt><trkpt lat="42.320495" lon="13.7552833"><ele>429.0</ele><time>2026-05-03T08:50:59.549Z</time></trkpt><trkpt lat="42.3205467" lon="13.7553783"><ele>429.0</ele><time>2026-05-03T08:51:00.549Z</time></trkpt><trkpt lat="42.32061" lon="13.7554717"><ele>429.0</ele><time>2026-05-03T08:51:01.549Z</time></trkpt><trkpt lat="42.320695" lon="13.7555633"><ele>431.0</ele><time>2026-05-03T08:51:02.548Z</time></trkpt><trkpt lat="42.3207933" lon="13.7556583"><ele>433.0</ele><time>2026-05-03T08:51:03.549Z</time></trkpt><trkpt lat="42.320895" lon="13.7557367"><ele>435.0</ele><time>2026-05-03T08:51:04.548Z</time></trkpt><trkpt lat="42.321" lon="13.7558183"><ele>437.0</ele><time>2026-05-03T08:51:05.549Z</time></trkpt><trkpt lat="42.3210933" lon="13.7559133"><ele>437.0</ele><time>2026-05-03T08:51:06.548Z</time></trkpt><trkpt lat="42.3211833" lon="13.75602"><ele>437.0</ele><time>2026-05-03T08:51:07.549Z</time></trkpt><trkpt lat="42.3212633" lon="13.75615"><ele>437.0</ele><time>2026-05-03T08:51:08.549Z</time></trkpt><trkpt lat="42.3213417" lon="13.75627"><ele>437.0</ele><time>2026-05-03T08:51:09.548Z</time></trkpt><trkpt lat="42.3214317" lon="13.75637"><ele>439.5</ele><time>2026-05-03T08:51:10.549Z</time></trkpt><trkpt lat="42.3215217" lon="13.756465"><ele>442.0</ele><time>2026-05-03T08:51:11.548Z</time></trkpt><trkpt lat="42.3216233" lon="13.75656"><ele>444.5</ele><time>2026-05-03T08:51:12.548Z</time></trkpt><trkpt lat="42.3217367" lon="13.75667"><ele>447.0</ele><time>2026-05-03T08:51:13.549Z</time></trkpt><trkpt lat="42.321845" lon="13.7567817"><ele>447.0</ele><time>2026-05-03T08:51:14.549Z</time></trkpt><trkpt lat="42.321955" lon="13.7568667"><ele>447.0</ele><time>2026-05-03T08:51:15.549Z</time></trkpt><trkpt lat="42.3220683" lon="13.75692"><ele>447.0</ele><time>2026-05-03T08:51:16.549Z</time></trkpt><trkpt lat="42.32217" lon="13.7569683"><ele>447.0</ele><time>2026-05-03T08:51:17.549Z</time></trkpt><trkpt lat="42.322255" lon="13.75705"><ele>449.75</ele><time>2026-05-03T08:51:18.549Z</time></trkpt><trkpt lat="42.322335" lon="13.757155"><ele>452.5</ele><time>2026-05-03T08:51:19.548Z</time></trkpt><trkpt lat="42.3224183" lon="13.7572717"><ele>455.25</ele><time>2026-05-03T08:51:20.549Z</time></trkpt><trkpt lat="42.322495" lon="13.757405"><ele>458.0</ele><time>2026-05-03T08:51:21.549Z</time></trkpt><trkpt lat="42.3225583" lon="13.75755"><ele>458.0</ele><time>2026-05-03T08:51:22.549Z</time></trkpt><trkpt lat="42.3226133" lon="13.7577017"><ele>457.99999999999994</ele><time>2026-05-03T08:51:23.548Z</time></trkpt><trkpt lat="42.3226567" lon="13.757855"><ele>457.99999999999994</ele><time>2026-05-03T08:51:24.549Z</time></trkpt><trkpt lat="42.322685" lon="13.75798"><ele>458.0</ele><time>2026-05-03T08:51:25.549Z</time></trkpt><trkpt lat="42.3227167" lon="13.7580733"><ele>458.0</ele><time>2026-05-03T08:51:26.549Z</time></trkpt><trkpt lat="42.322775" lon="13.7581617"><ele>458.49999999999994</ele><time>2026-05-03T08:51:28.549Z</time></trkpt><trkpt lat="42.322875" lon="13.7582083"><ele>459.0</ele><time>2026-05-03T08:51:30.548Z</time></trkpt><trkpt lat="42.3229517" lon="13.7582133"><ele>459.5</ele><time>2026-05-03T08:51:31.549Z</time></trkpt><trkpt lat="42.3230367" lon="13.75823"><ele>460.0</ele><time>2026-05-03T08:51:32.549Z</time></trkpt><trkpt lat="42.3231233" lon="13.758265"><ele>460.49999999999994</ele><time>2026-05-03T08:51:33.549Z</time></trkpt><trkpt lat="42.3232033" lon="13.7583"><ele>461.0</ele><time>2026-05-03T08:51:34.549Z</time></trkpt><trkpt lat="42.3232883" lon="13.7583467"><ele>463.0</ele><time>2026-05-03T08:51:35.549Z</time></trkpt><trkpt lat="42.3233767" lon="13.758395"><ele>465.0</ele><time>2026-05-03T08:51:36.549Z</time></trkpt><trkpt lat="42.3234683" lon="13.758435"><ele>467.0</ele><time>2026-05-03T08:51:37.549Z</time></trkpt><trkpt lat="42.3235583" lon="13.758485"><ele>469.0</ele><time>2026-05-03T08:51:38.548Z</time></trkpt><trkpt lat="42.323645" lon="13.75854"><ele>471.0</ele><time>2026-05-03T08:51:39.548Z</time></trkpt><trkpt lat="42.3237267" lon="13.758615"><ele>471.5</ele><time>2026-05-03T08:51:40.549Z</time></trkpt><trkpt lat="42.323795" lon="13.7587"><ele>472.0</ele><time>2026-05-03T08:51:41.549Z</time></trkpt><trkpt lat="42.3238467" lon="13.7587983"><ele>472.5</ele><time>2026-05-03T08:51:42.549Z</time></trkpt><trkpt lat="42.3238867" lon="13.7589033"><ele>473.0</ele><time>2026-05-03T08:51:43.548Z</time></trkpt><trkpt lat="42.3239167" lon="13.7590183"><ele>473.5</ele><time>2026-05-03T08:51:44.549Z</time></trkpt><trkpt lat="42.323935" lon="13.7591283"><ele>474.0</ele><time>2026-05-03T08:51:45.548Z</time></trkpt><trkpt lat="42.32395" lon="13.759225"><ele>475.0</ele><time>2026-05-03T08:51:46.549Z</time></trkpt><trkpt lat="42.3239683" lon="13.7593083"><ele>476.0</ele><time>2026-05-03T08:51:47.548Z</time></trkpt><trkpt lat="42.3239817" lon="13.759395"><ele>477.0</ele><time>2026-05-03T08:51:48.548Z</time></trkpt><trkpt lat="42.324045" lon="13.7594967"><ele>478.0</ele><time>2026-05-03T08:51:50.548Z</time></trkpt><trkpt lat="42.3241133" lon="13.75952"><ele>479.0</ele><time>2026-05-03T08:51:51.548Z</time></trkpt><trkpt lat="42.3242067" lon="13.75952"><ele>480.0</ele><time>2026-05-03T08:51:52.548Z</time></trkpt><trkpt lat="42.324305" lon="13.759505"><ele>481.1666666666667</ele><time>2026-05-03T08:51:53.548Z</time></trkpt><trkpt lat="42.324395" lon="13.7595067"><ele>482.33333333333337</ele><time>2026-05-03T08:51:54.548Z</time></trkpt><trkpt lat="42.3244783" lon="13.7595217"><ele>483.5</ele><time>2026-05-03T08:51:55.547Z</time></trkpt><trkpt lat="42.324555" lon="13.7595167"><ele>484.6666666666667</ele><time>2026-05-03T08:51:56.547Z</time></trkpt><trkpt lat="42.3246283" lon="13.7594867"><ele>485.83333333333337</ele><time>2026-05-03T08:51:57.547Z</time></trkpt><trkpt lat="42.3246883" lon="13.759435"><ele>487.0</ele><time>2026-05-03T08:51:58.547Z</time></trkpt><trkpt lat="42.3247517" lon="13.759355"><ele>487.8</ele><time>2026-05-03T08:51:59.548Z</time></trkpt><trkpt lat="42.3248183" lon="13.7592433"><ele>488.6</ele><time>2026-05-03T08:52:00.548Z</time></trkpt><trkpt lat="42.32487" lon="13.75911"><ele>489.40000000000003</ele><time>2026-05-03T08:52:01.548Z</time></trkpt><trkpt lat="42.3249017" lon="13.758995"><ele>490.20000000000005</ele><time>2026-05-03T08:52:02.548Z</time></trkpt><trkpt lat="42.3249183" lon="13.75891"><ele>491.0</ele><time>2026-05-03T08:52:03.547Z</time></trkpt><trkpt lat="42.3249517" lon="13.75881"><ele>490.99999999999994</ele><time>2026-05-03T08:52:05.548Z</time></trkpt><trkpt lat="42.3249983" lon="13.7588783"><ele>491.0</ele><time>2026-05-03T08:52:08.548Z</time></trkpt><trkpt lat="42.3249783" lon="13.7590517"><ele>491.0</ele><time>2026-05-03T08:52:10.548Z</time></trkpt><trkpt lat="42.3249567" lon="13.7591667"><ele>491.0</ele><time>2026-05-03T08:52:11.548Z</time></trkpt><trkpt lat="42.3249517" lon="13.75928"><ele>490.99999999999994</ele><time>2026-05-03T08:52:12.548Z</time></trkpt><trkpt lat="42.324945" lon="13.759365"><ele>491.0</ele><time>2026-05-03T08:52:13.547Z</time></trkpt><trkpt lat="42.32497" lon="13.7595033"><ele>491.57142857142856</ele><time>2026-05-03T08:52:15.547Z</time></trkpt><trkpt lat="42.3249917" lon="13.7595867"><ele>492.1428571428571</ele><time>2026-05-03T08:52:17.548Z</time></trkpt><trkpt lat="42.3249683" lon="13.75968"><ele>492.71428571428567</ele><time>2026-05-03T08:52:21.548Z</time></trkpt><trkpt lat="42.325045" lon="13.7597117"><ele>493.2857142857142</ele><time>2026-05-03T08:52:29.548Z</time></trkpt><trkpt lat="42.3251167" lon="13.7597017"><ele>493.85714285714283</ele><time>2026-05-03T08:52:33.548Z</time></trkpt><trkpt lat="42.3251033" lon="13.7596133"><ele>494.42857142857133</ele><time>2026-05-03T09:13:53.543Z</time></trkpt><trkpt lat="42.3251733" lon="13.7595933"><ele>494.99999999999994</ele><time>2026-05-03T09:13:55.542Z</time></trkpt><trkpt lat="42.3252633" lon="13.7597083"><ele>495.0</ele><time>2026-05-03T09:13:57.543Z</time></trkpt><trkpt lat="42.3253183" lon="13.7598083"><ele>495.0</ele><time>2026-05-03T09:13:58.543Z</time></trkpt><trkpt lat="42.3253783" lon="13.75992"><ele>495.0</ele><time>2026-05-03T09:13:59.543Z</time></trkpt><trkpt lat="42.3254333" lon="13.7600183"><ele>495.0</ele><time>2026-05-03T09:14:00.543Z</time></trkpt><trkpt lat="42.3254767" lon="13.7601033"><ele>495.0</ele><time>2026-05-03T09:14:01.543Z</time></trkpt><trkpt lat="42.3255133" lon="13.760195"><ele>495.0</ele><time>2026-05-03T09:14:02.543Z</time></trkpt><trkpt lat="42.3255483" lon="13.7602667"><ele>495.8333333333333</ele><time>2026-05-03T09:14:03.542Z</time></trkpt><trkpt lat="42.3256" lon="13.76038"><ele>496.66666666666663</ele><time>2026-05-03T09:14:05.543Z</time></trkpt><trkpt lat="42.3255683" lon="13.76046"><ele>497.5</ele><time>2026-05-03T09:14:07.542Z</time></trkpt><trkpt lat="42.3255067" lon="13.76049"><ele>498.3333333333333</ele><time>2026-05-03T09:14:08.543Z</time></trkpt><trkpt lat="42.3254217" lon="13.7605117"><ele>499.16666666666663</ele><time>2026-05-03T09:14:09.543Z</time></trkpt><trkpt lat="42.3253083" lon="13.76051"><ele>500.0</ele><time>2026-05-03T09:14:10.543Z</time></trkpt><trkpt lat="42.3252017" lon="13.7604983"><ele>499.99999999999994</ele><time>2026-05-03T09:14:11.542Z</time></trkpt><trkpt lat="42.325105" lon="13.760485"><ele>500.0</ele><time>2026-05-03T09:14:12.543Z</time></trkpt><trkpt lat="42.32503" lon="13.7604933"><ele>500.0</ele><time>2026-05-03T09:14:13.542Z</time></trkpt><trkpt lat="42.32496" lon="13.76053"><ele>500.0</ele><time>2026-05-03T09:14:14.542Z</time></trkpt><trkpt lat="42.3249017" lon="13.7605933"><ele>499.99999999999994</ele><time>2026-05-03T09:14:15.543Z</time></trkpt><trkpt lat="42.3248217" lon="13.7607"><ele>500.0</ele><time>2026-05-03T09:14:16.543Z</time></trkpt><trkpt lat="42.32472" lon="13.7607983"><ele>500.0</ele><time>2026-05-03T09:14:17.543Z</time></trkpt><trkpt lat="42.3245933" lon="13.7608583"><ele>500.0</ele><time>2026-05-03T09:14:18.543Z</time></trkpt><trkpt lat="42.32445" lon="13.7608767"><ele>500.0</ele><time>2026-05-03T09:14:19.543Z</time></trkpt><trkpt lat="42.3242933" lon="13.7608567"><ele>500.0</ele><time>2026-05-03T09:14:20.543Z</time></trkpt><trkpt lat="42.3241317" lon="13.7608417"><ele>500.0</ele><time>2026-05-03T09:14:21.543Z</time></trkpt><trkpt lat="42.3239967" lon="13.7608233"><ele>500.0</ele><time>2026-05-03T09:14:22.543Z</time></trkpt><trkpt lat="42.3238517" lon="13.7608233"><ele>500.0</ele><time>2026-05-03T09:14:23.542Z</time></trkpt><trkpt lat="42.3237183" lon="13.7608167"><ele>500.0</ele><time>2026-05-03T09:14:24.543Z</time></trkpt><trkpt lat="42.3235817" lon="13.760815"><ele>499.75</ele><time>2026-05-03T09:14:25.543Z</time></trkpt><trkpt lat="42.3234583" lon="13.7608183"><ele>499.5</ele><time>2026-05-03T09:14:26.542Z</time></trkpt><trkpt lat="42.3233367" lon="13.7608383"><ele>499.25</ele><time>2026-05-03T09:14:27.543Z</time></trkpt><trkpt lat="42.3232183" lon="13.7608617"><ele>499.0</ele><time>2026-05-03T09:14:28.542Z</time></trkpt><trkpt lat="42.3231" lon="13.7608933"><ele>498.5</ele><time>2026-05-03T09:14:29.543Z</time></trkpt><trkpt lat="42.3229883" lon="13.76095"><ele>498.0</ele><time>2026-05-03T09:14:30.542Z</time></trkpt><trkpt lat="42.3228733" lon="13.7610233"><ele>497.5</ele><time>2026-05-03T09:14:31.542Z</time></trkpt><trkpt lat="42.32276" lon="13.7611133"><ele>497.0</ele><time>2026-05-03T09:14:32.542Z</time></trkpt><trkpt lat="42.3226317" lon="13.7612033"><ele>497.0</ele><time>2026-05-03T09:14:33.542Z</time></trkpt><trkpt lat="42.32251" lon="13.761285"><ele>497.0</ele><time>2026-05-03T09:14:34.543Z</time></trkpt><trkpt lat="42.3223883" lon="13.7613717"><ele>497.0</ele><time>2026-05-03T09:14:35.542Z</time></trkpt><trkpt lat="42.322275" lon="13.761445"><ele>497.0</ele><time>2026-05-03T09:14:36.543Z</time></trkpt><trkpt lat="42.32216" lon="13.7615233"><ele>494.25</ele><time>2026-05-03T09:14:37.543Z</time></trkpt><trkpt lat="42.3220367" lon="13.76161"><ele>491.5</ele><time>2026-05-03T09:14:38.543Z</time></trkpt><trkpt lat="42.32192" lon="13.7616883"><ele>488.75</ele><time>2026-05-03T09:14:39.542Z</time></trkpt><trkpt lat="42.3218167" lon="13.7617517"><ele>486.0</ele><time>2026-05-03T09:14:40.543Z</time></trkpt><trkpt lat="42.3217417" lon="13.76178"><ele>486.0</ele><time>2026-05-03T09:14:41.543Z</time></trkpt><trkpt lat="42.3216767" lon="13.76179"><ele>486.0</ele><time>2026-05-03T09:14:42.542Z</time></trkpt><trkpt lat="42.32156" lon="13.7617033"><ele>486.0</ele><time>2026-05-03T09:14:44.543Z</time></trkpt><trkpt lat="42.3214917" lon="13.761595"><ele>486.0</ele><time>2026-05-03T09:14:45.542Z</time></trkpt><trkpt lat="42.3214467" lon="13.7614833"><ele>486.0</ele><time>2026-05-03T09:14:46.542Z</time></trkpt><trkpt lat="42.321415" lon="13.761375"><ele>486.0</ele><time>2026-05-03T09:14:47.543Z</time></trkpt><trkpt lat="42.3214033" lon="13.76126"><ele>486.0</ele><time>2026-05-03T09:14:48.541Z</time></trkpt><trkpt lat="42.321395" lon="13.7611467"><ele>486.0</ele><time>2026-05-03T09:14:49.542Z</time></trkpt><trkpt lat="42.321385" lon="13.7610383"><ele>486.0</ele><time>2026-05-03T09:14:50.541Z</time></trkpt><trkpt lat="42.3213683" lon="13.7609417"><ele>486.0</ele><time>2026-05-03T09:14:51.542Z</time></trkpt><trkpt lat="42.3213517" lon="13.7608367"><ele>486.0</ele><time>2026-05-03T09:14:52.542Z</time></trkpt><trkpt lat="42.3213333" lon="13.7607367"><ele>483.3333333333333</ele><time>2026-05-03T09:14:53.541Z</time></trkpt><trkpt lat="42.3213083" lon="13.7606517"><ele>480.66666666666663</ele><time>2026-05-03T09:14:54.542Z</time></trkpt><trkpt lat="42.32129" lon="13.7605633"><ele>478.0</ele><time>2026-05-03T09:14:55.542Z</time></trkpt><trkpt lat="42.321255" lon="13.7604517"><ele>475.3333333333333</ele><time>2026-05-03T09:14:57.542Z</time></trkpt><trkpt lat="42.321185" lon="13.76041"><ele>472.66666666666663</ele><time>2026-05-03T09:15:00.541Z</time></trkpt><trkpt lat="42.3210733" lon="13.7604633"><ele>470.0</ele><time>2026-05-03T09:15:02.541Z</time></trkpt><trkpt lat="42.320985" lon="13.7605217"><ele>470.0</ele><time>2026-05-03T09:15:03.542Z</time></trkpt><trkpt lat="42.3208833" lon="13.7605817"><ele>470.0</ele><time>2026-05-03T09:15:04.541Z</time></trkpt><trkpt lat="42.3207783" lon="13.7606583"><ele>470.0</ele><time>2026-05-03T09:15:05.542Z</time></trkpt><trkpt lat="42.320685" lon="13.7607233"><ele>470.0</ele><time>2026-05-03T09:15:06.542Z</time></trkpt><trkpt lat="42.3205933" lon="13.76079"><ele>470.0</ele><time>2026-05-03T09:15:07.542Z</time></trkpt><trkpt lat="42.3205017" lon="13.76085"><ele>469.0</ele><time>2026-05-03T09:15:08.542Z</time></trkpt><trkpt lat="42.3204067" lon="13.7609383"><ele>468.0</ele><time>2026-05-03T09:15:09.542Z</time></trkpt><trkpt lat="42.3203167" lon="13.7610283"><ele>467.0</ele><time>2026-05-03T09:15:10.542Z</time></trkpt><trkpt lat="42.3202267" lon="13.7611283"><ele>466.0</ele><time>2026-05-03T09:15:11.542Z</time></trkpt><trkpt lat="42.3201317" lon="13.761255"><ele>466.0</ele><time>2026-05-03T09:15:12.542Z</time></trkpt><trkpt lat="42.3200333" lon="13.76137"><ele>466.0</ele><time>2026-05-03T09:15:13.541Z</time></trkpt><trkpt lat="42.3199317" lon="13.7614767"><ele>466.0</ele><time>2026-05-03T09:15:14.542Z</time></trkpt><trkpt lat="42.3198333" lon="13.761565"><ele>466.0</ele><time>2026-05-03T09:15:15.542Z</time></trkpt><trkpt lat="42.3197367" lon="13.7616517"><ele>465.6</ele><time>2026-05-03T09:15:16.542Z</time></trkpt><trkpt lat="42.319645" lon="13.76173"><ele>465.20000000000005</ele><time>2026-05-03T09:15:17.542Z</time></trkpt><trkpt lat="42.31955" lon="13.7618017"><ele>464.79999999999995</ele><time>2026-05-03T09:15:18.542Z</time></trkpt><trkpt lat="42.319455" lon="13.7618717"><ele>464.4</ele><time>2026-05-03T09:15:19.541Z</time></trkpt><trkpt lat="42.3193583" lon="13.7619433"><ele>464.0</ele><time>2026-05-03T09:15:20.541Z</time></trkpt><trkpt lat="42.31926" lon="13.7620217"><ele>464.0</ele><time>2026-05-03T09:15:21.542Z</time></trkpt><trkpt lat="42.3191533" lon="13.7621017"><ele>464.0</ele><time>2026-05-03T09:15:22.541Z</time></trkpt><trkpt lat="42.31903" lon="13.7621917"><ele>464.0</ele><time>2026-05-03T09:15:23.541Z</time></trkpt><trkpt lat="42.3189133" lon="13.7622783"><ele>464.0</ele><time>2026-05-03T09:15:24.542Z</time></trkpt><trkpt lat="42.3188033" lon="13.7623683"><ele>463.75</ele><time>2026-05-03T09:15:25.542Z</time></trkpt><trkpt lat="42.3186983" lon="13.7624467"><ele>463.5</ele><time>2026-05-03T09:15:26.541Z</time></trkpt><trkpt lat="42.3185983" lon="13.7625367"><ele>463.25</ele><time>2026-05-03T09:15:27.542Z</time></trkpt><trkpt lat="42.3184933" lon="13.7626267"><ele>463.0</ele><time>2026-05-03T09:15:28.541Z</time></trkpt><trkpt lat="42.3183883" lon="13.7627233"><ele>463.0</ele><time>2026-05-03T09:15:29.542Z</time></trkpt><trkpt lat="42.3182833" lon="13.7628133"><ele>463.0</ele><time>2026-05-03T09:15:30.542Z</time></trkpt><trkpt lat="42.3181783" lon="13.7629133"><ele>463.0</ele><time>2026-05-03T09:15:31.541Z</time></trkpt><trkpt lat="42.3180683" lon="13.7630133"><ele>463.0</ele><time>2026-05-03T09:15:32.542Z</time></trkpt><trkpt lat="42.3179567" lon="13.7631117"><ele>462.0</ele><time>2026-05-03T09:15:33.542Z</time></trkpt><trkpt lat="42.3178533" lon="13.76321"><ele>461.0</ele><time>2026-05-03T09:15:34.542Z</time></trkpt><trkpt lat="42.31775" lon="13.7633133"><ele>460.0</ele><time>2026-05-03T09:15:35.542Z</time></trkpt><trkpt lat="42.31765" lon="13.7634167"><ele>459.0</ele><time>2026-05-03T09:15:36.542Z</time></trkpt><trkpt lat="42.3175633" lon="13.763535"><ele>459.0</ele><time>2026-05-03T09:15:37.542Z</time></trkpt><trkpt lat="42.3174833" lon="13.7636883"><ele>459.0</ele><time>2026-05-03T09:15:38.541Z</time></trkpt><trkpt lat="42.3173917" lon="13.763855"><ele>459.0</ele><time>2026-05-03T09:15:39.541Z</time></trkpt><trkpt lat="42.31729" lon="13.76404"><ele>457.33333333333337</ele><time>2026-05-03T09:15:40.541Z</time></trkpt><trkpt lat="42.3171833" lon="13.7642217"><ele>455.6666666666667</ele><time>2026-05-03T09:15:41.541Z</time></trkpt><trkpt lat="42.3170683" lon="13.7644"><ele>454.0</ele><time>2026-05-03T09:15:42.541Z</time></trkpt><trkpt lat="42.3169483" lon="13.7645767"><ele>454.0</ele><time>2026-05-03T09:15:43.541Z</time></trkpt><trkpt lat="42.3168267" lon="13.764745"><ele>454.0</ele><time>2026-05-03T09:15:44.542Z</time></trkpt><trkpt lat="42.3166933" lon="13.7649083"><ele>454.0</ele><time>2026-05-03T09:15:45.541Z</time></trkpt><trkpt lat="42.316545" lon="13.7650583"><ele>455.0</ele><time>2026-05-03T09:15:46.542Z</time></trkpt><trkpt lat="42.3163967" lon="13.7651833"><ele>456.0</ele><time>2026-05-03T09:15:47.542Z</time></trkpt><trkpt lat="42.31625" lon="13.7652883"><ele>457.0</ele><time>2026-05-03T09:15:48.541Z</time></trkpt><trkpt lat="42.3161167" lon="13.7654033"><ele>457.0</ele><time>2026-05-03T09:15:49.541Z</time></trkpt><trkpt lat="42.31599" lon="13.76553"><ele>457.0</ele><time>2026-05-03T09:15:50.541Z</time></trkpt><trkpt lat="42.3158783" lon="13.7656867"><ele>457.0</ele><time>2026-05-03T09:15:51.542Z</time></trkpt><trkpt lat="42.31578" lon="13.76585"><ele>457.0</ele><time>2026-05-03T09:15:52.541Z</time></trkpt><trkpt lat="42.3157067" lon="13.7660267"><ele>457.0</ele><time>2026-05-03T09:15:53.542Z</time></trkpt><trkpt lat="42.31562" lon="13.76621"><ele>457.0</ele><time>2026-05-03T09:15:54.542Z</time></trkpt><trkpt lat="42.3155267" lon="13.76638"><ele>458.33333333333337</ele><time>2026-05-03T09:15:55.542Z</time></trkpt><trkpt lat="42.31542" lon="13.7665433"><ele>459.66666666666663</ele><time>2026-05-03T09:15:56.541Z</time></trkpt><trkpt lat="42.315305" lon="13.7666833"><ele>461.0</ele><time>2026-05-03T09:15:57.542Z</time></trkpt><trkpt lat="42.3151717" lon="13.7668117"><ele>465.3333333333333</ele><time>2026-05-03T09:15:58.542Z</time></trkpt><trkpt lat="42.3150333" lon="13.766935"><ele>469.66666666666663</ele><time>2026-05-03T09:15:59.542Z</time></trkpt><trkpt lat="42.3149067" lon="13.7670633"><ele>474.0</ele><time>2026-05-03T09:16:00.542Z</time></trkpt><trkpt lat="42.3147933" lon="13.7671933"><ele>472.0</ele><time>2026-05-03T09:16:01.542Z</time></trkpt><trkpt lat="42.3147067" lon="13.7673083"><ele>470.0</ele><time>2026-05-03T09:16:02.542Z</time></trkpt><trkpt lat="42.31463" lon="13.7674217"><ele>468.0</ele><time>2026-05-03T09:16:03.542Z</time></trkpt><trkpt lat="42.31456" lon="13.7675183"><ele>466.0</ele><time>2026-05-03T09:16:04.542Z</time></trkpt><trkpt lat="42.3144983" lon="13.7675883"><ele>464.0</ele><time>2026-05-03T09:16:05.541Z</time></trkpt><trkpt lat="42.3144333" lon="13.7676367"><ele>464.0</ele><time>2026-05-03T09:16:06.541Z</time></trkpt><trkpt lat="42.3143533" lon="13.767675"><ele>464.0</ele><time>2026-05-03T09:16:07.542Z</time></trkpt><trkpt lat="42.3142583" lon="13.7677033"><ele>464.0</ele><time>2026-05-03T09:16:08.542Z</time></trkpt><trkpt lat="42.3141717" lon="13.76775"><ele>464.0</ele><time>2026-05-03T09:16:09.541Z</time></trkpt><trkpt lat="42.31409" lon="13.76782"><ele>464.0</ele><time>2026-05-03T09:16:10.541Z</time></trkpt><trkpt lat="42.3140083" lon="13.7679167"><ele>465.25</ele><time>2026-05-03T09:16:11.542Z</time></trkpt><trkpt lat="42.3139383" lon="13.7680383"><ele>466.5</ele><time>2026-05-03T09:16:12.542Z</time></trkpt><trkpt lat="42.3138817" lon="13.7681733"><ele>467.75</ele><time>2026-05-03T09:16:13.542Z</time></trkpt><trkpt lat="42.313825" lon="13.7683267"><ele>469.0</ele><time>2026-05-03T09:16:14.542Z</time></trkpt><trkpt lat="42.31376" lon="13.7684767"><ele>463.0</ele><time>2026-05-03T09:16:15.541Z</time></trkpt><trkpt lat="42.3136917" lon="13.7686183"><ele>457.0</ele><time>2026-05-03T09:16:16.542Z</time></trkpt><trkpt lat="42.3136217" lon="13.768765"><ele>451.0</ele><time>2026-05-03T09:16:17.542Z</time></trkpt><trkpt lat="42.3135583" lon="13.768915"><ele>445.0</ele><time>2026-05-03T09:16:18.542Z</time></trkpt><trkpt lat="42.3134983" lon="13.7690717"><ele>445.0</ele><time>2026-05-03T09:16:19.541Z</time></trkpt><trkpt lat="42.3134333" lon="13.7692283"><ele>445.0</ele><time>2026-05-03T09:16:20.541Z</time></trkpt><trkpt lat="42.3133583" lon="13.7693767"><ele>445.0</ele><time>2026-05-03T09:16:21.541Z</time></trkpt><trkpt lat="42.3132817" lon="13.7695233"><ele>445.0</ele><time>2026-05-03T09:16:22.542Z</time></trkpt><trkpt lat="42.3132033" lon="13.7696567"><ele>445.5</ele><time>2026-05-03T09:16:23.542Z</time></trkpt><trkpt lat="42.3131117" lon="13.7697733"><ele>446.0</ele><time>2026-05-03T09:16:24.542Z</time></trkpt><trkpt lat="42.3130033" lon="13.769865"><ele>446.5</ele><time>2026-05-03T09:16:25.541Z</time></trkpt><trkpt lat="42.31287" lon="13.7699517"><ele>447.0</ele><time>2026-05-03T09:16:26.542Z</time></trkpt><trkpt lat="42.3127383" lon="13.7700283"><ele>443.25</ele><time>2026-05-03T09:16:27.542Z</time></trkpt><trkpt lat="42.31262" lon="13.77009"><ele>439.5</ele><time>2026-05-03T09:16:28.542Z</time></trkpt><trkpt lat="42.3124833" lon="13.7701317"><ele>435.75</ele><time>2026-05-03T09:16:29.541Z</time></trkpt><trkpt lat="42.31234" lon="13.7701567"><ele>432.0</ele><time>2026-05-03T09:16:30.542Z</time></trkpt><trkpt lat="42.3121917" lon="13.7701817"><ele>434.25</ele><time>2026-05-03T09:16:31.541Z</time></trkpt><trkpt lat="42.3120467" lon="13.77021"><ele>436.5</ele><time>2026-05-03T09:16:32.541Z</time></trkpt><trkpt lat="42.311915" lon="13.7702433"><ele>438.75</ele><time>2026-05-03T09:16:33.542Z</time></trkpt><trkpt lat="42.311795" lon="13.7702717"><ele>441.0</ele><time>2026-05-03T09:16:34.541Z</time></trkpt><trkpt lat="42.3116967" lon="13.7702933"><ele>441.0</ele><time>2026-05-03T09:16:35.541Z</time></trkpt><trkpt lat="42.3116117" lon="13.7703333"><ele>441.0</ele><time>2026-05-03T09:16:36.542Z</time></trkpt><trkpt lat="42.311525" lon="13.7703883"><ele>441.0</ele><time>2026-05-03T09:16:37.542Z</time></trkpt><trkpt lat="42.3114283" lon="13.7704767"><ele>441.0</ele><time>2026-05-03T09:16:38.542Z</time></trkpt><trkpt lat="42.3113183" lon="13.7705733"><ele>441.0</ele><time>2026-05-03T09:16:39.542Z</time></trkpt><trkpt lat="42.3112017" lon="13.7706717"><ele>440.20000000000005</ele><time>2026-05-03T09:16:40.541Z</time></trkpt><trkpt lat="42.3111033" lon="13.7707517"><ele>439.40000000000003</ele><time>2026-05-03T09:16:41.541Z</time></trkpt><trkpt lat="42.3110183" lon="13.7708083"><ele>438.6</ele><time>2026-05-03T09:16:42.541Z</time></trkpt><trkpt lat="42.3109283" lon="13.7708383"><ele>437.8</ele><time>2026-05-03T09:16:43.542Z</time></trkpt><trkpt lat="42.310845" lon="13.770825"><ele>437.0</ele><time>2026-05-03T09:16:44.541Z</time></trkpt><trkpt lat="42.310755" lon="13.7707967"><ele>437.0</ele><time>2026-05-03T09:16:45.542Z</time></trkpt><trkpt lat="42.310655" lon="13.77078"><ele>437.0</ele><time>2026-05-03T09:16:46.542Z</time></trkpt><trkpt lat="42.31055" lon="13.7707917"><ele>437.0</ele><time>2026-05-03T09:16:47.542Z</time></trkpt><trkpt lat="42.310425" lon="13.7708283"><ele>437.0</ele><time>2026-05-03T09:16:48.542Z</time></trkpt><trkpt lat="42.3102883" lon="13.7708667"><ele>436.25</ele><time>2026-05-03T09:16:49.542Z</time></trkpt><trkpt lat="42.3101483" lon="13.7708967"><ele>435.5</ele><time>2026-05-03T09:16:50.541Z</time></trkpt><trkpt lat="42.3100083" lon="13.770925"><ele>434.75</ele><time>2026-05-03T09:16:51.541Z</time></trkpt><trkpt lat="42.3098933" lon="13.7709617"><ele>434.0</ele><time>2026-05-03T09:16:52.541Z</time></trkpt><trkpt lat="42.3098" lon="13.7710167"><ele>435.66666666666663</ele><time>2026-05-03T09:16:53.541Z</time></trkpt><trkpt lat="42.3097317" lon="13.7710767"><ele>437.3333333333333</ele><time>2026-05-03T09:16:54.541Z</time></trkpt><trkpt lat="42.3096633" lon="13.7711567"><ele>439.0</ele><time>2026-05-03T09:16:56.542Z</time></trkpt><trkpt lat="42.30963" lon="13.77124"><ele>440.66666666666663</ele><time>2026-05-03T09:17:05.541Z</time></trkpt><trkpt lat="42.3095833" lon="13.7713717"><ele>442.3333333333333</ele><time>2026-05-03T09:17:07.542Z</time></trkpt><trkpt lat="42.309535" lon="13.7714317"><ele>444.0</ele><time>2026-05-03T09:17:08.542Z</time></trkpt><trkpt lat="42.3094717" lon="13.7714833"><ele>444.0</ele><time>2026-05-03T09:17:09.541Z</time></trkpt><trkpt lat="42.3093967" lon="13.7715267"><ele>444.0</ele><time>2026-05-03T09:17:10.542Z</time></trkpt><trkpt lat="42.3093" lon="13.7715733"><ele>444.0</ele><time>2026-05-03T09:17:11.542Z</time></trkpt><trkpt lat="42.3091967" lon="13.7716283"><ele>444.0</ele><time>2026-05-03T09:17:12.542Z</time></trkpt><trkpt lat="42.309105" lon="13.771685"><ele>444.0</ele><time>2026-05-03T09:17:13.542Z</time></trkpt><trkpt lat="42.30902" lon="13.77175"><ele>444.0</ele><time>2026-05-03T09:17:14.542Z</time></trkpt><trkpt lat="42.3089383" lon="13.7718333"><ele>444.0</ele><time>2026-05-03T09:17:15.542Z</time></trkpt><trkpt lat="42.308855" lon="13.77194"><ele>444.0</ele><time>2026-05-03T09:17:16.542Z</time></trkpt><trkpt lat="42.308775" lon="13.7720483"><ele>444.0</ele><time>2026-05-03T09:17:17.542Z</time></trkpt><trkpt lat="42.3086933" lon="13.7721517"><ele>444.0</ele><time>2026-05-03T09:17:18.542Z</time></trkpt><trkpt lat="42.308615" lon="13.7722417"><ele>443.79999999999995</ele><time>2026-05-03T09:17:19.542Z</time></trkpt><trkpt lat="42.3085433" lon="13.7723183"><ele>443.59999999999997</ele><time>2026-05-03T09:17:20.541Z</time></trkpt><trkpt lat="42.3084783" lon="13.7724"><ele>443.4</ele><time>2026-05-03T09:17:21.542Z</time></trkpt><trkpt lat="42.308415" lon="13.7724833"><ele>443.2</ele><time>2026-05-03T09:17:22.542Z</time></trkpt><trkpt lat="42.3083483" lon="13.7725783"><ele>443.0</ele><time>2026-05-03T09:17:23.542Z</time></trkpt><trkpt lat="42.30828" lon="13.772675"><ele>444.0</ele><time>2026-05-03T09:17:24.542Z</time></trkpt><trkpt lat="42.3082133" lon="13.7727617"><ele>444.99999999999994</ele><time>2026-05-03T09:17:25.541Z</time></trkpt><trkpt lat="42.30815" lon="13.772845"><ele>445.99999999999994</ele><time>2026-05-03T09:17:26.542Z</time></trkpt><trkpt lat="42.308095" lon="13.7729167"><ele>447.0</ele><time>2026-05-03T09:17:27.542Z</time></trkpt><trkpt lat="42.3080283" lon="13.7730133"><ele>448.0</ele><time>2026-05-03T09:17:29.541Z</time></trkpt><trkpt lat="42.3080083" lon="13.7731383"><ele>446.00000000000006</ele><time>2026-05-03T09:17:31.542Z</time></trkpt><trkpt lat="42.3079883" lon="13.77327"><ele>444.0</ele><time>2026-05-03T09:17:33.542Z</time></trkpt><trkpt lat="42.307995" lon="13.7733867"><ele>442.0</ele><time>2026-05-03T09:17:36.542Z</time></trkpt><trkpt lat="42.3080183" lon="13.773485"><ele>440.0</ele><time>2026-05-03T09:17:38.542Z</time></trkpt><trkpt lat="42.3080583" lon="13.7735583"><ele>438.00000000000006</ele><time>2026-05-03T09:17:48.542Z</time></trkpt><trkpt lat="42.3080567" lon="13.7734517"><ele>436.0</ele><time>2026-05-03T09:17:53.541Z</time></trkpt><trkpt lat="42.30801" lon="13.7733733"><ele>435.0</ele><time>2026-05-03T09:17:55.542Z</time></trkpt><trkpt lat="42.3080017" lon="13.7732133"><ele>434.0</ele><time>2026-05-03T09:17:57.542Z</time></trkpt><trkpt lat="42.3079983" lon="13.7730817"><ele>433.0</ele><time>2026-05-03T09:17:59.541Z</time></trkpt><trkpt lat="42.307905" lon="13.77311"><ele>432.0</ele><time>2026-05-03T09:18:02.542Z</time></trkpt><trkpt lat="42.307835" lon="13.7731667"><ele>431.0</ele><time>2026-05-03T09:18:03.542Z</time></trkpt><trkpt lat="42.3077433" lon="13.7732367"><ele>431.0</ele><time>2026-05-03T09:18:04.541Z</time></trkpt><trkpt lat="42.307645" lon="13.7733317"><ele>431.0</ele><time>2026-05-03T09:18:05.542Z</time></trkpt><trkpt lat="42.307535" lon="13.7734567"><ele>431.0</ele><time>2026-05-03T09:18:06.542Z</time></trkpt><trkpt lat="42.3074233" lon="13.7735983"><ele>431.0</ele><time>2026-05-03T09:18:07.542Z</time></trkpt><trkpt lat="42.30731" lon="13.7737333"><ele>429.5</ele><time>2026-05-03T09:18:08.542Z</time></trkpt><trkpt lat="42.3071833" lon="13.7738567"><ele>428.0</ele><time>2026-05-03T09:18:09.542Z</time></trkpt><trkpt lat="42.3070667" lon="13.77397"><ele>426.5</ele><time>2026-05-03T09:18:10.542Z</time></trkpt><trkpt lat="42.30697" lon="13.774095"><ele>425.0</ele><time>2026-05-03T09:18:11.541Z</time></trkpt><trkpt lat="42.3068817" lon="13.7742183"><ele>426.0</ele><time>2026-05-03T09:18:12.542Z</time></trkpt><trkpt lat="42.3067767" lon="13.7743583"><ele>427.0</ele><time>2026-05-03T09:18:13.541Z</time></trkpt><trkpt lat="42.3066767" lon="13.7745067"><ele>428.0</ele><time>2026-05-03T09:18:14.542Z</time></trkpt><trkpt lat="42.3065867" lon="13.7746767"><ele>428.0</ele><time>2026-05-03T09:18:15.542Z</time></trkpt><trkpt lat="42.3065033" lon="13.7748617"><ele>428.0</ele><time>2026-05-03T09:18:16.541Z</time></trkpt><trkpt lat="42.3064267" lon="13.7750633"><ele>428.0</ele><time>2026-05-03T09:18:17.541Z</time></trkpt><trkpt lat="42.306355" lon="13.77528"><ele>426.66666666666663</ele><time>2026-05-03T09:18:18.542Z</time></trkpt><trkpt lat="42.30629" lon="13.775495"><ele>425.33333333333337</ele><time>2026-05-03T09:18:19.542Z</time></trkpt><trkpt lat="42.3062367" lon="13.7756967"><ele>424.0</ele><time>2026-05-03T09:18:20.542Z</time></trkpt><trkpt lat="42.3061883" lon="13.7759067"><ele>423.6666666666667</ele><time>2026-05-03T09:18:21.541Z</time></trkpt><trkpt lat="42.30614" lon="13.77613"><ele>423.33333333333337</ele><time>2026-05-03T09:18:22.542Z</time></trkpt><trkpt lat="42.3060917" lon="13.7763433"><ele>423.0</ele><time>2026-05-03T09:18:23.542Z</time></trkpt><trkpt lat="42.30606" lon="13.7765117"><ele>423.0</ele><time>2026-05-03T09:18:24.542Z</time></trkpt><trkpt lat="42.306045" lon="13.7766483"><ele>423.0</ele><time>2026-05-03T09:18:25.542Z</time></trkpt><trkpt lat="42.3060467" lon="13.7767467"><ele>423.0</ele><time>2026-05-03T09:18:26.542Z</time></trkpt><trkpt lat="42.3060617" lon="13.776845"><ele>423.0</ele><time>2026-05-03T09:18:27.542Z</time></trkpt><trkpt lat="42.3060867" lon="13.7769683"><ele>423.0</ele><time>2026-05-03T09:18:28.541Z</time></trkpt><trkpt lat="42.3061217" lon="13.777115"><ele>422.79999999999995</ele><time>2026-05-03T09:18:29.542Z</time></trkpt><trkpt lat="42.3061367" lon="13.7772467"><ele>422.6</ele><time>2026-05-03T09:18:30.541Z</time></trkpt><trkpt lat="42.3061267" lon="13.7773583"><ele>422.4</ele><time>2026-05-03T09:18:31.542Z</time></trkpt><trkpt lat="42.3060883" lon="13.77749"><ele>422.20000000000005</ele><time>2026-05-03T09:18:32.541Z</time></trkpt><trkpt lat="42.3060383" lon="13.777605"><ele>422.0</ele><time>2026-05-03T09:18:33.542Z</time></trkpt><trkpt lat="42.305975" lon="13.7777017"><ele>421.75</ele><time>2026-05-03T09:18:34.54Z</time></trkpt><trkpt lat="42.3058933" lon="13.77779"><ele>421.5</ele><time>2026-05-03T09:18:35.54Z</time></trkpt><trkpt lat="42.305795" lon="13.7778783"><ele>421.25</ele><time>2026-05-03T09:18:36.541Z</time></trkpt><trkpt lat="42.3057017" lon="13.7779833"><ele>421.0</ele><time>2026-05-03T09:18:37.54Z</time></trkpt><trkpt lat="42.3056033" lon="13.7780867"><ele>419.6</ele><time>2026-05-03T09:18:38.541Z</time></trkpt><trkpt lat="42.3055083" lon="13.7781783"><ele>418.20000000000005</ele><time>2026-05-03T09:18:39.541Z</time></trkpt><trkpt lat="42.30542" lon="13.778255"><ele>416.79999999999995</ele><time>2026-05-03T09:18:40.541Z</time></trkpt><trkpt lat="42.3053333" lon="13.77834"><ele>415.4</ele><time>2026-05-03T09:18:41.54Z</time></trkpt><trkpt lat="42.30525" lon="13.77845"><ele>414.0</ele><time>2026-05-03T09:18:42.54Z</time></trkpt><trkpt lat="42.3051767" lon="13.778575"><ele>414.0</ele><time>2026-05-03T09:18:43.541Z</time></trkpt><trkpt lat="42.3051017" lon="13.7787167"><ele>414.0</ele><time>2026-05-03T09:18:44.541Z</time></trkpt><trkpt lat="42.3050317" lon="13.7788817"><ele>414.0</ele><time>2026-05-03T09:18:45.54Z</time></trkpt><trkpt lat="42.3049433" lon="13.7790367"><ele>414.0</ele><time>2026-05-03T09:18:46.54Z</time></trkpt><trkpt lat="42.304845" lon="13.7791933"><ele>412.0</ele><time>2026-05-03T09:18:47.54Z</time></trkpt><trkpt lat="42.3047417" lon="13.77934"><ele>410.0</ele><time>2026-05-03T09:18:48.541Z</time></trkpt><trkpt lat="42.3046533" lon="13.7794717"><ele>408.0</ele><time>2026-05-03T09:18:49.54Z</time></trkpt><trkpt lat="42.3045617" lon="13.7795867"><ele>406.0</ele><time>2026-05-03T09:18:50.541Z</time></trkpt><trkpt lat="42.304465" lon="13.77967"><ele>406.0</ele><time>2026-05-03T09:18:51.54Z</time></trkpt><trkpt lat="42.3043583" lon="13.7797417"><ele>406.0</ele><time>2026-05-03T09:18:52.541Z</time></trkpt><trkpt lat="42.3042567" lon="13.7798033"><ele>406.0</ele><time>2026-05-03T09:18:53.54Z</time></trkpt><trkpt lat="42.3041683" lon="13.7798783"><ele>406.0</ele><time>2026-05-03T09:18:54.54Z</time></trkpt><trkpt lat="42.3040817" lon="13.7799883"><ele>406.0</ele><time>2026-05-03T09:18:55.541Z</time></trkpt><trkpt lat="42.3039967" lon="13.78011"><ele>406.0</ele><time>2026-05-03T09:18:56.541Z</time></trkpt><trkpt lat="42.3039333" lon="13.7802017"><ele>406.0</ele><time>2026-05-03T09:18:57.541Z</time></trkpt><trkpt lat="42.3038733" lon="13.780255"><ele>406.0</ele><time>2026-05-03T09:18:58.541Z</time></trkpt><trkpt lat="42.3037667" lon="13.78027"><ele>406.0</ele><time>2026-05-03T09:19:00.541Z</time></trkpt><trkpt lat="42.3037017" lon="13.780285"><ele>405.25</ele><time>2026-05-03T09:19:01.54Z</time></trkpt><trkpt lat="42.3036283" lon="13.78033"><ele>404.5</ele><time>2026-05-03T09:19:02.541Z</time></trkpt><trkpt lat="42.303545" lon="13.780415"><ele>403.75</ele><time>2026-05-03T09:19:03.54Z</time></trkpt><trkpt lat="42.3034483" lon="13.780535"><ele>403.0</ele><time>2026-05-03T09:19:04.541Z</time></trkpt><trkpt lat="42.30336" lon="13.7806817"><ele>403.0</ele><time>2026-05-03T09:19:05.54Z</time></trkpt><trkpt lat="42.303255" lon="13.780845"><ele>403.0</ele><time>2026-05-03T09:19:06.54Z</time></trkpt><trkpt lat="42.303155" lon="13.7810067"><ele>403.0</ele><time>2026-05-03T09:19:07.54Z</time></trkpt><trkpt lat="42.3030617" lon="13.781155"><ele>401.4</ele><time>2026-05-03T09:19:08.541Z</time></trkpt><trkpt lat="42.30298" lon="13.7812717"><ele>399.79999999999995</ele><time>2026-05-03T09:19:09.541Z</time></trkpt><trkpt lat="42.3029017" lon="13.7813567"><ele>398.2</ele><time>2026-05-03T09:19:10.54Z</time></trkpt><trkpt lat="42.302815" lon="13.7814233"><ele>396.6</ele><time>2026-05-03T09:19:11.54Z</time></trkpt><trkpt lat="42.3027233" lon="13.781465"><ele>395.0</ele><time>2026-05-03T09:19:12.541Z</time></trkpt><trkpt lat="42.3026367" lon="13.781495"><ele>395.0</ele><time>2026-05-03T09:19:13.541Z</time></trkpt><trkpt lat="42.3025467" lon="13.7815233"><ele>395.0</ele><time>2026-05-03T09:19:14.541Z</time></trkpt><trkpt lat="42.3024417" lon="13.7815567"><ele>395.0</ele><time>2026-05-03T09:19:15.54Z</time></trkpt><trkpt lat="42.3023433" lon="13.7816017"><ele>395.0</ele><time>2026-05-03T09:19:16.54Z</time></trkpt><trkpt lat="42.3022517" lon="13.7816583"><ele>395.0</ele><time>2026-05-03T09:19:17.541Z</time></trkpt><trkpt lat="42.3021783" lon="13.7816933"><ele>393.16666666666663</ele><time>2026-05-03T09:19:18.541Z</time></trkpt><trkpt lat="42.3020983" lon="13.7817567"><ele>391.3333333333333</ele><time>2026-05-03T09:19:20.54Z</time></trkpt><trkpt lat="42.30204" lon="13.781705"><ele>389.5</ele><time>2026-05-03T09:19:24.541Z</time></trkpt><trkpt lat="42.302025" lon="13.7815567"><ele>387.66666666666663</ele><time>2026-05-03T09:19:26.541Z</time></trkpt><trkpt lat="42.302005" lon="13.7814483"><ele>385.8333333333333</ele><time>2026-05-03T09:19:27.541Z</time></trkpt><trkpt lat="42.3019917" lon="13.78133"><ele>384.0</ele><time>2026-05-03T09:19:28.541Z</time></trkpt><trkpt lat="42.30198" lon="13.78122"><ele>384.0</ele><time>2026-05-03T09:19:29.54Z</time></trkpt><trkpt lat="42.30197" lon="13.7811183"><ele>384.0</ele><time>2026-05-03T09:19:30.541Z</time></trkpt><trkpt lat="42.3019583" lon="13.78103"><ele>384.0</ele><time>2026-05-03T09:19:31.541Z</time></trkpt><trkpt lat="42.30193" lon="13.780865"><ele>384.0</ele><time>2026-05-03T09:19:33.54Z</time></trkpt><trkpt lat="42.3019167" lon="13.7807633"><ele>384.0</ele><time>2026-05-03T09:19:34.54Z</time></trkpt><trkpt lat="42.301905" lon="13.7806517"><ele>384.0</ele><time>2026-05-03T09:19:35.541Z</time></trkpt><trkpt lat="42.301895" lon="13.780535"><ele>384.0</ele><time>2026-05-03T09:19:36.541Z</time></trkpt><trkpt lat="42.3018867" lon="13.78043"><ele>384.0</ele><time>2026-05-03T09:19:37.54Z</time></trkpt><trkpt lat="42.3019083" lon="13.780285"><ele>384.0</ele><time>2026-05-03T09:19:39.541Z</time></trkpt><trkpt lat="42.301965" lon="13.7801383"><ele>384.0</ele><time>2026-05-03T09:19:41.54Z</time></trkpt><trkpt lat="42.3019633" lon="13.7800517"><ele>384.0</ele><time>2026-05-03T09:19:42.54Z</time></trkpt><trkpt lat="42.301935" lon="13.7799567"><ele>383.5</ele><time>2026-05-03T09:19:43.541Z</time></trkpt><trkpt lat="42.3018883" lon="13.779835"><ele>383.0</ele><time>2026-05-03T09:19:44.541Z</time></trkpt><trkpt lat="42.30183" lon="13.7796817"><ele>382.5</ele><time>2026-05-03T09:19:45.541Z</time></trkpt><trkpt lat="42.301755" lon="13.779495"><ele>382.0</ele><time>2026-05-03T09:19:46.54Z</time></trkpt><trkpt lat="42.301685" lon="13.7792933"><ele>381.0</ele><time>2026-05-03T09:19:47.541Z</time></trkpt><trkpt lat="42.30163" lon="13.7791017"><ele>380.0</ele><time>2026-05-03T09:19:48.541Z</time></trkpt><trkpt lat="42.301585" lon="13.7789033"><ele>379.0</ele><time>2026-05-03T09:19:49.54Z</time></trkpt><trkpt lat="42.3015433" lon="13.7787083"><ele>378.0</ele><time>2026-05-03T09:19:50.541Z</time></trkpt><trkpt lat="42.3015" lon="13.77851"><ele>377.0</ele><time>2026-05-03T09:19:51.541Z</time></trkpt><trkpt lat="42.30145" lon="13.7783233"><ele>376.0</ele><time>2026-05-03T09:19:52.541Z</time></trkpt><trkpt lat="42.3014" lon="13.7781467"><ele>375.0</ele><time>2026-05-03T09:19:53.541Z</time></trkpt><trkpt lat="42.3013483" lon="13.7779833"><ele>373.5</ele><time>2026-05-03T09:19:54.541Z</time></trkpt><trkpt lat="42.3013067" lon="13.7778383"><ele>372.0</ele><time>2026-05-03T09:19:55.541Z</time></trkpt><trkpt lat="42.3012767" lon="13.7776917"><ele>370.5</ele><time>2026-05-03T09:19:56.541Z</time></trkpt><trkpt lat="42.3012533" lon="13.7775367"><ele>369.0</ele><time>2026-05-03T09:19:57.541Z</time></trkpt><trkpt lat="42.30124" lon="13.7773733"><ele>368.5</ele><time>2026-05-03T09:19:58.541Z</time></trkpt><trkpt lat="42.30124" lon="13.7771983"><ele>368.0</ele><time>2026-05-03T09:19:59.54Z</time></trkpt><trkpt lat="42.3012533" lon="13.7770367"><ele>367.5</ele><time>2026-05-03T09:20:00.54Z</time></trkpt><trkpt lat="42.3012583" lon="13.7768933"><ele>367.0</ele><time>2026-05-03T09:20:01.541Z</time></trkpt><trkpt lat="42.3012417" lon="13.7767683"><ele>367.0</ele><time>2026-05-03T09:20:02.541Z</time></trkpt><trkpt lat="42.3012117" lon="13.7766533"><ele>367.0</ele><time>2026-05-03T09:20:03.541Z</time></trkpt><trkpt lat="42.3011483" lon="13.77653"><ele>367.0</ele><time>2026-05-03T09:20:04.541Z</time></trkpt><trkpt lat="42.3010717" lon="13.776405"><ele>367.0</ele><time>2026-05-03T09:20:05.54Z</time></trkpt><trkpt lat="42.30099" lon="13.7762967"><ele>367.0</ele><time>2026-05-03T09:20:06.541Z</time></trkpt><trkpt lat="42.3009217" lon="13.776215"><ele>367.0</ele><time>2026-05-03T09:20:07.541Z</time></trkpt><trkpt lat="42.3008617" lon="13.776145"><ele>367.0</ele><time>2026-05-03T09:20:08.541Z</time></trkpt><trkpt lat="42.30083" lon="13.7760267"><ele>367.0</ele><time>2026-05-03T09:20:10.541Z</time></trkpt><trkpt lat="42.3008583" lon="13.7758717"><ele>367.0</ele><time>2026-05-03T09:20:12.541Z</time></trkpt><trkpt lat="42.3008283" lon="13.77575"><ele>367.0</ele><time>2026-05-03T09:20:14.541Z</time></trkpt><trkpt lat="42.3007633" lon="13.77569"><ele>367.5</ele><time>2026-05-03T09:20:15.54Z</time></trkpt><trkpt lat="42.3006867" lon="13.77562"><ele>368.0</ele><time>2026-05-03T09:20:16.541Z</time></trkpt><trkpt lat="42.3006033" lon="13.77558"><ele>368.5</ele><time>2026-05-03T09:20:17.541Z</time></trkpt><trkpt lat="42.3005217" lon="13.7755517"><ele>369.0</ele><time>2026-05-03T09:20:18.54Z</time></trkpt><trkpt lat="42.3004483" lon="13.7755"><ele>369.5</ele><time>2026-05-03T09:20:19.54Z</time></trkpt><trkpt lat="42.300385" lon="13.7754017"><ele>370.0</ele><time>2026-05-03T09:20:20.541Z</time></trkpt><trkpt lat="42.3003317" lon="13.77529"><ele>368.0</ele><time>2026-05-03T09:20:21.541Z</time></trkpt><trkpt lat="42.30026" lon="13.7751883"><ele>366.0</ele><time>2026-05-03T09:20:22.541Z</time></trkpt><trkpt lat="42.3001833" lon="13.7750983"><ele>364.0</ele><time>2026-05-03T09:20:23.541Z</time></trkpt><trkpt lat="42.30012" lon="13.7750433"><ele>362.0</ele><time>2026-05-03T09:20:24.54Z</time></trkpt><trkpt lat="42.3000533" lon="13.77502"><ele>360.0</ele><time>2026-05-03T09:20:25.541Z</time></trkpt><trkpt lat="42.299935" lon="13.775095"><ele>360.0</ele><time>2026-05-03T09:20:27.541Z</time></trkpt><trkpt lat="42.2998633" lon="13.77518"><ele>360.0</ele><time>2026-05-03T09:20:28.541Z</time></trkpt><trkpt lat="42.29978" lon="13.7752867"><ele>360.0</ele><time>2026-05-03T09:20:29.54Z</time></trkpt><trkpt lat="42.2996917" lon="13.77539"><ele>360.0</ele><time>2026-05-03T09:20:30.54Z</time></trkpt><trkpt lat="42.2996133" lon="13.7754683"><ele>360.0</ele><time>2026-05-03T09:20:31.541Z</time></trkpt><trkpt lat="42.2995367" lon="13.7755233"><ele>359.6</ele><time>2026-05-03T09:20:32.541Z</time></trkpt><trkpt lat="42.2994667" lon="13.7755433"><ele>359.2</ele><time>2026-05-03T09:20:33.541Z</time></trkpt><trkpt lat="42.2993317" lon="13.7754783"><ele>358.79999999999995</ele><time>2026-05-03T09:20:35.541Z</time></trkpt><trkpt lat="42.2992483" lon="13.775405"><ele>358.4</ele><time>2026-05-03T09:20:36.541Z</time></trkpt><trkpt lat="42.299165" lon="13.775335"><ele>358.0</ele><time>2026-05-03T09:20:37.541Z</time></trkpt><trkpt lat="42.299095" lon="13.7752917"><ele>358.0</ele><time>2026-05-03T09:20:38.541Z</time></trkpt><trkpt lat="42.29901" lon="13.7753117"><ele>358.0</ele><time>2026-05-03T09:20:40.541Z</time></trkpt><trkpt lat="42.2989317" lon="13.775465"><ele>358.0</ele><time>2026-05-03T09:20:42.54Z</time></trkpt><trkpt lat="42.2988933" lon="13.7756"><ele>358.0</ele><time>2026-05-03T09:20:43.54Z</time></trkpt><trkpt lat="42.298855" lon="13.7757633"><ele>357.3333333333333</ele><time>2026-05-03T09:20:44.541Z</time></trkpt><trkpt lat="42.2988083" lon="13.7759483"><ele>356.6666666666667</ele><time>2026-05-03T09:20:45.54Z</time></trkpt><trkpt lat="42.298765" lon="13.7761483"><ele>356.0</ele><time>2026-05-03T09:20:46.541Z</time></trkpt><trkpt lat="42.2987217" lon="13.776365"><ele>356.0</ele><time>2026-05-03T09:20:47.541Z</time></trkpt><trkpt lat="42.2986817" lon="13.776585"><ele>356.0</ele><time>2026-05-03T09:20:48.54Z</time></trkpt><trkpt lat="42.2986333" lon="13.776785"><ele>356.0</ele><time>2026-05-03T09:20:49.541Z</time></trkpt><trkpt lat="42.298575" lon="13.7769683"><ele>356.25</ele><time>2026-05-03T09:20:50.54Z</time></trkpt><trkpt lat="42.2985167" lon="13.7771517"><ele>356.5</ele><time>2026-05-03T09:20:51.541Z</time></trkpt><trkpt lat="42.29847" lon="13.7773283"><ele>356.75</ele><time>2026-05-03T09:20:52.541Z</time></trkpt><trkpt lat="42.2984217" lon="13.777485"><ele>357.0</ele><time>2026-05-03T09:20:53.541Z</time></trkpt><trkpt lat="42.2983783" lon="13.7776133"><ele>357.0</ele><time>2026-05-03T09:20:54.541Z</time></trkpt><trkpt lat="42.2983433" lon="13.7777167"><ele>357.0</ele><time>2026-05-03T09:20:55.54Z</time></trkpt><trkpt lat="42.2982933" lon="13.7777833"><ele>357.0</ele><time>2026-05-03T09:20:56.54Z</time></trkpt><trkpt lat="42.2982267" lon="13.777835"><ele>357.0</ele><time>2026-05-03T09:20:57.541Z</time></trkpt><trkpt lat="42.2981367" lon="13.7779017"><ele>357.0</ele><time>2026-05-03T09:20:58.54Z</time></trkpt><trkpt lat="42.298035" lon="13.7780117"><ele>356.0</ele><time>2026-05-03T09:20:59.541Z</time></trkpt><trkpt lat="42.2979167" lon="13.77817"><ele>355.0</ele><time>2026-05-03T09:21:00.541Z</time></trkpt><trkpt lat="42.29779" lon="13.778335"><ele>354.0</ele><time>2026-05-03T09:21:01.541Z</time></trkpt><trkpt lat="42.2976533" lon="13.7785"><ele>353.3333333333333</ele><time>2026-05-03T09:21:02.54Z</time></trkpt><trkpt lat="42.2975133" lon="13.7786683"><ele>352.66666666666663</ele><time>2026-05-03T09:21:03.54Z</time></trkpt><trkpt lat="42.2973767" lon="13.7788217"><ele>352.0</ele><time>2026-05-03T09:21:04.54Z</time></trkpt><trkpt lat="42.2972417" lon="13.7789517"><ele>350.66666666666663</ele><time>2026-05-03T09:21:05.54Z</time></trkpt><trkpt lat="42.2971067" lon="13.779075"><ele>349.3333333333333</ele><time>2026-05-03T09:21:06.541Z</time></trkpt><trkpt lat="42.2969783" lon="13.7792017"><ele>348.0</ele><time>2026-05-03T09:21:07.541Z</time></trkpt><trkpt lat="42.29686" lon="13.77933"><ele>348.75</ele><time>2026-05-03T09:21:08.54Z</time></trkpt><trkpt lat="42.2967633" lon="13.779465"><ele>349.5</ele><time>2026-05-03T09:21:09.541Z</time></trkpt><trkpt lat="42.2966667" lon="13.7796217"><ele>350.25</ele><time>2026-05-03T09:21:10.541Z</time></trkpt><trkpt lat="42.29658" lon="13.77977"><ele>351.0</ele><time>2026-05-03T09:21:11.54Z</time></trkpt><trkpt lat="42.2964833" lon="13.7799433"><ele>351.0</ele><time>2026-05-03T09:21:12.54Z</time></trkpt><trkpt lat="42.29638" lon="13.7801167"><ele>351.0</ele><time>2026-05-03T09:21:13.541Z</time></trkpt><trkpt lat="42.2962633" lon="13.7803067"><ele>351.0</ele><time>2026-05-03T09:21:14.541Z</time></trkpt><trkpt lat="42.29617" lon="13.7805017"><ele>351.3333333333333</ele><time>2026-05-03T09:21:15.54Z</time></trkpt><trkpt lat="42.2960833" lon="13.78069"><ele>351.66666666666663</ele><time>2026-05-03T09:21:16.541Z</time></trkpt><trkpt lat="42.2959917" lon="13.7808717"><ele>352.0</ele><time>2026-05-03T09:21:17.541Z</time></trkpt><trkpt lat="42.295885" lon="13.78105"><ele>352.0</ele><time>2026-05-03T09:21:18.541Z</time></trkpt><trkpt lat="42.2957733" lon="13.7812317"><ele>352.0</ele><time>2026-05-03T09:21:19.541Z</time></trkpt><trkpt lat="42.2956467" lon="13.7814133"><ele>352.0</ele><time>2026-05-03T09:21:20.54Z</time></trkpt><trkpt lat="42.2955367" lon="13.7815683"><ele>352.0</ele><time>2026-05-03T09:21:21.54Z</time></trkpt><trkpt lat="42.2954183" lon="13.7817033"><ele>352.0</ele><time>2026-05-03T09:21:22.541Z</time></trkpt><trkpt lat="42.29528" lon="13.7818317"><ele>352.0</ele><time>2026-05-03T09:21:23.54Z</time></trkpt><trkpt lat="42.2951367" lon="13.7819533"><ele>352.0</ele><time>2026-05-03T09:21:24.54Z</time></trkpt><trkpt lat="42.2949883" lon="13.7820967"><ele>352.0</ele><time>2026-05-03T09:21:25.54Z</time></trkpt><trkpt lat="42.2948467" lon="13.7822533"><ele>352.0</ele><time>2026-05-03T09:21:26.541Z</time></trkpt><trkpt lat="42.2947017" lon="13.7824267"><ele>351.3333333333333</ele><time>2026-05-03T09:21:27.541Z</time></trkpt><trkpt lat="42.2945533" lon="13.7826033"><ele>350.6666666666667</ele><time>2026-05-03T09:21:28.541Z</time></trkpt><trkpt lat="42.2944167" lon="13.7827933"><ele>350.0</ele><time>2026-05-03T09:21:29.54Z</time></trkpt><trkpt lat="42.2942967" lon="13.7829633"><ele>350.0</ele><time>2026-05-03T09:21:30.541Z</time></trkpt><trkpt lat="42.2941817" lon="13.78312"><ele>350.0</ele><time>2026-05-03T09:21:31.54Z</time></trkpt><trkpt lat="42.2940717" lon="13.78327"><ele>350.0</ele><time>2026-05-03T09:21:32.541Z</time></trkpt><trkpt lat="42.2939617" lon="13.7834317"><ele>350.33333333333337</ele><time>2026-05-03T09:21:33.541Z</time></trkpt><trkpt lat="42.29385" lon="13.7836083"><ele>350.6666666666667</ele><time>2026-05-03T09:21:34.54Z</time></trkpt><trkpt lat="42.2937217" lon="13.7837917"><ele>351.0</ele><time>2026-05-03T09:21:35.54Z</time></trkpt><trkpt lat="42.29359" lon="13.78396"><ele>351.0</ele><time>2026-05-03T09:21:36.541Z</time></trkpt><trkpt lat="42.2934417" lon="13.7841233"><ele>351.0</ele><time>2026-05-03T09:21:37.541Z</time></trkpt><trkpt lat="42.2932983" lon="13.784275"><ele>351.0</ele><time>2026-05-03T09:21:38.541Z</time></trkpt><trkpt lat="42.293165" lon="13.7844133"><ele>351.3333333333333</ele><time>2026-05-03T09:21:39.54Z</time></trkpt><trkpt lat="42.293035" lon="13.7845283"><ele>351.66666666666663</ele><time>2026-05-03T09:21:40.54Z</time></trkpt><trkpt lat="42.2928967" lon="13.7846283"><ele>352.0</ele><time>2026-05-03T09:21:41.54Z</time></trkpt><trkpt lat="42.2927433" lon="13.7847233"><ele>352.0</ele><time>2026-05-03T09:21:42.541Z</time></trkpt><trkpt lat="42.2925917" lon="13.784815"><ele>352.0</ele><time>2026-05-03T09:21:43.54Z</time></trkpt><trkpt lat="42.2924383" lon="13.7848983"><ele>352.0</ele><time>2026-05-03T09:21:44.541Z</time></trkpt><trkpt lat="42.29228" lon="13.7849617"><ele>352.25</ele><time>2026-05-03T09:21:45.54Z</time></trkpt><trkpt lat="42.2921367" lon="13.7850133"><ele>352.5</ele><time>2026-05-03T09:21:46.541Z</time></trkpt><trkpt lat="42.292" lon="13.7850683"><ele>352.75</ele><time>2026-05-03T09:21:47.54Z</time></trkpt><trkpt lat="42.2918833" lon="13.7851233"><ele>353.0</ele><time>2026-05-03T09:21:48.54Z</time></trkpt><trkpt lat="42.2917667" lon="13.7852017"><ele>353.0</ele><time>2026-05-03T09:21:49.541Z</time></trkpt><trkpt lat="42.2916333" lon="13.7852883"><ele>353.0</ele><time>2026-05-03T09:21:50.541Z</time></trkpt><trkpt lat="42.2914833" lon="13.7853883"><ele>353.0</ele><time>2026-05-03T09:21:51.541Z</time></trkpt><trkpt lat="42.291325" lon="13.785485"><ele>352.33333333333337</ele><time>2026-05-03T09:21:52.541Z</time></trkpt><trkpt lat="42.2911567" lon="13.7855933"><ele>351.6666666666667</ele><time>2026-05-03T09:21:53.541Z</time></trkpt><trkpt lat="42.290995" lon="13.7857083"><ele>351.0</ele><time>2026-05-03T09:21:54.541Z</time></trkpt><trkpt lat="42.2908383" lon="13.7858333"><ele>351.0</ele><time>2026-05-03T09:21:55.54Z</time></trkpt><trkpt lat="42.2906917" lon="13.7859617"><ele>351.0</ele><time>2026-05-03T09:21:56.541Z</time></trkpt><trkpt lat="42.2905617" lon="13.7860867"><ele>351.0</ele><time>2026-05-03T09:21:57.54Z</time></trkpt><trkpt lat="42.2904167" lon="13.78621"><ele>351.3333333333333</ele><time>2026-05-03T09:21:58.541Z</time></trkpt><trkpt lat="42.2902833" lon="13.7863383"><ele>351.66666666666663</ele><time>2026-05-03T09:21:59.541Z</time></trkpt><trkpt lat="42.2901483" lon="13.7864433"><ele>352.0</ele><time>2026-05-03T09:22:00.541Z</time></trkpt><trkpt lat="42.2900117" lon="13.7865433"><ele>352.0</ele><time>2026-05-03T09:22:01.54Z</time></trkpt><trkpt lat="42.2898683" lon="13.7866467"><ele>352.0</ele><time>2026-05-03T09:22:02.541Z</time></trkpt><trkpt lat="42.28973" lon="13.7867583"><ele>352.0</ele><time>2026-05-03T09:22:03.541Z</time></trkpt><trkpt lat="42.2895767" lon="13.7868833"><ele>353.0</ele><time>2026-05-03T09:22:04.541Z</time></trkpt><trkpt lat="42.2894133" lon="13.7870033"><ele>354.0</ele><time>2026-05-03T09:22:05.541Z</time></trkpt><trkpt lat="42.28925" lon="13.7871267"><ele>355.0</ele><time>2026-05-03T09:22:06.541Z</time></trkpt><trkpt lat="42.2890917" lon="13.7872517"><ele>355.0</ele><time>2026-05-03T09:22:07.541Z</time></trkpt><trkpt lat="42.2889433" lon="13.787385"><ele>355.0</ele><time>2026-05-03T09:22:08.541Z</time></trkpt><trkpt lat="42.2887933" lon="13.7875167"><ele>355.0</ele><time>2026-05-03T09:22:09.541Z</time></trkpt><trkpt lat="42.2886383" lon="13.7876567"><ele>356.66666666666663</ele><time>2026-05-03T09:22:10.541Z</time></trkpt><trkpt lat="42.2884883" lon="13.7877783"><ele>358.3333333333333</ele><time>2026-05-03T09:22:11.541Z</time></trkpt><trkpt lat="42.2883467" lon="13.787895"><ele>360.0</ele><time>2026-05-03T09:22:12.541Z</time></trkpt><trkpt lat="42.2882133" lon="13.78799"><ele>360.5</ele><time>2026-05-03T09:22:13.541Z</time></trkpt><trkpt lat="42.288085" lon="13.78805"><ele>361.0</ele><time>2026-05-03T09:22:14.541Z</time></trkpt><trkpt lat="42.2879483" lon="13.7880933"><ele>361.5</ele><time>2026-05-03T09:22:15.541Z</time></trkpt><trkpt lat="42.28781" lon="13.788135"><ele>362.0</ele><time>2026-05-03T09:22:16.54Z</time></trkpt><trkpt lat="42.287665" lon="13.7881967"><ele>362.0</ele><time>2026-05-03T09:22:17.541Z</time></trkpt><trkpt lat="42.2875217" lon="13.7882633"><ele>362.0</ele><time>2026-05-03T09:22:18.54Z</time></trkpt><trkpt lat="42.287385" lon="13.788325"><ele>362.0</ele><time>2026-05-03T09:22:19.541Z</time></trkpt><trkpt lat="42.2872633" lon="13.78839"><ele>362.0</ele><time>2026-05-03T09:22:20.54Z</time></trkpt><trkpt lat="42.2871467" lon="13.788465"><ele>362.0</ele><time>2026-05-03T09:22:21.541Z</time></trkpt><trkpt lat="42.2870283" lon="13.7885467"><ele>362.0</ele><time>2026-05-03T09:22:22.54Z</time></trkpt><trkpt lat="42.286915" lon="13.7886183"><ele>362.0</ele><time>2026-05-03T09:22:23.541Z</time></trkpt><trkpt lat="42.2868217" lon="13.7886767"><ele>362.0</ele><time>2026-05-03T09:22:24.54Z</time></trkpt><trkpt lat="42.2867483" lon="13.7887083"><ele>362.0</ele><time>2026-05-03T09:22:25.541Z</time></trkpt><trkpt lat="42.2866833" lon="13.7887083"><ele>362.0</ele><time>2026-05-03T09:22:26.541Z</time></trkpt><trkpt lat="42.28661" lon="13.7886283"><ele>362.0</ele><time>2026-05-03T09:22:28.541Z</time></trkpt><trkpt lat="42.2865933" lon="13.788535"><ele>362.0</ele><time>2026-05-03T09:22:29.54Z</time></trkpt><trkpt lat="42.2865733" lon="13.7883933"><ele>362.0</ele><time>2026-05-03T09:22:30.541Z</time></trkpt><trkpt lat="42.2865633" lon="13.78819"><ele>362.0</ele><time>2026-05-03T09:22:31.541Z</time></trkpt><trkpt lat="42.2865417" lon="13.7879567"><ele>360.6666666666667</ele><time>2026-05-03T09:22:32.541Z</time></trkpt><trkpt lat="42.2865183" lon="13.787705"><ele>359.3333333333333</ele><time>2026-05-03T09:22:33.541Z</time></trkpt><trkpt lat="42.286495" lon="13.7874517"><ele>358.0</ele><time>2026-05-03T09:22:34.54Z</time></trkpt><trkpt lat="42.2864633" lon="13.787215"><ele>355.3333333333333</ele><time>2026-05-03T09:22:35.54Z</time></trkpt><trkpt lat="42.2864267" lon="13.786955"><ele>352.6666666666667</ele><time>2026-05-03T09:22:36.541Z</time></trkpt><trkpt lat="42.28639" lon="13.7866783"><ele>350.0</ele><time>2026-05-03T09:22:37.54Z</time></trkpt><trkpt lat="42.2863467" lon="13.7864067"><ele>348.0</ele><time>2026-05-03T09:22:38.541Z</time></trkpt><trkpt lat="42.286305" lon="13.7861483"><ele>346.0</ele><time>2026-05-03T09:22:39.541Z</time></trkpt><trkpt lat="42.2862717" lon="13.7859067"><ele>344.0</ele><time>2026-05-03T09:22:40.54Z</time></trkpt><trkpt lat="42.28624" lon="13.7856783"><ele>343.75</ele><time>2026-05-03T09:22:41.539Z</time></trkpt><trkpt lat="42.2862167" lon="13.7854683"><ele>343.5</ele><time>2026-05-03T09:22:42.54Z</time></trkpt><trkpt lat="42.2861917" lon="13.78527"><ele>343.25</ele><time>2026-05-03T09:22:43.54Z</time></trkpt><trkpt lat="42.2861667" lon="13.7850817"><ele>343.0</ele><time>2026-05-03T09:22:44.539Z</time></trkpt><trkpt lat="42.2861483" lon="13.78488"><ele>343.0</ele><time>2026-05-03T09:22:45.54Z</time></trkpt><trkpt lat="42.2861217" lon="13.7846683"><ele>343.0</ele><time>2026-05-03T09:22:46.54Z</time></trkpt><trkpt lat="42.2860967" lon="13.784435"><ele>343.0</ele><time>2026-05-03T09:22:47.54Z</time></trkpt><trkpt lat="42.2860667" lon="13.7841917"><ele>343.66666666666663</ele><time>2026-05-03T09:22:48.54Z</time></trkpt><trkpt lat="42.286035" lon="13.78394"><ele>344.3333333333333</ele><time>2026-05-03T09:22:49.539Z</time></trkpt><trkpt lat="42.2860033" lon="13.7836683"><ele>345.0</ele><time>2026-05-03T09:22:50.54Z</time></trkpt><trkpt lat="42.2859767" lon="13.783395"><ele>345.3333333333333</ele><time>2026-05-03T09:22:51.54Z</time></trkpt><trkpt lat="42.285945" lon="13.7831183"><ele>345.66666666666663</ele><time>2026-05-03T09:22:52.539Z</time></trkpt><trkpt lat="42.28591" lon="13.78285"><ele>346.0</ele><time>2026-05-03T09:22:53.54Z</time></trkpt><trkpt lat="42.2858667" lon="13.7825933"><ele>345.0</ele><time>2026-05-03T09:22:54.539Z</time></trkpt><trkpt lat="42.28581" lon="13.7823433"><ele>344.0</ele><time>2026-05-03T09:22:55.54Z</time></trkpt><trkpt lat="42.28574" lon="13.7820967"><ele>343.0</ele><time>2026-05-03T09:22:56.54Z</time></trkpt><trkpt lat="42.2856533" lon="13.781865"><ele>343.3333333333333</ele><time>2026-05-03T09:22:57.54Z</time></trkpt><trkpt lat="42.28556" lon="13.7816417"><ele>343.6666666666667</ele><time>2026-05-03T09:22:58.539Z</time></trkpt><trkpt lat="42.2854667" lon="13.781425"><ele>344.0</ele><time>2026-05-03T09:22:59.54Z</time></trkpt><trkpt lat="42.285375" lon="13.7812"><ele>343.6666666666667</ele><time>2026-05-03T09:23:00.54Z</time></trkpt><trkpt lat="42.28528" lon="13.7809683"><ele>343.3333333333333</ele><time>2026-05-03T09:23:01.54Z</time></trkpt><trkpt lat="42.2851817" lon="13.780725"><ele>343.0</ele><time>2026-05-03T09:23:02.54Z</time></trkpt><trkpt lat="42.2850833" lon="13.7804717"><ele>343.0</ele><time>2026-05-03T09:23:03.54Z</time></trkpt><trkpt lat="42.284975" lon="13.7802133"><ele>343.0</ele><time>2026-05-03T09:23:04.54Z</time></trkpt><trkpt lat="42.2848617" lon="13.7799533"><ele>343.0</ele><time>2026-05-03T09:23:05.539Z</time></trkpt><trkpt lat="42.2847517" lon="13.7796817"><ele>343.0</ele><time>2026-05-03T09:23:06.539Z</time></trkpt><trkpt lat="42.2846367" lon="13.7794017"><ele>343.0</ele><time>2026-05-03T09:23:07.54Z</time></trkpt><trkpt lat="42.284515" lon="13.7791133"><ele>343.0</ele><time>2026-05-03T09:23:08.54Z</time></trkpt><trkpt lat="42.2843933" lon="13.7788167"><ele>343.0</ele><time>2026-05-03T09:23:09.54Z</time></trkpt><trkpt lat="42.2842717" lon="13.7785133"><ele>343.5</ele><time>2026-05-03T09:23:10.539Z</time></trkpt><trkpt lat="42.28414" lon="13.7781917"><ele>344.0</ele><time>2026-05-03T09:23:11.54Z</time></trkpt><trkpt lat="42.284" lon="13.7778583"><ele>344.5</ele><time>2026-05-03T09:23:12.54Z</time></trkpt><trkpt lat="42.28386" lon="13.7775133"><ele>345.0</ele><time>2026-05-03T09:23:13.54Z</time></trkpt><trkpt lat="42.28372" lon="13.7771633"><ele>345.0</ele><time>2026-05-03T09:23:14.539Z</time></trkpt><trkpt lat="42.2835883" lon="13.7768433"><ele>345.0</ele><time>2026-05-03T09:23:15.54Z</time></trkpt><trkpt lat="42.2834733" lon="13.7765567"><ele>345.0</ele><time>2026-05-03T09:23:16.54Z</time></trkpt><trkpt lat="42.283365" lon="13.7762883"><ele>345.0</ele><time>2026-05-03T09:23:17.539Z</time></trkpt><trkpt lat="42.28326" lon="13.7760367"><ele>345.0</ele><time>2026-05-03T09:23:18.539Z</time></trkpt><trkpt lat="42.2831683" lon="13.7758033"><ele>345.0</ele><time>2026-05-03T09:23:19.539Z</time></trkpt><trkpt lat="42.2830817" lon="13.7755917"><ele>345.0</ele><time>2026-05-03T09:23:20.54Z</time></trkpt><trkpt lat="42.28301" lon="13.775395"><ele>345.0</ele><time>2026-05-03T09:23:21.54Z</time></trkpt><trkpt lat="42.28293" lon="13.7752167"><ele>346.0</ele><time>2026-05-03T09:23:22.539Z</time></trkpt><trkpt lat="42.2828317" lon="13.7750517"><ele>347.0</ele><time>2026-05-03T09:23:23.539Z</time></trkpt><trkpt lat="42.2827217" lon="13.7748983"><ele>348.0</ele><time>2026-05-03T09:23:24.539Z</time></trkpt><trkpt lat="42.2826" lon="13.7747817"><ele>348.0</ele><time>2026-05-03T09:23:25.539Z</time></trkpt><trkpt lat="42.2824767" lon="13.7746967"><ele>348.0</ele><time>2026-05-03T09:23:26.54Z</time></trkpt><trkpt lat="42.2823383" lon="13.7746367"><ele>348.0</ele><time>2026-05-03T09:23:27.539Z</time></trkpt><trkpt lat="42.2821867" lon="13.7746"><ele>348.0</ele><time>2026-05-03T09:23:28.54Z</time></trkpt><trkpt lat="42.282025" lon="13.7745683"><ele>348.25</ele><time>2026-05-03T09:23:29.539Z</time></trkpt><trkpt lat="42.2818683" lon="13.7745267"><ele>348.5</ele><time>2026-05-03T09:23:30.54Z</time></trkpt><trkpt lat="42.2817417" lon="13.774455"><ele>348.75</ele><time>2026-05-03T09:23:31.54Z</time></trkpt><trkpt lat="42.2816317" lon="13.77436"><ele>349.0</ele><time>2026-05-03T09:23:32.539Z</time></trkpt><trkpt lat="42.2815183" lon="13.7742433"><ele>349.66666666666663</ele><time>2026-05-03T09:23:33.54Z</time></trkpt><trkpt lat="42.2814017" lon="13.7740933"><ele>350.3333333333333</ele><time>2026-05-03T09:23:34.54Z</time></trkpt><trkpt lat="42.281285" lon="13.7739367"><ele>351.0</ele><time>2026-05-03T09:23:35.54Z</time></trkpt><trkpt lat="42.2811433" lon="13.773765"><ele>351.0</ele><time>2026-05-03T09:23:36.54Z</time></trkpt><trkpt lat="42.2810217" lon="13.7735817"><ele>351.0</ele><time>2026-05-03T09:23:37.539Z</time></trkpt><trkpt lat="42.2809" lon="13.7733817"><ele>351.0</ele><time>2026-05-03T09:23:38.54Z</time></trkpt><trkpt lat="42.2807817" lon="13.773165"><ele>351.6666666666667</ele><time>2026-05-03T09:23:39.54Z</time></trkpt><trkpt lat="42.280655" lon="13.7729383"><ele>352.33333333333337</ele><time>2026-05-03T09:23:40.54Z</time></trkpt><trkpt lat="42.280535" lon="13.77272"><ele>353.0</ele><time>2026-05-03T09:23:41.54Z</time></trkpt><trkpt lat="42.2804367" lon="13.77252"><ele>353.6666666666667</ele><time>2026-05-03T09:23:42.54Z</time></trkpt><trkpt lat="42.28035" lon="13.77235"><ele>354.3333333333333</ele><time>2026-05-03T09:23:43.54Z</time></trkpt><trkpt lat="42.28025" lon="13.7722033"><ele>355.0</ele><time>2026-05-03T09:23:44.54Z</time></trkpt><trkpt lat="42.2801183" lon="13.772085"><ele>355.0</ele><time>2026-05-03T09:23:45.54Z</time></trkpt><trkpt lat="42.2799767" lon="13.7719917"><ele>355.0</ele><time>2026-05-03T09:23:46.539Z</time></trkpt><trkpt lat="42.27985" lon="13.7718883"><ele>355.0</ele><time>2026-05-03T09:23:47.539Z</time></trkpt><trkpt lat="42.2797433" lon="13.7717567"><ele>355.66666666666663</ele><time>2026-05-03T09:23:48.54Z</time></trkpt><trkpt lat="42.2796567" lon="13.7715917"><ele>356.3333333333333</ele><time>2026-05-03T09:23:49.539Z</time></trkpt><trkpt lat="42.2795717" lon="13.7714083"><ele>357.0</ele><time>2026-05-03T09:23:50.54Z</time></trkpt><trkpt lat="42.27949" lon="13.7711867"><ele>357.6666666666667</ele><time>2026-05-03T09:23:51.539Z</time></trkpt><trkpt lat="42.2794083" lon="13.770955"><ele>358.33333333333337</ele><time>2026-05-03T09:23:52.54Z</time></trkpt><trkpt lat="42.279325" lon="13.7707167"><ele>359.0</ele><time>2026-05-03T09:23:53.54Z</time></trkpt><trkpt lat="42.2792333" lon="13.7704767"><ele>359.0</ele><time>2026-05-03T09:23:54.539Z</time></trkpt><trkpt lat="42.2791617" lon="13.770265"><ele>359.0</ele><time>2026-05-03T09:23:55.54Z</time></trkpt><trkpt lat="42.2790967" lon="13.7700767"><ele>359.0</ele><time>2026-05-03T09:23:56.539Z</time></trkpt><trkpt lat="42.2790417" lon="13.7699117"><ele>359.2</ele><time>2026-05-03T09:23:57.54Z</time></trkpt><trkpt lat="42.2789933" lon="13.7697583"><ele>359.4</ele><time>2026-05-03T09:23:58.539Z</time></trkpt><trkpt lat="42.27895" lon="13.7696167"><ele>359.6</ele><time>2026-05-03T09:23:59.54Z</time></trkpt><trkpt lat="42.278905" lon="13.76949"><ele>359.8</ele><time>2026-05-03T09:24:00.54Z</time></trkpt><trkpt lat="42.2788617" lon="13.76941"><ele>360.0</ele><time>2026-05-03T09:24:01.539Z</time></trkpt><trkpt lat="42.27876" lon="13.7693683"><ele>360.0</ele><time>2026-05-03T09:24:03.54Z</time></trkpt><trkpt lat="42.2786783" lon="13.7694183"><ele>360.0</ele><time>2026-05-03T09:24:04.539Z</time></trkpt><trkpt lat="42.27859" lon="13.7695183"><ele>360.0</ele><time>2026-05-03T09:24:05.539Z</time></trkpt><trkpt lat="42.2784767" lon="13.76966"><ele>360.0</ele><time>2026-05-03T09:24:06.539Z</time></trkpt><trkpt lat="42.27834" lon="13.7698267"><ele>360.0</ele><time>2026-05-03T09:24:07.54Z</time></trkpt><trkpt lat="42.2781917" lon="13.77"><ele>360.0</ele><time>2026-05-03T09:24:08.54Z</time></trkpt><trkpt lat="42.278035" lon="13.77018"><ele>360.0</ele><time>2026-05-03T09:24:09.54Z</time></trkpt><trkpt lat="42.277885" lon="13.7703417"><ele>358.0</ele><time>2026-05-03T09:24:10.539Z</time></trkpt><trkpt lat="42.2777533" lon="13.7704833"><ele>356.0</ele><time>2026-05-03T09:24:11.54Z</time></trkpt><trkpt lat="42.2776317" lon="13.7705917"><ele>354.0</ele><time>2026-05-03T09:24:12.54Z</time></trkpt><trkpt lat="42.2775033" lon="13.7706783"><ele>354.0</ele><time>2026-05-03T09:24:13.54Z</time></trkpt><trkpt lat="42.277355" lon="13.7707233"><ele>354.0</ele><time>2026-05-03T09:24:14.54Z</time></trkpt><trkpt lat="42.27717" lon="13.770735"><ele>354.0</ele><time>2026-05-03T09:24:15.54Z</time></trkpt><trkpt lat="42.2769733" lon="13.7707083"><ele>352.0</ele><time>2026-05-03T09:24:16.539Z</time></trkpt><trkpt lat="42.27677" lon="13.7706733"><ele>350.0</ele><time>2026-05-03T09:24:17.539Z</time></trkpt><trkpt lat="42.2765617" lon="13.7706467"><ele>348.0</ele><time>2026-05-03T09:24:18.54Z</time></trkpt><trkpt lat="42.276345" lon="13.7706233"><ele>346.6666666666667</ele><time>2026-05-03T09:24:19.54Z</time></trkpt><trkpt lat="42.2761383" lon="13.770595"><ele>345.33333333333337</ele><time>2026-05-03T09:24:20.54Z</time></trkpt><trkpt lat="42.27593" lon="13.7705667"><ele>344.0</ele><time>2026-05-03T09:24:21.54Z</time></trkpt><trkpt lat="42.27575" lon="13.7705367"><ele>346.6666666666667</ele><time>2026-05-03T09:24:22.54Z</time></trkpt><trkpt lat="42.2755883" lon="13.77052"><ele>349.3333333333333</ele><time>2026-05-03T09:24:23.539Z</time></trkpt><trkpt lat="42.2754517" lon="13.7705267"><ele>352.0</ele><time>2026-05-03T09:24:24.54Z</time></trkpt><trkpt lat="42.2753017" lon="13.7705783"><ele>352.0</ele><time>2026-05-03T09:24:25.54Z</time></trkpt><trkpt lat="42.2751667" lon="13.7706367"><ele>352.0</ele><time>2026-05-03T09:24:26.54Z</time></trkpt><trkpt lat="42.2750617" lon="13.77071"><ele>352.0</ele><time>2026-05-03T09:24:27.539Z</time></trkpt><trkpt lat="42.2749867" lon="13.7708167"><ele>352.0</ele><time>2026-05-03T09:24:28.54Z</time></trkpt><trkpt lat="42.2749383" lon="13.770935"><ele>350.0</ele><time>2026-05-03T09:24:29.54Z</time></trkpt><trkpt lat="42.2748983" lon="13.7711033"><ele>348.0</ele><time>2026-05-03T09:24:30.54Z</time></trkpt><trkpt lat="42.2748467" lon="13.7713133"><ele>346.0</ele><time>2026-05-03T09:24:31.539Z</time></trkpt><trkpt lat="42.2748" lon="13.7715517"><ele>348.66666666666663</ele><time>2026-05-03T09:24:32.54Z</time></trkpt><trkpt lat="42.2747467" lon="13.77181"><ele>351.3333333333333</ele><time>2026-05-03T09:24:33.54Z</time></trkpt><trkpt lat="42.27469" lon="13.77206"><ele>354.0</ele><time>2026-05-03T09:24:34.54Z</time></trkpt><trkpt lat="42.2746333" lon="13.7722683"><ele>354.0</ele><time>2026-05-03T09:24:35.539Z</time></trkpt><trkpt lat="42.27458" lon="13.7724433"><ele>354.0</ele><time>2026-05-03T09:24:36.54Z</time></trkpt><trkpt lat="42.2745133" lon="13.7725983"><ele>354.0</ele><time>2026-05-03T09:24:37.539Z</time></trkpt><trkpt lat="42.2744233" lon="13.7727517"><ele>354.0</ele><time>2026-05-03T09:24:38.54Z</time></trkpt><trkpt lat="42.2743083" lon="13.7729"><ele>353.3333333333333</ele><time>2026-05-03T09:24:39.539Z</time></trkpt><trkpt lat="42.27417" lon="13.77306"><ele>352.66666666666663</ele><time>2026-05-03T09:24:40.54Z</time></trkpt><trkpt lat="42.27403" lon="13.7732283"><ele>352.0</ele><time>2026-05-03T09:24:41.539Z</time></trkpt><trkpt lat="42.273895" lon="13.773395"><ele>352.66666666666663</ele><time>2026-05-03T09:24:42.54Z</time></trkpt><trkpt lat="42.273755" lon="13.7735583"><ele>353.3333333333333</ele><time>2026-05-03T09:24:43.54Z</time></trkpt><trkpt lat="42.27361" lon="13.7737167"><ele>354.0</ele><time>2026-05-03T09:24:44.54Z</time></trkpt><trkpt lat="42.273465" lon="13.7738783"><ele>354.0</ele><time>2026-05-03T09:24:45.54Z</time></trkpt><trkpt lat="42.273325" lon="13.7740467"><ele>354.0</ele><time>2026-05-03T09:24:46.539Z</time></trkpt><trkpt lat="42.27318" lon="13.7742417"><ele>354.0</ele><time>2026-05-03T09:24:47.54Z</time></trkpt><trkpt lat="42.2730417" lon="13.7744533"><ele>355.0</ele><time>2026-05-03T09:24:48.54Z</time></trkpt><trkpt lat="42.27291" lon="13.77469"><ele>356.0</ele><time>2026-05-03T09:24:49.54Z</time></trkpt><trkpt lat="42.2727867" lon="13.7749017"><ele>357.0</ele><time>2026-05-03T09:24:50.539Z</time></trkpt><trkpt lat="42.2726817" lon="13.7750933"><ele>356.0</ele><time>2026-05-03T09:24:51.539Z</time></trkpt><trkpt lat="42.272595" lon="13.775255"><ele>355.0</ele><time>2026-05-03T09:24:52.54Z</time></trkpt><trkpt lat="42.27251" lon="13.7753883"><ele>354.0</ele><time>2026-05-03T09:24:53.54Z</time></trkpt><trkpt lat="42.2724367" lon="13.77552"><ele>353.0</ele><time>2026-05-03T09:24:54.54Z</time></trkpt><trkpt lat="42.2723783" lon="13.7756383"><ele>353.0</ele><time>2026-05-03T09:24:55.54Z</time></trkpt><trkpt lat="42.2723333" lon="13.77576"><ele>353.0</ele><time>2026-05-03T09:24:56.54Z</time></trkpt><trkpt lat="42.2722983" lon="13.77589"><ele>353.0</ele><time>2026-05-03T09:24:57.539Z</time></trkpt><trkpt lat="42.27227" lon="13.77605"><ele>353.0</ele><time>2026-05-03T09:24:58.539Z</time></trkpt><trkpt lat="42.2722483" lon="13.7762333"><ele>352.33333333333337</ele><time>2026-05-03T09:24:59.54Z</time></trkpt><trkpt lat="42.2722283" lon="13.776445"><ele>351.6666666666667</ele><time>2026-05-03T09:25:00.539Z</time></trkpt><trkpt lat="42.2722033" lon="13.77668"><ele>351.0</ele><time>2026-05-03T09:25:01.539Z</time></trkpt><trkpt lat="42.2721733" lon="13.77693"><ele>350.0</ele><time>2026-05-03T09:25:02.539Z</time></trkpt><trkpt lat="42.272155" lon="13.7771983"><ele>349.0</ele><time>2026-05-03T09:25:03.539Z</time></trkpt><trkpt lat="42.27213" lon="13.7774767"><ele>348.0</ele><time>2026-05-03T09:25:04.54Z</time></trkpt><trkpt lat="42.2721083" lon="13.7777583"><ele>347.3333333333333</ele><time>2026-05-03T09:25:05.539Z</time></trkpt><trkpt lat="42.2720833" lon="13.77804"><ele>346.66666666666663</ele><time>2026-05-03T09:25:06.54Z</time></trkpt><trkpt lat="42.2720583" lon="13.77831"><ele>346.0</ele><time>2026-05-03T09:25:07.54Z</time></trkpt><trkpt lat="42.2720317" lon="13.7785733"><ele>345.0</ele><time>2026-05-03T09:25:08.539Z</time></trkpt><trkpt lat="42.2720067" lon="13.7788283"><ele>344.0</ele><time>2026-05-03T09:25:09.539Z</time></trkpt><trkpt lat="42.2719833" lon="13.7790717"><ele>343.0</ele><time>2026-05-03T09:25:10.539Z</time></trkpt><trkpt lat="42.2719567" lon="13.7792817"><ele>342.25</ele><time>2026-05-03T09:25:11.54Z</time></trkpt><trkpt lat="42.2719217" lon="13.7794683"><ele>341.5</ele><time>2026-05-03T09:25:12.54Z</time></trkpt><trkpt lat="42.2718733" lon="13.7796533"><ele>340.75</ele><time>2026-05-03T09:25:13.54Z</time></trkpt><trkpt lat="42.2718067" lon="13.779825"><ele>340.0</ele><time>2026-05-03T09:25:14.54Z</time></trkpt><trkpt lat="42.27172" lon="13.7799883"><ele>340.0</ele><time>2026-05-03T09:25:15.539Z</time></trkpt><trkpt lat="42.2716217" lon="13.7801583"><ele>340.0</ele><time>2026-05-03T09:25:16.539Z</time></trkpt><trkpt lat="42.27151" lon="13.7803267"><ele>340.0</ele><time>2026-05-03T09:25:17.539Z</time></trkpt><trkpt lat="42.2713933" lon="13.7804867"><ele>340.2</ele><time>2026-05-03T09:25:18.539Z</time></trkpt><trkpt lat="42.2712983" lon="13.7806267"><ele>340.4</ele><time>2026-05-03T09:25:19.539Z</time></trkpt><trkpt lat="42.2712117" lon="13.78075"><ele>340.6</ele><time>2026-05-03T09:25:20.54Z</time></trkpt><trkpt lat="42.2711483" lon="13.7808517"><ele>340.8</ele><time>2026-05-03T09:25:21.54Z</time></trkpt><trkpt lat="42.2710983" lon="13.78093"><ele>341.0</ele><time>2026-05-03T09:25:22.539Z</time></trkpt><trkpt lat="42.2710317" lon="13.78103"><ele>340.1666666666667</ele><time>2026-05-03T09:25:24.539Z</time></trkpt><trkpt lat="42.27097" lon="13.7811"><ele>339.33333333333337</ele><time>2026-05-03T09:25:27.539Z</time></trkpt><trkpt lat="42.2709167" lon="13.7811667"><ele>338.5</ele><time>2026-05-03T09:25:28.54Z</time></trkpt><trkpt lat="42.27086" lon="13.78125"><ele>337.6666666666667</ele><time>2026-05-03T09:25:29.54Z</time></trkpt><trkpt lat="42.27078" lon="13.7813267"><ele>336.8333333333333</ele><time>2026-05-03T09:25:30.539Z</time></trkpt><trkpt lat="42.2706783" lon="13.7813917"><ele>336.0</ele><time>2026-05-03T09:25:31.54Z</time></trkpt><trkpt lat="42.270535" lon="13.7814883"><ele>336.0</ele><time>2026-05-03T09:25:32.54Z</time></trkpt><trkpt lat="42.2703867" lon="13.7815833"><ele>336.0</ele><time>2026-05-03T09:25:33.539Z</time></trkpt><trkpt lat="42.27024" lon="13.7816933"><ele>336.0</ele><time>2026-05-03T09:25:34.54Z</time></trkpt><trkpt lat="42.2700917" lon="13.7818"><ele>335.25</ele><time>2026-05-03T09:25:35.539Z</time></trkpt><trkpt lat="42.26995" lon="13.7818883"><ele>334.5</ele><time>2026-05-03T09:25:36.54Z</time></trkpt><trkpt lat="42.26981" lon="13.7819533"><ele>333.75</ele><time>2026-05-03T09:25:37.539Z</time></trkpt><trkpt lat="42.2696833" lon="13.7820017"><ele>333.0</ele><time>2026-05-03T09:25:38.54Z</time></trkpt><trkpt lat="42.2695683" lon="13.7820583"><ele>334.4</ele><time>2026-05-03T09:25:39.539Z</time></trkpt><trkpt lat="42.2694867" lon="13.7821283"><ele>335.79999999999995</ele><time>2026-05-03T09:25:40.539Z</time></trkpt><trkpt lat="42.2694267" lon="13.7822217"><ele>337.2</ele><time>2026-05-03T09:25:41.54Z</time></trkpt><trkpt lat="42.2693817" lon="13.7823417"><ele>338.6</ele><time>2026-05-03T09:25:42.54Z</time></trkpt><trkpt lat="42.2693417" lon="13.7824917"><ele>340.0</ele><time>2026-05-03T09:25:43.54Z</time></trkpt><trkpt lat="42.269315" lon="13.7826617"><ele>339.66666666666663</ele><time>2026-05-03T09:25:44.54Z</time></trkpt><trkpt lat="42.2692917" lon="13.782855"><ele>339.3333333333333</ele><time>2026-05-03T09:25:45.54Z</time></trkpt><trkpt lat="42.2692583" lon="13.783055"><ele>339.0</ele><time>2026-05-03T09:25:46.539Z</time></trkpt><trkpt lat="42.269215" lon="13.7832667"><ele>339.0</ele><time>2026-05-03T09:25:47.54Z</time></trkpt><trkpt lat="42.2691483" lon="13.7834867"><ele>339.0</ele><time>2026-05-03T09:25:48.539Z</time></trkpt><trkpt lat="42.2690733" lon="13.7836917"><ele>339.0</ele><time>2026-05-03T09:25:49.539Z</time></trkpt><trkpt lat="42.2689883" lon="13.7838917"><ele>340.3333333333333</ele><time>2026-05-03T09:25:50.54Z</time></trkpt><trkpt lat="42.2689033" lon="13.78409"><ele>341.66666666666663</ele><time>2026-05-03T09:25:51.539Z</time></trkpt><trkpt lat="42.2688117" lon="13.7842867"><ele>343.0</ele><time>2026-05-03T09:25:52.54Z</time></trkpt><trkpt lat="42.2687067" lon="13.7844717"><ele>343.0</ele><time>2026-05-03T09:25:53.539Z</time></trkpt><trkpt lat="42.268595" lon="13.7846417"><ele>343.0</ele><time>2026-05-03T09:25:54.539Z</time></trkpt><trkpt lat="42.2684717" lon="13.784795"><ele>343.0</ele><time>2026-05-03T09:25:55.54Z</time></trkpt><trkpt lat="42.2683333" lon="13.7849533"><ele>343.0</ele><time>2026-05-03T09:25:56.54Z</time></trkpt><trkpt lat="42.2681767" lon="13.7851033"><ele>343.0</ele><time>2026-05-03T09:25:57.539Z</time></trkpt><trkpt lat="42.2680167" lon="13.7852517"><ele>343.0</ele><time>2026-05-03T09:25:58.54Z</time></trkpt><trkpt lat="42.26785" lon="13.7853883"><ele>344.3333333333333</ele><time>2026-05-03T09:25:59.54Z</time></trkpt><trkpt lat="42.2676883" lon="13.7855367"><ele>345.6666666666667</ele><time>2026-05-03T09:26:00.54Z</time></trkpt><trkpt lat="42.2675333" lon="13.7856867"><ele>347.0</ele><time>2026-05-03T09:26:01.54Z</time></trkpt><trkpt lat="42.2673983" lon="13.7858267"><ele>347.33333333333337</ele><time>2026-05-03T09:26:02.54Z</time></trkpt><trkpt lat="42.2672717" lon="13.7859633"><ele>347.6666666666667</ele><time>2026-05-03T09:26:03.54Z</time></trkpt><trkpt lat="42.2671533" lon="13.786095"><ele>348.0</ele><time>2026-05-03T09:26:04.54Z</time></trkpt><trkpt lat="42.26703" lon="13.7862417"><ele>348.0</ele><time>2026-05-03T09:26:05.539Z</time></trkpt><trkpt lat="42.2669167" lon="13.7864"><ele>348.0</ele><time>2026-05-03T09:26:06.54Z</time></trkpt><trkpt lat="42.2667983" lon="13.7865733"><ele>348.0</ele><time>2026-05-03T09:26:07.54Z</time></trkpt><trkpt lat="42.26668" lon="13.7867633"><ele>347.3333333333333</ele><time>2026-05-03T09:26:08.54Z</time></trkpt><trkpt lat="42.2665567" lon="13.78696"><ele>346.66666666666663</ele><time>2026-05-03T09:26:09.539Z</time></trkpt><trkpt lat="42.26643" lon="13.78716"><ele>346.0</ele><time>2026-05-03T09:26:10.539Z</time></trkpt><trkpt lat="42.2663167" lon="13.7873633"><ele>346.3333333333333</ele><time>2026-05-03T09:26:11.54Z</time></trkpt><trkpt lat="42.2662117" lon="13.7875667"><ele>346.6666666666667</ele><time>2026-05-03T09:26:12.54Z</time></trkpt><trkpt lat="42.2661083" lon="13.7877633"><ele>347.0</ele><time>2026-05-03T09:26:13.539Z</time></trkpt><trkpt lat="42.2659967" lon="13.7879667"><ele>347.0</ele><time>2026-05-03T09:26:14.539Z</time></trkpt><trkpt lat="42.2658783" lon="13.78816"><ele>347.0</ele><time>2026-05-03T09:26:15.539Z</time></trkpt><trkpt lat="42.265765" lon="13.7883483"><ele>347.0</ele><time>2026-05-03T09:26:16.539Z</time></trkpt><trkpt lat="42.2656483" lon="13.7885467"><ele>348.0</ele><time>2026-05-03T09:26:17.539Z</time></trkpt><trkpt lat="42.2655417" lon="13.788735"><ele>349.0</ele><time>2026-05-03T09:26:18.54Z</time></trkpt><trkpt lat="42.2654467" lon="13.788915"><ele>350.0</ele><time>2026-05-03T09:26:19.54Z</time></trkpt><trkpt lat="42.2653667" lon="13.789085"><ele>350.0</ele><time>2026-05-03T09:26:20.54Z</time></trkpt><trkpt lat="42.2652917" lon="13.7892733"><ele>350.0</ele><time>2026-05-03T09:26:21.54Z</time></trkpt><trkpt lat="42.2652233" lon="13.789485"><ele>350.0</ele><time>2026-05-03T09:26:22.54Z</time></trkpt><trkpt lat="42.2651367" lon="13.7897117"><ele>349.0</ele><time>2026-05-03T09:26:23.539Z</time></trkpt><trkpt lat="42.2650533" lon="13.789945"><ele>348.0</ele><time>2026-05-03T09:26:24.54Z</time></trkpt><trkpt lat="42.2649717" lon="13.7901833"><ele>347.0</ele><time>2026-05-03T09:26:25.539Z</time></trkpt><trkpt lat="42.264885" lon="13.790445"><ele>346.33333333333337</ele><time>2026-05-03T09:26:26.54Z</time></trkpt><trkpt lat="42.2648" lon="13.7907233"><ele>345.6666666666667</ele><time>2026-05-03T09:26:27.539Z</time></trkpt><trkpt lat="42.2647117" lon="13.790995"><ele>345.0</ele><time>2026-05-03T09:26:28.54Z</time></trkpt><trkpt lat="42.264635" lon="13.7912383"><ele>345.3333333333333</ele><time>2026-05-03T09:26:29.54Z</time></trkpt><trkpt lat="42.2645533" lon="13.7914683"><ele>345.66666666666663</ele><time>2026-05-03T09:26:30.54Z</time></trkpt><trkpt lat="42.2644817" lon="13.7917033"><ele>346.0</ele><time>2026-05-03T09:26:31.539Z</time></trkpt><trkpt lat="42.2644217" lon="13.791915"><ele>346.0</ele><time>2026-05-03T09:26:32.54Z</time></trkpt><trkpt lat="42.264365" lon="13.7921317"><ele>346.0</ele><time>2026-05-03T09:26:33.54Z</time></trkpt><trkpt lat="42.26431" lon="13.7923417"><ele>346.0</ele><time>2026-05-03T09:26:34.539Z</time></trkpt><trkpt lat="42.2642583" lon="13.792545"><ele>345.5</ele><time>2026-05-03T09:26:35.54Z</time></trkpt><trkpt lat="42.264205" lon="13.7927317"><ele>345.0</ele><time>2026-05-03T09:26:36.54Z</time></trkpt><trkpt lat="42.26416" lon="13.7928983"><ele>344.5</ele><time>2026-05-03T09:26:37.539Z</time></trkpt><trkpt lat="42.2641117" lon="13.7930533"><ele>344.0</ele><time>2026-05-03T09:26:38.54Z</time></trkpt><trkpt lat="42.264065" lon="13.79319"><ele>344.0</ele><time>2026-05-03T09:26:39.539Z</time></trkpt><trkpt lat="42.264025" lon="13.7933117"><ele>344.0</ele><time>2026-05-03T09:26:40.54Z</time></trkpt><trkpt lat="42.263985" lon="13.793435"><ele>344.0</ele><time>2026-05-03T09:26:41.54Z</time></trkpt><trkpt lat="42.2639483" lon="13.793545"><ele>344.0</ele><time>2026-05-03T09:26:42.54Z</time></trkpt><trkpt lat="42.2639133" lon="13.7936333"><ele>344.0</ele><time>2026-05-03T09:26:43.54Z</time></trkpt><trkpt lat="42.2638817" lon="13.7937267"><ele>344.0</ele><time>2026-05-03T09:26:44.539Z</time></trkpt><trkpt lat="42.2638533" lon="13.7938283"><ele>344.4</ele><time>2026-05-03T09:26:45.539Z</time></trkpt><trkpt lat="42.2638233" lon="13.7939383"><ele>344.79999999999995</ele><time>2026-05-03T09:26:46.54Z</time></trkpt><trkpt lat="42.2637817" lon="13.794055"><ele>345.20000000000005</ele><time>2026-05-03T09:26:47.54Z</time></trkpt><trkpt lat="42.2637367" lon="13.7941867"><ele>345.6</ele><time>2026-05-03T09:26:48.539Z</time></trkpt><trkpt lat="42.26369" lon="13.794315"><ele>346.0</ele><time>2026-05-03T09:26:49.54Z</time></trkpt><trkpt lat="42.2636333" lon="13.7944417"><ele>345.0</ele><time>2026-05-03T09:26:50.539Z</time></trkpt><trkpt lat="42.2635633" lon="13.7945733"><ele>344.0</ele><time>2026-05-03T09:26:51.54Z</time></trkpt><trkpt lat="42.263475" lon="13.794715"><ele>343.0</ele><time>2026-05-03T09:26:52.539Z</time></trkpt><trkpt lat="42.2633683" lon="13.7948633"><ele>342.0</ele><time>2026-05-03T09:26:53.539Z</time></trkpt><trkpt lat="42.2632633" lon="13.795025"><ele>341.75</ele><time>2026-05-03T09:26:54.539Z</time></trkpt><trkpt lat="42.2631667" lon="13.79518"><ele>341.5</ele><time>2026-05-03T09:26:55.54Z</time></trkpt><trkpt lat="42.2630767" lon="13.7953333"><ele>341.25</ele><time>2026-05-03T09:26:56.54Z</time></trkpt><trkpt lat="42.262995" lon="13.795475"><ele>341.0</ele><time>2026-05-03T09:26:57.539Z</time></trkpt><trkpt lat="42.262915" lon="13.795615"><ele>341.6</ele><time>2026-05-03T09:26:58.54Z</time></trkpt><trkpt lat="42.262835" lon="13.7957467"><ele>342.20000000000005</ele><time>2026-05-03T09:26:59.54Z</time></trkpt><trkpt lat="42.2627717" lon="13.79586"><ele>342.79999999999995</ele><time>2026-05-03T09:27:00.54Z</time></trkpt><trkpt lat="42.262715" lon="13.79596"><ele>343.4</ele><time>2026-05-03T09:27:01.54Z</time></trkpt><trkpt lat="42.2626667" lon="13.7960467"><ele>344.0</ele><time>2026-05-03T09:27:02.539Z</time></trkpt><trkpt lat="42.2626217" lon="13.79612"><ele>344.0</ele><time>2026-05-03T09:27:03.539Z</time></trkpt><trkpt lat="42.2625783" lon="13.7962233"><ele>344.0</ele><time>2026-05-03T09:27:05.54Z</time></trkpt><trkpt lat="42.26264" lon="13.7963167"><ele>344.0</ele><time>2026-05-03T09:27:08.54Z</time></trkpt><trkpt lat="42.2627067" lon="13.7963317"><ele>344.0</ele><time>2026-05-03T09:27:09.539Z</time></trkpt><trkpt lat="42.2628017" lon="13.7963333"><ele>344.0</ele><time>2026-05-03T09:27:10.54Z</time></trkpt><trkpt lat="42.2629133" lon="13.7963333"><ele>344.0</ele><time>2026-05-03T09:27:11.54Z</time></trkpt><trkpt lat="42.26304" lon="13.7963433"><ele>344.0</ele><time>2026-05-03T09:27:12.54Z</time></trkpt><trkpt lat="42.26317" lon="13.7963733"><ele>344.0</ele><time>2026-05-03T09:27:13.54Z</time></trkpt><trkpt lat="42.2633167" lon="13.7964017"><ele>344.0</ele><time>2026-05-03T09:27:14.54Z</time></trkpt><trkpt lat="42.26346" lon="13.796435"><ele>342.75</ele><time>2026-05-03T09:27:15.54Z</time></trkpt><trkpt lat="42.263595" lon="13.7964733"><ele>341.5</ele><time>2026-05-03T09:27:16.54Z</time></trkpt><trkpt lat="42.2637417" lon="13.7965"><ele>340.25</ele><time>2026-05-03T09:27:17.54Z</time></trkpt><trkpt lat="42.2638933" lon="13.796535"><ele>339.0</ele><time>2026-05-03T09:27:18.54Z</time></trkpt><trkpt lat="42.2640567" lon="13.7965717"><ele>338.0</ele><time>2026-05-03T09:27:19.54Z</time></trkpt><trkpt lat="42.2642" lon="13.7966117"><ele>337.0</ele><time>2026-05-03T09:27:20.54Z</time></trkpt><trkpt lat="42.26433" lon="13.7966583"><ele>336.0</ele><time>2026-05-03T09:27:21.539Z</time></trkpt><trkpt lat="42.2644433" lon="13.7967317"><ele>335.0</ele><time>2026-05-03T09:27:22.54Z</time></trkpt><trkpt lat="42.2645367" lon="13.7968267"><ele>333.6</ele><time>2026-05-03T09:27:23.539Z</time></trkpt><trkpt lat="42.2646167" lon="13.7969383"><ele>332.2</ele><time>2026-05-03T09:27:24.538Z</time></trkpt><trkpt lat="42.2646767" lon="13.797045"><ele>330.79999999999995</ele><time>2026-05-03T09:27:25.539Z</time></trkpt><trkpt lat="42.2647233" lon="13.7971217"><ele>329.4</ele><time>2026-05-03T09:27:26.538Z</time></trkpt><trkpt lat="42.2647783" lon="13.79722"><ele>328.0</ele><time>2026-05-03T09:27:28.539Z</time></trkpt><trkpt lat="42.26481" lon="13.7973383"><ele>327.99999999999994</ele><time>2026-05-03T09:27:31.538Z</time></trkpt><trkpt lat="42.2648283" lon="13.797425"><ele>328.0</ele><time>2026-05-03T09:27:32.538Z</time></trkpt><trkpt lat="42.2648383" lon="13.7975217"><ele>328.0</ele><time>2026-05-03T09:27:33.539Z</time></trkpt><trkpt lat="42.2648433" lon="13.7976183"><ele>328.0</ele><time>2026-05-03T09:27:34.539Z</time></trkpt><trkpt lat="42.2648567" lon="13.7977167"><ele>328.0</ele><time>2026-05-03T09:27:35.538Z</time></trkpt><trkpt lat="42.2648633" lon="13.7978217"><ele>327.99999999999994</ele><time>2026-05-03T09:27:36.539Z</time></trkpt><trkpt lat="42.2648767" lon="13.79792"><ele>328.0</ele><time>2026-05-03T09:27:37.539Z</time></trkpt><trkpt lat="42.264885" lon="13.79801"><ele>328.16666666666663</ele><time>2026-05-03T09:27:38.539Z</time></trkpt><trkpt lat="42.2648983" lon="13.798105"><ele>328.3333333333333</ele><time>2026-05-03T09:27:39.538Z</time></trkpt><trkpt lat="42.2649133" lon="13.7982083"><ele>328.5</ele><time>2026-05-03T09:27:40.539Z</time></trkpt><trkpt lat="42.2649367" lon="13.7983017"><ele>328.6666666666667</ele><time>2026-05-03T09:27:41.539Z</time></trkpt><trkpt lat="42.2649633" lon="13.79838"><ele>328.83333333333337</ele><time>2026-05-03T09:27:42.539Z</time></trkpt><trkpt lat="42.2649967" lon="13.798505"><ele>329.0</ele><time>2026-05-03T09:27:44.539Z</time></trkpt><trkpt lat="42.26502" lon="13.7986083"><ele>329.0</ele><time>2026-05-03T09:27:46.539Z</time></trkpt><trkpt lat="42.265045" lon="13.798695"><ele>329.0</ele><time>2026-05-03T09:27:48.539Z</time></trkpt><trkpt lat="42.265085" lon="13.7988117"><ele>329.0</ele><time>2026-05-03T09:27:50.538Z</time></trkpt><trkpt lat="42.2651317" lon="13.7989417"><ele>329.0</ele><time>2026-05-03T09:27:52.539Z</time></trkpt><trkpt lat="42.2651533" lon="13.7990667"><ele>329.0</ele><time>2026-05-03T09:27:54.539Z</time></trkpt><trkpt lat="42.2651333" lon="13.799155"><ele>329.0</ele><time>2026-05-03T09:27:56.539Z</time></trkpt><trkpt lat="42.2650567" lon="13.7992283"><ele>329.0</ele><time>2026-05-03T09:27:58.539Z</time></trkpt><trkpt lat="42.2649817" lon="13.7992733"><ele>329.0</ele><time>2026-05-03T09:27:59.539Z</time></trkpt><trkpt lat="42.2648933" lon="13.7993033"><ele>329.0</ele><time>2026-05-03T09:28:00.539Z</time></trkpt><trkpt lat="42.26481" lon="13.7993017"><ele>329.0</ele><time>2026-05-03T09:28:01.538Z</time></trkpt><trkpt lat="42.2647383" lon="13.7992917"><ele>329.0</ele><time>2026-05-03T09:28:02.538Z</time></trkpt><trkpt lat="42.2646717" lon="13.7992933"><ele>329.0</ele><time>2026-05-03T09:28:03.538Z</time></trkpt><trkpt lat="42.2646067" lon="13.7993083"><ele>329.33333333333337</ele><time>2026-05-03T09:28:04.539Z</time></trkpt><trkpt lat="42.2645433" lon="13.79933"><ele>329.6666666666667</ele><time>2026-05-03T09:28:05.538Z</time></trkpt><trkpt lat="42.2644817" lon="13.7993583"><ele>330.0</ele><time>2026-05-03T09:28:06.539Z</time></trkpt><trkpt lat="42.2644117" lon="13.799405"><ele>330.3333333333333</ele><time>2026-05-03T09:28:07.539Z</time></trkpt><trkpt lat="42.2643383" lon="13.7994767"><ele>330.66666666666663</ele><time>2026-05-03T09:28:08.539Z</time></trkpt><trkpt lat="42.2642633" lon="13.7995667"><ele>331.0</ele><time>2026-05-03T09:28:09.539Z</time></trkpt><trkpt lat="42.2641933" lon="13.799655"><ele>331.6</ele><time>2026-05-03T09:28:10.538Z</time></trkpt><trkpt lat="42.26413" lon="13.7997183"><ele>332.20000000000005</ele><time>2026-05-03T09:28:11.539Z</time></trkpt><trkpt lat="42.2640567" lon="13.7997667"><ele>332.79999999999995</ele><time>2026-05-03T09:28:12.538Z</time></trkpt><trkpt lat="42.26397" lon="13.7998183"><ele>333.4</ele><time>2026-05-03T09:28:13.539Z</time></trkpt><trkpt lat="42.2638767" lon="13.79987"><ele>334.0</ele><time>2026-05-03T09:28:14.538Z</time></trkpt><trkpt lat="42.2637833" lon="13.7999267"><ele>334.0</ele><time>2026-05-03T09:28:15.539Z</time></trkpt><trkpt lat="42.2636867" lon="13.79998"><ele>334.0</ele><time>2026-05-03T09:28:16.539Z</time></trkpt><trkpt lat="42.2636017" lon="13.800015"><ele>334.0</ele><time>2026-05-03T09:28:17.538Z</time></trkpt><trkpt lat="42.263505" lon="13.80005"><ele>334.0</ele><time>2026-05-03T09:28:18.539Z</time></trkpt><trkpt lat="42.26341" lon="13.8000717"><ele>334.0</ele><time>2026-05-03T09:28:19.538Z</time></trkpt><trkpt lat="42.2633083" lon="13.80008"><ele>334.0</ele><time>2026-05-03T09:28:20.538Z</time></trkpt><trkpt lat="42.2632033" lon="13.8000783"><ele>334.0</ele><time>2026-05-03T09:28:21.539Z</time></trkpt><trkpt lat="42.263095" lon="13.8000633"><ele>334.0</ele><time>2026-05-03T09:28:22.538Z</time></trkpt><trkpt lat="42.2629917" lon="13.80003"><ele>334.0</ele><time>2026-05-03T09:28:23.538Z</time></trkpt><trkpt lat="42.2628983" lon="13.7999783"><ele>334.0</ele><time>2026-05-03T09:28:24.539Z</time></trkpt><trkpt lat="42.262805" lon="13.79992"><ele>333.75</ele><time>2026-05-03T09:28:25.538Z</time></trkpt><trkpt lat="42.2627" lon="13.7998867"><ele>333.5</ele><time>2026-05-03T09:28:26.539Z</time></trkpt><trkpt lat="42.2625933" lon="13.7998533"><ele>333.25</ele><time>2026-05-03T09:28:27.538Z</time></trkpt><trkpt lat="42.262475" lon="13.7998367"><ele>333.0</ele><time>2026-05-03T09:28:28.538Z</time></trkpt><trkpt lat="42.2623367" lon="13.7998317"><ele>332.79999999999995</ele><time>2026-05-03T09:28:29.539Z</time></trkpt><trkpt lat="42.2622133" lon="13.799815"><ele>332.6</ele><time>2026-05-03T09:28:30.539Z</time></trkpt><trkpt lat="42.2620983" lon="13.7998"><ele>332.4</ele><time>2026-05-03T09:28:31.539Z</time></trkpt><trkpt lat="42.2619917" lon="13.7997983"><ele>332.20000000000005</ele><time>2026-05-03T09:28:32.538Z</time></trkpt><trkpt lat="42.2618983" lon="13.799805"><ele>332.0</ele><time>2026-05-03T09:28:33.538Z</time></trkpt><trkpt lat="42.2618033" lon="13.7998333"><ele>332.0</ele><time>2026-05-03T09:28:34.539Z</time></trkpt><trkpt lat="42.2617083" lon="13.7998833"><ele>332.0</ele><time>2026-05-03T09:28:35.539Z</time></trkpt><trkpt lat="42.2616133" lon="13.799955"><ele>332.0</ele><time>2026-05-03T09:28:36.538Z</time></trkpt><trkpt lat="42.261505" lon="13.8000433"><ele>332.0</ele><time>2026-05-03T09:28:37.539Z</time></trkpt><trkpt lat="42.2614017" lon="13.8001283"><ele>332.0</ele><time>2026-05-03T09:28:38.539Z</time></trkpt><trkpt lat="42.2613117" lon="13.8002133"><ele>332.0</ele><time>2026-05-03T09:28:39.538Z</time></trkpt><trkpt lat="42.2612217" lon="13.800295"><ele>332.0</ele><time>2026-05-03T09:28:40.538Z</time></trkpt><trkpt lat="42.2611467" lon="13.80039"><ele>332.0</ele><time>2026-05-03T09:28:41.539Z</time></trkpt><trkpt lat="42.261075" lon="13.80049"><ele>332.0</ele><time>2026-05-03T09:28:42.538Z</time></trkpt><trkpt lat="42.2610083" lon="13.8005833"><ele>332.0</ele><time>2026-05-03T09:28:43.538Z</time></trkpt><trkpt lat="42.2609517" lon="13.8006683"><ele>332.0</ele><time>2026-05-03T09:28:44.538Z</time></trkpt><trkpt lat="42.260875" lon="13.800765"><ele>332.0</ele><time>2026-05-03T09:28:45.539Z</time></trkpt><trkpt lat="42.2607867" lon="13.80086"><ele>332.0</ele><time>2026-05-03T09:28:46.539Z</time></trkpt><trkpt lat="42.2606833" lon="13.8009533"><ele>332.0</ele><time>2026-05-03T09:28:47.539Z</time></trkpt><trkpt lat="42.2605717" lon="13.80105"><ele>331.75</ele><time>2026-05-03T09:28:48.539Z</time></trkpt><trkpt lat="42.26046" lon="13.8011467"><ele>331.5</ele><time>2026-05-03T09:28:49.539Z</time></trkpt><trkpt lat="42.26035" lon="13.8012483"><ele>331.25</ele><time>2026-05-03T09:28:50.539Z</time></trkpt><trkpt lat="42.2602367" lon="13.80136"><ele>331.0</ele><time>2026-05-03T09:28:51.539Z</time></trkpt><trkpt lat="42.2601317" lon="13.801475"><ele>331.0</ele><time>2026-05-03T09:28:52.539Z</time></trkpt><trkpt lat="42.260035" lon="13.801595"><ele>331.0</ele><time>2026-05-03T09:28:53.539Z</time></trkpt><trkpt lat="42.259945" lon="13.8017133"><ele>331.0</ele><time>2026-05-03T09:28:54.539Z</time></trkpt><trkpt lat="42.2598683" lon="13.80184"><ele>331.0</ele><time>2026-05-03T09:28:55.538Z</time></trkpt><trkpt lat="42.25978" lon="13.8019583"><ele>332.0</ele><time>2026-05-03T09:28:56.539Z</time></trkpt><trkpt lat="42.2596917" lon="13.8020783"><ele>333.0</ele><time>2026-05-03T09:28:57.538Z</time></trkpt><trkpt lat="42.2595933" lon="13.802175"><ele>334.0</ele><time>2026-05-03T09:28:58.539Z</time></trkpt><trkpt lat="42.25948" lon="13.8022533"><ele>335.0</ele><time>2026-05-03T09:28:59.538Z</time></trkpt><trkpt lat="42.25937" lon="13.8023167"><ele>335.0</ele><time>2026-05-03T09:29:00.538Z</time></trkpt><trkpt lat="42.2592583" lon="13.802365"><ele>335.0</ele><time>2026-05-03T09:29:01.539Z</time></trkpt><trkpt lat="42.259145" lon="13.802385"><ele>335.0</ele><time>2026-05-03T09:29:02.539Z</time></trkpt><trkpt lat="42.2590417" lon="13.8023817"><ele>335.0</ele><time>2026-05-03T09:29:03.538Z</time></trkpt><trkpt lat="42.2589267" lon="13.8023533"><ele>335.75</ele><time>2026-05-03T09:29:04.539Z</time></trkpt><trkpt lat="42.2587967" lon="13.8023083"><ele>336.5</ele><time>2026-05-03T09:29:05.538Z</time></trkpt><trkpt lat="42.25867" lon="13.802255"><ele>337.25</ele><time>2026-05-03T09:29:06.539Z</time></trkpt><trkpt lat="42.2585517" lon="13.8021967"><ele>338.0</ele><time>2026-05-03T09:29:07.539Z</time></trkpt><trkpt lat="42.2584267" lon="13.80214"><ele>338.0</ele><time>2026-05-03T09:29:08.538Z</time></trkpt><trkpt lat="42.2583217" lon="13.802085"><ele>338.0</ele><time>2026-05-03T09:29:09.539Z</time></trkpt><trkpt lat="42.2582233" lon="13.80202"><ele>338.0</ele><time>2026-05-03T09:29:10.539Z</time></trkpt><trkpt lat="42.2581433" lon="13.801945"><ele>338.0</ele><time>2026-05-03T09:29:11.539Z</time></trkpt><trkpt lat="42.258075" lon="13.80185"><ele>338.0</ele><time>2026-05-03T09:29:12.538Z</time></trkpt><trkpt lat="42.2580183" lon="13.8017333"><ele>337.0</ele><time>2026-05-03T09:29:13.539Z</time></trkpt><trkpt lat="42.2579517" lon="13.8016067"><ele>336.0</ele><time>2026-05-03T09:29:14.539Z</time></trkpt><trkpt lat="42.2578733" lon="13.8014767"><ele>335.0</ele><time>2026-05-03T09:29:15.539Z</time></trkpt><trkpt lat="42.257795" lon="13.8013583"><ele>334.0</ele><time>2026-05-03T09:29:16.538Z</time></trkpt><trkpt lat="42.2577267" lon="13.8012567"><ele>334.0</ele><time>2026-05-03T09:29:17.539Z</time></trkpt><trkpt lat="42.2576583" lon="13.8011883"><ele>334.0</ele><time>2026-05-03T09:29:18.539Z</time></trkpt><trkpt lat="42.2575767" lon="13.8011583"><ele>334.0</ele><time>2026-05-03T09:29:19.539Z</time></trkpt><trkpt lat="42.2575117" lon="13.80116"><ele>334.0</ele><time>2026-05-03T09:29:20.539Z</time></trkpt><trkpt lat="42.2574367" lon="13.80119"><ele>334.0</ele><time>2026-05-03T09:29:21.539Z</time></trkpt><trkpt lat="42.2573533" lon="13.8012467"><ele>334.0</ele><time>2026-05-03T09:29:22.539Z</time></trkpt><trkpt lat="42.2572483" lon="13.8013383"><ele>332.25</ele><time>2026-05-03T09:29:23.539Z</time></trkpt><trkpt lat="42.257125" lon="13.8014517"><ele>330.5</ele><time>2026-05-03T09:29:24.539Z</time></trkpt><trkpt lat="42.257005" lon="13.8015833"><ele>328.75</ele><time>2026-05-03T09:29:25.539Z</time></trkpt><trkpt lat="42.2569083" lon="13.8016983"><ele>327.0</ele><time>2026-05-03T09:29:26.539Z</time></trkpt><trkpt lat="42.2568283" lon="13.80182"><ele>329.0</ele><time>2026-05-03T09:29:27.538Z</time></trkpt><trkpt lat="42.2567517" lon="13.8019383"><ele>331.0</ele><time>2026-05-03T09:29:28.539Z</time></trkpt><trkpt lat="42.2566667" lon="13.8020633"><ele>333.0</ele><time>2026-05-03T09:29:29.539Z</time></trkpt><trkpt lat="42.2565733" lon="13.802175"><ele>335.0</ele><time>2026-05-03T09:29:30.538Z</time></trkpt><trkpt lat="42.2564833" lon="13.8022617"><ele>333.75</ele><time>2026-05-03T09:29:31.539Z</time></trkpt><trkpt lat="42.256375" lon="13.8023383"><ele>332.5</ele><time>2026-05-03T09:29:32.539Z</time></trkpt><trkpt lat="42.2562683" lon="13.8023983"><ele>331.25</ele><time>2026-05-03T09:29:33.538Z</time></trkpt><trkpt lat="42.2561517" lon="13.8024317"><ele>330.0</ele><time>2026-05-03T09:29:34.539Z</time></trkpt><trkpt lat="42.2560233" lon="13.8024633"><ele>330.0</ele><time>2026-05-03T09:29:35.539Z</time></trkpt><trkpt lat="42.2559033" lon="13.8024967"><ele>330.0</ele><time>2026-05-03T09:29:36.539Z</time></trkpt><trkpt lat="42.2558" lon="13.80253"><ele>330.0</ele><time>2026-05-03T09:29:37.538Z</time></trkpt><trkpt lat="42.2556983" lon="13.8025633"><ele>330.0</ele><time>2026-05-03T09:29:38.539Z</time></trkpt><trkpt lat="42.255595" lon="13.802605"><ele>330.0</ele><time>2026-05-03T09:29:39.539Z</time></trkpt><trkpt lat="42.2554867" lon="13.802675"><ele>331.25</ele><time>2026-05-03T09:29:40.539Z</time></trkpt><trkpt lat="42.25537" lon="13.8027567"><ele>332.5</ele><time>2026-05-03T09:29:41.539Z</time></trkpt><trkpt lat="42.25524" lon="13.8028433"><ele>333.75</ele><time>2026-05-03T09:29:42.539Z</time></trkpt><trkpt lat="42.255105" lon="13.8029183"><ele>335.0</ele><time>2026-05-03T09:29:43.538Z</time></trkpt><trkpt lat="42.254965" lon="13.8029767"><ele>335.0</ele><time>2026-05-03T09:29:44.538Z</time></trkpt><trkpt lat="42.2548283" lon="13.8030117"><ele>335.0</ele><time>2026-05-03T09:29:45.539Z</time></trkpt><trkpt lat="42.2547133" lon="13.8030267"><ele>335.0</ele><time>2026-05-03T09:29:46.538Z</time></trkpt><trkpt lat="42.2546017" lon="13.8030233"><ele>335.0</ele><time>2026-05-03T09:29:47.539Z</time></trkpt><trkpt lat="42.2544917" lon="13.8030217"><ele>333.75</ele><time>2026-05-03T09:29:48.539Z</time></trkpt><trkpt lat="42.2543667" lon="13.8030517"><ele>332.5</ele><time>2026-05-03T09:29:49.538Z</time></trkpt><trkpt lat="42.2542333" lon="13.803105"><ele>331.25</ele><time>2026-05-03T09:29:50.539Z</time></trkpt><trkpt lat="42.2541067" lon="13.803165"><ele>330.0</ele><time>2026-05-03T09:29:51.539Z</time></trkpt><trkpt lat="42.25399" lon="13.80323"><ele>328.25</ele><time>2026-05-03T09:29:52.539Z</time></trkpt><trkpt lat="42.2538817" lon="13.8032783"><ele>326.5</ele><time>2026-05-03T09:29:53.538Z</time></trkpt><trkpt lat="42.2537683" lon="13.803325"><ele>324.75</ele><time>2026-05-03T09:29:54.539Z</time></trkpt><trkpt lat="42.2536583" lon="13.8033783"><ele>323.0</ele><time>2026-05-03T09:29:55.539Z</time></trkpt><trkpt lat="42.2535467" lon="13.8034417"><ele>324.0</ele><time>2026-05-03T09:29:56.538Z</time></trkpt><trkpt lat="42.2534183" lon="13.8035333"><ele>325.0</ele><time>2026-05-03T09:29:57.539Z</time></trkpt><trkpt lat="42.253295" lon="13.80364"><ele>326.0</ele><time>2026-05-03T09:29:58.539Z</time></trkpt><trkpt lat="42.2531767" lon="13.8037617"><ele>327.0</ele><time>2026-05-03T09:29:59.539Z</time></trkpt><trkpt lat="42.253055" lon="13.80386"><ele>327.0</ele><time>2026-05-03T09:30:00.538Z</time></trkpt><trkpt lat="42.2529317" lon="13.8039417"><ele>327.0</ele><time>2026-05-03T09:30:01.538Z</time></trkpt><trkpt lat="42.2528067" lon="13.8039983"><ele>327.0</ele><time>2026-05-03T09:30:02.538Z</time></trkpt><trkpt lat="42.2526783" lon="13.8040367"><ele>327.0</ele><time>2026-05-03T09:30:03.539Z</time></trkpt><trkpt lat="42.2525633" lon="13.80406"><ele>327.0</ele><time>2026-05-03T09:30:04.539Z</time></trkpt><trkpt lat="42.25247" lon="13.8040783"><ele>327.0</ele><time>2026-05-03T09:30:05.539Z</time></trkpt><trkpt lat="42.2523917" lon="13.80409"><ele>327.0</ele><time>2026-05-03T09:30:06.538Z</time></trkpt><trkpt lat="42.2523267" lon="13.8040917"><ele>327.0</ele><time>2026-05-03T09:30:07.538Z</time></trkpt><trkpt lat="42.2522633" lon="13.8040933"><ele>327.0</ele><time>2026-05-03T09:30:08.538Z</time></trkpt><trkpt lat="42.2521983" lon="13.8040783"><ele>327.0</ele><time>2026-05-03T09:30:09.538Z</time></trkpt><trkpt lat="42.2521267" lon="13.8040533"><ele>327.0</ele><time>2026-05-03T09:30:10.539Z</time></trkpt><trkpt lat="42.252055" lon="13.8040167"><ele>328.6666666666667</ele><time>2026-05-03T09:30:11.539Z</time></trkpt><trkpt lat="42.251985" lon="13.8039767"><ele>330.3333333333333</ele><time>2026-05-03T09:30:12.539Z</time></trkpt><trkpt lat="42.2519133" lon="13.8039133"><ele>332.0</ele><time>2026-05-03T09:30:13.538Z</time></trkpt><trkpt lat="42.2518433" lon="13.80384"><ele>333.66666666666663</ele><time>2026-05-03T09:30:14.539Z</time></trkpt><trkpt lat="42.25178" lon="13.803765"><ele>335.3333333333333</ele><time>2026-05-03T09:30:15.539Z</time></trkpt><trkpt lat="42.2516983" lon="13.803675"><ele>337.0</ele><time>2026-05-03T09:30:17.539Z</time></trkpt><trkpt lat="42.251635" lon="13.8036117"><ele>337.0</ele><time>2026-05-03T09:30:20.539Z</time></trkpt><trkpt lat="42.25157" lon="13.8035383"><ele>337.0</ele><time>2026-05-03T09:30:22.539Z</time></trkpt><trkpt lat="42.25151" lon="13.8034933"><ele>337.0</ele><time>2026-05-03T09:30:23.539Z</time></trkpt><trkpt lat="42.2514367" lon="13.8034533"><ele>337.0</ele><time>2026-05-03T09:30:24.539Z</time></trkpt><trkpt lat="42.251345" lon="13.8034183"><ele>337.0</ele><time>2026-05-03T09:30:25.539Z</time></trkpt><trkpt lat="42.2512433" lon="13.8034017"><ele>337.0</ele><time>2026-05-03T09:30:26.538Z</time></trkpt><trkpt lat="42.251145" lon="13.8033767"><ele>335.8333333333333</ele><time>2026-05-03T09:30:27.538Z</time></trkpt><trkpt lat="42.25105" lon="13.8033467"><ele>334.66666666666663</ele><time>2026-05-03T09:30:28.539Z</time></trkpt><trkpt lat="42.2509617" lon="13.803325"><ele>333.5</ele><time>2026-05-03T09:30:29.538Z</time></trkpt><trkpt lat="42.2508817" lon="13.8033133"><ele>332.3333333333333</ele><time>2026-05-03T09:30:30.538Z</time></trkpt><trkpt lat="42.250795" lon="13.803315"><ele>331.1666666666667</ele><time>2026-05-03T09:30:31.539Z</time></trkpt><trkpt lat="42.2507083" lon="13.8033233"><ele>330.0</ele><time>2026-05-03T09:30:32.539Z</time></trkpt><trkpt lat="42.2506183" lon="13.8033567"><ele>330.0</ele><time>2026-05-03T09:30:33.539Z</time></trkpt><trkpt lat="42.2505217" lon="13.8034067"><ele>330.0</ele><time>2026-05-03T09:30:34.538Z</time></trkpt><trkpt lat="42.250445" lon="13.80344"><ele>330.0</ele><time>2026-05-03T09:30:35.539Z</time></trkpt><trkpt lat="42.2503583" lon="13.8035067"><ele>330.0</ele><time>2026-05-03T09:30:36.539Z</time></trkpt><trkpt lat="42.2502767" lon="13.8035767"><ele>330.0</ele><time>2026-05-03T09:30:37.539Z</time></trkpt><trkpt lat="42.2501983" lon="13.8036433"><ele>330.8</ele><time>2026-05-03T09:30:38.538Z</time></trkpt><trkpt lat="42.250115" lon="13.8037133"><ele>331.6</ele><time>2026-05-03T09:30:39.538Z</time></trkpt><trkpt lat="42.25003" lon="13.8037933"><ele>332.4</ele><time>2026-05-03T09:30:40.539Z</time></trkpt><trkpt lat="42.2499317" lon="13.8038933"><ele>333.2</ele><time>2026-05-03T09:30:41.539Z</time></trkpt><trkpt lat="42.2498483" lon="13.8039967"><ele>334.0</ele><time>2026-05-03T09:30:42.539Z</time></trkpt><trkpt lat="42.24977" lon="13.8041183"><ele>334.0</ele><time>2026-05-03T09:30:43.538Z</time></trkpt><trkpt lat="42.2496967" lon="13.80426"><ele>334.0</ele><time>2026-05-03T09:30:44.539Z</time></trkpt><trkpt lat="42.2496233" lon="13.8044067"><ele>334.0</ele><time>2026-05-03T09:30:45.539Z</time></trkpt><trkpt lat="42.2495533" lon="13.8045317"><ele>334.0</ele><time>2026-05-03T09:30:46.539Z</time></trkpt><trkpt lat="42.2494767" lon="13.8046383"><ele>334.6</ele><time>2026-05-03T09:30:47.539Z</time></trkpt><trkpt lat="42.2494133" lon="13.804735"><ele>335.2</ele><time>2026-05-03T09:30:48.539Z</time></trkpt><trkpt lat="42.2493417" lon="13.804825"><ele>335.8</ele><time>2026-05-03T09:30:49.538Z</time></trkpt><trkpt lat="42.2492633" lon="13.8049217"><ele>336.40000000000003</ele><time>2026-05-03T09:30:50.539Z</time></trkpt><trkpt lat="42.2491917" lon="13.8050033"><ele>337.0</ele><time>2026-05-03T09:30:51.539Z</time></trkpt><trkpt lat="42.249115" lon="13.8050817"><ele>337.0</ele><time>2026-05-03T09:30:52.539Z</time></trkpt><trkpt lat="42.249035" lon="13.8051367"><ele>337.0</ele><time>2026-05-03T09:30:53.538Z</time></trkpt><trkpt lat="42.2489467" lon="13.8051767"><ele>337.0</ele><time>2026-05-03T09:30:54.539Z</time></trkpt><trkpt lat="42.2488483" lon="13.8051983"><ele>337.0</ele><time>2026-05-03T09:30:55.539Z</time></trkpt><trkpt lat="42.2487383" lon="13.805225"><ele>337.0</ele><time>2026-05-03T09:30:56.538Z</time></trkpt><trkpt lat="42.2486283" lon="13.8052767"><ele>336.6</ele><time>2026-05-03T09:30:57.539Z</time></trkpt><trkpt lat="42.2485317" lon="13.8053333"><ele>336.20000000000005</ele><time>2026-05-03T09:30:58.538Z</time></trkpt><trkpt lat="42.2484417" lon="13.805415"><ele>335.8</ele><time>2026-05-03T09:30:59.539Z</time></trkpt><trkpt lat="42.2483683" lon="13.8054917"><ele>335.4</ele><time>2026-05-03T09:31:00.538Z</time></trkpt><trkpt lat="42.2482917" lon="13.8055717"><ele>335.0</ele><time>2026-05-03T09:31:01.538Z</time></trkpt><trkpt lat="42.2482267" lon="13.8056583"><ele>335.0</ele><time>2026-05-03T09:31:02.539Z</time></trkpt><trkpt lat="42.2481633" lon="13.8057367"><ele>335.0</ele><time>2026-05-03T09:31:03.539Z</time></trkpt><trkpt lat="42.2481017" lon="13.80581"><ele>335.0</ele><time>2026-05-03T09:31:04.538Z</time></trkpt><trkpt lat="42.2480417" lon="13.8059067"><ele>335.0</ele><time>2026-05-03T09:31:06.539Z</time></trkpt><trkpt lat="42.248035" lon="13.8060167"><ele>335.0</ele><time>2026-05-03T09:31:09.538Z</time></trkpt><trkpt lat="42.2480183" lon="13.8061283"><ele>335.0</ele><time>2026-05-03T09:31:12.539Z</time></trkpt><trkpt lat="42.2479483" lon="13.80626"><ele>333.6</ele><time>2026-05-03T09:31:14.538Z</time></trkpt><trkpt lat="42.2479" lon="13.8063633"><ele>332.2</ele><time>2026-05-03T09:31:15.538Z</time></trkpt><trkpt lat="42.247855" lon="13.8064683"><ele>330.79999999999995</ele><time>2026-05-03T09:31:16.539Z</time></trkpt><trkpt lat="42.2478217" lon="13.80658"><ele>329.4</ele><time>2026-05-03T09:31:17.539Z</time></trkpt><trkpt lat="42.247795" lon="13.8067067"><ele>328.0</ele><time>2026-05-03T09:31:18.539Z</time></trkpt><trkpt lat="42.2477717" lon="13.806865"><ele>328.0</ele><time>2026-05-03T09:31:19.538Z</time></trkpt><trkpt lat="42.247745" lon="13.8070233"><ele>328.0</ele><time>2026-05-03T09:31:20.538Z</time></trkpt><trkpt lat="42.24772" lon="13.80715"><ele>328.0</ele><time>2026-05-03T09:31:21.539Z</time></trkpt><trkpt lat="42.2476867" lon="13.8072417"><ele>328.0</ele><time>2026-05-03T09:31:22.539Z</time></trkpt><trkpt lat="42.2476433" lon="13.8073167"><ele>328.0</ele><time>2026-05-03T09:31:23.538Z</time></trkpt><trkpt lat="42.2475817" lon="13.8073867"><ele>328.0</ele><time>2026-05-03T09:31:24.538Z</time></trkpt><trkpt lat="42.247495" lon="13.8074567"><ele>328.0</ele><time>2026-05-03T09:31:25.539Z</time></trkpt><trkpt lat="42.2474033" lon="13.8075267"><ele>328.0</ele><time>2026-05-03T09:31:26.539Z</time></trkpt><trkpt lat="42.2473033" lon="13.8076033"><ele>328.0</ele><time>2026-05-03T09:31:27.539Z</time></trkpt><trkpt lat="42.2472167" lon="13.8076867"><ele>328.0</ele><time>2026-05-03T09:31:28.539Z</time></trkpt><trkpt lat="42.247135" lon="13.80778"><ele>328.0</ele><time>2026-05-03T09:31:29.538Z</time></trkpt><trkpt lat="42.2470533" lon="13.8078767"><ele>327.5</ele><time>2026-05-03T09:31:30.539Z</time></trkpt><trkpt lat="42.2469783" lon="13.8079667"><ele>327.0</ele><time>2026-05-03T09:31:31.538Z</time></trkpt><trkpt lat="42.246915" lon="13.808065"><ele>326.5</ele><time>2026-05-03T09:31:32.539Z</time></trkpt><trkpt lat="42.2468583" lon="13.8081617"><ele>326.0</ele><time>2026-05-03T09:31:33.539Z</time></trkpt><trkpt lat="42.24683" lon="13.808255"><ele>325.5</ele><time>2026-05-03T09:31:34.538Z</time></trkpt><trkpt lat="42.24681" lon="13.808355"><ele>325.0</ele><time>2026-05-03T09:31:35.539Z</time></trkpt><trkpt lat="42.2467867" lon="13.8084817"><ele>324.75</ele><time>2026-05-03T09:31:36.539Z</time></trkpt><trkpt lat="42.2467583" lon="13.8086367"><ele>324.5</ele><time>2026-05-03T09:31:37.539Z</time></trkpt><trkpt lat="42.2467183" lon="13.80881"><ele>324.25</ele><time>2026-05-03T09:31:38.539Z</time></trkpt><trkpt lat="42.24668" lon="13.80898"><ele>324.0</ele><time>2026-05-03T09:31:39.538Z</time></trkpt><trkpt lat="42.24664" lon="13.809155"><ele>324.0</ele><time>2026-05-03T09:31:40.539Z</time></trkpt><trkpt lat="42.2465933" lon="13.8093083"><ele>324.0</ele><time>2026-05-03T09:31:41.539Z</time></trkpt><trkpt lat="42.2465467" lon="13.8094633"><ele>324.0</ele><time>2026-05-03T09:31:42.539Z</time></trkpt><trkpt lat="42.2465083" lon="13.809625"><ele>324.0</ele><time>2026-05-03T09:31:43.538Z</time></trkpt><trkpt lat="42.246455" lon="13.80979"><ele>324.25</ele><time>2026-05-03T09:31:44.539Z</time></trkpt><trkpt lat="42.2463983" lon="13.8099433"><ele>324.5</ele><time>2026-05-03T09:31:45.538Z</time></trkpt><trkpt lat="42.2463367" lon="13.8100817"><ele>324.75</ele><time>2026-05-03T09:31:46.539Z</time></trkpt><trkpt lat="42.246265" lon="13.8101983"><ele>325.0</ele><time>2026-05-03T09:31:47.539Z</time></trkpt><trkpt lat="42.2461833" lon="13.8103083"><ele>325.0</ele><time>2026-05-03T09:31:48.539Z</time></trkpt><trkpt lat="42.2460967" lon="13.81042"><ele>325.0</ele><time>2026-05-03T09:31:49.538Z</time></trkpt><trkpt lat="42.2460217" lon="13.8105133"><ele>325.0</ele><time>2026-05-03T09:31:50.539Z</time></trkpt><trkpt lat="42.2459433" lon="13.810605"><ele>325.0</ele><time>2026-05-03T09:31:51.539Z</time></trkpt><trkpt lat="42.2458617" lon="13.8107033"><ele>325.0</ele><time>2026-05-03T09:31:52.539Z</time></trkpt><trkpt lat="42.2457783" lon="13.8108117"><ele>325.0</ele><time>2026-05-03T09:31:53.538Z</time></trkpt><trkpt lat="42.2456967" lon="13.8109183"><ele>325.0</ele><time>2026-05-03T09:31:54.539Z</time></trkpt><trkpt lat="42.245605" lon="13.81103"><ele>325.0</ele><time>2026-05-03T09:31:55.539Z</time></trkpt><trkpt lat="42.2455033" lon="13.8111483"><ele>325.0</ele><time>2026-05-03T09:31:56.538Z</time></trkpt><trkpt lat="42.2454017" lon="13.8112483"><ele>324.8</ele><time>2026-05-03T09:31:57.538Z</time></trkpt><trkpt lat="42.2452983" lon="13.811355"><ele>324.6</ele><time>2026-05-03T09:31:58.538Z</time></trkpt><trkpt lat="42.2452167" lon="13.811465"><ele>324.4</ele><time>2026-05-03T09:31:59.539Z</time></trkpt><trkpt lat="42.2451567" lon="13.8115783"><ele>324.2</ele><time>2026-05-03T09:32:00.539Z</time></trkpt><trkpt lat="42.24511" lon="13.8116983"><ele>324.0</ele><time>2026-05-03T09:32:01.538Z</time></trkpt><trkpt lat="42.24508" lon="13.8118317"><ele>324.79999999999995</ele><time>2026-05-03T09:32:02.538Z</time></trkpt><trkpt lat="42.2450483" lon="13.8119767"><ele>325.59999999999997</ele><time>2026-05-03T09:32:03.539Z</time></trkpt><trkpt lat="42.2450267" lon="13.8121033"><ele>326.4</ele><time>2026-05-03T09:32:04.539Z</time></trkpt><trkpt lat="42.2449917" lon="13.81222"><ele>327.2</ele><time>2026-05-03T09:32:05.538Z</time></trkpt><trkpt lat="42.2449517" lon="13.8123117"><ele>328.0</ele><time>2026-05-03T09:32:06.539Z</time></trkpt><trkpt lat="42.24489" lon="13.812395"><ele>328.0</ele><time>2026-05-03T09:32:07.539Z</time></trkpt><trkpt lat="42.2448217" lon="13.81246"><ele>328.0</ele><time>2026-05-03T09:32:08.539Z</time></trkpt><trkpt lat="42.244725" lon="13.8125283"><ele>328.0</ele><time>2026-05-03T09:32:09.539Z</time></trkpt><trkpt lat="42.244605" lon="13.812575"><ele>328.0</ele><time>2026-05-03T09:32:10.539Z</time></trkpt><trkpt lat="42.2444867" lon="13.8126117"><ele>328.0</ele><time>2026-05-03T09:32:11.539Z</time></trkpt><trkpt lat="42.2443683" lon="13.81265"><ele>328.59999999999997</ele><time>2026-05-03T09:32:12.539Z</time></trkpt><trkpt lat="42.244255" lon="13.812695"><ele>329.2</ele><time>2026-05-03T09:32:13.539Z</time></trkpt><trkpt lat="42.2441583" lon="13.812755"><ele>329.8</ele><time>2026-05-03T09:32:14.538Z</time></trkpt><trkpt lat="42.2440733" lon="13.8128033"><ele>330.4</ele><time>2026-05-03T09:32:15.538Z</time></trkpt><trkpt lat="42.2439717" lon="13.812855"><ele>331.0</ele><time>2026-05-03T09:32:16.538Z</time></trkpt><trkpt lat="42.2438583" lon="13.8129067"><ele>329.8</ele><time>2026-05-03T09:32:17.539Z</time></trkpt><trkpt lat="42.24374" lon="13.8129467"><ele>328.6</ele><time>2026-05-03T09:32:18.539Z</time></trkpt><trkpt lat="42.2436433" lon="13.812985"><ele>327.4</ele><time>2026-05-03T09:32:19.539Z</time></trkpt><trkpt lat="42.243555" lon="13.8130417"><ele>326.2</ele><time>2026-05-03T09:32:20.539Z</time></trkpt><trkpt lat="42.243475" lon="13.8131217"><ele>325.0</ele><time>2026-05-03T09:32:21.539Z</time></trkpt><trkpt lat="42.2433883" lon="13.8132283"><ele>325.0</ele><time>2026-05-03T09:32:22.538Z</time></trkpt><trkpt lat="42.2433" lon="13.8133533"><ele>325.0</ele><time>2026-05-03T09:32:23.539Z</time></trkpt><trkpt lat="42.2431983" lon="13.813495"><ele>325.0</ele><time>2026-05-03T09:32:24.539Z</time></trkpt><trkpt lat="42.2431" lon="13.8136333"><ele>325.0</ele><time>2026-05-03T09:32:25.539Z</time></trkpt><trkpt lat="42.2430083" lon="13.8137617"><ele>323.75</ele><time>2026-05-03T09:32:26.539Z</time></trkpt><trkpt lat="42.2429133" lon="13.8138733"><ele>322.5</ele><time>2026-05-03T09:32:27.538Z</time></trkpt><trkpt lat="42.24281" lon="13.8139867"><ele>321.25</ele><time>2026-05-03T09:32:28.537Z</time></trkpt><trkpt lat="42.2427067" lon="13.814085"><ele>320.0</ele><time>2026-05-03T09:32:29.538Z</time></trkpt><trkpt lat="42.2425967" lon="13.8141917"><ele>320.0</ele><time>2026-05-03T09:32:30.538Z</time></trkpt><trkpt lat="42.2424883" lon="13.8143"><ele>320.0</ele><time>2026-05-03T09:32:31.538Z</time></trkpt><trkpt lat="42.24239" lon="13.8143867"><ele>320.0</ele><time>2026-05-03T09:32:32.538Z</time></trkpt><trkpt lat="42.2423017" lon="13.81446"><ele>320.0</ele><time>2026-05-03T09:32:33.538Z</time></trkpt><trkpt lat="42.2422133" lon="13.8145017"><ele>320.0</ele><time>2026-05-03T09:32:34.538Z</time></trkpt><trkpt lat="42.242135" lon="13.8145167"><ele>319.83333333333337</ele><time>2026-05-03T09:32:35.538Z</time></trkpt><trkpt lat="42.2420567" lon="13.8145233"><ele>319.6666666666667</ele><time>2026-05-03T09:32:36.537Z</time></trkpt><trkpt lat="42.2419883" lon="13.81454"><ele>319.5</ele><time>2026-05-03T09:32:37.538Z</time></trkpt><trkpt lat="42.2419267" lon="13.81458"><ele>319.3333333333333</ele><time>2026-05-03T09:32:38.537Z</time></trkpt><trkpt lat="42.241865" lon="13.8146183"><ele>319.16666666666663</ele><time>2026-05-03T09:32:39.538Z</time></trkpt><trkpt lat="42.241815" lon="13.8147767"><ele>319.0</ele><time>2026-05-03T09:32:41.538Z</time></trkpt><trkpt lat="42.2418183" lon="13.814895"><ele>319.0</ele><time>2026-05-03T09:32:42.537Z</time></trkpt><trkpt lat="42.2418" lon="13.8150067"><ele>319.0</ele><time>2026-05-03T09:32:43.538Z</time></trkpt><trkpt lat="42.241775" lon="13.8151567"><ele>319.0</ele><time>2026-05-03T09:32:44.537Z</time></trkpt><trkpt lat="42.241735" lon="13.8153133"><ele>319.0</ele><time>2026-05-03T09:32:45.538Z</time></trkpt><trkpt lat="42.241695" lon="13.815455"><ele>319.0</ele><time>2026-05-03T09:32:46.538Z</time></trkpt><trkpt lat="42.2416717" lon="13.8155983"><ele>319.4</ele><time>2026-05-03T09:32:47.538Z</time></trkpt><trkpt lat="42.2416633" lon="13.8157467"><ele>319.79999999999995</ele><time>2026-05-03T09:32:48.538Z</time></trkpt><trkpt lat="42.241645" lon="13.8158617"><ele>320.20000000000005</ele><time>2026-05-03T09:32:49.538Z</time></trkpt><trkpt lat="42.2416083" lon="13.8159567"><ele>320.6</ele><time>2026-05-03T09:32:50.538Z</time></trkpt><trkpt lat="42.241535" lon="13.8160417"><ele>321.0</ele><time>2026-05-03T09:32:51.538Z</time></trkpt><trkpt lat="42.24144" lon="13.81613"><ele>323.0</ele><time>2026-05-03T09:32:52.537Z</time></trkpt><trkpt lat="42.2413383" lon="13.816205"><ele>325.0</ele><time>2026-05-03T09:32:53.538Z</time></trkpt><trkpt lat="42.2412267" lon="13.8162617"><ele>327.0</ele><time>2026-05-03T09:32:54.538Z</time></trkpt><trkpt lat="42.2411083" lon="13.8162933"><ele>329.0</ele><time>2026-05-03T09:32:55.537Z</time></trkpt><trkpt lat="42.2409833" lon="13.81631"><ele>329.0</ele><time>2026-05-03T09:32:56.537Z</time></trkpt><trkpt lat="42.2408467" lon="13.8163167"><ele>329.0</ele><time>2026-05-03T09:32:57.538Z</time></trkpt><trkpt lat="42.240695" lon="13.81632"><ele>329.0</ele><time>2026-05-03T09:32:58.537Z</time></trkpt><trkpt lat="42.2405267" lon="13.816315"><ele>328.5</ele><time>2026-05-03T09:32:59.537Z</time></trkpt><trkpt lat="42.2403767" lon="13.8163183"><ele>328.0</ele><time>2026-05-03T09:33:00.537Z</time></trkpt><trkpt lat="42.2402483" lon="13.8163217"><ele>327.5</ele><time>2026-05-03T09:33:01.538Z</time></trkpt><trkpt lat="42.2401283" lon="13.8163267"><ele>327.0</ele><time>2026-05-03T09:33:02.538Z</time></trkpt><trkpt lat="42.24001" lon="13.8163533"><ele>327.0</ele><time>2026-05-03T09:33:03.537Z</time></trkpt><trkpt lat="42.2399" lon="13.8163967"><ele>327.0</ele><time>2026-05-03T09:33:04.538Z</time></trkpt><trkpt lat="42.23979" lon="13.8164467"><ele>327.0</ele><time>2026-05-03T09:33:05.537Z</time></trkpt><trkpt lat="42.23968" lon="13.81648"><ele>327.0</ele><time>2026-05-03T09:33:06.538Z</time></trkpt><trkpt lat="42.2395933" lon="13.816495"><ele>327.0</ele><time>2026-05-03T09:33:07.538Z</time></trkpt><trkpt lat="42.2395283" lon="13.8164917"><ele>326.3333333333333</ele><time>2026-05-03T09:33:08.538Z</time></trkpt><trkpt lat="42.2394583" lon="13.8164033"><ele>325.6666666666667</ele><time>2026-05-03T09:33:10.538Z</time></trkpt><trkpt lat="42.239425" lon="13.8163233"><ele>325.0</ele><time>2026-05-03T09:33:11.537Z</time></trkpt><trkpt lat="42.23938" lon="13.8162433"><ele>324.33333333333337</ele><time>2026-05-03T09:33:12.538Z</time></trkpt><trkpt lat="42.2393233" lon="13.8161983"><ele>323.6666666666667</ele><time>2026-05-03T09:33:13.537Z</time></trkpt><trkpt lat="42.2392383" lon="13.81616"><ele>323.0</ele><time>2026-05-03T09:33:14.538Z</time></trkpt><trkpt lat="42.2391333" lon="13.8161417"><ele>323.0</ele><time>2026-05-03T09:33:15.538Z</time></trkpt><trkpt lat="42.2390117" lon="13.8161233"><ele>323.0</ele><time>2026-05-03T09:33:16.538Z</time></trkpt><trkpt lat="42.2388833" lon="13.8161017"><ele>323.0</ele><time>2026-05-03T09:33:17.538Z</time></trkpt><trkpt lat="42.2387517" lon="13.8160767"><ele>323.0</ele><time>2026-05-03T09:33:18.538Z</time></trkpt><trkpt lat="42.2386183" lon="13.81608"><ele>322.0</ele><time>2026-05-03T09:33:19.537Z</time></trkpt><trkpt lat="42.2384883" lon="13.8161117"><ele>321.0</ele><time>2026-05-03T09:33:20.537Z</time></trkpt><trkpt lat="42.2383433" lon="13.8161733"><ele>320.0</ele><time>2026-05-03T09:33:21.537Z</time></trkpt><trkpt lat="42.2381867" lon="13.81624"><ele>319.0</ele><time>2026-05-03T09:33:22.537Z</time></trkpt><trkpt lat="42.23803" lon="13.816315"><ele>319.0</ele><time>2026-05-03T09:33:23.538Z</time></trkpt><trkpt lat="42.2378633" lon="13.8163883"><ele>319.0</ele><time>2026-05-03T09:33:24.537Z</time></trkpt><trkpt lat="42.23769" lon="13.8164767"><ele>319.0</ele><time>2026-05-03T09:33:25.538Z</time></trkpt><trkpt lat="42.237515" lon="13.816565"><ele>319.0</ele><time>2026-05-03T09:33:26.537Z</time></trkpt><trkpt lat="42.2373433" lon="13.81664"><ele>319.0</ele><time>2026-05-03T09:33:27.537Z</time></trkpt><trkpt lat="42.2371683" lon="13.8167017"><ele>319.0</ele><time>2026-05-03T09:33:28.537Z</time></trkpt><trkpt lat="42.236995" lon="13.8167317"><ele>319.3333333333333</ele><time>2026-05-03T09:33:29.538Z</time></trkpt><trkpt lat="42.2368233" lon="13.816725"><ele>319.6666666666667</ele><time>2026-05-03T09:33:30.537Z</time></trkpt><trkpt lat="42.236655" lon="13.8166683"><ele>320.0</ele><time>2026-05-03T09:33:31.538Z</time></trkpt><trkpt lat="42.2364867" lon="13.8165817"><ele>320.6666666666667</ele><time>2026-05-03T09:33:32.538Z</time></trkpt><trkpt lat="42.23634" lon="13.8164733"><ele>321.3333333333333</ele><time>2026-05-03T09:33:33.537Z</time></trkpt><trkpt lat="42.23621" lon="13.81636"><ele>322.0</ele><time>2026-05-03T09:33:34.538Z</time></trkpt><trkpt lat="42.2360933" lon="13.8162717"><ele>322.0</ele><time>2026-05-03T09:33:35.537Z</time></trkpt><trkpt lat="42.2359833" lon="13.8162167"><ele>322.0</ele><time>2026-05-03T09:33:36.538Z</time></trkpt><trkpt lat="42.2358683" lon="13.8162033"><ele>322.0</ele><time>2026-05-03T09:33:37.537Z</time></trkpt><trkpt lat="42.2357533" lon="13.8162183"><ele>322.0</ele><time>2026-05-03T09:33:38.538Z</time></trkpt><trkpt lat="42.2356517" lon="13.816255"><ele>321.3333333333333</ele><time>2026-05-03T09:33:39.538Z</time></trkpt><trkpt lat="42.2355633" lon="13.81631"><ele>320.66666666666663</ele><time>2026-05-03T09:33:40.538Z</time></trkpt><trkpt lat="42.2354917" lon="13.816375"><ele>320.0</ele><time>2026-05-03T09:33:41.538Z</time></trkpt><trkpt lat="42.23543" lon="13.816445"><ele>319.3333333333333</ele><time>2026-05-03T09:33:42.538Z</time></trkpt><trkpt lat="42.2353717" lon="13.8165267"><ele>318.6666666666667</ele><time>2026-05-03T09:33:43.538Z</time></trkpt><trkpt lat="42.2353217" lon="13.8166267"><ele>318.0</ele><time>2026-05-03T09:33:44.537Z</time></trkpt><trkpt lat="42.2352667" lon="13.8167417"><ele>318.6</ele><time>2026-05-03T09:33:45.538Z</time></trkpt><trkpt lat="42.235215" lon="13.8168667"><ele>319.20000000000005</ele><time>2026-05-03T09:33:46.538Z</time></trkpt><trkpt lat="42.2351583" lon="13.8169883"><ele>319.8</ele><time>2026-05-03T09:33:47.538Z</time></trkpt><trkpt lat="42.2351017" lon="13.8171067"><ele>320.40000000000003</ele><time>2026-05-03T09:33:48.538Z</time></trkpt><trkpt lat="42.235035" lon="13.8172383"><ele>321.0</ele><time>2026-05-03T09:33:49.537Z</time></trkpt><trkpt lat="42.2349633" lon="13.8173733"><ele>321.0</ele><time>2026-05-03T09:33:50.538Z</time></trkpt><trkpt lat="42.2348867" lon="13.8175083"><ele>321.0</ele><time>2026-05-03T09:33:51.538Z</time></trkpt><trkpt lat="42.2348083" lon="13.8176383"><ele>321.0</ele><time>2026-05-03T09:33:52.538Z</time></trkpt><trkpt lat="42.2347217" lon="13.81777"><ele>321.0</ele><time>2026-05-03T09:33:53.538Z</time></trkpt><trkpt lat="42.2346117" lon="13.8179017"><ele>322.25</ele><time>2026-05-03T09:33:54.537Z</time></trkpt><trkpt lat="42.2345017" lon="13.8180183"><ele>323.5</ele><time>2026-05-03T09:33:55.538Z</time></trkpt><trkpt lat="42.2343867" lon="13.8181333"><ele>324.75</ele><time>2026-05-03T09:33:56.538Z</time></trkpt><trkpt lat="42.234255" lon="13.8182467"><ele>326.0</ele><time>2026-05-03T09:33:57.537Z</time></trkpt><trkpt lat="42.2341183" lon="13.8183483"><ele>327.6666666666667</ele><time>2026-05-03T09:33:58.537Z</time></trkpt><trkpt lat="42.23397" lon="13.8184533"><ele>329.3333333333333</ele><time>2026-05-03T09:33:59.537Z</time></trkpt><trkpt lat="42.233835" lon="13.81854"><ele>331.0</ele><time>2026-05-03T09:34:00.538Z</time></trkpt><trkpt lat="42.2336917" lon="13.818625"><ele>331.0</ele><time>2026-05-03T09:34:01.537Z</time></trkpt><trkpt lat="42.2335483" lon="13.818705"><ele>331.0</ele><time>2026-05-03T09:34:02.538Z</time></trkpt><trkpt lat="42.2334133" lon="13.81877"><ele>331.0</ele><time>2026-05-03T09:34:03.538Z</time></trkpt><trkpt lat="42.2332817" lon="13.818825"><ele>331.0</ele><time>2026-05-03T09:34:04.538Z</time></trkpt><trkpt lat="42.233145" lon="13.8188817"><ele>327.66666666666663</ele><time>2026-05-03T09:34:05.538Z</time></trkpt><trkpt lat="42.2330017" lon="13.8189417"><ele>324.3333333333333</ele><time>2026-05-03T09:34:06.538Z</time></trkpt><trkpt lat="42.2328567" lon="13.8189983"><ele>321.0</ele><time>2026-05-03T09:34:07.538Z</time></trkpt><trkpt lat="42.2326917" lon="13.8190383"><ele>321.0</ele><time>2026-05-03T09:34:08.538Z</time></trkpt><trkpt lat="42.2325417" lon="13.819045"><ele>321.0</ele><time>2026-05-03T09:34:09.538Z</time></trkpt><trkpt lat="42.2323817" lon="13.81905"><ele>321.0</ele><time>2026-05-03T09:34:10.537Z</time></trkpt><trkpt lat="42.2322267" lon="13.8190533"><ele>320.75</ele><time>2026-05-03T09:34:11.537Z</time></trkpt><trkpt lat="42.232075" lon="13.8190583"><ele>320.5</ele><time>2026-05-03T09:34:12.538Z</time></trkpt><trkpt lat="42.2319317" lon="13.819075"><ele>320.25</ele><time>2026-05-03T09:34:13.538Z</time></trkpt><trkpt lat="42.23179" lon="13.8191033"><ele>320.0</ele><time>2026-05-03T09:34:14.537Z</time></trkpt><trkpt lat="42.23165" lon="13.8191633"><ele>320.0</ele><time>2026-05-03T09:34:15.538Z</time></trkpt><trkpt lat="42.2315067" lon="13.81924"><ele>320.0</ele><time>2026-05-03T09:34:16.538Z</time></trkpt><trkpt lat="42.2313717" lon="13.8193317"><ele>320.0</ele><time>2026-05-03T09:34:17.538Z</time></trkpt><trkpt lat="42.23124" lon="13.81941"><ele>320.0</ele><time>2026-05-03T09:34:18.538Z</time></trkpt><trkpt lat="42.2311067" lon="13.8194833"><ele>321.6666666666667</ele><time>2026-05-03T09:34:19.538Z</time></trkpt><trkpt lat="42.23096" lon="13.8195483"><ele>323.3333333333333</ele><time>2026-05-03T09:34:20.538Z</time></trkpt><trkpt lat="42.2308083" lon="13.8195883"><ele>325.0</ele><time>2026-05-03T09:34:21.537Z</time></trkpt><trkpt lat="42.23065" lon="13.8196083"><ele>322.66666666666663</ele><time>2026-05-03T09:34:22.538Z</time></trkpt><trkpt lat="42.23049" lon="13.819625"><ele>320.3333333333333</ele><time>2026-05-03T09:34:23.538Z</time></trkpt><trkpt lat="42.2303333" lon="13.819645"><ele>318.0</ele><time>2026-05-03T09:34:24.538Z</time></trkpt><trkpt lat="42.23019" lon="13.8196583"><ele>318.0</ele><time>2026-05-03T09:34:25.537Z</time></trkpt><trkpt lat="42.230055" lon="13.8196717"><ele>318.0</ele><time>2026-05-03T09:34:26.537Z</time></trkpt><trkpt lat="42.2299317" lon="13.81968"><ele>318.0</ele><time>2026-05-03T09:34:27.537Z</time></trkpt><trkpt lat="42.22982" lon="13.8196817"><ele>318.0</ele><time>2026-05-03T09:34:28.538Z</time></trkpt><trkpt lat="42.22971" lon="13.81969"><ele>318.0</ele><time>2026-05-03T09:34:29.538Z</time></trkpt><trkpt lat="42.2296017" lon="13.8196967"><ele>318.0</ele><time>2026-05-03T09:34:30.538Z</time></trkpt><trkpt lat="42.22949" lon="13.8197033"><ele>318.0</ele><time>2026-05-03T09:34:31.537Z</time></trkpt><trkpt lat="42.2293733" lon="13.8197133"><ele>318.0</ele><time>2026-05-03T09:34:32.538Z</time></trkpt><trkpt lat="42.2292617" lon="13.8197333"><ele>318.0</ele><time>2026-05-03T09:34:33.538Z</time></trkpt><trkpt lat="42.2291383" lon="13.819745"><ele>318.0</ele><time>2026-05-03T09:34:34.537Z</time></trkpt><trkpt lat="42.22901" lon="13.8197467"><ele>318.0</ele><time>2026-05-03T09:34:35.538Z</time></trkpt><trkpt lat="42.2288967" lon="13.81974"><ele>318.0</ele><time>2026-05-03T09:34:36.538Z</time></trkpt><trkpt lat="42.2287817" lon="13.81975"><ele>319.75</ele><time>2026-05-03T09:34:37.537Z</time></trkpt><trkpt lat="42.22866" lon="13.8197583"><ele>321.5</ele><time>2026-05-03T09:34:38.537Z</time></trkpt><trkpt lat="42.2285283" lon="13.8197633"><ele>323.25</ele><time>2026-05-03T09:34:39.538Z</time></trkpt><trkpt lat="42.2283867" lon="13.8197217"><ele>325.0</ele><time>2026-05-03T09:34:40.538Z</time></trkpt><trkpt lat="42.22824" lon="13.8196717"><ele>325.0</ele><time>2026-05-03T09:34:41.538Z</time></trkpt><trkpt lat="42.2281" lon="13.81963"><ele>325.0</ele><time>2026-05-03T09:34:42.537Z</time></trkpt><trkpt lat="42.22799" lon="13.8195883"><ele>325.0</ele><time>2026-05-03T09:34:43.537Z</time></trkpt><trkpt lat="42.2278867" lon="13.8195633"><ele>325.0</ele><time>2026-05-03T09:34:44.537Z</time></trkpt><trkpt lat="42.2277917" lon="13.8195583"><ele>325.0</ele><time>2026-05-03T09:34:45.537Z</time></trkpt><trkpt lat="42.22771" lon="13.8195583"><ele>325.0</ele><time>2026-05-03T09:34:46.538Z</time></trkpt><trkpt lat="42.2276317" lon="13.8195617"><ele>325.0</ele><time>2026-05-03T09:34:47.537Z</time></trkpt><trkpt lat="42.22756" lon="13.8195733"><ele>325.0</ele><time>2026-05-03T09:34:48.537Z</time></trkpt><trkpt lat="42.227455" lon="13.8195717"><ele>325.0</ele><time>2026-05-03T09:34:50.538Z</time></trkpt><trkpt lat="42.2273867" lon="13.8195617"><ele>325.0</ele><time>2026-05-03T09:35:04.537Z</time></trkpt><trkpt lat="42.22731" lon="13.81959"><ele>324.7142857142857</ele><time>2026-05-03T09:35:06.538Z</time></trkpt><trkpt lat="42.227235" lon="13.819615"><ele>324.42857142857144</ele><time>2026-05-03T09:35:08.538Z</time></trkpt><trkpt lat="42.2271583" lon="13.8196383"><ele>324.14285714285717</ele><time>2026-05-03T09:35:11.538Z</time></trkpt><trkpt lat="42.2270883" lon="13.8196617"><ele>323.8571428571429</ele><time>2026-05-03T09:35:13.537Z</time></trkpt><trkpt lat="42.22702" lon="13.8196817"><ele>323.57142857142856</ele><time>2026-05-03T09:35:15.537Z</time></trkpt><trkpt lat="42.22695" lon="13.819695"><ele>323.28571428571433</ele><time>2026-05-03T09:35:17.538Z</time></trkpt><trkpt lat="42.2268867" lon="13.8197183"><ele>323.0</ele><time>2026-05-03T09:35:19.537Z</time></trkpt><trkpt lat="42.2268083" lon="13.819755"><ele>323.0</ele><time>2026-05-03T09:35:21.537Z</time></trkpt><trkpt lat="42.2267333" lon="13.819795"><ele>323.0</ele><time>2026-05-03T09:35:23.538Z</time></trkpt><trkpt lat="42.2266633" lon="13.81985"><ele>323.0</ele><time>2026-05-03T09:35:25.537Z</time></trkpt><trkpt lat="42.22659" lon="13.8199317"><ele>323.0</ele><time>2026-05-03T09:35:27.537Z</time></trkpt><trkpt lat="42.22652" lon="13.8199917"><ele>323.0</ele><time>2026-05-03T09:35:29.538Z</time></trkpt><trkpt lat="42.2264283" lon="13.82008"><ele>322.1666666666667</ele><time>2026-05-03T09:35:31.538Z</time></trkpt><trkpt lat="42.22638" lon="13.82014"><ele>321.33333333333337</ele><time>2026-05-03T09:35:32.537Z</time></trkpt><trkpt lat="42.2263367" lon="13.82021"><ele>320.5</ele><time>2026-05-03T09:35:33.537Z</time></trkpt><trkpt lat="42.2262917" lon="13.8202917"><ele>319.6666666666667</ele><time>2026-05-03T09:35:34.537Z</time></trkpt><trkpt lat="42.2262333" lon="13.8203917"><ele>318.8333333333333</ele><time>2026-05-03T09:35:35.538Z</time></trkpt><trkpt lat="42.2261667" lon="13.820515"><ele>318.0</ele><time>2026-05-03T09:35:36.537Z</time></trkpt><trkpt lat="42.2261" lon="13.8206467"><ele>318.0</ele><time>2026-05-03T09:35:37.538Z</time></trkpt><trkpt lat="42.2260267" lon="13.82079"><ele>318.0</ele><time>2026-05-03T09:35:38.538Z</time></trkpt><trkpt lat="42.225945" lon="13.820935"><ele>318.0</ele><time>2026-05-03T09:35:39.538Z</time></trkpt><trkpt lat="42.225865" lon="13.821075"><ele>318.0</ele><time>2026-05-03T09:35:40.537Z</time></trkpt><trkpt lat="42.225785" lon="13.821205"><ele>318.25</ele><time>2026-05-03T09:35:41.537Z</time></trkpt><trkpt lat="42.2256817" lon="13.8213333"><ele>318.5</ele><time>2026-05-03T09:35:42.537Z</time></trkpt><trkpt lat="42.225565" lon="13.82143"><ele>318.75</ele><time>2026-05-03T09:35:43.538Z</time></trkpt><trkpt lat="42.2254333" lon="13.82151"><ele>319.0</ele><time>2026-05-03T09:35:44.538Z</time></trkpt><trkpt lat="42.2252833" lon="13.8215867"><ele>319.0</ele><time>2026-05-03T09:35:45.537Z</time></trkpt><trkpt lat="42.2251267" lon="13.8216467"><ele>319.0</ele><time>2026-05-03T09:35:46.538Z</time></trkpt><trkpt lat="42.2249667" lon="13.82169"><ele>319.0</ele><time>2026-05-03T09:35:47.537Z</time></trkpt><trkpt lat="42.2248183" lon="13.8217283"><ele>318.75</ele><time>2026-05-03T09:35:48.538Z</time></trkpt><trkpt lat="42.2246767" lon="13.8217783"><ele>318.5</ele><time>2026-05-03T09:35:49.538Z</time></trkpt><trkpt lat="42.2245367" lon="13.821845"><ele>318.25</ele><time>2026-05-03T09:35:50.538Z</time></trkpt><trkpt lat="42.2244083" lon="13.8219117"><ele>318.0</ele><time>2026-05-03T09:35:51.538Z</time></trkpt><trkpt lat="42.2242767" lon="13.82199"><ele>318.5</ele><time>2026-05-03T09:35:52.538Z</time></trkpt><trkpt lat="42.224155" lon="13.8220733"><ele>319.0</ele><time>2026-05-03T09:35:53.538Z</time></trkpt><trkpt lat="42.224035" lon="13.8221883"><ele>319.5</ele><time>2026-05-03T09:35:54.537Z</time></trkpt><trkpt lat="42.2239217" lon="13.8222983"><ele>320.0</ele><time>2026-05-03T09:35:55.537Z</time></trkpt><trkpt lat="42.2238067" lon="13.8224083"><ele>320.0</ele><time>2026-05-03T09:35:56.538Z</time></trkpt><trkpt lat="42.2236767" lon="13.822505"><ele>320.0</ele><time>2026-05-03T09:35:57.537Z</time></trkpt><trkpt lat="42.223535" lon="13.8226"><ele>320.0</ele><time>2026-05-03T09:35:58.537Z</time></trkpt><trkpt lat="42.2233833" lon="13.8226717"><ele>322.6666666666667</ele><time>2026-05-03T09:35:59.537Z</time></trkpt><trkpt lat="42.223225" lon="13.8227283"><ele>325.3333333333333</ele><time>2026-05-03T09:36:00.538Z</time></trkpt><trkpt lat="42.2230667" lon="13.8227433"><ele>328.0</ele><time>2026-05-03T09:36:01.537Z</time></trkpt><trkpt lat="42.222905" lon="13.8227383"><ele>328.0</ele><time>2026-05-03T09:36:02.538Z</time></trkpt><trkpt lat="42.22274" lon="13.8227"><ele>328.0</ele><time>2026-05-03T09:36:03.537Z</time></trkpt><trkpt lat="42.2225717" lon="13.8226433"><ele>328.0</ele><time>2026-05-03T09:36:04.537Z</time></trkpt><trkpt lat="42.222405" lon="13.8225917"><ele>327.3333333333333</ele><time>2026-05-03T09:36:05.537Z</time></trkpt><trkpt lat="42.2222467" lon="13.8225433"><ele>326.6666666666667</ele><time>2026-05-03T09:36:06.537Z</time></trkpt><trkpt lat="42.2220933" lon="13.822495"><ele>326.0</ele><time>2026-05-03T09:36:07.537Z</time></trkpt><trkpt lat="42.22195" lon="13.82244"><ele>326.0</ele><time>2026-05-03T09:36:08.538Z</time></trkpt><trkpt lat="42.22181" lon="13.822395"><ele>326.0</ele><time>2026-05-03T09:36:09.538Z</time></trkpt><trkpt lat="42.2216783" lon="13.8223433"><ele>326.0</ele><time>2026-05-03T09:36:10.537Z</time></trkpt><trkpt lat="42.221545" lon="13.8222983"><ele>326.0</ele><time>2026-05-03T09:36:11.537Z</time></trkpt><trkpt lat="42.2214183" lon="13.8222533"><ele>326.75</ele><time>2026-05-03T09:36:12.538Z</time></trkpt><trkpt lat="42.2212833" lon="13.822225"><ele>327.5</ele><time>2026-05-03T09:36:13.538Z</time></trkpt><trkpt lat="42.2211483" lon="13.82221"><ele>328.25</ele><time>2026-05-03T09:36:14.538Z</time></trkpt><trkpt lat="42.2210217" lon="13.82221"><ele>329.0</ele><time>2026-05-03T09:36:15.538Z</time></trkpt><trkpt lat="42.220905" lon="13.8222383"><ele>329.0</ele><time>2026-05-03T09:36:16.538Z</time></trkpt><trkpt lat="42.2208067" lon="13.8222833"><ele>329.0</ele><time>2026-05-03T09:36:17.538Z</time></trkpt><trkpt lat="42.2207083" lon="13.8223583"><ele>329.0</ele><time>2026-05-03T09:36:18.538Z</time></trkpt><trkpt lat="42.2206083" lon="13.8224733"><ele>329.0</ele><time>2026-05-03T09:36:19.538Z</time></trkpt><trkpt lat="42.2205133" lon="13.8226017"><ele>327.33333333333337</ele><time>2026-05-03T09:36:20.538Z</time></trkpt><trkpt lat="42.220405" lon="13.8227467"><ele>325.6666666666667</ele><time>2026-05-03T09:36:21.538Z</time></trkpt><trkpt lat="42.2202967" lon="13.82289"><ele>324.0</ele><time>2026-05-03T09:36:22.537Z</time></trkpt><trkpt lat="42.220175" lon="13.8230333"><ele>324.0</ele><time>2026-05-03T09:36:23.537Z</time></trkpt><trkpt lat="42.2200617" lon="13.8231667"><ele>324.0</ele><time>2026-05-03T09:36:24.537Z</time></trkpt><trkpt lat="42.2199533" lon="13.8232817"><ele>324.0</ele><time>2026-05-03T09:36:25.538Z</time></trkpt><trkpt lat="42.2198483" lon="13.823395"><ele>324.0</ele><time>2026-05-03T09:36:26.538Z</time></trkpt><trkpt lat="42.2197417" lon="13.8235133"><ele>323.25</ele><time>2026-05-03T09:36:27.538Z</time></trkpt><trkpt lat="42.2196267" lon="13.8236267"><ele>322.5</ele><time>2026-05-03T09:36:28.537Z</time></trkpt><trkpt lat="42.219505" lon="13.8237233"><ele>321.75</ele><time>2026-05-03T09:36:29.538Z</time></trkpt><trkpt lat="42.2193667" lon="13.8238067"><ele>321.0</ele><time>2026-05-03T09:36:30.538Z</time></trkpt><trkpt lat="42.2192167" lon="13.8238867"><ele>321.0</ele><time>2026-05-03T09:36:31.538Z</time></trkpt><trkpt lat="42.21907" lon="13.8239683"><ele>321.0</ele><time>2026-05-03T09:36:32.538Z</time></trkpt><trkpt lat="42.21891" lon="13.8240467"><ele>321.0</ele><time>2026-05-03T09:36:33.537Z</time></trkpt><trkpt lat="42.2187517" lon="13.8241217"><ele>321.25</ele><time>2026-05-03T09:36:34.538Z</time></trkpt><trkpt lat="42.2185933" lon="13.82419"><ele>321.5</ele><time>2026-05-03T09:36:35.537Z</time></trkpt><trkpt lat="42.218455" lon="13.8242467"><ele>321.75</ele><time>2026-05-03T09:36:36.537Z</time></trkpt><trkpt lat="42.21833" lon="13.824305"><ele>322.0</ele><time>2026-05-03T09:36:37.537Z</time></trkpt><trkpt lat="42.21822" lon="13.8243483"><ele>322.40000000000003</ele><time>2026-05-03T09:36:38.538Z</time></trkpt><trkpt lat="42.2181283" lon="13.8243833"><ele>322.8</ele><time>2026-05-03T09:36:39.537Z</time></trkpt><trkpt lat="42.2180483" lon="13.824415"><ele>323.2</ele><time>2026-05-03T09:36:40.537Z</time></trkpt><trkpt lat="42.21797" lon="13.8244383"><ele>323.6</ele><time>2026-05-03T09:36:41.538Z</time></trkpt><trkpt lat="42.2178733" lon="13.8244667"><ele>324.0</ele><time>2026-05-03T09:36:42.538Z</time></trkpt><trkpt lat="42.2177733" lon="13.8245183"><ele>324.0</ele><time>2026-05-03T09:36:43.538Z</time></trkpt><trkpt lat="42.2176617" lon="13.82458"><ele>324.0</ele><time>2026-05-03T09:36:44.537Z</time></trkpt><trkpt lat="42.2175433" lon="13.8246517"><ele>324.0</ele><time>2026-05-03T09:36:45.538Z</time></trkpt><trkpt lat="42.2174417" lon="13.8247233"><ele>324.0</ele><time>2026-05-03T09:36:46.538Z</time></trkpt><trkpt lat="42.2173483" lon="13.8247783"><ele>323.6666666666667</ele><time>2026-05-03T09:36:47.538Z</time></trkpt><trkpt lat="42.21726" lon="13.8248367"><ele>323.3333333333333</ele><time>2026-05-03T09:36:48.538Z</time></trkpt><trkpt lat="42.21718" lon="13.824875"><ele>323.0</ele><time>2026-05-03T09:36:49.538Z</time></trkpt><trkpt lat="42.2171017" lon="13.8248817"><ele>322.66666666666663</ele><time>2026-05-03T09:36:50.537Z</time></trkpt><trkpt lat="42.2170333" lon="13.824855"><ele>322.3333333333333</ele><time>2026-05-03T09:36:51.538Z</time></trkpt><trkpt lat="42.2169633" lon="13.824785"><ele>322.0</ele><time>2026-05-03T09:36:52.537Z</time></trkpt><trkpt lat="42.2168933" lon="13.824675"><ele>322.0</ele><time>2026-05-03T09:36:53.538Z</time></trkpt><trkpt lat="42.2168417" lon="13.8245267"><ele>322.0</ele><time>2026-05-03T09:36:54.538Z</time></trkpt><trkpt lat="42.2167867" lon="13.824365"><ele>322.0</ele><time>2026-05-03T09:36:55.538Z</time></trkpt><trkpt lat="42.2167283" lon="13.8241867"><ele>322.0</ele><time>2026-05-03T09:36:56.538Z</time></trkpt><trkpt lat="42.2166533" lon="13.8240067"><ele>321.0</ele><time>2026-05-03T09:36:57.537Z</time></trkpt><trkpt lat="42.2165717" lon="13.8238083"><ele>320.0</ele><time>2026-05-03T09:36:58.538Z</time></trkpt><trkpt lat="42.2164917" lon="13.8236133"><ele>319.0</ele><time>2026-05-03T09:36:59.538Z</time></trkpt><trkpt lat="42.216415" lon="13.823435"><ele>317.5</ele><time>2026-05-03T09:37:00.538Z</time></trkpt><trkpt lat="42.2163433" lon="13.82326"><ele>316.0</ele><time>2026-05-03T09:37:01.537Z</time></trkpt><trkpt lat="42.21627" lon="13.82309"><ele>314.5</ele><time>2026-05-03T09:37:02.538Z</time></trkpt><trkpt lat="42.2162067" lon="13.8229183"><ele>313.0</ele><time>2026-05-03T09:37:03.537Z</time></trkpt><trkpt lat="42.216145" lon="13.8227617"><ele>313.4</ele><time>2026-05-03T09:37:04.538Z</time></trkpt><trkpt lat="42.2160783" lon="13.822615"><ele>313.8</ele><time>2026-05-03T09:37:05.538Z</time></trkpt><trkpt lat="42.2160117" lon="13.8224933"><ele>314.2</ele><time>2026-05-03T09:37:06.537Z</time></trkpt><trkpt lat="42.2159367" lon="13.8223983"><ele>314.6</ele><time>2026-05-03T09:37:07.538Z</time></trkpt><trkpt lat="42.2158417" lon="13.8223367"><ele>315.0</ele><time>2026-05-03T09:37:08.537Z</time></trkpt><trkpt lat="42.215735" lon="13.8223017"><ele>315.5</ele><time>2026-05-03T09:37:09.538Z</time></trkpt><trkpt lat="42.21562" lon="13.8223017"><ele>316.0</ele><time>2026-05-03T09:37:10.537Z</time></trkpt><trkpt lat="42.2155" lon="13.8223283"><ele>316.5</ele><time>2026-05-03T09:37:11.538Z</time></trkpt><trkpt lat="42.2153783" lon="13.822375"><ele>317.0</ele><time>2026-05-03T09:37:12.538Z</time></trkpt><trkpt lat="42.21525" lon="13.82244"><ele>317.0</ele><time>2026-05-03T09:37:13.538Z</time></trkpt><trkpt lat="42.21513" lon="13.82251"><ele>317.0</ele><time>2026-05-03T09:37:14.538Z</time></trkpt><trkpt lat="42.215005" lon="13.8225833"><ele>317.0</ele><time>2026-05-03T09:37:15.538Z</time></trkpt><trkpt lat="42.21489" lon="13.822655"><ele>317.0</ele><time>2026-05-03T09:37:16.538Z</time></trkpt><trkpt lat="42.214785" lon="13.8227167"><ele>317.0</ele><time>2026-05-03T09:37:17.538Z</time></trkpt><trkpt lat="42.2146883" lon="13.82276"><ele>317.0</ele><time>2026-05-03T09:37:18.537Z</time></trkpt><trkpt lat="42.214595" lon="13.8227883"><ele>317.0</ele><time>2026-05-03T09:37:19.538Z</time></trkpt><trkpt lat="42.2145067" lon="13.8227833"><ele>317.0</ele><time>2026-05-03T09:37:20.538Z</time></trkpt><trkpt lat="42.2144133" lon="13.82274"><ele>317.0</ele><time>2026-05-03T09:37:21.538Z</time></trkpt><trkpt lat="42.2143267" lon="13.8226683"><ele>317.0</ele><time>2026-05-03T09:37:22.537Z</time></trkpt><trkpt lat="42.2142533" lon="13.822585"><ele>317.0</ele><time>2026-05-03T09:37:23.538Z</time></trkpt><trkpt lat="42.2141983" lon="13.822505"><ele>317.0</ele><time>2026-05-03T09:37:24.538Z</time></trkpt><trkpt lat="42.214155" lon="13.8224333"><ele>317.0</ele><time>2026-05-03T09:37:25.538Z</time></trkpt><trkpt lat="42.21409" lon="13.8222917"><ele>317.0</ele><time>2026-05-03T09:37:27.538Z</time></trkpt><trkpt lat="42.2140517" lon="13.8221617"><ele>317.0</ele><time>2026-05-03T09:37:29.538Z</time></trkpt><trkpt lat="42.2139983" lon="13.8220383"><ele>317.0</ele><time>2026-05-03T09:37:57.537Z</time></trkpt><trkpt lat="42.2139233" lon="13.8220433"><ele>317.0</ele><time>2026-05-03T09:38:01.537Z</time></trkpt><trkpt lat="42.2138433" lon="13.8220683"><ele>317.0</ele><time>2026-05-03T09:38:03.537Z</time></trkpt><trkpt lat="42.2137367" lon="13.8220983"><ele>317.0</ele><time>2026-05-03T09:38:05.537Z</time></trkpt><trkpt lat="42.21367" lon="13.8221183"><ele>317.0</ele><time>2026-05-03T09:38:06.537Z</time></trkpt><trkpt lat="42.2135983" lon="13.8221433"><ele>317.0</ele><time>2026-05-03T09:38:07.536Z</time></trkpt><trkpt lat="42.2135267" lon="13.8221683"><ele>317.0</ele><time>2026-05-03T09:38:08.537Z</time></trkpt><trkpt lat="42.21346" lon="13.82219"><ele>317.0</ele><time>2026-05-03T09:38:09.537Z</time></trkpt><trkpt lat="42.21334" lon="13.8222317"><ele>317.0</ele><time>2026-05-03T09:38:11.536Z</time></trkpt><trkpt lat="42.2132267" lon="13.822255"><ele>317.0</ele><time>2026-05-03T09:38:13.537Z</time></trkpt><trkpt lat="42.2131333" lon="13.8221933"><ele>317.25</ele><time>2026-05-03T09:38:15.536Z</time></trkpt><trkpt lat="42.2131183" lon="13.82203"><ele>317.5</ele><time>2026-05-03T09:38:17.536Z</time></trkpt><trkpt lat="42.213135" lon="13.82189"><ele>317.75</ele><time>2026-05-03T09:38:18.537Z</time></trkpt><trkpt lat="42.2131617" lon="13.8217133"><ele>318.0</ele><time>2026-05-03T09:38:19.537Z</time></trkpt><trkpt lat="42.2131817" lon="13.8215167"><ele>318.0</ele><time>2026-05-03T09:38:20.537Z</time></trkpt><trkpt lat="42.213205" lon="13.8213133"><ele>318.0</ele><time>2026-05-03T09:38:21.537Z</time></trkpt><trkpt lat="42.21322" lon="13.82111"><ele>318.0</ele><time>2026-05-03T09:38:22.536Z</time></trkpt><trkpt lat="42.2132367" lon="13.8209067"><ele>317.25</ele><time>2026-05-03T09:38:23.537Z</time></trkpt><trkpt lat="42.2132467" lon="13.82072"><ele>316.5</ele><time>2026-05-03T09:38:24.537Z</time></trkpt><trkpt lat="42.2132333" lon="13.8205433"><ele>315.75</ele><time>2026-05-03T09:38:25.536Z</time></trkpt><trkpt lat="42.2132233" lon="13.8203767"><ele>315.0</ele><time>2026-05-03T09:38:26.537Z</time></trkpt><trkpt lat="42.21322" lon="13.8202433"><ele>315.0</ele><time>2026-05-03T09:38:27.537Z</time></trkpt><trkpt lat="42.2132317" lon="13.8201233"><ele>315.0</ele><time>2026-05-03T09:38:28.537Z</time></trkpt><trkpt lat="42.2132717" lon="13.8200267"><ele>315.0</ele><time>2026-05-03T09:38:29.537Z</time></trkpt><trkpt lat="42.2133583" lon="13.819965"><ele>315.0</ele><time>2026-05-03T09:38:30.537Z</time></trkpt><trkpt lat="42.2134583" lon="13.8199767"><ele>315.0</ele><time>2026-05-03T09:38:31.537Z</time></trkpt><trkpt lat="42.2135417" lon="13.8200367"><ele>315.0</ele><time>2026-05-03T09:38:32.537Z</time></trkpt><trkpt lat="42.2135867" lon="13.8201367"><ele>315.0</ele><time>2026-05-03T09:38:33.536Z</time></trkpt><trkpt lat="42.2136033" lon="13.8202533"><ele>315.0</ele><time>2026-05-03T09:38:34.537Z</time></trkpt><trkpt lat="42.2135933" lon="13.8203533"><ele>315.0</ele><time>2026-05-03T09:38:35.536Z</time></trkpt><trkpt lat="42.2135083" lon="13.8204833"><ele>315.0</ele><time>2026-05-03T09:38:37.536Z</time></trkpt><trkpt lat="42.213435" lon="13.8205367"><ele>315.0</ele><time>2026-05-03T09:38:38.537Z</time></trkpt><trkpt lat="42.213335" lon="13.8206083"><ele>315.0</ele><time>2026-05-03T09:38:39.537Z</time></trkpt><trkpt lat="42.2132183" lon="13.820695"><ele>315.0</ele><time>2026-05-03T09:38:40.537Z</time></trkpt><trkpt lat="42.21309" lon="13.820785"><ele>315.0</ele><time>2026-05-03T09:38:41.537Z</time></trkpt><trkpt lat="42.2129367" lon="13.8208833"><ele>315.0</ele><time>2026-05-03T09:38:42.537Z</time></trkpt><trkpt lat="42.2127767" lon="13.820985"><ele>315.0</ele><time>2026-05-03T09:38:43.536Z</time></trkpt><trkpt lat="42.2126133" lon="13.8210917"><ele>315.0</ele><time>2026-05-03T09:38:44.537Z</time></trkpt><trkpt lat="42.2124567" lon="13.8212033"><ele>315.3333333333333</ele><time>2026-05-03T09:38:45.537Z</time></trkpt><trkpt lat="42.21228" lon="13.8213183"><ele>315.66666666666663</ele><time>2026-05-03T09:38:46.537Z</time></trkpt><trkpt lat="42.2120983" lon="13.82144"><ele>316.0</ele><time>2026-05-03T09:38:47.536Z</time></trkpt><trkpt lat="42.211905" lon="13.8215617"><ele>316.0</ele><time>2026-05-03T09:38:48.537Z</time></trkpt><trkpt lat="42.2117167" lon="13.821695"><ele>316.0</ele><time>2026-05-03T09:38:49.537Z</time></trkpt><trkpt lat="42.2115217" lon="13.8218183"><ele>316.0</ele><time>2026-05-03T09:38:50.536Z</time></trkpt><trkpt lat="42.211325" lon="13.8219483"><ele>314.66666666666663</ele><time>2026-05-03T09:38:51.537Z</time></trkpt><trkpt lat="42.2111183" lon="13.8220717"><ele>313.3333333333333</ele><time>2026-05-03T09:38:52.537Z</time></trkpt><trkpt lat="42.2109317" lon="13.822185"><ele>312.0</ele><time>2026-05-03T09:38:53.537Z</time></trkpt><trkpt lat="42.210745" lon="13.822305"><ele>311.6666666666667</ele><time>2026-05-03T09:38:54.536Z</time></trkpt><trkpt lat="42.2105717" lon="13.822425"><ele>311.33333333333337</ele><time>2026-05-03T09:38:55.537Z</time></trkpt><trkpt lat="42.2104067" lon="13.822535"><ele>311.0</ele><time>2026-05-03T09:38:56.536Z</time></trkpt><trkpt lat="42.2102533" lon="13.8226333"><ele>311.0</ele><time>2026-05-03T09:38:57.537Z</time></trkpt><trkpt lat="42.2101" lon="13.8227367"><ele>311.0</ele><time>2026-05-03T09:38:58.536Z</time></trkpt><trkpt lat="42.20994" lon="13.8228367"><ele>311.0</ele><time>2026-05-03T09:38:59.537Z</time></trkpt><trkpt lat="42.209775" lon="13.8229417"><ele>313.0</ele><time>2026-05-03T09:39:00.537Z</time></trkpt><trkpt lat="42.2096183" lon="13.82305"><ele>315.0</ele><time>2026-05-03T09:39:01.537Z</time></trkpt><trkpt lat="42.2094533" lon="13.82316"><ele>317.0</ele><time>2026-05-03T09:39:02.536Z</time></trkpt><trkpt lat="42.2092833" lon="13.82327"><ele>317.0</ele><time>2026-05-03T09:39:03.537Z</time></trkpt><trkpt lat="42.2091217" lon="13.82338"><ele>317.0</ele><time>2026-05-03T09:39:04.537Z</time></trkpt><trkpt lat="42.20897" lon="13.8235033"><ele>317.0</ele><time>2026-05-03T09:39:05.537Z</time></trkpt><trkpt lat="42.20882" lon="13.823625"><ele>317.6666666666667</ele><time>2026-05-03T09:39:06.537Z</time></trkpt><trkpt lat="42.2086767" lon="13.823765"><ele>318.3333333333333</ele><time>2026-05-03T09:39:07.537Z</time></trkpt><trkpt lat="42.2085217" lon="13.8239133"><ele>319.0</ele><time>2026-05-03T09:39:08.536Z</time></trkpt><trkpt lat="42.2083667" lon="13.8240683"><ele>319.0</ele><time>2026-05-03T09:39:09.537Z</time></trkpt><trkpt lat="42.208225" lon="13.8242333"><ele>319.0</ele><time>2026-05-03T09:39:10.536Z</time></trkpt><trkpt lat="42.2080833" lon="13.8244133"><ele>319.0</ele><time>2026-05-03T09:39:11.537Z</time></trkpt><trkpt lat="42.207955" lon="13.8245967"><ele>317.0</ele><time>2026-05-03T09:39:12.536Z</time></trkpt><trkpt lat="42.207825" lon="13.82481"><ele>315.0</ele><time>2026-05-03T09:39:13.536Z</time></trkpt><trkpt lat="42.207695" lon="13.8250333"><ele>313.0</ele><time>2026-05-03T09:39:14.537Z</time></trkpt><trkpt lat="42.2075767" lon="13.8252667"><ele>313.0</ele><time>2026-05-03T09:39:15.536Z</time></trkpt><trkpt lat="42.2074533" lon="13.825505"><ele>313.0</ele><time>2026-05-03T09:39:16.537Z</time></trkpt><trkpt lat="42.207335" lon="13.8257333"><ele>313.0</ele><time>2026-05-03T09:39:17.537Z</time></trkpt><trkpt lat="42.2072117" lon="13.82595"><ele>313.0</ele><time>2026-05-03T09:39:18.537Z</time></trkpt><trkpt lat="42.20708" lon="13.826165"><ele>313.0</ele><time>2026-05-03T09:39:19.537Z</time></trkpt><trkpt lat="42.2069433" lon="13.826375"><ele>313.0</ele><time>2026-05-03T09:39:20.537Z</time></trkpt><trkpt lat="42.2068" lon="13.826575"><ele>313.0</ele><time>2026-05-03T09:39:21.537Z</time></trkpt><trkpt lat="42.20666" lon="13.826755"><ele>313.0</ele><time>2026-05-03T09:39:22.536Z</time></trkpt><trkpt lat="42.206515" lon="13.8269433"><ele>313.0</ele><time>2026-05-03T09:39:23.537Z</time></trkpt><trkpt lat="42.2063767" lon="13.8271383"><ele>310.3333333333333</ele><time>2026-05-03T09:39:24.537Z</time></trkpt><trkpt lat="42.20625" lon="13.8273383"><ele>307.6666666666667</ele><time>2026-05-03T09:39:25.536Z</time></trkpt><trkpt lat="42.2061283" lon="13.827555"><ele>305.0</ele><time>2026-05-03T09:39:26.537Z</time></trkpt><trkpt lat="42.2060283" lon="13.827785"><ele>305.0</ele><time>2026-05-03T09:39:27.537Z</time></trkpt><trkpt lat="42.2059467" lon="13.828025"><ele>305.0</ele><time>2026-05-03T09:39:28.537Z</time></trkpt><trkpt lat="42.20588" lon="13.82828"><ele>305.0</ele><time>2026-05-03T09:39:29.536Z</time></trkpt><trkpt lat="42.2058233" lon="13.82855"><ele>301.6666666666667</ele><time>2026-05-03T09:39:30.536Z</time></trkpt><trkpt lat="42.205775" lon="13.8288283"><ele>298.3333333333333</ele><time>2026-05-03T09:39:31.537Z</time></trkpt><trkpt lat="42.2057233" lon="13.82912"><ele>295.0</ele><time>2026-05-03T09:39:32.537Z</time></trkpt><trkpt lat="42.2056767" lon="13.8294133"><ele>304.5</ele><time>2026-05-03T09:39:33.537Z</time></trkpt><trkpt lat="42.2056383" lon="13.8297167"><ele>314.0</ele><time>2026-05-03T09:39:34.537Z</time></trkpt><trkpt lat="42.2055933" lon="13.8300267"><ele>309.0</ele><time>2026-05-03T09:39:35.537Z</time></trkpt><trkpt lat="42.20554" lon="13.830335"><ele>304.0</ele><time>2026-05-03T09:39:36.536Z</time></trkpt><trkpt lat="42.205485" lon="13.8306317"><ele>304.0</ele><time>2026-05-03T09:39:37.537Z</time></trkpt><trkpt lat="42.2054317" lon="13.83091"><ele>304.0</ele><time>2026-05-03T09:39:38.537Z</time></trkpt><trkpt lat="42.20538" lon="13.831185"><ele>304.0</ele><time>2026-05-03T09:39:39.537Z</time></trkpt><trkpt lat="42.205325" lon="13.8314417"><ele>301.3333333333333</ele><time>2026-05-03T09:39:40.537Z</time></trkpt><trkpt lat="42.2052633" lon="13.8316967"><ele>298.6666666666667</ele><time>2026-05-03T09:39:41.537Z</time></trkpt><trkpt lat="42.2051933" lon="13.8319417"><ele>296.0</ele><time>2026-05-03T09:39:42.536Z</time></trkpt><trkpt lat="42.20512" lon="13.83219"><ele>291.33333333333337</ele><time>2026-05-03T09:39:43.537Z</time></trkpt><trkpt lat="42.2050367" lon="13.832445"><ele>286.6666666666667</ele><time>2026-05-03T09:39:44.537Z</time></trkpt><trkpt lat="42.2049433" lon="13.832715"><ele>282.0</ele><time>2026-05-03T09:39:45.537Z</time></trkpt><trkpt lat="42.2048367" lon="13.8329917"><ele>282.0</ele><time>2026-05-03T09:39:46.536Z</time></trkpt><trkpt lat="42.2047183" lon="13.8332783"><ele>282.0</ele><time>2026-05-03T09:39:47.536Z</time></trkpt><trkpt lat="42.2046067" lon="13.8335683"><ele>282.0</ele><time>2026-05-03T09:39:48.537Z</time></trkpt><trkpt lat="42.204485" lon="13.8338617"><ele>282.0</ele><time>2026-05-03T09:39:49.537Z</time></trkpt><trkpt lat="42.20436" lon="13.834155"><ele>274.5</ele><time>2026-05-03T09:39:50.536Z</time></trkpt><trkpt lat="42.204245" lon="13.8344483"><ele>267.0</ele><time>2026-05-03T09:39:51.537Z</time></trkpt><trkpt lat="42.2041333" lon="13.8347417"><ele>267.0</ele><time>2026-05-03T09:39:52.537Z</time></trkpt><trkpt lat="42.2040133" lon="13.8350267"><ele>267.0</ele><time>2026-05-03T09:39:53.537Z</time></trkpt><trkpt lat="42.203895" lon="13.8353117"><ele>269.6666666666667</ele><time>2026-05-03T09:39:54.536Z</time></trkpt><trkpt lat="42.2037767" lon="13.8355683"><ele>272.33333333333337</ele><time>2026-05-03T09:39:55.537Z</time></trkpt><trkpt lat="42.2036433" lon="13.8358117"><ele>275.0</ele><time>2026-05-03T09:39:56.537Z</time></trkpt><trkpt lat="42.2035017" lon="13.836045"><ele>271.33333333333337</ele><time>2026-05-03T09:39:57.537Z</time></trkpt><trkpt lat="42.2033483" lon="13.836255"><ele>267.6666666666667</ele><time>2026-05-03T09:39:58.537Z</time></trkpt><trkpt lat="42.2031883" lon="13.8364517"><ele>264.0</ele><time>2026-05-03T09:39:59.537Z</time></trkpt><trkpt lat="42.2030083" lon="13.8366283"><ele>264.0</ele><time>2026-05-03T09:40:00.536Z</time></trkpt><trkpt lat="42.2028117" lon="13.83678"><ele>264.0</ele><time>2026-05-03T09:40:01.537Z</time></trkpt><trkpt lat="42.2026083" lon="13.8369133"><ele>259.0</ele><time>2026-05-03T09:40:02.536Z</time></trkpt><trkpt lat="42.2024017" lon="13.83703"><ele>254.0</ele><time>2026-05-03T09:40:03.536Z</time></trkpt><trkpt lat="42.2021867" lon="13.8371267"><ele>254.0</ele><time>2026-05-03T09:40:04.536Z</time></trkpt><trkpt lat="42.2019633" lon="13.8371983"><ele>254.0</ele><time>2026-05-03T09:40:05.537Z</time></trkpt><trkpt lat="42.2017367" lon="13.8372517"><ele>255.5</ele><time>2026-05-03T09:40:06.537Z</time></trkpt><trkpt lat="42.2014967" lon="13.8372933"><ele>257.0</ele><time>2026-05-03T09:40:07.537Z</time></trkpt><trkpt lat="42.2012517" lon="13.8373317"><ele>257.0</ele><time>2026-05-03T09:40:08.537Z</time></trkpt><trkpt lat="42.2010017" lon="13.8373617"><ele>257.0</ele><time>2026-05-03T09:40:09.536Z</time></trkpt><trkpt lat="42.200755" lon="13.83739"><ele>260.0</ele><time>2026-05-03T09:40:10.536Z</time></trkpt><trkpt lat="42.2005133" lon="13.8374267"><ele>263.0</ele><time>2026-05-03T09:40:11.537Z</time></trkpt><trkpt lat="42.200275" lon="13.8374617"><ele>263.0</ele><time>2026-05-03T09:40:12.537Z</time></trkpt><trkpt lat="42.200045" lon="13.8375"><ele>263.0</ele><time>2026-05-03T09:40:13.537Z</time></trkpt><trkpt lat="42.1998217" lon="13.837535"><ele>265.0</ele><time>2026-05-03T09:40:14.536Z</time></trkpt><trkpt lat="42.199605" lon="13.83757"><ele>267.0</ele><time>2026-05-03T09:40:15.537Z</time></trkpt><trkpt lat="42.1993967" lon="13.8375933"><ele>269.0</ele><time>2026-05-03T09:40:16.537Z</time></trkpt><trkpt lat="42.1991867" lon="13.8376067"><ele>268.0</ele><time>2026-05-03T09:40:17.537Z</time></trkpt><trkpt lat="42.1989767" lon="13.83759"><ele>267.0</ele><time>2026-05-03T09:40:18.537Z</time></trkpt><trkpt lat="42.1987683" lon="13.837555"><ele>266.0</ele><time>2026-05-03T09:40:19.537Z</time></trkpt><trkpt lat="42.1985567" lon="13.8375117"><ele>266.0</ele><time>2026-05-03T09:40:20.537Z</time></trkpt><trkpt lat="42.1983467" lon="13.83746"><ele>266.0</ele><time>2026-05-03T09:40:21.536Z</time></trkpt><trkpt lat="42.1981383" lon="13.8374383"><ele>266.0</ele><time>2026-05-03T09:40:22.537Z</time></trkpt><trkpt lat="42.1979317" lon="13.83745"><ele>265.33333333333337</ele><time>2026-05-03T09:40:23.537Z</time></trkpt><trkpt lat="42.197715" lon="13.8374883"><ele>264.6666666666667</ele><time>2026-05-03T09:40:24.537Z</time></trkpt><trkpt lat="42.197505" lon="13.8375567"><ele>264.0</ele><time>2026-05-03T09:40:25.536Z</time></trkpt><trkpt lat="42.1973" lon="13.83766"><ele>266.5</ele><time>2026-05-03T09:40:26.537Z</time></trkpt><trkpt lat="42.197095" lon="13.8377967"><ele>269.0</ele><time>2026-05-03T09:40:27.537Z</time></trkpt><trkpt lat="42.1969" lon="13.8379633"><ele>269.0</ele><time>2026-05-03T09:40:28.537Z</time></trkpt><trkpt lat="42.19672" lon="13.8381633"><ele>269.0</ele><time>2026-05-03T09:40:29.537Z</time></trkpt><trkpt lat="42.1965533" lon="13.838385"><ele>283.0</ele><time>2026-05-03T09:40:30.537Z</time></trkpt><trkpt lat="42.1964083" lon="13.8386267"><ele>297.0</ele><time>2026-05-03T09:40:31.537Z</time></trkpt><trkpt lat="42.196275" lon="13.8388967"><ele>297.0</ele><time>2026-05-03T09:40:32.537Z</time></trkpt><trkpt lat="42.1961683" lon="13.839195"><ele>297.0</ele><time>2026-05-03T09:40:33.537Z</time></trkpt><trkpt lat="42.196095" lon="13.83951"><ele>289.0</ele><time>2026-05-03T09:40:34.537Z</time></trkpt><trkpt lat="42.1960467" lon="13.8398267"><ele>281.0</ele><time>2026-05-03T09:40:35.537Z</time></trkpt><trkpt lat="42.1960067" lon="13.8401567"><ele>278.0</ele><time>2026-05-03T09:40:36.537Z</time></trkpt><trkpt lat="42.1959767" lon="13.8404833"><ele>275.0</ele><time>2026-05-03T09:40:37.536Z</time></trkpt><trkpt lat="42.1959633" lon="13.8407917"><ele>272.33333333333337</ele><time>2026-05-03T09:40:38.536Z</time></trkpt><trkpt lat="42.19594" lon="13.841085"><ele>269.6666666666667</ele><time>2026-05-03T09:40:39.536Z</time></trkpt><trkpt lat="42.195915" lon="13.8413633"><ele>267.0</ele><time>2026-05-03T09:40:40.536Z</time></trkpt><trkpt lat="42.195865" lon="13.8416367"><ele>263.3333333333333</ele><time>2026-05-03T09:40:41.536Z</time></trkpt><trkpt lat="42.1957933" lon="13.841905"><ele>259.66666666666663</ele><time>2026-05-03T09:40:42.536Z</time></trkpt><trkpt lat="42.1957033" lon="13.8421717"><ele>256.0</ele><time>2026-05-03T09:40:43.536Z</time></trkpt><trkpt lat="42.19559" lon="13.842415"><ele>293.0</ele><time>2026-05-03T09:40:44.537Z</time></trkpt><trkpt lat="42.1954383" lon="13.842635"><ele>330.0</ele><time>2026-05-03T09:40:45.537Z</time></trkpt><trkpt lat="42.1952717" lon="13.8428533"><ele>330.0</ele><time>2026-05-03T09:40:46.537Z</time></trkpt><trkpt lat="42.19509" lon="13.8430267"><ele>330.0</ele><time>2026-05-03T09:40:47.537Z</time></trkpt><trkpt lat="42.19493" lon="13.8432217"><ele>330.0</ele><time>2026-05-03T09:40:48.537Z</time></trkpt><trkpt lat="42.19477" lon="13.843415"><ele>340.0</ele><time>2026-05-03T09:40:49.537Z</time></trkpt><trkpt lat="42.19461" lon="13.843605"><ele>350.0</ele><time>2026-05-03T09:40:50.537Z</time></trkpt><trkpt lat="42.1944517" lon="13.8437967"><ele>360.0</ele><time>2026-05-03T09:40:51.537Z</time></trkpt><trkpt lat="42.1915883" lon="13.846615"><ele>322.6666666666667</ele><time>2026-05-03T09:41:05.562Z</time></trkpt><trkpt lat="42.1914683" lon="13.8467517"><ele>285.33333333333337</ele><time>2026-05-03T09:41:06.563Z</time></trkpt><trkpt lat="42.1913333" lon="13.8468733"><ele>248.0</ele><time>2026-05-03T09:41:07.563Z</time></trkpt><trkpt lat="42.1912067" lon="13.8470033"><ele>246.66666666666669</ele><time>2026-05-03T09:41:08.563Z</time></trkpt><trkpt lat="42.19108" lon="13.847135"><ele>245.33333333333331</ele><time>2026-05-03T09:41:09.563Z</time></trkpt><trkpt lat="42.1909567" lon="13.847255"><ele>244.0</ele><time>2026-05-03T09:41:10.562Z</time></trkpt><trkpt lat="42.19084" lon="13.8473667"><ele>244.0</ele><time>2026-05-03T09:41:11.562Z</time></trkpt><trkpt lat="42.19073" lon="13.8474533"><ele>244.0</ele><time>2026-05-03T09:41:12.562Z</time></trkpt><trkpt lat="42.1906217" lon="13.84752"><ele>244.0</ele><time>2026-05-03T09:41:13.562Z</time></trkpt><trkpt lat="42.1905017" lon="13.847565"><ele>244.0</ele><time>2026-05-03T09:41:14.562Z</time></trkpt><trkpt lat="42.1903933" lon="13.847595"><ele>245.79999999999998</ele><time>2026-05-03T09:41:15.562Z</time></trkpt><trkpt lat="42.1902933" lon="13.8476417"><ele>247.59999999999997</ele><time>2026-05-03T09:41:16.562Z</time></trkpt><trkpt lat="42.1902133" lon="13.8477133"><ele>249.4</ele><time>2026-05-03T09:41:17.563Z</time></trkpt><trkpt lat="42.19017" lon="13.8478033"><ele>251.2</ele><time>2026-05-03T09:41:18.562Z</time></trkpt><trkpt lat="42.1901517" lon="13.8479033"><ele>253.0</ele><time>2026-05-03T09:41:19.563Z</time></trkpt><trkpt lat="42.19017" lon="13.848025"><ele>253.0</ele><time>2026-05-03T09:41:20.563Z</time></trkpt><trkpt lat="42.1902183" lon="13.8481383"><ele>253.0</ele><time>2026-05-03T09:41:21.563Z</time></trkpt><trkpt lat="42.19031" lon="13.8482417"><ele>253.0</ele><time>2026-05-03T09:41:22.562Z</time></trkpt><trkpt lat="42.19044" lon="13.848345"><ele>253.0</ele><time>2026-05-03T09:41:23.562Z</time></trkpt><trkpt lat="42.1905983" lon="13.848485"><ele>251.0</ele><time>2026-05-03T09:41:24.562Z</time></trkpt><trkpt lat="42.19073" lon="13.8486617"><ele>249.0</ele><time>2026-05-03T09:41:25.562Z</time></trkpt><trkpt lat="42.190845" lon="13.8488567"><ele>247.0</ele><time>2026-05-03T09:41:26.563Z</time></trkpt><trkpt lat="42.19095" lon="13.8490533"><ele>247.0</ele><time>2026-05-03T09:41:27.562Z</time></trkpt><trkpt lat="42.1910533" lon="13.8492667"><ele>247.0</ele><time>2026-05-03T09:41:28.562Z</time></trkpt><trkpt lat="42.1911533" lon="13.849485"><ele>247.0</ele><time>2026-05-03T09:41:29.562Z</time></trkpt><trkpt lat="42.1912567" lon="13.849695"><ele>252.0</ele><time>2026-05-03T09:41:30.563Z</time></trkpt><trkpt lat="42.1913583" lon="13.849905"><ele>257.0</ele><time>2026-05-03T09:41:31.562Z</time></trkpt><trkpt lat="42.1914767" lon="13.8500917"><ele>262.0</ele><time>2026-05-03T09:41:32.563Z</time></trkpt><trkpt lat="42.1916083" lon="13.8502667"><ele>262.0</ele><time>2026-05-03T09:41:33.563Z</time></trkpt><trkpt lat="42.191745" lon="13.8504467"><ele>262.0</ele><time>2026-05-03T09:41:34.563Z</time></trkpt><trkpt lat="42.1918933" lon="13.85062"><ele>262.0</ele><time>2026-05-03T09:41:35.563Z</time></trkpt><trkpt lat="42.1920433" lon="13.8507867"><ele>262.0</ele><time>2026-05-03T09:41:36.563Z</time></trkpt><trkpt lat="42.192195" lon="13.85095"><ele>262.0</ele><time>2026-05-03T09:41:37.563Z</time></trkpt><trkpt lat="42.192355" lon="13.8510967"><ele>262.0</ele><time>2026-05-03T09:41:38.563Z</time></trkpt><trkpt lat="42.1925033" lon="13.8512267"><ele>262.3333333333333</ele><time>2026-05-03T09:41:39.563Z</time></trkpt><trkpt lat="42.1926317" lon="13.85136"><ele>262.6666666666667</ele><time>2026-05-03T09:41:40.562Z</time></trkpt><trkpt lat="42.1927583" lon="13.8514917"><ele>263.0</ele><time>2026-05-03T09:41:41.562Z</time></trkpt><trkpt lat="42.1928833" lon="13.8516317"><ele>263.0</ele><time>2026-05-03T09:41:42.563Z</time></trkpt><trkpt lat="42.1930133" lon="13.8517517"><ele>263.0</ele><time>2026-05-03T09:41:43.563Z</time></trkpt><trkpt lat="42.19315" lon="13.851845"><ele>263.0</ele><time>2026-05-03T09:41:44.562Z</time></trkpt><trkpt lat="42.19329" lon="13.8519233"><ele>267.0</ele><time>2026-05-03T09:41:45.563Z</time></trkpt><trkpt lat="42.1934267" lon="13.8519767"><ele>271.0</ele><time>2026-05-03T09:41:46.563Z</time></trkpt><trkpt lat="42.19356" lon="13.8520067"><ele>275.0</ele><time>2026-05-03T09:41:47.563Z</time></trkpt><trkpt lat="42.1936883" lon="13.8520183"><ele>279.0</ele><time>2026-05-03T09:41:48.562Z</time></trkpt><trkpt lat="42.1938017" lon="13.8520183"><ele>279.0</ele><time>2026-05-03T09:41:49.563Z</time></trkpt><trkpt lat="42.19392" lon="13.85203"><ele>279.0</ele><time>2026-05-03T09:41:50.562Z</time></trkpt><trkpt lat="42.19404" lon="13.852055"><ele>279.0</ele><time>2026-05-03T09:41:51.563Z</time></trkpt><trkpt lat="42.1941633" lon="13.8520833"><ele>279.0</ele><time>2026-05-03T09:41:52.563Z</time></trkpt><trkpt lat="42.1942867" lon="13.8521067"><ele>274.0</ele><time>2026-05-03T09:41:53.563Z</time></trkpt><trkpt lat="42.1944067" lon="13.8521317"><ele>269.0</ele><time>2026-05-03T09:41:54.562Z</time></trkpt><trkpt lat="42.19452" lon="13.8521667"><ele>264.0</ele><time>2026-05-03T09:41:55.563Z</time></trkpt><trkpt lat="42.19463" lon="13.8522083"><ele>259.0</ele><time>2026-05-03T09:41:56.563Z</time></trkpt><trkpt lat="42.19474" lon="13.8522683"><ele>260.5</ele><time>2026-05-03T09:41:57.563Z</time></trkpt><trkpt lat="42.194855" lon="13.8523533"><ele>262.0</ele><time>2026-05-03T09:41:58.563Z</time></trkpt><trkpt lat="42.19496" lon="13.8524517"><ele>263.5</ele><time>2026-05-03T09:41:59.563Z</time></trkpt><trkpt lat="42.19506" lon="13.852565"><ele>265.0</ele><time>2026-05-03T09:42:00.562Z</time></trkpt><trkpt lat="42.1951467" lon="13.8527033"><ele>265.0</ele><time>2026-05-03T09:42:01.563Z</time></trkpt><trkpt lat="42.1952217" lon="13.8528567"><ele>265.0</ele><time>2026-05-03T09:42:02.562Z</time></trkpt><trkpt lat="42.1952917" lon="13.8530233"><ele>265.0</ele><time>2026-05-03T09:42:03.563Z</time></trkpt><trkpt lat="42.19536" lon="13.853185"><ele>265.0</ele><time>2026-05-03T09:42:04.562Z</time></trkpt><trkpt lat="42.195425" lon="13.853345"><ele>268.75</ele><time>2026-05-03T09:42:05.562Z</time></trkpt><trkpt lat="42.1954883" lon="13.8535267"><ele>272.5</ele><time>2026-05-03T09:42:06.563Z</time></trkpt><trkpt lat="42.195545" lon="13.853715"><ele>276.25</ele><time>2026-05-03T09:42:07.562Z</time></trkpt><trkpt lat="42.1955933" lon="13.853905"><ele>280.0</ele><time>2026-05-03T09:42:08.562Z</time></trkpt><trkpt lat="42.1956517" lon="13.8540917"><ele>272.25</ele><time>2026-05-03T09:42:09.563Z</time></trkpt><trkpt lat="42.1957083" lon="13.8542783"><ele>264.5</ele><time>2026-05-03T09:42:10.563Z</time></trkpt><trkpt lat="42.1957633" lon="13.8544583"><ele>256.75</ele><time>2026-05-03T09:42:11.563Z</time></trkpt><trkpt lat="42.1958067" lon="13.8546333"><ele>249.0</ele><time>2026-05-03T09:42:12.563Z</time></trkpt><trkpt lat="42.195855" lon="13.854805"><ele>249.0</ele><time>2026-05-03T09:42:13.562Z</time></trkpt><trkpt lat="42.1958867" lon="13.854985"><ele>249.0</ele><time>2026-05-03T09:42:14.562Z</time></trkpt><trkpt lat="42.1959133" lon="13.8551883"><ele>249.0</ele><time>2026-05-03T09:42:15.563Z</time></trkpt><trkpt lat="42.1959133" lon="13.85541"><ele>249.0</ele><time>2026-05-03T09:42:16.562Z</time></trkpt><trkpt lat="42.1959" lon="13.85565"><ele>249.0</ele><time>2026-05-03T09:42:17.563Z</time></trkpt><trkpt lat="42.1958833" lon="13.8559033"><ele>249.0</ele><time>2026-05-03T09:42:18.563Z</time></trkpt><trkpt lat="42.1958717" lon="13.85616"><ele>248.66666666666669</ele><time>2026-05-03T09:42:19.562Z</time></trkpt><trkpt lat="42.195855" lon="13.8564267"><ele>248.33333333333334</ele><time>2026-05-03T09:42:20.563Z</time></trkpt><trkpt lat="42.1958383" lon="13.8566983"><ele>248.0</ele><time>2026-05-03T09:42:21.562Z</time></trkpt><trkpt lat="42.1958233" lon="13.856965"><ele>248.0</ele><time>2026-05-03T09:42:22.563Z</time></trkpt><trkpt lat="42.19581" lon="13.8572367"><ele>248.0</ele><time>2026-05-03T09:42:23.563Z</time></trkpt><trkpt lat="42.19579" lon="13.8575167"><ele>248.0</ele><time>2026-05-03T09:42:24.563Z</time></trkpt><trkpt lat="42.1957733" lon="13.8578033"><ele>247.0</ele><time>2026-05-03T09:42:25.563Z</time></trkpt><trkpt lat="42.1957533" lon="13.8580883"><ele>246.0</ele><time>2026-05-03T09:42:26.563Z</time></trkpt><trkpt lat="42.1957267" lon="13.8583667"><ele>245.0</ele><time>2026-05-03T09:42:27.562Z</time></trkpt><trkpt lat="42.1956917" lon="13.8586467"><ele>255.33333333333334</ele><time>2026-05-03T09:42:28.563Z</time></trkpt><trkpt lat="42.1956433" lon="13.8589217"><ele>265.6666666666667</ele><time>2026-05-03T09:42:29.562Z</time></trkpt><trkpt lat="42.19559" lon="13.8592017"><ele>276.0</ele><time>2026-05-03T09:42:30.563Z</time></trkpt><trkpt lat="42.1955583" lon="13.8594883"><ele>276.0</ele><time>2026-05-03T09:42:31.563Z</time></trkpt><trkpt lat="42.19554" lon="13.85977"><ele>276.0</ele><time>2026-05-03T09:42:32.563Z</time></trkpt><trkpt lat="42.1955333" lon="13.8600533"><ele>276.0</ele><time>2026-05-03T09:42:33.562Z</time></trkpt><trkpt lat="42.1955267" lon="13.8603333"><ele>275.3333333333333</ele><time>2026-05-03T09:42:34.563Z</time></trkpt><trkpt lat="42.1955283" lon="13.8606033"><ele>274.66666666666663</ele><time>2026-05-03T09:42:35.562Z</time></trkpt><trkpt lat="42.1955167" lon="13.8608633"><ele>274.0</ele><time>2026-05-03T09:42:36.562Z</time></trkpt><trkpt lat="42.1955117" lon="13.8610967"><ele>273.75</ele><time>2026-05-03T09:42:37.563Z</time></trkpt><trkpt lat="42.1955217" lon="13.8613067"><ele>273.5</ele><time>2026-05-03T09:42:38.562Z</time></trkpt><trkpt lat="42.195535" lon="13.8615067"><ele>273.25</ele><time>2026-05-03T09:42:39.562Z</time></trkpt><trkpt lat="42.195545" lon="13.8616867"><ele>273.0</ele><time>2026-05-03T09:42:40.563Z</time></trkpt><trkpt lat="42.1955517" lon="13.8618417"><ele>274.75</ele><time>2026-05-03T09:42:41.563Z</time></trkpt><trkpt lat="42.1955517" lon="13.861985"><ele>276.5</ele><time>2026-05-03T09:42:42.563Z</time></trkpt><trkpt lat="42.1955633" lon="13.86213"><ele>278.25</ele><time>2026-05-03T09:42:43.563Z</time></trkpt><trkpt lat="42.195585" lon="13.862305"><ele>280.0</ele><time>2026-05-03T09:42:44.562Z</time></trkpt><trkpt lat="42.19562" lon="13.8624867"><ele>268.66666666666663</ele><time>2026-05-03T09:42:45.562Z</time></trkpt><trkpt lat="42.195675" lon="13.8626883"><ele>257.3333333333333</ele><time>2026-05-03T09:42:46.561Z</time></trkpt><trkpt lat="42.1957483" lon="13.862905"><ele>246.0</ele><time>2026-05-03T09:42:47.562Z</time></trkpt><trkpt lat="42.19583" lon="13.8631283"><ele>246.0</ele><time>2026-05-03T09:42:48.562Z</time></trkpt><trkpt lat="42.19592" lon="13.8633683"><ele>246.0</ele><time>2026-05-03T09:42:49.561Z</time></trkpt><trkpt lat="42.1960133" lon="13.8636233"><ele>246.0</ele><time>2026-05-03T09:42:50.561Z</time></trkpt><trkpt lat="42.1961083" lon="13.863895"><ele>254.0</ele><time>2026-05-03T09:42:51.562Z</time></trkpt><trkpt lat="42.196225" lon="13.86417"><ele>262.0</ele><time>2026-05-03T09:42:52.562Z</time></trkpt><trkpt lat="42.196335" lon="13.8644517"><ele>269.5</ele><time>2026-05-03T09:42:53.562Z</time></trkpt><trkpt lat="42.1964467" lon="13.8647467"><ele>277.0</ele><time>2026-05-03T09:42:54.562Z</time></trkpt><trkpt lat="42.1965567" lon="13.8650633"><ele>261.0</ele><time>2026-05-03T09:42:55.562Z</time></trkpt><trkpt lat="42.1966633" lon="13.86538"><ele>245.0</ele><time>2026-05-03T09:42:56.562Z</time></trkpt><trkpt lat="42.1967633" lon="13.8657133"><ele>250.0</ele><time>2026-05-03T09:42:57.561Z</time></trkpt><trkpt lat="42.1968367" lon="13.86606"><ele>255.0</ele><time>2026-05-03T09:42:58.562Z</time></trkpt><trkpt lat="42.1969217" lon="13.8664133"><ele>255.0</ele><time>2026-05-03T09:42:59.562Z</time></trkpt><trkpt lat="42.197005" lon="13.8667733"><ele>255.0</ele><time>2026-05-03T09:43:00.562Z</time></trkpt><trkpt lat="42.1970867" lon="13.8671367"><ele>259.0</ele><time>2026-05-03T09:43:01.562Z</time></trkpt><trkpt lat="42.1971717" lon="13.8675"><ele>263.0</ele><time>2026-05-03T09:43:02.561Z</time></trkpt><trkpt lat="42.1972483" lon="13.8678683"><ele>264.5</ele><time>2026-05-03T09:43:03.561Z</time></trkpt><trkpt lat="42.1973233" lon="13.868235"><ele>266.0</ele><time>2026-05-03T09:43:04.562Z</time></trkpt><trkpt lat="42.1973783" lon="13.8686033"><ele>252.5</ele><time>2026-05-03T09:43:05.561Z</time></trkpt><trkpt lat="42.197425" lon="13.868975"><ele>239.0</ele><time>2026-05-03T09:43:06.562Z</time></trkpt><trkpt lat="42.197465" lon="13.8693567"><ele>238.0</ele><time>2026-05-03T09:43:07.562Z</time></trkpt><trkpt lat="42.19751" lon="13.869735"><ele>237.0</ele><time>2026-05-03T09:43:08.561Z</time></trkpt><trkpt lat="42.19755" lon="13.8701167"><ele>237.0</ele><time>2026-05-03T09:43:09.562Z</time></trkpt><trkpt lat="42.1975833" lon="13.8704933"><ele>237.0</ele><time>2026-05-03T09:43:10.562Z</time></trkpt><trkpt lat="42.1976217" lon="13.8708483"><ele>238.5</ele><time>2026-05-03T09:43:11.562Z</time></trkpt><trkpt lat="42.1976667" lon="13.87118"><ele>240.0</ele><time>2026-05-03T09:43:12.562Z</time></trkpt><trkpt lat="42.1977083" lon="13.8715117"><ele>245.0</ele><time>2026-05-03T09:43:13.562Z</time></trkpt><trkpt lat="42.1977533" lon="13.871845"><ele>250.0</ele><time>2026-05-03T09:43:14.561Z</time></trkpt><trkpt lat="42.1977967" lon="13.8721733"><ele>250.0</ele><time>2026-05-03T09:43:15.561Z</time></trkpt><trkpt lat="42.1978483" lon="13.8725033"><ele>250.0</ele><time>2026-05-03T09:43:16.562Z</time></trkpt><trkpt lat="42.1979033" lon="13.8728333"><ele>248.0</ele><time>2026-05-03T09:43:17.562Z</time></trkpt><trkpt lat="42.197965" lon="13.8731583"><ele>246.0</ele><time>2026-05-03T09:43:18.561Z</time></trkpt><trkpt lat="42.198015" lon="13.8734833"><ele>253.0</ele><time>2026-05-03T09:43:19.561Z</time></trkpt><trkpt lat="42.1980633" lon="13.8738033"><ele>260.0</ele><time>2026-05-03T09:43:20.561Z</time></trkpt><trkpt lat="42.198115" lon="13.874115"><ele>260.6666666666667</ele><time>2026-05-03T09:43:21.562Z</time></trkpt><trkpt lat="42.19816" lon="13.874415"><ele>261.3333333333333</ele><time>2026-05-03T09:43:22.562Z</time></trkpt><trkpt lat="42.1982033" lon="13.8746983"><ele>262.0</ele><time>2026-05-03T09:43:23.562Z</time></trkpt><trkpt lat="42.1982433" lon="13.874965"><ele>249.33333333333331</ele><time>2026-05-03T09:43:24.562Z</time></trkpt><trkpt lat="42.19827" lon="13.8752167"><ele>236.66666666666669</ele><time>2026-05-03T09:43:25.562Z</time></trkpt><trkpt lat="42.1982683" lon="13.8754733"><ele>224.0</ele><time>2026-05-03T09:43:26.562Z</time></trkpt><trkpt lat="42.1982417" lon="13.875735"><ele>223.66666666666669</ele><time>2026-05-03T09:43:27.562Z</time></trkpt><trkpt lat="42.1982033" lon="13.8760033"><ele>223.33333333333331</ele><time>2026-05-03T09:43:28.562Z</time></trkpt><trkpt lat="42.19814" lon="13.876275"><ele>223.0</ele><time>2026-05-03T09:43:29.561Z</time></trkpt><trkpt lat="42.19807" lon="13.87654"><ele>236.33333333333331</ele><time>2026-05-03T09:43:30.561Z</time></trkpt><trkpt lat="42.1980017" lon="13.8768083"><ele>249.66666666666669</ele><time>2026-05-03T09:43:31.561Z</time></trkpt><trkpt lat="42.197945" lon="13.8770683"><ele>263.0</ele><time>2026-05-03T09:43:32.562Z</time></trkpt><trkpt lat="42.1979183" lon="13.8773133"><ele>263.0</ele><time>2026-05-03T09:43:33.561Z</time></trkpt><trkpt lat="42.1979333" lon="13.877545"><ele>263.0</ele><time>2026-05-03T09:43:34.561Z</time></trkpt><trkpt lat="42.1979817" lon="13.8777733"><ele>263.0</ele><time>2026-05-03T09:43:35.562Z</time></trkpt><trkpt lat="42.198045" lon="13.8780183"><ele>264.6666666666667</ele><time>2026-05-03T09:43:36.562Z</time></trkpt><trkpt lat="42.1981417" lon="13.8782517"><ele>266.3333333333333</ele><time>2026-05-03T09:43:37.561Z</time></trkpt><trkpt lat="42.1982517" lon="13.8784767"><ele>268.0</ele><time>2026-05-03T09:43:38.562Z</time></trkpt><trkpt lat="42.1983817" lon="13.8786917"><ele>258.3333333333333</ele><time>2026-05-03T09:43:39.561Z</time></trkpt><trkpt lat="42.198535" lon="13.8788767"><ele>248.66666666666669</ele><time>2026-05-03T09:43:40.561Z</time></trkpt><trkpt lat="42.19869" lon="13.8790467"><ele>239.0</ele><time>2026-05-03T09:43:41.561Z</time></trkpt><trkpt lat="42.1988433" lon="13.8791967"><ele>236.0</ele><time>2026-05-03T09:43:42.562Z</time></trkpt><trkpt lat="42.198995" lon="13.879355"><ele>233.0</ele><time>2026-05-03T09:43:43.562Z</time></trkpt><trkpt lat="42.1991233" lon="13.8795083"><ele>230.0</ele><time>2026-05-03T09:43:44.562Z</time></trkpt><trkpt lat="42.1992167" lon="13.8796917"><ele>230.0</ele><time>2026-05-03T09:43:45.562Z</time></trkpt><trkpt lat="42.199275" lon="13.879895"><ele>230.0</ele><time>2026-05-03T09:43:46.562Z</time></trkpt><trkpt lat="42.199295" lon="13.8801083"><ele>230.0</ele><time>2026-05-03T09:43:47.562Z</time></trkpt><trkpt lat="42.199305" lon="13.88034"><ele>229.0</ele><time>2026-05-03T09:43:48.562Z</time></trkpt><trkpt lat="42.1992983" lon="13.8805817"><ele>228.0</ele><time>2026-05-03T09:43:49.561Z</time></trkpt><trkpt lat="42.1992833" lon="13.8808333"><ele>227.0</ele><time>2026-05-03T09:43:50.561Z</time></trkpt><trkpt lat="42.199245" lon="13.8810667"><ele>227.0</ele><time>2026-05-03T09:43:51.562Z</time></trkpt><trkpt lat="42.19922" lon="13.88129"><ele>227.0</ele><time>2026-05-03T09:43:52.561Z</time></trkpt><trkpt lat="42.19921" lon="13.8814917"><ele>227.0</ele><time>2026-05-03T09:43:53.562Z</time></trkpt><trkpt lat="42.199235" lon="13.8816917"><ele>229.0</ele><time>2026-05-03T09:43:54.562Z</time></trkpt><trkpt lat="42.1992933" lon="13.8818833"><ele>231.0</ele><time>2026-05-03T09:43:55.562Z</time></trkpt><trkpt lat="42.19938" lon="13.88208"><ele>233.0</ele><time>2026-05-03T09:43:56.561Z</time></trkpt><trkpt lat="42.1994683" lon="13.882295"><ele>233.0</ele><time>2026-05-03T09:43:57.562Z</time></trkpt><trkpt lat="42.1995383" lon="13.8825183"><ele>233.0</ele><time>2026-05-03T09:43:58.562Z</time></trkpt><trkpt lat="42.1996083" lon="13.8827383"><ele>233.0</ele><time>2026-05-03T09:43:59.562Z</time></trkpt><trkpt lat="42.1996967" lon="13.882945"><ele>235.0</ele><time>2026-05-03T09:44:00.562Z</time></trkpt><trkpt lat="42.19981" lon="13.8831333"><ele>237.0</ele><time>2026-05-03T09:44:01.561Z</time></trkpt><trkpt lat="42.19995" lon="13.8833217"><ele>239.0</ele><time>2026-05-03T09:44:02.562Z</time></trkpt><trkpt lat="42.20009" lon="13.8835133"><ele>239.0</ele><time>2026-05-03T09:44:03.561Z</time></trkpt><trkpt lat="42.200245" lon="13.8837"><ele>239.0</ele><time>2026-05-03T09:44:04.561Z</time></trkpt><trkpt lat="42.2003867" lon="13.8838833"><ele>239.0</ele><time>2026-05-03T09:44:05.562Z</time></trkpt><trkpt lat="42.2005" lon="13.884085"><ele>243.66666666666669</ele><time>2026-05-03T09:44:06.562Z</time></trkpt><trkpt lat="42.20058" lon="13.8843017"><ele>248.33333333333331</ele><time>2026-05-03T09:44:07.561Z</time></trkpt><trkpt lat="42.2006483" lon="13.8845317"><ele>253.0</ele><time>2026-05-03T09:44:08.562Z</time></trkpt><trkpt lat="42.2007017" lon="13.88477"><ele>247.0</ele><time>2026-05-03T09:44:09.562Z</time></trkpt><trkpt lat="42.200775" lon="13.8850067"><ele>241.0</ele><time>2026-05-03T09:44:10.561Z</time></trkpt><trkpt lat="42.200865" lon="13.8852267"><ele>235.0</ele><time>2026-05-03T09:44:11.561Z</time></trkpt><trkpt lat="42.20097" lon="13.88542"><ele>235.0</ele><time>2026-05-03T09:44:12.561Z</time></trkpt><trkpt lat="42.2010883" lon="13.8855767"><ele>235.0</ele><time>2026-05-03T09:44:13.562Z</time></trkpt><trkpt lat="42.201215" lon="13.8857267"><ele>235.0</ele><time>2026-05-03T09:44:14.561Z</time></trkpt><trkpt lat="42.2013467" lon="13.8858567"><ele>233.5</ele><time>2026-05-03T09:44:15.561Z</time></trkpt><trkpt lat="42.20147" lon="13.885975"><ele>232.0</ele><time>2026-05-03T09:44:16.562Z</time></trkpt><trkpt lat="42.2015817" lon="13.8860883"><ele>230.5</ele><time>2026-05-03T09:44:17.562Z</time></trkpt><trkpt lat="42.20168" lon="13.8861967"><ele>229.0</ele><time>2026-05-03T09:44:18.562Z</time></trkpt><trkpt lat="42.201765" lon="13.8862933"><ele>229.0</ele><time>2026-05-03T09:44:19.562Z</time></trkpt><trkpt lat="42.2018367" lon="13.8863817"><ele>228.99999999999997</ele><time>2026-05-03T09:44:20.561Z</time></trkpt><trkpt lat="42.2018917" lon="13.8864467"><ele>228.99999999999997</ele><time>2026-05-03T09:44:21.561Z</time></trkpt><trkpt lat="42.2019833" lon="13.8865417"><ele>229.0</ele><time>2026-05-03T09:44:23.562Z</time></trkpt><trkpt lat="42.202045" lon="13.886635"><ele>229.0</ele><time>2026-05-03T09:44:25.562Z</time></trkpt><trkpt lat="42.2021067" lon="13.8867467"><ele>227.66666666666666</ele><time>2026-05-03T09:44:27.561Z</time></trkpt><trkpt lat="42.202155" lon="13.8868067"><ele>226.33333333333331</ele><time>2026-05-03T09:44:28.562Z</time></trkpt><trkpt lat="42.20221" lon="13.8868583"><ele>225.0</ele><time>2026-05-03T09:44:29.561Z</time></trkpt><trkpt lat="42.2022667" lon="13.8869333"><ele>223.66666666666669</ele><time>2026-05-03T09:44:30.561Z</time></trkpt><trkpt lat="42.2023167" lon="13.8870283"><ele>222.33333333333334</ele><time>2026-05-03T09:44:31.562Z</time></trkpt><trkpt lat="42.2023717" lon="13.8871217"><ele>221.0</ele><time>2026-05-03T09:44:32.562Z</time></trkpt><trkpt lat="42.2024267" lon="13.8872117"><ele>221.00000000000003</ele><time>2026-05-03T09:44:33.562Z</time></trkpt><trkpt lat="42.202485" lon="13.8872917"><ele>221.0</ele><time>2026-05-03T09:44:34.562Z</time></trkpt><trkpt lat="42.2025383" lon="13.8873767"><ele>221.0</ele><time>2026-05-03T09:44:35.562Z</time></trkpt><trkpt lat="42.2025933" lon="13.8874667"><ele>221.0</ele><time>2026-05-03T09:44:36.562Z</time></trkpt><trkpt lat="42.202645" lon="13.8875617"><ele>221.00000000000003</ele><time>2026-05-03T09:44:37.562Z</time></trkpt><trkpt lat="42.2026833" lon="13.8876517"><ele>221.0</ele><time>2026-05-03T09:44:38.561Z</time></trkpt><trkpt lat="42.2027383" lon="13.8877417"><ele>225.0</ele><time>2026-05-03T09:44:39.561Z</time></trkpt><trkpt lat="42.2027933" lon="13.88784"><ele>229.00000000000003</ele><time>2026-05-03T09:44:40.562Z</time></trkpt><trkpt lat="42.2028567" lon="13.8879433"><ele>233.00000000000003</ele><time>2026-05-03T09:44:41.562Z</time></trkpt><trkpt lat="42.20292" lon="13.8880533"><ele>237.0</ele><time>2026-05-03T09:44:42.562Z</time></trkpt><trkpt lat="42.20299" lon="13.8881667"><ele>241.0</ele><time>2026-05-03T09:44:43.561Z</time></trkpt><trkpt lat="42.2030617" lon="13.8882883"><ele>241.0</ele><time>2026-05-03T09:44:44.561Z</time></trkpt><trkpt lat="42.2031283" lon="13.888405"><ele>241.00000000000003</ele><time>2026-05-03T09:44:45.561Z</time></trkpt><trkpt lat="42.2031983" lon="13.8885067"><ele>241.00000000000003</ele><time>2026-05-03T09:44:46.561Z</time></trkpt><trkpt lat="42.2032617" lon="13.8885967"><ele>241.0</ele><time>2026-05-03T09:44:47.562Z</time></trkpt><trkpt lat="42.20333" lon="13.8886717"><ele>241.0</ele><time>2026-05-03T09:44:48.561Z</time></trkpt><trkpt lat="42.2033883" lon="13.8887567"><ele>241.4</ele><time>2026-05-03T09:44:49.562Z</time></trkpt><trkpt lat="42.2034417" lon="13.88886"><ele>241.8</ele><time>2026-05-03T09:44:50.562Z</time></trkpt><trkpt lat="42.2035033" lon="13.8889617"><ele>242.20000000000002</ele><time>2026-05-03T09:44:51.562Z</time></trkpt><trkpt lat="42.2035733" lon="13.8890667"><ele>242.60000000000002</ele><time>2026-05-03T09:44:52.562Z</time></trkpt><trkpt lat="42.2036467" lon="13.889165"><ele>243.0</ele><time>2026-05-03T09:44:53.562Z</time></trkpt><trkpt lat="42.20372" lon="13.8892667"><ele>244.4</ele><time>2026-05-03T09:44:54.562Z</time></trkpt><trkpt lat="42.2037933" lon="13.889375"><ele>245.8</ele><time>2026-05-03T09:44:55.562Z</time></trkpt><trkpt lat="42.203865" lon="13.889485"><ele>247.2</ele><time>2026-05-03T09:44:56.562Z</time></trkpt><trkpt lat="42.2039317" lon="13.8895883"><ele>248.6</ele><time>2026-05-03T09:44:57.562Z</time></trkpt><trkpt lat="42.2039917" lon="13.8896983"><ele>250.0</ele><time>2026-05-03T09:44:58.561Z</time></trkpt><trkpt lat="42.204045" lon="13.8897983"><ele>246.85714285714283</ele><time>2026-05-03T09:44:59.561Z</time></trkpt><trkpt lat="42.204095" lon="13.8898867"><ele>243.71428571428572</ele><time>2026-05-03T09:45:00.562Z</time></trkpt><trkpt lat="42.204155" lon="13.8899517"><ele>240.57142857142856</ele><time>2026-05-03T09:45:01.562Z</time></trkpt><trkpt lat="42.2042067" lon="13.8900083"><ele>237.42857142857142</ele><time>2026-05-03T09:45:02.561Z</time></trkpt><trkpt lat="42.2042667" lon="13.8900517"><ele>234.28571428571428</ele><time>2026-05-03T09:45:03.562Z</time></trkpt><trkpt lat="42.2043217" lon="13.8901033"><ele>231.14285714285714</ele><time>2026-05-03T09:45:04.562Z</time></trkpt><trkpt lat="42.2043717" lon="13.89018"><ele>228.0</ele><time>2026-05-03T09:45:05.562Z</time></trkpt><trkpt lat="42.2044133" lon="13.8902783"><ele>228.0</ele><time>2026-05-03T09:45:06.562Z</time></trkpt><trkpt lat="42.20445" lon="13.8903833"><ele>228.0</ele><time>2026-05-03T09:45:07.562Z</time></trkpt><trkpt lat="42.2044967" lon="13.8905"><ele>228.0</ele><time>2026-05-03T09:45:08.562Z</time></trkpt><trkpt lat="42.2045533" lon="13.8906167"><ele>228.0</ele><time>2026-05-03T09:45:09.562Z</time></trkpt><trkpt lat="42.2046233" lon="13.8907217"><ele>228.0</ele><time>2026-05-03T09:45:10.561Z</time></trkpt><trkpt lat="42.2046933" lon="13.8908333"><ele>227.60000000000002</ele><time>2026-05-03T09:45:11.562Z</time></trkpt><trkpt lat="42.20477" lon="13.8909417"><ele>227.20000000000002</ele><time>2026-05-03T09:45:12.562Z</time></trkpt><trkpt lat="42.2048417" lon="13.8910467"><ele>226.8</ele><time>2026-05-03T09:45:13.561Z</time></trkpt><trkpt lat="42.20492" lon="13.8911467"><ele>226.4</ele><time>2026-05-03T09:45:14.561Z</time></trkpt><trkpt lat="42.2049967" lon="13.8912533"><ele>226.0</ele><time>2026-05-03T09:45:15.562Z</time></trkpt><trkpt lat="42.20506" lon="13.8913467"><ele>226.0</ele><time>2026-05-03T09:45:16.562Z</time></trkpt><trkpt lat="42.205125" lon="13.891425"><ele>226.00000000000003</ele><time>2026-05-03T09:45:17.562Z</time></trkpt><trkpt lat="42.2051833" lon="13.8914983"><ele>226.00000000000003</ele><time>2026-05-03T09:45:18.561Z</time></trkpt><trkpt lat="42.2052433" lon="13.8915767"><ele>226.0</ele><time>2026-05-03T09:45:19.561Z</time></trkpt><trkpt lat="42.2053117" lon="13.8916683"><ele>226.0</ele><time>2026-05-03T09:45:20.561Z</time></trkpt><trkpt lat="42.20538" lon="13.891775"><ele>226.0</ele><time>2026-05-03T09:45:21.562Z</time></trkpt><trkpt lat="42.2054567" lon="13.8918817"><ele>226.00000000000003</ele><time>2026-05-03T09:45:22.561Z</time></trkpt><trkpt lat="42.2055283" lon="13.8919817"><ele>226.00000000000003</ele><time>2026-05-03T09:45:23.562Z</time></trkpt><trkpt lat="42.2055933" lon="13.8920833"><ele>226.0</ele><time>2026-05-03T09:45:24.561Z</time></trkpt><trkpt lat="42.2056667" lon="13.892185"><ele>226.0</ele><time>2026-05-03T09:45:25.562Z</time></trkpt><trkpt lat="42.2057483" lon="13.8922917"><ele>226.0</ele><time>2026-05-03T09:45:26.562Z</time></trkpt><trkpt lat="42.2058267" lon="13.892405"><ele>226.0</ele><time>2026-05-03T09:45:27.562Z</time></trkpt><trkpt lat="42.205905" lon="13.8925217"><ele>226.0</ele><time>2026-05-03T09:45:28.562Z</time></trkpt><trkpt lat="42.205985" lon="13.89264"><ele>226.0</ele><time>2026-05-03T09:45:29.562Z</time></trkpt><trkpt lat="42.2060667" lon="13.8927567"><ele>230.25</ele><time>2026-05-03T09:45:30.561Z</time></trkpt><trkpt lat="42.20615" lon="13.892875"><ele>234.5</ele><time>2026-05-03T09:45:31.562Z</time></trkpt><trkpt lat="42.2062333" lon="13.8929883"><ele>238.75</ele><time>2026-05-03T09:45:32.561Z</time></trkpt><trkpt lat="42.2063083" lon="13.89309"><ele>243.0</ele><time>2026-05-03T09:45:33.562Z</time></trkpt><trkpt lat="42.2063833" lon="13.89319"><ele>243.0</ele><time>2026-05-03T09:45:34.561Z</time></trkpt><trkpt lat="42.20645" lon="13.8932817"><ele>243.0</ele><time>2026-05-03T09:45:35.562Z</time></trkpt><trkpt lat="42.2065133" lon="13.89337"><ele>243.0</ele><time>2026-05-03T09:45:36.562Z</time></trkpt><trkpt lat="42.20657" lon="13.8934567"><ele>243.0</ele><time>2026-05-03T09:45:37.562Z</time></trkpt><trkpt lat="42.20663" lon="13.893545"><ele>243.0</ele><time>2026-05-03T09:45:38.562Z</time></trkpt><trkpt lat="42.2067083" lon="13.8936533"><ele>241.25</ele><time>2026-05-03T09:45:39.562Z</time></trkpt><trkpt lat="42.206795" lon="13.8937783"><ele>239.5</ele><time>2026-05-03T09:45:40.562Z</time></trkpt><trkpt lat="42.2068867" lon="13.893915"><ele>237.75</ele><time>2026-05-03T09:45:41.562Z</time></trkpt><trkpt lat="42.2069683" lon="13.89405"><ele>236.0</ele><time>2026-05-03T09:45:42.561Z</time></trkpt><trkpt lat="42.2070467" lon="13.894175"><ele>237.0</ele><time>2026-05-03T09:45:43.562Z</time></trkpt><trkpt lat="42.2071267" lon="13.8943017"><ele>238.0</ele><time>2026-05-03T09:45:44.561Z</time></trkpt><trkpt lat="42.2072117" lon="13.8944067"><ele>239.0</ele><time>2026-05-03T09:45:45.562Z</time></trkpt><trkpt lat="42.2072933" lon="13.89452"><ele>240.0</ele><time>2026-05-03T09:45:46.562Z</time></trkpt><trkpt lat="42.20738" lon="13.89464"><ele>238.2</ele><time>2026-05-03T09:45:47.561Z</time></trkpt><trkpt lat="42.2074683" lon="13.8947683"><ele>236.4</ele><time>2026-05-03T09:45:48.562Z</time></trkpt><trkpt lat="42.2075517" lon="13.8949"><ele>234.60000000000002</ele><time>2026-05-03T09:45:49.562Z</time></trkpt><trkpt lat="42.2076283" lon="13.89501"><ele>232.8</ele><time>2026-05-03T09:45:50.562Z</time></trkpt><trkpt lat="42.2076767" lon="13.89509"><ele>231.0</ele><time>2026-05-03T09:45:51.561Z</time></trkpt><trkpt lat="42.2077117" lon="13.8951733"><ele>231.0</ele><time>2026-05-03T09:45:53.561Z</time></trkpt><trkpt lat="42.2077983" lon="13.89528"><ele>231.0</ele><time>2026-05-03T09:45:56.561Z</time></trkpt><trkpt lat="42.2078433" lon="13.8953483"><ele>231.0</ele><time>2026-05-03T09:45:57.562Z</time></trkpt><trkpt lat="42.2078933" lon="13.895415"><ele>231.0</ele><time>2026-05-03T09:45:58.562Z</time></trkpt><trkpt lat="42.2079433" lon="13.8954833"><ele>231.0</ele><time>2026-05-03T09:45:59.561Z</time></trkpt><trkpt lat="42.2079967" lon="13.8955683"><ele>231.0</ele><time>2026-05-03T09:46:00.562Z</time></trkpt><trkpt lat="42.2080533" lon="13.8956633"><ele>231.0</ele><time>2026-05-03T09:46:01.562Z</time></trkpt><trkpt lat="42.2081133" lon="13.8957533"><ele>231.00000000000003</ele><time>2026-05-03T09:46:02.562Z</time></trkpt><trkpt lat="42.208175" lon="13.8958383"><ele>231.00000000000003</ele><time>2026-05-03T09:46:03.561Z</time></trkpt><trkpt lat="42.2082367" lon="13.8959233"><ele>231.0</ele><time>2026-05-03T09:46:04.562Z</time></trkpt><trkpt lat="42.2083017" lon="13.8960167"><ele>231.0</ele><time>2026-05-03T09:46:05.561Z</time></trkpt><trkpt lat="42.2083683" lon="13.8961183"><ele>230.83333333333334</ele><time>2026-05-03T09:46:06.561Z</time></trkpt><trkpt lat="42.2084283" lon="13.8962033"><ele>230.66666666666669</ele><time>2026-05-03T09:46:07.562Z</time></trkpt><trkpt lat="42.2084917" lon="13.8962617"><ele>230.5</ele><time>2026-05-03T09:46:08.562Z</time></trkpt><trkpt lat="42.2085483" lon="13.8963117"><ele>230.33333333333334</ele><time>2026-05-03T09:46:09.561Z</time></trkpt><trkpt lat="42.2086367" lon="13.89644"><ele>230.16666666666669</ele><time>2026-05-03T09:46:11.562Z</time></trkpt><trkpt lat="42.20868" lon="13.8965317"><ele>230.0</ele><time>2026-05-03T09:46:12.562Z</time></trkpt><trkpt lat="42.208725" lon="13.8966067"><ele>230.0</ele><time>2026-05-03T09:46:13.561Z</time></trkpt><trkpt lat="42.2087767" lon="13.8967017"><ele>230.0</ele><time>2026-05-03T09:46:14.562Z</time></trkpt><trkpt lat="42.2088333" lon="13.8967967"><ele>230.0</ele><time>2026-05-03T09:46:15.562Z</time></trkpt><trkpt lat="42.2088883" lon="13.8968883"><ele>230.0</ele><time>2026-05-03T09:46:16.561Z</time></trkpt><trkpt lat="42.20894" lon="13.8969667"><ele>230.0</ele><time>2026-05-03T09:46:17.561Z</time></trkpt><trkpt lat="42.2090267" lon="13.8970917"><ele>230.83333333333334</ele><time>2026-05-03T09:46:19.561Z</time></trkpt><trkpt lat="42.2090833" lon="13.89717"><ele>231.66666666666669</ele><time>2026-05-03T09:46:20.562Z</time></trkpt><trkpt lat="42.20914" lon="13.89725"><ele>232.5</ele><time>2026-05-03T09:46:21.562Z</time></trkpt><trkpt lat="42.2091933" lon="13.8973383"><ele>233.33333333333331</ele><time>2026-05-03T09:46:22.562Z</time></trkpt><trkpt lat="42.2092583" lon="13.8974283"><ele>234.16666666666666</ele><time>2026-05-03T09:46:23.561Z</time></trkpt><trkpt lat="42.2093283" lon="13.89753"><ele>235.0</ele><time>2026-05-03T09:46:24.562Z</time></trkpt><trkpt lat="42.2094" lon="13.8976383"><ele>235.83333333333331</ele><time>2026-05-03T09:46:25.562Z</time></trkpt><trkpt lat="42.2094667" lon="13.89774"><ele>236.66666666666666</ele><time>2026-05-03T09:46:26.562Z</time></trkpt><trkpt lat="42.20953" lon="13.8978367"><ele>237.5</ele><time>2026-05-03T09:46:27.561Z</time></trkpt><trkpt lat="42.2095767" lon="13.8979267"><ele>238.33333333333331</ele><time>2026-05-03T09:46:28.562Z</time></trkpt><trkpt lat="42.2096167" lon="13.898015"><ele>239.16666666666666</ele><time>2026-05-03T09:46:29.561Z</time></trkpt><trkpt lat="42.2096383" lon="13.898095"><ele>240.0</ele><time>2026-05-03T09:46:30.561Z</time></trkpt><trkpt lat="42.2096783" lon="13.8982067"><ele>240.0</ele><time>2026-05-03T09:46:32.562Z</time></trkpt><trkpt lat="42.2097483" lon="13.89829"><ele>240.0</ele><time>2026-05-03T09:46:35.562Z</time></trkpt><trkpt lat="42.2098467" lon="13.8983033"><ele>240.0</ele><time>2026-05-03T09:46:37.562Z</time></trkpt><trkpt lat="42.20995" lon="13.8983617"><ele>240.0</ele><time>2026-05-03T09:46:39.562Z</time></trkpt><trkpt lat="42.20999" lon="13.8984333"><ele>240.0</ele><time>2026-05-03T09:46:40.562Z</time></trkpt><trkpt lat="42.2100433" lon="13.898535"><ele>238.75</ele><time>2026-05-03T09:46:41.561Z</time></trkpt><trkpt lat="42.21011" lon="13.898655"><ele>237.5</ele><time>2026-05-03T09:46:42.562Z</time></trkpt><trkpt lat="42.2101883" lon="13.8987767"><ele>236.25</ele><time>2026-05-03T09:46:43.562Z</time></trkpt><trkpt lat="42.2102733" lon="13.8988983"><ele>235.0</ele><time>2026-05-03T09:46:44.562Z</time></trkpt><trkpt lat="42.210355" lon="13.8990183"><ele>235.0</ele><time>2026-05-03T09:46:45.562Z</time></trkpt><trkpt lat="42.2104233" lon="13.8991367"><ele>235.0</ele><time>2026-05-03T09:46:46.562Z</time></trkpt><trkpt lat="42.210495" lon="13.8992467"><ele>235.0</ele><time>2026-05-03T09:46:47.562Z</time></trkpt><trkpt lat="42.2105533" lon="13.899355"><ele>235.0</ele><time>2026-05-03T09:46:48.562Z</time></trkpt><trkpt lat="42.2106133" lon="13.8994833"><ele>235.0</ele><time>2026-05-03T09:46:49.562Z</time></trkpt><trkpt lat="42.210675" lon="13.899625"><ele>232.75</ele><time>2026-05-03T09:46:50.562Z</time></trkpt><trkpt lat="42.2107433" lon="13.8997683"><ele>230.5</ele><time>2026-05-03T09:46:51.561Z</time></trkpt><trkpt lat="42.21082" lon="13.8999083"><ele>228.25</ele><time>2026-05-03T09:46:52.562Z</time></trkpt><trkpt lat="42.2109" lon="13.900045"><ele>226.0</ele><time>2026-05-03T09:46:53.561Z</time></trkpt><trkpt lat="42.2109767" lon="13.9001633"><ele>226.0</ele><time>2026-05-03T09:46:54.562Z</time></trkpt><trkpt lat="42.21105" lon="13.90027"><ele>226.00000000000003</ele><time>2026-05-03T09:46:55.562Z</time></trkpt><trkpt lat="42.2111233" lon="13.9003717"><ele>226.00000000000003</ele><time>2026-05-03T09:46:56.562Z</time></trkpt><trkpt lat="42.2111817" lon="13.90047"><ele>226.0</ele><time>2026-05-03T09:46:57.562Z</time></trkpt><trkpt lat="42.211235" lon="13.90056"><ele>226.0</ele><time>2026-05-03T09:46:58.561Z</time></trkpt><trkpt lat="42.2112833" lon="13.90063"><ele>226.0</ele><time>2026-05-03T09:46:59.562Z</time></trkpt><trkpt lat="42.2113983" lon="13.9006783"><ele>226.00000000000003</ele><time>2026-05-03T09:47:01.562Z</time></trkpt><trkpt lat="42.2115" lon="13.90064"><ele>226.00000000000003</ele><time>2026-05-03T09:47:03.562Z</time></trkpt><trkpt lat="42.211585" lon="13.900675"><ele>226.0</ele><time>2026-05-03T09:47:06.561Z</time></trkpt><trkpt lat="42.211625" lon="13.9007533"><ele>226.0</ele><time>2026-05-03T09:47:07.562Z</time></trkpt><trkpt lat="42.2116483" lon="13.9008517"><ele>225.66666666666666</ele><time>2026-05-03T09:47:08.562Z</time></trkpt><trkpt lat="42.2116567" lon="13.90094"><ele>225.33333333333331</ele><time>2026-05-03T09:47:09.562Z</time></trkpt><trkpt lat="42.2116033" lon="13.9010633"><ele>225.0</ele><time>2026-05-03T09:47:11.562Z</time></trkpt><trkpt lat="42.2115517" lon="13.9011183"><ele>224.66666666666669</ele><time>2026-05-03T09:47:12.562Z</time></trkpt><trkpt lat="42.2114783" lon="13.9012183"><ele>224.33333333333334</ele><time>2026-05-03T09:47:14.562Z</time></trkpt><trkpt lat="42.2114817" lon="13.9013433"><ele>224.0</ele><time>2026-05-03T09:47:16.561Z</time></trkpt><trkpt lat="42.2114717" lon="13.9014517"><ele>227.33333333333334</ele><time>2026-05-03T09:47:18.562Z</time></trkpt><trkpt lat="42.2114067" lon="13.9014567"><ele>230.66666666666669</ele><time>2026-05-03T09:47:20.562Z</time></trkpt><trkpt lat="42.211305" lon="13.9013633"><ele>234.0</ele><time>2026-05-03T09:47:22.561Z</time></trkpt><trkpt lat="42.2112417" lon="13.9013233"><ele>237.33333333333331</ele><time>2026-05-03T09:47:23.561Z</time></trkpt><trkpt lat="42.211155" lon="13.901305"><ele>240.66666666666666</ele><time>2026-05-03T09:47:24.561Z</time></trkpt><trkpt lat="42.2110567" lon="13.901295"><ele>244.0</ele><time>2026-05-03T09:47:25.562Z</time></trkpt><trkpt lat="42.2109783" lon="13.9012967"><ele>243.99999999999997</ele><time>2026-05-03T09:47:26.561Z</time></trkpt><trkpt lat="42.2108717" lon="13.90134"><ele>244.0</ele><time>2026-05-03T09:47:28.561Z</time></trkpt><trkpt lat="42.21084" lon="13.901435"><ele>244.0</ele><time>2026-05-03T09:47:30.561Z</time></trkpt><trkpt lat="42.210895" lon="13.9015383"><ele>244.0</ele><time>2026-05-03T09:47:32.562Z</time></trkpt><trkpt lat="42.2109483" lon="13.9016017"><ele>243.99999999999997</ele><time>2026-05-03T09:47:33.561Z</time></trkpt><trkpt lat="42.2110167" lon="13.9016617"><ele>244.0</ele><time>2026-05-03T09:47:34.562Z</time></trkpt><trkpt lat="42.2110767" lon="13.901725"><ele>248.2</ele><time>2026-05-03T09:47:35.562Z</time></trkpt><trkpt lat="42.21114" lon="13.9018383"><ele>252.39999999999998</ele><time>2026-05-03T09:47:37.561Z</time></trkpt><trkpt lat="42.2111333" lon="13.901965"><ele>256.6</ele><time>2026-05-03T09:47:39.561Z</time></trkpt><trkpt lat="42.2110367" lon="13.9019633"><ele>260.8</ele><time>2026-05-03T09:47:42.562Z</time></trkpt><trkpt lat="42.2109383" lon="13.9018467"><ele>265.0</ele><time>2026-05-03T09:47:44.562Z</time></trkpt><trkpt lat="42.2108767" lon="13.90178"><ele>265.0</ele><time>2026-05-03T09:47:45.562Z</time></trkpt><trkpt lat="42.21078" lon="13.9017533"><ele>265.0</ele><time>2026-05-03T09:47:47.562Z</time></trkpt><trkpt lat="42.2107483" lon="13.901855"><ele>265.0</ele><time>2026-05-03T09:47:50.562Z</time></trkpt><trkpt lat="42.2108433" lon="13.9019917"><ele>265.0</ele><time>2026-05-03T09:47:52.562Z</time></trkpt><trkpt lat="42.2108833" lon="13.9020633"><ele>265.0</ele><time>2026-05-03T09:47:53.562Z</time></trkpt><trkpt lat="42.21091" lon="13.90218"><ele>264.99999999999994</ele><time>2026-05-03T09:47:55.562Z</time></trkpt><trkpt lat="42.210925" lon="13.9023117"><ele>265.0</ele><time>2026-05-03T09:47:57.562Z</time></trkpt><trkpt lat="42.2109417" lon="13.9024033"><ele>265.0</ele><time>2026-05-03T09:47:58.562Z</time></trkpt><trkpt lat="42.2109567" lon="13.9025"><ele>265.0</ele><time>2026-05-03T09:47:59.561Z</time></trkpt><trkpt lat="42.2109611" lon="13.9025891"><ele>265.0</ele><time>2026-05-03T09:48:00.562Z</time></trkpt><trkpt lat="42.2109574" lon="13.9026793"><ele>264.99999999999994</ele><time>2026-05-03T09:48:01.562Z</time></trkpt><trkpt lat="42.2109518" lon="13.9027774"><ele>265.0</ele><time>2026-05-03T09:48:02.561Z</time></trkpt><trkpt lat="42.2109547" lon="13.9028821"><ele>268.2</ele><time>2026-05-03T09:48:03.561Z</time></trkpt><trkpt lat="42.2109646" lon="13.9029926"><ele>271.4</ele><time>2026-05-03T09:48:04.562Z</time></trkpt><trkpt lat="42.2109839" lon="13.903108"><ele>274.6</ele><time>2026-05-03T09:48:05.562Z</time></trkpt><trkpt lat="42.2110114" lon="13.9032201"><ele>277.8</ele><time>2026-05-03T09:48:06.561Z</time></trkpt><trkpt lat="42.2110548" lon="13.9033453"><ele>281.0</ele><time>2026-05-03T09:48:07.562Z</time></trkpt><trkpt lat="42.2111005" lon="13.9034863"><ele>284.0</ele><time>2026-05-03T09:48:08.561Z</time></trkpt><trkpt lat="42.2111468" lon="13.9036475"><ele>287.0</ele><time>2026-05-03T09:48:09.561Z</time></trkpt><trkpt lat="42.2111869" lon="13.9038131"><ele>290.0</ele><time>2026-05-03T09:48:10.561Z</time></trkpt><trkpt lat="42.2112192" lon="13.9039909"><ele>293.0</ele><time>2026-05-03T09:48:11.561Z</time></trkpt><trkpt lat="42.2112541" lon="13.9041677"><ele>296.0</ele><time>2026-05-03T09:48:12.562Z</time></trkpt><trkpt lat="42.2112852" lon="13.9043389"><ele>299.0</ele><time>2026-05-03T09:48:13.562Z</time></trkpt><trkpt lat="42.2113204" lon="13.9045101"><ele>302.0</ele><time>2026-05-03T09:48:14.562Z</time></trkpt><trkpt lat="42.2113543" lon="13.9046965"><ele>305.0</ele><time>2026-05-03T09:48:15.562Z</time></trkpt><trkpt lat="42.2113952" lon="13.904892"><ele>305.6666666666667</ele><time>2026-05-03T09:48:16.561Z</time></trkpt><trkpt lat="42.2114321" lon="13.9050988"><ele>306.3333333333333</ele><time>2026-05-03T09:48:17.562Z</time></trkpt><trkpt lat="42.2114602" lon="13.9052913"><ele>307.0</ele><time>2026-05-03T09:48:18.562Z</time></trkpt><trkpt lat="42.2114942" lon="13.9054924"><ele>307.0</ele><time>2026-05-03T09:48:19.562Z</time></trkpt><trkpt lat="42.2115334" lon="13.9056963"><ele>307.0</ele><time>2026-05-03T09:48:20.561Z</time></trkpt><trkpt lat="42.2115817" lon="13.9058986"><ele>307.0</ele><time>2026-05-03T09:48:21.561Z</time></trkpt><trkpt lat="42.2116291" lon="13.9060906"><ele>309.0</ele><time>2026-05-03T09:48:22.562Z</time></trkpt><trkpt lat="42.2116855" lon="13.9062668"><ele>311.0</ele><time>2026-05-03T09:48:23.562Z</time></trkpt><trkpt lat="42.2117404" lon="13.9064428"><ele>313.0</ele><time>2026-05-03T09:48:24.561Z</time></trkpt><trkpt lat="42.2117938" lon="13.9066175"><ele>315.0</ele><time>2026-05-03T09:48:25.56Z</time></trkpt><trkpt lat="42.2118409" lon="13.9067983"><ele>317.75</ele><time>2026-05-03T09:48:26.561Z</time></trkpt><trkpt lat="42.2118857" lon="13.9069783"><ele>320.5</ele><time>2026-05-03T09:48:27.561Z</time></trkpt><trkpt lat="42.2119314" lon="13.9071605"><ele>323.25</ele><time>2026-05-03T09:48:28.56Z</time></trkpt><trkpt lat="42.2119857" lon="13.9073475"><ele>326.0</ele><time>2026-05-03T09:48:29.561Z</time></trkpt><trkpt lat="42.2120399" lon="13.9075344"><ele>326.75</ele><time>2026-05-03T09:48:30.561Z</time></trkpt><trkpt lat="42.2120708" lon="13.9077274"><ele>327.5</ele><time>2026-05-03T09:48:31.561Z</time></trkpt><trkpt lat="42.2120994" lon="13.9079201"><ele>328.25</ele><time>2026-05-03T09:48:32.561Z</time></trkpt><trkpt lat="42.2121124" lon="13.9080924"><ele>329.0</ele><time>2026-05-03T09:48:33.56Z</time></trkpt><trkpt lat="42.2121225" lon="13.9082373"><ele>329.0</ele><time>2026-05-03T09:48:34.561Z</time></trkpt><trkpt lat="42.2121256" lon="13.9083747"><ele>329.0</ele><time>2026-05-03T09:48:35.56Z</time></trkpt><trkpt lat="42.2121197" lon="13.9084962"><ele>329.0</ele><time>2026-05-03T09:48:36.56Z</time></trkpt><trkpt lat="42.2121134" lon="13.9086127"><ele>329.0</ele><time>2026-05-03T09:48:37.561Z</time></trkpt><trkpt lat="42.2121076" lon="13.908744"><ele>329.0</ele><time>2026-05-03T09:48:38.561Z</time></trkpt><trkpt lat="42.2120903" lon="13.9088701"><ele>329.6</ele><time>2026-05-03T09:48:39.561Z</time></trkpt><trkpt lat="42.2120626" lon="13.9089891"><ele>330.2</ele><time>2026-05-03T09:48:40.561Z</time></trkpt><trkpt lat="42.212014" lon="13.9091148"><ele>330.8</ele><time>2026-05-03T09:48:41.56Z</time></trkpt><trkpt lat="42.211951" lon="13.909249"><ele>331.40000000000003</ele><time>2026-05-03T09:48:42.561Z</time></trkpt><trkpt lat="42.2118803" lon="13.9093634"><ele>332.0</ele><time>2026-05-03T09:48:43.56Z</time></trkpt><trkpt lat="42.2118152" lon="13.9094755"><ele>332.8</ele><time>2026-05-03T09:48:44.561Z</time></trkpt><trkpt lat="42.2117742" lon="13.9095938"><ele>333.6</ele><time>2026-05-03T09:48:45.561Z</time></trkpt><trkpt lat="42.2117577" lon="13.9097113"><ele>334.40000000000003</ele><time>2026-05-03T09:48:46.561Z</time></trkpt><trkpt lat="42.211759" lon="13.9098426"><ele>335.20000000000005</ele><time>2026-05-03T09:48:47.561Z</time></trkpt><trkpt lat="42.2117772" lon="13.9099934"><ele>336.0</ele><time>2026-05-03T09:48:48.561Z</time></trkpt><trkpt lat="42.2118009" lon="13.9101584"><ele>336.0</ele><time>2026-05-03T09:48:49.56Z</time></trkpt><trkpt lat="42.211821" lon="13.9103219"><ele>336.0</ele><time>2026-05-03T09:48:50.56Z</time></trkpt><trkpt lat="42.2118382" lon="13.9104818"><ele>336.0</ele><time>2026-05-03T09:48:51.561Z</time></trkpt><trkpt lat="42.2118466" lon="13.9106441"><ele>336.0</ele><time>2026-05-03T09:48:52.56Z</time></trkpt><trkpt lat="42.2118399" lon="13.9108032"><ele>336.0</ele><time>2026-05-03T09:48:53.561Z</time></trkpt><trkpt lat="42.2118235" lon="13.9109679"><ele>336.0</ele><time>2026-05-03T09:48:54.56Z</time></trkpt><trkpt lat="42.2117988" lon="13.9111305"><ele>336.0</ele><time>2026-05-03T09:48:55.561Z</time></trkpt><trkpt lat="42.2117771" lon="13.9112921"><ele>336.0</ele><time>2026-05-03T09:48:56.561Z</time></trkpt><trkpt lat="42.2117618" lon="13.9114351"><ele>336.0</ele><time>2026-05-03T09:48:57.56Z</time></trkpt><trkpt lat="42.2117666" lon="13.91155"><ele>336.0</ele><time>2026-05-03T09:48:58.561Z</time></trkpt><trkpt lat="42.2117584" lon="13.9116544"><ele>336.0</ele><time>2026-05-03T09:48:59.561Z</time></trkpt><trkpt lat="42.2117582" lon="13.911746"><ele>336.0</ele><time>2026-05-03T09:49:00.56Z</time></trkpt><trkpt lat="42.2117739" lon="13.9118395"><ele>336.0</ele><time>2026-05-03T09:49:01.561Z</time></trkpt><trkpt lat="42.2118069" lon="13.9119325"><ele>336.0</ele><time>2026-05-03T09:49:02.56Z</time></trkpt><trkpt lat="42.2118597" lon="13.9120226"><ele>335.4</ele><time>2026-05-03T09:49:03.561Z</time></trkpt><trkpt lat="42.2119177" lon="13.9121155"><ele>334.8</ele><time>2026-05-03T09:49:04.561Z</time></trkpt><trkpt lat="42.2119862" lon="13.9122173"><ele>334.2</ele><time>2026-05-03T09:49:05.561Z</time></trkpt><trkpt lat="42.2120682" lon="13.9123238"><ele>333.59999999999997</ele><time>2026-05-03T09:49:06.561Z</time></trkpt><trkpt lat="42.2121667" lon="13.9124383"><ele>333.0</ele><time>2026-05-03T09:49:07.561Z</time></trkpt><trkpt lat="42.212245" lon="13.9125583"><ele>332.2</ele><time>2026-05-03T09:49:08.561Z</time></trkpt><trkpt lat="42.2123167" lon="13.9126583"><ele>331.4</ele><time>2026-05-03T09:49:09.561Z</time></trkpt><trkpt lat="42.2124" lon="13.9127367"><ele>330.59999999999997</ele><time>2026-05-03T09:49:10.56Z</time></trkpt><trkpt lat="42.2124883" lon="13.912805"><ele>329.79999999999995</ele><time>2026-05-03T09:49:11.56Z</time></trkpt><trkpt lat="42.2125883" lon="13.9128767"><ele>329.0</ele><time>2026-05-03T09:49:12.561Z</time></trkpt><trkpt lat="42.2126883" lon="13.9129533"><ele>330.6</ele><time>2026-05-03T09:49:13.56Z</time></trkpt><trkpt lat="42.21277" lon="13.9130017"><ele>332.2</ele><time>2026-05-03T09:49:14.561Z</time></trkpt><trkpt lat="42.21285" lon="13.9130433"><ele>333.8</ele><time>2026-05-03T09:49:15.561Z</time></trkpt><trkpt lat="42.2129283" lon="13.9130967"><ele>335.40000000000003</ele><time>2026-05-03T09:49:16.56Z</time></trkpt><trkpt lat="42.21302" lon="13.9131433"><ele>337.0</ele><time>2026-05-03T09:49:17.561Z</time></trkpt><trkpt lat="42.21312" lon="13.9131833"><ele>338.0</ele><time>2026-05-03T09:49:18.561Z</time></trkpt><trkpt lat="42.2132433" lon="13.91322"><ele>339.0</ele><time>2026-05-03T09:49:19.56Z</time></trkpt><trkpt lat="42.21338" lon="13.91326"><ele>340.0</ele><time>2026-05-03T09:49:20.561Z</time></trkpt><trkpt lat="42.213515" lon="13.913295"><ele>341.0</ele><time>2026-05-03T09:49:21.561Z</time></trkpt><trkpt lat="42.2136417" lon="13.9133217"><ele>341.0</ele><time>2026-05-03T09:49:22.56Z</time></trkpt><trkpt lat="42.2137583" lon="13.91335"><ele>341.0</ele><time>2026-05-03T09:49:23.561Z</time></trkpt><trkpt lat="42.21387" lon="13.9133633"><ele>341.0</ele><time>2026-05-03T09:49:24.561Z</time></trkpt><trkpt lat="42.213985" lon="13.9133717"><ele>341.0</ele><time>2026-05-03T09:49:25.561Z</time></trkpt><trkpt lat="42.2140867" lon="13.9133733"><ele>341.0</ele><time>2026-05-03T09:49:26.56Z</time></trkpt><trkpt lat="42.2141883" lon="13.9133517"><ele>341.4</ele><time>2026-05-03T09:49:27.561Z</time></trkpt><trkpt lat="42.21429" lon="13.9133183"><ele>341.8</ele><time>2026-05-03T09:49:28.56Z</time></trkpt><trkpt lat="42.214385" lon="13.9132767"><ele>342.2</ele><time>2026-05-03T09:49:29.561Z</time></trkpt><trkpt lat="42.2144667" lon="13.9132383"><ele>342.59999999999997</ele><time>2026-05-03T09:49:30.561Z</time></trkpt><trkpt lat="42.2145417" lon="13.913195"><ele>343.0</ele><time>2026-05-03T09:49:31.56Z</time></trkpt><trkpt lat="42.2146183" lon="13.9131583"><ele>343.0</ele><time>2026-05-03T09:49:32.56Z</time></trkpt><trkpt lat="42.2146933" lon="13.9131283"><ele>343.0</ele><time>2026-05-03T09:49:33.561Z</time></trkpt><trkpt lat="42.2147667" lon="13.9130933"><ele>343.0</ele><time>2026-05-03T09:49:34.56Z</time></trkpt><trkpt lat="42.2148383" lon="13.913085"><ele>343.0</ele><time>2026-05-03T09:49:35.561Z</time></trkpt><trkpt lat="42.2149117" lon="13.913085"><ele>343.0</ele><time>2026-05-03T09:49:36.56Z</time></trkpt><trkpt lat="42.214995" lon="13.91313"><ele>343.0</ele><time>2026-05-03T09:49:37.561Z</time></trkpt><trkpt lat="42.2150917" lon="13.9132133"><ele>342.0</ele><time>2026-05-03T09:49:38.56Z</time></trkpt><trkpt lat="42.2152083" lon="13.9133317"><ele>341.0</ele><time>2026-05-03T09:49:39.561Z</time></trkpt><trkpt lat="42.2153283" lon="13.913445"><ele>340.0</ele><time>2026-05-03T09:49:40.56Z</time></trkpt><trkpt lat="42.2154533" lon="13.913545"><ele>339.0</ele><time>2026-05-03T09:49:41.56Z</time></trkpt><trkpt lat="42.2155783" lon="13.9136233"><ele>338.0</ele><time>2026-05-03T09:49:42.561Z</time></trkpt><trkpt lat="42.2157" lon="13.9136983"><ele>337.0</ele><time>2026-05-03T09:49:43.561Z</time></trkpt><trkpt lat="42.215815" lon="13.91378"><ele>336.0</ele><time>2026-05-03T09:49:44.561Z</time></trkpt><trkpt lat="42.215915" lon="13.9138533"><ele>335.0</ele><time>2026-05-03T09:49:45.561Z</time></trkpt><trkpt lat="42.2160067" lon="13.9139283"><ele>335.0</ele><time>2026-05-03T09:49:46.561Z</time></trkpt><trkpt lat="42.2160867" lon="13.9139883"><ele>335.0</ele><time>2026-05-03T09:49:47.561Z</time></trkpt><trkpt lat="42.216145" lon="13.9140433"><ele>335.0</ele><time>2026-05-03T09:49:48.561Z</time></trkpt><trkpt lat="42.21621" lon="13.914135"><ele>335.0</ele><time>2026-05-03T09:49:50.561Z</time></trkpt><trkpt lat="42.2161617" lon="13.91426"><ele>335.0</ele><time>2026-05-03T09:49:52.561Z</time></trkpt><trkpt lat="42.2161083" lon="13.91433"><ele>335.0</ele><time>2026-05-03T09:49:53.561Z</time></trkpt><trkpt lat="42.2160567" lon="13.9143983"><ele>334.5</ele><time>2026-05-03T09:49:54.56Z</time></trkpt><trkpt lat="42.21599" lon="13.9144567"><ele>334.0</ele><time>2026-05-03T09:49:55.56Z</time></trkpt><trkpt lat="42.2159283" lon="13.914505"><ele>333.5</ele><time>2026-05-03T09:49:56.561Z</time></trkpt><trkpt lat="42.215855" lon="13.914565"><ele>333.0</ele><time>2026-05-03T09:49:57.56Z</time></trkpt><trkpt lat="42.2157767" lon="13.9146183"><ele>332.5</ele><time>2026-05-03T09:49:58.56Z</time></trkpt><trkpt lat="42.2157083" lon="13.9146617"><ele>332.0</ele><time>2026-05-03T09:49:59.561Z</time></trkpt><trkpt lat="42.2156467" lon="13.9147217"><ele>332.0</ele><time>2026-05-03T09:50:00.561Z</time></trkpt><trkpt lat="42.2155783" lon="13.91478"><ele>332.0</ele><time>2026-05-03T09:50:01.561Z</time></trkpt><trkpt lat="42.2155" lon="13.9148317"><ele>332.0</ele><time>2026-05-03T09:50:02.561Z</time></trkpt><trkpt lat="42.21542" lon="13.91488"><ele>332.0</ele><time>2026-05-03T09:50:03.561Z</time></trkpt><trkpt lat="42.215325" lon="13.9149033"><ele>332.0</ele><time>2026-05-03T09:50:04.561Z</time></trkpt><trkpt lat="42.2152483" lon="13.9149367"><ele>332.0</ele><time>2026-05-03T09:50:05.561Z</time></trkpt><trkpt lat="42.2151817" lon="13.9149717"><ele>332.0</ele><time>2026-05-03T09:50:06.56Z</time></trkpt><trkpt lat="42.2151183" lon="13.9150233"><ele>332.0</ele><time>2026-05-03T09:50:07.561Z</time></trkpt><trkpt lat="42.2150667" lon="13.9150817"><ele>332.0</ele><time>2026-05-03T09:50:08.561Z</time></trkpt><trkpt lat="42.2150083" lon="13.9151517"><ele>332.0</ele><time>2026-05-03T09:50:09.561Z</time></trkpt><trkpt lat="42.2149267" lon="13.9152267"><ele>332.0</ele><time>2026-05-03T09:50:10.561Z</time></trkpt><trkpt lat="42.2148333" lon="13.9153033"><ele>332.0</ele><time>2026-05-03T09:50:11.56Z</time></trkpt><trkpt lat="42.21474" lon="13.9153833"><ele>330.6</ele><time>2026-05-03T09:50:12.561Z</time></trkpt><trkpt lat="42.2146417" lon="13.9154567"><ele>329.20000000000005</ele><time>2026-05-03T09:50:13.561Z</time></trkpt><trkpt lat="42.2145483" lon="13.9155283"><ele>327.8</ele><time>2026-05-03T09:50:14.561Z</time></trkpt><trkpt lat="42.2144567" lon="13.915605"><ele>326.4</ele><time>2026-05-03T09:50:15.561Z</time></trkpt><trkpt lat="42.2143717" lon="13.9156933"><ele>325.0</ele><time>2026-05-03T09:50:16.56Z</time></trkpt><trkpt lat="42.2142817" lon="13.9157933"><ele>325.0</ele><time>2026-05-03T09:50:17.561Z</time></trkpt><trkpt lat="42.2142033" lon="13.9159"><ele>325.0</ele><time>2026-05-03T09:50:18.561Z</time></trkpt><trkpt lat="42.21412" lon="13.9159967"><ele>325.0</ele><time>2026-05-03T09:50:19.56Z</time></trkpt><trkpt lat="42.2140367" lon="13.9160883"><ele>325.0</ele><time>2026-05-03T09:50:20.56Z</time></trkpt><trkpt lat="42.2139383" lon="13.9161783"><ele>325.0</ele><time>2026-05-03T09:50:21.56Z</time></trkpt><trkpt lat="42.213825" lon="13.916255"><ele>323.5</ele><time>2026-05-03T09:50:22.561Z</time></trkpt><trkpt lat="42.2137183" lon="13.9163283"><ele>322.0</ele><time>2026-05-03T09:50:23.561Z</time></trkpt><trkpt lat="42.2136167" lon="13.9164233"><ele>320.5</ele><time>2026-05-03T09:50:24.56Z</time></trkpt><trkpt lat="42.2135383" lon="13.9165383"><ele>319.0</ele><time>2026-05-03T09:50:25.561Z</time></trkpt><trkpt lat="42.2134867" lon="13.9166667"><ele>319.5</ele><time>2026-05-03T09:50:26.56Z</time></trkpt><trkpt lat="42.2134667" lon="13.9168117"><ele>320.0</ele><time>2026-05-03T09:50:27.56Z</time></trkpt><trkpt lat="42.21347" lon="13.9169633"><ele>320.5</ele><time>2026-05-03T09:50:28.561Z</time></trkpt><trkpt lat="42.21348" lon="13.9171233"><ele>321.0</ele><time>2026-05-03T09:50:29.561Z</time></trkpt><trkpt lat="42.2134933" lon="13.917275"><ele>321.0</ele><time>2026-05-03T09:50:30.561Z</time></trkpt><trkpt lat="42.2134983" lon="13.9174133"><ele>321.0</ele><time>2026-05-03T09:50:31.56Z</time></trkpt><trkpt lat="42.2135" lon="13.91755"><ele>321.0</ele><time>2026-05-03T09:50:32.561Z</time></trkpt><trkpt lat="42.2134867" lon="13.9176783"><ele>321.0</ele><time>2026-05-03T09:50:33.561Z</time></trkpt><trkpt lat="42.21347" lon="13.9177917"><ele>321.0</ele><time>2026-05-03T09:50:34.561Z</time></trkpt><trkpt lat="42.2134633" lon="13.9178817"><ele>321.8</ele><time>2026-05-03T09:50:35.561Z</time></trkpt><trkpt lat="42.2134567" lon="13.9180283"><ele>322.6</ele><time>2026-05-03T09:50:37.561Z</time></trkpt><trkpt lat="42.2135317" lon="13.91814"><ele>323.4</ele><time>2026-05-03T09:50:39.561Z</time></trkpt><trkpt lat="42.2136083" lon="13.9181783"><ele>324.2</ele><time>2026-05-03T09:50:40.561Z</time></trkpt><trkpt lat="42.2137033" lon="13.918235"><ele>325.0</ele><time>2026-05-03T09:50:41.561Z</time></trkpt><trkpt lat="42.213795" lon="13.9183267"><ele>325.0</ele><time>2026-05-03T09:50:42.56Z</time></trkpt><trkpt lat="42.213865" lon="13.918435"><ele>325.0</ele><time>2026-05-03T09:50:43.56Z</time></trkpt><trkpt lat="42.213925" lon="13.9185383"><ele>325.0</ele><time>2026-05-03T09:50:44.561Z</time></trkpt><trkpt lat="42.213995" lon="13.9186467"><ele>325.0</ele><time>2026-05-03T09:50:45.561Z</time></trkpt><trkpt lat="42.2140833" lon="13.9187633"><ele>325.0</ele><time>2026-05-03T09:50:46.56Z</time></trkpt><trkpt lat="42.2141833" lon="13.9188883"><ele>324.75</ele><time>2026-05-03T09:50:47.56Z</time></trkpt><trkpt lat="42.2142933" lon="13.9190067"><ele>324.5</ele><time>2026-05-03T09:50:48.561Z</time></trkpt><trkpt lat="42.2144167" lon="13.91912"><ele>324.25</ele><time>2026-05-03T09:50:49.561Z</time></trkpt><trkpt lat="42.2145483" lon="13.919235"><ele>324.0</ele><time>2026-05-03T09:50:50.561Z</time></trkpt><trkpt lat="42.214685" lon="13.919345"><ele>323.6666666666667</ele><time>2026-05-03T09:50:51.561Z</time></trkpt><trkpt lat="42.2148317" lon="13.91946"><ele>323.33333333333337</ele><time>2026-05-03T09:50:52.56Z</time></trkpt><trkpt lat="42.21498" lon="13.9195767"><ele>323.0</ele><time>2026-05-03T09:50:53.56Z</time></trkpt><trkpt lat="42.21513" lon="13.9197033"><ele>323.0</ele><time>2026-05-03T09:50:54.56Z</time></trkpt><trkpt lat="42.2152817" lon="13.9198467"><ele>323.0</ele><time>2026-05-03T09:50:55.56Z</time></trkpt><trkpt lat="42.215435" lon="13.9199967"><ele>323.0</ele><time>2026-05-03T09:50:56.561Z</time></trkpt><trkpt lat="42.2155917" lon="13.92015"><ele>322.0</ele><time>2026-05-03T09:50:57.561Z</time></trkpt><trkpt lat="42.2157367" lon="13.9203117"><ele>321.0</ele><time>2026-05-03T09:50:58.561Z</time></trkpt><trkpt lat="42.21588" lon="13.9204717"><ele>320.0</ele><time>2026-05-03T09:50:59.561Z</time></trkpt><trkpt lat="42.2160183" lon="13.9206283"><ele>320.0</ele><time>2026-05-03T09:51:00.561Z</time></trkpt><trkpt lat="42.2161417" lon="13.9207783"><ele>320.0</ele><time>2026-05-03T09:51:01.56Z</time></trkpt><trkpt lat="42.2162617" lon="13.9209467"><ele>320.0</ele><time>2026-05-03T09:51:02.561Z</time></trkpt><trkpt lat="42.2163783" lon="13.9211183"><ele>319.6666666666667</ele><time>2026-05-03T09:51:03.561Z</time></trkpt><trkpt lat="42.2165017" lon="13.9212883"><ele>319.3333333333333</ele><time>2026-05-03T09:51:04.56Z</time></trkpt><trkpt lat="42.216615" lon="13.9214433"><ele>319.0</ele><time>2026-05-03T09:51:05.56Z</time></trkpt><trkpt lat="42.216725" lon="13.9215767"><ele>319.0</ele><time>2026-05-03T09:51:06.561Z</time></trkpt><trkpt lat="42.21683" lon="13.921695"><ele>319.0</ele><time>2026-05-03T09:51:07.561Z</time></trkpt><trkpt lat="42.2169283" lon="13.9218217"><ele>319.0</ele><time>2026-05-03T09:51:08.561Z</time></trkpt><trkpt lat="42.217015" lon="13.921965"><ele>319.0</ele><time>2026-05-03T09:51:09.561Z</time></trkpt><trkpt lat="42.217085" lon="13.9221133"><ele>318.5</ele><time>2026-05-03T09:51:10.561Z</time></trkpt><trkpt lat="42.21714" lon="13.922275"><ele>318.0</ele><time>2026-05-03T09:51:11.561Z</time></trkpt><trkpt lat="42.2171933" lon="13.9224583"><ele>317.5</ele><time>2026-05-03T09:51:12.561Z</time></trkpt><trkpt lat="42.21725" lon="13.9226533"><ele>317.0</ele><time>2026-05-03T09:51:13.561Z</time></trkpt><trkpt lat="42.2173033" lon="13.92283"><ele>315.8</ele><time>2026-05-03T09:51:14.56Z</time></trkpt><trkpt lat="42.2173567" lon="13.9229767"><ele>314.6</ele><time>2026-05-03T09:51:15.561Z</time></trkpt><trkpt lat="42.2174117" lon="13.9230967"><ele>313.40000000000003</ele><time>2026-05-03T09:51:16.561Z</time></trkpt><trkpt lat="42.2174767" lon="13.9231933"><ele>312.2</ele><time>2026-05-03T09:51:17.56Z</time></trkpt><trkpt lat="42.2175683" lon="13.923275"><ele>311.0</ele><time>2026-05-03T09:51:18.561Z</time></trkpt><trkpt lat="42.2176783" lon="13.9233633"><ele>310.0</ele><time>2026-05-03T09:51:19.561Z</time></trkpt><trkpt lat="42.2178033" lon="13.9234567"><ele>309.0</ele><time>2026-05-03T09:51:20.56Z</time></trkpt><trkpt lat="42.21794" lon="13.9235617"><ele>308.0</ele><time>2026-05-03T09:51:21.561Z</time></trkpt><trkpt lat="42.2180833" lon="13.9236733"><ele>308.0</ele><time>2026-05-03T09:51:22.561Z</time></trkpt><trkpt lat="42.21822" lon="13.9237833"><ele>308.0</ele><time>2026-05-03T09:51:23.56Z</time></trkpt><trkpt lat="42.2183467" lon="13.9239017"><ele>308.0</ele><time>2026-05-03T09:51:24.561Z</time></trkpt><trkpt lat="42.2184717" lon="13.924015"><ele>308.0</ele><time>2026-05-03T09:51:25.56Z</time></trkpt><trkpt lat="42.2185883" lon="13.9241117"><ele>308.0</ele><time>2026-05-03T09:51:26.56Z</time></trkpt><trkpt lat="42.2187" lon="13.9241933"><ele>308.0</ele><time>2026-05-03T09:51:27.561Z</time></trkpt><trkpt lat="42.2188217" lon="13.9242667"><ele>308.0</ele><time>2026-05-03T09:51:28.561Z</time></trkpt><trkpt lat="42.2189483" lon="13.9243317"><ele>306.5</ele><time>2026-05-03T09:51:29.56Z</time></trkpt><trkpt lat="42.2190783" lon="13.9243967"><ele>305.0</ele><time>2026-05-03T09:51:30.561Z</time></trkpt><trkpt lat="42.2192067" lon="13.9244683"><ele>303.5</ele><time>2026-05-03T09:51:31.561Z</time></trkpt><trkpt lat="42.219325" lon="13.924555"><ele>302.0</ele><time>2026-05-03T09:51:32.56Z</time></trkpt><trkpt lat="42.2194267" lon="13.92468"><ele>302.0</ele><time>2026-05-03T09:51:33.561Z</time></trkpt><trkpt lat="42.2195117" lon="13.924815"><ele>302.0</ele><time>2026-05-03T09:51:34.561Z</time></trkpt><trkpt lat="42.2195967" lon="13.9249417"><ele>302.0</ele><time>2026-05-03T09:51:35.56Z</time></trkpt><trkpt lat="42.2196933" lon="13.9250683"><ele>302.0</ele><time>2026-05-03T09:51:36.561Z</time></trkpt><trkpt lat="42.21979" lon="13.9252"><ele>301.0</ele><time>2026-05-03T09:51:37.56Z</time></trkpt><trkpt lat="42.2198933" lon="13.9253233"><ele>300.0</ele><time>2026-05-03T09:51:38.561Z</time></trkpt><trkpt lat="42.219995" lon="13.9254383"><ele>299.0</ele><time>2026-05-03T09:51:39.56Z</time></trkpt><trkpt lat="42.2201067" lon="13.925525"><ele>298.0</ele><time>2026-05-03T09:51:40.561Z</time></trkpt><trkpt lat="42.220215" lon="13.9255767"><ele>298.0</ele><time>2026-05-03T09:51:41.561Z</time></trkpt><trkpt lat="42.2203383" lon="13.9256033"><ele>298.0</ele><time>2026-05-03T09:51:42.56Z</time></trkpt><trkpt lat="42.2204483" lon="13.925615"><ele>298.0</ele><time>2026-05-03T09:51:43.56Z</time></trkpt><trkpt lat="42.22053" lon="13.9256367"><ele>298.0</ele><time>2026-05-03T09:51:44.561Z</time></trkpt><trkpt lat="42.2205967" lon="13.925685"><ele>298.0</ele><time>2026-05-03T09:51:45.56Z</time></trkpt><trkpt lat="42.2206733" lon="13.9257683"><ele>296.8</ele><time>2026-05-03T09:51:46.56Z</time></trkpt><trkpt lat="42.2207567" lon="13.9258633"><ele>295.6</ele><time>2026-05-03T09:51:47.561Z</time></trkpt><trkpt lat="42.2208217" lon="13.92595"><ele>294.4</ele><time>2026-05-03T09:51:48.561Z</time></trkpt><trkpt lat="42.2208733" lon="13.9260333"><ele>293.2</ele><time>2026-05-03T09:51:49.56Z</time></trkpt><trkpt lat="42.2209117" lon="13.9261383"><ele>292.0</ele><time>2026-05-03T09:51:50.561Z</time></trkpt><trkpt lat="42.2209383" lon="13.92626"><ele>291.0</ele><time>2026-05-03T09:51:51.561Z</time></trkpt><trkpt lat="42.2209433" lon="13.92639"><ele>290.0</ele><time>2026-05-03T09:51:52.56Z</time></trkpt><trkpt lat="42.220925" lon="13.92649"><ele>289.0</ele><time>2026-05-03T09:51:53.56Z</time></trkpt><trkpt lat="42.2208833" lon="13.9266067"><ele>288.0</ele><time>2026-05-03T09:51:55.56Z</time></trkpt><trkpt lat="42.2208933" lon="13.9265133"><ele>287.0</ele><time>2026-05-03T09:52:03.561Z</time></trkpt><trkpt lat="42.22093" lon="13.926375"><ele>286.0</ele><time>2026-05-03T09:52:05.56Z</time></trkpt><trkpt lat="42.2209483" lon="13.92624"><ele>286.0</ele><time>2026-05-03T09:52:07.56Z</time></trkpt><trkpt lat="42.2209983" lon="13.9261017"><ele>286.0</ele><time>2026-05-03T09:52:09.56Z</time></trkpt><trkpt lat="42.2210283" lon="13.9260133"><ele>286.0</ele><time>2026-05-03T09:52:10.56Z</time></trkpt><trkpt lat="42.221065" lon="13.92593"><ele>286.0</ele><time>2026-05-03T09:52:11.561Z</time></trkpt><trkpt lat="42.2210983" lon="13.9258517"><ele>286.0</ele><time>2026-05-03T09:52:12.561Z</time></trkpt><trkpt lat="42.22113" lon="13.92577"><ele>286.0</ele><time>2026-05-03T09:52:13.56Z</time></trkpt><trkpt lat="42.221185" lon="13.9256467"><ele>285.2</ele><time>2026-05-03T09:52:15.561Z</time></trkpt><trkpt lat="42.2212267" lon="13.9255583"><ele>284.40000000000003</ele><time>2026-05-03T09:52:19.56Z</time></trkpt><trkpt lat="42.2213317" lon="13.9255267"><ele>283.6</ele><time>2026-05-03T09:52:23.561Z</time></trkpt><trkpt lat="42.2214233" lon="13.9255333"><ele>282.8</ele><time>2026-05-03T09:52:24.561Z</time></trkpt><trkpt lat="42.2215433" lon="13.9255483"><ele>282.0</ele><time>2026-05-03T09:52:25.56Z</time></trkpt><trkpt lat="42.22167" lon="13.9255717"><ele>282.0</ele><time>2026-05-03T09:52:26.56Z</time></trkpt><trkpt lat="42.2217883" lon="13.9255967"><ele>282.0</ele><time>2026-05-03T09:52:27.56Z</time></trkpt><trkpt lat="42.2219017" lon="13.9256133"><ele>282.0</ele><time>2026-05-03T09:52:28.56Z</time></trkpt><trkpt lat="42.2219983" lon="13.9256383"><ele>282.0</ele><time>2026-05-03T09:52:29.56Z</time></trkpt><trkpt lat="42.22208" lon="13.925675"><ele>282.0</ele><time>2026-05-03T09:52:30.56Z</time></trkpt><trkpt lat="42.2221467" lon="13.9257033"><ele>282.0</ele><time>2026-05-03T09:52:31.561Z</time></trkpt><trkpt lat="42.2222133" lon="13.9257267"><ele>282.0</ele><time>2026-05-03T09:52:32.56Z</time></trkpt><trkpt lat="42.2222867" lon="13.9257667"><ele>282.0</ele><time>2026-05-03T09:52:33.561Z</time></trkpt><trkpt lat="42.2223717" lon="13.9258067"><ele>282.0</ele><time>2026-05-03T09:52:34.56Z</time></trkpt><trkpt lat="42.2224583" lon="13.9258383"><ele>282.0</ele><time>2026-05-03T09:52:35.561Z</time></trkpt><trkpt lat="42.2225367" lon="13.925855"><ele>282.0</ele><time>2026-05-03T09:52:36.56Z</time></trkpt><trkpt lat="42.222615" lon="13.92585"><ele>279.6666666666667</ele><time>2026-05-03T09:52:37.561Z</time></trkpt><trkpt lat="42.222695" lon="13.9258417"><ele>277.3333333333333</ele><time>2026-05-03T09:52:38.561Z</time></trkpt><trkpt lat="42.2227683" lon="13.9258383"><ele>275.0</ele><time>2026-05-03T09:52:39.561Z</time></trkpt><trkpt lat="42.222835" lon="13.9258433"><ele>272.66666666666663</ele><time>2026-05-03T09:52:40.561Z</time></trkpt><trkpt lat="42.2229317" lon="13.9258817"><ele>270.3333333333333</ele><time>2026-05-03T09:52:42.561Z</time></trkpt><trkpt lat="42.2229617" lon="13.9259617"><ele>268.0</ele><time>2026-05-03T09:52:44.56Z</time></trkpt><trkpt lat="42.22294" lon="13.9261467"><ele>265.8</ele><time>2026-05-03T09:52:46.56Z</time></trkpt><trkpt lat="42.2229" lon="13.926275"><ele>263.6</ele><time>2026-05-03T09:52:47.561Z</time></trkpt><trkpt lat="42.2228567" lon="13.92641"><ele>261.4</ele><time>2026-05-03T09:52:48.56Z</time></trkpt><trkpt lat="42.2228117" lon="13.9265433"><ele>259.2</ele><time>2026-05-03T09:52:49.561Z</time></trkpt><trkpt lat="42.2227667" lon="13.926685"><ele>257.0</ele><time>2026-05-03T09:52:50.56Z</time></trkpt><trkpt lat="42.2227183" lon="13.926835"><ele>255.33333333333334</ele><time>2026-05-03T09:52:51.56Z</time></trkpt><trkpt lat="42.2226783" lon="13.9269817"><ele>253.66666666666669</ele><time>2026-05-03T09:52:52.561Z</time></trkpt><trkpt lat="42.2226417" lon="13.9271033"><ele>252.0</ele><time>2026-05-03T09:52:53.561Z</time></trkpt><trkpt lat="42.2226067" lon="13.9271933"><ele>250.33333333333331</ele><time>2026-05-03T09:52:54.561Z</time></trkpt><trkpt lat="42.2225617" lon="13.9272733"><ele>248.66666666666666</ele><time>2026-05-03T09:52:55.561Z</time></trkpt><trkpt lat="42.2225167" lon="13.9273633"><ele>247.0</ele><time>2026-05-03T09:52:56.56Z</time></trkpt><trkpt lat="42.222475" lon="13.9274783"><ele>248.0</ele><time>2026-05-03T09:52:57.56Z</time></trkpt><trkpt lat="42.2224233" lon="13.927635"><ele>249.0</ele><time>2026-05-03T09:52:58.561Z</time></trkpt><trkpt lat="42.2223667" lon="13.92782"><ele>250.0</ele><time>2026-05-03T09:52:59.561Z</time></trkpt><trkpt lat="42.22232" lon="13.9280017"><ele>251.0</ele><time>2026-05-03T09:53:00.561Z</time></trkpt><trkpt lat="42.2222667" lon="13.9281633"><ele>251.0</ele><time>2026-05-03T09:53:01.561Z</time></trkpt><trkpt lat="42.22221" lon="13.9283267"><ele>251.0</ele><time>2026-05-03T09:53:02.56Z</time></trkpt><trkpt lat="42.2221417" lon="13.9284833"><ele>251.0</ele><time>2026-05-03T09:53:03.561Z</time></trkpt><trkpt lat="42.2220667" lon="13.928645"><ele>251.0</ele><time>2026-05-03T09:53:04.561Z</time></trkpt><trkpt lat="42.2219917" lon="13.9288133"><ele>249.66666666666669</ele><time>2026-05-03T09:53:05.561Z</time></trkpt><trkpt lat="42.2219183" lon="13.928995"><ele>248.33333333333331</ele><time>2026-05-03T09:53:06.561Z</time></trkpt><trkpt lat="42.2218383" lon="13.9291967"><ele>247.0</ele><time>2026-05-03T09:53:07.56Z</time></trkpt><trkpt lat="42.2217533" lon="13.9294067"><ele>246.33333333333331</ele><time>2026-05-03T09:53:08.56Z</time></trkpt><trkpt lat="42.2216583" lon="13.9296267"><ele>245.66666666666669</ele><time>2026-05-03T09:53:09.56Z</time></trkpt><trkpt lat="42.2215583" lon="13.92986"><ele>245.0</ele><time>2026-05-03T09:53:10.561Z</time></trkpt><trkpt lat="42.22145" lon="13.9301"><ele>250.66666666666669</ele><time>2026-05-03T09:53:11.56Z</time></trkpt><trkpt lat="42.221325" lon="13.9303283"><ele>256.3333333333333</ele><time>2026-05-03T09:53:12.561Z</time></trkpt><trkpt lat="42.2211917" lon="13.9305167"><ele>262.0</ele><time>2026-05-03T09:53:13.561Z</time></trkpt><trkpt lat="42.2210633" lon="13.9306567"><ele>262.0</ele><time>2026-05-03T09:53:14.56Z</time></trkpt><trkpt lat="42.22092" lon="13.930755"><ele>262.0</ele><time>2026-05-03T09:53:15.559Z</time></trkpt><trkpt lat="42.2207967" lon="13.9308167"><ele>262.0</ele><time>2026-05-03T09:53:16.56Z</time></trkpt><trkpt lat="42.220695" lon="13.9308567"><ele>262.0</ele><time>2026-05-03T09:53:17.56Z</time></trkpt><trkpt lat="42.2206117" lon="13.9308883"><ele>261.16666666666663</ele><time>2026-05-03T09:53:18.56Z</time></trkpt><trkpt lat="42.220555" lon="13.930935"><ele>260.3333333333333</ele><time>2026-05-03T09:53:19.56Z</time></trkpt><trkpt lat="42.2205183" lon="13.931005"><ele>259.5</ele><time>2026-05-03T09:53:20.56Z</time></trkpt><trkpt lat="42.22051" lon="13.93109"><ele>258.6666666666667</ele><time>2026-05-03T09:53:21.559Z</time></trkpt><trkpt lat="42.220535" lon="13.93122"><ele>257.83333333333337</ele><time>2026-05-03T09:53:22.56Z</time></trkpt><trkpt lat="42.2205933" lon="13.9313933"><ele>257.0</ele><time>2026-05-03T09:53:23.56Z</time></trkpt><trkpt lat="42.2206633" lon="13.9316083"><ele>254.33333333333334</ele><time>2026-05-03T09:53:24.56Z</time></trkpt><trkpt lat="42.22073" lon="13.9318167"><ele>251.66666666666669</ele><time>2026-05-03T09:53:25.559Z</time></trkpt><trkpt lat="42.2207933" lon="13.93202"><ele>249.0</ele><time>2026-05-03T09:53:26.56Z</time></trkpt><trkpt lat="42.2208333" lon="13.932205"><ele>249.0</ele><time>2026-05-03T09:53:27.56Z</time></trkpt><trkpt lat="42.2208917" lon="13.9323617"><ele>249.0</ele><time>2026-05-03T09:53:28.559Z</time></trkpt><trkpt lat="42.220975" lon="13.9325117"><ele>249.0</ele><time>2026-05-03T09:53:29.559Z</time></trkpt><trkpt lat="42.2210767" lon="13.9326567"><ele>249.0</ele><time>2026-05-03T09:53:30.56Z</time></trkpt><trkpt lat="42.2212033" lon="13.9328167"><ele>246.0</ele><time>2026-05-03T09:53:31.559Z</time></trkpt><trkpt lat="42.2213383" lon="13.932995"><ele>243.0</ele><time>2026-05-03T09:53:32.559Z</time></trkpt><trkpt lat="42.2214683" lon="13.9331817"><ele>240.0</ele><time>2026-05-03T09:53:33.559Z</time></trkpt><trkpt lat="42.2215733" lon="13.9333583"><ele>237.0</ele><time>2026-05-03T09:53:34.56Z</time></trkpt><trkpt lat="42.2216683" lon="13.9335167"><ele>234.0</ele><time>2026-05-03T09:53:35.56Z</time></trkpt><trkpt lat="42.22177" lon="13.933645"><ele>231.0</ele><time>2026-05-03T09:53:36.559Z</time></trkpt><trkpt lat="42.22188" lon="13.9337333"><ele>228.0</ele><time>2026-05-03T09:53:37.559Z</time></trkpt><trkpt lat="42.2220017" lon="13.9337733"><ele>228.0</ele><time>2026-05-03T09:53:38.56Z</time></trkpt><trkpt lat="42.2221083" lon="13.9338"><ele>228.0</ele><time>2026-05-03T09:53:39.56Z</time></trkpt><trkpt lat="42.2222117" lon="13.9338433"><ele>228.0</ele><time>2026-05-03T09:53:40.559Z</time></trkpt><trkpt lat="42.2222817" lon="13.93392"><ele>228.0</ele><time>2026-05-03T09:53:41.559Z</time></trkpt><trkpt lat="42.2223167" lon="13.9340483"><ele>228.0</ele><time>2026-05-03T09:53:42.56Z</time></trkpt><trkpt lat="42.2223417" lon="13.934225"><ele>224.5</ele><time>2026-05-03T09:53:43.559Z</time></trkpt><trkpt lat="42.2223617" lon="13.9344317"><ele>221.0</ele><time>2026-05-03T09:53:44.559Z</time></trkpt><trkpt lat="42.2223733" lon="13.93461"><ele>217.5</ele><time>2026-05-03T09:53:45.56Z</time></trkpt><trkpt lat="42.2224" lon="13.93476"><ele>214.0</ele><time>2026-05-03T09:53:46.56Z</time></trkpt><trkpt lat="42.222445" lon="13.9348767"><ele>214.0</ele><time>2026-05-03T09:53:47.559Z</time></trkpt><trkpt lat="42.2225283" lon="13.9349683"><ele>214.0</ele><time>2026-05-03T09:53:48.56Z</time></trkpt><trkpt lat="42.22265" lon="13.935035"><ele>214.0</ele><time>2026-05-03T09:53:49.56Z</time></trkpt><trkpt lat="42.2228033" lon="13.9350983"><ele>214.0</ele><time>2026-05-03T09:53:50.56Z</time></trkpt><trkpt lat="42.2229717" lon="13.9351883"><ele>212.0</ele><time>2026-05-03T09:53:51.559Z</time></trkpt><trkpt lat="42.2231283" lon="13.9353167"><ele>210.0</ele><time>2026-05-03T09:53:52.56Z</time></trkpt><trkpt lat="42.22327" lon="13.9354717"><ele>208.0</ele><time>2026-05-03T09:53:53.56Z</time></trkpt><trkpt lat="42.2233883" lon="13.93565"><ele>207.0</ele><time>2026-05-03T09:53:54.56Z</time></trkpt><trkpt lat="42.2234733" lon="13.9358367"><ele>206.0</ele><time>2026-05-03T09:53:55.56Z</time></trkpt><trkpt lat="42.22354" lon="13.9360067"><ele>205.0</ele><time>2026-05-03T09:53:56.56Z</time></trkpt><trkpt lat="42.2236" lon="13.9361567"><ele>204.0</ele><time>2026-05-03T09:53:57.56Z</time></trkpt><trkpt lat="42.2236683" lon="13.93627"><ele>203.6</ele><time>2026-05-03T09:53:58.56Z</time></trkpt><trkpt lat="42.223755" lon="13.93634"><ele>203.2</ele><time>2026-05-03T09:53:59.56Z</time></trkpt><trkpt lat="42.2238483" lon="13.9363733"><ele>202.79999999999998</ele><time>2026-05-03T09:54:00.56Z</time></trkpt><trkpt lat="42.22395" lon="13.93638"><ele>202.39999999999998</ele><time>2026-05-03T09:54:01.56Z</time></trkpt><trkpt lat="42.2240567" lon="13.93641"><ele>202.0</ele><time>2026-05-03T09:54:02.56Z</time></trkpt><trkpt lat="42.224185" lon="13.9364683"><ele>200.66666666666666</ele><time>2026-05-03T09:54:03.559Z</time></trkpt><trkpt lat="42.2243333" lon="13.936545"><ele>199.33333333333331</ele><time>2026-05-03T09:54:04.56Z</time></trkpt><trkpt lat="42.2245033" lon="13.9366133"><ele>198.0</ele><time>2026-05-03T09:54:05.56Z</time></trkpt><trkpt lat="42.2246967" lon="13.936685"><ele>197.33333333333331</ele><time>2026-05-03T09:54:06.56Z</time></trkpt><trkpt lat="42.2248917" lon="13.9367483"><ele>196.66666666666666</ele><time>2026-05-03T09:54:07.559Z</time></trkpt><trkpt lat="42.22508" lon="13.9368133"><ele>196.0</ele><time>2026-05-03T09:54:08.56Z</time></trkpt><trkpt lat="42.2252417" lon="13.936875"><ele>196.0</ele><time>2026-05-03T09:54:09.56Z</time></trkpt><trkpt lat="42.2253733" lon="13.9369317"><ele>196.0</ele><time>2026-05-03T09:54:10.559Z</time></trkpt><trkpt lat="42.2254883" lon="13.9369933"><ele>196.0</ele><time>2026-05-03T09:54:11.56Z</time></trkpt><trkpt lat="42.2255883" lon="13.937065"><ele>196.0</ele><time>2026-05-03T09:54:12.56Z</time></trkpt><trkpt lat="42.22567" lon="13.9371667"><ele>195.75</ele><time>2026-05-03T09:54:13.559Z</time></trkpt><trkpt lat="42.2257283" lon="13.937285"><ele>195.5</ele><time>2026-05-03T09:54:14.56Z</time></trkpt><trkpt lat="42.22575" lon="13.9374117"><ele>195.25</ele><time>2026-05-03T09:54:15.56Z</time></trkpt><trkpt lat="42.2257567" lon="13.9375683"><ele>195.0</ele><time>2026-05-03T09:54:16.56Z</time></trkpt><trkpt lat="42.2257467" lon="13.9377617"><ele>195.0</ele><time>2026-05-03T09:54:17.56Z</time></trkpt><trkpt lat="42.225745" lon="13.9379783"><ele>195.0</ele><time>2026-05-03T09:54:18.559Z</time></trkpt><trkpt lat="42.2257417" lon="13.9382267"><ele>195.0</ele><time>2026-05-03T09:54:19.559Z</time></trkpt><trkpt lat="42.2257367" lon="13.9384917"><ele>195.0</ele><time>2026-05-03T09:54:20.56Z</time></trkpt><trkpt lat="42.2257283" lon="13.9387667"><ele>195.0</ele><time>2026-05-03T09:54:21.56Z</time></trkpt><trkpt lat="42.2257217" lon="13.9390633"><ele>195.0</ele><time>2026-05-03T09:54:22.56Z</time></trkpt><trkpt lat="42.225715" lon="13.939375"><ele>195.0</ele><time>2026-05-03T09:54:23.56Z</time></trkpt><trkpt lat="42.2257083" lon="13.9396967"><ele>195.0</ele><time>2026-05-03T09:54:24.56Z</time></trkpt><trkpt lat="42.2257033" lon="13.94003"><ele>194.5</ele><time>2026-05-03T09:54:25.559Z</time></trkpt><trkpt lat="42.2257117" lon="13.9403683"><ele>194.0</ele><time>2026-05-03T09:54:26.56Z</time></trkpt><trkpt lat="42.2257483" lon="13.9406983"><ele>195.0</ele><time>2026-05-03T09:54:27.56Z</time></trkpt><trkpt lat="42.2258" lon="13.9410317"><ele>196.0</ele><time>2026-05-03T09:54:28.559Z</time></trkpt><trkpt lat="42.2258783" lon="13.9413583"><ele>196.0</ele><time>2026-05-03T09:54:29.56Z</time></trkpt><trkpt lat="42.2259667" lon="13.94168"><ele>196.0</ele><time>2026-05-03T09:54:30.56Z</time></trkpt><trkpt lat="42.226055" lon="13.9420067"><ele>194.5</ele><time>2026-05-03T09:54:31.56Z</time></trkpt><trkpt lat="42.2261433" lon="13.9423317"><ele>193.0</ele><time>2026-05-03T09:54:32.56Z</time></trkpt><trkpt lat="42.2262367" lon="13.9426633"><ele>193.0</ele><time>2026-05-03T09:54:33.559Z</time></trkpt><trkpt lat="42.2263383" lon="13.942995"><ele>193.0</ele><time>2026-05-03T09:54:34.56Z</time></trkpt><trkpt lat="42.226435" lon="13.9433317"><ele>194.5</ele><time>2026-05-03T09:54:35.56Z</time></trkpt><trkpt lat="42.226535" lon="13.9436717"><ele>196.0</ele><time>2026-05-03T09:54:36.559Z</time></trkpt><trkpt lat="42.2266383" lon="13.9440217"><ele>197.0</ele><time>2026-05-03T09:54:37.559Z</time></trkpt><trkpt lat="42.2267383" lon="13.9443717"><ele>198.0</ele><time>2026-05-03T09:54:38.559Z</time></trkpt><trkpt lat="42.2268367" lon="13.94472"><ele>198.0</ele><time>2026-05-03T09:54:39.559Z</time></trkpt><trkpt lat="42.2269383" lon="13.9450633"><ele>198.0</ele><time>2026-05-03T09:54:40.56Z</time></trkpt><trkpt lat="42.22704" lon="13.9454033"><ele>198.0</ele><time>2026-05-03T09:54:41.56Z</time></trkpt><trkpt lat="42.2271483" lon="13.945745"><ele>198.0</ele><time>2026-05-03T09:54:42.559Z</time></trkpt><trkpt lat="42.2272467" lon="13.9460883"><ele>199.5</ele><time>2026-05-03T09:54:43.56Z</time></trkpt><trkpt lat="42.227345" lon="13.9464317"><ele>201.0</ele><time>2026-05-03T09:54:44.56Z</time></trkpt><trkpt lat="42.227435" lon="13.9467767"><ele>202.5</ele><time>2026-05-03T09:54:45.56Z</time></trkpt><trkpt lat="42.2275333" lon="13.947125"><ele>204.0</ele><time>2026-05-03T09:54:46.56Z</time></trkpt><trkpt lat="42.2276267" lon="13.9474583"><ele>205.0</ele><time>2026-05-03T09:54:47.56Z</time></trkpt><trkpt lat="42.2277117" lon="13.9477667"><ele>206.0</ele><time>2026-05-03T09:54:48.559Z</time></trkpt><trkpt lat="42.2278067" lon="13.9480083"><ele>207.0</ele><time>2026-05-03T09:54:49.56Z</time></trkpt><trkpt lat="42.2279117" lon="13.9482183"><ele>207.66666666666669</ele><time>2026-05-03T09:54:50.56Z</time></trkpt><trkpt lat="42.2280533" lon="13.9483983"><ele>208.33333333333334</ele><time>2026-05-03T09:54:51.56Z</time></trkpt><trkpt lat="42.22822" lon="13.9485667"><ele>209.0</ele><time>2026-05-03T09:54:52.56Z</time></trkpt><trkpt lat="42.2284033" lon="13.9487267"><ele>209.5</ele><time>2026-05-03T09:54:53.56Z</time></trkpt><trkpt lat="42.228595" lon="13.9488983"><ele>210.0</ele><time>2026-05-03T09:54:54.56Z</time></trkpt><trkpt lat="42.228795" lon="13.9490817"><ele>215.0</ele><time>2026-05-03T09:54:55.559Z</time></trkpt><trkpt lat="42.229" lon="13.9492683"><ele>220.0</ele><time>2026-05-03T09:54:56.559Z</time></trkpt><trkpt lat="42.2291983" lon="13.94946"><ele>220.0</ele><time>2026-05-03T09:54:57.559Z</time></trkpt><trkpt lat="42.2293983" lon="13.949645"><ele>220.0</ele><time>2026-05-03T09:54:58.56Z</time></trkpt><trkpt lat="42.2295933" lon="13.94982"><ele>220.0</ele><time>2026-05-03T09:54:59.56Z</time></trkpt><trkpt lat="42.2297967" lon="13.9499583"><ele>220.0</ele><time>2026-05-03T09:55:00.56Z</time></trkpt><trkpt lat="42.230005" lon="13.9500567"><ele>220.0</ele><time>2026-05-03T09:55:01.559Z</time></trkpt><trkpt lat="42.2302417" lon="13.9501083"><ele>224.5</ele><time>2026-05-03T09:55:02.559Z</time></trkpt><trkpt lat="42.2304717" lon="13.950155"><ele>229.0</ele><time>2026-05-03T09:55:03.56Z</time></trkpt><trkpt lat="42.23071" lon="13.9502017"><ele>235.0</ele><time>2026-05-03T09:55:04.56Z</time></trkpt><trkpt lat="42.2309467" lon="13.9502567"><ele>241.0</ele><time>2026-05-03T09:55:05.56Z</time></trkpt><trkpt lat="42.231185" lon="13.9503167"><ele>241.0</ele><time>2026-05-03T09:55:06.559Z</time></trkpt><trkpt lat="42.2314267" lon="13.9503767"><ele>241.0</ele><time>2026-05-03T09:55:07.56Z</time></trkpt><trkpt lat="42.2316583" lon="13.95044"><ele>242.0</ele><time>2026-05-03T09:55:08.56Z</time></trkpt><trkpt lat="42.2318633" lon="13.9505033"><ele>243.0</ele><time>2026-05-03T09:55:09.56Z</time></trkpt><trkpt lat="42.232035" lon="13.9505567"><ele>244.0</ele><time>2026-05-03T09:55:10.559Z</time></trkpt><trkpt lat="42.2321883" lon="13.9506"><ele>244.25</ele><time>2026-05-03T09:55:11.56Z</time></trkpt><trkpt lat="42.2323283" lon="13.9506483"><ele>244.5</ele><time>2026-05-03T09:55:12.56Z</time></trkpt><trkpt lat="42.2324633" lon="13.9506817"><ele>244.75</ele><time>2026-05-03T09:55:13.56Z</time></trkpt><trkpt lat="42.2325883" lon="13.950715"><ele>245.0</ele><time>2026-05-03T09:55:14.56Z</time></trkpt><trkpt lat="42.232705" lon="13.9507433"><ele>245.0</ele><time>2026-05-03T09:55:15.56Z</time></trkpt><trkpt lat="42.2328283" lon="13.950735"><ele>245.0</ele><time>2026-05-03T09:55:16.56Z</time></trkpt><trkpt lat="42.232965" lon="13.9507317"><ele>245.0</ele><time>2026-05-03T09:55:17.56Z</time></trkpt><trkpt lat="42.2331" lon="13.9507467"><ele>245.0</ele><time>2026-05-03T09:55:18.56Z</time></trkpt><trkpt lat="42.2332267" lon="13.9507533"><ele>244.8</ele><time>2026-05-03T09:55:19.56Z</time></trkpt><trkpt lat="42.2333383" lon="13.95075"><ele>244.6</ele><time>2026-05-03T09:55:20.56Z</time></trkpt><trkpt lat="42.2334483" lon="13.9507217"><ele>244.39999999999998</ele><time>2026-05-03T09:55:21.56Z</time></trkpt><trkpt lat="42.2335433" lon="13.9506583"><ele>244.2</ele><time>2026-05-03T09:55:22.56Z</time></trkpt><trkpt lat="42.233625" lon="13.9505633"><ele>244.0</ele><time>2026-05-03T09:55:23.56Z</time></trkpt><trkpt lat="42.2337067" lon="13.9504267"><ele>244.0</ele><time>2026-05-03T09:55:24.56Z</time></trkpt><trkpt lat="42.233795" lon="13.95026"><ele>244.0</ele><time>2026-05-03T09:55:25.56Z</time></trkpt><trkpt lat="42.233885" lon="13.9500883"><ele>244.0</ele><time>2026-05-03T09:55:26.559Z</time></trkpt><trkpt lat="42.2339867" lon="13.9499167"><ele>245.66666666666666</ele><time>2026-05-03T09:55:27.56Z</time></trkpt><trkpt lat="42.2340933" lon="13.9497367"><ele>247.33333333333331</ele><time>2026-05-03T09:55:28.56Z</time></trkpt><trkpt lat="42.2341933" lon="13.9495617"><ele>249.0</ele><time>2026-05-03T09:55:29.56Z</time></trkpt><trkpt lat="42.2342867" lon="13.9493983"><ele>249.0</ele><time>2026-05-03T09:55:30.56Z</time></trkpt><trkpt lat="42.2343667" lon="13.9492583"><ele>249.0</ele><time>2026-05-03T09:55:31.56Z</time></trkpt><trkpt lat="42.2344483" lon="13.9491433"><ele>249.0</ele><time>2026-05-03T09:55:32.56Z</time></trkpt><trkpt lat="42.2345533" lon="13.9490217"><ele>249.0</ele><time>2026-05-03T09:55:33.56Z</time></trkpt><trkpt lat="42.234665" lon="13.9488867"><ele>249.66666666666669</ele><time>2026-05-03T09:55:34.559Z</time></trkpt><trkpt lat="42.234785" lon="13.94875"><ele>250.33333333333334</ele><time>2026-05-03T09:55:35.56Z</time></trkpt><trkpt lat="42.234925" lon="13.9485983"><ele>251.0</ele><time>2026-05-03T09:55:36.559Z</time></trkpt><trkpt lat="42.2350567" lon="13.9484567"><ele>252.20000000000002</ele><time>2026-05-03T09:55:37.56Z</time></trkpt><trkpt lat="42.2351683" lon="13.9483383"><ele>253.40000000000003</ele><time>2026-05-03T09:55:38.56Z</time></trkpt><trkpt lat="42.235265" lon="13.948265"><ele>254.6</ele><time>2026-05-03T09:55:39.559Z</time></trkpt><trkpt lat="42.2353467" lon="13.9482333"><ele>255.8</ele><time>2026-05-03T09:55:40.56Z</time></trkpt><trkpt lat="42.23541" lon="13.9482383"><ele>257.0</ele><time>2026-05-03T09:55:41.559Z</time></trkpt><trkpt lat="42.235485" lon="13.948265"><ele>257.0</ele><time>2026-05-03T09:55:42.56Z</time></trkpt><trkpt lat="42.2355717" lon="13.9483117"><ele>257.0</ele><time>2026-05-03T09:55:43.559Z</time></trkpt><trkpt lat="42.23567" lon="13.9483583"><ele>257.0</ele><time>2026-05-03T09:55:44.559Z</time></trkpt><trkpt lat="42.2357583" lon="13.9483783"><ele>257.0</ele><time>2026-05-03T09:55:45.56Z</time></trkpt><trkpt lat="42.2358467" lon="13.9483783"><ele>257.0</ele><time>2026-05-03T09:55:46.56Z</time></trkpt><trkpt lat="42.2359333" lon="13.94836"><ele>255.83333333333334</ele><time>2026-05-03T09:55:47.56Z</time></trkpt><trkpt lat="42.2360167" lon="13.9483383"><ele>254.66666666666669</ele><time>2026-05-03T09:55:48.559Z</time></trkpt><trkpt lat="42.2360833" lon="13.9483283"><ele>253.5</ele><time>2026-05-03T09:55:49.559Z</time></trkpt><trkpt lat="42.2361767" lon="13.94834"><ele>252.33333333333331</ele><time>2026-05-03T09:55:51.559Z</time></trkpt><trkpt lat="42.2362667" lon="13.9483783"><ele>251.16666666666666</ele><time>2026-05-03T09:55:53.56Z</time></trkpt><trkpt lat="42.2363217" lon="13.948425"><ele>250.0</ele><time>2026-05-03T09:55:54.56Z</time></trkpt><trkpt lat="42.2363967" lon="13.9484833"><ele>248.33333333333331</ele><time>2026-05-03T09:55:55.559Z</time></trkpt><trkpt lat="42.2364683" lon="13.9485317"><ele>246.66666666666666</ele><time>2026-05-03T09:55:56.559Z</time></trkpt><trkpt lat="42.2365367" lon="13.9485633"><ele>245.0</ele><time>2026-05-03T09:55:57.56Z</time></trkpt><trkpt lat="42.23661" lon="13.9485767"><ele>243.33333333333331</ele><time>2026-05-03T09:55:58.56Z</time></trkpt><trkpt lat="42.236685" lon="13.9485733"><ele>241.66666666666666</ele><time>2026-05-03T09:55:59.559Z</time></trkpt><trkpt lat="42.2367933" lon="13.9485617"><ele>240.0</ele><time>2026-05-03T09:56:01.56Z</time></trkpt><trkpt lat="42.2368883" lon="13.9485383"><ele>238.4</ele><time>2026-05-03T09:56:03.56Z</time></trkpt><trkpt lat="42.2369533" lon="13.9485467"><ele>236.8</ele><time>2026-05-03T09:56:05.56Z</time></trkpt><trkpt lat="42.237035" lon="13.948605"><ele>235.2</ele><time>2026-05-03T09:56:07.56Z</time></trkpt><trkpt lat="42.23711" lon="13.9486617"><ele>233.6</ele><time>2026-05-03T09:56:09.56Z</time></trkpt><trkpt lat="42.237195" lon="13.948735"><ele>232.0</ele><time>2026-05-03T09:56:12.559Z</time></trkpt><trkpt lat="42.2373067" lon="13.9487683"><ele>232.39999999999998</ele><time>2026-05-03T09:56:14.56Z</time></trkpt><trkpt lat="42.2373933" lon="13.9487383"><ele>232.79999999999998</ele><time>2026-05-03T09:56:16.56Z</time></trkpt><trkpt lat="42.2374817" lon="13.9486667"><ele>233.2</ele><time>2026-05-03T09:56:18.559Z</time></trkpt><trkpt lat="42.2375683" lon="13.9485617"><ele>233.6</ele><time>2026-05-03T09:56:20.56Z</time></trkpt><trkpt lat="42.2376583" lon="13.9484417"><ele>234.0</ele><time>2026-05-03T09:56:22.56Z</time></trkpt><trkpt lat="42.2377067" lon="13.948355"><ele>234.0</ele><time>2026-05-03T09:56:23.56Z</time></trkpt><trkpt lat="42.2377617" lon="13.948255"><ele>233.99999999999997</ele><time>2026-05-03T09:56:24.56Z</time></trkpt><trkpt lat="42.237825" lon="13.9481733"><ele>233.99999999999997</ele><time>2026-05-03T09:56:25.56Z</time></trkpt><trkpt lat="42.237895" lon="13.9481067"><ele>234.0</ele><time>2026-05-03T09:56:26.56Z</time></trkpt><trkpt lat="42.2379733" lon="13.9480333"><ele>234.0</ele><time>2026-05-03T09:56:27.559Z</time></trkpt><trkpt lat="42.2380667" lon="13.9479483"><ele>231.0</ele><time>2026-05-03T09:56:28.56Z</time></trkpt><trkpt lat="42.238155" lon="13.9478717"><ele>227.99999999999997</ele><time>2026-05-03T09:56:29.56Z</time></trkpt><trkpt lat="42.2382317" lon="13.9477967"><ele>224.99999999999997</ele><time>2026-05-03T09:56:30.56Z</time></trkpt><trkpt lat="42.2383033" lon="13.947725"><ele>222.0</ele><time>2026-05-03T09:56:31.559Z</time></trkpt><trkpt lat="42.238375" lon="13.9476517"><ele>219.0</ele><time>2026-05-03T09:56:32.56Z</time></trkpt><trkpt lat="42.2384567" lon="13.9475833"><ele>219.66666666666666</ele><time>2026-05-03T09:56:33.559Z</time></trkpt><trkpt lat="42.2385367" lon="13.947525"><ele>220.33333333333331</ele><time>2026-05-03T09:56:34.559Z</time></trkpt><trkpt lat="42.2386083" lon="13.9474717"><ele>221.0</ele><time>2026-05-03T09:56:35.56Z</time></trkpt><trkpt lat="42.2386683" lon="13.947425"><ele>221.66666666666666</ele><time>2026-05-03T09:56:36.56Z</time></trkpt><trkpt lat="42.2387233" lon="13.9473733"><ele>222.33333333333331</ele><time>2026-05-03T09:56:37.56Z</time></trkpt><trkpt lat="42.2387833" lon="13.9473317"><ele>223.0</ele><time>2026-05-03T09:56:38.559Z</time></trkpt><trkpt lat="42.2388667" lon="13.9472733"><ele>222.99999999999997</ele><time>2026-05-03T09:56:39.559Z</time></trkpt><trkpt lat="42.2389517" lon="13.94721"><ele>223.0</ele><time>2026-05-03T09:56:40.56Z</time></trkpt><trkpt lat="42.2390217" lon="13.9471567"><ele>223.0</ele><time>2026-05-03T09:56:41.559Z</time></trkpt><trkpt lat="42.2390833" lon="13.9471033"><ele>223.0</ele><time>2026-05-03T09:56:42.56Z</time></trkpt><trkpt lat="42.2391467" lon="13.9470433"><ele>222.99999999999997</ele><time>2026-05-03T09:56:43.56Z</time></trkpt><trkpt lat="42.2392117" lon="13.9469733"><ele>223.0</ele><time>2026-05-03T09:56:44.559Z</time></trkpt><trkpt lat="42.2392783" lon="13.9469083"><ele>222.16666666666666</ele><time>2026-05-03T09:56:45.559Z</time></trkpt><trkpt lat="42.2393433" lon="13.9468367"><ele>221.33333333333331</ele><time>2026-05-03T09:56:46.559Z</time></trkpt><trkpt lat="42.2394067" lon="13.9467567"><ele>220.5</ele><time>2026-05-03T09:56:47.559Z</time></trkpt><trkpt lat="42.2394583" lon="13.9466733"><ele>219.66666666666669</ele><time>2026-05-03T09:56:48.56Z</time></trkpt><trkpt lat="42.2395033" lon="13.9466"><ele>218.83333333333334</ele><time>2026-05-03T09:56:49.56Z</time></trkpt><trkpt lat="42.23956" lon="13.9465"><ele>218.0</ele><time>2026-05-03T09:56:51.56Z</time></trkpt><trkpt lat="42.2396067" lon="13.9464"><ele>218.0</ele><time>2026-05-03T09:56:53.56Z</time></trkpt><trkpt lat="42.23968" lon="13.9462833"><ele>218.0</ele><time>2026-05-03T09:56:55.56Z</time></trkpt><trkpt lat="42.2397317" lon="13.9461817"><ele>218.0</ele><time>2026-05-03T09:56:56.56Z</time></trkpt><trkpt lat="42.2397917" lon="13.9460717"><ele>218.0</ele><time>2026-05-03T09:56:57.56Z</time></trkpt><trkpt lat="42.2398483" lon="13.94598"><ele>218.0</ele><time>2026-05-03T09:56:58.559Z</time></trkpt><trkpt lat="42.2399017" lon="13.94591"><ele>215.71428571428572</ele><time>2026-05-03T09:56:59.56Z</time></trkpt><trkpt lat="42.23995" lon="13.9458383"><ele>213.42857142857144</ele><time>2026-05-03T09:57:00.56Z</time></trkpt><trkpt lat="42.2399933" lon="13.9457533"><ele>211.14285714285714</ele><time>2026-05-03T09:57:01.56Z</time></trkpt><trkpt lat="42.2400317" lon="13.9456617"><ele>208.85714285714286</ele><time>2026-05-03T09:57:02.559Z</time></trkpt><trkpt lat="42.240065" lon="13.9455683"><ele>206.57142857142856</ele><time>2026-05-03T09:57:03.559Z</time></trkpt><trkpt lat="42.2400983" lon="13.9454933"><ele>204.28571428571428</ele><time>2026-05-03T09:57:04.56Z</time></trkpt><trkpt lat="42.2401333" lon="13.9454183"><ele>202.0</ele><time>2026-05-03T09:57:05.56Z</time></trkpt><trkpt lat="42.24018" lon="13.945355"><ele>201.99999999999997</ele><time>2026-05-03T09:57:06.559Z</time></trkpt><trkpt lat="42.2402267" lon="13.9452967"><ele>202.0</ele><time>2026-05-03T09:57:07.56Z</time></trkpt><trkpt lat="42.2403283" lon="13.9451933"><ele>202.0</ele><time>2026-05-03T09:57:09.56Z</time></trkpt><trkpt lat="42.240395" lon="13.9451333"><ele>202.0</ele><time>2026-05-03T09:57:10.56Z</time></trkpt><trkpt lat="42.2404667" lon="13.9450617"><ele>201.99999999999997</ele><time>2026-05-03T09:57:11.559Z</time></trkpt><trkpt lat="42.2405283" lon="13.9449767"><ele>202.0</ele><time>2026-05-03T09:57:12.559Z</time></trkpt><trkpt lat="42.2405767" lon="13.9449067"><ele>197.6</ele><time>2026-05-03T09:57:13.559Z</time></trkpt><trkpt lat="42.2406483" lon="13.9448033"><ele>193.2</ele><time>2026-05-03T09:57:15.56Z</time></trkpt><trkpt lat="42.2407433" lon="13.9447033"><ele>188.8</ele><time>2026-05-03T09:57:17.559Z</time></trkpt><trkpt lat="42.2408083" lon="13.9446417"><ele>184.4</ele><time>2026-05-03T09:57:18.559Z</time></trkpt><trkpt lat="42.24089" lon="13.9445733"><ele>180.0</ele><time>2026-05-03T09:57:19.56Z</time></trkpt><trkpt lat="42.2409867" lon="13.9444917"><ele>180.0</ele><time>2026-05-03T09:57:20.559Z</time></trkpt><trkpt lat="42.2410783" lon="13.9444117"><ele>180.0</ele><time>2026-05-03T09:57:21.56Z</time></trkpt><trkpt lat="42.24116" lon="13.9443367"><ele>180.0</ele><time>2026-05-03T09:57:22.56Z</time></trkpt><trkpt lat="42.2412333" lon="13.9442617"><ele>180.0</ele><time>2026-05-03T09:57:23.56Z</time></trkpt><trkpt lat="42.2413033" lon="13.9442"><ele>180.0</ele><time>2026-05-03T09:57:24.56Z</time></trkpt><trkpt lat="42.2413667" lon="13.94415"><ele>177.66666666666666</ele><time>2026-05-03T09:57:25.56Z</time></trkpt><trkpt lat="42.241475" lon="13.94411"><ele>175.33333333333334</ele><time>2026-05-03T09:57:27.56Z</time></trkpt><trkpt lat="42.241565" lon="13.9441567"><ele>173.0</ele><time>2026-05-03T09:57:29.559Z</time></trkpt><trkpt lat="42.2416083" lon="13.944225"><ele>170.66666666666669</ele><time>2026-05-03T09:57:30.56Z</time></trkpt><trkpt lat="42.2416483" lon="13.9443067"><ele>168.33333333333334</ele><time>2026-05-03T09:57:31.56Z</time></trkpt><trkpt lat="42.24172" lon="13.9443583"><ele>166.0</ele><time>2026-05-03T09:57:33.558Z</time></trkpt><trkpt lat="42.2418417" lon="13.94427"><ele>164.83333333333334</ele><time>2026-05-03T09:57:35.559Z</time></trkpt><trkpt lat="42.24191" lon="13.9442067"><ele>163.66666666666669</ele><time>2026-05-03T09:57:36.558Z</time></trkpt><trkpt lat="42.241975" lon="13.944155"><ele>162.5</ele><time>2026-05-03T09:57:37.559Z</time></trkpt><trkpt lat="42.2420317" lon="13.944115"><ele>161.33333333333334</ele><time>2026-05-03T09:57:38.559Z</time></trkpt><trkpt lat="42.2421183" lon="13.94405"><ele>160.16666666666666</ele><time>2026-05-03T09:57:40.559Z</time></trkpt><trkpt lat="42.242175" lon="13.94401"><ele>159.0</ele><time>2026-05-03T09:57:42.559Z</time></trkpt><trkpt lat="42.242225" lon="13.9439483"><ele>159.0</ele><time>2026-05-03T10:01:38.557Z</time></trkpt><trkpt lat="42.242295" lon="13.943905"><ele>159.0</ele><time>2026-05-03T10:01:40.558Z</time></trkpt><trkpt lat="42.242385" lon="13.9438683"><ele>159.0</ele><time>2026-05-03T10:01:42.558Z</time></trkpt><trkpt lat="42.2424483" lon="13.9438617"><ele>159.0</ele><time>2026-05-03T10:01:43.558Z</time></trkpt><trkpt lat="42.2425667" lon="13.9438733"><ele>159.0</ele><time>2026-05-03T10:01:45.557Z</time></trkpt><trkpt lat="42.2426167" lon="13.9439333"><ele>159.0</ele><time>2026-05-03T10:01:46.558Z</time></trkpt><trkpt lat="42.2426467" lon="13.94401"><ele>158.4</ele><time>2026-05-03T10:01:47.558Z</time></trkpt><trkpt lat="42.2426667" lon="13.94411"><ele>157.8</ele><time>2026-05-03T10:01:48.558Z</time></trkpt><trkpt lat="42.2426733" lon="13.9442333"><ele>157.2</ele><time>2026-05-03T10:01:49.557Z</time></trkpt><trkpt lat="42.2426783" lon="13.944375"><ele>156.6</ele><time>2026-05-03T10:01:50.557Z</time></trkpt><trkpt lat="42.24269" lon="13.9445283"><ele>156.0</ele><time>2026-05-03T10:01:51.557Z</time></trkpt><trkpt lat="42.2427083" lon="13.9446933"><ele>156.0</ele><time>2026-05-03T10:01:52.558Z</time></trkpt><trkpt lat="42.2427283" lon="13.94487"><ele>156.0</ele><time>2026-05-03T10:01:53.557Z</time></trkpt><trkpt lat="42.2427567" lon="13.9450467"><ele>156.0</ele><time>2026-05-03T10:01:54.558Z</time></trkpt><trkpt lat="42.2427917" lon="13.94522"><ele>156.0</ele><time>2026-05-03T10:01:55.557Z</time></trkpt><trkpt lat="42.242825" lon="13.9453883"><ele>156.75</ele><time>2026-05-03T10:01:56.557Z</time></trkpt><trkpt lat="42.2428567" lon="13.94555"><ele>157.5</ele><time>2026-05-03T10:01:57.558Z</time></trkpt><trkpt lat="42.2428917" lon="13.945705"><ele>158.25</ele><time>2026-05-03T10:01:58.557Z</time></trkpt><trkpt lat="42.2429367" lon="13.9458567"><ele>159.0</ele><time>2026-05-03T10:01:59.557Z</time></trkpt><trkpt lat="42.2429883" lon="13.9460083"><ele>159.25</ele><time>2026-05-03T10:02:00.558Z</time></trkpt><trkpt lat="42.24304" lon="13.94616"><ele>159.5</ele><time>2026-05-03T10:02:01.558Z</time></trkpt><trkpt lat="42.2430983" lon="13.9463117"><ele>159.75</ele><time>2026-05-03T10:02:02.557Z</time></trkpt><trkpt lat="42.2431633" lon="13.946455"><ele>160.0</ele><time>2026-05-03T10:02:03.558Z</time></trkpt><trkpt lat="42.2432333" lon="13.9466017"><ele>158.8</ele><time>2026-05-03T10:02:04.558Z</time></trkpt><trkpt lat="42.2433033" lon="13.9467383"><ele>157.6</ele><time>2026-05-03T10:02:05.558Z</time></trkpt><trkpt lat="42.243365" lon="13.9468783"><ele>156.4</ele><time>2026-05-03T10:02:06.558Z</time></trkpt><trkpt lat="42.2434067" lon="13.9470033"><ele>155.2</ele><time>2026-05-03T10:02:07.558Z</time></trkpt><trkpt lat="42.2434217" lon="13.94712"><ele>154.0</ele><time>2026-05-03T10:02:08.558Z</time></trkpt><trkpt lat="42.2434183" lon="13.947225"><ele>154.0</ele><time>2026-05-03T10:02:09.557Z</time></trkpt><trkpt lat="42.2433917" lon="13.94737"><ele>154.0</ele><time>2026-05-03T10:02:11.557Z</time></trkpt><trkpt lat="42.2434517" lon="13.9474217"><ele>154.0</ele><time>2026-05-03T10:02:14.558Z</time></trkpt><trkpt lat="42.2435717" lon="13.9473417"><ele>154.0</ele><time>2026-05-03T10:02:16.558Z</time></trkpt><trkpt lat="42.2436517" lon="13.947275"><ele>154.0</ele><time>2026-05-03T10:02:17.558Z</time></trkpt><trkpt lat="42.2437433" lon="13.9472067"><ele>154.0</ele><time>2026-05-03T10:02:18.558Z</time></trkpt><trkpt lat="42.2438367" lon="13.9471333"><ele>154.0</ele><time>2026-05-03T10:02:19.558Z</time></trkpt><trkpt lat="42.2439433" lon="13.9470417"><ele>154.0</ele><time>2026-05-03T10:02:20.558Z</time></trkpt><trkpt lat="42.2440517" lon="13.9469367"><ele>154.0</ele><time>2026-05-03T10:02:21.558Z</time></trkpt><trkpt lat="42.244165" lon="13.9468117"><ele>152.33333333333334</ele><time>2026-05-03T10:02:22.558Z</time></trkpt><trkpt lat="42.2442867" lon="13.9466667"><ele>150.66666666666666</ele><time>2026-05-03T10:02:23.558Z</time></trkpt><trkpt lat="42.2444083" lon="13.9465333"><ele>149.0</ele><time>2026-05-03T10:02:24.558Z</time></trkpt><trkpt lat="42.2445283" lon="13.9463983"><ele>149.0</ele><time>2026-05-03T10:02:25.557Z</time></trkpt><trkpt lat="42.2446483" lon="13.9462667"><ele>149.0</ele><time>2026-05-03T10:02:26.558Z</time></trkpt><trkpt lat="42.24475" lon="13.9461217"><ele>149.0</ele><time>2026-05-03T10:02:27.558Z</time></trkpt><trkpt lat="42.2448683" lon="13.9459583"><ele>148.0</ele><time>2026-05-03T10:02:28.558Z</time></trkpt><trkpt lat="42.244995" lon="13.945805"><ele>147.0</ele><time>2026-05-03T10:02:29.557Z</time></trkpt><trkpt lat="42.24512" lon="13.945655"><ele>146.0</ele><time>2026-05-03T10:02:30.558Z</time></trkpt><trkpt lat="42.2452617" lon="13.9455083"><ele>146.0</ele><time>2026-05-03T10:02:31.558Z</time></trkpt><trkpt lat="42.2453983" lon="13.945375"><ele>146.0</ele><time>2026-05-03T10:02:32.557Z</time></trkpt><trkpt lat="42.2455283" lon="13.945255"><ele>146.0</ele><time>2026-05-03T10:02:33.558Z</time></trkpt><trkpt lat="42.2456533" lon="13.9451383"><ele>145.75</ele><time>2026-05-03T10:02:34.558Z</time></trkpt><trkpt lat="42.2457767" lon="13.9450317"><ele>145.5</ele><time>2026-05-03T10:02:35.557Z</time></trkpt><trkpt lat="42.2458967" lon="13.94493"><ele>145.25</ele><time>2026-05-03T10:02:36.558Z</time></trkpt><trkpt lat="42.2459917" lon="13.944835"><ele>145.0</ele><time>2026-05-03T10:02:37.557Z</time></trkpt><trkpt lat="42.24608" lon="13.9447533"><ele>145.0</ele><time>2026-05-03T10:02:38.558Z</time></trkpt><trkpt lat="42.246155" lon="13.944695"><ele>145.0</ele><time>2026-05-03T10:02:39.558Z</time></trkpt><trkpt lat="42.2462583" lon="13.9446567"><ele>145.0</ele><time>2026-05-03T10:02:41.557Z</time></trkpt><trkpt lat="42.2463883" lon="13.94473"><ele>145.0</ele><time>2026-05-03T10:02:43.557Z</time></trkpt><trkpt lat="42.24647" lon="13.9448133"><ele>145.0</ele><time>2026-05-03T10:02:44.558Z</time></trkpt><trkpt lat="42.246555" lon="13.9449233"><ele>144.5</ele><time>2026-05-03T10:02:45.557Z</time></trkpt><trkpt lat="42.2466567" lon="13.945055"><ele>144.0</ele><time>2026-05-03T10:02:46.557Z</time></trkpt><trkpt lat="42.2467567" lon="13.94521"><ele>143.5</ele><time>2026-05-03T10:02:47.558Z</time></trkpt><trkpt lat="42.246845" lon="13.9453667"><ele>143.0</ele><time>2026-05-03T10:02:48.558Z</time></trkpt><trkpt lat="42.2469383" lon="13.9455417"><ele>143.0</ele><time>2026-05-03T10:02:49.558Z</time></trkpt><trkpt lat="42.2470433" lon="13.9457167"><ele>143.0</ele><time>2026-05-03T10:02:50.558Z</time></trkpt><trkpt lat="42.2471467" lon="13.94589"><ele>143.0</ele><time>2026-05-03T10:02:51.557Z</time></trkpt><trkpt lat="42.2472583" lon="13.9460433"><ele>142.0</ele><time>2026-05-03T10:02:52.558Z</time></trkpt><trkpt lat="42.24738" lon="13.9461883"><ele>141.0</ele><time>2026-05-03T10:02:53.557Z</time></trkpt><trkpt lat="42.2474983" lon="13.946345"><ele>140.0</ele><time>2026-05-03T10:02:54.558Z</time></trkpt><trkpt lat="42.2476033" lon="13.946515"><ele>140.0</ele><time>2026-05-03T10:02:55.558Z</time></trkpt><trkpt lat="42.2477" lon="13.94667"><ele>140.0</ele><time>2026-05-03T10:02:56.557Z</time></trkpt><trkpt lat="42.2477783" lon="13.946805"><ele>140.0</ele><time>2026-05-03T10:02:57.558Z</time></trkpt><trkpt lat="42.2478567" lon="13.9469117"><ele>140.0</ele><time>2026-05-03T10:02:58.557Z</time></trkpt><trkpt lat="42.2479333" lon="13.947"><ele>140.2</ele><time>2026-05-03T10:02:59.557Z</time></trkpt><trkpt lat="42.24799" lon="13.94707"><ele>140.4</ele><time>2026-05-03T10:03:00.557Z</time></trkpt><trkpt lat="42.2480333" lon="13.947135"><ele>140.6</ele><time>2026-05-03T10:03:01.558Z</time></trkpt><trkpt lat="42.2480733" lon="13.9472817"><ele>140.8</ele><time>2026-05-03T10:03:03.558Z</time></trkpt><trkpt lat="42.2480817" lon="13.9473917"><ele>141.0</ele><time>2026-05-03T10:03:04.558Z</time></trkpt><trkpt lat="42.2480717" lon="13.9475417"><ele>141.5</ele><time>2026-05-03T10:03:05.557Z</time></trkpt><trkpt lat="42.24808" lon="13.9476967"><ele>142.0</ele><time>2026-05-03T10:03:06.558Z</time></trkpt><trkpt lat="42.2481283" lon="13.947845"><ele>142.5</ele><time>2026-05-03T10:03:07.558Z</time></trkpt><trkpt lat="42.2482033" lon="13.9479883"><ele>143.0</ele><time>2026-05-03T10:03:08.557Z</time></trkpt><trkpt lat="42.248305" lon="13.9481267"><ele>142.66666666666666</ele><time>2026-05-03T10:03:09.558Z</time></trkpt><trkpt lat="42.248425" lon="13.9482667"><ele>142.33333333333334</ele><time>2026-05-03T10:03:10.558Z</time></trkpt><trkpt lat="42.2485517" lon="13.9484"><ele>142.0</ele><time>2026-05-03T10:03:11.558Z</time></trkpt><trkpt lat="42.2486817" lon="13.9485383"><ele>142.0</ele><time>2026-05-03T10:03:12.557Z</time></trkpt><trkpt lat="42.2488067" lon="13.9486767"><ele>142.0</ele><time>2026-05-03T10:03:13.558Z</time></trkpt><trkpt lat="42.248925" lon="13.94882"><ele>142.0</ele><time>2026-05-03T10:03:14.558Z</time></trkpt><trkpt lat="42.24905" lon="13.9489533"><ele>141.33333333333334</ele><time>2026-05-03T10:03:15.557Z</time></trkpt><trkpt lat="42.2491717" lon="13.94909"><ele>140.66666666666666</ele><time>2026-05-03T10:03:16.558Z</time></trkpt><trkpt lat="42.24929" lon="13.94923"><ele>140.0</ele><time>2026-05-03T10:03:17.558Z</time></trkpt><trkpt lat="42.2494117" lon="13.9493633"><ele>140.0</ele><time>2026-05-03T10:03:18.558Z</time></trkpt><trkpt lat="42.24953" lon="13.9495067"><ele>140.0</ele><time>2026-05-03T10:03:19.557Z</time></trkpt><trkpt lat="42.249655" lon="13.9496467"><ele>140.0</ele><time>2026-05-03T10:03:20.558Z</time></trkpt><trkpt lat="42.2497883" lon="13.9497883"><ele>139.33333333333331</ele><time>2026-05-03T10:03:21.558Z</time></trkpt><trkpt lat="42.2499117" lon="13.9499417"><ele>138.66666666666666</ele><time>2026-05-03T10:03:22.557Z</time></trkpt><trkpt lat="42.2500433" lon="13.9500933"><ele>138.0</ele><time>2026-05-03T10:03:23.558Z</time></trkpt><trkpt lat="42.250175" lon="13.9502467"><ele>138.0</ele><time>2026-05-03T10:03:24.558Z</time></trkpt><trkpt lat="42.250305" lon="13.950385"><ele>138.0</ele><time>2026-05-03T10:03:25.558Z</time></trkpt><trkpt lat="42.2504283" lon="13.9505133"><ele>138.0</ele><time>2026-05-03T10:03:26.557Z</time></trkpt><trkpt lat="42.25056" lon="13.9506267"><ele>137.75</ele><time>2026-05-03T10:03:27.558Z</time></trkpt><trkpt lat="42.2506883" lon="13.9507267"><ele>137.5</ele><time>2026-05-03T10:03:28.558Z</time></trkpt><trkpt lat="42.2507917" lon="13.9508267"><ele>137.25</ele><time>2026-05-03T10:03:29.557Z</time></trkpt><trkpt lat="42.25087" lon="13.9509333"><ele>137.0</ele><time>2026-05-03T10:03:30.557Z</time></trkpt><trkpt lat="42.2509117" lon="13.9510533"><ele>137.0</ele><time>2026-05-03T10:03:31.557Z</time></trkpt><trkpt lat="42.2509417" lon="13.95119"><ele>137.0</ele><time>2026-05-03T10:03:32.557Z</time></trkpt><trkpt lat="42.2509517" lon="13.9513167"><ele>137.0</ele><time>2026-05-03T10:03:33.558Z</time></trkpt><trkpt lat="42.2509533" lon="13.9514267"><ele>137.0</ele><time>2026-05-03T10:03:34.558Z</time></trkpt><trkpt lat="42.2509567" lon="13.9515633"><ele>137.0</ele><time>2026-05-03T10:03:36.558Z</time></trkpt><trkpt lat="42.2510083" lon="13.9516417"><ele>137.0</ele><time>2026-05-03T10:03:38.558Z</time></trkpt><trkpt lat="42.2510683" lon="13.95167"><ele>137.0</ele><time>2026-05-03T10:03:39.557Z</time></trkpt><trkpt lat="42.2511533" lon="13.95169"><ele>137.0</ele><time>2026-05-03T10:03:40.558Z</time></trkpt><trkpt lat="42.251265" lon="13.951705"><ele>137.0</ele><time>2026-05-03T10:03:41.558Z</time></trkpt><trkpt lat="42.2514083" lon="13.9517183"><ele>137.0</ele><time>2026-05-03T10:03:42.557Z</time></trkpt><trkpt lat="42.2515417" lon="13.9517467"><ele>136.0</ele><time>2026-05-03T10:03:43.558Z</time></trkpt><trkpt lat="42.251665" lon="13.951775"><ele>135.0</ele><time>2026-05-03T10:03:44.558Z</time></trkpt><trkpt lat="42.2517667" lon="13.9518017"><ele>134.0</ele><time>2026-05-03T10:03:45.558Z</time></trkpt><trkpt lat="42.251845" lon="13.951825"><ele>133.0</ele><time>2026-05-03T10:03:46.558Z</time></trkpt><trkpt lat="42.251915" lon="13.951865"><ele>132.0</ele><time>2026-05-03T10:03:47.557Z</time></trkpt><trkpt lat="42.2519717" lon="13.9519167"><ele>132.0</ele><time>2026-05-03T10:03:48.557Z</time></trkpt><trkpt lat="42.25205" lon="13.951995"><ele>132.0</ele><time>2026-05-03T10:03:50.558Z</time></trkpt><trkpt lat="42.2521183" lon="13.9520317"><ele>132.0</ele><time>2026-05-03T10:03:57.557Z</time></trkpt><trkpt lat="42.2522433" lon="13.952065"><ele>132.0</ele><time>2026-05-03T10:06:46.557Z</time></trkpt><trkpt lat="42.2522883" lon="13.951985"><ele>132.0</ele><time>2026-05-03T10:07:05.557Z</time></trkpt><trkpt lat="42.2523067" lon="13.95187"><ele>131.25</ele><time>2026-05-03T10:08:36.557Z</time></trkpt><trkpt lat="42.2524533" lon="13.95188"><ele>130.5</ele><time>2026-05-03T10:08:38.556Z</time></trkpt><trkpt lat="42.25258" lon="13.9519167"><ele>129.75</ele><time>2026-05-03T10:08:39.555Z</time></trkpt><trkpt lat="42.25274" lon="13.9519483"><ele>129.0</ele><time>2026-05-03T10:08:40.556Z</time></trkpt><trkpt lat="42.2528867" lon="13.951975"><ele>129.0</ele><time>2026-05-03T10:08:41.555Z</time></trkpt><trkpt lat="42.2530283" lon="13.9519833"><ele>129.0</ele><time>2026-05-03T10:08:42.555Z</time></trkpt><trkpt lat="42.25315" lon="13.9520067"><ele>129.0</ele><time>2026-05-03T10:08:43.556Z</time></trkpt><trkpt lat="42.2532317" lon="13.952035"><ele>129.0</ele><time>2026-05-03T10:08:44.556Z</time></trkpt><trkpt lat="42.2533067" lon="13.952145"><ele>129.5</ele><time>2026-05-03T10:08:46.556Z</time></trkpt><trkpt lat="42.25327" lon="13.9523333"><ele>130.0</ele><time>2026-05-03T10:08:48.555Z</time></trkpt><trkpt lat="42.2532117" lon="13.9524667"><ele>130.5</ele><time>2026-05-03T10:08:49.556Z</time></trkpt><trkpt lat="42.2531733" lon="13.9526117"><ele>131.0</ele><time>2026-05-03T10:08:50.555Z</time></trkpt><trkpt lat="42.253165" lon="13.952775"><ele>131.66666666666666</ele><time>2026-05-03T10:08:51.556Z</time></trkpt><trkpt lat="42.25317" lon="13.95294"><ele>132.33333333333334</ele><time>2026-05-03T10:08:52.555Z</time></trkpt><trkpt lat="42.25316" lon="13.953155"><ele>133.0</ele><time>2026-05-03T10:08:53.555Z</time></trkpt><trkpt lat="42.25314" lon="13.9533933"><ele>132.0</ele><time>2026-05-03T10:08:54.555Z</time></trkpt><trkpt lat="42.253105" lon="13.953645"><ele>131.0</ele><time>2026-05-03T10:08:55.556Z</time></trkpt><trkpt lat="42.25308" lon="13.9539117"><ele>130.0</ele><time>2026-05-03T10:08:56.555Z</time></trkpt><trkpt lat="42.25305" lon="13.9542033"><ele>129.5</ele><time>2026-05-03T10:08:57.555Z</time></trkpt><trkpt lat="42.2530017" lon="13.9545017"><ele>129.0</ele><time>2026-05-03T10:08:58.556Z</time></trkpt><trkpt lat="42.2529317" lon="13.9548033"><ele>129.0</ele><time>2026-05-03T10:08:59.555Z</time></trkpt><trkpt lat="42.2528533" lon="13.9550917"><ele>129.0</ele><time>2026-05-03T10:09:00.556Z</time></trkpt><trkpt lat="42.2527767" lon="13.9553533"><ele>129.0</ele><time>2026-05-03T10:09:01.556Z</time></trkpt><trkpt lat="42.2526833" lon="13.955595"><ele>129.0</ele><time>2026-05-03T10:09:02.556Z</time></trkpt><trkpt lat="42.25258" lon="13.9558"><ele>129.0</ele><time>2026-05-03T10:09:03.556Z</time></trkpt><trkpt lat="42.252465" lon="13.9559817"><ele>129.0</ele><time>2026-05-03T10:09:04.556Z</time></trkpt><trkpt lat="42.2523333" lon="13.9561417"><ele>129.66666666666666</ele><time>2026-05-03T10:09:05.556Z</time></trkpt><trkpt lat="42.2521833" lon="13.95628"><ele>130.33333333333331</ele><time>2026-05-03T10:09:06.556Z</time></trkpt><trkpt lat="42.2520233" lon="13.95643"><ele>131.0</ele><time>2026-05-03T10:09:07.555Z</time></trkpt><trkpt lat="42.25188" lon="13.9565933"><ele>131.33333333333331</ele><time>2026-05-03T10:09:08.556Z</time></trkpt><trkpt lat="42.2517467" lon="13.956785"><ele>131.66666666666666</ele><time>2026-05-03T10:09:09.556Z</time></trkpt><trkpt lat="42.25163" lon="13.956965"><ele>132.0</ele><time>2026-05-03T10:09:10.556Z</time></trkpt><trkpt lat="42.2515083" lon="13.9571467"><ele>131.66666666666666</ele><time>2026-05-03T10:09:11.555Z</time></trkpt><trkpt lat="42.2513983" lon="13.95733"><ele>131.33333333333331</ele><time>2026-05-03T10:09:12.556Z</time></trkpt><trkpt lat="42.2513017" lon="13.9575017"><ele>131.0</ele><time>2026-05-03T10:09:13.556Z</time></trkpt><trkpt lat="42.2512" lon="13.9576533"><ele>131.8</ele><time>2026-05-03T10:09:14.556Z</time></trkpt><trkpt lat="42.251115" lon="13.9577817"><ele>132.6</ele><time>2026-05-03T10:09:15.556Z</time></trkpt><trkpt lat="42.2510433" lon="13.9579"><ele>133.4</ele><time>2026-05-03T10:09:16.556Z</time></trkpt><trkpt lat="42.2510017" lon="13.958015"><ele>134.2</ele><time>2026-05-03T10:09:17.556Z</time></trkpt><trkpt lat="42.2509867" lon="13.9581317"><ele>135.0</ele><time>2026-05-03T10:09:18.556Z</time></trkpt><trkpt lat="42.2509983" lon="13.9582617"><ele>136.25</ele><time>2026-05-03T10:09:19.556Z</time></trkpt><trkpt lat="42.2510383" lon="13.958395"><ele>137.5</ele><time>2026-05-03T10:09:20.555Z</time></trkpt><trkpt lat="42.25108" lon="13.9585433"><ele>138.75</ele><time>2026-05-03T10:09:21.556Z</time></trkpt><trkpt lat="42.2511" lon="13.9586967"><ele>140.0</ele><time>2026-05-03T10:09:22.555Z</time></trkpt><trkpt lat="42.2510867" lon="13.9588717"><ele>140.0</ele><time>2026-05-03T10:09:23.555Z</time></trkpt><trkpt lat="42.2510317" lon="13.9590667"><ele>140.0</ele><time>2026-05-03T10:09:24.556Z</time></trkpt><trkpt lat="42.2509683" lon="13.9592367"><ele>140.0</ele><time>2026-05-03T10:09:25.555Z</time></trkpt><trkpt lat="42.25091" lon="13.95937"><ele>140.0</ele><time>2026-05-03T10:09:26.556Z</time></trkpt><trkpt lat="42.2508617" lon="13.9594733"><ele>142.0</ele><time>2026-05-03T10:09:27.556Z</time></trkpt><trkpt lat="42.250825" lon="13.9595583"><ele>144.0</ele><time>2026-05-03T10:09:28.556Z</time></trkpt><trkpt lat="42.2507933" lon="13.9596733"><ele>146.0</ele><time>2026-05-03T10:09:30.556Z</time></trkpt><trkpt lat="42.2508667" lon="13.95958"><ele>148.0</ele><time>2026-05-03T10:09:33.555Z</time></trkpt><trkpt lat="42.2508967" lon="13.95947"><ele>150.0</ele><time>2026-05-03T10:09:34.556Z</time></trkpt><trkpt lat="42.25094" lon="13.95933"><ele>147.5</ele><time>2026-05-03T10:09:35.556Z</time></trkpt><trkpt lat="42.2510033" lon="13.9591633"><ele>145.0</ele><time>2026-05-03T10:09:36.555Z</time></trkpt><trkpt lat="42.25105" lon="13.9590083"><ele>142.5</ele><time>2026-05-03T10:09:37.555Z</time></trkpt><trkpt lat="42.2510867" lon="13.958875"><ele>140.0</ele><time>2026-05-03T10:09:38.556Z</time></trkpt><trkpt lat="42.2511067" lon="13.9587367"><ele>140.0</ele><time>2026-05-03T10:09:39.556Z</time></trkpt><trkpt lat="42.2511033" lon="13.958585"><ele>140.0</ele><time>2026-05-03T10:09:40.556Z</time></trkpt><trkpt lat="42.2510817" lon="13.9584483"><ele>140.0</ele><time>2026-05-03T10:09:41.556Z</time></trkpt><trkpt lat="42.2510617" lon="13.9583533"><ele>140.0</ele><time>2026-05-03T10:09:42.556Z</time></trkpt><trkpt lat="42.2510917" lon="13.958275"><ele>140.0</ele><time>2026-05-03T10:09:44.556Z</time></trkpt><trkpt lat="42.25116" lon="13.95831"><ele>140.0</ele><time>2026-05-03T10:09:46.556Z</time></trkpt><trkpt lat="42.2512933" lon="13.9584083"><ele>140.0</ele><time>2026-05-03T10:09:48.555Z</time></trkpt><trkpt lat="42.2513917" lon="13.9584833"><ele>140.0</ele><time>2026-05-03T10:09:49.555Z</time></trkpt><trkpt lat="42.2514967" lon="13.9585883"><ele>140.0</ele><time>2026-05-03T10:09:50.556Z</time></trkpt><trkpt lat="42.2516317" lon="13.9586833"><ele>140.0</ele><time>2026-05-03T10:09:51.556Z</time></trkpt><trkpt lat="42.25177" lon="13.9587733"><ele>139.66666666666666</ele><time>2026-05-03T10:09:52.556Z</time></trkpt><trkpt lat="42.251935" lon="13.9588633"><ele>139.33333333333334</ele><time>2026-05-03T10:09:53.556Z</time></trkpt><trkpt lat="42.252105" lon="13.958975"><ele>139.0</ele><time>2026-05-03T10:09:54.555Z</time></trkpt><trkpt lat="42.252285" lon="13.9590833"><ele>138.5</ele><time>2026-05-03T10:09:55.555Z</time></trkpt><trkpt lat="42.2524383" lon="13.9591767"><ele>138.0</ele><time>2026-05-03T10:09:56.556Z</time></trkpt><trkpt lat="42.252575" lon="13.9592567"><ele>137.5</ele><time>2026-05-03T10:09:57.556Z</time></trkpt><trkpt lat="42.2526867" lon="13.9593067"><ele>137.0</ele><time>2026-05-03T10:09:58.556Z</time></trkpt><trkpt lat="42.252785" lon="13.959335"><ele>138.0</ele><time>2026-05-03T10:09:59.555Z</time></trkpt><trkpt lat="42.25288" lon="13.95935"><ele>139.0</ele><time>2026-05-03T10:10:00.556Z</time></trkpt><trkpt lat="42.2529733" lon="13.9593367"><ele>140.0</ele><time>2026-05-03T10:10:01.556Z</time></trkpt><trkpt lat="42.2530817" lon="13.9593167"><ele>141.0</ele><time>2026-05-03T10:10:02.556Z</time></trkpt><trkpt lat="42.2531933" lon="13.959285"><ele>142.0</ele><time>2026-05-03T10:10:03.555Z</time></trkpt><trkpt lat="42.2533117" lon="13.959255"><ele>142.2</ele><time>2026-05-03T10:10:04.556Z</time></trkpt><trkpt lat="42.2534183" lon="13.95921"><ele>142.39999999999998</ele><time>2026-05-03T10:10:05.555Z</time></trkpt><trkpt lat="42.253525" lon="13.9591767"><ele>142.60000000000002</ele><time>2026-05-03T10:10:06.556Z</time></trkpt><trkpt lat="42.253615" lon="13.959175"><ele>142.8</ele><time>2026-05-03T10:10:07.556Z</time></trkpt><trkpt lat="42.2537033" lon="13.9592133"><ele>143.0</ele><time>2026-05-03T10:10:08.555Z</time></trkpt><trkpt lat="42.2538" lon="13.9592717"><ele>143.0</ele><time>2026-05-03T10:10:09.556Z</time></trkpt><trkpt lat="42.2538983" lon="13.9593533"><ele>143.0</ele><time>2026-05-03T10:10:10.556Z</time></trkpt><trkpt lat="42.253995" lon="13.9594467"><ele>143.0</ele><time>2026-05-03T10:10:11.555Z</time></trkpt><trkpt lat="42.2540967" lon="13.9595517"><ele>143.0</ele><time>2026-05-03T10:10:12.555Z</time></trkpt><trkpt lat="42.2541933" lon="13.9596733"><ele>145.0</ele><time>2026-05-03T10:10:13.556Z</time></trkpt><trkpt lat="42.2542867" lon="13.9598033"><ele>147.0</ele><time>2026-05-03T10:10:14.555Z</time></trkpt><trkpt lat="42.2544" lon="13.95994"><ele>149.0</ele><time>2026-05-03T10:10:15.555Z</time></trkpt><trkpt lat="42.2544883" lon="13.960085"><ele>151.0</ele><time>2026-05-03T10:10:16.556Z</time></trkpt><trkpt lat="42.2545533" lon="13.9602183"><ele>151.0</ele><time>2026-05-03T10:10:17.555Z</time></trkpt><trkpt lat="42.25461" lon="13.9603683"><ele>151.0</ele><time>2026-05-03T10:10:18.556Z</time></trkpt><trkpt lat="42.2546517" lon="13.960525"><ele>151.0</ele><time>2026-05-03T10:10:19.555Z</time></trkpt><trkpt lat="42.2547183" lon="13.960665"><ele>151.0</ele><time>2026-05-03T10:10:20.556Z</time></trkpt><trkpt lat="42.2547933" lon="13.9607867"><ele>152.83333333333334</ele><time>2026-05-03T10:10:21.556Z</time></trkpt><trkpt lat="42.2548683" lon="13.9608783"><ele>154.66666666666669</ele><time>2026-05-03T10:10:22.555Z</time></trkpt><trkpt lat="42.2549367" lon="13.9609283"><ele>156.5</ele><time>2026-05-03T10:10:23.555Z</time></trkpt><trkpt lat="42.2550083" lon="13.9609633"><ele>158.33333333333334</ele><time>2026-05-03T10:10:24.556Z</time></trkpt><trkpt lat="42.2550817" lon="13.96098"><ele>160.16666666666666</ele><time>2026-05-03T10:10:25.555Z</time></trkpt><trkpt lat="42.2551617" lon="13.96098"><ele>162.0</ele><time>2026-05-03T10:10:26.555Z</time></trkpt><trkpt lat="42.25523" lon="13.9609717"><ele>162.0</ele><time>2026-05-03T10:10:27.556Z</time></trkpt><trkpt lat="42.2553083" lon="13.9609533"><ele>162.0</ele><time>2026-05-03T10:10:28.556Z</time></trkpt><trkpt lat="42.255385" lon="13.9609333"><ele>162.0</ele><time>2026-05-03T10:10:29.556Z</time></trkpt><trkpt lat="42.25547" lon="13.9609017"><ele>162.0</ele><time>2026-05-03T10:10:30.555Z</time></trkpt><trkpt lat="42.255555" lon="13.960885"><ele>162.0</ele><time>2026-05-03T10:10:31.555Z</time></trkpt><trkpt lat="42.2556433" lon="13.960895"><ele>162.0</ele><time>2026-05-03T10:10:32.555Z</time></trkpt><trkpt lat="42.2557317" lon="13.9609167"><ele>165.0</ele><time>2026-05-03T10:10:33.555Z</time></trkpt><trkpt lat="42.2558233" lon="13.9609367"><ele>168.0</ele><time>2026-05-03T10:10:34.556Z</time></trkpt><trkpt lat="42.255905" lon="13.9609383"><ele>171.0</ele><time>2026-05-03T10:10:35.555Z</time></trkpt><trkpt lat="42.2559933" lon="13.9609217"><ele>174.0</ele><time>2026-05-03T10:10:36.556Z</time></trkpt><trkpt lat="42.2560933" lon="13.9608867"><ele>177.0</ele><time>2026-05-03T10:10:37.556Z</time></trkpt><trkpt lat="42.256205" lon="13.9608383"><ele>177.75</ele><time>2026-05-03T10:10:38.555Z</time></trkpt><trkpt lat="42.2563233" lon="13.9607833"><ele>178.5</ele><time>2026-05-03T10:10:39.555Z</time></trkpt><trkpt lat="42.256455" lon="13.9607283"><ele>179.25</ele><time>2026-05-03T10:10:40.556Z</time></trkpt><trkpt lat="42.2566" lon="13.9606733"><ele>180.0</ele><time>2026-05-03T10:10:41.556Z</time></trkpt><trkpt lat="42.2567433" lon="13.960615"><ele>183.2</ele><time>2026-05-03T10:10:42.555Z</time></trkpt><trkpt lat="42.2568683" lon="13.960575"><ele>186.4</ele><time>2026-05-03T10:10:43.556Z</time></trkpt><trkpt lat="42.256955" lon="13.9605483"><ele>189.60000000000002</ele><time>2026-05-03T10:10:44.556Z</time></trkpt><trkpt lat="42.2570333" lon="13.96053"><ele>192.8</ele><time>2026-05-03T10:10:46.555Z</time></trkpt><trkpt lat="42.25698" lon="13.9603917"><ele>196.0</ele><time>2026-05-03T10:11:07.556Z</time></trkpt><trkpt lat="42.2569317" lon="13.9602883"><ele>195.99999999999997</ele><time>2026-05-03T10:11:09.556Z</time></trkpt><trkpt lat="42.2568883" lon="13.9601833"><ele>196.0</ele><time>2026-05-03T10:11:12.556Z</time></trkpt><trkpt lat="42.25692" lon="13.9601067"><ele>196.0</ele><time>2026-05-03T10:11:15.556Z</time></trkpt><trkpt lat="42.2569717" lon="13.96005"><ele>196.0</ele><time>2026-05-03T10:11:18.556Z</time></trkpt><trkpt lat="42.25706" lon="13.9601517"><ele>195.99999999999997</ele><time>2026-05-03T10:11:22.556Z</time></trkpt><trkpt lat="42.2570967" lon="13.96026"><ele>196.0</ele><time>2026-05-03T10:11:23.556Z</time></trkpt><trkpt lat="42.2571467" lon="13.9604"><ele>196.0</ele><time>2026-05-03T10:11:24.556Z</time></trkpt><trkpt lat="42.2572067" lon="13.9605583"><ele>196.0</ele><time>2026-05-03T10:11:25.555Z</time></trkpt><trkpt lat="42.25727" lon="13.9607333"><ele>196.0</ele><time>2026-05-03T10:11:26.555Z</time></trkpt><trkpt lat="42.2573383" lon="13.9609233"><ele>196.0</ele><time>2026-05-03T10:11:27.556Z</time></trkpt><trkpt lat="42.2574183" lon="13.9611217"><ele>197.0</ele><time>2026-05-03T10:11:28.556Z</time></trkpt><trkpt lat="42.2575" lon="13.96134"><ele>198.0</ele><time>2026-05-03T10:11:29.556Z</time></trkpt><trkpt lat="42.2575917" lon="13.9615733"><ele>199.0</ele><time>2026-05-03T10:11:30.555Z</time></trkpt><trkpt lat="42.2576867" lon="13.96181"><ele>199.0</ele><time>2026-05-03T10:11:31.556Z</time></trkpt><trkpt lat="42.2577833" lon="13.9620517"><ele>199.0</ele><time>2026-05-03T10:11:32.556Z</time></trkpt><trkpt lat="42.2578833" lon="13.9622917"><ele>199.0</ele><time>2026-05-03T10:11:33.555Z</time></trkpt><trkpt lat="42.2579717" lon="13.9625333"><ele>198.33333333333331</ele><time>2026-05-03T10:11:34.556Z</time></trkpt><trkpt lat="42.2580533" lon="13.9627583"><ele>197.66666666666669</ele><time>2026-05-03T10:11:35.556Z</time></trkpt><trkpt lat="42.258125" lon="13.9629517"><ele>197.0</ele><time>2026-05-03T10:11:36.556Z</time></trkpt><trkpt lat="42.2581933" lon="13.96312"><ele>198.75</ele><time>2026-05-03T10:11:37.556Z</time></trkpt><trkpt lat="42.25825" lon="13.9632733"><ele>200.5</ele><time>2026-05-03T10:11:38.556Z</time></trkpt><trkpt lat="42.2583067" lon="13.9634217"><ele>202.25</ele><time>2026-05-03T10:11:39.556Z</time></trkpt><trkpt lat="42.2583667" lon="13.963545"><ele>204.0</ele><time>2026-05-03T10:11:40.556Z</time></trkpt><trkpt lat="42.2584367" lon="13.9636533"><ele>204.25</ele><time>2026-05-03T10:11:41.555Z</time></trkpt><trkpt lat="42.25852" lon="13.9637667"><ele>204.5</ele><time>2026-05-03T10:11:42.556Z</time></trkpt><trkpt lat="42.2585933" lon="13.9639067"><ele>204.75</ele><time>2026-05-03T10:11:43.555Z</time></trkpt><trkpt lat="42.25868" lon="13.96407"><ele>205.0</ele><time>2026-05-03T10:11:44.556Z</time></trkpt><trkpt lat="42.258765" lon="13.964255"><ele>205.33333333333331</ele><time>2026-05-03T10:11:45.555Z</time></trkpt><trkpt lat="42.2588617" lon="13.9644583"><ele>205.66666666666669</ele><time>2026-05-03T10:11:46.556Z</time></trkpt><trkpt lat="42.2589583" lon="13.9646717"><ele>206.0</ele><time>2026-05-03T10:11:47.556Z</time></trkpt><trkpt lat="42.25906" lon="13.9649"><ele>206.66666666666669</ele><time>2026-05-03T10:11:48.556Z</time></trkpt><trkpt lat="42.2591667" lon="13.965135"><ele>207.33333333333331</ele><time>2026-05-03T10:11:49.555Z</time></trkpt><trkpt lat="42.2592683" lon="13.9653583"><ele>208.0</ele><time>2026-05-03T10:11:50.556Z</time></trkpt><trkpt lat="42.25936" lon="13.965545"><ele>208.0</ele><time>2026-05-03T10:11:51.556Z</time></trkpt><trkpt lat="42.2594333" lon="13.965695"><ele>208.0</ele><time>2026-05-03T10:11:52.556Z</time></trkpt><trkpt lat="42.259475" lon="13.9658033"><ele>208.0</ele><time>2026-05-03T10:11:53.555Z</time></trkpt><trkpt lat="42.25951" lon="13.9659"><ele>208.0</ele><time>2026-05-03T10:11:55.555Z</time></trkpt><trkpt lat="42.2595233" lon="13.96604"><ele>208.0</ele><time>2026-05-03T10:11:59.555Z</time></trkpt><trkpt lat="42.2595567" lon="13.9661683"><ele>208.4</ele><time>2026-05-03T10:12:01.556Z</time></trkpt><trkpt lat="42.2595667" lon="13.9663217"><ele>208.8</ele><time>2026-05-03T10:12:03.556Z</time></trkpt><trkpt lat="42.2595783" lon="13.9664833"><ele>209.2</ele><time>2026-05-03T10:12:05.556Z</time></trkpt><trkpt lat="42.2595917" lon="13.9665717"><ele>209.6</ele><time>2026-05-03T10:12:06.556Z</time></trkpt><trkpt lat="42.2595983" lon="13.96666"><ele>210.0</ele><time>2026-05-03T10:12:07.556Z</time></trkpt><trkpt lat="42.2595733" lon="13.9668167"><ele>211.0</ele><time>2026-05-03T10:12:09.556Z</time></trkpt><trkpt lat="42.2595583" lon="13.9669367"><ele>212.0</ele><time>2026-05-03T10:12:11.556Z</time></trkpt><trkpt lat="42.2596133" lon="13.9671083"><ele>213.0</ele><time>2026-05-03T10:12:13.556Z</time></trkpt><trkpt lat="42.2596517" lon="13.9672367"><ele>214.0</ele><time>2026-05-03T10:12:14.556Z</time></trkpt><trkpt lat="42.2597133" lon="13.9673833"><ele>213.0</ele><time>2026-05-03T10:12:15.556Z</time></trkpt><trkpt lat="42.2597717" lon="13.9675317"><ele>211.99999999999997</ele><time>2026-05-03T10:12:16.555Z</time></trkpt><trkpt lat="42.259815" lon="13.96767"><ele>211.0</ele><time>2026-05-03T10:12:17.555Z</time></trkpt><trkpt lat="42.25985" lon="13.96779"><ele>210.0</ele><time>2026-05-03T10:12:18.554Z</time></trkpt><trkpt lat="42.2598833" lon="13.9678917"><ele>209.0</ele><time>2026-05-03T10:12:19.555Z</time></trkpt><trkpt lat="42.2599217" lon="13.9679717"><ele>206.2</ele><time>2026-05-03T10:12:20.554Z</time></trkpt><trkpt lat="42.2599633" lon="13.9680517"><ele>203.39999999999998</ele><time>2026-05-03T10:12:21.554Z</time></trkpt><trkpt lat="42.260005" lon="13.9681383"><ele>200.6</ele><time>2026-05-03T10:12:22.555Z</time></trkpt><trkpt lat="42.2600517" lon="13.968255"><ele>197.8</ele><time>2026-05-03T10:12:23.555Z</time></trkpt><trkpt lat="42.26011" lon="13.9684033"><ele>195.0</ele><time>2026-05-03T10:12:24.555Z</time></trkpt><trkpt lat="42.26017" lon="13.9685483"><ele>194.75</ele><time>2026-05-03T10:12:25.555Z</time></trkpt><trkpt lat="42.26024" lon="13.9687117"><ele>194.5</ele><time>2026-05-03T10:12:26.554Z</time></trkpt><trkpt lat="42.2603117" lon="13.968895"><ele>194.25</ele><time>2026-05-03T10:12:27.554Z</time></trkpt><trkpt lat="42.260385" lon="13.969075"><ele>194.0</ele><time>2026-05-03T10:12:28.555Z</time></trkpt><trkpt lat="42.2604483" lon="13.9692517"><ele>195.0</ele><time>2026-05-03T10:12:29.554Z</time></trkpt><trkpt lat="42.2605033" lon="13.9694267"><ele>196.0</ele><time>2026-05-03T10:12:30.555Z</time></trkpt><trkpt lat="42.260565" lon="13.9696167"><ele>197.0</ele><time>2026-05-03T10:12:31.555Z</time></trkpt><trkpt lat="42.2606367" lon="13.969815"><ele>196.66666666666669</ele><time>2026-05-03T10:12:32.554Z</time></trkpt><trkpt lat="42.2607167" lon="13.97002"><ele>196.33333333333331</ele><time>2026-05-03T10:12:33.554Z</time></trkpt><trkpt lat="42.2607917" lon="13.97021"><ele>196.0</ele><time>2026-05-03T10:12:34.555Z</time></trkpt><trkpt lat="42.26086" lon="13.9703667"><ele>196.0</ele><time>2026-05-03T10:12:35.555Z</time></trkpt><trkpt lat="42.26092" lon="13.9705067"><ele>196.0</ele><time>2026-05-03T10:12:36.554Z</time></trkpt><trkpt lat="42.26097" lon="13.9706433"><ele>196.0</ele><time>2026-05-03T10:12:37.555Z</time></trkpt><trkpt lat="42.2610167" lon="13.9707817"><ele>196.0</ele><time>2026-05-03T10:12:38.555Z</time></trkpt><trkpt lat="42.2610767" lon="13.9709433"><ele>197.0</ele><time>2026-05-03T10:12:39.554Z</time></trkpt><trkpt lat="42.2611383" lon="13.9711083"><ele>198.0</ele><time>2026-05-03T10:12:40.555Z</time></trkpt><trkpt lat="42.2611767" lon="13.9712467"><ele>199.0</ele><time>2026-05-03T10:12:41.555Z</time></trkpt><trkpt lat="42.2611967" lon="13.971355"><ele>200.0</ele><time>2026-05-03T10:12:42.555Z</time></trkpt><trkpt lat="42.2612167" lon="13.9714383"><ele>201.0</ele><time>2026-05-03T10:12:43.554Z</time></trkpt><trkpt lat="42.2612517" lon="13.97153"><ele>201.0</ele><time>2026-05-03T10:12:44.554Z</time></trkpt><trkpt lat="42.2613033" lon="13.9716483"><ele>201.0</ele><time>2026-05-03T10:12:45.554Z</time></trkpt><trkpt lat="42.2613717" lon="13.9717933"><ele>201.0</ele><time>2026-05-03T10:12:46.554Z</time></trkpt><trkpt lat="42.261425" lon="13.9719367"><ele>201.0</ele><time>2026-05-03T10:12:47.555Z</time></trkpt><trkpt lat="42.2614567" lon="13.972055"><ele>201.0</ele><time>2026-05-03T10:12:48.554Z</time></trkpt><trkpt lat="42.2614967" lon="13.9721783"><ele>199.25</ele><time>2026-05-03T10:12:49.554Z</time></trkpt><trkpt lat="42.2615533" lon="13.972335"><ele>197.5</ele><time>2026-05-03T10:12:50.555Z</time></trkpt><trkpt lat="42.2616217" lon="13.9724917"><ele>195.75</ele><time>2026-05-03T10:12:51.555Z</time></trkpt><trkpt lat="42.2616833" lon="13.97262"><ele>194.0</ele><time>2026-05-03T10:12:52.554Z</time></trkpt><trkpt lat="42.2617483" lon="13.9727317"><ele>193.79999999999998</ele><time>2026-05-03T10:12:53.555Z</time></trkpt><trkpt lat="42.2618017" lon="13.9728283"><ele>193.6</ele><time>2026-05-03T10:12:54.555Z</time></trkpt><trkpt lat="42.2618367" lon="13.9729333"><ele>193.4</ele><time>2026-05-03T10:12:55.554Z</time></trkpt><trkpt lat="42.2618733" lon="13.9730617"><ele>193.2</ele><time>2026-05-03T10:12:56.555Z</time></trkpt><trkpt lat="42.2619233" lon="13.9732033"><ele>193.0</ele><time>2026-05-03T10:12:57.555Z</time></trkpt><trkpt lat="42.26197" lon="13.9733233"><ele>193.8</ele><time>2026-05-03T10:12:58.555Z</time></trkpt><trkpt lat="42.2620083" lon="13.97344"><ele>194.60000000000002</ele><time>2026-05-03T10:12:59.555Z</time></trkpt><trkpt lat="42.2620317" lon="13.9735567"><ele>195.39999999999998</ele><time>2026-05-03T10:13:00.554Z</time></trkpt><trkpt lat="42.2620517" lon="13.973665"><ele>196.2</ele><time>2026-05-03T10:13:01.555Z</time></trkpt><trkpt lat="42.2620933" lon="13.9737683"><ele>197.0</ele><time>2026-05-03T10:13:02.555Z</time></trkpt><trkpt lat="42.2621417" lon="13.973885"><ele>197.0</ele><time>2026-05-03T10:13:03.554Z</time></trkpt><trkpt lat="42.26221" lon="13.974005"><ele>197.0</ele><time>2026-05-03T10:13:04.555Z</time></trkpt><trkpt lat="42.2622617" lon="13.9741317"><ele>197.0</ele><time>2026-05-03T10:13:05.554Z</time></trkpt><trkpt lat="42.2623033" lon="13.9742633"><ele>197.0</ele><time>2026-05-03T10:13:06.555Z</time></trkpt><trkpt lat="42.26235" lon="13.9744"><ele>197.0</ele><time>2026-05-03T10:13:07.555Z</time></trkpt><trkpt lat="42.262395" lon="13.97455"><ele>198.0</ele><time>2026-05-03T10:13:08.555Z</time></trkpt><trkpt lat="42.2624283" lon="13.97472"><ele>199.0</ele><time>2026-05-03T10:13:09.554Z</time></trkpt><trkpt lat="42.2624583" lon="13.9749033"><ele>200.0</ele><time>2026-05-03T10:13:10.555Z</time></trkpt><trkpt lat="42.2624883" lon="13.9751133"><ele>201.0</ele><time>2026-05-03T10:13:11.555Z</time></trkpt><trkpt lat="42.262525" lon="13.9753333"><ele>201.0</ele><time>2026-05-03T10:13:12.555Z</time></trkpt><trkpt lat="42.2625533" lon="13.97554"><ele>201.0</ele><time>2026-05-03T10:13:13.554Z</time></trkpt><trkpt lat="42.26258" lon="13.975705"><ele>201.0</ele><time>2026-05-03T10:13:14.555Z</time></trkpt><trkpt lat="42.2625983" lon="13.975815"><ele>201.0</ele><time>2026-05-03T10:13:15.555Z</time></trkpt><trkpt lat="42.262575" lon="13.97598"><ele>202.33333333333334</ele><time>2026-05-03T10:13:17.554Z</time></trkpt><trkpt lat="42.262525" lon="13.9760533"><ele>203.66666666666669</ele><time>2026-05-03T10:13:18.555Z</time></trkpt><trkpt lat="42.26248" lon="13.9761233"><ele>205.0</ele><time>2026-05-03T10:13:19.554Z</time></trkpt><trkpt lat="42.262445" lon="13.9762667"><ele>206.33333333333334</ele><time>2026-05-03T10:13:21.554Z</time></trkpt><trkpt lat="42.2624483" lon="13.97637"><ele>207.66666666666669</ele><time>2026-05-03T10:13:22.555Z</time></trkpt><trkpt lat="42.262465" lon="13.9764883"><ele>209.0</ele><time>2026-05-03T10:13:23.555Z</time></trkpt><trkpt lat="42.2624967" lon="13.9766333"><ele>210.75</ele><time>2026-05-03T10:13:24.554Z</time></trkpt><trkpt lat="42.2625517" lon="13.976795"><ele>212.5</ele><time>2026-05-03T10:13:25.555Z</time></trkpt><trkpt lat="42.2626067" lon="13.97697"><ele>214.25</ele><time>2026-05-03T10:13:26.555Z</time></trkpt><trkpt lat="42.262655" lon="13.977155"><ele>216.0</ele><time>2026-05-03T10:13:27.555Z</time></trkpt><trkpt lat="42.2627017" lon="13.97735"><ele>218.66666666666669</ele><time>2026-05-03T10:13:28.555Z</time></trkpt><trkpt lat="42.2627517" lon="13.97756"><ele>221.33333333333334</ele><time>2026-05-03T10:13:29.554Z</time></trkpt><trkpt lat="42.2628" lon="13.9777833"><ele>224.0</ele><time>2026-05-03T10:13:30.554Z</time></trkpt><trkpt lat="42.2628533" lon="13.9780133"><ele>224.0</ele><time>2026-05-03T10:13:31.555Z</time></trkpt><trkpt lat="42.2629083" lon="13.97826"><ele>224.0</ele><time>2026-05-03T10:13:32.555Z</time></trkpt><trkpt lat="42.262955" lon="13.978525"><ele>224.0</ele><time>2026-05-03T10:13:33.554Z</time></trkpt><trkpt lat="42.2629867" lon="13.97879"><ele>225.5</ele><time>2026-05-03T10:13:34.554Z</time></trkpt><trkpt lat="42.2630083" lon="13.97902"><ele>227.0</ele><time>2026-05-03T10:13:35.554Z</time></trkpt><trkpt lat="42.2630183" lon="13.9792233"><ele>228.5</ele><time>2026-05-03T10:13:36.555Z</time></trkpt><trkpt lat="42.2630133" lon="13.9793667"><ele>230.0</ele><time>2026-05-03T10:13:37.554Z</time></trkpt><trkpt lat="42.263005" lon="13.9794767"><ele>230.2</ele><time>2026-05-03T10:13:38.555Z</time></trkpt><trkpt lat="42.2630567" lon="13.9796083"><ele>230.4</ele><time>2026-05-03T10:13:40.554Z</time></trkpt><trkpt lat="42.2631233" lon="13.97966"><ele>230.60000000000002</ele><time>2026-05-03T10:13:41.555Z</time></trkpt><trkpt lat="42.2631917" lon="13.97973"><ele>230.8</ele><time>2026-05-03T10:13:42.555Z</time></trkpt><trkpt lat="42.2632667" lon="13.9798283"><ele>231.0</ele><time>2026-05-03T10:13:43.554Z</time></trkpt><trkpt lat="42.26334" lon="13.9799567"><ele>227.5</ele><time>2026-05-03T10:13:44.555Z</time></trkpt><trkpt lat="42.2633883" lon="13.9800833"><ele>224.0</ele><time>2026-05-03T10:13:45.555Z</time></trkpt><trkpt lat="42.2634167" lon="13.9802333"><ele>220.5</ele><time>2026-05-03T10:13:46.555Z</time></trkpt><trkpt lat="42.263435" lon="13.9803983"><ele>217.0</ele><time>2026-05-03T10:13:47.555Z</time></trkpt><trkpt lat="42.26344" lon="13.9805567"><ele>217.0</ele><time>2026-05-03T10:13:48.555Z</time></trkpt><trkpt lat="42.2634267" lon="13.980695"><ele>217.0</ele><time>2026-05-03T10:13:49.555Z</time></trkpt><trkpt lat="42.2634117" lon="13.9808267"><ele>217.0</ele><time>2026-05-03T10:13:50.554Z</time></trkpt><trkpt lat="42.2633917" lon="13.9809633"><ele>217.0</ele><time>2026-05-03T10:13:51.555Z</time></trkpt><trkpt lat="42.2633867" lon="13.9810917"><ele>217.0</ele><time>2026-05-03T10:13:52.555Z</time></trkpt><trkpt lat="42.2634017" lon="13.9811967"><ele>217.16666666666666</ele><time>2026-05-03T10:13:53.555Z</time></trkpt><trkpt lat="42.2634317" lon="13.9812717"><ele>217.33333333333331</ele><time>2026-05-03T10:13:54.555Z</time></trkpt><trkpt lat="42.263495" lon="13.9813133"><ele>217.5</ele><time>2026-05-03T10:13:56.555Z</time></trkpt><trkpt lat="42.2635833" lon="13.9812617"><ele>217.66666666666669</ele><time>2026-05-03T10:13:58.554Z</time></trkpt><trkpt lat="42.263645" lon="13.9812083"><ele>217.83333333333334</ele><time>2026-05-03T10:13:59.554Z</time></trkpt><trkpt lat="42.263715" lon="13.981145"><ele>218.0</ele><time>2026-05-03T10:14:00.554Z</time></trkpt><trkpt lat="42.2637917" lon="13.9810833"><ele>218.0</ele><time>2026-05-03T10:14:01.555Z</time></trkpt><trkpt lat="42.2638733" lon="13.9810267"><ele>218.0</ele><time>2026-05-03T10:14:02.555Z</time></trkpt><trkpt lat="42.2639517" lon="13.9809967"><ele>218.0</ele><time>2026-05-03T10:14:03.554Z</time></trkpt><trkpt lat="42.264015" lon="13.9809967"><ele>218.0</ele><time>2026-05-03T10:14:04.555Z</time></trkpt><trkpt lat="42.26412" lon="13.9810867"><ele>218.0</ele><time>2026-05-03T10:14:06.554Z</time></trkpt><trkpt lat="42.264165" lon="13.9811917"><ele>215.4</ele><time>2026-05-03T10:14:07.555Z</time></trkpt><trkpt lat="42.2642133" lon="13.9813033"><ele>212.8</ele><time>2026-05-03T10:14:08.555Z</time></trkpt><trkpt lat="42.264265" lon="13.981415"><ele>210.2</ele><time>2026-05-03T10:14:09.554Z</time></trkpt><trkpt lat="42.26433" lon="13.9815033"><ele>207.6</ele><time>2026-05-03T10:14:10.555Z</time></trkpt><trkpt lat="42.2644033" lon="13.9815717"><ele>205.0</ele><time>2026-05-03T10:14:11.554Z</time></trkpt><trkpt lat="42.2645033" lon="13.981655"><ele>205.0</ele><time>2026-05-03T10:14:12.555Z</time></trkpt><trkpt lat="42.264595" lon="13.9817333"><ele>205.0</ele><time>2026-05-03T10:14:13.554Z</time></trkpt><trkpt lat="42.2646717" lon="13.9818333"><ele>205.0</ele><time>2026-05-03T10:14:14.555Z</time></trkpt><trkpt lat="42.264735" lon="13.9819533"><ele>205.0</ele><time>2026-05-03T10:14:15.555Z</time></trkpt><trkpt lat="42.264775" lon="13.9820867"><ele>205.0</ele><time>2026-05-03T10:14:16.555Z</time></trkpt><trkpt lat="42.2647967" lon="13.98222"><ele>201.8</ele><time>2026-05-03T10:14:17.555Z</time></trkpt><trkpt lat="42.2648" lon="13.9823617"><ele>198.6</ele><time>2026-05-03T10:14:18.555Z</time></trkpt><trkpt lat="42.264815" lon="13.9825017"><ele>195.39999999999998</ele><time>2026-05-03T10:14:19.554Z</time></trkpt><trkpt lat="42.2648333" lon="13.9826367"><ele>192.2</ele><time>2026-05-03T10:14:20.555Z</time></trkpt><trkpt lat="42.26484" lon="13.98275"><ele>189.0</ele><time>2026-05-03T10:14:21.555Z</time></trkpt><trkpt lat="42.2648517" lon="13.9828717"><ele>189.0</ele><time>2026-05-03T10:14:22.554Z</time></trkpt><trkpt lat="42.2648583" lon="13.98301"><ele>189.0</ele><time>2026-05-03T10:14:23.554Z</time></trkpt><trkpt lat="42.2648633" lon="13.9831467"><ele>189.0</ele><time>2026-05-03T10:14:24.554Z</time></trkpt><trkpt lat="42.2648733" lon="13.98327"><ele>189.0</ele><time>2026-05-03T10:14:25.554Z</time></trkpt><trkpt lat="42.26488" lon="13.9833967"><ele>189.0</ele><time>2026-05-03T10:14:26.555Z</time></trkpt><trkpt lat="42.2648967" lon="13.98352"><ele>188.33333333333334</ele><time>2026-05-03T10:14:27.555Z</time></trkpt><trkpt lat="42.264925" lon="13.98364"><ele>187.66666666666666</ele><time>2026-05-03T10:14:28.554Z</time></trkpt><trkpt lat="42.26494" lon="13.9837417"><ele>187.0</ele><time>2026-05-03T10:14:29.555Z</time></trkpt><trkpt lat="42.2649683" lon="13.983825"><ele>186.33333333333331</ele><time>2026-05-03T10:14:30.555Z</time></trkpt><trkpt lat="42.2650467" lon="13.983925"><ele>185.66666666666666</ele><time>2026-05-03T10:14:32.555Z</time></trkpt><trkpt lat="42.2651283" lon="13.9838867"><ele>185.0</ele><time>2026-05-03T10:14:34.554Z</time></trkpt><trkpt lat="42.2651767" lon="13.983815"><ele>185.0</ele><time>2026-05-03T10:14:35.554Z</time></trkpt><trkpt lat="42.2652233" lon="13.98372"><ele>185.0</ele><time>2026-05-03T10:14:36.555Z</time></trkpt><trkpt lat="42.265255" lon="13.983605"><ele>185.0</ele><time>2026-05-03T10:14:37.554Z</time></trkpt><trkpt lat="42.2652633" lon="13.983475"><ele>185.0</ele><time>2026-05-03T10:14:38.555Z</time></trkpt><trkpt lat="42.2652483" lon="13.9833367"><ele>185.0</ele><time>2026-05-03T10:14:39.555Z</time></trkpt><trkpt lat="42.26523" lon="13.98317"><ele>186.0</ele><time>2026-05-03T10:14:40.554Z</time></trkpt><trkpt lat="42.265215" lon="13.9829833"><ele>187.0</ele><time>2026-05-03T10:14:41.555Z</time></trkpt><trkpt lat="42.2652233" lon="13.9828167"><ele>188.0</ele><time>2026-05-03T10:14:42.555Z</time></trkpt><trkpt lat="42.26525" lon="13.9826633"><ele>189.0</ele><time>2026-05-03T10:14:43.555Z</time></trkpt><trkpt lat="42.2653017" lon="13.9825183"><ele>189.0</ele><time>2026-05-03T10:14:44.554Z</time></trkpt><trkpt lat="42.265355" lon="13.9823833"><ele>189.0</ele><time>2026-05-03T10:14:45.554Z</time></trkpt><trkpt lat="42.2654083" lon="13.9822667"><ele>189.0</ele><time>2026-05-03T10:14:46.555Z</time></trkpt><trkpt lat="42.26546" lon="13.98217"><ele>189.0</ele><time>2026-05-03T10:14:47.555Z</time></trkpt><trkpt lat="42.265525" lon="13.9821067"><ele>189.0</ele><time>2026-05-03T10:14:48.554Z</time></trkpt><trkpt lat="42.265595" lon="13.9820883"><ele>185.2</ele><time>2026-05-03T10:14:49.554Z</time></trkpt><trkpt lat="42.26566" lon="13.98212"><ele>181.39999999999998</ele><time>2026-05-03T10:14:50.555Z</time></trkpt><trkpt lat="42.265725" lon="13.9821983"><ele>177.6</ele><time>2026-05-03T10:14:51.555Z</time></trkpt><trkpt lat="42.2657883" lon="13.9822983"><ele>173.8</ele><time>2026-05-03T10:14:52.555Z</time></trkpt><trkpt lat="42.2658567" lon="13.9823917"><ele>170.0</ele><time>2026-05-03T10:14:53.555Z</time></trkpt><trkpt lat="42.265925" lon="13.9824883"><ele>170.5</ele><time>2026-05-03T10:14:54.554Z</time></trkpt><trkpt lat="42.266" lon="13.9825967"><ele>171.0</ele><time>2026-05-03T10:14:55.555Z</time></trkpt><trkpt lat="42.2660983" lon="13.9827117"><ele>171.5</ele><time>2026-05-03T10:14:56.554Z</time></trkpt><trkpt lat="42.266235" lon="13.982805"><ele>172.0</ele><time>2026-05-03T10:14:57.555Z</time></trkpt><trkpt lat="42.26638" lon="13.98286"><ele>170.0</ele><time>2026-05-03T10:14:58.554Z</time></trkpt><trkpt lat="42.266515" lon="13.98287"><ele>168.0</ele><time>2026-05-03T10:14:59.554Z</time></trkpt><trkpt lat="42.2666333" lon="13.9828717"><ele>166.0</ele><time>2026-05-03T10:15:00.555Z</time></trkpt><trkpt lat="42.26673" lon="13.9828867"><ele>164.0</ele><time>2026-05-03T10:15:01.554Z</time></trkpt><trkpt lat="42.2668033" lon="13.9829367"><ele>162.0</ele><time>2026-05-03T10:15:02.554Z</time></trkpt><trkpt lat="42.2668567" lon="13.983005"><ele>162.0</ele><time>2026-05-03T10:15:03.554Z</time></trkpt><trkpt lat="42.26689" lon="13.983085"><ele>162.0</ele><time>2026-05-03T10:15:04.555Z</time></trkpt><trkpt lat="42.2669117" lon="13.9832033"><ele>162.0</ele><time>2026-05-03T10:15:05.554Z</time></trkpt><trkpt lat="42.2669183" lon="13.98337"><ele>162.0</ele><time>2026-05-03T10:15:06.554Z</time></trkpt><trkpt lat="42.2669267" lon="13.983575"><ele>162.0</ele><time>2026-05-03T10:15:07.555Z</time></trkpt><trkpt lat="42.26694" lon="13.9838033"><ele>162.66666666666666</ele><time>2026-05-03T10:15:08.555Z</time></trkpt><trkpt lat="42.2669567" lon="13.984035"><ele>163.33333333333331</ele><time>2026-05-03T10:15:09.554Z</time></trkpt><trkpt lat="42.2669733" lon="13.9842867"><ele>164.0</ele><time>2026-05-03T10:15:10.554Z</time></trkpt><trkpt lat="42.267005" lon="13.9845433"><ele>162.33333333333331</ele><time>2026-05-03T10:15:11.555Z</time></trkpt><trkpt lat="42.2670517" lon="13.9848083"><ele>160.66666666666666</ele><time>2026-05-03T10:15:12.555Z</time></trkpt><trkpt lat="42.2670767" lon="13.9850883"><ele>159.0</ele><time>2026-05-03T10:15:13.555Z</time></trkpt><trkpt lat="42.26709" lon="13.9853683"><ele>157.0</ele><time>2026-05-03T10:15:14.555Z</time></trkpt><trkpt lat="42.2670817" lon="13.9856467"><ele>155.0</ele><time>2026-05-03T10:15:15.555Z</time></trkpt><trkpt lat="42.2670617" lon="13.985935"><ele>153.0</ele><time>2026-05-03T10:15:16.554Z</time></trkpt><trkpt lat="42.2670333" lon="13.986225"><ele>150.5</ele><time>2026-05-03T10:15:17.555Z</time></trkpt><trkpt lat="42.2669883" lon="13.986525"><ele>148.0</ele><time>2026-05-03T10:15:18.555Z</time></trkpt><trkpt lat="42.26693" lon="13.9868383"><ele>146.0</ele><time>2026-05-03T10:15:19.554Z</time></trkpt><trkpt lat="42.2668733" lon="13.9871333"><ele>144.0</ele><time>2026-05-03T10:15:20.554Z</time></trkpt><trkpt lat="42.266815" lon="13.9873967"><ele>142.0</ele><time>2026-05-03T10:15:21.555Z</time></trkpt><trkpt lat="42.2667583" lon="13.9876267"><ele>140.33333333333334</ele><time>2026-05-03T10:15:22.555Z</time></trkpt><trkpt lat="42.2667033" lon="13.9878467"><ele>138.66666666666666</ele><time>2026-05-03T10:15:23.555Z</time></trkpt><trkpt lat="42.2666517" lon="13.988055"><ele>137.0</ele><time>2026-05-03T10:15:24.554Z</time></trkpt><trkpt lat="42.2666117" lon="13.988255"><ele>135.33333333333331</ele><time>2026-05-03T10:15:25.554Z</time></trkpt><trkpt lat="42.2665783" lon="13.9884583"><ele>133.66666666666666</ele><time>2026-05-03T10:15:26.554Z</time></trkpt><trkpt lat="42.2665633" lon="13.9886617"><ele>132.0</ele><time>2026-05-03T10:15:27.555Z</time></trkpt><trkpt lat="42.2665683" lon="13.9888767"><ele>132.0</ele><time>2026-05-03T10:15:28.555Z</time></trkpt><trkpt lat="42.2665917" lon="13.9891083"><ele>132.0</ele><time>2026-05-03T10:15:29.554Z</time></trkpt><trkpt lat="42.266635" lon="13.9893583"><ele>132.0</ele><time>2026-05-03T10:15:30.555Z</time></trkpt><trkpt lat="42.26668" lon="13.9896167"><ele>132.0</ele><time>2026-05-03T10:15:31.555Z</time></trkpt><trkpt lat="42.2667283" lon="13.989885"><ele>132.0</ele><time>2026-05-03T10:15:32.555Z</time></trkpt><trkpt lat="42.26678" lon="13.9901467"><ele>132.0</ele><time>2026-05-03T10:15:33.555Z</time></trkpt><trkpt lat="42.2668167" lon="13.990415"><ele>131.66666666666666</ele><time>2026-05-03T10:15:34.554Z</time></trkpt><trkpt lat="42.2668417" lon="13.9906883"><ele>131.33333333333331</ele><time>2026-05-03T10:15:35.555Z</time></trkpt><trkpt lat="42.2668417" lon="13.990965"><ele>131.0</ele><time>2026-05-03T10:15:36.555Z</time></trkpt><trkpt lat="42.2668217" lon="13.9912483"><ele>129.0</ele><time>2026-05-03T10:15:37.554Z</time></trkpt><trkpt lat="42.2667817" lon="13.991525"><ele>127.0</ele><time>2026-05-03T10:15:38.555Z</time></trkpt><trkpt lat="42.2667367" lon="13.9917983"><ele>125.0</ele><time>2026-05-03T10:15:39.555Z</time></trkpt><trkpt lat="42.266685" lon="13.9920617"><ele>123.33333333333333</ele><time>2026-05-03T10:15:40.554Z</time></trkpt><trkpt lat="42.26664" lon="13.9923133"><ele>121.66666666666666</ele><time>2026-05-03T10:15:41.555Z</time></trkpt><trkpt lat="42.2665917" lon="13.9925717"><ele>120.0</ele><time>2026-05-03T10:15:42.555Z</time></trkpt><trkpt lat="42.266545" lon="13.9928267"><ele>119.33333333333334</ele><time>2026-05-03T10:15:43.555Z</time></trkpt><trkpt lat="42.2665033" lon="13.9930767"><ele>118.66666666666667</ele><time>2026-05-03T10:15:44.555Z</time></trkpt><trkpt lat="42.266455" lon="13.9933283"><ele>118.0</ele><time>2026-05-03T10:15:45.555Z</time></trkpt><trkpt lat="42.2664167" lon="13.9935883"><ele>120.0</ele><time>2026-05-03T10:15:46.554Z</time></trkpt><trkpt lat="42.2663767" lon="13.993845"><ele>122.0</ele><time>2026-05-03T10:15:47.554Z</time></trkpt><trkpt lat="42.2663383" lon="13.9940983"><ele>124.0</ele><time>2026-05-03T10:15:48.554Z</time></trkpt><trkpt lat="42.2662983" lon="13.9943283"><ele>124.0</ele><time>2026-05-03T10:15:49.555Z</time></trkpt><trkpt lat="42.2662617" lon="13.9945417"><ele>124.0</ele><time>2026-05-03T10:15:50.554Z</time></trkpt><trkpt lat="42.26622" lon="13.9947233"><ele>124.0</ele><time>2026-05-03T10:15:51.555Z</time></trkpt><trkpt lat="42.2661717" lon="13.9948883"><ele>124.0</ele><time>2026-05-03T10:15:52.555Z</time></trkpt><trkpt lat="42.2660983" lon="13.9950283"><ele>123.6</ele><time>2026-05-03T10:15:53.555Z</time></trkpt><trkpt lat="42.266035" lon="13.9951367"><ele>123.2</ele><time>2026-05-03T10:15:54.555Z</time></trkpt><trkpt lat="42.2660067" lon="13.9952517"><ele>122.79999999999998</ele><time>2026-05-03T10:15:55.554Z</time></trkpt><trkpt lat="42.266" lon="13.9953783"><ele>122.39999999999999</ele><time>2026-05-03T10:15:56.555Z</time></trkpt><trkpt lat="42.2660133" lon="13.9955467"><ele>122.0</ele><time>2026-05-03T10:15:57.555Z</time></trkpt><trkpt lat="42.2660183" lon="13.9957383"><ele>121.5</ele><time>2026-05-03T10:15:58.555Z</time></trkpt><trkpt lat="42.266005" lon="13.99594"><ele>121.0</ele><time>2026-05-03T10:15:59.555Z</time></trkpt><trkpt lat="42.26598" lon="13.99615"><ele>120.5</ele><time>2026-05-03T10:16:00.554Z</time></trkpt><trkpt lat="42.2659567" lon="13.9963317"><ele>120.0</ele><time>2026-05-03T10:16:01.554Z</time></trkpt><trkpt lat="42.2659383" lon="13.9964833"><ele>120.0</ele><time>2026-05-03T10:16:02.555Z</time></trkpt><trkpt lat="42.265925" lon="13.9965983"><ele>120.0</ele><time>2026-05-03T10:16:03.555Z</time></trkpt><trkpt lat="42.2658967" lon="13.9967417"><ele>120.0</ele><time>2026-05-03T10:16:05.554Z</time></trkpt><trkpt lat="42.2658767" lon="13.9968433"><ele>120.0</ele><time>2026-05-03T10:16:08.554Z</time></trkpt><trkpt lat="42.26587" lon="13.99698"><ele>120.0</ele><time>2026-05-03T10:16:18.554Z</time></trkpt><trkpt lat="42.265855" lon="13.9971183"><ele>120.0</ele><time>2026-05-03T10:16:19.554Z</time></trkpt><trkpt lat="42.2658117" lon="13.9972833"><ele>120.0</ele><time>2026-05-03T10:16:20.554Z</time></trkpt><trkpt lat="42.2657683" lon="13.9974683"><ele>120.0</ele><time>2026-05-03T10:16:21.554Z</time></trkpt><trkpt lat="42.26572" lon="13.9976817"><ele>120.0</ele><time>2026-05-03T10:16:22.554Z</time></trkpt><trkpt lat="42.26567" lon="13.997895"><ele>119.0</ele><time>2026-05-03T10:16:23.553Z</time></trkpt><trkpt lat="42.265605" lon="13.99811"><ele>118.0</ele><time>2026-05-03T10:16:24.554Z</time></trkpt><trkpt lat="42.265515" lon="13.9983333"><ele>117.0</ele><time>2026-05-03T10:16:25.553Z</time></trkpt><trkpt lat="42.2653967" lon="13.998545"><ele>117.0</ele><time>2026-05-03T10:16:26.553Z</time></trkpt><trkpt lat="42.2652533" lon="13.998735"><ele>117.0</ele><time>2026-05-03T10:16:27.554Z</time></trkpt><trkpt lat="42.265095" lon="13.9989217"><ele>117.0</ele><time>2026-05-03T10:16:28.554Z</time></trkpt><trkpt lat="42.2649317" lon="13.99909"><ele>117.33333333333334</ele><time>2026-05-03T10:16:29.553Z</time></trkpt><trkpt lat="42.2647533" lon="13.9992633"><ele>117.66666666666667</ele><time>2026-05-03T10:16:30.554Z</time></trkpt><trkpt lat="42.2645717" lon="13.99944"><ele>118.0</ele><time>2026-05-03T10:16:31.554Z</time></trkpt><trkpt lat="42.2643917" lon="13.9996133"><ele>118.0</ele><time>2026-05-03T10:16:32.554Z</time></trkpt><trkpt lat="42.2642133" lon="13.999785"><ele>118.0</ele><time>2026-05-03T10:16:33.554Z</time></trkpt><trkpt lat="42.2640333" lon="13.9999683"><ele>118.0</ele><time>2026-05-03T10:16:34.554Z</time></trkpt><trkpt lat="42.263855" lon="14.0001533"><ele>119.66666666666667</ele><time>2026-05-03T10:16:35.554Z</time></trkpt><trkpt lat="42.263695" lon="14.00033"><ele>121.33333333333334</ele><time>2026-05-03T10:16:36.554Z</time></trkpt><trkpt lat="42.2635567" lon="14.000495"><ele>123.0</ele><time>2026-05-03T10:16:37.554Z</time></trkpt><trkpt lat="42.2634483" lon="14.0006483"><ele>123.0</ele><time>2026-05-03T10:16:38.553Z</time></trkpt><trkpt lat="42.2633667" lon="14.00081"><ele>123.0</ele><time>2026-05-03T10:16:39.553Z</time></trkpt><trkpt lat="42.263305" lon="14.0009767"><ele>123.0</ele><time>2026-05-03T10:16:40.554Z</time></trkpt><trkpt lat="42.2632617" lon="14.0011433"><ele>123.0</ele><time>2026-05-03T10:16:41.553Z</time></trkpt><trkpt lat="42.2632333" lon="14.0013167"><ele>120.66666666666666</ele><time>2026-05-03T10:16:42.554Z</time></trkpt><trkpt lat="42.26322" lon="14.0015133"><ele>118.33333333333333</ele><time>2026-05-03T10:16:43.553Z</time></trkpt><trkpt lat="42.2632367" lon="14.001725"><ele>116.0</ele><time>2026-05-03T10:16:44.554Z</time></trkpt><trkpt lat="42.26328" lon="14.0019383"><ele>114.33333333333333</ele><time>2026-05-03T10:16:45.554Z</time></trkpt><trkpt lat="42.2633517" lon="14.0021533"><ele>112.66666666666666</ele><time>2026-05-03T10:16:46.554Z</time></trkpt><trkpt lat="42.2634433" lon="14.002375"><ele>111.0</ele><time>2026-05-03T10:16:47.553Z</time></trkpt><trkpt lat="42.2635533" lon="14.0026033"><ele>110.33333333333334</ele><time>2026-05-03T10:16:48.554Z</time></trkpt><trkpt lat="42.263665" lon="14.002825"><ele>109.66666666666667</ele><time>2026-05-03T10:16:49.553Z</time></trkpt><trkpt lat="42.2637667" lon="14.00302"><ele>109.0</ele><time>2026-05-03T10:16:50.554Z</time></trkpt><trkpt lat="42.26385" lon="14.0032033"><ele>109.0</ele><time>2026-05-03T10:16:51.554Z</time></trkpt><trkpt lat="42.2639167" lon="14.0033783"><ele>109.0</ele><time>2026-05-03T10:16:52.554Z</time></trkpt><trkpt lat="42.2639617" lon="14.00353"><ele>109.0</ele><time>2026-05-03T10:16:53.553Z</time></trkpt><trkpt lat="42.263975" lon="14.0036733"><ele>109.0</ele><time>2026-05-03T10:16:54.554Z</time></trkpt><trkpt lat="42.263975" lon="14.0038083"><ele>109.0</ele><time>2026-05-03T10:16:55.553Z</time></trkpt><trkpt lat="42.2639617" lon="14.0039183"><ele>109.0</ele><time>2026-05-03T10:16:56.553Z</time></trkpt><trkpt lat="42.2640083" lon="14.004075"><ele>109.0</ele><time>2026-05-03T10:16:58.554Z</time></trkpt><trkpt lat="42.2640683" lon="14.00414"><ele>109.0</ele><time>2026-05-03T10:16:59.553Z</time></trkpt><trkpt lat="42.2641633" lon="14.00421"><ele>109.0</ele><time>2026-05-03T10:17:00.553Z</time></trkpt><trkpt lat="42.2642617" lon="14.004315"><ele>109.33333333333334</ele><time>2026-05-03T10:17:01.553Z</time></trkpt><trkpt lat="42.2643583" lon="14.0044567"><ele>109.66666666666666</ele><time>2026-05-03T10:17:02.553Z</time></trkpt><trkpt lat="42.2644417" lon="14.0046267"><ele>110.0</ele><time>2026-05-03T10:17:03.554Z</time></trkpt><trkpt lat="42.2645233" lon="14.0048167"><ele>107.66666666666666</ele><time>2026-05-03T10:17:04.554Z</time></trkpt><trkpt lat="42.2646133" lon="14.0050217"><ele>105.33333333333334</ele><time>2026-05-03T10:17:05.554Z</time></trkpt><trkpt lat="42.2647" lon="14.0052267"><ele>103.0</ele><time>2026-05-03T10:17:06.554Z</time></trkpt><trkpt lat="42.2647767" lon="14.00539"><ele>102.80000000000001</ele><time>2026-05-03T10:17:07.554Z</time></trkpt><trkpt lat="42.26483" lon="14.00552"><ele>102.6</ele><time>2026-05-03T10:17:08.554Z</time></trkpt><trkpt lat="42.2648783" lon="14.0056217"><ele>102.4</ele><time>2026-05-03T10:17:09.554Z</time></trkpt><trkpt lat="42.2649217" lon="14.0057233"><ele>102.19999999999999</ele><time>2026-05-03T10:17:10.554Z</time></trkpt><trkpt lat="42.2649667" lon="14.00583"><ele>102.0</ele><time>2026-05-03T10:17:11.553Z</time></trkpt><trkpt lat="42.2650117" lon="14.0059317"><ele>102.0</ele><time>2026-05-03T10:17:12.554Z</time></trkpt><trkpt lat="42.26505" lon="14.00603"><ele>102.0</ele><time>2026-05-03T10:17:13.553Z</time></trkpt><trkpt lat="42.2650933" lon="14.0061367"><ele>102.0</ele><time>2026-05-03T10:17:14.553Z</time></trkpt><trkpt lat="42.265145" lon="14.00626"><ele>102.0</ele><time>2026-05-03T10:17:15.554Z</time></trkpt><trkpt lat="42.2652017" lon="14.0063933"><ele>102.0</ele><time>2026-05-03T10:17:16.554Z</time></trkpt><trkpt lat="42.265265" lon="14.006535"><ele>101.75</ele><time>2026-05-03T10:17:17.553Z</time></trkpt><trkpt lat="42.2653317" lon="14.0066883"><ele>101.5</ele><time>2026-05-03T10:17:18.554Z</time></trkpt><trkpt lat="42.2654117" lon="14.0068583"><ele>101.25</ele><time>2026-05-03T10:17:19.554Z</time></trkpt><trkpt lat="42.2655" lon="14.00705"><ele>101.0</ele><time>2026-05-03T10:17:20.553Z</time></trkpt><trkpt lat="42.2656033" lon="14.007245"><ele>101.0</ele><time>2026-05-03T10:17:21.553Z</time></trkpt><trkpt lat="42.265705" lon="14.007445"><ele>101.0</ele><time>2026-05-03T10:17:22.553Z</time></trkpt><trkpt lat="42.2658083" lon="14.0076033"><ele>101.0</ele><time>2026-05-03T10:17:23.553Z</time></trkpt><trkpt lat="42.2659067" lon="14.007735"><ele>101.0</ele><time>2026-05-03T10:17:24.554Z</time></trkpt><trkpt lat="42.2660083" lon="14.0078567"><ele>101.0</ele><time>2026-05-03T10:17:25.554Z</time></trkpt><trkpt lat="42.2661133" lon="14.0079733"><ele>101.0</ele><time>2026-05-03T10:17:26.553Z</time></trkpt><trkpt lat="42.2662167" lon="14.0080883"><ele>101.0</ele><time>2026-05-03T10:17:27.553Z</time></trkpt><trkpt lat="42.26633" lon="14.0082"><ele>100.5</ele><time>2026-05-03T10:17:28.553Z</time></trkpt><trkpt lat="42.26644" lon="14.0083283"><ele>100.0</ele><time>2026-05-03T10:17:29.554Z</time></trkpt><trkpt lat="42.2665317" lon="14.00847"><ele>99.5</ele><time>2026-05-03T10:17:30.554Z</time></trkpt><trkpt lat="42.2666133" lon="14.00863"><ele>99.0</ele><time>2026-05-03T10:17:31.554Z</time></trkpt><trkpt lat="42.266695" lon="14.0088017"><ele>99.0</ele><time>2026-05-03T10:17:32.554Z</time></trkpt><trkpt lat="42.2667717" lon="14.0089733"><ele>99.0</ele><time>2026-05-03T10:17:33.554Z</time></trkpt><trkpt lat="42.2668483" lon="14.009135"><ele>99.0</ele><time>2026-05-03T10:17:34.554Z</time></trkpt><trkpt lat="42.2669167" lon="14.0092917"><ele>99.0</ele><time>2026-05-03T10:17:35.553Z</time></trkpt><trkpt lat="42.2669817" lon="14.0094333"><ele>99.2</ele><time>2026-05-03T10:17:36.554Z</time></trkpt><trkpt lat="42.2670367" lon="14.0095717"><ele>99.4</ele><time>2026-05-03T10:17:37.553Z</time></trkpt><trkpt lat="42.2670883" lon="14.0096983"><ele>99.6</ele><time>2026-05-03T10:17:38.553Z</time></trkpt><trkpt lat="42.267135" lon="14.0098083"><ele>99.8</ele><time>2026-05-03T10:17:39.554Z</time></trkpt><trkpt lat="42.2671733" lon="14.0099033"><ele>100.0</ele><time>2026-05-03T10:17:40.553Z</time></trkpt><trkpt lat="42.2672067" lon="14.009995"><ele>100.00000000000001</ele><time>2026-05-03T10:17:41.553Z</time></trkpt><trkpt lat="42.2672283" lon="14.0100883"><ele>100.0</ele><time>2026-05-03T10:17:42.554Z</time></trkpt><trkpt lat="42.2672367" lon="14.0101933"><ele>100.0</ele><time>2026-05-03T10:17:43.554Z</time></trkpt><trkpt lat="42.2672267" lon="14.0102917"><ele>100.0</ele><time>2026-05-03T10:17:44.553Z</time></trkpt><trkpt lat="42.2672067" lon="14.0103833"><ele>100.0</ele><time>2026-05-03T10:17:45.554Z</time></trkpt><trkpt lat="42.26718" lon="14.01047"><ele>100.00000000000001</ele><time>2026-05-03T10:17:46.553Z</time></trkpt><trkpt lat="42.2671417" lon="14.0105517"><ele>100.0</ele><time>2026-05-03T10:17:47.553Z</time></trkpt><trkpt lat="42.2670883" lon="14.0106233"><ele>100.0</ele><time>2026-05-03T10:17:48.553Z</time></trkpt><trkpt lat="42.2670317" lon="14.01068"><ele>100.0</ele><time>2026-05-03T10:17:49.554Z</time></trkpt><trkpt lat="42.2669667" lon="14.0107267"><ele>100.0</ele><time>2026-05-03T10:17:50.554Z</time></trkpt><trkpt lat="42.2668867" lon="14.0107917"><ele>100.0</ele><time>2026-05-03T10:17:51.554Z</time></trkpt><trkpt lat="42.266785" lon="14.010875"><ele>100.0</ele><time>2026-05-03T10:17:52.554Z</time></trkpt><trkpt lat="42.2666583" lon="14.01098"><ele>99.66666666666667</ele><time>2026-05-03T10:17:53.554Z</time></trkpt><trkpt lat="42.2665233" lon="14.0110933"><ele>99.33333333333334</ele><time>2026-05-03T10:17:54.553Z</time></trkpt><trkpt lat="42.2663733" lon="14.0112183"><ele>99.0</ele><time>2026-05-03T10:17:55.554Z</time></trkpt><trkpt lat="42.26623" lon="14.0113333"><ele>99.33333333333334</ele><time>2026-05-03T10:17:56.554Z</time></trkpt><trkpt lat="42.2661" lon="14.011435"><ele>99.66666666666667</ele><time>2026-05-03T10:17:57.553Z</time></trkpt><trkpt lat="42.2659533" lon="14.0115467"><ele>100.0</ele><time>2026-05-03T10:17:58.554Z</time></trkpt><trkpt lat="42.2658" lon="14.0116667"><ele>100.0</ele><time>2026-05-03T10:17:59.553Z</time></trkpt><trkpt lat="42.265635" lon="14.0118"><ele>100.0</ele><time>2026-05-03T10:18:00.553Z</time></trkpt><trkpt lat="42.2654717" lon="14.0119383"><ele>100.0</ele><time>2026-05-03T10:18:01.554Z</time></trkpt><trkpt lat="42.26533" lon="14.0120717"><ele>98.75</ele><time>2026-05-03T10:18:02.553Z</time></trkpt><trkpt lat="42.2652017" lon="14.012195"><ele>97.5</ele><time>2026-05-03T10:18:03.554Z</time></trkpt><trkpt lat="42.2651017" lon="14.0123067"><ele>96.25</ele><time>2026-05-03T10:18:04.553Z</time></trkpt><trkpt lat="42.2650167" lon="14.0124417"><ele>95.0</ele><time>2026-05-03T10:18:05.553Z</time></trkpt><trkpt lat="42.2649533" lon="14.0126167"><ele>95.0</ele><time>2026-05-03T10:18:06.554Z</time></trkpt><trkpt lat="42.2649183" lon="14.01281"><ele>95.0</ele><time>2026-05-03T10:18:07.554Z</time></trkpt><trkpt lat="42.2649217" lon="14.0130217"><ele>95.0</ele><time>2026-05-03T10:18:08.554Z</time></trkpt><trkpt lat="42.264965" lon="14.0132133"><ele>93.66666666666667</ele><time>2026-05-03T10:18:09.553Z</time></trkpt><trkpt lat="42.2650383" lon="14.0133983"><ele>92.33333333333333</ele><time>2026-05-03T10:18:10.553Z</time></trkpt><trkpt lat="42.2651317" lon="14.0135733"><ele>91.0</ele><time>2026-05-03T10:18:11.553Z</time></trkpt><trkpt lat="42.2652283" lon="14.0137283"><ele>91.0</ele><time>2026-05-03T10:18:12.554Z</time></trkpt><trkpt lat="42.265325" lon="14.0138833"><ele>91.0</ele><time>2026-05-03T10:18:13.554Z</time></trkpt><trkpt lat="42.2654233" lon="14.0140433"><ele>91.0</ele><time>2026-05-03T10:18:14.554Z</time></trkpt><trkpt lat="42.2655217" lon="14.0142017"><ele>90.25</ele><time>2026-05-03T10:18:15.554Z</time></trkpt><trkpt lat="42.2656183" lon="14.01436"><ele>89.5</ele><time>2026-05-03T10:18:16.553Z</time></trkpt><trkpt lat="42.265705" lon="14.0145183"><ele>88.75</ele><time>2026-05-03T10:18:17.554Z</time></trkpt><trkpt lat="42.2657817" lon="14.01466"><ele>88.0</ele><time>2026-05-03T10:18:18.553Z</time></trkpt><trkpt lat="42.26586" lon="14.0147817"><ele>88.0</ele><time>2026-05-03T10:18:19.554Z</time></trkpt><trkpt lat="42.265935" lon="14.0149067"><ele>88.0</ele><time>2026-05-03T10:18:20.554Z</time></trkpt><trkpt lat="42.2660083" lon="14.0150417"><ele>88.0</ele><time>2026-05-03T10:18:21.553Z</time></trkpt><trkpt lat="42.2660783" lon="14.0151633"><ele>88.0</ele><time>2026-05-03T10:18:22.554Z</time></trkpt><trkpt lat="42.2661333" lon="14.01525"><ele>88.0</ele><time>2026-05-03T10:18:23.554Z</time></trkpt><trkpt lat="42.2661917" lon="14.0153133"><ele>88.2</ele><time>2026-05-03T10:18:25.554Z</time></trkpt><trkpt lat="42.2662767" lon="14.0152483"><ele>88.4</ele><time>2026-05-03T10:18:28.553Z</time></trkpt><trkpt lat="42.2663667" lon="14.015145"><ele>88.60000000000001</ele><time>2026-05-03T10:18:30.554Z</time></trkpt><trkpt lat="42.2664333" lon="14.015075"><ele>88.80000000000001</ele><time>2026-05-03T10:18:32.554Z</time></trkpt><trkpt lat="42.2664933" lon="14.0150083"><ele>89.0</ele><time>2026-05-03T10:21:32.553Z</time></trkpt><trkpt lat="42.2664267" lon="14.0150717"><ele>89.0</ele><time>2026-05-03T10:35:29.548Z</time></trkpt><trkpt lat="42.26638" lon="14.01513"><ele>89.0</ele><time>2026-05-03T10:35:30.548Z</time></trkpt><trkpt lat="42.2663217" lon="14.0151917"><ele>89.0</ele><time>2026-05-03T10:35:31.549Z</time></trkpt><trkpt lat="42.266225" lon="14.0152683"><ele>89.0</ele><time>2026-05-03T10:35:33.549Z</time></trkpt><trkpt lat="42.26619" lon="14.0153683"><ele>89.0</ele><time>2026-05-03T10:35:36.548Z</time></trkpt><trkpt lat="42.2662417" lon="14.0155017"><ele>89.0</ele><time>2026-05-03T10:35:38.549Z</time></trkpt><trkpt lat="42.2662917" lon="14.0155817"><ele>89.0</ele><time>2026-05-03T10:35:39.549Z</time></trkpt><trkpt lat="42.2663483" lon="14.0156633"><ele>89.0</ele><time>2026-05-03T10:35:40.549Z</time></trkpt><trkpt lat="42.26642" lon="14.0157583"><ele>89.0</ele><time>2026-05-03T10:35:41.549Z</time></trkpt><trkpt lat="42.2665" lon="14.0158833"><ele>89.0</ele><time>2026-05-03T10:35:42.549Z</time></trkpt><trkpt lat="42.2665767" lon="14.0160133"><ele>89.0</ele><time>2026-05-03T10:35:43.549Z</time></trkpt><trkpt lat="42.2666583" lon="14.0161567"><ele>88.75</ele><time>2026-05-03T10:35:44.548Z</time></trkpt><trkpt lat="42.26674" lon="14.0163067"><ele>88.5</ele><time>2026-05-03T10:35:45.549Z</time></trkpt><trkpt lat="42.266825" lon="14.01645"><ele>88.25</ele><time>2026-05-03T10:35:46.548Z</time></trkpt><trkpt lat="42.2669017" lon="14.016575"><ele>88.0</ele><time>2026-05-03T10:35:47.549Z</time></trkpt><trkpt lat="42.2669717" lon="14.0166933"><ele>87.83333333333333</ele><time>2026-05-03T10:35:48.548Z</time></trkpt><trkpt lat="42.26703" lon="14.016795"><ele>87.66666666666666</ele><time>2026-05-03T10:35:49.548Z</time></trkpt><trkpt lat="42.2670833" lon="14.0168817"><ele>87.5</ele><time>2026-05-03T10:35:50.548Z</time></trkpt><trkpt lat="42.2671317" lon="14.0169667"><ele>87.33333333333333</ele><time>2026-05-03T10:35:51.549Z</time></trkpt><trkpt lat="42.26719" lon="14.0170567"><ele>87.16666666666667</ele><time>2026-05-03T10:35:52.548Z</time></trkpt><trkpt lat="42.2672467" lon="14.0171583"><ele>87.0</ele><time>2026-05-03T10:35:53.548Z</time></trkpt><trkpt lat="42.2673033" lon="14.0172667"><ele>87.0</ele><time>2026-05-03T10:35:54.549Z</time></trkpt><trkpt lat="42.26736" lon="14.017365"><ele>87.0</ele><time>2026-05-03T10:35:55.549Z</time></trkpt><trkpt lat="42.2674217" lon="14.0174683"><ele>87.0</ele><time>2026-05-03T10:35:56.548Z</time></trkpt><trkpt lat="42.2674733" lon="14.01756"><ele>87.0</ele><time>2026-05-03T10:35:57.549Z</time></trkpt><trkpt lat="42.2675333" lon="14.01765"><ele>87.0</ele><time>2026-05-03T10:35:58.549Z</time></trkpt><trkpt lat="42.267595" lon="14.0177483"><ele>87.39999999999999</ele><time>2026-05-03T10:35:59.549Z</time></trkpt><trkpt lat="42.2676633" lon="14.0178533"><ele>87.8</ele><time>2026-05-03T10:36:00.549Z</time></trkpt><trkpt lat="42.2677333" lon="14.0179367"><ele>88.2</ele><time>2026-05-03T10:36:01.549Z</time></trkpt><trkpt lat="42.2678167" lon="14.0180017"><ele>88.6</ele><time>2026-05-03T10:36:02.549Z</time></trkpt><trkpt lat="42.2679133" lon="14.0180483"><ele>89.0</ele><time>2026-05-03T10:36:03.549Z</time></trkpt><trkpt lat="42.268015" lon="14.0180967"><ele>88.5</ele><time>2026-05-03T10:36:04.549Z</time></trkpt><trkpt lat="42.2681383" lon="14.0181433"><ele>88.0</ele><time>2026-05-03T10:36:05.549Z</time></trkpt><trkpt lat="42.2682733" lon="14.0181867"><ele>87.5</ele><time>2026-05-03T10:36:06.549Z</time></trkpt><trkpt lat="42.26842" lon="14.0182233"><ele>87.0</ele><time>2026-05-03T10:36:07.549Z</time></trkpt><trkpt lat="42.2685817" lon="14.01826"><ele>87.0</ele><time>2026-05-03T10:36:08.549Z</time></trkpt><trkpt lat="42.268755" lon="14.018305"><ele>87.0</ele><time>2026-05-03T10:36:09.548Z</time></trkpt><trkpt lat="42.2689267" lon="14.0183433"><ele>87.0</ele><time>2026-05-03T10:36:10.549Z</time></trkpt><trkpt lat="42.2691083" lon="14.0183867"><ele>88.66666666666667</ele><time>2026-05-03T10:36:11.549Z</time></trkpt><trkpt lat="42.2693017" lon="14.0184417"><ele>90.33333333333334</ele><time>2026-05-03T10:36:12.549Z</time></trkpt><trkpt lat="42.2694967" lon="14.018505"><ele>92.0</ele><time>2026-05-03T10:36:13.549Z</time></trkpt><trkpt lat="42.2696967" lon="14.018595"><ele>92.0</ele><time>2026-05-03T10:36:14.548Z</time></trkpt><trkpt lat="42.269895" lon="14.0187133"><ele>92.0</ele><time>2026-05-03T10:36:15.549Z</time></trkpt><trkpt lat="42.2700817" lon="14.0188383"><ele>92.0</ele><time>2026-05-03T10:36:16.549Z</time></trkpt><trkpt lat="42.2702667" lon="14.0189633"><ele>92.0</ele><time>2026-05-03T10:36:17.549Z</time></trkpt><trkpt lat="42.27043" lon="14.019075"><ele>92.0</ele><time>2026-05-03T10:36:18.549Z</time></trkpt><trkpt lat="42.2705767" lon="14.019175"><ele>92.0</ele><time>2026-05-03T10:36:19.549Z</time></trkpt><trkpt lat="42.27071" lon="14.0192633"><ele>93.39999999999999</ele><time>2026-05-03T10:36:20.549Z</time></trkpt><trkpt lat="42.2708083" lon="14.0193183"><ele>94.8</ele><time>2026-05-03T10:36:21.549Z</time></trkpt><trkpt lat="42.27088" lon="14.01937"><ele>96.2</ele><time>2026-05-03T10:36:22.549Z</time></trkpt><trkpt lat="42.2709417" lon="14.0194233"><ele>97.6</ele><time>2026-05-03T10:36:24.549Z</time></trkpt><trkpt lat="42.27092" lon="14.0195267"><ele>99.0</ele><time>2026-05-03T10:36:27.548Z</time></trkpt><trkpt lat="42.2708483" lon="14.019675"><ele>99.0</ele><time>2026-05-03T10:36:29.548Z</time></trkpt><trkpt lat="42.2708167" lon="14.0197517"><ele>99.0</ele><time>2026-05-03T10:36:30.549Z</time></trkpt><trkpt lat="42.2707683" lon="14.0198233"><ele>99.0</ele><time>2026-05-03T10:36:32.548Z</time></trkpt><trkpt lat="42.2706983" lon="14.0198267"><ele>99.0</ele><time>2026-05-03T10:36:34.548Z</time></trkpt><trkpt lat="42.2705767" lon="14.019795"><ele>99.0</ele><time>2026-05-03T10:36:36.549Z</time></trkpt><trkpt lat="42.2704967" lon="14.0197817"><ele>99.0</ele><time>2026-05-03T10:36:37.549Z</time></trkpt><trkpt lat="42.2704167" lon="14.019755"><ele>99.6</ele><time>2026-05-03T10:36:38.549Z</time></trkpt><trkpt lat="42.2703333" lon="14.019725"><ele>100.2</ele><time>2026-05-03T10:36:39.549Z</time></trkpt><trkpt lat="42.2702367" lon="14.0196917"><ele>100.8</ele><time>2026-05-03T10:36:40.549Z</time></trkpt><trkpt lat="42.2701367" lon="14.0196433"><ele>101.39999999999999</ele><time>2026-05-03T10:36:41.549Z</time></trkpt><trkpt lat="42.27003" lon="14.0195917"><ele>102.0</ele><time>2026-05-03T10:36:42.548Z</time></trkpt><trkpt lat="42.2699267" lon="14.0195383"><ele>102.0</ele><time>2026-05-03T10:36:43.549Z</time></trkpt><trkpt lat="42.26983" lon="14.0194917"><ele>102.0</ele><time>2026-05-03T10:36:44.549Z</time></trkpt><trkpt lat="42.269735" lon="14.01946"><ele>102.0</ele><time>2026-05-03T10:36:45.549Z</time></trkpt><trkpt lat="42.2696333" lon="14.0194417"><ele>102.0</ele><time>2026-05-03T10:36:46.548Z</time></trkpt><trkpt lat="42.26954" lon="14.0194317"><ele>102.0</ele><time>2026-05-03T10:36:47.548Z</time></trkpt><trkpt lat="42.269465" lon="14.01944"><ele>102.66666666666667</ele><time>2026-05-03T10:36:48.549Z</time></trkpt><trkpt lat="42.2693683" lon="14.0194683"><ele>103.33333333333334</ele><time>2026-05-03T10:36:50.548Z</time></trkpt><trkpt lat="42.2692967" lon="14.01948"><ele>104.0</ele><time>2026-05-03T10:36:51.549Z</time></trkpt><trkpt lat="42.2692167" lon="14.0195033"><ele>104.66666666666667</ele><time>2026-05-03T10:36:52.548Z</time></trkpt><trkpt lat="42.2691383" lon="14.0195417"><ele>105.33333333333334</ele><time>2026-05-03T10:36:53.549Z</time></trkpt><trkpt lat="42.2690667" lon="14.0196033"><ele>106.0</ele><time>2026-05-03T10:36:54.549Z</time></trkpt><trkpt lat="42.269015" lon="14.0196883"><ele>106.00000000000001</ele><time>2026-05-03T10:36:55.549Z</time></trkpt><trkpt lat="42.2689833" lon="14.0197833"><ele>106.0</ele><time>2026-05-03T10:36:56.549Z</time></trkpt><trkpt lat="42.2690067" lon="14.01992"><ele>106.0</ele><time>2026-05-03T10:36:58.548Z</time></trkpt><trkpt lat="42.2690467" lon="14.0200133"><ele>106.0</ele><time>2026-05-03T10:37:01.549Z</time></trkpt><trkpt lat="42.2690717" lon="14.020115"><ele>106.00000000000001</ele><time>2026-05-03T10:37:03.548Z</time></trkpt><trkpt lat="42.269105" lon="14.0202517"><ele>106.0</ele><time>2026-05-03T10:37:05.548Z</time></trkpt><trkpt lat="42.269135" lon="14.0204083"><ele>108.6</ele><time>2026-05-03T10:37:07.549Z</time></trkpt><trkpt lat="42.2691533" lon="14.0205383"><ele>111.19999999999999</ele><time>2026-05-03T10:37:09.549Z</time></trkpt><trkpt lat="42.2691633" lon="14.0206617"><ele>113.80000000000001</ele><time>2026-05-03T10:37:11.548Z</time></trkpt><trkpt lat="42.26915" lon="14.020815"><ele>116.4</ele><time>2026-05-03T10:37:13.548Z</time></trkpt><trkpt lat="42.2691417" lon="14.0209117"><ele>119.0</ele><time>2026-05-03T10:37:14.548Z</time></trkpt><trkpt lat="42.2691267" lon="14.0210167"><ele>120.99999999999999</ele><time>2026-05-03T10:37:15.549Z</time></trkpt><trkpt lat="42.2691083" lon="14.0211167"><ele>123.0</ele><time>2026-05-03T10:37:16.548Z</time></trkpt><trkpt lat="42.269095" lon="14.0212033"><ele>125.0</ele><time>2026-05-03T10:37:17.549Z</time></trkpt><trkpt lat="42.269085" lon="14.0213067"><ele>127.0</ele><time>2026-05-03T10:37:18.549Z</time></trkpt><trkpt lat="42.2690817" lon="14.021395"><ele>129.0</ele><time>2026-05-03T10:37:19.548Z</time></trkpt><trkpt lat="42.2691167" lon="14.0214717"><ele>131.0</ele><time>2026-05-03T10:37:21.549Z</time></trkpt><trkpt lat="42.2692183" lon="14.0215033"><ele>131.0</ele><time>2026-05-03T10:37:23.548Z</time></trkpt><trkpt lat="42.26929" lon="14.0215367"><ele>131.0</ele><time>2026-05-03T10:37:24.548Z</time></trkpt><trkpt lat="42.2693817" lon="14.0215967"><ele>131.0</ele><time>2026-05-03T10:37:25.548Z</time></trkpt><trkpt lat="42.2694767" lon="14.0216683"><ele>131.0</ele><time>2026-05-03T10:37:26.549Z</time></trkpt><trkpt lat="42.2695617" lon="14.0217467"><ele>131.0</ele><time>2026-05-03T10:37:27.549Z</time></trkpt><trkpt lat="42.2696267" lon="14.021845"><ele>132.6</ele><time>2026-05-03T10:37:28.549Z</time></trkpt><trkpt lat="42.2696983" lon="14.0219417"><ele>134.2</ele><time>2026-05-03T10:37:29.549Z</time></trkpt><trkpt lat="42.2697767" lon="14.0220417"><ele>135.8</ele><time>2026-05-03T10:37:30.549Z</time></trkpt><trkpt lat="42.269845" lon="14.0221483"><ele>137.4</ele><time>2026-05-03T10:37:31.549Z</time></trkpt><trkpt lat="42.2699267" lon="14.022265"><ele>139.0</ele><time>2026-05-03T10:37:32.549Z</time></trkpt><trkpt lat="42.2700017" lon="14.02238"><ele>141.4</ele><time>2026-05-03T10:37:33.549Z</time></trkpt><trkpt lat="42.27007" lon="14.02249"><ele>143.8</ele><time>2026-05-03T10:37:34.548Z</time></trkpt><trkpt lat="42.270145" lon="14.0225883"><ele>146.2</ele><time>2026-05-03T10:37:35.549Z</time></trkpt><trkpt lat="42.2702283" lon="14.0226783"><ele>148.6</ele><time>2026-05-03T10:37:36.549Z</time></trkpt><trkpt lat="42.27031" lon="14.022755"><ele>151.0</ele><time>2026-05-03T10:37:37.548Z</time></trkpt><trkpt lat="42.2703933" lon="14.0228233"><ele>151.0</ele><time>2026-05-03T10:37:38.549Z</time></trkpt><trkpt lat="42.2704717" lon="14.0229167"><ele>151.0</ele><time>2026-05-03T10:37:39.549Z</time></trkpt><trkpt lat="42.2705483" lon="14.0230217"><ele>151.0</ele><time>2026-05-03T10:37:40.548Z</time></trkpt><trkpt lat="42.2706267" lon="14.0231383"><ele>151.0</ele><time>2026-05-03T10:37:41.549Z</time></trkpt><trkpt lat="42.2706933" lon="14.0232467"><ele>151.0</ele><time>2026-05-03T10:37:42.549Z</time></trkpt><trkpt lat="42.2707533" lon="14.02333"><ele>152.16666666666669</ele><time>2026-05-03T10:37:43.549Z</time></trkpt><trkpt lat="42.270815" lon="14.0234217"><ele>153.33333333333334</ele><time>2026-05-03T10:37:44.549Z</time></trkpt><trkpt lat="42.27087" lon="14.023525"><ele>154.5</ele><time>2026-05-03T10:37:45.549Z</time></trkpt><trkpt lat="42.2709117" lon="14.0236267"><ele>155.66666666666666</ele><time>2026-05-03T10:37:46.549Z</time></trkpt><trkpt lat="42.2709367" lon="14.0237383"><ele>156.83333333333331</ele><time>2026-05-03T10:37:47.548Z</time></trkpt><trkpt lat="42.27096" lon="14.02385"><ele>158.0</ele><time>2026-05-03T10:37:48.549Z</time></trkpt><trkpt lat="42.2709633" lon="14.02394"><ele>158.0</ele><time>2026-05-03T10:37:49.548Z</time></trkpt><trkpt lat="42.2709367" lon="14.0240567"><ele>158.0</ele><time>2026-05-03T10:37:51.548Z</time></trkpt><trkpt lat="42.2708767" lon="14.0241017"><ele>158.0</ele><time>2026-05-03T10:37:53.549Z</time></trkpt><trkpt lat="42.27078" lon="14.0241333"><ele>158.0</ele><time>2026-05-03T10:37:55.548Z</time></trkpt><trkpt lat="42.2707167" lon="14.0241433"><ele>158.0</ele><time>2026-05-03T10:37:56.548Z</time></trkpt><trkpt lat="42.2706517" lon="14.0241483"><ele>158.0</ele><time>2026-05-03T10:37:57.549Z</time></trkpt><trkpt lat="42.2705833" lon="14.0241483"><ele>159.60000000000002</ele><time>2026-05-03T10:37:58.549Z</time></trkpt><trkpt lat="42.2704767" lon="14.0241533"><ele>161.20000000000002</ele><time>2026-05-03T10:38:00.549Z</time></trkpt><trkpt lat="42.27038" lon="14.0241383"><ele>162.8</ele><time>2026-05-03T10:38:47.548Z</time></trkpt><trkpt lat="42.270255" lon="14.0241517"><ele>164.4</ele><time>2026-05-03T10:38:49.547Z</time></trkpt><trkpt lat="42.270185" lon="14.02415"><ele>166.0</ele><time>2026-05-03T10:38:50.548Z</time></trkpt><trkpt lat="42.270115" lon="14.0241517"><ele>170.0</ele><time>2026-05-03T10:38:51.548Z</time></trkpt><trkpt lat="42.2700367" lon="14.0241517"><ele>174.0</ele><time>2026-05-03T10:38:52.547Z</time></trkpt><trkpt lat="42.269955" lon="14.02416"><ele>178.0</ele><time>2026-05-03T10:38:53.548Z</time></trkpt><trkpt lat="42.2698733" lon="14.0241783"><ele>182.0</ele><time>2026-05-03T10:38:54.548Z</time></trkpt><trkpt lat="42.269785" lon="14.024225"><ele>186.0</ele><time>2026-05-03T10:38:55.548Z</time></trkpt><trkpt lat="42.269705" lon="14.0242733"><ele>190.0</ele><time>2026-05-03T10:38:56.547Z</time></trkpt><trkpt lat="42.2696433" lon="14.0243033"><ele>191.2</ele><time>2026-05-03T10:38:57.547Z</time></trkpt><trkpt lat="42.2695667" lon="14.0242983"><ele>192.4</ele><time>2026-05-03T10:38:58.548Z</time></trkpt><trkpt lat="42.2694733" lon="14.0242667"><ele>193.60000000000002</ele><time>2026-05-03T10:38:59.547Z</time></trkpt><trkpt lat="42.2693733" lon="14.0242183"><ele>194.8</ele><time>2026-05-03T10:39:00.548Z</time></trkpt><trkpt lat="42.2692783" lon="14.02417"><ele>196.0</ele><time>2026-05-03T10:39:01.548Z</time></trkpt><trkpt lat="42.2692017" lon="14.0241433"><ele>196.0</ele><time>2026-05-03T10:39:02.548Z</time></trkpt><trkpt lat="42.2691383" lon="14.0241367"><ele>196.0</ele><time>2026-05-03T10:39:03.548Z</time></trkpt><trkpt lat="42.26907" lon="14.024145"><ele>196.0</ele><time>2026-05-03T10:39:04.547Z</time></trkpt><trkpt lat="42.268985" lon="14.0242"><ele>196.0</ele><time>2026-05-03T10:39:05.547Z</time></trkpt><trkpt lat="42.268885" lon="14.0242533"><ele>196.0</ele><time>2026-05-03T10:39:06.548Z</time></trkpt><trkpt lat="42.2687667" lon="14.0243"><ele>196.75</ele><time>2026-05-03T10:39:07.547Z</time></trkpt><trkpt lat="42.26864" lon="14.0243517"><ele>197.5</ele><time>2026-05-03T10:39:08.548Z</time></trkpt><trkpt lat="42.26851" lon="14.0244033"><ele>198.25</ele><time>2026-05-03T10:39:09.548Z</time></trkpt><trkpt lat="42.2683817" lon="14.0244783"><ele>199.0</ele><time>2026-05-03T10:39:10.548Z</time></trkpt><trkpt lat="42.2682733" lon="14.0245633"><ele>199.0</ele><time>2026-05-03T10:39:11.547Z</time></trkpt><trkpt lat="42.268155" lon="14.0246617"><ele>199.0</ele><time>2026-05-03T10:39:12.548Z</time></trkpt><trkpt lat="42.2680583" lon="14.0247567"><ele>199.0</ele><time>2026-05-03T10:39:13.547Z</time></trkpt><trkpt lat="42.2679867" lon="14.02483"><ele>199.0</ele><time>2026-05-03T10:39:14.548Z</time></trkpt><trkpt lat="42.2679233" lon="14.0249"><ele>199.0</ele><time>2026-05-03T10:39:15.548Z</time></trkpt><trkpt lat="42.2678533" lon="14.0249617"><ele>205.79999999999998</ele><time>2026-05-03T10:39:16.547Z</time></trkpt><trkpt lat="42.2677767" lon="14.02502"><ele>212.6</ele><time>2026-05-03T10:39:17.548Z</time></trkpt><trkpt lat="42.2676783" lon="14.025065"><ele>219.4</ele><time>2026-05-03T10:39:18.548Z</time></trkpt><trkpt lat="42.2675833" lon="14.0251183"><ele>226.2</ele><time>2026-05-03T10:39:19.547Z</time></trkpt><trkpt lat="42.2675033" lon="14.0251467"><ele>233.0</ele><time>2026-05-03T10:39:20.548Z</time></trkpt><trkpt lat="42.2674333" lon="14.0251867"><ele>233.0</ele><time>2026-05-03T10:39:21.548Z</time></trkpt><trkpt lat="42.26733" lon="14.0252833"><ele>233.0</ele><time>2026-05-03T10:39:23.548Z</time></trkpt><trkpt lat="42.2672317" lon="14.0253517"><ele>233.0</ele><time>2026-05-03T10:39:25.548Z</time></trkpt><trkpt lat="42.2671383" lon="14.02533"><ele>233.0</ele><time>2026-05-03T10:39:27.547Z</time></trkpt><trkpt lat="42.2670833" lon="14.0252617"><ele>233.0</ele><time>2026-05-03T10:39:28.548Z</time></trkpt><trkpt lat="42.267015" lon="14.0251733"><ele>234.8</ele><time>2026-05-03T10:39:29.547Z</time></trkpt><trkpt lat="42.26694" lon="14.0250967"><ele>236.60000000000002</ele><time>2026-05-03T10:39:30.548Z</time></trkpt><trkpt lat="42.26685" lon="14.0249967"><ele>238.39999999999998</ele><time>2026-05-03T10:39:31.548Z</time></trkpt><trkpt lat="42.2667667" lon="14.02489"><ele>240.2</ele><time>2026-05-03T10:39:32.548Z</time></trkpt><trkpt lat="42.2666917" lon="14.0247933"><ele>242.0</ele><time>2026-05-03T10:39:33.548Z</time></trkpt><trkpt lat="42.2666133" lon="14.0247"><ele>237.39999999999998</ele><time>2026-05-03T10:39:34.547Z</time></trkpt><trkpt lat="42.2665283" lon="14.024605"><ele>232.79999999999998</ele><time>2026-05-03T10:39:35.548Z</time></trkpt><trkpt lat="42.266455" lon="14.02452"><ele>228.2</ele><time>2026-05-03T10:39:36.547Z</time></trkpt><trkpt lat="42.2663967" lon="14.024465"><ele>223.6</ele><time>2026-05-03T10:39:37.548Z</time></trkpt><trkpt lat="42.266295" lon="14.0244067"><ele>219.0</ele><time>2026-05-03T10:39:39.547Z</time></trkpt><trkpt lat="42.2661933" lon="14.0243133"><ele>219.0</ele><time>2026-05-03T10:39:41.548Z</time></trkpt><trkpt lat="42.2661133" lon="14.02423"><ele>219.0</ele><time>2026-05-03T10:39:43.548Z</time></trkpt><trkpt lat="42.2660333" lon="14.0242767"><ele>219.0</ele><time>2026-05-03T10:39:45.548Z</time></trkpt><trkpt lat="42.2659683" lon="14.0243367"><ele>219.0</ele><time>2026-05-03T10:39:46.548Z</time></trkpt><trkpt lat="42.2659" lon="14.0243867"><ele>219.0</ele><time>2026-05-03T10:39:47.548Z</time></trkpt><trkpt lat="42.2658183" lon="14.02443"><ele>219.0</ele><time>2026-05-03T10:39:48.548Z</time></trkpt><trkpt lat="42.265715" lon="14.024465"><ele>216.2</ele><time>2026-05-03T10:39:49.547Z</time></trkpt><trkpt lat="42.2655983" lon="14.0244867"><ele>213.39999999999998</ele><time>2026-05-03T10:39:50.548Z</time></trkpt><trkpt lat="42.265485" lon="14.0245"><ele>210.6</ele><time>2026-05-03T10:39:51.548Z</time></trkpt><trkpt lat="42.2653817" lon="14.0245233"><ele>207.8</ele><time>2026-05-03T10:39:52.548Z</time></trkpt><trkpt lat="42.2652833" lon="14.024555"><ele>205.0</ele><time>2026-05-03T10:39:53.547Z</time></trkpt><trkpt lat="42.2651917" lon="14.0245733"><ele>204.99999999999997</ele><time>2026-05-03T10:39:54.548Z</time></trkpt><trkpt lat="42.265115" lon="14.02458"><ele>205.0</ele><time>2026-05-03T10:39:55.547Z</time></trkpt><trkpt lat="42.2650467" lon="14.024595"><ele>205.0</ele><time>2026-05-03T10:39:56.548Z</time></trkpt><trkpt lat="42.2649683" lon="14.0247033"><ele>205.0</ele><time>2026-05-03T10:39:58.548Z</time></trkpt><trkpt lat="42.26494" lon="14.0247967"><ele>204.99999999999997</ele><time>2026-05-03T10:39:59.548Z</time></trkpt><trkpt lat="42.2649067" lon="14.0248867"><ele>205.0</ele><time>2026-05-03T10:40:00.548Z</time></trkpt><trkpt lat="42.26486" lon="14.0249567"><ele>209.2</ele><time>2026-05-03T10:40:01.547Z</time></trkpt><trkpt lat="42.2647567" lon="14.025025"><ele>213.4</ele><time>2026-05-03T10:40:03.548Z</time></trkpt><trkpt lat="42.2646767" lon="14.0250333"><ele>217.60000000000002</ele><time>2026-05-03T10:40:04.547Z</time></trkpt><trkpt lat="42.2645867" lon="14.025035"><ele>221.8</ele><time>2026-05-03T10:40:05.548Z</time></trkpt><trkpt lat="42.2644667" lon="14.025035"><ele>226.0</ele><time>2026-05-03T10:40:06.548Z</time></trkpt><trkpt lat="42.26435" lon="14.0250433"><ele>226.0</ele><time>2026-05-03T10:40:07.548Z</time></trkpt><trkpt lat="42.26426" lon="14.025035"><ele>226.00000000000003</ele><time>2026-05-03T10:40:08.547Z</time></trkpt><trkpt lat="42.2641633" lon="14.024995"><ele>226.00000000000003</ele><time>2026-05-03T10:40:09.548Z</time></trkpt><trkpt lat="42.264065" lon="14.0249517"><ele>226.0</ele><time>2026-05-03T10:40:10.548Z</time></trkpt><trkpt lat="42.2639583" lon="14.0249"><ele>226.0</ele><time>2026-05-03T10:40:11.548Z</time></trkpt><trkpt lat="42.2638633" lon="14.0248583"><ele>225.49999999999997</ele><time>2026-05-03T10:40:12.548Z</time></trkpt><trkpt lat="42.2637717" lon="14.0248267"><ele>225.0</ele><time>2026-05-03T10:40:13.547Z</time></trkpt><trkpt lat="42.2636983" lon="14.0247867"><ele>224.5</ele><time>2026-05-03T10:40:14.548Z</time></trkpt><trkpt lat="42.263635" lon="14.0247533"><ele>224.0</ele><time>2026-05-03T10:40:15.547Z</time></trkpt><trkpt lat="42.2635333" lon="14.02473"><ele>223.49999999999997</ele><time>2026-05-03T10:40:17.548Z</time></trkpt><trkpt lat="42.2634717" lon="14.02465"><ele>223.0</ele><time>2026-05-03T10:40:19.548Z</time></trkpt><trkpt lat="42.2634367" lon="14.024575"><ele>223.0</ele><time>2026-05-03T10:40:20.548Z</time></trkpt><trkpt lat="42.26339" lon="14.0244633"><ele>223.0</ele><time>2026-05-03T10:40:21.547Z</time></trkpt><trkpt lat="42.2633317" lon="14.0243333"><ele>223.0</ele><time>2026-05-03T10:40:22.547Z</time></trkpt><trkpt lat="42.263265" lon="14.0241867"><ele>223.0</ele><time>2026-05-03T10:40:23.548Z</time></trkpt><trkpt lat="42.2632133" lon="14.0240717"><ele>223.0</ele><time>2026-05-03T10:40:24.548Z</time></trkpt><trkpt lat="42.2631517" lon="14.0239967"><ele>224.16666666666666</ele><time>2026-05-03T10:40:25.547Z</time></trkpt><trkpt lat="42.2630733" lon="14.0239467"><ele>225.33333333333331</ele><time>2026-05-03T10:40:26.548Z</time></trkpt><trkpt lat="42.262995" lon="14.02392"><ele>226.5</ele><time>2026-05-03T10:40:27.547Z</time></trkpt><trkpt lat="42.2629167" lon="14.023925"><ele>227.66666666666669</ele><time>2026-05-03T10:40:28.547Z</time></trkpt><trkpt lat="42.26283" lon="14.0239367"><ele>228.83333333333334</ele><time>2026-05-03T10:40:29.547Z</time></trkpt><trkpt lat="42.2627333" lon="14.0239417"><ele>230.0</ele><time>2026-05-03T10:40:30.548Z</time></trkpt><trkpt lat="42.2626583" lon="14.0239217"><ele>230.00000000000003</ele><time>2026-05-03T10:40:31.548Z</time></trkpt><trkpt lat="42.2625783" lon="14.0238917"><ele>230.0</ele><time>2026-05-03T10:40:32.548Z</time></trkpt><trkpt lat="42.262495" lon="14.0238633"><ele>230.0</ele><time>2026-05-03T10:40:33.548Z</time></trkpt><trkpt lat="42.2624183" lon="14.0238467"><ele>230.0</ele><time>2026-05-03T10:40:34.548Z</time></trkpt><trkpt lat="42.2623433" lon="14.02382"><ele>230.00000000000003</ele><time>2026-05-03T10:40:35.547Z</time></trkpt><trkpt lat="42.26227" lon="14.023805"><ele>230.0</ele><time>2026-05-03T10:40:36.547Z</time></trkpt><trkpt lat="42.2621817" lon="14.0237983"><ele>232.00000000000003</ele><time>2026-05-03T10:40:37.547Z</time></trkpt><trkpt lat="42.2620867" lon="14.02379"><ele>234.0</ele><time>2026-05-03T10:40:38.547Z</time></trkpt><trkpt lat="42.2619983" lon="14.0237617"><ele>236.0</ele><time>2026-05-03T10:40:39.547Z</time></trkpt><trkpt lat="42.26193" lon="14.0237233"><ele>238.0</ele><time>2026-05-03T10:40:40.547Z</time></trkpt><trkpt lat="42.2620067" lon="14.023765"><ele>240.00000000000003</ele><time>2026-05-03T10:41:08.548Z</time></trkpt><trkpt lat="42.262075" lon="14.0237833"><ele>242.0</ele><time>2026-05-03T10:41:09.548Z</time></trkpt><trkpt lat="42.2621533" lon="14.0237967"><ele>242.00000000000003</ele><time>2026-05-03T10:41:10.547Z</time></trkpt><trkpt lat="42.2622267" lon="14.023805"><ele>242.0</ele><time>2026-05-03T10:41:11.547Z</time></trkpt><trkpt lat="42.2622983" lon="14.0238117"><ele>242.0</ele><time>2026-05-03T10:41:12.548Z</time></trkpt><trkpt lat="42.262415" lon="14.0238433"><ele>242.0</ele><time>2026-05-03T10:41:14.547Z</time></trkpt><trkpt lat="42.26252" lon="14.0238833"><ele>242.00000000000003</ele><time>2026-05-03T10:41:16.548Z</time></trkpt><trkpt lat="42.26258" lon="14.023825"><ele>242.0</ele><time>2026-05-03T10:41:20.548Z</time></trkpt><trkpt lat="42.2625283" lon="14.02377"><ele>242.0</ele><time>2026-05-03T10:41:22.547Z</time></trkpt><trkpt lat="42.2624283" lon="14.0237333"><ele>242.0</ele><time>2026-05-03T10:41:24.548Z</time></trkpt><trkpt lat="42.2623467" lon="14.0237117"><ele>242.0</ele><time>2026-05-03T10:41:25.548Z</time></trkpt><trkpt lat="42.262245" lon="14.02366"><ele>242.0</ele><time>2026-05-03T10:41:26.548Z</time></trkpt><trkpt lat="42.2621383" lon="14.0235817"><ele>242.0</ele><time>2026-05-03T10:41:27.548Z</time></trkpt><trkpt lat="42.2620383" lon="14.0234883"><ele>242.00000000000003</ele><time>2026-05-03T10:41:28.548Z</time></trkpt><trkpt lat="42.2619767" lon="14.0234283"><ele>242.0</ele><time>2026-05-03T10:41:29.548Z</time></trkpt><trkpt lat="42.2619367" lon="14.0233617"><ele>242.0</ele><time>2026-05-03T10:41:31.548Z</time></trkpt><trkpt lat="42.2619133" lon="14.02327"><ele>242.0</ele><time>2026-05-03T10:41:33.548Z</time></trkpt><trkpt lat="42.2619583" lon="14.02319"><ele>242.00000000000003</ele><time>2026-05-03T10:41:36.547Z</time></trkpt><trkpt lat="42.2620717" lon="14.0230717"><ele>242.0</ele><time>2026-05-03T10:41:38.547Z</time></trkpt><trkpt lat="42.2621217" lon="14.02294"><ele>238.75</ele><time>2026-05-03T10:41:39.548Z</time></trkpt><trkpt lat="42.2621617" lon="14.0227683"><ele>235.5</ele><time>2026-05-03T10:41:40.548Z</time></trkpt><trkpt lat="42.2621833" lon="14.0225917"><ele>232.25</ele><time>2026-05-03T10:41:41.547Z</time></trkpt><trkpt lat="42.2621833" lon="14.0224367"><ele>229.0</ele><time>2026-05-03T10:41:42.548Z</time></trkpt><trkpt lat="42.262165" lon="14.02231"><ele>226.0</ele><time>2026-05-03T10:41:43.548Z</time></trkpt><trkpt lat="42.2621167" lon="14.022205"><ele>223.0</ele><time>2026-05-03T10:41:44.547Z</time></trkpt><trkpt lat="42.2620383" lon="14.0221033"><ele>220.0</ele><time>2026-05-03T10:41:45.547Z</time></trkpt><trkpt lat="42.2619333" lon="14.022005"><ele>217.0</ele><time>2026-05-03T10:41:46.548Z</time></trkpt><trkpt lat="42.2618117" lon="14.0219283"><ele>217.0</ele><time>2026-05-03T10:41:47.547Z</time></trkpt><trkpt lat="42.261695" lon="14.0218833"><ele>217.0</ele><time>2026-05-03T10:41:48.548Z</time></trkpt><trkpt lat="42.2615783" lon="14.0218767"><ele>217.0</ele><time>2026-05-03T10:41:49.548Z</time></trkpt><trkpt lat="42.2614433" lon="14.0219033"><ele>217.0</ele><time>2026-05-03T10:41:50.547Z</time></trkpt><trkpt lat="42.2613017" lon="14.021955"><ele>215.0</ele><time>2026-05-03T10:41:51.547Z</time></trkpt><trkpt lat="42.2611817" lon="14.021995"><ele>213.0</ele><time>2026-05-03T10:41:52.548Z</time></trkpt><trkpt lat="42.26109" lon="14.0220233"><ele>211.0</ele><time>2026-05-03T10:41:53.548Z</time></trkpt><trkpt lat="42.2610067" lon="14.0220667"><ele>209.0</ele><time>2026-05-03T10:41:55.546Z</time></trkpt><trkpt lat="42.2609433" lon="14.0222083"><ele>207.0</ele><time>2026-05-03T10:41:57.547Z</time></trkpt><trkpt lat="42.26089" lon="14.0222983"><ele>207.0</ele><time>2026-05-03T10:41:58.547Z</time></trkpt><trkpt lat="42.26082" lon="14.0224"><ele>207.0</ele><time>2026-05-03T10:41:59.547Z</time></trkpt><trkpt lat="42.26074" lon="14.0225233"><ele>207.0</ele><time>2026-05-03T10:42:00.546Z</time></trkpt><trkpt lat="42.2606633" lon="14.0226833"><ele>207.0</ele><time>2026-05-03T10:42:01.546Z</time></trkpt><trkpt lat="42.2605933" lon="14.0228583"><ele>207.2</ele><time>2026-05-03T10:42:02.547Z</time></trkpt><trkpt lat="42.2605267" lon="14.023005"><ele>207.39999999999998</ele><time>2026-05-03T10:42:03.547Z</time></trkpt><trkpt lat="42.2604583" lon="14.02311"><ele>207.60000000000002</ele><time>2026-05-03T10:42:04.546Z</time></trkpt><trkpt lat="42.2603883" lon="14.0231883"><ele>207.8</ele><time>2026-05-03T10:42:05.547Z</time></trkpt><trkpt lat="42.2603133" lon="14.0232317"><ele>208.0</ele><time>2026-05-03T10:42:06.546Z</time></trkpt><trkpt lat="42.2602183" lon="14.023255"><ele>208.0</ele><time>2026-05-03T10:42:07.547Z</time></trkpt><trkpt lat="42.2600967" lon="14.02325"><ele>208.0</ele><time>2026-05-03T10:42:08.547Z</time></trkpt><trkpt lat="42.2599667" lon="14.023225"><ele>208.0</ele><time>2026-05-03T10:42:09.547Z</time></trkpt><trkpt lat="42.2598233" lon="14.02323"><ele>208.0</ele><time>2026-05-03T10:42:10.547Z</time></trkpt><trkpt lat="42.2597" lon="14.0232383"><ele>209.16666666666666</ele><time>2026-05-03T10:42:11.547Z</time></trkpt><trkpt lat="42.2596117" lon="14.023245"><ele>210.33333333333331</ele><time>2026-05-03T10:42:12.547Z</time></trkpt><trkpt lat="42.2595433" lon="14.023255"><ele>211.5</ele><time>2026-05-03T10:42:13.547Z</time></trkpt><trkpt lat="42.25947" lon="14.0233117"><ele>212.66666666666669</ele><time>2026-05-03T10:42:15.547Z</time></trkpt><trkpt lat="42.2594517" lon="14.023445"><ele>213.83333333333334</ele><time>2026-05-03T10:42:17.547Z</time></trkpt><trkpt lat="42.2594567" lon="14.0235467"><ele>215.0</ele><time>2026-05-03T10:42:18.547Z</time></trkpt><trkpt lat="42.2594717" lon="14.02367"><ele>215.6</ele><time>2026-05-03T10:42:19.546Z</time></trkpt><trkpt lat="42.2595" lon="14.02381"><ele>216.2</ele><time>2026-05-03T10:42:20.547Z</time></trkpt><trkpt lat="42.25952" lon="14.0239267"><ele>216.8</ele><time>2026-05-03T10:42:21.547Z</time></trkpt><trkpt lat="42.2595217" lon="14.02404"><ele>217.4</ele><time>2026-05-03T10:42:22.546Z</time></trkpt><trkpt lat="42.2595017" lon="14.0241567"><ele>218.0</ele><time>2026-05-03T10:42:23.547Z</time></trkpt><trkpt lat="42.259475" lon="14.0242817"><ele>221.0</ele><time>2026-05-03T10:42:24.546Z</time></trkpt><trkpt lat="42.2594517" lon="14.0244283"><ele>224.0</ele><time>2026-05-03T10:42:25.547Z</time></trkpt><trkpt lat="42.259435" lon="14.0245833"><ele>227.0</ele><time>2026-05-03T10:42:26.547Z</time></trkpt><trkpt lat="42.2594217" lon="14.0247433"><ele>230.0</ele><time>2026-05-03T10:42:27.546Z</time></trkpt><trkpt lat="42.259405" lon="14.0248817"><ele>232.6</ele><time>2026-05-03T10:42:28.546Z</time></trkpt><trkpt lat="42.2594017" lon="14.0250017"><ele>235.2</ele><time>2026-05-03T10:42:29.547Z</time></trkpt><trkpt lat="42.2594083" lon="14.0251083"><ele>237.8</ele><time>2026-05-03T10:42:30.546Z</time></trkpt><trkpt lat="42.25946" lon="14.02525"><ele>240.4</ele><time>2026-05-03T10:42:32.547Z</time></trkpt><trkpt lat="42.259545" lon="14.02534"><ele>243.0</ele><time>2026-05-03T10:42:34.547Z</time></trkpt><trkpt lat="42.259615" lon="14.0253667"><ele>243.0</ele><time>2026-05-03T10:42:35.547Z</time></trkpt><trkpt lat="42.2596967" lon="14.02541"><ele>243.0</ele><time>2026-05-03T10:42:36.547Z</time></trkpt><trkpt lat="42.25979" lon="14.02546"><ele>243.0</ele><time>2026-05-03T10:42:37.547Z</time></trkpt><trkpt lat="42.2599" lon="14.0255333"><ele>243.0</ele><time>2026-05-03T10:42:38.547Z</time></trkpt><trkpt lat="42.259995" lon="14.025615"><ele>243.0</ele><time>2026-05-03T10:42:39.547Z</time></trkpt><trkpt lat="42.2600817" lon="14.0256967"><ele>243.33333333333334</ele><time>2026-05-03T10:42:40.546Z</time></trkpt><trkpt lat="42.26014" lon="14.02579"><ele>243.66666666666669</ele><time>2026-05-03T10:42:41.546Z</time></trkpt><trkpt lat="42.260205" lon="14.0258717"><ele>244.0</ele><time>2026-05-03T10:42:42.547Z</time></trkpt><trkpt lat="42.2602717" lon="14.0259383"><ele>244.33333333333334</ele><time>2026-05-03T10:42:43.547Z</time></trkpt><trkpt lat="42.2603483" lon="14.025985"><ele>244.66666666666669</ele><time>2026-05-03T10:42:44.546Z</time></trkpt><trkpt lat="42.26041" lon="14.0260167"><ele>245.0</ele><time>2026-05-03T10:42:45.547Z</time></trkpt><trkpt lat="42.2604517" lon="14.02614"><ele>249.2</ele><time>2026-05-03T10:42:47.547Z</time></trkpt><trkpt lat="42.26047" lon="14.0262283"><ele>253.4</ele><time>2026-05-03T10:42:48.546Z</time></trkpt><trkpt lat="42.26051" lon="14.02633"><ele>257.6</ele><time>2026-05-03T10:42:49.547Z</time></trkpt><trkpt lat="42.2605683" lon="14.0264483"><ele>261.8</ele><time>2026-05-03T10:42:50.546Z</time></trkpt><trkpt lat="42.2606383" lon="14.026585"><ele>266.0</ele><time>2026-05-03T10:42:51.547Z</time></trkpt><trkpt lat="42.2607267" lon="14.0267317"><ele>270.2</ele><time>2026-05-03T10:42:52.546Z</time></trkpt><trkpt lat="42.2608167" lon="14.02688"><ele>274.40000000000003</ele><time>2026-05-03T10:42:53.546Z</time></trkpt><trkpt lat="42.2608983" lon="14.02701"><ele>278.6</ele><time>2026-05-03T10:42:54.547Z</time></trkpt><trkpt lat="42.260945" lon="14.0271133"><ele>282.8</ele><time>2026-05-03T10:42:55.547Z</time></trkpt><trkpt lat="42.2609983" lon="14.0271767"><ele>287.0</ele><time>2026-05-03T10:42:56.546Z</time></trkpt><trkpt lat="42.2610533" lon="14.0272217"><ele>287.0</ele><time>2026-05-03T10:42:57.547Z</time></trkpt><trkpt lat="42.26114" lon="14.0272483"><ele>287.0</ele><time>2026-05-03T10:42:59.547Z</time></trkpt><trkpt lat="42.2611783" lon="14.0271233"><ele>287.0</ele><time>2026-05-03T10:43:01.546Z</time></trkpt><trkpt lat="42.2611517" lon="14.0270217"><ele>287.0</ele><time>2026-05-03T10:43:02.547Z</time></trkpt><trkpt lat="42.26111" lon="14.0268683"><ele>287.0</ele><time>2026-05-03T10:43:03.546Z</time></trkpt><trkpt lat="42.2610517" lon="14.02668"><ele>284.5</ele><time>2026-05-03T10:43:04.547Z</time></trkpt><trkpt lat="42.26099" lon="14.026485"><ele>282.0</ele><time>2026-05-03T10:43:05.547Z</time></trkpt><trkpt lat="42.260935" lon="14.0263233"><ele>279.5</ele><time>2026-05-03T10:43:06.547Z</time></trkpt><trkpt lat="42.260905" lon="14.0262117"><ele>277.0</ele><time>2026-05-03T10:43:07.546Z</time></trkpt><trkpt lat="42.260905" lon="14.0261067"><ele>277.0</ele><time>2026-05-03T10:43:09.546Z</time></trkpt><trkpt lat="42.260965" lon="14.02624"><ele>277.0</ele><time>2026-05-03T10:43:17.546Z</time></trkpt><trkpt lat="42.26101" lon="14.02637"><ele>277.0</ele><time>2026-05-03T10:43:18.546Z</time></trkpt><trkpt lat="42.2610633" lon="14.0265217"><ele>277.0</ele><time>2026-05-03T10:43:19.546Z</time></trkpt><trkpt lat="42.2611367" lon="14.026695"><ele>280.3333333333333</ele><time>2026-05-03T10:43:20.546Z</time></trkpt><trkpt lat="42.2612067" lon="14.0268783"><ele>283.6666666666667</ele><time>2026-05-03T10:43:21.547Z</time></trkpt><trkpt lat="42.261295" lon="14.02706"><ele>287.0</ele><time>2026-05-03T10:43:22.547Z</time></trkpt><trkpt lat="42.26137" lon="14.0272667"><ele>287.0</ele><time>2026-05-03T10:43:23.546Z</time></trkpt><trkpt lat="42.2614267" lon="14.02747"><ele>287.0</ele><time>2026-05-03T10:43:24.546Z</time></trkpt><trkpt lat="42.261475" lon="14.0276867"><ele>287.0</ele><time>2026-05-03T10:43:25.546Z</time></trkpt><trkpt lat="42.2615533" lon="14.0278883"><ele>293.0</ele><time>2026-05-03T10:43:26.547Z</time></trkpt><trkpt lat="42.261675" lon="14.028065"><ele>299.0</ele><time>2026-05-03T10:43:27.547Z</time></trkpt><trkpt lat="42.2617867" lon="14.0282283"><ele>305.0</ele><time>2026-05-03T10:43:28.546Z</time></trkpt><trkpt lat="42.2618783" lon="14.0283933"><ele>305.8</ele><time>2026-05-03T10:43:29.547Z</time></trkpt><trkpt lat="42.261935" lon="14.0285483"><ele>306.6</ele><time>2026-05-03T10:43:30.546Z</time></trkpt><trkpt lat="42.2619883" lon="14.0286867"><ele>307.4</ele><time>2026-05-03T10:43:31.547Z</time></trkpt><trkpt lat="42.2620267" lon="14.0287933"><ele>308.2</ele><time>2026-05-03T10:43:32.547Z</time></trkpt><trkpt lat="42.2621167" lon="14.0288733"><ele>309.0</ele><time>2026-05-03T10:43:34.546Z</time></trkpt><trkpt lat="42.262225" lon="14.0287517"><ele>309.0</ele><time>2026-05-03T10:43:36.547Z</time></trkpt><trkpt lat="42.2622967" lon="14.0286417"><ele>309.0</ele><time>2026-05-03T10:43:37.547Z</time></trkpt><trkpt lat="42.26237" lon="14.0285233"><ele>309.0</ele><time>2026-05-03T10:43:38.547Z</time></trkpt><trkpt lat="42.262435" lon="14.028455"><ele>309.0</ele><time>2026-05-03T10:43:39.547Z</time></trkpt><trkpt lat="42.2625633" lon="14.0284433"><ele>309.0</ele><time>2026-05-03T10:43:41.546Z</time></trkpt><trkpt lat="42.2626467" lon="14.0284883"><ele>309.0</ele><time>2026-05-03T10:43:42.547Z</time></trkpt><trkpt lat="42.262765" lon="14.02855"><ele>309.0</ele><time>2026-05-03T10:43:43.546Z</time></trkpt><trkpt lat="42.262895" lon="14.0286283"><ele>309.0</ele><time>2026-05-03T10:43:44.547Z</time></trkpt><trkpt lat="42.2630317" lon="14.0287167"><ele>309.0</ele><time>2026-05-03T10:43:45.547Z</time></trkpt><trkpt lat="42.263175" lon="14.0288133"><ele>307.3333333333333</ele><time>2026-05-03T10:43:46.547Z</time></trkpt><trkpt lat="42.2633183" lon="14.0289167"><ele>305.66666666666663</ele><time>2026-05-03T10:43:47.547Z</time></trkpt><trkpt lat="42.26347" lon="14.0290133"><ele>304.0</ele><time>2026-05-03T10:43:48.546Z</time></trkpt><trkpt lat="42.263625" lon="14.0291167"><ele>304.66666666666663</ele><time>2026-05-03T10:43:49.547Z</time></trkpt><trkpt lat="42.2638033" lon="14.0292133"><ele>305.3333333333333</ele><time>2026-05-03T10:43:50.547Z</time></trkpt><trkpt lat="42.2639933" lon="14.0293033"><ele>306.0</ele><time>2026-05-03T10:43:51.546Z</time></trkpt><trkpt lat="42.2641933" lon="14.0293733"><ele>306.0</ele><time>2026-05-03T10:43:52.546Z</time></trkpt><trkpt lat="42.2643883" lon="14.0294067"><ele>306.0</ele><time>2026-05-03T10:43:53.547Z</time></trkpt><trkpt lat="42.2645683" lon="14.0293967"><ele>306.0</ele><time>2026-05-03T10:43:54.547Z</time></trkpt><trkpt lat="42.2647283" lon="14.0293633"><ele>306.0</ele><time>2026-05-03T10:43:55.546Z</time></trkpt><trkpt lat="42.2648633" lon="14.0293283"><ele>306.0</ele><time>2026-05-03T10:43:56.547Z</time></trkpt><trkpt lat="42.2649733" lon="14.0292867"><ele>306.0</ele><time>2026-05-03T10:43:57.546Z</time></trkpt><trkpt lat="42.2650583" lon="14.0292583"><ele>306.0</ele><time>2026-05-03T10:43:58.546Z</time></trkpt><trkpt lat="42.26515" lon="14.0292233"><ele>306.0</ele><time>2026-05-03T10:44:00.547Z</time></trkpt><trkpt lat="42.2650767" lon="14.0291933"><ele>306.0</ele><time>2026-05-03T10:44:04.546Z</time></trkpt><trkpt lat="42.2649917" lon="14.0292583"><ele>306.0</ele><time>2026-05-03T10:44:06.547Z</time></trkpt><trkpt lat="42.2649683" lon="14.0293483"><ele>306.0</ele><time>2026-05-03T10:44:09.547Z</time></trkpt><trkpt lat="42.2650367" lon="14.0294717"><ele>306.0</ele><time>2026-05-03T10:44:12.547Z</time></trkpt><trkpt lat="42.265105" lon="14.0296233"><ele>306.0</ele><time>2026-05-03T10:44:14.546Z</time></trkpt><trkpt lat="42.2651417" lon="14.0297133"><ele>306.0</ele><time>2026-05-03T10:44:15.547Z</time></trkpt><trkpt lat="42.2651583" lon="14.029815"><ele>306.0</ele><time>2026-05-03T10:44:16.547Z</time></trkpt><trkpt lat="42.26517" lon="14.0299133"><ele>306.0</ele><time>2026-05-03T10:44:17.546Z</time></trkpt><trkpt lat="42.2651667" lon="14.0300283"><ele>306.0</ele><time>2026-05-03T10:44:18.547Z</time></trkpt><trkpt lat="42.2651633" lon="14.0301267"><ele>306.0</ele><time>2026-05-03T10:44:19.547Z</time></trkpt><trkpt lat="42.26518" lon="14.030215"><ele>306.0</ele><time>2026-05-03T10:44:21.547Z</time></trkpt><trkpt lat="42.2652767" lon="14.0302867"><ele>306.40000000000003</ele><time>2026-05-03T10:44:29.547Z</time></trkpt><trkpt lat="42.2653483" lon="14.0303817"><ele>306.8</ele><time>2026-05-03T10:44:31.547Z</time></trkpt><trkpt lat="42.265395" lon="14.0305233"><ele>307.20000000000005</ele><time>2026-05-03T10:44:33.547Z</time></trkpt><trkpt lat="42.2654133" lon="14.0306817"><ele>307.6</ele><time>2026-05-03T10:44:35.547Z</time></trkpt><trkpt lat="42.26543" lon="14.0307733"><ele>308.0</ele><time>2026-05-03T10:44:36.547Z</time></trkpt><trkpt lat="42.2654517" lon="14.0308583"><ele>308.0</ele><time>2026-05-03T10:44:37.546Z</time></trkpt><trkpt lat="42.2654633" lon="14.030945"><ele>308.0</ele><time>2026-05-03T10:44:38.547Z</time></trkpt><trkpt lat="42.2654783" lon="14.0310517"><ele>308.0</ele><time>2026-05-03T10:44:39.547Z</time></trkpt><trkpt lat="42.26551" lon="14.031175"><ele>308.0</ele><time>2026-05-03T10:44:40.547Z</time></trkpt><trkpt lat="42.2655517" lon="14.031285"><ele>308.0</ele><time>2026-05-03T10:44:41.547Z</time></trkpt><trkpt lat="42.2655967" lon="14.031415"><ele>308.0</ele><time>2026-05-03T10:44:42.547Z</time></trkpt><trkpt lat="42.2656517" lon="14.0315583"><ele>303.25</ele><time>2026-05-03T10:44:43.547Z</time></trkpt><trkpt lat="42.2656967" lon="14.031685"><ele>298.5</ele><time>2026-05-03T10:44:44.547Z</time></trkpt><trkpt lat="42.2657317" lon="14.031825"><ele>293.75</ele><time>2026-05-03T10:44:45.546Z</time></trkpt><trkpt lat="42.2657717" lon="14.0319833"><ele>289.0</ele><time>2026-05-03T10:44:46.547Z</time></trkpt><trkpt lat="42.2658233" lon="14.0321417"><ele>289.0</ele><time>2026-05-03T10:44:47.546Z</time></trkpt><trkpt lat="42.2658783" lon="14.03228"><ele>289.0</ele><time>2026-05-03T10:44:48.547Z</time></trkpt><trkpt lat="42.2659317" lon="14.0323983"><ele>289.0</ele><time>2026-05-03T10:44:49.547Z</time></trkpt><trkpt lat="42.266" lon="14.0324983"><ele>289.0</ele><time>2026-05-03T10:44:50.546Z</time></trkpt><trkpt lat="42.26607" lon="14.032595"><ele>289.0</ele><time>2026-05-03T10:44:51.546Z</time></trkpt><trkpt lat="42.266135" lon="14.032695"><ele>287.66666666666663</ele><time>2026-05-03T10:44:52.547Z</time></trkpt><trkpt lat="42.2662" lon="14.032775"><ele>286.3333333333333</ele><time>2026-05-03T10:44:53.547Z</time></trkpt><trkpt lat="42.2662733" lon="14.032855"><ele>285.0</ele><time>2026-05-03T10:44:54.547Z</time></trkpt><trkpt lat="42.2663383" lon="14.0328983"><ele>283.6666666666667</ele><time>2026-05-03T10:44:55.547Z</time></trkpt><trkpt lat="42.2664083" lon="14.03293"><ele>282.33333333333337</ele><time>2026-05-03T10:44:56.546Z</time></trkpt><trkpt lat="42.266505" lon="14.032945"><ele>281.0</ele><time>2026-05-03T10:44:58.547Z</time></trkpt><trkpt lat="42.26661" lon="14.0328617"><ele>278.2</ele><time>2026-05-03T10:45:00.547Z</time></trkpt><trkpt lat="42.2666567" lon="14.0327883"><ele>275.40000000000003</ele><time>2026-05-03T10:45:01.546Z</time></trkpt><trkpt lat="42.26673" lon="14.0326933"><ele>272.6</ele><time>2026-05-03T10:45:03.547Z</time></trkpt><trkpt lat="42.2668033" lon="14.0326967"><ele>269.8</ele><time>2026-05-03T10:45:06.546Z</time></trkpt><trkpt lat="42.26682" lon="14.0328617"><ele>267.0</ele><time>2026-05-03T10:45:08.547Z</time></trkpt><trkpt lat="42.2668183" lon="14.03302"><ele>267.0</ele><time>2026-05-03T10:45:09.547Z</time></trkpt><trkpt lat="42.26681" lon="14.0331967"><ele>267.0</ele><time>2026-05-03T10:45:10.546Z</time></trkpt><trkpt lat="42.2668067" lon="14.033355"><ele>267.0</ele><time>2026-05-03T10:45:11.547Z</time></trkpt><trkpt lat="42.2667933" lon="14.0334733"><ele>267.0</ele><time>2026-05-03T10:45:12.546Z</time></trkpt><trkpt lat="42.2667733" lon="14.0336133"><ele>267.0</ele><time>2026-05-03T10:45:14.547Z</time></trkpt><trkpt lat="42.2667767" lon="14.0337317"><ele>264.6</ele><time>2026-05-03T10:45:16.547Z</time></trkpt><trkpt lat="42.2668083" lon="14.0338517"><ele>262.2</ele><time>2026-05-03T10:45:18.547Z</time></trkpt><trkpt lat="42.2668483" lon="14.0339633"><ele>259.8</ele><time>2026-05-03T10:45:20.547Z</time></trkpt><trkpt lat="42.2668883" lon="14.034045"><ele>257.4</ele><time>2026-05-03T10:45:22.547Z</time></trkpt><trkpt lat="42.2669617" lon="14.0341817"><ele>255.0</ele><time>2026-05-03T10:45:24.547Z</time></trkpt><trkpt lat="42.2670117" lon="14.034255"><ele>253.5</ele><time>2026-05-03T10:45:25.547Z</time></trkpt><trkpt lat="42.26706" lon="14.0343417"><ele>252.0</ele><time>2026-05-03T10:45:26.546Z</time></trkpt><trkpt lat="42.2671067" lon="14.0344267"><ele>250.5</ele><time>2026-05-03T10:45:27.547Z</time></trkpt><trkpt lat="42.2671517" lon="14.0344933"><ele>249.0</ele><time>2026-05-03T10:45:28.547Z</time></trkpt><trkpt lat="42.2672283" lon="14.0346333"><ele>247.5</ele><time>2026-05-03T10:45:30.547Z</time></trkpt><trkpt lat="42.2672717" lon="14.034715"><ele>246.0</ele><time>2026-05-03T10:45:31.546Z</time></trkpt><trkpt lat="42.2673117" lon="14.0347967"><ele>246.0</ele><time>2026-05-03T10:45:32.547Z</time></trkpt><trkpt lat="42.2673533" lon="14.034935"><ele>246.00000000000003</ele><time>2026-05-03T10:45:34.546Z</time></trkpt><trkpt lat="42.2673717" lon="14.0350733"><ele>246.00000000000003</ele><time>2026-05-03T10:45:36.547Z</time></trkpt><trkpt lat="42.2673667" lon="14.0352017"><ele>246.0</ele><time>2026-05-03T10:45:38.547Z</time></trkpt><trkpt lat="42.2673583" lon="14.0353083"><ele>246.0</ele><time>2026-05-03T10:45:40.546Z</time></trkpt><trkpt lat="42.2673533" lon="14.035455"><ele>244.20000000000002</ele><time>2026-05-03T10:45:42.546Z</time></trkpt><trkpt lat="42.267355" lon="14.035605"><ele>242.40000000000003</ele><time>2026-05-03T10:45:44.545Z</time></trkpt><trkpt lat="42.2673617" lon="14.03574"><ele>240.6</ele><time>2026-05-03T10:45:46.546Z</time></trkpt><trkpt lat="42.2673467" lon="14.0358533"><ele>238.8</ele><time>2026-05-03T10:45:48.546Z</time></trkpt><trkpt lat="42.267295" lon="14.035965"><ele>237.0</ele><time>2026-05-03T10:45:50.546Z</time></trkpt><trkpt lat="42.2672833" lon="14.03605"><ele>235.0</ele><time>2026-05-03T10:45:52.546Z</time></trkpt><trkpt lat="42.267325" lon="14.036135"><ele>233.0</ele><time>2026-05-03T10:45:54.546Z</time></trkpt><trkpt lat="42.2673933" lon="14.03621"><ele>231.0</ele><time>2026-05-03T10:45:56.546Z</time></trkpt><trkpt lat="42.2674717" lon="14.03629"><ele>229.0</ele><time>2026-05-03T10:45:58.546Z</time></trkpt><trkpt lat="42.26755" lon="14.036415"><ele>227.0</ele><time>2026-05-03T10:46:00.546Z</time></trkpt><trkpt lat="42.267585" lon="14.0364867"><ele>225.0</ele><time>2026-05-03T10:46:01.546Z</time></trkpt><trkpt lat="42.2676617" lon="14.0365933"><ele>225.0</ele><time>2026-05-03T10:46:03.545Z</time></trkpt><trkpt lat="42.2677667" lon="14.036595"><ele>225.0</ele><time>2026-05-03T10:46:06.545Z</time></trkpt><trkpt lat="42.2678717" lon="14.0365983"><ele>225.0</ele><time>2026-05-03T10:46:08.546Z</time></trkpt><trkpt lat="42.2679317" lon="14.0366283"><ele>225.0</ele><time>2026-05-03T10:46:09.546Z</time></trkpt><trkpt lat="42.2680183" lon="14.0366817"><ele>225.0</ele><time>2026-05-03T10:46:10.546Z</time></trkpt><trkpt lat="42.2681033" lon="14.0367283"><ele>223.83333333333334</ele><time>2026-05-03T10:46:11.545Z</time></trkpt><trkpt lat="42.26819" lon="14.03677"><ele>222.66666666666669</ele><time>2026-05-03T10:46:12.546Z</time></trkpt><trkpt lat="42.2682567" lon="14.03682"><ele>221.5</ele><time>2026-05-03T10:46:13.546Z</time></trkpt><trkpt lat="42.2683567" lon="14.03686"><ele>220.33333333333334</ele><time>2026-05-03T10:46:15.545Z</time></trkpt><trkpt lat="42.2684133" lon="14.036805"><ele>219.16666666666669</ele><time>2026-05-03T10:46:19.546Z</time></trkpt><trkpt lat="42.2684533" lon="14.03672"><ele>218.0</ele><time>2026-05-03T10:46:22.545Z</time></trkpt><trkpt lat="42.268575" lon="14.0367083"><ele>218.00000000000003</ele><time>2026-05-03T10:46:25.545Z</time></trkpt><trkpt lat="42.2686517" lon="14.03671"><ele>218.0</ele><time>2026-05-03T10:46:26.546Z</time></trkpt><trkpt lat="42.2687383" lon="14.0366983"><ele>218.0</ele><time>2026-05-03T10:46:27.545Z</time></trkpt><trkpt lat="42.2688183" lon="14.0366817"><ele>218.0</ele><time>2026-05-03T10:46:28.545Z</time></trkpt><trkpt lat="42.2688917" lon="14.03667"><ele>218.00000000000003</ele><time>2026-05-03T10:46:29.546Z</time></trkpt><trkpt lat="42.2689667" lon="14.0366633"><ele>218.0</ele><time>2026-05-03T10:46:30.546Z</time></trkpt><trkpt lat="42.26905" lon="14.036665"><ele>219.8</ele><time>2026-05-03T10:46:31.545Z</time></trkpt><trkpt lat="42.26912" lon="14.0366517"><ele>221.60000000000002</ele><time>2026-05-03T10:46:32.546Z</time></trkpt><trkpt lat="42.26923" lon="14.0366833"><ele>223.39999999999998</ele><time>2026-05-03T10:46:34.545Z</time></trkpt><trkpt lat="42.26934" lon="14.0367433"><ele>225.2</ele><time>2026-05-03T10:46:36.546Z</time></trkpt><trkpt lat="42.269415" lon="14.0368033"><ele>227.0</ele><time>2026-05-03T10:46:38.545Z</time></trkpt><trkpt lat="42.2694917" lon="14.036825"><ele>227.00000000000003</ele><time>2026-05-03T10:46:40.546Z</time></trkpt><trkpt lat="42.2695983" lon="14.0367783"><ele>227.0</ele><time>2026-05-03T10:46:42.546Z</time></trkpt><trkpt lat="42.269655" lon="14.03673"><ele>227.0</ele><time>2026-05-03T10:46:43.546Z</time></trkpt><trkpt lat="42.2697167" lon="14.03667"><ele>227.0</ele><time>2026-05-03T10:46:44.546Z</time></trkpt><trkpt lat="42.26978" lon="14.036595"><ele>227.00000000000003</ele><time>2026-05-03T10:46:45.546Z</time></trkpt><trkpt lat="42.269845" lon="14.0365133"><ele>227.0</ele><time>2026-05-03T10:46:46.546Z</time></trkpt><trkpt lat="42.2698967" lon="14.0364233"><ele>233.8</ele><time>2026-05-03T10:46:47.546Z</time></trkpt><trkpt lat="42.2699417" lon="14.0363183"><ele>240.6</ele><time>2026-05-03T10:46:48.545Z</time></trkpt><trkpt lat="42.2699883" lon="14.0362267"><ele>247.40000000000003</ele><time>2026-05-03T10:46:49.545Z</time></trkpt><trkpt lat="42.270065" lon="14.036145"><ele>254.20000000000002</ele><time>2026-05-03T10:46:51.546Z</time></trkpt><trkpt lat="42.2701483" lon="14.0361567"><ele>261.0</ele><time>2026-05-03T10:46:53.546Z</time></trkpt><trkpt lat="42.2702683" lon="14.0361733"><ele>261.0</ele><time>2026-05-03T10:46:55.546Z</time></trkpt><trkpt lat="42.270335" lon="14.036155"><ele>261.0</ele><time>2026-05-03T10:46:56.546Z</time></trkpt><trkpt lat="42.2704267" lon="14.03612"><ele>261.0</ele><time>2026-05-03T10:46:57.546Z</time></trkpt><trkpt lat="42.2705067" lon="14.036095"><ele>261.0</ele><time>2026-05-03T10:46:58.546Z</time></trkpt><trkpt lat="42.2705833" lon="14.0360783"><ele>261.0</ele><time>2026-05-03T10:46:59.545Z</time></trkpt><trkpt lat="42.2706517" lon="14.036075"><ele>261.0</ele><time>2026-05-03T10:47:00.545Z</time></trkpt><trkpt lat="42.2707167" lon="14.03608"><ele>259.6666666666667</ele><time>2026-05-03T10:47:01.545Z</time></trkpt><trkpt lat="42.270785" lon="14.0360933"><ele>258.3333333333333</ele><time>2026-05-03T10:47:02.546Z</time></trkpt><trkpt lat="42.2708567" lon="14.0361133"><ele>257.0</ele><time>2026-05-03T10:47:03.546Z</time></trkpt><trkpt lat="42.2709283" lon="14.0361383"><ele>255.66666666666666</ele><time>2026-05-03T10:47:04.545Z</time></trkpt><trkpt lat="42.2710017" lon="14.036155"><ele>254.33333333333331</ele><time>2026-05-03T10:47:05.546Z</time></trkpt><trkpt lat="42.2710733" lon="14.0361783"><ele>253.0</ele><time>2026-05-03T10:47:06.546Z</time></trkpt><trkpt lat="42.27119" lon="14.0362117"><ele>252.99999999999997</ele><time>2026-05-03T10:47:08.546Z</time></trkpt><trkpt lat="42.2712617" lon="14.03613"><ele>253.0</ele><time>2026-05-03T10:47:14.546Z</time></trkpt><trkpt lat="42.2712667" lon="14.0360033"><ele>253.0</ele><time>2026-05-03T10:47:16.546Z</time></trkpt><trkpt lat="42.2712833" lon="14.0359167"><ele>253.0</ele><time>2026-05-03T10:47:17.546Z</time></trkpt><trkpt lat="42.271315" lon="14.0358167"><ele>252.99999999999997</ele><time>2026-05-03T10:47:18.545Z</time></trkpt><trkpt lat="42.2713433" lon="14.0357117"><ele>253.0</ele><time>2026-05-03T10:47:19.546Z</time></trkpt><trkpt lat="42.271355" lon="14.0356083"><ele>255.0</ele><time>2026-05-03T10:47:20.545Z</time></trkpt><trkpt lat="42.2713483" lon="14.035475"><ele>257.0</ele><time>2026-05-03T10:47:21.546Z</time></trkpt><trkpt lat="42.2713367" lon="14.0353317"><ele>259.0</ele><time>2026-05-03T10:47:22.545Z</time></trkpt><trkpt lat="42.27134" lon="14.035185"><ele>261.0</ele><time>2026-05-03T10:47:23.546Z</time></trkpt><trkpt lat="42.2713633" lon="14.035045"><ele>263.0</ele><time>2026-05-03T10:47:24.545Z</time></trkpt><trkpt lat="42.2714083" lon="14.0349033"><ele>261.2</ele><time>2026-05-03T10:47:25.545Z</time></trkpt><trkpt lat="42.2714517" lon="14.0347733"><ele>259.4</ele><time>2026-05-03T10:47:26.546Z</time></trkpt><trkpt lat="42.271495" lon="14.0346417"><ele>257.59999999999997</ele><time>2026-05-03T10:47:27.546Z</time></trkpt><trkpt lat="42.271525" lon="14.0345017"><ele>255.79999999999998</ele><time>2026-05-03T10:47:28.546Z</time></trkpt><trkpt lat="42.2715633" lon="14.0343533"><ele>254.0</ele><time>2026-05-03T10:47:29.546Z</time></trkpt><trkpt lat="42.27159" lon="14.034195"><ele>256.1666666666667</ele><time>2026-05-03T10:47:30.545Z</time></trkpt><trkpt lat="42.27161" lon="14.0340567"><ele>258.33333333333337</ele><time>2026-05-03T10:47:31.546Z</time></trkpt><trkpt lat="42.2716217" lon="14.03394"><ele>260.5</ele><time>2026-05-03T10:47:32.546Z</time></trkpt><trkpt lat="42.2716467" lon="14.0338433"><ele>262.6666666666667</ele><time>2026-05-03T10:47:33.546Z</time></trkpt><trkpt lat="42.271685" lon="14.03374"><ele>264.8333333333333</ele><time>2026-05-03T10:47:34.545Z</time></trkpt><trkpt lat="42.27172" lon="14.0336283"><ele>267.0</ele><time>2026-05-03T10:47:35.545Z</time></trkpt><trkpt lat="42.2717533" lon="14.0335067"><ele>267.0</ele><time>2026-05-03T10:47:36.545Z</time></trkpt><trkpt lat="42.2717783" lon="14.0333833"><ele>267.0</ele><time>2026-05-03T10:47:37.546Z</time></trkpt><trkpt lat="42.2717833" lon="14.0332733"><ele>267.0</ele><time>2026-05-03T10:47:38.546Z</time></trkpt><trkpt lat="42.271775" lon="14.033185"><ele>267.0</ele><time>2026-05-03T10:47:39.546Z</time></trkpt><trkpt lat="42.2717633" lon="14.0330883"><ele>267.0</ele><time>2026-05-03T10:47:40.545Z</time></trkpt><trkpt lat="42.271755" lon="14.032985"><ele>267.0</ele><time>2026-05-03T10:47:41.546Z</time></trkpt><trkpt lat="42.27178" lon="14.03287"><ele>269.6</ele><time>2026-05-03T10:47:43.546Z</time></trkpt><trkpt lat="42.271875" lon="14.0328383"><ele>272.2</ele><time>2026-05-03T10:47:45.546Z</time></trkpt><trkpt lat="42.2719433" lon="14.0327783"><ele>274.8</ele><time>2026-05-03T10:47:47.545Z</time></trkpt><trkpt lat="42.2719667" lon="14.0326267"><ele>277.4</ele><time>2026-05-03T10:47:49.545Z</time></trkpt><trkpt lat="42.2719783" lon="14.03251"><ele>280.0</ele><time>2026-05-03T10:47:50.546Z</time></trkpt><trkpt lat="42.2719917" lon="14.03238"><ele>282.0</ele><time>2026-05-03T10:47:51.546Z</time></trkpt><trkpt lat="42.27201" lon="14.0322183"><ele>284.0</ele><time>2026-05-03T10:47:52.545Z</time></trkpt><trkpt lat="42.27202" lon="14.0320767"><ele>286.0</ele><time>2026-05-03T10:47:53.546Z</time></trkpt><trkpt lat="42.2720417" lon="14.0319533"><ele>288.0</ele><time>2026-05-03T10:47:54.546Z</time></trkpt><trkpt lat="42.272055" lon="14.0318417"><ele>290.0</ele><time>2026-05-03T10:47:55.546Z</time></trkpt><trkpt lat="42.2720617" lon="14.03172"><ele>290.33333333333337</ele><time>2026-05-03T10:47:56.546Z</time></trkpt><trkpt lat="42.2720667" lon="14.0316083"><ele>290.6666666666667</ele><time>2026-05-03T10:47:57.546Z</time></trkpt><trkpt lat="42.2720883" lon="14.0315267"><ele>291.0</ele><time>2026-05-03T10:47:58.546Z</time></trkpt><trkpt lat="42.272125" lon="14.0313633"><ele>291.3333333333333</ele><time>2026-05-03T10:48:00.545Z</time></trkpt><trkpt lat="42.27215" lon="14.03125"><ele>291.66666666666663</ele><time>2026-05-03T10:48:01.545Z</time></trkpt><trkpt lat="42.2721717" lon="14.0311367"><ele>292.0</ele><time>2026-05-03T10:48:02.545Z</time></trkpt><trkpt lat="42.2721883" lon="14.0310333"><ele>292.0</ele><time>2026-05-03T10:48:03.545Z</time></trkpt><trkpt lat="42.2722167" lon="14.03091"><ele>292.0</ele><time>2026-05-03T10:48:05.545Z</time></trkpt><trkpt lat="42.27228" lon="14.0308667"><ele>292.0</ele><time>2026-05-03T10:48:07.546Z</time></trkpt><trkpt lat="42.27243" lon="14.0308433"><ele>292.0</ele><time>2026-05-03T10:48:09.546Z</time></trkpt><trkpt lat="42.27255" lon="14.0308333"><ele>292.0</ele><time>2026-05-03T10:48:10.545Z</time></trkpt><trkpt lat="42.27267" lon="14.030815"><ele>287.75</ele><time>2026-05-03T10:48:11.545Z</time></trkpt><trkpt lat="42.2727917" lon="14.0307967"><ele>283.5</ele><time>2026-05-03T10:48:12.546Z</time></trkpt><trkpt lat="42.2729183" lon="14.03079"><ele>279.25</ele><time>2026-05-03T10:48:13.546Z</time></trkpt><trkpt lat="42.2730567" lon="14.0307833"><ele>275.0</ele><time>2026-05-03T10:48:14.546Z</time></trkpt><trkpt lat="42.2732067" lon="14.0308"><ele>277.0</ele><time>2026-05-03T10:48:15.546Z</time></trkpt><trkpt lat="42.2733533" lon="14.0308417"><ele>279.0</ele><time>2026-05-03T10:48:16.546Z</time></trkpt><trkpt lat="42.2734883" lon="14.030915"><ele>281.0</ele><time>2026-05-03T10:48:17.545Z</time></trkpt><trkpt lat="42.2736317" lon="14.0309967"><ele>281.0</ele><time>2026-05-03T10:48:18.545Z</time></trkpt><trkpt lat="42.2737683" lon="14.03111"><ele>281.0</ele><time>2026-05-03T10:48:19.545Z</time></trkpt><trkpt lat="42.2739117" lon="14.031255"><ele>281.0</ele><time>2026-05-03T10:48:20.546Z</time></trkpt><trkpt lat="42.2740467" lon="14.0314083"><ele>280.25</ele><time>2026-05-03T10:48:21.546Z</time></trkpt><trkpt lat="42.2741767" lon="14.0315233"><ele>279.5</ele><time>2026-05-03T10:48:22.546Z</time></trkpt><trkpt lat="42.2742917" lon="14.0316117"><ele>278.75</ele><time>2026-05-03T10:48:23.546Z</time></trkpt><trkpt lat="42.274405" lon="14.0316767"><ele>278.0</ele><time>2026-05-03T10:48:24.546Z</time></trkpt><trkpt lat="42.274505" lon="14.0316883"><ele>278.0</ele><time>2026-05-03T10:48:25.546Z</time></trkpt><trkpt lat="42.274625" lon="14.0316667"><ele>278.0</ele><time>2026-05-03T10:48:26.546Z</time></trkpt><trkpt lat="42.2747667" lon="14.03161"><ele>278.0</ele><time>2026-05-03T10:48:27.545Z</time></trkpt><trkpt lat="42.2749317" lon="14.031535"><ele>278.0</ele><time>2026-05-03T10:48:28.546Z</time></trkpt><trkpt lat="42.2751233" lon="14.03145"><ele>269.33333333333337</ele><time>2026-05-03T10:48:29.546Z</time></trkpt><trkpt lat="42.275325" lon="14.03135"><ele>260.6666666666667</ele><time>2026-05-03T10:48:30.546Z</time></trkpt><trkpt lat="42.2755283" lon="14.0312467"><ele>252.0</ele><time>2026-05-03T10:48:31.545Z</time></trkpt><trkpt lat="42.275715" lon="14.0311533"><ele>252.0</ele><time>2026-05-03T10:48:32.546Z</time></trkpt><trkpt lat="42.27588" lon="14.0310683"><ele>252.0</ele><time>2026-05-03T10:48:33.546Z</time></trkpt><trkpt lat="42.2760167" lon="14.0310033"><ele>252.0</ele><time>2026-05-03T10:48:34.546Z</time></trkpt><trkpt lat="42.2761367" lon="14.03096"><ele>252.0</ele><time>2026-05-03T10:48:35.545Z</time></trkpt><trkpt lat="42.27626" lon="14.0309733"><ele>252.0</ele><time>2026-05-03T10:48:36.545Z</time></trkpt><trkpt lat="42.27638" lon="14.0310383"><ele>252.0</ele><time>2026-05-03T10:48:37.546Z</time></trkpt><trkpt lat="42.2764933" lon="14.0311583"><ele>252.0</ele><time>2026-05-03T10:48:38.546Z</time></trkpt><trkpt lat="42.2766083" lon="14.031335"><ele>252.0</ele><time>2026-05-03T10:48:39.546Z</time></trkpt><trkpt lat="42.2767217" lon="14.0315533"><ele>253.0</ele><time>2026-05-03T10:48:40.546Z</time></trkpt><trkpt lat="42.2768467" lon="14.031795"><ele>254.0</ele><time>2026-05-03T10:48:41.546Z</time></trkpt><trkpt lat="42.27698" lon="14.0320317"><ele>255.0</ele><time>2026-05-03T10:48:42.546Z</time></trkpt><trkpt lat="42.277135" lon="14.0322717"><ele>249.33333333333331</ele><time>2026-05-03T10:48:43.546Z</time></trkpt><trkpt lat="42.2772833" lon="14.0324967"><ele>243.66666666666666</ele><time>2026-05-03T10:48:44.546Z</time></trkpt><trkpt lat="42.27743" lon="14.032715"><ele>238.0</ele><time>2026-05-03T10:48:45.545Z</time></trkpt><trkpt lat="42.2775767" lon="14.0329383"><ele>238.0</ele><time>2026-05-03T10:48:46.546Z</time></trkpt><trkpt lat="42.2777133" lon="14.033145"><ele>238.0</ele><time>2026-05-03T10:48:47.546Z</time></trkpt><trkpt lat="42.2778283" lon="14.0333183"><ele>238.0</ele><time>2026-05-03T10:48:48.545Z</time></trkpt><trkpt lat="42.2779183" lon="14.033465"><ele>239.5</ele><time>2026-05-03T10:48:49.545Z</time></trkpt><trkpt lat="42.2779917" lon="14.0336083"><ele>241.0</ele><time>2026-05-03T10:48:50.545Z</time></trkpt><trkpt lat="42.27807" lon="14.03376"><ele>242.5</ele><time>2026-05-03T10:48:51.545Z</time></trkpt><trkpt lat="42.2781467" lon="14.0339233"><ele>244.0</ele><time>2026-05-03T10:48:52.546Z</time></trkpt><trkpt lat="42.2782417" lon="14.0341217"><ele>239.33333333333331</ele><time>2026-05-03T10:48:53.546Z</time></trkpt><trkpt lat="42.2783367" lon="14.0343217"><ele>234.66666666666669</ele><time>2026-05-03T10:48:54.546Z</time></trkpt><trkpt lat="42.278415" lon="14.0345117"><ele>230.0</ele><time>2026-05-03T10:48:55.546Z</time></trkpt><trkpt lat="42.2785033" lon="14.0346917"><ele>230.0</ele><time>2026-05-03T10:48:56.546Z</time></trkpt><trkpt lat="42.2785917" lon="14.0348533"><ele>230.0</ele><time>2026-05-03T10:48:57.546Z</time></trkpt><trkpt lat="42.2786933" lon="14.0349867"><ele>230.0</ele><time>2026-05-03T10:48:58.545Z</time></trkpt><trkpt lat="42.278805" lon="14.0351067"><ele>230.0</ele><time>2026-05-03T10:48:59.546Z</time></trkpt><trkpt lat="42.278915" lon="14.0352417"><ele>227.33333333333334</ele><time>2026-05-03T10:49:00.546Z</time></trkpt><trkpt lat="42.27903" lon="14.0353917"><ele>224.66666666666669</ele><time>2026-05-03T10:49:01.546Z</time></trkpt><trkpt lat="42.2791467" lon="14.0355717"><ele>222.0</ele><time>2026-05-03T10:49:02.545Z</time></trkpt><trkpt lat="42.2792567" lon="14.03577"><ele>222.66666666666669</ele><time>2026-05-03T10:49:03.546Z</time></trkpt><trkpt lat="42.2793517" lon="14.0359733"><ele>223.33333333333334</ele><time>2026-05-03T10:49:04.545Z</time></trkpt><trkpt lat="42.27943" lon="14.0361683"><ele>224.0</ele><time>2026-05-03T10:49:05.545Z</time></trkpt><trkpt lat="42.279515" lon="14.0363633"><ele>224.0</ele><time>2026-05-03T10:49:06.546Z</time></trkpt><trkpt lat="42.2796167" lon="14.0365683"><ele>224.0</ele><time>2026-05-03T10:49:07.546Z</time></trkpt><trkpt lat="42.2797233" lon="14.0367783"><ele>224.0</ele><time>2026-05-03T10:49:08.545Z</time></trkpt><trkpt lat="42.2798333" lon="14.0369967"><ele>223.0</ele><time>2026-05-03T10:49:09.546Z</time></trkpt><trkpt lat="42.27994" lon="14.037215"><ele>222.0</ele><time>2026-05-03T10:49:10.546Z</time></trkpt><trkpt lat="42.2800467" lon="14.0374317"><ele>221.0</ele><time>2026-05-03T10:49:11.546Z</time></trkpt><trkpt lat="42.2801483" lon="14.0376433"><ele>221.0</ele><time>2026-05-03T10:49:12.546Z</time></trkpt><trkpt lat="42.2802617" lon="14.0378567"><ele>221.0</ele><time>2026-05-03T10:49:13.546Z</time></trkpt><trkpt lat="42.280385" lon="14.0380667"><ele>221.0</ele><time>2026-05-03T10:49:14.546Z</time></trkpt><trkpt lat="42.2805217" lon="14.038275"><ele>218.33333333333334</ele><time>2026-05-03T10:49:15.546Z</time></trkpt><trkpt lat="42.2806583" lon="14.038475"><ele>215.66666666666669</ele><time>2026-05-03T10:49:16.546Z</time></trkpt><trkpt lat="42.2808" lon="14.03865"><ele>213.0</ele><time>2026-05-03T10:49:17.546Z</time></trkpt><trkpt lat="42.28093" lon="14.0388167"><ele>213.0</ele><time>2026-05-03T10:49:18.546Z</time></trkpt><trkpt lat="42.2810683" lon="14.038975"><ele>213.0</ele><time>2026-05-03T10:49:19.546Z</time></trkpt><trkpt lat="42.2812267" lon="14.0391283"><ele>213.0</ele><time>2026-05-03T10:49:20.546Z</time></trkpt><trkpt lat="42.2814117" lon="14.0392583"><ele>212.66666666666669</ele><time>2026-05-03T10:49:21.545Z</time></trkpt><trkpt lat="42.2816" lon="14.03937"><ele>212.33333333333334</ele><time>2026-05-03T10:49:22.546Z</time></trkpt><trkpt lat="42.281775" lon="14.0394517"><ele>212.0</ele><time>2026-05-03T10:49:23.545Z</time></trkpt><trkpt lat="42.2819367" lon="14.039545"><ele>212.0</ele><time>2026-05-03T10:49:24.545Z</time></trkpt><trkpt lat="42.282085" lon="14.0396467"><ele>212.0</ele><time>2026-05-03T10:49:25.544Z</time></trkpt><trkpt lat="42.2822233" lon="14.03976"><ele>212.0</ele><time>2026-05-03T10:49:26.544Z</time></trkpt><trkpt lat="42.2823533" lon="14.0399083"><ele>210.66666666666669</ele><time>2026-05-03T10:49:27.544Z</time></trkpt><trkpt lat="42.2824833" lon="14.0400717"><ele>209.33333333333331</ele><time>2026-05-03T10:49:28.545Z</time></trkpt><trkpt lat="42.2826067" lon="14.040255"><ele>208.0</ele><time>2026-05-03T10:49:29.545Z</time></trkpt><trkpt lat="42.2827183" lon="14.0404167"><ele>208.0</ele><time>2026-05-03T10:49:30.544Z</time></trkpt><trkpt lat="42.28281" lon="14.0405717"><ele>208.0</ele><time>2026-05-03T10:49:31.544Z</time></trkpt><trkpt lat="42.2828833" lon="14.040735"><ele>208.0</ele><time>2026-05-03T10:49:32.545Z</time></trkpt><trkpt lat="42.282945" lon="14.040915"><ele>208.0</ele><time>2026-05-03T10:49:33.544Z</time></trkpt><trkpt lat="42.2829933" lon="14.0410867"><ele>207.0</ele><time>2026-05-03T10:49:34.545Z</time></trkpt><trkpt lat="42.2830433" lon="14.0412417"><ele>206.0</ele><time>2026-05-03T10:49:35.545Z</time></trkpt><trkpt lat="42.2831133" lon="14.0413717"><ele>205.0</ele><time>2026-05-03T10:49:36.545Z</time></trkpt><trkpt lat="42.283205" lon="14.0414633"><ele>204.0</ele><time>2026-05-03T10:49:37.544Z</time></trkpt><trkpt lat="42.2833217" lon="14.041505"><ele>204.0</ele><time>2026-05-03T10:49:38.545Z</time></trkpt><trkpt lat="42.283465" lon="14.0415283"><ele>204.0</ele><time>2026-05-03T10:49:39.545Z</time></trkpt><trkpt lat="42.28363" lon="14.0415433"><ele>204.0</ele><time>2026-05-03T10:49:40.544Z</time></trkpt><trkpt lat="42.2838017" lon="14.041575"><ele>203.0</ele><time>2026-05-03T10:49:41.544Z</time></trkpt><trkpt lat="42.283975" lon="14.0416217"><ele>202.0</ele><time>2026-05-03T10:49:42.545Z</time></trkpt><trkpt lat="42.2841517" lon="14.04169"><ele>201.0</ele><time>2026-05-03T10:49:43.544Z</time></trkpt><trkpt lat="42.284345" lon="14.0417717"><ele>199.0</ele><time>2026-05-03T10:49:44.544Z</time></trkpt><trkpt lat="42.28454" lon="14.0418433"><ele>197.0</ele><time>2026-05-03T10:49:45.544Z</time></trkpt><trkpt lat="42.2847183" lon="14.04191"><ele>195.0</ele><time>2026-05-03T10:49:46.544Z</time></trkpt><trkpt lat="42.2848917" lon="14.0419733"><ele>192.0</ele><time>2026-05-03T10:49:47.544Z</time></trkpt><trkpt lat="42.2850633" lon="14.04203"><ele>189.0</ele><time>2026-05-03T10:49:48.545Z</time></trkpt><trkpt lat="42.28521" lon="14.0420933"><ele>186.0</ele><time>2026-05-03T10:49:49.545Z</time></trkpt><trkpt lat="42.2853583" lon="14.042155"><ele>186.0</ele><time>2026-05-03T10:49:50.545Z</time></trkpt><trkpt lat="42.2855267" lon="14.0422017"><ele>186.0</ele><time>2026-05-03T10:49:51.545Z</time></trkpt><trkpt lat="42.285705" lon="14.0422383"><ele>186.0</ele><time>2026-05-03T10:49:52.545Z</time></trkpt><trkpt lat="42.28589" lon="14.0422617"><ele>185.0</ele><time>2026-05-03T10:49:53.544Z</time></trkpt><trkpt lat="42.286055" lon="14.0422917"><ele>184.0</ele><time>2026-05-03T10:49:54.544Z</time></trkpt><trkpt lat="42.286225" lon="14.042325"><ele>183.0</ele><time>2026-05-03T10:49:55.544Z</time></trkpt><trkpt lat="42.2863883" lon="14.0423733"><ele>181.33333333333334</ele><time>2026-05-03T10:49:56.545Z</time></trkpt><trkpt lat="42.2865867" lon="14.04242"><ele>179.66666666666669</ele><time>2026-05-03T10:49:57.545Z</time></trkpt><trkpt lat="42.286805" lon="14.0424817"><ele>178.0</ele><time>2026-05-03T10:49:58.545Z</time></trkpt><trkpt lat="42.287025" lon="14.04255"><ele>174.0</ele><time>2026-05-03T10:49:59.545Z</time></trkpt><trkpt lat="42.287255" lon="14.042615"><ele>170.0</ele><time>2026-05-03T10:50:00.545Z</time></trkpt><trkpt lat="42.2874767" lon="14.0426783"><ele>168.66666666666666</ele><time>2026-05-03T10:50:01.545Z</time></trkpt><trkpt lat="42.2876917" lon="14.0427167"><ele>167.33333333333334</ele><time>2026-05-03T10:50:02.545Z</time></trkpt><trkpt lat="42.2878917" lon="14.0427483"><ele>166.0</ele><time>2026-05-03T10:50:03.545Z</time></trkpt><trkpt lat="42.2880817" lon="14.0427667"><ele>163.33333333333334</ele><time>2026-05-03T10:50:04.544Z</time></trkpt><trkpt lat="42.2882817" lon="14.0427683"><ele>160.66666666666666</ele><time>2026-05-03T10:50:05.545Z</time></trkpt><trkpt lat="42.288475" lon="14.0427667"><ele>158.0</ele><time>2026-05-03T10:50:06.545Z</time></trkpt><trkpt lat="42.28866" lon="14.0427617"><ele>158.0</ele><time>2026-05-03T10:50:07.545Z</time></trkpt><trkpt lat="42.288825" lon="14.04276"><ele>158.0</ele><time>2026-05-03T10:50:08.545Z</time></trkpt><trkpt lat="42.2889583" lon="14.0427633"><ele>158.0</ele><time>2026-05-03T10:50:09.544Z</time></trkpt><trkpt lat="42.2890817" lon="14.0427667"><ele>158.0</ele><time>2026-05-03T10:50:10.544Z</time></trkpt><trkpt lat="42.2891767" lon="14.0427733"><ele>156.5</ele><time>2026-05-03T10:50:11.545Z</time></trkpt><trkpt lat="42.289245" lon="14.042795"><ele>155.0</ele><time>2026-05-03T10:50:12.544Z</time></trkpt><trkpt lat="42.2893117" lon="14.0428933"><ele>153.5</ele><time>2026-05-03T10:50:14.544Z</time></trkpt><trkpt lat="42.28924" lon="14.04301"><ele>152.0</ele><time>2026-05-03T10:50:16.545Z</time></trkpt><trkpt lat="42.289165" lon="14.0430283"><ele>150.5</ele><time>2026-05-03T10:50:17.545Z</time></trkpt><trkpt lat="42.2891033" lon="14.0430483"><ele>149.0</ele><time>2026-05-03T10:50:18.545Z</time></trkpt><trkpt lat="42.2890583" lon="14.043135"><ele>149.0</ele><time>2026-05-03T10:50:20.545Z</time></trkpt><trkpt lat="42.2891567" lon="14.04323"><ele>149.0</ele><time>2026-05-03T10:50:22.545Z</time></trkpt><trkpt lat="42.2892767" lon="14.0432633"><ele>149.0</ele><time>2026-05-03T10:50:23.545Z</time></trkpt><trkpt lat="42.2894133" lon="14.0432733"><ele>149.0</ele><time>2026-05-03T10:50:24.544Z</time></trkpt><trkpt lat="42.2895817" lon="14.0432367"><ele>144.66666666666666</ele><time>2026-05-03T10:50:25.545Z</time></trkpt><trkpt lat="42.2897883" lon="14.0431583"><ele>140.33333333333334</ele><time>2026-05-03T10:50:26.545Z</time></trkpt><trkpt lat="42.289995" lon="14.04308"><ele>136.0</ele><time>2026-05-03T10:50:27.545Z</time></trkpt><trkpt lat="42.29018" lon="14.0430267"><ele>136.0</ele><time>2026-05-03T10:50:28.545Z</time></trkpt><trkpt lat="42.2903333" lon="14.0429917"><ele>136.0</ele><time>2026-05-03T10:50:29.544Z</time></trkpt><trkpt lat="42.29044" lon="14.04298"><ele>136.0</ele><time>2026-05-03T10:50:30.544Z</time></trkpt><trkpt lat="42.290515" lon="14.0429917"><ele>136.0</ele><time>2026-05-03T10:50:31.545Z</time></trkpt><trkpt lat="42.2905617" lon="14.043095"><ele>136.0</ele><time>2026-05-03T10:50:33.544Z</time></trkpt><trkpt lat="42.2905283" lon="14.0431717"><ele>136.0</ele><time>2026-05-03T10:50:34.544Z</time></trkpt><trkpt lat="42.2904533" lon="14.0432517"><ele>136.0</ele><time>2026-05-03T10:50:35.544Z</time></trkpt><trkpt lat="42.290325" lon="14.0433433"><ele>136.0</ele><time>2026-05-03T10:50:36.545Z</time></trkpt><trkpt lat="42.2902033" lon="14.0434417"><ele>136.0</ele><time>2026-05-03T10:50:37.545Z</time></trkpt><trkpt lat="42.2900983" lon="14.043545"><ele>132.2</ele><time>2026-05-03T10:50:38.544Z</time></trkpt><trkpt lat="42.2900267" lon="14.0436267"><ele>128.39999999999998</ele><time>2026-05-03T10:50:39.545Z</time></trkpt><trkpt lat="42.2899683" lon="14.0436983"><ele>124.6</ele><time>2026-05-03T10:50:40.545Z</time></trkpt><trkpt lat="42.289945" lon="14.043845"><ele>120.8</ele><time>2026-05-03T10:50:42.545Z</time></trkpt><trkpt lat="42.2900517" lon="14.04391"><ele>117.0</ele><time>2026-05-03T10:50:44.544Z</time></trkpt><trkpt lat="42.2901317" lon="14.0439117"><ele>117.0</ele><time>2026-05-03T10:50:45.545Z</time></trkpt><trkpt lat="42.2902167" lon="14.0439583"><ele>117.0</ele><time>2026-05-03T10:50:47.545Z</time></trkpt><trkpt lat="42.29011" lon="14.0440467"><ele>117.0</ele><time>2026-05-03T10:50:50.545Z</time></trkpt><trkpt lat="42.2900017" lon="14.0440717"><ele>117.0</ele><time>2026-05-03T10:50:51.544Z</time></trkpt><trkpt lat="42.289855" lon="14.04411"><ele>113.33333333333334</ele><time>2026-05-03T10:50:52.545Z</time></trkpt><trkpt lat="42.28968" lon="14.0441767"><ele>109.66666666666667</ele><time>2026-05-03T10:50:53.544Z</time></trkpt><trkpt lat="42.28949" lon="14.0442567"><ele>106.0</ele><time>2026-05-03T10:50:54.545Z</time></trkpt><trkpt lat="42.2892917" lon="14.0443433"><ele>106.0</ele><time>2026-05-03T10:50:55.545Z</time></trkpt><trkpt lat="42.289105" lon="14.04443"><ele>106.0</ele><time>2026-05-03T10:50:56.544Z</time></trkpt><trkpt lat="42.2889617" lon="14.044525"><ele>106.0</ele><time>2026-05-03T10:50:57.544Z</time></trkpt><trkpt lat="42.2888583" lon="14.0446467"><ele>105.5</ele><time>2026-05-03T10:50:58.544Z</time></trkpt><trkpt lat="42.2887683" lon="14.0447983"><ele>105.0</ele><time>2026-05-03T10:50:59.544Z</time></trkpt><trkpt lat="42.2886917" lon="14.0449567"><ele>104.5</ele><time>2026-05-03T10:51:00.545Z</time></trkpt><trkpt lat="42.2886217" lon="14.0450983"><ele>104.0</ele><time>2026-05-03T10:51:01.544Z</time></trkpt><trkpt lat="42.2885433" lon="14.045215"><ele>104.0</ele><time>2026-05-03T10:51:02.545Z</time></trkpt><trkpt lat="42.28844" lon="14.0452967"><ele>104.0</ele><time>2026-05-03T10:51:03.544Z</time></trkpt><trkpt lat="42.2883133" lon="14.045345"><ele>104.0</ele><time>2026-05-03T10:51:04.544Z</time></trkpt><trkpt lat="42.2881567" lon="14.0453683"><ele>104.0</ele><time>2026-05-03T10:51:05.545Z</time></trkpt><trkpt lat="42.2879733" lon="14.045395"><ele>108.33333333333333</ele><time>2026-05-03T10:51:06.545Z</time></trkpt><trkpt lat="42.2877783" lon="14.0454517"><ele>112.66666666666666</ele><time>2026-05-03T10:51:07.544Z</time></trkpt><trkpt lat="42.287585" lon="14.045545"><ele>117.0</ele><time>2026-05-03T10:51:08.545Z</time></trkpt><trkpt lat="42.2873983" lon="14.0456633"><ele>120.0</ele><time>2026-05-03T10:51:09.544Z</time></trkpt><trkpt lat="42.28721" lon="14.04575"><ele>123.0</ele><time>2026-05-03T10:51:10.545Z</time></trkpt><trkpt lat="42.287045" lon="14.0458083"><ele>126.0</ele><time>2026-05-03T10:51:11.545Z</time></trkpt><trkpt lat="42.2869083" lon="14.04586"><ele>122.16666666666667</ele><time>2026-05-03T10:51:12.545Z</time></trkpt><trkpt lat="42.28681" lon="14.045895"><ele>118.33333333333334</ele><time>2026-05-03T10:51:13.545Z</time></trkpt><trkpt lat="42.2867517" lon="14.045935"><ele>114.5</ele><time>2026-05-03T10:51:14.544Z</time></trkpt><trkpt lat="42.2867117" lon="14.046055"><ele>110.66666666666667</ele><time>2026-05-03T10:51:16.545Z</time></trkpt><trkpt lat="42.2867267" lon="14.04615"><ele>106.83333333333334</ele><time>2026-05-03T10:51:17.545Z</time></trkpt><trkpt lat="42.2867583" lon="14.04625"><ele>103.0</ele><time>2026-05-03T10:51:18.545Z</time></trkpt><trkpt lat="42.2867783" lon="14.04638"><ele>103.0</ele><time>2026-05-03T10:51:20.545Z</time></trkpt><trkpt lat="42.2867033" lon="14.0464817"><ele>103.0</ele><time>2026-05-03T10:51:24.545Z</time></trkpt><trkpt lat="42.2866317" lon="14.0465267"><ele>103.0</ele><time>2026-05-03T10:51:25.545Z</time></trkpt><trkpt lat="42.2865283" lon="14.0465717"><ele>103.0</ele><time>2026-05-03T10:51:26.545Z</time></trkpt><trkpt lat="42.286405" lon="14.0466283"><ele>103.0</ele><time>2026-05-03T10:51:27.545Z</time></trkpt><trkpt lat="42.2862733" lon="14.0467"><ele>100.33333333333334</ele><time>2026-05-03T10:51:28.545Z</time></trkpt><trkpt lat="42.2861267" lon="14.0467767"><ele>97.66666666666667</ele><time>2026-05-03T10:51:29.545Z</time></trkpt><trkpt lat="42.2859717" lon="14.04687"><ele>95.0</ele><time>2026-05-03T10:51:30.545Z</time></trkpt><trkpt lat="42.2858083" lon="14.0469683"><ele>95.0</ele><time>2026-05-03T10:51:31.545Z</time></trkpt><trkpt lat="42.2856533" lon="14.047075"><ele>95.0</ele><time>2026-05-03T10:51:32.544Z</time></trkpt><trkpt lat="42.285495" lon="14.0471767"><ele>95.0</ele><time>2026-05-03T10:51:33.545Z</time></trkpt><trkpt lat="42.2853267" lon="14.04727"><ele>95.0</ele><time>2026-05-03T10:51:34.545Z</time></trkpt><trkpt lat="42.285175" lon="14.0473533"><ele>95.0</ele><time>2026-05-03T10:51:35.545Z</time></trkpt><trkpt lat="42.28504" lon="14.04742"><ele>95.0</ele><time>2026-05-03T10:51:36.545Z</time></trkpt><trkpt lat="42.2849283" lon="14.0474767"><ele>95.0</ele><time>2026-05-03T10:51:37.545Z</time></trkpt><trkpt lat="42.284835" lon="14.0475417"><ele>95.66666666666667</ele><time>2026-05-03T10:51:38.545Z</time></trkpt><trkpt lat="42.2847683" lon="14.0475817"><ele>96.33333333333334</ele><time>2026-05-03T10:51:39.545Z</time></trkpt><trkpt lat="42.2846983" lon="14.0476683"><ele>97.0</ele><time>2026-05-03T10:51:41.544Z</time></trkpt><trkpt lat="42.284775" lon="14.0477333"><ele>97.66666666666667</ele><time>2026-05-03T10:51:44.545Z</time></trkpt><trkpt lat="42.2848367" lon="14.0477067"><ele>98.33333333333333</ele><time>2026-05-03T10:51:45.545Z</time></trkpt><trkpt lat="42.284935" lon="14.0476667"><ele>99.0</ele><time>2026-05-03T10:51:46.544Z</time></trkpt><trkpt lat="42.2850433" lon="14.04765"><ele>99.33333333333333</ele><time>2026-05-03T10:51:47.545Z</time></trkpt><trkpt lat="42.2851283" lon="14.04767"><ele>99.66666666666666</ele><time>2026-05-03T10:51:48.545Z</time></trkpt><trkpt lat="42.2852017" lon="14.047725"><ele>100.0</ele><time>2026-05-03T10:51:49.544Z</time></trkpt><trkpt lat="42.2852817" lon="14.0477917"><ele>100.33333333333333</ele><time>2026-05-03T10:51:50.545Z</time></trkpt><trkpt lat="42.28536" lon="14.0478467"><ele>100.66666666666666</ele><time>2026-05-03T10:51:51.545Z</time></trkpt><trkpt lat="42.28544" lon="14.04786"><ele>101.0</ele><time>2026-05-03T10:51:52.545Z</time></trkpt><trkpt lat="42.285535" lon="14.04782"><ele>102.0</ele><time>2026-05-03T10:51:53.545Z</time></trkpt><trkpt lat="42.2856367" lon="14.0477483"><ele>103.0</ele><time>2026-05-03T10:51:54.544Z</time></trkpt><trkpt lat="42.2857533" lon="14.0476717"><ele>104.0</ele><time>2026-05-03T10:51:55.545Z</time></trkpt><trkpt lat="42.2858717" lon="14.0475883"><ele>105.0</ele><time>2026-05-03T10:51:56.545Z</time></trkpt><trkpt lat="42.2860033" lon="14.04753"><ele>105.0</ele><time>2026-05-03T10:51:57.544Z</time></trkpt><trkpt lat="42.2861367" lon="14.04751"><ele>105.0</ele><time>2026-05-03T10:51:58.545Z</time></trkpt><trkpt lat="42.2862567" lon="14.0475083"><ele>105.0</ele><time>2026-05-03T10:51:59.545Z</time></trkpt><trkpt lat="42.286375" lon="14.0475367"><ele>105.0</ele><time>2026-05-03T10:52:00.545Z</time></trkpt><trkpt lat="42.2864917" lon="14.04759"><ele>106.25</ele><time>2026-05-03T10:52:01.544Z</time></trkpt><trkpt lat="42.2866217" lon="14.04767"><ele>107.5</ele><time>2026-05-03T10:52:02.545Z</time></trkpt><trkpt lat="42.28675" lon="14.0477633"><ele>108.75</ele><time>2026-05-03T10:52:03.545Z</time></trkpt><trkpt lat="42.2868783" lon="14.0478467"><ele>110.0</ele><time>2026-05-03T10:52:04.545Z</time></trkpt><trkpt lat="42.2870117" lon="14.0479117"><ele>110.0</ele><time>2026-05-03T10:52:05.544Z</time></trkpt><trkpt lat="42.2871583" lon="14.0479517"><ele>110.0</ele><time>2026-05-03T10:52:06.544Z</time></trkpt><trkpt lat="42.287325" lon="14.0479733"><ele>110.0</ele><time>2026-05-03T10:52:07.545Z</time></trkpt><trkpt lat="42.28749" lon="14.0479767"><ele>109.0</ele><time>2026-05-03T10:52:08.544Z</time></trkpt><trkpt lat="42.2876633" lon="14.0479667"><ele>108.0</ele><time>2026-05-03T10:52:09.545Z</time></trkpt><trkpt lat="42.2878367" lon="14.0479367"><ele>107.0</ele><time>2026-05-03T10:52:10.544Z</time></trkpt><trkpt lat="42.287995" lon="14.0479033"><ele>109.33333333333333</ele><time>2026-05-03T10:52:11.545Z</time></trkpt><trkpt lat="42.2881533" lon="14.0478817"><ele>111.66666666666666</ele><time>2026-05-03T10:52:12.544Z</time></trkpt><trkpt lat="42.2883183" lon="14.0478717"><ele>114.0</ele><time>2026-05-03T10:52:13.545Z</time></trkpt><trkpt lat="42.2884767" lon="14.0478817"><ele>114.0</ele><time>2026-05-03T10:52:14.545Z</time></trkpt><trkpt lat="42.2886417" lon="14.0479"><ele>114.0</ele><time>2026-05-03T10:52:15.545Z</time></trkpt><trkpt lat="42.2888067" lon="14.0479267"><ele>114.0</ele><time>2026-05-03T10:52:16.544Z</time></trkpt><trkpt lat="42.2889817" lon="14.0479567"><ele>115.66666666666666</ele><time>2026-05-03T10:52:17.544Z</time></trkpt><trkpt lat="42.2891633" lon="14.0479817"><ele>117.33333333333333</ele><time>2026-05-03T10:52:18.545Z</time></trkpt><trkpt lat="42.289345" lon="14.0480117"><ele>119.0</ele><time>2026-05-03T10:52:19.544Z</time></trkpt><trkpt lat="42.289515" lon="14.0480467"><ele>119.0</ele><time>2026-05-03T10:52:20.545Z</time></trkpt><trkpt lat="42.28968" lon="14.048075"><ele>119.0</ele><time>2026-05-03T10:52:21.545Z</time></trkpt><trkpt lat="42.28984" lon="14.0480933"><ele>119.0</ele><time>2026-05-03T10:52:22.545Z</time></trkpt><trkpt lat="42.2899783" lon="14.0481083"><ele>119.6</ele><time>2026-05-03T10:52:23.544Z</time></trkpt><trkpt lat="42.2900933" lon="14.0481183"><ele>120.2</ele><time>2026-05-03T10:52:24.544Z</time></trkpt><trkpt lat="42.2901817" lon="14.0481467"><ele>120.79999999999998</ele><time>2026-05-03T10:52:25.545Z</time></trkpt><trkpt lat="42.29025" lon="14.0482"><ele>121.39999999999999</ele><time>2026-05-03T10:52:26.545Z</time></trkpt><trkpt lat="42.2902983" lon="14.0482933"><ele>122.0</ele><time>2026-05-03T10:52:27.544Z</time></trkpt><trkpt lat="42.2903433" lon="14.0484117"><ele>124.5</ele><time>2026-05-03T10:52:28.545Z</time></trkpt><trkpt lat="42.290395" lon="14.0485683"><ele>127.0</ele><time>2026-05-03T10:52:29.544Z</time></trkpt><trkpt lat="42.2904667" lon="14.0487433"><ele>129.5</ele><time>2026-05-03T10:52:30.545Z</time></trkpt><trkpt lat="42.2905567" lon="14.04892"><ele>132.0</ele><time>2026-05-03T10:52:31.545Z</time></trkpt><trkpt lat="42.2906583" lon="14.0491067"><ele>138.33333333333334</ele><time>2026-05-03T10:52:32.544Z</time></trkpt><trkpt lat="42.290765" lon="14.0492833"><ele>144.66666666666669</ele><time>2026-05-03T10:52:33.544Z</time></trkpt><trkpt lat="42.2908783" lon="14.0494667"><ele>151.0</ele><time>2026-05-03T10:52:34.545Z</time></trkpt><trkpt lat="42.2909967" lon="14.0496567"><ele>151.0</ele><time>2026-05-03T10:52:35.545Z</time></trkpt><trkpt lat="42.2911183" lon="14.0498333"><ele>151.0</ele><time>2026-05-03T10:52:36.544Z</time></trkpt><trkpt lat="42.2912483" lon="14.0500133"><ele>151.0</ele><time>2026-05-03T10:52:37.545Z</time></trkpt><trkpt lat="42.291395" lon="14.0501567"><ele>152.75</ele><time>2026-05-03T10:52:38.544Z</time></trkpt><trkpt lat="42.2915133" lon="14.0502633"><ele>154.5</ele><time>2026-05-03T10:52:39.544Z</time></trkpt><trkpt lat="42.2916217" lon="14.0503433"><ele>156.25</ele><time>2026-05-03T10:52:40.545Z</time></trkpt><trkpt lat="42.291735" lon="14.0503667"><ele>158.0</ele><time>2026-05-03T10:52:41.545Z</time></trkpt><trkpt lat="42.2918283" lon="14.0503967"><ele>158.0</ele><time>2026-05-03T10:52:42.545Z</time></trkpt><trkpt lat="42.2918967" lon="14.0504667"><ele>158.0</ele><time>2026-05-03T10:52:43.544Z</time></trkpt><trkpt lat="42.2919483" lon="14.0505767"><ele>158.0</ele><time>2026-05-03T10:52:44.545Z</time></trkpt><trkpt lat="42.2919833" lon="14.0507283"><ele>158.0</ele><time>2026-05-03T10:52:45.545Z</time></trkpt><trkpt lat="42.2920183" lon="14.0509183"><ele>158.0</ele><time>2026-05-03T10:52:46.545Z</time></trkpt><trkpt lat="42.2920567" lon="14.0511383"><ele>162.0</ele><time>2026-05-03T10:52:47.545Z</time></trkpt><trkpt lat="42.292115" lon="14.0513683"><ele>166.0</ele><time>2026-05-03T10:52:48.545Z</time></trkpt><trkpt lat="42.292185" lon="14.051585"><ele>170.0</ele><time>2026-05-03T10:52:49.545Z</time></trkpt><trkpt lat="42.2922567" lon="14.051795"><ele>170.75</ele><time>2026-05-03T10:52:50.545Z</time></trkpt><trkpt lat="42.29233" lon="14.051985"><ele>171.5</ele><time>2026-05-03T10:52:51.544Z</time></trkpt><trkpt lat="42.292385" lon="14.0521517"><ele>172.25</ele><time>2026-05-03T10:52:52.545Z</time></trkpt><trkpt lat="42.29241" lon="14.05229"><ele>173.0</ele><time>2026-05-03T10:52:53.544Z</time></trkpt><trkpt lat="42.2924167" lon="14.0523967"><ele>173.0</ele><time>2026-05-03T10:52:54.545Z</time></trkpt><trkpt lat="42.2924533" lon="14.0524917"><ele>173.0</ele><time>2026-05-03T10:52:56.545Z</time></trkpt><trkpt lat="42.2925367" lon="14.0524983"><ele>173.0</ele><time>2026-05-03T10:52:58.545Z</time></trkpt><trkpt lat="42.2926117" lon="14.05247"><ele>173.0</ele><time>2026-05-03T10:52:59.544Z</time></trkpt><trkpt lat="42.29271" lon="14.0524017"><ele>173.0</ele><time>2026-05-03T10:53:00.545Z</time></trkpt><trkpt lat="42.2928333" lon="14.0523017"><ele>173.0</ele><time>2026-05-03T10:53:01.545Z</time></trkpt><trkpt lat="42.29296" lon="14.052185"><ele>173.0</ele><time>2026-05-03T10:53:02.545Z</time></trkpt><trkpt lat="42.2930883" lon="14.0520567"><ele>173.0</ele><time>2026-05-03T10:53:03.545Z</time></trkpt><trkpt lat="42.2932183" lon="14.0519317"><ele>172.0</ele><time>2026-05-03T10:53:04.545Z</time></trkpt><trkpt lat="42.2933317" lon="14.0518167"><ele>171.0</ele><time>2026-05-03T10:53:05.545Z</time></trkpt><trkpt lat="42.2934267" lon="14.05172"><ele>170.0</ele><time>2026-05-03T10:53:06.544Z</time></trkpt><trkpt lat="42.293505" lon="14.0516333"><ele>169.0</ele><time>2026-05-03T10:53:07.545Z</time></trkpt><trkpt lat="42.2935683" lon="14.0515667"><ele>168.0</ele><time>2026-05-03T10:53:08.545Z</time></trkpt><trkpt lat="42.2936567" lon="14.0514683"><ele>168.0</ele><time>2026-05-03T10:53:10.545Z</time></trkpt><trkpt lat="42.2935717" lon="14.0515367"><ele>168.0</ele><time>2026-05-03T10:53:16.544Z</time></trkpt><trkpt lat="42.293505" lon="14.0516283"><ele>168.0</ele><time>2026-05-03T10:53:17.544Z</time></trkpt><trkpt lat="42.29342" lon="14.05173"><ele>168.0</ele><time>2026-05-03T10:53:18.543Z</time></trkpt><trkpt lat="42.2933117" lon="14.051835"><ele>168.0</ele><time>2026-05-03T10:53:19.544Z</time></trkpt><trkpt lat="42.2932" lon="14.05195"><ele>169.25</ele><time>2026-05-03T10:53:20.544Z</time></trkpt><trkpt lat="42.2930883" lon="14.052055"><ele>170.5</ele><time>2026-05-03T10:53:21.544Z</time></trkpt><trkpt lat="42.2929783" lon="14.0521633"><ele>171.75</ele><time>2026-05-03T10:53:22.543Z</time></trkpt><trkpt lat="42.292875" lon="14.0522533"><ele>173.0</ele><time>2026-05-03T10:53:23.544Z</time></trkpt><trkpt lat="42.2927933" lon="14.0523267"><ele>173.0</ele><time>2026-05-03T10:53:24.544Z</time></trkpt><trkpt lat="42.292735" lon="14.0523883"><ele>173.0</ele><time>2026-05-03T10:53:25.544Z</time></trkpt><trkpt lat="42.2927333" lon="14.0524883"><ele>173.0</ele><time>2026-05-03T10:53:28.544Z</time></trkpt><trkpt lat="42.29285" lon="14.0525483"><ele>173.0</ele><time>2026-05-03T10:53:30.544Z</time></trkpt><trkpt lat="42.292955" lon="14.05261"><ele>173.0</ele><time>2026-05-03T10:53:31.543Z</time></trkpt><trkpt lat="42.2930767" lon="14.0526783"><ele>172.75</ele><time>2026-05-03T10:53:32.543Z</time></trkpt><trkpt lat="42.2931817" lon="14.052745"><ele>172.5</ele><time>2026-05-03T10:53:33.544Z</time></trkpt><trkpt lat="42.293265" lon="14.0528233"><ele>172.25</ele><time>2026-05-03T10:53:34.544Z</time></trkpt><trkpt lat="42.29335" lon="14.0529367"><ele>172.0</ele><time>2026-05-03T10:53:35.544Z</time></trkpt><trkpt lat="42.2934417" lon="14.053075"><ele>172.0</ele><time>2026-05-03T10:53:36.544Z</time></trkpt><trkpt lat="42.2935317" lon="14.0532267"><ele>172.0</ele><time>2026-05-03T10:53:37.544Z</time></trkpt><trkpt lat="42.2936283" lon="14.053395"><ele>172.0</ele><time>2026-05-03T10:53:38.544Z</time></trkpt><trkpt lat="42.29373" lon="14.0535667"><ele>172.0</ele><time>2026-05-03T10:53:39.543Z</time></trkpt><trkpt lat="42.29383" lon="14.0537317"><ele>172.0</ele><time>2026-05-03T10:53:40.544Z</time></trkpt><trkpt lat="42.2939183" lon="14.0538833"><ele>172.0</ele><time>2026-05-03T10:53:41.543Z</time></trkpt><trkpt lat="42.2939933" lon="14.054"><ele>172.0</ele><time>2026-05-03T10:53:42.544Z</time></trkpt><trkpt lat="42.2940667" lon="14.0540817"><ele>173.0</ele><time>2026-05-03T10:53:43.544Z</time></trkpt><trkpt lat="42.294135" lon="14.0541633"><ele>174.0</ele><time>2026-05-03T10:53:44.544Z</time></trkpt><trkpt lat="42.2942067" lon="14.05425"><ele>175.0</ele><time>2026-05-03T10:53:45.543Z</time></trkpt><trkpt lat="42.2942867" lon="14.0543383"><ele>176.0</ele><time>2026-05-03T10:53:46.544Z</time></trkpt><trkpt lat="42.2943733" lon="14.05442"><ele>177.0</ele><time>2026-05-03T10:53:47.543Z</time></trkpt><trkpt lat="42.2944767" lon="14.0545133"><ele>177.0</ele><time>2026-05-03T10:53:48.543Z</time></trkpt><trkpt lat="42.2945817" lon="14.05462"><ele>177.0</ele><time>2026-05-03T10:53:49.544Z</time></trkpt><trkpt lat="42.29468" lon="14.0547233"><ele>177.0</ele><time>2026-05-03T10:53:50.544Z</time></trkpt><trkpt lat="42.29478" lon="14.0548233"><ele>177.0</ele><time>2026-05-03T10:53:51.544Z</time></trkpt><trkpt lat="42.2948717" lon="14.0549267"><ele>176.5</ele><time>2026-05-03T10:53:52.544Z</time></trkpt><trkpt lat="42.2949417" lon="14.05501"><ele>176.0</ele><time>2026-05-03T10:53:53.544Z</time></trkpt><trkpt lat="42.29501" lon="14.0550733"><ele>175.5</ele><time>2026-05-03T10:53:54.544Z</time></trkpt><trkpt lat="42.295085" lon="14.055115"><ele>175.0</ele><time>2026-05-03T10:53:55.544Z</time></trkpt><trkpt lat="42.2951633" lon="14.0551467"><ele>174.5</ele><time>2026-05-03T10:53:56.544Z</time></trkpt><trkpt lat="42.2952533" lon="14.0551567"><ele>174.0</ele><time>2026-05-03T10:53:57.543Z</time></trkpt><trkpt lat="42.29537" lon="14.0551533"><ele>174.0</ele><time>2026-05-03T10:53:58.544Z</time></trkpt><trkpt lat="42.2954867" lon="14.05515"><ele>174.0</ele><time>2026-05-03T10:53:59.543Z</time></trkpt><trkpt lat="42.2955867" lon="14.055155"><ele>174.0</ele><time>2026-05-03T10:54:00.544Z</time></trkpt><trkpt lat="42.2956567" lon="14.055165"><ele>174.0</ele><time>2026-05-03T10:54:01.544Z</time></trkpt><trkpt lat="42.295725" lon="14.0551983"><ele>174.0</ele><time>2026-05-03T10:54:03.543Z</time></trkpt><trkpt lat="42.2957433" lon="14.0553367"><ele>173.2</ele><time>2026-05-03T10:54:06.543Z</time></trkpt><trkpt lat="42.295825" lon="14.0554567"><ele>172.39999999999998</ele><time>2026-05-03T10:54:08.544Z</time></trkpt><trkpt lat="42.2958733" lon="14.0555133"><ele>171.6</ele><time>2026-05-03T10:54:09.544Z</time></trkpt><trkpt lat="42.2959233" lon="14.0555917"><ele>170.8</ele><time>2026-05-03T10:54:10.544Z</time></trkpt><trkpt lat="42.295975" lon="14.0556983"><ele>170.0</ele><time>2026-05-03T10:54:11.544Z</time></trkpt><trkpt lat="42.296035" lon="14.0558417"><ele>170.0</ele><time>2026-05-03T10:54:12.544Z</time></trkpt><trkpt lat="42.2961033" lon="14.0559967"><ele>170.0</ele><time>2026-05-03T10:54:13.544Z</time></trkpt><trkpt lat="42.2961767" lon="14.0561467"><ele>170.0</ele><time>2026-05-03T10:54:14.544Z</time></trkpt><trkpt lat="42.2962333" lon="14.0562767"><ele>170.0</ele><time>2026-05-03T10:54:15.543Z</time></trkpt><trkpt lat="42.296285" lon="14.056395"><ele>170.0</ele><time>2026-05-03T10:54:16.543Z</time></trkpt><trkpt lat="42.29634" lon="14.05653"><ele>170.0</ele><time>2026-05-03T10:54:17.544Z</time></trkpt><trkpt lat="42.2964183" lon="14.0566817"><ele>170.0</ele><time>2026-05-03T10:54:18.544Z</time></trkpt><trkpt lat="42.2964983" lon="14.0568267"><ele>170.0</ele><time>2026-05-03T10:54:19.543Z</time></trkpt><trkpt lat="42.2965683" lon="14.056955"><ele>168.8</ele><time>2026-05-03T10:54:20.543Z</time></trkpt><trkpt lat="42.296635" lon="14.0570767"><ele>167.6</ele><time>2026-05-03T10:54:21.544Z</time></trkpt><trkpt lat="42.296695" lon="14.057195"><ele>166.39999999999998</ele><time>2026-05-03T10:54:22.544Z</time></trkpt><trkpt lat="42.2967517" lon="14.0573"><ele>165.2</ele><time>2026-05-03T10:54:23.544Z</time></trkpt><trkpt lat="42.2968067" lon="14.0574033"><ele>164.0</ele><time>2026-05-03T10:54:24.544Z</time></trkpt><trkpt lat="42.2968633" lon="14.05752"><ele>163.25</ele><time>2026-05-03T10:54:25.543Z</time></trkpt><trkpt lat="42.296925" lon="14.0576533"><ele>162.5</ele><time>2026-05-03T10:54:26.544Z</time></trkpt><trkpt lat="42.2969883" lon="14.0577883"><ele>161.75</ele><time>2026-05-03T10:54:27.544Z</time></trkpt><trkpt lat="42.29706" lon="14.0579383"><ele>161.0</ele><time>2026-05-03T10:54:28.543Z</time></trkpt><trkpt lat="42.2971317" lon="14.0580817"><ele>161.0</ele><time>2026-05-03T10:54:29.544Z</time></trkpt><trkpt lat="42.29719" lon="14.0582033"><ele>161.0</ele><time>2026-05-03T10:54:30.544Z</time></trkpt><trkpt lat="42.2972433" lon="14.058295"><ele>161.0</ele><time>2026-05-03T10:54:31.544Z</time></trkpt><trkpt lat="42.2972867" lon="14.0584"><ele>161.0</ele><time>2026-05-03T10:54:33.544Z</time></trkpt><trkpt lat="42.297355" lon="14.0584717"><ele>161.0</ele><time>2026-05-03T10:54:36.544Z</time></trkpt><trkpt lat="42.2974883" lon="14.0585567"><ele>160.25</ele><time>2026-05-03T10:54:38.544Z</time></trkpt><trkpt lat="42.297595" lon="14.0586017"><ele>159.5</ele><time>2026-05-03T10:54:39.544Z</time></trkpt><trkpt lat="42.2977283" lon="14.0586533"><ele>158.75</ele><time>2026-05-03T10:54:40.543Z</time></trkpt><trkpt lat="42.29786" lon="14.0587133"><ele>158.0</ele><time>2026-05-03T10:54:41.543Z</time></trkpt><trkpt lat="42.298" lon="14.05877"><ele>157.25</ele><time>2026-05-03T10:54:42.544Z</time></trkpt><trkpt lat="42.2981317" lon="14.0588283"><ele>156.5</ele><time>2026-05-03T10:54:43.544Z</time></trkpt><trkpt lat="42.298265" lon="14.058895"><ele>155.75</ele><time>2026-05-03T10:54:44.544Z</time></trkpt><trkpt lat="42.298395" lon="14.05896"><ele>155.0</ele><time>2026-05-03T10:54:45.544Z</time></trkpt><trkpt lat="42.2985233" lon="14.0590233"><ele>155.0</ele><time>2026-05-03T10:54:46.543Z</time></trkpt><trkpt lat="42.2986417" lon="14.05908"><ele>155.0</ele><time>2026-05-03T10:54:47.544Z</time></trkpt><trkpt lat="42.2987433" lon="14.0591267"><ele>155.0</ele><time>2026-05-03T10:54:48.544Z</time></trkpt><trkpt lat="42.2988367" lon="14.0591683"><ele>155.0</ele><time>2026-05-03T10:54:49.544Z</time></trkpt><trkpt lat="42.2989183" lon="14.05921"><ele>155.0</ele><time>2026-05-03T10:54:50.544Z</time></trkpt><trkpt lat="42.29898" lon="14.059255"><ele>154.6</ele><time>2026-05-03T10:54:51.544Z</time></trkpt><trkpt lat="42.2990283" lon="14.0593667"><ele>154.2</ele><time>2026-05-03T10:54:53.543Z</time></trkpt><trkpt lat="42.2989583" lon="14.0594417"><ele>153.8</ele><time>2026-05-03T10:54:55.544Z</time></trkpt><trkpt lat="42.2988717" lon="14.059465"><ele>153.4</ele><time>2026-05-03T10:54:56.544Z</time></trkpt><trkpt lat="42.2987583" lon="14.0594717"><ele>153.0</ele><time>2026-05-03T10:54:57.543Z</time></trkpt><trkpt lat="42.2986117" lon="14.0594383"><ele>153.0</ele><time>2026-05-03T10:54:58.543Z</time></trkpt><trkpt lat="42.2984633" lon="14.0593617"><ele>153.0</ele><time>2026-05-03T10:54:59.544Z</time></trkpt><trkpt lat="42.2983233" lon="14.0592617"><ele>153.0</ele><time>2026-05-03T10:55:00.544Z</time></trkpt><trkpt lat="42.2982183" lon="14.05916"><ele>153.0</ele><time>2026-05-03T10:55:01.544Z</time></trkpt><trkpt lat="42.2981383" lon="14.0590867"><ele>152.66666666666666</ele><time>2026-05-03T10:55:02.544Z</time></trkpt><trkpt lat="42.2980567" lon="14.059045"><ele>152.33333333333334</ele><time>2026-05-03T10:55:03.543Z</time></trkpt><trkpt lat="42.2979833" lon="14.0590417"><ele>152.0</ele><time>2026-05-03T10:55:04.543Z</time></trkpt><trkpt lat="42.29791" lon="14.05908"><ele>151.66666666666669</ele><time>2026-05-03T10:55:05.543Z</time></trkpt><trkpt lat="42.2978533" lon="14.0591633"><ele>151.33333333333334</ele><time>2026-05-03T10:55:06.543Z</time></trkpt><trkpt lat="42.2978367" lon="14.0592667"><ele>151.0</ele><time>2026-05-03T10:55:07.544Z</time></trkpt><trkpt lat="42.297855" lon="14.059375"><ele>151.0</ele><time>2026-05-03T10:55:08.544Z</time></trkpt><trkpt lat="42.297915" lon="14.059485"><ele>151.0</ele><time>2026-05-03T10:55:09.544Z</time></trkpt><trkpt lat="42.2980217" lon="14.0595983"><ele>151.0</ele><time>2026-05-03T10:55:10.544Z</time></trkpt><trkpt lat="42.2981933" lon="14.059725"><ele>151.0</ele><time>2026-05-03T10:55:11.543Z</time></trkpt><trkpt lat="42.2983967" lon="14.0598817"><ele>144.5</ele><time>2026-05-03T10:55:12.544Z</time></trkpt><trkpt lat="42.2985917" lon="14.0600533"><ele>138.0</ele><time>2026-05-03T10:55:13.544Z</time></trkpt><trkpt lat="42.2987917" lon="14.0602367"><ele>140.5</ele><time>2026-05-03T10:55:14.544Z</time></trkpt><trkpt lat="42.2989983" lon="14.0604483"><ele>143.0</ele><time>2026-05-03T10:55:15.544Z</time></trkpt><trkpt lat="42.2992" lon="14.0606767"><ele>135.0</ele><time>2026-05-03T10:55:16.544Z</time></trkpt><trkpt lat="42.2993983" lon="14.06093"><ele>127.0</ele><time>2026-05-03T10:55:17.543Z</time></trkpt><trkpt lat="42.29959" lon="14.061205"><ele>122.0</ele><time>2026-05-03T10:55:18.544Z</time></trkpt><trkpt lat="42.2997867" lon="14.061495"><ele>117.0</ele><time>2026-05-03T10:55:19.544Z</time></trkpt><trkpt lat="42.2999733" lon="14.06179"><ele>117.0</ele><time>2026-05-03T10:55:20.543Z</time></trkpt><trkpt lat="42.3001617" lon="14.0620783"><ele>117.0</ele><time>2026-05-03T10:55:21.543Z</time></trkpt><trkpt lat="42.3003417" lon="14.0623533"><ele>115.0</ele><time>2026-05-03T10:55:22.543Z</time></trkpt><trkpt lat="42.3005183" lon="14.062615"><ele>113.0</ele><time>2026-05-03T10:55:23.544Z</time></trkpt><trkpt lat="42.3006883" lon="14.062855"><ele>113.0</ele><time>2026-05-03T10:55:24.544Z</time></trkpt><trkpt lat="42.3008533" lon="14.06307"><ele>113.0</ele><time>2026-05-03T10:55:25.544Z</time></trkpt><trkpt lat="42.30103" lon="14.0632833"><ele>113.0</ele><time>2026-05-03T10:55:26.543Z</time></trkpt><trkpt lat="42.3012233" lon="14.06349"><ele>113.0</ele><time>2026-05-03T10:55:27.543Z</time></trkpt><trkpt lat="42.30143" lon="14.0636867"><ele>113.0</ele><time>2026-05-03T10:55:28.543Z</time></trkpt><trkpt lat="42.30165" lon="14.063885"><ele>113.0</ele><time>2026-05-03T10:55:29.544Z</time></trkpt><trkpt lat="42.301875" lon="14.06407"><ele>106.0</ele><time>2026-05-03T10:55:30.543Z</time></trkpt><trkpt lat="42.3020917" lon="14.0642383"><ele>99.0</ele><time>2026-05-03T10:55:31.544Z</time></trkpt><trkpt lat="42.302305" lon="14.0643883"><ele>99.0</ele><time>2026-05-03T10:55:32.544Z</time></trkpt><trkpt lat="42.3025217" lon="14.0645317"><ele>99.0</ele><time>2026-05-03T10:55:33.543Z</time></trkpt><trkpt lat="42.3027317" lon="14.0646517"><ele>99.0</ele><time>2026-05-03T10:55:34.543Z</time></trkpt><trkpt lat="42.3029533" lon="14.06476"><ele>99.0</ele><time>2026-05-03T10:55:35.543Z</time></trkpt><trkpt lat="42.3031733" lon="14.0648517"><ele>103.0</ele><time>2026-05-03T10:55:36.544Z</time></trkpt><trkpt lat="42.3033717" lon="14.0649367"><ele>107.0</ele><time>2026-05-03T10:55:37.544Z</time></trkpt><trkpt lat="42.3035583" lon="14.0650033"><ele>111.0</ele><time>2026-05-03T10:55:38.544Z</time></trkpt><trkpt lat="42.30373" lon="14.06505"><ele>104.75</ele><time>2026-05-03T10:55:39.544Z</time></trkpt><trkpt lat="42.303885" lon="14.0650917"><ele>98.5</ele><time>2026-05-03T10:55:40.544Z</time></trkpt><trkpt lat="42.3040317" lon="14.065125"><ele>92.25</ele><time>2026-05-03T10:55:41.543Z</time></trkpt><trkpt lat="42.3041667" lon="14.0651617"><ele>86.0</ele><time>2026-05-03T10:55:42.544Z</time></trkpt><trkpt lat="42.3042717" lon="14.06519"><ele>85.8</ele><time>2026-05-03T10:55:43.543Z</time></trkpt><trkpt lat="42.3043533" lon="14.0652133"><ele>85.6</ele><time>2026-05-03T10:55:44.544Z</time></trkpt><trkpt lat="42.3044233" lon="14.0652333"><ele>85.4</ele><time>2026-05-03T10:55:45.544Z</time></trkpt><trkpt lat="42.304505" lon="14.06525"><ele>85.2</ele><time>2026-05-03T10:55:46.544Z</time></trkpt><trkpt lat="42.3046067" lon="14.0652617"><ele>85.0</ele><time>2026-05-03T10:55:47.544Z</time></trkpt><trkpt lat="42.304735" lon="14.065275"><ele>84.75</ele><time>2026-05-03T10:55:48.544Z</time></trkpt><trkpt lat="42.30488" lon="14.0652933"><ele>84.5</ele><time>2026-05-03T10:55:49.544Z</time></trkpt><trkpt lat="42.30503" lon="14.0652967"><ele>84.25</ele><time>2026-05-03T10:55:50.544Z</time></trkpt><trkpt lat="42.3051683" lon="14.0652617"><ele>84.0</ele><time>2026-05-03T10:55:51.544Z</time></trkpt><trkpt lat="42.3053033" lon="14.06517"><ele>84.0</ele><time>2026-05-03T10:55:52.544Z</time></trkpt><trkpt lat="42.305425" lon="14.06504"><ele>84.0</ele><time>2026-05-03T10:55:53.543Z</time></trkpt><trkpt lat="42.3055383" lon="14.0648883"><ele>84.0</ele><time>2026-05-03T10:55:54.543Z</time></trkpt><trkpt lat="42.3056483" lon="14.064725"><ele>83.25</ele><time>2026-05-03T10:55:55.544Z</time></trkpt><trkpt lat="42.3057567" lon="14.0645733"><ele>82.5</ele><time>2026-05-03T10:55:56.544Z</time></trkpt><trkpt lat="42.3058583" lon="14.06444"><ele>81.75</ele><time>2026-05-03T10:55:57.543Z</time></trkpt><trkpt lat="42.305965" lon="14.0643083"><ele>81.0</ele><time>2026-05-03T10:55:58.544Z</time></trkpt><trkpt lat="42.3060667" lon="14.0641717"><ele>80.33333333333333</ele><time>2026-05-03T10:55:59.543Z</time></trkpt><trkpt lat="42.3061717" lon="14.0640317"><ele>79.66666666666666</ele><time>2026-05-03T10:56:00.543Z</time></trkpt><trkpt lat="42.3062867" lon="14.063875"><ele>79.0</ele><time>2026-05-03T10:56:01.544Z</time></trkpt><trkpt lat="42.3063967" lon="14.0637233"><ele>77.33333333333333</ele><time>2026-05-03T10:56:02.544Z</time></trkpt><trkpt lat="42.3065117" lon="14.06357"><ele>75.66666666666667</ele><time>2026-05-03T10:56:03.543Z</time></trkpt><trkpt lat="42.30663" lon="14.0634017"><ele>74.0</ele><time>2026-05-03T10:56:04.543Z</time></trkpt><trkpt lat="42.3067533" lon="14.0632517"><ele>73.75</ele><time>2026-05-03T10:56:05.544Z</time></trkpt><trkpt lat="42.3068717" lon="14.0631083"><ele>73.5</ele><time>2026-05-03T10:56:06.543Z</time></trkpt><trkpt lat="42.306975" lon="14.06298"><ele>73.25</ele><time>2026-05-03T10:56:07.544Z</time></trkpt><trkpt lat="42.3070633" lon="14.06287"><ele>73.0</ele><time>2026-05-03T10:56:08.544Z</time></trkpt><trkpt lat="42.3071367" lon="14.06277"><ele>73.0</ele><time>2026-05-03T10:56:09.544Z</time></trkpt><trkpt lat="42.307185" lon="14.0627017"><ele>73.0</ele><time>2026-05-03T10:56:10.544Z</time></trkpt><trkpt lat="42.3072333" lon="14.0626217"><ele>73.0</ele><time>2026-05-03T10:56:11.543Z</time></trkpt><trkpt lat="42.3073" lon="14.0625333"><ele>73.0</ele><time>2026-05-03T10:56:12.544Z</time></trkpt><trkpt lat="42.307385" lon="14.0624317"><ele>73.0</ele><time>2026-05-03T10:56:13.544Z</time></trkpt><trkpt lat="42.3074717" lon="14.0623133"><ele>72.75</ele><time>2026-05-03T10:56:14.543Z</time></trkpt><trkpt lat="42.3075783" lon="14.0621933"><ele>72.5</ele><time>2026-05-03T10:56:15.544Z</time></trkpt><trkpt lat="42.3076667" lon="14.0620783"><ele>72.25</ele><time>2026-05-03T10:56:16.544Z</time></trkpt><trkpt lat="42.3077433" lon="14.06197"><ele>72.0</ele><time>2026-05-03T10:56:17.544Z</time></trkpt><trkpt lat="42.307825" lon="14.06188"><ele>72.0</ele><time>2026-05-03T10:56:18.544Z</time></trkpt><trkpt lat="42.3078983" lon="14.061795"><ele>72.0</ele><time>2026-05-03T10:56:19.543Z</time></trkpt><trkpt lat="42.307965" lon="14.06175"><ele>72.0</ele><time>2026-05-03T10:56:20.544Z</time></trkpt><trkpt lat="42.308065" lon="14.06174"><ele>72.0</ele><time>2026-05-03T10:56:22.544Z</time></trkpt><trkpt lat="42.3081567" lon="14.0618317"><ele>72.0</ele><time>2026-05-03T10:56:24.543Z</time></trkpt><trkpt lat="42.3082117" lon="14.061935"><ele>72.0</ele><time>2026-05-03T10:56:25.544Z</time></trkpt><trkpt lat="42.308275" lon="14.0620733"><ele>72.0</ele><time>2026-05-03T10:56:26.543Z</time></trkpt><trkpt lat="42.3083517" lon="14.0622483"><ele>72.0</ele><time>2026-05-03T10:56:27.543Z</time></trkpt><trkpt lat="42.3084267" lon="14.0624217"><ele>72.0</ele><time>2026-05-03T10:56:28.544Z</time></trkpt><trkpt lat="42.3085083" lon="14.0625883"><ele>72.33333333333333</ele><time>2026-05-03T10:56:29.544Z</time></trkpt><trkpt lat="42.3085883" lon="14.0627533"><ele>72.66666666666666</ele><time>2026-05-03T10:56:30.543Z</time></trkpt><trkpt lat="42.308665" lon="14.062925"><ele>73.0</ele><time>2026-05-03T10:56:31.544Z</time></trkpt><trkpt lat="42.30875" lon="14.063105"><ele>73.0</ele><time>2026-05-03T10:56:32.544Z</time></trkpt><trkpt lat="42.30883" lon="14.0632617"><ele>73.0</ele><time>2026-05-03T10:56:33.544Z</time></trkpt><trkpt lat="42.3088833" lon="14.0634033"><ele>73.0</ele><time>2026-05-03T10:56:34.544Z</time></trkpt><trkpt lat="42.3089383" lon="14.0635317"><ele>73.0</ele><time>2026-05-03T10:56:35.543Z</time></trkpt><trkpt lat="42.309005" lon="14.063655"><ele>73.0</ele><time>2026-05-03T10:56:36.544Z</time></trkpt><trkpt lat="42.309075" lon="14.0637983"><ele>73.0</ele><time>2026-05-03T10:56:37.544Z</time></trkpt><trkpt lat="42.3091467" lon="14.0639317"><ele>73.0</ele><time>2026-05-03T10:56:38.544Z</time></trkpt><trkpt lat="42.309225" lon="14.0640883"><ele>73.0</ele><time>2026-05-03T10:56:39.544Z</time></trkpt><trkpt lat="42.30931" lon="14.0642633"><ele>71.33333333333333</ele><time>2026-05-03T10:56:40.543Z</time></trkpt><trkpt lat="42.3094" lon="14.0644467"><ele>69.66666666666667</ele><time>2026-05-03T10:56:41.544Z</time></trkpt><trkpt lat="42.3094867" lon="14.0646333"><ele>68.0</ele><time>2026-05-03T10:56:42.544Z</time></trkpt><trkpt lat="42.3095683" lon="14.06481"><ele>69.0</ele><time>2026-05-03T10:56:43.544Z</time></trkpt><trkpt lat="42.3096567" lon="14.0649883"><ele>70.0</ele><time>2026-05-03T10:56:44.544Z</time></trkpt><trkpt lat="42.30974" lon="14.0651717"><ele>71.0</ele><time>2026-05-03T10:56:45.543Z</time></trkpt><trkpt lat="42.30983" lon="14.0653483"><ele>71.0</ele><time>2026-05-03T10:56:46.544Z</time></trkpt><trkpt lat="42.3099167" lon="14.065525"><ele>71.0</ele><time>2026-05-03T10:56:47.544Z</time></trkpt><trkpt lat="42.310005" lon="14.0657067"><ele>71.0</ele><time>2026-05-03T10:56:48.544Z</time></trkpt><trkpt lat="42.3100933" lon="14.0658783"><ele>71.0</ele><time>2026-05-03T10:56:49.544Z</time></trkpt><trkpt lat="42.3101833" lon="14.0660583"><ele>71.0</ele><time>2026-05-03T10:56:50.544Z</time></trkpt><trkpt lat="42.3102683" lon="14.0662333"><ele>71.0</ele><time>2026-05-03T10:56:51.544Z</time></trkpt><trkpt lat="42.31035" lon="14.0663833"><ele>71.0</ele><time>2026-05-03T10:56:52.544Z</time></trkpt><trkpt lat="42.3104217" lon="14.0665217"><ele>71.0</ele><time>2026-05-03T10:56:53.544Z</time></trkpt><trkpt lat="42.31049" lon="14.0666367"><ele>71.0</ele><time>2026-05-03T10:56:54.544Z</time></trkpt><trkpt lat="42.31054" lon="14.0667417"><ele>71.0</ele><time>2026-05-03T10:56:55.543Z</time></trkpt><trkpt lat="42.3105767" lon="14.0668383"><ele>71.0</ele><time>2026-05-03T10:56:56.543Z</time></trkpt><trkpt lat="42.3105967" lon="14.0669933"><ele>71.0</ele><time>2026-05-03T10:56:58.544Z</time></trkpt><trkpt lat="42.3106183" lon="14.0671433"><ele>71.0</ele><time>2026-05-03T10:57:00.544Z</time></trkpt><trkpt lat="42.3106533" lon="14.0672217"><ele>71.0</ele><time>2026-05-03T10:57:01.544Z</time></trkpt><trkpt lat="42.3107217" lon="14.0673067"><ele>71.0</ele><time>2026-05-03T10:57:02.542Z</time></trkpt><trkpt lat="42.3108017" lon="14.0674167"><ele>71.0</ele><time>2026-05-03T10:57:03.543Z</time></trkpt><trkpt lat="42.3108783" lon="14.067565"><ele>71.33333333333334</ele><time>2026-05-03T10:57:04.543Z</time></trkpt><trkpt lat="42.3109567" lon="14.0677433"><ele>71.66666666666667</ele><time>2026-05-03T10:57:05.543Z</time></trkpt><trkpt lat="42.3110483" lon="14.0679183"><ele>72.0</ele><time>2026-05-03T10:57:06.543Z</time></trkpt><trkpt lat="42.3111483" lon="14.0681083"><ele>72.0</ele><time>2026-05-03T10:57:07.543Z</time></trkpt><trkpt lat="42.3112433" lon="14.0683083"><ele>72.0</ele><time>2026-05-03T10:57:08.542Z</time></trkpt><trkpt lat="42.311335" lon="14.0685067"><ele>72.0</ele><time>2026-05-03T10:57:09.543Z</time></trkpt><trkpt lat="42.3114317" lon="14.0687083"><ele>72.0</ele><time>2026-05-03T10:57:10.542Z</time></trkpt><trkpt lat="42.3115283" lon="14.068905"><ele>72.0</ele><time>2026-05-03T10:57:11.543Z</time></trkpt><trkpt lat="42.31161" lon="14.0690967"><ele>72.0</ele><time>2026-05-03T10:57:12.543Z</time></trkpt><trkpt lat="42.3117" lon="14.0692767"><ele>72.0</ele><time>2026-05-03T10:57:13.543Z</time></trkpt><trkpt lat="42.3117883" lon="14.0694533"><ele>72.0</ele><time>2026-05-03T10:57:14.542Z</time></trkpt><trkpt lat="42.3118683" lon="14.0696217"><ele>72.0</ele><time>2026-05-03T10:57:15.543Z</time></trkpt><trkpt lat="42.3119417" lon="14.069785"><ele>72.0</ele><time>2026-05-03T10:57:16.542Z</time></trkpt><trkpt lat="42.3120183" lon="14.0699433"><ele>71.66666666666667</ele><time>2026-05-03T10:57:17.543Z</time></trkpt><trkpt lat="42.3120983" lon="14.0701083"><ele>71.33333333333334</ele><time>2026-05-03T10:57:18.543Z</time></trkpt><trkpt lat="42.3121817" lon="14.07028"><ele>71.0</ele><time>2026-05-03T10:57:19.543Z</time></trkpt><trkpt lat="42.3122733" lon="14.0704567"><ele>70.66666666666667</ele><time>2026-05-03T10:57:20.543Z</time></trkpt><trkpt lat="42.3123533" lon="14.0706383"><ele>70.33333333333333</ele><time>2026-05-03T10:57:21.543Z</time></trkpt><trkpt lat="42.312445" lon="14.0708133"><ele>70.0</ele><time>2026-05-03T10:57:22.543Z</time></trkpt><trkpt lat="42.3125283" lon="14.0709983"><ele>69.66666666666666</ele><time>2026-05-03T10:57:23.543Z</time></trkpt><trkpt lat="42.312615" lon="14.0711767"><ele>69.33333333333333</ele><time>2026-05-03T10:57:24.543Z</time></trkpt><trkpt lat="42.3127033" lon="14.0713483"><ele>69.0</ele><time>2026-05-03T10:57:25.543Z</time></trkpt><trkpt lat="42.3127867" lon="14.0715183"><ele>69.25</ele><time>2026-05-03T10:57:26.542Z</time></trkpt><trkpt lat="42.312875" lon="14.071685"><ele>69.5</ele><time>2026-05-03T10:57:27.543Z</time></trkpt><trkpt lat="42.3129533" lon="14.0718483"><ele>69.75</ele><time>2026-05-03T10:57:28.542Z</time></trkpt><trkpt lat="42.31304" lon="14.0720183"><ele>70.0</ele><time>2026-05-03T10:57:29.543Z</time></trkpt><trkpt lat="42.3131167" lon="14.07217"><ele>69.6</ele><time>2026-05-03T10:57:30.543Z</time></trkpt><trkpt lat="42.3131867" lon="14.0723117"><ele>69.2</ele><time>2026-05-03T10:57:31.543Z</time></trkpt><trkpt lat="42.3132433" lon="14.072435"><ele>68.8</ele><time>2026-05-03T10:57:32.542Z</time></trkpt><trkpt lat="42.3133017" lon="14.072545"><ele>68.4</ele><time>2026-05-03T10:57:33.543Z</time></trkpt><trkpt lat="42.3133517" lon="14.07266"><ele>68.0</ele><time>2026-05-03T10:57:34.543Z</time></trkpt><trkpt lat="42.3134067" lon="14.0727883"><ele>68.25</ele><time>2026-05-03T10:57:35.543Z</time></trkpt><trkpt lat="42.3134667" lon="14.072935"><ele>68.5</ele><time>2026-05-03T10:57:36.543Z</time></trkpt><trkpt lat="42.3135367" lon="14.0730867"><ele>68.75</ele><time>2026-05-03T10:57:37.543Z</time></trkpt><trkpt lat="42.3136117" lon="14.07325"><ele>69.0</ele><time>2026-05-03T10:57:38.542Z</time></trkpt><trkpt lat="42.3136983" lon="14.073425"><ele>69.0</ele><time>2026-05-03T10:57:39.543Z</time></trkpt><trkpt lat="42.3137817" lon="14.073595"><ele>69.0</ele><time>2026-05-03T10:57:40.543Z</time></trkpt><trkpt lat="42.313855" lon="14.0737533"><ele>69.0</ele><time>2026-05-03T10:57:41.542Z</time></trkpt><trkpt lat="42.313935" lon="14.0739133"><ele>69.0</ele><time>2026-05-03T10:57:42.542Z</time></trkpt><trkpt lat="42.3140183" lon="14.0740817"><ele>68.66666666666667</ele><time>2026-05-03T10:57:43.543Z</time></trkpt><trkpt lat="42.3141033" lon="14.074255"><ele>68.33333333333334</ele><time>2026-05-03T10:57:44.543Z</time></trkpt><trkpt lat="42.3141917" lon="14.0744383"><ele>68.0</ele><time>2026-05-03T10:57:45.542Z</time></trkpt><trkpt lat="42.3142767" lon="14.0746117"><ele>68.0</ele><time>2026-05-03T10:57:46.542Z</time></trkpt><trkpt lat="42.314355" lon="14.074765"><ele>68.0</ele><time>2026-05-03T10:57:47.543Z</time></trkpt><trkpt lat="42.3144117" lon="14.0748933"><ele>68.0</ele><time>2026-05-03T10:57:48.543Z</time></trkpt><trkpt lat="42.3144617" lon="14.0749967"><ele>68.0</ele><time>2026-05-03T10:57:49.543Z</time></trkpt><trkpt lat="42.3145067" lon="14.0750717"><ele>68.0</ele><time>2026-05-03T10:57:50.543Z</time></trkpt><trkpt lat="42.3145583" lon="14.0751683"><ele>68.0</ele><time>2026-05-03T10:57:52.543Z</time></trkpt><trkpt lat="42.3146067" lon="14.0752683"><ele>68.0</ele><time>2026-05-03T10:57:54.543Z</time></trkpt><trkpt lat="42.31464" lon="14.0753417"><ele>68.0</ele><time>2026-05-03T10:57:55.543Z</time></trkpt><trkpt lat="42.3146983" lon="14.0754983"><ele>68.0</ele><time>2026-05-03T10:57:57.543Z</time></trkpt><trkpt lat="42.3147383" lon="14.07559"><ele>68.0</ele><time>2026-05-03T10:57:58.543Z</time></trkpt><trkpt lat="42.3147917" lon="14.0756817"><ele>68.0</ele><time>2026-05-03T10:57:59.543Z</time></trkpt><trkpt lat="42.31484" lon="14.0757817"><ele>68.2</ele><time>2026-05-03T10:58:00.542Z</time></trkpt><trkpt lat="42.3148833" lon="14.0758667"><ele>68.4</ele><time>2026-05-03T10:58:01.543Z</time></trkpt><trkpt lat="42.3149533" lon="14.0760233"><ele>68.60000000000001</ele><time>2026-05-03T10:58:03.542Z</time></trkpt><trkpt lat="42.315005" lon="14.076125"><ele>68.8</ele><time>2026-05-03T10:58:04.542Z</time></trkpt><trkpt lat="42.3150617" lon="14.0762483"><ele>69.0</ele><time>2026-05-03T10:58:05.543Z</time></trkpt><trkpt lat="42.3151233" lon="14.0764083"><ele>69.0</ele><time>2026-05-03T10:58:06.542Z</time></trkpt><trkpt lat="42.315205" lon="14.0765867"><ele>69.0</ele><time>2026-05-03T10:58:07.543Z</time></trkpt><trkpt lat="42.3153067" lon="14.0767883"><ele>69.0</ele><time>2026-05-03T10:58:08.543Z</time></trkpt><trkpt lat="42.3154183" lon="14.077"><ele>69.0</ele><time>2026-05-03T10:58:09.542Z</time></trkpt><trkpt lat="42.315535" lon="14.077225"><ele>69.0</ele><time>2026-05-03T10:58:10.542Z</time></trkpt><trkpt lat="42.3156417" lon="14.0774683"><ele>69.0</ele><time>2026-05-03T10:58:11.543Z</time></trkpt><trkpt lat="42.31575" lon="14.0777167"><ele>68.66666666666667</ele><time>2026-05-03T10:58:12.542Z</time></trkpt><trkpt lat="42.31587" lon="14.0779667"><ele>68.33333333333334</ele><time>2026-05-03T10:58:13.542Z</time></trkpt><trkpt lat="42.315985" lon="14.0781967"><ele>68.0</ele><time>2026-05-03T10:58:14.543Z</time></trkpt><trkpt lat="42.3161" lon="14.07843"><ele>68.0</ele><time>2026-05-03T10:58:15.543Z</time></trkpt><trkpt lat="42.3162067" lon="14.0786633"><ele>68.0</ele><time>2026-05-03T10:58:16.542Z</time></trkpt><trkpt lat="42.316315" lon="14.0788783"><ele>68.0</ele><time>2026-05-03T10:58:17.543Z</time></trkpt><trkpt lat="42.316425" lon="14.0791017"><ele>67.66666666666667</ele><time>2026-05-03T10:58:18.543Z</time></trkpt><trkpt lat="42.3165267" lon="14.0793133"><ele>67.33333333333333</ele><time>2026-05-03T10:58:19.543Z</time></trkpt><trkpt lat="42.3166217" lon="14.0795217"><ele>67.0</ele><time>2026-05-03T10:58:20.543Z</time></trkpt><trkpt lat="42.31672" lon="14.0797283"><ele>67.0</ele><time>2026-05-03T10:58:21.543Z</time></trkpt><trkpt lat="42.3168133" lon="14.07994"><ele>67.0</ele><time>2026-05-03T10:58:22.543Z</time></trkpt><trkpt lat="42.31692" lon="14.0801533"><ele>67.0</ele><time>2026-05-03T10:58:23.543Z</time></trkpt><trkpt lat="42.317025" lon="14.080355"><ele>67.0</ele><time>2026-05-03T10:58:24.543Z</time></trkpt><trkpt lat="42.3171333" lon="14.08057"><ele>67.0</ele><time>2026-05-03T10:58:25.543Z</time></trkpt><trkpt lat="42.3172267" lon="14.0807717"><ele>67.0</ele><time>2026-05-03T10:58:26.543Z</time></trkpt><trkpt lat="42.3173217" lon="14.0809683"><ele>66.33333333333333</ele><time>2026-05-03T10:58:27.543Z</time></trkpt><trkpt lat="42.317415" lon="14.0811667"><ele>65.66666666666667</ele><time>2026-05-03T10:58:28.543Z</time></trkpt><trkpt lat="42.317515" lon="14.0813567"><ele>65.0</ele><time>2026-05-03T10:58:29.542Z</time></trkpt><trkpt lat="42.3176117" lon="14.0815583"><ele>64.66666666666667</ele><time>2026-05-03T10:58:30.542Z</time></trkpt><trkpt lat="42.3177033" lon="14.0817633"><ele>64.33333333333333</ele><time>2026-05-03T10:58:31.543Z</time></trkpt><trkpt lat="42.3178" lon="14.0819667"><ele>64.0</ele><time>2026-05-03T10:58:32.542Z</time></trkpt><trkpt lat="42.3178933" lon="14.0821767"><ele>64.0</ele><time>2026-05-03T10:58:33.543Z</time></trkpt><trkpt lat="42.317995" lon="14.0823883"><ele>64.0</ele><time>2026-05-03T10:58:34.543Z</time></trkpt><trkpt lat="42.3181017" lon="14.082595"><ele>64.0</ele><time>2026-05-03T10:58:35.543Z</time></trkpt><trkpt lat="42.3182067" lon="14.082805"><ele>64.0</ele><time>2026-05-03T10:58:36.543Z</time></trkpt><trkpt lat="42.3182967" lon="14.0829983"><ele>64.0</ele><time>2026-05-03T10:58:37.542Z</time></trkpt><trkpt lat="42.318385" lon="14.0831783"><ele>64.0</ele><time>2026-05-03T10:58:38.543Z</time></trkpt><trkpt lat="42.3184717" lon="14.083345"><ele>63.75</ele><time>2026-05-03T10:58:39.542Z</time></trkpt><trkpt lat="42.31855" lon="14.0835083"><ele>63.5</ele><time>2026-05-03T10:58:40.543Z</time></trkpt><trkpt lat="42.31863" lon="14.083675"><ele>63.25</ele><time>2026-05-03T10:58:41.543Z</time></trkpt><trkpt lat="42.3187083" lon="14.0838533"><ele>63.0</ele><time>2026-05-03T10:58:42.543Z</time></trkpt><trkpt lat="42.3187933" lon="14.0840383"><ele>63.0</ele><time>2026-05-03T10:58:43.543Z</time></trkpt><trkpt lat="42.3188867" lon="14.0842267"><ele>63.0</ele><time>2026-05-03T10:58:44.542Z</time></trkpt><trkpt lat="42.3189833" lon="14.0844333"><ele>63.0</ele><time>2026-05-03T10:58:45.542Z</time></trkpt><trkpt lat="42.3190767" lon="14.0846383"><ele>63.0</ele><time>2026-05-03T10:58:46.542Z</time></trkpt><trkpt lat="42.31918" lon="14.084845"><ele>63.0</ele><time>2026-05-03T10:58:47.542Z</time></trkpt><trkpt lat="42.31929" lon="14.0850567"><ele>63.0</ele><time>2026-05-03T10:58:48.543Z</time></trkpt><trkpt lat="42.319395" lon="14.085275"><ele>62.66666666666667</ele><time>2026-05-03T10:58:49.543Z</time></trkpt><trkpt lat="42.31949" lon="14.0854967"><ele>62.333333333333336</ele><time>2026-05-03T10:58:50.542Z</time></trkpt><trkpt lat="42.31959" lon="14.0857067"><ele>62.0</ele><time>2026-05-03T10:58:51.543Z</time></trkpt><trkpt lat="42.3196833" lon="14.0859033"><ele>61.0</ele><time>2026-05-03T10:58:52.543Z</time></trkpt><trkpt lat="42.3197667" lon="14.08608"><ele>60.0</ele><time>2026-05-03T10:58:53.542Z</time></trkpt><trkpt lat="42.3198467" lon="14.086255"><ele>59.0</ele><time>2026-05-03T10:58:54.543Z</time></trkpt><trkpt lat="42.3199367" lon="14.0864333"><ele>59.66666666666667</ele><time>2026-05-03T10:58:55.542Z</time></trkpt><trkpt lat="42.32004" lon="14.08662"><ele>60.33333333333333</ele><time>2026-05-03T10:58:56.542Z</time></trkpt><trkpt lat="42.3201367" lon="14.0868217"><ele>61.0</ele><time>2026-05-03T10:58:57.543Z</time></trkpt><trkpt lat="42.320225" lon="14.0870167"><ele>61.0</ele><time>2026-05-03T10:58:58.542Z</time></trkpt><trkpt lat="42.3203117" lon="14.0872067"><ele>61.0</ele><time>2026-05-03T10:58:59.542Z</time></trkpt><trkpt lat="42.3204033" lon="14.087395"><ele>61.0</ele><time>2026-05-03T10:59:00.542Z</time></trkpt><trkpt lat="42.32049" lon="14.087585"><ele>60.666666666666664</ele><time>2026-05-03T10:59:01.542Z</time></trkpt><trkpt lat="42.3205867" lon="14.0877783"><ele>60.33333333333333</ele><time>2026-05-03T10:59:02.542Z</time></trkpt><trkpt lat="42.3206817" lon="14.08798"><ele>60.0</ele><time>2026-05-03T10:59:03.543Z</time></trkpt><trkpt lat="42.32078" lon="14.0881917"><ele>60.0</ele><time>2026-05-03T10:59:04.543Z</time></trkpt><trkpt lat="42.3208833" lon="14.0884083"><ele>60.0</ele><time>2026-05-03T10:59:05.543Z</time></trkpt><trkpt lat="42.3209833" lon="14.0886217"><ele>60.0</ele><time>2026-05-03T10:59:06.543Z</time></trkpt><trkpt lat="42.32108" lon="14.0888317"><ele>60.0</ele><time>2026-05-03T10:59:07.543Z</time></trkpt><trkpt lat="42.321175" lon="14.0890233"><ele>60.0</ele><time>2026-05-03T10:59:08.543Z</time></trkpt><trkpt lat="42.3212633" lon="14.0892017"><ele>60.0</ele><time>2026-05-03T10:59:09.543Z</time></trkpt><trkpt lat="42.3213517" lon="14.0893683"><ele>59.75</ele><time>2026-05-03T10:59:10.542Z</time></trkpt><trkpt lat="42.3214333" lon="14.089535"><ele>59.5</ele><time>2026-05-03T10:59:11.542Z</time></trkpt><trkpt lat="42.3215033" lon="14.0896833"><ele>59.25</ele><time>2026-05-03T10:59:12.543Z</time></trkpt><trkpt lat="42.32157" lon="14.089825"><ele>59.0</ele><time>2026-05-03T10:59:13.543Z</time></trkpt><trkpt lat="42.321635" lon="14.08995"><ele>58.833333333333336</ele><time>2026-05-03T10:59:14.542Z</time></trkpt><trkpt lat="42.3216867" lon="14.09006"><ele>58.66666666666667</ele><time>2026-05-03T10:59:15.543Z</time></trkpt><trkpt lat="42.32173" lon="14.0901533"><ele>58.5</ele><time>2026-05-03T10:59:16.542Z</time></trkpt><trkpt lat="42.321765" lon="14.0902383"><ele>58.33333333333333</ele><time>2026-05-03T10:59:17.543Z</time></trkpt><trkpt lat="42.321805" lon="14.09032"><ele>58.166666666666664</ele><time>2026-05-03T10:59:18.542Z</time></trkpt><trkpt lat="42.3218433" lon="14.0904033"><ele>58.0</ele><time>2026-05-03T10:59:19.542Z</time></trkpt><trkpt lat="42.3218867" lon="14.0904983"><ele>58.0</ele><time>2026-05-03T10:59:20.543Z</time></trkpt><trkpt lat="42.321935" lon="14.0906083"><ele>58.0</ele><time>2026-05-03T10:59:21.542Z</time></trkpt><trkpt lat="42.3220017" lon="14.0907367"><ele>58.0</ele><time>2026-05-03T10:59:22.542Z</time></trkpt><trkpt lat="42.3220817" lon="14.09089"><ele>58.0</ele><time>2026-05-03T10:59:23.543Z</time></trkpt><trkpt lat="42.3221667" lon="14.0910617"><ele>58.33333333333333</ele><time>2026-05-03T10:59:24.542Z</time></trkpt><trkpt lat="42.3222533" lon="14.091245"><ele>58.66666666666667</ele><time>2026-05-03T10:59:25.542Z</time></trkpt><trkpt lat="42.3223417" lon="14.09144"><ele>59.0</ele><time>2026-05-03T10:59:26.543Z</time></trkpt><trkpt lat="42.32243" lon="14.091635"><ele>59.0</ele><time>2026-05-03T10:59:27.542Z</time></trkpt><trkpt lat="42.322515" lon="14.09183"><ele>59.0</ele><time>2026-05-03T10:59:28.542Z</time></trkpt><trkpt lat="42.322605" lon="14.092025"><ele>59.0</ele><time>2026-05-03T10:59:29.543Z</time></trkpt><trkpt lat="42.3226983" lon="14.0922233"><ele>58.66666666666667</ele><time>2026-05-03T10:59:30.543Z</time></trkpt><trkpt lat="42.322795" lon="14.09243"><ele>58.33333333333333</ele><time>2026-05-03T10:59:31.543Z</time></trkpt><trkpt lat="42.3228933" lon="14.0926533"><ele>58.0</ele><time>2026-05-03T10:59:32.542Z</time></trkpt><trkpt lat="42.323005" lon="14.0928717"><ele>58.0</ele><time>2026-05-03T10:59:33.543Z</time></trkpt><trkpt lat="42.32312" lon="14.0930867"><ele>58.0</ele><time>2026-05-03T10:59:34.543Z</time></trkpt><trkpt lat="42.3232233" lon="14.093305"><ele>58.0</ele><time>2026-05-03T10:59:35.543Z</time></trkpt><trkpt lat="42.3233317" lon="14.09352"><ele>58.0</ele><time>2026-05-03T10:59:36.543Z</time></trkpt><trkpt lat="42.3234217" lon="14.093745"><ele>58.0</ele><time>2026-05-03T10:59:37.543Z</time></trkpt><trkpt lat="42.3235117" lon="14.0939733"><ele>58.0</ele><time>2026-05-03T10:59:38.543Z</time></trkpt><trkpt lat="42.32359" lon="14.094225"><ele>58.0</ele><time>2026-05-03T10:59:39.543Z</time></trkpt><trkpt lat="42.3236567" lon="14.0944917"><ele>58.0</ele><time>2026-05-03T10:59:40.543Z</time></trkpt><trkpt lat="42.32372" lon="14.0947733"><ele>58.0</ele><time>2026-05-03T10:59:41.543Z</time></trkpt><trkpt lat="42.323775" lon="14.0950333"><ele>58.33333333333333</ele><time>2026-05-03T10:59:42.543Z</time></trkpt><trkpt lat="42.3238283" lon="14.095275"><ele>58.66666666666667</ele><time>2026-05-03T10:59:43.542Z</time></trkpt><trkpt lat="42.3238717" lon="14.095495"><ele>59.0</ele><time>2026-05-03T10:59:44.543Z</time></trkpt><trkpt lat="42.3239167" lon="14.0957117"><ele>58.66666666666667</ele><time>2026-05-03T10:59:45.543Z</time></trkpt><trkpt lat="42.323965" lon="14.0959267"><ele>58.33333333333333</ele><time>2026-05-03T10:59:46.542Z</time></trkpt><trkpt lat="42.324005" lon="14.09614"><ele>58.0</ele><time>2026-05-03T10:59:47.543Z</time></trkpt><trkpt lat="42.324045" lon="14.0963367"><ele>58.0</ele><time>2026-05-03T10:59:48.543Z</time></trkpt><trkpt lat="42.3240883" lon="14.096515"><ele>58.0</ele><time>2026-05-03T10:59:49.543Z</time></trkpt><trkpt lat="42.3241267" lon="14.0967067"><ele>58.0</ele><time>2026-05-03T10:59:50.543Z</time></trkpt><trkpt lat="42.3241733" lon="14.0969083"><ele>58.0</ele><time>2026-05-03T10:59:51.542Z</time></trkpt><trkpt lat="42.32422" lon="14.097145"><ele>58.0</ele><time>2026-05-03T10:59:52.542Z</time></trkpt><trkpt lat="42.3242667" lon="14.0973967"><ele>58.0</ele><time>2026-05-03T10:59:53.542Z</time></trkpt><trkpt lat="42.32433" lon="14.09765"><ele>58.0</ele><time>2026-05-03T10:59:54.543Z</time></trkpt><trkpt lat="42.3244133" lon="14.0978983"><ele>57.666666666666664</ele><time>2026-05-03T10:59:55.543Z</time></trkpt><trkpt lat="42.3245217" lon="14.098135"><ele>57.33333333333333</ele><time>2026-05-03T10:59:56.543Z</time></trkpt><trkpt lat="42.324645" lon="14.098355"><ele>57.0</ele><time>2026-05-03T10:59:57.543Z</time></trkpt><trkpt lat="42.3247767" lon="14.0985783"><ele>56.66666666666667</ele><time>2026-05-03T10:59:58.543Z</time></trkpt><trkpt lat="42.3249167" lon="14.098795"><ele>56.333333333333336</ele><time>2026-05-03T10:59:59.543Z</time></trkpt><trkpt lat="42.325055" lon="14.09902"><ele>56.0</ele><time>2026-05-03T11:00:00.542Z</time></trkpt><trkpt lat="42.32519" lon="14.0992367"><ele>56.0</ele><time>2026-05-03T11:00:01.543Z</time></trkpt><trkpt lat="42.3253133" lon="14.0994333"><ele>56.0</ele><time>2026-05-03T11:00:02.542Z</time></trkpt><trkpt lat="42.3254233" lon="14.099615"><ele>56.0</ele><time>2026-05-03T11:00:03.543Z</time></trkpt><trkpt lat="42.3255333" lon="14.0997833"><ele>55.25</ele><time>2026-05-03T11:00:04.543Z</time></trkpt><trkpt lat="42.3256367" lon="14.099945"><ele>54.5</ele><time>2026-05-03T11:00:05.543Z</time></trkpt><trkpt lat="42.325735" lon="14.1001017"><ele>53.75</ele><time>2026-05-03T11:00:06.542Z</time></trkpt><trkpt lat="42.325815" lon="14.1002367"><ele>53.0</ele><time>2026-05-03T11:00:07.542Z</time></trkpt><trkpt lat="42.32589" lon="14.1003583"><ele>53.00000000000001</ele><time>2026-05-03T11:00:08.543Z</time></trkpt><trkpt lat="42.32596" lon="14.1004633"><ele>53.0</ele><time>2026-05-03T11:00:09.543Z</time></trkpt><trkpt lat="42.3260233" lon="14.1005667"><ele>53.0</ele><time>2026-05-03T11:00:10.543Z</time></trkpt><trkpt lat="42.32607" lon="14.1006633"><ele>53.0</ele><time>2026-05-03T11:00:11.542Z</time></trkpt><trkpt lat="42.326105" lon="14.1007517"><ele>53.00000000000001</ele><time>2026-05-03T11:00:12.543Z</time></trkpt><trkpt lat="42.3261267" lon="14.1008367"><ele>53.0</ele><time>2026-05-03T11:00:13.542Z</time></trkpt><trkpt lat="42.326155" lon="14.101"><ele>53.4</ele><time>2026-05-03T11:00:15.543Z</time></trkpt><trkpt lat="42.3262017" lon="14.10115"><ele>53.8</ele><time>2026-05-03T11:00:17.542Z</time></trkpt><trkpt lat="42.3263117" lon="14.10124"><ele>54.2</ele><time>2026-05-03T11:00:19.543Z</time></trkpt><trkpt lat="42.3263967" lon="14.1012767"><ele>54.6</ele><time>2026-05-03T11:00:20.543Z</time></trkpt><trkpt lat="42.3264733" lon="14.101335"><ele>55.0</ele><time>2026-05-03T11:00:21.543Z</time></trkpt><trkpt lat="42.3265533" lon="14.10142"><ele>55.0</ele><time>2026-05-03T11:00:22.542Z</time></trkpt><trkpt lat="42.32663" lon="14.1015167"><ele>55.0</ele><time>2026-05-03T11:00:23.543Z</time></trkpt><trkpt lat="42.3267083" lon="14.10163"><ele>55.0</ele><time>2026-05-03T11:00:24.542Z</time></trkpt><trkpt lat="42.3267833" lon="14.101755"><ele>55.0</ele><time>2026-05-03T11:00:25.543Z</time></trkpt><trkpt lat="42.3268617" lon="14.1018783"><ele>55.0</ele><time>2026-05-03T11:00:26.543Z</time></trkpt><trkpt lat="42.3269333" lon="14.1020083"><ele>55.0</ele><time>2026-05-03T11:00:27.543Z</time></trkpt><trkpt lat="42.3270083" lon="14.1021467"><ele>55.0</ele><time>2026-05-03T11:00:28.543Z</time></trkpt><trkpt lat="42.327085" lon="14.1023"><ele>55.0</ele><time>2026-05-03T11:00:29.543Z</time></trkpt><trkpt lat="42.3271533" lon="14.1024483"><ele>55.5</ele><time>2026-05-03T11:00:30.542Z</time></trkpt><trkpt lat="42.3272133" lon="14.1026017"><ele>56.0</ele><time>2026-05-03T11:00:31.543Z</time></trkpt><trkpt lat="42.3272783" lon="14.1027633"><ele>56.5</ele><time>2026-05-03T11:00:32.543Z</time></trkpt><trkpt lat="42.3273333" lon="14.10292"><ele>57.0</ele><time>2026-05-03T11:00:33.542Z</time></trkpt><trkpt lat="42.3273767" lon="14.1030867"><ele>55.0</ele><time>2026-05-03T11:00:34.543Z</time></trkpt><trkpt lat="42.3274283" lon="14.1032583"><ele>53.0</ele><time>2026-05-03T11:00:35.543Z</time></trkpt><trkpt lat="42.3274817" lon="14.1034267"><ele>51.0</ele><time>2026-05-03T11:00:36.543Z</time></trkpt><trkpt lat="42.32754" lon="14.1035833"><ele>49.0</ele><time>2026-05-03T11:00:37.543Z</time></trkpt><trkpt lat="42.3275867" lon="14.1037483"><ele>49.0</ele><time>2026-05-03T11:00:38.543Z</time></trkpt><trkpt lat="42.3276367" lon="14.1039067"><ele>49.0</ele><time>2026-05-03T11:00:39.542Z</time></trkpt><trkpt lat="42.32769" lon="14.104065"><ele>49.0</ele><time>2026-05-03T11:00:40.543Z</time></trkpt><trkpt lat="42.32774" lon="14.1042317"><ele>49.0</ele><time>2026-05-03T11:00:41.543Z</time></trkpt><trkpt lat="42.32779" lon="14.10438"><ele>48.5</ele><time>2026-05-03T11:00:42.542Z</time></trkpt><trkpt lat="42.3278283" lon="14.1045233"><ele>48.0</ele><time>2026-05-03T11:00:43.543Z</time></trkpt><trkpt lat="42.3278733" lon="14.1046717"><ele>47.5</ele><time>2026-05-03T11:00:44.543Z</time></trkpt><trkpt lat="42.3279217" lon="14.104815"><ele>47.0</ele><time>2026-05-03T11:00:45.542Z</time></trkpt><trkpt lat="42.3279633" lon="14.1049633"><ele>46.75</ele><time>2026-05-03T11:00:46.542Z</time></trkpt><trkpt lat="42.3280117" lon="14.1051183"><ele>46.5</ele><time>2026-05-03T11:00:47.543Z</time></trkpt><trkpt lat="42.3280733" lon="14.1052833"><ele>46.25</ele><time>2026-05-03T11:00:48.541Z</time></trkpt><trkpt lat="42.32812" lon="14.1054467"><ele>46.0</ele><time>2026-05-03T11:00:49.541Z</time></trkpt><trkpt lat="42.3281733" lon="14.1056183"><ele>46.0</ele><time>2026-05-03T11:00:50.541Z</time></trkpt><trkpt lat="42.3282233" lon="14.10579"><ele>46.0</ele><time>2026-05-03T11:00:51.541Z</time></trkpt><trkpt lat="42.3282783" lon="14.1059383"><ele>46.0</ele><time>2026-05-03T11:00:52.542Z</time></trkpt><trkpt lat="42.3283217" lon="14.1061"><ele>46.0</ele><time>2026-05-03T11:00:53.541Z</time></trkpt><trkpt lat="42.3283833" lon="14.1062667"><ele>46.0</ele><time>2026-05-03T11:00:54.542Z</time></trkpt><trkpt lat="42.3284333" lon="14.1064433"><ele>46.0</ele><time>2026-05-03T11:00:55.541Z</time></trkpt><trkpt lat="42.3284933" lon="14.1066133"><ele>46.0</ele><time>2026-05-03T11:00:56.541Z</time></trkpt><trkpt lat="42.328545" lon="14.106795"><ele>46.0</ele><time>2026-05-03T11:00:57.541Z</time></trkpt><trkpt lat="42.3285967" lon="14.1069717"><ele>46.0</ele><time>2026-05-03T11:00:58.542Z</time></trkpt><trkpt lat="42.3286517" lon="14.107135"><ele>46.0</ele><time>2026-05-03T11:00:59.541Z</time></trkpt><trkpt lat="42.3287083" lon="14.1073033"><ele>46.0</ele><time>2026-05-03T11:01:00.541Z</time></trkpt><trkpt lat="42.3287567" lon="14.1074633"><ele>46.0</ele><time>2026-05-03T11:01:01.542Z</time></trkpt><trkpt lat="42.3288083" lon="14.1076283"><ele>46.0</ele><time>2026-05-03T11:01:02.541Z</time></trkpt><trkpt lat="42.328865" lon="14.1078217"><ele>46.0</ele><time>2026-05-03T11:01:03.541Z</time></trkpt><trkpt lat="42.3289367" lon="14.108015"><ele>46.0</ele><time>2026-05-03T11:01:04.542Z</time></trkpt><trkpt lat="42.3290017" lon="14.1081967"><ele>44.333333333333336</ele><time>2026-05-03T11:01:05.542Z</time></trkpt><trkpt lat="42.3290717" lon="14.1083833"><ele>42.666666666666664</ele><time>2026-05-03T11:01:06.542Z</time></trkpt><trkpt lat="42.3291333" lon="14.1085767"><ele>41.0</ele><time>2026-05-03T11:01:07.542Z</time></trkpt><trkpt lat="42.329195" lon="14.10877"><ele>41.0</ele><time>2026-05-03T11:01:08.541Z</time></trkpt><trkpt lat="42.3292567" lon="14.1089667"><ele>41.0</ele><time>2026-05-03T11:01:09.542Z</time></trkpt><trkpt lat="42.3293183" lon="14.109175"><ele>41.0</ele><time>2026-05-03T11:01:10.542Z</time></trkpt><trkpt lat="42.32938" lon="14.1093683"><ele>41.666666666666664</ele><time>2026-05-03T11:01:11.541Z</time></trkpt><trkpt lat="42.3294367" lon="14.1095717"><ele>42.333333333333336</ele><time>2026-05-03T11:01:12.542Z</time></trkpt><trkpt lat="42.3294883" lon="14.1097733"><ele>43.0</ele><time>2026-05-03T11:01:13.541Z</time></trkpt><trkpt lat="42.3295517" lon="14.1099733"><ele>43.333333333333336</ele><time>2026-05-03T11:01:14.541Z</time></trkpt><trkpt lat="42.329605" lon="14.11017"><ele>43.666666666666664</ele><time>2026-05-03T11:01:15.541Z</time></trkpt><trkpt lat="42.3296567" lon="14.110355"><ele>44.0</ele><time>2026-05-03T11:01:16.542Z</time></trkpt><trkpt lat="42.329725" lon="14.1105417"><ele>43.5</ele><time>2026-05-03T11:01:17.542Z</time></trkpt><trkpt lat="42.3297867" lon="14.1107217"><ele>43.0</ele><time>2026-05-03T11:01:18.542Z</time></trkpt><trkpt lat="42.3298417" lon="14.110905"><ele>42.5</ele><time>2026-05-03T11:01:19.541Z</time></trkpt><trkpt lat="42.3299" lon="14.111085"><ele>42.0</ele><time>2026-05-03T11:01:20.542Z</time></trkpt><trkpt lat="42.32996" lon="14.1112683"><ele>42.0</ele><time>2026-05-03T11:01:21.542Z</time></trkpt><trkpt lat="42.33002" lon="14.1114433"><ele>42.0</ele><time>2026-05-03T11:01:22.542Z</time></trkpt><trkpt lat="42.3300767" lon="14.11163"><ele>42.0</ele><time>2026-05-03T11:01:23.541Z</time></trkpt><trkpt lat="42.330135" lon="14.111815"><ele>42.0</ele><time>2026-05-03T11:01:24.542Z</time></trkpt><trkpt lat="42.3301883" lon="14.1119917"><ele>42.25</ele><time>2026-05-03T11:01:25.541Z</time></trkpt><trkpt lat="42.3302417" lon="14.11216"><ele>42.5</ele><time>2026-05-03T11:01:26.542Z</time></trkpt><trkpt lat="42.3302867" lon="14.1123217"><ele>42.75</ele><time>2026-05-03T11:01:27.542Z</time></trkpt><trkpt lat="42.3303317" lon="14.1124817"><ele>43.0</ele><time>2026-05-03T11:01:28.542Z</time></trkpt><trkpt lat="42.330375" lon="14.112635"><ele>43.0</ele><time>2026-05-03T11:01:29.542Z</time></trkpt><trkpt lat="42.3304133" lon="14.1127783"><ele>43.0</ele><time>2026-05-03T11:01:30.542Z</time></trkpt><trkpt lat="42.3304367" lon="14.1129117"><ele>43.0</ele><time>2026-05-03T11:01:31.542Z</time></trkpt><trkpt lat="42.330445" lon="14.1130217"><ele>43.0</ele><time>2026-05-03T11:01:32.542Z</time></trkpt><trkpt lat="42.3304517" lon="14.1131217"><ele>43.0</ele><time>2026-05-03T11:01:33.541Z</time></trkpt><trkpt lat="42.3304717" lon="14.1132133"><ele>43.0</ele><time>2026-05-03T11:01:34.542Z</time></trkpt><trkpt lat="42.3305333" lon="14.1133067"><ele>41.75</ele><time>2026-05-03T11:01:35.542Z</time></trkpt><trkpt lat="42.3306033" lon="14.1134267"><ele>40.5</ele><time>2026-05-03T11:01:36.542Z</time></trkpt><trkpt lat="42.3306817" lon="14.1135833"><ele>39.25</ele><time>2026-05-03T11:01:37.542Z</time></trkpt><trkpt lat="42.33075" lon="14.1137717"><ele>38.0</ele><time>2026-05-03T11:01:38.541Z</time></trkpt><trkpt lat="42.33081" lon="14.1139617"><ele>38.0</ele><time>2026-05-03T11:01:39.541Z</time></trkpt><trkpt lat="42.330885" lon="14.11418"><ele>38.0</ele><time>2026-05-03T11:01:40.542Z</time></trkpt><trkpt lat="42.3309533" lon="14.1144"><ele>38.0</ele><time>2026-05-03T11:01:41.542Z</time></trkpt><trkpt lat="42.3310183" lon="14.1146017"><ele>38.0</ele><time>2026-05-03T11:01:42.541Z</time></trkpt><trkpt lat="42.3310683" lon="14.1148"><ele>38.0</ele><time>2026-05-03T11:01:43.542Z</time></trkpt><trkpt lat="42.3311217" lon="14.1149867"><ele>38.0</ele><time>2026-05-03T11:01:44.541Z</time></trkpt><trkpt lat="42.3311767" lon="14.115165"><ele>38.0</ele><time>2026-05-03T11:01:45.542Z</time></trkpt><trkpt lat="42.3312233" lon="14.1153367"><ele>38.0</ele><time>2026-05-03T11:01:46.542Z</time></trkpt><trkpt lat="42.3312783" lon="14.1155067"><ele>38.0</ele><time>2026-05-03T11:01:47.542Z</time></trkpt><trkpt lat="42.3313383" lon="14.115685"><ele>38.0</ele><time>2026-05-03T11:01:48.542Z</time></trkpt><trkpt lat="42.3314" lon="14.1158733"><ele>38.0</ele><time>2026-05-03T11:01:49.542Z</time></trkpt><trkpt lat="42.33146" lon="14.1160533"><ele>38.0</ele><time>2026-05-03T11:01:50.542Z</time></trkpt><trkpt lat="42.331515" lon="14.1162383"><ele>38.0</ele><time>2026-05-03T11:01:51.541Z</time></trkpt><trkpt lat="42.3315717" lon="14.1164183"><ele>38.0</ele><time>2026-05-03T11:01:52.541Z</time></trkpt><trkpt lat="42.3316317" lon="14.1165967"><ele>38.0</ele><time>2026-05-03T11:01:53.542Z</time></trkpt><trkpt lat="42.3316983" lon="14.116765"><ele>38.0</ele><time>2026-05-03T11:01:54.541Z</time></trkpt><trkpt lat="42.3317567" lon="14.116955"><ele>38.0</ele><time>2026-05-03T11:01:55.542Z</time></trkpt><trkpt lat="42.33182" lon="14.1171583"><ele>38.0</ele><time>2026-05-03T11:01:56.542Z</time></trkpt><trkpt lat="42.3318867" lon="14.1173667"><ele>38.5</ele><time>2026-05-03T11:01:57.541Z</time></trkpt><trkpt lat="42.3319383" lon="14.1175667"><ele>39.0</ele><time>2026-05-03T11:01:58.542Z</time></trkpt><trkpt lat="42.3319983" lon="14.11774"><ele>39.5</ele><time>2026-05-03T11:01:59.541Z</time></trkpt><trkpt lat="42.3320533" lon="14.1179067"><ele>40.0</ele><time>2026-05-03T11:02:00.541Z</time></trkpt><trkpt lat="42.3321" lon="14.11807"><ele>40.0</ele><time>2026-05-03T11:02:01.542Z</time></trkpt><trkpt lat="42.332155" lon="14.1182333"><ele>40.0</ele><time>2026-05-03T11:02:02.542Z</time></trkpt><trkpt lat="42.332205" lon="14.1184"><ele>40.0</ele><time>2026-05-03T11:02:03.541Z</time></trkpt><trkpt lat="42.3322667" lon="14.1185833"><ele>40.0</ele><time>2026-05-03T11:02:04.542Z</time></trkpt><trkpt lat="42.332325" lon="14.1187767"><ele>39.5</ele><time>2026-05-03T11:02:05.541Z</time></trkpt><trkpt lat="42.3323867" lon="14.1189533"><ele>39.0</ele><time>2026-05-03T11:02:06.542Z</time></trkpt><trkpt lat="42.332445" lon="14.1191383"><ele>38.5</ele><time>2026-05-03T11:02:07.542Z</time></trkpt><trkpt lat="42.332505" lon="14.11932"><ele>38.0</ele><time>2026-05-03T11:02:08.541Z</time></trkpt><trkpt lat="42.332565" lon="14.1194967"><ele>37.666666666666664</ele><time>2026-05-03T11:02:09.542Z</time></trkpt><trkpt lat="42.3326167" lon="14.1196867"><ele>37.333333333333336</ele><time>2026-05-03T11:02:10.542Z</time></trkpt><trkpt lat="42.3326767" lon="14.11989"><ele>37.0</ele><time>2026-05-03T11:02:11.542Z</time></trkpt><trkpt lat="42.3327383" lon="14.1201"><ele>38.0</ele><time>2026-05-03T11:02:12.541Z</time></trkpt><trkpt lat="42.3328083" lon="14.120305"><ele>39.0</ele><time>2026-05-03T11:02:13.542Z</time></trkpt><trkpt lat="42.3328733" lon="14.120505"><ele>40.0</ele><time>2026-05-03T11:02:14.542Z</time></trkpt><trkpt lat="42.3329333" lon="14.1207183"><ele>40.0</ele><time>2026-05-03T11:02:15.541Z</time></trkpt><trkpt lat="42.332995" lon="14.1209317"><ele>40.0</ele><time>2026-05-03T11:02:16.542Z</time></trkpt><trkpt lat="42.3330583" lon="14.1211367"><ele>40.0</ele><time>2026-05-03T11:02:17.542Z</time></trkpt><trkpt lat="42.3331267" lon="14.121345"><ele>40.66666666666667</ele><time>2026-05-03T11:02:18.542Z</time></trkpt><trkpt lat="42.3331967" lon="14.1215633"><ele>41.333333333333336</ele><time>2026-05-03T11:02:19.541Z</time></trkpt><trkpt lat="42.33325" lon="14.121765"><ele>42.0</ele><time>2026-05-03T11:02:20.542Z</time></trkpt><trkpt lat="42.33332" lon="14.12196"><ele>42.0</ele><time>2026-05-03T11:02:21.542Z</time></trkpt><trkpt lat="42.33337" lon="14.12214"><ele>42.0</ele><time>2026-05-03T11:02:22.542Z</time></trkpt><trkpt lat="42.333415" lon="14.1222983"><ele>42.0</ele><time>2026-05-03T11:02:23.542Z</time></trkpt><trkpt lat="42.3334583" lon="14.122455"><ele>42.0</ele><time>2026-05-03T11:02:24.542Z</time></trkpt><trkpt lat="42.3335033" lon="14.1226167"><ele>42.25</ele><time>2026-05-03T11:02:25.542Z</time></trkpt><trkpt lat="42.3335517" lon="14.1227817"><ele>42.5</ele><time>2026-05-03T11:02:26.541Z</time></trkpt><trkpt lat="42.3336067" lon="14.1229433"><ele>42.75</ele><time>2026-05-03T11:02:27.542Z</time></trkpt><trkpt lat="42.333655" lon="14.1230983"><ele>43.0</ele><time>2026-05-03T11:02:28.542Z</time></trkpt><trkpt lat="42.3337067" lon="14.1232567"><ele>43.0</ele><time>2026-05-03T11:02:29.542Z</time></trkpt><trkpt lat="42.3337617" lon="14.12342"><ele>43.0</ele><time>2026-05-03T11:02:30.542Z</time></trkpt><trkpt lat="42.3338167" lon="14.1235817"><ele>43.0</ele><time>2026-05-03T11:02:31.541Z</time></trkpt><trkpt lat="42.33387" lon="14.1237433"><ele>43.0</ele><time>2026-05-03T11:02:32.542Z</time></trkpt><trkpt lat="42.3339167" lon="14.1239083"><ele>42.333333333333336</ele><time>2026-05-03T11:02:33.542Z</time></trkpt><trkpt lat="42.3339767" lon="14.1240833"><ele>41.666666666666664</ele><time>2026-05-03T11:02:34.542Z</time></trkpt><trkpt lat="42.3340317" lon="14.1242717"><ele>41.0</ele><time>2026-05-03T11:02:35.542Z</time></trkpt><trkpt lat="42.3340967" lon="14.1244767"><ele>41.0</ele><time>2026-05-03T11:02:36.542Z</time></trkpt><trkpt lat="42.3341583" lon="14.1246767"><ele>41.0</ele><time>2026-05-03T11:02:37.542Z</time></trkpt><trkpt lat="42.3342117" lon="14.12486"><ele>41.0</ele><time>2026-05-03T11:02:38.542Z</time></trkpt><trkpt lat="42.3342733" lon="14.1250467"><ele>41.5</ele><time>2026-05-03T11:02:39.542Z</time></trkpt><trkpt lat="42.33433" lon="14.1252283"><ele>42.0</ele><time>2026-05-03T11:02:40.541Z</time></trkpt><trkpt lat="42.334385" lon="14.125415"><ele>42.5</ele><time>2026-05-03T11:02:41.542Z</time></trkpt><trkpt lat="42.3344417" lon="14.125595"><ele>43.0</ele><time>2026-05-03T11:02:42.542Z</time></trkpt><trkpt lat="42.3345033" lon="14.1257633"><ele>43.5</ele><time>2026-05-03T11:02:43.541Z</time></trkpt><trkpt lat="42.33456" lon="14.1259367"><ele>44.0</ele><time>2026-05-03T11:02:44.541Z</time></trkpt><trkpt lat="42.3346167" lon="14.1261017"><ele>44.5</ele><time>2026-05-03T11:02:45.541Z</time></trkpt><trkpt lat="42.3346667" lon="14.12626"><ele>45.0</ele><time>2026-05-03T11:02:46.542Z</time></trkpt><trkpt lat="42.3347167" lon="14.1264167"><ele>45.25</ele><time>2026-05-03T11:02:47.541Z</time></trkpt><trkpt lat="42.3347733" lon="14.1265817"><ele>45.5</ele><time>2026-05-03T11:02:48.541Z</time></trkpt><trkpt lat="42.3348317" lon="14.1267517"><ele>45.75</ele><time>2026-05-03T11:02:49.542Z</time></trkpt><trkpt lat="42.33489" lon="14.1269367"><ele>46.0</ele><time>2026-05-03T11:02:50.542Z</time></trkpt><trkpt lat="42.33495" lon="14.12711"><ele>46.0</ele><time>2026-05-03T11:02:51.542Z</time></trkpt><trkpt lat="42.3350067" lon="14.12729"><ele>46.0</ele><time>2026-05-03T11:02:52.541Z</time></trkpt><trkpt lat="42.3350733" lon="14.12747"><ele>46.0</ele><time>2026-05-03T11:02:53.541Z</time></trkpt><trkpt lat="42.3351333" lon="14.1276567"><ele>46.0</ele><time>2026-05-03T11:02:54.542Z</time></trkpt><trkpt lat="42.3351933" lon="14.1278583"><ele>46.66666666666667</ele><time>2026-05-03T11:02:55.542Z</time></trkpt><trkpt lat="42.3352517" lon="14.1280583"><ele>47.333333333333336</ele><time>2026-05-03T11:02:56.541Z</time></trkpt><trkpt lat="42.3353133" lon="14.12826"><ele>48.0</ele><time>2026-05-03T11:02:57.541Z</time></trkpt><trkpt lat="42.33536" lon="14.12845"><ele>48.25</ele><time>2026-05-03T11:02:58.541Z</time></trkpt><trkpt lat="42.33542" lon="14.1286267"><ele>48.5</ele><time>2026-05-03T11:02:59.541Z</time></trkpt><trkpt lat="42.3354783" lon="14.1288017"><ele>48.75</ele><time>2026-05-03T11:03:00.542Z</time></trkpt><trkpt lat="42.335535" lon="14.128985"><ele>49.0</ele><time>2026-05-03T11:03:01.542Z</time></trkpt><trkpt lat="42.335595" lon="14.1291833"><ele>49.33333333333333</ele><time>2026-05-03T11:03:02.542Z</time></trkpt><trkpt lat="42.3356583" lon="14.1293933"><ele>49.66666666666667</ele><time>2026-05-03T11:03:03.542Z</time></trkpt><trkpt lat="42.3357233" lon="14.1296083"><ele>50.0</ele><time>2026-05-03T11:03:04.542Z</time></trkpt><trkpt lat="42.3357933" lon="14.129825"><ele>50.66666666666667</ele><time>2026-05-03T11:03:05.542Z</time></trkpt><trkpt lat="42.335865" lon="14.1300433"><ele>51.33333333333333</ele><time>2026-05-03T11:03:06.542Z</time></trkpt><trkpt lat="42.3359367" lon="14.130275"><ele>52.0</ele><time>2026-05-03T11:03:07.542Z</time></trkpt><trkpt lat="42.3360167" lon="14.13051"><ele>52.0</ele><time>2026-05-03T11:03:08.542Z</time></trkpt><trkpt lat="42.33609" lon="14.130745"><ele>52.0</ele><time>2026-05-03T11:03:09.541Z</time></trkpt><trkpt lat="42.3361633" lon="14.1309733"><ele>52.0</ele><time>2026-05-03T11:03:10.542Z</time></trkpt><trkpt lat="42.3362383" lon="14.1312133"><ele>52.0</ele><time>2026-05-03T11:03:11.541Z</time></trkpt><trkpt lat="42.33631" lon="14.1314467"><ele>52.0</ele><time>2026-05-03T11:03:12.541Z</time></trkpt><trkpt lat="42.3363883" lon="14.1316883"><ele>52.0</ele><time>2026-05-03T11:03:13.542Z</time></trkpt><trkpt lat="42.33648" lon="14.1319283"><ele>52.0</ele><time>2026-05-03T11:03:14.542Z</time></trkpt><trkpt lat="42.3365867" lon="14.1321483"><ele>52.0</ele><time>2026-05-03T11:03:15.541Z</time></trkpt><trkpt lat="42.3367117" lon="14.1323483"><ele>52.0</ele><time>2026-05-03T11:03:16.541Z</time></trkpt><trkpt lat="42.33686" lon="14.132505"><ele>52.666666666666664</ele><time>2026-05-03T11:03:17.542Z</time></trkpt><trkpt lat="42.337005" lon="14.1326517"><ele>53.33333333333333</ele><time>2026-05-03T11:03:18.541Z</time></trkpt><trkpt lat="42.3371717" lon="14.13278"><ele>54.0</ele><time>2026-05-03T11:03:19.542Z</time></trkpt><trkpt lat="42.33734" lon="14.1328717"><ele>54.33333333333333</ele><time>2026-05-03T11:03:20.542Z</time></trkpt><trkpt lat="42.3375067" lon="14.1329383"><ele>54.666666666666664</ele><time>2026-05-03T11:03:21.541Z</time></trkpt><trkpt lat="42.33768" lon="14.132995"><ele>55.0</ele><time>2026-05-03T11:03:22.541Z</time></trkpt><trkpt lat="42.3378533" lon="14.1330367"><ele>55.0</ele><time>2026-05-03T11:03:23.541Z</time></trkpt><trkpt lat="42.3380383" lon="14.1330817"><ele>55.0</ele><time>2026-05-03T11:03:24.542Z</time></trkpt><trkpt lat="42.33823" lon="14.1331333"><ele>55.0</ele><time>2026-05-03T11:03:25.542Z</time></trkpt><trkpt lat="42.3384217" lon="14.1331967"><ele>55.0</ele><time>2026-05-03T11:03:26.542Z</time></trkpt><trkpt lat="42.3386183" lon="14.1332617"><ele>55.0</ele><time>2026-05-03T11:03:27.541Z</time></trkpt><trkpt lat="42.3388283" lon="14.133325"><ele>55.0</ele><time>2026-05-03T11:03:28.541Z</time></trkpt><trkpt lat="42.3390367" lon="14.1333867"><ele>55.33333333333333</ele><time>2026-05-03T11:03:29.542Z</time></trkpt><trkpt lat="42.3392333" lon="14.1334517"><ele>55.66666666666667</ele><time>2026-05-03T11:03:30.541Z</time></trkpt><trkpt lat="42.3394267" lon="14.1335083"><ele>56.0</ele><time>2026-05-03T11:03:31.541Z</time></trkpt><trkpt lat="42.3396" lon="14.13356"><ele>55.66666666666667</ele><time>2026-05-03T11:03:32.542Z</time></trkpt><trkpt lat="42.339755" lon="14.1336083"><ele>55.33333333333333</ele><time>2026-05-03T11:03:33.541Z</time></trkpt><trkpt lat="42.339905" lon="14.133655"><ele>55.0</ele><time>2026-05-03T11:03:34.542Z</time></trkpt><trkpt lat="42.3400433" lon="14.1336967"><ele>55.0</ele><time>2026-05-03T11:03:35.542Z</time></trkpt><trkpt lat="42.3401683" lon="14.1337367"><ele>55.0</ele><time>2026-05-03T11:03:36.542Z</time></trkpt><trkpt lat="42.3402733" lon="14.1337767"><ele>55.0</ele><time>2026-05-03T11:03:37.542Z</time></trkpt><trkpt lat="42.3403717" lon="14.1338233"><ele>55.0</ele><time>2026-05-03T11:03:38.541Z</time></trkpt><trkpt lat="42.3404517" lon="14.1338833"><ele>55.0</ele><time>2026-05-03T11:03:39.541Z</time></trkpt><trkpt lat="42.34052" lon="14.133945"><ele>54.666666666666664</ele><time>2026-05-03T11:03:40.542Z</time></trkpt><trkpt lat="42.340585" lon="14.1339867"><ele>54.33333333333333</ele><time>2026-05-03T11:03:41.542Z</time></trkpt><trkpt lat="42.3406883" lon="14.13396"><ele>54.0</ele><time>2026-05-03T11:03:43.542Z</time></trkpt><trkpt lat="42.3407267" lon="14.1338917"><ele>53.66666666666667</ele><time>2026-05-03T11:03:44.541Z</time></trkpt><trkpt lat="42.3407383" lon="14.1338"><ele>53.333333333333336</ele><time>2026-05-03T11:03:45.542Z</time></trkpt><trkpt lat="42.340715" lon="14.133695"><ele>53.0</ele><time>2026-05-03T11:03:46.541Z</time></trkpt><trkpt lat="42.3407" lon="14.13357"><ele>53.0</ele><time>2026-05-03T11:03:47.541Z</time></trkpt><trkpt lat="42.340705" lon="14.1334383"><ele>53.0</ele><time>2026-05-03T11:03:48.542Z</time></trkpt><trkpt lat="42.340755" lon="14.1333083"><ele>53.0</ele><time>2026-05-03T11:03:49.542Z</time></trkpt><trkpt lat="42.3408283" lon="14.1331633"><ele>53.0</ele><time>2026-05-03T11:03:50.541Z</time></trkpt><trkpt lat="42.3409167" lon="14.133005"><ele>52.5</ele><time>2026-05-03T11:03:51.542Z</time></trkpt><trkpt lat="42.341005" lon="14.1328467"><ele>52.0</ele><time>2026-05-03T11:03:52.542Z</time></trkpt><trkpt lat="42.3410917" lon="14.1327017"><ele>51.5</ele><time>2026-05-03T11:03:53.542Z</time></trkpt><trkpt lat="42.3411633" lon="14.1325867"><ele>51.0</ele><time>2026-05-03T11:03:54.541Z</time></trkpt><trkpt lat="42.341235" lon="14.13249"><ele>50.599999999999994</ele><time>2026-05-03T11:03:55.542Z</time></trkpt><trkpt lat="42.3412967" lon="14.1323883"><ele>50.2</ele><time>2026-05-03T11:03:56.542Z</time></trkpt><trkpt lat="42.34136" lon="14.13229"><ele>49.8</ele><time>2026-05-03T11:03:57.541Z</time></trkpt><trkpt lat="42.34142" lon="14.13219"><ele>49.400000000000006</ele><time>2026-05-03T11:03:58.541Z</time></trkpt><trkpt lat="42.3414717" lon="14.1320833"><ele>49.0</ele><time>2026-05-03T11:03:59.542Z</time></trkpt><trkpt lat="42.3415117" lon="14.131975"><ele>48.83333333333333</ele><time>2026-05-03T11:04:00.541Z</time></trkpt><trkpt lat="42.3415517" lon="14.1318683"><ele>48.666666666666664</ele><time>2026-05-03T11:04:01.542Z</time></trkpt><trkpt lat="42.3415783" lon="14.13176"><ele>48.5</ele><time>2026-05-03T11:04:02.542Z</time></trkpt><trkpt lat="42.341615" lon="14.1316517"><ele>48.33333333333333</ele><time>2026-05-03T11:04:03.542Z</time></trkpt><trkpt lat="42.3416633" lon="14.1315467"><ele>48.166666666666664</ele><time>2026-05-03T11:04:04.542Z</time></trkpt><trkpt lat="42.3416883" lon="14.13145"><ele>48.0</ele><time>2026-05-03T11:04:05.541Z</time></trkpt><trkpt lat="42.3417183" lon="14.1313567"><ele>47.833333333333336</ele><time>2026-05-03T11:04:06.542Z</time></trkpt><trkpt lat="42.34176" lon="14.1312633"><ele>47.666666666666664</ele><time>2026-05-03T11:04:07.541Z</time></trkpt><trkpt lat="42.34181" lon="14.1311667"><ele>47.5</ele><time>2026-05-03T11:04:08.541Z</time></trkpt><trkpt lat="42.341845" lon="14.1310567"><ele>47.33333333333333</ele><time>2026-05-03T11:04:09.542Z</time></trkpt><trkpt lat="42.34187" lon="14.130935"><ele>47.166666666666664</ele><time>2026-05-03T11:04:10.542Z</time></trkpt><trkpt lat="42.341885" lon="14.1308067"><ele>47.0</ele><time>2026-05-03T11:04:11.541Z</time></trkpt><trkpt lat="42.34191" lon="14.1306783"><ele>46.83333333333333</ele><time>2026-05-03T11:04:12.542Z</time></trkpt><trkpt lat="42.3419367" lon="14.1305467"><ele>46.666666666666664</ele><time>2026-05-03T11:04:13.541Z</time></trkpt><trkpt lat="42.3419683" lon="14.1304233"><ele>46.5</ele><time>2026-05-03T11:04:14.541Z</time></trkpt><trkpt lat="42.3419983" lon="14.1303283"><ele>46.333333333333336</ele><time>2026-05-03T11:04:15.541Z</time></trkpt><trkpt lat="42.342025" lon="14.13023"><ele>46.16666666666667</ele><time>2026-05-03T11:04:16.542Z</time></trkpt><trkpt lat="42.342045" lon="14.13014"><ele>46.0</ele><time>2026-05-03T11:04:17.542Z</time></trkpt><trkpt lat="42.34206" lon="14.13005"><ele>46.0</ele><time>2026-05-03T11:04:18.542Z</time></trkpt><trkpt lat="42.3420683" lon="14.1299633"><ele>46.0</ele><time>2026-05-03T11:04:19.542Z</time></trkpt><trkpt lat="42.3420683" lon="14.129875"><ele>46.0</ele><time>2026-05-03T11:04:20.542Z</time></trkpt><trkpt lat="42.3420883" lon="14.129785"><ele>46.0</ele><time>2026-05-03T11:04:21.541Z</time></trkpt><trkpt lat="42.3421217" lon="14.1296917"><ele>46.0</ele><time>2026-05-03T11:04:22.541Z</time></trkpt><trkpt lat="42.342155" lon="14.1295917"><ele>46.0</ele><time>2026-05-03T11:04:23.542Z</time></trkpt><trkpt lat="42.34219" lon="14.129495"><ele>46.0</ele><time>2026-05-03T11:04:24.542Z</time></trkpt><trkpt lat="42.3422033" lon="14.1294033"><ele>45.599999999999994</ele><time>2026-05-03T11:04:25.542Z</time></trkpt><trkpt lat="42.3421633" lon="14.12926"><ele>45.2</ele><time>2026-05-03T11:04:27.542Z</time></trkpt><trkpt lat="42.3420983" lon="14.129195"><ele>44.8</ele><time>2026-05-03T11:04:28.541Z</time></trkpt><trkpt lat="42.3420317" lon="14.1291317"><ele>44.400000000000006</ele><time>2026-05-03T11:04:29.541Z</time></trkpt><trkpt lat="42.3419517" lon="14.1290633"><ele>44.0</ele><time>2026-05-03T11:04:30.542Z</time></trkpt><trkpt lat="42.3418933" lon="14.1289583"><ele>42.75</ele><time>2026-05-03T11:04:31.54Z</time></trkpt><trkpt lat="42.341845" lon="14.128815"><ele>41.5</ele><time>2026-05-03T11:04:32.54Z</time></trkpt><trkpt lat="42.3418033" lon="14.1286117"><ele>40.25</ele><time>2026-05-03T11:04:33.541Z</time></trkpt><trkpt lat="42.3417667" lon="14.12839"><ele>39.0</ele><time>2026-05-03T11:04:34.541Z</time></trkpt><trkpt lat="42.3417333" lon="14.1281467"><ele>38.333333333333336</ele><time>2026-05-03T11:04:35.541Z</time></trkpt><trkpt lat="42.3416967" lon="14.1278833"><ele>37.66666666666667</ele><time>2026-05-03T11:04:36.541Z</time></trkpt><trkpt lat="42.34165" lon="14.1275983"><ele>37.0</ele><time>2026-05-03T11:04:37.54Z</time></trkpt><trkpt lat="42.341595" lon="14.1273033"><ele>36.0</ele><time>2026-05-03T11:04:38.54Z</time></trkpt><trkpt lat="42.3415383" lon="14.1269833"><ele>35.0</ele><time>2026-05-03T11:04:39.54Z</time></trkpt><trkpt lat="42.3414767" lon="14.126655"><ele>35.0</ele><time>2026-05-03T11:04:40.541Z</time></trkpt><trkpt lat="42.3414167" lon="14.1263167"><ele>35.0</ele><time>2026-05-03T11:04:41.541Z</time></trkpt><trkpt lat="42.3413583" lon="14.12597"><ele>34.5</ele><time>2026-05-03T11:04:42.54Z</time></trkpt><trkpt lat="42.3412933" lon="14.1256117"><ele>34.0</ele><time>2026-05-03T11:04:43.541Z</time></trkpt><trkpt lat="42.3412367" lon="14.12525"><ele>34.5</ele><time>2026-05-03T11:04:44.541Z</time></trkpt><trkpt lat="42.3411717" lon="14.1248783"><ele>35.0</ele><time>2026-05-03T11:04:45.541Z</time></trkpt><trkpt lat="42.34111" lon="14.1245083"><ele>35.0</ele><time>2026-05-03T11:04:46.541Z</time></trkpt><trkpt lat="42.341055" lon="14.124155"><ele>35.0</ele><time>2026-05-03T11:04:47.54Z</time></trkpt><trkpt lat="42.340995" lon="14.123825"><ele>35.0</ele><time>2026-05-03T11:04:48.541Z</time></trkpt><trkpt lat="42.3409517" lon="14.1235233"><ele>35.0</ele><time>2026-05-03T11:04:49.541Z</time></trkpt><trkpt lat="42.3409067" lon="14.1232367"><ele>35.0</ele><time>2026-05-03T11:04:50.54Z</time></trkpt><trkpt lat="42.3408633" lon="14.1229867"><ele>35.0</ele><time>2026-05-03T11:04:51.541Z</time></trkpt><trkpt lat="42.3408383" lon="14.1227533"><ele>35.0</ele><time>2026-05-03T11:04:52.541Z</time></trkpt><trkpt lat="42.3408083" lon="14.1225233"><ele>35.0</ele><time>2026-05-03T11:04:53.541Z</time></trkpt><trkpt lat="42.3408" lon="14.1222917"><ele>34.75</ele><time>2026-05-03T11:04:54.54Z</time></trkpt><trkpt lat="42.3408083" lon="14.1220783"><ele>34.5</ele><time>2026-05-03T11:04:55.541Z</time></trkpt><trkpt lat="42.3408367" lon="14.1218917"><ele>34.25</ele><time>2026-05-03T11:04:56.54Z</time></trkpt><trkpt lat="42.3408883" lon="14.1217467"><ele>34.0</ele><time>2026-05-03T11:04:57.541Z</time></trkpt><trkpt lat="42.3409567" lon="14.121655"><ele>34.0</ele><time>2026-05-03T11:04:58.541Z</time></trkpt><trkpt lat="42.34102" lon="14.1215867"><ele>34.0</ele><time>2026-05-03T11:04:59.54Z</time></trkpt><trkpt lat="42.34109" lon="14.1215267"><ele>34.0</ele><time>2026-05-03T11:05:00.541Z</time></trkpt><trkpt lat="42.3411533" lon="14.121435"><ele>34.0</ele><time>2026-05-03T11:05:01.541Z</time></trkpt><trkpt lat="42.3412" lon="14.121315"><ele>34.0</ele><time>2026-05-03T11:05:02.541Z</time></trkpt><trkpt lat="42.3412183" lon="14.12117"><ele>33.75</ele><time>2026-05-03T11:05:03.541Z</time></trkpt><trkpt lat="42.3412383" lon="14.1210067"><ele>33.5</ele><time>2026-05-03T11:05:04.541Z</time></trkpt><trkpt lat="42.3412883" lon="14.1208433"><ele>33.25</ele><time>2026-05-03T11:05:05.541Z</time></trkpt><trkpt lat="42.3413667" lon="14.1206733"><ele>33.0</ele><time>2026-05-03T11:05:06.54Z</time></trkpt><trkpt lat="42.34147" lon="14.1204867"><ele>33.0</ele><time>2026-05-03T11:05:07.541Z</time></trkpt><trkpt lat="42.34158" lon="14.1202983"><ele>33.0</ele><time>2026-05-03T11:05:08.541Z</time></trkpt><trkpt lat="42.3416983" lon="14.1200833"><ele>33.0</ele><time>2026-05-03T11:05:09.541Z</time></trkpt><trkpt lat="42.3418233" lon="14.119865"><ele>32.333333333333336</ele><time>2026-05-03T11:05:10.541Z</time></trkpt><trkpt lat="42.3419417" lon="14.1196583"><ele>31.666666666666668</ele><time>2026-05-03T11:05:11.541Z</time></trkpt><trkpt lat="42.3420617" lon="14.119445"><ele>31.0</ele><time>2026-05-03T11:05:12.54Z</time></trkpt><trkpt lat="42.34218" lon="14.11923"><ele>31.666666666666668</ele><time>2026-05-03T11:05:13.54Z</time></trkpt><trkpt lat="42.3422933" lon="14.1189933"><ele>32.333333333333336</ele><time>2026-05-03T11:05:14.541Z</time></trkpt><trkpt lat="42.3423917" lon="14.1187367"><ele>33.0</ele><time>2026-05-03T11:05:15.54Z</time></trkpt><trkpt lat="42.3424817" lon="14.11847"><ele>35.0</ele><time>2026-05-03T11:05:16.541Z</time></trkpt><trkpt lat="42.34256" lon="14.11819"><ele>37.0</ele><time>2026-05-03T11:05:17.541Z</time></trkpt><trkpt lat="42.3426217" lon="14.1179"><ele>39.0</ele><time>2026-05-03T11:05:18.541Z</time></trkpt><trkpt lat="42.34266" lon="14.1176017"><ele>41.0</ele><time>2026-05-03T11:05:19.54Z</time></trkpt><trkpt lat="42.34271" lon="14.1173117"><ele>43.0</ele><time>2026-05-03T11:05:20.541Z</time></trkpt><trkpt lat="42.3427617" lon="14.11702"><ele>45.0</ele><time>2026-05-03T11:05:21.541Z</time></trkpt><trkpt lat="42.3428083" lon="14.1167333"><ele>45.333333333333336</ele><time>2026-05-03T11:05:22.541Z</time></trkpt><trkpt lat="42.3428633" lon="14.11645"><ele>45.66666666666667</ele><time>2026-05-03T11:05:23.54Z</time></trkpt><trkpt lat="42.3429183" lon="14.1161633"><ele>46.0</ele><time>2026-05-03T11:05:24.54Z</time></trkpt><trkpt lat="42.3429717" lon="14.1158733"><ele>46.66666666666667</ele><time>2026-05-03T11:05:25.541Z</time></trkpt><trkpt lat="42.3430267" lon="14.1155833"><ele>47.333333333333336</ele><time>2026-05-03T11:05:26.541Z</time></trkpt><trkpt lat="42.3430717" lon="14.1153083"><ele>48.0</ele><time>2026-05-03T11:05:27.541Z</time></trkpt><trkpt lat="42.3431167" lon="14.11506"><ele>48.0</ele><time>2026-05-03T11:05:28.541Z</time></trkpt><trkpt lat="42.3431467" lon="14.114835"><ele>48.0</ele><time>2026-05-03T11:05:29.54Z</time></trkpt><trkpt lat="42.343175" lon="14.11463"><ele>48.0</ele><time>2026-05-03T11:05:30.54Z</time></trkpt><trkpt lat="42.3431867" lon="14.1144417"><ele>48.0</ele><time>2026-05-03T11:05:31.54Z</time></trkpt><trkpt lat="42.3432167" lon="14.11427"><ele>48.0</ele><time>2026-05-03T11:05:32.54Z</time></trkpt><trkpt lat="42.3432417" lon="14.114095"><ele>48.0</ele><time>2026-05-03T11:05:33.54Z</time></trkpt><trkpt lat="42.3432683" lon="14.113905"><ele>48.0</ele><time>2026-05-03T11:05:34.541Z</time></trkpt><trkpt lat="42.3432933" lon="14.1137167"><ele>47.666666666666664</ele><time>2026-05-03T11:05:35.541Z</time></trkpt><trkpt lat="42.3433167" lon="14.1135217"><ele>47.33333333333333</ele><time>2026-05-03T11:05:36.54Z</time></trkpt><trkpt lat="42.343345" lon="14.113315"><ele>47.0</ele><time>2026-05-03T11:05:37.541Z</time></trkpt><trkpt lat="42.3433817" lon="14.1130883"><ele>47.0</ele><time>2026-05-03T11:05:38.541Z</time></trkpt><trkpt lat="42.3434117" lon="14.112855"><ele>47.0</ele><time>2026-05-03T11:05:39.541Z</time></trkpt><trkpt lat="42.3434433" lon="14.1126133"><ele>47.0</ele><time>2026-05-03T11:05:40.54Z</time></trkpt><trkpt lat="42.3434767" lon="14.1123867"><ele>47.0</ele><time>2026-05-03T11:05:41.54Z</time></trkpt><trkpt lat="42.3435117" lon="14.11218"><ele>47.0</ele><time>2026-05-03T11:05:42.54Z</time></trkpt><trkpt lat="42.3435333" lon="14.1119983"><ele>47.0</ele><time>2026-05-03T11:05:43.54Z</time></trkpt><trkpt lat="42.34355" lon="14.1118417"><ele>47.0</ele><time>2026-05-03T11:05:44.54Z</time></trkpt><trkpt lat="42.3435683" lon="14.1116917"><ele>47.0</ele><time>2026-05-03T11:05:45.541Z</time></trkpt><trkpt lat="42.3435933" lon="14.11158"><ele>47.0</ele><time>2026-05-03T11:05:46.541Z</time></trkpt><trkpt lat="42.3436567" lon="14.1114567"><ele>47.0</ele><time>2026-05-03T11:05:48.541Z</time></trkpt><trkpt lat="42.34377" lon="14.1114683"><ele>47.0</ele><time>2026-05-03T11:05:50.541Z</time></trkpt><trkpt lat="42.3438617" lon="14.1115233"><ele>47.0</ele><time>2026-05-03T11:05:51.541Z</time></trkpt><trkpt lat="42.34397" lon="14.1116017"><ele>47.33333333333333</ele><time>2026-05-03T11:05:52.541Z</time></trkpt><trkpt lat="42.3441017" lon="14.1116933"><ele>47.666666666666664</ele><time>2026-05-03T11:05:53.541Z</time></trkpt><trkpt lat="42.3442433" lon="14.1117817"><ele>48.0</ele><time>2026-05-03T11:05:54.54Z</time></trkpt><trkpt lat="42.344395" lon="14.11187"><ele>48.0</ele><time>2026-05-03T11:05:55.541Z</time></trkpt><trkpt lat="42.344555" lon="14.1119683"><ele>48.0</ele><time>2026-05-03T11:05:56.541Z</time></trkpt><trkpt lat="42.3447117" lon="14.1120867"><ele>48.0</ele><time>2026-05-03T11:05:57.541Z</time></trkpt><trkpt lat="42.3448883" lon="14.1121917"><ele>47.333333333333336</ele><time>2026-05-03T11:05:58.541Z</time></trkpt><trkpt lat="42.3450667" lon="14.1122917"><ele>46.66666666666667</ele><time>2026-05-03T11:05:59.541Z</time></trkpt><trkpt lat="42.3452583" lon="14.1123667"><ele>46.0</ele><time>2026-05-03T11:06:00.541Z</time></trkpt><trkpt lat="42.345445" lon="14.1124317"><ele>46.0</ele><time>2026-05-03T11:06:01.541Z</time></trkpt><trkpt lat="42.34562" lon="14.1124767"><ele>46.0</ele><time>2026-05-03T11:06:02.541Z</time></trkpt><trkpt lat="42.3457917" lon="14.1125317"><ele>46.0</ele><time>2026-05-03T11:06:03.541Z</time></trkpt><trkpt lat="42.3459733" lon="14.1125867"><ele>46.0</ele><time>2026-05-03T11:06:04.541Z</time></trkpt><trkpt lat="42.3461683" lon="14.112655"><ele>46.0</ele><time>2026-05-03T11:06:05.541Z</time></trkpt><trkpt lat="42.346375" lon="14.1127433"><ele>46.0</ele><time>2026-05-03T11:06:06.541Z</time></trkpt><trkpt lat="42.3465933" lon="14.1128467"><ele>45.0</ele><time>2026-05-03T11:06:07.541Z</time></trkpt><trkpt lat="42.3468133" lon="14.112955"><ele>44.0</ele><time>2026-05-03T11:06:08.54Z</time></trkpt><trkpt lat="42.3470167" lon="14.113055"><ele>44.0</ele><time>2026-05-03T11:06:09.541Z</time></trkpt><trkpt lat="42.3471983" lon="14.1131317"><ele>44.0</ele><time>2026-05-03T11:06:10.541Z</time></trkpt><trkpt lat="42.3473583" lon="14.113215"><ele>44.0</ele><time>2026-05-03T11:06:11.541Z</time></trkpt><trkpt lat="42.3475117" lon="14.1132867"><ele>44.33333333333333</ele><time>2026-05-03T11:06:12.541Z</time></trkpt><trkpt lat="42.347645" lon="14.1133667"><ele>44.666666666666664</ele><time>2026-05-03T11:06:13.54Z</time></trkpt><trkpt lat="42.3477867" lon="14.1134417"><ele>45.0</ele><time>2026-05-03T11:06:14.541Z</time></trkpt><trkpt lat="42.3479317" lon="14.11351"><ele>45.0</ele><time>2026-05-03T11:06:15.541Z</time></trkpt><trkpt lat="42.3480683" lon="14.1135767"><ele>45.0</ele><time>2026-05-03T11:06:16.541Z</time></trkpt><trkpt lat="42.3481917" lon="14.1136217"><ele>45.0</ele><time>2026-05-03T11:06:17.541Z</time></trkpt><trkpt lat="42.3483117" lon="14.1136483"><ele>45.0</ele><time>2026-05-03T11:06:18.541Z</time></trkpt><trkpt lat="42.3484317" lon="14.1136383"><ele>45.0</ele><time>2026-05-03T11:06:19.541Z</time></trkpt><trkpt lat="42.34856" lon="14.1135867"><ele>45.0</ele><time>2026-05-03T11:06:20.54Z</time></trkpt><trkpt lat="42.3486933" lon="14.1135133"><ele>45.0</ele><time>2026-05-03T11:06:21.54Z</time></trkpt><trkpt lat="42.3488283" lon="14.1134183"><ele>45.0</ele><time>2026-05-03T11:06:22.541Z</time></trkpt><trkpt lat="42.3489617" lon="14.1133267"><ele>44.25</ele><time>2026-05-03T11:06:23.541Z</time></trkpt><trkpt lat="42.349085" lon="14.113245"><ele>43.5</ele><time>2026-05-03T11:06:24.541Z</time></trkpt><trkpt lat="42.34921" lon="14.11317"><ele>42.75</ele><time>2026-05-03T11:06:25.541Z</time></trkpt><trkpt lat="42.3493317" lon="14.1130917"><ele>42.0</ele><time>2026-05-03T11:06:26.541Z</time></trkpt><trkpt lat="42.3494483" lon="14.11301"><ele>41.75</ele><time>2026-05-03T11:06:27.541Z</time></trkpt><trkpt lat="42.3495583" lon="14.1129283"><ele>41.5</ele><time>2026-05-03T11:06:28.541Z</time></trkpt><trkpt lat="42.3496617" lon="14.112855"><ele>41.25</ele><time>2026-05-03T11:06:29.541Z</time></trkpt><trkpt lat="42.34976" lon="14.1127833"><ele>41.0</ele><time>2026-05-03T11:06:30.541Z</time></trkpt><trkpt lat="42.3498783" lon="14.11271"><ele>41.75</ele><time>2026-05-03T11:06:31.541Z</time></trkpt><trkpt lat="42.3500067" lon="14.1126433"><ele>42.5</ele><time>2026-05-03T11:06:32.541Z</time></trkpt><trkpt lat="42.3501467" lon="14.1125767"><ele>43.25</ele><time>2026-05-03T11:06:33.541Z</time></trkpt><trkpt lat="42.3503017" lon="14.1125233"><ele>44.0</ele><time>2026-05-03T11:06:34.541Z</time></trkpt><trkpt lat="42.3504517" lon="14.11249"><ele>44.0</ele><time>2026-05-03T11:06:35.541Z</time></trkpt><trkpt lat="42.350605" lon="14.1124783"><ele>44.0</ele><time>2026-05-03T11:06:36.541Z</time></trkpt><trkpt lat="42.3507617" lon="14.1124883"><ele>44.0</ele><time>2026-05-03T11:06:37.54Z</time></trkpt><trkpt lat="42.3509233" lon="14.1125183"><ele>44.0</ele><time>2026-05-03T11:06:38.54Z</time></trkpt><trkpt lat="42.3510933" lon="14.11256"><ele>44.0</ele><time>2026-05-03T11:06:39.541Z</time></trkpt><trkpt lat="42.3512767" lon="14.1126317"><ele>44.0</ele><time>2026-05-03T11:06:40.541Z</time></trkpt><trkpt lat="42.3514883" lon="14.11271"><ele>42.0</ele><time>2026-05-03T11:06:41.541Z</time></trkpt><trkpt lat="42.3517233" lon="14.1128133"><ele>40.0</ele><time>2026-05-03T11:06:42.541Z</time></trkpt><trkpt lat="42.3519583" lon="14.1129267"><ele>40.0</ele><time>2026-05-03T11:06:43.541Z</time></trkpt><trkpt lat="42.3522033" lon="14.1130417"><ele>40.0</ele><time>2026-05-03T11:06:44.541Z</time></trkpt><trkpt lat="42.352455" lon="14.1131467"><ele>38.0</ele><time>2026-05-03T11:06:45.54Z</time></trkpt><trkpt lat="42.3527117" lon="14.1132483"><ele>36.0</ele><time>2026-05-03T11:06:46.541Z</time></trkpt><trkpt lat="42.3529617" lon="14.113345"><ele>35.5</ele><time>2026-05-03T11:06:47.541Z</time></trkpt><trkpt lat="42.353215" lon="14.1134417"><ele>35.0</ele><time>2026-05-03T11:06:48.54Z</time></trkpt><trkpt lat="42.353465" lon="14.11354"><ele>35.0</ele><time>2026-05-03T11:06:49.541Z</time></trkpt><trkpt lat="42.3537217" lon="14.1136433"><ele>35.0</ele><time>2026-05-03T11:06:50.541Z</time></trkpt><trkpt lat="42.3539717" lon="14.11375"><ele>35.5</ele><time>2026-05-03T11:06:51.54Z</time></trkpt><trkpt lat="42.3542267" lon="14.113855"><ele>36.0</ele><time>2026-05-03T11:06:52.54Z</time></trkpt><trkpt lat="42.35449" lon="14.11396"><ele>36.5</ele><time>2026-05-03T11:06:53.541Z</time></trkpt><trkpt lat="42.3547583" lon="14.114065"><ele>37.0</ele><time>2026-05-03T11:06:54.541Z</time></trkpt><trkpt lat="42.3550233" lon="14.1141767"><ele>37.0</ele><time>2026-05-03T11:06:55.541Z</time></trkpt><trkpt lat="42.35529" lon="14.1142833"><ele>37.0</ele><time>2026-05-03T11:06:56.541Z</time></trkpt><trkpt lat="42.3555483" lon="14.114395"><ele>42.0</ele><time>2026-05-03T11:06:57.541Z</time></trkpt><trkpt lat="42.3558083" lon="14.1144967"><ele>47.0</ele><time>2026-05-03T11:06:58.541Z</time></trkpt><trkpt lat="42.35607" lon="14.1146"><ele>47.0</ele><time>2026-05-03T11:06:59.54Z</time></trkpt><trkpt lat="42.3563283" lon="14.1146983"><ele>47.0</ele><time>2026-05-03T11:07:00.541Z</time></trkpt><trkpt lat="42.3565783" lon="14.1147983"><ele>43.0</ele><time>2026-05-03T11:07:01.54Z</time></trkpt><trkpt lat="42.3568383" lon="14.114905"><ele>39.0</ele><time>2026-05-03T11:07:02.541Z</time></trkpt><trkpt lat="42.357105" lon="14.1150083"><ele>40.0</ele><time>2026-05-03T11:07:03.541Z</time></trkpt><trkpt lat="42.35737" lon="14.1151183"><ele>41.0</ele><time>2026-05-03T11:07:04.54Z</time></trkpt><trkpt lat="42.3576333" lon="14.1152233"><ele>41.0</ele><time>2026-05-03T11:07:05.54Z</time></trkpt><trkpt lat="42.3579183" lon="14.1153317"><ele>41.0</ele><time>2026-05-03T11:07:06.54Z</time></trkpt><trkpt lat="42.3581967" lon="14.1154417"><ele>41.0</ele><time>2026-05-03T11:07:07.541Z</time></trkpt><trkpt lat="42.3584633" lon="14.11555"><ele>41.0</ele><time>2026-05-03T11:07:08.541Z</time></trkpt><trkpt lat="42.3587117" lon="14.1156583"><ele>38.5</ele><time>2026-05-03T11:07:09.541Z</time></trkpt><trkpt lat="42.358945" lon="14.1157533"><ele>36.0</ele><time>2026-05-03T11:07:10.541Z</time></trkpt><trkpt lat="42.3591733" lon="14.1158433"><ele>36.0</ele><time>2026-05-03T11:07:11.541Z</time></trkpt><trkpt lat="42.359385" lon="14.1159267"><ele>36.0</ele><time>2026-05-03T11:07:12.541Z</time></trkpt><trkpt lat="42.3595783" lon="14.1160133"><ele>36.0</ele><time>2026-05-03T11:07:13.541Z</time></trkpt><trkpt lat="42.3597717" lon="14.116095"><ele>36.333333333333336</ele><time>2026-05-03T11:07:14.541Z</time></trkpt><trkpt lat="42.3599767" lon="14.116185"><ele>36.66666666666667</ele><time>2026-05-03T11:07:15.54Z</time></trkpt><trkpt lat="42.360185" lon="14.1162767"><ele>37.0</ele><time>2026-05-03T11:07:16.541Z</time></trkpt><trkpt lat="42.360395" lon="14.11638"><ele>39.5</ele><time>2026-05-03T11:07:17.541Z</time></trkpt><trkpt lat="42.3606133" lon="14.1164833"><ele>42.0</ele><time>2026-05-03T11:07:18.541Z</time></trkpt><trkpt lat="42.36085" lon="14.1165867"><ele>36.0</ele><time>2026-05-03T11:07:19.54Z</time></trkpt><trkpt lat="42.3610883" lon="14.1166967"><ele>30.0</ele><time>2026-05-03T11:07:20.541Z</time></trkpt><trkpt lat="42.361335" lon="14.1168067"><ele>33.0</ele><time>2026-05-03T11:07:21.541Z</time></trkpt><trkpt lat="42.3615867" lon="14.1169217"><ele>36.0</ele><time>2026-05-03T11:07:22.541Z</time></trkpt><trkpt lat="42.3618367" lon="14.1170433"><ele>36.0</ele><time>2026-05-03T11:07:23.541Z</time></trkpt><trkpt lat="42.3620933" lon="14.1171567"><ele>36.0</ele><time>2026-05-03T11:07:24.54Z</time></trkpt><trkpt lat="42.3623517" lon="14.1172567"><ele>32.5</ele><time>2026-05-03T11:07:25.541Z</time></trkpt><trkpt lat="42.3626017" lon="14.1173433"><ele>29.0</ele><time>2026-05-03T11:07:26.541Z</time></trkpt><trkpt lat="42.362825" lon="14.1174083"><ele>30.0</ele><time>2026-05-03T11:07:27.54Z</time></trkpt><trkpt lat="42.3630683" lon="14.1174383"><ele>31.0</ele><time>2026-05-03T11:07:28.54Z</time></trkpt><trkpt lat="42.3633183" lon="14.11745"><ele>31.0</ele><time>2026-05-03T11:07:29.541Z</time></trkpt><trkpt lat="42.363565" lon="14.1174567"><ele>31.0</ele><time>2026-05-03T11:07:30.54Z</time></trkpt><trkpt lat="42.3637817" lon="14.1174633"><ele>31.666666666666668</ele><time>2026-05-03T11:07:31.541Z</time></trkpt><trkpt lat="42.3639867" lon="14.1174767"><ele>32.333333333333336</ele><time>2026-05-03T11:07:32.54Z</time></trkpt><trkpt lat="42.3641967" lon="14.1174967"><ele>33.0</ele><time>2026-05-03T11:07:33.541Z</time></trkpt><trkpt lat="42.3643983" lon="14.1175617"><ele>33.0</ele><time>2026-05-03T11:07:34.54Z</time></trkpt><trkpt lat="42.364605" lon="14.1176633"><ele>33.0</ele><time>2026-05-03T11:07:35.54Z</time></trkpt><trkpt lat="42.3648183" lon="14.1177867"><ele>32.5</ele><time>2026-05-03T11:07:36.541Z</time></trkpt><trkpt lat="42.365035" lon="14.1179267"><ele>32.0</ele><time>2026-05-03T11:07:37.541Z</time></trkpt><trkpt lat="42.3652583" lon="14.11807"><ele>32.0</ele><time>2026-05-03T11:07:38.541Z</time></trkpt><trkpt lat="42.3654733" lon="14.1182233"><ele>32.0</ele><time>2026-05-03T11:07:39.54Z</time></trkpt><trkpt lat="42.3656933" lon="14.1183767"><ele>30.0</ele><time>2026-05-03T11:07:40.54Z</time></trkpt><trkpt lat="42.365915" lon="14.1185233"><ele>28.0</ele><time>2026-05-03T11:07:41.541Z</time></trkpt><trkpt lat="42.36613" lon="14.1186617"><ele>28.0</ele><time>2026-05-03T11:07:42.541Z</time></trkpt><trkpt lat="42.3663417" lon="14.1187967"><ele>28.0</ele><time>2026-05-03T11:07:43.541Z</time></trkpt><trkpt lat="42.3665683" lon="14.1189517"><ele>27.5</ele><time>2026-05-03T11:07:44.54Z</time></trkpt><trkpt lat="42.366795" lon="14.11911"><ele>27.0</ele><time>2026-05-03T11:07:45.541Z</time></trkpt><trkpt lat="42.3670133" lon="14.119275"><ele>27.5</ele><time>2026-05-03T11:07:46.541Z</time></trkpt><trkpt lat="42.36725" lon="14.1194483"><ele>28.0</ele><time>2026-05-03T11:07:47.541Z</time></trkpt><trkpt lat="42.367485" lon="14.1196133"><ele>28.0</ele><time>2026-05-03T11:07:48.541Z</time></trkpt><trkpt lat="42.3677033" lon="14.1197633"><ele>28.0</ele><time>2026-05-03T11:07:49.54Z</time></trkpt><trkpt lat="42.3678933" lon="14.1198983"><ele>28.333333333333336</ele><time>2026-05-03T11:07:50.541Z</time></trkpt><trkpt lat="42.3680767" lon="14.1200217"><ele>28.666666666666664</ele><time>2026-05-03T11:07:51.541Z</time></trkpt><trkpt lat="42.368255" lon="14.120135"><ele>29.0</ele><time>2026-05-03T11:07:52.541Z</time></trkpt><trkpt lat="42.36845" lon="14.1202167"><ele>29.0</ele><time>2026-05-03T11:07:53.541Z</time></trkpt><trkpt lat="42.368675" lon="14.1202633"><ele>29.0</ele><time>2026-05-03T11:07:54.54Z</time></trkpt><trkpt lat="42.3689117" lon="14.1202917"><ele>33.0</ele><time>2026-05-03T11:07:55.541Z</time></trkpt><trkpt lat="42.369165" lon="14.120325"><ele>37.0</ele><time>2026-05-03T11:07:56.541Z</time></trkpt><trkpt lat="42.36943" lon="14.1203583"><ele>37.0</ele><time>2026-05-03T11:07:57.541Z</time></trkpt><trkpt lat="42.3697067" lon="14.1203867"><ele>37.0</ele><time>2026-05-03T11:07:58.54Z</time></trkpt><trkpt lat="42.369985" lon="14.120415"><ele>37.0</ele><time>2026-05-03T11:07:59.54Z</time></trkpt><trkpt lat="42.370255" lon="14.1204517"><ele>37.0</ele><time>2026-05-03T11:08:00.541Z</time></trkpt><trkpt lat="42.3705083" lon="14.12049"><ele>37.5</ele><time>2026-05-03T11:08:01.541Z</time></trkpt><trkpt lat="42.3707583" lon="14.120545"><ele>38.0</ele><time>2026-05-03T11:08:02.541Z</time></trkpt><trkpt lat="42.3710067" lon="14.120625"><ele>38.0</ele><time>2026-05-03T11:08:03.541Z</time></trkpt><trkpt lat="42.3712517" lon="14.1207267"><ele>38.0</ele><time>2026-05-03T11:08:04.541Z</time></trkpt><trkpt lat="42.3714817" lon="14.1208317"><ele>35.5</ele><time>2026-05-03T11:08:05.541Z</time></trkpt><trkpt lat="42.371705" lon="14.120935"><ele>33.0</ele><time>2026-05-03T11:08:06.541Z</time></trkpt><trkpt lat="42.3719183" lon="14.1210433"><ele>33.0</ele><time>2026-05-03T11:08:07.541Z</time></trkpt><trkpt lat="42.37213" lon="14.1211583"><ele>33.0</ele><time>2026-05-03T11:08:08.541Z</time></trkpt><trkpt lat="42.3723233" lon="14.121295"><ele>33.0</ele><time>2026-05-03T11:08:09.54Z</time></trkpt><trkpt lat="42.3725233" lon="14.1214517"><ele>33.5</ele><time>2026-05-03T11:08:10.54Z</time></trkpt><trkpt lat="42.3727317" lon="14.1216133"><ele>34.0</ele><time>2026-05-03T11:08:11.54Z</time></trkpt><trkpt lat="42.3729267" lon="14.1217633"><ele>36.333333333333336</ele><time>2026-05-03T11:08:12.541Z</time></trkpt><trkpt lat="42.3730967" lon="14.1218967"><ele>38.666666666666664</ele><time>2026-05-03T11:08:13.54Z</time></trkpt><trkpt lat="42.3732617" lon="14.1220267"><ele>41.0</ele><time>2026-05-03T11:08:14.54Z</time></trkpt><trkpt lat="42.373395" lon="14.12214"><ele>41.0</ele><time>2026-05-03T11:08:15.541Z</time></trkpt><trkpt lat="42.3735133" lon="14.1222383"><ele>41.0</ele><time>2026-05-03T11:08:16.541Z</time></trkpt><trkpt lat="42.3736267" lon="14.1223267"><ele>41.0</ele><time>2026-05-03T11:08:17.54Z</time></trkpt><trkpt lat="42.3737267" lon="14.1224033"><ele>41.0</ele><time>2026-05-03T11:08:18.539Z</time></trkpt><trkpt lat="42.3738217" lon="14.1224667"><ele>41.0</ele><time>2026-05-03T11:08:19.54Z</time></trkpt><trkpt lat="42.3738983" lon="14.12252"><ele>41.0</ele><time>2026-05-03T11:08:20.539Z</time></trkpt><trkpt lat="42.3739633" lon="14.1225617"><ele>41.0</ele><time>2026-05-03T11:08:21.54Z</time></trkpt><trkpt lat="42.3740483" lon="14.1226317"><ele>41.0</ele><time>2026-05-03T11:08:23.539Z</time></trkpt><trkpt lat="42.3741817" lon="14.122745"><ele>41.0</ele><time>2026-05-03T11:08:45.54Z</time></trkpt><trkpt lat="42.3742783" lon="14.1228433"><ele>41.0</ele><time>2026-05-03T11:08:46.54Z</time></trkpt><trkpt lat="42.3743967" lon="14.12295"><ele>41.0</ele><time>2026-05-03T11:08:47.539Z</time></trkpt><trkpt lat="42.3745267" lon="14.12305"><ele>41.0</ele><time>2026-05-03T11:08:48.54Z</time></trkpt><trkpt lat="42.374655" lon="14.1231517"><ele>41.0</ele><time>2026-05-03T11:08:49.54Z</time></trkpt><trkpt lat="42.3747983" lon="14.1232533"><ele>40.33333333333333</ele><time>2026-05-03T11:08:50.54Z</time></trkpt><trkpt lat="42.37494" lon="14.123365"><ele>39.666666666666664</ele><time>2026-05-03T11:08:51.54Z</time></trkpt><trkpt lat="42.375095" lon="14.1234833"><ele>39.0</ele><time>2026-05-03T11:08:52.54Z</time></trkpt><trkpt lat="42.37525" lon="14.1236033"><ele>39.0</ele><time>2026-05-03T11:08:53.54Z</time></trkpt><trkpt lat="42.3754133" lon="14.12373"><ele>39.0</ele><time>2026-05-03T11:08:54.54Z</time></trkpt><trkpt lat="42.3755867" lon="14.1238483"><ele>39.0</ele><time>2026-05-03T11:08:55.539Z</time></trkpt><trkpt lat="42.375745" lon="14.123945"><ele>38.75</ele><time>2026-05-03T11:08:56.539Z</time></trkpt><trkpt lat="42.3758983" lon="14.1240067"><ele>38.5</ele><time>2026-05-03T11:08:57.54Z</time></trkpt><trkpt lat="42.3760417" lon="14.12405"><ele>38.25</ele><time>2026-05-03T11:08:58.539Z</time></trkpt><trkpt lat="42.37616" lon="14.1240967"><ele>38.0</ele><time>2026-05-03T11:08:59.54Z</time></trkpt><trkpt lat="42.3762533" lon="14.12416"><ele>38.0</ele><time>2026-05-03T11:09:00.539Z</time></trkpt><trkpt lat="42.37633" lon="14.1242467"><ele>38.0</ele><time>2026-05-03T11:09:01.54Z</time></trkpt><trkpt lat="42.3763867" lon="14.1243417"><ele>38.0</ele><time>2026-05-03T11:09:02.54Z</time></trkpt><trkpt lat="42.376435" lon="14.1244333"><ele>38.0</ele><time>2026-05-03T11:09:03.54Z</time></trkpt><trkpt lat="42.37649" lon="14.12449"><ele>38.0</ele><time>2026-05-03T11:09:04.54Z</time></trkpt><trkpt lat="42.37659" lon="14.1245"><ele>38.0</ele><time>2026-05-03T11:09:06.54Z</time></trkpt><trkpt lat="42.3766483" lon="14.1244333"><ele>37.75</ele><time>2026-05-03T11:09:07.54Z</time></trkpt><trkpt lat="42.3766983" lon="14.1243333"><ele>37.5</ele><time>2026-05-03T11:09:08.54Z</time></trkpt><trkpt lat="42.3767467" lon="14.1241933"><ele>37.25</ele><time>2026-05-03T11:09:09.54Z</time></trkpt><trkpt lat="42.376825" lon="14.124045"><ele>37.0</ele><time>2026-05-03T11:09:10.54Z</time></trkpt><trkpt lat="42.376935" lon="14.1238683"><ele>39.333333333333336</ele><time>2026-05-03T11:09:11.54Z</time></trkpt><trkpt lat="42.37705" lon="14.12369"><ele>41.666666666666664</ele><time>2026-05-03T11:09:12.54Z</time></trkpt><trkpt lat="42.3771633" lon="14.1235383"><ele>44.0</ele><time>2026-05-03T11:09:13.54Z</time></trkpt><trkpt lat="42.3772917" lon="14.1234383"><ele>44.666666666666664</ele><time>2026-05-03T11:09:14.54Z</time></trkpt><trkpt lat="42.37744" lon="14.123395"><ele>45.333333333333336</ele><time>2026-05-03T11:09:15.54Z</time></trkpt><trkpt lat="42.3775983" lon="14.123395"><ele>46.0</ele><time>2026-05-03T11:09:16.539Z</time></trkpt><trkpt lat="42.3777767" lon="14.12342"><ele>46.0</ele><time>2026-05-03T11:09:17.539Z</time></trkpt><trkpt lat="42.3779683" lon="14.1234517"><ele>46.0</ele><time>2026-05-03T11:09:18.54Z</time></trkpt><trkpt lat="42.3781633" lon="14.1234833"><ele>46.0</ele><time>2026-05-03T11:09:19.539Z</time></trkpt><trkpt lat="42.3783667" lon="14.1235167"><ele>49.0</ele><time>2026-05-03T11:09:20.54Z</time></trkpt><trkpt lat="42.3785633" lon="14.123545"><ele>52.0</ele><time>2026-05-03T11:09:21.539Z</time></trkpt><trkpt lat="42.3787317" lon="14.1235683"><ele>55.0</ele><time>2026-05-03T11:09:22.54Z</time></trkpt><trkpt lat="42.3788867" lon="14.1235983"><ele>56.0</ele><time>2026-05-03T11:09:23.54Z</time></trkpt><trkpt lat="42.3790233" lon="14.1236233"><ele>57.0</ele><time>2026-05-03T11:09:24.54Z</time></trkpt><trkpt lat="42.3791417" lon="14.12365"><ele>58.0</ele><time>2026-05-03T11:09:25.54Z</time></trkpt><trkpt lat="42.37926" lon="14.1236917"><ele>59.0</ele><time>2026-05-03T11:09:26.539Z</time></trkpt><trkpt lat="42.3793783" lon="14.12376"><ele>59.0</ele><time>2026-05-03T11:09:27.54Z</time></trkpt><trkpt lat="42.3794883" lon="14.1238517"><ele>59.0</ele><time>2026-05-03T11:09:28.539Z</time></trkpt><trkpt lat="42.3795883" lon="14.12397"><ele>59.0</ele><time>2026-05-03T11:09:29.539Z</time></trkpt><trkpt lat="42.379695" lon="14.1240817"><ele>59.0</ele><time>2026-05-03T11:09:30.54Z</time></trkpt><trkpt lat="42.3798283" lon="14.124195"><ele>56.66666666666667</ele><time>2026-05-03T11:09:31.54Z</time></trkpt><trkpt lat="42.3799933" lon="14.1243167"><ele>54.33333333333333</ele><time>2026-05-03T11:09:32.54Z</time></trkpt><trkpt lat="42.3801833" lon="14.1244533"><ele>52.0</ele><time>2026-05-03T11:09:33.54Z</time></trkpt><trkpt lat="42.3803833" lon="14.1246"><ele>50.0</ele><time>2026-05-03T11:09:34.54Z</time></trkpt><trkpt lat="42.3805833" lon="14.1247483"><ele>48.0</ele><time>2026-05-03T11:09:35.539Z</time></trkpt><trkpt lat="42.380785" lon="14.1249"><ele>48.0</ele><time>2026-05-03T11:09:36.54Z</time></trkpt><trkpt lat="42.3809933" lon="14.1250583"><ele>48.0</ele><time>2026-05-03T11:09:37.54Z</time></trkpt><trkpt lat="42.38122" lon="14.1252233"><ele>50.5</ele><time>2026-05-03T11:09:38.54Z</time></trkpt><trkpt lat="42.381455" lon="14.1253983"><ele>53.0</ele><time>2026-05-03T11:09:39.54Z</time></trkpt><trkpt lat="42.381675" lon="14.1255617"><ele>53.0</ele><time>2026-05-03T11:09:40.54Z</time></trkpt><trkpt lat="42.3818717" lon="14.1257233"><ele>53.0</ele><time>2026-05-03T11:09:41.54Z</time></trkpt><trkpt lat="42.3820417" lon="14.1258867"><ele>53.0</ele><time>2026-05-03T11:09:42.539Z</time></trkpt><trkpt lat="42.382205" lon="14.1260383"><ele>53.0</ele><time>2026-05-03T11:09:43.54Z</time></trkpt><trkpt lat="42.3823667" lon="14.1261733"><ele>53.0</ele><time>2026-05-03T11:09:44.539Z</time></trkpt><trkpt lat="42.3825267" lon="14.1262783"><ele>53.0</ele><time>2026-05-03T11:09:45.54Z</time></trkpt><trkpt lat="42.3826983" lon="14.1263517"><ele>53.0</ele><time>2026-05-03T11:09:46.539Z</time></trkpt><trkpt lat="42.3828867" lon="14.1263933"><ele>53.0</ele><time>2026-05-03T11:09:47.54Z</time></trkpt><trkpt lat="42.383065" lon="14.1264033"><ele>53.0</ele><time>2026-05-03T11:09:48.54Z</time></trkpt><trkpt lat="42.3832233" lon="14.12641"><ele>53.0</ele><time>2026-05-03T11:09:49.54Z</time></trkpt><trkpt lat="42.38337" lon="14.1264167"><ele>53.0</ele><time>2026-05-03T11:09:50.539Z</time></trkpt><trkpt lat="42.3835133" lon="14.12647"><ele>53.0</ele><time>2026-05-03T11:09:51.54Z</time></trkpt><trkpt lat="42.3836683" lon="14.1265517"><ele>49.333333333333336</ele><time>2026-05-03T11:09:52.54Z</time></trkpt><trkpt lat="42.3838483" lon="14.1266583"><ele>45.66666666666667</ele><time>2026-05-03T11:09:53.539Z</time></trkpt><trkpt lat="42.3840433" lon="14.1267783"><ele>42.0</ele><time>2026-05-03T11:09:54.54Z</time></trkpt><trkpt lat="42.38425" lon="14.1268783"><ele>42.0</ele><time>2026-05-03T11:09:55.54Z</time></trkpt><trkpt lat="42.38444" lon="14.1269617"><ele>42.0</ele><time>2026-05-03T11:09:56.54Z</time></trkpt><trkpt lat="42.384625" lon="14.1270283"><ele>42.0</ele><time>2026-05-03T11:09:57.54Z</time></trkpt><trkpt lat="42.3848033" lon="14.127095"><ele>43.0</ele><time>2026-05-03T11:09:58.539Z</time></trkpt><trkpt lat="42.38496" lon="14.127185"><ele>44.0</ele><time>2026-05-03T11:09:59.539Z</time></trkpt><trkpt lat="42.385125" lon="14.1272967"><ele>45.0</ele><time>2026-05-03T11:10:00.54Z</time></trkpt><trkpt lat="42.3852833" lon="14.127455"><ele>42.0</ele><time>2026-05-03T11:10:01.54Z</time></trkpt><trkpt lat="42.3854483" lon="14.1276317"><ele>39.0</ele><time>2026-05-03T11:10:02.54Z</time></trkpt><trkpt lat="42.3856233" lon="14.1278183"><ele>36.0</ele><time>2026-05-03T11:10:03.54Z</time></trkpt><trkpt lat="42.3858117" lon="14.12801"><ele>36.0</ele><time>2026-05-03T11:10:04.54Z</time></trkpt><trkpt lat="42.3859983" lon="14.128195"><ele>36.0</ele><time>2026-05-03T11:10:05.54Z</time></trkpt><trkpt lat="42.38617" lon="14.1283733"><ele>36.0</ele><time>2026-05-03T11:10:06.539Z</time></trkpt><trkpt lat="42.3863233" lon="14.1285667"><ele>36.333333333333336</ele><time>2026-05-03T11:10:07.539Z</time></trkpt><trkpt lat="42.3864633" lon="14.1287717"><ele>36.66666666666667</ele><time>2026-05-03T11:10:08.539Z</time></trkpt><trkpt lat="42.3865767" lon="14.1289633"><ele>37.0</ele><time>2026-05-03T11:10:09.54Z</time></trkpt><trkpt lat="42.3866833" lon="14.1291417"><ele>35.66666666666667</ele><time>2026-05-03T11:10:10.54Z</time></trkpt><trkpt lat="42.3867933" lon="14.1293067"><ele>34.333333333333336</ele><time>2026-05-03T11:10:11.54Z</time></trkpt><trkpt lat="42.386905" lon="14.1294417"><ele>33.0</ele><time>2026-05-03T11:10:12.54Z</time></trkpt><trkpt lat="42.387015" lon="14.1295733"><ele>33.0</ele><time>2026-05-03T11:10:13.54Z</time></trkpt><trkpt lat="42.3871267" lon="14.1296933"><ele>33.0</ele><time>2026-05-03T11:10:14.54Z</time></trkpt><trkpt lat="42.38725" lon="14.1298133"><ele>33.0</ele><time>2026-05-03T11:10:15.539Z</time></trkpt><trkpt lat="42.3873783" lon="14.12993"><ele>33.0</ele><time>2026-05-03T11:10:16.54Z</time></trkpt><trkpt lat="42.3875133" lon="14.1300633"><ele>32.666666666666664</ele><time>2026-05-03T11:10:17.54Z</time></trkpt><trkpt lat="42.3876433" lon="14.1301817"><ele>32.33333333333333</ele><time>2026-05-03T11:10:18.54Z</time></trkpt><trkpt lat="42.3877733" lon="14.1303033"><ele>32.0</ele><time>2026-05-03T11:10:19.54Z</time></trkpt><trkpt lat="42.3878883" lon="14.1304033"><ele>32.0</ele><time>2026-05-03T11:10:20.54Z</time></trkpt><trkpt lat="42.38799" lon="14.130475"><ele>32.0</ele><time>2026-05-03T11:10:21.539Z</time></trkpt><trkpt lat="42.3880883" lon="14.1305283"><ele>32.0</ele><time>2026-05-03T11:10:22.539Z</time></trkpt><trkpt lat="42.388185" lon="14.1305733"><ele>32.0</ele><time>2026-05-03T11:10:23.54Z</time></trkpt><trkpt lat="42.38829" lon="14.13063"><ele>32.0</ele><time>2026-05-03T11:10:24.54Z</time></trkpt><trkpt lat="42.3884083" lon="14.1307"><ele>32.0</ele><time>2026-05-03T11:10:25.54Z</time></trkpt><trkpt lat="42.3885433" lon="14.1307817"><ele>32.0</ele><time>2026-05-03T11:10:26.54Z</time></trkpt><trkpt lat="42.3886933" lon="14.1308667"><ele>32.0</ele><time>2026-05-03T11:10:27.54Z</time></trkpt><trkpt lat="42.38886" lon="14.13097"><ele>32.33333333333333</ele><time>2026-05-03T11:10:28.54Z</time></trkpt><trkpt lat="42.38902" lon="14.1310767"><ele>32.666666666666664</ele><time>2026-05-03T11:10:29.54Z</time></trkpt><trkpt lat="42.3891867" lon="14.1311833"><ele>33.0</ele><time>2026-05-03T11:10:30.539Z</time></trkpt><trkpt lat="42.3893417" lon="14.1313133"><ele>33.0</ele><time>2026-05-03T11:10:31.54Z</time></trkpt><trkpt lat="42.3895067" lon="14.13145"><ele>33.0</ele><time>2026-05-03T11:10:32.54Z</time></trkpt><trkpt lat="42.3896867" lon="14.1315967"><ele>33.0</ele><time>2026-05-03T11:10:33.54Z</time></trkpt><trkpt lat="42.3898633" lon="14.1317567"><ele>32.333333333333336</ele><time>2026-05-03T11:10:34.54Z</time></trkpt><trkpt lat="42.39004" lon="14.1319217"><ele>31.666666666666668</ele><time>2026-05-03T11:10:35.54Z</time></trkpt><trkpt lat="42.39022" lon="14.13208"><ele>31.0</ele><time>2026-05-03T11:10:36.54Z</time></trkpt><trkpt lat="42.3903983" lon="14.1322417"><ele>30.666666666666668</ele><time>2026-05-03T11:10:37.539Z</time></trkpt><trkpt lat="42.3905783" lon="14.1324033"><ele>30.333333333333336</ele><time>2026-05-03T11:10:38.539Z</time></trkpt><trkpt lat="42.3907583" lon="14.132565"><ele>30.0</ele><time>2026-05-03T11:10:39.54Z</time></trkpt><trkpt lat="42.3909367" lon="14.132735"><ele>30.0</ele><time>2026-05-03T11:10:40.539Z</time></trkpt><trkpt lat="42.3911133" lon="14.1328983"><ele>30.0</ele><time>2026-05-03T11:10:41.54Z</time></trkpt><trkpt lat="42.3912933" lon="14.1330633"><ele>30.0</ele><time>2026-05-03T11:10:42.539Z</time></trkpt><trkpt lat="42.3914833" lon="14.13323"><ele>30.0</ele><time>2026-05-03T11:10:43.54Z</time></trkpt><trkpt lat="42.3916733" lon="14.1333933"><ele>30.0</ele><time>2026-05-03T11:10:44.54Z</time></trkpt><trkpt lat="42.3918617" lon="14.1335617"><ele>30.0</ele><time>2026-05-03T11:10:45.54Z</time></trkpt><trkpt lat="42.3920517" lon="14.1337283"><ele>30.0</ele><time>2026-05-03T11:10:46.54Z</time></trkpt><trkpt lat="42.392245" lon="14.1338983"><ele>29.5</ele><time>2026-05-03T11:10:47.539Z</time></trkpt><trkpt lat="42.3924383" lon="14.1340733"><ele>29.0</ele><time>2026-05-03T11:10:48.539Z</time></trkpt><trkpt lat="42.3926267" lon="14.13425"><ele>29.0</ele><time>2026-05-03T11:10:49.54Z</time></trkpt><trkpt lat="42.3928067" lon="14.13441"><ele>29.0</ele><time>2026-05-03T11:10:50.54Z</time></trkpt><trkpt lat="42.3929917" lon="14.1345733"><ele>29.0</ele><time>2026-05-03T11:10:51.539Z</time></trkpt><trkpt lat="42.3932317" lon="14.1347817"><ele>28.333333333333332</ele><time>2026-05-03T11:10:52.54Z</time></trkpt><trkpt lat="42.3934183" lon="14.1349483"><ele>27.666666666666664</ele><time>2026-05-03T11:10:53.54Z</time></trkpt><trkpt lat="42.3935917" lon="14.1351"><ele>27.0</ele><time>2026-05-03T11:10:54.54Z</time></trkpt><trkpt lat="42.393765" lon="14.1352567"><ele>28.0</ele><time>2026-05-03T11:10:55.54Z</time></trkpt><trkpt lat="42.39394" lon="14.135405"><ele>29.0</ele><time>2026-05-03T11:10:56.54Z</time></trkpt><trkpt lat="42.394095" lon="14.135545"><ele>30.0</ele><time>2026-05-03T11:10:57.54Z</time></trkpt><trkpt lat="42.3942417" lon="14.135685"><ele>29.666666666666664</ele><time>2026-05-03T11:10:58.54Z</time></trkpt><trkpt lat="42.3943883" lon="14.135815"><ele>29.333333333333332</ele><time>2026-05-03T11:10:59.539Z</time></trkpt><trkpt lat="42.39454" lon="14.1359467"><ele>29.0</ele><time>2026-05-03T11:11:00.54Z</time></trkpt><trkpt lat="42.3946967" lon="14.1360933"><ele>29.0</ele><time>2026-05-03T11:11:01.539Z</time></trkpt><trkpt lat="42.39487" lon="14.136245"><ele>29.0</ele><time>2026-05-03T11:11:02.54Z</time></trkpt><trkpt lat="42.3950467" lon="14.1364033"><ele>29.0</ele><time>2026-05-03T11:11:03.539Z</time></trkpt><trkpt lat="42.395225" lon="14.136565"><ele>28.0</ele><time>2026-05-03T11:11:04.539Z</time></trkpt><trkpt lat="42.3954033" lon="14.1367267"><ele>27.0</ele><time>2026-05-03T11:11:05.54Z</time></trkpt><trkpt lat="42.3955767" lon="14.136885"><ele>26.0</ele><time>2026-05-03T11:11:06.54Z</time></trkpt><trkpt lat="42.395735" lon="14.1370283"><ele>26.0</ele><time>2026-05-03T11:11:07.539Z</time></trkpt><trkpt lat="42.3958883" lon="14.1371633"><ele>26.0</ele><time>2026-05-03T11:11:08.539Z</time></trkpt><trkpt lat="42.39604" lon="14.137295"><ele>26.0</ele><time>2026-05-03T11:11:09.539Z</time></trkpt><trkpt lat="42.3962" lon="14.1374317"><ele>26.333333333333332</ele><time>2026-05-03T11:11:10.54Z</time></trkpt><trkpt lat="42.3963583" lon="14.137575"><ele>26.666666666666664</ele><time>2026-05-03T11:11:11.54Z</time></trkpt><trkpt lat="42.3965217" lon="14.1377167"><ele>27.0</ele><time>2026-05-03T11:11:12.54Z</time></trkpt><trkpt lat="42.3966817" lon="14.1378683"><ele>27.0</ele><time>2026-05-03T11:11:13.539Z</time></trkpt><trkpt lat="42.3968567" lon="14.138015"><ele>27.0</ele><time>2026-05-03T11:11:14.54Z</time></trkpt><trkpt lat="42.39703" lon="14.138155"><ele>27.0</ele><time>2026-05-03T11:11:15.54Z</time></trkpt><trkpt lat="42.3971783" lon="14.1382883"><ele>26.666666666666664</ele><time>2026-05-03T11:11:16.54Z</time></trkpt><trkpt lat="42.3973283" lon="14.138415"><ele>26.333333333333332</ele><time>2026-05-03T11:11:17.54Z</time></trkpt><trkpt lat="42.3974683" lon="14.138545"><ele>26.0</ele><time>2026-05-03T11:11:18.54Z</time></trkpt><trkpt lat="42.3975967" lon="14.1386583"><ele>26.0</ele><time>2026-05-03T11:11:19.54Z</time></trkpt><trkpt lat="42.3977183" lon="14.1387767"><ele>26.0</ele><time>2026-05-03T11:11:20.54Z</time></trkpt><trkpt lat="42.3978467" lon="14.1388867"><ele>26.0</ele><time>2026-05-03T11:11:21.54Z</time></trkpt><trkpt lat="42.3979817" lon="14.1390067"><ele>26.0</ele><time>2026-05-03T11:11:22.54Z</time></trkpt><trkpt lat="42.398135" lon="14.1391317"><ele>26.0</ele><time>2026-05-03T11:11:23.54Z</time></trkpt><trkpt lat="42.39829" lon="14.1392733"><ele>26.0</ele><time>2026-05-03T11:11:24.54Z</time></trkpt><trkpt lat="42.39845" lon="14.13942"><ele>26.0</ele><time>2026-05-03T11:11:25.54Z</time></trkpt><trkpt lat="42.3986033" lon="14.1395617"><ele>26.0</ele><time>2026-05-03T11:11:26.539Z</time></trkpt><trkpt lat="42.3987433" lon="14.1397"><ele>26.0</ele><time>2026-05-03T11:11:27.54Z</time></trkpt><trkpt lat="42.39887" lon="14.13982"><ele>25.666666666666664</ele><time>2026-05-03T11:11:28.539Z</time></trkpt><trkpt lat="42.398995" lon="14.1399333"><ele>25.333333333333336</ele><time>2026-05-03T11:11:29.539Z</time></trkpt><trkpt lat="42.3991183" lon="14.140045"><ele>25.0</ele><time>2026-05-03T11:11:30.54Z</time></trkpt><trkpt lat="42.3992533" lon="14.14016"><ele>25.0</ele><time>2026-05-03T11:11:31.54Z</time></trkpt><trkpt lat="42.3993917" lon="14.140275"><ele>25.0</ele><time>2026-05-03T11:11:32.539Z</time></trkpt><trkpt lat="42.3995433" lon="14.1404133"><ele>25.0</ele><time>2026-05-03T11:11:33.54Z</time></trkpt><trkpt lat="42.3997033" lon="14.140565"><ele>25.333333333333336</ele><time>2026-05-03T11:11:34.539Z</time></trkpt><trkpt lat="42.39987" lon="14.1407233"><ele>25.666666666666664</ele><time>2026-05-03T11:11:35.54Z</time></trkpt><trkpt lat="42.4000517" lon="14.1408833"><ele>26.0</ele><time>2026-05-03T11:11:36.54Z</time></trkpt><trkpt lat="42.40025" lon="14.1410517"><ele>26.0</ele><time>2026-05-03T11:11:37.539Z</time></trkpt><trkpt lat="42.40045" lon="14.1412283"><ele>26.0</ele><time>2026-05-03T11:11:38.54Z</time></trkpt><trkpt lat="42.4006483" lon="14.1414067"><ele>25.5</ele><time>2026-05-03T11:11:39.539Z</time></trkpt><trkpt lat="42.4008583" lon="14.1415883"><ele>25.0</ele><time>2026-05-03T11:11:40.54Z</time></trkpt><trkpt lat="42.4010683" lon="14.1417783"><ele>25.0</ele><time>2026-05-03T11:11:41.54Z</time></trkpt><trkpt lat="42.4012767" lon="14.14197"><ele>25.0</ele><time>2026-05-03T11:11:42.54Z</time></trkpt><trkpt lat="42.40149" lon="14.1421583"><ele>25.0</ele><time>2026-05-03T11:11:43.539Z</time></trkpt><trkpt lat="42.4017" lon="14.1423367"><ele>25.0</ele><time>2026-05-03T11:11:44.54Z</time></trkpt><trkpt lat="42.401895" lon="14.14251"><ele>24.5</ele><time>2026-05-03T11:11:45.539Z</time></trkpt><trkpt lat="42.4020883" lon="14.1426767"><ele>24.0</ele><time>2026-05-03T11:11:46.54Z</time></trkpt><trkpt lat="42.4022783" lon="14.1428483"><ele>24.0</ele><time>2026-05-03T11:11:47.54Z</time></trkpt><trkpt lat="42.4024733" lon="14.1430267"><ele>24.0</ele><time>2026-05-03T11:11:48.54Z</time></trkpt><trkpt lat="42.4026733" lon="14.143205"><ele>24.0</ele><time>2026-05-03T11:11:49.54Z</time></trkpt><trkpt lat="42.4028783" lon="14.1433883"><ele>24.0</ele><time>2026-05-03T11:11:50.54Z</time></trkpt><trkpt lat="42.4030833" lon="14.1435683"><ele>24.0</ele><time>2026-05-03T11:11:51.54Z</time></trkpt><trkpt lat="42.4032867" lon="14.1437567"><ele>24.0</ele><time>2026-05-03T11:11:52.54Z</time></trkpt><trkpt lat="42.4034933" lon="14.1439383"><ele>24.5</ele><time>2026-05-03T11:11:53.539Z</time></trkpt><trkpt lat="42.4036983" lon="14.1441233"><ele>25.0</ele><time>2026-05-03T11:11:54.54Z</time></trkpt><trkpt lat="42.4039067" lon="14.1443083"><ele>25.0</ele><time>2026-05-03T11:11:55.539Z</time></trkpt><trkpt lat="42.4041083" lon="14.1444933"><ele>25.0</ele><time>2026-05-03T11:11:56.54Z</time></trkpt><trkpt lat="42.4043117" lon="14.1446783"><ele>25.0</ele><time>2026-05-03T11:11:57.539Z</time></trkpt><trkpt lat="42.4045183" lon="14.144855"><ele>25.0</ele><time>2026-05-03T11:11:58.539Z</time></trkpt><trkpt lat="42.4047067" lon="14.1450233"><ele>24.333333333333336</ele><time>2026-05-03T11:11:59.54Z</time></trkpt><trkpt lat="42.4048817" lon="14.145175"><ele>23.666666666666668</ele><time>2026-05-03T11:12:00.539Z</time></trkpt><trkpt lat="42.4050317" lon="14.1453117"><ele>23.0</ele><time>2026-05-03T11:12:01.54Z</time></trkpt><trkpt lat="42.40516" lon="14.14543"><ele>23.0</ele><time>2026-05-03T11:12:02.54Z</time></trkpt><trkpt lat="42.4052717" lon="14.1455333"><ele>23.0</ele><time>2026-05-03T11:12:03.539Z</time></trkpt><trkpt lat="42.40536" lon="14.1456233"><ele>23.0</ele><time>2026-05-03T11:12:04.539Z</time></trkpt><trkpt lat="42.4054167" lon="14.1457067"><ele>23.0</ele><time>2026-05-03T11:12:05.538Z</time></trkpt><trkpt lat="42.4054533" lon="14.1457833"><ele>23.0</ele><time>2026-05-03T11:12:06.539Z</time></trkpt><trkpt lat="42.40547" lon="14.145875"><ele>22.833333333333336</ele><time>2026-05-03T11:12:07.539Z</time></trkpt><trkpt lat="42.4054733" lon="14.1459683"><ele>22.666666666666668</ele><time>2026-05-03T11:12:08.539Z</time></trkpt><trkpt lat="42.4054917" lon="14.146055"><ele>22.5</ele><time>2026-05-03T11:12:09.539Z</time></trkpt><trkpt lat="42.405585" lon="14.146095"><ele>22.333333333333332</ele><time>2026-05-03T11:12:11.539Z</time></trkpt><trkpt lat="42.4056583" lon="14.1460783"><ele>22.166666666666664</ele><time>2026-05-03T11:12:12.538Z</time></trkpt><trkpt lat="42.4057433" lon="14.14606"><ele>22.0</ele><time>2026-05-03T11:12:13.538Z</time></trkpt><trkpt lat="42.405845" lon="14.1460733"><ele>22.0</ele><time>2026-05-03T11:12:14.538Z</time></trkpt><trkpt lat="42.405945" lon="14.1461283"><ele>22.0</ele><time>2026-05-03T11:12:15.539Z</time></trkpt><trkpt lat="42.4060683" lon="14.1462417"><ele>22.0</ele><time>2026-05-03T11:12:16.539Z</time></trkpt><trkpt lat="42.4062067" lon="14.1463767"><ele>22.0</ele><time>2026-05-03T11:12:17.539Z</time></trkpt><trkpt lat="42.4063633" lon="14.1465167"><ele>22.0</ele><time>2026-05-03T11:12:18.539Z</time></trkpt><trkpt lat="42.406535" lon="14.1466583"><ele>22.0</ele><time>2026-05-03T11:12:19.539Z</time></trkpt><trkpt lat="42.40671" lon="14.1467933"><ele>22.0</ele><time>2026-05-03T11:12:20.539Z</time></trkpt><trkpt lat="42.406905" lon="14.146905"><ele>22.0</ele><time>2026-05-03T11:12:21.538Z</time></trkpt><trkpt lat="42.4071133" lon="14.14699"><ele>22.0</ele><time>2026-05-03T11:12:22.539Z</time></trkpt><trkpt lat="42.4073417" lon="14.1470467"><ele>20.666666666666664</ele><time>2026-05-03T11:12:23.539Z</time></trkpt><trkpt lat="42.4075667" lon="14.1470967"><ele>19.333333333333332</ele><time>2026-05-03T11:12:24.539Z</time></trkpt><trkpt lat="42.4077767" lon="14.1471333"><ele>18.0</ele><time>2026-05-03T11:12:25.539Z</time></trkpt><trkpt lat="42.4079683" lon="14.1471733"><ele>17.666666666666668</ele><time>2026-05-03T11:12:26.539Z</time></trkpt><trkpt lat="42.4081583" lon="14.1472183"><ele>17.333333333333336</ele><time>2026-05-03T11:12:27.539Z</time></trkpt><trkpt lat="42.4083433" lon="14.14727"><ele>17.0</ele><time>2026-05-03T11:12:28.539Z</time></trkpt><trkpt lat="42.4085317" lon="14.1473467"><ele>17.0</ele><time>2026-05-03T11:12:29.539Z</time></trkpt><trkpt lat="42.4087183" lon="14.1474533"><ele>17.0</ele><time>2026-05-03T11:12:30.538Z</time></trkpt><trkpt lat="42.4089067" lon="14.1475867"><ele>17.0</ele><time>2026-05-03T11:12:31.539Z</time></trkpt><trkpt lat="42.4091033" lon="14.1477417"><ele>17.0</ele><time>2026-05-03T11:12:32.538Z</time></trkpt><trkpt lat="42.4093083" lon="14.1479183"><ele>17.0</ele><time>2026-05-03T11:12:33.538Z</time></trkpt><trkpt lat="42.4095283" lon="14.1480967"><ele>18.0</ele><time>2026-05-03T11:12:34.538Z</time></trkpt><trkpt lat="42.409745" lon="14.1482783"><ele>19.0</ele><time>2026-05-03T11:12:35.539Z</time></trkpt><trkpt lat="42.4099733" lon="14.14846"><ele>19.0</ele><time>2026-05-03T11:12:36.539Z</time></trkpt><trkpt lat="42.4102083" lon="14.148645"><ele>19.0</ele><time>2026-05-03T11:12:37.539Z</time></trkpt><trkpt lat="42.4104483" lon="14.148835"><ele>19.0</ele><time>2026-05-03T11:12:38.538Z</time></trkpt><trkpt lat="42.4106983" lon="14.149025"><ele>19.0</ele><time>2026-05-03T11:12:39.539Z</time></trkpt><trkpt lat="42.41095" lon="14.1492267"><ele>20.0</ele><time>2026-05-03T11:12:40.539Z</time></trkpt><trkpt lat="42.4111983" lon="14.149425"><ele>21.0</ele><time>2026-05-03T11:12:41.539Z</time></trkpt><trkpt lat="42.4114433" lon="14.1496217"><ele>21.0</ele><time>2026-05-03T11:12:42.539Z</time></trkpt><trkpt lat="42.4116917" lon="14.1498217"><ele>21.0</ele><time>2026-05-03T11:12:43.539Z</time></trkpt><trkpt lat="42.4119367" lon="14.1500167"><ele>18.0</ele><time>2026-05-03T11:12:44.539Z</time></trkpt><trkpt lat="42.4121733" lon="14.1501983"><ele>15.0</ele><time>2026-05-03T11:12:45.539Z</time></trkpt><trkpt lat="42.41239" lon="14.1503733"><ele>15.0</ele><time>2026-05-03T11:12:46.539Z</time></trkpt><trkpt lat="42.412595" lon="14.15055"><ele>15.0</ele><time>2026-05-03T11:12:47.538Z</time></trkpt><trkpt lat="42.412805" lon="14.150725"><ele>15.0</ele><time>2026-05-03T11:12:48.539Z</time></trkpt><trkpt lat="42.413" lon="14.15091"><ele>15.0</ele><time>2026-05-03T11:12:49.539Z</time></trkpt><trkpt lat="42.4131983" lon="14.151105"><ele>15.0</ele><time>2026-05-03T11:12:50.539Z</time></trkpt><trkpt lat="42.4133933" lon="14.151295"><ele>15.0</ele><time>2026-05-03T11:12:51.538Z</time></trkpt><trkpt lat="42.4135867" lon="14.1514783"><ele>15.5</ele><time>2026-05-03T11:12:52.538Z</time></trkpt><trkpt lat="42.4137933" lon="14.1516483"><ele>16.0</ele><time>2026-05-03T11:12:53.539Z</time></trkpt><trkpt lat="42.41401" lon="14.1517917"><ele>16.0</ele><time>2026-05-03T11:12:54.539Z</time></trkpt><trkpt lat="42.4142367" lon="14.1519067"><ele>16.0</ele><time>2026-05-03T11:12:55.538Z</time></trkpt><trkpt lat="42.4144417" lon="14.15198"><ele>16.0</ele><time>2026-05-03T11:12:56.539Z</time></trkpt><trkpt lat="42.4146517" lon="14.1520217"><ele>16.0</ele><time>2026-05-03T11:12:57.539Z</time></trkpt><trkpt lat="42.4148467" lon="14.1520517"><ele>16.0</ele><time>2026-05-03T11:12:58.538Z</time></trkpt><trkpt lat="42.4150383" lon="14.15207"><ele>16.0</ele><time>2026-05-03T11:12:59.539Z</time></trkpt><trkpt lat="42.4152283" lon="14.15208"><ele>16.0</ele><time>2026-05-03T11:13:00.539Z</time></trkpt><trkpt lat="42.4154117" lon="14.1520883"><ele>16.0</ele><time>2026-05-03T11:13:01.539Z</time></trkpt><trkpt lat="42.4156017" lon="14.1521083"><ele>16.0</ele><time>2026-05-03T11:13:02.539Z</time></trkpt><trkpt lat="42.4157917" lon="14.1521433"><ele>16.0</ele><time>2026-05-03T11:13:03.539Z</time></trkpt><trkpt lat="42.41597" lon="14.1521983"><ele>16.0</ele><time>2026-05-03T11:13:04.539Z</time></trkpt><trkpt lat="42.4161317" lon="14.152295"><ele>16.333333333333332</ele><time>2026-05-03T11:13:05.538Z</time></trkpt><trkpt lat="42.4162883" lon="14.1524167"><ele>16.666666666666668</ele><time>2026-05-03T11:13:06.539Z</time></trkpt><trkpt lat="42.4164367" lon="14.1525733"><ele>17.0</ele><time>2026-05-03T11:13:07.539Z</time></trkpt><trkpt lat="42.41658" lon="14.1527583"><ele>17.666666666666668</ele><time>2026-05-03T11:13:08.539Z</time></trkpt><trkpt lat="42.4167183" lon="14.1529583"><ele>18.333333333333332</ele><time>2026-05-03T11:13:09.538Z</time></trkpt><trkpt lat="42.4168667" lon="14.1531583"><ele>19.0</ele><time>2026-05-03T11:13:10.538Z</time></trkpt><trkpt lat="42.4170133" lon="14.1533533"><ele>19.666666666666664</ele><time>2026-05-03T11:13:11.538Z</time></trkpt><trkpt lat="42.41716" lon="14.1535483"><ele>20.333333333333332</ele><time>2026-05-03T11:13:12.538Z</time></trkpt><trkpt lat="42.4173033" lon="14.15375"><ele>21.0</ele><time>2026-05-03T11:13:13.539Z</time></trkpt><trkpt lat="42.41746" lon="14.15395"><ele>20.333333333333332</ele><time>2026-05-03T11:13:14.538Z</time></trkpt><trkpt lat="42.4176083" lon="14.154145"><ele>19.666666666666664</ele><time>2026-05-03T11:13:15.539Z</time></trkpt><trkpt lat="42.4177517" lon="14.1543467"><ele>19.0</ele><time>2026-05-03T11:13:16.538Z</time></trkpt><trkpt lat="42.4179033" lon="14.1545483"><ele>19.0</ele><time>2026-05-03T11:13:17.538Z</time></trkpt><trkpt lat="42.4180633" lon="14.1547483"><ele>19.0</ele><time>2026-05-03T11:13:18.539Z</time></trkpt><trkpt lat="42.4182267" lon="14.1549767"><ele>18.0</ele><time>2026-05-03T11:13:19.538Z</time></trkpt><trkpt lat="42.4183883" lon="14.1552117"><ele>17.0</ele><time>2026-05-03T11:13:20.538Z</time></trkpt><trkpt lat="42.4185667" lon="14.1554567"><ele>17.0</ele><time>2026-05-03T11:13:21.539Z</time></trkpt><trkpt lat="42.41874" lon="14.1557033"><ele>17.0</ele><time>2026-05-03T11:13:22.539Z</time></trkpt><trkpt lat="42.4189083" lon="14.15593"><ele>19.0</ele><time>2026-05-03T11:13:23.539Z</time></trkpt><trkpt lat="42.4190733" lon="14.156135"><ele>21.0</ele><time>2026-05-03T11:13:24.539Z</time></trkpt><trkpt lat="42.4192183" lon="14.1563"><ele>23.0</ele><time>2026-05-03T11:13:25.539Z</time></trkpt><trkpt lat="42.4193867" lon="14.1564367"><ele>22.0</ele><time>2026-05-03T11:13:26.538Z</time></trkpt><trkpt lat="42.4195733" lon="14.1565367"><ele>21.0</ele><time>2026-05-03T11:13:27.538Z</time></trkpt><trkpt lat="42.41978" lon="14.1566183"><ele>20.0</ele><time>2026-05-03T11:13:28.539Z</time></trkpt><trkpt lat="42.41999" lon="14.15669"><ele>20.0</ele><time>2026-05-03T11:13:29.539Z</time></trkpt><trkpt lat="42.4201967" lon="14.1567767"><ele>20.0</ele><time>2026-05-03T11:13:30.539Z</time></trkpt><trkpt lat="42.4203733" lon="14.1568433"><ele>20.0</ele><time>2026-05-03T11:13:31.538Z</time></trkpt><trkpt lat="42.4205383" lon="14.156905"><ele>20.25</ele><time>2026-05-03T11:13:32.539Z</time></trkpt><trkpt lat="42.4206933" lon="14.1569567"><ele>20.5</ele><time>2026-05-03T11:13:33.538Z</time></trkpt><trkpt lat="42.4208333" lon="14.1570167"><ele>20.75</ele><time>2026-05-03T11:13:34.538Z</time></trkpt><trkpt lat="42.4209533" lon="14.1570683"><ele>21.0</ele><time>2026-05-03T11:13:35.538Z</time></trkpt><trkpt lat="42.4210733" lon="14.1571167"><ele>21.0</ele><time>2026-05-03T11:13:36.539Z</time></trkpt><trkpt lat="42.4211967" lon="14.1571633"><ele>21.0</ele><time>2026-05-03T11:13:37.538Z</time></trkpt><trkpt lat="42.42132" lon="14.1572183"><ele>21.0</ele><time>2026-05-03T11:13:38.539Z</time></trkpt><trkpt lat="42.421435" lon="14.1572717"><ele>21.0</ele><time>2026-05-03T11:13:39.539Z</time></trkpt><trkpt lat="42.4215367" lon="14.15732"><ele>21.4</ele><time>2026-05-03T11:13:40.539Z</time></trkpt><trkpt lat="42.4216433" lon="14.1573617"><ele>21.8</ele><time>2026-05-03T11:13:41.539Z</time></trkpt><trkpt lat="42.4217467" lon="14.1574"><ele>22.2</ele><time>2026-05-03T11:13:42.538Z</time></trkpt><trkpt lat="42.4218417" lon="14.15742"><ele>22.599999999999998</ele><time>2026-05-03T11:13:43.538Z</time></trkpt><trkpt lat="42.4219317" lon="14.1574317"><ele>23.0</ele><time>2026-05-03T11:13:44.538Z</time></trkpt><trkpt lat="42.4220233" lon="14.1574267"><ele>22.4</ele><time>2026-05-03T11:13:45.539Z</time></trkpt><trkpt lat="42.422115" lon="14.1574167"><ele>21.799999999999997</ele><time>2026-05-03T11:13:46.538Z</time></trkpt><trkpt lat="42.4222117" lon="14.15743"><ele>21.2</ele><time>2026-05-03T11:13:47.538Z</time></trkpt><trkpt lat="42.422315" lon="14.157475"><ele>20.6</ele><time>2026-05-03T11:13:48.539Z</time></trkpt><trkpt lat="42.4224217" lon="14.1575317"><ele>20.0</ele><time>2026-05-03T11:13:49.539Z</time></trkpt><trkpt lat="42.4225367" lon="14.157585"><ele>20.0</ele><time>2026-05-03T11:13:50.538Z</time></trkpt><trkpt lat="42.4226483" lon="14.1576633"><ele>20.0</ele><time>2026-05-03T11:13:51.539Z</time></trkpt><trkpt lat="42.4227633" lon="14.1577433"><ele>20.0</ele><time>2026-05-03T11:13:52.538Z</time></trkpt><trkpt lat="42.4228767" lon="14.1578217"><ele>20.0</ele><time>2026-05-03T11:13:53.538Z</time></trkpt><trkpt lat="42.4229967" lon="14.15789"><ele>19.5</ele><time>2026-05-03T11:13:54.539Z</time></trkpt><trkpt lat="42.423135" lon="14.1579433"><ele>19.0</ele><time>2026-05-03T11:13:55.539Z</time></trkpt><trkpt lat="42.42327" lon="14.1579983"><ele>18.5</ele><time>2026-05-03T11:13:56.538Z</time></trkpt><trkpt lat="42.4234" lon="14.158055"><ele>18.0</ele><time>2026-05-03T11:13:57.539Z</time></trkpt><trkpt lat="42.4235267" lon="14.1581117"><ele>18.0</ele><time>2026-05-03T11:13:58.539Z</time></trkpt><trkpt lat="42.4236533" lon="14.15817"><ele>18.0</ele><time>2026-05-03T11:13:59.539Z</time></trkpt><trkpt lat="42.4237783" lon="14.1582383"><ele>18.0</ele><time>2026-05-03T11:14:00.539Z</time></trkpt><trkpt lat="42.4239033" lon="14.1582883"><ele>18.0</ele><time>2026-05-03T11:14:01.538Z</time></trkpt><trkpt lat="42.424025" lon="14.158335"><ele>17.75</ele><time>2026-05-03T11:14:02.539Z</time></trkpt><trkpt lat="42.4241483" lon="14.158385"><ele>17.5</ele><time>2026-05-03T11:14:03.539Z</time></trkpt><trkpt lat="42.42427" lon="14.15844"><ele>17.25</ele><time>2026-05-03T11:14:04.539Z</time></trkpt><trkpt lat="42.4244033" lon="14.1584933"><ele>17.0</ele><time>2026-05-03T11:14:05.539Z</time></trkpt><trkpt lat="42.4245333" lon="14.15856"><ele>17.333333333333336</ele><time>2026-05-03T11:14:06.539Z</time></trkpt><trkpt lat="42.42469" lon="14.15863"><ele>17.666666666666668</ele><time>2026-05-03T11:14:07.539Z</time></trkpt><trkpt lat="42.424855" lon="14.158705"><ele>18.0</ele><time>2026-05-03T11:14:08.538Z</time></trkpt><trkpt lat="42.4250083" lon="14.15877"><ele>18.0</ele><time>2026-05-03T11:14:09.539Z</time></trkpt><trkpt lat="42.4251333" lon="14.1588183"><ele>18.0</ele><time>2026-05-03T11:14:10.539Z</time></trkpt><trkpt lat="42.425245" lon="14.1588633"><ele>18.0</ele><time>2026-05-03T11:14:11.539Z</time></trkpt><trkpt lat="42.4253417" lon="14.15891"><ele>18.0</ele><time>2026-05-03T11:14:12.539Z</time></trkpt><trkpt lat="42.42544" lon="14.1589483"><ele>18.25</ele><time>2026-05-03T11:14:13.539Z</time></trkpt><trkpt lat="42.4255383" lon="14.1590017"><ele>18.5</ele><time>2026-05-03T11:14:14.538Z</time></trkpt><trkpt lat="42.4256483" lon="14.1590517"><ele>18.75</ele><time>2026-05-03T11:14:15.538Z</time></trkpt><trkpt lat="42.42576" lon="14.159105"><ele>19.0</ele><time>2026-05-03T11:14:16.539Z</time></trkpt><trkpt lat="42.4258883" lon="14.1591633"><ele>19.0</ele><time>2026-05-03T11:14:17.538Z</time></trkpt><trkpt lat="42.4260133" lon="14.1592283"><ele>19.0</ele><time>2026-05-03T11:14:18.538Z</time></trkpt><trkpt lat="42.4261567" lon="14.1593067"><ele>19.0</ele><time>2026-05-03T11:14:19.539Z</time></trkpt><trkpt lat="42.4263083" lon="14.1594067"><ele>19.333333333333332</ele><time>2026-05-03T11:14:20.539Z</time></trkpt><trkpt lat="42.4264717" lon="14.15953"><ele>19.666666666666668</ele><time>2026-05-03T11:14:21.538Z</time></trkpt><trkpt lat="42.42663" lon="14.159645"><ele>20.0</ele><time>2026-05-03T11:14:22.539Z</time></trkpt><trkpt lat="42.4267717" lon="14.15974"><ele>20.0</ele><time>2026-05-03T11:14:23.538Z</time></trkpt><trkpt lat="42.42689" lon="14.1598267"><ele>20.0</ele><time>2026-05-03T11:14:24.539Z</time></trkpt><trkpt lat="42.426995" lon="14.1599183"><ele>20.0</ele><time>2026-05-03T11:14:25.538Z</time></trkpt><trkpt lat="42.4271033" lon="14.1600133"><ele>20.0</ele><time>2026-05-03T11:14:26.539Z</time></trkpt><trkpt lat="42.427225" lon="14.1601333"><ele>19.333333333333336</ele><time>2026-05-03T11:14:27.539Z</time></trkpt><trkpt lat="42.4273683" lon="14.1602583"><ele>18.666666666666668</ele><time>2026-05-03T11:14:28.539Z</time></trkpt><trkpt lat="42.4275183" lon="14.160405"><ele>18.0</ele><time>2026-05-03T11:14:29.538Z</time></trkpt><trkpt lat="42.427685" lon="14.160545"><ele>18.0</ele><time>2026-05-03T11:14:30.539Z</time></trkpt><trkpt lat="42.4278417" lon="14.1607083"><ele>18.0</ele><time>2026-05-03T11:14:31.539Z</time></trkpt><trkpt lat="42.4280117" lon="14.1608733"><ele>18.0</ele><time>2026-05-03T11:14:32.539Z</time></trkpt><trkpt lat="42.4281883" lon="14.161045"><ele>17.5</ele><time>2026-05-03T11:14:33.538Z</time></trkpt><trkpt lat="42.4283683" lon="14.1612233"><ele>17.0</ele><time>2026-05-03T11:14:34.539Z</time></trkpt><trkpt lat="42.42856" lon="14.1613983"><ele>17.0</ele><time>2026-05-03T11:14:35.538Z</time></trkpt><trkpt lat="42.42874" lon="14.161565"><ele>17.0</ele><time>2026-05-03T11:14:36.539Z</time></trkpt><trkpt lat="42.4288933" lon="14.1617167"><ele>17.0</ele><time>2026-05-03T11:14:37.538Z</time></trkpt><trkpt lat="42.4290283" lon="14.1618533"><ele>20.333333333333336</ele><time>2026-05-03T11:14:38.539Z</time></trkpt><trkpt lat="42.4291517" lon="14.161985"><ele>23.666666666666668</ele><time>2026-05-03T11:14:39.539Z</time></trkpt><trkpt lat="42.4292733" lon="14.16211"><ele>27.0</ele><time>2026-05-03T11:14:40.539Z</time></trkpt><trkpt lat="42.42939" lon="14.1622333"><ele>27.0</ele><time>2026-05-03T11:14:41.539Z</time></trkpt><trkpt lat="42.42952" lon="14.162355"><ele>27.0</ele><time>2026-05-03T11:14:42.539Z</time></trkpt><trkpt lat="42.429645" lon="14.1624683"><ele>27.0</ele><time>2026-05-03T11:14:43.539Z</time></trkpt><trkpt lat="42.4297733" lon="14.1625633"><ele>25.0</ele><time>2026-05-03T11:14:44.538Z</time></trkpt><trkpt lat="42.4299133" lon="14.1626433"><ele>23.0</ele><time>2026-05-03T11:14:45.538Z</time></trkpt><trkpt lat="42.4300683" lon="14.1627217"><ele>21.0</ele><time>2026-05-03T11:14:46.539Z</time></trkpt><trkpt lat="42.430235" lon="14.1627733"><ele>21.0</ele><time>2026-05-03T11:14:47.538Z</time></trkpt><trkpt lat="42.4303983" lon="14.1627983"><ele>21.0</ele><time>2026-05-03T11:14:48.538Z</time></trkpt><trkpt lat="42.4305483" lon="14.162805"><ele>21.0</ele><time>2026-05-03T11:14:49.539Z</time></trkpt><trkpt lat="42.4306967" lon="14.1628133"><ele>21.333333333333332</ele><time>2026-05-03T11:14:50.539Z</time></trkpt><trkpt lat="42.4308567" lon="14.1628367"><ele>21.666666666666664</ele><time>2026-05-03T11:14:51.539Z</time></trkpt><trkpt lat="42.4310267" lon="14.16287"><ele>22.0</ele><time>2026-05-03T11:14:52.539Z</time></trkpt><trkpt lat="42.43117" lon="14.162895"><ele>22.0</ele><time>2026-05-03T11:14:53.538Z</time></trkpt><trkpt lat="42.4312933" lon="14.1629217"><ele>22.0</ele><time>2026-05-03T11:14:54.538Z</time></trkpt><trkpt lat="42.4313817" lon="14.1629283"><ele>22.0</ele><time>2026-05-03T11:14:55.538Z</time></trkpt><trkpt lat="42.4314667" lon="14.1629183"><ele>22.0</ele><time>2026-05-03T11:14:57.538Z</time></trkpt><trkpt lat="42.431415" lon="14.16284"><ele>22.0</ele><time>2026-05-03T11:15:00.539Z</time></trkpt><trkpt lat="42.43134" lon="14.1628067"><ele>22.0</ele><time>2026-05-03T11:15:03.539Z</time></trkpt><trkpt lat="42.4312617" lon="14.162835"><ele>22.0</ele><time>2026-05-03T11:15:06.538Z</time></trkpt><trkpt lat="42.4311917" lon="14.1628367"><ele>22.0</ele><time>2026-05-03T11:15:08.538Z</time></trkpt><trkpt lat="42.4311267" lon="14.1628317"><ele>22.0</ele><time>2026-05-03T11:15:09.539Z</time></trkpt><trkpt lat="42.4310333" lon="14.16283"><ele>22.0</ele><time>2026-05-03T11:15:10.538Z</time></trkpt><trkpt lat="42.4309233" lon="14.1628167"><ele>22.0</ele><time>2026-05-03T11:15:11.539Z</time></trkpt><trkpt lat="42.4308" lon="14.1628033"><ele>22.0</ele><time>2026-05-03T11:15:12.539Z</time></trkpt><trkpt lat="42.43069" lon="14.1627867"><ele>22.0</ele><time>2026-05-03T11:15:13.539Z</time></trkpt><trkpt lat="42.430605" lon="14.1627467"><ele>22.0</ele><time>2026-05-03T11:15:14.539Z</time></trkpt><trkpt lat="42.430515" lon="14.1626833"><ele>22.0</ele><time>2026-05-03T11:15:15.538Z</time></trkpt><trkpt lat="42.4304367" lon="14.1625983"><ele>22.0</ele><time>2026-05-03T11:15:16.539Z</time></trkpt><trkpt lat="42.4303733" lon="14.1625217"><ele>21.833333333333332</ele><time>2026-05-03T11:15:17.538Z</time></trkpt><trkpt lat="42.4303383" lon="14.16244"><ele>21.666666666666664</ele><time>2026-05-03T11:15:18.539Z</time></trkpt><trkpt lat="42.430335" lon="14.1623467"><ele>21.5</ele><time>2026-05-03T11:15:19.539Z</time></trkpt><trkpt lat="42.4303583" lon="14.1622483"><ele>21.333333333333332</ele><time>2026-05-03T11:15:20.539Z</time></trkpt><trkpt lat="42.4304067" lon="14.1621333"><ele>21.166666666666668</ele><time>2026-05-03T11:15:21.539Z</time></trkpt><trkpt lat="42.43046" lon="14.162"><ele>21.0</ele><time>2026-05-03T11:15:22.539Z</time></trkpt><trkpt lat="42.430535" lon="14.1618333"><ele>21.5</ele><time>2026-05-03T11:15:23.539Z</time></trkpt><trkpt lat="42.4306083" lon="14.161655"><ele>22.0</ele><time>2026-05-03T11:15:24.539Z</time></trkpt><trkpt lat="42.43068" lon="14.161485"><ele>22.5</ele><time>2026-05-03T11:15:25.539Z</time></trkpt><trkpt lat="42.4307317" lon="14.1613233"><ele>23.0</ele><time>2026-05-03T11:15:26.539Z</time></trkpt><trkpt lat="42.4307833" lon="14.1612017"><ele>23.799999999999997</ele><time>2026-05-03T11:15:27.539Z</time></trkpt><trkpt lat="42.4308283" lon="14.1610983"><ele>24.6</ele><time>2026-05-03T11:15:28.539Z</time></trkpt><trkpt lat="42.4308733" lon="14.1610033"><ele>25.400000000000002</ele><time>2026-05-03T11:15:29.539Z</time></trkpt><trkpt lat="42.4309183" lon="14.1608983"><ele>26.200000000000003</ele><time>2026-05-03T11:15:30.539Z</time></trkpt><trkpt lat="42.4309717" lon="14.1607717"><ele>27.0</ele><time>2026-05-03T11:15:31.538Z</time></trkpt><trkpt lat="42.4310467" lon="14.1606167"><ele>27.0</ele><time>2026-05-03T11:15:32.539Z</time></trkpt><trkpt lat="42.4311283" lon="14.16044"><ele>27.0</ele><time>2026-05-03T11:15:33.539Z</time></trkpt><trkpt lat="42.4312183" lon="14.1602433"><ele>27.0</ele><time>2026-05-03T11:15:34.539Z</time></trkpt><trkpt lat="42.43131" lon="14.160035"><ele>28.666666666666664</ele><time>2026-05-03T11:15:35.538Z</time></trkpt><trkpt lat="42.4314" lon="14.1598183"><ele>30.333333333333332</ele><time>2026-05-03T11:15:36.539Z</time></trkpt><trkpt lat="42.4314917" lon="14.159595"><ele>32.0</ele><time>2026-05-03T11:15:37.539Z</time></trkpt><trkpt lat="42.4315817" lon="14.1593717"><ele>32.0</ele><time>2026-05-03T11:15:38.538Z</time></trkpt><trkpt lat="42.4316783" lon="14.1591517"><ele>32.0</ele><time>2026-05-03T11:15:39.539Z</time></trkpt><trkpt lat="42.4317683" lon="14.15893"><ele>32.0</ele><time>2026-05-03T11:15:40.539Z</time></trkpt><trkpt lat="42.4318517" lon="14.1587267"><ele>32.25</ele><time>2026-05-03T11:15:41.539Z</time></trkpt><trkpt lat="42.431925" lon="14.1585433"><ele>32.5</ele><time>2026-05-03T11:15:42.538Z</time></trkpt><trkpt lat="42.431995" lon="14.1583733"><ele>32.75</ele><time>2026-05-03T11:15:43.538Z</time></trkpt><trkpt lat="42.4320633" lon="14.1582033"><ele>33.0</ele><time>2026-05-03T11:15:44.538Z</time></trkpt><trkpt lat="42.4321417" lon="14.15802"><ele>35.666666666666664</ele><time>2026-05-03T11:15:45.539Z</time></trkpt><trkpt lat="42.4322233" lon="14.1578317"><ele>38.33333333333333</ele><time>2026-05-03T11:15:46.539Z</time></trkpt><trkpt lat="42.4323167" lon="14.1576367"><ele>41.0</ele><time>2026-05-03T11:15:47.538Z</time></trkpt><trkpt lat="42.4324133" lon="14.15746"><ele>42.33333333333333</ele><time>2026-05-03T11:15:48.539Z</time></trkpt><trkpt lat="42.4325183" lon="14.1572967"><ele>43.666666666666664</ele><time>2026-05-03T11:15:49.538Z</time></trkpt><trkpt lat="42.43264" lon="14.157165"><ele>45.0</ele><time>2026-05-03T11:15:50.539Z</time></trkpt><trkpt lat="42.4327667" lon="14.1570333"><ele>45.0</ele><time>2026-05-03T11:15:51.537Z</time></trkpt><trkpt lat="42.4329" lon="14.15691"><ele>45.0</ele><time>2026-05-03T11:15:52.537Z</time></trkpt><trkpt lat="42.4330467" lon="14.1567817"><ele>45.0</ele><time>2026-05-03T11:15:53.537Z</time></trkpt><trkpt lat="42.4331983" lon="14.156655"><ele>47.33333333333333</ele><time>2026-05-03T11:15:54.538Z</time></trkpt><trkpt lat="42.4333633" lon="14.1565233"><ele>49.666666666666664</ele><time>2026-05-03T11:15:55.538Z</time></trkpt><trkpt lat="42.4335433" lon="14.1563833"><ele>52.0</ele><time>2026-05-03T11:15:56.538Z</time></trkpt><trkpt lat="42.433745" lon="14.1562383"><ele>53.0</ele><time>2026-05-03T11:15:57.537Z</time></trkpt><trkpt lat="42.4339683" lon="14.15607"><ele>54.0</ele><time>2026-05-03T11:15:58.538Z</time></trkpt><trkpt lat="42.434225" lon="14.1558717"><ele>54.5</ele><time>2026-05-03T11:15:59.538Z</time></trkpt><trkpt lat="42.4344983" lon="14.1556617"><ele>55.0</ele><time>2026-05-03T11:16:00.538Z</time></trkpt><trkpt lat="42.4347833" lon="14.1554467"><ele>57.0</ele><time>2026-05-03T11:16:01.538Z</time></trkpt><trkpt lat="42.4350617" lon="14.15524"><ele>59.0</ele><time>2026-05-03T11:16:02.538Z</time></trkpt><trkpt lat="42.4353183" lon="14.1550533"><ele>58.5</ele><time>2026-05-03T11:16:03.537Z</time></trkpt><trkpt lat="42.43555" lon="14.154885"><ele>58.0</ele><time>2026-05-03T11:16:04.538Z</time></trkpt><trkpt lat="42.43577" lon="14.154715"><ele>60.5</ele><time>2026-05-03T11:16:05.537Z</time></trkpt><trkpt lat="42.43598" lon="14.15455"><ele>63.0</ele><time>2026-05-03T11:16:06.538Z</time></trkpt><trkpt lat="42.43618" lon="14.1543867"><ele>63.5</ele><time>2026-05-03T11:16:07.538Z</time></trkpt><trkpt lat="42.4363817" lon="14.1542133"><ele>64.0</ele><time>2026-05-03T11:16:08.538Z</time></trkpt><trkpt lat="42.436585" lon="14.15404"><ele>67.0</ele><time>2026-05-03T11:16:09.538Z</time></trkpt><trkpt lat="42.4367817" lon="14.1538683"><ele>70.0</ele><time>2026-05-03T11:16:10.538Z</time></trkpt><trkpt lat="42.4369733" lon="14.1537033"><ele>69.66666666666666</ele><time>2026-05-03T11:16:11.538Z</time></trkpt><trkpt lat="42.4371533" lon="14.15355"><ele>69.33333333333333</ele><time>2026-05-03T11:16:12.538Z</time></trkpt><trkpt lat="42.4373317" lon="14.1534133"><ele>69.0</ele><time>2026-05-03T11:16:13.538Z</time></trkpt><trkpt lat="42.43751" lon="14.1533067"><ele>69.0</ele><time>2026-05-03T11:16:14.537Z</time></trkpt><trkpt lat="42.4376883" lon="14.1532383"><ele>69.0</ele><time>2026-05-03T11:16:15.538Z</time></trkpt><trkpt lat="42.4378867" lon="14.1531833"><ele>69.0</ele><time>2026-05-03T11:16:16.538Z</time></trkpt><trkpt lat="42.4380833" lon="14.1531133"><ele>67.0</ele><time>2026-05-03T11:16:17.538Z</time></trkpt><trkpt lat="42.4382667" lon="14.1530317"><ele>65.0</ele><time>2026-05-03T11:16:18.538Z</time></trkpt><trkpt lat="42.4384317" lon="14.152925"><ele>63.0</ele><time>2026-05-03T11:16:19.537Z</time></trkpt><trkpt lat="42.4385917" lon="14.15279"><ele>63.0</ele><time>2026-05-03T11:16:20.538Z</time></trkpt><trkpt lat="42.4387467" lon="14.152615"><ele>63.0</ele><time>2026-05-03T11:16:21.537Z</time></trkpt><trkpt lat="42.4389033" lon="14.15241"><ele>63.0</ele><time>2026-05-03T11:16:22.537Z</time></trkpt><trkpt lat="42.4390617" lon="14.15219"><ele>66.33333333333333</ele><time>2026-05-03T11:16:23.538Z</time></trkpt><trkpt lat="42.4392067" lon="14.1519833"><ele>69.66666666666666</ele><time>2026-05-03T11:16:24.537Z</time></trkpt><trkpt lat="42.43935" lon="14.1518067"><ele>73.0</ele><time>2026-05-03T11:16:25.537Z</time></trkpt><trkpt lat="42.439505" lon="14.1516683"><ele>74.0</ele><time>2026-05-03T11:16:26.538Z</time></trkpt><trkpt lat="42.439675" lon="14.1515433"><ele>75.0</ele><time>2026-05-03T11:16:27.538Z</time></trkpt><trkpt lat="42.4398617" lon="14.1514383"><ele>76.0</ele><time>2026-05-03T11:16:28.538Z</time></trkpt><trkpt lat="42.4400667" lon="14.1513383"><ele>76.0</ele><time>2026-05-03T11:16:29.538Z</time></trkpt><trkpt lat="42.44027" lon="14.1512167"><ele>76.0</ele><time>2026-05-03T11:16:30.538Z</time></trkpt><trkpt lat="42.4404483" lon="14.1510933"><ele>76.0</ele><time>2026-05-03T11:16:31.538Z</time></trkpt><trkpt lat="42.4406217" lon="14.150975"><ele>80.0</ele><time>2026-05-03T11:16:32.538Z</time></trkpt><trkpt lat="42.440795" lon="14.1508717"><ele>84.0</ele><time>2026-05-03T11:16:33.537Z</time></trkpt><trkpt lat="42.4409483" lon="14.15082"><ele>88.0</ele><time>2026-05-03T11:16:34.538Z</time></trkpt><trkpt lat="42.4410933" lon="14.1507983"><ele>88.0</ele><time>2026-05-03T11:16:35.538Z</time></trkpt><trkpt lat="42.4412433" lon="14.15082"><ele>88.0</ele><time>2026-05-03T11:16:36.538Z</time></trkpt><trkpt lat="42.4414017" lon="14.150875"><ele>88.0</ele><time>2026-05-03T11:16:37.538Z</time></trkpt><trkpt lat="42.441575" lon="14.1509367"><ele>89.0</ele><time>2026-05-03T11:16:38.538Z</time></trkpt><trkpt lat="42.4417483" lon="14.1509583"><ele>90.0</ele><time>2026-05-03T11:16:39.538Z</time></trkpt><trkpt lat="42.4419117" lon="14.1509383"><ele>91.0</ele><time>2026-05-03T11:16:40.538Z</time></trkpt><trkpt lat="42.44206" lon="14.1508883"><ele>91.75</ele><time>2026-05-03T11:16:41.538Z</time></trkpt><trkpt lat="42.442185" lon="14.15082"><ele>92.5</ele><time>2026-05-03T11:16:42.538Z</time></trkpt><trkpt lat="42.4422933" lon="14.1507183"><ele>93.25</ele><time>2026-05-03T11:16:43.538Z</time></trkpt><trkpt lat="42.442365" lon="14.1505817"><ele>94.0</ele><time>2026-05-03T11:16:44.537Z</time></trkpt><trkpt lat="42.442405" lon="14.1504117"><ele>94.0</ele><time>2026-05-03T11:16:45.537Z</time></trkpt><trkpt lat="42.4424367" lon="14.150215"><ele>94.0</ele><time>2026-05-03T11:16:46.538Z</time></trkpt><trkpt lat="42.4424817" lon="14.1499983"><ele>94.0</ele><time>2026-05-03T11:16:47.538Z</time></trkpt><trkpt lat="42.4425317" lon="14.1497683"><ele>95.33333333333333</ele><time>2026-05-03T11:16:48.538Z</time></trkpt><trkpt lat="42.4425933" lon="14.14952"><ele>96.66666666666666</ele><time>2026-05-03T11:16:49.538Z</time></trkpt><trkpt lat="42.4426717" lon="14.1492717"><ele>98.0</ele><time>2026-05-03T11:16:50.538Z</time></trkpt><trkpt lat="42.44276" lon="14.14902"><ele>100.0</ele><time>2026-05-03T11:16:51.538Z</time></trkpt><trkpt lat="42.4428633" lon="14.1487883"><ele>102.0</ele><time>2026-05-03T11:16:52.538Z</time></trkpt><trkpt lat="42.4429783" lon="14.1485767"><ele>104.0</ele><time>2026-05-03T11:16:53.538Z</time></trkpt><trkpt lat="42.44311" lon="14.1483717"><ele>109.0</ele><time>2026-05-03T11:16:54.538Z</time></trkpt><trkpt lat="42.4432467" lon="14.1481817"><ele>114.0</ele><time>2026-05-03T11:16:55.537Z</time></trkpt><trkpt lat="42.4433883" lon="14.14799"><ele>119.0</ele><time>2026-05-03T11:16:56.537Z</time></trkpt><trkpt lat="42.44353" lon="14.1478083"><ele>119.0</ele><time>2026-05-03T11:16:57.538Z</time></trkpt><trkpt lat="42.443665" lon="14.1476617"><ele>119.0</ele><time>2026-05-03T11:16:58.537Z</time></trkpt><trkpt lat="42.4438017" lon="14.1475667"><ele>119.0</ele><time>2026-05-03T11:16:59.537Z</time></trkpt><trkpt lat="42.44394" lon="14.1475017"><ele>117.75</ele><time>2026-05-03T11:17:00.538Z</time></trkpt><trkpt lat="42.4440917" lon="14.1474533"><ele>116.5</ele><time>2026-05-03T11:17:01.537Z</time></trkpt><trkpt lat="42.4442433" lon="14.1474067"><ele>115.25</ele><time>2026-05-03T11:17:02.538Z</time></trkpt><trkpt lat="42.4443717" lon="14.1473467"><ele>114.0</ele><time>2026-05-03T11:17:03.538Z</time></trkpt><trkpt lat="42.444465" lon="14.1472533"><ele>115.4</ele><time>2026-05-03T11:17:04.537Z</time></trkpt><trkpt lat="42.4445333" lon="14.1471367"><ele>116.80000000000001</ele><time>2026-05-03T11:17:05.537Z</time></trkpt><trkpt lat="42.444585" lon="14.1470033"><ele>118.19999999999999</ele><time>2026-05-03T11:17:06.537Z</time></trkpt><trkpt lat="42.444635" lon="14.1468783"><ele>119.6</ele><time>2026-05-03T11:17:07.537Z</time></trkpt><trkpt lat="42.4446983" lon="14.1467567"><ele>121.0</ele><time>2026-05-03T11:17:08.538Z</time></trkpt><trkpt lat="42.4447883" lon="14.1466233"><ele>122.66666666666667</ele><time>2026-05-03T11:17:09.537Z</time></trkpt><trkpt lat="42.4448867" lon="14.14646"><ele>124.33333333333334</ele><time>2026-05-03T11:17:10.537Z</time></trkpt><trkpt lat="42.44499" lon="14.1462683"><ele>126.0</ele><time>2026-05-03T11:17:11.538Z</time></trkpt><trkpt lat="42.4451133" lon="14.1460633"><ele>126.0</ele><time>2026-05-03T11:17:12.538Z</time></trkpt><trkpt lat="42.4452283" lon="14.1458617"><ele>126.0</ele><time>2026-05-03T11:17:13.538Z</time></trkpt><trkpt lat="42.4453383" lon="14.145655"><ele>126.0</ele><time>2026-05-03T11:17:14.538Z</time></trkpt><trkpt lat="42.4454467" lon="14.1454683"><ele>124.0</ele><time>2026-05-03T11:17:15.537Z</time></trkpt><trkpt lat="42.4455817" lon="14.1453117"><ele>122.0</ele><time>2026-05-03T11:17:16.537Z</time></trkpt><trkpt lat="42.44573" lon="14.145165"><ele>120.0</ele><time>2026-05-03T11:17:17.538Z</time></trkpt><trkpt lat="42.44589" lon="14.145035"><ele>120.0</ele><time>2026-05-03T11:17:18.538Z</time></trkpt><trkpt lat="42.44606" lon="14.1449017"><ele>120.0</ele><time>2026-05-03T11:17:19.537Z</time></trkpt><trkpt lat="42.4462483" lon="14.1447867"><ele>120.0</ele><time>2026-05-03T11:17:20.537Z</time></trkpt><trkpt lat="42.4464433" lon="14.1447033"><ele>120.33333333333334</ele><time>2026-05-03T11:17:21.538Z</time></trkpt><trkpt lat="42.4466383" lon="14.14464"><ele>120.66666666666667</ele><time>2026-05-03T11:17:22.538Z</time></trkpt><trkpt lat="42.446835" lon="14.1445867"><ele>121.0</ele><time>2026-05-03T11:17:23.538Z</time></trkpt><trkpt lat="42.4470167" lon="14.1445433"><ele>122.25</ele><time>2026-05-03T11:17:24.538Z</time></trkpt><trkpt lat="42.447165" lon="14.144515"><ele>123.5</ele><time>2026-05-03T11:17:25.538Z</time></trkpt><trkpt lat="42.4472983" lon="14.144505"><ele>124.75</ele><time>2026-05-03T11:17:26.538Z</time></trkpt><trkpt lat="42.4474117" lon="14.1445433"><ele>126.0</ele><time>2026-05-03T11:17:27.538Z</time></trkpt><trkpt lat="42.447495" lon="14.144625"><ele>126.0</ele><time>2026-05-03T11:17:28.538Z</time></trkpt><trkpt lat="42.4475617" lon="14.14474"><ele>126.0</ele><time>2026-05-03T11:17:29.538Z</time></trkpt><trkpt lat="42.4476" lon="14.1449033"><ele>126.0</ele><time>2026-05-03T11:17:30.538Z</time></trkpt><trkpt lat="42.4476067" lon="14.1450983"><ele>126.0</ele><time>2026-05-03T11:17:31.538Z</time></trkpt><trkpt lat="42.4476117" lon="14.1453167"><ele>126.25</ele><time>2026-05-03T11:17:32.537Z</time></trkpt><trkpt lat="42.44762" lon="14.1455133"><ele>126.5</ele><time>2026-05-03T11:17:33.538Z</time></trkpt><trkpt lat="42.4476333" lon="14.1456733"><ele>126.75</ele><time>2026-05-03T11:17:34.538Z</time></trkpt><trkpt lat="42.4476933" lon="14.145835"><ele>127.0</ele><time>2026-05-03T11:17:35.538Z</time></trkpt><trkpt lat="42.44778" lon="14.14599"><ele>127.66666666666667</ele><time>2026-05-03T11:17:36.537Z</time></trkpt><trkpt lat="42.4479033" lon="14.1461267"><ele>128.33333333333334</ele><time>2026-05-03T11:17:37.538Z</time></trkpt><trkpt lat="42.44805" lon="14.1462383"><ele>129.0</ele><time>2026-05-03T11:17:38.537Z</time></trkpt><trkpt lat="42.44822" lon="14.146335"><ele>133.33333333333334</ele><time>2026-05-03T11:17:39.538Z</time></trkpt><trkpt lat="42.4484" lon="14.146405"><ele>137.66666666666669</ele><time>2026-05-03T11:17:40.538Z</time></trkpt><trkpt lat="42.4485883" lon="14.14644"><ele>142.0</ele><time>2026-05-03T11:17:41.537Z</time></trkpt><trkpt lat="42.4487633" lon="14.1464267"><ele>142.66666666666669</ele><time>2026-05-03T11:17:42.538Z</time></trkpt><trkpt lat="42.4489083" lon="14.1463717"><ele>143.33333333333334</ele><time>2026-05-03T11:17:43.537Z</time></trkpt><trkpt lat="42.4490467" lon="14.1462633"><ele>144.0</ele><time>2026-05-03T11:17:44.538Z</time></trkpt><trkpt lat="42.4491583" lon="14.1461233"><ele>144.0</ele><time>2026-05-03T11:17:45.538Z</time></trkpt><trkpt lat="42.44927" lon="14.1459617"><ele>144.0</ele><time>2026-05-03T11:17:46.538Z</time></trkpt><trkpt lat="42.449355" lon="14.14581"><ele>144.0</ele><time>2026-05-03T11:17:47.538Z</time></trkpt><trkpt lat="42.449415" lon="14.14569"><ele>144.0</ele><time>2026-05-03T11:17:48.537Z</time></trkpt><trkpt lat="42.449465" lon="14.1455817"><ele>142.4</ele><time>2026-05-03T11:17:49.537Z</time></trkpt><trkpt lat="42.4495183" lon="14.1454783"><ele>140.8</ele><time>2026-05-03T11:17:50.537Z</time></trkpt><trkpt lat="42.4495733" lon="14.145365"><ele>139.2</ele><time>2026-05-03T11:17:51.538Z</time></trkpt><trkpt lat="42.4496367" lon="14.1452367"><ele>137.6</ele><time>2026-05-03T11:17:52.537Z</time></trkpt><trkpt lat="42.44969" lon="14.1451033"><ele>136.0</ele><time>2026-05-03T11:17:53.538Z</time></trkpt><trkpt lat="42.4497433" lon="14.1449633"><ele>137.5</ele><time>2026-05-03T11:17:54.537Z</time></trkpt><trkpt lat="42.4497917" lon="14.14481"><ele>139.0</ele><time>2026-05-03T11:17:55.538Z</time></trkpt><trkpt lat="42.4498433" lon="14.1446533"><ele>140.5</ele><time>2026-05-03T11:17:56.538Z</time></trkpt><trkpt lat="42.4498883" lon="14.1444917"><ele>142.0</ele><time>2026-05-03T11:17:57.538Z</time></trkpt><trkpt lat="42.4499267" lon="14.144325"><ele>142.0</ele><time>2026-05-03T11:17:58.538Z</time></trkpt><trkpt lat="42.449945" lon="14.1441667"><ele>142.0</ele><time>2026-05-03T11:17:59.538Z</time></trkpt><trkpt lat="42.449945" lon="14.1440083"><ele>142.0</ele><time>2026-05-03T11:18:00.538Z</time></trkpt><trkpt lat="42.4499417" lon="14.1438467"><ele>142.0</ele><time>2026-05-03T11:18:01.537Z</time></trkpt><trkpt lat="42.4499383" lon="14.1436767"><ele>141.0</ele><time>2026-05-03T11:18:02.537Z</time></trkpt><trkpt lat="42.449925" lon="14.1435017"><ele>140.0</ele><time>2026-05-03T11:18:03.538Z</time></trkpt><trkpt lat="42.4499033" lon="14.1433217"><ele>139.0</ele><time>2026-05-03T11:18:04.538Z</time></trkpt><trkpt lat="42.44988" lon="14.1431517"><ele>138.0</ele><time>2026-05-03T11:18:05.538Z</time></trkpt><trkpt lat="42.44985" lon="14.1429767"><ele>137.75</ele><time>2026-05-03T11:18:06.538Z</time></trkpt><trkpt lat="42.4498067" lon="14.14281"><ele>137.5</ele><time>2026-05-03T11:18:07.538Z</time></trkpt><trkpt lat="42.4497583" lon="14.1426383"><ele>137.25</ele><time>2026-05-03T11:18:08.538Z</time></trkpt><trkpt lat="42.449705" lon="14.1424883"><ele>137.0</ele><time>2026-05-03T11:18:09.537Z</time></trkpt><trkpt lat="42.4496533" lon="14.1423567"><ele>139.2</ele><time>2026-05-03T11:18:10.537Z</time></trkpt><trkpt lat="42.449605" lon="14.142225"><ele>141.39999999999998</ele><time>2026-05-03T11:18:11.538Z</time></trkpt><trkpt lat="42.4495717" lon="14.1421083"><ele>143.60000000000002</ele><time>2026-05-03T11:18:12.538Z</time></trkpt><trkpt lat="42.449555" lon="14.141985"><ele>145.8</ele><time>2026-05-03T11:18:13.538Z</time></trkpt><trkpt lat="42.4495633" lon="14.141875"><ele>148.0</ele><time>2026-05-03T11:18:14.538Z</time></trkpt><trkpt lat="42.4496067" lon="14.1417817"><ele>147.25</ele><time>2026-05-03T11:18:15.537Z</time></trkpt><trkpt lat="42.4496783" lon="14.141695"><ele>146.5</ele><time>2026-05-03T11:18:16.538Z</time></trkpt><trkpt lat="42.4497733" lon="14.14162"><ele>145.75</ele><time>2026-05-03T11:18:17.538Z</time></trkpt><trkpt lat="42.449895" lon="14.141535"><ele>145.0</ele><time>2026-05-03T11:18:18.537Z</time></trkpt><trkpt lat="42.4500233" lon="14.141455"><ele>145.0</ele><time>2026-05-03T11:18:19.537Z</time></trkpt><trkpt lat="42.45016" lon="14.14138"><ele>145.0</ele><time>2026-05-03T11:18:20.538Z</time></trkpt><trkpt lat="42.4503033" lon="14.1413017"><ele>145.0</ele><time>2026-05-03T11:18:21.537Z</time></trkpt><trkpt lat="42.450455" lon="14.141235"><ele>146.66666666666669</ele><time>2026-05-03T11:18:22.538Z</time></trkpt><trkpt lat="42.4506067" lon="14.1411817"><ele>148.33333333333334</ele><time>2026-05-03T11:18:23.538Z</time></trkpt><trkpt lat="42.4507667" lon="14.1411417"><ele>150.0</ele><time>2026-05-03T11:18:24.538Z</time></trkpt><trkpt lat="42.4509467" lon="14.1410933"><ele>150.0</ele><time>2026-05-03T11:18:25.538Z</time></trkpt><trkpt lat="42.4511233" lon="14.14103"><ele>150.0</ele><time>2026-05-03T11:18:26.538Z</time></trkpt><trkpt lat="42.451305" lon="14.1409733"><ele>150.0</ele><time>2026-05-03T11:18:27.538Z</time></trkpt><trkpt lat="42.4514833" lon="14.1409283"><ele>150.5</ele><time>2026-05-03T11:18:28.538Z</time></trkpt><trkpt lat="42.451645" lon="14.14089"><ele>151.0</ele><time>2026-05-03T11:18:29.537Z</time></trkpt><trkpt lat="42.4517867" lon="14.1408567"><ele>151.5</ele><time>2026-05-03T11:18:30.538Z</time></trkpt><trkpt lat="42.4519083" lon="14.140835"><ele>152.0</ele><time>2026-05-03T11:18:31.538Z</time></trkpt><trkpt lat="42.4520367" lon="14.1408117"><ele>152.0</ele><time>2026-05-03T11:18:32.538Z</time></trkpt><trkpt lat="42.4521817" lon="14.1407867"><ele>152.0</ele><time>2026-05-03T11:18:33.538Z</time></trkpt><trkpt lat="42.4523183" lon="14.140755"><ele>152.0</ele><time>2026-05-03T11:18:34.538Z</time></trkpt><trkpt lat="42.4524583" lon="14.14073"><ele>152.0</ele><time>2026-05-03T11:18:35.537Z</time></trkpt><trkpt lat="42.4525833" lon="14.1407033"><ele>152.0</ele><time>2026-05-03T11:18:36.538Z</time></trkpt><trkpt lat="42.4527167" lon="14.1406717"><ele>152.0</ele><time>2026-05-03T11:18:37.538Z</time></trkpt><trkpt lat="42.4528417" lon="14.14064"><ele>152.0</ele><time>2026-05-03T11:18:38.537Z</time></trkpt><trkpt lat="42.452935" lon="14.1406017"><ele>152.0</ele><time>2026-05-03T11:18:39.538Z</time></trkpt><trkpt lat="42.4530183" lon="14.140575"><ele>152.0</ele><time>2026-05-03T11:18:40.537Z</time></trkpt><trkpt lat="42.453105" lon="14.1405417"><ele>156.25</ele><time>2026-05-03T11:18:41.538Z</time></trkpt><trkpt lat="42.4532083" lon="14.1404883"><ele>160.5</ele><time>2026-05-03T11:18:42.538Z</time></trkpt><trkpt lat="42.4533167" lon="14.140425"><ele>164.75</ele><time>2026-05-03T11:18:43.538Z</time></trkpt><trkpt lat="42.453425" lon="14.1403633"><ele>169.0</ele><time>2026-05-03T11:18:44.538Z</time></trkpt><trkpt lat="42.4535317" lon="14.140305"><ele>169.0</ele><time>2026-05-03T11:18:45.538Z</time></trkpt><trkpt lat="42.4536317" lon="14.1402467"><ele>169.0</ele><time>2026-05-03T11:18:46.537Z</time></trkpt><trkpt lat="42.4537283" lon="14.14018"><ele>169.0</ele><time>2026-05-03T11:18:47.538Z</time></trkpt><trkpt lat="42.45382" lon="14.1401033"><ele>169.0</ele><time>2026-05-03T11:18:48.538Z</time></trkpt><trkpt lat="42.4539" lon="14.140005"><ele>169.0</ele><time>2026-05-03T11:18:49.537Z</time></trkpt><trkpt lat="42.4539733" lon="14.1398867"><ele>170.25</ele><time>2026-05-03T11:18:50.538Z</time></trkpt><trkpt lat="42.454045" lon="14.1397683"><ele>171.5</ele><time>2026-05-03T11:18:51.538Z</time></trkpt><trkpt lat="42.4541017" lon="14.139635"><ele>172.75</ele><time>2026-05-03T11:18:52.537Z</time></trkpt><trkpt lat="42.45417" lon="14.1395017"><ele>174.0</ele><time>2026-05-03T11:18:53.538Z</time></trkpt><trkpt lat="42.4542333" lon="14.1393683"><ele>174.0</ele><time>2026-05-03T11:18:54.538Z</time></trkpt><trkpt lat="42.4543067" lon="14.13923"><ele>174.0</ele><time>2026-05-03T11:18:55.537Z</time></trkpt><trkpt lat="42.4543717" lon="14.1391017"><ele>174.0</ele><time>2026-05-03T11:18:56.538Z</time></trkpt><trkpt lat="42.4544433" lon="14.1389683"><ele>174.0</ele><time>2026-05-03T11:18:57.537Z</time></trkpt><trkpt lat="42.4545167" lon="14.138835"><ele>173.75</ele><time>2026-05-03T11:18:58.538Z</time></trkpt><trkpt lat="42.4546" lon="14.1387017"><ele>173.5</ele><time>2026-05-03T11:18:59.538Z</time></trkpt><trkpt lat="42.4546817" lon="14.138565"><ele>173.25</ele><time>2026-05-03T11:19:00.538Z</time></trkpt><trkpt lat="42.454765" lon="14.1384217"><ele>173.0</ele><time>2026-05-03T11:19:01.537Z</time></trkpt><trkpt lat="42.4548517" lon="14.1382733"><ele>172.25</ele><time>2026-05-03T11:19:02.538Z</time></trkpt><trkpt lat="42.4549433" lon="14.1381183"><ele>171.5</ele><time>2026-05-03T11:19:03.537Z</time></trkpt><trkpt lat="42.4550183" lon="14.1379583"><ele>170.75</ele><time>2026-05-03T11:19:04.538Z</time></trkpt><trkpt lat="42.4550583" lon="14.1377983"><ele>170.0</ele><time>2026-05-03T11:19:05.537Z</time></trkpt><trkpt lat="42.4550733" lon="14.1376133"><ele>170.0</ele><time>2026-05-03T11:19:06.537Z</time></trkpt><trkpt lat="42.4550683" lon="14.1374333"><ele>170.0</ele><time>2026-05-03T11:19:07.537Z</time></trkpt><trkpt lat="42.4550683" lon="14.1372533"><ele>170.0</ele><time>2026-05-03T11:19:08.538Z</time></trkpt><trkpt lat="42.455065" lon="14.1370833"><ele>170.0</ele><time>2026-05-03T11:19:09.538Z</time></trkpt><trkpt lat="42.455065" lon="14.1369383"><ele>170.6</ele><time>2026-05-03T11:19:10.538Z</time></trkpt><trkpt lat="42.4550583" lon="14.136805"><ele>171.2</ele><time>2026-05-03T11:19:11.538Z</time></trkpt><trkpt lat="42.45506" lon="14.136695"><ele>171.8</ele><time>2026-05-03T11:19:12.538Z</time></trkpt><trkpt lat="42.45507" lon="14.1365917"><ele>172.4</ele><time>2026-05-03T11:19:13.537Z</time></trkpt><trkpt lat="42.4550983" lon="14.13645"><ele>173.0</ele><time>2026-05-03T11:19:15.538Z</time></trkpt><trkpt lat="42.4551983" lon="14.136375"><ele>174.16666666666666</ele><time>2026-05-03T11:19:17.537Z</time></trkpt><trkpt lat="42.4552783" lon="14.13635"><ele>175.33333333333331</ele><time>2026-05-03T11:19:18.538Z</time></trkpt><trkpt lat="42.455355" lon="14.1363183"><ele>176.5</ele><time>2026-05-03T11:19:19.537Z</time></trkpt><trkpt lat="42.45542" lon="14.136305"><ele>177.66666666666666</ele><time>2026-05-03T11:19:20.538Z</time></trkpt><trkpt lat="42.4554817" lon="14.13628"><ele>178.83333333333334</ele><time>2026-05-03T11:19:21.538Z</time></trkpt><trkpt lat="42.4555567" lon="14.13624"><ele>180.0</ele><time>2026-05-03T11:19:22.538Z</time></trkpt><trkpt lat="42.45563" lon="14.13618"><ele>180.0</ele><time>2026-05-03T11:19:23.538Z</time></trkpt><trkpt lat="42.4556983" lon="14.1361233"><ele>180.0</ele><time>2026-05-03T11:19:24.538Z</time></trkpt><trkpt lat="42.455765" lon="14.1360733"><ele>180.0</ele><time>2026-05-03T11:19:25.537Z</time></trkpt><trkpt lat="42.4558283" lon="14.1360017"><ele>180.0</ele><time>2026-05-03T11:19:26.537Z</time></trkpt><trkpt lat="42.4559183" lon="14.1359267"><ele>180.0</ele><time>2026-05-03T11:19:27.537Z</time></trkpt><trkpt lat="42.45602" lon="14.1358133"><ele>184.66666666666669</ele><time>2026-05-03T11:19:28.537Z</time></trkpt><trkpt lat="42.4560983" lon="14.135665"><ele>189.33333333333334</ele><time>2026-05-03T11:19:29.538Z</time></trkpt><trkpt lat="42.456185" lon="14.1354683"><ele>194.0</ele><time>2026-05-03T11:19:30.538Z</time></trkpt><trkpt lat="42.45626" lon="14.135235"><ele>185.33333333333334</ele><time>2026-05-03T11:19:31.538Z</time></trkpt><trkpt lat="42.4563383" lon="14.1349817"><ele>176.66666666666669</ele><time>2026-05-03T11:19:32.538Z</time></trkpt><trkpt lat="42.4564183" lon="14.1347233"><ele>168.0</ele><time>2026-05-03T11:19:33.537Z</time></trkpt><trkpt lat="42.4565033" lon="14.134465"><ele>168.0</ele><time>2026-05-03T11:19:34.537Z</time></trkpt><trkpt lat="42.456595" lon="14.1341817"><ele>168.0</ele><time>2026-05-03T11:19:35.537Z</time></trkpt><trkpt lat="42.4566817" lon="14.1339017"><ele>168.0</ele><time>2026-05-03T11:19:36.537Z</time></trkpt><trkpt lat="42.4567417" lon="14.133625"><ele>168.0</ele><time>2026-05-03T11:19:37.537Z</time></trkpt><trkpt lat="42.45678" lon="14.1333717"><ele>168.0</ele><time>2026-05-03T11:19:38.537Z</time></trkpt><trkpt lat="42.4568033" lon="14.1331267"><ele>167.33333333333334</ele><time>2026-05-03T11:19:39.537Z</time></trkpt><trkpt lat="42.4568333" lon="14.1328833"><ele>166.66666666666669</ele><time>2026-05-03T11:19:40.537Z</time></trkpt><trkpt lat="42.45688" lon="14.13264"><ele>166.0</ele><time>2026-05-03T11:19:41.536Z</time></trkpt><trkpt lat="42.4569467" lon="14.13239"><ele>166.0</ele><time>2026-05-03T11:19:42.537Z</time></trkpt><trkpt lat="42.4570267" lon="14.1321367"><ele>166.0</ele><time>2026-05-03T11:19:43.537Z</time></trkpt><trkpt lat="42.4571233" lon="14.1318783"><ele>166.0</ele><time>2026-05-03T11:19:44.536Z</time></trkpt><trkpt lat="42.4572383" lon="14.131625"><ele>163.0</ele><time>2026-05-03T11:19:45.537Z</time></trkpt><trkpt lat="42.4573617" lon="14.1313517"><ele>160.0</ele><time>2026-05-03T11:19:46.536Z</time></trkpt><trkpt lat="42.4574833" lon="14.131085"><ele>160.0</ele><time>2026-05-03T11:19:47.536Z</time></trkpt><trkpt lat="42.4576083" lon="14.13084"><ele>160.0</ele><time>2026-05-03T11:19:48.537Z</time></trkpt><trkpt lat="42.4577383" lon="14.1306267"><ele>160.0</ele><time>2026-05-03T11:19:49.536Z</time></trkpt><trkpt lat="42.457885" lon="14.1304433"><ele>160.0</ele><time>2026-05-03T11:19:50.537Z</time></trkpt><trkpt lat="42.4580517" lon="14.1302633"><ele>160.0</ele><time>2026-05-03T11:19:51.537Z</time></trkpt><trkpt lat="42.45822" lon="14.1300733"><ele>160.0</ele><time>2026-05-03T11:19:52.537Z</time></trkpt><trkpt lat="42.4583717" lon="14.12988"><ele>160.0</ele><time>2026-05-03T11:19:53.537Z</time></trkpt><trkpt lat="42.4584817" lon="14.1296817"><ele>160.0</ele><time>2026-05-03T11:19:54.537Z</time></trkpt><trkpt lat="42.458575" lon="14.1294767"><ele>160.0</ele><time>2026-05-03T11:19:55.537Z</time></trkpt><trkpt lat="42.45864" lon="14.1292633"><ele>158.33333333333334</ele><time>2026-05-03T11:19:56.537Z</time></trkpt><trkpt lat="42.4586817" lon="14.1290433"><ele>156.66666666666666</ele><time>2026-05-03T11:19:57.537Z</time></trkpt><trkpt lat="42.4587033" lon="14.1288183"><ele>155.0</ele><time>2026-05-03T11:19:58.537Z</time></trkpt><trkpt lat="42.4586933" lon="14.1285933"><ele>155.0</ele><time>2026-05-03T11:19:59.536Z</time></trkpt><trkpt lat="42.4586633" lon="14.1283583"><ele>155.0</ele><time>2026-05-03T11:20:00.537Z</time></trkpt><trkpt lat="42.4586033" lon="14.128125"><ele>155.0</ele><time>2026-05-03T11:20:01.537Z</time></trkpt><trkpt lat="42.4585183" lon="14.1278883"><ele>157.66666666666666</ele><time>2026-05-03T11:20:02.537Z</time></trkpt><trkpt lat="42.4584283" lon="14.12765"><ele>160.33333333333334</ele><time>2026-05-03T11:20:03.536Z</time></trkpt><trkpt lat="42.4583317" lon="14.127455"><ele>163.0</ele><time>2026-05-03T11:20:04.536Z</time></trkpt><trkpt lat="42.45823" lon="14.1272883"><ele>160.66666666666669</ele><time>2026-05-03T11:20:05.537Z</time></trkpt><trkpt lat="42.4581083" lon="14.1271433"><ele>158.33333333333334</ele><time>2026-05-03T11:20:06.537Z</time></trkpt><trkpt lat="42.4579817" lon="14.1269917"><ele>156.0</ele><time>2026-05-03T11:20:07.537Z</time></trkpt><trkpt lat="42.4578633" lon="14.1268283"><ele>156.0</ele><time>2026-05-03T11:20:08.537Z</time></trkpt><trkpt lat="42.4577517" lon="14.1266483"><ele>156.0</ele><time>2026-05-03T11:20:09.536Z</time></trkpt><trkpt lat="42.457655" lon="14.126465"><ele>156.0</ele><time>2026-05-03T11:20:10.537Z</time></trkpt><trkpt lat="42.4575733" lon="14.1262833"><ele>158.75</ele><time>2026-05-03T11:20:11.536Z</time></trkpt><trkpt lat="42.4574967" lon="14.1261"><ele>161.5</ele><time>2026-05-03T11:20:12.536Z</time></trkpt><trkpt lat="42.4574317" lon="14.1259283"><ele>164.25</ele><time>2026-05-03T11:20:13.537Z</time></trkpt><trkpt lat="42.4573683" lon="14.1257733"><ele>167.0</ele><time>2026-05-03T11:20:14.537Z</time></trkpt><trkpt lat="42.457325" lon="14.1256183"><ele>168.75</ele><time>2026-05-03T11:20:15.537Z</time></trkpt><trkpt lat="42.457295" lon="14.1254583"><ele>170.5</ele><time>2026-05-03T11:20:16.537Z</time></trkpt><trkpt lat="42.45726" lon="14.1252883"><ele>172.25</ele><time>2026-05-03T11:20:17.536Z</time></trkpt><trkpt lat="42.457245" lon="14.1251017"><ele>174.0</ele><time>2026-05-03T11:20:18.537Z</time></trkpt><trkpt lat="42.4572467" lon="14.1249117"><ele>173.0</ele><time>2026-05-03T11:20:19.536Z</time></trkpt><trkpt lat="42.45726" lon="14.124705"><ele>172.0</ele><time>2026-05-03T11:20:20.536Z</time></trkpt><trkpt lat="42.45728" lon="14.124485"><ele>171.0</ele><time>2026-05-03T11:20:21.536Z</time></trkpt><trkpt lat="42.4573117" lon="14.12426"><ele>168.66666666666666</ele><time>2026-05-03T11:20:22.537Z</time></trkpt><trkpt lat="42.4573617" lon="14.12404"><ele>166.33333333333331</ele><time>2026-05-03T11:20:23.537Z</time></trkpt><trkpt lat="42.4574217" lon="14.1238117"><ele>164.0</ele><time>2026-05-03T11:20:24.537Z</time></trkpt><trkpt lat="42.4574783" lon="14.123585"><ele>164.0</ele><time>2026-05-03T11:20:25.536Z</time></trkpt><trkpt lat="42.4575433" lon="14.1233683"><ele>164.0</ele><time>2026-05-03T11:20:26.537Z</time></trkpt><trkpt lat="42.4576083" lon="14.1231667"><ele>164.0</ele><time>2026-05-03T11:20:27.537Z</time></trkpt><trkpt lat="42.4576633" lon="14.1229767"><ele>163.33333333333331</ele><time>2026-05-03T11:20:28.537Z</time></trkpt><trkpt lat="42.4577217" lon="14.12279"><ele>162.66666666666666</ele><time>2026-05-03T11:20:29.537Z</time></trkpt><trkpt lat="42.4577867" lon="14.122595"><ele>162.0</ele><time>2026-05-03T11:20:30.536Z</time></trkpt><trkpt lat="42.4578467" lon="14.12241"><ele>161.33333333333334</ele><time>2026-05-03T11:20:31.537Z</time></trkpt><trkpt lat="42.4579217" lon="14.1222267"><ele>160.66666666666669</ele><time>2026-05-03T11:20:32.537Z</time></trkpt><trkpt lat="42.4580133" lon="14.1220483"><ele>160.0</ele><time>2026-05-03T11:20:33.537Z</time></trkpt><trkpt lat="42.4581283" lon="14.1218767"><ele>160.0</ele><time>2026-05-03T11:20:34.536Z</time></trkpt><trkpt lat="42.4582517" lon="14.12172"><ele>160.0</ele><time>2026-05-03T11:20:35.536Z</time></trkpt><trkpt lat="42.458385" lon="14.1215767"><ele>160.0</ele><time>2026-05-03T11:20:36.537Z</time></trkpt><trkpt lat="42.4585217" lon="14.1214283"><ele>160.0</ele><time>2026-05-03T11:20:37.537Z</time></trkpt><trkpt lat="42.458665" lon="14.1212783"><ele>160.0</ele><time>2026-05-03T11:20:38.537Z</time></trkpt><trkpt lat="42.4588017" lon="14.1211367"><ele>160.0</ele><time>2026-05-03T11:20:39.536Z</time></trkpt><trkpt lat="42.458925" lon="14.1210067"><ele>160.0</ele><time>2026-05-03T11:20:40.537Z</time></trkpt><trkpt lat="42.4590417" lon="14.1208867"><ele>160.0</ele><time>2026-05-03T11:20:41.537Z</time></trkpt><trkpt lat="42.4591617" lon="14.12076"><ele>160.0</ele><time>2026-05-03T11:20:42.537Z</time></trkpt><trkpt lat="42.459285" lon="14.120635"><ele>160.0</ele><time>2026-05-03T11:20:43.537Z</time></trkpt><trkpt lat="42.4594083" lon="14.1205067"><ele>160.0</ele><time>2026-05-03T11:20:44.537Z</time></trkpt><trkpt lat="42.4595217" lon="14.12039"><ele>160.0</ele><time>2026-05-03T11:20:45.536Z</time></trkpt><trkpt lat="42.4596267" lon="14.1202867"><ele>160.0</ele><time>2026-05-03T11:20:46.537Z</time></trkpt><trkpt lat="42.459715" lon="14.120205"><ele>160.0</ele><time>2026-05-03T11:20:47.537Z</time></trkpt><trkpt lat="42.4597933" lon="14.1201333"><ele>160.0</ele><time>2026-05-03T11:20:48.537Z</time></trkpt><trkpt lat="42.4598617" lon="14.12009"><ele>160.0</ele><time>2026-05-03T11:20:49.537Z</time></trkpt><trkpt lat="42.4599317" lon="14.1200617"><ele>160.0</ele><time>2026-05-03T11:20:50.536Z</time></trkpt><trkpt lat="42.4600183" lon="14.1200383"><ele>160.0</ele><time>2026-05-03T11:20:51.537Z</time></trkpt><trkpt lat="42.4601217" lon="14.1200167"><ele>160.0</ele><time>2026-05-03T11:20:52.537Z</time></trkpt><trkpt lat="42.4602417" lon="14.1199983"><ele>160.0</ele><time>2026-05-03T11:20:53.537Z</time></trkpt><trkpt lat="42.46038" lon="14.1200183"><ele>160.0</ele><time>2026-05-03T11:20:54.537Z</time></trkpt><trkpt lat="42.4605433" lon="14.1200767"><ele>160.0</ele><time>2026-05-03T11:20:55.536Z</time></trkpt><trkpt lat="42.4607217" lon="14.12016"><ele>160.66666666666669</ele><time>2026-05-03T11:20:56.537Z</time></trkpt><trkpt lat="42.4609167" lon="14.1202233"><ele>161.33333333333334</ele><time>2026-05-03T11:20:57.536Z</time></trkpt><trkpt lat="42.4611133" lon="14.12028"><ele>162.0</ele><time>2026-05-03T11:20:58.536Z</time></trkpt><trkpt lat="42.4613017" lon="14.12035"><ele>164.33333333333334</ele><time>2026-05-03T11:20:59.537Z</time></trkpt><trkpt lat="42.4614867" lon="14.1204417"><ele>166.66666666666669</ele><time>2026-05-03T11:21:00.537Z</time></trkpt><trkpt lat="42.4616567" lon="14.12057"><ele>169.0</ele><time>2026-05-03T11:21:01.537Z</time></trkpt><trkpt lat="42.46184" lon="14.1207233"><ele>167.5</ele><time>2026-05-03T11:21:02.537Z</time></trkpt><trkpt lat="42.4620433" lon="14.1208817"><ele>166.0</ele><time>2026-05-03T11:21:03.536Z</time></trkpt><trkpt lat="42.462245" lon="14.121045"><ele>166.0</ele><time>2026-05-03T11:21:04.537Z</time></trkpt><trkpt lat="42.4624567" lon="14.12121"><ele>166.0</ele><time>2026-05-03T11:21:05.537Z</time></trkpt><trkpt lat="42.4626683" lon="14.121365"><ele>166.0</ele><time>2026-05-03T11:21:06.536Z</time></trkpt><trkpt lat="42.462875" lon="14.1215133"><ele>166.0</ele><time>2026-05-03T11:21:07.536Z</time></trkpt><trkpt lat="42.46308" lon="14.1216567"><ele>162.33333333333334</ele><time>2026-05-03T11:21:08.536Z</time></trkpt><trkpt lat="42.4632767" lon="14.1218033"><ele>158.66666666666666</ele><time>2026-05-03T11:21:09.537Z</time></trkpt><trkpt lat="42.46346" lon="14.1219383"><ele>155.0</ele><time>2026-05-03T11:21:10.536Z</time></trkpt><trkpt lat="42.4636067" lon="14.1220583"><ele>155.0</ele><time>2026-05-03T11:21:11.536Z</time></trkpt><trkpt lat="42.463745" lon="14.1221833"><ele>155.0</ele><time>2026-05-03T11:21:12.537Z</time></trkpt><trkpt lat="42.4638767" lon="14.122335"><ele>155.0</ele><time>2026-05-03T11:21:13.537Z</time></trkpt><trkpt lat="42.463995" lon="14.1225117"><ele>153.0</ele><time>2026-05-03T11:21:14.537Z</time></trkpt><trkpt lat="42.4640917" lon="14.1227283"><ele>151.0</ele><time>2026-05-03T11:21:15.536Z</time></trkpt><trkpt lat="42.4641917" lon="14.1229533"><ele>149.0</ele><time>2026-05-03T11:21:16.537Z</time></trkpt><trkpt lat="42.464275" lon="14.123195"><ele>149.0</ele><time>2026-05-03T11:21:17.537Z</time></trkpt><trkpt lat="42.46434" lon="14.1234433"><ele>149.0</ele><time>2026-05-03T11:21:18.536Z</time></trkpt><trkpt lat="42.46441" lon="14.1236967"><ele>149.0</ele><time>2026-05-03T11:21:19.537Z</time></trkpt><trkpt lat="42.46449" lon="14.1239367"><ele>147.33333333333331</ele><time>2026-05-03T11:21:20.536Z</time></trkpt><trkpt lat="42.464595" lon="14.12416"><ele>145.66666666666666</ele><time>2026-05-03T11:21:21.537Z</time></trkpt><trkpt lat="42.4647367" lon="14.1243683"><ele>144.0</ele><time>2026-05-03T11:21:22.537Z</time></trkpt><trkpt lat="42.464885" lon="14.1245683"><ele>143.0</ele><time>2026-05-03T11:21:23.537Z</time></trkpt><trkpt lat="42.4650217" lon="14.1247767"><ele>142.0</ele><time>2026-05-03T11:21:24.537Z</time></trkpt><trkpt lat="42.465155" lon="14.125005"><ele>141.0</ele><time>2026-05-03T11:21:25.537Z</time></trkpt><trkpt lat="42.4652883" lon="14.1252367"><ele>141.66666666666666</ele><time>2026-05-03T11:21:26.537Z</time></trkpt><trkpt lat="42.4654317" lon="14.12546"><ele>142.33333333333331</ele><time>2026-05-03T11:21:27.537Z</time></trkpt><trkpt lat="42.46559" lon="14.1256717"><ele>143.0</ele><time>2026-05-03T11:21:28.537Z</time></trkpt><trkpt lat="42.4657517" lon="14.1258533"><ele>143.0</ele><time>2026-05-03T11:21:29.537Z</time></trkpt><trkpt lat="42.4659117" lon="14.1259917"><ele>143.0</ele><time>2026-05-03T11:21:30.536Z</time></trkpt><trkpt lat="42.466085" lon="14.1260717"><ele>143.0</ele><time>2026-05-03T11:21:31.536Z</time></trkpt><trkpt lat="42.4662483" lon="14.126115"><ele>140.75</ele><time>2026-05-03T11:21:32.537Z</time></trkpt><trkpt lat="42.4663967" lon="14.1261417"><ele>138.5</ele><time>2026-05-03T11:21:33.537Z</time></trkpt><trkpt lat="42.466535" lon="14.1261667"><ele>136.25</ele><time>2026-05-03T11:21:34.536Z</time></trkpt><trkpt lat="42.4666517" lon="14.126225"><ele>134.0</ele><time>2026-05-03T11:21:35.537Z</time></trkpt><trkpt lat="42.4667483" lon="14.1263183"><ele>134.0</ele><time>2026-05-03T11:21:36.537Z</time></trkpt><trkpt lat="42.4668433" lon="14.1264617"><ele>134.0</ele><time>2026-05-03T11:21:37.537Z</time></trkpt><trkpt lat="42.4669317" lon="14.1266433"><ele>134.0</ele><time>2026-05-03T11:21:38.537Z</time></trkpt><trkpt lat="42.467035" lon="14.1268483"><ele>134.33333333333331</ele><time>2026-05-03T11:21:39.536Z</time></trkpt><trkpt lat="42.4671417" lon="14.12708"><ele>134.66666666666666</ele><time>2026-05-03T11:21:40.536Z</time></trkpt><trkpt lat="42.467255" lon="14.1273167"><ele>135.0</ele><time>2026-05-03T11:21:41.537Z</time></trkpt><trkpt lat="42.4673517" lon="14.127555"><ele>138.33333333333334</ele><time>2026-05-03T11:21:42.537Z</time></trkpt><trkpt lat="42.4674417" lon="14.1278"><ele>141.66666666666669</ele><time>2026-05-03T11:21:43.536Z</time></trkpt><trkpt lat="42.4675267" lon="14.1280283"><ele>145.0</ele><time>2026-05-03T11:21:44.536Z</time></trkpt><trkpt lat="42.4676" lon="14.12823"><ele>145.5</ele><time>2026-05-03T11:21:45.537Z</time></trkpt><trkpt lat="42.4676717" lon="14.1284133"><ele>146.0</ele><time>2026-05-03T11:21:46.537Z</time></trkpt><trkpt lat="42.467755" lon="14.1285717"><ele>146.5</ele><time>2026-05-03T11:21:47.536Z</time></trkpt><trkpt lat="42.4678567" lon="14.1286983"><ele>147.0</ele><time>2026-05-03T11:21:48.537Z</time></trkpt><trkpt lat="42.4679983" lon="14.12879"><ele>150.33333333333334</ele><time>2026-05-03T11:21:49.537Z</time></trkpt><trkpt lat="42.4681533" lon="14.12886"><ele>153.66666666666669</ele><time>2026-05-03T11:21:50.537Z</time></trkpt><trkpt lat="42.46834" lon="14.1289133"><ele>157.0</ele><time>2026-05-03T11:21:51.537Z</time></trkpt><trkpt lat="42.468545" lon="14.1289833"><ele>157.0</ele><time>2026-05-03T11:21:52.536Z</time></trkpt><trkpt lat="42.46875" lon="14.1290483"><ele>157.0</ele><time>2026-05-03T11:21:53.536Z</time></trkpt><trkpt lat="42.468925" lon="14.1291117"><ele>157.0</ele><time>2026-05-03T11:21:54.537Z</time></trkpt><trkpt lat="42.4690817" lon="14.1291667"><ele>154.66666666666669</ele><time>2026-05-03T11:21:55.536Z</time></trkpt><trkpt lat="42.4692217" lon="14.1292333"><ele>152.33333333333334</ele><time>2026-05-03T11:21:56.537Z</time></trkpt><trkpt lat="42.4693667" lon="14.1293333"><ele>150.0</ele><time>2026-05-03T11:21:57.537Z</time></trkpt><trkpt lat="42.469505" lon="14.1294667"><ele>150.0</ele><time>2026-05-03T11:21:58.536Z</time></trkpt><trkpt lat="42.4696467" lon="14.1296217"><ele>150.0</ele><time>2026-05-03T11:21:59.537Z</time></trkpt><trkpt lat="42.4697933" lon="14.1297917"><ele>150.0</ele><time>2026-05-03T11:22:00.537Z</time></trkpt><trkpt lat="42.4699533" lon="14.1299767"><ele>150.0</ele><time>2026-05-03T11:22:01.537Z</time></trkpt><trkpt lat="42.47012" lon="14.1301767"><ele>150.0</ele><time>2026-05-03T11:22:02.536Z</time></trkpt><trkpt lat="42.4702833" lon="14.1303833"><ele>150.0</ele><time>2026-05-03T11:22:03.537Z</time></trkpt><trkpt lat="42.4704617" lon="14.1306017"><ele>147.0</ele><time>2026-05-03T11:22:04.537Z</time></trkpt><trkpt lat="42.4706483" lon="14.1308267"><ele>144.0</ele><time>2026-05-03T11:22:05.537Z</time></trkpt><trkpt lat="42.4708333" lon="14.1310483"><ele>144.0</ele><time>2026-05-03T11:22:06.537Z</time></trkpt><trkpt lat="42.4710033" lon="14.13125"><ele>144.0</ele><time>2026-05-03T11:22:07.537Z</time></trkpt><trkpt lat="42.47116" lon="14.131445"><ele>144.0</ele><time>2026-05-03T11:22:08.536Z</time></trkpt><trkpt lat="42.4713017" lon="14.13163"><ele>143.33333333333334</ele><time>2026-05-03T11:22:09.537Z</time></trkpt><trkpt lat="42.4714167" lon="14.1318"><ele>142.66666666666669</ele><time>2026-05-03T11:22:10.537Z</time></trkpt><trkpt lat="42.4714983" lon="14.131965"><ele>142.0</ele><time>2026-05-03T11:22:11.537Z</time></trkpt><trkpt lat="42.4715567" lon="14.1321567"><ele>142.0</ele><time>2026-05-03T11:22:12.536Z</time></trkpt><trkpt lat="42.4715717" lon="14.1323733"><ele>142.0</ele><time>2026-05-03T11:22:13.537Z</time></trkpt><trkpt lat="42.4715767" lon="14.1326117"><ele>142.0</ele><time>2026-05-03T11:22:14.537Z</time></trkpt><trkpt lat="42.47161" lon="14.13283"><ele>143.5</ele><time>2026-05-03T11:22:15.537Z</time></trkpt><trkpt lat="42.4716683" lon="14.1330183"><ele>145.0</ele><time>2026-05-03T11:22:16.537Z</time></trkpt><trkpt lat="42.4717433" lon="14.133175"><ele>146.5</ele><time>2026-05-03T11:22:17.537Z</time></trkpt><trkpt lat="42.471845" lon="14.133285"><ele>148.0</ele><time>2026-05-03T11:22:18.537Z</time></trkpt><trkpt lat="42.4719617" lon="14.13335"><ele>148.0</ele><time>2026-05-03T11:22:19.537Z</time></trkpt><trkpt lat="42.4720917" lon="14.13337"><ele>148.0</ele><time>2026-05-03T11:22:20.537Z</time></trkpt><trkpt lat="42.47224" lon="14.1333733"><ele>148.0</ele><time>2026-05-03T11:22:21.537Z</time></trkpt><trkpt lat="42.47238" lon="14.13339"><ele>148.0</ele><time>2026-05-03T11:22:22.537Z</time></trkpt><trkpt lat="42.4725117" lon="14.133455"><ele>151.33333333333334</ele><time>2026-05-03T11:22:23.536Z</time></trkpt><trkpt lat="42.4726417" lon="14.133565"><ele>154.66666666666666</ele><time>2026-05-03T11:22:24.537Z</time></trkpt><trkpt lat="42.47277" lon="14.1337117"><ele>158.0</ele><time>2026-05-03T11:22:25.537Z</time></trkpt><trkpt lat="42.4729383" lon="14.1338567"><ele>160.66666666666666</ele><time>2026-05-03T11:22:26.536Z</time></trkpt><trkpt lat="42.4730983" lon="14.1339883"><ele>163.33333333333334</ele><time>2026-05-03T11:22:27.537Z</time></trkpt><trkpt lat="42.47326" lon="14.1341383"><ele>166.0</ele><time>2026-05-03T11:22:28.536Z</time></trkpt><trkpt lat="42.4733933" lon="14.1342983"><ele>166.0</ele><time>2026-05-03T11:22:29.537Z</time></trkpt><trkpt lat="42.4735" lon="14.1344483"><ele>166.0</ele><time>2026-05-03T11:22:30.537Z</time></trkpt><trkpt lat="42.47356" lon="14.1345983"><ele>166.0</ele><time>2026-05-03T11:22:31.537Z</time></trkpt><trkpt lat="42.4736033" lon="14.134775"><ele>166.0</ele><time>2026-05-03T11:22:32.537Z</time></trkpt><trkpt lat="42.4736417" lon="14.134975"><ele>164.0</ele><time>2026-05-03T11:22:33.537Z</time></trkpt><trkpt lat="42.4736867" lon="14.1351617"><ele>162.0</ele><time>2026-05-03T11:22:34.536Z</time></trkpt><trkpt lat="42.47373" lon="14.1353167"><ele>160.0</ele><time>2026-05-03T11:22:35.537Z</time></trkpt><trkpt lat="42.47381" lon="14.1354383"><ele>158.0</ele><time>2026-05-03T11:22:36.536Z</time></trkpt><trkpt lat="42.473915" lon="14.135535"><ele>160.66666666666666</ele><time>2026-05-03T11:22:37.537Z</time></trkpt><trkpt lat="42.4740617" lon="14.13561"><ele>163.33333333333334</ele><time>2026-05-03T11:22:38.536Z</time></trkpt><trkpt lat="42.4742367" lon="14.1357"><ele>166.0</ele><time>2026-05-03T11:22:39.536Z</time></trkpt><trkpt lat="42.47441" lon="14.1358317"><ele>166.0</ele><time>2026-05-03T11:22:40.536Z</time></trkpt><trkpt lat="42.4745567" lon="14.13597"><ele>166.0</ele><time>2026-05-03T11:22:41.537Z</time></trkpt><trkpt lat="42.4747083" lon="14.13608"><ele>166.0</ele><time>2026-05-03T11:22:42.537Z</time></trkpt><trkpt lat="42.4748667" lon="14.13615"><ele>166.25</ele><time>2026-05-03T11:22:43.537Z</time></trkpt><trkpt lat="42.4750183" lon="14.1362067"><ele>166.5</ele><time>2026-05-03T11:22:44.537Z</time></trkpt><trkpt lat="42.4751433" lon="14.1362783"><ele>166.75</ele><time>2026-05-03T11:22:45.537Z</time></trkpt><trkpt lat="42.47525" lon="14.1364083"><ele>167.0</ele><time>2026-05-03T11:22:46.537Z</time></trkpt><trkpt lat="42.4753583" lon="14.1365683"><ele>172.33333333333331</ele><time>2026-05-03T11:22:47.537Z</time></trkpt><trkpt lat="42.475485" lon="14.1367283"><ele>177.66666666666666</ele><time>2026-05-03T11:22:48.537Z</time></trkpt><trkpt lat="42.4756383" lon="14.1368617"><ele>183.0</ele><time>2026-05-03T11:22:49.536Z</time></trkpt><trkpt lat="42.475815" lon="14.1369783"><ele>183.0</ele><time>2026-05-03T11:22:50.537Z</time></trkpt><trkpt lat="42.4760183" lon="14.1371"><ele>183.0</ele><time>2026-05-03T11:22:51.537Z</time></trkpt><trkpt lat="42.476235" lon="14.137225"><ele>181.66666666666666</ele><time>2026-05-03T11:22:52.536Z</time></trkpt><trkpt lat="42.4764367" lon="14.13733"><ele>180.33333333333331</ele><time>2026-05-03T11:22:53.536Z</time></trkpt><trkpt lat="42.4766167" lon="14.1373983"><ele>179.0</ele><time>2026-05-03T11:22:54.536Z</time></trkpt><trkpt lat="42.4767783" lon="14.1374417"><ele>179.0</ele><time>2026-05-03T11:22:55.537Z</time></trkpt><trkpt lat="42.4769333" lon="14.1374633"><ele>179.0</ele><time>2026-05-03T11:22:56.537Z</time></trkpt><trkpt lat="42.4771" lon="14.1374733"><ele>179.0</ele><time>2026-05-03T11:22:57.537Z</time></trkpt><trkpt lat="42.4772667" lon="14.1374767"><ele>180.0</ele><time>2026-05-03T11:22:58.537Z</time></trkpt><trkpt lat="42.47745" lon="14.1374383"><ele>181.0</ele><time>2026-05-03T11:22:59.537Z</time></trkpt><trkpt lat="42.4776383" lon="14.1373817"><ele>182.0</ele><time>2026-05-03T11:23:00.537Z</time></trkpt><trkpt lat="42.4778183" lon="14.1373067"><ele>178.5</ele><time>2026-05-03T11:23:01.536Z</time></trkpt><trkpt lat="42.4779733" lon="14.1372433"><ele>175.0</ele><time>2026-05-03T11:23:02.536Z</time></trkpt><trkpt lat="42.47811" lon="14.1372067"><ele>171.5</ele><time>2026-05-03T11:23:03.537Z</time></trkpt><trkpt lat="42.47824" lon="14.137195"><ele>168.0</ele><time>2026-05-03T11:23:04.536Z</time></trkpt><trkpt lat="42.4783717" lon="14.1372267"><ele>168.0</ele><time>2026-05-03T11:23:05.537Z</time></trkpt><trkpt lat="42.4785133" lon="14.137275"><ele>168.0</ele><time>2026-05-03T11:23:06.537Z</time></trkpt><trkpt lat="42.478655" lon="14.1372983"><ele>168.0</ele><time>2026-05-03T11:23:07.536Z</time></trkpt><trkpt lat="42.4787967" lon="14.137285"><ele>168.0</ele><time>2026-05-03T11:23:08.537Z</time></trkpt><trkpt lat="42.4789533" lon="14.137225"><ele>167.66666666666666</ele><time>2026-05-03T11:23:09.536Z</time></trkpt><trkpt lat="42.4790967" lon="14.1371367"><ele>167.33333333333331</ele><time>2026-05-03T11:23:10.537Z</time></trkpt><trkpt lat="42.4792217" lon="14.1370283"><ele>167.0</ele><time>2026-05-03T11:23:11.537Z</time></trkpt><trkpt lat="42.4793317" lon="14.1368733"><ele>167.0</ele><time>2026-05-03T11:23:12.536Z</time></trkpt><trkpt lat="42.4794317" lon="14.136685"><ele>167.0</ele><time>2026-05-03T11:23:13.537Z</time></trkpt><trkpt lat="42.4795467" lon="14.1364867"><ele>167.0</ele><time>2026-05-03T11:23:14.536Z</time></trkpt><trkpt lat="42.479665" lon="14.1363217"><ele>166.33333333333331</ele><time>2026-05-03T11:23:15.536Z</time></trkpt><trkpt lat="42.4797733" lon="14.13617"><ele>165.66666666666666</ele><time>2026-05-03T11:23:16.537Z</time></trkpt><trkpt lat="42.4798683" lon="14.1359817"><ele>165.0</ele><time>2026-05-03T11:23:17.537Z</time></trkpt><trkpt lat="42.479945" lon="14.1357733"><ele>162.33333333333334</ele><time>2026-05-03T11:23:18.536Z</time></trkpt><trkpt lat="42.479995" lon="14.135545"><ele>159.66666666666669</ele><time>2026-05-03T11:23:19.537Z</time></trkpt><trkpt lat="42.4800567" lon="14.1353533"><ele>157.0</ele><time>2026-05-03T11:23:20.536Z</time></trkpt><trkpt lat="42.4801367" lon="14.135195"><ele>157.0</ele><time>2026-05-03T11:23:21.536Z</time></trkpt><trkpt lat="42.480235" lon="14.1350433"><ele>157.0</ele><time>2026-05-03T11:23:22.536Z</time></trkpt><trkpt lat="42.4803617" lon="14.134925"><ele>157.0</ele><time>2026-05-03T11:23:23.536Z</time></trkpt><trkpt lat="42.4804867" lon="14.1348333"><ele>157.0</ele><time>2026-05-03T11:23:24.535Z</time></trkpt><trkpt lat="42.4806067" lon="14.134785"><ele>157.2</ele><time>2026-05-03T11:23:25.536Z</time></trkpt><trkpt lat="42.48071" lon="14.1347783"><ele>157.39999999999998</ele><time>2026-05-03T11:23:26.536Z</time></trkpt><trkpt lat="42.4808133" lon="14.1348217"><ele>157.60000000000002</ele><time>2026-05-03T11:23:27.536Z</time></trkpt><trkpt lat="42.4809017" lon="14.1349033"><ele>157.8</ele><time>2026-05-03T11:23:28.535Z</time></trkpt><trkpt lat="42.480995" lon="14.135015"><ele>158.0</ele><time>2026-05-03T11:23:29.536Z</time></trkpt><trkpt lat="42.48108" lon="14.13515"><ele>158.0</ele><time>2026-05-03T11:23:30.536Z</time></trkpt><trkpt lat="42.481145" lon="14.1353167"><ele>158.0</ele><time>2026-05-03T11:23:31.536Z</time></trkpt><trkpt lat="42.48121" lon="14.1355083"><ele>158.0</ele><time>2026-05-03T11:23:32.536Z</time></trkpt><trkpt lat="42.4812783" lon="14.1357233"><ele>154.33333333333331</ele><time>2026-05-03T11:23:33.536Z</time></trkpt><trkpt lat="42.4813517" lon="14.1359433"><ele>150.66666666666666</ele><time>2026-05-03T11:23:34.536Z</time></trkpt><trkpt lat="42.4814133" lon="14.136135"><ele>147.0</ele><time>2026-05-03T11:23:35.536Z</time></trkpt><trkpt lat="42.481485" lon="14.1363033"><ele>147.0</ele><time>2026-05-03T11:23:36.535Z</time></trkpt><trkpt lat="42.48155" lon="14.1364367"><ele>147.0</ele><time>2026-05-03T11:23:37.536Z</time></trkpt><trkpt lat="42.4816433" lon="14.1365233"><ele>147.0</ele><time>2026-05-03T11:23:38.536Z</time></trkpt><trkpt lat="42.48175" lon="14.1365567"><ele>147.0</ele><time>2026-05-03T11:23:39.536Z</time></trkpt><trkpt lat="42.481865" lon="14.1365383"><ele>147.0</ele><time>2026-05-03T11:23:40.536Z</time></trkpt><trkpt lat="42.48197" lon="14.1364783"><ele>147.0</ele><time>2026-05-03T11:23:41.535Z</time></trkpt><trkpt lat="42.4820483" lon="14.1363783"><ele>147.0</ele><time>2026-05-03T11:23:42.536Z</time></trkpt><trkpt lat="42.4821183" lon="14.1361983"><ele>147.0</ele><time>2026-05-03T11:23:43.536Z</time></trkpt><trkpt lat="42.48218" lon="14.1359783"><ele>144.33333333333334</ele><time>2026-05-03T11:23:44.535Z</time></trkpt><trkpt lat="42.48224" lon="14.1357083"><ele>141.66666666666669</ele><time>2026-05-03T11:23:45.535Z</time></trkpt><trkpt lat="42.482295" lon="14.1354117"><ele>139.0</ele><time>2026-05-03T11:23:46.536Z</time></trkpt><trkpt lat="42.48236" lon="14.13509"><ele>138.0</ele><time>2026-05-03T11:23:47.536Z</time></trkpt><trkpt lat="42.482425" lon="14.13475"><ele>137.0</ele><time>2026-05-03T11:23:48.535Z</time></trkpt><trkpt lat="42.4825017" lon="14.1344233"><ele>137.0</ele><time>2026-05-03T11:23:49.535Z</time></trkpt><trkpt lat="42.4825683" lon="14.1341267"><ele>137.0</ele><time>2026-05-03T11:23:50.536Z</time></trkpt><trkpt lat="42.4826283" lon="14.1338767"><ele>137.0</ele><time>2026-05-03T11:23:51.536Z</time></trkpt><trkpt lat="42.4826717" lon="14.1336617"><ele>136.0</ele><time>2026-05-03T11:23:52.535Z</time></trkpt><trkpt lat="42.4827317" lon="14.13347"><ele>135.0</ele><time>2026-05-03T11:23:53.536Z</time></trkpt><trkpt lat="42.4828167" lon="14.1333317"><ele>134.0</ele><time>2026-05-03T11:23:54.535Z</time></trkpt><trkpt lat="42.48292" lon="14.13323"><ele>133.0</ele><time>2026-05-03T11:23:55.536Z</time></trkpt><trkpt lat="42.4830733" lon="14.13316"><ele>131.66666666666669</ele><time>2026-05-03T11:23:56.536Z</time></trkpt><trkpt lat="42.483255" lon="14.133085"><ele>130.33333333333334</ele><time>2026-05-03T11:23:57.536Z</time></trkpt><trkpt lat="42.4834467" lon="14.1329917"><ele>129.0</ele><time>2026-05-03T11:23:58.536Z</time></trkpt><trkpt lat="42.4836433" lon="14.1328883"><ele>127.66666666666666</ele><time>2026-05-03T11:23:59.536Z</time></trkpt><trkpt lat="42.4838467" lon="14.1327883"><ele>126.33333333333333</ele><time>2026-05-03T11:24:00.536Z</time></trkpt><trkpt lat="42.484055" lon="14.132685"><ele>125.0</ele><time>2026-05-03T11:24:01.535Z</time></trkpt><trkpt lat="42.4842617" lon="14.1325867"><ele>125.0</ele><time>2026-05-03T11:24:02.535Z</time></trkpt><trkpt lat="42.484455" lon="14.132495"><ele>125.0</ele><time>2026-05-03T11:24:03.536Z</time></trkpt><trkpt lat="42.484625" lon="14.1324167"><ele>125.0</ele><time>2026-05-03T11:24:04.536Z</time></trkpt><trkpt lat="42.484785" lon="14.1323533"><ele>123.75</ele><time>2026-05-03T11:24:05.536Z</time></trkpt><trkpt lat="42.4849217" lon="14.13231"><ele>122.5</ele><time>2026-05-03T11:24:06.536Z</time></trkpt><trkpt lat="42.4850583" lon="14.132295"><ele>121.25</ele><time>2026-05-03T11:24:07.535Z</time></trkpt><trkpt lat="42.485195" lon="14.1323267"><ele>120.0</ele><time>2026-05-03T11:24:08.535Z</time></trkpt><trkpt lat="42.4853233" lon="14.1324067"><ele>119.33333333333334</ele><time>2026-05-03T11:24:09.536Z</time></trkpt><trkpt lat="42.48545" lon="14.1325417"><ele>118.66666666666667</ele><time>2026-05-03T11:24:10.536Z</time></trkpt><trkpt lat="42.48557" lon="14.1326967"><ele>118.0</ele><time>2026-05-03T11:24:11.536Z</time></trkpt><trkpt lat="42.4857133" lon="14.1328567"><ele>118.0</ele><time>2026-05-03T11:24:12.536Z</time></trkpt><trkpt lat="42.4858583" lon="14.133025"><ele>118.0</ele><time>2026-05-03T11:24:13.536Z</time></trkpt><trkpt lat="42.4860033" lon="14.1331933"><ele>118.0</ele><time>2026-05-03T11:24:14.536Z</time></trkpt><trkpt lat="42.48614" lon="14.1333533"><ele>117.75</ele><time>2026-05-03T11:24:15.535Z</time></trkpt><trkpt lat="42.48626" lon="14.133505"><ele>117.5</ele><time>2026-05-03T11:24:16.536Z</time></trkpt><trkpt lat="42.4863667" lon="14.13364"><ele>117.25</ele><time>2026-05-03T11:24:17.535Z</time></trkpt><trkpt lat="42.48646" lon="14.133765"><ele>117.0</ele><time>2026-05-03T11:24:18.535Z</time></trkpt><trkpt lat="42.4865433" lon="14.133885"><ele>117.0</ele><time>2026-05-03T11:24:19.535Z</time></trkpt><trkpt lat="42.4866083" lon="14.1340017"><ele>117.0</ele><time>2026-05-03T11:24:20.535Z</time></trkpt><trkpt lat="42.4866533" lon="14.1341283"><ele>117.0</ele><time>2026-05-03T11:24:21.536Z</time></trkpt><trkpt lat="42.4866933" lon="14.1342833"><ele>117.0</ele><time>2026-05-03T11:24:22.536Z</time></trkpt><trkpt lat="42.4867217" lon="14.1344667"><ele>117.0</ele><time>2026-05-03T11:24:23.535Z</time></trkpt><trkpt lat="42.4867533" lon="14.134675"><ele>117.0</ele><time>2026-05-03T11:24:24.536Z</time></trkpt><trkpt lat="42.48679" lon="14.1349"><ele>117.0</ele><time>2026-05-03T11:24:25.536Z</time></trkpt><trkpt lat="42.486835" lon="14.1351283"><ele>117.0</ele><time>2026-05-03T11:24:26.536Z</time></trkpt><trkpt lat="42.48689" lon="14.1353733"><ele>117.0</ele><time>2026-05-03T11:24:27.536Z</time></trkpt><trkpt lat="42.48695" lon="14.1356267"><ele>117.0</ele><time>2026-05-03T11:24:28.535Z</time></trkpt><trkpt lat="42.487015" lon="14.1358883"><ele>117.66666666666666</ele><time>2026-05-03T11:24:29.536Z</time></trkpt><trkpt lat="42.4870967" lon="14.13616"><ele>118.33333333333333</ele><time>2026-05-03T11:24:30.536Z</time></trkpt><trkpt lat="42.4872067" lon="14.1364183"><ele>119.0</ele><time>2026-05-03T11:24:31.535Z</time></trkpt><trkpt lat="42.4873033" lon="14.136665"><ele>120.66666666666666</ele><time>2026-05-03T11:24:32.536Z</time></trkpt><trkpt lat="42.4873917" lon="14.136895"><ele>122.33333333333334</ele><time>2026-05-03T11:24:33.536Z</time></trkpt><trkpt lat="42.48746" lon="14.1371167"><ele>124.0</ele><time>2026-05-03T11:24:34.535Z</time></trkpt><trkpt lat="42.4875283" lon="14.1373233"><ele>124.0</ele><time>2026-05-03T11:24:35.536Z</time></trkpt><trkpt lat="42.4875833" lon="14.1375017"><ele>124.0</ele><time>2026-05-03T11:24:36.536Z</time></trkpt><trkpt lat="42.4876233" lon="14.1376633"><ele>124.0</ele><time>2026-05-03T11:24:37.536Z</time></trkpt><trkpt lat="42.48765" lon="14.1378433"><ele>124.0</ele><time>2026-05-03T11:24:38.535Z</time></trkpt><trkpt lat="42.487655" lon="14.138055"><ele>124.25</ele><time>2026-05-03T11:24:39.536Z</time></trkpt><trkpt lat="42.4876517" lon="14.138255"><ele>124.5</ele><time>2026-05-03T11:24:40.536Z</time></trkpt><trkpt lat="42.4876483" lon="14.138415"><ele>124.75</ele><time>2026-05-03T11:24:41.536Z</time></trkpt><trkpt lat="42.487665" lon="14.1385783"><ele>125.0</ele><time>2026-05-03T11:24:42.536Z</time></trkpt><trkpt lat="42.487695" lon="14.138745"><ele>125.0</ele><time>2026-05-03T11:24:43.536Z</time></trkpt><trkpt lat="42.4877567" lon="14.1389167"><ele>125.0</ele><time>2026-05-03T11:24:44.535Z</time></trkpt><trkpt lat="42.48784" lon="14.1390683"><ele>125.0</ele><time>2026-05-03T11:24:45.536Z</time></trkpt><trkpt lat="42.4879483" lon="14.13919"><ele>125.0</ele><time>2026-05-03T11:24:46.536Z</time></trkpt><trkpt lat="42.4880833" lon="14.1392833"><ele>128.0</ele><time>2026-05-03T11:24:47.535Z</time></trkpt><trkpt lat="42.488235" lon="14.1393433"><ele>131.0</ele><time>2026-05-03T11:24:48.536Z</time></trkpt><trkpt lat="42.4884033" lon="14.1393583"><ele>134.0</ele><time>2026-05-03T11:24:49.536Z</time></trkpt><trkpt lat="42.4885833" lon="14.1393683"><ele>134.0</ele><time>2026-05-03T11:24:50.536Z</time></trkpt><trkpt lat="42.4887433" lon="14.1393667"><ele>134.0</ele><time>2026-05-03T11:24:51.536Z</time></trkpt><trkpt lat="42.488875" lon="14.1393867"><ele>134.0</ele><time>2026-05-03T11:24:52.536Z</time></trkpt><trkpt lat="42.48898" lon="14.1394233"><ele>134.0</ele><time>2026-05-03T11:24:53.536Z</time></trkpt><trkpt lat="42.4890533" lon="14.1394833"><ele>134.5</ele><time>2026-05-03T11:24:54.536Z</time></trkpt><trkpt lat="42.48913" lon="14.1395483"><ele>135.0</ele><time>2026-05-03T11:24:55.536Z</time></trkpt><trkpt lat="42.4892083" lon="14.1396033"><ele>135.5</ele><time>2026-05-03T11:24:56.536Z</time></trkpt><trkpt lat="42.489285" lon="14.1396117"><ele>136.0</ele><time>2026-05-03T11:24:57.535Z</time></trkpt><trkpt lat="42.4893583" lon="14.1395883"><ele>136.5</ele><time>2026-05-03T11:24:58.536Z</time></trkpt><trkpt lat="42.4894433" lon="14.1395267"><ele>137.0</ele><time>2026-05-03T11:24:59.536Z</time></trkpt><trkpt lat="42.4895417" lon="14.13947"><ele>138.33333333333331</ele><time>2026-05-03T11:25:00.535Z</time></trkpt><trkpt lat="42.4896733" lon="14.1394383"><ele>139.66666666666666</ele><time>2026-05-03T11:25:01.535Z</time></trkpt><trkpt lat="42.4898233" lon="14.13943"><ele>141.0</ele><time>2026-05-03T11:25:02.535Z</time></trkpt><trkpt lat="42.4899917" lon="14.1394433"><ele>141.0</ele><time>2026-05-03T11:25:03.535Z</time></trkpt><trkpt lat="42.490165" lon="14.1394717"><ele>141.0</ele><time>2026-05-03T11:25:04.535Z</time></trkpt><trkpt lat="42.4903433" lon="14.139495"><ele>141.0</ele><time>2026-05-03T11:25:05.536Z</time></trkpt><trkpt lat="42.4904983" lon="14.1395"><ele>143.0</ele><time>2026-05-03T11:25:06.536Z</time></trkpt><trkpt lat="42.49063" lon="14.1395067"><ele>145.0</ele><time>2026-05-03T11:25:07.536Z</time></trkpt><trkpt lat="42.4907367" lon="14.139525"><ele>147.0</ele><time>2026-05-03T11:25:08.536Z</time></trkpt><trkpt lat="42.4908117" lon="14.1395567"><ele>149.0</ele><time>2026-05-03T11:25:09.535Z</time></trkpt><trkpt lat="42.4908617" lon="14.139625"><ele>151.0</ele><time>2026-05-03T11:25:10.536Z</time></trkpt><trkpt lat="42.4909067" lon="14.1397067"><ele>151.0</ele><time>2026-05-03T11:25:11.535Z</time></trkpt><trkpt lat="42.4909233" lon="14.139815"><ele>151.0</ele><time>2026-05-03T11:25:12.535Z</time></trkpt><trkpt lat="42.4909233" lon="14.1399567"><ele>151.0</ele><time>2026-05-03T11:25:13.536Z</time></trkpt><trkpt lat="42.49091" lon="14.1401467"><ele>151.0</ele><time>2026-05-03T11:25:14.536Z</time></trkpt><trkpt lat="42.490885" lon="14.140345"><ele>151.8</ele><time>2026-05-03T11:25:15.536Z</time></trkpt><trkpt lat="42.4908717" lon="14.1405283"><ele>152.6</ele><time>2026-05-03T11:25:16.536Z</time></trkpt><trkpt lat="42.4908783" lon="14.1406817"><ele>153.4</ele><time>2026-05-03T11:25:17.535Z</time></trkpt><trkpt lat="42.4909067" lon="14.140795"><ele>154.2</ele><time>2026-05-03T11:25:18.535Z</time></trkpt><trkpt lat="42.49095" lon="14.1408667"><ele>155.0</ele><time>2026-05-03T11:25:19.536Z</time></trkpt><trkpt lat="42.491075" lon="14.1408767"><ele>155.0</ele><time>2026-05-03T11:25:21.535Z</time></trkpt><trkpt lat="42.4911333" lon="14.1408417"><ele>155.0</ele><time>2026-05-03T11:25:22.536Z</time></trkpt><trkpt lat="42.49118" lon="14.1407567"><ele>155.0</ele><time>2026-05-03T11:25:23.536Z</time></trkpt><trkpt lat="42.4912333" lon="14.140645"><ele>155.0</ele><time>2026-05-03T11:25:24.536Z</time></trkpt><trkpt lat="42.4912833" lon="14.1405583"><ele>155.0</ele><time>2026-05-03T11:25:25.536Z</time></trkpt><trkpt lat="42.4913283" lon="14.1404817"><ele>155.0</ele><time>2026-05-03T11:25:26.536Z</time></trkpt><trkpt lat="42.4913633" lon="14.1404033"><ele>156.2</ele><time>2026-05-03T11:25:27.535Z</time></trkpt><trkpt lat="42.49141" lon="14.14034"><ele>157.4</ele><time>2026-05-03T11:25:28.535Z</time></trkpt><trkpt lat="42.4915233" lon="14.14036"><ele>158.60000000000002</ele><time>2026-05-03T11:25:30.536Z</time></trkpt><trkpt lat="42.49158" lon="14.140435"><ele>159.8</ele><time>2026-05-03T11:25:31.536Z</time></trkpt><trkpt lat="42.4916217" lon="14.1405433"><ele>161.0</ele><time>2026-05-03T11:25:32.536Z</time></trkpt><trkpt lat="42.4916567" lon="14.1407033"><ele>161.0</ele><time>2026-05-03T11:25:33.536Z</time></trkpt><trkpt lat="42.4916917" lon="14.1408917"><ele>161.0</ele><time>2026-05-03T11:25:34.536Z</time></trkpt><trkpt lat="42.4917317" lon="14.141075"><ele>161.0</ele><time>2026-05-03T11:25:35.536Z</time></trkpt><trkpt lat="42.491765" lon="14.1412467"><ele>161.0</ele><time>2026-05-03T11:25:36.536Z</time></trkpt><trkpt lat="42.4917817" lon="14.1414183"><ele>161.0</ele><time>2026-05-03T11:25:37.536Z</time></trkpt><trkpt lat="42.4917683" lon="14.1415783"><ele>161.0</ele><time>2026-05-03T11:25:38.535Z</time></trkpt><trkpt lat="42.491735" lon="14.1417517"><ele>161.0</ele><time>2026-05-03T11:25:39.536Z</time></trkpt><trkpt lat="42.4916767" lon="14.1419183"><ele>161.0</ele><time>2026-05-03T11:25:40.536Z</time></trkpt><trkpt lat="42.491625" lon="14.1420667"><ele>161.0</ele><time>2026-05-03T11:25:41.536Z</time></trkpt><trkpt lat="42.491605" lon="14.1422133"><ele>161.0</ele><time>2026-05-03T11:25:42.535Z</time></trkpt><trkpt lat="42.4916133" lon="14.1423483"><ele>161.0</ele><time>2026-05-03T11:25:43.535Z</time></trkpt><trkpt lat="42.4916633" lon="14.1424783"><ele>161.0</ele><time>2026-05-03T11:25:44.536Z</time></trkpt><trkpt lat="42.49173" lon="14.1425983"><ele>161.0</ele><time>2026-05-03T11:25:45.536Z</time></trkpt><trkpt lat="42.4917933" lon="14.1427317"><ele>160.20000000000002</ele><time>2026-05-03T11:25:46.536Z</time></trkpt><trkpt lat="42.49182" lon="14.1428617"><ele>159.4</ele><time>2026-05-03T11:25:47.536Z</time></trkpt><trkpt lat="42.4918" lon="14.1429933"><ele>158.6</ele><time>2026-05-03T11:25:48.535Z</time></trkpt><trkpt lat="42.4917433" lon="14.1431033"><ele>157.8</ele><time>2026-05-03T11:25:49.536Z</time></trkpt><trkpt lat="42.4916633" lon="14.1432117"><ele>157.0</ele><time>2026-05-03T11:25:50.536Z</time></trkpt><trkpt lat="42.4915933" lon="14.1433267"><ele>156.2</ele><time>2026-05-03T11:25:51.535Z</time></trkpt><trkpt lat="42.49156" lon="14.143455"><ele>155.39999999999998</ele><time>2026-05-03T11:25:52.536Z</time></trkpt><trkpt lat="42.4915517" lon="14.14358"><ele>154.60000000000002</ele><time>2026-05-03T11:25:53.536Z</time></trkpt><trkpt lat="42.491575" lon="14.1437217"><ele>153.8</ele><time>2026-05-03T11:25:54.536Z</time></trkpt><trkpt lat="42.4916467" lon="14.1438817"><ele>153.0</ele><time>2026-05-03T11:25:55.536Z</time></trkpt><trkpt lat="42.4917483" lon="14.1440367"><ele>154.33333333333334</ele><time>2026-05-03T11:25:56.536Z</time></trkpt><trkpt lat="42.4918767" lon="14.1441733"><ele>155.66666666666669</ele><time>2026-05-03T11:25:57.536Z</time></trkpt><trkpt lat="42.4920433" lon="14.1442667"><ele>157.0</ele><time>2026-05-03T11:25:58.536Z</time></trkpt><trkpt lat="42.4922433" lon="14.14433"><ele>148.66666666666669</ele><time>2026-05-03T11:25:59.536Z</time></trkpt><trkpt lat="42.4924267" lon="14.1443917"><ele>140.33333333333334</ele><time>2026-05-03T11:26:00.536Z</time></trkpt><trkpt lat="42.4926017" lon="14.1444633"><ele>132.0</ele><time>2026-05-03T11:26:01.536Z</time></trkpt><trkpt lat="42.4927433" lon="14.1445417"><ele>132.0</ele><time>2026-05-03T11:26:02.536Z</time></trkpt><trkpt lat="42.49286" lon="14.1446283"><ele>132.0</ele><time>2026-05-03T11:26:03.535Z</time></trkpt><trkpt lat="42.4929717" lon="14.1447483"><ele>132.0</ele><time>2026-05-03T11:26:04.536Z</time></trkpt><trkpt lat="42.4930717" lon="14.144895"><ele>132.0</ele><time>2026-05-03T11:26:05.536Z</time></trkpt><trkpt lat="42.4931733" lon="14.14505"><ele>133.25</ele><time>2026-05-03T11:26:06.536Z</time></trkpt><trkpt lat="42.4932833" lon="14.1451817"><ele>134.5</ele><time>2026-05-03T11:26:07.536Z</time></trkpt><trkpt lat="42.493385" lon="14.1452633"><ele>135.75</ele><time>2026-05-03T11:26:08.536Z</time></trkpt><trkpt lat="42.4934733" lon="14.145295"><ele>137.0</ele><time>2026-05-03T11:26:09.536Z</time></trkpt><trkpt lat="42.4935717" lon="14.1452917"><ele>137.0</ele><time>2026-05-03T11:26:10.535Z</time></trkpt><trkpt lat="42.4936883" lon="14.1452333"><ele>137.0</ele><time>2026-05-03T11:26:11.536Z</time></trkpt><trkpt lat="42.4937967" lon="14.1451383"><ele>137.0</ele><time>2026-05-03T11:26:12.536Z</time></trkpt><trkpt lat="42.4938883" lon="14.1450033"><ele>137.0</ele><time>2026-05-03T11:26:13.536Z</time></trkpt><trkpt lat="42.4939667" lon="14.1448317"><ele>130.66666666666666</ele><time>2026-05-03T11:26:14.535Z</time></trkpt><trkpt lat="42.4940033" lon="14.14463"><ele>124.33333333333334</ele><time>2026-05-03T11:26:15.535Z</time></trkpt><trkpt lat="42.4940317" lon="14.144415"><ele>118.0</ele><time>2026-05-03T11:26:16.535Z</time></trkpt><trkpt lat="42.4940767" lon="14.1442233"><ele>118.0</ele><time>2026-05-03T11:26:17.536Z</time></trkpt><trkpt lat="42.49414" lon="14.14407"><ele>118.0</ele><time>2026-05-03T11:26:18.536Z</time></trkpt><trkpt lat="42.49423" lon="14.1439633"><ele>118.0</ele><time>2026-05-03T11:26:19.536Z</time></trkpt><trkpt lat="42.494345" lon="14.143885"><ele>118.0</ele><time>2026-05-03T11:26:20.536Z</time></trkpt><trkpt lat="42.4944667" lon="14.1438333"><ele>113.33333333333334</ele><time>2026-05-03T11:26:21.536Z</time></trkpt><trkpt lat="42.494615" lon="14.1438083"><ele>108.66666666666666</ele><time>2026-05-03T11:26:22.535Z</time></trkpt><trkpt lat="42.4947867" lon="14.1438017"><ele>104.0</ele><time>2026-05-03T11:26:23.536Z</time></trkpt><trkpt lat="42.4949783" lon="14.143805"><ele>104.0</ele><time>2026-05-03T11:26:24.536Z</time></trkpt><trkpt lat="42.4951667" lon="14.143785"><ele>104.0</ele><time>2026-05-03T11:26:25.536Z</time></trkpt><trkpt lat="42.4953433" lon="14.143735"><ele>104.0</ele><time>2026-05-03T11:26:26.536Z</time></trkpt><trkpt lat="42.49551" lon="14.1436633"><ele>106.33333333333333</ele><time>2026-05-03T11:26:27.536Z</time></trkpt><trkpt lat="42.495675" lon="14.1435767"><ele>108.66666666666666</ele><time>2026-05-03T11:26:28.535Z</time></trkpt><trkpt lat="42.4958317" lon="14.1434567"><ele>111.0</ele><time>2026-05-03T11:26:29.536Z</time></trkpt><trkpt lat="42.495975" lon="14.1433083"><ele>108.0</ele><time>2026-05-03T11:26:30.536Z</time></trkpt><trkpt lat="42.49612" lon="14.1431667"><ele>105.0</ele><time>2026-05-03T11:26:31.535Z</time></trkpt><trkpt lat="42.4962717" lon="14.1430467"><ele>102.0</ele><time>2026-05-03T11:26:32.535Z</time></trkpt><trkpt lat="42.4964117" lon="14.1429233"><ele>101.33333333333334</ele><time>2026-05-03T11:26:33.536Z</time></trkpt><trkpt lat="42.4965467" lon="14.1428133"><ele>100.66666666666667</ele><time>2026-05-03T11:26:34.536Z</time></trkpt><trkpt lat="42.49668" lon="14.1427017"><ele>100.0</ele><time>2026-05-03T11:26:35.535Z</time></trkpt><trkpt lat="42.4968" lon="14.1425917"><ele>100.0</ele><time>2026-05-03T11:26:36.536Z</time></trkpt><trkpt lat="42.496915" lon="14.1424933"><ele>100.0</ele><time>2026-05-03T11:26:37.536Z</time></trkpt><trkpt lat="42.4970133" lon="14.1424033"><ele>100.0</ele><time>2026-05-03T11:26:38.536Z</time></trkpt><trkpt lat="42.4971033" lon="14.1423133"><ele>100.0</ele><time>2026-05-03T11:26:39.536Z</time></trkpt><trkpt lat="42.497185" lon="14.142215"><ele>97.50000000000001</ele><time>2026-05-03T11:26:40.535Z</time></trkpt><trkpt lat="42.4972583" lon="14.1421233"><ele>95.0</ele><time>2026-05-03T11:26:41.535Z</time></trkpt><trkpt lat="42.497325" lon="14.1420433"><ele>92.5</ele><time>2026-05-03T11:26:42.535Z</time></trkpt><trkpt lat="42.497395" lon="14.1419783"><ele>90.0</ele><time>2026-05-03T11:26:43.536Z</time></trkpt><trkpt lat="42.4974583" lon="14.14195"><ele>87.5</ele><time>2026-05-03T11:26:44.535Z</time></trkpt><trkpt lat="42.4975317" lon="14.141955"><ele>85.0</ele><time>2026-05-03T11:26:45.536Z</time></trkpt><trkpt lat="42.4975933" lon="14.142005"><ele>85.0</ele><time>2026-05-03T11:26:46.535Z</time></trkpt><trkpt lat="42.4976333" lon="14.142075"><ele>85.0</ele><time>2026-05-03T11:26:47.535Z</time></trkpt><trkpt lat="42.4976433" lon="14.1421683"><ele>85.0</ele><time>2026-05-03T11:26:48.536Z</time></trkpt><trkpt lat="42.497615" lon="14.1422717"><ele>85.0</ele><time>2026-05-03T11:26:49.536Z</time></trkpt><trkpt lat="42.4975483" lon="14.1424067"><ele>85.0</ele><time>2026-05-03T11:26:50.536Z</time></trkpt><trkpt lat="42.4974433" lon="14.1425833"><ele>85.33333333333333</ele><time>2026-05-03T11:26:51.535Z</time></trkpt><trkpt lat="42.4973333" lon="14.1427617"><ele>85.66666666666667</ele><time>2026-05-03T11:26:52.536Z</time></trkpt><trkpt lat="42.4972217" lon="14.1429567"><ele>86.0</ele><time>2026-05-03T11:26:53.536Z</time></trkpt><trkpt lat="42.4970917" lon="14.143175"><ele>89.33333333333334</ele><time>2026-05-03T11:26:54.536Z</time></trkpt><trkpt lat="42.4969717" lon="14.1433633"><ele>92.66666666666667</ele><time>2026-05-03T11:26:55.536Z</time></trkpt><trkpt lat="42.4968733" lon="14.1435233"><ele>96.0</ele><time>2026-05-03T11:26:56.536Z</time></trkpt><trkpt lat="42.49678" lon="14.14366"><ele>96.0</ele><time>2026-05-03T11:26:57.536Z</time></trkpt><trkpt lat="42.496685" lon="14.1437883"><ele>96.0</ele><time>2026-05-03T11:26:58.536Z</time></trkpt><trkpt lat="42.4965967" lon="14.1439267"><ele>96.0</ele><time>2026-05-03T11:26:59.536Z</time></trkpt><trkpt lat="42.496525" lon="14.1440617"><ele>96.0</ele><time>2026-05-03T11:27:00.536Z</time></trkpt><trkpt lat="42.49647" lon="14.14421"><ele>92.5</ele><time>2026-05-03T11:27:01.536Z</time></trkpt><trkpt lat="42.4964317" lon="14.14438"><ele>89.0</ele><time>2026-05-03T11:27:02.535Z</time></trkpt><trkpt lat="42.496425" lon="14.144575"><ele>85.5</ele><time>2026-05-03T11:27:03.536Z</time></trkpt><trkpt lat="42.4964283" lon="14.1447583"><ele>82.0</ele><time>2026-05-03T11:27:04.536Z</time></trkpt><trkpt lat="42.496415" lon="14.1449267"><ele>84.5</ele><time>2026-05-03T11:27:05.535Z</time></trkpt><trkpt lat="42.49638" lon="14.1450867"><ele>87.0</ele><time>2026-05-03T11:27:06.535Z</time></trkpt><trkpt lat="42.49632" lon="14.1452233"><ele>89.5</ele><time>2026-05-03T11:27:07.535Z</time></trkpt><trkpt lat="42.4962533" lon="14.1453633"><ele>92.0</ele><time>2026-05-03T11:27:08.535Z</time></trkpt><trkpt lat="42.4961933" lon="14.1455083"><ele>92.0</ele><time>2026-05-03T11:27:09.535Z</time></trkpt><trkpt lat="42.4961683" lon="14.1456467"><ele>92.0</ele><time>2026-05-03T11:27:10.534Z</time></trkpt><trkpt lat="42.4961833" lon="14.1457767"><ele>92.0</ele><time>2026-05-03T11:27:11.535Z</time></trkpt><trkpt lat="42.4962317" lon="14.1458883"><ele>92.0</ele><time>2026-05-03T11:27:12.535Z</time></trkpt><trkpt lat="42.4962967" lon="14.14598"><ele>92.0</ele><time>2026-05-03T11:27:13.535Z</time></trkpt><trkpt lat="42.4963833" lon="14.1460217"><ele>88.0</ele><time>2026-05-03T11:27:14.535Z</time></trkpt><trkpt lat="42.49648" lon="14.1460317"><ele>84.0</ele><time>2026-05-03T11:27:15.535Z</time></trkpt><trkpt lat="42.496575" lon="14.1460033"><ele>80.0</ele><time>2026-05-03T11:27:16.534Z</time></trkpt><trkpt lat="42.4966533" lon="14.145935"><ele>76.0</ele><time>2026-05-03T11:27:17.535Z</time></trkpt><trkpt lat="42.496705" lon="14.1458083"><ele>72.0</ele><time>2026-05-03T11:27:18.534Z</time></trkpt><trkpt lat="42.4967467" lon="14.145635"><ele>71.33333333333333</ele><time>2026-05-03T11:27:19.535Z</time></trkpt><trkpt lat="42.496765" lon="14.14541"><ele>70.66666666666666</ele><time>2026-05-03T11:27:20.535Z</time></trkpt><trkpt lat="42.49679" lon="14.1451767"><ele>70.0</ele><time>2026-05-03T11:27:21.535Z</time></trkpt><trkpt lat="42.4968483" lon="14.1449733"><ele>66.66666666666666</ele><time>2026-05-03T11:27:22.535Z</time></trkpt><trkpt lat="42.496935" lon="14.144795"><ele>63.33333333333333</ele><time>2026-05-03T11:27:23.534Z</time></trkpt><trkpt lat="42.49704" lon="14.1446533"><ele>60.0</ele><time>2026-05-03T11:27:24.534Z</time></trkpt><trkpt lat="42.4971717" lon="14.1445417"><ele>60.0</ele><time>2026-05-03T11:27:25.534Z</time></trkpt><trkpt lat="42.4973133" lon="14.14445"><ele>60.0</ele><time>2026-05-03T11:27:26.534Z</time></trkpt><trkpt lat="42.4974567" lon="14.1443633"><ele>60.0</ele><time>2026-05-03T11:27:27.535Z</time></trkpt><trkpt lat="42.4975867" lon="14.1442517"><ele>60.0</ele><time>2026-05-03T11:27:28.534Z</time></trkpt><trkpt lat="42.4977133" lon="14.1441167"><ele>60.0</ele><time>2026-05-03T11:27:29.535Z</time></trkpt><trkpt lat="42.4978433" lon="14.14396"><ele>60.0</ele><time>2026-05-03T11:27:30.535Z</time></trkpt><trkpt lat="42.497965" lon="14.1437633"><ele>57.0</ele><time>2026-05-03T11:27:31.534Z</time></trkpt><trkpt lat="42.49809" lon="14.1435683"><ele>54.0</ele><time>2026-05-03T11:27:32.534Z</time></trkpt><trkpt lat="42.4982017" lon="14.1433817"><ele>51.0</ele><time>2026-05-03T11:27:33.535Z</time></trkpt><trkpt lat="42.498295" lon="14.1432183"><ele>53.599999999999994</ele><time>2026-05-03T11:27:34.535Z</time></trkpt><trkpt lat="42.49838" lon="14.143085"><ele>56.2</ele><time>2026-05-03T11:27:35.535Z</time></trkpt><trkpt lat="42.4984533" lon="14.142965"><ele>58.800000000000004</ele><time>2026-05-03T11:27:36.535Z</time></trkpt><trkpt lat="42.4985133" lon="14.1428617"><ele>61.400000000000006</ele><time>2026-05-03T11:27:37.535Z</time></trkpt><trkpt lat="42.4985633" lon="14.1427817"><ele>64.0</ele><time>2026-05-03T11:27:38.535Z</time></trkpt><trkpt lat="42.498635" lon="14.1427133"><ele>64.0</ele><time>2026-05-03T11:27:40.535Z</time></trkpt><trkpt lat="42.4987183" lon="14.1426383"><ele>64.0</ele><time>2026-05-03T11:27:44.535Z</time></trkpt><trkpt lat="42.4987467" lon="14.1425583"><ele>64.0</ele><time>2026-05-03T11:27:45.535Z</time></trkpt><trkpt lat="42.4987633" lon="14.1424517"><ele>64.0</ele><time>2026-05-03T11:27:46.535Z</time></trkpt><trkpt lat="42.49879" lon="14.1423167"><ele>64.0</ele><time>2026-05-03T11:27:47.535Z</time></trkpt><trkpt lat="42.4988383" lon="14.1421583"><ele>61.0</ele><time>2026-05-03T11:27:48.535Z</time></trkpt><trkpt lat="42.4988983" lon="14.1419833"><ele>58.0</ele><time>2026-05-03T11:27:49.534Z</time></trkpt><trkpt lat="42.4989717" lon="14.141825"><ele>55.0</ele><time>2026-05-03T11:27:50.535Z</time></trkpt><trkpt lat="42.4990617" lon="14.141665"><ele>52.0</ele><time>2026-05-03T11:27:51.534Z</time></trkpt><trkpt lat="42.4991567" lon="14.1415183"><ele>52.0</ele><time>2026-05-03T11:27:52.534Z</time></trkpt><trkpt lat="42.49925" lon="14.1413783"><ele>52.0</ele><time>2026-05-03T11:27:53.534Z</time></trkpt><trkpt lat="42.499355" lon="14.1412583"><ele>52.0</ele><time>2026-05-03T11:27:54.535Z</time></trkpt><trkpt lat="42.499455" lon="14.1411433"><ele>52.0</ele><time>2026-05-03T11:27:55.535Z</time></trkpt><trkpt lat="42.4995617" lon="14.141035"><ele>47.666666666666664</ele><time>2026-05-03T11:27:56.534Z</time></trkpt><trkpt lat="42.4996667" lon="14.1409267"><ele>43.33333333333333</ele><time>2026-05-03T11:27:57.534Z</time></trkpt><trkpt lat="42.4997883" lon="14.1408017"><ele>39.0</ele><time>2026-05-03T11:27:58.535Z</time></trkpt><trkpt lat="42.4999117" lon="14.1406483"><ele>39.0</ele><time>2026-05-03T11:27:59.535Z</time></trkpt><trkpt lat="42.50003" lon="14.140485"><ele>39.0</ele><time>2026-05-03T11:28:00.535Z</time></trkpt><trkpt lat="42.50013" lon="14.14032"><ele>39.0</ele><time>2026-05-03T11:28:01.535Z</time></trkpt><trkpt lat="42.5002433" lon="14.140155"><ele>39.0</ele><time>2026-05-03T11:28:02.534Z</time></trkpt><trkpt lat="42.5003467" lon="14.13998"><ele>39.0</ele><time>2026-05-03T11:28:03.535Z</time></trkpt><trkpt lat="42.5004517" lon="14.1398117"><ele>39.0</ele><time>2026-05-03T11:28:04.534Z</time></trkpt><trkpt lat="42.5005517" lon="14.1396517"><ele>35.75</ele><time>2026-05-03T11:28:05.534Z</time></trkpt><trkpt lat="42.5006467" lon="14.1395017"><ele>32.5</ele><time>2026-05-03T11:28:06.534Z</time></trkpt><trkpt lat="42.50074" lon="14.1393583"><ele>29.25</ele><time>2026-05-03T11:28:07.534Z</time></trkpt><trkpt lat="42.5008083" lon="14.139215"><ele>26.0</ele><time>2026-05-03T11:28:08.535Z</time></trkpt><trkpt lat="42.500875" lon="14.1390667"><ele>24.75</ele><time>2026-05-03T11:28:09.535Z</time></trkpt><trkpt lat="42.5009467" lon="14.13891"><ele>23.5</ele><time>2026-05-03T11:28:10.535Z</time></trkpt><trkpt lat="42.5010167" lon="14.13876"><ele>22.25</ele><time>2026-05-03T11:28:11.535Z</time></trkpt><trkpt lat="42.5010767" lon="14.1386283"><ele>21.0</ele><time>2026-05-03T11:28:12.534Z</time></trkpt><trkpt lat="42.50113" lon="14.1385117"><ele>21.0</ele><time>2026-05-03T11:28:13.535Z</time></trkpt><trkpt lat="42.5011817" lon="14.1383783"><ele>21.0</ele><time>2026-05-03T11:28:14.534Z</time></trkpt><trkpt lat="42.50123" lon="14.1382217"><ele>21.0</ele><time>2026-05-03T11:28:15.534Z</time></trkpt><trkpt lat="42.50127" lon="14.1380267"><ele>21.0</ele><time>2026-05-03T11:28:16.535Z</time></trkpt><trkpt lat="42.501315" lon="14.1378183"><ele>19.333333333333332</ele><time>2026-05-03T11:28:17.535Z</time></trkpt><trkpt lat="42.5013717" lon="14.1375933"><ele>17.666666666666664</ele><time>2026-05-03T11:28:18.535Z</time></trkpt><trkpt lat="42.5014383" lon="14.13736"><ele>16.0</ele><time>2026-05-03T11:28:19.534Z</time></trkpt><trkpt lat="42.501505" lon="14.1371083"><ele>15.333333333333332</ele><time>2026-05-03T11:28:20.535Z</time></trkpt><trkpt lat="42.50157" lon="14.1368667"><ele>14.666666666666668</ele><time>2026-05-03T11:28:21.535Z</time></trkpt><trkpt lat="42.50163" lon="14.1366217"><ele>14.0</ele><time>2026-05-03T11:28:22.535Z</time></trkpt><trkpt lat="42.5016967" lon="14.136375"><ele>14.0</ele><time>2026-05-03T11:28:23.534Z</time></trkpt><trkpt lat="42.50175" lon="14.1361483"><ele>14.0</ele><time>2026-05-03T11:28:24.534Z</time></trkpt><trkpt lat="42.5017983" lon="14.1359467"><ele>14.0</ele><time>2026-05-03T11:28:25.535Z</time></trkpt><trkpt lat="42.5018583" lon="14.1357317"><ele>14.333333333333334</ele><time>2026-05-03T11:28:26.535Z</time></trkpt><trkpt lat="42.5019083" lon="14.135505"><ele>14.666666666666668</ele><time>2026-05-03T11:28:27.535Z</time></trkpt><trkpt lat="42.50197" lon="14.135305"><ele>15.0</ele><time>2026-05-03T11:28:28.535Z</time></trkpt><trkpt lat="42.5020167" lon="14.1351417"><ele>15.0</ele><time>2026-05-03T11:28:29.534Z</time></trkpt><trkpt lat="42.5020683" lon="14.1349933"><ele>15.0</ele><time>2026-05-03T11:28:30.535Z</time></trkpt><trkpt lat="42.5021117" lon="14.1348783"><ele>15.0</ele><time>2026-05-03T11:28:31.535Z</time></trkpt><trkpt lat="42.5021667" lon="14.1348083"><ele>15.0</ele><time>2026-05-03T11:28:32.535Z</time></trkpt><trkpt lat="42.50224" lon="14.134755"><ele>15.0</ele><time>2026-05-03T11:28:33.535Z</time></trkpt><trkpt lat="42.50233" lon="14.1347267"><ele>14.75</ele><time>2026-05-03T11:28:34.535Z</time></trkpt><trkpt lat="42.5024283" lon="14.1347333"><ele>14.5</ele><time>2026-05-03T11:28:35.534Z</time></trkpt><trkpt lat="42.502525" lon="14.1347833"><ele>14.25</ele><time>2026-05-03T11:28:36.534Z</time></trkpt><trkpt lat="42.5026333" lon="14.1348883"><ele>14.0</ele><time>2026-05-03T11:28:37.535Z</time></trkpt><trkpt lat="42.502745" lon="14.1350233"><ele>14.0</ele><time>2026-05-03T11:28:38.534Z</time></trkpt><trkpt lat="42.5028333" lon="14.1351467"><ele>13.999999999999998</ele><time>2026-05-03T11:28:39.535Z</time></trkpt><trkpt lat="42.5029083" lon="14.1352317"><ele>13.999999999999998</ele><time>2026-05-03T11:28:40.535Z</time></trkpt><trkpt lat="42.5029683" lon="14.1352883"><ele>14.0</ele><time>2026-05-03T11:28:41.535Z</time></trkpt><trkpt lat="42.503065" lon="14.1352983"><ele>14.0</ele><time>2026-05-03T11:28:43.535Z</time></trkpt><trkpt lat="42.5031367" lon="14.1351633"><ele>13.799999999999999</ele><time>2026-05-03T11:28:45.534Z</time></trkpt><trkpt lat="42.5031667" lon="14.1350517"><ele>13.599999999999998</ele><time>2026-05-03T11:28:46.535Z</time></trkpt><trkpt lat="42.5031983" lon="14.134925"><ele>13.4</ele><time>2026-05-03T11:28:47.535Z</time></trkpt><trkpt lat="42.503235" lon="14.1347883"><ele>13.2</ele><time>2026-05-03T11:28:48.535Z</time></trkpt><trkpt lat="42.5032733" lon="14.1346333"><ele>13.0</ele><time>2026-05-03T11:28:49.534Z</time></trkpt><trkpt lat="42.5033133" lon="14.13447"><ele>13.0</ele><time>2026-05-03T11:28:50.535Z</time></trkpt><trkpt lat="42.503355" lon="14.1343167"><ele>13.0</ele><time>2026-05-03T11:28:51.535Z</time></trkpt><trkpt lat="42.50339" lon="14.13417"><ele>13.0</ele><time>2026-05-03T11:28:52.535Z</time></trkpt><trkpt lat="42.50343" lon="14.1340083"><ele>13.0</ele><time>2026-05-03T11:28:53.535Z</time></trkpt><trkpt lat="42.50347" lon="14.133855"><ele>13.0</ele><time>2026-05-03T11:28:54.534Z</time></trkpt><trkpt lat="42.5035183" lon="14.1337433"><ele>13.0</ele><time>2026-05-03T11:28:55.535Z</time></trkpt><trkpt lat="42.50358" lon="14.1336467"><ele>13.0</ele><time>2026-05-03T11:28:56.535Z</time></trkpt><trkpt lat="42.5036783" lon="14.13356"><ele>13.0</ele><time>2026-05-03T11:28:57.535Z</time></trkpt><trkpt lat="42.503785" lon="14.13346"><ele>13.0</ele><time>2026-05-03T11:28:58.535Z</time></trkpt><trkpt lat="42.5038883" lon="14.1333633"><ele>13.0</ele><time>2026-05-03T11:28:59.535Z</time></trkpt><trkpt lat="42.504" lon="14.13327"><ele>13.0</ele><time>2026-05-03T11:29:00.535Z</time></trkpt><trkpt lat="42.5041183" lon="14.1331617"><ele>13.0</ele><time>2026-05-03T11:29:01.534Z</time></trkpt><trkpt lat="42.50423" lon="14.1330517"><ele>13.0</ele><time>2026-05-03T11:29:02.535Z</time></trkpt><trkpt lat="42.5043483" lon="14.132945"><ele>13.0</ele><time>2026-05-03T11:29:03.535Z</time></trkpt><trkpt lat="42.5044683" lon="14.1328233"><ele>13.0</ele><time>2026-05-03T11:29:04.535Z</time></trkpt><trkpt lat="42.5045967" lon="14.1327083"><ele>13.0</ele><time>2026-05-03T11:29:05.534Z</time></trkpt><trkpt lat="42.504735" lon="14.1325917"><ele>11.666666666666666</ele><time>2026-05-03T11:29:06.534Z</time></trkpt><trkpt lat="42.5048667" lon="14.1324717"><ele>10.333333333333332</ele><time>2026-05-03T11:29:07.535Z</time></trkpt><trkpt lat="42.5050067" lon="14.13235"><ele>9.0</ele><time>2026-05-03T11:29:08.535Z</time></trkpt><trkpt lat="42.5051417" lon="14.1322267"><ele>9.0</ele><time>2026-05-03T11:29:09.534Z</time></trkpt><trkpt lat="42.50528" lon="14.1321067"><ele>9.0</ele><time>2026-05-03T11:29:10.535Z</time></trkpt><trkpt lat="42.505415" lon="14.13198"><ele>9.0</ele><time>2026-05-03T11:29:11.534Z</time></trkpt><trkpt lat="42.50555" lon="14.1318583"><ele>9.0</ele><time>2026-05-03T11:29:12.534Z</time></trkpt><trkpt lat="42.5056833" lon="14.1317383"><ele>9.0</ele><time>2026-05-03T11:29:13.535Z</time></trkpt><trkpt lat="42.5058217" lon="14.13161"><ele>9.0</ele><time>2026-05-03T11:29:14.534Z</time></trkpt><trkpt lat="42.5059483" lon="14.1314917"><ele>9.0</ele><time>2026-05-03T11:29:15.534Z</time></trkpt><trkpt lat="42.5060733" lon="14.1313767"><ele>9.0</ele><time>2026-05-03T11:29:16.534Z</time></trkpt><trkpt lat="42.5061933" lon="14.1312667"><ele>9.0</ele><time>2026-05-03T11:29:17.535Z</time></trkpt><trkpt lat="42.506305" lon="14.131175"><ele>9.0</ele><time>2026-05-03T11:29:18.534Z</time></trkpt><trkpt lat="42.5064217" lon="14.1310917"><ele>9.0</ele><time>2026-05-03T11:29:19.535Z</time></trkpt><trkpt lat="42.5065517" lon="14.1310083"><ele>9.0</ele><time>2026-05-03T11:29:20.534Z</time></trkpt><trkpt lat="42.506665" lon="14.13095"><ele>9.0</ele><time>2026-05-03T11:29:21.535Z</time></trkpt><trkpt lat="42.5067533" lon="14.13091"><ele>9.0</ele><time>2026-05-03T11:29:22.535Z</time></trkpt><trkpt lat="42.506825" lon="14.1308867"><ele>9.0</ele><time>2026-05-03T11:29:23.534Z</time></trkpt><trkpt lat="42.50689" lon="14.1308567"><ele>9.0</ele><time>2026-05-03T11:29:24.535Z</time></trkpt><trkpt lat="42.50698" lon="14.1308083"><ele>9.0</ele><time>2026-05-03T11:29:25.535Z</time></trkpt><trkpt lat="42.5071" lon="14.1307567"><ele>9.0</ele><time>2026-05-03T11:29:26.534Z</time></trkpt><trkpt lat="42.5072433" lon="14.130715"><ele>9.0</ele><time>2026-05-03T11:29:27.535Z</time></trkpt><trkpt lat="42.507415" lon="14.1306683"><ele>10.0</ele><time>2026-05-03T11:29:28.535Z</time></trkpt><trkpt lat="42.5075917" lon="14.130605"><ele>11.0</ele><time>2026-05-03T11:29:29.535Z</time></trkpt><trkpt lat="42.507775" lon="14.1305117"><ele>12.0</ele><time>2026-05-03T11:29:30.535Z</time></trkpt><trkpt lat="42.5079683" lon="14.1303917"><ele>12.0</ele><time>2026-05-03T11:29:31.535Z</time></trkpt><trkpt lat="42.508135" lon="14.13027"><ele>12.0</ele><time>2026-05-03T11:29:32.535Z</time></trkpt><trkpt lat="42.50828" lon="14.1301517"><ele>12.0</ele><time>2026-05-03T11:29:33.535Z</time></trkpt><trkpt lat="42.5084117" lon="14.1300383"><ele>12.0</ele><time>2026-05-03T11:29:34.535Z</time></trkpt><trkpt lat="42.5085233" lon="14.1299367"><ele>12.0</ele><time>2026-05-03T11:29:35.535Z</time></trkpt><trkpt lat="42.5086233" lon="14.12985"><ele>12.0</ele><time>2026-05-03T11:29:36.535Z</time></trkpt><trkpt lat="42.508705" lon="14.129785"><ele>12.0</ele><time>2026-05-03T11:29:37.535Z</time></trkpt><trkpt lat="42.5087833" lon="14.1297367"><ele>12.0</ele><time>2026-05-03T11:29:38.535Z</time></trkpt><trkpt lat="42.508865" lon="14.1297233"><ele>10.75</ele><time>2026-05-03T11:29:39.535Z</time></trkpt><trkpt lat="42.50896" lon="14.1297633"><ele>9.5</ele><time>2026-05-03T11:29:40.535Z</time></trkpt><trkpt lat="42.5090733" lon="14.1298533"><ele>8.25</ele><time>2026-05-03T11:29:41.535Z</time></trkpt><trkpt lat="42.5091983" lon="14.1299933"><ele>7.0</ele><time>2026-05-03T11:29:42.534Z</time></trkpt><trkpt lat="42.50933" lon="14.1301733"><ele>7.0</ele><time>2026-05-03T11:29:43.534Z</time></trkpt><trkpt lat="42.50947" lon="14.13038"><ele>7.0</ele><time>2026-05-03T11:29:44.534Z</time></trkpt><trkpt lat="42.509615" lon="14.1306"><ele>7.0</ele><time>2026-05-03T11:29:45.535Z</time></trkpt><trkpt lat="42.5097617" lon="14.1308333"><ele>6.0</ele><time>2026-05-03T11:29:46.534Z</time></trkpt><trkpt lat="42.509925" lon="14.13108"><ele>5.0</ele><time>2026-05-03T11:29:47.535Z</time></trkpt><trkpt lat="42.510085" lon="14.13134"><ele>5.5</ele><time>2026-05-03T11:29:48.535Z</time></trkpt><trkpt lat="42.5102433" lon="14.13162"><ele>6.0</ele><time>2026-05-03T11:29:49.534Z</time></trkpt><trkpt lat="42.5103933" lon="14.131905"><ele>6.0</ele><time>2026-05-03T11:29:50.535Z</time></trkpt><trkpt lat="42.5105483" lon="14.13219"><ele>6.0</ele><time>2026-05-03T11:29:51.534Z</time></trkpt><trkpt lat="42.5107033" lon="14.132485"><ele>6.0</ele><time>2026-05-03T11:29:52.534Z</time></trkpt><trkpt lat="42.5108617" lon="14.1327683"><ele>6.0</ele><time>2026-05-03T11:29:53.534Z</time></trkpt><trkpt lat="42.511025" lon="14.1330433"><ele>6.5</ele><time>2026-05-03T11:29:54.534Z</time></trkpt><trkpt lat="42.511185" lon="14.13331"><ele>7.0</ele><time>2026-05-03T11:29:55.535Z</time></trkpt><trkpt lat="42.5113233" lon="14.133565"><ele>6.333333333333334</ele><time>2026-05-03T11:29:56.535Z</time></trkpt><trkpt lat="42.511445" lon="14.1338033"><ele>5.666666666666667</ele><time>2026-05-03T11:29:57.534Z</time></trkpt><trkpt lat="42.51156" lon="14.1340317"><ele>5.0</ele><time>2026-05-03T11:29:58.534Z</time></trkpt><trkpt lat="42.5117" lon="14.1342417"><ele>5.0</ele><time>2026-05-03T11:29:59.535Z</time></trkpt><trkpt lat="42.5118583" lon="14.1344317"><ele>5.0</ele><time>2026-05-03T11:30:00.534Z</time></trkpt><trkpt lat="42.5120417" lon="14.1345983"><ele>5.0</ele><time>2026-05-03T11:30:01.534Z</time></trkpt><trkpt lat="42.51223" lon="14.134735"><ele>4.333333333333334</ele><time>2026-05-03T11:30:02.534Z</time></trkpt><trkpt lat="42.5124117" lon="14.1348517"><ele>3.666666666666667</ele><time>2026-05-03T11:30:03.534Z</time></trkpt><trkpt lat="42.5125933" lon="14.13497"><ele>3.0</ele><time>2026-05-03T11:30:04.534Z</time></trkpt><trkpt lat="42.5127583" lon="14.1351117"><ele>2.6666666666666665</ele><time>2026-05-03T11:30:05.535Z</time></trkpt><trkpt lat="42.5129167" lon="14.1352733"><ele>2.333333333333333</ele><time>2026-05-03T11:30:06.534Z</time></trkpt><trkpt lat="42.5130483" lon="14.135455"><ele>2.0</ele><time>2026-05-03T11:30:07.535Z</time></trkpt><trkpt lat="42.513165" lon="14.1356617"><ele>2.333333333333333</ele><time>2026-05-03T11:30:08.535Z</time></trkpt><trkpt lat="42.5132583" lon="14.1358883"><ele>2.6666666666666665</ele><time>2026-05-03T11:30:09.535Z</time></trkpt><trkpt lat="42.51333" lon="14.1361333"><ele>3.0</ele><time>2026-05-03T11:30:10.534Z</time></trkpt><trkpt lat="42.5133933" lon="14.1363967"><ele>3.333333333333333</ele><time>2026-05-03T11:30:11.535Z</time></trkpt><trkpt lat="42.5134533" lon="14.1366567"><ele>3.6666666666666665</ele><time>2026-05-03T11:30:12.535Z</time></trkpt><trkpt lat="42.51351" lon="14.13688"><ele>4.0</ele><time>2026-05-03T11:30:13.534Z</time></trkpt><trkpt lat="42.5135717" lon="14.1370717"><ele>4.0</ele><time>2026-05-03T11:30:14.535Z</time></trkpt><trkpt lat="42.5136367" lon="14.137225"><ele>4.0</ele><time>2026-05-03T11:30:15.534Z</time></trkpt><trkpt lat="42.5136867" lon="14.1373633"><ele>4.0</ele><time>2026-05-03T11:30:16.535Z</time></trkpt><trkpt lat="42.5137283" lon="14.1374917"><ele>4.0</ele><time>2026-05-03T11:30:17.535Z</time></trkpt><trkpt lat="42.51375" lon="14.1376217"><ele>4.0</ele><time>2026-05-03T11:30:18.535Z</time></trkpt><trkpt lat="42.5137433" lon="14.137775"><ele>4.25</ele><time>2026-05-03T11:30:19.535Z</time></trkpt><trkpt lat="42.5137067" lon="14.137945"><ele>4.5</ele><time>2026-05-03T11:30:20.535Z</time></trkpt><trkpt lat="42.51365" lon="14.1381067"><ele>4.75</ele><time>2026-05-03T11:30:21.534Z</time></trkpt><trkpt lat="42.5135733" lon="14.1382833"><ele>5.0</ele><time>2026-05-03T11:30:22.535Z</time></trkpt><trkpt lat="42.5134817" lon="14.1384817"><ele>5.0</ele><time>2026-05-03T11:30:23.535Z</time></trkpt><trkpt lat="42.513405" lon="14.1386683"><ele>5.0</ele><time>2026-05-03T11:30:24.535Z</time></trkpt><trkpt lat="42.5133283" lon="14.1388367"><ele>5.0</ele><time>2026-05-03T11:30:25.535Z</time></trkpt><trkpt lat="42.5132567" lon="14.1390067"><ele>5.0</ele><time>2026-05-03T11:30:26.535Z</time></trkpt><trkpt lat="42.5131883" lon="14.1392"><ele>5.666666666666667</ele><time>2026-05-03T11:30:27.534Z</time></trkpt><trkpt lat="42.51311" lon="14.1394"><ele>6.333333333333334</ele><time>2026-05-03T11:30:28.534Z</time></trkpt><trkpt lat="42.5130333" lon="14.139595"><ele>7.0</ele><time>2026-05-03T11:30:29.535Z</time></trkpt><trkpt lat="42.5129683" lon="14.1397733"><ele>6.75</ele><time>2026-05-03T11:30:30.535Z</time></trkpt><trkpt lat="42.51291" lon="14.13994"><ele>6.5</ele><time>2026-05-03T11:30:31.535Z</time></trkpt><trkpt lat="42.512855" lon="14.1401133"><ele>6.25</ele><time>2026-05-03T11:30:32.535Z</time></trkpt><trkpt lat="42.5127983" lon="14.14029"><ele>6.0</ele><time>2026-05-03T11:30:33.535Z</time></trkpt><trkpt lat="42.512745" lon="14.1404683"><ele>6.0</ele><time>2026-05-03T11:30:34.534Z</time></trkpt><trkpt lat="42.512685" lon="14.1406567"><ele>6.0</ele><time>2026-05-03T11:30:35.535Z</time></trkpt><trkpt lat="42.5126167" lon="14.1408367"><ele>6.0</ele><time>2026-05-03T11:30:36.534Z</time></trkpt><trkpt lat="42.512555" lon="14.141"><ele>6.0</ele><time>2026-05-03T11:30:37.535Z</time></trkpt><trkpt lat="42.5124883" lon="14.1411433"><ele>6.333333333333333</ele><time>2026-05-03T11:30:38.535Z</time></trkpt><trkpt lat="42.5124583" lon="14.1412733"><ele>6.666666666666666</ele><time>2026-05-03T11:30:39.535Z</time></trkpt><trkpt lat="42.5124467" lon="14.1413733"><ele>7.0</ele><time>2026-05-03T11:30:40.535Z</time></trkpt><trkpt lat="42.512455" lon="14.1414617"><ele>7.333333333333333</ele><time>2026-05-03T11:30:41.535Z</time></trkpt><trkpt lat="42.51255" lon="14.141545"><ele>7.666666666666666</ele><time>2026-05-03T11:30:43.534Z</time></trkpt><trkpt lat="42.5126383" lon="14.1415417"><ele>8.0</ele><time>2026-05-03T11:30:44.535Z</time></trkpt><trkpt lat="42.512745" lon="14.1415117"><ele>8.0</ele><time>2026-05-03T11:30:45.535Z</time></trkpt><trkpt lat="42.51287" lon="14.1414733"><ele>8.0</ele><time>2026-05-03T11:30:46.534Z</time></trkpt><trkpt lat="42.513015" lon="14.1414533"><ele>8.0</ele><time>2026-05-03T11:30:47.535Z</time></trkpt><trkpt lat="42.5131683" lon="14.1414467"><ele>8.0</ele><time>2026-05-03T11:30:48.534Z</time></trkpt><trkpt lat="42.5133067" lon="14.14146"><ele>7.6000000000000005</ele><time>2026-05-03T11:30:49.535Z</time></trkpt><trkpt lat="42.513415" lon="14.1414883"><ele>7.200000000000001</ele><time>2026-05-03T11:30:50.535Z</time></trkpt><trkpt lat="42.5135117" lon="14.1415333"><ele>6.8</ele><time>2026-05-03T11:30:51.535Z</time></trkpt><trkpt lat="42.5136083" lon="14.14159"><ele>6.4</ele><time>2026-05-03T11:30:52.534Z</time></trkpt><trkpt lat="42.5137" lon="14.1416633"><ele>6.0</ele><time>2026-05-03T11:30:53.534Z</time></trkpt><trkpt lat="42.5137933" lon="14.14172"><ele>5.5</ele><time>2026-05-03T11:30:54.535Z</time></trkpt><trkpt lat="42.5138733" lon="14.14178"><ele>5.0</ele><time>2026-05-03T11:30:55.535Z</time></trkpt><trkpt lat="42.5139417" lon="14.1418333"><ele>4.5</ele><time>2026-05-03T11:30:56.534Z</time></trkpt><trkpt lat="42.5140083" lon="14.14188"><ele>4.0</ele><time>2026-05-03T11:30:57.535Z</time></trkpt><trkpt lat="42.5140783" lon="14.14193"><ele>3.5</ele><time>2026-05-03T11:30:58.535Z</time></trkpt><trkpt lat="42.5141467" lon="14.1419867"><ele>3.0</ele><time>2026-05-03T11:30:59.534Z</time></trkpt><trkpt lat="42.51419" lon="14.1420617"><ele>3.0</ele><time>2026-05-03T11:31:00.535Z</time></trkpt><trkpt lat="42.51423" lon="14.1421367"><ele>3.0</ele><time>2026-05-03T11:31:01.535Z</time></trkpt><trkpt lat="42.5142583" lon="14.14222"><ele>3.0</ele><time>2026-05-03T11:31:02.534Z</time></trkpt><trkpt lat="42.5142917" lon="14.1423117"><ele>3.0</ele><time>2026-05-03T11:31:03.533Z</time></trkpt><trkpt lat="42.5143283" lon="14.1424017"><ele>3.0</ele><time>2026-05-03T11:31:04.534Z</time></trkpt><trkpt lat="42.51443" lon="14.14249"><ele>3.0</ele><time>2026-05-03T11:31:06.533Z</time></trkpt><trkpt lat="42.5144983" lon="14.1424933"><ele>2.8</ele><time>2026-05-03T11:31:07.534Z</time></trkpt><trkpt lat="42.5145817" lon="14.14246"><ele>2.5999999999999996</ele><time>2026-05-03T11:31:08.534Z</time></trkpt><trkpt lat="42.5146717" lon="14.14245"><ele>2.4000000000000004</ele><time>2026-05-03T11:31:09.534Z</time></trkpt><trkpt lat="42.51477" lon="14.1424667"><ele>2.2</ele><time>2026-05-03T11:31:10.534Z</time></trkpt><trkpt lat="42.5148767" lon="14.1425233"><ele>2.0</ele><time>2026-05-03T11:31:11.534Z</time></trkpt><trkpt lat="42.5149867" lon="14.1426"><ele>2.0</ele><time>2026-05-03T11:31:12.534Z</time></trkpt><trkpt lat="42.5150967" lon="14.14268"><ele>2.0</ele><time>2026-05-03T11:31:13.534Z</time></trkpt><trkpt lat="42.51518" lon="14.142745"><ele>2.0</ele><time>2026-05-03T11:31:14.534Z</time></trkpt><trkpt lat="42.5152733" lon="14.14282"><ele>2.0</ele><time>2026-05-03T11:31:15.533Z</time></trkpt><trkpt lat="42.5153817" lon="14.1429083"><ele>2.25</ele><time>2026-05-03T11:31:16.533Z</time></trkpt><trkpt lat="42.5155033" lon="14.143"><ele>2.5</ele><time>2026-05-03T11:31:17.534Z</time></trkpt><trkpt lat="42.5156433" lon="14.14309"><ele>2.75</ele><time>2026-05-03T11:31:18.534Z</time></trkpt><trkpt lat="42.5157767" lon="14.1431867"><ele>3.0</ele><time>2026-05-03T11:31:19.534Z</time></trkpt><trkpt lat="42.5159183" lon="14.14328"><ele>3.333333333333333</ele><time>2026-05-03T11:31:20.534Z</time></trkpt><trkpt lat="42.5160667" lon="14.1433883"><ele>3.6666666666666665</ele><time>2026-05-03T11:31:21.534Z</time></trkpt><trkpt lat="42.5162283" lon="14.1435083"><ele>4.0</ele><time>2026-05-03T11:31:22.534Z</time></trkpt><trkpt lat="42.51641" lon="14.1436283"><ele>4.0</ele><time>2026-05-03T11:31:23.534Z</time></trkpt><trkpt lat="42.5166067" lon="14.143755"><ele>4.0</ele><time>2026-05-03T11:31:24.533Z</time></trkpt><trkpt lat="42.5168017" lon="14.1439"><ele>4.0</ele><time>2026-05-03T11:31:25.534Z</time></trkpt><trkpt lat="42.517" lon="14.14405"><ele>3.6666666666666665</ele><time>2026-05-03T11:31:26.534Z</time></trkpt><trkpt lat="42.517195" lon="14.14419"><ele>3.333333333333333</ele><time>2026-05-03T11:31:27.534Z</time></trkpt><trkpt lat="42.5173917" lon="14.1443283"><ele>3.0</ele><time>2026-05-03T11:31:28.533Z</time></trkpt><trkpt lat="42.5175917" lon="14.144465"><ele>3.0</ele><time>2026-05-03T11:31:29.533Z</time></trkpt><trkpt lat="42.5177883" lon="14.144605"><ele>3.0</ele><time>2026-05-03T11:31:30.534Z</time></trkpt><trkpt lat="42.5179833" lon="14.1447567"><ele>3.0</ele><time>2026-05-03T11:31:31.533Z</time></trkpt><trkpt lat="42.518175" lon="14.1449117"><ele>3.0</ele><time>2026-05-03T11:31:32.534Z</time></trkpt><trkpt lat="42.51838" lon="14.145075"><ele>3.0</ele><time>2026-05-03T11:31:33.534Z</time></trkpt><trkpt lat="42.518575" lon="14.1452117"><ele>3.0</ele><time>2026-05-03T11:31:34.534Z</time></trkpt><trkpt lat="42.5187483" lon="14.145335"><ele>3.0</ele><time>2026-05-03T11:31:35.534Z</time></trkpt><trkpt lat="42.5188983" lon="14.14545"><ele>3.0</ele><time>2026-05-03T11:31:36.534Z</time></trkpt><trkpt lat="42.5190417" lon="14.1455467"><ele>3.0</ele><time>2026-05-03T11:31:37.534Z</time></trkpt><trkpt lat="42.5191767" lon="14.1456333"><ele>3.0</ele><time>2026-05-03T11:31:38.534Z</time></trkpt><trkpt lat="42.5192933" lon="14.145715"><ele>3.0</ele><time>2026-05-03T11:31:39.534Z</time></trkpt><trkpt lat="42.5193933" lon="14.1457983"><ele>3.0</ele><time>2026-05-03T11:31:40.534Z</time></trkpt><trkpt lat="42.5194683" lon="14.1458833"><ele>3.0</ele><time>2026-05-03T11:31:41.534Z</time></trkpt><trkpt lat="42.5195183" lon="14.145965"><ele>3.0</ele><time>2026-05-03T11:31:42.534Z</time></trkpt><trkpt lat="42.5195667" lon="14.1460267"><ele>3.0</ele><time>2026-05-03T11:31:43.534Z</time></trkpt><trkpt lat="42.51966" lon="14.14607"><ele>3.0</ele><time>2026-05-03T11:31:45.534Z</time></trkpt><trkpt lat="42.5197617" lon="14.1460017"><ele>3.0</ele><time>2026-05-03T11:31:47.534Z</time></trkpt><trkpt lat="42.5198217" lon="14.145925"><ele>3.0</ele><time>2026-05-03T11:31:48.534Z</time></trkpt><trkpt lat="42.5198917" lon="14.1458333"><ele>3.0</ele><time>2026-05-03T11:31:49.533Z</time></trkpt><trkpt lat="42.51996" lon="14.1457517"><ele>3.0</ele><time>2026-05-03T11:31:50.534Z</time></trkpt><trkpt lat="42.520015" lon="14.14568"><ele>3.0</ele><time>2026-05-03T11:31:51.534Z</time></trkpt><trkpt lat="42.52007" lon="14.145615"><ele>3.0</ele><time>2026-05-03T11:31:52.534Z</time></trkpt><trkpt lat="42.520135" lon="14.1455417"><ele>3.0</ele><time>2026-05-03T11:31:53.534Z</time></trkpt><trkpt lat="42.5202167" lon="14.1454567"><ele>3.0</ele><time>2026-05-03T11:31:54.534Z</time></trkpt><trkpt lat="42.5203117" lon="14.1453517"><ele>2.8</ele><time>2026-05-03T11:31:55.534Z</time></trkpt><trkpt lat="42.5203967" lon="14.14525"><ele>2.5999999999999996</ele><time>2026-05-03T11:31:56.533Z</time></trkpt><trkpt lat="42.5204733" lon="14.1451567"><ele>2.4000000000000004</ele><time>2026-05-03T11:31:57.534Z</time></trkpt><trkpt lat="42.5205483" lon="14.1450583"><ele>2.2</ele><time>2026-05-03T11:31:58.533Z</time></trkpt><trkpt lat="42.5206383" lon="14.14494"><ele>2.0</ele><time>2026-05-03T11:31:59.533Z</time></trkpt><trkpt lat="42.52075" lon="14.1448017"><ele>2.6666666666666665</ele><time>2026-05-03T11:32:00.534Z</time></trkpt><trkpt lat="42.5208783" lon="14.1446483"><ele>3.333333333333333</ele><time>2026-05-03T11:32:01.534Z</time></trkpt><trkpt lat="42.5210133" lon="14.14449"><ele>4.0</ele><time>2026-05-03T11:32:02.534Z</time></trkpt><trkpt lat="42.52114" lon="14.1443483"><ele>4.25</ele><time>2026-05-03T11:32:03.533Z</time></trkpt><trkpt lat="42.5212467" lon="14.1442233"><ele>4.5</ele><time>2026-05-03T11:32:04.534Z</time></trkpt><trkpt lat="42.52134" lon="14.1441183"><ele>4.75</ele><time>2026-05-03T11:32:05.534Z</time></trkpt><trkpt lat="42.5214233" lon="14.1440117"><ele>5.0</ele><time>2026-05-03T11:32:06.533Z</time></trkpt><trkpt lat="42.521495" lon="14.1439233"><ele>5.0</ele><time>2026-05-03T11:32:07.533Z</time></trkpt><trkpt lat="42.521565" lon="14.1438367"><ele>5.0</ele><time>2026-05-03T11:32:08.533Z</time></trkpt><trkpt lat="42.5216283" lon="14.14376"><ele>5.0</ele><time>2026-05-03T11:32:09.534Z</time></trkpt><trkpt lat="42.52169" lon="14.1436967"><ele>5.0</ele><time>2026-05-03T11:32:10.534Z</time></trkpt><trkpt lat="42.5217883" lon="14.1436367"><ele>5.0</ele><time>2026-05-03T11:32:12.534Z</time></trkpt><trkpt lat="42.5218117" lon="14.14355"><ele>5.0</ele><time>2026-05-03T11:32:21.534Z</time></trkpt><trkpt lat="42.5216983" lon="14.1435883"><ele>5.0</ele><time>2026-05-03T11:32:24.534Z</time></trkpt><trkpt lat="42.5216217" lon="14.1436717"><ele>5.0</ele><time>2026-05-03T11:32:25.533Z</time></trkpt><trkpt lat="42.5215117" lon="14.1438083"><ele>5.0</ele><time>2026-05-03T11:32:26.533Z</time></trkpt><trkpt lat="42.521385" lon="14.14397"><ele>5.0</ele><time>2026-05-03T11:32:27.534Z</time></trkpt><trkpt lat="42.5212517" lon="14.1441533"><ele>4.666666666666667</ele><time>2026-05-03T11:32:28.534Z</time></trkpt><trkpt lat="42.52111" lon="14.144325"><ele>4.333333333333333</ele><time>2026-05-03T11:32:29.534Z</time></trkpt><trkpt lat="42.5209567" lon="14.1445033"><ele>4.0</ele><time>2026-05-03T11:32:30.534Z</time></trkpt><trkpt lat="42.5207967" lon="14.1446883"><ele>3.333333333333333</ele><time>2026-05-03T11:32:31.534Z</time></trkpt><trkpt lat="42.5206267" lon="14.14489"><ele>2.6666666666666665</ele><time>2026-05-03T11:32:32.534Z</time></trkpt><trkpt lat="42.5204617" lon="14.14509"><ele>2.0</ele><time>2026-05-03T11:32:33.534Z</time></trkpt><trkpt lat="42.5203067" lon="14.1452633"><ele>2.0</ele><time>2026-05-03T11:32:34.534Z</time></trkpt><trkpt lat="42.5201767" lon="14.1454183"><ele>2.0</ele><time>2026-05-03T11:32:35.534Z</time></trkpt><trkpt lat="42.5200583" lon="14.1455567"><ele>2.0</ele><time>2026-05-03T11:32:36.534Z</time></trkpt><trkpt lat="42.5199517" lon="14.1456717"><ele>2.2</ele><time>2026-05-03T11:32:37.533Z</time></trkpt><trkpt lat="42.5198633" lon="14.145765"><ele>2.4000000000000004</ele><time>2026-05-03T11:32:38.534Z</time></trkpt><trkpt lat="42.51977" lon="14.1458367"><ele>2.5999999999999996</ele><time>2026-05-03T11:32:39.533Z</time></trkpt><trkpt lat="42.5196867" lon="14.1458983"><ele>2.8</ele><time>2026-05-03T11:32:40.534Z</time></trkpt><trkpt lat="42.5196233" lon="14.14597"><ele>3.0</ele><time>2026-05-03T11:32:41.534Z</time></trkpt><trkpt lat="42.5195717" lon="14.1460583"><ele>3.5</ele><time>2026-05-03T11:32:42.533Z</time></trkpt><trkpt lat="42.519505" lon="14.1461667"><ele>4.0</ele><time>2026-05-03T11:32:43.534Z</time></trkpt><trkpt lat="42.5194283" lon="14.1462867"><ele>4.5</ele><time>2026-05-03T11:32:44.533Z</time></trkpt><trkpt lat="42.5193483" lon="14.1464083"><ele>5.0</ele><time>2026-05-03T11:32:45.534Z</time></trkpt><trkpt lat="42.5192667" lon="14.146535"><ele>4.6</ele><time>2026-05-03T11:32:46.534Z</time></trkpt><trkpt lat="42.5191933" lon="14.1466317"><ele>4.2</ele><time>2026-05-03T11:32:47.534Z</time></trkpt><trkpt lat="42.5191417" lon="14.1467133"><ele>3.8</ele><time>2026-05-03T11:32:48.534Z</time></trkpt><trkpt lat="42.5190583" lon="14.1468167"><ele>3.4</ele><time>2026-05-03T11:32:50.534Z</time></trkpt><trkpt lat="42.519025" lon="14.1469067"><ele>3.0</ele><time>2026-05-03T11:32:53.533Z</time></trkpt><trkpt lat="42.5190583" lon="14.1470567"><ele>3.0</ele><time>2026-05-03T11:32:55.533Z</time></trkpt><trkpt lat="42.519105" lon="14.14715"><ele>3.0</ele><time>2026-05-03T11:32:56.534Z</time></trkpt><trkpt lat="42.5191633" lon="14.1472333"><ele>3.0</ele><time>2026-05-03T11:32:57.534Z</time></trkpt><trkpt lat="42.5192517" lon="14.1473167"><ele>3.0</ele><time>2026-05-03T11:32:58.534Z</time></trkpt><trkpt lat="42.5193867" lon="14.1473717"><ele>3.0</ele><time>2026-05-03T11:32:59.534Z</time></trkpt><trkpt lat="42.51951" lon="14.1474583"><ele>2.25</ele><time>2026-05-03T11:33:00.533Z</time></trkpt><trkpt lat="42.5196183" lon="14.1475767"><ele>1.5</ele><time>2026-05-03T11:33:01.534Z</time></trkpt><trkpt lat="42.519715" lon="14.147725"><ele>0.75</ele><time>2026-05-03T11:33:02.534Z</time></trkpt><trkpt lat="42.5198067" lon="14.1478817"><ele>0.0</ele><time>2026-05-03T11:33:03.534Z</time></trkpt><trkpt lat="42.5198967" lon="14.148045"><ele>0.0</ele><time>2026-05-03T11:33:04.533Z</time></trkpt><trkpt lat="42.5199667" lon="14.148195"><ele>0.0</ele><time>2026-05-03T11:33:05.534Z</time></trkpt><trkpt lat="42.520015" lon="14.1483267"><ele>0.0</ele><time>2026-05-03T11:33:06.533Z</time></trkpt><trkpt lat="42.520065" lon="14.148455"><ele>0.0</ele><time>2026-05-03T11:33:07.534Z</time></trkpt><trkpt lat="42.5201183" lon="14.1485867"><ele>0.5</ele><time>2026-05-03T11:33:08.534Z</time></trkpt><trkpt lat="42.5201617" lon="14.1487267"><ele>1.0</ele><time>2026-05-03T11:33:09.533Z</time></trkpt><trkpt lat="42.520215" lon="14.148875"><ele>1.5</ele><time>2026-05-03T11:33:10.534Z</time></trkpt><trkpt lat="42.5202583" lon="14.1490233"><ele>2.0</ele><time>2026-05-03T11:33:11.534Z</time></trkpt><trkpt lat="42.520315" lon="14.14918"><ele>2.0</ele><time>2026-05-03T11:33:12.534Z</time></trkpt><trkpt lat="42.520365" lon="14.149335"><ele>2.0</ele><time>2026-05-03T11:33:13.534Z</time></trkpt><trkpt lat="42.520425" lon="14.1494833"><ele>2.0</ele><time>2026-05-03T11:33:14.534Z</time></trkpt><trkpt lat="42.520475" lon="14.1496433"><ele>2.0</ele><time>2026-05-03T11:33:15.534Z</time></trkpt><trkpt lat="42.520525" lon="14.149805"><ele>2.2</ele><time>2026-05-03T11:33:16.534Z</time></trkpt><trkpt lat="42.5205767" lon="14.14995"><ele>2.4000000000000004</ele><time>2026-05-03T11:33:17.533Z</time></trkpt><trkpt lat="42.5206267" lon="14.15007"><ele>2.5999999999999996</ele><time>2026-05-03T11:33:18.533Z</time></trkpt><trkpt lat="42.5206633" lon="14.1501833"><ele>2.8</ele><time>2026-05-03T11:33:19.534Z</time></trkpt><trkpt lat="42.520695" lon="14.1502867"><ele>3.0</ele><time>2026-05-03T11:33:20.533Z</time></trkpt><trkpt lat="42.52073" lon="14.150395"><ele>3.0</ele><time>2026-05-03T11:33:21.534Z</time></trkpt><trkpt lat="42.5207667" lon="14.1505083"><ele>3.0</ele><time>2026-05-03T11:33:22.534Z</time></trkpt><trkpt lat="42.5208083" lon="14.1506267"><ele>3.0</ele><time>2026-05-03T11:33:23.534Z</time></trkpt><trkpt lat="42.5208583" lon="14.150745"><ele>3.0</ele><time>2026-05-03T11:33:24.534Z</time></trkpt><trkpt lat="42.520895" lon="14.1508733"><ele>3.0</ele><time>2026-05-03T11:33:25.533Z</time></trkpt><trkpt lat="42.5209433" lon="14.151"><ele>2.8</ele><time>2026-05-03T11:33:26.534Z</time></trkpt><trkpt lat="42.52099" lon="14.151125"><ele>2.5999999999999996</ele><time>2026-05-03T11:33:27.534Z</time></trkpt><trkpt lat="42.5210283" lon="14.1512583"><ele>2.4000000000000004</ele><time>2026-05-03T11:33:28.534Z</time></trkpt><trkpt lat="42.5210733" lon="14.1513833"><ele>2.2</ele><time>2026-05-03T11:33:29.534Z</time></trkpt><trkpt lat="42.52111" lon="14.1515117"><ele>2.0</ele><time>2026-05-03T11:33:30.534Z</time></trkpt><trkpt lat="42.5211533" lon="14.1516533"><ele>2.0</ele><time>2026-05-03T11:33:31.534Z</time></trkpt><trkpt lat="42.5212017" lon="14.1517917"><ele>2.0</ele><time>2026-05-03T11:33:32.534Z</time></trkpt><trkpt lat="42.521245" lon="14.1519167"><ele>2.0</ele><time>2026-05-03T11:33:33.534Z</time></trkpt><trkpt lat="42.5212833" lon="14.1520167"><ele>2.0</ele><time>2026-05-03T11:33:34.534Z</time></trkpt><trkpt lat="42.5213133" lon="14.1521133"><ele>2.0</ele><time>2026-05-03T11:33:35.534Z</time></trkpt><trkpt lat="42.52135" lon="14.1522167"><ele>1.5</ele><time>2026-05-03T11:33:36.533Z</time></trkpt><trkpt lat="42.52139" lon="14.1523367"><ele>1.0</ele><time>2026-05-03T11:33:37.533Z</time></trkpt><trkpt lat="42.5214317" lon="14.152465"><ele>0.5</ele><time>2026-05-03T11:33:38.534Z</time></trkpt><trkpt lat="42.52149" lon="14.1526083"><ele>0.0</ele><time>2026-05-03T11:33:39.534Z</time></trkpt><trkpt lat="42.5215517" lon="14.1527633"><ele>0.0</ele><time>2026-05-03T11:33:40.534Z</time></trkpt><trkpt lat="42.5216017" lon="14.1529183"><ele>0.0</ele><time>2026-05-03T11:33:41.533Z</time></trkpt><trkpt lat="42.521655" lon="14.1530733"><ele>0.0</ele><time>2026-05-03T11:33:42.533Z</time></trkpt><trkpt lat="42.5217067" lon="14.1532217"><ele>0.0</ele><time>2026-05-03T11:33:43.534Z</time></trkpt><trkpt lat="42.5217533" lon="14.15335"><ele>0.0</ele><time>2026-05-03T11:33:44.534Z</time></trkpt><trkpt lat="42.5217983" lon="14.1534633"><ele>0.0</ele><time>2026-05-03T11:33:45.533Z</time></trkpt><trkpt lat="42.5218383" lon="14.1535467"><ele>0.0</ele><time>2026-05-03T11:33:46.533Z</time></trkpt><trkpt lat="42.521925" lon="14.1536283"><ele>0.0</ele><time>2026-05-03T11:33:48.534Z</time></trkpt><trkpt lat="42.5220467" lon="14.15361"><ele>0.0</ele><time>2026-05-03T11:33:50.534Z</time></trkpt><trkpt lat="42.5221067" lon="14.1535483"><ele>0.3333333333333333</ele><time>2026-05-03T11:33:51.534Z</time></trkpt><trkpt lat="42.5221633" lon="14.15349"><ele>0.6666666666666666</ele><time>2026-05-03T11:33:52.533Z</time></trkpt><trkpt lat="42.5222467" lon="14.1534067"><ele>1.0</ele><time>2026-05-03T11:33:54.533Z</time></trkpt><trkpt lat="42.5223033" lon="14.15336"><ele>1.3333333333333333</ele><time>2026-05-03T11:33:57.534Z</time></trkpt><trkpt lat="42.5222767" lon="14.153255"><ele>1.6666666666666665</ele><time>2026-05-03T11:34:01.533Z</time></trkpt><trkpt lat="42.5222267" lon="14.153145"><ele>2.0</ele><time>2026-05-03T11:34:03.534Z</time></trkpt><trkpt lat="42.5221917" lon="14.1530733"><ele>1.9999999999999998</ele><time>2026-05-03T11:34:04.533Z</time></trkpt><trkpt lat="42.5221483" lon="14.152985"><ele>2.0</ele><time>2026-05-03T11:34:05.533Z</time></trkpt><trkpt lat="42.5221083" lon="14.1528917"><ele>2.0</ele><time>2026-05-03T11:34:06.534Z</time></trkpt><trkpt lat="42.5220717" lon="14.1528083"><ele>2.0</ele><time>2026-05-03T11:34:07.533Z</time></trkpt><trkpt lat="42.5220133" lon="14.15268"><ele>1.9999999999999998</ele><time>2026-05-03T11:34:09.534Z</time></trkpt><trkpt lat="42.521975" lon="14.1525967"><ele>2.0</ele><time>2026-05-03T11:34:11.534Z</time></trkpt><trkpt lat="42.5219417" lon="14.1525133"><ele>1.6</ele><time>2026-05-03T11:34:14.533Z</time></trkpt><trkpt lat="42.5218917" lon="14.1523883"><ele>1.2000000000000002</ele><time>2026-05-03T11:34:17.534Z</time></trkpt><trkpt lat="42.5218283" lon="14.152235"><ele>0.8</ele><time>2026-05-03T11:34:19.534Z</time></trkpt><trkpt lat="42.521805" lon="14.152155"><ele>0.4</ele><time>2026-05-03T11:34:20.533Z</time></trkpt><trkpt lat="42.521815" lon="14.1520317"><ele>0.0</ele><time>2026-05-03T11:34:22.534Z</time></trkpt><trkpt lat="42.5218833" lon="14.1519833"><ele>0.0</ele><time>2026-05-03T11:34:24.533Z</time></trkpt><trkpt lat="42.5219467" lon="14.1520433"><ele>0.0</ele><time>2026-05-03T11:34:26.534Z</time></trkpt><trkpt lat="42.5219967" lon="14.1521717"><ele>0.0</ele><time>2026-05-03T11:34:28.534Z</time></trkpt><trkpt lat="42.5220583" lon="14.1523133"><ele>0.0</ele><time>2026-05-03T11:34:30.534Z</time></trkpt><trkpt lat="42.5220967" lon="14.1523867"><ele>0.0</ele><time>2026-05-03T11:34:31.534Z</time></trkpt><trkpt lat="42.522155" lon="14.1525033"><ele>2.0</ele><time>2026-05-03T11:34:33.533Z</time></trkpt><trkpt lat="42.5221983" lon="14.1525967"><ele>2.0</ele><time>2026-05-03T11:34:36.533Z</time></trkpt><trkpt lat="42.5222667" lon="14.152585"><ele>2.0</ele><time>2026-05-03T11:34:44.533Z</time></trkpt></trkseg></trk></gpx>